<?xml version="1.0" encoding="UTF-8"?>
<TrainingCenterDatabase xmlns="http://www.garmin.com/xmlschemas/TrainingCenterDatabase/v2" xmlns:xsi="http://www.w3.org/2001/XMLSchema-instance" xsi:schemaLocation="http://www.garmin.com/xmlschemas/TrainingCenterDatabase/v2 http://www.garmin.com/xmlschemas/TrainingCenterDatabasev2.xsd">
  <Activities>
    <Activity Sport="Other">
      <Id>2020-12-05T08:36:50.000Z</Id>
      <Lap StartTime="2020-12-05T08:36:50.000Z">
        <TotalTimeSeconds>21426</TotalTimeSeconds>
        <DistanceMeters>23740</DistanceMeters>
        <Track>
          <Trackpoint>
            <Time>2020-12-05T08:36:50.000Z</Time>
            <Position>
              <LatitudeDegrees>36.7946664802730083465576171875</LatitudeDegrees>
              <LongitudeDegrees>-4.38181045465171337127685546875</LongitudeDegrees>
            </Position>
            <AltitudeMeters>716.20001220703125</AltitudeMeters>
            <DistanceMeters>0</DistanceMeters>
          </Trackpoint>
          <Trackpoint>
            <Time>2020-12-05T08:36:51.000Z</Time>
            <Position>
              <LatitudeDegrees>36.79467913694679737091064453125</LatitudeDegrees>
              <LongitudeDegrees>-4.38179855234920978546142578125</LongitudeDegrees>
            </Position>
            <AltitudeMeters>716.4000244140625</AltitudeMeters>
            <DistanceMeters>1.7624829918953</DistanceMeters>
          </Trackpoint>
          <Trackpoint>
            <Time>2020-12-05T08:36:52.000Z</Time>
            <Position>
              <LatitudeDegrees>36.79469103924930095672607421875</LatitudeDegrees>
              <LongitudeDegrees>-4.38178338110446929931640625</LongitudeDegrees>
            </Position>
            <AltitudeMeters>716.79998779296875</AltitudeMeters>
            <DistanceMeters>3.6558768622376</DistanceMeters>
          </Trackpoint>
          <Trackpoint>
            <Time>2020-12-05T08:36:53.000Z</Time>
            <Position>
              <LatitudeDegrees>36.79470478557050228118896484375</LatitudeDegrees>
              <LongitudeDegrees>-4.3817664496600627899169921875</LongitudeDegrees>
            </Position>
            <AltitudeMeters>716</AltitudeMeters>
            <DistanceMeters>5.8060859542342</DistanceMeters>
          </Trackpoint>
          <Trackpoint>
            <Time>2020-12-05T08:36:54.000Z</Time>
            <Position>
              <LatitudeDegrees>36.79471618495881557464599609375</LatitudeDegrees>
              <LongitudeDegrees>-4.38174893148243427276611328125</LongitudeDegrees>
            </Position>
            <AltitudeMeters>715.79998779296875</AltitudeMeters>
            <DistanceMeters>7.8174223872785</DistanceMeters>
          </Trackpoint>
          <Trackpoint>
            <Time>2020-12-05T08:36:55.000Z</Time>
            <Position>
              <LatitudeDegrees>36.79473496042191982269287109375</LatitudeDegrees>
              <LongitudeDegrees>-4.38170601613819599151611328125</LongitudeDegrees>
            </Position>
            <AltitudeMeters>716</AltitudeMeters>
            <DistanceMeters>12.175202872989</DistanceMeters>
          </Trackpoint>
          <Trackpoint>
            <Time>2020-12-05T08:36:56.000Z</Time>
            <Position>
              <LatitudeDegrees>36.7947445996105670928955078125</LatitudeDegrees>
              <LongitudeDegrees>-4.3816888332366943359375</LongitudeDegrees>
            </Position>
            <AltitudeMeters>716.20001220703125</AltitudeMeters>
            <DistanceMeters>14.047012067392</DistanceMeters>
          </Trackpoint>
          <Trackpoint>
            <Time>2020-12-05T08:36:57.000Z</Time>
            <Position>
              <LatitudeDegrees>36.79475390352308750152587890625</LatitudeDegrees>
              <LongitudeDegrees>-4.38167450018227100372314453125</LongitudeDegrees>
            </Position>
            <AltitudeMeters>716.20001220703125</AltitudeMeters>
            <DistanceMeters>15.687427496574</DistanceMeters>
          </Trackpoint>
          <Trackpoint>
            <Time>2020-12-05T08:36:58.000Z</Time>
            <Position>
              <LatitudeDegrees>36.79476253688335418701171875</LatitudeDegrees>
              <LongitudeDegrees>-4.381664358079433441162109375</LongitudeDegrees>
            </Position>
            <AltitudeMeters>716.20001220703125</AltitudeMeters>
            <DistanceMeters>17.004156275496</DistanceMeters>
          </Trackpoint>
          <Trackpoint>
            <Time>2020-12-05T08:36:59.000Z</Time>
            <Position>
              <LatitudeDegrees>36.79477469064295291900634765625</LatitudeDegrees>
              <LongitudeDegrees>-4.381655640900135040283203125</LongitudeDegrees>
            </Position>
            <AltitudeMeters>716.20001220703125</AltitudeMeters>
            <DistanceMeters>18.565604526277</DistanceMeters>
          </Trackpoint>
          <Trackpoint>
            <Time>2020-12-05T08:37:00.000Z</Time>
            <Position>
              <LatitudeDegrees>36.7947881855070590972900390625</LatitudeDegrees>
              <LongitudeDegrees>-4.38164851628243923187255859375</LongitudeDegrees>
            </Position>
            <AltitudeMeters>716.4000244140625</AltitudeMeters>
            <DistanceMeters>20.197741944194</DistanceMeters>
          </Trackpoint>
          <Trackpoint>
            <Time>2020-12-05T08:37:01.000Z</Time>
            <Position>
              <LatitudeDegrees>36.794801764190196990966796875</LatitudeDegrees>
              <LongitudeDegrees>-4.3816427327692508697509765625</LongitudeDegrees>
            </Position>
            <AltitudeMeters>717</AltitudeMeters>
            <DistanceMeters>21.79067994699</DistanceMeters>
          </Trackpoint>
          <Trackpoint>
            <Time>2020-12-05T08:37:02.000Z</Time>
            <Position>
              <LatitudeDegrees>36.794817186892032623291015625</LatitudeDegrees>
              <LongitudeDegrees>-4.38163317739963531494140625</LongitudeDegrees>
            </Position>
            <AltitudeMeters>718.4000244140625</AltitudeMeters>
            <DistanceMeters>23.705415186193</DistanceMeters>
          </Trackpoint>
          <Trackpoint>
            <Time>2020-12-05T08:37:03.000Z</Time>
            <Position>
              <LatitudeDegrees>36.79483269341289997100830078125</LatitudeDegrees>
              <LongitudeDegrees>-4.381622783839702606201171875</LongitudeDegrees>
            </Position>
            <AltitudeMeters>719.79998779296875</AltitudeMeters>
            <DistanceMeters>25.666744471429</DistanceMeters>
          </Trackpoint>
          <Trackpoint>
            <Time>2020-12-05T08:37:04.000Z</Time>
            <Position>
              <LatitudeDegrees>36.79485331289470195770263671875</LatitudeDegrees>
              <LongitudeDegrees>-4.38161213882267475128173828125</LongitudeDegrees>
            </Position>
            <AltitudeMeters>720.5999755859375</AltitudeMeters>
            <DistanceMeters>28.148379443535</DistanceMeters>
          </Trackpoint>
          <Trackpoint>
            <Time>2020-12-05T08:37:05.000Z</Time>
            <Position>
              <LatitudeDegrees>36.7948703281581401824951171875</LatitudeDegrees>
              <LongitudeDegrees>-4.3815988115966320037841796875</LongitudeDegrees>
            </Position>
            <AltitudeMeters>720.79998779296875</AltitudeMeters>
            <DistanceMeters>30.385042661355</DistanceMeters>
          </Trackpoint>
          <Trackpoint>
            <Time>2020-12-05T08:37:06.000Z</Time>
            <Position>
              <LatitudeDegrees>36.79488700814545154571533203125</LatitudeDegrees>
              <LongitudeDegrees>-4.38158690929412841796875</LongitudeDegrees>
            </Position>
            <AltitudeMeters>721</AltitudeMeters>
            <DistanceMeters>32.518387107935</DistanceMeters>
          </Trackpoint>
          <Trackpoint>
            <Time>2020-12-05T08:37:07.000Z</Time>
            <Position>
              <LatitudeDegrees>36.7949035204946994781494140625</LatitudeDegrees>
              <LongitudeDegrees>-4.381575845181941986083984375</LongitudeDegrees>
            </Position>
            <AltitudeMeters>721</AltitudeMeters>
            <DistanceMeters>34.604650956537</DistanceMeters>
          </Trackpoint>
          <Trackpoint>
            <Time>2020-12-05T08:37:08.000Z</Time>
            <Position>
              <LatitudeDegrees>36.79491567425429821014404296875</LatitudeDegrees>
              <LongitudeDegrees>-4.3815669603645801544189453125</LongitudeDegrees>
            </Position>
            <AltitudeMeters>721</AltitudeMeters>
            <DistanceMeters>36.171871678949</DistanceMeters>
          </Trackpoint>
          <Trackpoint>
            <Time>2020-12-05T08:37:09.000Z</Time>
            <Position>
              <LatitudeDegrees>36.794927157461643218994140625</LatitudeDegrees>
              <LongitudeDegrees>-4.381557404994964599609375</LongitudeDegrees>
            </Position>
            <AltitudeMeters>721</AltitudeMeters>
            <DistanceMeters>37.710013424145</DistanceMeters>
          </Trackpoint>
          <Trackpoint>
            <Time>2020-12-05T08:37:10.000Z</Time>
            <Position>
              <LatitudeDegrees>36.794938556849956512451171875</LatitudeDegrees>
              <LongitudeDegrees>-4.38154675997793674468994140625</LongitudeDegrees>
            </Position>
            <AltitudeMeters>721</AltitudeMeters>
            <DistanceMeters>39.294425381756</DistanceMeters>
          </Trackpoint>
          <Trackpoint>
            <Time>2020-12-05T08:37:11.000Z</Time>
            <Position>
              <LatitudeDegrees>36.7949501238763332366943359375</LatitudeDegrees>
              <LongitudeDegrees>-4.381536953151226043701171875</LongitudeDegrees>
            </Position>
            <AltitudeMeters>721</AltitudeMeters>
            <DistanceMeters>40.850079741496</DistanceMeters>
          </Trackpoint>
          <Trackpoint>
            <Time>2020-12-05T08:37:12.000Z</Time>
            <Position>
              <LatitudeDegrees>36.7949615232646465301513671875</LatitudeDegrees>
              <LongitudeDegrees>-4.3815287388861179351806640625</LongitudeDegrees>
            </Position>
            <AltitudeMeters>721</AltitudeMeters>
            <DistanceMeters>42.316080489675</DistanceMeters>
          </Trackpoint>
          <Trackpoint>
            <Time>2020-12-05T08:37:13.000Z</Time>
            <Position>
              <LatitudeDegrees>36.79497367702424526214599609375</LatitudeDegrees>
              <LongitudeDegrees>-4.38152094371616840362548828125</LongitudeDegrees>
            </Position>
            <AltitudeMeters>721</AltitudeMeters>
            <DistanceMeters>43.836507919595</DistanceMeters>
          </Trackpoint>
          <Trackpoint>
            <Time>2020-12-05T08:37:14.000Z</Time>
            <Position>
              <LatitudeDegrees>36.79498557932674884796142578125</LatitudeDegrees>
              <LongitudeDegrees>-4.38151272945106029510498046875</LongitudeDegrees>
            </Position>
            <AltitudeMeters>721.20001220703125</AltitudeMeters>
            <DistanceMeters>45.350984534391</DistanceMeters>
          </Trackpoint>
          <Trackpoint>
            <Time>2020-12-05T08:37:15.000Z</Time>
            <Position>
              <LatitudeDegrees>36.79499723017215728759765625</LatitudeDegrees>
              <LongitudeDegrees>-4.381503760814666748046875</LongitudeDegrees>
            </Position>
            <AltitudeMeters>721.4000244140625</AltitudeMeters>
            <DistanceMeters>46.877339579111</DistanceMeters>
          </Trackpoint>
          <Trackpoint>
            <Time>2020-12-05T08:37:16.000Z</Time>
            <Position>
              <LatitudeDegrees>36.7950087971985340118408203125</LatitudeDegrees>
              <LongitudeDegrees>-4.381496720016002655029296875</LongitudeDegrees>
            </Position>
            <AltitudeMeters>721.4000244140625</AltitudeMeters>
            <DistanceMeters>48.312211499953</DistanceMeters>
          </Trackpoint>
          <Trackpoint>
            <Time>2020-12-05T08:37:17.000Z</Time>
            <Position>
              <LatitudeDegrees>36.7950215376913547515869140625</LatitudeDegrees>
              <LongitudeDegrees>-4.38148842193186283111572265625</LongitudeDegrees>
            </Position>
            <AltitudeMeters>721.4000244140625</AltitudeMeters>
            <DistanceMeters>49.907981394767</DistanceMeters>
          </Trackpoint>
          <Trackpoint>
            <Time>2020-12-05T08:37:18.000Z</Time>
            <Position>
              <LatitudeDegrees>36.795035116374492645263671875</LatitudeDegrees>
              <LongitudeDegrees>-4.3814791180193424224853515625</LongitudeDegrees>
            </Position>
            <AltitudeMeters>721.4000244140625</AltitudeMeters>
            <DistanceMeters>51.628988388831</DistanceMeters>
          </Trackpoint>
          <Trackpoint>
            <Time>2020-12-05T08:37:19.000Z</Time>
            <Position>
              <LatitudeDegrees>36.7950497008860111236572265625</LatitudeDegrees>
              <LongitudeDegrees>-4.3814710713922977447509765625</LongitudeDegrees>
            </Position>
            <AltitudeMeters>721.4000244140625</AltitudeMeters>
            <DistanceMeters>53.401688759028</DistanceMeters>
          </Trackpoint>
          <Trackpoint>
            <Time>2020-12-05T08:37:20.000Z</Time>
            <Position>
              <LatitudeDegrees>36.79506453685462474822998046875</LatitudeDegrees>
              <LongitudeDegrees>-4.38146419823169708251953125</LongitudeDegrees>
            </Position>
            <AltitudeMeters>721.4000244140625</AltitudeMeters>
            <DistanceMeters>55.164171750923</DistanceMeters>
          </Trackpoint>
          <Trackpoint>
            <Time>2020-12-05T08:37:21.000Z</Time>
            <Position>
              <LatitudeDegrees>36.795079372823238372802734375</LatitudeDegrees>
              <LongitudeDegrees>-4.3814595043659210205078125</LongitudeDegrees>
            </Position>
            <AltitudeMeters>721.4000244140625</AltitudeMeters>
            <DistanceMeters>56.866715300589</DistanceMeters>
          </Trackpoint>
          <Trackpoint>
            <Time>2020-12-05T08:37:22.000Z</Time>
            <Position>
              <LatitudeDegrees>36.7950946278870105743408203125</LatitudeDegrees>
              <LongitudeDegrees>-4.38145506195724010467529296875</LongitudeDegrees>
            </Position>
            <AltitudeMeters>721.4000244140625</AltitudeMeters>
            <DistanceMeters>58.608583747163</DistanceMeters>
          </Trackpoint>
          <Trackpoint>
            <Time>2020-12-05T08:37:23.000Z</Time>
            <Position>
              <LatitudeDegrees>36.79510996676981449127197265625</LatitudeDegrees>
              <LongitudeDegrees>-4.3814506195485591888427734375</LongitudeDegrees>
            </Position>
            <AltitudeMeters>721.79998779296875</AltitudeMeters>
            <DistanceMeters>60.360789782692</DistanceMeters>
          </Trackpoint>
          <Trackpoint>
            <Time>2020-12-05T08:37:24.000Z</Time>
            <Position>
              <LatitudeDegrees>36.7951254732906818389892578125</LatitudeDegrees>
              <LongitudeDegrees>-4.38144684769213199615478515625</LongitudeDegrees>
            </Position>
            <AltitudeMeters>721.79998779296875</AltitudeMeters>
            <DistanceMeters>62.120709161606</DistanceMeters>
          </Trackpoint>
          <Trackpoint>
            <Time>2020-12-05T08:37:25.000Z</Time>
            <Position>
              <LatitudeDegrees>36.79514416493475437164306640625</LatitudeDegrees>
              <LongitudeDegrees>-4.381441734731197357177734375</LongitudeDegrees>
            </Position>
            <AltitudeMeters>722</AltitudeMeters>
            <DistanceMeters>64.249816574318</DistanceMeters>
          </Trackpoint>
          <Trackpoint>
            <Time>2020-12-05T08:37:26.000Z</Time>
            <Position>
              <LatitudeDegrees>36.79516025818884372711181640625</LatitudeDegrees>
              <LongitudeDegrees>-4.381437040865421295166015625</LongitudeDegrees>
            </Position>
            <AltitudeMeters>722</AltitudeMeters>
            <DistanceMeters>66.087545768198</DistanceMeters>
          </Trackpoint>
          <Trackpoint>
            <Time>2020-12-05T08:37:27.000Z</Time>
            <Position>
              <LatitudeDegrees>36.7951747588813304901123046875</LatitudeDegrees>
              <LongitudeDegrees>-4.38143192790448665618896484375</LongitudeDegrees>
            </Position>
            <AltitudeMeters>722</AltitudeMeters>
            <DistanceMeters>67.766052202655</DistanceMeters>
          </Trackpoint>
          <Trackpoint>
            <Time>2020-12-05T08:37:28.000Z</Time>
            <Position>
              <LatitudeDegrees>36.79518909193575382232666015625</LatitudeDegrees>
              <LongitudeDegrees>-4.381426982581615447998046875</LongitudeDegrees>
            </Position>
            <AltitudeMeters>722</AltitudeMeters>
            <DistanceMeters>69.422899582156</DistanceMeters>
          </Trackpoint>
          <Trackpoint>
            <Time>2020-12-05T08:37:29.000Z</Time>
            <Position>
              <LatitudeDegrees>36.795204766094684600830078125</LatitudeDegrees>
              <LongitudeDegrees>-4.38142404891550540924072265625</LongitudeDegrees>
            </Position>
            <AltitudeMeters>722</AltitudeMeters>
            <DistanceMeters>71.190498645748</DistanceMeters>
          </Trackpoint>
          <Trackpoint>
            <Time>2020-12-05T08:37:30.000Z</Time>
            <Position>
              <LatitudeDegrees>36.795223541557788848876953125</LatitudeDegrees>
              <LongitudeDegrees>-4.3814224563539028167724609375</LongitudeDegrees>
            </Position>
            <AltitudeMeters>722</AltitudeMeters>
            <DistanceMeters>73.285401305005</DistanceMeters>
          </Trackpoint>
          <Trackpoint>
            <Time>2020-12-05T08:37:31.000Z</Time>
            <Position>
              <LatitudeDegrees>36.79524265229701995849609375</LatitudeDegrees>
              <LongitudeDegrees>-4.38142069615423679351806640625</LongitudeDegrees>
            </Position>
            <AltitudeMeters>722.20001220703125</AltitudeMeters>
            <DistanceMeters>75.418745751584</DistanceMeters>
          </Trackpoint>
          <Trackpoint>
            <Time>2020-12-05T08:37:32.000Z</Time>
            <Position>
              <LatitudeDegrees>36.7952620983123779296875</LatitudeDegrees>
              <LongitudeDegrees>-4.38141985796391963958740234375</LongitudeDegrees>
            </Position>
            <AltitudeMeters>722.4000244140625</AltitudeMeters>
            <DistanceMeters>77.585688240636</DistanceMeters>
          </Trackpoint>
          <Trackpoint>
            <Time>2020-12-05T08:37:33.000Z</Time>
            <Position>
              <LatitudeDegrees>36.79528816603124141693115234375</LatitudeDegrees>
              <LongitudeDegrees>-4.381428323686122894287109375</LongitudeDegrees>
            </Position>
            <AltitudeMeters>722.5999755859375</AltitudeMeters>
            <DistanceMeters>80.584680761163</DistanceMeters>
          </Trackpoint>
          <Trackpoint>
            <Time>2020-12-05T08:37:34.000Z</Time>
            <Position>
              <LatitudeDegrees>36.79530694149434566497802734375</LatitudeDegrees>
              <LongitudeDegrees>-4.38143008388578891754150390625</LongitudeDegrees>
            </Position>
            <AltitudeMeters>723</AltitudeMeters>
            <DistanceMeters>82.681737562541</DistanceMeters>
          </Trackpoint>
          <Trackpoint>
            <Time>2020-12-05T08:37:35.000Z</Time>
            <Position>
              <LatitudeDegrees>36.795322783291339874267578125</LatitudeDegrees>
              <LongitudeDegrees>-4.3814311735332012176513671875</LongitudeDegrees>
            </Position>
            <AltitudeMeters>723.4000244140625</AltitudeMeters>
            <DistanceMeters>84.449336626132</DistanceMeters>
          </Trackpoint>
          <Trackpoint>
            <Time>2020-12-05T08:37:36.000Z</Time>
            <Position>
              <LatitudeDegrees>36.79533627815544605255126953125</LatitudeDegrees>
              <LongitudeDegrees>-4.381428994238376617431640625</LongitudeDegrees>
            </Position>
            <AltitudeMeters>723.5999755859375</AltitudeMeters>
            <DistanceMeters>85.960829047655</DistanceMeters>
          </Trackpoint>
          <Trackpoint>
            <Time>2020-12-05T08:37:37.000Z</Time>
            <Position>
              <LatitudeDegrees>36.7953484319150447845458984375</LatitudeDegrees>
              <LongitudeDegrees>-4.38142455182969570159912109375</LongitudeDegrees>
            </Position>
            <AltitudeMeters>724</AltitudeMeters>
            <DistanceMeters>87.367095999989</DistanceMeters>
          </Trackpoint>
          <Trackpoint>
            <Time>2020-12-05T08:37:38.000Z</Time>
            <Position>
              <LatitudeDegrees>36.7953568138182163238525390625</LatitudeDegrees>
              <LongitudeDegrees>-4.3814180977642536163330078125</LongitudeDegrees>
            </Position>
            <AltitudeMeters>724.20001220703125</AltitudeMeters>
            <DistanceMeters>88.467109746944</DistanceMeters>
          </Trackpoint>
          <Trackpoint>
            <Time>2020-12-05T08:37:39.000Z</Time>
            <Position>
              <LatitudeDegrees>36.79536511190235614776611328125</LatitudeDegrees>
              <LongitudeDegrees>-4.38141047023236751556396484375</LongitudeDegrees>
            </Position>
            <AltitudeMeters>724.4000244140625</AltitudeMeters>
            <DistanceMeters>89.615321905396</DistanceMeters>
          </Trackpoint>
          <Trackpoint>
            <Time>2020-12-05T08:37:40.000Z</Time>
            <Position>
              <LatitudeDegrees>36.7953762598335742950439453125</LatitudeDegrees>
              <LongitudeDegrees>-4.38140510581433773040771484375</LongitudeDegrees>
            </Position>
            <AltitudeMeters>724.4000244140625</AltitudeMeters>
            <DistanceMeters>90.945695906575</DistanceMeters>
          </Trackpoint>
          <Trackpoint>
            <Time>2020-12-05T08:37:41.000Z</Time>
            <Position>
              <LatitudeDegrees>36.795389838516712188720703125</LatitudeDegrees>
              <LongitudeDegrees>-4.381399489939212799072265625</LongitudeDegrees>
            </Position>
            <AltitudeMeters>724.5999755859375</AltitudeMeters>
            <DistanceMeters>92.5357969739</DistanceMeters>
          </Trackpoint>
          <Trackpoint>
            <Time>2020-12-05T08:37:42.000Z</Time>
            <Position>
              <LatitudeDegrees>36.795407272875308990478515625</LatitudeDegrees>
              <LongitudeDegrees>-4.38139353878796100616455078125</LongitudeDegrees>
            </Position>
            <AltitudeMeters>724.79998779296875</AltitudeMeters>
            <DistanceMeters>94.547133406945</DistanceMeters>
          </Trackpoint>
          <Trackpoint>
            <Time>2020-12-05T08:37:43.000Z</Time>
            <Position>
              <LatitudeDegrees>36.7954208515584468841552734375</LatitudeDegrees>
              <LongitudeDegrees>-4.38138532452285289764404296875</LongitudeDegrees>
            </Position>
            <AltitudeMeters>725</AltitudeMeters>
            <DistanceMeters>96.228327603627</DistanceMeters>
          </Trackpoint>
          <Trackpoint>
            <Time>2020-12-05T08:37:44.000Z</Time>
            <Position>
              <LatitudeDegrees>36.7954356037080287933349609375</LatitudeDegrees>
              <LongitudeDegrees>-4.3813825584948062896728515625</LongitudeDegrees>
            </Position>
            <AltitudeMeters>725.20001220703125</AltitudeMeters>
            <DistanceMeters>97.887897823716</DistanceMeters>
          </Trackpoint>
          <Trackpoint>
            <Time>2020-12-05T08:37:45.000Z</Time>
            <Position>
              <LatitudeDegrees>36.79545043967664241790771484375</LatitudeDegrees>
              <LongitudeDegrees>-4.38138197176158428192138671875</LongitudeDegrees>
            </Position>
            <AltitudeMeters>725.4000244140625</AltitudeMeters>
            <DistanceMeters>99.539286053683</DistanceMeters>
          </Trackpoint>
          <Trackpoint>
            <Time>2020-12-05T08:37:46.000Z</Time>
            <Position>
              <LatitudeDegrees>36.79546502418816089630126953125</LatitudeDegrees>
              <LongitudeDegrees>-4.381381385028362274169921875</LongitudeDegrees>
            </Position>
            <AltitudeMeters>725.5999755859375</AltitudeMeters>
            <DistanceMeters>101.16310326065</DistanceMeters>
          </Trackpoint>
          <Trackpoint>
            <Time>2020-12-05T08:37:47.000Z</Time>
            <Position>
              <LatitudeDegrees>36.79547868669033050537109375</LatitudeDegrees>
              <LongitudeDegrees>-4.3813805468380451202392578125</LongitudeDegrees>
            </Position>
            <AltitudeMeters>725.79998779296875</AltitudeMeters>
            <DistanceMeters>102.68649738106</DistanceMeters>
          </Trackpoint>
          <Trackpoint>
            <Time>2020-12-05T08:37:48.000Z</Time>
            <Position>
              <LatitudeDegrees>36.79548882879316806793212890625</LatitudeDegrees>
              <LongitudeDegrees>-4.38137744553387165069580078125</LongitudeDegrees>
            </Position>
            <AltitudeMeters>726</AltitudeMeters>
            <DistanceMeters>103.85033219175</DistanceMeters>
          </Trackpoint>
          <Trackpoint>
            <Time>2020-12-05T08:37:49.000Z</Time>
            <Position>
              <LatitudeDegrees>36.795501820743083953857421875</LatitudeDegrees>
              <LongitudeDegrees>-4.38137568533420562744140625</LongitudeDegrees>
            </Position>
            <AltitudeMeters>726.20001220703125</AltitudeMeters>
            <DistanceMeters>105.30396140441</DistanceMeters>
          </Trackpoint>
          <Trackpoint>
            <Time>2020-12-05T08:37:50.000Z</Time>
            <Position>
              <LatitudeDegrees>36.79551330395042896270751953125</LatitudeDegrees>
              <LongitudeDegrees>-4.38137291930615901947021484375</LongitudeDegrees>
            </Position>
            <AltitudeMeters>726.4000244140625</AltitudeMeters>
            <DistanceMeters>106.59995300106</DistanceMeters>
          </Trackpoint>
          <Trackpoint>
            <Time>2020-12-05T08:37:51.000Z</Time>
            <Position>
              <LatitudeDegrees>36.79552621208131313323974609375</LatitudeDegrees>
              <LongitudeDegrees>-4.3813683092594146728515625</LongitudeDegrees>
            </Position>
            <AltitudeMeters>726.4000244140625</AltitudeMeters>
            <DistanceMeters>108.09643519544</DistanceMeters>
          </Trackpoint>
          <Trackpoint>
            <Time>2020-12-05T08:37:52.000Z</Time>
            <Position>
              <LatitudeDegrees>36.7955388687551021575927734375</LatitudeDegrees>
              <LongitudeDegrees>-4.3813641183078289031982421875</LongitudeDegrees>
            </Position>
            <AltitudeMeters>726.5999755859375</AltitudeMeters>
            <DistanceMeters>109.55006440809</DistanceMeters>
          </Trackpoint>
          <Trackpoint>
            <Time>2020-12-05T08:37:53.000Z</Time>
            <Position>
              <LatitudeDegrees>36.79555085487663745880126953125</LatitudeDegrees>
              <LongitudeDegrees>-4.3813587538897991180419921875</LongitudeDegrees>
            </Position>
            <AltitudeMeters>726.5999755859375</AltitudeMeters>
            <DistanceMeters>110.96593056369</DistanceMeters>
          </Trackpoint>
          <Trackpoint>
            <Time>2020-12-05T08:37:54.000Z</Time>
            <Position>
              <LatitudeDegrees>36.7955630086362361907958984375</LatitudeDegrees>
              <LongitudeDegrees>-4.3813520483672618865966796875</LongitudeDegrees>
            </Position>
            <AltitudeMeters>726.5999755859375</AltitudeMeters>
            <DistanceMeters>112.44725043997</DistanceMeters>
          </Trackpoint>
          <Trackpoint>
            <Time>2020-12-05T08:37:55.000Z</Time>
            <Position>
              <LatitudeDegrees>36.7955744080245494842529296875</LatitudeDegrees>
              <LongitudeDegrees>-4.3813443370163440704345703125</LongitudeDegrees>
            </Position>
            <AltitudeMeters>726.5999755859375</AltitudeMeters>
            <DistanceMeters>113.89465423125</DistanceMeters>
          </Trackpoint>
          <Trackpoint>
            <Time>2020-12-05T08:37:56.000Z</Time>
            <Position>
              <LatitudeDegrees>36.795585639774799346923828125</LatitudeDegrees>
              <LongitudeDegrees>-4.38133721239864826202392578125</LongitudeDegrees>
            </Position>
            <AltitudeMeters>726.79998779296875</AltitudeMeters>
            <DistanceMeters>115.29770685492</DistanceMeters>
          </Trackpoint>
          <Trackpoint>
            <Time>2020-12-05T08:37:57.000Z</Time>
            <Position>
              <LatitudeDegrees>36.79559670388698577880859375</LatitudeDegrees>
              <LongitudeDegrees>-4.38132983632385730743408203125</LongitudeDegrees>
            </Position>
            <AltitudeMeters>727.20001220703125</AltitudeMeters>
            <DistanceMeters>116.69430862775</DistanceMeters>
          </Trackpoint>
          <Trackpoint>
            <Time>2020-12-05T08:37:58.000Z</Time>
            <Position>
              <LatitudeDegrees>36.79560869000852108001708984375</LatitudeDegrees>
              <LongitudeDegrees>-4.3813238851726055145263671875</LongitudeDegrees>
            </Position>
            <AltitudeMeters>727.5999755859375</AltitudeMeters>
            <DistanceMeters>118.12603044179</DistanceMeters>
          </Trackpoint>
          <Trackpoint>
            <Time>2020-12-05T08:37:59.000Z</Time>
            <Position>
              <LatitudeDegrees>36.7956206761300563812255859375</LatitudeDegrees>
              <LongitudeDegrees>-4.38131935894489288330078125</LongitudeDegrees>
            </Position>
            <AltitudeMeters>727.79998779296875</AltitudeMeters>
            <DistanceMeters>119.51939558971</DistanceMeters>
          </Trackpoint>
          <Trackpoint>
            <Time>2020-12-05T08:38:00.000Z</Time>
            <Position>
              <LatitudeDegrees>36.79562981240451335906982421875</LatitudeDegrees>
              <LongitudeDegrees>-4.38131206668913364410400390625</LongitudeDegrees>
            </Position>
            <AltitudeMeters>727.79998779296875</AltitudeMeters>
            <DistanceMeters>120.72514942341</DistanceMeters>
          </Trackpoint>
          <Trackpoint>
            <Time>2020-12-05T08:38:01.000Z</Time>
            <Position>
              <LatitudeDegrees>36.7956407926976680755615234375</LatitudeDegrees>
              <LongitudeDegrees>-4.3813047744333744049072265625</LongitudeDegrees>
            </Position>
            <AltitudeMeters>728</AltitudeMeters>
            <DistanceMeters>122.10875926947</DistanceMeters>
          </Trackpoint>
          <Trackpoint>
            <Time>2020-12-05T08:38:02.000Z</Time>
            <Position>
              <LatitudeDegrees>36.795653365552425384521484375</LatitudeDegrees>
              <LongitudeDegrees>-4.3812963925302028656005859375</LongitudeDegrees>
            </Position>
            <AltitudeMeters>727.79998779296875</AltitudeMeters>
            <DistanceMeters>123.6988603368</DistanceMeters>
          </Trackpoint>
          <Trackpoint>
            <Time>2020-12-05T08:38:03.000Z</Time>
            <Position>
              <LatitudeDegrees>36.79566384293138980865478515625</LatitudeDegrees>
              <LongitudeDegrees>-4.38128675334155559539794921875</LongitudeDegrees>
            </Position>
            <AltitudeMeters>727.79998779296875</AltitudeMeters>
            <DistanceMeters>125.14626412807</DistanceMeters>
          </Trackpoint>
          <Trackpoint>
            <Time>2020-12-05T08:38:04.000Z</Time>
            <Position>
              <LatitudeDegrees>36.79567314684391021728515625</LatitudeDegrees>
              <LongitudeDegrees>-4.38127912580966949462890625</LongitudeDegrees>
            </Position>
            <AltitudeMeters>727.5999755859375</AltitudeMeters>
            <DistanceMeters>126.38526089783</DistanceMeters>
          </Trackpoint>
          <Trackpoint>
            <Time>2020-12-05T08:38:05.000Z</Time>
            <Position>
              <LatitudeDegrees>36.7956827022135257720947265625</LatitudeDegrees>
              <LongitudeDegrees>-4.38127066008746623992919921875</LongitudeDegrees>
            </Position>
            <AltitudeMeters>727.5999755859375</AltitudeMeters>
            <DistanceMeters>127.68820156089</DistanceMeters>
          </Trackpoint>
          <Trackpoint>
            <Time>2020-12-05T08:38:06.000Z</Time>
            <Position>
              <LatitudeDegrees>36.7956930957734584808349609375</LatitudeDegrees>
              <LongitudeDegrees>-4.38126076944172382354736328125</LongitudeDegrees>
            </Position>
            <AltitudeMeters>727.5999755859375</AltitudeMeters>
            <DistanceMeters>129.14183077355</DistanceMeters>
          </Trackpoint>
          <Trackpoint>
            <Time>2020-12-05T08:38:07.000Z</Time>
            <Position>
              <LatitudeDegrees>36.7957033216953277587890625</LatitudeDegrees>
              <LongitudeDegrees>-4.38125104643404483795166015625</LongitudeDegrees>
            </Position>
            <AltitudeMeters>727.5999755859375</AltitudeMeters>
            <DistanceMeters>130.57039553453</DistanceMeters>
          </Trackpoint>
          <Trackpoint>
            <Time>2020-12-05T08:38:08.000Z</Time>
            <Position>
              <LatitudeDegrees>36.795714385807514190673828125</LatitudeDegrees>
              <LongitudeDegrees>-4.38123914413154125213623046875</LongitudeDegrees>
            </Position>
            <AltitudeMeters>727.5999755859375</AltitudeMeters>
            <DistanceMeters>132.1942127415</DistanceMeters>
          </Trackpoint>
          <Trackpoint>
            <Time>2020-12-05T08:38:09.000Z</Time>
            <Position>
              <LatitudeDegrees>36.79572544991970062255859375</LatitudeDegrees>
              <LongitudeDegrees>-4.38122539781033992767333984375</LongitudeDegrees>
            </Position>
            <AltitudeMeters>727.5999755859375</AltitudeMeters>
            <DistanceMeters>133.93088931826</DistanceMeters>
          </Trackpoint>
          <Trackpoint>
            <Time>2020-12-05T08:38:10.000Z</Time>
            <Position>
              <LatitudeDegrees>36.79573743604123592376708984375</LatitudeDegrees>
              <LongitudeDegrees>-4.38121366314589977264404296875</LongitudeDegrees>
            </Position>
            <AltitudeMeters>727.5999755859375</AltitudeMeters>
            <DistanceMeters>135.62545838123</DistanceMeters>
          </Trackpoint>
          <Trackpoint>
            <Time>2020-12-05T08:38:11.000Z</Time>
            <Position>
              <LatitudeDegrees>36.7957490868866443634033203125</LatitudeDegrees>
              <LongitudeDegrees>-4.38120226375758647918701171875</LongitudeDegrees>
            </Position>
            <AltitudeMeters>727.5999755859375</AltitudeMeters>
            <DistanceMeters>137.27136935489</DistanceMeters>
          </Trackpoint>
          <Trackpoint>
            <Time>2020-12-05T08:38:12.000Z</Time>
            <Position>
              <LatitudeDegrees>36.79576325230300426483154296875</LatitudeDegrees>
              <LongitudeDegrees>-4.38118952326476573944091796875</LongitudeDegrees>
            </Position>
            <AltitudeMeters>727.5999755859375</AltitudeMeters>
            <DistanceMeters>139.21419511999</DistanceMeters>
          </Trackpoint>
          <Trackpoint>
            <Time>2020-12-05T08:38:13.000Z</Time>
            <Position>
              <LatitudeDegrees>36.7957749031484127044677734375</LatitudeDegrees>
              <LongitudeDegrees>-4.38117611221969127655029296875</LongitudeDegrees>
            </Position>
            <AltitudeMeters>727.5999755859375</AltitudeMeters>
            <DistanceMeters>140.97667811189</DistanceMeters>
          </Trackpoint>
          <Trackpoint>
            <Time>2020-12-05T08:38:14.000Z</Time>
            <Position>
              <LatitudeDegrees>36.79578571580350399017333984375</LatitudeDegrees>
              <LongitudeDegrees>-4.3811629526317119598388671875</LongitudeDegrees>
            </Position>
            <AltitudeMeters>727.5999755859375</AltitudeMeters>
            <DistanceMeters>142.66055578067</DistanceMeters>
          </Trackpoint>
          <Trackpoint>
            <Time>2020-12-05T08:38:15.000Z</Time>
            <Position>
              <LatitudeDegrees>36.795795857906341552734375</LatitudeDegrees>
              <LongitudeDegrees>-4.38115247525274753570556640625</LongitudeDegrees>
            </Position>
            <AltitudeMeters>727.4000244140625</AltitudeMeters>
            <DistanceMeters>144.12655652884</DistanceMeters>
          </Trackpoint>
          <Trackpoint>
            <Time>2020-12-05T08:38:16.000Z</Time>
            <Position>
              <LatitudeDegrees>36.79580784402787685394287109375</LatitudeDegrees>
              <LongitudeDegrees>-4.381143338978290557861328125</LongitudeDegrees>
            </Position>
            <AltitudeMeters>727.4000244140625</AltitudeMeters>
            <DistanceMeters>145.68800477963</DistanceMeters>
          </Trackpoint>
          <Trackpoint>
            <Time>2020-12-05T08:38:17.000Z</Time>
            <Position>
              <LatitudeDegrees>36.7958194948732852935791015625</LatitudeDegrees>
              <LongitudeDegrees>-4.38113504089415073394775390625</LongitudeDegrees>
            </Position>
            <AltitudeMeters>727.4000244140625</AltitudeMeters>
            <DistanceMeters>147.17844055658</DistanceMeters>
          </Trackpoint>
          <Trackpoint>
            <Time>2020-12-05T08:38:18.000Z</Time>
            <Position>
              <LatitudeDegrees>36.79583332501351833343505859375</LatitudeDegrees>
              <LongitudeDegrees>-4.381126575171947479248046875</LongitudeDegrees>
            </Position>
            <AltitudeMeters>727.4000244140625</AltitudeMeters>
            <DistanceMeters>148.89419255518</DistanceMeters>
          </Trackpoint>
          <Trackpoint>
            <Time>2020-12-05T08:38:19.000Z</Time>
            <Position>
              <LatitudeDegrees>36.7958479933440685272216796875</LatitudeDegrees>
              <LongitudeDegrees>-4.3811176903545856475830078125</LongitudeDegrees>
            </Position>
            <AltitudeMeters>727.5999755859375</AltitudeMeters>
            <DistanceMeters>150.70967538409</DistanceMeters>
          </Trackpoint>
          <Trackpoint>
            <Time>2020-12-05T08:38:20.000Z</Time>
            <Position>
              <LatitudeDegrees>36.79586165584623813629150390625</LatitudeDegrees>
              <LongitudeDegrees>-4.38110880553722381591796875</LongitudeDegrees>
            </Position>
            <AltitudeMeters>727.79998779296875</AltitudeMeters>
            <DistanceMeters>152.4254273827</DistanceMeters>
          </Trackpoint>
          <Trackpoint>
            <Time>2020-12-05T08:38:21.000Z</Time>
            <Position>
              <LatitudeDegrees>36.7958748154342174530029296875</LatitudeDegrees>
              <LongitudeDegrees>-4.3810972385108470916748046875</LongitudeDegrees>
            </Position>
            <AltitudeMeters>728</AltitudeMeters>
            <DistanceMeters>154.21838784351</DistanceMeters>
          </Trackpoint>
          <Trackpoint>
            <Time>2020-12-05T08:38:22.000Z</Time>
            <Position>
              <LatitudeDegrees>36.79588629864156246185302734375</LatitudeDegrees>
              <LongitudeDegrees>-4.381085336208343505859375</LongitudeDegrees>
            </Position>
            <AltitudeMeters>728.4000244140625</AltitudeMeters>
            <DistanceMeters>155.88067644416</DistanceMeters>
          </Trackpoint>
          <Trackpoint>
            <Time>2020-12-05T08:38:23.000Z</Time>
            <Position>
              <LatitudeDegrees>36.79589903913438320159912109375</LatitudeDegrees>
              <LongitudeDegrees>-4.38107670284807682037353515625</LongitudeDegrees>
            </Position>
            <AltitudeMeters>728.4000244140625</AltitudeMeters>
            <DistanceMeters>157.49333326316</DistanceMeters>
          </Trackpoint>
          <Trackpoint>
            <Time>2020-12-05T08:38:24.000Z</Time>
            <Position>
              <LatitudeDegrees>36.79590918123722076416015625</LatitudeDegrees>
              <LongitudeDegrees>-4.38106697984039783477783203125</LongitudeDegrees>
            </Position>
            <AltitudeMeters>728.5999755859375</AltitudeMeters>
            <DistanceMeters>158.91556289421</DistanceMeters>
          </Trackpoint>
          <Trackpoint>
            <Time>2020-12-05T08:38:25.000Z</Time>
            <Position>
              <LatitudeDegrees>36.79591781459748744964599609375</LatitudeDegrees>
              <LongitudeDegrees>-4.38105775974690914154052734375</LongitudeDegrees>
            </Position>
            <AltitudeMeters>728.4000244140625</AltitudeMeters>
            <DistanceMeters>160.18337739445</DistanceMeters>
          </Trackpoint>
          <Trackpoint>
            <Time>2020-12-05T08:38:26.000Z</Time>
            <Position>
              <LatitudeDegrees>36.79592586122453212738037109375</LatitudeDegrees>
              <LongitudeDegrees>-4.38105038367211818695068359375</LongitudeDegrees>
            </Position>
            <AltitudeMeters>728.5999755859375</AltitudeMeters>
            <DistanceMeters>161.29563656966</DistanceMeters>
          </Trackpoint>
          <Trackpoint>
            <Time>2020-12-05T08:38:27.000Z</Time>
            <Position>
              <LatitudeDegrees>36.7959338240325450897216796875</LatitudeDegrees>
              <LongitudeDegrees>-4.3810451030731201171875</LongitudeDegrees>
            </Position>
            <AltitudeMeters>728.5999755859375</AltitudeMeters>
            <DistanceMeters>162.29680512953</DistanceMeters>
          </Trackpoint>
          <Trackpoint>
            <Time>2020-12-05T08:38:28.000Z</Time>
            <Position>
              <LatitudeDegrees>36.7959435470402240753173828125</LatitudeDegrees>
              <LongitudeDegrees>-4.3810449354350566864013671875</LongitudeDegrees>
            </Position>
            <AltitudeMeters>728.5999755859375</AltitudeMeters>
            <DistanceMeters>163.38027637406</DistanceMeters>
          </Trackpoint>
          <Trackpoint>
            <Time>2020-12-05T08:38:29.000Z</Time>
            <Position>
              <LatitudeDegrees>36.795953102409839630126953125</LatitudeDegrees>
              <LongitudeDegrees>-4.3810442648828029632568359375</LongitudeDegrees>
            </Position>
            <AltitudeMeters>728.79998779296875</AltitudeMeters>
            <DistanceMeters>164.44694859735</DistanceMeters>
          </Trackpoint>
          <Trackpoint>
            <Time>2020-12-05T08:38:30.000Z</Time>
            <Position>
              <LatitudeDegrees>36.79596156813204288482666015625</LatitudeDegrees>
              <LongitudeDegrees>-4.38104267232120037078857421875</LongitudeDegrees>
            </Position>
            <AltitudeMeters>729.4000244140625</AltitudeMeters>
            <DistanceMeters>165.39721574105</DistanceMeters>
          </Trackpoint>
          <Trackpoint>
            <Time>2020-12-05T08:38:31.000Z</Time>
            <Position>
              <LatitudeDegrees>36.79597313515841960906982421875</LatitudeDegrees>
              <LongitudeDegrees>-4.3810415826737880706787109375</LongitudeDegrees>
            </Position>
            <AltitudeMeters>729.79998779296875</AltitudeMeters>
            <DistanceMeters>166.68622080918</DistanceMeters>
          </Trackpoint>
          <Trackpoint>
            <Time>2020-12-05T08:38:32.000Z</Time>
            <Position>
              <LatitudeDegrees>36.79598369635641574859619140625</LatitudeDegrees>
              <LongitudeDegrees>-4.3810412473976612091064453125</LongitudeDegrees>
            </Position>
            <AltitudeMeters>730.20001220703125</AltitudeMeters>
            <DistanceMeters>167.85778882662</DistanceMeters>
          </Trackpoint>
          <Trackpoint>
            <Time>2020-12-05T08:38:33.000Z</Time>
            <Position>
              <LatitudeDegrees>36.79599501192569732666015625</LatitudeDegrees>
              <LongitudeDegrees>-4.3810410797595977783203125</LongitudeDegrees>
            </Position>
            <AltitudeMeters>730.4000244140625</AltitudeMeters>
            <DistanceMeters>169.11487409727</DistanceMeters>
          </Trackpoint>
          <Trackpoint>
            <Time>2020-12-05T08:38:34.000Z</Time>
            <Position>
              <LatitudeDegrees>36.79600565694272518157958984375</LatitudeDegrees>
              <LongitudeDegrees>-4.3810399062931537628173828125</LongitudeDegrees>
            </Position>
            <AltitudeMeters>730.5999755859375</AltitudeMeters>
            <DistanceMeters>170.30175737934</DistanceMeters>
          </Trackpoint>
          <Trackpoint>
            <Time>2020-12-05T08:38:35.000Z</Time>
            <Position>
              <LatitudeDegrees>36.79601537995040416717529296875</LatitudeDegrees>
              <LongitudeDegrees>-4.38103948719799518585205078125</LongitudeDegrees>
            </Position>
            <AltitudeMeters>730.5999755859375</AltitudeMeters>
            <DistanceMeters>171.38522862387</DistanceMeters>
          </Trackpoint>
          <Trackpoint>
            <Time>2020-12-05T08:38:36.000Z</Time>
            <Position>
              <LatitudeDegrees>36.79602443240582942962646484375</LatitudeDegrees>
              <LongitudeDegrees>-4.381039403378963470458984375</LongitudeDegrees>
            </Position>
            <AltitudeMeters>730.5999755859375</AltitudeMeters>
            <DistanceMeters>172.39537645373</DistanceMeters>
          </Trackpoint>
          <Trackpoint>
            <Time>2020-12-05T08:38:37.000Z</Time>
            <Position>
              <LatitudeDegrees>36.7960357479751110076904296875</LatitudeDegrees>
              <LongitudeDegrees>-4.381038732826709747314453125</LongitudeDegrees>
            </Position>
            <AltitudeMeters>730.5999755859375</AltitudeMeters>
            <DistanceMeters>173.65604828023</DistanceMeters>
          </Trackpoint>
          <Trackpoint>
            <Time>2020-12-05T08:38:38.000Z</Time>
            <Position>
              <LatitudeDegrees>36.796046979725360870361328125</LatitudeDegrees>
              <LongitudeDegrees>-4.38103915192186832427978515625</LongitudeDegrees>
            </Position>
            <AltitudeMeters>730.4000244140625</AltitudeMeters>
            <DistanceMeters>174.90592956451</DistanceMeters>
          </Trackpoint>
          <Trackpoint>
            <Time>2020-12-05T08:38:39.000Z</Time>
            <Position>
              <LatitudeDegrees>36.79605829529464244842529296875</LatitudeDegrees>
              <LongitudeDegrees>-4.3810419179499149322509765625</LongitudeDegrees>
            </Position>
            <AltitudeMeters>730.4000244140625</AltitudeMeters>
            <DistanceMeters>176.18084672257</DistanceMeters>
          </Trackpoint>
          <Trackpoint>
            <Time>2020-12-05T08:38:40.000Z</Time>
            <Position>
              <LatitudeDegrees>36.79607137106359004974365234375</LatitudeDegrees>
              <LongitudeDegrees>-4.38103931955993175506591796875</LongitudeDegrees>
            </Position>
            <AltitudeMeters>730.4000244140625</AltitudeMeters>
            <DistanceMeters>177.65299425137</DistanceMeters>
          </Trackpoint>
          <Trackpoint>
            <Time>2020-12-05T08:38:41.000Z</Time>
            <Position>
              <LatitudeDegrees>36.79608486592769622802734375</LatitudeDegrees>
              <LongitudeDegrees>-4.3810352124273777008056640625</LongitudeDegrees>
            </Position>
            <AltitudeMeters>730.4000244140625</AltitudeMeters>
            <DistanceMeters>179.19699560539</DistanceMeters>
          </Trackpoint>
          <Trackpoint>
            <Time>2020-12-05T08:38:42.000Z</Time>
            <Position>
              <LatitudeDegrees>36.7961007915437221527099609375</LatitudeDegrees>
              <LongitudeDegrees>-4.381031356751918792724609375</LongitudeDegrees>
            </Position>
            <AltitudeMeters>730.4000244140625</AltitudeMeters>
            <DistanceMeters>181.00000074122</DistanceMeters>
          </Trackpoint>
          <Trackpoint>
            <Time>2020-12-05T08:38:43.000Z</Time>
            <Position>
              <LatitudeDegrees>36.7961182259023189544677734375</LatitudeDegrees>
              <LongitudeDegrees>-4.3810276687145233154296875</LongitudeDegrees>
            </Position>
            <AltitudeMeters>730.5999755859375</AltitudeMeters>
            <DistanceMeters>182.96592869463</DistanceMeters>
          </Trackpoint>
          <Trackpoint>
            <Time>2020-12-05T08:38:44.000Z</Time>
            <Position>
              <LatitudeDegrees>36.79613457061350345611572265625</LatitudeDegrees>
              <LongitudeDegrees>-4.38102406449615955352783203125</LongitudeDegrees>
            </Position>
            <AltitudeMeters>730.5999755859375</AltitudeMeters>
            <DistanceMeters>184.81590138963</DistanceMeters>
          </Trackpoint>
          <Trackpoint>
            <Time>2020-12-05T08:38:45.000Z</Time>
            <Position>
              <LatitudeDegrees>36.79615183733403682708740234375</LatitudeDegrees>
              <LongitudeDegrees>-4.38102004118263721466064453125</LongitudeDegrees>
            </Position>
            <AltitudeMeters>730.79998779296875</AltitudeMeters>
            <DistanceMeters>186.77031238423</DistanceMeters>
          </Trackpoint>
          <Trackpoint>
            <Time>2020-12-05T08:38:46.000Z</Time>
            <Position>
              <LatitudeDegrees>36.79616726003587245941162109375</LatitudeDegrees>
              <LongitudeDegrees>-4.3810164369642734527587890625</LongitudeDegrees>
            </Position>
            <AltitudeMeters>731</AltitudeMeters>
            <DistanceMeters>188.5199397487</DistanceMeters>
          </Trackpoint>
          <Trackpoint>
            <Time>2020-12-05T08:38:47.000Z</Time>
            <Position>
              <LatitudeDegrees>36.79618251509964466094970703125</LatitudeDegrees>
              <LongitudeDegrees>-4.381013251841068267822265625</LongitudeDegrees>
            </Position>
            <AltitudeMeters>731.20001220703125</AltitudeMeters>
            <DistanceMeters>190.24094674276</DistanceMeters>
          </Trackpoint>
          <Trackpoint>
            <Time>2020-12-05T08:38:48.000Z</Time>
            <Position>
              <LatitudeDegrees>36.79619617760181427001953125</LatitudeDegrees>
              <LongitudeDegrees>-4.3810115754604339599609375</LongitudeDegrees>
            </Position>
            <AltitudeMeters>731.5999755859375</AltitudeMeters>
            <DistanceMeters>191.7702569791</DistanceMeters>
          </Trackpoint>
          <Trackpoint>
            <Time>2020-12-05T08:38:49.000Z</Time>
            <Position>
              <LatitudeDegrees>36.79620958864688873291015625</LatitudeDegrees>
              <LongitudeDegrees>-4.3810100667178630828857421875</LongitudeDegrees>
            </Position>
            <AltitudeMeters>732</AltitudeMeters>
            <DistanceMeters>193.26975323937</DistanceMeters>
          </Trackpoint>
          <Trackpoint>
            <Time>2020-12-05T08:38:50.000Z</Time>
            <Position>
              <LatitudeDegrees>36.79622341878712177276611328125</LatitudeDegrees>
              <LongitudeDegrees>-4.38100830651819705963134765625</LongitudeDegrees>
            </Position>
            <AltitudeMeters>732.20001220703125</AltitudeMeters>
            <DistanceMeters>194.81959204844</DistanceMeters>
          </Trackpoint>
          <Trackpoint>
            <Time>2020-12-05T08:38:51.000Z</Time>
            <Position>
              <LatitudeDegrees>36.7962382547557353973388671875</LatitudeDegrees>
              <LongitudeDegrees>-4.38100562430918216705322265625</LongitudeDegrees>
            </Position>
            <AltitudeMeters>732.5999755859375</AltitudeMeters>
            <DistanceMeters>196.48730411733</DistanceMeters>
          </Trackpoint>
          <Trackpoint>
            <Time>2020-12-05T08:38:52.000Z</Time>
            <Position>
              <LatitudeDegrees>36.79625275544822216033935546875</LatitudeDegrees>
              <LongitudeDegrees>-4.38100310973823070526123046875</LongitudeDegrees>
            </Position>
            <AltitudeMeters>732.79998779296875</AltitudeMeters>
            <DistanceMeters>198.11667285231</DistanceMeters>
          </Trackpoint>
          <Trackpoint>
            <Time>2020-12-05T08:38:53.000Z</Time>
            <Position>
              <LatitudeDegrees>36.79626499302685260772705078125</LatitudeDegrees>
              <LongitudeDegrees>-4.3810010142624378204345703125</LongitudeDegrees>
            </Position>
            <AltitudeMeters>733</AltitudeMeters>
            <DistanceMeters>199.4937407712</DistanceMeters>
          </Trackpoint>
          <Trackpoint>
            <Time>2020-12-05T08:38:54.000Z</Time>
            <Position>
              <LatitudeDegrees>36.7962761409580707550048828125</LatitudeDegrees>
              <LongitudeDegrees>-4.38100126571953296661376953125</LongitudeDegrees>
            </Position>
            <AltitudeMeters>733.4000244140625</AltitudeMeters>
            <DistanceMeters>200.73637630582</DistanceMeters>
          </Trackpoint>
          <Trackpoint>
            <Time>2020-12-05T08:38:55.000Z</Time>
            <Position>
              <LatitudeDegrees>36.79628762416541576385498046875</LatitudeDegrees>
              <LongitudeDegrees>-4.38100285828113555908203125</LongitudeDegrees>
            </Position>
            <AltitudeMeters>733.79998779296875</AltitudeMeters>
            <DistanceMeters>202.02187387068</DistanceMeters>
          </Trackpoint>
          <Trackpoint>
            <Time>2020-12-05T08:38:56.000Z</Time>
            <Position>
              <LatitudeDegrees>36.7962987720966339111328125</LatitudeDegrees>
              <LongitudeDegrees>-4.3810030259191989898681640625</LongitudeDegrees>
            </Position>
            <AltitudeMeters>734</AltitudeMeters>
            <DistanceMeters>203.26087064043</DistanceMeters>
          </Trackpoint>
          <Trackpoint>
            <Time>2020-12-05T08:38:57.000Z</Time>
            <Position>
              <LatitudeDegrees>36.79631226696074008941650390625</LatitudeDegrees>
              <LongitudeDegrees>-4.3810047022998332977294921875</LongitudeDegrees>
            </Position>
            <AltitudeMeters>734</AltitudeMeters>
            <DistanceMeters>204.76937296522</DistanceMeters>
          </Trackpoint>
          <Trackpoint>
            <Time>2020-12-05T08:38:58.000Z</Time>
            <Position>
              <LatitudeDegrees>36.79632534272968769073486328125</LatitudeDegrees>
              <LongitudeDegrees>-4.38100595958530902862548828125</LongitudeDegrees>
            </Position>
            <AltitudeMeters>734.20001220703125</AltitudeMeters>
            <DistanceMeters>206.22920105125</DistanceMeters>
          </Trackpoint>
          <Trackpoint>
            <Time>2020-12-05T08:38:59.000Z</Time>
            <Position>
              <LatitudeDegrees>36.7963385023176670074462890625</LatitudeDegrees>
              <LongitudeDegrees>-4.3810063786804676055908203125</LongitudeDegrees>
            </Position>
            <AltitudeMeters>734.20001220703125</AltitudeMeters>
            <DistanceMeters>207.69520179943</DistanceMeters>
          </Trackpoint>
          <Trackpoint>
            <Time>2020-12-05T08:39:00.000Z</Time>
            <Position>
              <LatitudeDegrees>36.79635132662951946258544921875</LatitudeDegrees>
              <LongitudeDegrees>-4.38100461848080158233642578125</LongitudeDegrees>
            </Position>
            <AltitudeMeters>734</AltitudeMeters>
            <DistanceMeters>209.13007372027</DistanceMeters>
          </Trackpoint>
          <Trackpoint>
            <Time>2020-12-05T08:39:01.000Z</Time>
            <Position>
              <LatitudeDegrees>36.7963631451129913330078125</LatitudeDegrees>
              <LongitudeDegrees>-4.38100210390985012054443359375</LongitudeDegrees>
            </Position>
            <AltitudeMeters>733.79998779296875</AltitudeMeters>
            <DistanceMeters>210.46721811633</DistanceMeters>
          </Trackpoint>
          <Trackpoint>
            <Time>2020-12-05T08:39:02.000Z</Time>
            <Position>
              <LatitudeDegrees>36.79637588560581207275390625</LatitudeDegrees>
              <LongitudeDegrees>-4.38099858351051807403564453125</LongitudeDegrees>
            </Position>
            <AltitudeMeters>733.5999755859375</AltitudeMeters>
            <DistanceMeters>211.92084732898</DistanceMeters>
          </Trackpoint>
          <Trackpoint>
            <Time>2020-12-05T08:39:03.000Z</Time>
            <Position>
              <LatitudeDegrees>36.79638854227960109710693359375</LatitudeDegrees>
              <LongitudeDegrees>-4.3809953145682811737060546875</LongitudeDegrees>
            </Position>
            <AltitudeMeters>733.5999755859375</AltitudeMeters>
            <DistanceMeters>213.36199880683</DistanceMeters>
          </Trackpoint>
          <Trackpoint>
            <Time>2020-12-05T08:39:04.000Z</Time>
            <Position>
              <LatitudeDegrees>36.7963993549346923828125</LatitudeDegrees>
              <LongitudeDegrees>-4.3809927999973297119140625</LongitudeDegrees>
            </Position>
            <AltitudeMeters>733.5999755859375</AltitudeMeters>
            <DistanceMeters>214.59001459099</DistanceMeters>
          </Trackpoint>
          <Trackpoint>
            <Time>2020-12-05T08:39:05.000Z</Time>
            <Position>
              <LatitudeDegrees>36.7964095808565616607666015625</LatitudeDegrees>
              <LongitudeDegrees>-4.3809901177883148193359375</LongitudeDegrees>
            </Position>
            <AltitudeMeters>733.5999755859375</AltitudeMeters>
            <DistanceMeters>215.75384940169</DistanceMeters>
          </Trackpoint>
          <Trackpoint>
            <Time>2020-12-05T08:39:06.000Z</Time>
            <Position>
              <LatitudeDegrees>36.79641989059746265411376953125</LatitudeDegrees>
              <LongitudeDegrees>-4.3809862621128559112548828125</LongitudeDegrees>
            </Position>
            <AltitudeMeters>733.5999755859375</AltitudeMeters>
            <DistanceMeters>216.94831667966</DistanceMeters>
          </Trackpoint>
          <Trackpoint>
            <Time>2020-12-05T08:39:07.000Z</Time>
            <Position>
              <LatitudeDegrees>36.7964317090809345245361328125</LatitudeDegrees>
              <LongitudeDegrees>-4.38098316080868244171142578125</LongitudeDegrees>
            </Position>
            <AltitudeMeters>733.5999755859375</AltitudeMeters>
            <DistanceMeters>218.29219736216</DistanceMeters>
          </Trackpoint>
          <Trackpoint>
            <Time>2020-12-05T08:39:08.000Z</Time>
            <Position>
              <LatitudeDegrees>36.79644302465021610260009765625</LatitudeDegrees>
              <LongitudeDegrees>-4.3809807300567626953125</LongitudeDegrees>
            </Position>
            <AltitudeMeters>733.5999755859375</AltitudeMeters>
            <DistanceMeters>219.56711452022</DistanceMeters>
          </Trackpoint>
          <Trackpoint>
            <Time>2020-12-05T08:39:09.000Z</Time>
            <Position>
              <LatitudeDegrees>36.796454004943370819091796875</LatitudeDegrees>
              <LongitudeDegrees>-4.38097896985709667205810546875</LongitudeDegrees>
            </Position>
            <AltitudeMeters>733.4000244140625</AltitudeMeters>
            <DistanceMeters>220.80611128998</DistanceMeters>
          </Trackpoint>
          <Trackpoint>
            <Time>2020-12-05T08:39:10.000Z</Time>
            <Position>
              <LatitudeDegrees>36.7964632250368595123291015625</LatitudeDegrees>
              <LongitudeDegrees>-4.38097444362938404083251953125</LongitudeDegrees>
            </Position>
            <AltitudeMeters>733.4000244140625</AltitudeMeters>
            <DistanceMeters>221.91022193658</DistanceMeters>
          </Trackpoint>
          <Trackpoint>
            <Time>2020-12-05T08:39:11.000Z</Time>
            <Position>
              <LatitudeDegrees>36.79647118784487247467041015625</LatitudeDegrees>
              <LongitudeDegrees>-4.38096857629716396331787109375</LongitudeDegrees>
            </Position>
            <AltitudeMeters>733.4000244140625</AltitudeMeters>
            <DistanceMeters>222.93809301018</DistanceMeters>
          </Trackpoint>
          <Trackpoint>
            <Time>2020-12-05T08:39:12.000Z</Time>
            <Position>
              <LatitudeDegrees>36.79647940210998058319091796875</LatitudeDegrees>
              <LongitudeDegrees>-4.3809632956981658935546875</LongitudeDegrees>
            </Position>
            <AltitudeMeters>733.4000244140625</AltitudeMeters>
            <DistanceMeters>223.9615620461</DistanceMeters>
          </Trackpoint>
          <Trackpoint>
            <Time>2020-12-05T08:39:13.000Z</Time>
            <Position>
              <LatitudeDegrees>36.7964873649179935455322265625</LatitudeDegrees>
              <LongitudeDegrees>-4.3809617869555950164794921875</LongitudeDegrees>
            </Position>
            <AltitudeMeters>733.5999755859375</AltitudeMeters>
            <DistanceMeters>224.85804227651</DistanceMeters>
          </Trackpoint>
          <Trackpoint>
            <Time>2020-12-05T08:39:14.000Z</Time>
            <Position>
              <LatitudeDegrees>36.796494238078594207763671875</LatitudeDegrees>
              <LongitudeDegrees>-4.38095952384173870086669921875</LongitudeDegrees>
            </Position>
            <AltitudeMeters>733.79998779296875</AltitudeMeters>
            <DistanceMeters>225.64165263771</DistanceMeters>
          </Trackpoint>
          <Trackpoint>
            <Time>2020-12-05T08:39:15.000Z</Time>
            <Position>
              <LatitudeDegrees>36.7965037934482097625732421875</LatitudeDegrees>
              <LongitudeDegrees>-4.38095902092754840850830078125</LongitudeDegrees>
            </Position>
            <AltitudeMeters>733.79998779296875</AltitudeMeters>
            <DistanceMeters>226.708324861</DistanceMeters>
          </Trackpoint>
          <Trackpoint>
            <Time>2020-12-05T08:39:16.000Z</Time>
            <Position>
              <LatitudeDegrees>36.796515695750713348388671875</LatitudeDegrees>
              <LongitudeDegrees>-4.38096086494624614715576171875</LongitudeDegrees>
            </Position>
            <AltitudeMeters>734</AltitudeMeters>
            <DistanceMeters>228.04546925706</DistanceMeters>
          </Trackpoint>
          <Trackpoint>
            <Time>2020-12-05T08:39:17.000Z</Time>
            <Position>
              <LatitudeDegrees>36.79652835242450237274169921875</LatitudeDegrees>
              <LongitudeDegrees>-4.380961954593658447265625</LongitudeDegrees>
            </Position>
            <AltitudeMeters>734.20001220703125</AltitudeMeters>
            <DistanceMeters>229.45494320775</DistanceMeters>
          </Trackpoint>
          <Trackpoint>
            <Time>2020-12-05T08:39:18.000Z</Time>
            <Position>
              <LatitudeDegrees>36.79654075764119625091552734375</LatitudeDegrees>
              <LongitudeDegrees>-4.380960278213024139404296875</LongitudeDegrees>
            </Position>
            <AltitudeMeters>734.20001220703125</AltitudeMeters>
            <DistanceMeters>230.84506419493</DistanceMeters>
          </Trackpoint>
          <Trackpoint>
            <Time>2020-12-05T08:39:19.000Z</Time>
            <Position>
              <LatitudeDegrees>36.79655291140079498291015625</LatitudeDegrees>
              <LongitudeDegrees>-4.38095667399466037750244140625</LongitudeDegrees>
            </Position>
            <AltitudeMeters>734.4000244140625</AltitudeMeters>
            <DistanceMeters>232.23518518211</DistanceMeters>
          </Trackpoint>
          <Trackpoint>
            <Time>2020-12-05T08:39:20.000Z</Time>
            <Position>
              <LatitudeDegrees>36.79656607098877429962158203125</LatitudeDegrees>
              <LongitudeDegrees>-4.3809544108808040618896484375</LongitudeDegrees>
            </Position>
            <AltitudeMeters>734.5999755859375</AltitudeMeters>
            <DistanceMeters>233.71345393286</DistanceMeters>
          </Trackpoint>
          <Trackpoint>
            <Time>2020-12-05T08:39:21.000Z</Time>
            <Position>
              <LatitudeDegrees>36.79658015258610248565673828125</LatitudeDegrees>
              <LongitudeDegrees>-4.380954243242740631103515625</LongitudeDegrees>
            </Position>
            <AltitudeMeters>734.79998779296875</AltitudeMeters>
            <DistanceMeters>235.28067465527</DistanceMeters>
          </Trackpoint>
          <Trackpoint>
            <Time>2020-12-05T08:39:22.000Z</Time>
            <Position>
              <LatitudeDegrees>36.796592809259891510009765625</LatitudeDegrees>
              <LongitudeDegrees>-4.38095415942370891571044921875</LongitudeDegrees>
            </Position>
            <AltitudeMeters>735.20001220703125</AltitudeMeters>
            <DistanceMeters>236.69014860596</DistanceMeters>
          </Trackpoint>
          <Trackpoint>
            <Time>2020-12-05T08:39:23.000Z</Time>
            <Position>
              <LatitudeDegrees>36.7966037057340145111083984375</LatitudeDegrees>
              <LongitudeDegrees>-4.38095231540501117706298828125</LongitudeDegrees>
            </Position>
            <AltitudeMeters>735.79998779296875</AltitudeMeters>
            <DistanceMeters>237.91448217558</DistanceMeters>
          </Trackpoint>
          <Trackpoint>
            <Time>2020-12-05T08:39:24.000Z</Time>
            <Position>
              <LatitudeDegrees>36.79661569185554981231689453125</LatitudeDegrees>
              <LongitudeDegrees>-4.38095164485275745391845703125</LongitudeDegrees>
            </Position>
            <AltitudeMeters>736.20001220703125</AltitudeMeters>
            <DistanceMeters>239.25162657164</DistanceMeters>
          </Trackpoint>
          <Trackpoint>
            <Time>2020-12-05T08:39:25.000Z</Time>
            <Position>
              <LatitudeDegrees>36.796627677977085113525390625</LatitudeDegrees>
              <LongitudeDegrees>-4.3809503875672817230224609375</LongitudeDegrees>
            </Position>
            <AltitudeMeters>736.4000244140625</AltitudeMeters>
            <DistanceMeters>240.58877096769</DistanceMeters>
          </Trackpoint>
          <Trackpoint>
            <Time>2020-12-05T08:39:26.000Z</Time>
            <Position>
              <LatitudeDegrees>36.79663916118443012237548828125</LatitudeDegrees>
              <LongitudeDegrees>-4.38094913028180599212646484375</LongitudeDegrees>
            </Position>
            <AltitudeMeters>736.5999755859375</AltitudeMeters>
            <DistanceMeters>241.87075143275</DistanceMeters>
          </Trackpoint>
          <Trackpoint>
            <Time>2020-12-05T08:39:27.000Z</Time>
            <Position>
              <LatitudeDegrees>36.7966516502201557159423828125</LatitudeDegrees>
              <LongitudeDegrees>-4.3809473700821399688720703125</LongitudeDegrees>
            </Position>
            <AltitudeMeters>737</AltitudeMeters>
            <DistanceMeters>243.27380405642</DistanceMeters>
          </Trackpoint>
          <Trackpoint>
            <Time>2020-12-05T08:39:28.000Z</Time>
            <Position>
              <LatitudeDegrees>36.7966647259891033172607421875</LatitudeDegrees>
              <LongitudeDegrees>-4.380946867167949676513671875</LongitudeDegrees>
            </Position>
            <AltitudeMeters>737.4000244140625</AltitudeMeters>
            <DistanceMeters>244.72743326908</DistanceMeters>
          </Trackpoint>
          <Trackpoint>
            <Time>2020-12-05T08:39:29.000Z</Time>
            <Position>
              <LatitudeDegrees>36.79667897522449493408203125</LatitudeDegrees>
              <LongitudeDegrees>-4.38094544224441051483154296875</LongitudeDegrees>
            </Position>
            <AltitudeMeters>737.5999755859375</AltitudeMeters>
            <DistanceMeters>246.3175343364</DistanceMeters>
          </Trackpoint>
          <Trackpoint>
            <Time>2020-12-05T08:39:30.000Z</Time>
            <Position>
              <LatitudeDegrees>36.796692050993442535400390625</LatitudeDegrees>
              <LongitudeDegrees>-4.38094074837863445281982421875</LongitudeDegrees>
            </Position>
            <AltitudeMeters>737.79998779296875</AltitudeMeters>
            <DistanceMeters>247.82902675792</DistanceMeters>
          </Trackpoint>
          <Trackpoint>
            <Time>2020-12-05T08:39:31.000Z</Time>
            <Position>
              <LatitudeDegrees>36.79670579731464385986328125</LatitudeDegrees>
              <LongitudeDegrees>-4.38093714416027069091796875</LongitudeDegrees>
            </Position>
            <AltitudeMeters>738.20001220703125</AltitudeMeters>
            <DistanceMeters>249.39047500871</DistanceMeters>
          </Trackpoint>
          <Trackpoint>
            <Time>2020-12-05T08:39:32.000Z</Time>
            <Position>
              <LatitudeDegrees>36.79671895690262317657470703125</LatitudeDegrees>
              <LongitudeDegrees>-4.38093370757997035980224609375</LongitudeDegrees>
            </Position>
            <AltitudeMeters>738.4000244140625</AltitudeMeters>
            <DistanceMeters>250.88393705431</DistanceMeters>
          </Trackpoint>
          <Trackpoint>
            <Time>2020-12-05T08:39:33.000Z</Time>
            <Position>
              <LatitudeDegrees>36.79672834463417530059814453125</LatitudeDegrees>
              <LongitudeDegrees>-4.38092784024775028228759765625</LongitudeDegrees>
            </Position>
            <AltitudeMeters>738.20001220703125</AltitudeMeters>
            <DistanceMeters>252.04777186501</DistanceMeters>
          </Trackpoint>
          <Trackpoint>
            <Time>2020-12-05T08:39:34.000Z</Time>
            <Position>
              <LatitudeDegrees>36.79673639126121997833251953125</LatitudeDegrees>
              <LongitudeDegrees>-4.38091744668781757354736328125</LongitudeDegrees>
            </Position>
            <AltitudeMeters>738.20001220703125</AltitudeMeters>
            <DistanceMeters>253.33326942986</DistanceMeters>
          </Trackpoint>
          <Trackpoint>
            <Time>2020-12-05T08:39:35.000Z</Time>
            <Position>
              <LatitudeDegrees>36.79674334824085235595703125</LatitudeDegrees>
              <LongitudeDegrees>-4.3809051252901554107666015625</LongitudeDegrees>
            </Position>
            <AltitudeMeters>738.20001220703125</AltitudeMeters>
            <DistanceMeters>254.67715011236</DistanceMeters>
          </Trackpoint>
          <Trackpoint>
            <Time>2020-12-05T08:39:36.000Z</Time>
            <Position>
              <LatitudeDegrees>36.79675114341080188751220703125</LatitudeDegrees>
              <LongitudeDegrees>-4.380896575748920440673828125</LongitudeDegrees>
            </Position>
            <AltitudeMeters>738.4000244140625</AltitudeMeters>
            <DistanceMeters>255.83319998745</DistanceMeters>
          </Trackpoint>
          <Trackpoint>
            <Time>2020-12-05T08:39:37.000Z</Time>
            <Position>
              <LatitudeDegrees>36.7967599444091320037841796875</LatitudeDegrees>
              <LongitudeDegrees>-4.38089062459766864776611328125</LongitudeDegrees>
            </Position>
            <AltitudeMeters>738.4000244140625</AltitudeMeters>
            <DistanceMeters>256.94951112207</DistanceMeters>
          </Trackpoint>
          <Trackpoint>
            <Time>2020-12-05T08:39:38.000Z</Time>
            <Position>
              <LatitudeDegrees>36.79676991887390613555908203125</LatitudeDegrees>
              <LongitudeDegrees>-4.3808856792747974395751953125</LongitudeDegrees>
            </Position>
            <AltitudeMeters>738.4000244140625</AltitudeMeters>
            <DistanceMeters>258.15151454595</DistanceMeters>
          </Trackpoint>
          <Trackpoint>
            <Time>2020-12-05T08:39:39.000Z</Time>
            <Position>
              <LatitudeDegrees>36.7967780493199825286865234375</LatitudeDegrees>
              <LongitudeDegrees>-4.3808793090283870697021484375</LongitudeDegrees>
            </Position>
            <AltitudeMeters>738.20001220703125</AltitudeMeters>
            <DistanceMeters>259.22661909195</DistanceMeters>
          </Trackpoint>
          <Trackpoint>
            <Time>2020-12-05T08:39:40.000Z</Time>
            <Position>
              <LatitudeDegrees>36.79678651504218578338623046875</LatitudeDegrees>
              <LongitudeDegrees>-4.38087352551519870758056640625</LongitudeDegrees>
            </Position>
            <AltitudeMeters>738.20001220703125</AltitudeMeters>
            <DistanceMeters>260.29751577622</DistanceMeters>
          </Trackpoint>
          <Trackpoint>
            <Time>2020-12-05T08:39:41.000Z</Time>
            <Position>
              <LatitudeDegrees>36.7967974953353404998779296875</LatitudeDegrees>
              <LongitudeDegrees>-4.380868412554264068603515625</LongitudeDegrees>
            </Position>
            <AltitudeMeters>738.20001220703125</AltitudeMeters>
            <DistanceMeters>261.60045643929</DistanceMeters>
          </Trackpoint>
          <Trackpoint>
            <Time>2020-12-05T08:39:42.000Z</Time>
            <Position>
              <LatitudeDegrees>36.79680964909493923187255859375</LatitudeDegrees>
              <LongitudeDegrees>-4.38086296431720256805419921875</LongitudeDegrees>
            </Position>
            <AltitudeMeters>738.20001220703125</AltitudeMeters>
            <DistanceMeters>263.03532836013</DistanceMeters>
          </Trackpoint>
          <Trackpoint>
            <Time>2020-12-05T08:39:43.000Z</Time>
            <Position>
              <LatitudeDegrees>36.79682121612131595611572265625</LatitudeDegrees>
              <LongitudeDegrees>-4.38085810281336307525634765625</LongitudeDegrees>
            </Position>
            <AltitudeMeters>738.20001220703125</AltitudeMeters>
            <DistanceMeters>264.39258131907</DistanceMeters>
          </Trackpoint>
          <Trackpoint>
            <Time>2020-12-05T08:39:44.000Z</Time>
            <Position>
              <LatitudeDegrees>36.7968298494815826416015625</LatitudeDegrees>
              <LongitudeDegrees>-4.38085122965276241302490234375</LongitudeDegrees>
            </Position>
            <AltitudeMeters>738.20001220703125</AltitudeMeters>
            <DistanceMeters>265.53290189151</DistanceMeters>
          </Trackpoint>
          <Trackpoint>
            <Time>2020-12-05T08:39:45.000Z</Time>
            <Position>
              <LatitudeDegrees>36.79683965630829334259033203125</LatitudeDegrees>
              <LongitudeDegrees>-4.380842261016368865966796875</LongitudeDegrees>
            </Position>
            <AltitudeMeters>738.20001220703125</AltitudeMeters>
            <DistanceMeters>266.88348526239</DistanceMeters>
          </Trackpoint>
          <Trackpoint>
            <Time>2020-12-05T08:39:46.000Z</Time>
            <Position>
              <LatitudeDegrees>36.796852312982082366943359375</LatitudeDegrees>
              <LongitudeDegrees>-4.38083790242671966552734375</LongitudeDegrees>
            </Position>
            <AltitudeMeters>738.20001220703125</AltitudeMeters>
            <DistanceMeters>268.34948601057</DistanceMeters>
          </Trackpoint>
          <Trackpoint>
            <Time>2020-12-05T08:39:47.000Z</Time>
            <Position>
              <LatitudeDegrees>36.79686538875102996826171875</LatitudeDegrees>
              <LongitudeDegrees>-4.3808327056467533111572265625</LongitudeDegrees>
            </Position>
            <AltitudeMeters>738.20001220703125</AltitudeMeters>
            <DistanceMeters>269.87584105528</DistanceMeters>
          </Trackpoint>
          <Trackpoint>
            <Time>2020-12-05T08:39:48.000Z</Time>
            <Position>
              <LatitudeDegrees>36.79687720723450183868408203125</LatitudeDegrees>
              <LongitudeDegrees>-4.380824826657772064208984375</LongitudeDegrees>
            </Position>
            <AltitudeMeters>738.20001220703125</AltitudeMeters>
            <DistanceMeters>271.36627683223</DistanceMeters>
          </Trackpoint>
          <Trackpoint>
            <Time>2020-12-05T08:39:49.000Z</Time>
            <Position>
              <LatitudeDegrees>36.79688818752765655517578125</LatitudeDegrees>
              <LongitudeDegrees>-4.3808169476687908172607421875</LongitudeDegrees>
            </Position>
            <AltitudeMeters>738.20001220703125</AltitudeMeters>
            <DistanceMeters>272.77575078292</DistanceMeters>
          </Trackpoint>
          <Trackpoint>
            <Time>2020-12-05T08:39:50.000Z</Time>
            <Position>
              <LatitudeDegrees>36.79689849726855754852294921875</LatitudeDegrees>
              <LongitudeDegrees>-4.3808092363178730010986328125</LongitudeDegrees>
            </Position>
            <AltitudeMeters>738.20001220703125</AltitudeMeters>
            <DistanceMeters>274.11289517898</DistanceMeters>
          </Trackpoint>
          <Trackpoint>
            <Time>2020-12-05T08:39:51.000Z</Time>
            <Position>
              <LatitudeDegrees>36.79690897464752197265625</LatitudeDegrees>
              <LongitudeDegrees>-4.38080110587179660797119140625</LongitudeDegrees>
            </Position>
            <AltitudeMeters>738.20001220703125</AltitudeMeters>
            <DistanceMeters>275.48338994378</DistanceMeters>
          </Trackpoint>
          <Trackpoint>
            <Time>2020-12-05T08:39:52.000Z</Time>
            <Position>
              <LatitudeDegrees>36.7969195358455181121826171875</LatitudeDegrees>
              <LongitudeDegrees>-4.3807943165302276611328125</LongitudeDegrees>
            </Position>
            <AltitudeMeters>738.20001220703125</AltitudeMeters>
            <DistanceMeters>276.80695891823</DistanceMeters>
          </Trackpoint>
          <Trackpoint>
            <Time>2020-12-05T08:39:53.000Z</Time>
            <Position>
              <LatitudeDegrees>36.79692934267222881317138671875</LatitudeDegrees>
              <LongitudeDegrees>-4.38078668899834156036376953125</LongitudeDegrees>
            </Position>
            <AltitudeMeters>738.20001220703125</AltitudeMeters>
            <DistanceMeters>278.08893938329</DistanceMeters>
          </Trackpoint>
          <Trackpoint>
            <Time>2020-12-05T08:39:54.000Z</Time>
            <Position>
              <LatitudeDegrees>36.79693621583282947540283203125</LatitudeDegrees>
              <LongitudeDegrees>-4.38077596016228199005126953125</LongitudeDegrees>
            </Position>
            <AltitudeMeters>738.20001220703125</AltitudeMeters>
            <DistanceMeters>279.31327295291</DistanceMeters>
          </Trackpoint>
          <Trackpoint>
            <Time>2020-12-05T08:39:55.000Z</Time>
            <Position>
              <LatitudeDegrees>36.79694459773600101470947265625</LatitudeDegrees>
              <LongitudeDegrees>-4.38076548278331756591796875</LongitudeDegrees>
            </Position>
            <AltitudeMeters>738.20001220703125</AltitudeMeters>
            <DistanceMeters>280.63000173183</DistanceMeters>
          </Trackpoint>
          <Trackpoint>
            <Time>2020-12-05T08:39:56.000Z</Time>
            <Position>
              <LatitudeDegrees>36.7969510518014430999755859375</LatitudeDegrees>
              <LongitudeDegrees>-4.38075852580368518829345703125</LongitudeDegrees>
            </Position>
            <AltitudeMeters>738.20001220703125</AltitudeMeters>
            <DistanceMeters>281.58026887553</DistanceMeters>
          </Trackpoint>
          <Trackpoint>
            <Time>2020-12-05T08:39:57.000Z</Time>
            <Position>
              <LatitudeDegrees>36.79695951752364635467529296875</LatitudeDegrees>
              <LongitudeDegrees>-4.38075165264308452606201171875</LongitudeDegrees>
            </Position>
            <AltitudeMeters>738.4000244140625</AltitudeMeters>
            <DistanceMeters>282.70864858937</DistanceMeters>
          </Trackpoint>
          <Trackpoint>
            <Time>2020-12-05T08:39:58.000Z</Time>
            <Position>
              <LatitudeDegrees>36.79696991108357906341552734375</LatitudeDegrees>
              <LongitudeDegrees>-4.380746372044086456298828125</LongitudeDegrees>
            </Position>
            <AltitudeMeters>738.5999755859375</AltitudeMeters>
            <DistanceMeters>283.95491226466</DistanceMeters>
          </Trackpoint>
          <Trackpoint>
            <Time>2020-12-05T08:39:59.000Z</Time>
            <Position>
              <LatitudeDegrees>36.7969792149960994720458984375</LatitudeDegrees>
              <LongitudeDegrees>-4.380739666521549224853515625</LongitudeDegrees>
            </Position>
            <AltitudeMeters>738.79998779296875</AltitudeMeters>
            <DistanceMeters>285.14937954263</DistanceMeters>
          </Trackpoint>
          <Trackpoint>
            <Time>2020-12-05T08:40:00.000Z</Time>
            <Position>
              <LatitudeDegrees>36.796988435089588165283203125</LatitudeDegrees>
              <LongitudeDegrees>-4.38072793185710906982421875</LongitudeDegrees>
            </Position>
            <AltitudeMeters>739</AltitudeMeters>
            <DistanceMeters>286.61538029081</DistanceMeters>
          </Trackpoint>
          <Trackpoint>
            <Time>2020-12-05T08:40:01.000Z</Time>
            <Position>
              <LatitudeDegrees>36.79699455387890338897705078125</LatitudeDegrees>
              <LongitudeDegrees>-4.38071644864976406097412109375</LongitudeDegrees>
            </Position>
            <AltitudeMeters>739.20001220703125</AltitudeMeters>
            <DistanceMeters>287.84339607497</DistanceMeters>
          </Trackpoint>
          <Trackpoint>
            <Time>2020-12-05T08:40:02.000Z</Time>
            <Position>
              <LatitudeDegrees>36.79700109176337718963623046875</LatitudeDegrees>
              <LongitudeDegrees>-4.380704127252101898193359375</LongitudeDegrees>
            </Position>
            <AltitudeMeters>739.20001220703125</AltitudeMeters>
            <DistanceMeters>289.16012485389</DistanceMeters>
          </Trackpoint>
          <Trackpoint>
            <Time>2020-12-05T08:40:03.000Z</Time>
            <Position>
              <LatitudeDegrees>36.7970080487430095672607421875</LatitudeDegrees>
              <LongitudeDegrees>-4.38068912364542484283447265625</LongitudeDegrees>
            </Position>
            <AltitudeMeters>739.20001220703125</AltitudeMeters>
            <DistanceMeters>290.70412620791</DistanceMeters>
          </Trackpoint>
          <Trackpoint>
            <Time>2020-12-05T08:40:04.000Z</Time>
            <Position>
              <LatitudeDegrees>36.797015257179737091064453125</LatitudeDegrees>
              <LongitudeDegrees>-4.38067336566746234893798828125</LongitudeDegrees>
            </Position>
            <AltitudeMeters>739</AltitudeMeters>
            <DistanceMeters>292.322372842</DistanceMeters>
          </Trackpoint>
          <Trackpoint>
            <Time>2020-12-05T08:40:05.000Z</Time>
            <Position>
              <LatitudeDegrees>36.79702363908290863037109375</LatitudeDegrees>
              <LongitudeDegrees>-4.3806588649749755859375</LongitudeDegrees>
            </Position>
            <AltitudeMeters>738.5999755859375</AltitudeMeters>
            <DistanceMeters>293.91814273681</DistanceMeters>
          </Trackpoint>
          <Trackpoint>
            <Time>2020-12-05T08:40:06.000Z</Time>
            <Position>
              <LatitudeDegrees>36.79703168570995330810546875</LatitudeDegrees>
              <LongitudeDegrees>-4.38064637593924999237060546875</LongitudeDegrees>
            </Position>
            <AltitudeMeters>738.4000244140625</AltitudeMeters>
            <DistanceMeters>295.3467074978</DistanceMeters>
          </Trackpoint>
          <Trackpoint>
            <Time>2020-12-05T08:40:07.000Z</Time>
            <Position>
              <LatitudeDegrees>36.797040402889251708984375</LatitudeDegrees>
              <LongitudeDegrees>-4.38063330017030239105224609375</LongitudeDegrees>
            </Position>
            <AltitudeMeters>738.20001220703125</AltitudeMeters>
            <DistanceMeters>296.86713492772</DistanceMeters>
          </Trackpoint>
          <Trackpoint>
            <Time>2020-12-05T08:40:08.000Z</Time>
            <Position>
              <LatitudeDegrees>36.79704719223082065582275390625</LatitudeDegrees>
              <LongitudeDegrees>-4.3806218169629573822021484375</LongitudeDegrees>
            </Position>
            <AltitudeMeters>738.20001220703125</AltitudeMeters>
            <DistanceMeters>298.13850571686</DistanceMeters>
          </Trackpoint>
          <Trackpoint>
            <Time>2020-12-05T08:40:09.000Z</Time>
            <Position>
              <LatitudeDegrees>36.7970539815723896026611328125</LatitudeDegrees>
              <LongitudeDegrees>-4.3806119263172149658203125</LongitudeDegrees>
            </Position>
            <AltitudeMeters>738.20001220703125</AltitudeMeters>
            <DistanceMeters>299.29455559195</DistanceMeters>
          </Trackpoint>
          <Trackpoint>
            <Time>2020-12-05T08:40:10.000Z</Time>
            <Position>
              <LatitudeDegrees>36.7970586754381656646728515625</LatitudeDegrees>
              <LongitudeDegrees>-4.380603544414043426513671875</LongitudeDegrees>
            </Position>
            <AltitudeMeters>738.20001220703125</AltitudeMeters>
            <DistanceMeters>300.20601981661</DistanceMeters>
          </Trackpoint>
          <Trackpoint>
            <Time>2020-12-05T08:40:11.000Z</Time>
            <Position>
              <LatitudeDegrees>36.7970645427703857421875</LatitudeDegrees>
              <LongitudeDegrees>-4.38059608452022075653076171875</LongitudeDegrees>
            </Position>
            <AltitudeMeters>738.4000244140625</AltitudeMeters>
            <DistanceMeters>301.14192441382</DistanceMeters>
          </Trackpoint>
          <Trackpoint>
            <Time>2020-12-05T08:40:12.000Z</Time>
            <Position>
              <LatitudeDegrees>36.7970720864832401275634765625</LatitudeDegrees>
              <LongitudeDegrees>-4.3805877864360809326171875</LongitudeDegrees>
            </Position>
            <AltitudeMeters>738.5999755859375</AltitudeMeters>
            <DistanceMeters>302.25823554843</DistanceMeters>
          </Trackpoint>
          <Trackpoint>
            <Time>2020-12-05T08:40:13.000Z</Time>
            <Position>
              <LatitudeDegrees>36.79708071984350681304931640625</LatitudeDegrees>
              <LongitudeDegrees>-4.38057730905711650848388671875</LongitudeDegrees>
            </Position>
            <AltitudeMeters>738.79998779296875</AltitudeMeters>
            <DistanceMeters>303.59875231906</DistanceMeters>
          </Trackpoint>
          <Trackpoint>
            <Time>2020-12-05T08:40:14.000Z</Time>
            <Position>
              <LatitudeDegrees>36.79708977229893207550048828125</LatitudeDegrees>
              <LongitudeDegrees>-4.38056339509785175323486328125</LongitudeDegrees>
            </Position>
            <AltitudeMeters>739</AltitudeMeters>
            <DistanceMeters>305.19734908925</DistanceMeters>
          </Trackpoint>
          <Trackpoint>
            <Time>2020-12-05T08:40:15.000Z</Time>
            <Position>
              <LatitudeDegrees>36.79709966294467449188232421875</LatitudeDegrees>
              <LongitudeDegrees>-4.38054663129150867462158203125</LongitudeDegrees>
            </Position>
            <AltitudeMeters>739.4000244140625</AltitudeMeters>
            <DistanceMeters>307.05462914395</DistanceMeters>
          </Trackpoint>
          <Trackpoint>
            <Time>2020-12-05T08:40:16.000Z</Time>
            <Position>
              <LatitudeDegrees>36.797109805047512054443359375</LatitudeDegrees>
              <LongitudeDegrees>-4.3805312924087047576904296875</LongitudeDegrees>
            </Position>
            <AltitudeMeters>740</AltitudeMeters>
            <DistanceMeters>308.82732951414</DistanceMeters>
          </Trackpoint>
          <Trackpoint>
            <Time>2020-12-05T08:40:17.000Z</Time>
            <Position>
              <LatitudeDegrees>36.79711885750293731689453125</LatitudeDegrees>
              <LongitudeDegrees>-4.38051762990653514862060546875</LongitudeDegrees>
            </Position>
            <AltitudeMeters>740.20001220703125</AltitudeMeters>
            <DistanceMeters>310.4088892427</DistanceMeters>
          </Trackpoint>
          <Trackpoint>
            <Time>2020-12-05T08:40:18.000Z</Time>
            <Position>
              <LatitudeDegrees>36.79712715558707714080810546875</LatitudeDegrees>
              <LongitudeDegrees>-4.38050572760403156280517578125</LongitudeDegrees>
            </Position>
            <AltitudeMeters>740.5999755859375</AltitudeMeters>
            <DistanceMeters>311.81194186636</DistanceMeters>
          </Trackpoint>
          <Trackpoint>
            <Time>2020-12-05T08:40:19.000Z</Time>
            <Position>
              <LatitudeDegrees>36.79714073427021503448486328125</LatitudeDegrees>
              <LongitudeDegrees>-4.380492232739925384521484375</LongitudeDegrees>
            </Position>
            <AltitudeMeters>741</AltitudeMeters>
            <DistanceMeters>313.74077350622</DistanceMeters>
          </Trackpoint>
          <Trackpoint>
            <Time>2020-12-05T08:40:20.000Z</Time>
            <Position>
              <LatitudeDegrees>36.79715481586754322052001953125</LatitudeDegrees>
              <LongitudeDegrees>-4.38047907315194606781005859375</LongitudeDegrees>
            </Position>
            <AltitudeMeters>741.5999755859375</AltitudeMeters>
            <DistanceMeters>315.69749331555</DistanceMeters>
          </Trackpoint>
          <Trackpoint>
            <Time>2020-12-05T08:40:21.000Z</Time>
            <Position>
              <LatitudeDegrees>36.79716738872230052947998046875</LatitudeDegrees>
              <LongitudeDegrees>-4.3804682604968547821044921875</LongitudeDegrees>
            </Position>
            <AltitudeMeters>742.20001220703125</AltitudeMeters>
            <DistanceMeters>317.39738285963</DistanceMeters>
          </Trackpoint>
          <Trackpoint>
            <Time>2020-12-05T08:40:22.000Z</Time>
            <Position>
              <LatitudeDegrees>36.797179877758026123046875</LatitudeDegrees>
              <LongitudeDegrees>-4.38045744784176349639892578125</LongitudeDegrees>
            </Position>
            <AltitudeMeters>742.79998779296875</AltitudeMeters>
            <DistanceMeters>319.08928540787</DistanceMeters>
          </Trackpoint>
          <Trackpoint>
            <Time>2020-12-05T08:40:23.000Z</Time>
            <Position>
              <LatitudeDegrees>36.79719270206987857818603515625</LatitudeDegrees>
              <LongitudeDegrees>-4.38044738955795764923095703125</LongitudeDegrees>
            </Position>
            <AltitudeMeters>743.20001220703125</AltitudeMeters>
            <DistanceMeters>320.77584227908</DistanceMeters>
          </Trackpoint>
          <Trackpoint>
            <Time>2020-12-05T08:40:24.000Z</Time>
            <Position>
              <LatitudeDegrees>36.79720393382012844085693359375</LatitudeDegrees>
              <LongitudeDegrees>-4.3804349005222320556640625</LongitudeDegrees>
            </Position>
            <AltitudeMeters>743.5999755859375</AltitudeMeters>
            <DistanceMeters>322.44896023596</DistanceMeters>
          </Trackpoint>
          <Trackpoint>
            <Time>2020-12-05T08:40:25.000Z</Time>
            <Position>
              <LatitudeDegrees>36.7972155846655368804931640625</LatitudeDegrees>
              <LongitudeDegrees>-4.380424506962299346923828125</LongitudeDegrees>
            </Position>
            <AltitudeMeters>744</AltitudeMeters>
            <DistanceMeters>324.04473013078</DistanceMeters>
          </Trackpoint>
          <Trackpoint>
            <Time>2020-12-05T08:40:26.000Z</Time>
            <Position>
              <LatitudeDegrees>36.797228157520294189453125</LatitudeDegrees>
              <LongitudeDegrees>-4.38041369430720806121826171875</LongitudeDegrees>
            </Position>
            <AltitudeMeters>744.4000244140625</AltitudeMeters>
            <DistanceMeters>325.74461967485</DistanceMeters>
          </Trackpoint>
          <Trackpoint>
            <Time>2020-12-05T08:40:27.000Z</Time>
            <Position>
              <LatitudeDegrees>36.797238886356353759765625</LatitudeDegrees>
              <LongitudeDegrees>-4.38040497712790966033935546875</LongitudeDegrees>
            </Position>
            <AltitudeMeters>744.5999755859375</AltitudeMeters>
            <DistanceMeters>327.16684930591</DistanceMeters>
          </Trackpoint>
          <Trackpoint>
            <Time>2020-12-05T08:40:28.000Z</Time>
            <Position>
              <LatitudeDegrees>36.79725087247788906097412109375</LatitudeDegrees>
              <LongitudeDegrees>-4.38039558939635753631591796875</LongitudeDegrees>
            </Position>
            <AltitudeMeters>744.79998779296875</AltitudeMeters>
            <DistanceMeters>328.74268908903</DistanceMeters>
          </Trackpoint>
          <Trackpoint>
            <Time>2020-12-05T08:40:29.000Z</Time>
            <Position>
              <LatitudeDegrees>36.7972616851329803466796875</LatitudeDegrees>
              <LongitudeDegrees>-4.380388297140598297119140625</LongitudeDegrees>
            </Position>
            <AltitudeMeters>745.20001220703125</AltitudeMeters>
            <DistanceMeters>330.11318385383</DistanceMeters>
          </Trackpoint>
          <Trackpoint>
            <Time>2020-12-05T08:40:30.000Z</Time>
            <Position>
              <LatitudeDegrees>36.79727031849324703216552734375</LatitudeDegrees>
              <LongitudeDegrees>-4.3803841061890125274658203125</LongitudeDegrees>
            </Position>
            <AltitudeMeters>745.4000244140625</AltitudeMeters>
            <DistanceMeters>331.14543819284</DistanceMeters>
          </Trackpoint>
          <Trackpoint>
            <Time>2020-12-05T08:40:31.000Z</Time>
            <Position>
              <LatitudeDegrees>36.79727886803448200225830078125</LatitudeDegrees>
              <LongitudeDegrees>-4.38038368709385395050048828125</LongitudeDegrees>
            </Position>
            <AltitudeMeters>745.5999755859375</AltitudeMeters>
            <DistanceMeters>332.09570533653</DistanceMeters>
          </Trackpoint>
          <Trackpoint>
            <Time>2020-12-05T08:40:32.000Z</Time>
            <Position>
              <LatitudeDegrees>36.797285489737987518310546875</LatitudeDegrees>
              <LongitudeDegrees>-4.3803831003606319427490234375</LongitudeDegrees>
            </Position>
            <AltitudeMeters>745.5999755859375</AltitudeMeters>
            <DistanceMeters>332.83177910093</DistanceMeters>
          </Trackpoint>
          <Trackpoint>
            <Time>2020-12-05T08:40:33.000Z</Time>
            <Position>
              <LatitudeDegrees>36.79729278199374675750732421875</LatitudeDegrees>
              <LongitudeDegrees>-4.3803834356367588043212890625</LongitudeDegrees>
            </Position>
            <AltitudeMeters>746</AltitudeMeters>
            <DistanceMeters>333.63810751043</DistanceMeters>
          </Trackpoint>
          <Trackpoint>
            <Time>2020-12-05T08:40:34.000Z</Time>
            <Position>
              <LatitudeDegrees>36.797301582992076873779296875</LatitudeDegrees>
              <LongitudeDegrees>-4.380382597446441650390625</LongitudeDegrees>
            </Position>
            <AltitudeMeters>746.4000244140625</AltitudeMeters>
            <DistanceMeters>334.6164674151</DistanceMeters>
          </Trackpoint>
          <Trackpoint>
            <Time>2020-12-05T08:40:35.000Z</Time>
            <Position>
              <LatitudeDegrees>36.79731289856135845184326171875</LatitudeDegrees>
              <LongitudeDegrees>-4.380381591618061065673828125</LongitudeDegrees>
            </Position>
            <AltitudeMeters>746.5999755859375</AltitudeMeters>
            <DistanceMeters>335.8771392416</DistanceMeters>
          </Trackpoint>
          <Trackpoint>
            <Time>2020-12-05T08:40:36.000Z</Time>
            <Position>
              <LatitudeDegrees>36.7973292432725429534912109375</LatitudeDegrees>
              <LongitudeDegrees>-4.38038117252290248870849609375</LongitudeDegrees>
            </Position>
            <AltitudeMeters>746.79998779296875</AltitudeMeters>
            <DistanceMeters>337.69510733221</DistanceMeters>
          </Trackpoint>
          <Trackpoint>
            <Time>2020-12-05T08:40:37.000Z</Time>
            <Position>
              <LatitudeDegrees>36.79734407924115657806396484375</LatitudeDegrees>
              <LongitudeDegrees>-4.38038066960871219635009765625</LongitudeDegrees>
            </Position>
            <AltitudeMeters>747</AltitudeMeters>
            <DistanceMeters>339.34649556218</DistanceMeters>
          </Trackpoint>
          <Trackpoint>
            <Time>2020-12-05T08:40:38.000Z</Time>
            <Position>
              <LatitudeDegrees>36.79735832847654819488525390625</LatitudeDegrees>
              <LongitudeDegrees>-4.380381591618061065673828125</LongitudeDegrees>
            </Position>
            <AltitudeMeters>747.20001220703125</AltitudeMeters>
            <DistanceMeters>340.93375462354</DistanceMeters>
          </Trackpoint>
          <Trackpoint>
            <Time>2020-12-05T08:40:39.000Z</Time>
            <Position>
              <LatitudeDegrees>36.79737039841711521148681640625</LatitudeDegrees>
              <LongitudeDegrees>-4.38038553111255168914794921875</LongitudeDegrees>
            </Position>
            <AltitudeMeters>747.4000244140625</AltitudeMeters>
            <DistanceMeters>342.32062386127</DistanceMeters>
          </Trackpoint>
          <Trackpoint>
            <Time>2020-12-05T08:40:40.000Z</Time>
            <Position>
              <LatitudeDegrees>36.7973795346915721893310546875</LatitudeDegrees>
              <LongitudeDegrees>-4.38038771040737628936767578125</LongitudeDegrees>
            </Position>
            <AltitudeMeters>747.5999755859375</AltitudeMeters>
            <DistanceMeters>343.36158936179</DistanceMeters>
          </Trackpoint>
          <Trackpoint>
            <Time>2020-12-05T08:40:41.000Z</Time>
            <Position>
              <LatitudeDegrees>36.79739118553698062896728515625</LatitudeDegrees>
              <LongitudeDegrees>-4.38039223663508892059326171875</LongitudeDegrees>
            </Position>
            <AltitudeMeters>747.5999755859375</AltitudeMeters>
            <DistanceMeters>344.71884232074</DistanceMeters>
          </Trackpoint>
          <Trackpoint>
            <Time>2020-12-05T08:40:42.000Z</Time>
            <Position>
              <LatitudeDegrees>36.79741012863814830780029296875</LatitudeDegrees>
              <LongitudeDegrees>-4.38040028326213359832763671875</LongitudeDegrees>
            </Position>
            <AltitudeMeters>747.79998779296875</AltitudeMeters>
            <DistanceMeters>346.94336067114</DistanceMeters>
          </Trackpoint>
          <Trackpoint>
            <Time>2020-12-05T08:40:43.000Z</Time>
            <Position>
              <LatitudeDegrees>36.79742907173931598663330078125</LatitudeDegrees>
              <LongitudeDegrees>-4.380417801439762115478515625</LongitudeDegrees>
            </Position>
            <AltitudeMeters>747.79998779296875</AltitudeMeters>
            <DistanceMeters>349.56651111484</DistanceMeters>
          </Trackpoint>
          <Trackpoint>
            <Time>2020-12-05T08:40:44.000Z</Time>
            <Position>
              <LatitudeDegrees>36.79744340479373931884765625</LatitudeDegrees>
              <LongitudeDegrees>-4.38043129630386829376220703125</LongitudeDegrees>
            </Position>
            <AltitudeMeters>748</AltitudeMeters>
            <DistanceMeters>351.56433337626</DistanceMeters>
          </Trackpoint>
          <Trackpoint>
            <Time>2020-12-05T08:40:45.000Z</Time>
            <Position>
              <LatitudeDegrees>36.797453127801418304443359375</LatitudeDegrees>
              <LongitudeDegrees>-4.38043833710253238677978515625</LongitudeDegrees>
            </Position>
            <AltitudeMeters>748.20001220703125</AltitudeMeters>
            <DistanceMeters>352.81782182904</DistanceMeters>
          </Trackpoint>
          <Trackpoint>
            <Time>2020-12-05T08:40:46.000Z</Time>
            <Position>
              <LatitudeDegrees>36.79746042005717754364013671875</LatitudeDegrees>
              <LongitudeDegrees>-4.38044537790119647979736328125</LongitudeDegrees>
            </Position>
            <AltitudeMeters>748.20001220703125</AltitudeMeters>
            <DistanceMeters>353.85007616804</DistanceMeters>
          </Trackpoint>
          <Trackpoint>
            <Time>2020-12-05T08:40:47.000Z</Time>
            <Position>
              <LatitudeDegrees>36.79746712557971477508544921875</LatitudeDegrees>
              <LongitudeDegrees>-4.3804535083472728729248046875</LongitudeDegrees>
            </Position>
            <AltitudeMeters>748.20001220703125</AltitudeMeters>
            <DistanceMeters>354.89104166856</DistanceMeters>
          </Trackpoint>
          <Trackpoint>
            <Time>2020-12-05T08:40:48.000Z</Time>
            <Position>
              <LatitudeDegrees>36.79747316054999828338623046875</LatitudeDegrees>
              <LongitudeDegrees>-4.380466081202030181884765625</LongitudeDegrees>
            </Position>
            <AltitudeMeters>748.4000244140625</AltitudeMeters>
            <DistanceMeters>356.19744300349</DistanceMeters>
          </Trackpoint>
          <Trackpoint>
            <Time>2020-12-05T08:40:49.000Z</Time>
            <Position>
              <LatitudeDegrees>36.79748103953897953033447265625</LatitudeDegrees>
              <LongitudeDegrees>-4.380480162799358367919921875</LongitudeDegrees>
            </Position>
            <AltitudeMeters>748.5999755859375</AltitudeMeters>
            <DistanceMeters>357.72970273194</DistanceMeters>
          </Trackpoint>
          <Trackpoint>
            <Time>2020-12-05T08:40:50.000Z</Time>
            <Position>
              <LatitudeDegrees>36.797492690384387969970703125</LatitudeDegrees>
              <LongitudeDegrees>-4.38048812560737133026123046875</LongitudeDegrees>
            </Position>
            <AltitudeMeters>748.5999755859375</AltitudeMeters>
            <DistanceMeters>359.20797148269</DistanceMeters>
          </Trackpoint>
          <Trackpoint>
            <Time>2020-12-05T08:40:51.000Z</Time>
            <Position>
              <LatitudeDegrees>36.79750509560108184814453125</LatitudeDegrees>
              <LongitudeDegrees>-4.3804927356541156768798828125</LongitudeDegrees>
            </Position>
            <AltitudeMeters>748.79998779296875</AltitudeMeters>
            <DistanceMeters>360.64912296054</DistanceMeters>
          </Trackpoint>
          <Trackpoint>
            <Time>2020-12-05T08:40:52.000Z</Time>
            <Position>
              <LatitudeDegrees>36.79751724936068058013916015625</LatitudeDegrees>
              <LongitudeDegrees>-4.3804981000721454620361328125</LongitudeDegrees>
            </Position>
            <AltitudeMeters>748.79998779296875</AltitudeMeters>
            <DistanceMeters>362.07768772153</DistanceMeters>
          </Trackpoint>
          <Trackpoint>
            <Time>2020-12-05T08:40:53.000Z</Time>
            <Position>
              <LatitudeDegrees>36.7975277267396450042724609375</LatitudeDegrees>
              <LongitudeDegrees>-4.38050639815628528594970703125</LongitudeDegrees>
            </Position>
            <AltitudeMeters>748.79998779296875</AltitudeMeters>
            <DistanceMeters>363.45803047957</DistanceMeters>
          </Trackpoint>
          <Trackpoint>
            <Time>2020-12-05T08:40:54.000Z</Time>
            <Position>
              <LatitudeDegrees>36.7975379526615142822265625</LatitudeDegrees>
              <LongitudeDegrees>-4.3805165402591228485107421875</LongitudeDegrees>
            </Position>
            <AltitudeMeters>748.79998779296875</AltitudeMeters>
            <DistanceMeters>364.91165969222</DistanceMeters>
          </Trackpoint>
          <Trackpoint>
            <Time>2020-12-05T08:40:55.000Z</Time>
            <Position>
              <LatitudeDegrees>36.79754734039306640625</LatitudeDegrees>
              <LongitudeDegrees>-4.38052668236196041107177734375</LongitudeDegrees>
            </Position>
            <AltitudeMeters>749</AltitudeMeters>
            <DistanceMeters>366.29526953829</DistanceMeters>
          </Trackpoint>
          <Trackpoint>
            <Time>2020-12-05T08:40:56.000Z</Time>
            <Position>
              <LatitudeDegrees>36.7975552193820476531982421875</LatitudeDegrees>
              <LongitudeDegrees>-4.38053841702640056610107421875</LongitudeDegrees>
            </Position>
            <AltitudeMeters>749</AltitudeMeters>
            <DistanceMeters>367.65915947059</DistanceMeters>
          </Trackpoint>
          <Trackpoint>
            <Time>2020-12-05T08:40:57.000Z</Time>
            <Position>
              <LatitudeDegrees>36.79756251163780689239501953125</LatitudeDegrees>
              <LongitudeDegrees>-4.38054621219635009765625</LongitudeDegrees>
            </Position>
            <AltitudeMeters>749.20001220703125</AltitudeMeters>
            <DistanceMeters>368.72583169388</DistanceMeters>
          </Trackpoint>
          <Trackpoint>
            <Time>2020-12-05T08:40:58.000Z</Time>
            <Position>
              <LatitudeDegrees>36.79756938479840755462646484375</LatitudeDegrees>
              <LongitudeDegrees>-4.38055434264242649078369140625</LongitudeDegrees>
            </Position>
            <AltitudeMeters>749</AltitudeMeters>
            <DistanceMeters>369.77543606038</DistanceMeters>
          </Trackpoint>
          <Trackpoint>
            <Time>2020-12-05T08:40:59.000Z</Time>
            <Position>
              <LatitudeDegrees>36.7975750006735324859619140625</LatitudeDegrees>
              <LongitudeDegrees>-4.380564987659454345703125</LongitudeDegrees>
            </Position>
            <AltitudeMeters>749.20001220703125</AltitudeMeters>
            <DistanceMeters>370.90781005118</DistanceMeters>
          </Trackpoint>
          <Trackpoint>
            <Time>2020-12-05T08:41:00.000Z</Time>
            <Position>
              <LatitudeDegrees>36.797584556043148040771484375</LatitudeDegrees>
              <LongitudeDegrees>-4.38057236373424530029296875</LongitudeDegrees>
            </Position>
            <AltitudeMeters>749</AltitudeMeters>
            <DistanceMeters>372.16129850396</DistanceMeters>
          </Trackpoint>
          <Trackpoint>
            <Time>2020-12-05T08:41:01.000Z</Time>
            <Position>
              <LatitudeDegrees>36.79759436286985874176025390625</LatitudeDegrees>
              <LongitudeDegrees>-4.380580745637416839599609375</LongitudeDegrees>
            </Position>
            <AltitudeMeters>749</AltitudeMeters>
            <DistanceMeters>373.48827435399</DistanceMeters>
          </Trackpoint>
          <Trackpoint>
            <Time>2020-12-05T08:41:02.000Z</Time>
            <Position>
              <LatitudeDegrees>36.7976055108010768890380859375</LatitudeDegrees>
              <LongitudeDegrees>-4.38058988191187381744384765625</LongitudeDegrees>
            </Position>
            <AltitudeMeters>749</AltitudeMeters>
            <DistanceMeters>374.97567770506</DistanceMeters>
          </Trackpoint>
          <Trackpoint>
            <Time>2020-12-05T08:41:03.000Z</Time>
            <Position>
              <LatitudeDegrees>36.79761799983680248260498046875</LatitudeDegrees>
              <LongitudeDegrees>-4.3805996887385845184326171875</LongitudeDegrees>
            </Position>
            <AltitudeMeters>749</AltitudeMeters>
            <DistanceMeters>376.61884320395</DistanceMeters>
          </Trackpoint>
          <Trackpoint>
            <Time>2020-12-05T08:41:04.000Z</Time>
            <Position>
              <LatitudeDegrees>36.79763023741543292999267578125</LatitudeDegrees>
              <LongitudeDegrees>-4.3806114234030246734619140625</LongitudeDegrees>
            </Position>
            <AltitudeMeters>748.79998779296875</AltitudeMeters>
            <DistanceMeters>378.33722470908</DistanceMeters>
          </Trackpoint>
          <Trackpoint>
            <Time>2020-12-05T08:41:05.000Z</Time>
            <Position>
              <LatitudeDegrees>36.79764180444180965423583984375</LatitudeDegrees>
              <LongitudeDegrees>-4.380624331533908843994140625</LongitudeDegrees>
            </Position>
            <AltitudeMeters>748.5999755859375</AltitudeMeters>
            <DistanceMeters>380.06608424731</DistanceMeters>
          </Trackpoint>
          <Trackpoint>
            <Time>2020-12-05T08:41:06.000Z</Time>
            <Position>
              <LatitudeDegrees>36.79765404202044010162353515625</LatitudeDegrees>
              <LongitudeDegrees>-4.38063397072255611419677734375</LongitudeDegrees>
            </Position>
            <AltitudeMeters>748.5999755859375</AltitudeMeters>
            <DistanceMeters>381.67313180821</DistanceMeters>
          </Trackpoint>
          <Trackpoint>
            <Time>2020-12-05T08:41:07.000Z</Time>
            <Position>
              <LatitudeDegrees>36.7976653575897216796875</LatitudeDegrees>
              <LongitudeDegrees>-4.38064352609217166900634765625</LongitudeDegrees>
            </Position>
            <AltitudeMeters>748.5999755859375</AltitudeMeters>
            <DistanceMeters>383.19355923813</DistanceMeters>
          </Trackpoint>
          <Trackpoint>
            <Time>2020-12-05T08:41:08.000Z</Time>
            <Position>
              <LatitudeDegrees>36.79767516441643238067626953125</LatitudeDegrees>
              <LongitudeDegrees>-4.38065039925277233123779296875</LongitudeDegrees>
            </Position>
            <AltitudeMeters>748.79998779296875</AltitudeMeters>
            <DistanceMeters>384.44344052241</DistanceMeters>
          </Trackpoint>
          <Trackpoint>
            <Time>2020-12-05T08:41:09.000Z</Time>
            <Position>
              <LatitudeDegrees>36.79768287576735019683837890625</LatitudeDegrees>
              <LongitudeDegrees>-4.380656182765960693359375</LongitudeDegrees>
            </Position>
            <AltitudeMeters>748.79998779296875</AltitudeMeters>
            <DistanceMeters>385.44008911085</DistanceMeters>
          </Trackpoint>
          <Trackpoint>
            <Time>2020-12-05T08:41:10.000Z</Time>
            <Position>
              <LatitudeDegrees>36.797689162194728851318359375</LatitudeDegrees>
              <LongitudeDegrees>-4.380659870803356170654296875</LongitudeDegrees>
            </Position>
            <AltitudeMeters>748.5999755859375</AltitudeMeters>
            <DistanceMeters>386.21208978786</DistanceMeters>
          </Trackpoint>
          <Trackpoint>
            <Time>2020-12-05T08:41:11.000Z</Time>
            <Position>
              <LatitudeDegrees>36.79769259877502918243408203125</LatitudeDegrees>
              <LongitudeDegrees>-4.38066280446946620941162109375</LongitudeDegrees>
            </Position>
            <AltitudeMeters>748.79998779296875</AltitudeMeters>
            <DistanceMeters>386.67762371214</DistanceMeters>
          </Trackpoint>
          <Trackpoint>
            <Time>2020-12-05T08:41:12.000Z</Time>
            <Position>
              <LatitudeDegrees>36.797695197165012359619140625</LatitudeDegrees>
              <LongitudeDegrees>-4.3806556798517704010009765625</LongitudeDegrees>
            </Position>
            <AltitudeMeters>749</AltitudeMeters>
            <DistanceMeters>387.37592459855</DistanceMeters>
          </Trackpoint>
          <Trackpoint>
            <Time>2020-12-05T08:41:13.000Z</Time>
            <Position>
              <LatitudeDegrees>36.79769746027886867523193359375</LatitudeDegrees>
              <LongitudeDegrees>-4.3806583620607852935791015625</LongitudeDegrees>
            </Position>
            <AltitudeMeters>749</AltitudeMeters>
            <DistanceMeters>387.70510679329</DistanceMeters>
          </Trackpoint>
          <Trackpoint>
            <Time>2020-12-05T08:41:14.000Z</Time>
            <Position>
              <LatitudeDegrees>36.79769846610724925994873046875</LatitudeDegrees>
              <LongitudeDegrees>-4.38064478337764739990234375</LongitudeDegrees>
            </Position>
            <AltitudeMeters>749.20001220703125</AltitudeMeters>
            <DistanceMeters>388.91832666634</DistanceMeters>
          </Trackpoint>
          <Trackpoint>
            <Time>2020-12-05T08:41:15.000Z</Time>
            <Position>
              <LatitudeDegrees>36.7976936884224414825439453125</LatitudeDegrees>
              <LongitudeDegrees>-4.3806298635900020599365234375</LongitudeDegrees>
            </Position>
            <AltitudeMeters>749.20001220703125</AltitudeMeters>
            <DistanceMeters>390.35319858718</DistanceMeters>
          </Trackpoint>
          <Trackpoint>
            <Time>2020-12-05T08:41:16.000Z</Time>
            <Position>
              <LatitudeDegrees>36.79768539033830165863037109375</LatitudeDegrees>
              <LongitudeDegrees>-4.38061972148716449737548828125</LongitudeDegrees>
            </Position>
            <AltitudeMeters>749.5999755859375</AltitudeMeters>
            <DistanceMeters>391.64220365532</DistanceMeters>
          </Trackpoint>
          <Trackpoint>
            <Time>2020-12-05T08:41:17.000Z</Time>
            <Position>
              <LatitudeDegrees>36.79767751134932041168212890625</LatitudeDegrees>
              <LongitudeDegrees>-4.38061033375561237335205078125</LongitudeDegrees>
            </Position>
            <AltitudeMeters>750</AltitudeMeters>
            <DistanceMeters>392.85169626956</DistanceMeters>
          </Trackpoint>
          <Trackpoint>
            <Time>2020-12-05T08:41:18.000Z</Time>
            <Position>
              <LatitudeDegrees>36.7976729013025760650634765625</LatitudeDegrees>
              <LongitudeDegrees>-4.38060631044209003448486328125</LongitudeDegrees>
            </Position>
            <AltitudeMeters>750.5999755859375</AltitudeMeters>
            <DistanceMeters>393.46753976482</DistanceMeters>
          </Trackpoint>
          <Trackpoint>
            <Time>2020-12-05T08:41:19.000Z</Time>
            <Position>
              <LatitudeDegrees>36.7976722307503223419189453125</LatitudeDegrees>
              <LongitudeDegrees>-4.38060128130018711090087890625</LongitudeDegrees>
            </Position>
            <AltitudeMeters>751.20001220703125</AltitudeMeters>
            <DistanceMeters>393.92327187715</DistanceMeters>
          </Trackpoint>
          <Trackpoint>
            <Time>2020-12-05T08:41:20.000Z</Time>
            <Position>
              <LatitudeDegrees>36.79767097346484661102294921875</LatitudeDegrees>
              <LongitudeDegrees>-4.3806011974811553955078125</LongitudeDegrees>
            </Position>
            <AltitudeMeters>751.5999755859375</AltitudeMeters>
            <DistanceMeters>394.0576599454</DistanceMeters>
          </Trackpoint>
          <Trackpoint>
            <Time>2020-12-05T08:41:21.000Z</Time>
            <Position>
              <LatitudeDegrees>36.797669045627117156982421875</LatitudeDegrees>
              <LongitudeDegrees>-4.38060714863240718841552734375</LongitudeDegrees>
            </Position>
            <AltitudeMeters>751.79998779296875</AltitudeMeters>
            <DistanceMeters>394.62782023162</DistanceMeters>
          </Trackpoint>
          <Trackpoint>
            <Time>2020-12-05T08:41:22.000Z</Time>
            <Position>
              <LatitudeDegrees>36.79766879417002201080322265625</LatitudeDegrees>
              <LongitudeDegrees>-4.38061485998332500457763671875</LongitudeDegrees>
            </Position>
            <AltitudeMeters>751.79998779296875</AltitudeMeters>
            <DistanceMeters>395.31962515465</DistanceMeters>
          </Trackpoint>
          <Trackpoint>
            <Time>2020-12-05T08:41:23.000Z</Time>
            <Position>
              <LatitudeDegrees>36.79767181165516376495361328125</LatitudeDegrees>
              <LongitudeDegrees>-4.38061838038265705108642578125</LongitudeDegrees>
            </Position>
            <AltitudeMeters>751.79998779296875</AltitudeMeters>
            <DistanceMeters>395.78515907893</DistanceMeters>
          </Trackpoint>
          <Trackpoint>
            <Time>2020-12-05T08:41:24.000Z</Time>
            <Position>
              <LatitudeDegrees>36.79767751134932041168212890625</LatitudeDegrees>
              <LongitudeDegrees>-4.3806251697242259979248046875</LongitudeDegrees>
            </Position>
            <AltitudeMeters>751.5999755859375</AltitudeMeters>
            <DistanceMeters>396.65609330222</DistanceMeters>
          </Trackpoint>
          <Trackpoint>
            <Time>2020-12-05T08:41:25.000Z</Time>
            <Position>
              <LatitudeDegrees>36.797686479985713958740234375</LatitudeDegrees>
              <LongitudeDegrees>-4.38063564710319042205810546875</LongitudeDegrees>
            </Position>
            <AltitudeMeters>751.20001220703125</AltitudeMeters>
            <DistanceMeters>398.02328963921</DistanceMeters>
          </Trackpoint>
          <Trackpoint>
            <Time>2020-12-05T08:41:26.000Z</Time>
            <Position>
              <LatitudeDegrees>36.797697208821773529052734375</LatitudeDegrees>
              <LongitudeDegrees>-4.38064486719667911529541015625</LongitudeDegrees>
            </Position>
            <AltitudeMeters>750.79998779296875</AltitudeMeters>
            <DistanceMeters>399.47069343049</DistanceMeters>
          </Trackpoint>
          <Trackpoint>
            <Time>2020-12-05T08:41:27.000Z</Time>
            <Position>
              <LatitudeDegrees>36.79771036840975284576416015625</LatitudeDegrees>
              <LongitudeDegrees>-4.3806546740233898162841796875</LongitudeDegrees>
            </Position>
            <AltitudeMeters>750.20001220703125</AltitudeMeters>
            <DistanceMeters>401.17588685499</DistanceMeters>
          </Trackpoint>
          <Trackpoint>
            <Time>2020-12-05T08:41:28.000Z</Time>
            <Position>
              <LatitudeDegrees>36.79772579111158847808837890625</LatitudeDegrees>
              <LongitudeDegrees>-4.38066615723073482513427734375</LongitudeDegrees>
            </Position>
            <AltitudeMeters>749.79998779296875</AltitudeMeters>
            <DistanceMeters>403.17822397473</DistanceMeters>
          </Trackpoint>
          <Trackpoint>
            <Time>2020-12-05T08:41:29.000Z</Time>
            <Position>
              <LatitudeDegrees>36.797740794718265533447265625</LatitudeDegrees>
              <LongitudeDegrees>-4.38067453913390636444091796875</LongitudeDegrees>
            </Position>
            <AltitudeMeters>749.4000244140625</AltitudeMeters>
            <DistanceMeters>405.00856775684</DistanceMeters>
          </Trackpoint>
          <Trackpoint>
            <Time>2020-12-05T08:41:30.000Z</Time>
            <Position>
              <LatitudeDegrees>36.797754876315593719482421875</LatitudeDegrees>
              <LongitudeDegrees>-4.38068233430385589599609375</LongitudeDegrees>
            </Position>
            <AltitudeMeters>749</AltitudeMeters>
            <DistanceMeters>406.72168621284</DistanceMeters>
          </Trackpoint>
          <Trackpoint>
            <Time>2020-12-05T08:41:31.000Z</Time>
            <Position>
              <LatitudeDegrees>36.7977691255509853363037109375</LatitudeDegrees>
              <LongitudeDegrees>-4.38068929128348827362060546875</LongitudeDegrees>
            </Position>
            <AltitudeMeters>748.5999755859375</AltitudeMeters>
            <DistanceMeters>408.42157575692</DistanceMeters>
          </Trackpoint>
          <Trackpoint>
            <Time>2020-12-05T08:41:32.000Z</Time>
            <Position>
              <LatitudeDegrees>36.7977842129766941070556640625</LatitudeDegrees>
              <LongitudeDegrees>-4.38069700263440608978271484375</LongitudeDegrees>
            </Position>
            <AltitudeMeters>748.20001220703125</AltitudeMeters>
            <DistanceMeters>410.23456991731</DistanceMeters>
          </Trackpoint>
          <Trackpoint>
            <Time>2020-12-05T08:41:33.000Z</Time>
            <Position>
              <LatitudeDegrees>36.797797791659832000732421875</LatitudeDegrees>
              <LongitudeDegrees>-4.3807042948901653289794921875</LongitudeDegrees>
            </Position>
            <AltitudeMeters>747.79998779296875</AltitudeMeters>
            <DistanceMeters>411.88048089096</DistanceMeters>
          </Trackpoint>
          <Trackpoint>
            <Time>2020-12-05T08:41:34.000Z</Time>
            <Position>
              <LatitudeDegrees>36.79780927486717700958251953125</LatitudeDegrees>
              <LongitudeDegrees>-4.38071276061236858367919921875</LongitudeDegrees>
            </Position>
            <AltitudeMeters>747.5999755859375</AltitudeMeters>
            <DistanceMeters>413.36484562118</DistanceMeters>
          </Trackpoint>
          <Trackpoint>
            <Time>2020-12-05T08:41:35.000Z</Time>
            <Position>
              <LatitudeDegrees>36.79781916551291942596435546875</LatitudeDegrees>
              <LongitudeDegrees>-4.3807223998010158538818359375</LongitudeDegrees>
            </Position>
            <AltitudeMeters>747.4000244140625</AltitudeMeters>
            <DistanceMeters>414.76144739402</DistanceMeters>
          </Trackpoint>
          <Trackpoint>
            <Time>2020-12-05T08:41:36.000Z</Time>
            <Position>
              <LatitudeDegrees>36.79782855324447154998779296875</LatitudeDegrees>
              <LongitudeDegrees>-4.3807284347712993621826171875</LongitudeDegrees>
            </Position>
            <AltitudeMeters>747.5999755859375</AltitudeMeters>
            <DistanceMeters>415.93686293583</DistanceMeters>
          </Trackpoint>
          <Trackpoint>
            <Time>2020-12-05T08:41:37.000Z</Time>
            <Position>
              <LatitudeDegrees>36.7978395335376262664794921875</LatitudeDegrees>
              <LongitudeDegrees>-4.38073405064642429351806640625</LongitudeDegrees>
            </Position>
            <AltitudeMeters>748</AltitudeMeters>
            <DistanceMeters>417.25359171475</DistanceMeters>
          </Trackpoint>
          <Trackpoint>
            <Time>2020-12-05T08:41:38.000Z</Time>
            <Position>
              <LatitudeDegrees>36.79784917272627353668212890625</LatitudeDegrees>
              <LongitudeDegrees>-4.3807379901409149169921875</LongitudeDegrees>
            </Position>
            <AltitudeMeters>748.79998779296875</AltitudeMeters>
            <DistanceMeters>418.37796296223</DistanceMeters>
          </Trackpoint>
          <Trackpoint>
            <Time>2020-12-05T08:41:39.000Z</Time>
            <Position>
              <LatitudeDegrees>36.79785939864814281463623046875</LatitudeDegrees>
              <LongitudeDegrees>-4.38074159435927867889404296875</LongitudeDegrees>
            </Position>
            <AltitudeMeters>749.5999755859375</AltitudeMeters>
            <DistanceMeters>419.5648462443</DistanceMeters>
          </Trackpoint>
          <Trackpoint>
            <Time>2020-12-05T08:41:40.000Z</Time>
            <Position>
              <LatitudeDegrees>36.79787046276032924652099609375</LatitudeDegrees>
              <LongitudeDegrees>-4.38074561767280101776123046875</LongitudeDegrees>
            </Position>
            <AltitudeMeters>750.79998779296875</AltitudeMeters>
            <DistanceMeters>420.84682670936</DistanceMeters>
          </Trackpoint>
          <Trackpoint>
            <Time>2020-12-05T08:41:41.000Z</Time>
            <Position>
              <LatitudeDegrees>36.79788085632026195526123046875</LatitudeDegrees>
              <LongitudeDegrees>-4.380752742290496826171875</LongitudeDegrees>
            </Position>
            <AltitudeMeters>752</AltitudeMeters>
            <DistanceMeters>422.16698001624</DistanceMeters>
          </Trackpoint>
          <Trackpoint>
            <Time>2020-12-05T08:41:42.000Z</Time>
            <Position>
              <LatitudeDegrees>36.797891668975353240966796875</LatitudeDegrees>
              <LongitudeDegrees>-4.380760453641414642333984375</LongitudeDegrees>
            </Position>
            <AltitudeMeters>752.5999755859375</AltitudeMeters>
            <DistanceMeters>423.55710100343</DistanceMeters>
          </Trackpoint>
          <Trackpoint>
            <Time>2020-12-05T08:41:43.000Z</Time>
            <Position>
              <LatitudeDegrees>36.797903738915920257568359375</LatitudeDegrees>
              <LongitudeDegrees>-4.38076891936361789703369140625</LongitudeDegrees>
            </Position>
            <AltitudeMeters>753</AltitudeMeters>
            <DistanceMeters>425.10110235744</DistanceMeters>
          </Trackpoint>
          <Trackpoint>
            <Time>2020-12-05T08:41:44.000Z</Time>
            <Position>
              <LatitudeDegrees>36.79791547358036041259765625</LatitudeDegrees>
              <LongitudeDegrees>-4.3807740323245525360107421875</LongitudeDegrees>
            </Position>
            <AltitudeMeters>753.20001220703125</AltitudeMeters>
            <DistanceMeters>426.47817027633</DistanceMeters>
          </Trackpoint>
          <Trackpoint>
            <Time>2020-12-05T08:41:45.000Z</Time>
            <Position>
              <LatitudeDegrees>36.79792645387351512908935546875</LatitudeDegrees>
              <LongitudeDegrees>-4.380781240761280059814453125</LongitudeDegrees>
            </Position>
            <AltitudeMeters>752.5999755859375</AltitudeMeters>
            <DistanceMeters>427.85851303437</DistanceMeters>
          </Trackpoint>
          <Trackpoint>
            <Time>2020-12-05T08:41:46.000Z</Time>
            <Position>
              <LatitudeDegrees>36.79793835617601871490478515625</LatitudeDegrees>
              <LongitudeDegrees>-4.38078350387513637542724609375</LongitudeDegrees>
            </Position>
            <AltitudeMeters>752.20001220703125</AltitudeMeters>
            <DistanceMeters>429.19565743043</DistanceMeters>
          </Trackpoint>
          <Trackpoint>
            <Time>2020-12-05T08:41:47.000Z</Time>
            <Position>
              <LatitudeDegrees>36.79795436561107635498046875</LatitudeDegrees>
              <LongitudeDegrees>-4.38078266568481922149658203125</LongitudeDegrees>
            </Position>
            <AltitudeMeters>751.79998779296875</AltitudeMeters>
            <DistanceMeters>430.98104729954</DistanceMeters>
          </Trackpoint>
          <Trackpoint>
            <Time>2020-12-05T08:41:48.000Z</Time>
            <Position>
              <LatitudeDegrees>36.7979696206748485565185546875</LatitudeDegrees>
              <LongitudeDegrees>-4.3807830847799777984619140625</LongitudeDegrees>
            </Position>
            <AltitudeMeters>751.5999755859375</AltitudeMeters>
            <DistanceMeters>432.68093684361</DistanceMeters>
          </Trackpoint>
          <Trackpoint>
            <Time>2020-12-05T08:41:49.000Z</Time>
            <Position>
              <LatitudeDegrees>36.79798563010990619659423828125</LatitudeDegrees>
              <LongitudeDegrees>-4.38078015111386775970458984375</LongitudeDegrees>
            </Position>
            <AltitudeMeters>751.5999755859375</AltitudeMeters>
            <DistanceMeters>434.48394197944</DistanceMeters>
          </Trackpoint>
          <Trackpoint>
            <Time>2020-12-05T08:41:50.000Z</Time>
            <Position>
              <LatitudeDegrees>36.798000298440456390380859375</LatitudeDegrees>
              <LongitudeDegrees>-4.38077361322939395904541015625</LongitudeDegrees>
            </Position>
            <AltitudeMeters>751.79998779296875</AltitudeMeters>
            <DistanceMeters>436.21801679208</DistanceMeters>
          </Trackpoint>
          <Trackpoint>
            <Time>2020-12-05T08:41:51.000Z</Time>
            <Position>
              <LatitudeDegrees>36.79801479913294315338134765625</LatitudeDegrees>
              <LongitudeDegrees>-4.380763806402683258056640625</LongitudeDegrees>
            </Position>
            <AltitudeMeters>752.4000244140625</AltitudeMeters>
            <DistanceMeters>438.05574598596</DistanceMeters>
          </Trackpoint>
          <Trackpoint>
            <Time>2020-12-05T08:41:52.000Z</Time>
            <Position>
              <LatitudeDegrees>36.798027455806732177734375</LatitudeDegrees>
              <LongitudeDegrees>-4.3807529099285602569580078125</LongitudeDegrees>
            </Position>
            <AltitudeMeters>752.79998779296875</AltitudeMeters>
            <DistanceMeters>439.76886444196</DistanceMeters>
          </Trackpoint>
          <Trackpoint>
            <Time>2020-12-05T08:41:53.000Z</Time>
            <Position>
              <LatitudeDegrees>36.798038184642791748046875</LatitudeDegrees>
              <LongitudeDegrees>-4.38074176199734210968017578125</LongitudeDegrees>
            </Position>
            <AltitudeMeters>753.20001220703125</AltitudeMeters>
            <DistanceMeters>441.32161374901</DistanceMeters>
          </Trackpoint>
          <Trackpoint>
            <Time>2020-12-05T08:41:54.000Z</Time>
            <Position>
              <LatitudeDegrees>36.79804824292659759521484375</LatitudeDegrees>
              <LongitudeDegrees>-4.38072969205677509307861328125</LongitudeDegrees>
            </Position>
            <AltitudeMeters>753.4000244140625</AltitudeMeters>
            <DistanceMeters>442.87436305606</DistanceMeters>
          </Trackpoint>
          <Trackpoint>
            <Time>2020-12-05T08:41:55.000Z</Time>
            <Position>
              <LatitudeDegrees>36.79805939085781574249267578125</LatitudeDegrees>
              <LongitudeDegrees>-4.38071862794458866119384765625</LongitudeDegrees>
            </Position>
            <AltitudeMeters>753.5999755859375</AltitudeMeters>
            <DistanceMeters>444.46162211742</DistanceMeters>
          </Trackpoint>
          <Trackpoint>
            <Time>2020-12-05T08:41:56.000Z</Time>
            <Position>
              <LatitudeDegrees>36.79807095788419246673583984375</LatitudeDegrees>
              <LongitudeDegrees>-4.38071125186979770660400390625</LongitudeDegrees>
            </Position>
            <AltitudeMeters>753.5999755859375</AltitudeMeters>
            <DistanceMeters>445.90277359527</DistanceMeters>
          </Trackpoint>
          <Trackpoint>
            <Time>2020-12-05T08:41:57.000Z</Time>
            <Position>
              <LatitudeDegrees>36.7980795912444591522216796875</LatitudeDegrees>
              <LongitudeDegrees>-4.38070354051887989044189453125</LongitudeDegrees>
            </Position>
            <AltitudeMeters>753.5999755859375</AltitudeMeters>
            <DistanceMeters>447.0858466483</DistanceMeters>
          </Trackpoint>
          <Trackpoint>
            <Time>2020-12-05T08:41:58.000Z</Time>
            <Position>
              <LatitudeDegrees>36.79808923043310642242431640625</LatitudeDegrees>
              <LongitudeDegrees>-4.3806965835392475128173828125</LongitudeDegrees>
            </Position>
            <AltitudeMeters>753.79998779296875</AltitudeMeters>
            <DistanceMeters>448.32484341806</DistanceMeters>
          </Trackpoint>
          <Trackpoint>
            <Time>2020-12-05T08:41:59.000Z</Time>
            <Position>
              <LatitudeDegrees>36.7981000430881977081298828125</LatitudeDegrees>
              <LongitudeDegrees>-4.38069348223507404327392578125</LongitudeDegrees>
            </Position>
            <AltitudeMeters>753.79998779296875</AltitudeMeters>
            <DistanceMeters>449.55653040856</DistanceMeters>
          </Trackpoint>
          <Trackpoint>
            <Time>2020-12-05T08:42:00.000Z</Time>
            <Position>
              <LatitudeDegrees>36.79811152629554271697998046875</LatitudeDegrees>
              <LongitudeDegrees>-4.38068979419767856597900390625</LongitudeDegrees>
            </Position>
            <AltitudeMeters>753.79998779296875</AltitudeMeters>
            <DistanceMeters>450.88009938301</DistanceMeters>
          </Trackpoint>
          <Trackpoint>
            <Time>2020-12-05T08:42:01.000Z</Time>
            <Position>
              <LatitudeDegrees>36.79812175221741199493408203125</LatitudeDegrees>
              <LongitudeDegrees>-4.3806865252554416656494140625</LongitudeDegrees>
            </Position>
            <AltitudeMeters>753.5999755859375</AltitudeMeters>
            <DistanceMeters>452.059349896</DistanceMeters>
          </Trackpoint>
          <Trackpoint>
            <Time>2020-12-05T08:42:02.000Z</Time>
            <Position>
              <LatitudeDegrees>36.7981312237679958343505859375</LatitudeDegrees>
              <LongitudeDegrees>-4.38068099319934844970703125</LongitudeDegrees>
            </Position>
            <AltitudeMeters>753.4000244140625</AltitudeMeters>
            <DistanceMeters>453.22705771178</DistanceMeters>
          </Trackpoint>
          <Trackpoint>
            <Time>2020-12-05T08:42:03.000Z</Time>
            <Position>
              <LatitudeDegrees>36.798141114413738250732421875</LatitudeDegrees>
              <LongitudeDegrees>-4.380675293505191802978515625</LongitudeDegrees>
            </Position>
            <AltitudeMeters>753.20001220703125</AltitudeMeters>
            <DistanceMeters>454.44027758483</DistanceMeters>
          </Trackpoint>
          <Trackpoint>
            <Time>2020-12-05T08:42:04.000Z</Time>
            <Position>
              <LatitudeDegrees>36.7981523461639881134033203125</LatitudeDegrees>
              <LongitudeDegrees>-4.380667917430400848388671875</LongitudeDegrees>
            </Position>
            <AltitudeMeters>753.20001220703125</AltitudeMeters>
            <DistanceMeters>455.85295125348</DistanceMeters>
          </Trackpoint>
          <Trackpoint>
            <Time>2020-12-05T08:42:05.000Z</Time>
            <Position>
              <LatitudeDegrees>36.7981647513806819915771484375</LatitudeDegrees>
              <LongitudeDegrees>-4.38065710477530956268310546875</LongitudeDegrees>
            </Position>
            <AltitudeMeters>753.20001220703125</AltitudeMeters>
            <DistanceMeters>457.5395081247</DistanceMeters>
          </Trackpoint>
          <Trackpoint>
            <Time>2020-12-05T08:42:06.000Z</Time>
            <Position>
              <LatitudeDegrees>36.7981744743883609771728515625</LatitudeDegrees>
              <LongitudeDegrees>-4.380643106997013092041015625</LongitudeDegrees>
            </Position>
            <AltitudeMeters>753.4000244140625</AltitudeMeters>
            <DistanceMeters>459.19089635467</DistanceMeters>
          </Trackpoint>
          <Trackpoint>
            <Time>2020-12-05T08:42:07.000Z</Time>
            <Position>
              <LatitudeDegrees>36.79818243719637393951416015625</LatitudeDegrees>
              <LongitudeDegrees>-4.38062743283808231353759765625</LongitudeDegrees>
            </Position>
            <AltitudeMeters>753.5999755859375</AltitudeMeters>
            <DistanceMeters>460.84228458464</DistanceMeters>
          </Trackpoint>
          <Trackpoint>
            <Time>2020-12-05T08:42:08.000Z</Time>
            <Position>
              <LatitudeDegrees>36.7981922440230846405029296875</LatitudeDegrees>
              <LongitudeDegrees>-4.380611591041088104248046875</LongitudeDegrees>
            </Position>
            <AltitudeMeters>753.79998779296875</AltitudeMeters>
            <DistanceMeters>462.62767445374</DistanceMeters>
          </Trackpoint>
          <Trackpoint>
            <Time>2020-12-05T08:42:09.000Z</Time>
            <Position>
              <LatitudeDegrees>36.7982033081352710723876953125</LatitudeDegrees>
              <LongitudeDegrees>-4.38059650361537933349609375</LongitudeDegrees>
            </Position>
            <AltitudeMeters>754.20001220703125</AltitudeMeters>
            <DistanceMeters>464.45060290307</DistanceMeters>
          </Trackpoint>
          <Trackpoint>
            <Time>2020-12-05T08:42:10.000Z</Time>
            <Position>
              <LatitudeDegrees>36.798213534057140350341796875</LatitudeDegrees>
              <LongitudeDegrees>-4.38058502040803432464599609375</LongitudeDegrees>
            </Position>
            <AltitudeMeters>754.4000244140625</AltitudeMeters>
            <DistanceMeters>465.98286263152</DistanceMeters>
          </Trackpoint>
          <Trackpoint>
            <Time>2020-12-05T08:42:11.000Z</Time>
            <Position>
              <LatitudeDegrees>36.79822149686515331268310546875</LatitudeDegrees>
              <LongitudeDegrees>-4.3805785663425922393798828125</LongitudeDegrees>
            </Position>
            <AltitudeMeters>754.79998779296875</AltitudeMeters>
            <DistanceMeters>467.04103533909</DistanceMeters>
          </Trackpoint>
          <Trackpoint>
            <Time>2020-12-05T08:42:12.000Z</Time>
            <Position>
              <LatitudeDegrees>36.7982284538447856903076171875</LatitudeDegrees>
              <LongitudeDegrees>-4.38057630322873592376708984375</LongitudeDegrees>
            </Position>
            <AltitudeMeters>755.20001220703125</AltitudeMeters>
            <DistanceMeters>467.83608587276</DistanceMeters>
          </Trackpoint>
          <Trackpoint>
            <Time>2020-12-05T08:42:13.000Z</Time>
            <Position>
              <LatitudeDegrees>36.798235662281513214111328125</LatitudeDegrees>
              <LongitudeDegrees>-4.3805762194097042083740234375</LongitudeDegrees>
            </Position>
            <AltitudeMeters>755.4000244140625</AltitudeMeters>
            <DistanceMeters>468.63113640642</DistanceMeters>
          </Trackpoint>
          <Trackpoint>
            <Time>2020-12-05T08:42:14.000Z</Time>
            <Position>
              <LatitudeDegrees>36.79824379272758960723876953125</LatitudeDegrees>
              <LongitudeDegrees>-4.38057680614292621612548828125</LongitudeDegrees>
            </Position>
            <AltitudeMeters>755.5999755859375</AltitudeMeters>
            <DistanceMeters>469.53263897433</DistanceMeters>
          </Trackpoint>
          <Trackpoint>
            <Time>2020-12-05T08:42:15.000Z</Time>
            <Position>
              <LatitudeDegrees>36.79825569503009319305419921875</LatitudeDegrees>
              <LongitudeDegrees>-4.38057529740035533905029296875</LongitudeDegrees>
            </Position>
            <AltitudeMeters>755.79998779296875</AltitudeMeters>
            <DistanceMeters>470.86640246891</DistanceMeters>
          </Trackpoint>
          <Trackpoint>
            <Time>2020-12-05T08:42:16.000Z</Time>
            <Position>
              <LatitudeDegrees>36.7982706986367702484130859375</LatitudeDegrees>
              <LongitudeDegrees>-4.38056943006813526153564453125</LongitudeDegrees>
            </Position>
            <AltitudeMeters>756.20001220703125</AltitudeMeters>
            <DistanceMeters>472.61344735616</DistanceMeters>
          </Trackpoint>
          <Trackpoint>
            <Time>2020-12-05T08:42:17.000Z</Time>
            <Position>
              <LatitudeDegrees>36.798284947872161865234375</LatitudeDegrees>
              <LongitudeDegrees>-4.3805609643459320068359375</LongitudeDegrees>
            </Position>
            <AltitudeMeters>756.4000244140625</AltitudeMeters>
            <DistanceMeters>474.37079938231</DistanceMeters>
          </Trackpoint>
          <Trackpoint>
            <Time>2020-12-05T08:42:18.000Z</Time>
            <Position>
              <LatitudeDegrees>36.79829609580338001251220703125</LatitudeDegrees>
              <LongitudeDegrees>-4.3805520795285701751708984375</LongitudeDegrees>
            </Position>
            <AltitudeMeters>756.4000244140625</AltitudeMeters>
            <DistanceMeters>475.83987673565</DistanceMeters>
          </Trackpoint>
          <Trackpoint>
            <Time>2020-12-05T08:42:19.000Z</Time>
            <Position>
              <LatitudeDegrees>36.7983048968017101287841796875</LatitudeDegrees>
              <LongitudeDegrees>-4.3805470503866672515869140625</LongitudeDegrees>
            </Position>
            <AltitudeMeters>756.4000244140625</AltitudeMeters>
            <DistanceMeters>476.91498128165</DistanceMeters>
          </Trackpoint>
          <Trackpoint>
            <Time>2020-12-05T08:42:20.000Z</Time>
            <Position>
              <LatitudeDegrees>36.79831269197165966033935546875</LatitudeDegrees>
              <LongitudeDegrees>-4.380543529987335205078125</LongitudeDegrees>
            </Position>
            <AltitudeMeters>756.20001220703125</AltitudeMeters>
            <DistanceMeters>477.83629945999</DistanceMeters>
          </Trackpoint>
          <Trackpoint>
            <Time>2020-12-05T08:42:21.000Z</Time>
            <Position>
              <LatitudeDegrees>36.7983179725706577301025390625</LatitudeDegrees>
              <LongitudeDegrees>-4.38054461963474750518798828125</LongitudeDegrees>
            </Position>
            <AltitudeMeters>756</AltitudeMeters>
            <DistanceMeters>478.43730117193</DistanceMeters>
          </Trackpoint>
          <Trackpoint>
            <Time>2020-12-05T08:42:22.000Z</Time>
            <Position>
              <LatitudeDegrees>36.79832375608384609222412109375</LatitudeDegrees>
              <LongitudeDegrees>-4.38054411672055721282958984375</LongitudeDegrees>
            </Position>
            <AltitudeMeters>755.79998779296875</AltitudeMeters>
            <DistanceMeters>479.07475975096</DistanceMeters>
          </Trackpoint>
          <Trackpoint>
            <Time>2020-12-05T08:42:23.000Z</Time>
            <Position>
              <LatitudeDegrees>36.79833347909152507781982421875</LatitudeDegrees>
              <LongitudeDegrees>-4.380537159740924835205078125</LongitudeDegrees>
            </Position>
            <AltitudeMeters>755.5999755859375</AltitudeMeters>
            <DistanceMeters>480.31739528559</DistanceMeters>
          </Trackpoint>
          <Trackpoint>
            <Time>2020-12-05T08:42:24.000Z</Time>
            <Position>
              <LatitudeDegrees>36.79834370501339435577392578125</LatitudeDegrees>
              <LongitudeDegrees>-4.380527772009372711181640625</LongitudeDegrees>
            </Position>
            <AltitudeMeters>755.5999755859375</AltitudeMeters>
            <DistanceMeters>481.73326144118</DistanceMeters>
          </Trackpoint>
          <Trackpoint>
            <Time>2020-12-05T08:42:25.000Z</Time>
            <Position>
              <LatitudeDegrees>36.798353679478168487548828125</LatitudeDegrees>
              <LongitudeDegrees>-4.3805182166397571563720703125</LongitudeDegrees>
            </Position>
            <AltitudeMeters>755.79998779296875</AltitudeMeters>
            <DistanceMeters>483.12986321402</DistanceMeters>
          </Trackpoint>
          <Trackpoint>
            <Time>2020-12-05T08:42:26.000Z</Time>
            <Position>
              <LatitudeDegrees>36.7983635701239109039306640625</LatitudeDegrees>
              <LongitudeDegrees>-4.3805084936320781707763671875</LongitudeDegrees>
            </Position>
            <AltitudeMeters>756</AltitudeMeters>
            <DistanceMeters>484.53291583769</DistanceMeters>
          </Trackpoint>
          <Trackpoint>
            <Time>2020-12-05T08:42:27.000Z</Time>
            <Position>
              <LatitudeDegrees>36.7983734607696533203125</LatitudeDegrees>
              <LongitudeDegrees>-4.38050120137631893157958984375</LongitudeDegrees>
            </Position>
            <AltitudeMeters>756.20001220703125</AltitudeMeters>
            <DistanceMeters>485.81489630275</DistanceMeters>
          </Trackpoint>
          <Trackpoint>
            <Time>2020-12-05T08:42:28.000Z</Time>
            <Position>
              <LatitudeDegrees>36.798383183777332305908203125</LatitudeDegrees>
              <LongitudeDegrees>-4.38049751333892345428466796875</LongitudeDegrees>
            </Position>
            <AltitudeMeters>756.5999755859375</AltitudeMeters>
            <DistanceMeters>486.94727029355</DistanceMeters>
          </Trackpoint>
          <Trackpoint>
            <Time>2020-12-05T08:42:29.000Z</Time>
            <Position>
              <LatitudeDegrees>36.79839248768985271453857421875</LatitudeDegrees>
              <LongitudeDegrees>-4.38049265183508396148681640625</LongitudeDegrees>
            </Position>
            <AltitudeMeters>756.79998779296875</AltitudeMeters>
            <DistanceMeters>488.07164154103</DistanceMeters>
          </Trackpoint>
          <Trackpoint>
            <Time>2020-12-05T08:42:30.000Z</Time>
            <Position>
              <LatitudeDegrees>36.79840363562107086181640625</LatitudeDegrees>
              <LongitudeDegrees>-4.38049097545444965362548828125</LongitudeDegrees>
            </Position>
            <AltitudeMeters>757</AltitudeMeters>
            <DistanceMeters>489.32152282531</DistanceMeters>
          </Trackpoint>
          <Trackpoint>
            <Time>2020-12-05T08:42:31.000Z</Time>
            <Position>
              <LatitudeDegrees>36.79841545410454273223876953125</LatitudeDegrees>
              <LongitudeDegrees>-4.38049265183508396148681640625</LongitudeDegrees>
            </Position>
            <AltitudeMeters>757</AltitudeMeters>
            <DistanceMeters>490.64509179976</DistanceMeters>
          </Trackpoint>
          <Trackpoint>
            <Time>2020-12-05T08:42:32.000Z</Time>
            <Position>
              <LatitudeDegrees>36.7984284460544586181640625</LatitudeDegrees>
              <LongitudeDegrees>-4.38049457967281341552734375</LongitudeDegrees>
            </Position>
            <AltitudeMeters>757.20001220703125</AltitudeMeters>
            <DistanceMeters>492.10182374639</DistanceMeters>
          </Trackpoint>
          <Trackpoint>
            <Time>2020-12-05T08:42:33.000Z</Time>
            <Position>
              <LatitudeDegrees>36.79843925870954990386962890625</LatitudeDegrees>
              <LongitudeDegrees>-4.380495250225067138671875</LongitudeDegrees>
            </Position>
            <AltitudeMeters>757.20001220703125</AltitudeMeters>
            <DistanceMeters>493.30757758009</DistanceMeters>
          </Trackpoint>
          <Trackpoint>
            <Time>2020-12-05T08:42:34.000Z</Time>
            <Position>
              <LatitudeDegrees>36.79845149628818035125732421875</LatitudeDegrees>
              <LongitudeDegrees>-4.3804981000721454620361328125</LongitudeDegrees>
            </Position>
            <AltitudeMeters>757.20001220703125</AltitudeMeters>
            <DistanceMeters>494.69118742615</DistanceMeters>
          </Trackpoint>
          <Trackpoint>
            <Time>2020-12-05T08:42:35.000Z</Time>
            <Position>
              <LatitudeDegrees>36.7984633147716522216796875</LatitudeDegrees>
              <LongitudeDegrees>-4.38050329685211181640625</LongitudeDegrees>
            </Position>
            <AltitudeMeters>757.20001220703125</AltitudeMeters>
            <DistanceMeters>496.08778919899</DistanceMeters>
          </Trackpoint>
          <Trackpoint>
            <Time>2020-12-05T08:42:36.000Z</Time>
            <Position>
              <LatitudeDegrees>36.79847463034093379974365234375</LatitudeDegrees>
              <LongitudeDegrees>-4.38050874508917331695556640625</LongitudeDegrees>
            </Position>
            <AltitudeMeters>757.4000244140625</AltitudeMeters>
            <DistanceMeters>497.43837256986</DistanceMeters>
          </Trackpoint>
          <Trackpoint>
            <Time>2020-12-05T08:42:37.000Z</Time>
            <Position>
              <LatitudeDegrees>36.79848619736731052398681640625</LatitudeDegrees>
              <LongitudeDegrees>-4.38051578588783740997314453125</LongitudeDegrees>
            </Position>
            <AltitudeMeters>757.4000244140625</AltitudeMeters>
            <DistanceMeters>498.8732444907</DistanceMeters>
          </Trackpoint>
          <Trackpoint>
            <Time>2020-12-05T08:42:38.000Z</Time>
            <Position>
              <LatitudeDegrees>36.798499189317226409912109375</LatitudeDegrees>
              <LongitudeDegrees>-4.38052701763808727264404296875</LongitudeDegrees>
            </Position>
            <AltitudeMeters>757.4000244140625</AltitudeMeters>
            <DistanceMeters>500.6357274826</DistanceMeters>
          </Trackpoint>
          <Trackpoint>
            <Time>2020-12-05T08:42:39.000Z</Time>
            <Position>
              <LatitudeDegrees>36.79850748740136623382568359375</LatitudeDegrees>
              <LongitudeDegrees>-4.380544535815715789794921875</LongitudeDegrees>
            </Position>
            <AltitudeMeters>757.4000244140625</AltitudeMeters>
            <DistanceMeters>502.44872164298</DistanceMeters>
          </Trackpoint>
          <Trackpoint>
            <Time>2020-12-05T08:42:40.000Z</Time>
            <Position>
              <LatitudeDegrees>36.79851762950420379638671875</LatitudeDegrees>
              <LongitudeDegrees>-4.38055702485144138336181640625</LongitudeDegrees>
            </Position>
            <AltitudeMeters>757.20001220703125</AltitudeMeters>
            <DistanceMeters>504.0331336006</DistanceMeters>
          </Trackpoint>
          <Trackpoint>
            <Time>2020-12-05T08:42:41.000Z</Time>
            <Position>
              <LatitudeDegrees>36.79852995090186595916748046875</LatitudeDegrees>
              <LongitudeDegrees>-4.3805688433349132537841796875</LongitudeDegrees>
            </Position>
            <AltitudeMeters>757.20001220703125</AltitudeMeters>
            <DistanceMeters>505.75937959306</DistanceMeters>
          </Trackpoint>
          <Trackpoint>
            <Time>2020-12-05T08:42:42.000Z</Time>
            <Position>
              <LatitudeDegrees>36.79854554124176502227783203125</LatitudeDegrees>
              <LongitudeDegrees>-4.3805789016187191009521484375</LongitudeDegrees>
            </Position>
            <AltitudeMeters>757.20001220703125</AltitudeMeters>
            <DistanceMeters>507.71147904221</DistanceMeters>
          </Trackpoint>
          <Trackpoint>
            <Time>2020-12-05T08:42:43.000Z</Time>
            <Position>
              <LatitudeDegrees>36.79856079630553722381591796875</LatitudeDegrees>
              <LongitudeDegrees>-4.38058485276997089385986328125</LongitudeDegrees>
            </Position>
            <AltitudeMeters>757.4000244140625</AltitudeMeters>
            <DistanceMeters>509.48926608102</DistanceMeters>
          </Trackpoint>
          <Trackpoint>
            <Time>2020-12-05T08:42:44.000Z</Time>
            <Position>
              <LatitudeDegrees>36.79857672192156314849853515625</LatitudeDegrees>
              <LongitudeDegrees>-4.380592815577983856201171875</LongitudeDegrees>
            </Position>
            <AltitudeMeters>757.5999755859375</AltitudeMeters>
            <DistanceMeters>511.39927940123</DistanceMeters>
          </Trackpoint>
          <Trackpoint>
            <Time>2020-12-05T08:42:45.000Z</Time>
            <Position>
              <LatitudeDegrees>36.7985939048230648040771484375</LatitudeDegrees>
              <LongitudeDegrees>-4.38060480169951915740966796875</LongitudeDegrees>
            </Position>
            <AltitudeMeters>758</AltitudeMeters>
            <DistanceMeters>513.58695865452</DistanceMeters>
          </Trackpoint>
          <Trackpoint>
            <Time>2020-12-05T08:42:46.000Z</Time>
            <Position>
              <LatitudeDegrees>36.798597760498523712158203125</LatitudeDegrees>
              <LongitudeDegrees>-4.3806092441082000732421875</LongitudeDegrees>
            </Position>
            <AltitudeMeters>758.79998779296875</AltitudeMeters>
            <DistanceMeters>514.17274266324</DistanceMeters>
          </Trackpoint>
          <Trackpoint>
            <Time>2020-12-05T08:42:47.000Z</Time>
            <Position>
              <LatitudeDegrees>36.79860337637364864349365234375</LatitudeDegrees>
              <LongitudeDegrees>-4.38060882501304149627685546875</LongitudeDegrees>
            </Position>
            <AltitudeMeters>759.20001220703125</AltitudeMeters>
            <DistanceMeters>514.80307857649</DistanceMeters>
          </Trackpoint>
          <Trackpoint>
            <Time>2020-12-05T08:42:48.000Z</Time>
            <Position>
              <LatitudeDegrees>36.798612512648105621337890625</LatitudeDegrees>
              <LongitudeDegrees>-4.38060848973691463470458984375</LongitudeDegrees>
            </Position>
            <AltitudeMeters>759.4000244140625</AltitudeMeters>
            <DistanceMeters>515.81768624185</DistanceMeters>
          </Trackpoint>
          <Trackpoint>
            <Time>2020-12-05T08:42:49.000Z</Time>
            <Position>
              <LatitudeDegrees>36.7986230738461017608642578125</LatitudeDegrees>
              <LongitudeDegrees>-4.380611591041088104248046875</LongitudeDegrees>
            </Position>
            <AltitudeMeters>759.4000244140625</AltitudeMeters>
            <DistanceMeters>517.0271788561</DistanceMeters>
          </Trackpoint>
          <Trackpoint>
            <Time>2020-12-05T08:42:50.000Z</Time>
            <Position>
              <LatitudeDegrees>36.79863673634827136993408203125</LatitudeDegrees>
              <LongitudeDegrees>-4.3806161172688007354736328125</LongitudeDegrees>
            </Position>
            <AltitudeMeters>759.4000244140625</AltitudeMeters>
            <DistanceMeters>518.60015086654</DistanceMeters>
          </Trackpoint>
          <Trackpoint>
            <Time>2020-12-05T08:42:51.000Z</Time>
            <Position>
              <LatitudeDegrees>36.79865173995494842529296875</LatitudeDegrees>
              <LongitudeDegrees>-4.38062039203941822052001953125</LongitudeDegrees>
            </Position>
            <AltitudeMeters>759.5999755859375</AltitudeMeters>
            <DistanceMeters>520.31326932254</DistanceMeters>
          </Trackpoint>
          <Trackpoint>
            <Time>2020-12-05T08:42:52.000Z</Time>
            <Position>
              <LatitudeDegrees>36.79866691119968891143798828125</LatitudeDegrees>
              <LongitudeDegrees>-4.38062642700970172882080078125</LongitudeDegrees>
            </Position>
            <AltitudeMeters>759.5999755859375</AltitudeMeters>
            <DistanceMeters>522.08596969274</DistanceMeters>
          </Trackpoint>
          <Trackpoint>
            <Time>2020-12-05T08:42:53.000Z</Time>
            <Position>
              <LatitudeDegrees>36.79868233390152454376220703125</LatitudeDegrees>
              <LongitudeDegrees>-4.38063330017030239105224609375</LongitudeDegrees>
            </Position>
            <AltitudeMeters>759.5999755859375</AltitudeMeters>
            <DistanceMeters>523.90889814207</DistanceMeters>
          </Trackpoint>
          <Trackpoint>
            <Time>2020-12-05T08:42:54.000Z</Time>
            <Position>
              <LatitudeDegrees>36.798696331679821014404296875</LatitudeDegrees>
              <LongitudeDegrees>-4.3806414306163787841796875</LongitudeDegrees>
            </Position>
            <AltitudeMeters>759.5999755859375</AltitudeMeters>
            <DistanceMeters>525.62465014068</DistanceMeters>
          </Trackpoint>
          <Trackpoint>
            <Time>2020-12-05T08:42:55.000Z</Time>
            <Position>
              <LatitudeDegrees>36.79871074855327606201171875</LatitudeDegrees>
              <LongitudeDegrees>-4.38064956106245517730712890625</LongitudeDegrees>
            </Position>
            <AltitudeMeters>759.5999755859375</AltitudeMeters>
            <DistanceMeters>527.38713313257</DistanceMeters>
          </Trackpoint>
          <Trackpoint>
            <Time>2020-12-05T08:42:56.000Z</Time>
            <Position>
              <LatitudeDegrees>36.7987256683409214019775390625</LatitudeDegrees>
              <LongitudeDegrees>-4.3806553445756435394287109375</LongitudeDegrees>
            </Position>
            <AltitudeMeters>759.5999755859375</AltitudeMeters>
            <DistanceMeters>529.12380970934</DistanceMeters>
          </Trackpoint>
          <Trackpoint>
            <Time>2020-12-05T08:42:57.000Z</Time>
            <Position>
              <LatitudeDegrees>36.79874067194759845733642578125</LatitudeDegrees>
              <LongitudeDegrees>-4.3806576915085315704345703125</LongitudeDegrees>
            </Position>
            <AltitudeMeters>759.79998779296875</AltitudeMeters>
            <DistanceMeters>530.80500390602</DistanceMeters>
          </Trackpoint>
          <Trackpoint>
            <Time>2020-12-05T08:42:58.000Z</Time>
            <Position>
              <LatitudeDegrees>36.79875324480235576629638671875</LatitudeDegrees>
              <LongitudeDegrees>-4.380658529698848724365234375</LongitudeDegrees>
            </Position>
            <AltitudeMeters>759.79998779296875</AltitudeMeters>
            <DistanceMeters>532.20805652969</DistanceMeters>
          </Trackpoint>
          <Trackpoint>
            <Time>2020-12-05T08:42:59.000Z</Time>
            <Position>
              <LatitudeDegrees>36.79876615293323993682861328125</LatitudeDegrees>
              <LongitudeDegrees>-4.38066087663173675537109375</LongitudeDegrees>
            </Position>
            <AltitudeMeters>759.79998779296875</AltitudeMeters>
            <DistanceMeters>533.66168574234</DistanceMeters>
          </Trackpoint>
          <Trackpoint>
            <Time>2020-12-05T08:43:00.000Z</Time>
            <Position>
              <LatitudeDegrees>36.79877755232155323028564453125</LatitudeDegrees>
              <LongitudeDegrees>-4.38066397793591022491455078125</LongitudeDegrees>
            </Position>
            <AltitudeMeters>760</AltitudeMeters>
            <DistanceMeters>534.95767733899</DistanceMeters>
          </Trackpoint>
          <Trackpoint>
            <Time>2020-12-05T08:43:01.000Z</Time>
            <Position>
              <LatitudeDegrees>36.79878719151020050048828125</LatitudeDegrees>
              <LongitudeDegrees>-4.3806677497923374176025390625</LongitudeDegrees>
            </Position>
            <AltitudeMeters>760</AltitudeMeters>
            <DistanceMeters>536.08204858647</DistanceMeters>
          </Trackpoint>
          <Trackpoint>
            <Time>2020-12-05T08:43:02.000Z</Time>
            <Position>
              <LatitudeDegrees>36.7987967468798160552978515625</LatitudeDegrees>
              <LongitudeDegrees>-4.38067219220101833343505859375</LongitudeDegrees>
            </Position>
            <AltitudeMeters>760</AltitudeMeters>
            <DistanceMeters>537.21442257727</DistanceMeters>
          </Trackpoint>
          <Trackpoint>
            <Time>2020-12-05T08:43:03.000Z</Time>
            <Position>
              <LatitudeDegrees>36.79880588315427303314208984375</LatitudeDegrees>
              <LongitudeDegrees>-4.380679987370967864990234375</LongitudeDegrees>
            </Position>
            <AltitudeMeters>760</AltitudeMeters>
            <DistanceMeters>538.44610956777</DistanceMeters>
          </Trackpoint>
          <Trackpoint>
            <Time>2020-12-05T08:43:04.000Z</Time>
            <Position>
              <LatitudeDegrees>36.7988173663616180419921875</LatitudeDegrees>
              <LongitudeDegrees>-4.380687363445758819580078125</LongitudeDegrees>
            </Position>
            <AltitudeMeters>760</AltitudeMeters>
            <DistanceMeters>539.88098148862</DistanceMeters>
          </Trackpoint>
          <Trackpoint>
            <Time>2020-12-05T08:43:05.000Z</Time>
            <Position>
              <LatitudeDegrees>36.798827759921550750732421875</LatitudeDegrees>
              <LongitudeDegrees>-4.38069616444408893585205078125</LongitudeDegrees>
            </Position>
            <AltitudeMeters>760.20001220703125</AltitudeMeters>
            <DistanceMeters>541.27758326145</DistanceMeters>
          </Trackpoint>
          <Trackpoint>
            <Time>2020-12-05T08:43:06.000Z</Time>
            <Position>
              <LatitudeDegrees>36.7988389916718006134033203125</LatitudeDegrees>
              <LongitudeDegrees>-4.38070270232856273651123046875</LongitudeDegrees>
            </Position>
            <AltitudeMeters>760.20001220703125</AltitudeMeters>
            <DistanceMeters>542.65792601949</DistanceMeters>
          </Trackpoint>
          <Trackpoint>
            <Time>2020-12-05T08:43:07.000Z</Time>
            <Position>
              <LatitudeDegrees>36.7988490499556064605712890625</LatitudeDegrees>
              <LongitudeDegrees>-4.380708821117877960205078125</LongitudeDegrees>
            </Position>
            <AltitudeMeters>760.4000244140625</AltitudeMeters>
            <DistanceMeters>543.90418969479</DistanceMeters>
          </Trackpoint>
          <Trackpoint>
            <Time>2020-12-05T08:43:08.000Z</Time>
            <Position>
              <LatitudeDegrees>36.79886137135326862335205078125</LatitudeDegrees>
              <LongitudeDegrees>-4.3807136826217174530029296875</LongitudeDegrees>
            </Position>
            <AltitudeMeters>760.5999755859375</AltitudeMeters>
            <DistanceMeters>545.34220482185</DistanceMeters>
          </Trackpoint>
          <Trackpoint>
            <Time>2020-12-05T08:43:09.000Z</Time>
            <Position>
              <LatitudeDegrees>36.79887595586478710174560546875</LatitudeDegrees>
              <LongitudeDegrees>-4.38071410171687602996826171875</LongitudeDegrees>
            </Position>
            <AltitudeMeters>760.79998779296875</AltitudeMeters>
            <DistanceMeters>546.96602202882</DistanceMeters>
          </Trackpoint>
          <Trackpoint>
            <Time>2020-12-05T08:43:10.000Z</Time>
            <Position>
              <LatitudeDegrees>36.79889003746211528778076171875</LatitudeDegrees>
              <LongitudeDegrees>-4.3807163648307323455810546875</LongitudeDegrees>
            </Position>
            <AltitudeMeters>760.79998779296875</AltitudeMeters>
            <DistanceMeters>548.54472437522</DistanceMeters>
          </Trackpoint>
          <Trackpoint>
            <Time>2020-12-05T08:43:11.000Z</Time>
            <Position>
              <LatitudeDegrees>36.7989036999642848968505859375</LatitudeDegrees>
              <LongitudeDegrees>-4.3807203881442546844482421875</LongitudeDegrees>
            </Position>
            <AltitudeMeters>761</AltitudeMeters>
            <DistanceMeters>550.106172626</DistanceMeters>
          </Trackpoint>
          <Trackpoint>
            <Time>2020-12-05T08:43:12.000Z</Time>
            <Position>
              <LatitudeDegrees>36.7989171110093593597412109375</LatitudeDegrees>
              <LongitudeDegrees>-4.38071946613490581512451171875</LongitudeDegrees>
            </Position>
            <AltitudeMeters>761</AltitudeMeters>
            <DistanceMeters>551.60265482038</DistanceMeters>
          </Trackpoint>
          <Trackpoint>
            <Time>2020-12-05T08:43:13.000Z</Time>
            <Position>
              <LatitudeDegrees>36.7989288456737995147705078125</LatitudeDegrees>
              <LongitudeDegrees>-4.380719549953937530517578125</LongitudeDegrees>
            </Position>
            <AltitudeMeters>761</AltitudeMeters>
            <DistanceMeters>552.90559548345</DistanceMeters>
          </Trackpoint>
          <Trackpoint>
            <Time>2020-12-05T08:43:14.000Z</Time>
            <Position>
              <LatitudeDegrees>36.7989429272711277008056640625</LatitudeDegrees>
              <LongitudeDegrees>-4.38071787357330322265625</LongitudeDegrees>
            </Position>
            <AltitudeMeters>761.20001220703125</AltitudeMeters>
            <DistanceMeters>554.47856749389</DistanceMeters>
          </Trackpoint>
          <Trackpoint>
            <Time>2020-12-05T08:43:15.000Z</Time>
            <Position>
              <LatitudeDegrees>36.7989566735923290252685546875</LatitudeDegrees>
              <LongitudeDegrees>-4.380716867744922637939453125</LongitudeDegrees>
            </Position>
            <AltitudeMeters>761.20001220703125</AltitudeMeters>
            <DistanceMeters>556.01082722234</DistanceMeters>
          </Trackpoint>
          <Trackpoint>
            <Time>2020-12-05T08:43:16.000Z</Time>
            <Position>
              <LatitudeDegrees>36.79897033609449863433837890625</LatitudeDegrees>
              <LongitudeDegrees>-4.380716867744922637939453125</LongitudeDegrees>
            </Position>
            <AltitudeMeters>761.20001220703125</AltitudeMeters>
            <DistanceMeters>557.53125465226</DistanceMeters>
          </Trackpoint>
          <Trackpoint>
            <Time>2020-12-05T08:43:17.000Z</Time>
            <Position>
              <LatitudeDegrees>36.79898274131119251251220703125</LatitudeDegrees>
              <LongitudeDegrees>-4.3807177059352397918701171875</LongitudeDegrees>
            </Position>
            <AltitudeMeters>761.4000244140625</AltitudeMeters>
            <DistanceMeters>558.91486449832</DistanceMeters>
          </Trackpoint>
          <Trackpoint>
            <Time>2020-12-05T08:43:18.000Z</Time>
            <Position>
              <LatitudeDegrees>36.798994727432727813720703125</LatitudeDegrees>
              <LongitudeDegrees>-4.3807197175920009613037109375</LongitudeDegrees>
            </Position>
            <AltitudeMeters>761.4000244140625</AltitudeMeters>
            <DistanceMeters>560.26210069336</DistanceMeters>
          </Trackpoint>
          <Trackpoint>
            <Time>2020-12-05T08:43:19.000Z</Time>
            <Position>
              <LatitudeDegrees>36.79900604300200939178466796875</LatitudeDegrees>
              <LongitudeDegrees>-4.38072499819099903106689453125</LongitudeDegrees>
            </Position>
            <AltitudeMeters>761.4000244140625</AltitudeMeters>
            <DistanceMeters>561.60598137586</DistanceMeters>
          </Trackpoint>
          <Trackpoint>
            <Time>2020-12-05T08:43:20.000Z</Time>
            <Position>
              <LatitudeDegrees>36.7990180291235446929931640625</LatitudeDegrees>
              <LongitudeDegrees>-4.38073120079934597015380859375</LongitudeDegrees>
            </Position>
            <AltitudeMeters>761.4000244140625</AltitudeMeters>
            <DistanceMeters>563.05338516714</DistanceMeters>
          </Trackpoint>
          <Trackpoint>
            <Time>2020-12-05T08:43:21.000Z</Time>
            <Position>
              <LatitudeDegrees>36.7990297637879848480224609375</LatitudeDegrees>
              <LongitudeDegrees>-4.38073723576962947845458984375</LongitudeDegrees>
            </Position>
            <AltitudeMeters>761.4000244140625</AltitudeMeters>
            <DistanceMeters>564.46925132273</DistanceMeters>
          </Trackpoint>
          <Trackpoint>
            <Time>2020-12-05T08:43:22.000Z</Time>
            <Position>
              <LatitudeDegrees>36.79903789423406124114990234375</LatitudeDegrees>
              <LongitudeDegrees>-4.38074360601603984832763671875</LongitudeDegrees>
            </Position>
            <AltitudeMeters>761.4000244140625</AltitudeMeters>
            <DistanceMeters>565.540148007</DistanceMeters>
          </Trackpoint>
          <Trackpoint>
            <Time>2020-12-05T08:43:23.000Z</Time>
            <Position>
              <LatitudeDegrees>36.79904493503272533416748046875</LatitudeDegrees>
              <LongitudeDegrees>-4.38075207173824310302734375</LongitudeDegrees>
            </Position>
            <AltitudeMeters>761.5999755859375</AltitudeMeters>
            <DistanceMeters>566.62777846546</DistanceMeters>
          </Trackpoint>
          <Trackpoint>
            <Time>2020-12-05T08:43:24.000Z</Time>
            <Position>
              <LatitudeDegrees>36.79905231110751628875732421875</LatitudeDegrees>
              <LongitudeDegrees>-4.38076137565076351165771484375</LongitudeDegrees>
            </Position>
            <AltitudeMeters>761.5999755859375</AltitudeMeters>
            <DistanceMeters>567.79548628124</DistanceMeters>
          </Trackpoint>
          <Trackpoint>
            <Time>2020-12-05T08:43:25.000Z</Time>
            <Position>
              <LatitudeDegrees>36.7990599386394023895263671875</LatitudeDegrees>
              <LongitudeDegrees>-4.380769170820713043212890625</LongitudeDegrees>
            </Position>
            <AltitudeMeters>761.4000244140625</AltitudeMeters>
            <DistanceMeters>568.89550002819</DistanceMeters>
          </Trackpoint>
          <Trackpoint>
            <Time>2020-12-05T08:43:26.000Z</Time>
            <Position>
              <LatitudeDegrees>36.799068488180637359619140625</LatitudeDegrees>
              <LongitudeDegrees>-4.38077428378164768218994140625</LongitudeDegrees>
            </Position>
            <AltitudeMeters>761.4000244140625</AltitudeMeters>
            <DistanceMeters>569.95367273577</DistanceMeters>
          </Trackpoint>
          <Trackpoint>
            <Time>2020-12-05T08:43:27.000Z</Time>
            <Position>
              <LatitudeDegrees>36.79907896555960178375244140625</LatitudeDegrees>
              <LongitudeDegrees>-4.3807817436754703521728515625</LongitudeDegrees>
            </Position>
            <AltitudeMeters>761.4000244140625</AltitudeMeters>
            <DistanceMeters>571.29755341826</DistanceMeters>
          </Trackpoint>
          <Trackpoint>
            <Time>2020-12-05T08:43:28.000Z</Time>
            <Position>
              <LatitudeDegrees>36.799090616405010223388671875</LatitudeDegrees>
              <LongitudeDegrees>-4.380790628492832183837890625</LongitudeDegrees>
            </Position>
            <AltitudeMeters>761.20001220703125</AltitudeMeters>
            <DistanceMeters>572.81798084818</DistanceMeters>
          </Trackpoint>
          <Trackpoint>
            <Time>2020-12-05T08:43:29.000Z</Time>
            <Position>
              <LatitudeDegrees>36.79910293780267238616943359375</LatitudeDegrees>
              <LongitudeDegrees>-4.380802027881145477294921875</LongitudeDegrees>
            </Position>
            <AltitudeMeters>761.20001220703125</AltitudeMeters>
            <DistanceMeters>574.52317427268</DistanceMeters>
          </Trackpoint>
          <Trackpoint>
            <Time>2020-12-05T08:43:30.000Z</Time>
            <Position>
              <LatitudeDegrees>36.79911249317228794097900390625</LatitudeDegrees>
              <LongitudeDegrees>-4.38081501983106136322021484375</LongitudeDegrees>
            </Position>
            <AltitudeMeters>761.20001220703125</AltitudeMeters>
            <DistanceMeters>576.09614628313</DistanceMeters>
          </Trackpoint>
          <Trackpoint>
            <Time>2020-12-05T08:43:31.000Z</Time>
            <Position>
              <LatitudeDegrees>36.79912087507545948028564453125</LatitudeDegrees>
              <LongitudeDegrees>-4.380828179419040679931640625</LongitudeDegrees>
            </Position>
            <AltitudeMeters>761.20001220703125</AltitudeMeters>
            <DistanceMeters>577.59262847751</DistanceMeters>
          </Trackpoint>
          <Trackpoint>
            <Time>2020-12-05T08:43:32.000Z</Time>
            <Position>
              <LatitudeDegrees>36.7991258203983306884765625</LatitudeDegrees>
              <LongitudeDegrees>-4.380841590464115142822265625</LongitudeDegrees>
            </Position>
            <AltitudeMeters>761.20001220703125</AltitudeMeters>
            <DistanceMeters>578.90935725643</DistanceMeters>
          </Trackpoint>
          <Trackpoint>
            <Time>2020-12-05T08:43:33.000Z</Time>
            <Position>
              <LatitudeDegrees>36.79912875406444072723388671875</LatitudeDegrees>
              <LongitudeDegrees>-4.380856342613697052001953125</LongitudeDegrees>
            </Position>
            <AltitudeMeters>761.20001220703125</AltitudeMeters>
            <DistanceMeters>580.26661021538</DistanceMeters>
          </Trackpoint>
          <Trackpoint>
            <Time>2020-12-05T08:43:34.000Z</Time>
            <Position>
              <LatitudeDegrees>36.79913311265408992767333984375</LatitudeDegrees>
              <LongitudeDegrees>-4.38086983747780323028564453125</LongitudeDegrees>
            </Position>
            <AltitudeMeters>761.20001220703125</AltitudeMeters>
            <DistanceMeters>581.55911326842</DistanceMeters>
          </Trackpoint>
          <Trackpoint>
            <Time>2020-12-05T08:43:35.000Z</Time>
            <Position>
              <LatitudeDegrees>36.79913780651986598968505859375</LatitudeDegrees>
              <LongitudeDegrees>-4.3808813206851482391357421875</LongitudeDegrees>
            </Position>
            <AltitudeMeters>761.20001220703125</AltitudeMeters>
            <DistanceMeters>582.70732542687</DistanceMeters>
          </Trackpoint>
          <Trackpoint>
            <Time>2020-12-05T08:43:36.000Z</Time>
            <Position>
              <LatitudeDegrees>36.79914392530918121337890625</LatitudeDegrees>
              <LongitudeDegrees>-4.3808940611779689788818359375</LongitudeDegrees>
            </Position>
            <AltitudeMeters>761</AltitudeMeters>
            <DistanceMeters>584.03430127691</DistanceMeters>
          </Trackpoint>
          <Trackpoint>
            <Time>2020-12-05T08:43:37.000Z</Time>
            <Position>
              <LatitudeDegrees>36.79915172047913074493408203125</LatitudeDegrees>
              <LongitudeDegrees>-4.38090755604207515716552734375</LongitudeDegrees>
            </Position>
            <AltitudeMeters>761</AltitudeMeters>
            <DistanceMeters>585.51866600713</DistanceMeters>
          </Trackpoint>
          <Trackpoint>
            <Time>2020-12-05T08:43:38.000Z</Time>
            <Position>
              <LatitudeDegrees>36.79915993474423885345458984375</LatitudeDegrees>
              <LongitudeDegrees>-4.38091996125876903533935546875</LongitudeDegrees>
            </Position>
            <AltitudeMeters>760.79998779296875</AltitudeMeters>
            <DistanceMeters>586.95038782116</DistanceMeters>
          </Trackpoint>
          <Trackpoint>
            <Time>2020-12-05T08:43:39.000Z</Time>
            <Position>
              <LatitudeDegrees>36.79916814900934696197509765625</LatitudeDegrees>
              <LongitudeDegrees>-4.3809282593429088592529296875</LongitudeDegrees>
            </Position>
            <AltitudeMeters>760.79998779296875</AltitudeMeters>
            <DistanceMeters>588.1219558386</DistanceMeters>
          </Trackpoint>
          <Trackpoint>
            <Time>2020-12-05T08:43:40.000Z</Time>
            <Position>
              <LatitudeDegrees>36.79917334578931331634521484375</LatitudeDegrees>
              <LongitudeDegrees>-4.380938820540904998779296875</LongitudeDegrees>
            </Position>
            <AltitudeMeters>760.79998779296875</AltitudeMeters>
            <DistanceMeters>589.23014823903</DistanceMeters>
          </Trackpoint>
          <Trackpoint>
            <Time>2020-12-05T08:43:41.000Z</Time>
            <Position>
              <LatitudeDegrees>36.799177788197994232177734375</LatitudeDegrees>
              <LongitudeDegrees>-4.3809557519853115081787109375</LongitudeDegrees>
            </Position>
            <AltitudeMeters>760.5999755859375</AltitudeMeters>
            <DistanceMeters>590.82024930635</DistanceMeters>
          </Trackpoint>
          <Trackpoint>
            <Time>2020-12-05T08:43:42.000Z</Time>
            <Position>
              <LatitudeDegrees>36.79918189533054828643798828125</LatitudeDegrees>
              <LongitudeDegrees>-4.380971007049083709716796875</LongitudeDegrees>
            </Position>
            <AltitudeMeters>760.79998779296875</AltitudeMeters>
            <DistanceMeters>592.2551212272</DistanceMeters>
          </Trackpoint>
          <Trackpoint>
            <Time>2020-12-05T08:43:43.000Z</Time>
            <Position>
              <LatitudeDegrees>36.79918793030083179473876953125</LatitudeDegrees>
              <LongitudeDegrees>-4.38098366372287273406982421875</LongitudeDegrees>
            </Position>
            <AltitudeMeters>760.79998779296875</AltitudeMeters>
            <DistanceMeters>593.56497409082</DistanceMeters>
          </Trackpoint>
          <Trackpoint>
            <Time>2020-12-05T08:43:44.000Z</Time>
            <Position>
              <LatitudeDegrees>36.7991940490901470184326171875</LatitudeDegrees>
              <LongitudeDegrees>-4.38099757768213748931884765625</LongitudeDegrees>
            </Position>
            <AltitudeMeters>761</AltitudeMeters>
            <DistanceMeters>594.98084024642</DistanceMeters>
          </Trackpoint>
          <Trackpoint>
            <Time>2020-12-05T08:43:45.000Z</Time>
            <Position>
              <LatitudeDegrees>36.7991987429559230804443359375</LatitudeDegrees>
              <LongitudeDegrees>-4.38101048581302165985107421875</LongitudeDegrees>
            </Position>
            <AltitudeMeters>761.4000244140625</AltitudeMeters>
            <DistanceMeters>596.24151207292</DistanceMeters>
          </Trackpoint>
          <Trackpoint>
            <Time>2020-12-05T08:43:46.000Z</Time>
            <Position>
              <LatitudeDegrees>36.79920561611652374267578125</LatitudeDegrees>
              <LongitudeDegrees>-4.381024651229381561279296875</LongitudeDegrees>
            </Position>
            <AltitudeMeters>762.20001220703125</AltitudeMeters>
            <DistanceMeters>597.71365960172</DistanceMeters>
          </Trackpoint>
          <Trackpoint>
            <Time>2020-12-05T08:43:47.000Z</Time>
            <Position>
              <LatitudeDegrees>36.7992104776203632354736328125</LatitudeDegrees>
              <LongitudeDegrees>-4.38103772699832916259765625</LongitudeDegrees>
            </Position>
            <AltitudeMeters>763.20001220703125</AltitudeMeters>
            <DistanceMeters>599.00266466986</DistanceMeters>
          </Trackpoint>
          <Trackpoint>
            <Time>2020-12-05T08:43:48.000Z</Time>
            <Position>
              <LatitudeDegrees>36.79921500384807586669921875</LatitudeDegrees>
              <LongitudeDegrees>-4.381050132215023040771484375</LongitudeDegrees>
            </Position>
            <AltitudeMeters>764</AltitudeMeters>
            <DistanceMeters>600.21960038583</DistanceMeters>
          </Trackpoint>
          <Trackpoint>
            <Time>2020-12-05T08:43:49.000Z</Time>
            <Position>
              <LatitudeDegrees>36.7992212064564228057861328125</LatitudeDegrees>
              <LongitudeDegrees>-4.381066225469112396240234375</LongitudeDegrees>
            </Position>
            <AltitudeMeters>764.79998779296875</AltitudeMeters>
            <DistanceMeters>601.81253838863</DistanceMeters>
          </Trackpoint>
          <Trackpoint>
            <Time>2020-12-05T08:43:50.000Z</Time>
            <Position>
              <LatitudeDegrees>36.79922816343605518341064453125</LatitudeDegrees>
              <LongitudeDegrees>-4.38108122907578945159912109375</LongitudeDegrees>
            </Position>
            <AltitudeMeters>765</AltitudeMeters>
            <DistanceMeters>603.35653974264</DistanceMeters>
          </Trackpoint>
          <Trackpoint>
            <Time>2020-12-05T08:43:51.000Z</Time>
            <Position>
              <LatitudeDegrees>36.79923419840633869171142578125</LatitudeDegrees>
              <LongitudeDegrees>-4.38109413720667362213134765625</LongitudeDegrees>
            </Position>
            <AltitudeMeters>765.4000244140625</AltitudeMeters>
            <DistanceMeters>604.68691374382</DistanceMeters>
          </Trackpoint>
          <Trackpoint>
            <Time>2020-12-05T08:43:52.000Z</Time>
            <Position>
              <LatitudeDegrees>36.799240820109844207763671875</LatitudeDegrees>
              <LongitudeDegrees>-4.381107129156589508056640625</LongitudeDegrees>
            </Position>
            <AltitudeMeters>765.5999755859375</AltitudeMeters>
            <DistanceMeters>606.05740850862</DistanceMeters>
          </Trackpoint>
          <Trackpoint>
            <Time>2020-12-05T08:43:53.000Z</Time>
            <Position>
              <LatitudeDegrees>36.79924811236560344696044921875</LatitudeDegrees>
              <LongitudeDegrees>-4.38112095929682254791259765625</LongitudeDegrees>
            </Position>
            <AltitudeMeters>766</AltitudeMeters>
            <DistanceMeters>607.53261982331</DistanceMeters>
          </Trackpoint>
          <Trackpoint>
            <Time>2020-12-05T08:43:54.000Z</Time>
            <Position>
              <LatitudeDegrees>36.7992530576884746551513671875</LatitudeDegrees>
              <LongitudeDegrees>-4.3811322748661041259765625</LongitudeDegrees>
            </Position>
            <AltitudeMeters>766.4000244140625</AltitudeMeters>
            <DistanceMeters>608.68475750487</DistanceMeters>
          </Trackpoint>
          <Trackpoint>
            <Time>2020-12-05T08:43:55.000Z</Time>
            <Position>
              <LatitudeDegrees>36.799256242811679840087890625</LatitudeDegrees>
              <LongitudeDegrees>-4.38114241696894168853759765625</LongitudeDegrees>
            </Position>
            <AltitudeMeters>766.79998779296875</AltitudeMeters>
            <DistanceMeters>609.65384364664</DistanceMeters>
          </Trackpoint>
          <Trackpoint>
            <Time>2020-12-05T08:43:56.000Z</Time>
            <Position>
              <LatitudeDegrees>36.79926085285842418670654296875</LatitudeDegrees>
              <LongitudeDegrees>-4.38115264289081096649169921875</LongitudeDegrees>
            </Position>
            <AltitudeMeters>767</AltitudeMeters>
            <DistanceMeters>610.69913750471</DistanceMeters>
          </Trackpoint>
          <Trackpoint>
            <Time>2020-12-05T08:43:57.000Z</Time>
            <Position>
              <LatitudeDegrees>36.7992661334574222564697265625</LatitudeDegrees>
              <LongitudeDegrees>-4.38116387464106082916259765625</LongitudeDegrees>
            </Position>
            <AltitudeMeters>767.20001220703125</AltitudeMeters>
            <DistanceMeters>611.8551873798</DistanceMeters>
          </Trackpoint>
          <Trackpoint>
            <Time>2020-12-05T08:43:58.000Z</Time>
            <Position>
              <LatitudeDegrees>36.79927057586610317230224609375</LatitudeDegrees>
              <LongitudeDegrees>-4.3811740167438983917236328125</LongitudeDegrees>
            </Position>
            <AltitudeMeters>767.4000244140625</AltitudeMeters>
            <DistanceMeters>612.87865641573</DistanceMeters>
          </Trackpoint>
          <Trackpoint>
            <Time>2020-12-05T08:43:59.000Z</Time>
            <Position>
              <LatitudeDegrees>36.7992758564651012420654296875</LatitudeDegrees>
              <LongitudeDegrees>-4.3811857514083385467529296875</LongitudeDegrees>
            </Position>
            <AltitudeMeters>767.79998779296875</AltitudeMeters>
            <DistanceMeters>614.0731236937</DistanceMeters>
          </Trackpoint>
          <Trackpoint>
            <Time>2020-12-05T08:44:00.000Z</Time>
            <Position>
              <LatitudeDegrees>36.79928013123571872711181640625</LatitudeDegrees>
              <LongitudeDegrees>-4.38119673170149326324462890625</LongitudeDegrees>
            </Position>
            <AltitudeMeters>768</AltitudeMeters>
            <DistanceMeters>615.15659493823</DistanceMeters>
          </Trackpoint>
          <Trackpoint>
            <Time>2020-12-05T08:44:01.000Z</Time>
            <Position>
              <LatitudeDegrees>36.79928381927311420440673828125</LatitudeDegrees>
              <LongitudeDegrees>-4.38120729289948940277099609375</LongitudeDegrees>
            </Position>
            <AltitudeMeters>768</AltitudeMeters>
            <DistanceMeters>616.18006397415</DistanceMeters>
          </Trackpoint>
          <Trackpoint>
            <Time>2020-12-05T08:44:02.000Z</Time>
            <Position>
              <LatitudeDegrees>36.799289770424365997314453125</LatitudeDegrees>
              <LongitudeDegrees>-4.38121601007878780364990234375</LongitudeDegrees>
            </Position>
            <AltitudeMeters>768</AltitudeMeters>
            <DistanceMeters>617.20353301008</DistanceMeters>
          </Trackpoint>
          <Trackpoint>
            <Time>2020-12-05T08:44:03.000Z</Time>
            <Position>
              <LatitudeDegrees>36.79929924197494983673095703125</LatitudeDegrees>
              <LongitudeDegrees>-4.381225816905498504638671875</LongitudeDegrees>
            </Position>
            <AltitudeMeters>768</AltitudeMeters>
            <DistanceMeters>618.57402777488</DistanceMeters>
          </Trackpoint>
          <Trackpoint>
            <Time>2020-12-05T08:44:04.000Z</Time>
            <Position>
              <LatitudeDegrees>36.79930930025875568389892578125</LatitudeDegrees>
              <LongitudeDegrees>-4.3812347017228603363037109375</LongitudeDegrees>
            </Position>
            <AltitudeMeters>767.79998779296875</AltitudeMeters>
            <DistanceMeters>619.94452253968</DistanceMeters>
          </Trackpoint>
          <Trackpoint>
            <Time>2020-12-05T08:44:05.000Z</Time>
            <Position>
              <LatitudeDegrees>36.79931952618062496185302734375</LatitudeDegrees>
              <LongitudeDegrees>-4.38124383799731731414794921875</LongitudeDegrees>
            </Position>
            <AltitudeMeters>767.4000244140625</AltitudeMeters>
            <DistanceMeters>621.34757516334</DistanceMeters>
          </Trackpoint>
          <Trackpoint>
            <Time>2020-12-05T08:44:06.000Z</Time>
            <Position>
              <LatitudeDegrees>36.7993301711976528167724609375</LatitudeDegrees>
              <LongitudeDegrees>-4.38125674612820148468017578125</LongitudeDegrees>
            </Position>
            <AltitudeMeters>767.20001220703125</AltitudeMeters>
            <DistanceMeters>622.99896339331</DistanceMeters>
          </Trackpoint>
          <Trackpoint>
            <Time>2020-12-05T08:44:07.000Z</Time>
            <Position>
              <LatitudeDegrees>36.79933947511017322540283203125</LatitudeDegrees>
              <LongitudeDegrees>-4.381270743906497955322265625</LongitudeDegrees>
            </Position>
            <AltitudeMeters>766.79998779296875</AltitudeMeters>
            <DistanceMeters>624.6172100274</DistanceMeters>
          </Trackpoint>
          <Trackpoint>
            <Time>2020-12-05T08:44:08.000Z</Time>
            <Position>
              <LatitudeDegrees>36.799347102642059326171875</LatitudeDegrees>
              <LongitudeDegrees>-4.38128490932285785675048828125</LongitudeDegrees>
            </Position>
            <AltitudeMeters>766.79998779296875</AltitudeMeters>
            <DistanceMeters>626.13763745732</DistanceMeters>
          </Trackpoint>
          <Trackpoint>
            <Time>2020-12-05T08:44:09.000Z</Time>
            <Position>
              <LatitudeDegrees>36.7993533052504062652587890625</LatitudeDegrees>
              <LongitudeDegrees>-4.38130083493888378143310546875</LongitudeDegrees>
            </Position>
            <AltitudeMeters>766.5999755859375</AltitudeMeters>
            <DistanceMeters>627.71633980372</DistanceMeters>
          </Trackpoint>
          <Trackpoint>
            <Time>2020-12-05T08:44:10.000Z</Time>
            <Position>
              <LatitudeDegrees>36.7993564903736114501953125</LatitudeDegrees>
              <LongitudeDegrees>-4.38131692819297313690185546875</LongitudeDegrees>
            </Position>
            <AltitudeMeters>766.4000244140625</AltitudeMeters>
            <DistanceMeters>629.19460855447</DistanceMeters>
          </Trackpoint>
          <Trackpoint>
            <Time>2020-12-05T08:44:11.000Z</Time>
            <Position>
              <LatitudeDegrees>36.79935975931584835052490234375</LatitudeDegrees>
              <LongitudeDegrees>-4.381332099437713623046875</LongitudeDegrees>
            </Position>
            <AltitudeMeters>766.20001220703125</AltitudeMeters>
            <DistanceMeters>630.59766117814</DistanceMeters>
          </Trackpoint>
          <Trackpoint>
            <Time>2020-12-05T08:44:12.000Z</Time>
            <Position>
              <LatitudeDegrees>36.79936260916292667388916015625</LatitudeDegrees>
              <LongitudeDegrees>-4.38134777359664440155029296875</LongitudeDegrees>
            </Position>
            <AltitudeMeters>766.20001220703125</AltitudeMeters>
            <DistanceMeters>632.03253309898</DistanceMeters>
          </Trackpoint>
          <Trackpoint>
            <Time>2020-12-05T08:44:13.000Z</Time>
            <Position>
              <LatitudeDegrees>36.7993673868477344512939453125</LatitudeDegrees>
              <LongitudeDegrees>-4.38136453740298748016357421875</LongitudeDegrees>
            </Position>
            <AltitudeMeters>766</AltitudeMeters>
            <DistanceMeters>633.61694505659</DistanceMeters>
          </Trackpoint>
          <Trackpoint>
            <Time>2020-12-05T08:44:14.000Z</Time>
            <Position>
              <LatitudeDegrees>36.79937249980866909027099609375</LatitudeDegrees>
              <LongitudeDegrees>-4.38138213939964771270751953125</LongitudeDegrees>
            </Position>
            <AltitudeMeters>766</AltitudeMeters>
            <DistanceMeters>635.28736225633</DistanceMeters>
          </Trackpoint>
          <Trackpoint>
            <Time>2020-12-05T08:44:15.000Z</Time>
            <Position>
              <LatitudeDegrees>36.79937702603638172149658203125</LatitudeDegrees>
              <LongitudeDegrees>-4.38140242360532283782958984375</LongitudeDegrees>
            </Position>
            <AltitudeMeters>766</AltitudeMeters>
            <DistanceMeters>637.16639389246</DistanceMeters>
          </Trackpoint>
          <Trackpoint>
            <Time>2020-12-05T08:44:16.000Z</Time>
            <Position>
              <LatitudeDegrees>36.7993831448256969451904296875</LatitudeDegrees>
              <LongitudeDegrees>-4.38142321072518825531005859375</LongitudeDegrees>
            </Position>
            <AltitudeMeters>766</AltitudeMeters>
            <DistanceMeters>639.13919974894</DistanceMeters>
          </Trackpoint>
          <Trackpoint>
            <Time>2020-12-05T08:44:17.000Z</Time>
            <Position>
              <LatitudeDegrees>36.7993886768817901611328125</LatitudeDegrees>
              <LongitudeDegrees>-4.38143779523670673370361328125</LongitudeDegrees>
            </Position>
            <AltitudeMeters>766.20001220703125</AltitudeMeters>
            <DistanceMeters>640.577214876</DistanceMeters>
          </Trackpoint>
          <Trackpoint>
            <Time>2020-12-05T08:44:18.000Z</Time>
            <Position>
              <LatitudeDegrees>36.79939462803304195404052734375</LatitudeDegrees>
              <LongitudeDegrees>-4.3814512901008129119873046875</LongitudeDegrees>
            </Position>
            <AltitudeMeters>766</AltitudeMeters>
            <DistanceMeters>641.9477096408</DistanceMeters>
          </Trackpoint>
          <Trackpoint>
            <Time>2020-12-05T08:44:19.000Z</Time>
            <Position>
              <LatitudeDegrees>36.7994009144604206085205078125</LatitudeDegrees>
              <LongitudeDegrees>-4.38146294094622135162353515625</LongitudeDegrees>
            </Position>
            <AltitudeMeters>766.20001220703125</AltitudeMeters>
            <DistanceMeters>643.19759092509</DistanceMeters>
          </Trackpoint>
          <Trackpoint>
            <Time>2020-12-05T08:44:20.000Z</Time>
            <Position>
              <LatitudeDegrees>36.79940703324973583221435546875</LatitudeDegrees>
              <LongitudeDegrees>-4.381473921239376068115234375</LongitudeDegrees>
            </Position>
            <AltitudeMeters>766.20001220703125</AltitudeMeters>
            <DistanceMeters>644.39205820306</DistanceMeters>
          </Trackpoint>
          <Trackpoint>
            <Time>2020-12-05T08:44:21.000Z</Time>
            <Position>
              <LatitudeDegrees>36.7994101345539093017578125</LatitudeDegrees>
              <LongitudeDegrees>-4.38148708082735538482666015625</LongitudeDegrees>
            </Position>
            <AltitudeMeters>766.20001220703125</AltitudeMeters>
            <DistanceMeters>645.61639177268</DistanceMeters>
          </Trackpoint>
          <Trackpoint>
            <Time>2020-12-05T08:44:22.000Z</Time>
            <Position>
              <LatitudeDegrees>36.79941155947744846343994140625</LatitudeDegrees>
              <LongitudeDegrees>-4.38150384463369846343994140625</LongitudeDegrees>
            </Position>
            <AltitudeMeters>766.20001220703125</AltitudeMeters>
            <DistanceMeters>647.11588803294</DistanceMeters>
          </Trackpoint>
          <Trackpoint>
            <Time>2020-12-05T08:44:23.000Z</Time>
            <Position>
              <LatitudeDegrees>36.799416504800319671630859375</LatitudeDegrees>
              <LongitudeDegrees>-4.38151876442134380340576171875</LongitudeDegrees>
            </Position>
            <AltitudeMeters>766.20001220703125</AltitudeMeters>
            <DistanceMeters>648.55703951079</DistanceMeters>
          </Trackpoint>
          <Trackpoint>
            <Time>2020-12-05T08:44:24.000Z</Time>
            <Position>
              <LatitudeDegrees>36.7994235455989837646484375</LatitudeDegrees>
              <LongitudeDegrees>-4.381533600389957427978515625</LongitudeDegrees>
            </Position>
            <AltitudeMeters>766.20001220703125</AltitudeMeters>
            <DistanceMeters>650.09518125599</DistanceMeters>
          </Trackpoint>
          <Trackpoint>
            <Time>2020-12-05T08:44:25.000Z</Time>
            <Position>
              <LatitudeDegrees>36.79943033494055271148681640625</LatitudeDegrees>
              <LongitudeDegrees>-4.38154458068311214447021484375</LongitudeDegrees>
            </Position>
            <AltitudeMeters>766.4000244140625</AltitudeMeters>
            <DistanceMeters>651.33417802575</DistanceMeters>
          </Trackpoint>
          <Trackpoint>
            <Time>2020-12-05T08:44:26.000Z</Time>
            <Position>
              <LatitudeDegrees>36.799436621367931365966796875</LatitudeDegrees>
              <LongitudeDegrees>-4.38155849464237689971923828125</LongitudeDegrees>
            </Position>
            <AltitudeMeters>766.4000244140625</AltitudeMeters>
            <DistanceMeters>652.75957874129</DistanceMeters>
          </Trackpoint>
          <Trackpoint>
            <Time>2020-12-05T08:44:27.000Z</Time>
            <Position>
              <LatitudeDegrees>36.79944257251918315887451171875</LatitudeDegrees>
              <LongitudeDegrees>-4.3815729953348636627197265625</LongitudeDegrees>
            </Position>
            <AltitudeMeters>766.5999755859375</AltitudeMeters>
            <DistanceMeters>654.21320795395</DistanceMeters>
          </Trackpoint>
          <Trackpoint>
            <Time>2020-12-05T08:44:28.000Z</Time>
            <Position>
              <LatitudeDegrees>36.799448020756244659423828125</LatitudeDegrees>
              <LongitudeDegrees>-4.38159001059830188751220703125</LongitudeDegrees>
            </Position>
            <AltitudeMeters>766.5999755859375</AltitudeMeters>
            <DistanceMeters>655.84810936609</DistanceMeters>
          </Trackpoint>
          <Trackpoint>
            <Time>2020-12-05T08:44:29.000Z</Time>
            <Position>
              <LatitudeDegrees>36.79945497773587703704833984375</LatitudeDegrees>
              <LongitudeDegrees>-4.381606690585613250732421875</LongitudeDegrees>
            </Position>
            <AltitudeMeters>766.79998779296875</AltitudeMeters>
            <DistanceMeters>657.52392372755</DistanceMeters>
          </Trackpoint>
          <Trackpoint>
            <Time>2020-12-05T08:44:30.000Z</Time>
            <Position>
              <LatitudeDegrees>36.79946319200098514556884765625</LatitudeDegrees>
              <LongitudeDegrees>-4.38162219710648059844970703125</LongitudeDegrees>
            </Position>
            <AltitudeMeters>766.79998779296875</AltitudeMeters>
            <DistanceMeters>659.18349394764</DistanceMeters>
          </Trackpoint>
          <Trackpoint>
            <Time>2020-12-05T08:44:31.000Z</Time>
            <Position>
              <LatitudeDegrees>36.79947073571383953094482421875</LatitudeDegrees>
              <LongitudeDegrees>-4.38163745217025279998779296875</LongitudeDegrees>
            </Position>
            <AltitudeMeters>766.79998779296875</AltitudeMeters>
            <DistanceMeters>660.7849126031</DistanceMeters>
          </Trackpoint>
          <Trackpoint>
            <Time>2020-12-05T08:44:32.000Z</Time>
            <Position>
              <LatitudeDegrees>36.79947844706475734710693359375</LatitudeDegrees>
              <LongitudeDegrees>-4.381649605929851531982421875</LongitudeDegrees>
            </Position>
            <AltitudeMeters>766.79998779296875</AltitudeMeters>
            <DistanceMeters>662.16852244917</DistanceMeters>
          </Trackpoint>
          <Trackpoint>
            <Time>2020-12-05T08:44:33.000Z</Time>
            <Position>
              <LatitudeDegrees>36.7994870804250240325927734375</LatitudeDegrees>
              <LongitudeDegrees>-4.3816594965755939483642578125</LongitudeDegrees>
            </Position>
            <AltitudeMeters>766.79998779296875</AltitudeMeters>
            <DistanceMeters>663.47146311223</DistanceMeters>
          </Trackpoint>
          <Trackpoint>
            <Time>2020-12-05T08:44:34.000Z</Time>
            <Position>
              <LatitudeDegrees>36.7994951270520687103271484375</LatitudeDegrees>
              <LongitudeDegrees>-4.38167165033519268035888671875</LongitudeDegrees>
            </Position>
            <AltitudeMeters>767</AltitudeMeters>
            <DistanceMeters>664.87773006456</DistanceMeters>
          </Trackpoint>
          <Trackpoint>
            <Time>2020-12-05T08:44:35.000Z</Time>
            <Position>
              <LatitudeDegrees>36.799502335488796234130859375</LatitudeDegrees>
              <LongitudeDegrees>-4.3816869892179965972900390625</LongitudeDegrees>
            </Position>
            <AltitudeMeters>767</AltitudeMeters>
            <DistanceMeters>666.46214202217</DistanceMeters>
          </Trackpoint>
          <Trackpoint>
            <Time>2020-12-05T08:44:36.000Z</Time>
            <Position>
              <LatitudeDegrees>36.79950962774455547332763671875</LatitudeDegrees>
              <LongitudeDegrees>-4.3817047588527202606201171875</LongitudeDegrees>
            </Position>
            <AltitudeMeters>767.20001220703125</AltitudeMeters>
            <DistanceMeters>668.24500121691</DistanceMeters>
          </Trackpoint>
          <Trackpoint>
            <Time>2020-12-05T08:44:37.000Z</Time>
            <Position>
              <LatitudeDegrees>36.79951566271483898162841796875</LatitudeDegrees>
              <LongitudeDegrees>-4.3817195110023021697998046875</LongitudeDegrees>
            </Position>
            <AltitudeMeters>767.4000244140625</AltitudeMeters>
            <DistanceMeters>669.72326996766</DistanceMeters>
          </Trackpoint>
          <Trackpoint>
            <Time>2020-12-05T08:44:38.000Z</Time>
            <Position>
              <LatitudeDegrees>36.7995209433138370513916015625</LatitudeDegrees>
              <LongitudeDegrees>-4.38173166476190090179443359375</LongitudeDegrees>
            </Position>
            <AltitudeMeters>767.5999755859375</AltitudeMeters>
            <DistanceMeters>670.95495695817</DistanceMeters>
          </Trackpoint>
          <Trackpoint>
            <Time>2020-12-05T08:44:39.000Z</Time>
            <Position>
              <LatitudeDegrees>36.79952572099864482879638671875</LatitudeDegrees>
              <LongitudeDegrees>-4.38174641691148281097412109375</LongitudeDegrees>
            </Position>
            <AltitudeMeters>767.79998779296875</AltitudeMeters>
            <DistanceMeters>672.37718658922</DistanceMeters>
          </Trackpoint>
          <Trackpoint>
            <Time>2020-12-05T08:44:40.000Z</Time>
            <Position>
              <LatitudeDegrees>36.79952882230281829833984375</LatitudeDegrees>
              <LongitudeDegrees>-4.38176167197525501251220703125</LongitudeDegrees>
            </Position>
            <AltitudeMeters>768.20001220703125</AltitudeMeters>
            <DistanceMeters>673.78023921289</DistanceMeters>
          </Trackpoint>
          <Trackpoint>
            <Time>2020-12-05T08:44:41.000Z</Time>
            <Position>
              <LatitudeDegrees>36.79953292943537235260009765625</LatitudeDegrees>
              <LongitudeDegrees>-4.38177801668643951416015625</LongitudeDegrees>
            </Position>
            <AltitudeMeters>768.4000244140625</AltitudeMeters>
            <DistanceMeters>675.30659425761</DistanceMeters>
          </Trackpoint>
          <Trackpoint>
            <Time>2020-12-05T08:44:42.000Z</Time>
            <Position>
              <LatitudeDegrees>36.7995367012917995452880859375</LatitudeDegrees>
              <LongitudeDegrees>-4.3817959539592266082763671875</LongitudeDegrees>
            </Position>
            <AltitudeMeters>768.4000244140625</AltitudeMeters>
            <DistanceMeters>676.95798248758</DistanceMeters>
          </Trackpoint>
          <Trackpoint>
            <Time>2020-12-05T08:44:43.000Z</Time>
            <Position>
              <LatitudeDegrees>36.7995410598814487457275390625</LatitudeDegrees>
              <LongitudeDegrees>-4.38181229867041110992431640625</LongitudeDegrees>
            </Position>
            <AltitudeMeters>768.5999755859375</AltitudeMeters>
            <DistanceMeters>678.49318604146</DistanceMeters>
          </Trackpoint>
          <Trackpoint>
            <Time>2020-12-05T08:44:44.000Z</Time>
            <Position>
              <LatitudeDegrees>36.79954634048044681549072265625</LatitudeDegrees>
              <LongitudeDegrees>-4.38182822428643703460693359375</LongitudeDegrees>
            </Position>
            <AltitudeMeters>768.5999755859375</AltitudeMeters>
            <DistanceMeters>680.02838959535</DistanceMeters>
          </Trackpoint>
          <Trackpoint>
            <Time>2020-12-05T08:44:45.000Z</Time>
            <Position>
              <LatitudeDegrees>36.7995491065084934234619140625</LatitudeDegrees>
              <LongitudeDegrees>-4.3818482570350170135498046875</LongitudeDegrees>
            </Position>
            <AltitudeMeters>768.4000244140625</AltitudeMeters>
            <DistanceMeters>681.83889166637</DistanceMeters>
          </Trackpoint>
          <Trackpoint>
            <Time>2020-12-05T08:44:46.000Z</Time>
            <Position>
              <LatitudeDegrees>36.799549944698810577392578125</LatitudeDegrees>
              <LongitudeDegrees>-4.38186518847942352294921875</LongitudeDegrees>
            </Position>
            <AltitudeMeters>768.4000244140625</AltitudeMeters>
            <DistanceMeters>683.35336828117</DistanceMeters>
          </Trackpoint>
          <Trackpoint>
            <Time>2020-12-05T08:44:47.000Z</Time>
            <Position>
              <LatitudeDegrees>36.7995494417846202850341796875</LatitudeDegrees>
              <LongitudeDegrees>-4.381880946457386016845703125</LongitudeDegrees>
            </Position>
            <AltitudeMeters>768.4000244140625</AltitudeMeters>
            <DistanceMeters>684.7596352335</DistanceMeters>
          </Trackpoint>
          <Trackpoint>
            <Time>2020-12-05T08:44:48.000Z</Time>
            <Position>
              <LatitudeDegrees>36.79954885505139827728271484375</LatitudeDegrees>
              <LongitudeDegrees>-4.38189930282533168792724609375</LongitudeDegrees>
            </Position>
            <AltitudeMeters>768.4000244140625</AltitudeMeters>
            <DistanceMeters>686.39453664564</DistanceMeters>
          </Trackpoint>
          <Trackpoint>
            <Time>2020-12-05T08:44:49.000Z</Time>
            <Position>
              <LatitudeDegrees>36.79954751394689083099365234375</LatitudeDegrees>
              <LongitudeDegrees>-4.38191690482199192047119140625</LongitudeDegrees>
            </Position>
            <AltitudeMeters>768.4000244140625</AltitudeMeters>
            <DistanceMeters>687.96750865608</DistanceMeters>
          </Trackpoint>
          <Trackpoint>
            <Time>2020-12-05T08:44:50.000Z</Time>
            <Position>
              <LatitudeDegrees>36.7995469272136688232421875</LatitudeDegrees>
              <LongitudeDegrees>-4.3819315731525421142578125</LongitudeDegrees>
            </Position>
            <AltitudeMeters>768.4000244140625</AltitudeMeters>
            <DistanceMeters>689.27736151971</DistanceMeters>
          </Trackpoint>
          <Trackpoint>
            <Time>2020-12-05T08:44:51.000Z</Time>
            <Position>
              <LatitudeDegrees>36.7995491065084934234619140625</LatitudeDegrees>
              <LongitudeDegrees>-4.38194372691214084625244140625</LongitudeDegrees>
            </Position>
            <AltitudeMeters>768.4000244140625</AltitudeMeters>
            <DistanceMeters>690.38555392014</DistanceMeters>
          </Trackpoint>
          <Trackpoint>
            <Time>2020-12-05T08:44:52.000Z</Time>
            <Position>
              <LatitudeDegrees>36.79955103434622287750244140625</LatitudeDegrees>
              <LongitudeDegrees>-4.381955377757549285888671875</LongitudeDegrees>
            </Position>
            <AltitudeMeters>768.4000244140625</AltitudeMeters>
            <DistanceMeters>691.44372662771</DistanceMeters>
          </Trackpoint>
          <Trackpoint>
            <Time>2020-12-05T08:44:53.000Z</Time>
            <Position>
              <LatitudeDegrees>36.7995527945458889007568359375</LatitudeDegrees>
              <LongitudeDegrees>-4.381965100765228271484375</LongitudeDegrees>
            </Position>
            <AltitudeMeters>768.5999755859375</AltitudeMeters>
            <DistanceMeters>692.33515622509</DistanceMeters>
          </Trackpoint>
          <Trackpoint>
            <Time>2020-12-05T08:44:54.000Z</Time>
            <Position>
              <LatitudeDegrees>36.7995574884116649627685546875</LatitudeDegrees>
              <LongitudeDegrees>-4.3819753266870975494384765625</LongitudeDegrees>
            </Position>
            <AltitudeMeters>768.5999755859375</AltitudeMeters>
            <DistanceMeters>693.38476059158</DistanceMeters>
          </Trackpoint>
          <Trackpoint>
            <Time>2020-12-05T08:44:55.000Z</Time>
            <Position>
              <LatitudeDegrees>36.799564361572265625</LatitudeDegrees>
              <LongitudeDegrees>-4.38198714517056941986083984375</LongitudeDegrees>
            </Position>
            <AltitudeMeters>768.79998779296875</AltitudeMeters>
            <DistanceMeters>694.68770125464</DistanceMeters>
          </Trackpoint>
          <Trackpoint>
            <Time>2020-12-05T08:44:56.000Z</Time>
            <Position>
              <LatitudeDegrees>36.79956972599029541015625</LatitudeDegrees>
              <LongitudeDegrees>-4.3819994665682315826416015625</LongitudeDegrees>
            </Position>
            <AltitudeMeters>768.79998779296875</AltitudeMeters>
            <DistanceMeters>695.93396492994</DistanceMeters>
          </Trackpoint>
          <Trackpoint>
            <Time>2020-12-05T08:44:57.000Z</Time>
            <Position>
              <LatitudeDegrees>36.7995764315128326416015625</LatitudeDegrees>
              <LongitudeDegrees>-4.38201732002198696136474609375</LongitudeDegrees>
            </Position>
            <AltitudeMeters>769</AltitudeMeters>
            <DistanceMeters>697.69131695609</DistanceMeters>
          </Trackpoint>
          <Trackpoint>
            <Time>2020-12-05T08:44:58.000Z</Time>
            <Position>
              <LatitudeDegrees>36.799584142863750457763671875</LatitudeDegrees>
              <LongitudeDegrees>-4.3820326589047908782958984375</LongitudeDegrees>
            </Position>
            <AltitudeMeters>769.20001220703125</AltitudeMeters>
            <DistanceMeters>699.30956359018</DistanceMeters>
          </Trackpoint>
          <Trackpoint>
            <Time>2020-12-05T08:44:59.000Z</Time>
            <Position>
              <LatitudeDegrees>36.7995893396437168121337890625</LatitudeDegrees>
              <LongitudeDegrees>-4.38204866833984851837158203125</LongitudeDegrees>
            </Position>
            <AltitudeMeters>769.20001220703125</AltitudeMeters>
            <DistanceMeters>700.84770533538</DistanceMeters>
          </Trackpoint>
          <Trackpoint>
            <Time>2020-12-05T08:45:00.000Z</Time>
            <Position>
              <LatitudeDegrees>36.79959277622401714324951171875</LatitudeDegrees>
              <LongitudeDegrees>-4.3820655159652233123779296875</LongitudeDegrees>
            </Position>
            <AltitudeMeters>769.4000244140625</AltitudeMeters>
            <DistanceMeters>702.3917066894</DistanceMeters>
          </Trackpoint>
          <Trackpoint>
            <Time>2020-12-05T08:45:01.000Z</Time>
            <Position>
              <LatitudeDegrees>36.7995957098901271820068359375</LatitudeDegrees>
              <LongitudeDegrees>-4.38208437524735927581787109375</LongitudeDegrees>
            </Position>
            <AltitudeMeters>769.4000244140625</AltitudeMeters>
            <DistanceMeters>704.10218754806</DistanceMeters>
          </Trackpoint>
          <Trackpoint>
            <Time>2020-12-05T08:45:02.000Z</Time>
            <Position>
              <LatitudeDegrees>36.7995987273752689361572265625</LatitudeDegrees>
              <LongitudeDegrees>-4.3821020610630512237548828125</LongitudeDegrees>
            </Position>
            <AltitudeMeters>769.20001220703125</AltitudeMeters>
            <DistanceMeters>705.71484436705</DistanceMeters>
          </Trackpoint>
          <Trackpoint>
            <Time>2020-12-05T08:45:03.000Z</Time>
            <Position>
              <LatitudeDegrees>36.79960191249847412109375</LatitudeDegrees>
              <LongitudeDegrees>-4.38211656175553798675537109375</LongitudeDegrees>
            </Position>
            <AltitudeMeters>769.20001220703125</AltitudeMeters>
            <DistanceMeters>707.05872504955</DistanceMeters>
          </Trackpoint>
          <Trackpoint>
            <Time>2020-12-05T08:45:04.000Z</Time>
            <Position>
              <LatitudeDegrees>36.7996047623455524444580078125</LatitudeDegrees>
              <LongitudeDegrees>-4.3821312300860881805419921875</LongitudeDegrees>
            </Position>
            <AltitudeMeters>769.20001220703125</AltitudeMeters>
            <DistanceMeters>708.40260573205</DistanceMeters>
          </Trackpoint>
          <Trackpoint>
            <Time>2020-12-05T08:45:05.000Z</Time>
            <Position>
              <LatitudeDegrees>36.79960618726909160614013671875</LatitudeDegrees>
              <LongitudeDegrees>-4.38214455731213092803955078125</LongitudeDegrees>
            </Position>
            <AltitudeMeters>769.20001220703125</AltitudeMeters>
            <DistanceMeters>709.59707301002</DistanceMeters>
          </Trackpoint>
          <Trackpoint>
            <Time>2020-12-05T08:45:06.000Z</Time>
            <Position>
              <LatitudeDegrees>36.7996074445545673370361328125</LatitudeDegrees>
              <LongitudeDegrees>-4.3821620754897594451904296875</LongitudeDegrees>
            </Position>
            <AltitudeMeters>769.20001220703125</AltitudeMeters>
            <DistanceMeters>711.16429373243</DistanceMeters>
          </Trackpoint>
          <Trackpoint>
            <Time>2020-12-05T08:45:07.000Z</Time>
            <Position>
              <LatitudeDegrees>36.799608282744884490966796875</LatitudeDegrees>
              <LongitudeDegrees>-4.38218244351446628570556640625</LongitudeDegrees>
            </Position>
            <AltitudeMeters>769.4000244140625</AltitudeMeters>
            <DistanceMeters>712.98226182304</DistanceMeters>
          </Trackpoint>
          <Trackpoint>
            <Time>2020-12-05T08:45:08.000Z</Time>
            <Position>
              <LatitudeDegrees>36.79960937239229679107666015625</LatitudeDegrees>
              <LongitudeDegrees>-4.38220323063433170318603515625</LongitudeDegrees>
            </Position>
            <AltitudeMeters>769.5999755859375</AltitudeMeters>
            <DistanceMeters>714.83954187775</DistanceMeters>
          </Trackpoint>
          <Trackpoint>
            <Time>2020-12-05T08:45:09.000Z</Time>
            <Position>
              <LatitudeDegrees>36.7996104620397090911865234375</LatitudeDegrees>
              <LongitudeDegrees>-4.3822237662971019744873046875</LongitudeDegrees>
            </Position>
            <AltitudeMeters>769.79998779296875</AltitudeMeters>
            <DistanceMeters>716.67727107163</DistanceMeters>
          </Trackpoint>
          <Trackpoint>
            <Time>2020-12-05T08:45:10.000Z</Time>
            <Position>
              <LatitudeDegrees>36.79961322806775569915771484375</LatitudeDegrees>
              <LongitudeDegrees>-4.3822428770363330841064453125</LongitudeDegrees>
            </Position>
            <AltitudeMeters>770</AltitudeMeters>
            <DistanceMeters>718.40874021065</DistanceMeters>
          </Trackpoint>
          <Trackpoint>
            <Time>2020-12-05T08:45:11.000Z</Time>
            <Position>
              <LatitudeDegrees>36.79961909539997577667236328125</LatitudeDegrees>
              <LongitudeDegrees>-4.38225922174751758575439453125</LongitudeDegrees>
            </Position>
            <AltitudeMeters>770</AltitudeMeters>
            <DistanceMeters>720.00733698083</DistanceMeters>
          </Trackpoint>
          <Trackpoint>
            <Time>2020-12-05T08:45:12.000Z</Time>
            <Position>
              <LatitudeDegrees>36.79962647147476673126220703125</LatitudeDegrees>
              <LongitudeDegrees>-4.38227933831512928009033203125</LongitudeDegrees>
            </Position>
            <AltitudeMeters>770.20001220703125</AltitudeMeters>
            <DistanceMeters>721.98014283731</DistanceMeters>
          </Trackpoint>
          <Trackpoint>
            <Time>2020-12-05T08:45:13.000Z</Time>
            <Position>
              <LatitudeDegrees>36.799633093178272247314453125</LatitudeDegrees>
              <LongitudeDegrees>-4.382296688854694366455078125</LongitudeDegrees>
            </Position>
            <AltitudeMeters>770.20001220703125</AltitudeMeters>
            <DistanceMeters>723.69589483592</DistanceMeters>
          </Trackpoint>
          <Trackpoint>
            <Time>2020-12-05T08:45:14.000Z</Time>
            <Position>
              <LatitudeDegrees>36.79963954724371433258056640625</LatitudeDegrees>
              <LongitudeDegrees>-4.38231538049876689910888671875</LongitudeDegrees>
            </Position>
            <AltitudeMeters>770.20001220703125</AltitudeMeters>
            <DistanceMeters>725.5088889963</DistanceMeters>
          </Trackpoint>
          <Trackpoint>
            <Time>2020-12-05T08:45:15.000Z</Time>
            <Position>
              <LatitudeDegrees>36.79964474402368068695068359375</LatitudeDegrees>
              <LongitudeDegrees>-4.382327534258365631103515625</LongitudeDegrees>
            </Position>
            <AltitudeMeters>770.4000244140625</AltitudeMeters>
            <DistanceMeters>726.73690478046</DistanceMeters>
          </Trackpoint>
          <Trackpoint>
            <Time>2020-12-05T08:45:16.000Z</Time>
            <Position>
              <LatitudeDegrees>36.79964859969913959503173828125</LatitudeDegrees>
              <LongitudeDegrees>-4.38233667053282260894775390625</LongitudeDegrees>
            </Position>
            <AltitudeMeters>770.4000244140625</AltitudeMeters>
            <DistanceMeters>727.6582229588</DistanceMeters>
          </Trackpoint>
          <Trackpoint>
            <Time>2020-12-05T08:45:17.000Z</Time>
            <Position>
              <LatitudeDegrees>36.79965329356491565704345703125</LatitudeDegrees>
              <LongitudeDegrees>-4.3823473155498504638671875</LongitudeDegrees>
            </Position>
            <AltitudeMeters>770.5999755859375</AltitudeMeters>
            <DistanceMeters>728.74169420332</DistanceMeters>
          </Trackpoint>
          <Trackpoint>
            <Time>2020-12-05T08:45:18.000Z</Time>
            <Position>
              <LatitudeDegrees>36.79966100491583347320556640625</LatitudeDegrees>
              <LongitudeDegrees>-4.38235527835786342620849609375</LongitudeDegrees>
            </Position>
            <AltitudeMeters>770.79998779296875</AltitudeMeters>
            <DistanceMeters>729.85800533794</DistanceMeters>
          </Trackpoint>
          <Trackpoint>
            <Time>2020-12-05T08:45:19.000Z</Time>
            <Position>
              <LatitudeDegrees>36.799670644104480743408203125</LatitudeDegrees>
              <LongitudeDegrees>-4.38236114569008350372314453125</LongitudeDegrees>
            </Position>
            <AltitudeMeters>771</AltitudeMeters>
            <DistanceMeters>731.05247261591</DistanceMeters>
          </Trackpoint>
          <Trackpoint>
            <Time>2020-12-05T08:45:20.000Z</Time>
            <Position>
              <LatitudeDegrees>36.7996795289218425750732421875</LatitudeDegrees>
              <LongitudeDegrees>-4.38236516900360584259033203125</LongitudeDegrees>
            </Position>
            <AltitudeMeters>771.20001220703125</AltitudeMeters>
            <DistanceMeters>732.1020769824</DistanceMeters>
          </Trackpoint>
          <Trackpoint>
            <Time>2020-12-05T08:45:21.000Z</Time>
            <Position>
              <LatitudeDegrees>36.7996889166533946990966796875</LatitudeDegrees>
              <LongitudeDegrees>-4.38237120397388935089111328125</LongitudeDegrees>
            </Position>
            <AltitudeMeters>771.4000244140625</AltitudeMeters>
            <DistanceMeters>733.27364499984</DistanceMeters>
          </Trackpoint>
          <Trackpoint>
            <Time>2020-12-05T08:45:22.000Z</Time>
            <Position>
              <LatitudeDegrees>36.79969847202301025390625</LatitudeDegrees>
              <LongitudeDegrees>-4.382376484572887420654296875</LongitudeDegrees>
            </Position>
            <AltitudeMeters>771.4000244140625</AltitudeMeters>
            <DistanceMeters>734.43747981054</DistanceMeters>
          </Trackpoint>
          <Trackpoint>
            <Time>2020-12-05T08:45:23.000Z</Time>
            <Position>
              <LatitudeDegrees>36.79970794357359409332275390625</LatitudeDegrees>
              <LongitudeDegrees>-4.38237723894417285919189453125</LongitudeDegrees>
            </Position>
            <AltitudeMeters>771.5999755859375</AltitudeMeters>
            <DistanceMeters>735.49565251811</DistanceMeters>
          </Trackpoint>
          <Trackpoint>
            <Time>2020-12-05T08:45:24.000Z</Time>
            <Position>
              <LatitudeDegrees>36.7997150681912899017333984375</LatitudeDegrees>
              <LongitudeDegrees>-4.3823786638677120208740234375</LongitudeDegrees>
            </Position>
            <AltitudeMeters>771.79998779296875</AltitudeMeters>
            <DistanceMeters>736.30198092761</DistanceMeters>
          </Trackpoint>
          <Trackpoint>
            <Time>2020-12-05T08:45:25.000Z</Time>
            <Position>
              <LatitudeDegrees>36.79971791803836822509765625</LatitudeDegrees>
              <LongitudeDegrees>-4.3823759816586971282958984375</LongitudeDegrees>
            </Position>
            <AltitudeMeters>772</AltitudeMeters>
            <DistanceMeters>736.70514513236</DistanceMeters>
          </Trackpoint>
          <Trackpoint>
            <Time>2020-12-05T08:45:26.000Z</Time>
            <Position>
              <LatitudeDegrees>36.7997264675796031951904296875</LatitudeDegrees>
              <LongitudeDegrees>-4.382375143468379974365234375</LongitudeDegrees>
            </Position>
            <AltitudeMeters>772</AltitudeMeters>
            <DistanceMeters>737.66015179246</DistanceMeters>
          </Trackpoint>
          <Trackpoint>
            <Time>2020-12-05T08:45:27.000Z</Time>
            <Position>
              <LatitudeDegrees>36.79973694495856761932373046875</LatitudeDegrees>
              <LongitudeDegrees>-4.3823746405541896820068359375</LongitudeDegrees>
            </Position>
            <AltitudeMeters>771.79998779296875</AltitudeMeters>
            <DistanceMeters>738.82785960824</DistanceMeters>
          </Trackpoint>
          <Trackpoint>
            <Time>2020-12-05T08:45:28.000Z</Time>
            <Position>
              <LatitudeDegrees>36.79974767379462718963623046875</LatitudeDegrees>
              <LongitudeDegrees>-4.38237304799258708953857421875</LongitudeDegrees>
            </Position>
            <AltitudeMeters>771.79998779296875</AltitudeMeters>
            <DistanceMeters>740.02986303213</DistanceMeters>
          </Trackpoint>
          <Trackpoint>
            <Time>2020-12-05T08:45:29.000Z</Time>
            <Position>
              <LatitudeDegrees>36.79975655861198902130126953125</LatitudeDegrees>
              <LongitudeDegrees>-4.3823692761361598968505859375</LongitudeDegrees>
            </Position>
            <AltitudeMeters>772</AltitudeMeters>
            <DistanceMeters>741.07082853265</DistanceMeters>
          </Trackpoint>
          <Trackpoint>
            <Time>2020-12-05T08:45:30.000Z</Time>
            <Position>
              <LatitudeDegrees>36.79976644925773143768310546875</LatitudeDegrees>
              <LongitudeDegrees>-4.3823608942329883575439453125</LongitudeDegrees>
            </Position>
            <AltitudeMeters>772</AltitudeMeters>
            <DistanceMeters>742.40120253383</DistanceMeters>
          </Trackpoint>
          <Trackpoint>
            <Time>2020-12-05T08:45:31.000Z</Time>
            <Position>
              <LatitudeDegrees>36.79977667517960071563720703125</LatitudeDegrees>
              <LongitudeDegrees>-4.38235309906303882598876953125</LongitudeDegrees>
            </Position>
            <AltitudeMeters>771.79998779296875</AltitudeMeters>
            <DistanceMeters>743.7349660284</DistanceMeters>
          </Trackpoint>
          <Trackpoint>
            <Time>2020-12-05T08:45:32.000Z</Time>
            <Position>
              <LatitudeDegrees>36.7997821234166622161865234375</LatitudeDegrees>
              <LongitudeDegrees>-4.3823446333408355712890625</LongitudeDegrees>
            </Position>
            <AltitudeMeters>771.79998779296875</AltitudeMeters>
            <DistanceMeters>744.70405217017</DistanceMeters>
          </Trackpoint>
          <Trackpoint>
            <Time>2020-12-05T08:45:33.000Z</Time>
            <Position>
              <LatitudeDegrees>36.7997844703495502471923828125</LatitudeDegrees>
              <LongitudeDegrees>-4.38234052620828151702880859375</LongitudeDegrees>
            </Position>
            <AltitudeMeters>771.79998779296875</AltitudeMeters>
            <DistanceMeters>745.14976696886</DistanceMeters>
          </Trackpoint>
          <Trackpoint>
            <Time>2020-12-05T08:45:34.000Z</Time>
            <Position>
              <LatitudeDegrees>36.79978405125439167022705078125</LatitudeDegrees>
              <LongitudeDegrees>-4.38234522007405757904052734375</LongitudeDegrees>
            </Position>
            <AltitudeMeters>771.79998779296875</AltitudeMeters>
            <DistanceMeters>745.57473935488</DistanceMeters>
          </Trackpoint>
          <Trackpoint>
            <Time>2020-12-05T08:45:35.000Z</Time>
            <Position>
              <LatitudeDegrees>36.7997858114540576934814453125</LatitudeDegrees>
              <LongitudeDegrees>-4.382355697453022003173828125</LongitudeDegrees>
            </Position>
            <AltitudeMeters>772</AltitudeMeters>
            <DistanceMeters>746.52974601498</DistanceMeters>
          </Trackpoint>
          <Trackpoint>
            <Time>2020-12-05T08:45:36.000Z</Time>
            <Position>
              <LatitudeDegrees>36.7997851409018039703369140625</LatitudeDegrees>
              <LongitudeDegrees>-4.3823625706136226654052734375</LongitudeDegrees>
            </Position>
            <AltitudeMeters>772</AltitudeMeters>
            <DistanceMeters>747.14558951023</DistanceMeters>
          </Trackpoint>
          <Trackpoint>
            <Time>2020-12-05T08:45:37.000Z</Time>
            <Position>
              <LatitudeDegrees>36.799785979092121124267578125</LatitudeDegrees>
              <LongitudeDegrees>-4.3823649175465106964111328125</LongitudeDegrees>
            </Position>
            <AltitudeMeters>772</AltitudeMeters>
            <DistanceMeters>747.37835647237</DistanceMeters>
          </Trackpoint>
          <Trackpoint>
            <Time>2020-12-05T08:45:38.000Z</Time>
            <Position>
              <LatitudeDegrees>36.79978639818727970123291015625</LatitudeDegrees>
              <LongitudeDegrees>-4.382365085184574127197265625</LongitudeDegrees>
            </Position>
            <AltitudeMeters>771.79998779296875</AltitudeMeters>
            <DistanceMeters>747.37835647237</DistanceMeters>
          </Trackpoint>
          <Trackpoint>
            <Time>2020-12-05T08:45:39.000Z</Time>
            <Position>
              <LatitudeDegrees>36.79978589527308940887451171875</LatitudeDegrees>
              <LongitudeDegrees>-4.38236332498490810394287109375</LongitudeDegrees>
            </Position>
            <AltitudeMeters>771.79998779296875</AltitudeMeters>
            <DistanceMeters>747.54294756974</DistanceMeters>
          </Trackpoint>
          <Trackpoint>
            <Time>2020-12-05T08:45:40.000Z</Time>
            <Position>
              <LatitudeDegrees>36.79978488944470882415771484375</LatitudeDegrees>
              <LongitudeDegrees>-4.3823622353374958038330078125</LongitudeDegrees>
            </Position>
            <AltitudeMeters>771.79998779296875</AltitudeMeters>
            <DistanceMeters>747.63797428411</DistanceMeters>
          </Trackpoint>
          <Trackpoint>
            <Time>2020-12-05T08:45:41.000Z</Time>
            <Position>
              <LatitudeDegrees>36.7997834645211696624755859375</LatitudeDegrees>
              <LongitudeDegrees>-4.38235980458557605743408203125</LongitudeDegrees>
            </Position>
            <AltitudeMeters>771.79998779296875</AltitudeMeters>
            <DistanceMeters>747.90675042061</DistanceMeters>
          </Trackpoint>
          <Trackpoint>
            <Time>2020-12-05T08:45:42.000Z</Time>
            <Position>
              <LatitudeDegrees>36.79978321306407451629638671875</LatitudeDegrees>
              <LongitudeDegrees>-4.38235812820494174957275390625</LongitudeDegrees>
            </Position>
            <AltitudeMeters>771.79998779296875</AltitudeMeters>
            <DistanceMeters>748.09680384935</DistanceMeters>
          </Trackpoint>
          <Trackpoint>
            <Time>2020-12-05T08:45:43.000Z</Time>
            <Position>
              <LatitudeDegrees>36.79978019557893276214599609375</LatitudeDegrees>
              <LongitudeDegrees>-4.38235896639525890350341796875</LongitudeDegrees>
            </Position>
            <AltitudeMeters>772</AltitudeMeters>
            <DistanceMeters>748.45236125711</DistanceMeters>
          </Trackpoint>
          <Trackpoint>
            <Time>2020-12-05T08:45:44.000Z</Time>
            <Position>
              <LatitudeDegrees>36.79977633990347385406494140625</LatitudeDegrees>
              <LongitudeDegrees>-4.38236081041395664215087890625</LongitudeDegrees>
            </Position>
            <AltitudeMeters>772</AltitudeMeters>
            <DistanceMeters>748.91789518139</DistanceMeters>
          </Trackpoint>
          <Trackpoint>
            <Time>2020-12-05T08:45:45.000Z</Time>
            <Position>
              <LatitudeDegrees>36.79977198131382465362548828125</LatitudeDegrees>
              <LongitudeDegrees>-4.3823580443859100341796875</LongitudeDegrees>
            </Position>
            <AltitudeMeters>772.20001220703125</AltitudeMeters>
            <DistanceMeters>749.45544745439</DistanceMeters>
          </Trackpoint>
          <Trackpoint>
            <Time>2020-12-05T08:45:46.000Z</Time>
            <Position>
              <LatitudeDegrees>36.79977114312350749969482421875</LatitudeDegrees>
              <LongitudeDegrees>-4.38235293142497539520263671875</LongitudeDegrees>
            </Position>
            <AltitudeMeters>772.20001220703125</AltitudeMeters>
            <DistanceMeters>749.92098137867</DistanceMeters>
          </Trackpoint>
          <Trackpoint>
            <Time>2020-12-05T08:45:47.000Z</Time>
            <Position>
              <LatitudeDegrees>36.799773909151554107666015625</LatitudeDegrees>
              <LongitudeDegrees>-4.38234505243599414825439453125</LongitudeDegrees>
            </Position>
            <AltitudeMeters>772.4000244140625</AltitudeMeters>
            <DistanceMeters>750.68119509363</DistanceMeters>
          </Trackpoint>
          <Trackpoint>
            <Time>2020-12-05T08:45:48.000Z</Time>
            <Position>
              <LatitudeDegrees>36.79977893829345703125</LatitudeDegrees>
              <LongitudeDegrees>-4.3823320604860782623291015625</LongitudeDegrees>
            </Position>
            <AltitudeMeters>772.4000244140625</AltitudeMeters>
            <DistanceMeters>751.97020016177</DistanceMeters>
          </Trackpoint>
          <Trackpoint>
            <Time>2020-12-05T08:45:49.000Z</Time>
            <Position>
              <LatitudeDegrees>36.79978304542601108551025390625</LatitudeDegrees>
              <LongitudeDegrees>-4.38232007436454296112060546875</LongitudeDegrees>
            </Position>
            <AltitudeMeters>772.20001220703125</AltitudeMeters>
            <DistanceMeters>753.12625003686</DistanceMeters>
          </Trackpoint>
          <Trackpoint>
            <Time>2020-12-05T08:45:50.000Z</Time>
            <Position>
              <LatitudeDegrees>36.799790672957897186279296875</LatitudeDegrees>
              <LongitudeDegrees>-4.38230917789041996002197265625</LongitudeDegrees>
            </Position>
            <AltitudeMeters>772.20001220703125</AltitudeMeters>
            <DistanceMeters>754.415255105</DistanceMeters>
          </Trackpoint>
          <Trackpoint>
            <Time>2020-12-05T08:45:51.000Z</Time>
            <Position>
              <LatitudeDegrees>36.79979980923235416412353515625</LatitudeDegrees>
              <LongitudeDegrees>-4.382304735481739044189453125</LongitudeDegrees>
            </Position>
            <AltitudeMeters>772.20001220703125</AltitudeMeters>
            <DistanceMeters>755.50288556345</DistanceMeters>
          </Trackpoint>
          <Trackpoint>
            <Time>2020-12-05T08:45:52.000Z</Time>
            <Position>
              <LatitudeDegrees>36.7998059280216693878173828125</LatitudeDegrees>
              <LongitudeDegrees>-4.3823042325675487518310546875</LongitudeDegrees>
            </Position>
            <AltitudeMeters>772.20001220703125</AltitudeMeters>
            <DistanceMeters>756.18813294585</DistanceMeters>
          </Trackpoint>
          <Trackpoint>
            <Time>2020-12-05T08:45:53.000Z</Time>
            <Position>
              <LatitudeDegrees>36.7998082749545574188232421875</LatitudeDegrees>
              <LongitudeDegrees>-4.3823055736720561981201171875</LongitudeDegrees>
            </Position>
            <AltitudeMeters>772.4000244140625</AltitudeMeters>
            <DistanceMeters>756.45690908235</DistanceMeters>
          </Trackpoint>
          <Trackpoint>
            <Time>2020-12-05T08:45:54.000Z</Time>
            <Position>
              <LatitudeDegrees>36.7998122982680797576904296875</LatitudeDegrees>
              <LongitudeDegrees>-4.38231135718524456024169921875</LongitudeDegrees>
            </Position>
            <AltitudeMeters>772.5999755859375</AltitudeMeters>
            <DistanceMeters>757.13553556183</DistanceMeters>
          </Trackpoint>
          <Trackpoint>
            <Time>2020-12-05T08:45:55.000Z</Time>
            <Position>
              <LatitudeDegrees>36.7998146452009677886962890625</LatitudeDegrees>
              <LongitudeDegrees>-4.38231957145035266876220703125</LongitudeDegrees>
            </Position>
            <AltitudeMeters>772.79998779296875</AltitudeMeters>
            <DistanceMeters>757.91914592303</DistanceMeters>
          </Trackpoint>
          <Trackpoint>
            <Time>2020-12-05T08:45:56.000Z</Time>
            <Position>
              <LatitudeDegrees>36.79981389082968235015869140625</LatitudeDegrees>
              <LongitudeDegrees>-4.38232627697288990020751953125</LongitudeDegrees>
            </Position>
            <AltitudeMeters>772.79998779296875</AltitudeMeters>
            <DistanceMeters>758.52014763498</DistanceMeters>
          </Trackpoint>
          <Trackpoint>
            <Time>2020-12-05T08:45:57.000Z</Time>
            <Position>
              <LatitudeDegrees>36.799813471734523773193359375</LatitudeDegrees>
              <LongitudeDegrees>-4.3823339045047760009765625</LongitudeDegrees>
            </Position>
            <AltitudeMeters>773</AltitudeMeters>
            <DistanceMeters>759.19877411445</DistanceMeters>
          </Trackpoint>
          <Trackpoint>
            <Time>2020-12-05T08:45:58.000Z</Time>
            <Position>
              <LatitudeDegrees>36.79981523193418979644775390625</LatitudeDegrees>
              <LongitudeDegrees>-4.38233985565602779388427734375</LongitudeDegrees>
            </Position>
            <AltitudeMeters>773</AltitudeMeters>
            <DistanceMeters>759.76095973819</DistanceMeters>
          </Trackpoint>
          <Trackpoint>
            <Time>2020-12-05T08:45:59.000Z</Time>
            <Position>
              <LatitudeDegrees>36.79981791414320468902587890625</LatitudeDegrees>
              <LongitudeDegrees>-4.38234052620828151702880859375</LongitudeDegrees>
            </Position>
            <AltitudeMeters>773</AltitudeMeters>
            <DistanceMeters>760.07612769481</DistanceMeters>
          </Trackpoint>
          <Trackpoint>
            <Time>2020-12-05T08:46:00.000Z</Time>
            <Position>
              <LatitudeDegrees>36.799820847809314727783203125</LatitudeDegrees>
              <LongitudeDegrees>-4.382336251437664031982421875</LongitudeDegrees>
            </Position>
            <AltitudeMeters>773.20001220703125</AltitudeMeters>
            <DistanceMeters>760.57896180307</DistanceMeters>
          </Trackpoint>
          <Trackpoint>
            <Time>2020-12-05T08:46:01.000Z</Time>
            <Position>
              <LatitudeDegrees>36.79982227273285388946533203125</LatitudeDegrees>
              <LongitudeDegrees>-4.38233030028641223907470703125</LongitudeDegrees>
            </Position>
            <AltitudeMeters>773.20001220703125</AltitudeMeters>
            <DistanceMeters>761.13305800329</DistanceMeters>
          </Trackpoint>
          <Trackpoint>
            <Time>2020-12-05T08:46:02.000Z</Time>
            <Position>
              <LatitudeDegrees>36.7998203448951244354248046875</LatitudeDegrees>
              <LongitudeDegrees>-4.3823178112506866455078125</LongitudeDegrees>
            </Position>
            <AltitudeMeters>773.20001220703125</AltitudeMeters>
            <DistanceMeters>762.26543199409</DistanceMeters>
          </Trackpoint>
          <Trackpoint>
            <Time>2020-12-05T08:46:03.000Z</Time>
            <Position>
              <LatitudeDegrees>36.79982227273285388946533203125</LatitudeDegrees>
              <LongitudeDegrees>-4.382316805422306060791015625</LongitudeDegrees>
            </Position>
            <AltitudeMeters>773.4000244140625</AltitudeMeters>
            <DistanceMeters>762.49819895623</DistanceMeters>
          </Trackpoint>
          <Trackpoint>
            <Time>2020-12-05T08:46:04.000Z</Time>
            <Position>
              <LatitudeDegrees>36.799824535846710205078125</LatitudeDegrees>
              <LongitudeDegrees>-4.38231755979359149932861328125</LongitudeDegrees>
            </Position>
            <AltitudeMeters>773.4000244140625</AltitudeMeters>
            <DistanceMeters>762.76697509273</DistanceMeters>
          </Trackpoint>
          <Trackpoint>
            <Time>2020-12-05T08:46:05.000Z</Time>
            <Position>
              <LatitudeDegrees>36.79982713423669338226318359375</LatitudeDegrees>
              <LongitudeDegrees>-4.3823179788887500762939453125</LongitudeDegrees>
            </Position>
            <AltitudeMeters>773.4000244140625</AltitudeMeters>
            <DistanceMeters>763.0674759487</DistanceMeters>
          </Trackpoint>
          <Trackpoint>
            <Time>2020-12-05T08:46:06.000Z</Time>
            <Position>
              <LatitudeDegrees>36.79983057081699371337890625</LatitudeDegrees>
              <LongitudeDegrees>-4.38231890089809894561767578125</LongitudeDegrees>
            </Position>
            <AltitudeMeters>773.4000244140625</AltitudeMeters>
            <DistanceMeters>763.4592811293</DistanceMeters>
          </Trackpoint>
          <Trackpoint>
            <Time>2020-12-05T08:46:07.000Z</Time>
            <Position>
              <LatitudeDegrees>36.79983300156891345977783203125</LatitudeDegrees>
              <LongitudeDegrees>-4.382319152355194091796875</LongitudeDegrees>
            </Position>
            <AltitudeMeters>773.4000244140625</AltitudeMeters>
            <DistanceMeters>763.7280572658</DistanceMeters>
          </Trackpoint>
          <Trackpoint>
            <Time>2020-12-05T08:46:08.000Z</Time>
            <Position>
              <LatitudeDegrees>36.799834258854389190673828125</LatitudeDegrees>
              <LongitudeDegrees>-4.38231906853616237640380859375</LongitudeDegrees>
            </Position>
            <AltitudeMeters>773.4000244140625</AltitudeMeters>
            <DistanceMeters>763.86244533405</DistanceMeters>
          </Trackpoint>
          <Trackpoint>
            <Time>2020-12-05T08:46:09.000Z</Time>
            <Position>
              <LatitudeDegrees>36.79983400739729404449462890625</LatitudeDegrees>
              <LongitudeDegrees>-4.38231621868908405303955078125</LongitudeDegrees>
            </Position>
            <AltitudeMeters>773.4000244140625</AltitudeMeters>
            <DistanceMeters>764.13122147055</DistanceMeters>
          </Trackpoint>
          <Trackpoint>
            <Time>2020-12-05T08:46:10.000Z</Time>
            <Position>
              <LatitudeDegrees>36.79983182810246944427490234375</LatitudeDegrees>
              <LongitudeDegrees>-4.3823112733662128448486328125</LongitudeDegrees>
            </Position>
            <AltitudeMeters>773.4000244140625</AltitudeMeters>
            <DistanceMeters>764.63405557881</DistanceMeters>
          </Trackpoint>
          <Trackpoint>
            <Time>2020-12-05T08:46:11.000Z</Time>
            <Position>
              <LatitudeDegrees>36.79982998408377170562744140625</LatitudeDegrees>
              <LongitudeDegrees>-4.38231085427105426788330078125</LongitudeDegrees>
            </Position>
            <AltitudeMeters>773.5999755859375</AltitudeMeters>
            <DistanceMeters>764.82410900755</DistanceMeters>
          </Trackpoint>
          <Trackpoint>
            <Time>2020-12-05T08:46:12.000Z</Time>
            <Position>
              <LatitudeDegrees>36.79982847534120082855224609375</LatitudeDegrees>
              <LongitudeDegrees>-4.38231253065168857574462890625</LongitudeDegrees>
            </Position>
            <AltitudeMeters>773.5999755859375</AltitudeMeters>
            <DistanceMeters>765.05687596969</DistanceMeters>
          </Trackpoint>
          <Trackpoint>
            <Time>2020-12-05T08:46:13.000Z</Time>
            <Position>
              <LatitudeDegrees>36.799827553331851959228515625</LatitudeDegrees>
              <LongitudeDegrees>-4.382312782108783721923828125</LongitudeDegrees>
            </Position>
            <AltitudeMeters>773.5999755859375</AltitudeMeters>
            <DistanceMeters>765.19126403794</DistanceMeters>
          </Trackpoint>
          <Trackpoint>
            <Time>2020-12-05T08:46:14.000Z</Time>
            <Position>
              <LatitudeDegrees>36.7998253740370273590087890625</LatitudeDegrees>
              <LongitudeDegrees>-4.38231336884200572967529296875</LongitudeDegrees>
            </Position>
            <AltitudeMeters>773.79998779296875</AltitudeMeters>
            <DistanceMeters>765.42403100008</DistanceMeters>
          </Trackpoint>
          <Trackpoint>
            <Time>2020-12-05T08:46:15.000Z</Time>
            <Position>
              <LatitudeDegrees>36.799826882779598236083984375</LatitudeDegrees>
              <LongitudeDegrees>-4.382316134870052337646484375</LongitudeDegrees>
            </Position>
            <AltitudeMeters>773.79998779296875</AltitudeMeters>
            <DistanceMeters>765.72453185606</DistanceMeters>
          </Trackpoint>
          <Trackpoint>
            <Time>2020-12-05T08:46:16.000Z</Time>
            <Position>
              <LatitudeDegrees>36.799830235540866851806640625</LatitudeDegrees>
              <LongitudeDegrees>-4.38232141546905040740966796875</LongitudeDegrees>
            </Position>
            <AltitudeMeters>773.79998779296875</AltitudeMeters>
            <DistanceMeters>766.31797349709</DistanceMeters>
          </Trackpoint>
          <Trackpoint>
            <Time>2020-12-05T08:46:17.000Z</Time>
            <Position>
              <LatitudeDegrees>36.7998334206640720367431640625</LatitudeDegrees>
              <LongitudeDegrees>-4.382330216467380523681640625</LongitudeDegrees>
            </Position>
            <AltitudeMeters>774</AltitudeMeters>
            <DistanceMeters>767.17321392642</DistanceMeters>
          </Trackpoint>
          <Trackpoint>
            <Time>2020-12-05T08:46:18.000Z</Time>
            <Position>
              <LatitudeDegrees>36.799834929406642913818359375</LatitudeDegrees>
              <LongitudeDegrees>-4.3823340721428394317626953125</LongitudeDegrees>
            </Position>
            <AltitudeMeters>774</AltitudeMeters>
            <DistanceMeters>767.52877133418</DistanceMeters>
          </Trackpoint>
          <Trackpoint>
            <Time>2020-12-05T08:46:19.000Z</Time>
            <Position>
              <LatitudeDegrees>36.79983467794954776763916015625</LatitudeDegrees>
              <LongitudeDegrees>-4.382338933646678924560546875</LongitudeDegrees>
            </Position>
            <AltitudeMeters>774.20001220703125</AltitudeMeters>
            <DistanceMeters>767.9537437202</DistanceMeters>
          </Trackpoint>
          <Trackpoint>
            <Time>2020-12-05T08:46:20.000Z</Time>
            <Position>
              <LatitudeDegrees>36.79983383975923061370849609375</LatitudeDegrees>
              <LongitudeDegrees>-4.38234019093215465545654296875</LongitudeDegrees>
            </Position>
            <AltitudeMeters>774.20001220703125</AltitudeMeters>
            <DistanceMeters>768.08813178845</DistanceMeters>
          </Trackpoint>
          <Trackpoint>
            <Time>2020-12-05T08:46:21.000Z</Time>
            <Position>
              <LatitudeDegrees>36.79983325302600860595703125</LatitudeDegrees>
              <LongitudeDegrees>-4.3823419511318206787109375</LongitudeDegrees>
            </Position>
            <AltitudeMeters>774.20001220703125</AltitudeMeters>
            <DistanceMeters>768.27818521719</DistanceMeters>
          </Trackpoint>
          <Trackpoint>
            <Time>2020-12-05T08:46:22.000Z</Time>
            <Position>
              <LatitudeDegrees>36.7998324148356914520263671875</LatitudeDegrees>
              <LongitudeDegrees>-4.38233968801796436309814453125</LongitudeDegrees>
            </Position>
            <AltitudeMeters>774.20001220703125</AltitudeMeters>
            <DistanceMeters>768.4906714102</DistanceMeters>
          </Trackpoint>
          <Trackpoint>
            <Time>2020-12-05T08:46:23.000Z</Time>
            <Position>
              <LatitudeDegrees>36.79983166046440601348876953125</LatitudeDegrees>
              <LongitudeDegrees>-4.38233591616153717041015625</LongitudeDegrees>
            </Position>
            <AltitudeMeters>774.20001220703125</AltitudeMeters>
            <DistanceMeters>768.84622881797</DistanceMeters>
          </Trackpoint>
          <Trackpoint>
            <Time>2020-12-05T08:46:24.000Z</Time>
            <Position>
              <LatitudeDegrees>36.799830906093120574951171875</LatitudeDegrees>
              <LongitudeDegrees>-4.3823330663144588470458984375</LongitudeDegrees>
            </Position>
            <AltitudeMeters>774.4000244140625</AltitudeMeters>
            <DistanceMeters>769.11500495446</DistanceMeters>
          </Trackpoint>
          <Trackpoint>
            <Time>2020-12-05T08:46:25.000Z</Time>
            <Position>
              <LatitudeDegrees>36.79983098991215229034423828125</LatitudeDegrees>
              <LongitudeDegrees>-4.38233130611479282379150390625</LongitudeDegrees>
            </Position>
            <AltitudeMeters>774.5999755859375</AltitudeMeters>
            <DistanceMeters>769.27959605183</DistanceMeters>
          </Trackpoint>
          <Trackpoint>
            <Time>2020-12-05T08:46:26.000Z</Time>
            <Position>
              <LatitudeDegrees>36.799834929406642913818359375</LatitudeDegrees>
              <LongitudeDegrees>-4.382329881191253662109375</LongitudeDegrees>
            </Position>
            <AltitudeMeters>774.5999755859375</AltitudeMeters>
            <DistanceMeters>769.73532816416</DistanceMeters>
          </Trackpoint>
          <Trackpoint>
            <Time>2020-12-05T08:46:27.000Z</Time>
            <Position>
              <LatitudeDegrees>36.79983937181532382965087890625</LatitudeDegrees>
              <LongitudeDegrees>-4.38232543878257274627685546875</LongitudeDegrees>
            </Position>
            <AltitudeMeters>774.4000244140625</AltitudeMeters>
            <DistanceMeters>770.36566407741</DistanceMeters>
          </Trackpoint>
          <Trackpoint>
            <Time>2020-12-05T08:46:28.000Z</Time>
            <Position>
              <LatitudeDegrees>36.7998434789478778839111328125</LatitudeDegrees>
              <LongitudeDegrees>-4.382318817079067230224609375</LongitudeDegrees>
            </Position>
            <AltitudeMeters>774.4000244140625</AltitudeMeters>
            <DistanceMeters>771.10784644252</DistanceMeters>
          </Trackpoint>
          <Trackpoint>
            <Time>2020-12-05T08:46:29.000Z</Time>
            <Position>
              <LatitudeDegrees>36.79984440095722675323486328125</LatitudeDegrees>
              <LongitudeDegrees>-4.3823106028139591217041015625</LongitudeDegrees>
            </Position>
            <AltitudeMeters>774.4000244140625</AltitudeMeters>
            <DistanceMeters>771.85002880763</DistanceMeters>
          </Trackpoint>
          <Trackpoint>
            <Time>2020-12-05T08:46:30.000Z</Time>
            <Position>
              <LatitudeDegrees>36.79984708316624164581298828125</LatitudeDegrees>
              <LongitudeDegrees>-4.38230113126337528228759765625</LongitudeDegrees>
            </Position>
            <AltitudeMeters>774.4000244140625</AltitudeMeters>
            <DistanceMeters>772.74650903804</DistanceMeters>
          </Trackpoint>
          <Trackpoint>
            <Time>2020-12-05T08:46:31.000Z</Time>
            <Position>
              <LatitudeDegrees>36.79985295049846172332763671875</LatitudeDegrees>
              <LongitudeDegrees>-4.38229140825569629669189453125</LongitudeDegrees>
            </Position>
            <AltitudeMeters>774.5999755859375</AltitudeMeters>
            <DistanceMeters>773.8341394965</DistanceMeters>
          </Trackpoint>
          <Trackpoint>
            <Time>2020-12-05T08:46:32.000Z</Time>
            <Position>
              <LatitudeDegrees>36.79985747672617435455322265625</LatitudeDegrees>
              <LongitudeDegrees>-4.38227799721062183380126953125</LongitudeDegrees>
            </Position>
            <AltitudeMeters>774.5999755859375</AltitudeMeters>
            <DistanceMeters>775.13013109314</DistanceMeters>
          </Trackpoint>
          <Trackpoint>
            <Time>2020-12-05T08:46:33.000Z</Time>
            <Position>
              <LatitudeDegrees>36.79986049421131610870361328125</LatitudeDegrees>
              <LongitudeDegrees>-4.38226492144167423248291015625</LongitudeDegrees>
            </Position>
            <AltitudeMeters>774.79998779296875</AltitudeMeters>
            <DistanceMeters>776.34335096619</DistanceMeters>
          </Trackpoint>
          <Trackpoint>
            <Time>2020-12-05T08:46:34.000Z</Time>
            <Position>
              <LatitudeDegrees>36.7998615838587284088134765625</LatitudeDegrees>
              <LongitudeDegrees>-4.38224866054952144622802734375</LongitudeDegrees>
            </Position>
            <AltitudeMeters>775</AltitudeMeters>
            <DistanceMeters>777.79698017885</DistanceMeters>
          </Trackpoint>
          <Trackpoint>
            <Time>2020-12-05T08:46:35.000Z</Time>
            <Position>
              <LatitudeDegrees>36.79986686445772647857666015625</LatitudeDegrees>
              <LongitudeDegrees>-4.3822341598570346832275390625</LongitudeDegrees>
            </Position>
            <AltitudeMeters>775.20001220703125</AltitudeMeters>
            <DistanceMeters>779.2192098099</DistanceMeters>
          </Trackpoint>
          <Trackpoint>
            <Time>2020-12-05T08:46:36.000Z</Time>
            <Position>
              <LatitudeDegrees>36.7998726479709148406982421875</LatitudeDegrees>
              <LongitudeDegrees>-4.3822217546403408050537109375</LongitudeDegrees>
            </Position>
            <AltitudeMeters>775.20001220703125</AltitudeMeters>
            <DistanceMeters>780.49412696796</DistanceMeters>
          </Trackpoint>
          <Trackpoint>
            <Time>2020-12-05T08:46:37.000Z</Time>
            <Position>
              <LatitudeDegrees>36.79988279007375240325927734375</LatitudeDegrees>
              <LongitudeDegrees>-4.382206834852695465087890625</LongitudeDegrees>
            </Position>
            <AltitudeMeters>775.20001220703125</AltitudeMeters>
            <DistanceMeters>782.23599541453</DistanceMeters>
          </Trackpoint>
          <Trackpoint>
            <Time>2020-12-05T08:46:38.000Z</Time>
            <Position>
              <LatitudeDegrees>36.79989066906273365020751953125</LatitudeDegrees>
              <LongitudeDegrees>-4.38219669274985790252685546875</LongitudeDegrees>
            </Position>
            <AltitudeMeters>775.20001220703125</AltitudeMeters>
            <DistanceMeters>783.49308068519</DistanceMeters>
          </Trackpoint>
          <Trackpoint>
            <Time>2020-12-05T08:46:39.000Z</Time>
            <Position>
              <LatitudeDegrees>36.79989502765238285064697265625</LatitudeDegrees>
              <LongitudeDegrees>-4.38218764029443264007568359375</LongitudeDegrees>
            </Position>
            <AltitudeMeters>775.20001220703125</AltitudeMeters>
            <DistanceMeters>784.43379716293</DistanceMeters>
          </Trackpoint>
          <Trackpoint>
            <Time>2020-12-05T08:46:40.000Z</Time>
            <Position>
              <LatitudeDegrees>36.7998994700610637664794921875</LatitudeDegrees>
              <LongitudeDegrees>-4.3821825273334980010986328125</LongitudeDegrees>
            </Position>
            <AltitudeMeters>775.20001220703125</AltitudeMeters>
            <DistanceMeters>785.10573750418</DistanceMeters>
          </Trackpoint>
          <Trackpoint>
            <Time>2020-12-05T08:46:41.000Z</Time>
            <Position>
              <LatitudeDegrees>36.799897961318492889404296875</LatitudeDegrees>
              <LongitudeDegrees>-4.3821818567812442779541015625</LongitudeDegrees>
            </Position>
            <AltitudeMeters>775</AltitudeMeters>
            <DistanceMeters>785.29579093292</DistanceMeters>
          </Trackpoint>
          <Trackpoint>
            <Time>2020-12-05T08:46:42.000Z</Time>
            <Position>
              <LatitudeDegrees>36.7998969554901123046875</LatitudeDegrees>
              <LongitudeDegrees>-4.382175318896770477294921875</LongitudeDegrees>
            </Position>
            <AltitudeMeters>775</AltitudeMeters>
            <DistanceMeters>785.89679264487</DistanceMeters>
          </Trackpoint>
          <Trackpoint>
            <Time>2020-12-05T08:46:43.000Z</Time>
            <Position>
              <LatitudeDegrees>36.79989905096590518951416015625</LatitudeDegrees>
              <LongitudeDegrees>-4.38216626644134521484375</LongitudeDegrees>
            </Position>
            <AltitudeMeters>775</AltitudeMeters>
            <DistanceMeters>786.73604586209</DistanceMeters>
          </Trackpoint>
          <Trackpoint>
            <Time>2020-12-05T08:46:44.000Z</Time>
            <Position>
              <LatitudeDegrees>36.799900643527507781982421875</LatitudeDegrees>
              <LongitudeDegrees>-4.3821587227284908294677734375</LongitudeDegrees>
            </Position>
            <AltitudeMeters>774.79998779296875</AltitudeMeters>
            <DistanceMeters>787.43434674851</DistanceMeters>
          </Trackpoint>
          <Trackpoint>
            <Time>2020-12-05T08:46:45.000Z</Time>
            <Position>
              <LatitudeDegrees>36.799901984632015228271484375</LatitudeDegrees>
              <LongitudeDegrees>-4.38214791007339954376220703125</LongitudeDegrees>
            </Position>
            <AltitudeMeters>774.5999755859375</AltitudeMeters>
            <DistanceMeters>788.41270665318</DistanceMeters>
          </Trackpoint>
          <Trackpoint>
            <Time>2020-12-05T08:46:46.000Z</Time>
            <Position>
              <LatitudeDegrees>36.799905002117156982421875</LatitudeDegrees>
              <LongitudeDegrees>-4.3821359239518642425537109375</LongitudeDegrees>
            </Position>
            <AltitudeMeters>774.5999755859375</AltitudeMeters>
            <DistanceMeters>789.5290177878</DistanceMeters>
          </Trackpoint>
          <Trackpoint>
            <Time>2020-12-05T08:46:47.000Z</Time>
            <Position>
              <LatitudeDegrees>36.799906678497791290283203125</LatitudeDegrees>
              <LongitudeDegrees>-4.382117651402950286865234375</LongitudeDegrees>
            </Position>
            <AltitudeMeters>774.4000244140625</AltitudeMeters>
            <DistanceMeters>791.16943321698</DistanceMeters>
          </Trackpoint>
          <Trackpoint>
            <Time>2020-12-05T08:46:48.000Z</Time>
            <Position>
              <LatitudeDegrees>36.79991145618259906768798828125</LatitudeDegrees>
              <LongitudeDegrees>-4.3820997141301631927490234375</LongitudeDegrees>
            </Position>
            <AltitudeMeters>774.4000244140625</AltitudeMeters>
            <DistanceMeters>792.85599008819</DistanceMeters>
          </Trackpoint>
          <Trackpoint>
            <Time>2020-12-05T08:46:49.000Z</Time>
            <Position>
              <LatitudeDegrees>36.7999170720577239990234375</LatitudeDegrees>
              <LongitudeDegrees>-4.38207951374351978302001953125</LongitudeDegrees>
            </Position>
            <AltitudeMeters>774.4000244140625</AltitudeMeters>
            <DistanceMeters>794.76126978694</DistanceMeters>
          </Trackpoint>
          <Trackpoint>
            <Time>2020-12-05T08:46:50.000Z</Time>
            <Position>
              <LatitudeDegrees>36.799923442304134368896484375</LatitudeDegrees>
              <LongitudeDegrees>-4.38205973245203495025634765625</LongitudeDegrees>
            </Position>
            <AltitudeMeters>774.4000244140625</AltitudeMeters>
            <DistanceMeters>796.66180407434</DistanceMeters>
          </Trackpoint>
          <Trackpoint>
            <Time>2020-12-05T08:46:51.000Z</Time>
            <Position>
              <LatitudeDegrees>36.7999283038079738616943359375</LatitudeDegrees>
              <LongitudeDegrees>-4.3820430524647235870361328125</LongitudeDegrees>
            </Position>
            <AltitudeMeters>774.4000244140625</AltitudeMeters>
            <DistanceMeters>798.24621603195</DistanceMeters>
          </Trackpoint>
          <Trackpoint>
            <Time>2020-12-05T08:46:52.000Z</Time>
            <Position>
              <LatitudeDegrees>36.79993408732116222381591796875</LatitudeDegrees>
              <LongitudeDegrees>-4.3820306472480297088623046875</LongitudeDegrees>
            </Position>
            <AltitudeMeters>774.4000244140625</AltitudeMeters>
            <DistanceMeters>799.52466972152</DistanceMeters>
          </Trackpoint>
          <Trackpoint>
            <Time>2020-12-05T08:46:53.000Z</Time>
            <Position>
              <LatitudeDegrees>36.7999390326440334320068359375</LatitudeDegrees>
              <LongitudeDegrees>-4.3820182420313358306884765625</LongitudeDegrees>
            </Position>
            <AltitudeMeters>774.4000244140625</AltitudeMeters>
            <DistanceMeters>800.75635671202</DistanceMeters>
          </Trackpoint>
          <Trackpoint>
            <Time>2020-12-05T08:46:54.000Z</Time>
            <Position>
              <LatitudeDegrees>36.7999433912336826324462890625</LatitudeDegrees>
              <LongitudeDegrees>-4.38200843520462512969970703125</LongitudeDegrees>
            </Position>
            <AltitudeMeters>774.20001220703125</AltitudeMeters>
            <DistanceMeters>801.76202492855</DistanceMeters>
          </Trackpoint>
          <Trackpoint>
            <Time>2020-12-05T08:46:55.000Z</Time>
            <Position>
              <LatitudeDegrees>36.79994858801364898681640625</LatitudeDegrees>
              <LongitudeDegrees>-4.38199804164469242095947265625</LongitudeDegrees>
            </Position>
            <AltitudeMeters>774</AltitudeMeters>
            <DistanceMeters>802.85792646018</DistanceMeters>
          </Trackpoint>
          <Trackpoint>
            <Time>2020-12-05T08:46:56.000Z</Time>
            <Position>
              <LatitudeDegrees>36.79995303042232990264892578125</LatitudeDegrees>
              <LongitudeDegrees>-4.38198714517056941986083984375</LongitudeDegrees>
            </Position>
            <AltitudeMeters>773.79998779296875</AltitudeMeters>
            <DistanceMeters>803.94970028777</DistanceMeters>
          </Trackpoint>
          <Trackpoint>
            <Time>2020-12-05T08:46:57.000Z</Time>
            <Position>
              <LatitudeDegrees>36.79995722137391567230224609375</LatitudeDegrees>
              <LongitudeDegrees>-4.38197574578225612640380859375</LongitudeDegrees>
            </Position>
            <AltitudeMeters>773.79998779296875</AltitudeMeters>
            <DistanceMeters>805.06601142238</DistanceMeters>
          </Trackpoint>
          <Trackpoint>
            <Time>2020-12-05T08:46:58.000Z</Time>
            <Position>
              <LatitudeDegrees>36.79995889775454998016357421875</LatitudeDegrees>
              <LongitudeDegrees>-4.38196049071848392486572265625</LongitudeDegrees>
            </Position>
            <AltitudeMeters>773.5999755859375</AltitudeMeters>
            <DistanceMeters>806.44307934127</DistanceMeters>
          </Trackpoint>
          <Trackpoint>
            <Time>2020-12-05T08:46:59.000Z</Time>
            <Position>
              <LatitudeDegrees>36.7999599874019622802734375</LatitudeDegrees>
              <LongitudeDegrees>-4.3819434754550457000732421875</LongitudeDegrees>
            </Position>
            <AltitudeMeters>773.5999755859375</AltitudeMeters>
            <DistanceMeters>807.96647346168</DistanceMeters>
          </Trackpoint>
          <Trackpoint>
            <Time>2020-12-05T08:47:00.000Z</Time>
            <Position>
              <LatitudeDegrees>36.79996258579194545745849609375</LatitudeDegrees>
              <LongitudeDegrees>-4.381928555667400360107421875</LongitudeDegrees>
            </Position>
            <AltitudeMeters>773.5999755859375</AltitudeMeters>
            <DistanceMeters>809.33036339399</DistanceMeters>
          </Trackpoint>
          <Trackpoint>
            <Time>2020-12-05T08:47:01.000Z</Time>
            <Position>
              <LatitudeDegrees>36.79996610619127750396728515625</LatitudeDegrees>
              <LongitudeDegrees>-4.381915815174579620361328125</LongitudeDegrees>
            </Position>
            <AltitudeMeters>773.5999755859375</AltitudeMeters>
            <DistanceMeters>810.53611722769</DistanceMeters>
          </Trackpoint>
          <Trackpoint>
            <Time>2020-12-05T08:47:02.000Z</Time>
            <Position>
              <LatitudeDegrees>36.79996878840029239654541015625</LatitudeDegrees>
              <LongitudeDegrees>-4.3819005601108074188232421875</LongitudeDegrees>
            </Position>
            <AltitudeMeters>773.5999755859375</AltitudeMeters>
            <DistanceMeters>811.93271900053</DistanceMeters>
          </Trackpoint>
          <Trackpoint>
            <Time>2020-12-05T08:47:03.000Z</Time>
            <Position>
              <LatitudeDegrees>36.7999707162380218505859375</LatitudeDegrees>
              <LongitudeDegrees>-4.38188404776155948638916015625</LongitudeDegrees>
            </Position>
            <AltitudeMeters>773.5999755859375</AltitudeMeters>
            <DistanceMeters>813.42315477748</DistanceMeters>
          </Trackpoint>
          <Trackpoint>
            <Time>2020-12-05T08:47:04.000Z</Time>
            <Position>
              <LatitudeDegrees>36.799970380961894989013671875</LatitudeDegrees>
              <LongitudeDegrees>-4.3818677030503749847412109375</LongitudeDegrees>
            </Position>
            <AltitudeMeters>773.5999755859375</AltitudeMeters>
            <DistanceMeters>814.88298286351</DistanceMeters>
          </Trackpoint>
          <Trackpoint>
            <Time>2020-12-05T08:47:05.000Z</Time>
            <Position>
              <LatitudeDegrees>36.799969710409641265869140625</LatitudeDegrees>
              <LongitudeDegrees>-4.3818522803485393524169921875</LongitudeDegrees>
            </Position>
            <AltitudeMeters>773.79998779296875</AltitudeMeters>
            <DistanceMeters>816.2600507824</DistanceMeters>
          </Trackpoint>
          <Trackpoint>
            <Time>2020-12-05T08:47:06.000Z</Time>
            <Position>
              <LatitudeDegrees>36.799970380961894989013671875</LatitudeDegrees>
              <LongitudeDegrees>-4.38183677382767200469970703125</LongitudeDegrees>
            </Position>
            <AltitudeMeters>773.79998779296875</AltitudeMeters>
            <DistanceMeters>817.64366062846</DistanceMeters>
          </Trackpoint>
          <Trackpoint>
            <Time>2020-12-05T08:47:07.000Z</Time>
            <Position>
              <LatitudeDegrees>36.79997214116156101226806640625</LatitudeDegrees>
              <LongitudeDegrees>-4.3818214349448680877685546875</LongitudeDegrees>
            </Position>
            <AltitudeMeters>774</AltitudeMeters>
            <DistanceMeters>819.02727047452</DistanceMeters>
          </Trackpoint>
          <Trackpoint>
            <Time>2020-12-05T08:47:08.000Z</Time>
            <Position>
              <LatitudeDegrees>36.7999749071896076202392578125</LatitudeDegrees>
              <LongitudeDegrees>-4.38180391676723957061767578125</LongitudeDegrees>
            </Position>
            <AltitudeMeters>774</AltitudeMeters>
            <DistanceMeters>820.61737154185</DistanceMeters>
          </Trackpoint>
          <Trackpoint>
            <Time>2020-12-05T08:47:09.000Z</Time>
            <Position>
              <LatitudeDegrees>36.79997985251247882843017578125</LatitudeDegrees>
              <LongitudeDegrees>-4.38178430311381816864013671875</LongitudeDegrees>
            </Position>
            <AltitudeMeters>774</AltitudeMeters>
            <DistanceMeters>822.45018043454</DistanceMeters>
          </Trackpoint>
          <Trackpoint>
            <Time>2020-12-05T08:47:10.000Z</Time>
            <Position>
              <LatitudeDegrees>36.7999842949211597442626953125</LatitudeDegrees>
              <LongitudeDegrees>-4.3817687965929508209228515625</LongitudeDegrees>
            </Position>
            <AltitudeMeters>774</AltitudeMeters>
            <DistanceMeters>823.91618118272</DistanceMeters>
          </Trackpoint>
          <Trackpoint>
            <Time>2020-12-05T08:47:11.000Z</Time>
            <Position>
              <LatitudeDegrees>36.79998840205371379852294921875</LatitudeDegrees>
              <LongitudeDegrees>-4.38174507580697536468505859375</LongitudeDegrees>
            </Position>
            <AltitudeMeters>773.79998779296875</AltitudeMeters>
            <DistanceMeters>826.07895246003</DistanceMeters>
          </Trackpoint>
          <Trackpoint>
            <Time>2020-12-05T08:47:12.000Z</Time>
            <Position>
              <LatitudeDegrees>36.79998924024403095245361328125</LatitudeDegrees>
              <LongitudeDegrees>-4.3817215226590633392333984375</LongitudeDegrees>
            </Position>
            <AltitudeMeters>773.79998779296875</AltitudeMeters>
            <DistanceMeters>828.18245845183</DistanceMeters>
          </Trackpoint>
          <Trackpoint>
            <Time>2020-12-05T08:47:13.000Z</Time>
            <Position>
              <LatitudeDegrees>36.79999058134853839874267578125</LatitudeDegrees>
              <LongitudeDegrees>-4.38169931061565876007080078125</LongitudeDegrees>
            </Position>
            <AltitudeMeters>773.79998779296875</AltitudeMeters>
            <DistanceMeters>830.16667450095</DistanceMeters>
          </Trackpoint>
          <Trackpoint>
            <Time>2020-12-05T08:47:14.000Z</Time>
            <Position>
              <LatitudeDegrees>36.7999876476824283599853515625</LatitudeDegrees>
              <LongitudeDegrees>-4.3816799484193325042724609375</LongitudeDegrees>
            </Position>
            <AltitudeMeters>773.79998779296875</AltitudeMeters>
            <DistanceMeters>831.9240265271</DistanceMeters>
          </Trackpoint>
          <Trackpoint>
            <Time>2020-12-05T08:47:15.000Z</Time>
            <Position>
              <LatitudeDegrees>36.799985468387603759765625</LatitudeDegrees>
              <LongitudeDegrees>-4.3816625140607357025146484375</LongitudeDegrees>
            </Position>
            <AltitudeMeters>773.79998779296875</AltitudeMeters>
            <DistanceMeters>833.49699853755</DistanceMeters>
          </Trackpoint>
          <Trackpoint>
            <Time>2020-12-05T08:47:16.000Z</Time>
            <Position>
              <LatitudeDegrees>36.79998504929244518280029296875</LatitudeDegrees>
              <LongitudeDegrees>-4.3816440738737583160400390625</LongitudeDegrees>
            </Position>
            <AltitudeMeters>773.79998779296875</AltitudeMeters>
            <DistanceMeters>835.1429095112</DistanceMeters>
          </Trackpoint>
          <Trackpoint>
            <Time>2020-12-05T08:47:17.000Z</Time>
            <Position>
              <LatitudeDegrees>36.7999827861785888671875</LatitudeDegrees>
              <LongitudeDegrees>-4.3816286511719226837158203125</LongitudeDegrees>
            </Position>
            <AltitudeMeters>774</AltitudeMeters>
            <DistanceMeters>836.53627465912</DistanceMeters>
          </Trackpoint>
          <Trackpoint>
            <Time>2020-12-05T08:47:18.000Z</Time>
            <Position>
              <LatitudeDegrees>36.799978427588939666748046875</LatitudeDegrees>
              <LongitudeDegrees>-4.38161482103168964385986328125</LongitudeDegrees>
            </Position>
            <AltitudeMeters>774</AltitudeMeters>
            <DistanceMeters>837.85984363357</DistanceMeters>
          </Trackpoint>
          <Trackpoint>
            <Time>2020-12-05T08:47:19.000Z</Time>
            <Position>
              <LatitudeDegrees>36.7999739013612270355224609375</LatitudeDegrees>
              <LongitudeDegrees>-4.38160107471048831939697265625</LongitudeDegrees>
            </Position>
            <AltitudeMeters>773.79998779296875</AltitudeMeters>
            <DistanceMeters>839.18341260803</DistanceMeters>
          </Trackpoint>
          <Trackpoint>
            <Time>2020-12-05T08:47:20.000Z</Time>
            <Position>
              <LatitudeDegrees>36.799972057342529296875</LatitudeDegrees>
              <LongitudeDegrees>-4.38158883713185787200927734375</LongitudeDegrees>
            </Position>
            <AltitudeMeters>773.79998779296875</AltitudeMeters>
            <DistanceMeters>840.29160500846</DistanceMeters>
          </Trackpoint>
          <Trackpoint>
            <Time>2020-12-05T08:47:21.000Z</Time>
            <Position>
              <LatitudeDegrees>36.79997415281832218170166015625</LatitudeDegrees>
              <LongitudeDegrees>-4.38157576136291027069091796875</LongitudeDegrees>
            </Position>
            <AltitudeMeters>773.5999755859375</AltitudeMeters>
            <DistanceMeters>841.48228632674</DistanceMeters>
          </Trackpoint>
          <Trackpoint>
            <Time>2020-12-05T08:47:22.000Z</Time>
            <Position>
              <LatitudeDegrees>36.79997675120830535888671875</LatitudeDegrees>
              <LongitudeDegrees>-4.381564445793628692626953125</LongitudeDegrees>
            </Position>
            <AltitudeMeters>773.4000244140625</AltitudeMeters>
            <DistanceMeters>842.53189069323</DistanceMeters>
          </Trackpoint>
          <Trackpoint>
            <Time>2020-12-05T08:47:23.000Z</Time>
            <Position>
              <LatitudeDegrees>36.7999769188463687896728515625</LatitudeDegrees>
              <LongitudeDegrees>-4.38155413605272769927978515625</LongitudeDegrees>
            </Position>
            <AltitudeMeters>773.4000244140625</AltitudeMeters>
            <DistanceMeters>843.44829513958</DistanceMeters>
          </Trackpoint>
          <Trackpoint>
            <Time>2020-12-05T08:47:24.000Z</Time>
            <Position>
              <LatitudeDegrees>36.7999762482941150665283203125</LatitudeDegrees>
              <LongitudeDegrees>-4.38154860399663448333740234375</LongitudeDegrees>
            </Position>
            <AltitudeMeters>773.20001220703125</AltitudeMeters>
            <DistanceMeters>843.95112924784</DistanceMeters>
          </Trackpoint>
          <Trackpoint>
            <Time>2020-12-05T08:47:25.000Z</Time>
            <Position>
              <LatitudeDegrees>36.79997415281832218170166015625</LatitudeDegrees>
              <LongitudeDegrees>-4.38154022209346294403076171875</LongitudeDegrees>
            </Position>
            <AltitudeMeters>773.4000244140625</AltitudeMeters>
            <DistanceMeters>844.73473960905</DistanceMeters>
          </Trackpoint>
          <Trackpoint>
            <Time>2020-12-05T08:47:26.000Z</Time>
            <Position>
              <LatitudeDegrees>36.79997138679027557373046875</LatitudeDegrees>
              <LongitudeDegrees>-4.38152915798127651214599609375</LongitudeDegrees>
            </Position>
            <AltitudeMeters>773.4000244140625</AltitudeMeters>
            <DistanceMeters>845.77570510957</DistanceMeters>
          </Trackpoint>
          <Trackpoint>
            <Time>2020-12-05T08:47:27.000Z</Time>
            <Position>
              <LatitudeDegrees>36.79996929131448268890380859375</LatitudeDegrees>
              <LongitudeDegrees>-4.38151440583169460296630859375</LongitudeDegrees>
            </Position>
            <AltitudeMeters>773.5999755859375</AltitudeMeters>
            <DistanceMeters>847.11284950562</DistanceMeters>
          </Trackpoint>
          <Trackpoint>
            <Time>2020-12-05T08:47:28.000Z</Time>
            <Position>
              <LatitudeDegrees>36.79996895603835582733154296875</LatitudeDegrees>
              <LongitudeDegrees>-4.38149546273052692413330078125</LongitudeDegrees>
            </Position>
            <AltitudeMeters>773.5999755859375</AltitudeMeters>
            <DistanceMeters>848.79940637684</DistanceMeters>
          </Trackpoint>
          <Trackpoint>
            <Time>2020-12-05T08:47:29.000Z</Time>
            <Position>
              <LatitudeDegrees>36.799968369305133819580078125</LatitudeDegrees>
              <LongitudeDegrees>-4.38147819600999355316162109375</LongitudeDegrees>
            </Position>
            <AltitudeMeters>773.5999755859375</AltitudeMeters>
            <DistanceMeters>850.33754812204</DistanceMeters>
          </Trackpoint>
          <Trackpoint>
            <Time>2020-12-05T08:47:30.000Z</Time>
            <Position>
              <LatitudeDegrees>36.79996761493384838104248046875</LatitudeDegrees>
              <LongitudeDegrees>-4.38146277330815792083740234375</LongitudeDegrees>
            </Position>
            <AltitudeMeters>773.5999755859375</AltitudeMeters>
            <DistanceMeters>851.71461604092</DistanceMeters>
          </Trackpoint>
          <Trackpoint>
            <Time>2020-12-05T08:47:31.000Z</Time>
            <Position>
              <LatitudeDegrees>36.799964345991611480712890625</LatitudeDegrees>
              <LongitudeDegrees>-4.3814465962350368499755859375</LongitudeDegrees>
            </Position>
            <AltitudeMeters>773.79998779296875</AltitudeMeters>
            <DistanceMeters>853.19898077115</DistanceMeters>
          </Trackpoint>
          <Trackpoint>
            <Time>2020-12-05T08:47:32.000Z</Time>
            <Position>
              <LatitudeDegrees>36.79995956830680370330810546875</LatitudeDegrees>
              <LongitudeDegrees>-4.381430335342884063720703125</LongitudeDegrees>
            </Position>
            <AltitudeMeters>773.79998779296875</AltitudeMeters>
            <DistanceMeters>854.74005510574</DistanceMeters>
          </Trackpoint>
          <Trackpoint>
            <Time>2020-12-05T08:47:33.000Z</Time>
            <Position>
              <LatitudeDegrees>36.7999544553458690643310546875</LatitudeDegrees>
              <LongitudeDegrees>-4.3814144097268581390380859375</LongitudeDegrees>
            </Position>
            <AltitudeMeters>774</AltitudeMeters>
            <DistanceMeters>856.26641015046</DistanceMeters>
          </Trackpoint>
          <Trackpoint>
            <Time>2020-12-05T08:47:34.000Z</Time>
            <Position>
              <LatitudeDegrees>36.79995127022266387939453125</LatitudeDegrees>
              <LongitudeDegrees>-4.3813996575772762298583984375</LongitudeDegrees>
            </Position>
            <AltitudeMeters>774</AltitudeMeters>
            <DistanceMeters>857.63030008277</DistanceMeters>
          </Trackpoint>
          <Trackpoint>
            <Time>2020-12-05T08:47:35.000Z</Time>
            <Position>
              <LatitudeDegrees>36.7999504320323467254638671875</LatitudeDegrees>
              <LongitudeDegrees>-4.381386078894138336181640625</LongitudeDegrees>
            </Position>
            <AltitudeMeters>774</AltitudeMeters>
            <DistanceMeters>858.83979269702</DistanceMeters>
          </Trackpoint>
          <Trackpoint>
            <Time>2020-12-05T08:47:36.000Z</Time>
            <Position>
              <LatitudeDegrees>36.79994917474687099456787109375</LatitudeDegrees>
              <LongitudeDegrees>-4.3813631124794483184814453125</LongitudeDegrees>
            </Position>
            <AltitudeMeters>774</AltitudeMeters>
            <DistanceMeters>860.89113752978</DistanceMeters>
          </Trackpoint>
          <Trackpoint>
            <Time>2020-12-05T08:47:37.000Z</Time>
            <Position>
              <LatitudeDegrees>36.79994850419461727142333984375</LatitudeDegrees>
              <LongitudeDegrees>-4.3813456781208515167236328125</LongitudeDegrees>
            </Position>
            <AltitudeMeters>774</AltitudeMeters>
            <DistanceMeters>862.44097633885</DistanceMeters>
          </Trackpoint>
          <Trackpoint>
            <Time>2020-12-05T08:47:38.000Z</Time>
            <Position>
              <LatitudeDegrees>36.7999464087188243865966796875</LatitudeDegrees>
              <LongitudeDegrees>-4.38132966868579387664794921875</LongitudeDegrees>
            </Position>
            <AltitudeMeters>773.79998779296875</AltitudeMeters>
            <DistanceMeters>863.88838013012</DistanceMeters>
          </Trackpoint>
          <Trackpoint>
            <Time>2020-12-05T08:47:39.000Z</Time>
            <Position>
              <LatitudeDegrees>36.79994414560496807098388671875</LatitudeDegrees>
              <LongitudeDegrees>-4.38131307251751422882080078125</LongitudeDegrees>
            </Position>
            <AltitudeMeters>773.79998779296875</AltitudeMeters>
            <DistanceMeters>865.38787639039</DistanceMeters>
          </Trackpoint>
          <Trackpoint>
            <Time>2020-12-05T08:47:40.000Z</Time>
            <Position>
              <LatitudeDegrees>36.7999440617859363555908203125</LatitudeDegrees>
              <LongitudeDegrees>-4.3812973983585834503173828125</LongitudeDegrees>
            </Position>
            <AltitudeMeters>773.5999755859375</AltitudeMeters>
            <DistanceMeters>866.78447816322</DistanceMeters>
          </Trackpoint>
          <Trackpoint>
            <Time>2020-12-05T08:47:41.000Z</Time>
            <Position>
              <LatitudeDegrees>36.7999450676143169403076171875</LatitudeDegrees>
              <LongitudeDegrees>-4.3812823109328746795654296875</LongitudeDegrees>
            </Position>
            <AltitudeMeters>773.5999755859375</AltitudeMeters>
            <DistanceMeters>868.13171435827</DistanceMeters>
          </Trackpoint>
          <Trackpoint>
            <Time>2020-12-05T08:47:42.000Z</Time>
            <Position>
              <LatitudeDegrees>36.7999500967562198638916015625</LatitudeDegrees>
              <LongitudeDegrees>-4.38126529566943645477294921875</LongitudeDegrees>
            </Position>
            <AltitudeMeters>773.5999755859375</AltitudeMeters>
            <DistanceMeters>869.74716850256</DistanceMeters>
          </Trackpoint>
          <Trackpoint>
            <Time>2020-12-05T08:47:43.000Z</Time>
            <Position>
              <LatitudeDegrees>36.79995604790747165679931640625</LatitudeDegrees>
              <LongitudeDegrees>-4.38124417327344417572021484375</LongitudeDegrees>
            </Position>
            <AltitudeMeters>773.79998779296875</AltitudeMeters>
            <DistanceMeters>871.74046567943</DistanceMeters>
          </Trackpoint>
          <Trackpoint>
            <Time>2020-12-05T08:47:44.000Z</Time>
            <Position>
              <LatitudeDegrees>36.7999625019729137420654296875</LatitudeDegrees>
              <LongitudeDegrees>-4.38122238032519817352294921875</LongitudeDegrees>
            </Position>
            <AltitudeMeters>773.79998779296875</AltitudeMeters>
            <DistanceMeters>873.81370381996</DistanceMeters>
          </Trackpoint>
          <Trackpoint>
            <Time>2020-12-05T08:47:45.000Z</Time>
            <Position>
              <LatitudeDegrees>36.799969039857387542724609375</LatitudeDegrees>
              <LongitudeDegrees>-4.38120125792920589447021484375</LongitudeDegrees>
            </Position>
            <AltitudeMeters>774</AltitudeMeters>
            <DistanceMeters>875.83176340189</DistanceMeters>
          </Trackpoint>
          <Trackpoint>
            <Time>2020-12-05T08:47:46.000Z</Time>
            <Position>
              <LatitudeDegrees>36.799974739551544189453125</LatitudeDegrees>
              <LongitudeDegrees>-4.38118122518062591552734375</LongitudeDegrees>
            </Position>
            <AltitudeMeters>774.20001220703125</AltitudeMeters>
            <DistanceMeters>877.72515727223</DistanceMeters>
          </Trackpoint>
          <Trackpoint>
            <Time>2020-12-05T08:47:47.000Z</Time>
            <Position>
              <LatitudeDegrees>36.79998219944536685943603515625</LatitudeDegrees>
              <LongitudeDegrees>-4.38115800730884075164794921875</LongitudeDegrees>
            </Position>
            <AltitudeMeters>774.4000244140625</AltitudeMeters>
            <DistanceMeters>879.95373126566</DistanceMeters>
          </Trackpoint>
          <Trackpoint>
            <Time>2020-12-05T08:47:48.000Z</Time>
            <Position>
              <LatitudeDegrees>36.79998823441565036773681640625</LatitudeDegrees>
              <LongitudeDegrees>-4.38113906420767307281494140625</LongitudeDegrees>
            </Position>
            <AltitudeMeters>774.5999755859375</AltitudeMeters>
            <DistanceMeters>881.76672542604</DistanceMeters>
          </Trackpoint>
          <Trackpoint>
            <Time>2020-12-05T08:47:49.000Z</Time>
            <Position>
              <LatitudeDegrees>36.7999943532049655914306640625</LatitudeDegrees>
              <LongitudeDegrees>-4.38110855408012866973876953125</LongitudeDegrees>
            </Position>
            <AltitudeMeters>774.5999755859375</AltitudeMeters>
            <DistanceMeters>884.56961081547</DistanceMeters>
          </Trackpoint>
          <Trackpoint>
            <Time>2020-12-05T08:47:50.000Z</Time>
            <Position>
              <LatitudeDegrees>36.7999987117946147918701171875</LatitudeDegrees>
              <LongitudeDegrees>-4.38109480775892734527587890625</LongitudeDegrees>
            </Position>
            <AltitudeMeters>774.4000244140625</AltitudeMeters>
            <DistanceMeters>885.88633959439</DistanceMeters>
          </Trackpoint>
          <Trackpoint>
            <Time>2020-12-05T08:47:51.000Z</Time>
            <Position>
              <LatitudeDegrees>36.80000223219394683837890625</LatitudeDegrees>
              <LongitudeDegrees>-4.38108525238931179046630859375</LongitudeDegrees>
            </Position>
            <AltitudeMeters>774.4000244140625</AltitudeMeters>
            <DistanceMeters>886.81740744295</DistanceMeters>
          </Trackpoint>
          <Trackpoint>
            <Time>2020-12-05T08:47:52.000Z</Time>
            <Position>
              <LatitudeDegrees>36.80000550113618373870849609375</LatitudeDegrees>
              <LongitudeDegrees>-4.38107267953455448150634765625</LongitudeDegrees>
            </Position>
            <AltitudeMeters>774.20001220703125</AltitudeMeters>
            <DistanceMeters>887.99665795593</DistanceMeters>
          </Trackpoint>
          <Trackpoint>
            <Time>2020-12-05T08:47:53.000Z</Time>
            <Position>
              <LatitudeDegrees>36.800007261335849761962890625</LatitudeDegrees>
              <LongitudeDegrees>-4.381055496633052825927734375</LongitudeDegrees>
            </Position>
            <AltitudeMeters>774.20001220703125</AltitudeMeters>
            <DistanceMeters>889.54065930994</DistanceMeters>
          </Trackpoint>
          <Trackpoint>
            <Time>2020-12-05T08:47:54.000Z</Time>
            <Position>
              <LatitudeDegrees>36.80001027882099151611328125</LatitudeDegrees>
              <LongitudeDegrees>-4.3810355477035045623779296875</LongitudeDegrees>
            </Position>
            <AltitudeMeters>774.20001220703125</AltitudeMeters>
            <DistanceMeters>891.34866585659</DistanceMeters>
          </Trackpoint>
          <Trackpoint>
            <Time>2020-12-05T08:47:55.000Z</Time>
            <Position>
              <LatitudeDegrees>36.80001405067741870880126953125</LatitudeDegrees>
              <LongitudeDegrees>-4.38101886771619319915771484375</LongitudeDegrees>
            </Position>
            <AltitudeMeters>774.20001220703125</AltitudeMeters>
            <DistanceMeters>892.89266721061</DistanceMeters>
          </Trackpoint>
          <Trackpoint>
            <Time>2020-12-05T08:47:56.000Z</Time>
            <Position>
              <LatitudeDegrees>36.800017990171909332275390625</LatitudeDegrees>
              <LongitudeDegrees>-4.38100025989115238189697265625</LongitudeDegrees>
            </Position>
            <AltitudeMeters>774.20001220703125</AltitudeMeters>
            <DistanceMeters>894.61104871574</DistanceMeters>
          </Trackpoint>
          <Trackpoint>
            <Time>2020-12-05T08:47:57.000Z</Time>
            <Position>
              <LatitudeDegrees>36.80002327077090740203857421875</LatitudeDegrees>
              <LongitudeDegrees>-4.3809820711612701416015625</LongitudeDegrees>
            </Position>
            <AltitudeMeters>774.5999755859375</AltitudeMeters>
            <DistanceMeters>896.3372947082</DistanceMeters>
          </Trackpoint>
          <Trackpoint>
            <Time>2020-12-05T08:47:58.000Z</Time>
            <Position>
              <LatitudeDegrees>36.8000302277505397796630859375</LatitudeDegrees>
              <LongitudeDegrees>-4.380966983735561370849609375</LongitudeDegrees>
            </Position>
            <AltitudeMeters>775</AltitudeMeters>
            <DistanceMeters>897.89004401525</DistanceMeters>
          </Trackpoint>
          <Trackpoint>
            <Time>2020-12-05T08:47:59.000Z</Time>
            <Position>
              <LatitudeDegrees>36.800034753978252410888671875</LatitudeDegrees>
              <LongitudeDegrees>-4.38095449469983577728271484375</LongitudeDegrees>
            </Position>
            <AltitudeMeters>775.20001220703125</AltitudeMeters>
            <DistanceMeters>899.11437758487</DistanceMeters>
          </Trackpoint>
          <Trackpoint>
            <Time>2020-12-05T08:48:00.000Z</Time>
            <Position>
              <LatitudeDegrees>36.8000404536724090576171875</LatitudeDegrees>
              <LongitudeDegrees>-4.38093756325542926788330078125</LongitudeDegrees>
            </Position>
            <AltitudeMeters>775.4000244140625</AltitudeMeters>
            <DistanceMeters>900.75479301405</DistanceMeters>
          </Trackpoint>
          <Trackpoint>
            <Time>2020-12-05T08:48:01.000Z</Time>
            <Position>
              <LatitudeDegrees>36.80004514753818511962890625</LatitudeDegrees>
              <LongitudeDegrees>-4.38092230819165706634521484375</LongitudeDegrees>
            </Position>
            <AltitudeMeters>775.4000244140625</AltitudeMeters>
            <DistanceMeters>902.21462110008</DistanceMeters>
          </Trackpoint>
          <Trackpoint>
            <Time>2020-12-05T08:48:02.000Z</Time>
            <Position>
              <LatitudeDegrees>36.80004875175654888153076171875</LatitudeDegrees>
              <LongitudeDegrees>-4.38091166317462921142578125</LongitudeDegrees>
            </Position>
            <AltitudeMeters>775.4000244140625</AltitudeMeters>
            <DistanceMeters>903.24687543908</DistanceMeters>
          </Trackpoint>
          <Trackpoint>
            <Time>2020-12-05T08:48:03.000Z</Time>
            <Position>
              <LatitudeDegrees>36.80005210451781749725341796875</LatitudeDegrees>
              <LongitudeDegrees>-4.38089825212955474853515625</LongitudeDegrees>
            </Position>
            <AltitudeMeters>775.20001220703125</AltitudeMeters>
            <DistanceMeters>904.50036389186</DistanceMeters>
          </Trackpoint>
          <Trackpoint>
            <Time>2020-12-05T08:48:04.000Z</Time>
            <Position>
              <LatitudeDegrees>36.80005277507007122039794921875</LatitudeDegrees>
              <LongitudeDegrees>-4.38087939284741878509521484375</LongitudeDegrees>
            </Position>
            <AltitudeMeters>775.20001220703125</AltitudeMeters>
            <DistanceMeters>906.18424156064</DistanceMeters>
          </Trackpoint>
          <Trackpoint>
            <Time>2020-12-05T08:48:05.000Z</Time>
            <Position>
              <LatitudeDegrees>36.80005160160362720489501953125</LatitudeDegrees>
              <LongitudeDegrees>-4.38085801899433135986328125</LongitudeDegrees>
            </Position>
            <AltitudeMeters>775</AltitudeMeters>
            <DistanceMeters>908.09425488084</DistanceMeters>
          </Trackpoint>
          <Trackpoint>
            <Time>2020-12-05T08:48:06.000Z</Time>
            <Position>
              <LatitudeDegrees>36.800053529441356658935546875</LatitudeDegrees>
              <LongitudeDegrees>-4.38084184192121028900146484375</LongitudeDegrees>
            </Position>
            <AltitudeMeters>775</AltitudeMeters>
            <DistanceMeters>909.55098682747</DistanceMeters>
          </Trackpoint>
          <Trackpoint>
            <Time>2020-12-05T08:48:07.000Z</Time>
            <Position>
              <LatitudeDegrees>36.800054870545864105224609375</LatitudeDegrees>
              <LongitudeDegrees>-4.38082189299166202545166015625</LongitudeDegrees>
            </Position>
            <AltitudeMeters>774.79998779296875</AltitudeMeters>
            <DistanceMeters>911.33384602221</DistanceMeters>
          </Trackpoint>
          <Trackpoint>
            <Time>2020-12-05T08:48:08.000Z</Time>
            <Position>
              <LatitudeDegrees>36.800057552754878997802734375</LatitudeDegrees>
              <LongitudeDegrees>-4.380804039537906646728515625</LongitudeDegrees>
            </Position>
            <AltitudeMeters>774.79998779296875</AltitudeMeters>
            <DistanceMeters>912.9520926563</DistanceMeters>
          </Trackpoint>
          <Trackpoint>
            <Time>2020-12-05T08:48:09.000Z</Time>
            <Position>
              <LatitudeDegrees>36.800062246620655059814453125</LatitudeDegrees>
              <LongitudeDegrees>-4.3807874433696269989013671875</LongitudeDegrees>
            </Position>
            <AltitudeMeters>775</AltitudeMeters>
            <DistanceMeters>914.51931337871</DistanceMeters>
          </Trackpoint>
          <Trackpoint>
            <Time>2020-12-05T08:48:10.000Z</Time>
            <Position>
              <LatitudeDegrees>36.800068952143192291259765625</LatitudeDegrees>
              <LongitudeDegrees>-4.3807747028768062591552734375</LongitudeDegrees>
            </Position>
            <AltitudeMeters>775.20001220703125</AltitudeMeters>
            <DistanceMeters>915.87656633766</DistanceMeters>
          </Trackpoint>
          <Trackpoint>
            <Time>2020-12-05T08:48:11.000Z</Time>
            <Position>
              <LatitudeDegrees>36.800075657665729522705078125</LatitudeDegrees>
              <LongitudeDegrees>-4.38076087273657321929931640625</LongitudeDegrees>
            </Position>
            <AltitudeMeters>775.5999755859375</AltitudeMeters>
            <DistanceMeters>917.3114382585</DistanceMeters>
          </Trackpoint>
          <Trackpoint>
            <Time>2020-12-05T08:48:12.000Z</Time>
            <Position>
              <LatitudeDegrees>36.80008110590279102325439453125</LatitudeDegrees>
              <LongitudeDegrees>-4.38074762932956218719482421875</LongitudeDegrees>
            </Position>
            <AltitudeMeters>776</AltitudeMeters>
            <DistanceMeters>918.63841410854</DistanceMeters>
          </Trackpoint>
          <Trackpoint>
            <Time>2020-12-05T08:48:13.000Z</Time>
            <Position>
              <LatitudeDegrees>36.80008546449244022369384765625</LatitudeDegrees>
              <LongitudeDegrees>-4.38073656521737575531005859375</LongitudeDegrees>
            </Position>
            <AltitudeMeters>776</AltitudeMeters>
            <DistanceMeters>919.73842785549</DistanceMeters>
          </Trackpoint>
          <Trackpoint>
            <Time>2020-12-05T08:48:14.000Z</Time>
            <Position>
              <LatitudeDegrees>36.80008764378726482391357421875</LatitudeDegrees>
              <LongitudeDegrees>-4.3807280994951725006103515625</LongitudeDegrees>
            </Position>
            <AltitudeMeters>776.20001220703125</AltitudeMeters>
            <DistanceMeters>920.5220382167</DistanceMeters>
          </Trackpoint>
          <Trackpoint>
            <Time>2020-12-05T08:48:15.000Z</Time>
            <Position>
              <LatitudeDegrees>36.80009082891047000885009765625</LatitudeDegrees>
              <LongitudeDegrees>-4.38072659075260162353515625</LongitudeDegrees>
            </Position>
            <AltitudeMeters>776.20001220703125</AltitudeMeters>
            <DistanceMeters>920.90214507418</DistanceMeters>
          </Trackpoint>
          <Trackpoint>
            <Time>2020-12-05T08:48:16.000Z</Time>
            <Position>
              <LatitudeDegrees>36.80009879171848297119140625</LatitudeDegrees>
              <LongitudeDegrees>-4.38072147779166698455810546875</LongitudeDegrees>
            </Position>
            <AltitudeMeters>776.20001220703125</AltitudeMeters>
            <DistanceMeters>921.89425309873</DistanceMeters>
          </Trackpoint>
          <Trackpoint>
            <Time>2020-12-05T08:48:17.000Z</Time>
            <Position>
              <LatitudeDegrees>36.80010926909744739532470703125</LatitudeDegrees>
              <LongitudeDegrees>-4.38070890493690967559814453125</LongitudeDegrees>
            </Position>
            <AltitudeMeters>776.20001220703125</AltitudeMeters>
            <DistanceMeters>923.50690991773</DistanceMeters>
          </Trackpoint>
          <Trackpoint>
            <Time>2020-12-05T08:48:18.000Z</Time>
            <Position>
              <LatitudeDegrees>36.80011865682899951934814453125</LatitudeDegrees>
              <LongitudeDegrees>-4.38069029711186885833740234375</LongitudeDegrees>
            </Position>
            <AltitudeMeters>776</AltitudeMeters>
            <DistanceMeters>925.46593582075</DistanceMeters>
          </Trackpoint>
          <Trackpoint>
            <Time>2020-12-05T08:48:19.000Z</Time>
            <Position>
              <LatitudeDegrees>36.8001294694840908050537109375</LatitudeDegrees>
              <LongitudeDegrees>-4.3806724436581134796142578125</LongitudeDegrees>
            </Position>
            <AltitudeMeters>776</AltitudeMeters>
            <DistanceMeters>927.45923299762</DistanceMeters>
          </Trackpoint>
          <Trackpoint>
            <Time>2020-12-05T08:48:20.000Z</Time>
            <Position>
              <LatitudeDegrees>36.8001361750066280364990234375</LatitudeDegrees>
              <LongitudeDegrees>-4.3806590326130390167236328125</LongitudeDegrees>
            </Position>
            <AltitudeMeters>775.5999755859375</AltitudeMeters>
            <DistanceMeters>928.86870694831</DistanceMeters>
          </Trackpoint>
          <Trackpoint>
            <Time>2020-12-05T08:48:21.000Z</Time>
            <Position>
              <LatitudeDegrees>36.8001408688724040985107421875</LatitudeDegrees>
              <LongitudeDegrees>-4.38064604066312313079833984375</LongitudeDegrees>
            </Position>
            <AltitudeMeters>775.20001220703125</AltitudeMeters>
            <DistanceMeters>930.14362410637</DistanceMeters>
          </Trackpoint>
          <Trackpoint>
            <Time>2020-12-05T08:48:22.000Z</Time>
            <Position>
              <LatitudeDegrees>36.80014573037624359130859375</LatitudeDegrees>
              <LongitudeDegrees>-4.38063003122806549072265625</LongitudeDegrees>
            </Position>
            <AltitudeMeters>775</AltitudeMeters>
            <DistanceMeters>931.66997915109</DistanceMeters>
          </Trackpoint>
          <Trackpoint>
            <Time>2020-12-05T08:48:23.000Z</Time>
            <Position>
              <LatitudeDegrees>36.80015151388943195343017578125</LatitudeDegrees>
              <LongitudeDegrees>-4.3806181289255619049072265625</LongitudeDegrees>
            </Position>
            <AltitudeMeters>774.79998779296875</AltitudeMeters>
            <DistanceMeters>932.90897592085</DistanceMeters>
          </Trackpoint>
          <Trackpoint>
            <Time>2020-12-05T08:48:24.000Z</Time>
            <Position>
              <LatitudeDegrees>36.80015989579260349273681640625</LatitudeDegrees>
              <LongitudeDegrees>-4.380607903003692626953125</LongitudeDegrees>
            </Position>
            <AltitudeMeters>774.5999755859375</AltitudeMeters>
            <DistanceMeters>934.21537725578</DistanceMeters>
          </Trackpoint>
          <Trackpoint>
            <Time>2020-12-05T08:48:25.000Z</Time>
            <Position>
              <LatitudeDegrees>36.80016945116221904754638671875</LatitudeDegrees>
              <LongitudeDegrees>-4.380597509443759918212890625</LongitudeDegrees>
            </Position>
            <AltitudeMeters>774.79998779296875</AltitudeMeters>
            <DistanceMeters>935.62485120646</DistanceMeters>
          </Trackpoint>
          <Trackpoint>
            <Time>2020-12-05T08:48:26.000Z</Time>
            <Position>
              <LatitudeDegrees>36.80018168874084949493408203125</LatitudeDegrees>
              <LongitudeDegrees>-4.380587451159954071044921875</LongitudeDegrees>
            </Position>
            <AltitudeMeters>775.5999755859375</AltitudeMeters>
            <DistanceMeters>937.25421994144</DistanceMeters>
          </Trackpoint>
          <Trackpoint>
            <Time>2020-12-05T08:48:27.000Z</Time>
            <Position>
              <LatitudeDegrees>36.80019141174852848052978515625</LatitudeDegrees>
              <LongitudeDegrees>-4.38057630322873592376708984375</LongitudeDegrees>
            </Position>
            <AltitudeMeters>776.20001220703125</AltitudeMeters>
            <DistanceMeters>938.72022068962</DistanceMeters>
          </Trackpoint>
          <Trackpoint>
            <Time>2020-12-05T08:48:28.000Z</Time>
            <Position>
              <LatitudeDegrees>36.80020147003233432769775390625</LatitudeDegrees>
              <LongitudeDegrees>-4.3805690109729766845703125</LongitudeDegrees>
            </Position>
            <AltitudeMeters>776.4000244140625</AltitudeMeters>
            <DistanceMeters>940.01621228627</DistanceMeters>
          </Trackpoint>
          <Trackpoint>
            <Time>2020-12-05T08:48:29.000Z</Time>
            <Position>
              <LatitudeDegrees>36.80021203123033046722412109375</LatitudeDegrees>
              <LongitudeDegrees>-4.38056205399334430694580078125</LongitudeDegrees>
            </Position>
            <AltitudeMeters>776.5999755859375</AltitudeMeters>
            <DistanceMeters>941.34658628745</DistanceMeters>
          </Trackpoint>
          <Trackpoint>
            <Time>2020-12-05T08:48:30.000Z</Time>
            <Position>
              <LatitudeDegrees>36.8002213351428508758544921875</LatitudeDegrees>
              <LongitudeDegrees>-4.38055434264242649078369140625</LongitudeDegrees>
            </Position>
            <AltitudeMeters>776.4000244140625</AltitudeMeters>
            <DistanceMeters>942.59284996274</DistanceMeters>
          </Trackpoint>
          <Trackpoint>
            <Time>2020-12-05T08:48:31.000Z</Time>
            <Position>
              <LatitudeDegrees>36.80023013614118099212646484375</LatitudeDegrees>
              <LongitudeDegrees>-4.3805457092821598052978515625</LongitudeDegrees>
            </Position>
            <AltitudeMeters>776.4000244140625</AltitudeMeters>
            <DistanceMeters>943.8318467325</DistanceMeters>
          </Trackpoint>
          <Trackpoint>
            <Time>2020-12-05T08:48:32.000Z</Time>
            <Position>
              <LatitudeDegrees>36.800237260758876800537109375</LatitudeDegrees>
              <LongitudeDegrees>-4.380539841949939727783203125</LongitudeDegrees>
            </Position>
            <AltitudeMeters>776.4000244140625</AltitudeMeters>
            <DistanceMeters>944.77735060238</DistanceMeters>
          </Trackpoint>
          <Trackpoint>
            <Time>2020-12-05T08:48:33.000Z</Time>
            <Position>
              <LatitudeDegrees>36.80024656467139720916748046875</LatitudeDegrees>
              <LongitudeDegrees>-4.38053489662706851959228515625</LongitudeDegrees>
            </Position>
            <AltitudeMeters>776.20001220703125</AltitudeMeters>
            <DistanceMeters>945.90972459318</DistanceMeters>
          </Trackpoint>
          <Trackpoint>
            <Time>2020-12-05T08:48:34.000Z</Time>
            <Position>
              <LatitudeDegrees>36.800254695117473602294921875</LatitudeDegrees>
              <LongitudeDegrees>-4.38053322024643421173095703125</LongitudeDegrees>
            </Position>
            <AltitudeMeters>776.4000244140625</AltitudeMeters>
            <DistanceMeters>946.83104277151</DistanceMeters>
          </Trackpoint>
          <Trackpoint>
            <Time>2020-12-05T08:48:35.000Z</Time>
            <Position>
              <LatitudeDegrees>36.80026316083967685699462890625</LatitudeDegrees>
              <LongitudeDegrees>-4.38052902929484844207763671875</LongitudeDegrees>
            </Position>
            <AltitudeMeters>776.5999755859375</AltitudeMeters>
            <DistanceMeters>947.83671098804</DistanceMeters>
          </Trackpoint>
          <Trackpoint>
            <Time>2020-12-05T08:48:36.000Z</Time>
            <Position>
              <LatitudeDegrees>36.80027036927640438079833984375</LatitudeDegrees>
              <LongitudeDegrees>-4.380524419248104095458984375</LongitudeDegrees>
            </Position>
            <AltitudeMeters>777</AltitudeMeters>
            <DistanceMeters>948.73821355595</DistanceMeters>
          </Trackpoint>
          <Trackpoint>
            <Time>2020-12-05T08:48:37.000Z</Time>
            <Position>
              <LatitudeDegrees>36.80028176866471767425537109375</LatitudeDegrees>
              <LongitudeDegrees>-4.38051737844944000244140625</LongitudeDegrees>
            </Position>
            <AltitudeMeters>777.5999755859375</AltitudeMeters>
            <DistanceMeters>950.15726501626</DistanceMeters>
          </Trackpoint>
          <Trackpoint>
            <Time>2020-12-05T08:48:38.000Z</Time>
            <Position>
              <LatitudeDegrees>36.80029383860528469085693359375</LatitudeDegrees>
              <LongitudeDegrees>-4.3805165402591228485107421875</LongitudeDegrees>
            </Position>
            <AltitudeMeters>778.5999755859375</AltitudeMeters>
            <DistanceMeters>951.5045012113</DistanceMeters>
          </Trackpoint>
          <Trackpoint>
            <Time>2020-12-05T08:48:39.000Z</Time>
            <Position>
              <LatitudeDegrees>36.80030691437423229217529296875</LatitudeDegrees>
              <LongitudeDegrees>-4.38051075674593448638916015625</LongitudeDegrees>
            </Position>
            <AltitudeMeters>779.4000244140625</AltitudeMeters>
            <DistanceMeters>953.04850256532</DistanceMeters>
          </Trackpoint>
          <Trackpoint>
            <Time>2020-12-05T08:48:40.000Z</Time>
            <Position>
              <LatitudeDegrees>36.80032074451446533203125</LatitudeDegrees>
              <LongitudeDegrees>-4.38050321303308010101318359375</LongitudeDegrees>
            </Position>
            <AltitudeMeters>780</AltitudeMeters>
            <DistanceMeters>954.73238023409</DistanceMeters>
          </Trackpoint>
          <Trackpoint>
            <Time>2020-12-05T08:48:41.000Z</Time>
            <Position>
              <LatitudeDegrees>36.8003353290259838104248046875</LatitudeDegrees>
              <LongitudeDegrees>-4.3805004470050334930419921875</LongitudeDegrees>
            </Position>
            <AltitudeMeters>780.20001220703125</AltitudeMeters>
            <DistanceMeters>956.37004097547</DistanceMeters>
          </Trackpoint>
          <Trackpoint>
            <Time>2020-12-05T08:48:42.000Z</Time>
            <Position>
              <LatitudeDegrees>36.8003435432910919189453125</LatitudeDegrees>
              <LongitudeDegrees>-4.38049600459635257720947265625</LongitudeDegrees>
            </Position>
            <AltitudeMeters>780.4000244140625</AltitudeMeters>
            <DistanceMeters>957.36668956391</DistanceMeters>
          </Trackpoint>
          <Trackpoint>
            <Time>2020-12-05T08:48:43.000Z</Time>
            <Position>
              <LatitudeDegrees>36.80035762488842010498046875</LatitudeDegrees>
              <LongitudeDegrees>-4.38049131073057651519775390625</LongitudeDegrees>
            </Position>
            <AltitudeMeters>780.4000244140625</AltitudeMeters>
            <DistanceMeters>958.99050677087</DistanceMeters>
          </Trackpoint>
          <Trackpoint>
            <Time>2020-12-05T08:48:44.000Z</Time>
            <Position>
              <LatitudeDegrees>36.80036592297255992889404296875</LatitudeDegrees>
              <LongitudeDegrees>-4.38048644922673702239990234375</LongitudeDegrees>
            </Position>
            <AltitudeMeters>780.4000244140625</AltitudeMeters>
            <DistanceMeters>960.0139758068</DistanceMeters>
          </Trackpoint>
          <Trackpoint>
            <Time>2020-12-05T08:48:45.000Z</Time>
            <Position>
              <LatitudeDegrees>36.80037715472280979156494140625</LatitudeDegrees>
              <LongitudeDegrees>-4.38048024661839008331298828125</LongitudeDegrees>
            </Position>
            <AltitudeMeters>780.4000244140625</AltitudeMeters>
            <DistanceMeters>961.3811721438</DistanceMeters>
          </Trackpoint>
          <Trackpoint>
            <Time>2020-12-05T08:48:46.000Z</Time>
            <Position>
              <LatitudeDegrees>36.80038972757756710052490234375</LatitudeDegrees>
              <LongitudeDegrees>-4.380468763411045074462890625</LongitudeDegrees>
            </Position>
            <AltitudeMeters>780.20001220703125</AltitudeMeters>
            <DistanceMeters>963.11524695644</DistanceMeters>
          </Trackpoint>
          <Trackpoint>
            <Time>2020-12-05T08:48:47.000Z</Time>
            <Position>
              <LatitudeDegrees>36.80040397681295871734619140625</LatitudeDegrees>
              <LongitudeDegrees>-4.38045702874660491943359375</LongitudeDegrees>
            </Position>
            <AltitudeMeters>780.20001220703125</AltitudeMeters>
            <DistanceMeters>965.01578124384</DistanceMeters>
          </Trackpoint>
          <Trackpoint>
            <Time>2020-12-05T08:48:48.000Z</Time>
            <Position>
              <LatitudeDegrees>36.800417639315128326416015625</LatitudeDegrees>
              <LongitudeDegrees>-4.38044085167348384857177734375</LongitudeDegrees>
            </Position>
            <AltitudeMeters>780</AltitudeMeters>
            <DistanceMeters>967.11068390309</DistanceMeters>
          </Trackpoint>
          <Trackpoint>
            <Time>2020-12-05T08:48:49.000Z</Time>
            <Position>
              <LatitudeDegrees>36.8004302121698856353759765625</LatitudeDegrees>
              <LongitudeDegrees>-4.38042425550520420074462890625</LongitudeDegrees>
            </Position>
            <AltitudeMeters>780</AltitudeMeters>
            <DistanceMeters>969.14434439869</DistanceMeters>
          </Trackpoint>
          <Trackpoint>
            <Time>2020-12-05T08:48:50.000Z</Time>
            <Position>
              <LatitudeDegrees>36.8004446290433406829833984375</LatitudeDegrees>
              <LongitudeDegrees>-4.38041067682206630706787109375</LongitudeDegrees>
            </Position>
            <AltitudeMeters>779.79998779296875</AltitudeMeters>
            <DistanceMeters>971.15118621956</DistanceMeters>
          </Trackpoint>
          <Trackpoint>
            <Time>2020-12-05T08:48:51.000Z</Time>
            <Position>
              <LatitudeDegrees>36.80045007728040218353271484375</LatitudeDegrees>
              <LongitudeDegrees>-4.380413107573986053466796875</LongitudeDegrees>
            </Position>
            <AltitudeMeters>779.5999755859375</AltitudeMeters>
            <DistanceMeters>971.78864479859</DistanceMeters>
          </Trackpoint>
          <Trackpoint>
            <Time>2020-12-05T08:48:52.000Z</Time>
            <Position>
              <LatitudeDegrees>36.8004570342600345611572265625</LatitudeDegrees>
              <LongitudeDegrees>-4.38041553832590579986572265625</LongitudeDegrees>
            </Position>
            <AltitudeMeters>779.5999755859375</AltitudeMeters>
            <DistanceMeters>972.59497320809</DistanceMeters>
          </Trackpoint>
          <Trackpoint>
            <Time>2020-12-05T08:48:53.000Z</Time>
            <Position>
              <LatitudeDegrees>36.80046650581061840057373046875</LatitudeDegrees>
              <LongitudeDegrees>-4.38041268847882747650146484375</LongitudeDegrees>
            </Position>
            <AltitudeMeters>779.5999755859375</AltitudeMeters>
            <DistanceMeters>973.68260366654</DistanceMeters>
          </Trackpoint>
          <Trackpoint>
            <Time>2020-12-05T08:48:54.000Z</Time>
            <Position>
              <LatitudeDegrees>36.80047824047505855560302734375</LatitudeDegrees>
              <LongitudeDegrees>-4.3804079107940196990966796875</LongitudeDegrees>
            </Position>
            <AltitudeMeters>779.5999755859375</AltitudeMeters>
            <DistanceMeters>975.05309843134</DistanceMeters>
          </Trackpoint>
          <Trackpoint>
            <Time>2020-12-05T08:48:55.000Z</Time>
            <Position>
              <LatitudeDegrees>36.8004910647869110107421875</LatitudeDegrees>
              <LongitudeDegrees>-4.38039994798600673675537109375</LongitudeDegrees>
            </Position>
            <AltitudeMeters>779.5999755859375</AltitudeMeters>
            <DistanceMeters>976.64886832616</DistanceMeters>
          </Trackpoint>
          <Trackpoint>
            <Time>2020-12-05T08:48:56.000Z</Time>
            <Position>
              <LatitudeDegrees>36.80050372146070003509521484375</LatitudeDegrees>
              <LongitudeDegrees>-4.380387626588344573974609375</LongitudeDegrees>
            </Position>
            <AltitudeMeters>779.5999755859375</AltitudeMeters>
            <DistanceMeters>978.43425819526</DistanceMeters>
          </Trackpoint>
          <Trackpoint>
            <Time>2020-12-05T08:48:57.000Z</Time>
            <Position>
              <LatitudeDegrees>36.80051361210644245147705078125</LatitudeDegrees>
              <LongitudeDegrees>-4.380371868610382080078125</LongitudeDegrees>
            </Position>
            <AltitudeMeters>779.5999755859375</AltitudeMeters>
            <DistanceMeters>980.22217515675</DistanceMeters>
          </Trackpoint>
          <Trackpoint>
            <Time>2020-12-05T08:48:58.000Z</Time>
            <Position>
              <LatitudeDegrees>36.80052014999091625213623046875</LatitudeDegrees>
              <LongitudeDegrees>-4.38035770319402217864990234375</LongitudeDegrees>
            </Position>
            <AltitudeMeters>779.79998779296875</AltitudeMeters>
            <DistanceMeters>981.6758043694</DistanceMeters>
          </Trackpoint>
          <Trackpoint>
            <Time>2020-12-05T08:48:59.000Z</Time>
            <Position>
              <LatitudeDegrees>36.80052149109542369842529296875</LatitudeDegrees>
              <LongitudeDegrees>-4.38034630380570888519287109375</LongitudeDegrees>
            </Position>
            <AltitudeMeters>780</AltitudeMeters>
            <DistanceMeters>982.703675443</DistanceMeters>
          </Trackpoint>
          <Trackpoint>
            <Time>2020-12-05T08:49:00.000Z</Time>
            <Position>
              <LatitudeDegrees>36.80052115581929683685302734375</LatitudeDegrees>
              <LongitudeDegrees>-4.38033507205545902252197265625</LongitudeDegrees>
            </Position>
            <AltitudeMeters>780.20001220703125</AltitudeMeters>
            <DistanceMeters>983.70934365952</DistanceMeters>
          </Trackpoint>
          <Trackpoint>
            <Time>2020-12-05T08:49:01.000Z</Time>
            <Position>
              <LatitudeDegrees>36.80052149109542369842529296875</LatitudeDegrees>
              <LongitudeDegrees>-4.3803297914564609527587890625</LongitudeDegrees>
            </Position>
            <AltitudeMeters>780.20001220703125</AltitudeMeters>
            <DistanceMeters>984.1748775838</DistanceMeters>
          </Trackpoint>
          <Trackpoint>
            <Time>2020-12-05T08:49:02.000Z</Time>
            <Position>
              <LatitudeDegrees>36.8005180545151233673095703125</LatitudeDegrees>
              <LongitudeDegrees>-4.38032618723809719085693359375</LongitudeDegrees>
            </Position>
            <AltitudeMeters>780.20001220703125</AltitudeMeters>
            <DistanceMeters>984.67771169206</DistanceMeters>
          </Trackpoint>
          <Trackpoint>
            <Time>2020-12-05T08:49:03.000Z</Time>
            <Position>
              <LatitudeDegrees>36.80050942115485668182373046875</LatitudeDegrees>
              <LongitudeDegrees>-4.38032031990587711334228515625</LongitudeDegrees>
            </Position>
            <AltitudeMeters>780.20001220703125</AltitudeMeters>
            <DistanceMeters>985.76948551965</DistanceMeters>
          </Trackpoint>
          <Trackpoint>
            <Time>2020-12-05T08:49:04.000Z</Time>
            <Position>
              <LatitudeDegrees>36.8004989437758922576904296875</LatitudeDegrees>
              <LongitudeDegrees>-4.38032199628651142120361328125</LongitudeDegrees>
            </Position>
            <AltitudeMeters>780.20001220703125</AltitudeMeters>
            <DistanceMeters>986.94873603263</DistanceMeters>
          </Trackpoint>
          <Trackpoint>
            <Time>2020-12-05T08:49:05.000Z</Time>
            <Position>
              <LatitudeDegrees>36.80049567483365535736083984375</LatitudeDegrees>
              <LongitudeDegrees>-4.38032803125679492950439453125</LongitudeDegrees>
            </Position>
            <AltitudeMeters>780.20001220703125</AltitudeMeters>
            <DistanceMeters>987.60020636416</DistanceMeters>
          </Trackpoint>
          <Trackpoint>
            <Time>2020-12-05T08:49:06.000Z</Time>
            <Position>
              <LatitudeDegrees>36.8005016259849071502685546875</LatitudeDegrees>
              <LongitudeDegrees>-4.3803410232067108154296875</LongitudeDegrees>
            </Position>
            <AltitudeMeters>780.20001220703125</AltitudeMeters>
            <DistanceMeters>988.93396985874</DistanceMeters>
          </Trackpoint>
          <Trackpoint>
            <Time>2020-12-05T08:49:07.000Z</Time>
            <Position>
              <LatitudeDegrees>36.80050916969776153564453125</LatitudeDegrees>
              <LongitudeDegrees>-4.38034429214894771575927734375</LongitudeDegrees>
            </Position>
            <AltitudeMeters>780</AltitudeMeters>
            <DistanceMeters>989.82539945611</DistanceMeters>
          </Trackpoint>
          <Trackpoint>
            <Time>2020-12-05T08:49:08.000Z</Time>
            <Position>
              <LatitudeDegrees>36.8005173839628696441650390625</LatitudeDegrees>
              <LongitudeDegrees>-4.38034328632056713104248046875</LongitudeDegrees>
            </Position>
            <AltitudeMeters>780</AltitudeMeters>
            <DistanceMeters>990.74671763445</DistanceMeters>
          </Trackpoint>
          <Trackpoint>
            <Time>2020-12-05T08:49:09.000Z</Time>
            <Position>
              <LatitudeDegrees>36.800527274608612060546875</LatitudeDegrees>
              <LongitudeDegrees>-4.3803425319492816925048828125</LongitudeDegrees>
            </Position>
            <AltitudeMeters>780.20001220703125</AltitudeMeters>
            <DistanceMeters>991.85491003488</DistanceMeters>
          </Trackpoint>
          <Trackpoint>
            <Time>2020-12-05T08:49:10.000Z</Time>
            <Position>
              <LatitudeDegrees>36.80053574033081531524658203125</LatitudeDegrees>
              <LongitudeDegrees>-4.3803421966731548309326171875</LongitudeDegrees>
            </Position>
            <AltitudeMeters>780</AltitudeMeters>
            <DistanceMeters>992.80041390475</DistanceMeters>
          </Trackpoint>
          <Trackpoint>
            <Time>2020-12-05T08:49:11.000Z</Time>
            <Position>
              <LatitudeDegrees>36.8005442060530185699462890625</LatitudeDegrees>
              <LongitudeDegrees>-4.38033725135028362274169921875</LongitudeDegrees>
            </Position>
            <AltitudeMeters>780</AltitudeMeters>
            <DistanceMeters>993.84137940528</DistanceMeters>
          </Trackpoint>
          <Trackpoint>
            <Time>2020-12-05T08:49:12.000Z</Time>
            <Position>
              <LatitudeDegrees>36.80055233649909496307373046875</LatitudeDegrees>
              <LongitudeDegrees>-4.380332641303539276123046875</LongitudeDegrees>
            </Position>
            <AltitudeMeters>779.79998779296875</AltitudeMeters>
            <DistanceMeters>994.83802799371</DistanceMeters>
          </Trackpoint>
          <Trackpoint>
            <Time>2020-12-05T08:49:13.000Z</Time>
            <Position>
              <LatitudeDegrees>36.80056189186871051788330078125</LatitudeDegrees>
              <LongitudeDegrees>-4.3803281150758266448974609375</LongitudeDegrees>
            </Position>
            <AltitudeMeters>779.79998779296875</AltitudeMeters>
            <DistanceMeters>995.97834856615</DistanceMeters>
          </Trackpoint>
          <Trackpoint>
            <Time>2020-12-05T08:49:14.000Z</Time>
            <Position>
              <LatitudeDegrees>36.8005715310573577880859375</LatitudeDegrees>
              <LongitudeDegrees>-4.3803240917623043060302734375</LongitudeDegrees>
            </Position>
            <AltitudeMeters>779.79998779296875</AltitudeMeters>
            <DistanceMeters>997.11072255695</DistanceMeters>
          </Trackpoint>
          <Trackpoint>
            <Time>2020-12-05T08:49:15.000Z</Time>
            <Position>
              <LatitudeDegrees>36.800577901303768157958984375</LatitudeDegrees>
              <LongitudeDegrees>-4.38032031990587711334228515625</LongitudeDegrees>
            </Position>
            <AltitudeMeters>779.5999755859375</AltitudeMeters>
            <DistanceMeters>997.89433291816</DistanceMeters>
          </Trackpoint>
          <Trackpoint>
            <Time>2020-12-05T08:49:16.000Z</Time>
            <Position>
              <LatitudeDegrees>36.800584606826305389404296875</LatitudeDegrees>
              <LongitudeDegrees>-4.3803142011165618896484375</LongitudeDegrees>
            </Position>
            <AltitudeMeters>779.4000244140625</AltitudeMeters>
            <DistanceMeters>998.8156510965</DistanceMeters>
          </Trackpoint>
          <Trackpoint>
            <Time>2020-12-05T08:49:17.000Z</Time>
            <Position>
              <LatitudeDegrees>36.80059231817722320556640625</LatitudeDegrees>
              <LongitudeDegrees>-4.3803073279559612274169921875</LongitudeDegrees>
            </Position>
            <AltitudeMeters>779.4000244140625</AltitudeMeters>
            <DistanceMeters>999.8695483413</DistanceMeters>
          </Trackpoint>
          <Trackpoint>
            <Time>2020-12-05T08:49:18.000Z</Time>
            <Position>
              <LatitudeDegrees>36.800604052841663360595703125</LatitudeDegrees>
              <LongitudeDegrees>-4.380293749272823333740234375</LongitudeDegrees>
            </Position>
            <AltitudeMeters>779.20001220703125</AltitudeMeters>
            <DistanceMeters>1001.6473353801</DistanceMeters>
          </Trackpoint>
          <Trackpoint>
            <Time>2020-12-05T08:49:19.000Z</Time>
            <Position>
              <LatitudeDegrees>36.80061335675418376922607421875</LatitudeDegrees>
              <LongitudeDegrees>-4.3802831880748271942138671875</LongitudeDegrees>
            </Position>
            <AltitudeMeters>779.20001220703125</AltitudeMeters>
            <DistanceMeters>1003.0503880038</DistanceMeters>
          </Trackpoint>
          <Trackpoint>
            <Time>2020-12-05T08:49:20.000Z</Time>
            <Position>
              <LatitudeDegrees>36.80062257684767246246337890625</LatitudeDegrees>
              <LongitudeDegrees>-4.38027136959135532379150390625</LongitudeDegrees>
            </Position>
            <AltitudeMeters>779.20001220703125</AltitudeMeters>
            <DistanceMeters>1004.5194653571</DistanceMeters>
          </Trackpoint>
          <Trackpoint>
            <Time>2020-12-05T08:49:21.000Z</Time>
            <Position>
              <LatitudeDegrees>36.80063095875084400177001953125</LatitudeDegrees>
              <LongitudeDegrees>-4.38025896437466144561767578125</LongitudeDegrees>
            </Position>
            <AltitudeMeters>779.20001220703125</AltitudeMeters>
            <DistanceMeters>1005.963746375</DistanceMeters>
          </Trackpoint>
          <Trackpoint>
            <Time>2020-12-05T08:49:22.000Z</Time>
            <Position>
              <LatitudeDegrees>36.8006411008536815643310546875</LatitudeDegrees>
              <LongitudeDegrees>-4.38024505041539669036865234375</LongitudeDegrees>
            </Position>
            <AltitudeMeters>779.4000244140625</AltitudeMeters>
            <DistanceMeters>1007.6395607364</DistanceMeters>
          </Trackpoint>
          <Trackpoint>
            <Time>2020-12-05T08:49:23.000Z</Time>
            <Position>
              <LatitudeDegrees>36.80064822547137737274169921875</LatitudeDegrees>
              <LongitudeDegrees>-4.380230046808719635009765625</LongitudeDegrees>
            </Position>
            <AltitudeMeters>779.4000244140625</AltitudeMeters>
            <DistanceMeters>1009.1952150962</DistanceMeters>
          </Trackpoint>
          <Trackpoint>
            <Time>2020-12-05T08:49:24.000Z</Time>
            <Position>
              <LatitudeDegrees>36.800655685365200042724609375</LatitudeDegrees>
              <LongitudeDegrees>-4.38021068461239337921142578125</LongitudeDegrees>
            </Position>
            <AltitudeMeters>779.5999755859375</AltitudeMeters>
            <DistanceMeters>1011.1123069335</DistanceMeters>
          </Trackpoint>
          <Trackpoint>
            <Time>2020-12-05T08:49:25.000Z</Time>
            <Position>
              <LatitudeDegrees>36.800667084753513336181640625</LatitudeDegrees>
              <LongitudeDegrees>-4.38019744120538234710693359375</LongitudeDegrees>
            </Position>
            <AltitudeMeters>779.5999755859375</AltitudeMeters>
            <DistanceMeters>1012.8489835103</DistanceMeters>
          </Trackpoint>
          <Trackpoint>
            <Time>2020-12-05T08:49:26.000Z</Time>
            <Position>
              <LatitudeDegrees>36.80067772977054119110107421875</LatitudeDegrees>
              <LongitudeDegrees>-4.38018805347383022308349609375</LongitudeDegrees>
            </Position>
            <AltitudeMeters>779.79998779296875</AltitudeMeters>
            <DistanceMeters>1014.3026127229</DistanceMeters>
          </Trackpoint>
          <Trackpoint>
            <Time>2020-12-05T08:49:27.000Z</Time>
            <Position>
              <LatitudeDegrees>36.80068795569241046905517578125</LatitudeDegrees>
              <LongitudeDegrees>-4.3801785819232463836669921875</LongitudeDegrees>
            </Position>
            <AltitudeMeters>779.79998779296875</AltitudeMeters>
            <DistanceMeters>1015.7184788785</DistanceMeters>
          </Trackpoint>
          <Trackpoint>
            <Time>2020-12-05T08:49:28.000Z</Time>
            <Position>
              <LatitudeDegrees>36.80070052854716777801513671875</LatitudeDegrees>
              <LongitudeDegrees>-4.380164332687854766845703125</LongitudeDegrees>
            </Position>
            <AltitudeMeters>780.20001220703125</AltitudeMeters>
            <DistanceMeters>1017.6094866183</DistanceMeters>
          </Trackpoint>
          <Trackpoint>
            <Time>2020-12-05T08:49:29.000Z</Time>
            <Position>
              <LatitudeDegrees>36.80070941336452960968017578125</LatitudeDegrees>
              <LongitudeDegrees>-4.38015393912792205810546875</LongitudeDegrees>
            </Position>
            <AltitudeMeters>780.4000244140625</AltitudeMeters>
            <DistanceMeters>1018.9634088901</DistanceMeters>
          </Trackpoint>
          <Trackpoint>
            <Time>2020-12-05T08:49:30.000Z</Time>
            <Position>
              <LatitudeDegrees>36.8007162027060985565185546875</LatitudeDegrees>
              <LongitudeDegrees>-4.3801450543105602264404296875</LongitudeDegrees>
            </Position>
            <AltitudeMeters>780.4000244140625</AltitudeMeters>
            <DistanceMeters>1020.0551827177</DistanceMeters>
          </Trackpoint>
          <Trackpoint>
            <Time>2020-12-05T08:49:31.000Z</Time>
            <Position>
              <LatitudeDegrees>36.80072651244699954986572265625</LatitudeDegrees>
              <LongitudeDegrees>-4.38013222999870777130126953125</LongitudeDegrees>
            </Position>
            <AltitudeMeters>780.5999755859375</AltitudeMeters>
            <DistanceMeters>1021.6789999246</DistanceMeters>
          </Trackpoint>
          <Trackpoint>
            <Time>2020-12-05T08:49:32.000Z</Time>
            <Position>
              <LatitudeDegrees>36.80074361152946949005126953125</LatitudeDegrees>
              <LongitudeDegrees>-4.38011446036398410797119140625</LongitudeDegrees>
            </Position>
            <AltitudeMeters>780.5999755859375</AltitudeMeters>
            <DistanceMeters>1024.1569934642</DistanceMeters>
          </Trackpoint>
          <Trackpoint>
            <Time>2020-12-05T08:49:33.000Z</Time>
            <Position>
              <LatitudeDegrees>36.8007567711174488067626953125</LatitudeDegrees>
              <LongitudeDegrees>-4.38010021112859249114990234375</LongitudeDegrees>
            </Position>
            <AltitudeMeters>780.79998779296875</AltitudeMeters>
            <DistanceMeters>1026.0974938834</DistanceMeters>
          </Trackpoint>
          <Trackpoint>
            <Time>2020-12-05T08:49:34.000Z</Time>
            <Position>
              <LatitudeDegrees>36.800766997039318084716796875</LatitudeDegrees>
              <LongitudeDegrees>-4.38008780591189861297607421875</LongitudeDegrees>
            </Position>
            <AltitudeMeters>781</AltitudeMeters>
            <DistanceMeters>1027.681905841</DistanceMeters>
          </Trackpoint>
          <Trackpoint>
            <Time>2020-12-05T08:49:35.000Z</Time>
            <Position>
              <LatitudeDegrees>36.80078007280826568603515625</LatitudeDegrees>
              <LongitudeDegrees>-4.380071461200714111328125</LongitudeDegrees>
            </Position>
            <AltitudeMeters>781.20001220703125</AltitudeMeters>
            <DistanceMeters>1029.7398431219</DistanceMeters>
          </Trackpoint>
          <Trackpoint>
            <Time>2020-12-05T08:49:36.000Z</Time>
            <Position>
              <LatitudeDegrees>36.80079122073948383331298828125</LatitudeDegrees>
              <LongitudeDegrees>-4.380057044327259063720703125</LongitudeDegrees>
            </Position>
            <AltitudeMeters>781.4000244140625</AltitudeMeters>
            <DistanceMeters>1031.525232991</DistanceMeters>
          </Trackpoint>
          <Trackpoint>
            <Time>2020-12-05T08:49:37.000Z</Time>
            <Position>
              <LatitudeDegrees>36.80080144666135311126708984375</LatitudeDegrees>
              <LongitudeDegrees>-4.38004262745380401611328125</LongitudeDegrees>
            </Position>
            <AltitudeMeters>781.5999755859375</AltitudeMeters>
            <DistanceMeters>1033.2409849897</DistanceMeters>
          </Trackpoint>
          <Trackpoint>
            <Time>2020-12-05T08:49:38.000Z</Time>
            <Position>
              <LatitudeDegrees>36.80080966092646121978759765625</LatitudeDegrees>
              <LongitudeDegrees>-4.38003231771290302276611328125</LongitudeDegrees>
            </Position>
            <AltitudeMeters>781.5999755859375</AltitudeMeters>
            <DistanceMeters>1034.5369765863</DistanceMeters>
          </Trackpoint>
          <Trackpoint>
            <Time>2020-12-05T08:49:39.000Z</Time>
            <Position>
              <LatitudeDegrees>36.80081636644899845123291015625</LatitudeDegrees>
              <LongitudeDegrees>-4.38001907430589199066162109375</LongitudeDegrees>
            </Position>
            <AltitudeMeters>781.5999755859375</AltitudeMeters>
            <DistanceMeters>1035.9335783591</DistanceMeters>
          </Trackpoint>
          <Trackpoint>
            <Time>2020-12-05T08:49:40.000Z</Time>
            <Position>
              <LatitudeDegrees>36.800825335085391998291015625</LatitudeDegrees>
              <LongitudeDegrees>-4.3800062499940395355224609375</LongitudeDegrees>
            </Position>
            <AltitudeMeters>781.79998779296875</AltitudeMeters>
            <DistanceMeters>1037.4480549739</DistanceMeters>
          </Trackpoint>
          <Trackpoint>
            <Time>2020-12-05T08:49:41.000Z</Time>
            <Position>
              <LatitudeDegrees>36.800833381712436676025390625</LatitudeDegrees>
              <LongitudeDegrees>-4.37999594025313854217529296875</LongitudeDegrees>
            </Position>
            <AltitudeMeters>781.79998779296875</AltitudeMeters>
            <DistanceMeters>1038.730035439</DistanceMeters>
          </Trackpoint>
          <Trackpoint>
            <Time>2020-12-05T08:49:42.000Z</Time>
            <Position>
              <LatitudeDegrees>36.800841428339481353759765625</LatitudeDegrees>
              <LongitudeDegrees>-4.37998638488352298736572265625</LongitudeDegrees>
            </Position>
            <AltitudeMeters>782</AltitudeMeters>
            <DistanceMeters>1039.9653827258</DistanceMeters>
          </Trackpoint>
          <Trackpoint>
            <Time>2020-12-05T08:49:43.000Z</Time>
            <Position>
              <LatitudeDegrees>36.8008496426045894622802734375</LatitudeDegrees>
              <LongitudeDegrees>-4.3799811042845249176025390625</LongitudeDegrees>
            </Position>
            <AltitudeMeters>782.20001220703125</AltitudeMeters>
            <DistanceMeters>1040.9888517617</DistanceMeters>
          </Trackpoint>
          <Trackpoint>
            <Time>2020-12-05T08:49:44.000Z</Time>
            <Position>
              <LatitudeDegrees>36.8008600361645221710205078125</LatitudeDegrees>
              <LongitudeDegrees>-4.379973895847797393798828125</LongitudeDegrees>
            </Position>
            <AltitudeMeters>782.5999755859375</AltitudeMeters>
            <DistanceMeters>1042.3124207362</DistanceMeters>
          </Trackpoint>
          <Trackpoint>
            <Time>2020-12-05T08:49:45.000Z</Time>
            <Position>
              <LatitudeDegrees>36.8008734472095966339111328125</LatitudeDegrees>
              <LongitudeDegrees>-4.37996459193527698516845703125</LongitudeDegrees>
            </Position>
            <AltitudeMeters>782.5999755859375</AltitudeMeters>
            <DistanceMeters>1044.0229015948</DistanceMeters>
          </Trackpoint>
          <Trackpoint>
            <Time>2020-12-05T08:49:46.000Z</Time>
            <Position>
              <LatitudeDegrees>36.80088602006435394287109375</LatitudeDegrees>
              <LongitudeDegrees>-4.37995721586048603057861328125</LongitudeDegrees>
            </Position>
            <AltitudeMeters>782.5999755859375</AltitudeMeters>
            <DistanceMeters>1045.5727404039</DistanceMeters>
          </Trackpoint>
          <Trackpoint>
            <Time>2020-12-05T08:49:47.000Z</Time>
            <Position>
              <LatitudeDegrees>36.80089817382395267486572265625</LatitudeDegrees>
              <LongitudeDegrees>-4.37995352782309055328369140625</LongitudeDegrees>
            </Position>
            <AltitudeMeters>782.79998779296875</AltitudeMeters>
            <DistanceMeters>1046.9661055518</DistanceMeters>
          </Trackpoint>
          <Trackpoint>
            <Time>2020-12-05T08:49:48.000Z</Time>
            <Position>
              <LatitudeDegrees>36.80091024376451969146728515625</LatitudeDegrees>
              <LongitudeDegrees>-4.37995000742375850677490234375</LongitudeDegrees>
            </Position>
            <AltitudeMeters>782.5999755859375</AltitudeMeters>
            <DistanceMeters>1048.3431734707</DistanceMeters>
          </Trackpoint>
          <Trackpoint>
            <Time>2020-12-05T08:49:49.000Z</Time>
            <Position>
              <LatitudeDegrees>36.80092415772378444671630859375</LatitudeDegrees>
              <LongitudeDegrees>-4.37994179315865039825439453125</LongitudeDegrees>
            </Position>
            <AltitudeMeters>782.4000244140625</AltitudeMeters>
            <DistanceMeters>1050.0562919267</DistanceMeters>
          </Trackpoint>
          <Trackpoint>
            <Time>2020-12-05T08:49:50.000Z</Time>
            <Position>
              <LatitudeDegrees>36.80093773640692234039306640625</LatitudeDegrees>
              <LongitudeDegrees>-4.37993374653160572052001953125</LongitudeDegrees>
            </Position>
            <AltitudeMeters>782.4000244140625</AltitudeMeters>
            <DistanceMeters>1051.7294098836</DistanceMeters>
          </Trackpoint>
          <Trackpoint>
            <Time>2020-12-05T08:49:51.000Z</Time>
            <Position>
              <LatitudeDegrees>36.8009505607187747955322265625</LatitudeDegrees>
              <LongitudeDegrees>-4.37992419116199016571044921875</LongitudeDegrees>
            </Position>
            <AltitudeMeters>782.20001220703125</AltitudeMeters>
            <DistanceMeters>1053.3944124266</DistanceMeters>
          </Trackpoint>
          <Trackpoint>
            <Time>2020-12-05T08:49:52.000Z</Time>
            <Position>
              <LatitudeDegrees>36.80096447467803955078125</LatitudeDegrees>
              <LongitudeDegrees>-4.3799163959920406341552734375</LongitudeDegrees>
            </Position>
            <AltitudeMeters>782</AltitudeMeters>
            <DistanceMeters>1055.091643815</DistanceMeters>
          </Trackpoint>
          <Trackpoint>
            <Time>2020-12-05T08:49:53.000Z</Time>
            <Position>
              <LatitudeDegrees>36.80097746662795543670654296875</LatitudeDegrees>
              <LongitudeDegrees>-4.37990826554596424102783203125</LongitudeDegrees>
            </Position>
            <AltitudeMeters>782</AltitudeMeters>
            <DistanceMeters>1056.7098904491</DistanceMeters>
          </Trackpoint>
          <Trackpoint>
            <Time>2020-12-05T08:49:54.000Z</Time>
            <Position>
              <LatitudeDegrees>36.80099330842494964599609375</LatitudeDegrees>
              <LongitudeDegrees>-4.3798979558050632476806640625</LongitudeDegrees>
            </Position>
            <AltitudeMeters>782</AltitudeMeters>
            <DistanceMeters>1058.7009212271</DistanceMeters>
          </Trackpoint>
          <Trackpoint>
            <Time>2020-12-05T08:49:55.000Z</Time>
            <Position>
              <LatitudeDegrees>36.8010092340409755706787109375</LatitudeDegrees>
              <LongitudeDegrees>-4.3798915855586528778076171875</LongitudeDegrees>
            </Position>
            <AltitudeMeters>781.79998779296875</AltitudeMeters>
            <DistanceMeters>1060.5630569242</DistanceMeters>
          </Trackpoint>
          <Trackpoint>
            <Time>2020-12-05T08:49:56.000Z</Time>
            <Position>
              <LatitudeDegrees>36.80102490819990634918212890625</LatitudeDegrees>
              <LongitudeDegrees>-4.3798865564167499542236328125</LongitudeDegrees>
            </Position>
            <AltitudeMeters>782</AltitudeMeters>
            <DistanceMeters>1062.3635561448</DistanceMeters>
          </Trackpoint>
          <Trackpoint>
            <Time>2020-12-05T08:49:57.000Z</Time>
            <Position>
              <LatitudeDegrees>36.8010409176349639892578125</LatitudeDegrees>
              <LongitudeDegrees>-4.37987574376165866851806640625</LongitudeDegrees>
            </Position>
            <AltitudeMeters>782.20001220703125</AltitudeMeters>
            <DistanceMeters>1064.3883165517</DistanceMeters>
          </Trackpoint>
          <Trackpoint>
            <Time>2020-12-05T08:49:58.000Z</Time>
            <Position>
              <LatitudeDegrees>36.80105424486100673675537109375</LatitudeDegrees>
              <LongitudeDegrees>-4.37986962497234344482421875</LongitudeDegrees>
            </Position>
            <AltitudeMeters>782.4000244140625</AltitudeMeters>
            <DistanceMeters>1065.9727285093</DistanceMeters>
          </Trackpoint>
          <Trackpoint>
            <Time>2020-12-05T08:49:59.000Z</Time>
            <Position>
              <LatitudeDegrees>36.8010665662586688995361328125</LatitudeDegrees>
              <LongitudeDegrees>-4.37986115925014019012451171875</LongitudeDegrees>
            </Position>
            <AltitudeMeters>782.79998779296875</AltitudeMeters>
            <DistanceMeters>1067.5399492318</DistanceMeters>
          </Trackpoint>
          <Trackpoint>
            <Time>2020-12-05T08:50:00.000Z</Time>
            <Position>
              <LatitudeDegrees>36.8010759539902210235595703125</LatitudeDegrees>
              <LongitudeDegrees>-4.379855878651142120361328125</LongitudeDegrees>
            </Position>
            <AltitudeMeters>783</AltitudeMeters>
            <DistanceMeters>1068.6881613902</DistanceMeters>
          </Trackpoint>
          <Trackpoint>
            <Time>2020-12-05T08:50:01.000Z</Time>
            <Position>
              <LatitudeDegrees>36.80108450353145599365234375</LatitudeDegrees>
              <LongitudeDegrees>-4.379849843680858612060546875</LongitudeDegrees>
            </Position>
            <AltitudeMeters>783.20001220703125</AltitudeMeters>
            <DistanceMeters>1069.7840629218</DistanceMeters>
          </Trackpoint>
          <Trackpoint>
            <Time>2020-12-05T08:50:02.000Z</Time>
            <Position>
              <LatitudeDegrees>36.80109313689172267913818359375</LatitudeDegrees>
              <LongitudeDegrees>-4.37984322197735309600830078125</LongitudeDegrees>
            </Position>
            <AltitudeMeters>783.4000244140625</AltitudeMeters>
            <DistanceMeters>1070.9124426357</DistanceMeters>
          </Trackpoint>
          <Trackpoint>
            <Time>2020-12-05T08:50:03.000Z</Time>
            <Position>
              <LatitudeDegrees>36.80110135115683078765869140625</LatitudeDegrees>
              <LongitudeDegrees>-4.37983701936900615692138671875</LongitudeDegrees>
            </Position>
            <AltitudeMeters>783.5999755859375</AltitudeMeters>
            <DistanceMeters>1071.98333932</DistanceMeters>
          </Trackpoint>
          <Trackpoint>
            <Time>2020-12-05T08:50:04.000Z</Time>
            <Position>
              <LatitudeDegrees>36.8011104874312877655029296875</LatitudeDegrees>
              <LongitudeDegrees>-4.37983031384646892547607421875</LongitudeDegrees>
            </Position>
            <AltitudeMeters>783.79998779296875</AltitudeMeters>
            <DistanceMeters>1073.1625898329</DistanceMeters>
          </Trackpoint>
          <Trackpoint>
            <Time>2020-12-05T08:50:05.000Z</Time>
            <Position>
              <LatitudeDegrees>36.801119036972522735595703125</LatitudeDegrees>
              <LongitudeDegrees>-4.3798205070197582244873046875</LongitudeDegrees>
            </Position>
            <AltitudeMeters>784</AltitudeMeters>
            <DistanceMeters>1074.4515949011</DistanceMeters>
          </Trackpoint>
          <Trackpoint>
            <Time>2020-12-05T08:50:06.000Z</Time>
            <Position>
              <LatitudeDegrees>36.80112951435148715972900390625</LatitudeDegrees>
              <LongitudeDegrees>-4.37980986200273036956787109375</LongitudeDegrees>
            </Position>
            <AltitudeMeters>784</AltitudeMeters>
            <DistanceMeters>1075.9540991809</DistanceMeters>
          </Trackpoint>
          <Trackpoint>
            <Time>2020-12-05T08:50:07.000Z</Time>
            <Position>
              <LatitudeDegrees>36.80113990791141986846923828125</LatitudeDegrees>
              <LongitudeDegrees>-4.37980064190924167633056640625</LongitudeDegrees>
            </Position>
            <AltitudeMeters>784.20001220703125</AltitudeMeters>
            <DistanceMeters>1077.376328812</DistanceMeters>
          </Trackpoint>
          <Trackpoint>
            <Time>2020-12-05T08:50:08.000Z</Time>
            <Position>
              <LatitudeDegrees>36.80115013383328914642333984375</LatitudeDegrees>
              <LongitudeDegrees>-4.379793517291545867919921875</LongitudeDegrees>
            </Position>
            <AltitudeMeters>784.4000244140625</AltitudeMeters>
            <DistanceMeters>1078.679269475</DistanceMeters>
          </Trackpoint>
          <Trackpoint>
            <Time>2020-12-05T08:50:09.000Z</Time>
            <Position>
              <LatitudeDegrees>36.80115750990808010101318359375</LatitudeDegrees>
              <LongitudeDegrees>-4.37978781759738922119140625</LongitudeDegrees>
            </Position>
            <AltitudeMeters>784.5999755859375</AltitudeMeters>
            <DistanceMeters>1079.6483556168</DistanceMeters>
          </Trackpoint>
          <Trackpoint>
            <Time>2020-12-05T08:50:10.000Z</Time>
            <Position>
              <LatitudeDegrees>36.801163293421268463134765625</LatitudeDegrees>
              <LongitudeDegrees>-4.379784800112247467041015625</LongitudeDegrees>
            </Position>
            <AltitudeMeters>784.79998779296875</AltitudeMeters>
            <DistanceMeters>1080.3466565032</DistanceMeters>
          </Trackpoint>
          <Trackpoint>
            <Time>2020-12-05T08:50:11.000Z</Time>
            <Position>
              <LatitudeDegrees>36.80116974748671054840087890625</LatitudeDegrees>
              <LongitudeDegrees>-4.37978245317935943603515625</LongitudeDegrees>
            </Position>
            <AltitudeMeters>784.79998779296875</AltitudeMeters>
            <DistanceMeters>1081.0948976004</DistanceMeters>
          </Trackpoint>
          <Trackpoint>
            <Time>2020-12-05T08:50:12.000Z</Time>
            <Position>
              <LatitudeDegrees>36.80117645300924777984619140625</LatitudeDegrees>
              <LongitudeDegrees>-4.37977918423712253570556640625</LongitudeDegrees>
            </Position>
            <AltitudeMeters>784.79998779296875</AltitudeMeters>
            <DistanceMeters>1081.9012260099</DistanceMeters>
          </Trackpoint>
          <Trackpoint>
            <Time>2020-12-05T08:50:13.000Z</Time>
            <Position>
              <LatitudeDegrees>36.80118131451308727264404296875</LatitudeDegrees>
              <LongitudeDegrees>-4.37977566383779048919677734375</LongitudeDegrees>
            </Position>
            <AltitudeMeters>784.79998779296875</AltitudeMeters>
            <DistanceMeters>1082.5315619232</DistanceMeters>
          </Trackpoint>
          <Trackpoint>
            <Time>2020-12-05T08:50:14.000Z</Time>
            <Position>
              <LatitudeDegrees>36.80118969641625881195068359375</LatitudeDegrees>
              <LongitudeDegrees>-4.37977465800940990447998046875</LongitudeDegrees>
            </Position>
            <AltitudeMeters>785</AltitudeMeters>
            <DistanceMeters>1083.4722784009</DistanceMeters>
          </Trackpoint>
          <Trackpoint>
            <Time>2020-12-05T08:50:15.000Z</Time>
            <Position>
              <LatitudeDegrees>36.80119774304330348968505859375</LatitudeDegrees>
              <LongitudeDegrees>-4.37977373600006103515625</LongitudeDegrees>
            </Position>
            <AltitudeMeters>785</AltitudeMeters>
            <DistanceMeters>1084.3737809688</DistanceMeters>
          </Trackpoint>
          <Trackpoint>
            <Time>2020-12-05T08:50:16.000Z</Time>
            <Position>
              <LatitudeDegrees>36.8012050352990627288818359375</LatitudeDegrees>
              <LongitudeDegrees>-4.3797715567052364349365234375</LongitudeDegrees>
            </Position>
            <AltitudeMeters>785.20001220703125</AltitudeMeters>
            <DistanceMeters>1085.2130341861</DistanceMeters>
          </Trackpoint>
          <Trackpoint>
            <Time>2020-12-05T08:50:17.000Z</Time>
            <Position>
              <LatitudeDegrees>36.80121182464063167572021484375</LatitudeDegrees>
              <LongitudeDegrees>-4.37976895831525325775146484375</LongitudeDegrees>
            </Position>
            <AltitudeMeters>785.4000244140625</AltitudeMeters>
            <DistanceMeters>1086.0023853593</DistanceMeters>
          </Trackpoint>
          <Trackpoint>
            <Time>2020-12-05T08:50:18.000Z</Time>
            <Position>
              <LatitudeDegrees>36.80122456513345241546630859375</LatitudeDegrees>
              <LongitudeDegrees>-4.37976694665849208831787109375</LongitudeDegrees>
            </Position>
            <AltitudeMeters>785.5999755859375</AltitudeMeters>
            <DistanceMeters>1087.4309501203</DistanceMeters>
          </Trackpoint>
          <Trackpoint>
            <Time>2020-12-05T08:50:19.000Z</Time>
            <Position>
              <LatitudeDegrees>36.8012321926653385162353515625</LatitudeDegrees>
              <LongitudeDegrees>-4.37976309098303318023681640625</LongitudeDegrees>
            </Position>
            <AltitudeMeters>785.5999755859375</AltitudeMeters>
            <DistanceMeters>1088.3522682986</DistanceMeters>
          </Trackpoint>
          <Trackpoint>
            <Time>2020-12-05T08:50:20.000Z</Time>
            <Position>
              <LatitudeDegrees>36.801240406930446624755859375</LatitudeDegrees>
              <LongitudeDegrees>-4.37975521199405193328857421875</LongitudeDegrees>
            </Position>
            <AltitudeMeters>785.79998779296875</AltitudeMeters>
            <DistanceMeters>1089.5083181737</DistanceMeters>
          </Trackpoint>
          <Trackpoint>
            <Time>2020-12-05T08:50:21.000Z</Time>
            <Position>
              <LatitudeDegrees>36.80124686099588871002197265625</LatitudeDegrees>
              <LongitudeDegrees>-4.379744566977024078369140625</LongitudeDegrees>
            </Position>
            <AltitudeMeters>786</AltitudeMeters>
            <DistanceMeters>1090.6952014558</DistanceMeters>
          </Trackpoint>
          <Trackpoint>
            <Time>2020-12-05T08:50:22.000Z</Time>
            <Position>
              <LatitudeDegrees>36.801253817975521087646484375</LatitudeDegrees>
              <LongitudeDegrees>-4.37973149120807647705078125</LongitudeDegrees>
            </Position>
            <AltitudeMeters>786</AltitudeMeters>
            <DistanceMeters>1092.0982540794</DistanceMeters>
          </Trackpoint>
          <Trackpoint>
            <Time>2020-12-05T08:50:23.000Z</Time>
            <Position>
              <LatitudeDegrees>36.80126429535448551177978515625</LatitudeDegrees>
              <LongitudeDegrees>-4.3797205947339534759521484375</LongitudeDegrees>
            </Position>
            <AltitudeMeters>786.20001220703125</AltitudeMeters>
            <DistanceMeters>1093.6186815093</DistanceMeters>
          </Trackpoint>
          <Trackpoint>
            <Time>2020-12-05T08:50:24.000Z</Time>
            <Position>
              <LatitudeDegrees>36.801275275647640228271484375</LatitudeDegrees>
              <LongitudeDegrees>-4.37971011735498905181884765625</LongitudeDegrees>
            </Position>
            <AltitudeMeters>786.4000244140625</AltitudeMeters>
            <DistanceMeters>1095.1568232545</DistanceMeters>
          </Trackpoint>
          <Trackpoint>
            <Time>2020-12-05T08:50:25.000Z</Time>
            <Position>
              <LatitudeDegrees>36.801288686692714691162109375</LatitudeDegrees>
              <LongitudeDegrees>-4.3797011487185955047607421875</LongitudeDegrees>
            </Position>
            <AltitudeMeters>786.4000244140625</AltitudeMeters>
            <DistanceMeters>1096.8513923175</DistanceMeters>
          </Trackpoint>
          <Trackpoint>
            <Time>2020-12-05T08:50:26.000Z</Time>
            <Position>
              <LatitudeDegrees>36.8013005889952182769775390625</LatitudeDegrees>
              <LongitudeDegrees>-4.37969435937702655792236328125</LongitudeDegrees>
            </Position>
            <AltitudeMeters>786.4000244140625</AltitudeMeters>
            <DistanceMeters>1098.3081242641</DistanceMeters>
          </Trackpoint>
          <Trackpoint>
            <Time>2020-12-05T08:50:27.000Z</Time>
            <Position>
              <LatitudeDegrees>36.80131249129772186279296875</LatitudeDegrees>
              <LongitudeDegrees>-4.37968790531158447265625</LongitudeDegrees>
            </Position>
            <AltitudeMeters>786.5999755859375</AltitudeMeters>
            <DistanceMeters>1099.752405282</DistanceMeters>
          </Trackpoint>
          <Trackpoint>
            <Time>2020-12-05T08:50:28.000Z</Time>
            <Position>
              <LatitudeDegrees>36.80132162757217884063720703125</LatitudeDegrees>
              <LongitudeDegrees>-4.37968212179839611053466796875</LongitudeDegrees>
            </Position>
            <AltitudeMeters>786.5999755859375</AltitudeMeters>
            <DistanceMeters>1100.88875951</DistanceMeters>
          </Trackpoint>
          <Trackpoint>
            <Time>2020-12-05T08:50:29.000Z</Time>
            <Position>
              <LatitudeDegrees>36.80133051238954067230224609375</LatitudeDegrees>
              <LongitudeDegrees>-4.37967474572360515594482421875</LongitudeDegrees>
            </Position>
            <AltitudeMeters>786.5999755859375</AltitudeMeters>
            <DistanceMeters>1102.0756427921</DistanceMeters>
          </Trackpoint>
          <Trackpoint>
            <Time>2020-12-05T08:50:30.000Z</Time>
            <Position>
              <LatitudeDegrees>36.80133889429271221160888671875</LatitudeDegrees>
              <LongitudeDegrees>-4.37966577708721160888671875</LongitudeDegrees>
            </Position>
            <AltitudeMeters>786.4000244140625</AltitudeMeters>
            <DistanceMeters>1103.3036585762</DistanceMeters>
          </Trackpoint>
          <Trackpoint>
            <Time>2020-12-05T08:50:31.000Z</Time>
            <Position>
              <LatitudeDegrees>36.801347695291042327880859375</LatitudeDegrees>
              <LongitudeDegrees>-4.37965513207018375396728515625</LongitudeDegrees>
            </Position>
            <AltitudeMeters>786.4000244140625</AltitudeMeters>
            <DistanceMeters>1104.6642340688</DistanceMeters>
          </Trackpoint>
          <Trackpoint>
            <Time>2020-12-05T08:50:32.000Z</Time>
            <Position>
              <LatitudeDegrees>36.8013572506606578826904296875</LatitudeDegrees>
              <LongitudeDegrees>-4.379642307758331298828125</LongitudeDegrees>
            </Position>
            <AltitudeMeters>786.4000244140625</AltitudeMeters>
            <DistanceMeters>1106.2256823196</DistanceMeters>
          </Trackpoint>
          <Trackpoint>
            <Time>2020-12-05T08:50:33.000Z</Time>
            <Position>
              <LatitudeDegrees>36.8013663031160831451416015625</LatitudeDegrees>
              <LongitudeDegrees>-4.37962763942778110504150390625</LongitudeDegrees>
            </Position>
            <AltitudeMeters>786.5999755859375</AltitudeMeters>
            <DistanceMeters>1107.8770705496</DistanceMeters>
          </Trackpoint>
          <Trackpoint>
            <Time>2020-12-05T08:50:34.000Z</Time>
            <Position>
              <LatitudeDegrees>36.80137242190539836883544921875</LatitudeDegrees>
              <LongitudeDegrees>-4.37961372546851634979248046875</LongitudeDegrees>
            </Position>
            <AltitudeMeters>786.4000244140625</AltitudeMeters>
            <DistanceMeters>1109.2961220099</DistanceMeters>
          </Trackpoint>
          <Trackpoint>
            <Time>2020-12-05T08:50:35.000Z</Time>
            <Position>
              <LatitudeDegrees>36.80138013325631618499755859375</LatitudeDegrees>
              <LongitudeDegrees>-4.379601739346981048583984375</LongitudeDegrees>
            </Position>
            <AltitudeMeters>786.5999755859375</AltitudeMeters>
            <DistanceMeters>1110.6666167747</DistanceMeters>
          </Trackpoint>
          <Trackpoint>
            <Time>2020-12-05T08:50:36.000Z</Time>
            <Position>
              <LatitudeDegrees>36.80138491094112396240234375</LatitudeDegrees>
              <LongitudeDegrees>-4.37958841212093830108642578125</LongitudeDegrees>
            </Position>
            <AltitudeMeters>786.5999755859375</AltitudeMeters>
            <DistanceMeters>1111.9660875496</DistanceMeters>
          </Trackpoint>
          <Trackpoint>
            <Time>2020-12-05T08:50:37.000Z</Time>
            <Position>
              <LatitudeDegrees>36.801390945911407470703125</LatitudeDegrees>
              <LongitudeDegrees>-4.37957885675132274627685546875</LongitudeDegrees>
            </Position>
            <AltitudeMeters>786.5999755859375</AltitudeMeters>
            <DistanceMeters>1113.0495587942</DistanceMeters>
          </Trackpoint>
          <Trackpoint>
            <Time>2020-12-05T08:50:38.000Z</Time>
            <Position>
              <LatitudeDegrees>36.80139840580523014068603515625</LatitudeDegrees>
              <LongitudeDegrees>-4.37956796027719974517822265625</LongitudeDegrees>
            </Position>
            <AltitudeMeters>786.79998779296875</AltitudeMeters>
            <DistanceMeters>1114.3280124837</DistanceMeters>
          </Trackpoint>
          <Trackpoint>
            <Time>2020-12-05T08:50:39.000Z</Time>
            <Position>
              <LatitudeDegrees>36.80140729062259197235107421875</LatitudeDegrees>
              <LongitudeDegrees>-4.37955555506050586700439453125</LongitudeDegrees>
            </Position>
            <AltitudeMeters>786.79998779296875</AltitudeMeters>
            <DistanceMeters>1115.8123772139</DistanceMeters>
          </Trackpoint>
          <Trackpoint>
            <Time>2020-12-05T08:50:40.000Z</Time>
            <Position>
              <LatitudeDegrees>36.80141516961157321929931640625</LatitudeDegrees>
              <LongitudeDegrees>-4.37953929416835308074951171875</LongitudeDegrees>
            </Position>
            <AltitudeMeters>786.79998779296875</AltitudeMeters>
            <DistanceMeters>1117.5069462769</DistanceMeters>
          </Trackpoint>
          <Trackpoint>
            <Time>2020-12-05T08:50:41.000Z</Time>
            <Position>
              <LatitudeDegrees>36.80142338387668132781982421875</LatitudeDegrees>
              <LongitudeDegrees>-4.3795227818191051483154296875</LongitudeDegrees>
            </Position>
            <AltitudeMeters>786.79998779296875</AltitudeMeters>
            <DistanceMeters>1119.2384154159</DistanceMeters>
          </Trackpoint>
          <Trackpoint>
            <Time>2020-12-05T08:50:42.000Z</Time>
            <Position>
              <LatitudeDegrees>36.80143310688436031341552734375</LatitudeDegrees>
              <LongitudeDegrees>-4.37950643710792064666748046875</LongitudeDegrees>
            </Position>
            <AltitudeMeters>786.79998779296875</AltitudeMeters>
            <DistanceMeters>1121.0514095763</DistanceMeters>
          </Trackpoint>
          <Trackpoint>
            <Time>2020-12-05T08:50:43.000Z</Time>
            <Position>
              <LatitudeDegrees>36.80144165642559528350830078125</LatitudeDegrees>
              <LongitudeDegrees>-4.37949285842478275299072265625</LongitudeDegrees>
            </Position>
            <AltitudeMeters>786.79998779296875</AltitudeMeters>
            <DistanceMeters>1122.5895513215</DistanceMeters>
          </Trackpoint>
          <Trackpoint>
            <Time>2020-12-05T08:50:44.000Z</Time>
            <Position>
              <LatitudeDegrees>36.80144953541457653045654296875</LatitudeDegrees>
              <LongitudeDegrees>-4.37948062084615230560302734375</LongitudeDegrees>
            </Position>
            <AltitudeMeters>786.79998779296875</AltitudeMeters>
            <DistanceMeters>1123.9861530944</DistanceMeters>
          </Trackpoint>
          <Trackpoint>
            <Time>2020-12-05T08:50:45.000Z</Time>
            <Position>
              <LatitudeDegrees>36.8014566600322723388671875</LatitudeDegrees>
              <LongitudeDegrees>-4.3794661201536655426025390625</LongitudeDegrees>
            </Position>
            <AltitudeMeters>786.79998779296875</AltitudeMeters>
            <DistanceMeters>1125.5036080338</DistanceMeters>
          </Trackpoint>
          <Trackpoint>
            <Time>2020-12-05T08:50:46.000Z</Time>
            <Position>
              <LatitudeDegrees>36.80146344937384128570556640625</LatitudeDegrees>
              <LongitudeDegrees>-4.3794496916234493255615234375</LongitudeDegrees>
            </Position>
            <AltitudeMeters>786.79998779296875</AltitudeMeters>
            <DistanceMeters>1127.1495190074</DistanceMeters>
          </Trackpoint>
          <Trackpoint>
            <Time>2020-12-05T08:50:47.000Z</Time>
            <Position>
              <LatitudeDegrees>36.801469065248966217041015625</LatitudeDegrees>
              <LongitudeDegrees>-4.37943720258772373199462890625</LongitudeDegrees>
            </Position>
            <AltitudeMeters>787</AltitudeMeters>
            <DistanceMeters>1128.427972697</DistanceMeters>
          </Trackpoint>
          <Trackpoint>
            <Time>2020-12-05T08:50:48.000Z</Time>
            <Position>
              <LatitudeDegrees>36.80147384293377399444580078125</LatitudeDegrees>
              <LongitudeDegrees>-4.379423372447490692138671875</LongitudeDegrees>
            </Position>
            <AltitudeMeters>787</AltitudeMeters>
            <DistanceMeters>1129.7651170931</DistanceMeters>
          </Trackpoint>
          <Trackpoint>
            <Time>2020-12-05T08:50:49.000Z</Time>
            <Position>
              <LatitudeDegrees>36.8014782853424549102783203125</LatitudeDegrees>
              <LongitudeDegrees>-4.37941071577370166778564453125</LongitudeDegrees>
            </Position>
            <AltitudeMeters>787.20001220703125</AltitudeMeters>
            <DistanceMeters>1130.9931328772</DistanceMeters>
          </Trackpoint>
          <Trackpoint>
            <Time>2020-12-05T08:50:50.000Z</Time>
            <Position>
              <LatitudeDegrees>36.8014836497604846954345703125</LatitudeDegrees>
              <LongitudeDegrees>-4.37939613126218318939208984375</LongitudeDegrees>
            </Position>
            <AltitudeMeters>787.4000244140625</AltitudeMeters>
            <DistanceMeters>1132.4216976382</DistanceMeters>
          </Trackpoint>
          <Trackpoint>
            <Time>2020-12-05T08:50:51.000Z</Time>
            <Position>
              <LatitudeDegrees>36.80149379186332225799560546875</LatitudeDegrees>
              <LongitudeDegrees>-4.379385821521282196044921875</LongitudeDegrees>
            </Position>
            <AltitudeMeters>787.79998779296875</AltitudeMeters>
            <DistanceMeters>1133.8784295848</DistanceMeters>
          </Trackpoint>
          <Trackpoint>
            <Time>2020-12-05T08:50:52.000Z</Time>
            <Position>
              <LatitudeDegrees>36.801503933966159820556640625</LatitudeDegrees>
              <LongitudeDegrees>-4.37937484122812747955322265625</LongitudeDegrees>
            </Position>
            <AltitudeMeters>788.20001220703125</AltitudeMeters>
            <DistanceMeters>1135.3688653618</DistanceMeters>
          </Trackpoint>
          <Trackpoint>
            <Time>2020-12-05T08:50:53.000Z</Time>
            <Position>
              <LatitudeDegrees>36.80151474662125110626220703125</LatitudeDegrees>
              <LongitudeDegrees>-4.37936411239206790924072265625</LongitudeDegrees>
            </Position>
            <AltitudeMeters>788.4000244140625</AltitudeMeters>
            <DistanceMeters>1136.907007107</DistanceMeters>
          </Trackpoint>
          <Trackpoint>
            <Time>2020-12-05T08:50:54.000Z</Time>
            <Position>
              <LatitudeDegrees>36.80152706801891326904296875</LatitudeDegrees>
              <LongitudeDegrees>-4.379350282251834869384765625</LongitudeDegrees>
            </Position>
            <AltitudeMeters>788.5999755859375</AltitudeMeters>
            <DistanceMeters>1138.7496434637</DistanceMeters>
          </Trackpoint>
          <Trackpoint>
            <Time>2020-12-05T08:50:55.000Z</Time>
            <Position>
              <LatitudeDegrees>36.8015386350452899932861328125</LatitudeDegrees>
              <LongitudeDegrees>-4.37933729030191898345947265625</LongitudeDegrees>
            </Position>
            <AltitudeMeters>788.79998779296875</AltitudeMeters>
            <DistanceMeters>1140.4811126027</DistanceMeters>
          </Trackpoint>
          <Trackpoint>
            <Time>2020-12-05T08:50:56.000Z</Time>
            <Position>
              <LatitudeDegrees>36.801548860967159271240234375</LatitudeDegrees>
              <LongitudeDegrees>-4.37932379543781280517578125</LongitudeDegrees>
            </Position>
            <AltitudeMeters>789</AltitudeMeters>
            <DistanceMeters>1142.1325008326</DistanceMeters>
          </Trackpoint>
          <Trackpoint>
            <Time>2020-12-05T08:50:57.000Z</Time>
            <Position>
              <LatitudeDegrees>36.80155598558485507965087890625</LatitudeDegrees>
              <LongitudeDegrees>-4.37931281514465808868408203125</LongitudeDegrees>
            </Position>
            <AltitudeMeters>789</AltitudeMeters>
            <DistanceMeters>1143.3859892854</DistanceMeters>
          </Trackpoint>
          <Trackpoint>
            <Time>2020-12-05T08:50:58.000Z</Time>
            <Position>
              <LatitudeDegrees>36.8015621043741703033447265625</LatitudeDegrees>
              <LongitudeDegrees>-4.37930275686085224151611328125</LongitudeDegrees>
            </Position>
            <AltitudeMeters>789</AltitudeMeters>
            <DistanceMeters>1144.5103605329</DistanceMeters>
          </Trackpoint>
          <Trackpoint>
            <Time>2020-12-05T08:50:59.000Z</Time>
            <Position>
              <LatitudeDegrees>36.8015691451728343963623046875</LatitudeDegrees>
              <LongitudeDegrees>-4.3792887590825557708740234375</LongitudeDegrees>
            </Position>
            <AltitudeMeters>789</AltitudeMeters>
            <DistanceMeters>1145.9825080617</DistanceMeters>
          </Trackpoint>
          <Trackpoint>
            <Time>2020-12-05T08:51:00.000Z</Time>
            <Position>
              <LatitudeDegrees>36.80157308466732501983642578125</LatitudeDegrees>
              <LongitudeDegrees>-4.37927191145718097686767578125</LongitudeDegrees>
            </Position>
            <AltitudeMeters>788.79998779296875</AltitudeMeters>
            <DistanceMeters>1147.5439563125</DistanceMeters>
          </Trackpoint>
          <Trackpoint>
            <Time>2020-12-05T08:51:01.000Z</Time>
            <Position>
              <LatitudeDegrees>36.80157911963760852813720703125</LatitudeDegrees>
              <LongitudeDegrees>-4.37925363890826702117919921875</LongitudeDegrees>
            </Position>
            <AltitudeMeters>788.5999755859375</AltitudeMeters>
            <DistanceMeters>1149.3064393044</DistanceMeters>
          </Trackpoint>
          <Trackpoint>
            <Time>2020-12-05T08:51:02.000Z</Time>
            <Position>
              <LatitudeDegrees>36.80158515460789203643798828125</LatitudeDegrees>
              <LongitudeDegrees>-4.3792377971112728118896484375</LongitudeDegrees>
            </Position>
            <AltitudeMeters>788.4000244140625</AltitudeMeters>
            <DistanceMeters>1150.8678875552</DistanceMeters>
          </Trackpoint>
          <Trackpoint>
            <Time>2020-12-05T08:51:03.000Z</Time>
            <Position>
              <LatitudeDegrees>36.80159001611173152923583984375</LatitudeDegrees>
              <LongitudeDegrees>-4.37922379933297634124755859375</LongitudeDegrees>
            </Position>
            <AltitudeMeters>788.4000244140625</AltitudeMeters>
            <DistanceMeters>1152.2284630477</DistanceMeters>
          </Trackpoint>
          <Trackpoint>
            <Time>2020-12-05T08:51:04.000Z</Time>
            <Position>
              <LatitudeDegrees>36.801595799624919891357421875</LatitudeDegrees>
              <LongitudeDegrees>-4.37921122647821903228759765625</LongitudeDegrees>
            </Position>
            <AltitudeMeters>788.4000244140625</AltitudeMeters>
            <DistanceMeters>1153.5244546444</DistanceMeters>
          </Trackpoint>
          <Trackpoint>
            <Time>2020-12-05T08:51:05.000Z</Time>
            <Position>
              <LatitudeDegrees>36.80160124786198139190673828125</LatitudeDegrees>
              <LongitudeDegrees>-4.37919848598539829254150390625</LongitudeDegrees>
            </Position>
            <AltitudeMeters>788.20001220703125</AltitudeMeters>
            <DistanceMeters>1154.8134597125</DistanceMeters>
          </Trackpoint>
          <Trackpoint>
            <Time>2020-12-05T08:51:06.000Z</Time>
            <Position>
              <LatitudeDegrees>36.80160560645163059234619140625</LatitudeDegrees>
              <LongitudeDegrees>-4.3791838176548480987548828125</LongitudeDegrees>
            </Position>
            <AltitudeMeters>788.20001220703125</AltitudeMeters>
            <DistanceMeters>1156.2100614854</DistanceMeters>
          </Trackpoint>
          <Trackpoint>
            <Time>2020-12-05T08:51:07.000Z</Time>
            <Position>
              <LatitudeDegrees>36.8016087077558040618896484375</LatitudeDegrees>
              <LongitudeDegrees>-4.37916412018239498138427734375</LongitudeDegrees>
            </Position>
            <AltitudeMeters>788.20001220703125</AltitudeMeters>
            <DistanceMeters>1157.9979784468</DistanceMeters>
          </Trackpoint>
          <Trackpoint>
            <Time>2020-12-05T08:51:08.000Z</Time>
            <Position>
              <LatitudeDegrees>36.801615245640277862548828125</LatitudeDegrees>
              <LongitudeDegrees>-4.37915104441344738006591796875</LongitudeDegrees>
            </Position>
            <AltitudeMeters>788.20001220703125</AltitudeMeters>
            <DistanceMeters>1159.3750463657</DistanceMeters>
          </Trackpoint>
          <Trackpoint>
            <Time>2020-12-05T08:51:09.000Z</Time>
            <Position>
              <LatitudeDegrees>36.80162320844829082489013671875</LatitudeDegrees>
              <LongitudeDegrees>-4.37913729809224605560302734375</LongitudeDegrees>
            </Position>
            <AltitudeMeters>788.20001220703125</AltitudeMeters>
            <DistanceMeters>1160.8895229805</DistanceMeters>
          </Trackpoint>
          <Trackpoint>
            <Time>2020-12-05T08:51:10.000Z</Time>
            <Position>
              <LatitudeDegrees>36.80163041688501834869384765625</LatitudeDegrees>
              <LongitudeDegrees>-4.37912539578974246978759765625</LongitudeDegrees>
            </Position>
            <AltitudeMeters>788.4000244140625</AltitudeMeters>
            <DistanceMeters>1162.2198969817</DistanceMeters>
          </Trackpoint>
          <Trackpoint>
            <Time>2020-12-05T08:51:11.000Z</Time>
            <Position>
              <LatitudeDegrees>36.80163645185530185699462890625</LatitudeDegrees>
              <LongitudeDegrees>-4.37911667861044406890869140625</LongitudeDegrees>
            </Position>
            <AltitudeMeters>788.5999755859375</AltitudeMeters>
            <DistanceMeters>1163.2433660176</DistanceMeters>
          </Trackpoint>
          <Trackpoint>
            <Time>2020-12-05T08:51:12.000Z</Time>
            <Position>
              <LatitudeDegrees>36.80164148099720478057861328125</LatitudeDegrees>
              <LongitudeDegrees>-4.37910980544984340667724609375</LongitudeDegrees>
            </Position>
            <AltitudeMeters>788.79998779296875</AltitudeMeters>
            <DistanceMeters>1164.0717897074</DistanceMeters>
          </Trackpoint>
          <Trackpoint>
            <Time>2020-12-05T08:51:13.000Z</Time>
            <Position>
              <LatitudeDegrees>36.80164651013910770416259765625</LatitudeDegrees>
              <LongitudeDegrees>-4.37909991480410099029541015625</LongitudeDegrees>
            </Position>
            <AltitudeMeters>788.79998779296875</AltitudeMeters>
            <DistanceMeters>1165.1170835655</DistanceMeters>
          </Trackpoint>
          <Trackpoint>
            <Time>2020-12-05T08:51:14.000Z</Time>
            <Position>
              <LatitudeDegrees>36.80165179073810577392578125</LatitudeDegrees>
              <LongitudeDegrees>-4.37909136526286602020263671875</LongitudeDegrees>
            </Position>
            <AltitudeMeters>789</AltitudeMeters>
            <DistanceMeters>1166.0861697072</DistanceMeters>
          </Trackpoint>
          <Trackpoint>
            <Time>2020-12-05T08:51:15.000Z</Time>
            <Position>
              <LatitudeDegrees>36.80165941826999187469482421875</LatitudeDegrees>
              <LongitudeDegrees>-4.3790825642645359039306640625</LongitudeDegrees>
            </Position>
            <AltitudeMeters>789</AltitudeMeters>
            <DistanceMeters>1167.2422195823</DistanceMeters>
          </Trackpoint>
          <Trackpoint>
            <Time>2020-12-05T08:51:16.000Z</Time>
            <Position>
              <LatitudeDegrees>36.80166545324027538299560546875</LatitudeDegrees>
              <LongitudeDegrees>-4.37907376326620578765869140625</LongitudeDegrees>
            </Position>
            <AltitudeMeters>789</AltitudeMeters>
            <DistanceMeters>1168.2744739213</DistanceMeters>
          </Trackpoint>
          <Trackpoint>
            <Time>2020-12-05T08:51:17.000Z</Time>
            <Position>
              <LatitudeDegrees>36.80167324841022491455078125</LatitudeDegrees>
              <LongitudeDegrees>-4.3790661357343196868896484375</LongitudeDegrees>
            </Position>
            <AltitudeMeters>789.20001220703125</AltitudeMeters>
            <DistanceMeters>1169.3744876683</DistanceMeters>
          </Trackpoint>
          <Trackpoint>
            <Time>2020-12-05T08:51:18.000Z</Time>
            <Position>
              <LatitudeDegrees>36.8016811273992061614990234375</LatitudeDegrees>
              <LongitudeDegrees>-4.3790547363460063934326171875</LongitudeDegrees>
            </Position>
            <AltitudeMeters>789.20001220703125</AltitudeMeters>
            <DistanceMeters>1170.7150044389</DistanceMeters>
          </Trackpoint>
          <Trackpoint>
            <Time>2020-12-05T08:51:19.000Z</Time>
            <Position>
              <LatitudeDegrees>36.80169244296848773956298828125</LatitudeDegrees>
              <LongitudeDegrees>-4.3790399841964244842529296875</LongitudeDegrees>
            </Position>
            <AltitudeMeters>789.4000244140625</AltitudeMeters>
            <DistanceMeters>1172.5354543984</DistanceMeters>
          </Trackpoint>
          <Trackpoint>
            <Time>2020-12-05T08:51:20.000Z</Time>
            <Position>
              <LatitudeDegrees>36.80170350708067417144775390625</LatitudeDegrees>
              <LongitudeDegrees>-4.37902632169425487518310546875</LongitudeDegrees>
            </Position>
            <AltitudeMeters>789.4000244140625</AltitudeMeters>
            <DistanceMeters>1174.2669235374</DistanceMeters>
          </Trackpoint>
          <Trackpoint>
            <Time>2020-12-05T08:51:21.000Z</Time>
            <Position>
              <LatitudeDegrees>36.8017139844596385955810546875</LatitudeDegrees>
              <LongitudeDegrees>-4.3790111504495143890380859375</LongitudeDegrees>
            </Position>
            <AltitudeMeters>789.4000244140625</AltitudeMeters>
            <DistanceMeters>1176.0548404989</DistanceMeters>
          </Trackpoint>
          <Trackpoint>
            <Time>2020-12-05T08:51:22.000Z</Time>
            <Position>
              <LatitudeDegrees>36.80172228254377841949462890625</LatitudeDegrees>
              <LongitudeDegrees>-4.378998242318630218505859375</LongitudeDegrees>
            </Position>
            <AltitudeMeters>789.5999755859375</AltitudeMeters>
            <DistanceMeters>1177.5331092496</DistanceMeters>
          </Trackpoint>
          <Trackpoint>
            <Time>2020-12-05T08:51:23.000Z</Time>
            <Position>
              <LatitudeDegrees>36.8017304129898548126220703125</LatitudeDegrees>
              <LongitudeDegrees>-4.3789886869490146636962890625</LongitudeDegrees>
            </Position>
            <AltitudeMeters>789.5999755859375</AltitudeMeters>
            <DistanceMeters>1178.7793729249</DistanceMeters>
          </Trackpoint>
          <Trackpoint>
            <Time>2020-12-05T08:51:24.000Z</Time>
            <Position>
              <LatitudeDegrees>36.801735945045948028564453125</LatitudeDegrees>
              <LongitudeDegrees>-4.378982819616794586181640625</LongitudeDegrees>
            </Position>
            <AltitudeMeters>790</AltitudeMeters>
            <DistanceMeters>1179.5912815284</DistanceMeters>
          </Trackpoint>
          <Trackpoint>
            <Time>2020-12-05T08:51:25.000Z</Time>
            <Position>
              <LatitudeDegrees>36.80174072273075580596923828125</LatitudeDegrees>
              <LongitudeDegrees>-4.378974772989749908447265625</LongitudeDegrees>
            </Position>
            <AltitudeMeters>790.20001220703125</AltitudeMeters>
            <DistanceMeters>1180.4877617588</DistanceMeters>
          </Trackpoint>
          <Trackpoint>
            <Time>2020-12-05T08:51:26.000Z</Time>
            <Position>
              <LatitudeDegrees>36.8017475120723247528076171875</LatitudeDegrees>
              <LongitudeDegrees>-4.37896513380110263824462890625</LongitudeDegrees>
            </Position>
            <AltitudeMeters>790.4000244140625</AltitudeMeters>
            <DistanceMeters>1181.6280823313</DistanceMeters>
          </Trackpoint>
          <Trackpoint>
            <Time>2020-12-05T08:51:27.000Z</Time>
            <Position>
              <LatitudeDegrees>36.801754720509052276611328125</LatitudeDegrees>
              <LongitudeDegrees>-4.378953985869884490966796875</LongitudeDegrees>
            </Position>
            <AltitudeMeters>790.4000244140625</AltitudeMeters>
            <DistanceMeters>1182.9029994893</DistanceMeters>
          </Trackpoint>
          <Trackpoint>
            <Time>2020-12-05T08:51:28.000Z</Time>
            <Position>
              <LatitudeDegrees>36.80176368914544582366943359375</LatitudeDegrees>
              <LongitudeDegrees>-4.37894300557672977447509765625</LongitudeDegrees>
            </Position>
            <AltitudeMeters>790.5999755859375</AltitudeMeters>
            <DistanceMeters>1184.2996012622</DistanceMeters>
          </Trackpoint>
          <Trackpoint>
            <Time>2020-12-05T08:51:29.000Z</Time>
            <Position>
              <LatitudeDegrees>36.8017723225057125091552734375</LatitudeDegrees>
              <LongitudeDegrees>-4.37892858870327472686767578125</LongitudeDegrees>
            </Position>
            <AltitudeMeters>790.5999755859375</AltitudeMeters>
            <DistanceMeters>1185.9010199176</DistanceMeters>
          </Trackpoint>
          <Trackpoint>
            <Time>2020-12-05T08:51:30.000Z</Time>
            <Position>
              <LatitudeDegrees>36.801781542599201202392578125</LatitudeDegrees>
              <LongitudeDegrees>-4.3789139203727245330810546875</LongitudeDegrees>
            </Position>
            <AltitudeMeters>790.79998779296875</AltitudeMeters>
            <DistanceMeters>1187.5633085183</DistanceMeters>
          </Trackpoint>
          <Trackpoint>
            <Time>2020-12-05T08:51:31.000Z</Time>
            <Position>
              <LatitudeDegrees>36.80178984068334102630615234375</LatitudeDegrees>
              <LongitudeDegrees>-4.3789060413837432861328125</LongitudeDegrees>
            </Position>
            <AltitudeMeters>790.79998779296875</AltitudeMeters>
            <DistanceMeters>1188.7193583934</DistanceMeters>
          </Trackpoint>
          <Trackpoint>
            <Time>2020-12-05T08:51:32.000Z</Time>
            <Position>
              <LatitudeDegrees>36.80179822258651256561279296875</LatitudeDegrees>
              <LongitudeDegrees>-4.3788993358612060546875</LongitudeDegrees>
            </Position>
            <AltitudeMeters>791</AltitudeMeters>
            <DistanceMeters>1189.8275507938</DistanceMeters>
          </Trackpoint>
          <Trackpoint>
            <Time>2020-12-05T08:51:33.000Z</Time>
            <Position>
              <LatitudeDegrees>36.80180660448968410491943359375</LatitudeDegrees>
              <LongitudeDegrees>-4.37889254651963710784912109375</LongitudeDegrees>
            </Position>
            <AltitudeMeters>791</AltitudeMeters>
            <DistanceMeters>1190.9357431942</DistanceMeters>
          </Trackpoint>
          <Trackpoint>
            <Time>2020-12-05T08:51:34.000Z</Time>
            <Position>
              <LatitudeDegrees>36.8018165789544582366943359375</LatitudeDegrees>
              <LongitudeDegrees>-4.3788810633122920989990234375</LongitudeDegrees>
            </Position>
            <AltitudeMeters>791</AltitudeMeters>
            <DistanceMeters>1192.444245519</DistanceMeters>
          </Trackpoint>
          <Trackpoint>
            <Time>2020-12-05T08:51:35.000Z</Time>
            <Position>
              <LatitudeDegrees>36.8018263019621372222900390625</LatitudeDegrees>
              <LongitudeDegrees>-4.37886756844818592071533203125</LongitudeDegrees>
            </Position>
            <AltitudeMeters>791</AltitudeMeters>
            <DistanceMeters>1194.0624921531</DistanceMeters>
          </Trackpoint>
          <Trackpoint>
            <Time>2020-12-05T08:51:36.000Z</Time>
            <Position>
              <LatitudeDegrees>36.80183443240821361541748046875</LatitudeDegrees>
              <LongitudeDegrees>-4.3788545764982700347900390625</LongitudeDegrees>
            </Position>
            <AltitudeMeters>791</AltitudeMeters>
            <DistanceMeters>1195.5315695065</DistanceMeters>
          </Trackpoint>
          <Trackpoint>
            <Time>2020-12-05T08:51:37.000Z</Time>
            <Position>
              <LatitudeDegrees>36.80184097029268741607666015625</LatitudeDegrees>
              <LongitudeDegrees>-4.37884502112865447998046875</LongitudeDegrees>
            </Position>
            <AltitudeMeters>791</AltitudeMeters>
            <DistanceMeters>1196.6478806411</DistanceMeters>
          </Trackpoint>
          <Trackpoint>
            <Time>2020-12-05T08:51:38.000Z</Time>
            <Position>
              <LatitudeDegrees>36.80184499360620975494384765625</LatitudeDegrees>
              <LongitudeDegrees>-4.378838650882244110107421875</LongitudeDegrees>
            </Position>
            <AltitudeMeters>791</AltitudeMeters>
            <DistanceMeters>1197.3715825367</DistanceMeters>
          </Trackpoint>
          <Trackpoint>
            <Time>2020-12-05T08:51:39.000Z</Time>
            <Position>
              <LatitudeDegrees>36.801848597824573516845703125</LatitudeDegrees>
              <LongitudeDegrees>-4.37882616184651851654052734375</LongitudeDegrees>
            </Position>
            <AltitudeMeters>791</AltitudeMeters>
            <DistanceMeters>1198.5584658188</DistanceMeters>
          </Trackpoint>
          <Trackpoint>
            <Time>2020-12-05T08:51:40.000Z</Time>
            <Position>
              <LatitudeDegrees>36.80185454897582530975341796875</LatitudeDegrees>
              <LongitudeDegrees>-4.37881375662982463836669921875</LongitudeDegrees>
            </Position>
            <AltitudeMeters>791.20001220703125</AltitudeMeters>
            <DistanceMeters>1199.8474708869</DistanceMeters>
          </Trackpoint>
          <Trackpoint>
            <Time>2020-12-05T08:51:41.000Z</Time>
            <Position>
              <LatitudeDegrees>36.80186108686029911041259765625</LatitudeDegrees>
              <LongitudeDegrees>-4.37880420126020908355712890625</LongitudeDegrees>
            </Position>
            <AltitudeMeters>791.4000244140625</AltitudeMeters>
            <DistanceMeters>1200.9637820215</DistanceMeters>
          </Trackpoint>
          <Trackpoint>
            <Time>2020-12-05T08:51:42.000Z</Time>
            <Position>
              <LatitudeDegrees>36.80187148042023181915283203125</LatitudeDegrees>
              <LongitudeDegrees>-4.37879749573767185211181640625</LongitudeDegrees>
            </Position>
            <AltitudeMeters>791.5999755859375</AltitudeMeters>
            <DistanceMeters>1202.2667226846</DistanceMeters>
          </Trackpoint>
          <Trackpoint>
            <Time>2020-12-05T08:51:43.000Z</Time>
            <Position>
              <LatitudeDegrees>36.8018839694559574127197265625</LatitudeDegrees>
              <LongitudeDegrees>-4.37878894619643688201904296875</LongitudeDegrees>
            </Position>
            <AltitudeMeters>791.79998779296875</AltitudeMeters>
            <DistanceMeters>1203.8511346422</DistanceMeters>
          </Trackpoint>
          <Trackpoint>
            <Time>2020-12-05T08:51:44.000Z</Time>
            <Position>
              <LatitudeDegrees>36.80189997889101505279541015625</LatitudeDegrees>
              <LongitudeDegrees>-4.3787801451981067657470703125</LongitudeDegrees>
            </Position>
            <AltitudeMeters>792</AltitudeMeters>
            <DistanceMeters>1205.7986027694</DistanceMeters>
          </Trackpoint>
          <Trackpoint>
            <Time>2020-12-05T08:51:45.000Z</Time>
            <Position>
              <LatitudeDegrees>36.801914982497692108154296875</LatitudeDegrees>
              <LongitudeDegrees>-4.3787692487239837646484375</LongitudeDegrees>
            </Position>
            <AltitudeMeters>792.20001220703125</AltitudeMeters>
            <DistanceMeters>1207.7297738057</DistanceMeters>
          </Trackpoint>
          <Trackpoint>
            <Time>2020-12-05T08:51:46.000Z</Time>
            <Position>
              <LatitudeDegrees>36.80192847736179828643798828125</LatitudeDegrees>
              <LongitudeDegrees>-4.378762543201446533203125</LongitudeDegrees>
            </Position>
            <AltitudeMeters>792.4000244140625</AltitudeMeters>
            <DistanceMeters>1209.3480204398</DistanceMeters>
          </Trackpoint>
          <Trackpoint>
            <Time>2020-12-05T08:51:47.000Z</Time>
            <Position>
              <LatitudeDegrees>36.8019426427781581878662109375</LatitudeDegrees>
              <LongitudeDegrees>-4.3787573464214801788330078125</LongitudeDegrees>
            </Position>
            <AltitudeMeters>792.5999755859375</AltitudeMeters>
            <DistanceMeters>1210.9939314134</DistanceMeters>
          </Trackpoint>
          <Trackpoint>
            <Time>2020-12-05T08:51:48.000Z</Time>
            <Position>
              <LatitudeDegrees>36.80195680819451808929443359375</LatitudeDegrees>
              <LongitudeDegrees>-4.37875122763216495513916015625</LongitudeDegrees>
            </Position>
            <AltitudeMeters>792.79998779296875</AltitudeMeters>
            <DistanceMeters>1212.6670493703</DistanceMeters>
          </Trackpoint>
          <Trackpoint>
            <Time>2020-12-05T08:51:49.000Z</Time>
            <Position>
              <LatitudeDegrees>36.8019684590399265289306640625</LatitudeDegrees>
              <LongitudeDegrees>-4.3787415884435176849365234375</LongitudeDegrees>
            </Position>
            <AltitudeMeters>792.79998779296875</AltitudeMeters>
            <DistanceMeters>1214.22270373</DistanceMeters>
          </Trackpoint>
          <Trackpoint>
            <Time>2020-12-05T08:51:50.000Z</Time>
            <Position>
              <LatitudeDegrees>36.80197809822857379913330078125</LatitudeDegrees>
              <LongitudeDegrees>-4.37873303890228271484375</LongitudeDegrees>
            </Position>
            <AltitudeMeters>793</AltitudeMeters>
            <DistanceMeters>1215.539432509</DistanceMeters>
          </Trackpoint>
          <Trackpoint>
            <Time>2020-12-05T08:51:51.000Z</Time>
            <Position>
              <LatitudeDegrees>36.801986731588840484619140625</LatitudeDegrees>
              <LongitudeDegrees>-4.37872608192265033721923828125</LongitudeDegrees>
            </Position>
            <AltitudeMeters>793.20001220703125</AltitudeMeters>
            <DistanceMeters>1216.6876446674</DistanceMeters>
          </Trackpoint>
          <Trackpoint>
            <Time>2020-12-05T08:51:52.000Z</Time>
            <Position>
              <LatitudeDegrees>36.801994107663631439208984375</LatitudeDegrees>
              <LongitudeDegrees>-4.37871887348592281341552734375</LongitudeDegrees>
            </Position>
            <AltitudeMeters>793.4000244140625</AltitudeMeters>
            <DistanceMeters>1217.7372490339</DistanceMeters>
          </Trackpoint>
          <Trackpoint>
            <Time>2020-12-05T08:51:53.000Z</Time>
            <Position>
              <LatitudeDegrees>36.80200072936713695526123046875</LatitudeDegrees>
              <LongitudeDegrees>-4.378710575401782989501953125</LongitudeDegrees>
            </Position>
            <AltitudeMeters>793.4000244140625</AltitudeMeters>
            <DistanceMeters>1218.7738681042</DistanceMeters>
          </Trackpoint>
          <Trackpoint>
            <Time>2020-12-05T08:51:54.000Z</Time>
            <Position>
              <LatitudeDegrees>36.80200508795678615570068359375</LatitudeDegrees>
              <LongitudeDegrees>-4.37870177440345287322998046875</LongitudeDegrees>
            </Position>
            <AltitudeMeters>793.4000244140625</AltitudeMeters>
            <DistanceMeters>1219.6951862825</DistanceMeters>
          </Trackpoint>
          <Trackpoint>
            <Time>2020-12-05T08:51:55.000Z</Time>
            <Position>
              <LatitudeDegrees>36.80201112292706966400146484375</LatitudeDegrees>
              <LongitudeDegrees>-4.37869121320545673370361328125</LongitudeDegrees>
            </Position>
            <AltitudeMeters>793.5999755859375</AltitudeMeters>
            <DistanceMeters>1220.8512361576</DistanceMeters>
          </Trackpoint>
          <Trackpoint>
            <Time>2020-12-05T08:51:56.000Z</Time>
            <Position>
              <LatitudeDegrees>36.80201925337314605712890625</LatitudeDegrees>
              <LongitudeDegrees>-4.37868283130228519439697265625</LongitudeDegrees>
            </Position>
            <AltitudeMeters>793.5999755859375</AltitudeMeters>
            <DistanceMeters>1222.022804175</DistanceMeters>
          </Trackpoint>
          <Trackpoint>
            <Time>2020-12-05T08:51:57.000Z</Time>
            <Position>
              <LatitudeDegrees>36.8020298145711421966552734375</LatitudeDegrees>
              <LongitudeDegrees>-4.37867679633200168609619140625</LongitudeDegrees>
            </Position>
            <AltitudeMeters>793.79998779296875</AltitudeMeters>
            <DistanceMeters>1223.3118092432</DistanceMeters>
          </Trackpoint>
          <Trackpoint>
            <Time>2020-12-05T08:51:58.000Z</Time>
            <Position>
              <LatitudeDegrees>36.80203995667397975921630859375</LatitudeDegrees>
              <LongitudeDegrees>-4.3786715157330036163330078125</LongitudeDegrees>
            </Position>
            <AltitudeMeters>793.79998779296875</AltitudeMeters>
            <DistanceMeters>1224.5287449591</DistanceMeters>
          </Trackpoint>
          <Trackpoint>
            <Time>2020-12-05T08:51:59.000Z</Time>
            <Position>
              <LatitudeDegrees>36.80204967968165874481201171875</LatitudeDegrees>
              <LongitudeDegrees>-4.37866707332432270050048828125</LongitudeDegrees>
            </Position>
            <AltitudeMeters>794</AltitudeMeters>
            <DistanceMeters>1225.6769571176</DistanceMeters>
          </Trackpoint>
          <Trackpoint>
            <Time>2020-12-05T08:52:00.000Z</Time>
            <Position>
              <LatitudeDegrees>36.80206074379384517669677734375</LatitudeDegrees>
              <LongitudeDegrees>-4.37866305001080036163330078125</LongitudeDegrees>
            </Position>
            <AltitudeMeters>794</AltitudeMeters>
            <DistanceMeters>1226.9518742757</DistanceMeters>
          </Trackpoint>
          <Trackpoint>
            <Time>2020-12-05T08:52:01.000Z</Time>
            <Position>
              <LatitudeDegrees>36.80207314901053905487060546875</LatitudeDegrees>
              <LongitudeDegrees>-4.37866020016372203826904296875</LongitudeDegrees>
            </Position>
            <AltitudeMeters>794</AltitudeMeters>
            <DistanceMeters>1228.3517051899</DistanceMeters>
          </Trackpoint>
          <Trackpoint>
            <Time>2020-12-05T08:52:02.000Z</Time>
            <Position>
              <LatitudeDegrees>36.802084632217884063720703125</LatitudeDegrees>
              <LongitudeDegrees>-4.37865793704986572265625</LongitudeDegrees>
            </Position>
            <AltitudeMeters>794</AltitudeMeters>
            <DistanceMeters>1229.640710258</DistanceMeters>
          </Trackpoint>
          <Trackpoint>
            <Time>2020-12-05T08:52:03.000Z</Time>
            <Position>
              <LatitudeDegrees>36.802094690501689910888671875</LatitudeDegrees>
              <LongitudeDegrees>-4.37865726649761199951171875</LongitudeDegrees>
            </Position>
            <AltitudeMeters>794.20001220703125</AltitudeMeters>
            <DistanceMeters>1230.7650815055</DistanceMeters>
          </Trackpoint>
          <Trackpoint>
            <Time>2020-12-05T08:52:04.000Z</Time>
            <Position>
              <LatitudeDegrees>36.80210282094776630401611328125</LatitudeDegrees>
              <LongitudeDegrees>-4.37865458428859710693359375</LongitudeDegrees>
            </Position>
            <AltitudeMeters>794.4000244140625</AltitudeMeters>
            <DistanceMeters>1231.696149354</DistanceMeters>
          </Trackpoint>
          <Trackpoint>
            <Time>2020-12-05T08:52:05.000Z</Time>
            <Position>
              <LatitudeDegrees>36.802109777927398681640625</LatitudeDegrees>
              <LongitudeDegrees>-4.37865382991731166839599609375</LongitudeDegrees>
            </Position>
            <AltitudeMeters>794.5999755859375</AltitudeMeters>
            <DistanceMeters>1232.4797597152</DistanceMeters>
          </Trackpoint>
          <Trackpoint>
            <Time>2020-12-05T08:52:06.000Z</Time>
            <Position>
              <LatitudeDegrees>36.80212042294442653656005859375</LatitudeDegrees>
              <LongitudeDegrees>-4.3786560930311679840087890625</LongitudeDegrees>
            </Position>
            <AltitudeMeters>794.5999755859375</AltitudeMeters>
            <DistanceMeters>1233.6817631391</DistanceMeters>
          </Trackpoint>
          <Trackpoint>
            <Time>2020-12-05T08:52:07.000Z</Time>
            <Position>
              <LatitudeDegrees>36.80212964303791522979736328125</LatitudeDegrees>
              <LongitudeDegrees>-4.37866003252565860748291015625</LongitudeDegrees>
            </Position>
            <AltitudeMeters>794.79998779296875</AltitudeMeters>
            <DistanceMeters>1234.7652343836</DistanceMeters>
          </Trackpoint>
          <Trackpoint>
            <Time>2020-12-05T08:52:08.000Z</Time>
            <Position>
              <LatitudeDegrees>36.80213634856045246124267578125</LatitudeDegrees>
              <LongitudeDegrees>-4.378667660057544708251953125</LongitudeDegrees>
            </Position>
            <AltitudeMeters>794.79998779296875</AltitudeMeters>
            <DistanceMeters>1235.7709026002</DistanceMeters>
          </Trackpoint>
          <Trackpoint>
            <Time>2020-12-05T08:52:09.000Z</Time>
            <Position>
              <LatitudeDegrees>36.80214238353073596954345703125</LatitudeDegrees>
              <LongitudeDegrees>-4.3786721862852573394775390625</LongitudeDegrees>
            </Position>
            <AltitudeMeters>795</AltitudeMeters>
            <DistanceMeters>1236.54872978</DistanceMeters>
          </Trackpoint>
          <Trackpoint>
            <Time>2020-12-05T08:52:10.000Z</Time>
            <Position>
              <LatitudeDegrees>36.80214707739651203155517578125</LatitudeDegrees>
              <LongitudeDegrees>-4.3786753714084625244140625</LongitudeDegrees>
            </Position>
            <AltitudeMeters>795.20001220703125</AltitudeMeters>
            <DistanceMeters>1237.1421714211</DistanceMeters>
          </Trackpoint>
          <Trackpoint>
            <Time>2020-12-05T08:52:11.000Z</Time>
            <Position>
              <LatitudeDegrees>36.80215093307197093963623046875</LatitudeDegrees>
              <LongitudeDegrees>-4.37868383713066577911376953125</LongitudeDegrees>
            </Position>
            <AltitudeMeters>795.20001220703125</AltitudeMeters>
            <DistanceMeters>1238.0079059906</DistanceMeters>
          </Trackpoint>
          <Trackpoint>
            <Time>2020-12-05T08:52:12.000Z</Time>
            <Position>
              <LatitudeDegrees>36.80215680040419101715087890625</LatitudeDegrees>
              <LongitudeDegrees>-4.3786929734051227569580078125</LongitudeDegrees>
            </Position>
            <AltitudeMeters>795.20001220703125</AltitudeMeters>
            <DistanceMeters>1239.0531998487</DistanceMeters>
          </Trackpoint>
          <Trackpoint>
            <Time>2020-12-05T08:52:13.000Z</Time>
            <Position>
              <LatitudeDegrees>36.80216250009834766387939453125</LatitudeDegrees>
              <LongitudeDegrees>-4.37869640998542308807373046875</LongitudeDegrees>
            </Position>
            <AltitudeMeters>795.20001220703125</AltitudeMeters>
            <DistanceMeters>1239.7515007351</DistanceMeters>
          </Trackpoint>
          <Trackpoint>
            <Time>2020-12-05T08:52:14.000Z</Time>
            <Position>
              <LatitudeDegrees>36.80216610431671142578125</LatitudeDegrees>
              <LongitudeDegrees>-4.3786995112895965576171875</LongitudeDegrees>
            </Position>
            <AltitudeMeters>795.4000244140625</AltitudeMeters>
            <DistanceMeters>1240.236043806</DistanceMeters>
          </Trackpoint>
          <Trackpoint>
            <Time>2020-12-05T08:52:15.000Z</Time>
            <Position>
              <LatitudeDegrees>36.8021699599921703338623046875</LatitudeDegrees>
              <LongitudeDegrees>-4.37870085239410400390625</LongitudeDegrees>
            </Position>
            <AltitudeMeters>795.5999755859375</AltitudeMeters>
            <DistanceMeters>1240.6817586046</DistanceMeters>
          </Trackpoint>
          <Trackpoint>
            <Time>2020-12-05T08:52:16.000Z</Time>
            <Position>
              <LatitudeDegrees>36.80217272602021694183349609375</LatitudeDegrees>
              <LongitudeDegrees>-4.378703534603118896484375</LongitudeDegrees>
            </Position>
            <AltitudeMeters>795.79998779296875</AltitudeMeters>
            <DistanceMeters>1241.0849228094</DistanceMeters>
          </Trackpoint>
          <Trackpoint>
            <Time>2020-12-05T08:52:17.000Z</Time>
            <Position>
              <LatitudeDegrees>36.80217641405761241912841796875</LatitudeDegrees>
              <LongitudeDegrees>-4.37870797701179981231689453125</LongitudeDegrees>
            </Position>
            <AltitudeMeters>796</AltitudeMeters>
            <DistanceMeters>1241.6550830956</DistanceMeters>
          </Trackpoint>
          <Trackpoint>
            <Time>2020-12-05T08:52:18.000Z</Time>
            <Position>
              <LatitudeDegrees>36.80218429304659366607666015625</LatitudeDegrees>
              <LongitudeDegrees>-4.37871350906789302825927734375</LongitudeDegrees>
            </Position>
            <AltitudeMeters>796.20001220703125</AltitudeMeters>
            <DistanceMeters>1242.6607513121</DistanceMeters>
          </Trackpoint>
          <Trackpoint>
            <Time>2020-12-05T08:52:19.000Z</Time>
            <Position>
              <LatitudeDegrees>36.80219602771103382110595703125</LatitudeDegrees>
              <LongitudeDegrees>-4.378719627857208251953125</LongitudeDegrees>
            </Position>
            <AltitudeMeters>796.4000244140625</AltitudeMeters>
            <DistanceMeters>1244.0798027724</DistanceMeters>
          </Trackpoint>
          <Trackpoint>
            <Time>2020-12-05T08:52:20.000Z</Time>
            <Position>
              <LatitudeDegrees>36.80220860056579113006591796875</LatitudeDegrees>
              <LongitudeDegrees>-4.37872574664652347564697265625</LongitudeDegrees>
            </Position>
            <AltitudeMeters>796.4000244140625</AltitudeMeters>
            <DistanceMeters>1245.5823070523</DistanceMeters>
          </Trackpoint>
          <Trackpoint>
            <Time>2020-12-05T08:52:21.000Z</Time>
            <Position>
              <LatitudeDegrees>36.8022242747247219085693359375</LatitudeDegrees>
              <LongitudeDegrees>-4.37873496674001216888427734375</LongitudeDegrees>
            </Position>
            <AltitudeMeters>796.5999755859375</AltitudeMeters>
            <DistanceMeters>1247.5111386922</DistanceMeters>
          </Trackpoint>
          <Trackpoint>
            <Time>2020-12-05T08:52:22.000Z</Time>
            <Position>
              <LatitudeDegrees>36.8022398650646209716796875</LatitudeDegrees>
              <LongitudeDegrees>-4.37874401919543743133544921875</LongitudeDegrees>
            </Position>
            <AltitudeMeters>796.5999755859375</AltitudeMeters>
            <DistanceMeters>1249.4235144292</DistanceMeters>
          </Trackpoint>
          <Trackpoint>
            <Time>2020-12-05T08:52:23.000Z</Time>
            <Position>
              <LatitudeDegrees>36.8022531084716320037841796875</LatitudeDegrees>
              <LongitudeDegrees>-4.3787536583840847015380859375</LongitudeDegrees>
            </Position>
            <AltitudeMeters>796.5999755859375</AltitudeMeters>
            <DistanceMeters>1251.1287078537</DistanceMeters>
          </Trackpoint>
          <Trackpoint>
            <Time>2020-12-05T08:52:24.000Z</Time>
            <Position>
              <LatitudeDegrees>36.80226442404091358184814453125</LatitudeDegrees>
              <LongitudeDegrees>-4.37876162119209766387939453125</LongitudeDegrees>
            </Position>
            <AltitudeMeters>796.5999755859375</AltitudeMeters>
            <DistanceMeters>1252.5729888716</DistanceMeters>
          </Trackpoint>
          <Trackpoint>
            <Time>2020-12-05T08:52:25.000Z</Time>
            <Position>
              <LatitudeDegrees>36.802270710468292236328125</LatitudeDegrees>
              <LongitudeDegrees>-4.378768913447856903076171875</LongitudeDegrees>
            </Position>
            <AltitudeMeters>796.79998779296875</AltitudeMeters>
            <DistanceMeters>1253.5327116427</DistanceMeters>
          </Trackpoint>
          <Trackpoint>
            <Time>2020-12-05T08:52:26.000Z</Time>
            <Position>
              <LatitudeDegrees>36.8022765778005123138427734375</LatitudeDegrees>
              <LongitudeDegrees>-4.3787741102278232574462890625</LongitudeDegrees>
            </Position>
            <AltitudeMeters>796.79998779296875</AltitudeMeters>
            <DistanceMeters>1254.3390400522</DistanceMeters>
          </Trackpoint>
          <Trackpoint>
            <Time>2020-12-05T08:52:27.000Z</Time>
            <Position>
              <LatitudeDegrees>36.8022842891514301300048828125</LatitudeDegrees>
              <LongitudeDegrees>-4.37877821736037731170654296875</LongitudeDegrees>
            </Position>
            <AltitudeMeters>797</AltitudeMeters>
            <DistanceMeters>1255.2797565299</DistanceMeters>
          </Trackpoint>
          <Trackpoint>
            <Time>2020-12-05T08:52:28.000Z</Time>
            <Position>
              <LatitudeDegrees>36.80229174904525279998779296875</LatitudeDegrees>
              <LongitudeDegrees>-4.37878425233066082000732421875</LongitudeDegrees>
            </Position>
            <AltitudeMeters>797</AltitudeMeters>
            <DistanceMeters>1256.2718645545</DistanceMeters>
          </Trackpoint>
          <Trackpoint>
            <Time>2020-12-05T08:52:29.000Z</Time>
            <Position>
              <LatitudeDegrees>36.80230088531970977783203125</LatitudeDegrees>
              <LongitudeDegrees>-4.3787891976535320281982421875</LongitudeDegrees>
            </Position>
            <AltitudeMeters>797.20001220703125</AltitudeMeters>
            <DistanceMeters>1257.3800569549</DistanceMeters>
          </Trackpoint>
          <Trackpoint>
            <Time>2020-12-05T08:52:30.000Z</Time>
            <Position>
              <LatitudeDegrees>36.8023104406893253326416015625</LatitudeDegrees>
              <LongitudeDegrees>-4.37879263423383235931396484375</LongitudeDegrees>
            </Position>
            <AltitudeMeters>797.4000244140625</AltitudeMeters>
            <DistanceMeters>1258.4882493553</DistanceMeters>
          </Trackpoint>
          <Trackpoint>
            <Time>2020-12-05T08:52:31.000Z</Time>
            <Position>
              <LatitudeDegrees>36.80232041515409946441650390625</LatitudeDegrees>
              <LongitudeDegrees>-4.3787999264895915985107421875</LongitudeDegrees>
            </Position>
            <AltitudeMeters>797.4000244140625</AltitudeMeters>
            <DistanceMeters>1259.7772544235</DistanceMeters>
          </Trackpoint>
          <Trackpoint>
            <Time>2020-12-05T08:52:32.000Z</Time>
            <Position>
              <LatitudeDegrees>36.80233114399015903472900390625</LatitudeDegrees>
              <LongitudeDegrees>-4.3788069672882556915283203125</LongitudeDegrees>
            </Position>
            <AltitudeMeters>797.5999755859375</AltitudeMeters>
            <DistanceMeters>1261.1311766953</DistanceMeters>
          </Trackpoint>
          <Trackpoint>
            <Time>2020-12-05T08:52:33.000Z</Time>
            <Position>
              <LatitudeDegrees>36.8023419566452503204345703125</LatitudeDegrees>
              <LongitudeDegrees>-4.37881560064852237701416015625</LongitudeDegrees>
            </Position>
            <AltitudeMeters>797.5999755859375</AltitudeMeters>
            <DistanceMeters>1262.5597414563</DistanceMeters>
          </Trackpoint>
          <Trackpoint>
            <Time>2020-12-05T08:52:34.000Z</Time>
            <Position>
              <LatitudeDegrees>36.80235142819583415985107421875</LatitudeDegrees>
              <LongitudeDegrees>-4.37882230617105960845947265625</LongitudeDegrees>
            </Position>
            <AltitudeMeters>797.79998779296875</AltitudeMeters>
            <DistanceMeters>1263.7692340705</DistanceMeters>
          </Trackpoint>
          <Trackpoint>
            <Time>2020-12-05T08:52:35.000Z</Time>
            <Position>
              <LatitudeDegrees>36.80235729552805423736572265625</LatitudeDegrees>
              <LongitudeDegrees>-4.378832280635833740234375</LongitudeDegrees>
            </Position>
            <AltitudeMeters>797.79998779296875</AltitudeMeters>
            <DistanceMeters>1264.8692478175</DistanceMeters>
          </Trackpoint>
          <Trackpoint>
            <Time>2020-12-05T08:52:36.000Z</Time>
            <Position>
              <LatitudeDegrees>36.80236525833606719970703125</LatitudeDegrees>
              <LongitudeDegrees>-4.37884368002414703369140625</LongitudeDegrees>
            </Position>
            <AltitudeMeters>797.79998779296875</AltitudeMeters>
            <DistanceMeters>1266.2131285</DistanceMeters>
          </Trackpoint>
          <Trackpoint>
            <Time>2020-12-05T08:52:37.000Z</Time>
            <Position>
              <LatitudeDegrees>36.80237120948731899261474609375</LatitudeDegrees>
              <LongitudeDegrees>-4.3788552470505237579345703125</LongitudeDegrees>
            </Position>
            <AltitudeMeters>797.79998779296875</AltitudeMeters>
            <DistanceMeters>1267.4374620696</DistanceMeters>
          </Trackpoint>
          <Trackpoint>
            <Time>2020-12-05T08:52:38.000Z</Time>
            <Position>
              <LatitudeDegrees>36.80237858556210994720458984375</LatitudeDegrees>
              <LongitudeDegrees>-4.37886740081012248992919921875</LongitudeDegrees>
            </Position>
            <AltitudeMeters>798</AltitudeMeters>
            <DistanceMeters>1268.7947150285</DistanceMeters>
          </Trackpoint>
          <Trackpoint>
            <Time>2020-12-05T08:52:39.000Z</Time>
            <Position>
              <LatitudeDegrees>36.802389733493328094482421875</LatitudeDegrees>
              <LongitudeDegrees>-4.37887745909392833709716796875</LongitudeDegrees>
            </Position>
            <AltitudeMeters>798</AltitudeMeters>
            <DistanceMeters>1270.326974757</DistanceMeters>
          </Trackpoint>
          <Trackpoint>
            <Time>2020-12-05T08:52:41.000Z</Time>
            <Position>
              <LatitudeDegrees>36.8023982830345630645751953125</LatitudeDegrees>
              <LongitudeDegrees>-4.37888483516871929168701171875</LongitudeDegrees>
            </Position>
            <AltitudeMeters>798</AltitudeMeters>
            <DistanceMeters>1271.4869236309</DistanceMeters>
          </Trackpoint>
          <Trackpoint>
            <Time>2020-12-05T08:52:42.000Z</Time>
            <Position>
              <LatitudeDegrees>36.8024070002138614654541015625</LatitudeDegrees>
              <LongitudeDegrees>-4.37888919375836849212646484375</LongitudeDegrees>
            </Position>
            <AltitudeMeters>798.20001220703125</AltitudeMeters>
            <DistanceMeters>1272.5278891314</DistanceMeters>
          </Trackpoint>
          <Trackpoint>
            <Time>2020-12-05T08:52:43.000Z</Time>
            <Position>
              <LatitudeDegrees>36.802413202822208404541015625</LatitudeDegrees>
              <LongitudeDegrees>-4.3788948096334934234619140625</LongitudeDegrees>
            </Position>
            <AltitudeMeters>798.4000244140625</AltitudeMeters>
            <DistanceMeters>1273.3778339035</DistanceMeters>
          </Trackpoint>
          <Trackpoint>
            <Time>2020-12-05T08:52:44.000Z</Time>
            <Position>
              <LatitudeDegrees>36.80242200382053852081298828125</LatitudeDegrees>
              <LongitudeDegrees>-4.37889958731830120086669921875</LongitudeDegrees>
            </Position>
            <AltitudeMeters>798.5999755859375</AltitudeMeters>
            <DistanceMeters>1274.4445061268</DistanceMeters>
          </Trackpoint>
          <Trackpoint>
            <Time>2020-12-05T08:52:45.000Z</Time>
            <Position>
              <LatitudeDegrees>36.802431978285312652587890625</LatitudeDegrees>
              <LongitudeDegrees>-4.37890444882214069366455078125</LongitudeDegrees>
            </Position>
            <AltitudeMeters>799</AltitudeMeters>
            <DistanceMeters>1275.6389734047</DistanceMeters>
          </Trackpoint>
          <Trackpoint>
            <Time>2020-12-05T08:52:46.000Z</Time>
            <Position>
              <LatitudeDegrees>36.80244195275008678436279296875</LatitudeDegrees>
              <LongitudeDegrees>-4.3789112381637096405029296875</LongitudeDegrees>
            </Position>
            <AltitudeMeters>799.20001220703125</AltitudeMeters>
            <DistanceMeters>1276.8996452312</DistanceMeters>
          </Trackpoint>
          <Trackpoint>
            <Time>2020-12-05T08:52:47.000Z</Time>
            <Position>
              <LatitudeDegrees>36.8024515919387340545654296875</LatitudeDegrees>
              <LongitudeDegrees>-4.37891651876270771026611328125</LongitudeDegrees>
            </Position>
            <AltitudeMeters>799.5999755859375</AltitudeMeters>
            <DistanceMeters>1278.067353047</DistanceMeters>
          </Trackpoint>
          <Trackpoint>
            <Time>2020-12-05T08:52:48.000Z</Time>
            <Position>
              <LatitudeDegrees>36.80246123112738132476806640625</LatitudeDegrees>
              <LongitudeDegrees>-4.37892389483749866485595703125</LongitudeDegrees>
            </Position>
            <AltitudeMeters>799.79998779296875</AltitudeMeters>
            <DistanceMeters>1279.3244383177</DistanceMeters>
          </Trackpoint>
          <Trackpoint>
            <Time>2020-12-05T08:52:49.000Z</Time>
            <Position>
              <LatitudeDegrees>36.8024713732302188873291015625</LatitudeDegrees>
              <LongitudeDegrees>-4.3789316900074481964111328125</LongitudeDegrees>
            </Position>
            <AltitudeMeters>800</AltitudeMeters>
            <DistanceMeters>1280.6445916246</DistanceMeters>
          </Trackpoint>
          <Trackpoint>
            <Time>2020-12-05T08:52:50.000Z</Time>
            <Position>
              <LatitudeDegrees>36.80248235352337360382080078125</LatitudeDegrees>
              <LongitudeDegrees>-4.3789400719106197357177734375</LongitudeDegrees>
            </Position>
            <AltitudeMeters>800</AltitudeMeters>
            <DistanceMeters>1282.0731563856</DistanceMeters>
          </Trackpoint>
          <Trackpoint>
            <Time>2020-12-05T08:52:51.000Z</Time>
            <Position>
              <LatitudeDegrees>36.80249140597879886627197265625</LatitudeDegrees>
              <LongitudeDegrees>-4.37894786708056926727294921875</LongitudeDegrees>
            </Position>
            <AltitudeMeters>800.20001220703125</AltitudeMeters>
            <DistanceMeters>1283.2974899552</DistanceMeters>
          </Trackpoint>
          <Trackpoint>
            <Time>2020-12-05T08:52:52.000Z</Time>
            <Position>
              <LatitudeDegrees>36.80250213481485843658447265625</LatitudeDegrees>
              <LongitudeDegrees>-4.378955662250518798828125</LongitudeDegrees>
            </Position>
            <AltitudeMeters>800.20001220703125</AltitudeMeters>
            <DistanceMeters>1284.6778327132</DistanceMeters>
          </Trackpoint>
          <Trackpoint>
            <Time>2020-12-05T08:52:53.000Z</Time>
            <Position>
              <LatitudeDegrees>36.80251269601285457611083984375</LatitudeDegrees>
              <LongitudeDegrees>-4.3789623677730560302734375</LongitudeDegrees>
            </Position>
            <AltitudeMeters>800.4000244140625</AltitudeMeters>
            <DistanceMeters>1285.9979860201</DistanceMeters>
          </Trackpoint>
          <Trackpoint>
            <Time>2020-12-05T08:52:54.000Z</Time>
            <Position>
              <LatitudeDegrees>36.80252426303923130035400390625</LatitudeDegrees>
              <LongitudeDegrees>-4.37896530143916606903076171875</LongitudeDegrees>
            </Position>
            <AltitudeMeters>800.20001220703125</AltitudeMeters>
            <DistanceMeters>1287.314714799</DistanceMeters>
          </Trackpoint>
          <Trackpoint>
            <Time>2020-12-05T08:52:55.000Z</Time>
            <Position>
              <LatitudeDegrees>36.8025364167988300323486328125</LatitudeDegrees>
              <LongitudeDegrees>-4.37897217459976673126220703125</LongitudeDegrees>
            </Position>
            <AltitudeMeters>800.20001220703125</AltitudeMeters>
            <DistanceMeters>1288.805150576</DistanceMeters>
          </Trackpoint>
          <Trackpoint>
            <Time>2020-12-05T08:52:56.000Z</Time>
            <Position>
              <LatitudeDegrees>36.80254790000617504119873046875</LatitudeDegrees>
              <LongitudeDegrees>-4.378976114094257354736328125</LongitudeDegrees>
            </Position>
            <AltitudeMeters>800.20001220703125</AltitudeMeters>
            <DistanceMeters>1290.1287195504</DistanceMeters>
          </Trackpoint>
          <Trackpoint>
            <Time>2020-12-05T08:52:57.000Z</Time>
            <Position>
              <LatitudeDegrees>36.8025585450232028961181640625</LatitudeDegrees>
              <LongitudeDegrees>-4.378977119922637939453125</LongitudeDegrees>
            </Position>
            <AltitudeMeters>800</AltitudeMeters>
            <DistanceMeters>1291.3194008687</DistanceMeters>
          </Trackpoint>
          <Trackpoint>
            <Time>2020-12-05T08:52:58.000Z</Time>
            <Position>
              <LatitudeDegrees>36.80256835184991359710693359375</LatitudeDegrees>
              <LongitudeDegrees>-4.3789803050458431243896484375</LongitudeDegrees>
            </Position>
            <AltitudeMeters>800</AltitudeMeters>
            <DistanceMeters>1292.4517748595</DistanceMeters>
          </Trackpoint>
          <Trackpoint>
            <Time>2020-12-05T08:52:59.000Z</Time>
            <Position>
              <LatitudeDegrees>36.802580840885639190673828125</LatitudeDegrees>
              <LongitudeDegrees>-4.37898357398808002471923828125</LongitudeDegrees>
            </Position>
            <AltitudeMeters>800</AltitudeMeters>
            <DistanceMeters>1293.8740044906</DistanceMeters>
          </Trackpoint>
          <Trackpoint>
            <Time>2020-12-05T08:53:00.000Z</Time>
            <Position>
              <LatitudeDegrees>36.80259592831134796142578125</LatitudeDegrees>
              <LongitudeDegrees>-4.37898986041545867919921875</LongitudeDegrees>
            </Position>
            <AltitudeMeters>800</AltitudeMeters>
            <DistanceMeters>1295.6441560451</DistanceMeters>
          </Trackpoint>
          <Trackpoint>
            <Time>2020-12-05T08:53:01.000Z</Time>
            <Position>
              <LatitudeDegrees>36.802608333528041839599609375</LatitudeDegrees>
              <LongitudeDegrees>-4.37899664975702762603759765625</LongitudeDegrees>
            </Position>
            <AltitudeMeters>800</AltitudeMeters>
            <DistanceMeters>1297.1526583699</DistanceMeters>
          </Trackpoint>
          <Trackpoint>
            <Time>2020-12-05T08:53:02.000Z</Time>
            <Position>
              <LatitudeDegrees>36.80261998437345027923583984375</LatitudeDegrees>
              <LongitudeDegrees>-4.37900553457438945770263671875</LongitudeDegrees>
            </Position>
            <AltitudeMeters>800.20001220703125</AltitudeMeters>
            <DistanceMeters>1298.6730857998</DistanceMeters>
          </Trackpoint>
          <Trackpoint>
            <Time>2020-12-05T08:53:03.000Z</Time>
            <Position>
              <LatitudeDegrees>36.80263079702854156494140625</LatitudeDegrees>
              <LongitudeDegrees>-4.3790155090391635894775390625</LongitudeDegrees>
            </Position>
            <AltitudeMeters>800.4000244140625</AltitudeMeters>
            <DistanceMeters>1300.1695679942</DistanceMeters>
          </Trackpoint>
          <Trackpoint>
            <Time>2020-12-05T08:53:04.000Z</Time>
            <Position>
              <LatitudeDegrees>36.80264177732169628143310546875</LatitudeDegrees>
              <LongitudeDegrees>-4.37902213074266910552978515625</LongitudeDegrees>
            </Position>
            <AltitudeMeters>800.79998779296875</AltitudeMeters>
            <DistanceMeters>1301.5268209531</DistanceMeters>
          </Trackpoint>
          <Trackpoint>
            <Time>2020-12-05T08:53:05.000Z</Time>
            <Position>
              <LatitudeDegrees>36.8026520870625972747802734375</LatitudeDegrees>
              <LongitudeDegrees>-4.3790269084274768829345703125</LongitudeDegrees>
            </Position>
            <AltitudeMeters>801.20001220703125</AltitudeMeters>
            <DistanceMeters>1302.7511545227</DistanceMeters>
          </Trackpoint>
          <Trackpoint>
            <Time>2020-12-05T08:53:06.000Z</Time>
            <Position>
              <LatitudeDegrees>36.8026609718799591064453125</LatitudeDegrees>
              <LongitudeDegrees>-4.379029087722301483154296875</LongitudeDegrees>
            </Position>
            <AltitudeMeters>801.5999755859375</AltitudeMeters>
            <DistanceMeters>1303.7657621881</DistanceMeters>
          </Trackpoint>
          <Trackpoint>
            <Time>2020-12-05T08:53:07.000Z</Time>
            <Position>
              <LatitudeDegrees>36.80267111398279666900634765625</LatitudeDegrees>
              <LongitudeDegrees>-4.37903369776904582977294921875</LongitudeDegrees>
            </Position>
            <AltitudeMeters>801.79998779296875</AltitudeMeters>
            <DistanceMeters>1304.9715160218</DistanceMeters>
          </Trackpoint>
          <Trackpoint>
            <Time>2020-12-05T08:53:08.000Z</Time>
            <Position>
              <LatitudeDegrees>36.80267748422920703887939453125</LatitudeDegrees>
              <LongitudeDegrees>-4.37903805635869503021240234375</LongitudeDegrees>
            </Position>
            <AltitudeMeters>802.20001220703125</AltitudeMeters>
            <DistanceMeters>1305.7834246253</DistanceMeters>
          </Trackpoint>
          <Trackpoint>
            <Time>2020-12-05T08:53:09.000Z</Time>
            <Position>
              <LatitudeDegrees>36.8026851117610931396484375</LatitudeDegrees>
              <LongitudeDegrees>-4.37904392369091510772705078125</LongitudeDegrees>
            </Position>
            <AltitudeMeters>802.4000244140625</AltitudeMeters>
            <DistanceMeters>1306.7800732137</DistanceMeters>
          </Trackpoint>
          <Trackpoint>
            <Time>2020-12-05T08:53:10.000Z</Time>
            <Position>
              <LatitudeDegrees>36.802693493664264678955078125</LatitudeDegrees>
              <LongitudeDegrees>-4.379049204289913177490234375</LongitudeDegrees>
            </Position>
            <AltitudeMeters>802.79998779296875</AltitudeMeters>
            <DistanceMeters>1307.8210387142</DistanceMeters>
          </Trackpoint>
          <Trackpoint>
            <Time>2020-12-05T08:53:11.000Z</Time>
            <Position>
              <LatitudeDegrees>36.80270078592002391815185546875</LatitudeDegrees>
              <LongitudeDegrees>-4.37905264087021350860595703125</LongitudeDegrees>
            </Position>
            <AltitudeMeters>803</AltitudeMeters>
            <DistanceMeters>1308.6867732838</DistanceMeters>
          </Trackpoint>
          <Trackpoint>
            <Time>2020-12-05T08:53:12.000Z</Time>
            <Position>
              <LatitudeDegrees>36.8027104251086711883544921875</LatitudeDegrees>
              <LongitudeDegrees>-4.37905666418373584747314453125</LongitudeDegrees>
            </Position>
            <AltitudeMeters>803.20001220703125</AltitudeMeters>
            <DistanceMeters>1309.8191472746</DistanceMeters>
          </Trackpoint>
          <Trackpoint>
            <Time>2020-12-05T08:53:13.000Z</Time>
            <Position>
              <LatitudeDegrees>36.802722997963428497314453125</LatitudeDegrees>
              <LongitudeDegrees>-4.37906135804951190948486328125</LongitudeDegrees>
            </Position>
            <AltitudeMeters>803.20001220703125</AltitudeMeters>
            <DistanceMeters>1311.2820649473</DistanceMeters>
          </Trackpoint>
          <Trackpoint>
            <Time>2020-12-05T08:53:14.000Z</Time>
            <Position>
              <LatitudeDegrees>36.8027365766465663909912109375</LatitudeDegrees>
              <LongitudeDegrees>-4.3790642917156219482421875</LongitudeDegrees>
            </Position>
            <AltitudeMeters>803.4000244140625</AltitudeMeters>
            <DistanceMeters>1312.8202066925</DistanceMeters>
          </Trackpoint>
          <Trackpoint>
            <Time>2020-12-05T08:53:15.000Z</Time>
            <Position>
              <LatitudeDegrees>36.80274822749197483062744140625</LatitudeDegrees>
              <LongitudeDegrees>-4.37906689010560512542724609375</LongitudeDegrees>
            </Position>
            <AltitudeMeters>803.4000244140625</AltitudeMeters>
            <DistanceMeters>1314.1369354714</DistanceMeters>
          </Trackpoint>
          <Trackpoint>
            <Time>2020-12-05T08:53:16.000Z</Time>
            <Position>
              <LatitudeDegrees>36.80275644175708293914794921875</LatitudeDegrees>
              <LongitudeDegrees>-4.3790701590478420257568359375</LongitudeDegrees>
            </Position>
            <AltitudeMeters>803.4000244140625</AltitudeMeters>
            <DistanceMeters>1315.0966582425</DistanceMeters>
          </Trackpoint>
          <Trackpoint>
            <Time>2020-12-05T08:53:17.000Z</Time>
            <Position>
              <LatitudeDegrees>36.80276566185057163238525390625</LatitudeDegrees>
              <LongitudeDegrees>-4.379076696932315826416015625</LongitudeDegrees>
            </Position>
            <AltitudeMeters>803.4000244140625</AltitudeMeters>
            <DistanceMeters>1316.2759087555</DistanceMeters>
          </Trackpoint>
          <Trackpoint>
            <Time>2020-12-05T08:53:18.000Z</Time>
            <Position>
              <LatitudeDegrees>36.802773959934711456298828125</LatitudeDegrees>
              <LongitudeDegrees>-4.37908365391194820404052734375</LongitudeDegrees>
            </Position>
            <AltitudeMeters>803.4000244140625</AltitudeMeters>
            <DistanceMeters>1317.3841011559</DistanceMeters>
          </Trackpoint>
          <Trackpoint>
            <Time>2020-12-05T08:53:19.000Z</Time>
            <Position>
              <LatitudeDegrees>36.80278376676142215728759765625</LatitudeDegrees>
              <LongitudeDegrees>-4.37909387983381748199462890625</LongitudeDegrees>
            </Position>
            <AltitudeMeters>803.4000244140625</AltitudeMeters>
            <DistanceMeters>1318.8031526162</DistanceMeters>
          </Trackpoint>
          <Trackpoint>
            <Time>2020-12-05T08:53:20.000Z</Time>
            <Position>
              <LatitudeDegrees>36.802794076502323150634765625</LatitudeDegrees>
              <LongitudeDegrees>-4.37910058535635471343994140625</LongitudeDegrees>
            </Position>
            <AltitudeMeters>803.4000244140625</AltitudeMeters>
            <DistanceMeters>1320.0991442128</DistanceMeters>
          </Trackpoint>
          <Trackpoint>
            <Time>2020-12-05T08:53:21.000Z</Time>
            <Position>
              <LatitudeDegrees>36.8028049729764461517333984375</LatitudeDegrees>
              <LongitudeDegrees>-4.37910863198339939117431640625</LongitudeDegrees>
            </Position>
            <AltitudeMeters>803.20001220703125</AltitudeMeters>
            <DistanceMeters>1321.5086181635</DistanceMeters>
          </Trackpoint>
          <Trackpoint>
            <Time>2020-12-05T08:53:22.000Z</Time>
            <Position>
              <LatitudeDegrees>36.80281578563153743743896484375</LatitudeDegrees>
              <LongitudeDegrees>-4.3791224621236324310302734375</LongitudeDegrees>
            </Position>
            <AltitudeMeters>803.20001220703125</AltitudeMeters>
            <DistanceMeters>1323.2322466473</DistanceMeters>
          </Trackpoint>
          <Trackpoint>
            <Time>2020-12-05T08:53:23.000Z</Time>
            <Position>
              <LatitudeDegrees>36.80282567627727985382080078125</LatitudeDegrees>
              <LongitudeDegrees>-4.379138387739658355712890625</LongitudeDegrees>
            </Position>
            <AltitudeMeters>803</AltitudeMeters>
            <DistanceMeters>1325.0277235451</DistanceMeters>
          </Trackpoint>
          <Trackpoint>
            <Time>2020-12-05T08:53:24.000Z</Time>
            <Position>
              <LatitudeDegrees>36.8028341419994831085205078125</LatitudeDegrees>
              <LongitudeDegrees>-4.37914802692830562591552734375</LongitudeDegrees>
            </Position>
            <AltitudeMeters>803</AltitudeMeters>
            <DistanceMeters>1326.2955380453</DistanceMeters>
          </Trackpoint>
          <Trackpoint>
            <Time>2020-12-05T08:53:25.000Z</Time>
            <Position>
              <LatitudeDegrees>36.8028435297310352325439453125</LatitudeDegrees>
              <LongitudeDegrees>-4.37915624119341373443603515625</LongitudeDegrees>
            </Position>
            <AltitudeMeters>803</AltitudeMeters>
            <DistanceMeters>1327.5704552034</DistanceMeters>
          </Trackpoint>
          <Trackpoint>
            <Time>2020-12-05T08:53:26.000Z</Time>
            <Position>
              <LatitudeDegrees>36.8028545938432216644287109375</LatitudeDegrees>
              <LongitudeDegrees>-4.3791640363633632659912109375</LongitudeDegrees>
            </Position>
            <AltitudeMeters>803</AltitudeMeters>
            <DistanceMeters>1328.983128872</DistanceMeters>
          </Trackpoint>
          <Trackpoint>
            <Time>2020-12-05T08:53:27.000Z</Time>
            <Position>
              <LatitudeDegrees>36.80286624468863010406494140625</LatitudeDegrees>
              <LongitudeDegrees>-4.37917225062847137451171875</LongitudeDegrees>
            </Position>
            <AltitudeMeters>802.79998779296875</AltitudeMeters>
            <DistanceMeters>1330.473564649</DistanceMeters>
          </Trackpoint>
          <Trackpoint>
            <Time>2020-12-05T08:53:28.000Z</Time>
            <Position>
              <LatitudeDegrees>36.8028783984482288360595703125</LatitudeDegrees>
              <LongitudeDegrees>-4.37918105162680149078369140625</LongitudeDegrees>
            </Position>
            <AltitudeMeters>802.79998779296875</AltitudeMeters>
            <DistanceMeters>1332.0350128998</DistanceMeters>
          </Trackpoint>
          <Trackpoint>
            <Time>2020-12-05T08:53:29.000Z</Time>
            <Position>
              <LatitudeDegrees>36.80288870818912982940673828125</LatitudeDegrees>
              <LongitudeDegrees>-4.3791881762444972991943359375</LongitudeDegrees>
            </Position>
            <AltitudeMeters>802.79998779296875</AltitudeMeters>
            <DistanceMeters>1333.3448657634</DistanceMeters>
          </Trackpoint>
          <Trackpoint>
            <Time>2020-12-05T08:53:30.000Z</Time>
            <Position>
              <LatitudeDegrees>36.80289574898779392242431640625</LatitudeDegrees>
              <LongitudeDegrees>-4.37919278629124164581298828125</LongitudeDegrees>
            </Position>
            <AltitudeMeters>802.5999755859375</AltitudeMeters>
            <DistanceMeters>1334.2362953608</DistanceMeters>
          </Trackpoint>
          <Trackpoint>
            <Time>2020-12-05T08:53:31.000Z</Time>
            <Position>
              <LatitudeDegrees>36.80290211923420429229736328125</LatitudeDegrees>
              <LongitudeDegrees>-4.3791968934237957000732421875</LongitudeDegrees>
            </Position>
            <AltitudeMeters>802.5999755859375</AltitudeMeters>
            <DistanceMeters>1335.0370046885</DistanceMeters>
          </Trackpoint>
          <Trackpoint>
            <Time>2020-12-05T08:53:32.000Z</Time>
            <Position>
              <LatitudeDegrees>36.802906729280948638916015625</LatitudeDegrees>
              <LongitudeDegrees>-4.3792012520134449005126953125</LongitudeDegrees>
            </Position>
            <AltitudeMeters>802.5999755859375</AltitudeMeters>
            <DistanceMeters>1335.6815072226</DistanceMeters>
          </Trackpoint>
          <Trackpoint>
            <Time>2020-12-05T08:53:33.000Z</Time>
            <Position>
              <LatitudeDegrees>36.80291418917477130889892578125</LatitudeDegrees>
              <LongitudeDegrees>-4.37920787371695041656494140625</LongitudeDegrees>
            </Position>
            <AltitudeMeters>802.5999755859375</AltitudeMeters>
            <DistanceMeters>1336.6961148879</DistanceMeters>
          </Trackpoint>
          <Trackpoint>
            <Time>2020-12-05T08:53:34.000Z</Time>
            <Position>
              <LatitudeDegrees>36.8029211461544036865234375</LatitudeDegrees>
              <LongitudeDegrees>-4.3792196922004222869873046875</LongitudeDegrees>
            </Position>
            <AltitudeMeters>802.4000244140625</AltitudeMeters>
            <DistanceMeters>1338.0059677516</DistanceMeters>
          </Trackpoint>
          <Trackpoint>
            <Time>2020-12-05T08:53:35.000Z</Time>
            <Position>
              <LatitudeDegrees>36.80292944423854351043701171875</LatitudeDegrees>
              <LongitudeDegrees>-4.37922396697103977203369140625</LongitudeDegrees>
            </Position>
            <AltitudeMeters>802.5999755859375</AltitudeMeters>
            <DistanceMeters>1339.00261634</DistanceMeters>
          </Trackpoint>
          <Trackpoint>
            <Time>2020-12-05T08:53:36.000Z</Time>
            <Position>
              <LatitudeDegrees>36.80293816141784191131591796875</LatitudeDegrees>
              <LongitudeDegrees>-4.37922723591327667236328125</LongitudeDegrees>
            </Position>
            <AltitudeMeters>802.79998779296875</AltitudeMeters>
            <DistanceMeters>1340.0172240054</DistanceMeters>
          </Trackpoint>
          <Trackpoint>
            <Time>2020-12-05T08:53:37.000Z</Time>
            <Position>
              <LatitudeDegrees>36.80294654332101345062255859375</LatitudeDegrees>
              <LongitudeDegrees>-4.3792364560067653656005859375</LongitudeDegrees>
            </Position>
            <AltitudeMeters>803</AltitudeMeters>
            <DistanceMeters>1341.2634876807</DistanceMeters>
          </Trackpoint>
          <Trackpoint>
            <Time>2020-12-05T08:53:38.000Z</Time>
            <Position>
              <LatitudeDegrees>36.8029558472335338592529296875</LatitudeDegrees>
              <LongitudeDegrees>-4.3792471848428249359130859375</LongitudeDegrees>
            </Position>
            <AltitudeMeters>803.20001220703125</AltitudeMeters>
            <DistanceMeters>1342.6729616314</DistanceMeters>
          </Trackpoint>
          <Trackpoint>
            <Time>2020-12-05T08:53:39.000Z</Time>
            <Position>
              <LatitudeDegrees>36.80296665988862514495849609375</LatitudeDegrees>
              <LongitudeDegrees>-4.37925514765083789825439453125</LongitudeDegrees>
            </Position>
            <AltitudeMeters>803.20001220703125</AltitudeMeters>
            <DistanceMeters>1344.0695634042</DistanceMeters>
          </Trackpoint>
          <Trackpoint>
            <Time>2020-12-05T08:53:40.000Z</Time>
            <Position>
              <LatitudeDegrees>36.80297755636274814605712890625</LatitudeDegrees>
              <LongitudeDegrees>-4.379263781011104583740234375</LongitudeDegrees>
            </Position>
            <AltitudeMeters>803.20001220703125</AltitudeMeters>
            <DistanceMeters>1345.504435325</DistanceMeters>
          </Trackpoint>
          <Trackpoint>
            <Time>2020-12-05T08:53:41.000Z</Time>
            <Position>
              <LatitudeDegrees>36.802987195551395416259765625</LatitudeDegrees>
              <LongitudeDegrees>-4.3792723305523395538330078125</LongitudeDegrees>
            </Position>
            <AltitudeMeters>803.4000244140625</AltitudeMeters>
            <DistanceMeters>1346.821164104</DistanceMeters>
          </Trackpoint>
          <Trackpoint>
            <Time>2020-12-05T08:53:42.000Z</Time>
            <Position>
              <LatitudeDegrees>36.8029980920255184173583984375</LatitudeDegrees>
              <LongitudeDegrees>-4.3792817182838916778564453125</LongitudeDegrees>
            </Position>
            <AltitudeMeters>803.4000244140625</AltitudeMeters>
            <DistanceMeters>1348.2994328547</DistanceMeters>
          </Trackpoint>
          <Trackpoint>
            <Time>2020-12-05T08:53:43.000Z</Time>
            <Position>
              <LatitudeDegrees>36.8030088208615779876708984375</LatitudeDegrees>
              <LongitudeDegrees>-4.37929018400609493255615234375</LongitudeDegrees>
            </Position>
            <AltitudeMeters>803.4000244140625</AltitudeMeters>
            <DistanceMeters>1349.7152990103</DistanceMeters>
          </Trackpoint>
          <Trackpoint>
            <Time>2020-12-05T08:53:44.000Z</Time>
            <Position>
              <LatitudeDegrees>36.8030175380408763885498046875</LatitudeDegrees>
              <LongitudeDegrees>-4.37929957173764705657958984375</LongitudeDegrees>
            </Position>
            <AltitudeMeters>803.4000244140625</AltitudeMeters>
            <DistanceMeters>1351.0007965751</DistanceMeters>
          </Trackpoint>
          <Trackpoint>
            <Time>2020-12-05T08:53:45.000Z</Time>
            <Position>
              <LatitudeDegrees>36.80302918888628482818603515625</LatitudeDegrees>
              <LongitudeDegrees>-4.37930912710726261138916015625</LongitudeDegrees>
            </Position>
            <AltitudeMeters>803.4000244140625</AltitudeMeters>
            <DistanceMeters>1352.5506353842</DistanceMeters>
          </Trackpoint>
          <Trackpoint>
            <Time>2020-12-05T08:53:46.000Z</Time>
            <Position>
              <LatitudeDegrees>36.80303874425590038299560546875</LatitudeDegrees>
              <LongitudeDegrees>-4.3793162517249584197998046875</LongitudeDegrees>
            </Position>
            <AltitudeMeters>803.5999755859375</AltitudeMeters>
            <DistanceMeters>1353.789632154</DistanceMeters>
          </Trackpoint>
          <Trackpoint>
            <Time>2020-12-05T08:53:47.000Z</Time>
            <Position>
              <LatitudeDegrees>36.8030470423400402069091796875</LatitudeDegrees>
              <LongitudeDegrees>-4.37932505272328853607177734375</LongitudeDegrees>
            </Position>
            <AltitudeMeters>803.79998779296875</AltitudeMeters>
            <DistanceMeters>1354.9991247682</DistanceMeters>
          </Trackpoint>
          <Trackpoint>
            <Time>2020-12-05T08:53:48.000Z</Time>
            <Position>
              <LatitudeDegrees>36.803054250776767730712890625</LatitudeDegrees>
              <LongitudeDegrees>-4.37933477573096752166748046875</LongitudeDegrees>
            </Position>
            <AltitudeMeters>804</AltitudeMeters>
            <DistanceMeters>1356.1783752812</DistanceMeters>
          </Trackpoint>
          <Trackpoint>
            <Time>2020-12-05T08:53:49.000Z</Time>
            <Position>
              <LatitudeDegrees>36.80306036956608295440673828125</LatitudeDegrees>
              <LongitudeDegrees>-4.37934248708188533782958984375</LongitudeDegrees>
            </Position>
            <AltitudeMeters>804.20001220703125</AltitudeMeters>
            <DistanceMeters>1357.147461423</DistanceMeters>
          </Trackpoint>
          <Trackpoint>
            <Time>2020-12-05T08:53:50.000Z</Time>
            <Position>
              <LatitudeDegrees>36.80306707508862018585205078125</LatitudeDegrees>
              <LongitudeDegrees>-4.37934500165283679962158203125</LongitudeDegrees>
            </Position>
            <AltitudeMeters>804.4000244140625</AltitudeMeters>
            <DistanceMeters>1357.9310717842</DistanceMeters>
          </Trackpoint>
          <Trackpoint>
            <Time>2020-12-05T08:53:51.000Z</Time>
            <Position>
              <LatitudeDegrees>36.80307336151599884033203125</LatitudeDegrees>
              <LongitudeDegrees>-4.3793413974344730377197265625</LongitudeDegrees>
            </Position>
            <AltitudeMeters>804.5999755859375</AltitudeMeters>
            <DistanceMeters>1358.7030724612</DistanceMeters>
          </Trackpoint>
          <Trackpoint>
            <Time>2020-12-05T08:53:52.000Z</Time>
            <Position>
              <LatitudeDegrees>36.80308274924755096435546875</LatitudeDegrees>
              <LongitudeDegrees>-4.3793444149196147918701171875</LongitudeDegrees>
            </Position>
            <AltitudeMeters>804.5999755859375</AltitudeMeters>
            <DistanceMeters>1359.7823684638</DistanceMeters>
          </Trackpoint>
          <Trackpoint>
            <Time>2020-12-05T08:53:53.000Z</Time>
            <Position>
              <LatitudeDegrees>36.8030928075313568115234375</LatitudeDegrees>
              <LongitudeDegrees>-4.3793512880802154541015625</LongitudeDegrees>
            </Position>
            <AltitudeMeters>804.79998779296875</AltitudeMeters>
            <DistanceMeters>1361.0572856219</DistanceMeters>
          </Trackpoint>
          <Trackpoint>
            <Time>2020-12-05T08:53:54.000Z</Time>
            <Position>
              <LatitudeDegrees>36.8031013570725917816162109375</LatitudeDegrees>
              <LongitudeDegrees>-4.37935531139373779296875</LongitudeDegrees>
            </Position>
            <AltitudeMeters>805</AltitudeMeters>
            <DistanceMeters>1362.0718932872</DistanceMeters>
          </Trackpoint>
          <Trackpoint>
            <Time>2020-12-05T08:53:55.000Z</Time>
            <Position>
              <LatitudeDegrees>36.80310965515673160552978515625</LatitudeDegrees>
              <LongitudeDegrees>-4.379360340535640716552734375</LongitudeDegrees>
            </Position>
            <AltitudeMeters>805.20001220703125</AltitudeMeters>
            <DistanceMeters>1363.0953623232</DistanceMeters>
          </Trackpoint>
          <Trackpoint>
            <Time>2020-12-05T08:53:56.000Z</Time>
            <Position>
              <LatitudeDegrees>36.8031147681176662445068359375</LatitudeDegrees>
              <LongitudeDegrees>-4.3793608434498310089111328125</LongitudeDegrees>
            </Position>
            <AltitudeMeters>805.20001220703125</AltitudeMeters>
            <DistanceMeters>1363.6655226094</DistanceMeters>
          </Trackpoint>
          <Trackpoint>
            <Time>2020-12-05T08:53:57.000Z</Time>
            <Position>
              <LatitudeDegrees>36.80312457494437694549560546875</LatitudeDegrees>
              <LongitudeDegrees>-4.37936310656368732452392578125</LongitudeDegrees>
            </Position>
            <AltitudeMeters>805.4000244140625</AltitudeMeters>
            <DistanceMeters>1364.7737150098</DistanceMeters>
          </Trackpoint>
          <Trackpoint>
            <Time>2020-12-05T08:53:58.000Z</Time>
            <Position>
              <LatitudeDegrees>36.80313614197075366973876953125</LatitudeDegrees>
              <LongitudeDegrees>-4.37936830334365367889404296875</LongitudeDegrees>
            </Position>
            <AltitudeMeters>805.4000244140625</AltitudeMeters>
            <DistanceMeters>1366.1442097746</DistanceMeters>
          </Trackpoint>
          <Trackpoint>
            <Time>2020-12-05T08:53:59.000Z</Time>
            <Position>
              <LatitudeDegrees>36.8031432665884494781494140625</LatitudeDegrees>
              <LongitudeDegrees>-4.37937400303781032562255859375</LongitudeDegrees>
            </Position>
            <AltitudeMeters>805.5999755859375</AltitudeMeters>
            <DistanceMeters>1367.0849262524</DistanceMeters>
          </Trackpoint>
          <Trackpoint>
            <Time>2020-12-05T08:54:00.000Z</Time>
            <Position>
              <LatitudeDegrees>36.803148128092288970947265625</LatitudeDegrees>
              <LongitudeDegrees>-4.379377104341983795166015625</LongitudeDegrees>
            </Position>
            <AltitudeMeters>805.79998779296875</AltitudeMeters>
            <DistanceMeters>1367.6859279643</DistanceMeters>
          </Trackpoint>
          <Trackpoint>
            <Time>2020-12-05T08:54:01.000Z</Time>
            <Position>
              <LatitudeDegrees>36.80315642617642879486083984375</LatitudeDegrees>
              <LongitudeDegrees>-4.3793781101703643798828125</LongitudeDegrees>
            </Position>
            <AltitudeMeters>806</AltitudeMeters>
            <DistanceMeters>1368.6169958129</DistanceMeters>
          </Trackpoint>
          <Trackpoint>
            <Time>2020-12-05T08:54:02.000Z</Time>
            <Position>
              <LatitudeDegrees>36.80316614918410778045654296875</LatitudeDegrees>
              <LongitudeDegrees>-4.37937970273196697235107421875</LongitudeDegrees>
            </Position>
            <AltitudeMeters>806</AltitudeMeters>
            <DistanceMeters>1369.7087696404</DistanceMeters>
          </Trackpoint>
          <Trackpoint>
            <Time>2020-12-05T08:54:03.000Z</Time>
            <Position>
              <LatitudeDegrees>36.80317838676273822784423828125</LatitudeDegrees>
              <LongitudeDegrees>-4.3793843127787113189697265625</LongitudeDegrees>
            </Position>
            <AltitudeMeters>806.20001220703125</AltitudeMeters>
            <DistanceMeters>1371.134170356</DistanceMeters>
          </Trackpoint>
          <Trackpoint>
            <Time>2020-12-05T08:54:04.000Z</Time>
            <Position>
              <LatitudeDegrees>36.803189702332019805908203125</LatitudeDegrees>
              <LongitudeDegrees>-4.37938791699707508087158203125</LongitudeDegrees>
            </Position>
            <AltitudeMeters>806.4000244140625</AltitudeMeters>
            <DistanceMeters>1372.433641131</DistanceMeters>
          </Trackpoint>
          <Trackpoint>
            <Time>2020-12-05T08:54:05.000Z</Time>
            <Position>
              <LatitudeDegrees>36.8032002635300159454345703125</LatitudeDegrees>
              <LongitudeDegrees>-4.37939110212028026580810546875</LongitudeDegrees>
            </Position>
            <AltitudeMeters>806.4000244140625</AltitudeMeters>
            <DistanceMeters>1373.6431337452</DistanceMeters>
          </Trackpoint>
          <Trackpoint>
            <Time>2020-12-05T08:54:06.000Z</Time>
            <Position>
              <LatitudeDegrees>36.80321141146123409271240234375</LatitudeDegrees>
              <LongitudeDegrees>-4.37939244322478771209716796875</LongitudeDegrees>
            </Position>
            <AltitudeMeters>806.4000244140625</AltitudeMeters>
            <DistanceMeters>1374.882130515</DistanceMeters>
          </Trackpoint>
          <Trackpoint>
            <Time>2020-12-05T08:54:07.000Z</Time>
            <Position>
              <LatitudeDegrees>36.80322348140180110931396484375</LatitudeDegrees>
              <LongitudeDegrees>-4.37939529307186603546142578125</LongitudeDegrees>
            </Position>
            <AltitudeMeters>806.4000244140625</AltitudeMeters>
            <DistanceMeters>1376.2460204473</DistanceMeters>
          </Trackpoint>
          <Trackpoint>
            <Time>2020-12-05T08:54:08.000Z</Time>
            <Position>
              <LatitudeDegrees>36.8032368086278438568115234375</LatitudeDegrees>
              <LongitudeDegrees>-4.37939965166151523590087890625</LongitudeDegrees>
            </Position>
            <AltitudeMeters>806.4000244140625</AltitudeMeters>
            <DistanceMeters>1377.7812240012</DistanceMeters>
          </Trackpoint>
          <Trackpoint>
            <Time>2020-12-05T08:54:09.000Z</Time>
            <Position>
              <LatitudeDegrees>36.80325063876807689666748046875</LatitudeDegrees>
              <LongitudeDegrees>-4.37940333969891071319580078125</LongitudeDegrees>
            </Position>
            <AltitudeMeters>806.4000244140625</AltitudeMeters>
            <DistanceMeters>1379.3541960116</DistanceMeters>
          </Trackpoint>
          <Trackpoint>
            <Time>2020-12-05T08:54:10.000Z</Time>
            <Position>
              <LatitudeDegrees>36.8032622896134853363037109375</LatitudeDegrees>
              <LongitudeDegrees>-4.37940501607954502105712890625</LongitudeDegrees>
            </Position>
            <AltitudeMeters>806.5999755859375</AltitudeMeters>
            <DistanceMeters>1380.6605973465</DistanceMeters>
          </Trackpoint>
          <Trackpoint>
            <Time>2020-12-05T08:54:11.000Z</Time>
            <Position>
              <LatitudeDegrees>36.80327410809695720672607421875</LatitudeDegrees>
              <LongitudeDegrees>-4.37940652482211589813232421875</LongitudeDegrees>
            </Position>
            <AltitudeMeters>806.5999755859375</AltitudeMeters>
            <DistanceMeters>1381.9773261255</DistanceMeters>
          </Trackpoint>
          <Trackpoint>
            <Time>2020-12-05T08:54:12.000Z</Time>
            <Position>
              <LatitudeDegrees>36.8032830767333507537841796875</LatitudeDegrees>
              <LongitudeDegrees>-4.37941054813563823699951171875</LongitudeDegrees>
            </Position>
            <AltitudeMeters>806.5999755859375</AltitudeMeters>
            <DistanceMeters>1383.035498833</DistanceMeters>
          </Trackpoint>
          <Trackpoint>
            <Time>2020-12-05T08:54:13.000Z</Time>
            <Position>
              <LatitudeDegrees>36.8032924644649028778076171875</LatitudeDegrees>
              <LongitudeDegrees>-4.37941473908722400665283203125</LongitudeDegrees>
            </Position>
            <AltitudeMeters>806.79998779296875</AltitudeMeters>
            <DistanceMeters>1384.1436912335</DistanceMeters>
          </Trackpoint>
          <Trackpoint>
            <Time>2020-12-05T08:54:14.000Z</Time>
            <Position>
              <LatitudeDegrees>36.8033020198345184326171875</LatitudeDegrees>
              <LongitudeDegrees>-4.3794183433055877685546875</LongitudeDegrees>
            </Position>
            <AltitudeMeters>806.79998779296875</AltitudeMeters>
            <DistanceMeters>1385.2559504087</DistanceMeters>
          </Trackpoint>
          <Trackpoint>
            <Time>2020-12-05T08:54:15.000Z</Time>
            <Position>
              <LatitudeDegrees>36.80331132374703884124755859375</LatitudeDegrees>
              <LongitudeDegrees>-4.3794232048094272613525390625</LongitudeDegrees>
            </Position>
            <AltitudeMeters>807</AltitudeMeters>
            <DistanceMeters>1386.3803216562</DistanceMeters>
          </Trackpoint>
          <Trackpoint>
            <Time>2020-12-05T08:54:16.000Z</Time>
            <Position>
              <LatitudeDegrees>36.80332087911665439605712890625</LatitudeDegrees>
              <LongitudeDegrees>-4.37942781485617160797119140625</LongitudeDegrees>
            </Position>
            <AltitudeMeters>807</AltitudeMeters>
            <DistanceMeters>1387.5245948248</DistanceMeters>
          </Trackpoint>
          <Trackpoint>
            <Time>2020-12-05T08:54:17.000Z</Time>
            <Position>
              <LatitudeDegrees>36.8033303506672382354736328125</LatitudeDegrees>
              <LongitudeDegrees>-4.379431419074535369873046875</LongitudeDegrees>
            </Position>
            <AltitudeMeters>807</AltitudeMeters>
            <DistanceMeters>1388.6327872252</DistanceMeters>
          </Trackpoint>
          <Trackpoint>
            <Time>2020-12-05T08:54:18.000Z</Time>
            <Position>
              <LatitudeDegrees>36.80334283970296382904052734375</LatitudeDegrees>
              <LongitudeDegrees>-4.37943535856902599334716796875</LongitudeDegrees>
            </Position>
            <AltitudeMeters>807.20001220703125</AltitudeMeters>
            <DistanceMeters>1390.0613519862</DistanceMeters>
          </Trackpoint>
          <Trackpoint>
            <Time>2020-12-05T08:54:19.000Z</Time>
            <Position>
              <LatitudeDegrees>36.80335490964353084564208984375</LatitudeDegrees>
              <LongitudeDegrees>-4.37944072298705577850341796875</LongitudeDegrees>
            </Position>
            <AltitudeMeters>807.4000244140625</AltitudeMeters>
            <DistanceMeters>1391.4867527017</DistanceMeters>
          </Trackpoint>
          <Trackpoint>
            <Time>2020-12-05T08:54:20.000Z</Time>
            <Position>
              <LatitudeDegrees>36.8033638782799243927001953125</LatitudeDegrees>
              <LongitudeDegrees>-4.37944407574832439422607421875</LongitudeDegrees>
            </Position>
            <AltitudeMeters>807.5999755859375</AltitudeMeters>
            <DistanceMeters>1392.5277182022</DistanceMeters>
          </Trackpoint>
          <Trackpoint>
            <Time>2020-12-05T08:54:21.000Z</Time>
            <Position>
              <LatitudeDegrees>36.80337318219244480133056640625</LatitudeDegrees>
              <LongitudeDegrees>-4.37944675795733928680419921875</LongitudeDegrees>
            </Position>
            <AltitudeMeters>807.5999755859375</AltitudeMeters>
            <DistanceMeters>1393.5901491673</DistanceMeters>
          </Trackpoint>
          <Trackpoint>
            <Time>2020-12-05T08:54:22.000Z</Time>
            <Position>
              <LatitudeDegrees>36.8033853359520435333251953125</LatitudeDegrees>
              <LongitudeDegrees>-4.37945145182311534881591796875</LongitudeDegrees>
            </Position>
            <AltitudeMeters>807.79998779296875</AltitudeMeters>
            <DistanceMeters>1395.0060153229</DistanceMeters>
          </Trackpoint>
          <Trackpoint>
            <Time>2020-12-05T08:54:23.000Z</Time>
            <Position>
              <LatitudeDegrees>36.80339715443551540374755859375</LatitudeDegrees>
              <LongitudeDegrees>-4.3794560618698596954345703125</LongitudeDegrees>
            </Position>
            <AltitudeMeters>807.79998779296875</AltitudeMeters>
            <DistanceMeters>1396.3863580809</DistanceMeters>
          </Trackpoint>
          <Trackpoint>
            <Time>2020-12-05T08:54:24.000Z</Time>
            <Position>
              <LatitudeDegrees>36.80340721271932125091552734375</LatitudeDegrees>
              <LongitudeDegrees>-4.3794587440788745880126953125</LongitudeDegrees>
            </Position>
            <AltitudeMeters>808</AltitudeMeters>
            <DistanceMeters>1397.5306312495</DistanceMeters>
          </Trackpoint>
          <Trackpoint>
            <Time>2020-12-05T08:54:25.000Z</Time>
            <Position>
              <LatitudeDegrees>36.8034161813557147979736328125</LatitudeDegrees>
              <LongitudeDegrees>-4.37946117483079433441162109375</LongitudeDegrees>
            </Position>
            <AltitudeMeters>808</AltitudeMeters>
            <DistanceMeters>1398.5541002855</DistanceMeters>
          </Trackpoint>
          <Trackpoint>
            <Time>2020-12-05T08:54:26.000Z</Time>
            <Position>
              <LatitudeDegrees>36.8034238927066326141357421875</LatitudeDegrees>
              <LongitudeDegrees>-4.37946251593530178070068359375</LongitudeDegrees>
            </Position>
            <AltitudeMeters>808.20001220703125</AltitudeMeters>
            <DistanceMeters>1399.419834855</DistanceMeters>
          </Trackpoint>
          <Trackpoint>
            <Time>2020-12-05T08:54:27.000Z</Time>
            <Position>
              <LatitudeDegrees>36.803432442247867584228515625</LatitudeDegrees>
              <LongitudeDegrees>-4.37946402467787265777587890625</LongitudeDegrees>
            </Position>
            <AltitudeMeters>808.20001220703125</AltitudeMeters>
            <DistanceMeters>1400.379557626</DistanceMeters>
          </Trackpoint>
          <Trackpoint>
            <Time>2020-12-05T08:54:28.000Z</Time>
            <Position>
              <LatitudeDegrees>36.8034409917891025543212890625</LatitudeDegrees>
              <LongitudeDegrees>-4.37946586869657039642333984375</LongitudeDegrees>
            </Position>
            <AltitudeMeters>808.20001220703125</AltitudeMeters>
            <DistanceMeters>1401.3486437678</DistanceMeters>
          </Trackpoint>
          <Trackpoint>
            <Time>2020-12-05T08:54:29.000Z</Time>
            <Position>
              <LatitudeDegrees>36.80345012806355953216552734375</LatitudeDegrees>
              <LongitudeDegrees>-4.37946419231593608856201171875</LongitudeDegrees>
            </Position>
            <AltitudeMeters>808</AltitudeMeters>
            <DistanceMeters>1402.3808981068</DistanceMeters>
          </Trackpoint>
          <Trackpoint>
            <Time>2020-12-05T08:54:30.000Z</Time>
            <Position>
              <LatitudeDegrees>36.80345985107123851776123046875</LatitudeDegrees>
              <LongitudeDegrees>-4.3794634379446506500244140625</LongitudeDegrees>
            </Position>
            <AltitudeMeters>808.20001220703125</AltitudeMeters>
            <DistanceMeters>1403.4643693513</DistanceMeters>
          </Trackpoint>
          <Trackpoint>
            <Time>2020-12-05T08:54:31.000Z</Time>
            <Position>
              <LatitudeDegrees>36.8034698255360126495361328125</LatitudeDegrees>
              <LongitudeDegrees>-4.3794641084969043731689453125</LongitudeDegrees>
            </Position>
            <AltitudeMeters>808.4000244140625</AltitudeMeters>
            <DistanceMeters>1404.5766285265</DistanceMeters>
          </Trackpoint>
          <Trackpoint>
            <Time>2020-12-05T08:54:32.000Z</Time>
            <Position>
              <LatitudeDegrees>36.803486086428165435791015625</LatitudeDegrees>
              <LongitudeDegrees>-4.37947156839072704315185546875</LongitudeDegrees>
            </Position>
            <AltitudeMeters>808.4000244140625</AltitudeMeters>
            <DistanceMeters>1406.5054601664</DistanceMeters>
          </Trackpoint>
          <Trackpoint>
            <Time>2020-12-05T08:54:33.000Z</Time>
            <Position>
              <LatitudeDegrees>36.803497485816478729248046875</LatitudeDegrees>
              <LongitudeDegrees>-4.37947374768555164337158203125</LongitudeDegrees>
            </Position>
            <AltitudeMeters>808.4000244140625</AltitudeMeters>
            <DistanceMeters>1407.7874406314</DistanceMeters>
          </Trackpoint>
          <Trackpoint>
            <Time>2020-12-05T08:54:34.000Z</Time>
            <Position>
              <LatitudeDegrees>36.80351056158542633056640625</LatitudeDegrees>
              <LongitudeDegrees>-4.3794746696949005126953125</LongitudeDegrees>
            </Position>
            <AltitudeMeters>808.4000244140625</AltitudeMeters>
            <DistanceMeters>1409.2441725781</DistanceMeters>
          </Trackpoint>
          <Trackpoint>
            <Time>2020-12-05T08:54:35.000Z</Time>
            <Position>
              <LatitudeDegrees>36.80352372117340564727783203125</LatitudeDegrees>
              <LongitudeDegrees>-4.3794719874858856201171875</LongitudeDegrees>
            </Position>
            <AltitudeMeters>808.4000244140625</AltitudeMeters>
            <DistanceMeters>1410.7285373083</DistanceMeters>
          </Trackpoint>
          <Trackpoint>
            <Time>2020-12-05T08:54:36.000Z</Time>
            <Position>
              <LatitudeDegrees>36.8035348691046237945556640625</LatitudeDegrees>
              <LongitudeDegrees>-4.3794684670865535736083984375</LongitudeDegrees>
            </Position>
            <AltitudeMeters>808.4000244140625</AltitudeMeters>
            <DistanceMeters>1412.0105177733</DistanceMeters>
          </Trackpoint>
          <Trackpoint>
            <Time>2020-12-05T08:54:37.000Z</Time>
            <Position>
              <LatitudeDegrees>36.80354786105453968048095703125</LatitudeDegrees>
              <LongitudeDegrees>-4.37946327030658721923828125</LongitudeDegrees>
            </Position>
            <AltitudeMeters>808.4000244140625</AltitudeMeters>
            <DistanceMeters>1413.5309452033</DistanceMeters>
          </Trackpoint>
          <Trackpoint>
            <Time>2020-12-05T08:54:38.000Z</Time>
            <Position>
              <LatitudeDegrees>36.80355892516672611236572265625</LatitudeDegrees>
              <LongitudeDegrees>-4.3794620968401432037353515625</LongitudeDegrees>
            </Position>
            <AltitudeMeters>808.20001220703125</AltitudeMeters>
            <DistanceMeters>1414.7626321938</DistanceMeters>
          </Trackpoint>
          <Trackpoint>
            <Time>2020-12-05T08:54:39.000Z</Time>
            <Position>
              <LatitudeDegrees>36.8035687319934368133544921875</LatitudeDegrees>
              <LongitudeDegrees>-4.37946050427854061126708984375</LongitudeDegrees>
            </Position>
            <AltitudeMeters>808.20001220703125</AltitudeMeters>
            <DistanceMeters>1415.8585337254</DistanceMeters>
          </Trackpoint>
          <Trackpoint>
            <Time>2020-12-05T08:54:40.000Z</Time>
            <Position>
              <LatitudeDegrees>36.8035818077623844146728515625</LatitudeDegrees>
              <LongitudeDegrees>-4.37945933081209659576416015625</LongitudeDegrees>
            </Position>
            <AltitudeMeters>808.20001220703125</AltitudeMeters>
            <DistanceMeters>1417.3183618114</DistanceMeters>
          </Trackpoint>
          <Trackpoint>
            <Time>2020-12-05T08:54:41.000Z</Time>
            <Position>
              <LatitudeDegrees>36.80359412916004657745361328125</LatitudeDegrees>
              <LongitudeDegrees>-4.3794604204595088958740234375</LongitudeDegrees>
            </Position>
            <AltitudeMeters>808.20001220703125</AltitudeMeters>
            <DistanceMeters>1418.6921470846</DistanceMeters>
          </Trackpoint>
          <Trackpoint>
            <Time>2020-12-05T08:54:42.000Z</Time>
            <Position>
              <LatitudeDegrees>36.80360737256705760955810546875</LatitudeDegrees>
              <LongitudeDegrees>-4.37946167774498462677001953125</LongitudeDegrees>
            </Position>
            <AltitudeMeters>808.5999755859375</AltitudeMeters>
            <DistanceMeters>1420.1704158354</DistanceMeters>
          </Trackpoint>
          <Trackpoint>
            <Time>2020-12-05T08:54:43.000Z</Time>
            <Position>
              <LatitudeDegrees>36.8036200292408466339111328125</LatitudeDegrees>
              <LongitudeDegrees>-4.37946519814431667327880859375</LongitudeDegrees>
            </Position>
            <AltitudeMeters>808.79998779296875</AltitudeMeters>
            <DistanceMeters>1421.6178196266</DistanceMeters>
          </Trackpoint>
          <Trackpoint>
            <Time>2020-12-05T08:54:44.000Z</Time>
            <Position>
              <LatitudeDegrees>36.80363235063850879669189453125</LatitudeDegrees>
              <LongitudeDegrees>-4.37946570105850696563720703125</LongitudeDegrees>
            </Position>
            <AltitudeMeters>809.4000244140625</AltitudeMeters>
            <DistanceMeters>1422.9883143914</DistanceMeters>
          </Trackpoint>
          <Trackpoint>
            <Time>2020-12-05T08:54:45.000Z</Time>
            <Position>
              <LatitudeDegrees>36.80364391766488552093505859375</LatitudeDegrees>
              <LongitudeDegrees>-4.37946519814431667327880859375</LongitudeDegrees>
            </Position>
            <AltitudeMeters>810</AltitudeMeters>
            <DistanceMeters>1424.2773194596</DistanceMeters>
          </Trackpoint>
          <Trackpoint>
            <Time>2020-12-05T08:54:46.000Z</Time>
            <Position>
              <LatitudeDegrees>36.803655065596103668212890625</LatitudeDegrees>
              <LongitudeDegrees>-4.37946192920207977294921875</LongitudeDegrees>
            </Position>
            <AltitudeMeters>810.20001220703125</AltitudeMeters>
            <DistanceMeters>1425.5557731491</DistanceMeters>
          </Trackpoint>
          <Trackpoint>
            <Time>2020-12-05T08:54:47.000Z</Time>
            <Position>
              <LatitudeDegrees>36.80366839282214641571044921875</LatitudeDegrees>
              <LongitudeDegrees>-4.3794570676982402801513671875</LongitudeDegrees>
            </Position>
            <AltitudeMeters>810.5999755859375</AltitudeMeters>
            <DistanceMeters>1427.0997745032</DistanceMeters>
          </Trackpoint>
          <Trackpoint>
            <Time>2020-12-05T08:54:48.000Z</Time>
            <Position>
              <LatitudeDegrees>36.80368180386722087860107421875</LatitudeDegrees>
              <LongitudeDegrees>-4.37945178709924221038818359375</LongitudeDegrees>
            </Position>
            <AltitudeMeters>810.79998779296875</AltitudeMeters>
            <DistanceMeters>1428.6641116523</DistanceMeters>
          </Trackpoint>
          <Trackpoint>
            <Time>2020-12-05T08:54:49.000Z</Time>
            <Position>
              <LatitudeDegrees>36.80369420908391475677490234375</LatitudeDegrees>
              <LongitudeDegrees>-4.37944491393864154815673828125</LongitudeDegrees>
            </Position>
            <AltitudeMeters>811</AltitudeMeters>
            <DistanceMeters>1430.1785882671</DistanceMeters>
          </Trackpoint>
          <Trackpoint>
            <Time>2020-12-05T08:54:50.000Z</Time>
            <Position>
              <LatitudeDegrees>36.80370460264384746551513671875</LatitudeDegrees>
              <LongitudeDegrees>-4.37943988479673862457275390625</LongitudeDegrees>
            </Position>
            <AltitudeMeters>811</AltitudeMeters>
            <DistanceMeters>1431.4175850369</DistanceMeters>
          </Trackpoint>
          <Trackpoint>
            <Time>2020-12-05T08:54:51.000Z</Time>
            <Position>
              <LatitudeDegrees>36.80371616967022418975830078125</LatitudeDegrees>
              <LongitudeDegrees>-4.37943401746451854705810546875</LongitudeDegrees>
            </Position>
            <AltitudeMeters>811.20001220703125</AltitudeMeters>
            <DistanceMeters>1432.8077060241</DistanceMeters>
          </Trackpoint>
          <Trackpoint>
            <Time>2020-12-05T08:54:52.000Z</Time>
            <Position>
              <LatitudeDegrees>36.80372622795403003692626953125</LatitudeDegrees>
              <LongitudeDegrees>-4.37943049706518650054931640625</LongitudeDegrees>
            </Position>
            <AltitudeMeters>811.4000244140625</AltitudeMeters>
            <DistanceMeters>1433.9715408348</DistanceMeters>
          </Trackpoint>
          <Trackpoint>
            <Time>2020-12-05T08:54:53.000Z</Time>
            <Position>
              <LatitudeDegrees>36.8037330172955989837646484375</LatitudeDegrees>
              <LongitudeDegrees>-4.3794292397797107696533203125</LongitudeDegrees>
            </Position>
            <AltitudeMeters>811.4000244140625</AltitudeMeters>
            <DistanceMeters>1434.7317545497</DistanceMeters>
          </Trackpoint>
          <Trackpoint>
            <Time>2020-12-05T08:54:54.000Z</Time>
            <Position>
              <LatitudeDegrees>36.803738214075565338134765625</LatitudeDegrees>
              <LongitudeDegrees>-4.379427395761013031005859375</LongitudeDegrees>
            </Position>
            <AltitudeMeters>811.5999755859375</AltitudeMeters>
            <DistanceMeters>1435.3327562617</DistanceMeters>
          </Trackpoint>
          <Trackpoint>
            <Time>2020-12-05T08:54:55.000Z</Time>
            <Position>
              <LatitudeDegrees>36.80374735035002231597900390625</LatitudeDegrees>
              <LongitudeDegrees>-4.37942840158939361572265625</LongitudeDegrees>
            </Position>
            <AltitudeMeters>811.5999755859375</AltitudeMeters>
            <DistanceMeters>1436.3518042444</DistanceMeters>
          </Trackpoint>
          <Trackpoint>
            <Time>2020-12-05T08:54:56.000Z</Time>
            <Position>
              <LatitudeDegrees>36.8037581630051136016845703125</LatitudeDegrees>
              <LongitudeDegrees>-4.37943418510258197784423828125</LongitudeDegrees>
            </Position>
            <AltitudeMeters>811.5999755859375</AltitudeMeters>
            <DistanceMeters>1437.661657108</DistanceMeters>
          </Trackpoint>
          <Trackpoint>
            <Time>2020-12-05T08:54:57.000Z</Time>
            <Position>
              <LatitudeDegrees>36.803769730031490325927734375</LatitudeDegrees>
              <LongitudeDegrees>-4.37943820841610431671142578125</LongitudeDegrees>
            </Position>
            <AltitudeMeters>811.5999755859375</AltitudeMeters>
            <DistanceMeters>1438.9988015041</DistanceMeters>
          </Trackpoint>
          <Trackpoint>
            <Time>2020-12-05T08:54:58.000Z</Time>
            <Position>
              <LatitudeDegrees>36.8037789501249790191650390625</LatitudeDegrees>
              <LongitudeDegrees>-4.3794416449964046478271484375</LongitudeDegrees>
            </Position>
            <AltitudeMeters>811.5999755859375</AltitudeMeters>
            <DistanceMeters>1440.0654737274</DistanceMeters>
          </Trackpoint>
          <Trackpoint>
            <Time>2020-12-05T08:54:59.000Z</Time>
            <Position>
              <LatitudeDegrees>36.803787834942340850830078125</LatitudeDegrees>
              <LongitudeDegrees>-4.37944156117737293243408203125</LongitudeDegrees>
            </Position>
            <AltitudeMeters>811.5999755859375</AltitudeMeters>
            <DistanceMeters>1441.0530203115</DistanceMeters>
          </Trackpoint>
          <Trackpoint>
            <Time>2020-12-05T08:55:00.000Z</Time>
            <Position>
              <LatitudeDegrees>36.803799234330654144287109375</LatitudeDegrees>
              <LongitudeDegrees>-4.37943921424448490142822265625</LongitudeDegrees>
            </Position>
            <AltitudeMeters>811.5999755859375</AltitudeMeters>
            <DistanceMeters>1442.3385178764</DistanceMeters>
          </Trackpoint>
          <Trackpoint>
            <Time>2020-12-05T08:55:01.000Z</Time>
            <Position>
              <LatitudeDegrees>36.8038108013570308685302734375</LatitudeDegrees>
              <LongitudeDegrees>-4.37943569384515285491943359375</LongitudeDegrees>
            </Position>
            <AltitudeMeters>811.5999755859375</AltitudeMeters>
            <DistanceMeters>1443.6620868509</DistanceMeters>
          </Trackpoint>
          <Trackpoint>
            <Time>2020-12-05T08:55:02.000Z</Time>
            <Position>
              <LatitudeDegrees>36.80382312275469303131103515625</LatitudeDegrees>
              <LongitudeDegrees>-4.37942965887486934661865234375</LongitudeDegrees>
            </Position>
            <AltitudeMeters>811.79998779296875</AltitudeMeters>
            <DistanceMeters>1445.1342343796</DistanceMeters>
          </Trackpoint>
          <Trackpoint>
            <Time>2020-12-05T08:55:03.000Z</Time>
            <Position>
              <LatitudeDegrees>36.80383385159075260162353515625</LatitudeDegrees>
              <LongitudeDegrees>-4.37942613847553730010986328125</LongitudeDegrees>
            </Position>
            <AltitudeMeters>812</AltitudeMeters>
            <DistanceMeters>1446.3695816665</DistanceMeters>
          </Trackpoint>
          <Trackpoint>
            <Time>2020-12-05T08:55:04.000Z</Time>
            <Position>
              <LatitudeDegrees>36.80384340696036815643310546875</LatitudeDegrees>
              <LongitudeDegrees>-4.37942035496234893798828125</LongitudeDegrees>
            </Position>
            <AltitudeMeters>812.4000244140625</AltitudeMeters>
            <DistanceMeters>1447.5488321794</DistanceMeters>
          </Trackpoint>
          <Trackpoint>
            <Time>2020-12-05T08:55:05.000Z</Time>
            <Position>
              <LatitudeDegrees>36.80385396815836429595947265625</LatitudeDegrees>
              <LongitudeDegrees>-4.3794158287346363067626953125</LongitudeDegrees>
            </Position>
            <AltitudeMeters>812.5999755859375</AltitudeMeters>
            <DistanceMeters>1448.7914677141</DistanceMeters>
          </Trackpoint>
          <Trackpoint>
            <Time>2020-12-05T08:55:06.000Z</Time>
            <Position>
              <LatitudeDegrees>36.8038651160895824432373046875</LatitudeDegrees>
              <LongitudeDegrees>-4.37941205687820911407470703125</LongitudeDegrees>
            </Position>
            <AltitudeMeters>813</AltitudeMeters>
            <DistanceMeters>1450.0804727822</DistanceMeters>
          </Trackpoint>
          <Trackpoint>
            <Time>2020-12-05T08:55:07.000Z</Time>
            <Position>
              <LatitudeDegrees>36.80387542583048343658447265625</LatitudeDegrees>
              <LongitudeDegrees>-4.379407949745655059814453125</LongitudeDegrees>
            </Position>
            <AltitudeMeters>813</AltitudeMeters>
            <DistanceMeters>1451.2824762061</DistanceMeters>
          </Trackpoint>
          <Trackpoint>
            <Time>2020-12-05T08:55:08.000Z</Time>
            <Position>
              <LatitudeDegrees>36.8038832210004329681396484375</LatitudeDegrees>
              <LongitudeDegrees>-4.3794054351747035980224609375</LongitudeDegrees>
            </Position>
            <AltitudeMeters>813</AltitudeMeters>
            <DistanceMeters>1452.183978774</DistanceMeters>
          </Trackpoint>
          <Trackpoint>
            <Time>2020-12-05T08:55:09.000Z</Time>
            <Position>
              <LatitudeDegrees>36.8038899265229701995849609375</LatitudeDegrees>
              <LongitudeDegrees>-4.37940333969891071319580078125</LongitudeDegrees>
            </Position>
            <AltitudeMeters>813</AltitudeMeters>
            <DistanceMeters>1452.955979451</DistanceMeters>
          </Trackpoint>
          <Trackpoint>
            <Time>2020-12-05T08:55:10.000Z</Time>
            <Position>
              <LatitudeDegrees>36.8038974702358245849609375</LatitudeDegrees>
              <LongitudeDegrees>-4.37940023839473724365234375</LongitudeDegrees>
            </Position>
            <AltitudeMeters>812.79998779296875</AltitudeMeters>
            <DistanceMeters>1453.837220947</DistanceMeters>
          </Trackpoint>
          <Trackpoint>
            <Time>2020-12-05T08:55:11.000Z</Time>
            <Position>
              <LatitudeDegrees>36.803907193243503570556640625</LatitudeDegrees>
              <LongitudeDegrees>-4.3793983943760395050048828125</LongitudeDegrees>
            </Position>
            <AltitudeMeters>812.5999755859375</AltitudeMeters>
            <DistanceMeters>1454.9289947745</DistanceMeters>
          </Trackpoint>
          <Trackpoint>
            <Time>2020-12-05T08:55:12.000Z</Time>
            <Position>
              <LatitudeDegrees>36.80391666479408740997314453125</LatitudeDegrees>
              <LongitudeDegrees>-4.37939730472862720489501953125</LongitudeDegrees>
            </Position>
            <AltitudeMeters>812.4000244140625</AltitudeMeters>
            <DistanceMeters>1455.9828920194</DistanceMeters>
          </Trackpoint>
          <Trackpoint>
            <Time>2020-12-05T08:55:13.000Z</Time>
            <Position>
              <LatitudeDegrees>36.80392739363014698028564453125</LatitudeDegrees>
              <LongitudeDegrees>-4.37939495779573917388916015625</LongitudeDegrees>
            </Position>
            <AltitudeMeters>812.4000244140625</AltitudeMeters>
            <DistanceMeters>1457.1961118924</DistanceMeters>
          </Trackpoint>
          <Trackpoint>
            <Time>2020-12-05T08:55:14.000Z</Time>
            <Position>
              <LatitudeDegrees>36.80394113995134830474853515625</LatitudeDegrees>
              <LongitudeDegrees>-4.3793937005102634429931640625</LongitudeDegrees>
            </Position>
            <AltitudeMeters>812.4000244140625</AltitudeMeters>
            <DistanceMeters>1458.7283716209</DistanceMeters>
          </Trackpoint>
          <Trackpoint>
            <Time>2020-12-05T08:55:15.000Z</Time>
            <Position>
              <LatitudeDegrees>36.80395706556737422943115234375</LatitudeDegrees>
              <LongitudeDegrees>-4.379393868148326873779296875</LongitudeDegrees>
            </Position>
            <AltitudeMeters>812.5999755859375</AltitudeMeters>
            <DistanceMeters>1460.5010719911</DistanceMeters>
          </Trackpoint>
          <Trackpoint>
            <Time>2020-12-05T08:55:16.000Z</Time>
            <Position>
              <LatitudeDegrees>36.8039693869650363922119140625</LatitudeDegrees>
              <LongitudeDegrees>-4.3793893419206142425537109375</LongitudeDegrees>
            </Position>
            <AltitudeMeters>812.5999755859375</AltitudeMeters>
            <DistanceMeters>1461.929636752</DistanceMeters>
          </Trackpoint>
          <Trackpoint>
            <Time>2020-12-05T08:55:17.000Z</Time>
            <Position>
              <LatitudeDegrees>36.80398128926753997802734375</LatitudeDegrees>
              <LongitudeDegrees>-4.379381798207759857177734375</LongitudeDegrees>
            </Position>
            <AltitudeMeters>812.5999755859375</AltitudeMeters>
            <DistanceMeters>1463.4140014823</DistanceMeters>
          </Trackpoint>
          <Trackpoint>
            <Time>2020-12-05T08:55:18.000Z</Time>
            <Position>
              <LatitudeDegrees>36.80399226956069469451904296875</LatitudeDegrees>
              <LongitudeDegrees>-4.3793769367039203643798828125</LongitudeDegrees>
            </Position>
            <AltitudeMeters>812.79998779296875</AltitudeMeters>
            <DistanceMeters>1464.7099930789</DistanceMeters>
          </Trackpoint>
          <Trackpoint>
            <Time>2020-12-05T08:55:19.000Z</Time>
            <Position>
              <LatitudeDegrees>36.80400400422513484954833984375</LatitudeDegrees>
              <LongitudeDegrees>-4.37937282957136631011962890625</LongitudeDegrees>
            </Position>
            <AltitudeMeters>812.79998779296875</AltitudeMeters>
            <DistanceMeters>1466.0672460378</DistanceMeters>
          </Trackpoint>
          <Trackpoint>
            <Time>2020-12-05T08:55:20.000Z</Time>
            <Position>
              <LatitudeDegrees>36.80401590652763843536376953125</LatitudeDegrees>
              <LongitudeDegrees>-4.37937182374298572540283203125</LongitudeDegrees>
            </Position>
            <AltitudeMeters>813</AltitudeMeters>
            <DistanceMeters>1467.3942218879</DistanceMeters>
          </Trackpoint>
          <Trackpoint>
            <Time>2020-12-05T08:55:21.000Z</Time>
            <Position>
              <LatitudeDegrees>36.8040300719439983367919921875</LatitudeDegrees>
              <LongitudeDegrees>-4.3793722428381443023681640625</LongitudeDegrees>
            </Position>
            <AltitudeMeters>813.20001220703125</AltitudeMeters>
            <DistanceMeters>1468.9729242343</DistanceMeters>
          </Trackpoint>
          <Trackpoint>
            <Time>2020-12-05T08:55:22.000Z</Time>
            <Position>
              <LatitudeDegrees>36.804044656455516815185546875</LatitudeDegrees>
              <LongitudeDegrees>-4.379370398819446563720703125</LongitudeDegrees>
            </Position>
            <AltitudeMeters>813.5999755859375</AltitudeMeters>
            <DistanceMeters>1470.6078256464</DistanceMeters>
          </Trackpoint>
          <Trackpoint>
            <Time>2020-12-05T08:55:23.000Z</Time>
            <Position>
              <LatitudeDegrees>36.80405563674867153167724609375</LatitudeDegrees>
              <LongitudeDegrees>-4.3793702311813831329345703125</LongitudeDegrees>
            </Position>
            <AltitudeMeters>813.79998779296875</AltitudeMeters>
            <DistanceMeters>1471.832159216</DistanceMeters>
          </Trackpoint>
          <Trackpoint>
            <Time>2020-12-05T08:55:24.000Z</Time>
            <Position>
              <LatitudeDegrees>36.80406686849892139434814453125</LatitudeDegrees>
              <LongitudeDegrees>-4.379369728267192840576171875</LongitudeDegrees>
            </Position>
            <AltitudeMeters>814</AltitudeMeters>
            <DistanceMeters>1473.0856476688</DistanceMeters>
          </Trackpoint>
          <Trackpoint>
            <Time>2020-12-05T08:55:25.000Z</Time>
            <Position>
              <LatitudeDegrees>36.80407927371561527252197265625</LatitudeDegrees>
              <LongitudeDegrees>-4.379369057714939117431640625</LongitudeDegrees>
            </Position>
            <AltitudeMeters>814.20001220703125</AltitudeMeters>
            <DistanceMeters>1474.4725169065</DistanceMeters>
          </Trackpoint>
          <Trackpoint>
            <Time>2020-12-05T08:55:26.000Z</Time>
            <Position>
              <LatitudeDegrees>36.80409117601811885833740234375</LatitudeDegrees>
              <LongitudeDegrees>-4.3793695606291294097900390625</LongitudeDegrees>
            </Position>
            <AltitudeMeters>814.4000244140625</AltitudeMeters>
            <DistanceMeters>1475.8028909077</DistanceMeters>
          </Trackpoint>
          <Trackpoint>
            <Time>2020-12-05T08:55:27.000Z</Time>
            <Position>
              <LatitudeDegrees>36.8041014857590198516845703125</LatitudeDegrees>
              <LongitudeDegrees>-4.3793682195246219635009765625</LongitudeDegrees>
            </Position>
            <AltitudeMeters>814.4000244140625</AltitudeMeters>
            <DistanceMeters>1476.9550285893</DistanceMeters>
          </Trackpoint>
          <Trackpoint>
            <Time>2020-12-05T08:55:28.000Z</Time>
            <Position>
              <LatitudeDegrees>36.80411405861377716064453125</LatitudeDegrees>
              <LongitudeDegrees>-4.37936847098171710968017578125</LongitudeDegrees>
            </Position>
            <AltitudeMeters>814.5999755859375</AltitudeMeters>
            <DistanceMeters>1478.3516303621</DistanceMeters>
          </Trackpoint>
          <Trackpoint>
            <Time>2020-12-05T08:55:29.000Z</Time>
            <Position>
              <LatitudeDegrees>36.80412948131561279296875</LatitudeDegrees>
              <LongitudeDegrees>-4.37936997972428798675537109375</LongitudeDegrees>
            </Position>
            <AltitudeMeters>814.79998779296875</AltitudeMeters>
            <DistanceMeters>1480.0726373562</DistanceMeters>
          </Trackpoint>
          <Trackpoint>
            <Time>2020-12-05T08:55:30.000Z</Time>
            <Position>
              <LatitudeDegrees>36.80413979105651378631591796875</LatitudeDegrees>
              <LongitudeDegrees>-4.3793739192187786102294921875</LongitudeDegrees>
            </Position>
            <AltitudeMeters>814.79998779296875</AltitudeMeters>
            <DistanceMeters>1481.2746407801</DistanceMeters>
          </Trackpoint>
          <Trackpoint>
            <Time>2020-12-05T08:55:31.000Z</Time>
            <Position>
              <LatitudeDegrees>36.80415102280676364898681640625</LatitudeDegrees>
              <LongitudeDegrees>-4.37937752343714237213134765625</LongitudeDegrees>
            </Position>
            <AltitudeMeters>814.79998779296875</AltitudeMeters>
            <DistanceMeters>1482.5671438331</DistanceMeters>
          </Trackpoint>
          <Trackpoint>
            <Time>2020-12-05T08:55:32.000Z</Time>
            <Position>
              <LatitudeDegrees>36.8041630089282989501953125</LatitudeDegrees>
              <LongitudeDegrees>-4.379379115998744964599609375</LongitudeDegrees>
            </Position>
            <AltitudeMeters>814.79998779296875</AltitudeMeters>
            <DistanceMeters>1483.9110245156</DistanceMeters>
          </Trackpoint>
          <Trackpoint>
            <Time>2020-12-05T08:55:33.000Z</Time>
            <Position>
              <LatitudeDegrees>36.804175414144992828369140625</LatitudeDegrees>
              <LongitudeDegrees>-4.37938146293163299560546875</LongitudeDegrees>
            </Position>
            <AltitudeMeters>814.79998779296875</AltitudeMeters>
            <DistanceMeters>1485.3108554298</DistanceMeters>
          </Trackpoint>
          <Trackpoint>
            <Time>2020-12-05T08:55:34.000Z</Time>
            <Position>
              <LatitudeDegrees>36.8041910044848918914794921875</LatitudeDegrees>
              <LongitudeDegrees>-4.37938322313129901885986328125</LongitudeDegrees>
            </Position>
            <AltitudeMeters>814.79998779296875</AltitudeMeters>
            <DistanceMeters>1487.0527238764</DistanceMeters>
          </Trackpoint>
          <Trackpoint>
            <Time>2020-12-05T08:55:35.000Z</Time>
            <Position>
              <LatitudeDegrees>36.8042070977389812469482421875</LatitudeDegrees>
              <LongitudeDegrees>-4.3793836422264575958251953125</LongitudeDegrees>
            </Position>
            <AltitudeMeters>814.79998779296875</AltitudeMeters>
            <DistanceMeters>1488.8456843372</DistanceMeters>
          </Trackpoint>
          <Trackpoint>
            <Time>2020-12-05T08:55:36.000Z</Time>
            <Position>
              <LatitudeDegrees>36.80422159843146800994873046875</LatitudeDegrees>
              <LongitudeDegrees>-4.379385150969028472900390625</LongitudeDegrees>
            </Position>
            <AltitudeMeters>814.5999755859375</AltitudeMeters>
            <DistanceMeters>1490.4667186506</DistanceMeters>
          </Trackpoint>
          <Trackpoint>
            <Time>2020-12-05T08:55:37.000Z</Time>
            <Position>
              <LatitudeDegrees>36.8042342551052570343017578125</LatitudeDegrees>
              <LongitudeDegrees>-4.37938557006418704986572265625</LongitudeDegrees>
            </Position>
            <AltitudeMeters>814.5999755859375</AltitudeMeters>
            <DistanceMeters>1491.8761926013</DistanceMeters>
          </Trackpoint>
          <Trackpoint>
            <Time>2020-12-05T08:55:38.000Z</Time>
            <Position>
              <LatitudeDegrees>36.80424858815968036651611328125</LatitudeDegrees>
              <LongitudeDegrees>-4.3793883360922336578369140625</LongitudeDegrees>
            </Position>
            <AltitudeMeters>814.5999755859375</AltitudeMeters>
            <DistanceMeters>1493.4888494203</DistanceMeters>
          </Trackpoint>
          <Trackpoint>
            <Time>2020-12-05T08:55:39.000Z</Time>
            <Position>
              <LatitudeDegrees>36.8042570538818836212158203125</LatitudeDegrees>
              <LongitudeDegrees>-4.37939227558672428131103515625</LongitudeDegrees>
            </Position>
            <AltitudeMeters>814.5999755859375</AltitudeMeters>
            <DistanceMeters>1494.4900179802</DistanceMeters>
          </Trackpoint>
          <Trackpoint>
            <Time>2020-12-05T08:55:40.000Z</Time>
            <Position>
              <LatitudeDegrees>36.80426518432796001434326171875</LatitudeDegrees>
              <LongitudeDegrees>-4.37939764000475406646728515625</LongitudeDegrees>
            </Position>
            <AltitudeMeters>814.5999755859375</AltitudeMeters>
            <DistanceMeters>1495.5134870161</DistanceMeters>
          </Trackpoint>
          <Trackpoint>
            <Time>2020-12-05T08:55:41.000Z</Time>
            <Position>
              <LatitudeDegrees>36.8042728118598461151123046875</LatitudeDegrees>
              <LongitudeDegrees>-4.37940803356468677520751953125</LongitudeDegrees>
            </Position>
            <AltitudeMeters>815</AltitudeMeters>
            <DistanceMeters>1496.7705722867</DistanceMeters>
          </Trackpoint>
          <Trackpoint>
            <Time>2020-12-05T08:55:42.000Z</Time>
            <Position>
              <LatitudeDegrees>36.80428127758204936981201171875</LatitudeDegrees>
              <LongitudeDegrees>-4.37941524200141429901123046875</LongitudeDegrees>
            </Position>
            <AltitudeMeters>815.4000244140625</AltitudeMeters>
            <DistanceMeters>1497.9108928592</DistanceMeters>
          </Trackpoint>
          <Trackpoint>
            <Time>2020-12-05T08:55:43.000Z</Time>
            <Position>
              <LatitudeDegrees>36.804288737475872039794921875</LatitudeDegrees>
              <LongitudeDegrees>-4.37941825948655605316162109375</LongitudeDegrees>
            </Position>
            <AltitudeMeters>816</AltitudeMeters>
            <DistanceMeters>1498.7818270825</DistanceMeters>
          </Trackpoint>
          <Trackpoint>
            <Time>2020-12-05T08:55:44.000Z</Time>
            <Position>
              <LatitudeDegrees>36.80429686792194843292236328125</LatitudeDegrees>
              <LongitudeDegrees>-4.379421360790729522705078125</LongitudeDegrees>
            </Position>
            <AltitudeMeters>816.4000244140625</AltitudeMeters>
            <DistanceMeters>1499.7225435602</DistanceMeters>
          </Trackpoint>
          <Trackpoint>
            <Time>2020-12-05T08:55:45.000Z</Time>
            <Position>
              <LatitudeDegrees>36.80430583655834197998046875</LatitudeDegrees>
              <LongitudeDegrees>-4.37942110933363437652587890625</LongitudeDegrees>
            </Position>
            <AltitudeMeters>816.5999755859375</AltitudeMeters>
            <DistanceMeters>1500.7191921486</DistanceMeters>
          </Trackpoint>
          <Trackpoint>
            <Time>2020-12-05T08:55:46.000Z</Time>
            <Position>
              <LatitudeDegrees>36.80431614629924297332763671875</LatitudeDegrees>
              <LongitudeDegrees>-4.37942395918071269989013671875</LongitudeDegrees>
            </Position>
            <AltitudeMeters>816.79998779296875</AltitudeMeters>
            <DistanceMeters>1501.8907601661</DistanceMeters>
          </Trackpoint>
          <Trackpoint>
            <Time>2020-12-05T08:55:47.000Z</Time>
            <Position>
              <LatitudeDegrees>36.80432452820241451263427734375</LatitudeDegrees>
              <LongitudeDegrees>-4.37942664138972759246826171875</LongitudeDegrees>
            </Position>
            <AltitudeMeters>816.79998779296875</AltitudeMeters>
            <DistanceMeters>1502.8504829371</DistanceMeters>
          </Trackpoint>
          <Trackpoint>
            <Time>2020-12-05T08:55:48.000Z</Time>
            <Position>
              <LatitudeDegrees>36.80433257482945919036865234375</LatitudeDegrees>
              <LongitudeDegrees>-4.379430077970027923583984375</LongitudeDegrees>
            </Position>
            <AltitudeMeters>817</AltitudeMeters>
            <DistanceMeters>1503.8007500808</DistanceMeters>
          </Trackpoint>
          <Trackpoint>
            <Time>2020-12-05T08:55:49.000Z</Time>
            <Position>
              <LatitudeDegrees>36.80433928035199642181396484375</LatitudeDegrees>
              <LongitudeDegrees>-4.37943376600742340087890625</LongitudeDegrees>
            </Position>
            <AltitudeMeters>817</AltitudeMeters>
            <DistanceMeters>1504.6182007869</DistanceMeters>
          </Trackpoint>
          <Trackpoint>
            <Time>2020-12-05T08:55:50.000Z</Time>
            <Position>
              <LatitudeDegrees>36.8043455667793750762939453125</LatitudeDegrees>
              <LongitudeDegrees>-4.37943485565483570098876953125</LongitudeDegrees>
            </Position>
            <AltitudeMeters>817.20001220703125</AltitudeMeters>
            <DistanceMeters>1505.3293156024</DistanceMeters>
          </Trackpoint>
          <Trackpoint>
            <Time>2020-12-05T08:55:51.000Z</Time>
            <Position>
              <LatitudeDegrees>36.80435420013964176177978515625</LatitudeDegrees>
              <LongitudeDegrees>-4.37943435274064540863037109375</LongitudeDegrees>
            </Position>
            <AltitudeMeters>817.20001220703125</AltitudeMeters>
            <DistanceMeters>1506.2937314224</DistanceMeters>
          </Trackpoint>
          <Trackpoint>
            <Time>2020-12-05T08:55:52.000Z</Time>
            <Position>
              <LatitudeDegrees>36.80436777882277965545654296875</LatitudeDegrees>
              <LongitudeDegrees>-4.37942027114331722259521484375</LongitudeDegrees>
            </Position>
            <AltitudeMeters>817.20001220703125</AltitudeMeters>
            <DistanceMeters>1508.2596593758</DistanceMeters>
          </Trackpoint>
          <Trackpoint>
            <Time>2020-12-05T08:55:53.000Z</Time>
            <Position>
              <LatitudeDegrees>36.8043744005262851715087890625</LatitudeDegrees>
              <LongitudeDegrees>-4.37943108379840850830078125</LongitudeDegrees>
            </Position>
            <AltitudeMeters>817.4000244140625</AltitudeMeters>
            <DistanceMeters>1509.4728792488</DistanceMeters>
          </Trackpoint>
          <Trackpoint>
            <Time>2020-12-05T08:55:54.000Z</Time>
            <Position>
              <LatitudeDegrees>36.80437901057302951812744140625</LatitudeDegrees>
              <LongitudeDegrees>-4.37944726087152957916259765625</LongitudeDegrees>
            </Position>
            <AltitudeMeters>817.4000244140625</AltitudeMeters>
            <DistanceMeters>1511.0021894852</DistanceMeters>
          </Trackpoint>
          <Trackpoint>
            <Time>2020-12-05T08:55:55.000Z</Time>
            <Position>
              <LatitudeDegrees>36.80438504554331302642822265625</LatitudeDegrees>
              <LongitudeDegrees>-4.3794600851833820343017578125</LongitudeDegrees>
            </Position>
            <AltitudeMeters>817.5999755859375</AltitudeMeters>
            <DistanceMeters>1512.3325634863</DistanceMeters>
          </Trackpoint>
          <Trackpoint>
            <Time>2020-12-05T08:55:56.000Z</Time>
            <Position>
              <LatitudeDegrees>36.804392337799072265625</LatitudeDegrees>
              <LongitudeDegrees>-4.37946486286818981170654296875</LongitudeDegrees>
            </Position>
            <AltitudeMeters>817.79998779296875</AltitudeMeters>
            <DistanceMeters>1513.2489679327</DistanceMeters>
          </Trackpoint>
          <Trackpoint>
            <Time>2020-12-05T08:55:57.000Z</Time>
            <Position>
              <LatitudeDegrees>36.80440264753997325897216796875</LatitudeDegrees>
              <LongitudeDegrees>-4.37947441823780536651611328125</LongitudeDegrees>
            </Position>
            <AltitudeMeters>818.20001220703125</AltitudeMeters>
            <DistanceMeters>1514.6775326937</DistanceMeters>
          </Trackpoint>
          <Trackpoint>
            <Time>2020-12-05T08:55:58.000Z</Time>
            <Position>
              <LatitudeDegrees>36.804414801299571990966796875</LatitudeDegrees>
              <LongitudeDegrees>-4.379482381045818328857421875</LongitudeDegrees>
            </Position>
            <AltitudeMeters>818.4000244140625</AltitudeMeters>
            <DistanceMeters>1516.2038877384</DistanceMeters>
          </Trackpoint>
          <Trackpoint>
            <Time>2020-12-05T08:55:59.000Z</Time>
            <Position>
              <LatitudeDegrees>36.80442594923079013824462890625</LatitudeDegrees>
              <LongitudeDegrees>-4.37949285842478275299072265625</LongitudeDegrees>
            </Position>
            <AltitudeMeters>818.5999755859375</AltitudeMeters>
            <DistanceMeters>1517.7595420981</DistanceMeters>
          </Trackpoint>
          <Trackpoint>
            <Time>2020-12-05T08:56:00.000Z</Time>
            <Position>
              <LatitudeDegrees>36.80443785153329372406005859375</LatitudeDegrees>
              <LongitudeDegrees>-4.379503168165683746337890625</LongitudeDegrees>
            </Position>
            <AltitudeMeters>818.79998779296875</AltitudeMeters>
            <DistanceMeters>1519.3749962424</DistanceMeters>
          </Trackpoint>
          <Trackpoint>
            <Time>2020-12-05T08:56:01.000Z</Time>
            <Position>
              <LatitudeDegrees>36.8044481612741947174072265625</LatitudeDegrees>
              <LongitudeDegrees>-4.37951096333563327789306640625</LongitudeDegrees>
            </Position>
            <AltitudeMeters>818.79998779296875</AltitudeMeters>
            <DistanceMeters>1520.7188769249</DistanceMeters>
          </Trackpoint>
          <Trackpoint>
            <Time>2020-12-05T08:56:02.000Z</Time>
            <Position>
              <LatitudeDegrees>36.80445511825382709503173828125</LatitudeDegrees>
              <LongitudeDegrees>-4.37951968051493167877197265625</LongitudeDegrees>
            </Position>
            <AltitudeMeters>819</AltitudeMeters>
            <DistanceMeters>1521.8188906719</DistanceMeters>
          </Trackpoint>
          <Trackpoint>
            <Time>2020-12-05T08:56:03.000Z</Time>
            <Position>
              <LatitudeDegrees>36.80446215905249118804931640625</LatitudeDegrees>
              <LongitudeDegrees>-4.37953007407486438751220703125</LongitudeDegrees>
            </Position>
            <AltitudeMeters>819</AltitudeMeters>
            <DistanceMeters>1523.0283832861</DistanceMeters>
          </Trackpoint>
          <Trackpoint>
            <Time>2020-12-05T08:56:04.000Z</Time>
            <Position>
              <LatitudeDegrees>36.80447137914597988128662109375</LatitudeDegrees>
              <LongitudeDegrees>-4.37954029999673366546630859375</LongitudeDegrees>
            </Position>
            <AltitudeMeters>819.20001220703125</AltitudeMeters>
            <DistanceMeters>1524.3988780509</DistanceMeters>
          </Trackpoint>
          <Trackpoint>
            <Time>2020-12-05T08:56:05.000Z</Time>
            <Position>
              <LatitudeDegrees>36.80447959341108798980712890625</LatitudeDegrees>
              <LongitudeDegrees>-4.37954834662377834320068359375</LongitudeDegrees>
            </Position>
            <AltitudeMeters>819.20001220703125</AltitudeMeters>
            <DistanceMeters>1525.5588269249</DistanceMeters>
          </Trackpoint>
          <Trackpoint>
            <Time>2020-12-05T08:56:06.000Z</Time>
            <Position>
              <LatitudeDegrees>36.804489903151988983154296875</LatitudeDegrees>
              <LongitudeDegrees>-4.3795556388795375823974609375</LongitudeDegrees>
            </Position>
            <AltitudeMeters>819.20001220703125</AltitudeMeters>
            <DistanceMeters>1526.8789802318</DistanceMeters>
          </Trackpoint>
          <Trackpoint>
            <Time>2020-12-05T08:56:07.000Z</Time>
            <Position>
              <LatitudeDegrees>36.80450163781642913818359375</LatitudeDegrees>
              <LongitudeDegrees>-4.37956519424915313720703125</LongitudeDegrees>
            </Position>
            <AltitudeMeters>819.20001220703125</AltitudeMeters>
            <DistanceMeters>1528.4375342294</DistanceMeters>
          </Trackpoint>
          <Trackpoint>
            <Time>2020-12-05T08:56:08.000Z</Time>
            <Position>
              <LatitudeDegrees>36.80451228283345699310302734375</LatitudeDegrees>
              <LongitudeDegrees>-4.3795760907232761383056640625</LongitudeDegrees>
            </Position>
            <AltitudeMeters>819</AltitudeMeters>
            <DistanceMeters>1529.9697939578</DistanceMeters>
          </Trackpoint>
          <Trackpoint>
            <Time>2020-12-05T08:56:09.000Z</Time>
            <Position>
              <LatitudeDegrees>36.80452133528888225555419921875</LatitudeDegrees>
              <LongitudeDegrees>-4.37958355061709880828857421875</LongitudeDegrees>
            </Position>
            <AltitudeMeters>819</AltitudeMeters>
            <DistanceMeters>1531.179286572</DistanceMeters>
          </Trackpoint>
          <Trackpoint>
            <Time>2020-12-05T08:56:10.000Z</Time>
            <Position>
              <LatitudeDegrees>36.8045316450297832489013671875</LatitudeDegrees>
              <LongitudeDegrees>-4.379591681063175201416015625</LongitudeDegrees>
            </Position>
            <AltitudeMeters>819.20001220703125</AltitudeMeters>
            <DistanceMeters>1532.536539531</DistanceMeters>
          </Trackpoint>
          <Trackpoint>
            <Time>2020-12-05T08:56:11.000Z</Time>
            <Position>
              <LatitudeDegrees>36.80454111658036708831787109375</LatitudeDegrees>
              <LongitudeDegrees>-4.37960098497569561004638671875</LongitudeDegrees>
            </Position>
            <AltitudeMeters>819.20001220703125</AltitudeMeters>
            <DistanceMeters>1533.8804202135</DistanceMeters>
          </Trackpoint>
          <Trackpoint>
            <Time>2020-12-05T08:56:12.000Z</Time>
            <Position>
              <LatitudeDegrees>36.8045507557690143585205078125</LatitudeDegrees>
              <LongitudeDegrees>-4.37960819341242313385009765625</LongitudeDegrees>
            </Position>
            <AltitudeMeters>819.20001220703125</AltitudeMeters>
            <DistanceMeters>1535.1339086663</DistanceMeters>
          </Trackpoint>
          <Trackpoint>
            <Time>2020-12-05T08:56:13.000Z</Time>
            <Position>
              <LatitudeDegrees>36.80456332862377166748046875</LatitudeDegrees>
              <LongitudeDegrees>-4.37961540184915065765380859375</LongitudeDegrees>
            </Position>
            <AltitudeMeters>819</AltitudeMeters>
            <DistanceMeters>1536.6720504115</DistanceMeters>
          </Trackpoint>
          <Trackpoint>
            <Time>2020-12-05T08:56:14.000Z</Time>
            <Position>
              <LatitudeDegrees>36.80457665584981441497802734375</LatitudeDegrees>
              <LongitudeDegrees>-4.379621855914592742919921875</LongitudeDegrees>
            </Position>
            <AltitudeMeters>819</AltitudeMeters>
            <DistanceMeters>1538.2621514788</DistanceMeters>
          </Trackpoint>
          <Trackpoint>
            <Time>2020-12-05T08:56:15.000Z</Time>
            <Position>
              <LatitudeDegrees>36.80458805523812770843505859375</LatitudeDegrees>
              <LongitudeDegrees>-4.37962898053228855133056640625</LongitudeDegrees>
            </Position>
            <AltitudeMeters>819</AltitudeMeters>
            <DistanceMeters>1539.6812029391</DistanceMeters>
          </Trackpoint>
          <Trackpoint>
            <Time>2020-12-05T08:56:16.000Z</Time>
            <Position>
              <LatitudeDegrees>36.8045975267887115478515625</LatitudeDegrees>
              <LongitudeDegrees>-4.37963987700641155242919921875</LongitudeDegrees>
            </Position>
            <AltitudeMeters>819.20001220703125</AltitudeMeters>
            <DistanceMeters>1541.1129247531</DistanceMeters>
          </Trackpoint>
          <Trackpoint>
            <Time>2020-12-05T08:56:17.000Z</Time>
            <Position>
              <LatitudeDegrees>36.80460666306316852569580078125</LatitudeDegrees>
              <LongitudeDegrees>-4.37965094111859798431396484375</LongitudeDegrees>
            </Position>
            <AltitudeMeters>819.20001220703125</AltitudeMeters>
            <DistanceMeters>1542.5319762134</DistanceMeters>
          </Trackpoint>
          <Trackpoint>
            <Time>2020-12-05T08:56:18.000Z</Time>
            <Position>
              <LatitudeDegrees>36.804614961147308349609375</LatitudeDegrees>
              <LongitudeDegrees>-4.37965949065983295440673828125</LongitudeDegrees>
            </Position>
            <AltitudeMeters>819.20001220703125</AltitudeMeters>
            <DistanceMeters>1543.7264434914</DistanceMeters>
          </Trackpoint>
          <Trackpoint>
            <Time>2020-12-05T08:56:19.000Z</Time>
            <Position>
              <LatitudeDegrees>36.8046216666698455810546875</LatitudeDegrees>
              <LongitudeDegrees>-4.3796676211059093475341796875</LongitudeDegrees>
            </Position>
            <AltitudeMeters>819.4000244140625</AltitudeMeters>
            <DistanceMeters>1544.7674089919</DistanceMeters>
          </Trackpoint>
          <Trackpoint>
            <Time>2020-12-05T08:56:20.000Z</Time>
            <Position>
              <LatitudeDegrees>36.80462845601141452789306640625</LatitudeDegrees>
              <LongitudeDegrees>-4.37967726029455661773681640625</LongitudeDegrees>
            </Position>
            <AltitudeMeters>819.5999755859375</AltitudeMeters>
            <DistanceMeters>1545.9077295644</DistanceMeters>
          </Trackpoint>
          <Trackpoint>
            <Time>2020-12-05T08:56:21.000Z</Time>
            <Position>
              <LatitudeDegrees>36.8046332336962223052978515625</LatitudeDegrees>
              <LongitudeDegrees>-4.37968882732093334197998046875</LongitudeDegrees>
            </Position>
            <AltitudeMeters>819.79998779296875</AltitudeMeters>
            <DistanceMeters>1547.0676784383</DistanceMeters>
          </Trackpoint>
          <Trackpoint>
            <Time>2020-12-05T08:56:22.000Z</Time>
            <Position>
              <LatitudeDegrees>36.80463868193328380584716796875</LatitudeDegrees>
              <LongitudeDegrees>-4.37969796359539031982421875</LongitudeDegrees>
            </Position>
            <AltitudeMeters>819.79998779296875</AltitudeMeters>
            <DistanceMeters>1548.0822861037</DistanceMeters>
          </Trackpoint>
          <Trackpoint>
            <Time>2020-12-05T08:56:23.000Z</Time>
            <Position>
              <LatitudeDegrees>36.80464220233261585235595703125</LatitudeDegrees>
              <LongitudeDegrees>-4.37970475293695926666259765625</LongitudeDegrees>
            </Position>
            <AltitudeMeters>820</AltitudeMeters>
            <DistanceMeters>1548.7934009192</DistanceMeters>
          </Trackpoint>
          <Trackpoint>
            <Time>2020-12-05T08:56:24.000Z</Time>
            <Position>
              <LatitudeDegrees>36.80464974604547023773193359375</LatitudeDegrees>
              <LongitudeDegrees>-4.3797112070024013519287109375</LongitudeDegrees>
            </Position>
            <AltitudeMeters>820.20001220703125</AltitudeMeters>
            <DistanceMeters>1549.8168699551</DistanceMeters>
          </Trackpoint>
          <Trackpoint>
            <Time>2020-12-05T08:56:25.000Z</Time>
            <Position>
              <LatitudeDegrees>36.8046567030251026153564453125</LatitudeDegrees>
              <LongitudeDegrees>-4.37971782870590686798095703125</LongitudeDegrees>
            </Position>
            <AltitudeMeters>820.20001220703125</AltitudeMeters>
            <DistanceMeters>1550.7859560969</DistanceMeters>
          </Trackpoint>
          <Trackpoint>
            <Time>2020-12-05T08:56:26.000Z</Time>
            <Position>
              <LatitudeDegrees>36.80466391146183013916015625</LatitudeDegrees>
              <LongitudeDegrees>-4.37972185201942920684814453125</LongitudeDegrees>
            </Position>
            <AltitudeMeters>820.20001220703125</AltitudeMeters>
            <DistanceMeters>1551.6671975928</DistanceMeters>
          </Trackpoint>
          <Trackpoint>
            <Time>2020-12-05T08:56:27.000Z</Time>
            <Position>
              <LatitudeDegrees>36.80467153899371623992919921875</LatitudeDegrees>
              <LongitudeDegrees>-4.37972537241876125335693359375</LongitudeDegrees>
            </Position>
            <AltitudeMeters>820.4000244140625</AltitudeMeters>
            <DistanceMeters>1552.573694673</DistanceMeters>
          </Trackpoint>
          <Trackpoint>
            <Time>2020-12-05T08:56:28.000Z</Time>
            <Position>
              <LatitudeDegrees>36.80468268692493438720703125</LatitudeDegrees>
              <LongitudeDegrees>-4.37973073683679103851318359375</LongitudeDegrees>
            </Position>
            <AltitudeMeters>820.5999755859375</AltitudeMeters>
            <DistanceMeters>1553.9006705231</DistanceMeters>
          </Trackpoint>
          <Trackpoint>
            <Time>2020-12-05T08:56:29.000Z</Time>
            <Position>
              <LatitudeDegrees>36.804693751037120819091796875</LatitudeDegrees>
              <LongitudeDegrees>-4.37973593361675739288330078125</LongitudeDegrees>
            </Position>
            <AltitudeMeters>820.79998779296875</AltitudeMeters>
            <DistanceMeters>1555.217399302</DistanceMeters>
          </Trackpoint>
          <Trackpoint>
            <Time>2020-12-05T08:56:30.000Z</Time>
            <Position>
              <LatitudeDegrees>36.80470456369221210479736328125</LatitudeDegrees>
              <LongitudeDegrees>-4.37973895110189914703369140625</LongitudeDegrees>
            </Position>
            <AltitudeMeters>821</AltitudeMeters>
            <DistanceMeters>1556.4490862925</DistanceMeters>
          </Trackpoint>
          <Trackpoint>
            <Time>2020-12-05T08:56:31.000Z</Time>
            <Position>
              <LatitudeDegrees>36.8047140352427959442138671875</LatitudeDegrees>
              <LongitudeDegrees>-4.3797455728054046630859375</LongitudeDegrees>
            </Position>
            <AltitudeMeters>821.20001220703125</AltitudeMeters>
            <DistanceMeters>1557.6548401262</DistanceMeters>
          </Trackpoint>
          <Trackpoint>
            <Time>2020-12-05T08:56:32.000Z</Time>
            <Position>
              <LatitudeDegrees>36.804722584784030914306640625</LatitudeDegrees>
              <LongitudeDegrees>-4.37975026667118072509765625</LongitudeDegrees>
            </Position>
            <AltitudeMeters>821.4000244140625</AltitudeMeters>
            <DistanceMeters>1558.6958056267</DistanceMeters>
          </Trackpoint>
          <Trackpoint>
            <Time>2020-12-05T08:56:33.000Z</Time>
            <Position>
              <LatitudeDegrees>36.8047307990491390228271484375</LatitudeDegrees>
              <LongitudeDegrees>-4.3797561340034008026123046875</LongitudeDegrees>
            </Position>
            <AltitudeMeters>821.4000244140625</AltitudeMeters>
            <DistanceMeters>1559.7497028715</DistanceMeters>
          </Trackpoint>
          <Trackpoint>
            <Time>2020-12-05T08:56:34.000Z</Time>
            <Position>
              <LatitudeDegrees>36.804741360247135162353515625</LatitudeDegrees>
              <LongitudeDegrees>-4.37976074405014514923095703125</LongitudeDegrees>
            </Position>
            <AltitudeMeters>821.5999755859375</AltitudeMeters>
            <DistanceMeters>1560.9959665468</DistanceMeters>
          </Trackpoint>
          <Trackpoint>
            <Time>2020-12-05T08:56:35.000Z</Time>
            <Position>
              <LatitudeDegrees>36.8047499097883701324462890625</LatitudeDegrees>
              <LongitudeDegrees>-4.37976543791592121124267578125</LongitudeDegrees>
            </Position>
            <AltitudeMeters>822</AltitudeMeters>
            <DistanceMeters>1562.0282208858</DistanceMeters>
          </Trackpoint>
          <Trackpoint>
            <Time>2020-12-05T08:56:36.000Z</Time>
            <Position>
              <LatitudeDegrees>36.80475720204412937164306640625</LatitudeDegrees>
              <LongitudeDegrees>-4.37976904213428497314453125</LongitudeDegrees>
            </Position>
            <AltitudeMeters>822</AltitudeMeters>
            <DistanceMeters>1562.8991551091</DistanceMeters>
          </Trackpoint>
          <Trackpoint>
            <Time>2020-12-05T08:56:37.000Z</Time>
            <Position>
              <LatitudeDegrees>36.80476474575698375701904296875</LatitudeDegrees>
              <LongitudeDegrees>-4.3797722272574901580810546875</LongitudeDegrees>
            </Position>
            <AltitudeMeters>822.20001220703125</AltitudeMeters>
            <DistanceMeters>1563.7905847065</DistanceMeters>
          </Trackpoint>
          <Trackpoint>
            <Time>2020-12-05T08:56:38.000Z</Time>
            <Position>
              <LatitudeDegrees>36.80477212183177471160888671875</LatitudeDegrees>
              <LongitudeDegrees>-4.37977516092360019683837890625</LongitudeDegrees>
            </Position>
            <AltitudeMeters>822.4000244140625</AltitudeMeters>
            <DistanceMeters>1564.656319276</DistanceMeters>
          </Trackpoint>
          <Trackpoint>
            <Time>2020-12-05T08:56:39.000Z</Time>
            <Position>
              <LatitudeDegrees>36.80477983318269252777099609375</LatitudeDegrees>
              <LongitudeDegrees>-4.37977901659905910491943359375</LongitudeDegrees>
            </Position>
            <AltitudeMeters>822.4000244140625</AltitudeMeters>
            <DistanceMeters>1565.5776374543</DistanceMeters>
          </Trackpoint>
          <Trackpoint>
            <Time>2020-12-05T08:56:40.000Z</Time>
            <Position>
              <LatitudeDegrees>36.8047888018190860748291015625</LatitudeDegrees>
              <LongitudeDegrees>-4.37978421337902545928955078125</LongitudeDegrees>
            </Position>
            <AltitudeMeters>822.5999755859375</AltitudeMeters>
            <DistanceMeters>1566.6776512013</DistanceMeters>
          </Trackpoint>
          <Trackpoint>
            <Time>2020-12-05T08:56:41.000Z</Time>
            <Position>
              <LatitudeDegrees>36.80479475297033786773681640625</LatitudeDegrees>
              <LongitudeDegrees>-4.37979091890156269073486328125</LongitudeDegrees>
            </Position>
            <AltitudeMeters>822.5999755859375</AltitudeMeters>
            <DistanceMeters>1567.5690807986</DistanceMeters>
          </Trackpoint>
          <Trackpoint>
            <Time>2020-12-05T08:56:42.000Z</Time>
            <Position>
              <LatitudeDegrees>36.8048018775880336761474609375</LatitudeDegrees>
              <LongitudeDegrees>-4.37979594804346561431884765625</LongitudeDegrees>
            </Position>
            <AltitudeMeters>822.79998779296875</AltitudeMeters>
            <DistanceMeters>1568.4805450233</DistanceMeters>
          </Trackpoint>
          <Trackpoint>
            <Time>2020-12-05T08:56:43.000Z</Time>
            <Position>
              <LatitudeDegrees>36.80480849929153919219970703125</LatitudeDegrees>
              <LongitudeDegrees>-4.37980131246149539947509765625</LongitudeDegrees>
            </Position>
            <AltitudeMeters>823</AltitudeMeters>
            <DistanceMeters>1569.3617865193</DistanceMeters>
          </Trackpoint>
          <Trackpoint>
            <Time>2020-12-05T08:56:44.000Z</Time>
            <Position>
              <LatitudeDegrees>36.80481545627117156982421875</LatitudeDegrees>
              <LongitudeDegrees>-4.37980516813695430755615234375</LongitudeDegrees>
            </Position>
            <AltitudeMeters>823.4000244140625</AltitudeMeters>
            <DistanceMeters>1570.2117312913</DistanceMeters>
          </Trackpoint>
          <Trackpoint>
            <Time>2020-12-05T08:56:45.000Z</Time>
            <Position>
              <LatitudeDegrees>36.8048240058124065399169921875</LatitudeDegrees>
              <LongitudeDegrees>-4.379809610545635223388671875</LongitudeDegrees>
            </Position>
            <AltitudeMeters>824</AltitudeMeters>
            <DistanceMeters>1571.2439856303</DistanceMeters>
          </Trackpoint>
          <Trackpoint>
            <Time>2020-12-05T08:56:46.000Z</Time>
            <Position>
              <LatitudeDegrees>36.804833896458148956298828125</LatitudeDegrees>
              <LongitudeDegrees>-4.37981371767818927764892578125</LongitudeDegrees>
            </Position>
            <AltitudeMeters>824.4000244140625</AltitudeMeters>
            <DistanceMeters>1572.407820441</DistanceMeters>
          </Trackpoint>
          <Trackpoint>
            <Time>2020-12-05T08:56:47.000Z</Time>
            <Position>
              <LatitudeDegrees>36.8048427812755107879638671875</LatitudeDegrees>
              <LongitudeDegrees>-4.379821009933948516845703125</LongitudeDegrees>
            </Position>
            <AltitudeMeters>824.5999755859375</AltitudeMeters>
            <DistanceMeters>1573.5947037231</DistanceMeters>
          </Trackpoint>
          <Trackpoint>
            <Time>2020-12-05T08:56:48.000Z</Time>
            <Position>
              <LatitudeDegrees>36.80485208518803119659423828125</LatitudeDegrees>
              <LongitudeDegrees>-4.37982964329421520233154296875</LongitudeDegrees>
            </Position>
            <AltitudeMeters>824.79998779296875</AltitudeMeters>
            <DistanceMeters>1574.8872067761</DistanceMeters>
          </Trackpoint>
          <Trackpoint>
            <Time>2020-12-05T08:56:49.000Z</Time>
            <Position>
              <LatitudeDegrees>36.8048615567386150360107421875</LatitudeDegrees>
              <LongitudeDegrees>-4.37983877956867218017578125</LongitudeDegrees>
            </Position>
            <AltitudeMeters>824.79998779296875</AltitudeMeters>
            <DistanceMeters>1576.2243511722</DistanceMeters>
          </Trackpoint>
          <Trackpoint>
            <Time>2020-12-05T08:56:50.000Z</Time>
            <Position>
              <LatitudeDegrees>36.804872453212738037109375</LatitudeDegrees>
              <LongitudeDegrees>-4.3798479996621608734130859375</LongitudeDegrees>
            </Position>
            <AltitudeMeters>824.79998779296875</AltitudeMeters>
            <DistanceMeters>1577.6903519203</DistanceMeters>
          </Trackpoint>
          <Trackpoint>
            <Time>2020-12-05T08:56:51.000Z</Time>
            <Position>
              <LatitudeDegrees>36.80488510988652706146240234375</LatitudeDegrees>
              <LongitudeDegrees>-4.37985596247017383575439453125</LongitudeDegrees>
            </Position>
            <AltitudeMeters>824.79998779296875</AltitudeMeters>
            <DistanceMeters>1579.2690542667</DistanceMeters>
          </Trackpoint>
          <Trackpoint>
            <Time>2020-12-05T08:56:52.000Z</Time>
            <Position>
              <LatitudeDegrees>36.8048964254558086395263671875</LatitudeDegrees>
              <LongitudeDegrees>-4.37986157834529876708984375</LongitudeDegrees>
            </Position>
            <AltitudeMeters>824.79998779296875</AltitudeMeters>
            <DistanceMeters>1580.6229765386</DistanceMeters>
          </Trackpoint>
          <Trackpoint>
            <Time>2020-12-05T08:56:53.000Z</Time>
            <Position>
              <LatitudeDegrees>36.80490639992058277130126953125</LatitudeDegrees>
              <LongitudeDegrees>-4.37986417673528194427490234375</LongitudeDegrees>
            </Position>
            <AltitudeMeters>824.79998779296875</AltitudeMeters>
            <DistanceMeters>1581.7553505294</DistanceMeters>
          </Trackpoint>
          <Trackpoint>
            <Time>2020-12-05T08:56:54.000Z</Time>
            <Position>
              <LatitudeDegrees>36.80491679348051548004150390625</LatitudeDegrees>
              <LongitudeDegrees>-4.37986719422042369842529296875</LongitudeDegrees>
            </Position>
            <AltitudeMeters>824.79998779296875</AltitudeMeters>
            <DistanceMeters>1582.9422338114</DistanceMeters>
          </Trackpoint>
          <Trackpoint>
            <Time>2020-12-05T08:56:55.000Z</Time>
            <Position>
              <LatitudeDegrees>36.8049292825162410736083984375</LatitudeDegrees>
              <LongitudeDegrees>-4.379873983561992645263671875</LongitudeDegrees>
            </Position>
            <AltitudeMeters>825</AltitudeMeters>
            <DistanceMeters>1584.4567104262</DistanceMeters>
          </Trackpoint>
          <Trackpoint>
            <Time>2020-12-05T08:56:56.000Z</Time>
            <Position>
              <LatitudeDegrees>36.8049381673336029052734375</LatitudeDegrees>
              <LongitudeDegrees>-4.3798811919987201690673828125</LongitudeDegrees>
            </Position>
            <AltitudeMeters>825.20001220703125</AltitudeMeters>
            <DistanceMeters>1585.6359609392</DistanceMeters>
          </Trackpoint>
          <Trackpoint>
            <Time>2020-12-05T08:56:57.000Z</Time>
            <Position>
              <LatitudeDegrees>36.80494495667517185211181640625</LatitudeDegrees>
              <LongitudeDegrees>-4.3798875622451305389404296875</LongitudeDegrees>
            </Position>
            <AltitudeMeters>825.20001220703125</AltitudeMeters>
            <DistanceMeters>1586.5862280829</DistanceMeters>
          </Trackpoint>
          <Trackpoint>
            <Time>2020-12-05T08:56:58.000Z</Time>
            <Position>
              <LatitudeDegrees>36.80495082400739192962646484375</LatitudeDegrees>
              <LongitudeDegrees>-4.3798939324915409088134765625</LongitudeDegrees>
            </Position>
            <AltitudeMeters>825.20001220703125</AltitudeMeters>
            <DistanceMeters>1587.4519626524</DistanceMeters>
          </Trackpoint>
          <Trackpoint>
            <Time>2020-12-05T08:56:59.000Z</Time>
            <Position>
              <LatitudeDegrees>36.8049584515392780303955078125</LatitudeDegrees>
              <LongitudeDegrees>-4.3798996321856975555419921875</LongitudeDegrees>
            </Position>
            <AltitudeMeters>825.20001220703125</AltitudeMeters>
            <DistanceMeters>1588.4395092366</DistanceMeters>
          </Trackpoint>
          <Trackpoint>
            <Time>2020-12-05T08:57:00.000Z</Time>
            <Position>
              <LatitudeDegrees>36.80496574379503726959228515625</LatitudeDegrees>
              <LongitudeDegrees>-4.37990239821374416351318359375</LongitudeDegrees>
            </Position>
            <AltitudeMeters>825.20001220703125</AltitudeMeters>
            <DistanceMeters>1589.2787624538</DistanceMeters>
          </Trackpoint>
          <Trackpoint>
            <Time>2020-12-05T08:57:01.000Z</Time>
            <Position>
              <LatitudeDegrees>36.80497345514595508575439453125</LatitudeDegrees>
              <LongitudeDegrees>-4.37990625388920307159423828125</LongitudeDegrees>
            </Position>
            <AltitudeMeters>825.20001220703125</AltitudeMeters>
            <DistanceMeters>1590.2049682961</DistanceMeters>
          </Trackpoint>
          <Trackpoint>
            <Time>2020-12-05T08:57:02.000Z</Time>
            <Position>
              <LatitudeDegrees>36.80498233996331691741943359375</LatitudeDegrees>
              <LongitudeDegrees>-4.3799083493649959564208984375</LongitudeDegrees>
            </Position>
            <AltitudeMeters>825.20001220703125</AltitudeMeters>
            <DistanceMeters>1591.2151161259</DistanceMeters>
          </Trackpoint>
          <Trackpoint>
            <Time>2020-12-05T08:57:03.000Z</Time>
            <Position>
              <LatitudeDegrees>36.80499256588518619537353515625</LatitudeDegrees>
              <LongitudeDegrees>-4.3799120374023914337158203125</LongitudeDegrees>
            </Position>
            <AltitudeMeters>825.20001220703125</AltitudeMeters>
            <DistanceMeters>1592.401999408</DistanceMeters>
          </Trackpoint>
          <Trackpoint>
            <Time>2020-12-05T08:57:04.000Z</Time>
            <Position>
              <LatitudeDegrees>36.8050040490925312042236328125</LatitudeDegrees>
              <LongitudeDegrees>-4.379914887249469757080078125</LongitudeDegrees>
            </Position>
            <AltitudeMeters>825.4000244140625</AltitudeMeters>
            <DistanceMeters>1593.7049400711</DistanceMeters>
          </Trackpoint>
          <Trackpoint>
            <Time>2020-12-05T08:57:05.000Z</Time>
            <Position>
              <LatitudeDegrees>36.8050154484808444976806640625</LatitudeDegrees>
              <LongitudeDegrees>-4.3799200840294361114501953125</LongitudeDegrees>
            </Position>
            <AltitudeMeters>825.5999755859375</AltitudeMeters>
            <DistanceMeters>1595.0555234419</DistanceMeters>
          </Trackpoint>
          <Trackpoint>
            <Time>2020-12-05T08:57:06.000Z</Time>
            <Position>
              <LatitudeDegrees>36.80502776987850666046142578125</LatitudeDegrees>
              <LongitudeDegrees>-4.379934333264827728271484375</LongitudeDegrees>
            </Position>
            <AltitudeMeters>825.5999755859375</AltitudeMeters>
            <DistanceMeters>1596.9225021529</DistanceMeters>
          </Trackpoint>
          <Trackpoint>
            <Time>2020-12-05T08:57:07.000Z</Time>
            <Position>
              <LatitudeDegrees>36.80504101328551769256591796875</LatitudeDegrees>
              <LongitudeDegrees>-4.379944391548633575439453125</LongitudeDegrees>
            </Position>
            <AltitudeMeters>826</AltitudeMeters>
            <DistanceMeters>1598.6461306367</DistanceMeters>
          </Trackpoint>
          <Trackpoint>
            <Time>2020-12-05T08:57:08.000Z</Time>
            <Position>
              <LatitudeDegrees>36.805054843425750732421875</LatitudeDegrees>
              <LongitudeDegrees>-4.37995034269988536834716796875</LongitudeDegrees>
            </Position>
            <AltitudeMeters>826</AltitudeMeters>
            <DistanceMeters>1600.2754993717</DistanceMeters>
          </Trackpoint>
          <Trackpoint>
            <Time>2020-12-05T08:57:09.000Z</Time>
            <Position>
              <LatitudeDegrees>36.8050674162805080413818359375</LatitudeDegrees>
              <LongitudeDegrees>-4.3799572996795177459716796875</LongitudeDegrees>
            </Position>
            <AltitudeMeters>826.20001220703125</AltitudeMeters>
            <DistanceMeters>1601.8018544164</DistanceMeters>
          </Trackpoint>
          <Trackpoint>
            <Time>2020-12-05T08:57:10.000Z</Time>
            <Position>
              <LatitudeDegrees>36.80508040823042392730712890625</LatitudeDegrees>
              <LongitudeDegrees>-4.37996341846883296966552734375</LongitudeDegrees>
            </Position>
            <AltitudeMeters>826.20001220703125</AltitudeMeters>
            <DistanceMeters>1603.3487772515</DistanceMeters>
          </Trackpoint>
          <Trackpoint>
            <Time>2020-12-05T08:57:11.000Z</Time>
            <Position>
              <LatitudeDegrees>36.80509231053292751312255859375</LatitudeDegrees>
              <LongitudeDegrees>-4.37996677123010158538818359375</LongitudeDegrees>
            </Position>
            <AltitudeMeters>826.4000244140625</AltitudeMeters>
            <DistanceMeters>1604.7093527441</DistanceMeters>
          </Trackpoint>
          <Trackpoint>
            <Time>2020-12-05T08:57:12.000Z</Time>
            <Position>
              <LatitudeDegrees>36.80510706268250942230224609375</LatitudeDegrees>
              <LongitudeDegrees>-4.37996962107717990875244140625</LongitudeDegrees>
            </Position>
            <AltitudeMeters>826.4000244140625</AltitudeMeters>
            <DistanceMeters>1606.3716413447</DistanceMeters>
          </Trackpoint>
          <Trackpoint>
            <Time>2020-12-05T08:57:13.000Z</Time>
            <Position>
              <LatitudeDegrees>36.805122233927249908447265625</LatitudeDegrees>
              <LongitudeDegrees>-4.37997297383844852447509765625</LongitudeDegrees>
            </Position>
            <AltitudeMeters>826.5999755859375</AltitudeMeters>
            <DistanceMeters>1608.0873933433</DistanceMeters>
          </Trackpoint>
          <Trackpoint>
            <Time>2020-12-05T08:57:14.000Z</Time>
            <Position>
              <LatitudeDegrees>36.80513807572424411773681640625</LatitudeDegrees>
              <LongitudeDegrees>-4.37997314147651195526123046875</LongitudeDegrees>
            </Position>
            <AltitudeMeters>826.79998779296875</AltitudeMeters>
            <DistanceMeters>1609.8498763352</DistanceMeters>
          </Trackpoint>
          <Trackpoint>
            <Time>2020-12-05T08:57:15.000Z</Time>
            <Position>
              <LatitudeDegrees>36.805155090987682342529296875</LatitudeDegrees>
              <LongitudeDegrees>-4.37997213564813137054443359375</LongitudeDegrees>
            </Position>
            <AltitudeMeters>826.79998779296875</AltitudeMeters>
            <DistanceMeters>1611.7456533328</DistanceMeters>
          </Trackpoint>
          <Trackpoint>
            <Time>2020-12-05T08:57:16.000Z</Time>
            <Position>
              <LatitudeDegrees>36.8051715195178985595703125</LatitudeDegrees>
              <LongitudeDegrees>-4.3799717165529727935791015625</LongitudeDegrees>
            </Position>
            <AltitudeMeters>827</AltitudeMeters>
            <DistanceMeters>1613.5735286799</DistanceMeters>
          </Trackpoint>
          <Trackpoint>
            <Time>2020-12-05T08:57:17.000Z</Time>
            <Position>
              <LatitudeDegrees>36.80518903769552707672119140625</LatitudeDegrees>
              <LongitudeDegrees>-4.37997112981975078582763671875</LongitudeDegrees>
            </Position>
            <AltitudeMeters>827</AltitudeMeters>
            <DistanceMeters>1615.525628129</DistanceMeters>
          </Trackpoint>
          <Trackpoint>
            <Time>2020-12-05T08:57:18.000Z</Time>
            <Position>
              <LatitudeDegrees>36.8052025325596332550048828125</LatitudeDegrees>
              <LongitudeDegrees>-4.37996945343911647796630859375</LongitudeDegrees>
            </Position>
            <AltitudeMeters>827.20001220703125</AltitudeMeters>
            <DistanceMeters>1617.0401047438</DistanceMeters>
          </Trackpoint>
          <Trackpoint>
            <Time>2020-12-05T08:57:19.000Z</Time>
            <Position>
              <LatitudeDegrees>36.8052171170711517333984375</LatitudeDegrees>
              <LongitudeDegrees>-4.379969537258148193359375</LongitudeDegrees>
            </Position>
            <AltitudeMeters>827.20001220703125</AltitudeMeters>
            <DistanceMeters>1618.6639219508</DistanceMeters>
          </Trackpoint>
          <Trackpoint>
            <Time>2020-12-05T08:57:20.000Z</Time>
            <Position>
              <LatitudeDegrees>36.80523195303976535797119140625</LatitudeDegrees>
              <LongitudeDegrees>-4.379968531429767608642578125</LongitudeDegrees>
            </Position>
            <AltitudeMeters>827.5999755859375</AltitudeMeters>
            <DistanceMeters>1620.3207693303</DistanceMeters>
          </Trackpoint>
          <Trackpoint>
            <Time>2020-12-05T08:57:21.000Z</Time>
            <Position>
              <LatitudeDegrees>36.80524460971355438232421875</LatitudeDegrees>
              <LongitudeDegrees>-4.37996693886816501617431640625</LongitudeDegrees>
            </Position>
            <AltitudeMeters>827.79998779296875</AltitudeMeters>
            <DistanceMeters>1621.7398207906</DistanceMeters>
          </Trackpoint>
          <Trackpoint>
            <Time>2020-12-05T08:57:22.000Z</Time>
            <Position>
              <LatitudeDegrees>36.80525491945445537567138671875</LatitudeDegrees>
              <LongitudeDegrees>-4.3799660168588161468505859375</LongitudeDegrees>
            </Position>
            <AltitudeMeters>828.20001220703125</AltitudeMeters>
            <DistanceMeters>1622.8958706657</DistanceMeters>
          </Trackpoint>
          <Trackpoint>
            <Time>2020-12-05T08:57:23.000Z</Time>
            <Position>
              <LatitudeDegrees>36.8052662350237369537353515625</LatitudeDegrees>
              <LongitudeDegrees>-4.37996425665915012359619140625</LongitudeDegrees>
            </Position>
            <AltitudeMeters>828.4000244140625</AltitudeMeters>
            <DistanceMeters>1624.1636851659</DistanceMeters>
          </Trackpoint>
          <Trackpoint>
            <Time>2020-12-05T08:57:24.000Z</Time>
            <Position>
              <LatitudeDegrees>36.80527771823108196258544921875</LatitudeDegrees>
              <LongitudeDegrees>-4.37996442429721355438232421875</LongitudeDegrees>
            </Position>
            <AltitudeMeters>828.5999755859375</AltitudeMeters>
            <DistanceMeters>1625.438602324</DistanceMeters>
          </Trackpoint>
          <Trackpoint>
            <Time>2020-12-05T08:57:25.000Z</Time>
            <Position>
              <LatitudeDegrees>36.80528744123876094818115234375</LatitudeDegrees>
              <LongitudeDegrees>-4.37996526248753070831298828125</LongitudeDegrees>
            </Position>
            <AltitudeMeters>828.79998779296875</AltitudeMeters>
            <DistanceMeters>1626.5220735685</DistanceMeters>
          </Trackpoint>
          <Trackpoint>
            <Time>2020-12-05T08:57:26.000Z</Time>
            <Position>
              <LatitudeDegrees>36.805297918617725372314453125</LatitudeDegrees>
              <LongitudeDegrees>-4.37996408902108669281005859375</LongitudeDegrees>
            </Position>
            <AltitudeMeters>829</AltitudeMeters>
            <DistanceMeters>1627.6936415859</DistanceMeters>
          </Trackpoint>
          <Trackpoint>
            <Time>2020-12-05T08:57:27.000Z</Time>
            <Position>
              <LatitudeDegrees>36.805307976901531219482421875</LatitudeDegrees>
              <LongitudeDegrees>-4.3799626640975475311279296875</LongitudeDegrees>
            </Position>
            <AltitudeMeters>829</AltitudeMeters>
            <DistanceMeters>1628.8180128334</DistanceMeters>
          </Trackpoint>
          <Trackpoint>
            <Time>2020-12-05T08:57:28.000Z</Time>
            <Position>
              <LatitudeDegrees>36.80531761609017848968505859375</LatitudeDegrees>
              <LongitudeDegrees>-4.3799633346498012542724609375</LongitudeDegrees>
            </Position>
            <AltitudeMeters>829</AltitudeMeters>
            <DistanceMeters>1629.897308836</DistanceMeters>
          </Trackpoint>
          <Trackpoint>
            <Time>2020-12-05T08:57:29.000Z</Time>
            <Position>
              <LatitudeDegrees>36.80532616563141345977783203125</LatitudeDegrees>
              <LongitudeDegrees>-4.3799619935452938079833984375</LongitudeDegrees>
            </Position>
            <AltitudeMeters>828.79998779296875</AltitudeMeters>
            <DistanceMeters>1630.8523154961</DistanceMeters>
          </Trackpoint>
          <Trackpoint>
            <Time>2020-12-05T08:57:30.000Z</Time>
            <Position>
              <LatitudeDegrees>36.80533555336296558380126953125</LatitudeDegrees>
              <LongitudeDegrees>-4.37995939515531063079833984375</LongitudeDegrees>
            </Position>
            <AltitudeMeters>828.79998779296875</AltitudeMeters>
            <DistanceMeters>1631.9189877194</DistanceMeters>
          </Trackpoint>
          <Trackpoint>
            <Time>2020-12-05T08:57:31.000Z</Time>
            <Position>
              <LatitudeDegrees>36.805345527827739715576171875</LatitudeDegrees>
              <LongitudeDegrees>-4.37995285727083683013916015625</LongitudeDegrees>
            </Position>
            <AltitudeMeters>828.79998779296875</AltitudeMeters>
            <DistanceMeters>1633.1724761722</DistanceMeters>
          </Trackpoint>
          <Trackpoint>
            <Time>2020-12-05T08:57:32.000Z</Time>
            <Position>
              <LatitudeDegrees>36.8053550831973552703857421875</LatitudeDegrees>
              <LongitudeDegrees>-4.3799462355673313140869140625</LongitudeDegrees>
            </Position>
            <AltitudeMeters>828.79998779296875</AltitudeMeters>
            <DistanceMeters>1634.3819687864</DistanceMeters>
          </Trackpoint>
          <Trackpoint>
            <Time>2020-12-05T08:57:33.000Z</Time>
            <Position>
              <LatitudeDegrees>36.80536120198667049407958984375</LatitudeDegrees>
              <LongitudeDegrees>-4.37993827275931835174560546875</LongitudeDegrees>
            </Position>
            <AltitudeMeters>828.79998779296875</AltitudeMeters>
            <DistanceMeters>1635.3603286911</DistanceMeters>
          </Trackpoint>
          <Trackpoint>
            <Time>2020-12-05T08:57:34.000Z</Time>
            <Position>
              <LatitudeDegrees>36.8053644709289073944091796875</LatitudeDegrees>
              <LongitudeDegrees>-4.37992955558001995086669921875</LongitudeDegrees>
            </Position>
            <AltitudeMeters>829</AltitudeMeters>
            <DistanceMeters>1636.2102734631</DistanceMeters>
          </Trackpoint>
          <Trackpoint>
            <Time>2020-12-05T08:57:35.000Z</Time>
            <Position>
              <LatitudeDegrees>36.805371344089508056640625</LatitudeDegrees>
              <LongitudeDegrees>-4.37992469407618045806884765625</LongitudeDegrees>
            </Position>
            <AltitudeMeters>829.20001220703125</AltitudeMeters>
            <DistanceMeters>1637.0812076864</DistanceMeters>
          </Trackpoint>
          <Trackpoint>
            <Time>2020-12-05T08:57:36.000Z</Time>
            <Position>
              <LatitudeDegrees>36.805378384888172149658203125</LatitudeDegrees>
              <LongitudeDegrees>-4.3799170665442943572998046875</LongitudeDegrees>
            </Position>
            <AltitudeMeters>829.5999755859375</AltitudeMeters>
            <DistanceMeters>1638.1134620254</DistanceMeters>
          </Trackpoint>
          <Trackpoint>
            <Time>2020-12-05T08:57:37.000Z</Time>
            <Position>
              <LatitudeDegrees>36.8053865991532802581787109375</LatitudeDegrees>
              <LongitudeDegrees>-4.37991128303110599517822265625</LongitudeDegrees>
            </Position>
            <AltitudeMeters>829.79998779296875</AltitudeMeters>
            <DistanceMeters>1639.1587558835</DistanceMeters>
          </Trackpoint>
          <Trackpoint>
            <Time>2020-12-05T08:57:38.000Z</Time>
            <Position>
              <LatitudeDegrees>36.80539548397064208984375</LatitudeDegrees>
              <LongitudeDegrees>-4.37990575097501277923583984375</LongitudeDegrees>
            </Position>
            <AltitudeMeters>829.79998779296875</AltitudeMeters>
            <DistanceMeters>1640.2669482839</DistanceMeters>
          </Trackpoint>
          <Trackpoint>
            <Time>2020-12-05T08:57:39.000Z</Time>
            <Position>
              <LatitudeDegrees>36.805404536426067352294921875</LatitudeDegrees>
              <LongitudeDegrees>-4.37990256585180759429931640625</LongitudeDegrees>
            </Position>
            <AltitudeMeters>830</AltitudeMeters>
            <DistanceMeters>1641.3165526504</DistanceMeters>
          </Trackpoint>
          <Trackpoint>
            <Time>2020-12-05T08:57:40.000Z</Time>
            <Position>
              <LatitudeDegrees>36.80541358888149261474609375</LatitudeDegrees>
              <LongitudeDegrees>-4.379900805652141571044921875</LongitudeDegrees>
            </Position>
            <AltitudeMeters>830.20001220703125</AltitudeMeters>
            <DistanceMeters>1642.3400216864</DistanceMeters>
          </Trackpoint>
          <Trackpoint>
            <Time>2020-12-05T08:57:41.000Z</Time>
            <Position>
              <LatitudeDegrees>36.80542121641337871551513671875</LatitudeDegrees>
              <LongitudeDegrees>-4.3799003027379512786865234375</LongitudeDegrees>
            </Position>
            <AltitudeMeters>830.20001220703125</AltitudeMeters>
            <DistanceMeters>1643.1899664584</DistanceMeters>
          </Trackpoint>
          <Trackpoint>
            <Time>2020-12-05T08:57:42.000Z</Time>
            <Position>
              <LatitudeDegrees>36.8054281733930110931396484375</LatitudeDegrees>
              <LongitudeDegrees>-4.37989803962409496307373046875</LongitudeDegrees>
            </Position>
            <AltitudeMeters>830.20001220703125</AltitudeMeters>
            <DistanceMeters>1643.9850169921</DistanceMeters>
          </Trackpoint>
          <Trackpoint>
            <Time>2020-12-05T08:57:43.000Z</Time>
            <Position>
              <LatitudeDegrees>36.80543345399200916290283203125</LatitudeDegrees>
              <LongitudeDegrees>-4.37989569269120693206787109375</LongitudeDegrees>
            </Position>
            <AltitudeMeters>830.4000244140625</AltitudeMeters>
            <DistanceMeters>1644.6008604873</DistanceMeters>
          </Trackpoint>
          <Trackpoint>
            <Time>2020-12-05T08:57:44.000Z</Time>
            <Position>
              <LatitudeDegrees>36.8054409138858318328857421875</LatitudeDegrees>
              <LongitudeDegrees>-4.379888735711574554443359375</LongitudeDegrees>
            </Position>
            <AltitudeMeters>830.5999755859375</AltitudeMeters>
            <DistanceMeters>1645.6331148263</DistanceMeters>
          </Trackpoint>
          <Trackpoint>
            <Time>2020-12-05T08:57:45.000Z</Time>
            <Position>
              <LatitudeDegrees>36.8054504692554473876953125</LatitudeDegrees>
              <LongitudeDegrees>-4.379882030189037322998046875</LongitudeDegrees>
            </Position>
            <AltitudeMeters>830.5999755859375</AltitudeMeters>
            <DistanceMeters>1646.8574483959</DistanceMeters>
          </Trackpoint>
          <Trackpoint>
            <Time>2020-12-05T08:57:46.000Z</Time>
            <Position>
              <LatitudeDegrees>36.8054627068340778350830078125</LatitudeDegrees>
              <LongitudeDegrees>-4.3798748217523097991943359375</LongitudeDegrees>
            </Position>
            <AltitudeMeters>830.5999755859375</AltitudeMeters>
            <DistanceMeters>1648.3629546853</DistanceMeters>
          </Trackpoint>
          <Trackpoint>
            <Time>2020-12-05T08:57:47.000Z</Time>
            <Position>
              <LatitudeDegrees>36.80547536350786685943603515625</LatitudeDegrees>
              <LongitudeDegrees>-4.37986501492559909820556640625</LongitudeDegrees>
            </Position>
            <AltitudeMeters>830.79998779296875</AltitudeMeters>
            <DistanceMeters>1650.0225249054</DistanceMeters>
          </Trackpoint>
          <Trackpoint>
            <Time>2020-12-05T08:57:48.000Z</Time>
            <Position>
              <LatitudeDegrees>36.80548642762005329132080078125</LatitudeDegrees>
              <LongitudeDegrees>-4.37985411845147609710693359375</LongitudeDegrees>
            </Position>
            <AltitudeMeters>830.79998779296875</AltitudeMeters>
            <DistanceMeters>1651.5897456278</DistanceMeters>
          </Trackpoint>
          <Trackpoint>
            <Time>2020-12-05T08:57:49.000Z</Time>
            <Position>
              <LatitudeDegrees>36.8054962344467639923095703125</LatitudeDegrees>
              <LongitudeDegrees>-4.37984280288219451904296875</LongitudeDegrees>
            </Position>
            <AltitudeMeters>830.79998779296875</AltitudeMeters>
            <DistanceMeters>1653.0801814048</DistanceMeters>
          </Trackpoint>
          <Trackpoint>
            <Time>2020-12-05T08:57:50.000Z</Time>
            <Position>
              <LatitudeDegrees>36.8055066280066967010498046875</LatitudeDegrees>
              <LongitudeDegrees>-4.3798314034938812255859375</LongitudeDegrees>
            </Position>
            <AltitudeMeters>830.79998779296875</AltitudeMeters>
            <DistanceMeters>1654.61832315</DistanceMeters>
          </Trackpoint>
          <Trackpoint>
            <Time>2020-12-05T08:57:51.000Z</Time>
            <Position>
              <LatitudeDegrees>36.80551442317664623260498046875</LatitudeDegrees>
              <LongitudeDegrees>-4.37982277013361454010009765625</LongitudeDegrees>
            </Position>
            <AltitudeMeters>830.79998779296875</AltitudeMeters>
            <DistanceMeters>1655.7782720239</DistanceMeters>
          </Trackpoint>
          <Trackpoint>
            <Time>2020-12-05T08:57:52.000Z</Time>
            <Position>
              <LatitudeDegrees>36.80552213452756404876708984375</LatitudeDegrees>
              <LongitudeDegrees>-4.379815645515918731689453125</LongitudeDegrees>
            </Position>
            <AltitudeMeters>830.79998779296875</AltitudeMeters>
            <DistanceMeters>1656.8491687082</DistanceMeters>
          </Trackpoint>
          <Trackpoint>
            <Time>2020-12-05T08:57:53.000Z</Time>
            <Position>
              <LatitudeDegrees>36.8055290915071964263916015625</LatitudeDegrees>
              <LongitudeDegrees>-4.37981002964079380035400390625</LongitudeDegrees>
            </Position>
            <AltitudeMeters>830.79998779296875</AltitudeMeters>
            <DistanceMeters>1657.7704868865</DistanceMeters>
          </Trackpoint>
          <Trackpoint>
            <Time>2020-12-05T08:57:54.000Z</Time>
            <Position>
              <LatitudeDegrees>36.80553554557263851165771484375</LatitudeDegrees>
              <LongitudeDegrees>-4.3798064254224300384521484375</LongitudeDegrees>
            </Position>
            <AltitudeMeters>830.5999755859375</AltitudeMeters>
            <DistanceMeters>1658.5540972477</DistanceMeters>
          </Trackpoint>
          <Trackpoint>
            <Time>2020-12-05T08:57:55.000Z</Time>
            <Position>
              <LatitudeDegrees>36.8055435083806514739990234375</LatitudeDegrees>
              <LongitudeDegrees>-4.37980550341308116912841796875</LongitudeDegrees>
            </Position>
            <AltitudeMeters>830.5999755859375</AltitudeMeters>
            <DistanceMeters>1659.4455268451</DistanceMeters>
          </Trackpoint>
          <Trackpoint>
            <Time>2020-12-05T08:57:56.000Z</Time>
            <Position>
              <LatitudeDegrees>36.80555365048348903656005859375</LatitudeDegrees>
              <LongitudeDegrees>-4.3798067606985569000244140625</LongitudeDegrees>
            </Position>
            <AltitudeMeters>830.4000244140625</AltitudeMeters>
            <DistanceMeters>1660.5779008359</DistanceMeters>
          </Trackpoint>
          <Trackpoint>
            <Time>2020-12-05T08:57:57.000Z</Time>
            <Position>
              <LatitudeDegrees>36.8055659718811511993408203125</LatitudeDegrees>
              <LongitudeDegrees>-4.37981170602142810821533203125</LongitudeDegrees>
            </Position>
            <AltitudeMeters>830.4000244140625</AltitudeMeters>
            <DistanceMeters>1662.0190523138</DistanceMeters>
          </Trackpoint>
          <Trackpoint>
            <Time>2020-12-05T08:57:58.000Z</Time>
            <Position>
              <LatitudeDegrees>36.8055790476500988006591796875</LatitudeDegrees>
              <LongitudeDegrees>-4.37981572933495044708251953125</LongitudeDegrees>
            </Position>
            <AltitudeMeters>830.4000244140625</AltitudeMeters>
            <DistanceMeters>1663.5155345081</DistanceMeters>
          </Trackpoint>
          <Trackpoint>
            <Time>2020-12-05T08:57:59.000Z</Time>
            <Position>
              <LatitudeDegrees>36.8055937997996807098388671875</LatitudeDegrees>
              <LongitudeDegrees>-4.37981958501040935516357421875</LongitudeDegrees>
            </Position>
            <AltitudeMeters>830.4000244140625</AltitudeMeters>
            <DistanceMeters>1665.1940409426</DistanceMeters>
          </Trackpoint>
          <Trackpoint>
            <Time>2020-12-05T08:58:00.000Z</Time>
            <Position>
              <LatitudeDegrees>36.80560804903507232666015625</LatitudeDegrees>
              <LongitudeDegrees>-4.379822351038455963134765625</LongitudeDegrees>
            </Position>
            <AltitudeMeters>830.5999755859375</AltitudeMeters>
            <DistanceMeters>1666.7954595981</DistanceMeters>
          </Trackpoint>
          <Trackpoint>
            <Time>2020-12-05T08:58:01.000Z</Time>
            <Position>
              <LatitudeDegrees>36.805625148117542266845703125</LatitudeDegrees>
              <LongitudeDegrees>-4.3798258714377880096435546875</LongitudeDegrees>
            </Position>
            <AltitudeMeters>830.79998779296875</AltitudeMeters>
            <DistanceMeters>1668.7266306343</DistanceMeters>
          </Trackpoint>
          <Trackpoint>
            <Time>2020-12-05T08:58:02.000Z</Time>
            <Position>
              <LatitudeDegrees>36.80564224720001220703125</LatitudeDegrees>
              <LongitudeDegrees>-4.3798292241990566253662109375</LongitudeDegrees>
            </Position>
            <AltitudeMeters>830.79998779296875</AltitudeMeters>
            <DistanceMeters>1670.6554622742</DistanceMeters>
          </Trackpoint>
          <Trackpoint>
            <Time>2020-12-05T08:58:03.000Z</Time>
            <Position>
              <LatitudeDegrees>36.80565540678799152374267578125</LatitudeDegrees>
              <LongitudeDegrees>-4.37983199022710323333740234375</LongitudeDegrees>
            </Position>
            <AltitudeMeters>831</AltitudeMeters>
            <DistanceMeters>1672.1398270044</DistanceMeters>
          </Trackpoint>
          <Trackpoint>
            <Time>2020-12-05T08:58:04.000Z</Time>
            <Position>
              <LatitudeDegrees>36.80566747672855854034423828125</LatitudeDegrees>
              <LongitudeDegrees>-4.379832744598388671875</LongitudeDegrees>
            </Position>
            <AltitudeMeters>831.20001220703125</AltitudeMeters>
            <DistanceMeters>1673.4904103753</DistanceMeters>
          </Trackpoint>
          <Trackpoint>
            <Time>2020-12-05T08:58:05.000Z</Time>
            <Position>
              <LatitudeDegrees>36.805680133402347564697265625</LatitudeDegrees>
              <LongitudeDegrees>-4.379828386008739471435546875</LongitudeDegrees>
            </Position>
            <AltitudeMeters>831</AltitudeMeters>
            <DistanceMeters>1674.9502384613</DistanceMeters>
          </Trackpoint>
          <Trackpoint>
            <Time>2020-12-05T08:58:06.000Z</Time>
            <Position>
              <LatitudeDegrees>36.80569245480000972747802734375</LatitudeDegrees>
              <LongitudeDegrees>-4.3798233568668365478515625</LongitudeDegrees>
            </Position>
            <AltitudeMeters>831</AltitudeMeters>
            <DistanceMeters>1676.3945194792</DistanceMeters>
          </Trackpoint>
          <Trackpoint>
            <Time>2020-12-05T08:58:07.000Z</Time>
            <Position>
              <LatitudeDegrees>36.805704943835735321044921875</LatitudeDegrees>
              <LongitudeDegrees>-4.379821009933948516845703125</LongitudeDegrees>
            </Position>
            <AltitudeMeters>830.79998779296875</AltitudeMeters>
            <DistanceMeters>1677.8007864315</DistanceMeters>
          </Trackpoint>
          <Trackpoint>
            <Time>2020-12-05T08:58:08.000Z</Time>
            <Position>
              <LatitudeDegrees>36.80571357719600200653076171875</LatitudeDegrees>
              <LongitudeDegrees>-4.37982059083878993988037109375</LongitudeDegrees>
            </Position>
            <AltitudeMeters>831</AltitudeMeters>
            <DistanceMeters>1678.7605092026</DistanceMeters>
          </Trackpoint>
          <Trackpoint>
            <Time>2020-12-05T08:58:09.000Z</Time>
            <Position>
              <LatitudeDegrees>36.8057218752801418304443359375</LatitudeDegrees>
              <LongitudeDegrees>-4.3798201717436313629150390625</LongitudeDegrees>
            </Position>
            <AltitudeMeters>831.20001220703125</AltitudeMeters>
            <DistanceMeters>1679.6818273809</DistanceMeters>
          </Trackpoint>
          <Trackpoint>
            <Time>2020-12-05T08:58:10.000Z</Time>
            <Position>
              <LatitudeDegrees>36.8057319335639476776123046875</LatitudeDegrees>
              <LongitudeDegrees>-4.3798188306391239166259765625</LongitudeDegrees>
            </Position>
            <AltitudeMeters>831</AltitudeMeters>
            <DistanceMeters>1680.8061986284</DistanceMeters>
          </Trackpoint>
          <Trackpoint>
            <Time>2020-12-05T08:58:11.000Z</Time>
            <Position>
              <LatitudeDegrees>36.80574308149516582489013671875</LatitudeDegrees>
              <LongitudeDegrees>-4.37981774099171161651611328125</LongitudeDegrees>
            </Position>
            <AltitudeMeters>830.79998779296875</AltitudeMeters>
            <DistanceMeters>1682.0524623037</DistanceMeters>
          </Trackpoint>
          <Trackpoint>
            <Time>2020-12-05T08:58:12.000Z</Time>
            <Position>
              <LatitudeDegrees>36.805754564702510833740234375</LatitudeDegrees>
              <LongitudeDegrees>-4.37981673516333103179931640625</LongitudeDegrees>
            </Position>
            <AltitudeMeters>830.79998779296875</AltitudeMeters>
            <DistanceMeters>1683.3379598685</DistanceMeters>
          </Trackpoint>
          <Trackpoint>
            <Time>2020-12-05T08:58:13.000Z</Time>
            <Position>
              <LatitudeDegrees>36.80576604790985584259033203125</LatitudeDegrees>
              <LongitudeDegrees>-4.3798138014972209930419921875</LongitudeDegrees>
            </Position>
            <AltitudeMeters>830.79998779296875</AltitudeMeters>
            <DistanceMeters>1684.6478127322</DistanceMeters>
          </Trackpoint>
          <Trackpoint>
            <Time>2020-12-05T08:58:14.000Z</Time>
            <Position>
              <LatitudeDegrees>36.80577828548848628997802734375</LatitudeDegrees>
              <LongitudeDegrees>-4.37980885617434978485107421875</LongitudeDegrees>
            </Position>
            <AltitudeMeters>830.5999755859375</AltitudeMeters>
            <DistanceMeters>1686.082684653</DistanceMeters>
          </Trackpoint>
          <Trackpoint>
            <Time>2020-12-05T08:58:15.000Z</Time>
            <Position>
              <LatitudeDegrees>36.80579102598130702972412109375</LatitudeDegrees>
              <LongitudeDegrees>-4.37979863025248050689697265625</LongitudeDegrees>
            </Position>
            <AltitudeMeters>830.4000244140625</AltitudeMeters>
            <DistanceMeters>1687.7692415242</DistanceMeters>
          </Trackpoint>
          <Trackpoint>
            <Time>2020-12-05T08:58:16.000Z</Time>
            <Position>
              <LatitudeDegrees>36.80580376647412776947021484375</LatitudeDegrees>
              <LongitudeDegrees>-4.37978974543511867523193359375</LongitudeDegrees>
            </Position>
            <AltitudeMeters>830.20001220703125</AltitudeMeters>
            <DistanceMeters>1689.3930587312</DistanceMeters>
          </Trackpoint>
          <Trackpoint>
            <Time>2020-12-05T08:58:17.000Z</Time>
            <Position>
              <LatitudeDegrees>36.8058152496814727783203125</LatitudeDegrees>
              <LongitudeDegrees>-4.3797822855412960052490234375</LongitudeDegrees>
            </Position>
            <AltitudeMeters>830</AltitudeMeters>
            <DistanceMeters>1690.834210209</DistanceMeters>
          </Trackpoint>
          <Trackpoint>
            <Time>2020-12-05T08:58:18.000Z</Time>
            <Position>
              <LatitudeDegrees>36.80582799017429351806640625</LatitudeDegrees>
              <LongitudeDegrees>-4.37977482564747333526611328125</LongitudeDegrees>
            </Position>
            <AltitudeMeters>829.79998779296875</AltitudeMeters>
            <DistanceMeters>1692.4014309314</DistanceMeters>
          </Trackpoint>
          <Trackpoint>
            <Time>2020-12-05T08:58:19.000Z</Time>
            <Position>
              <LatitudeDegrees>36.8058412335813045501708984375</LatitudeDegrees>
              <LongitudeDegrees>-4.379767365753650665283203125</LongitudeDegrees>
            </Position>
            <AltitudeMeters>829.79998779296875</AltitudeMeters>
            <DistanceMeters>1694.0196775655</DistanceMeters>
          </Trackpoint>
          <Trackpoint>
            <Time>2020-12-05T08:58:20.000Z</Time>
            <Position>
              <LatitudeDegrees>36.8058526329696178436279296875</LatitudeDegrees>
              <LongitudeDegrees>-4.37975906766951084136962890625</LongitudeDegrees>
            </Position>
            <AltitudeMeters>830</AltitudeMeters>
            <DistanceMeters>1695.4856783137</DistanceMeters>
          </Trackpoint>
          <Trackpoint>
            <Time>2020-12-05T08:58:21.000Z</Time>
            <Position>
              <LatitudeDegrees>36.8058643676340579986572265625</LatitudeDegrees>
              <LongitudeDegrees>-4.37974599190056324005126953125</LongitudeDegrees>
            </Position>
            <AltitudeMeters>830</AltitudeMeters>
            <DistanceMeters>1697.2353056782</DistanceMeters>
          </Trackpoint>
          <Trackpoint>
            <Time>2020-12-05T08:58:22.000Z</Time>
            <Position>
              <LatitudeDegrees>36.80587300099432468414306640625</LatitudeDegrees>
              <LongitudeDegrees>-4.379737190902233123779296875</LongitudeDegrees>
            </Position>
            <AltitudeMeters>830.20001220703125</AltitudeMeters>
            <DistanceMeters>1698.4743024479</DistanceMeters>
          </Trackpoint>
          <Trackpoint>
            <Time>2020-12-05T08:58:23.000Z</Time>
            <Position>
              <LatitudeDegrees>36.80588171817362308502197265625</LatitudeDegrees>
              <LongitudeDegrees>-4.3797294795513153076171875</LongitudeDegrees>
            </Position>
            <AltitudeMeters>830</AltitudeMeters>
            <DistanceMeters>1699.6687697259</DistanceMeters>
          </Trackpoint>
          <Trackpoint>
            <Time>2020-12-05T08:58:24.000Z</Time>
            <Position>
              <LatitudeDegrees>36.80588968098163604736328125</LatitudeDegrees>
              <LongitudeDegrees>-4.3797202594578266143798828125</LongitudeDegrees>
            </Position>
            <AltitudeMeters>830</AltitudeMeters>
            <DistanceMeters>1700.8782623402</DistanceMeters>
          </Trackpoint>
          <Trackpoint>
            <Time>2020-12-05T08:58:25.000Z</Time>
            <Position>
              <LatitudeDegrees>36.80589563213288784027099609375</LatitudeDegrees>
              <LongitudeDegrees>-4.37971011735498905181884765625</LongitudeDegrees>
            </Position>
            <AltitudeMeters>829.79998779296875</AltitudeMeters>
            <DistanceMeters>1702.0026335876</DistanceMeters>
          </Trackpoint>
          <Trackpoint>
            <Time>2020-12-05T08:58:26.000Z</Time>
            <Position>
              <LatitudeDegrees>36.80590149946510791778564453125</LatitudeDegrees>
              <LongitudeDegrees>-4.37970106489956378936767578125</LongitudeDegrees>
            </Position>
            <AltitudeMeters>829.5999755859375</AltitudeMeters>
            <DistanceMeters>1703.0392526579</DistanceMeters>
          </Trackpoint>
          <Trackpoint>
            <Time>2020-12-05T08:58:27.000Z</Time>
            <Position>
              <LatitudeDegrees>36.80590937845408916473388671875</LatitudeDegrees>
              <LongitudeDegrees>-4.37968899495899677276611328125</LongitudeDegrees>
            </Position>
            <AltitudeMeters>829.20001220703125</AltitudeMeters>
            <DistanceMeters>1704.4261218956</DistanceMeters>
          </Trackpoint>
          <Trackpoint>
            <Time>2020-12-05T08:58:28.000Z</Time>
            <Position>
              <LatitudeDegrees>36.80591876618564128875732421875</LatitudeDegrees>
              <LongitudeDegrees>-4.3796776793897151947021484375</LongitudeDegrees>
            </Position>
            <AltitudeMeters>828.79998779296875</AltitudeMeters>
            <DistanceMeters>1705.8797511083</DistanceMeters>
          </Trackpoint>
          <Trackpoint>
            <Time>2020-12-05T08:58:29.000Z</Time>
            <Position>
              <LatitudeDegrees>36.80592781864106655120849609375</LatitudeDegrees>
              <LongitudeDegrees>-4.37966519035398960113525390625</LongitudeDegrees>
            </Position>
            <AltitudeMeters>828.5999755859375</AltitudeMeters>
            <DistanceMeters>1707.3822553881</DistanceMeters>
          </Trackpoint>
          <Trackpoint>
            <Time>2020-12-05T08:58:30.000Z</Time>
            <Position>
              <LatitudeDegrees>36.80593527853488922119140625</LatitudeDegrees>
              <LongitudeDegrees>-4.3796532042324542999267578125</LongitudeDegrees>
            </Position>
            <AltitudeMeters>828.4000244140625</AltitudeMeters>
            <DistanceMeters>1708.732838759</DistanceMeters>
          </Trackpoint>
          <Trackpoint>
            <Time>2020-12-05T08:58:31.000Z</Time>
            <Position>
              <LatitudeDegrees>36.80594089441001415252685546875</LatitudeDegrees>
              <LongitudeDegrees>-4.379642643034458160400390625</LongitudeDegrees>
            </Position>
            <AltitudeMeters>828.20001220703125</AltitudeMeters>
            <DistanceMeters>1709.8612184729</DistanceMeters>
          </Trackpoint>
          <Trackpoint>
            <Time>2020-12-05T08:58:32.000Z</Time>
            <Position>
              <LatitudeDegrees>36.80594625882804393768310546875</LatitudeDegrees>
              <LongitudeDegrees>-4.37963115982711315155029296875</LongitudeDegrees>
            </Position>
            <AltitudeMeters>828</AltitudeMeters>
            <DistanceMeters>1711.0404689858</DistanceMeters>
          </Trackpoint>
          <Trackpoint>
            <Time>2020-12-05T08:58:33.000Z</Time>
            <Position>
              <LatitudeDegrees>36.80595179088413715362548828125</LatitudeDegrees>
              <LongitudeDegrees>-4.3796156533062458038330078125</LongitudeDegrees>
            </Position>
            <AltitudeMeters>828</AltitudeMeters>
            <DistanceMeters>1712.5519614074</DistanceMeters>
          </Trackpoint>
          <Trackpoint>
            <Time>2020-12-05T08:58:34.000Z</Time>
            <Position>
              <LatitudeDegrees>36.80595682002604007720947265625</LatitudeDegrees>
              <LongitudeDegrees>-4.37959863804280757904052734375</LongitudeDegrees>
            </Position>
            <AltitudeMeters>828</AltitudeMeters>
            <DistanceMeters>1714.1674155516</DistanceMeters>
          </Trackpoint>
          <Trackpoint>
            <Time>2020-12-05T08:58:35.000Z</Time>
            <Position>
              <LatitudeDegrees>36.80596469901502132415771484375</LatitudeDegrees>
              <LongitudeDegrees>-4.3795841373503208160400390625</LongitudeDegrees>
            </Position>
            <AltitudeMeters>827.79998779296875</AltitudeMeters>
            <DistanceMeters>1715.7317527008</DistanceMeters>
          </Trackpoint>
          <Trackpoint>
            <Time>2020-12-05T08:58:36.000Z</Time>
            <Position>
              <LatitudeDegrees>36.80597056634724140167236328125</LatitudeDegrees>
              <LongitudeDegrees>-4.3795703910291194915771484375</LongitudeDegrees>
            </Position>
            <AltitudeMeters>827.79998779296875</AltitudeMeters>
            <DistanceMeters>1717.121873688</DistanceMeters>
          </Trackpoint>
          <Trackpoint>
            <Time>2020-12-05T08:58:37.000Z</Time>
            <Position>
              <LatitudeDegrees>36.8059756793081760406494140625</LatitudeDegrees>
              <LongitudeDegrees>-4.37955656088888645172119140625</LongitudeDegrees>
            </Position>
            <AltitudeMeters>827.5999755859375</AltitudeMeters>
            <DistanceMeters>1718.479126647</DistanceMeters>
          </Trackpoint>
          <Trackpoint>
            <Time>2020-12-05T08:58:38.000Z</Time>
            <Position>
              <LatitudeDegrees>36.80597978644073009490966796875</LatitudeDegrees>
              <LongitudeDegrees>-4.3795445747673511505126953125</LongitudeDegrees>
            </Position>
            <AltitudeMeters>827.79998779296875</AltitudeMeters>
            <DistanceMeters>1719.6429614577</DistanceMeters>
          </Trackpoint>
          <Trackpoint>
            <Time>2020-12-05T08:58:39.000Z</Time>
            <Position>
              <LatitudeDegrees>36.8059842288494110107421875</LatitudeDegrees>
              <LongitudeDegrees>-4.37953208573162555694580078125</LongitudeDegrees>
            </Position>
            <AltitudeMeters>828</AltitudeMeters>
            <DistanceMeters>1720.8598971736</DistanceMeters>
          </Trackpoint>
          <Trackpoint>
            <Time>2020-12-05T08:58:40.000Z</Time>
            <Position>
              <LatitudeDegrees>36.80598766542971134185791015625</LatitudeDegrees>
              <LongitudeDegrees>-4.37952001579105854034423828125</LongitudeDegrees>
            </Position>
            <AltitudeMeters>828</AltitudeMeters>
            <DistanceMeters>1722.0002177461</DistanceMeters>
          </Trackpoint>
          <Trackpoint>
            <Time>2020-12-05T08:58:41.000Z</Time>
            <Position>
              <LatitudeDegrees>36.8059890903532505035400390625</LatitudeDegrees>
              <LongitudeDegrees>-4.3795103766024112701416015625</LongitudeDegrees>
            </Position>
            <AltitudeMeters>827.79998779296875</AltitudeMeters>
            <DistanceMeters>1722.8711519694</DistanceMeters>
          </Trackpoint>
          <Trackpoint>
            <Time>2020-12-05T08:58:42.000Z</Time>
            <Position>
              <LatitudeDegrees>36.80599185638129711151123046875</LatitudeDegrees>
              <LongitudeDegrees>-4.37950023449957370758056640625</LongitudeDegrees>
            </Position>
            <AltitudeMeters>827.4000244140625</AltitudeMeters>
            <DistanceMeters>1723.8214191131</DistanceMeters>
          </Trackpoint>
          <Trackpoint>
            <Time>2020-12-05T08:58:43.000Z</Time>
            <Position>
              <LatitudeDegrees>36.80599629878997802734375</LatitudeDegrees>
              <LongitudeDegrees>-4.37949067912995815277099609375</LongitudeDegrees>
            </Position>
            <AltitudeMeters>827.4000244140625</AltitudeMeters>
            <DistanceMeters>1724.8089656972</DistanceMeters>
          </Trackpoint>
          <Trackpoint>
            <Time>2020-12-05T08:58:44.000Z</Time>
            <Position>
              <LatitudeDegrees>36.8060018308460712432861328125</LatitudeDegrees>
              <LongitudeDegrees>-4.37948078848421573638916015625</LongitudeDegrees>
            </Position>
            <AltitudeMeters>827.20001220703125</AltitudeMeters>
            <DistanceMeters>1725.8840702432</DistanceMeters>
          </Trackpoint>
          <Trackpoint>
            <Time>2020-12-05T08:58:45.000Z</Time>
            <Position>
              <LatitudeDegrees>36.806010045111179351806640625</LatitudeDegrees>
              <LongitudeDegrees>-4.379469640552997589111328125</LongitudeDegrees>
            </Position>
            <AltitudeMeters>827</AltitudeMeters>
            <DistanceMeters>1727.2346536141</DistanceMeters>
          </Trackpoint>
          <Trackpoint>
            <Time>2020-12-05T08:58:46.000Z</Time>
            <Position>
              <LatitudeDegrees>36.8060190975666046142578125</LatitudeDegrees>
              <LongitudeDegrees>-4.3794563971459865570068359375</LongitudeDegrees>
            </Position>
            <AltitudeMeters>826.79998779296875</AltitudeMeters>
            <DistanceMeters>1728.7874029212</DistanceMeters>
          </Trackpoint>
          <Trackpoint>
            <Time>2020-12-05T08:58:47.000Z</Time>
            <Position>
              <LatitudeDegrees>36.806029491126537322998046875</LatitudeDegrees>
              <LongitudeDegrees>-4.379444159567356109619140625</LongitudeDegrees>
            </Position>
            <AltitudeMeters>826.4000244140625</AltitudeMeters>
            <DistanceMeters>1730.3746619825</DistanceMeters>
          </Trackpoint>
          <Trackpoint>
            <Time>2020-12-05T08:58:48.000Z</Time>
            <Position>
              <LatitudeDegrees>36.80603845976293087005615234375</LatitudeDegrees>
              <LongitudeDegrees>-4.37943301163613796234130859375</LongitudeDegrees>
            </Position>
            <AltitudeMeters>826.4000244140625</AltitudeMeters>
            <DistanceMeters>1731.7777146062</DistanceMeters>
          </Trackpoint>
          <Trackpoint>
            <Time>2020-12-05T08:58:49.000Z</Time>
            <Position>
              <LatitudeDegrees>36.8060457520186901092529296875</LatitudeDegrees>
              <LongitudeDegrees>-4.37942479737102985382080078125</LongitudeDegrees>
            </Position>
            <AltitudeMeters>826.4000244140625</AltitudeMeters>
            <DistanceMeters>1732.8736161378</DistanceMeters>
          </Trackpoint>
          <Trackpoint>
            <Time>2020-12-05T08:58:50.000Z</Time>
            <Position>
              <LatitudeDegrees>36.806053631007671356201171875</LatitudeDegrees>
              <LongitudeDegrees>-4.37941507436335086822509765625</LongitudeDegrees>
            </Position>
            <AltitudeMeters>826.4000244140625</AltitudeMeters>
            <DistanceMeters>1734.1053031283</DistanceMeters>
          </Trackpoint>
          <Trackpoint>
            <Time>2020-12-05T08:58:51.000Z</Time>
            <Position>
              <LatitudeDegrees>36.8060611747205257415771484375</LatitudeDegrees>
              <LongitudeDegrees>-4.37940434552729129791259765625</LongitudeDegrees>
            </Position>
            <AltitudeMeters>826.4000244140625</AltitudeMeters>
            <DistanceMeters>1735.3766739175</DistanceMeters>
          </Trackpoint>
          <Trackpoint>
            <Time>2020-12-05T08:58:52.000Z</Time>
            <Position>
              <LatitudeDegrees>36.80607031099498271942138671875</LatitudeDegrees>
              <LongitudeDegrees>-4.37939755618572235107421875</LongitudeDegrees>
            </Position>
            <AltitudeMeters>826.4000244140625</AltitudeMeters>
            <DistanceMeters>1736.5559244305</DistanceMeters>
          </Trackpoint>
          <Trackpoint>
            <Time>2020-12-05T08:58:53.000Z</Time>
            <Position>
              <LatitudeDegrees>36.80607802234590053558349609375</LatitudeDegrees>
              <LongitudeDegrees>-4.3793893419206142425537109375</LongitudeDegrees>
            </Position>
            <AltitudeMeters>826.4000244140625</AltitudeMeters>
            <DistanceMeters>1737.6802956779</DistanceMeters>
          </Trackpoint>
          <Trackpoint>
            <Time>2020-12-05T08:58:54.000Z</Time>
            <Position>
              <LatitudeDegrees>36.80608606897294521331787109375</LatitudeDegrees>
              <LongitudeDegrees>-4.37938012182712554931640625</LongitudeDegrees>
            </Position>
            <AltitudeMeters>826.4000244140625</AltitudeMeters>
            <DistanceMeters>1738.893515551</DistanceMeters>
          </Trackpoint>
          <Trackpoint>
            <Time>2020-12-05T08:58:55.000Z</Time>
            <Position>
              <LatitudeDegrees>36.80609327740967273712158203125</LatitudeDegrees>
              <LongitudeDegrees>-4.37937065027654170989990234375</LongitudeDegrees>
            </Position>
            <AltitudeMeters>826.20001220703125</AltitudeMeters>
            <DistanceMeters>1740.0573503617</DistanceMeters>
          </Trackpoint>
          <Trackpoint>
            <Time>2020-12-05T08:58:56.000Z</Time>
            <Position>
              <LatitudeDegrees>36.8061007373034954071044921875</LatitudeDegrees>
              <LongitudeDegrees>-4.37936344183981418609619140625</LongitudeDegrees>
            </Position>
            <AltitudeMeters>825.79998779296875</AltitudeMeters>
            <DistanceMeters>1741.1069547282</DistanceMeters>
          </Trackpoint>
          <Trackpoint>
            <Time>2020-12-05T08:58:57.000Z</Time>
            <Position>
              <LatitudeDegrees>36.80610836483538150787353515625</LatitudeDegrees>
              <LongitudeDegrees>-4.37935732305049896240234375</LongitudeDegrees>
            </Position>
            <AltitudeMeters>825</AltitudeMeters>
            <DistanceMeters>1742.117102558</DistanceMeters>
          </Trackpoint>
          <Trackpoint>
            <Time>2020-12-05T08:58:58.000Z</Time>
            <Position>
              <LatitudeDegrees>36.806116662919521331787109375</LatitudeDegrees>
              <LongitudeDegrees>-4.37935254536569118499755859375</LongitudeDegrees>
            </Position>
            <AltitudeMeters>824.4000244140625</AltitudeMeters>
            <DistanceMeters>1743.140571594</DistanceMeters>
          </Trackpoint>
          <Trackpoint>
            <Time>2020-12-05T08:58:59.000Z</Time>
            <Position>
              <LatitudeDegrees>36.806126721203327178955078125</LatitudeDegrees>
              <LongitudeDegrees>-4.379346929490566253662109375</LongitudeDegrees>
            </Position>
            <AltitudeMeters>823.79998779296875</AltitudeMeters>
            <DistanceMeters>1744.3649051636</DistanceMeters>
          </Trackpoint>
          <Trackpoint>
            <Time>2020-12-05T08:59:00.000Z</Time>
            <Position>
              <LatitudeDegrees>36.8061359412968158721923828125</LatitudeDegrees>
              <LongitudeDegrees>-4.37933812849223613739013671875</LongitudeDegrees>
            </Position>
            <AltitudeMeters>823.5999755859375</AltitudeMeters>
            <DistanceMeters>1745.6539102317</DistanceMeters>
          </Trackpoint>
          <Trackpoint>
            <Time>2020-12-05T08:59:01.000Z</Time>
            <Position>
              <LatitudeDegrees>36.8061470054090023040771484375</LatitudeDegrees>
              <LongitudeDegrees>-4.37933075241744518280029296875</LongitudeDegrees>
            </Position>
            <AltitudeMeters>823.5999755859375</AltitudeMeters>
            <DistanceMeters>1747.0505120046</DistanceMeters>
          </Trackpoint>
          <Trackpoint>
            <Time>2020-12-05T08:59:02.000Z</Time>
            <Position>
              <LatitudeDegrees>36.80615765042603015899658203125</LatitudeDegrees>
              <LongitudeDegrees>-4.3793232925236225128173828125</LongitudeDegrees>
            </Position>
            <AltitudeMeters>823.79998779296875</AltitudeMeters>
            <DistanceMeters>1748.4077649635</DistanceMeters>
          </Trackpoint>
          <Trackpoint>
            <Time>2020-12-05T08:59:03.000Z</Time>
            <Position>
              <LatitudeDegrees>36.80616821162402629852294921875</LatitudeDegrees>
              <LongitudeDegrees>-4.37931382097303867340087890625</LongitudeDegrees>
            </Position>
            <AltitudeMeters>823.79998779296875</AltitudeMeters>
            <DistanceMeters>1749.8551687548</DistanceMeters>
          </Trackpoint>
          <Trackpoint>
            <Time>2020-12-05T08:59:04.000Z</Time>
            <Position>
              <LatitudeDegrees>36.80617609061300754547119140625</LatitudeDegrees>
              <LongitudeDegrees>-4.37930309213697910308837890625</LongitudeDegrees>
            </Position>
            <AltitudeMeters>824</AltitudeMeters>
            <DistanceMeters>1751.1546395298</DistanceMeters>
          </Trackpoint>
          <Trackpoint>
            <Time>2020-12-05T08:59:05.000Z</Time>
            <Position>
              <LatitudeDegrees>36.8061840534210205078125</LatitudeDegrees>
              <LongitudeDegrees>-4.37929269857704639434814453125</LongitudeDegrees>
            </Position>
            <AltitudeMeters>824.4000244140625</AltitudeMeters>
            <DistanceMeters>1752.4366199948</DistanceMeters>
          </Trackpoint>
          <Trackpoint>
            <Time>2020-12-05T08:59:06.000Z</Time>
            <Position>
              <LatitudeDegrees>36.806193105876445770263671875</LatitudeDegrees>
              <LongitudeDegrees>-4.37928230501711368560791015625</LongitudeDegrees>
            </Position>
            <AltitudeMeters>824.5999755859375</AltitudeMeters>
            <DistanceMeters>1753.810405268</DistanceMeters>
          </Trackpoint>
          <Trackpoint>
            <Time>2020-12-05T08:59:07.000Z</Time>
            <Position>
              <LatitudeDegrees>36.80620215833187103271484375</LatitudeDegrees>
              <LongitudeDegrees>-4.37927342019975185394287109375</LongitudeDegrees>
            </Position>
            <AltitudeMeters>824.5999755859375</AltitudeMeters>
            <DistanceMeters>1755.092385733</DistanceMeters>
          </Trackpoint>
          <Trackpoint>
            <Time>2020-12-05T08:59:08.000Z</Time>
            <Position>
              <LatitudeDegrees>36.80620995350182056427001953125</LatitudeDegrees>
              <LongitudeDegrees>-4.3792662955820560455322265625</LongitudeDegrees>
            </Position>
            <AltitudeMeters>824.5999755859375</AltitudeMeters>
            <DistanceMeters>1756.1716817357</DistanceMeters>
          </Trackpoint>
          <Trackpoint>
            <Time>2020-12-05T08:59:09.000Z</Time>
            <Position>
              <LatitudeDegrees>36.8062167428433895111083984375</LatitudeDegrees>
              <LongitudeDegrees>-4.37925950624048709869384765625</LongitudeDegrees>
            </Position>
            <AltitudeMeters>824.4000244140625</AltitudeMeters>
            <DistanceMeters>1757.1360975556</DistanceMeters>
          </Trackpoint>
          <Trackpoint>
            <Time>2020-12-05T08:59:10.000Z</Time>
            <Position>
              <LatitudeDegrees>36.80622202344238758087158203125</LatitudeDegrees>
              <LongitudeDegrees>-4.3792532198131084442138671875</LongitudeDegrees>
            </Position>
            <AltitudeMeters>824</AltitudeMeters>
            <DistanceMeters>1757.9535482617</DistanceMeters>
          </Trackpoint>
          <Trackpoint>
            <Time>2020-12-05T08:59:11.000Z</Time>
            <Position>
              <LatitudeDegrees>36.806230656802654266357421875</LatitudeDegrees>
              <LongitudeDegrees>-4.37924726866185665130615234375</LongitudeDegrees>
            </Position>
            <AltitudeMeters>823.4000244140625</AltitudeMeters>
            <DistanceMeters>1759.0535620086</DistanceMeters>
          </Trackpoint>
          <Trackpoint>
            <Time>2020-12-05T08:59:12.000Z</Time>
            <Position>
              <LatitudeDegrees>36.80623962543904781341552734375</LatitudeDegrees>
              <LongitudeDegrees>-4.3792434968054294586181640625</LongitudeDegrees>
            </Position>
            <AltitudeMeters>822.5999755859375</AltitudeMeters>
            <DistanceMeters>1760.1074592534</DistanceMeters>
          </Trackpoint>
          <Trackpoint>
            <Time>2020-12-05T08:59:13.000Z</Time>
            <Position>
              <LatitudeDegrees>36.80624834261834621429443359375</LatitudeDegrees>
              <LongitudeDegrees>-4.37924156896770000457763671875</LongitudeDegrees>
            </Position>
            <AltitudeMeters>822.20001220703125</AltitudeMeters>
            <DistanceMeters>1761.0950058376</DistanceMeters>
          </Trackpoint>
          <Trackpoint>
            <Time>2020-12-05T08:59:14.000Z</Time>
            <Position>
              <LatitudeDegrees>36.8062586523592472076416015625</LatitudeDegrees>
              <LongitudeDegrees>-4.379239976406097412109375</LongitudeDegrees>
            </Position>
            <AltitudeMeters>822</AltitudeMeters>
            <DistanceMeters>1762.2510557127</DistanceMeters>
          </Trackpoint>
          <Trackpoint>
            <Time>2020-12-05T08:59:15.000Z</Time>
            <Position>
              <LatitudeDegrees>36.80627047084271907806396484375</LatitudeDegrees>
              <LongitudeDegrees>-4.37923771329224109649658203125</LongitudeDegrees>
            </Position>
            <AltitudeMeters>821.79998779296875</AltitudeMeters>
            <DistanceMeters>1763.5746246872</DistanceMeters>
          </Trackpoint>
          <Trackpoint>
            <Time>2020-12-05T08:59:16.000Z</Time>
            <Position>
              <LatitudeDegrees>36.80627969093620777130126953125</LatitudeDegrees>
              <LongitudeDegrees>-4.3792364560067653656005859375</LongitudeDegrees>
            </Position>
            <AltitudeMeters>821.5999755859375</AltitudeMeters>
            <DistanceMeters>1764.6024957608</DistanceMeters>
          </Trackpoint>
          <Trackpoint>
            <Time>2020-12-05T08:59:17.000Z</Time>
            <Position>
              <LatitudeDegrees>36.80628798902034759521484375</LatitudeDegrees>
              <LongitudeDegrees>-4.37923394143581390380859375</LongitudeDegrees>
            </Position>
            <AltitudeMeters>821.5999755859375</AltitudeMeters>
            <DistanceMeters>1765.5575024209</DistanceMeters>
          </Trackpoint>
          <Trackpoint>
            <Time>2020-12-05T08:59:18.000Z</Time>
            <Position>
              <LatitudeDegrees>36.80629846639931201934814453125</LatitudeDegrees>
              <LongitudeDegrees>-4.3792287446558475494384765625</LongitudeDegrees>
            </Position>
            <AltitudeMeters>821.5999755859375</AltitudeMeters>
            <DistanceMeters>1766.8109908736</DistanceMeters>
          </Trackpoint>
          <Trackpoint>
            <Time>2020-12-05T08:59:19.000Z</Time>
            <Position>
              <LatitudeDegrees>36.80630986578762531280517578125</LatitudeDegrees>
              <LongitudeDegrees>-4.3792217038571834564208984375</LongitudeDegrees>
            </Position>
            <AltitudeMeters>821.5999755859375</AltitudeMeters>
            <DistanceMeters>1768.2268570292</DistanceMeters>
          </Trackpoint>
          <Trackpoint>
            <Time>2020-12-05T08:59:20.000Z</Time>
            <Position>
              <LatitudeDegrees>36.80632042698562145233154296875</LatitudeDegrees>
              <LongitudeDegrees>-4.3792149983346462249755859375</LongitudeDegrees>
            </Position>
            <AltitudeMeters>821.4000244140625</AltitudeMeters>
            <DistanceMeters>1769.5470103361</DistanceMeters>
          </Trackpoint>
          <Trackpoint>
            <Time>2020-12-05T08:59:21.000Z</Time>
            <Position>
              <LatitudeDegrees>36.80632981471717357635498046875</LatitudeDegrees>
              <LongitudeDegrees>-4.37921038828790187835693359375</LongitudeDegrees>
            </Position>
            <AltitudeMeters>821.4000244140625</AltitudeMeters>
            <DistanceMeters>1770.6713815836</DistanceMeters>
          </Trackpoint>
          <Trackpoint>
            <Time>2020-12-05T08:59:22.000Z</Time>
            <Position>
              <LatitudeDegrees>36.80634163320064544677734375</LatitudeDegrees>
              <LongitudeDegrees>-4.37920133583247661590576171875</LongitudeDegrees>
            </Position>
            <AltitudeMeters>821.5999755859375</AltitudeMeters>
            <DistanceMeters>1772.2153829376</DistanceMeters>
          </Trackpoint>
          <Trackpoint>
            <Time>2020-12-05T08:59:23.000Z</Time>
            <Position>
              <LatitudeDegrees>36.8063505180180072784423828125</LatitudeDegrees>
              <LongitudeDegrees>-4.37919639050960540771484375</LongitudeDegrees>
            </Position>
            <AltitudeMeters>821.5999755859375</AltitudeMeters>
            <DistanceMeters>1773.2988541821</DistanceMeters>
          </Trackpoint>
          <Trackpoint>
            <Time>2020-12-05T08:59:24.000Z</Time>
            <Position>
              <LatitudeDegrees>36.80636174976825714111328125</LatitudeDegrees>
              <LongitudeDegrees>-4.37919228337705135345458984375</LongitudeDegrees>
            </Position>
            <AltitudeMeters>821.5999755859375</AltitudeMeters>
            <DistanceMeters>1774.6017948452</DistanceMeters>
          </Trackpoint>
          <Trackpoint>
            <Time>2020-12-05T08:59:25.000Z</Time>
            <Position>
              <LatitudeDegrees>36.80637205950915813446044921875</LatitudeDegrees>
              <LongitudeDegrees>-4.37918893061578273773193359375</LongitudeDegrees>
            </Position>
            <AltitudeMeters>821.4000244140625</AltitudeMeters>
            <DistanceMeters>1775.7848678982</DistanceMeters>
          </Trackpoint>
          <Trackpoint>
            <Time>2020-12-05T08:59:26.000Z</Time>
            <Position>
              <LatitudeDegrees>36.8063880689442157745361328125</LatitudeDegrees>
              <LongitudeDegrees>-4.3791831471025943756103515625</LongitudeDegrees>
            </Position>
            <AltitudeMeters>821.20001220703125</AltitudeMeters>
            <DistanceMeters>1777.639715365</DistanceMeters>
          </Trackpoint>
          <Trackpoint>
            <Time>2020-12-05T08:59:27.000Z</Time>
            <Position>
              <LatitudeDegrees>36.8064058385789394378662109375</LatitudeDegrees>
              <LongitudeDegrees>-4.37917266972362995147705078125</LongitudeDegrees>
            </Position>
            <AltitudeMeters>821</AltitudeMeters>
            <DistanceMeters>1779.8273946183</DistanceMeters>
          </Trackpoint>
          <Trackpoint>
            <Time>2020-12-05T08:59:28.000Z</Time>
            <Position>
              <LatitudeDegrees>36.80642721243202686309814453125</LatitudeDegrees>
              <LongitudeDegrees>-4.37916512601077556610107421875</LongitudeDegrees>
            </Position>
            <AltitudeMeters>821</AltitudeMeters>
            <DistanceMeters>1782.2999159535</DistanceMeters>
          </Trackpoint>
          <Trackpoint>
            <Time>2020-12-05T08:59:29.000Z</Time>
            <Position>
              <LatitudeDegrees>36.80644934065639972686767578125</LatitudeDegrees>
              <LongitudeDegrees>-4.3791647069156169891357421875</LongitudeDegrees>
            </Position>
            <AltitudeMeters>820.79998779296875</AltitudeMeters>
            <DistanceMeters>1784.7632899345</DistanceMeters>
          </Trackpoint>
          <Trackpoint>
            <Time>2020-12-05T08:59:30.000Z</Time>
            <Position>
              <LatitudeDegrees>36.80646367371082305908203125</LatitudeDegrees>
              <LongitudeDegrees>-4.37916629947721958160400390625</LongitudeDegrees>
            </Position>
            <AltitudeMeters>820.5999755859375</AltitudeMeters>
            <DistanceMeters>1786.3647085899</DistanceMeters>
          </Trackpoint>
          <Trackpoint>
            <Time>2020-12-05T08:59:31.000Z</Time>
            <Position>
              <LatitudeDegrees>36.80647633038461208343505859375</LatitudeDegrees>
              <LongitudeDegrees>-4.3791630305349826812744140625</LongitudeDegrees>
            </Position>
            <AltitudeMeters>820.5999755859375</AltitudeMeters>
            <DistanceMeters>1787.8058600678</DistanceMeters>
          </Trackpoint>
          <Trackpoint>
            <Time>2020-12-05T08:59:32.000Z</Time>
            <Position>
              <LatitudeDegrees>36.80648739449679851531982421875</LatitudeDegrees>
              <LongitudeDegrees>-4.37915942631661891937255859375</LongitudeDegrees>
            </Position>
            <AltitudeMeters>820.5999755859375</AltitudeMeters>
            <DistanceMeters>1789.0807772258</DistanceMeters>
          </Trackpoint>
          <Trackpoint>
            <Time>2020-12-05T08:59:33.000Z</Time>
            <Position>
              <LatitudeDegrees>36.8064966984093189239501953125</LatitudeDegrees>
              <LongitudeDegrees>-4.3791580013930797576904296875</LongitudeDegrees>
            </Position>
            <AltitudeMeters>820.5999755859375</AltitudeMeters>
            <DistanceMeters>1790.1260710839</DistanceMeters>
          </Trackpoint>
          <Trackpoint>
            <Time>2020-12-05T08:59:34.000Z</Time>
            <Position>
              <LatitudeDegrees>36.80650533176958560943603515625</LatitudeDegrees>
              <LongitudeDegrees>-4.379156492650508880615234375</LongitudeDegrees>
            </Position>
            <AltitudeMeters>820.5999755859375</AltitudeMeters>
            <DistanceMeters>1791.0951572257</DistanceMeters>
          </Trackpoint>
          <Trackpoint>
            <Time>2020-12-05T08:59:35.000Z</Time>
            <Position>
              <LatitudeDegrees>36.80651203729212284088134765625</LatitudeDegrees>
              <LongitudeDegrees>-4.3791506253182888031005859375</LongitudeDegrees>
            </Position>
            <AltitudeMeters>820.4000244140625</AltitudeMeters>
            <DistanceMeters>1792.0066214503</DistanceMeters>
          </Trackpoint>
          <Trackpoint>
            <Time>2020-12-05T08:59:36.000Z</Time>
            <Position>
              <LatitudeDegrees>36.80652092210948467254638671875</LatitudeDegrees>
              <LongitudeDegrees>-4.37914567999541759490966796875</LongitudeDegrees>
            </Position>
            <AltitudeMeters>820.20001220703125</AltitudeMeters>
            <DistanceMeters>1793.0900926949</DistanceMeters>
          </Trackpoint>
          <Trackpoint>
            <Time>2020-12-05T08:59:37.000Z</Time>
            <Position>
              <LatitudeDegrees>36.80652863346040248870849609375</LatitudeDegrees>
              <LongitudeDegrees>-4.37914333306252956390380859375</LongitudeDegrees>
            </Position>
            <AltitudeMeters>819.79998779296875</AltitudeMeters>
            <DistanceMeters>1793.9713341908</DistanceMeters>
          </Trackpoint>
          <Trackpoint>
            <Time>2020-12-05T08:59:38.000Z</Time>
            <Position>
              <LatitudeDegrees>36.8065396137535572052001953125</LatitudeDegrees>
              <LongitudeDegrees>-4.37913629226386547088623046875</LongitudeDegrees>
            </Position>
            <AltitudeMeters>819.20001220703125</AltitudeMeters>
            <DistanceMeters>1795.3418289556</DistanceMeters>
          </Trackpoint>
          <Trackpoint>
            <Time>2020-12-05T08:59:39.000Z</Time>
            <Position>
              <LatitudeDegrees>36.80654908530414104461669921875</LatitudeDegrees>
              <LongitudeDegrees>-4.37912640161812305450439453125</LongitudeDegrees>
            </Position>
            <AltitudeMeters>818.79998779296875</AltitudeMeters>
            <DistanceMeters>1796.7123237204</DistanceMeters>
          </Trackpoint>
          <Trackpoint>
            <Time>2020-12-05T08:59:40.000Z</Time>
            <Position>
              <LatitudeDegrees>36.80655755102634429931640625</LatitudeDegrees>
              <LongitudeDegrees>-4.3791147507727146148681640625</LongitudeDegrees>
            </Position>
            <AltitudeMeters>818.4000244140625</AltitudeMeters>
            <DistanceMeters>1798.1153763441</DistanceMeters>
          </Trackpoint>
          <Trackpoint>
            <Time>2020-12-05T08:59:41.000Z</Time>
            <Position>
              <LatitudeDegrees>36.8065647594630718231201171875</LatitudeDegrees>
              <LongitudeDegrees>-4.379100166261196136474609375</LongitudeDegrees>
            </Position>
            <AltitudeMeters>818.20001220703125</AltitudeMeters>
            <DistanceMeters>1799.6446865804</DistanceMeters>
          </Trackpoint>
          <Trackpoint>
            <Time>2020-12-05T08:59:42.000Z</Time>
            <Position>
              <LatitudeDegrees>36.80657121352851390838623046875</LatitudeDegrees>
              <LongitudeDegrees>-4.3790842406451702117919921875</LongitudeDegrees>
            </Position>
            <AltitudeMeters>817.79998779296875</AltitudeMeters>
            <DistanceMeters>1801.2347876478</DistanceMeters>
          </Trackpoint>
          <Trackpoint>
            <Time>2020-12-05T08:59:43.000Z</Time>
            <Position>
              <LatitudeDegrees>36.80657775141298770904541015625</LatitudeDegrees>
              <LongitudeDegrees>-4.3790694884955883026123046875</LongitudeDegrees>
            </Position>
            <AltitudeMeters>817.4000244140625</AltitudeMeters>
            <DistanceMeters>1802.7402939372</DistanceMeters>
          </Trackpoint>
          <Trackpoint>
            <Time>2020-12-05T08:59:44.000Z</Time>
            <Position>
              <LatitudeDegrees>36.80658345110714435577392578125</LatitudeDegrees>
              <LongitudeDegrees>-4.37905649654567241668701171875</LongitudeDegrees>
            </Position>
            <AltitudeMeters>817.20001220703125</AltitudeMeters>
            <DistanceMeters>1804.0638629116</DistanceMeters>
          </Trackpoint>
          <Trackpoint>
            <Time>2020-12-05T08:59:45.000Z</Time>
            <Position>
              <LatitudeDegrees>36.80658998899161815643310546875</LatitudeDegrees>
              <LongitudeDegrees>-4.3790423311293125152587890625</LongitudeDegrees>
            </Position>
            <AltitudeMeters>817</AltitudeMeters>
            <DistanceMeters>1805.5174921243</DistanceMeters>
          </Trackpoint>
          <Trackpoint>
            <Time>2020-12-05T08:59:46.000Z</Time>
            <Position>
              <LatitudeDegrees>36.80659417994320392608642578125</LatitudeDegrees>
              <LongitudeDegrees>-4.3790262378752231597900390625</LongitudeDegrees>
            </Position>
            <AltitudeMeters>816.79998779296875</AltitudeMeters>
            <DistanceMeters>1807.025994449</DistanceMeters>
          </Trackpoint>
          <Trackpoint>
            <Time>2020-12-05T08:59:47.000Z</Time>
            <Position>
              <LatitudeDegrees>36.80660046637058258056640625</LatitudeDegrees>
              <LongitudeDegrees>-4.37901777215301990509033203125</LongitudeDegrees>
            </Position>
            <AltitudeMeters>816.4000244140625</AltitudeMeters>
            <DistanceMeters>1808.049463485</DistanceMeters>
          </Trackpoint>
          <Trackpoint>
            <Time>2020-12-05T08:59:48.000Z</Time>
            <Position>
              <LatitudeDegrees>36.8066118657588958740234375</LatitudeDegrees>
              <LongitudeDegrees>-4.37901668250560760498046875</LongitudeDegrees>
            </Position>
            <AltitudeMeters>816.20001220703125</AltitudeMeters>
            <DistanceMeters>1809.324380643</DistanceMeters>
          </Trackpoint>
          <Trackpoint>
            <Time>2020-12-05T08:59:49.000Z</Time>
            <Position>
              <LatitudeDegrees>36.806621253490447998046875</LatitudeDegrees>
              <LongitudeDegrees>-4.37901056371629238128662109375</LongitudeDegrees>
            </Position>
            <AltitudeMeters>816.20001220703125</AltitudeMeters>
            <DistanceMeters>1810.503631156</DistanceMeters>
          </Trackpoint>
          <Trackpoint>
            <Time>2020-12-05T08:59:50.000Z</Time>
            <Position>
              <LatitudeDegrees>36.8066291324794292449951171875</LatitudeDegrees>
              <LongitudeDegrees>-4.379002265632152557373046875</LongitudeDegrees>
            </Position>
            <AltitudeMeters>816</AltitudeMeters>
            <DistanceMeters>1811.6439517285</DistanceMeters>
          </Trackpoint>
          <Trackpoint>
            <Time>2020-12-05T08:59:51.000Z</Time>
            <Position>
              <LatitudeDegrees>36.8066381849348545074462890625</LatitudeDegrees>
              <LongitudeDegrees>-4.37898910604417324066162109375</LongitudeDegrees>
            </Position>
            <AltitudeMeters>816</AltitudeMeters>
            <DistanceMeters>1813.1879530825</DistanceMeters>
          </Trackpoint>
          <Trackpoint>
            <Time>2020-12-05T08:59:52.000Z</Time>
            <Position>
              <LatitudeDegrees>36.8066462315618991851806640625</LatitudeDegrees>
              <LongitudeDegrees>-4.37897552736103534698486328125</LongitudeDegrees>
            </Position>
            <AltitudeMeters>816</AltitudeMeters>
            <DistanceMeters>1814.6904573623</DistanceMeters>
          </Trackpoint>
          <Trackpoint>
            <Time>2020-12-05T08:59:53.000Z</Time>
            <Position>
              <LatitudeDegrees>36.80665142834186553955078125</LatitudeDegrees>
              <LongitudeDegrees>-4.3789682351052761077880859375</LongitudeDegrees>
            </Position>
            <AltitudeMeters>816</AltitudeMeters>
            <DistanceMeters>1815.5613915856</DistanceMeters>
          </Trackpoint>
          <Trackpoint>
            <Time>2020-12-05T08:59:54.000Z</Time>
            <Position>
              <LatitudeDegrees>36.80665318854153156280517578125</LatitudeDegrees>
              <LongitudeDegrees>-4.3789608590304851531982421875</LongitudeDegrees>
            </Position>
            <AltitudeMeters>816</AltitudeMeters>
            <DistanceMeters>1816.246638968</DistanceMeters>
          </Trackpoint>
          <Trackpoint>
            <Time>2020-12-05T08:59:55.000Z</Time>
            <Position>
              <LatitudeDegrees>36.806653775274753570556640625</LatitudeDegrees>
              <LongitudeDegrees>-4.37895608134567737579345703125</LongitudeDegrees>
            </Position>
            <AltitudeMeters>816</AltitudeMeters>
            <DistanceMeters>1816.6821060797</DistanceMeters>
          </Trackpoint>
          <Trackpoint>
            <Time>2020-12-05T08:59:56.000Z</Time>
            <Position>
              <LatitudeDegrees>36.80665402673184871673583984375</LatitudeDegrees>
              <LongitudeDegrees>-4.3789561651647090911865234375</LongitudeDegrees>
            </Position>
            <AltitudeMeters>816</AltitudeMeters>
            <DistanceMeters>1816.6821060797</DistanceMeters>
          </Trackpoint>
          <Trackpoint>
            <Time>2020-12-05T08:59:57.000Z</Time>
            <Position>
              <LatitudeDegrees>36.806653439998626708984375</LatitudeDegrees>
              <LongitudeDegrees>-4.37895608134567737579345703125</LongitudeDegrees>
            </Position>
            <AltitudeMeters>816</AltitudeMeters>
            <DistanceMeters>1816.6821060797</DistanceMeters>
          </Trackpoint>
          <Trackpoint>
            <Time>2020-12-05T08:59:58.000Z</Time>
            <Position>
              <LatitudeDegrees>36.8066549487411975860595703125</LatitudeDegrees>
              <LongitudeDegrees>-4.378955326974391937255859375</LongitudeDegrees>
            </Position>
            <AltitudeMeters>816</AltitudeMeters>
            <DistanceMeters>1816.8721595084</DistanceMeters>
          </Trackpoint>
          <Trackpoint>
            <Time>2020-12-05T08:59:59.000Z</Time>
            <Position>
              <LatitudeDegrees>36.80665285326540470123291015625</LatitudeDegrees>
              <LongitudeDegrees>-4.3789578415453433990478515625</LongitudeDegrees>
            </Position>
            <AltitudeMeters>816</AltitudeMeters>
            <DistanceMeters>1817.2013417031</DistanceMeters>
          </Trackpoint>
          <Trackpoint>
            <Time>2020-12-05T09:00:00.000Z</Time>
            <Position>
              <LatitudeDegrees>36.8066502548754215240478515625</LatitudeDegrees>
              <LongitudeDegrees>-4.378955326974391937255859375</LongitudeDegrees>
            </Position>
            <AltitudeMeters>815.79998779296875</AltitudeMeters>
            <DistanceMeters>1817.5814485606</DistanceMeters>
          </Trackpoint>
          <Trackpoint>
            <Time>2020-12-05T09:00:01.000Z</Time>
            <Position>
              <LatitudeDegrees>36.80665033869445323944091796875</LatitudeDegrees>
              <LongitudeDegrees>-4.37895298004150390625</LongitudeDegrees>
            </Position>
            <AltitudeMeters>815.5999755859375</AltitudeMeters>
            <DistanceMeters>1817.7715019893</DistanceMeters>
          </Trackpoint>
          <Trackpoint>
            <Time>2020-12-05T09:00:02.000Z</Time>
            <Position>
              <LatitudeDegrees>36.8066522665321826934814453125</LatitudeDegrees>
              <LongitudeDegrees>-4.3789454363286495208740234375</LongitudeDegrees>
            </Position>
            <AltitudeMeters>815.5999755859375</AltitudeMeters>
            <DistanceMeters>1818.4826168049</DistanceMeters>
          </Trackpoint>
          <Trackpoint>
            <Time>2020-12-05T09:00:03.000Z</Time>
            <Position>
              <LatitudeDegrees>36.80665536783635616302490234375</LatitudeDegrees>
              <LongitudeDegrees>-4.37893797643482685089111328125</LongitudeDegrees>
            </Position>
            <AltitudeMeters>815.4000244140625</AltitudeMeters>
            <DistanceMeters>1819.2308579021</DistanceMeters>
          </Trackpoint>
          <Trackpoint>
            <Time>2020-12-05T09:00:04.000Z</Time>
            <Position>
              <LatitudeDegrees>36.8066574633121490478515625</LatitudeDegrees>
              <LongitudeDegrees>-4.3789333663880825042724609375</LongitudeDegrees>
            </Position>
            <AltitudeMeters>815.20001220703125</AltitudeMeters>
            <DistanceMeters>1819.7154009729</DistanceMeters>
          </Trackpoint>
          <Trackpoint>
            <Time>2020-12-05T09:00:05.000Z</Time>
            <Position>
              <LatitudeDegrees>36.806657798588275909423828125</LatitudeDegrees>
              <LongitudeDegrees>-4.37893244437873363494873046875</LongitudeDegrees>
            </Position>
            <AltitudeMeters>815.20001220703125</AltitudeMeters>
            <DistanceMeters>1819.8497890412</DistanceMeters>
          </Trackpoint>
          <Trackpoint>
            <Time>2020-12-05T09:00:06.000Z</Time>
            <Position>
              <LatitudeDegrees>36.80665704421699047088623046875</LatitudeDegrees>
              <LongitudeDegrees>-4.37893219292163848876953125</LongitudeDegrees>
            </Position>
            <AltitudeMeters>815</AltitudeMeters>
            <DistanceMeters>1819.8497890412</DistanceMeters>
          </Trackpoint>
          <Trackpoint>
            <Time>2020-12-05T09:00:07.000Z</Time>
            <Position>
              <LatitudeDegrees>36.806657128036022186279296875</LatitudeDegrees>
              <LongitudeDegrees>-4.378931857645511627197265625</LongitudeDegrees>
            </Position>
            <AltitudeMeters>815</AltitudeMeters>
            <DistanceMeters>1819.8497890412</DistanceMeters>
          </Trackpoint>
          <Trackpoint>
            <Time>2020-12-05T09:00:08.000Z</Time>
            <Position>
              <LatitudeDegrees>36.80665737949311733245849609375</LatitudeDegrees>
              <LongitudeDegrees>-4.37893026508390903472900390625</LongitudeDegrees>
            </Position>
            <AltitudeMeters>815</AltitudeMeters>
            <DistanceMeters>1819.9841771094</DistanceMeters>
          </Trackpoint>
          <Trackpoint>
            <Time>2020-12-05T09:00:09.000Z</Time>
            <Position>
              <LatitudeDegrees>36.806655786931514739990234375</LatitudeDegrees>
              <LongitudeDegrees>-4.3789316900074481964111328125</LongitudeDegrees>
            </Position>
            <AltitudeMeters>815.20001220703125</AltitudeMeters>
            <DistanceMeters>1820.2169440716</DistanceMeters>
          </Trackpoint>
          <Trackpoint>
            <Time>2020-12-05T09:00:10.000Z</Time>
            <Position>
              <LatitudeDegrees>36.80665075778961181640625</LatitudeDegrees>
              <LongitudeDegrees>-4.37892976216971874237060546875</LongitudeDegrees>
            </Position>
            <AltitudeMeters>815.4000244140625</AltitudeMeters>
            <DistanceMeters>1820.8103857126</DistanceMeters>
          </Trackpoint>
          <Trackpoint>
            <Time>2020-12-05T09:00:11.000Z</Time>
            <Position>
              <LatitudeDegrees>36.806648410856723785400390625</LatitudeDegrees>
              <LongitudeDegrees>-4.3789290077984333038330078125</LongitudeDegrees>
            </Position>
            <AltitudeMeters>815.5999755859375</AltitudeMeters>
            <DistanceMeters>1821.1108865686</DistanceMeters>
          </Trackpoint>
          <Trackpoint>
            <Time>2020-12-05T09:00:12.000Z</Time>
            <Position>
              <LatitudeDegrees>36.806645058095455169677734375</LatitudeDegrees>
              <LongitudeDegrees>-4.3789256550371646881103515625</LongitudeDegrees>
            </Position>
            <AltitudeMeters>815.79998779296875</AltitudeMeters>
            <DistanceMeters>1821.5860201404</DistanceMeters>
          </Trackpoint>
          <Trackpoint>
            <Time>2020-12-05T09:00:13.000Z</Time>
            <Position>
              <LatitudeDegrees>36.80664497427642345428466796875</LatitudeDegrees>
              <LongitudeDegrees>-4.3789256550371646881103515625</LongitudeDegrees>
            </Position>
            <AltitudeMeters>815.79998779296875</AltitudeMeters>
            <DistanceMeters>NAN</DistanceMeters>
          </Trackpoint>
          <Trackpoint>
            <Time>2020-12-05T09:00:14.000Z</Time>
            <Position>
              <LatitudeDegrees>36.80664698593318462371826171875</LatitudeDegrees>
              <LongitudeDegrees>-4.37892707996070384979248046875</LongitudeDegrees>
            </Position>
            <AltitudeMeters>816</AltitudeMeters>
            <DistanceMeters>NAN</DistanceMeters>
          </Trackpoint>
          <Trackpoint>
            <Time>2020-12-05T09:00:15.000Z</Time>
            <Position>
              <LatitudeDegrees>36.80664916522800922393798828125</LatitudeDegrees>
              <LongitudeDegrees>-4.37892791815102100372314453125</LongitudeDegrees>
            </Position>
            <AltitudeMeters>816</AltitudeMeters>
            <DistanceMeters>NAN</DistanceMeters>
          </Trackpoint>
          <Trackpoint>
            <Time>2020-12-05T09:00:16.000Z</Time>
            <Position>
              <LatitudeDegrees>36.80664832703769207000732421875</LatitudeDegrees>
              <LongitudeDegrees>-4.37893244437873363494873046875</LongitudeDegrees>
            </Position>
            <AltitudeMeters>816</AltitudeMeters>
            <DistanceMeters>NAN</DistanceMeters>
          </Trackpoint>
          <Trackpoint>
            <Time>2020-12-05T09:00:17.000Z</Time>
            <Position>
              <LatitudeDegrees>36.8066475726664066314697265625</LatitudeDegrees>
              <LongitudeDegrees>-4.37894099391996860504150390625</LongitudeDegrees>
            </Position>
            <AltitudeMeters>816</AltitudeMeters>
            <DistanceMeters>NAN</DistanceMeters>
          </Trackpoint>
          <Trackpoint>
            <Time>2020-12-05T09:00:18.000Z</Time>
            <Position>
              <LatitudeDegrees>36.80664715357124805450439453125</LatitudeDegrees>
              <LongitudeDegrees>-4.378943257033824920654296875</LongitudeDegrees>
            </Position>
            <AltitudeMeters>816</AltitudeMeters>
            <DistanceMeters>NAN</DistanceMeters>
          </Trackpoint>
          <Trackpoint>
            <Time>2020-12-05T09:00:19.000Z</Time>
            <Position>
              <LatitudeDegrees>36.8066467344760894775390625</LatitudeDegrees>
              <LongitudeDegrees>-4.37894116155803203582763671875</LongitudeDegrees>
            </Position>
            <AltitudeMeters>816.20001220703125</AltitudeMeters>
            <DistanceMeters>NAN</DistanceMeters>
          </Trackpoint>
          <Trackpoint>
            <Time>2020-12-05T09:00:20.000Z</Time>
            <Position>
              <LatitudeDegrees>36.806648075580596923828125</LatitudeDegrees>
              <LongitudeDegrees>-4.37893914990127086639404296875</LongitudeDegrees>
            </Position>
            <AltitudeMeters>816.4000244140625</AltitudeMeters>
            <DistanceMeters>NAN</DistanceMeters>
          </Trackpoint>
          <Trackpoint>
            <Time>2020-12-05T09:00:21.000Z</Time>
            <Position>
              <LatitudeDegrees>36.80664966814219951629638671875</LatitudeDegrees>
              <LongitudeDegrees>-4.37894015572965145111083984375</LongitudeDegrees>
            </Position>
            <AltitudeMeters>816.5999755859375</AltitudeMeters>
            <DistanceMeters>NAN</DistanceMeters>
          </Trackpoint>
          <Trackpoint>
            <Time>2020-12-05T09:00:22.000Z</Time>
            <Position>
              <LatitudeDegrees>36.806651093065738677978515625</LatitudeDegrees>
              <LongitudeDegrees>-4.3789409101009368896484375</LongitudeDegrees>
            </Position>
            <AltitudeMeters>816.5999755859375</AltitudeMeters>
            <DistanceMeters>NAN</DistanceMeters>
          </Trackpoint>
          <Trackpoint>
            <Time>2020-12-05T09:00:23.000Z</Time>
            <Position>
              <LatitudeDegrees>36.8066505901515483856201171875</LatitudeDegrees>
              <LongitudeDegrees>-4.37894417904317378997802734375</LongitudeDegrees>
            </Position>
            <AltitudeMeters>816.79998779296875</AltitudeMeters>
            <DistanceMeters>NAN</DistanceMeters>
          </Trackpoint>
          <Trackpoint>
            <Time>2020-12-05T09:00:24.000Z</Time>
            <Position>
              <LatitudeDegrees>36.8066509254276752471923828125</LatitudeDegrees>
              <LongitudeDegrees>-4.37894954346120357513427734375</LongitudeDegrees>
            </Position>
            <AltitudeMeters>817</AltitudeMeters>
            <DistanceMeters>NAN</DistanceMeters>
          </Trackpoint>
          <Trackpoint>
            <Time>2020-12-05T09:00:25.000Z</Time>
            <Position>
              <LatitudeDegrees>36.806651763617992401123046875</LatitudeDegrees>
              <LongitudeDegrees>-4.3789578415453433990478515625</LongitudeDegrees>
            </Position>
            <AltitudeMeters>817</AltitudeMeters>
            <DistanceMeters>NAN</DistanceMeters>
          </Trackpoint>
          <Trackpoint>
            <Time>2020-12-05T09:00:26.000Z</Time>
            <Position>
              <LatitudeDegrees>36.806654445827007293701171875</LatitudeDegrees>
              <LongitudeDegrees>-4.3789611943066120147705078125</LongitudeDegrees>
            </Position>
            <AltitudeMeters>817</AltitudeMeters>
            <DistanceMeters>NAN</DistanceMeters>
          </Trackpoint>
          <Trackpoint>
            <Time>2020-12-05T09:00:27.000Z</Time>
            <Position>
              <LatitudeDegrees>36.80665587075054645538330078125</LatitudeDegrees>
              <LongitudeDegrees>-4.378965385258197784423828125</LongitudeDegrees>
            </Position>
            <AltitudeMeters>817.20001220703125</AltitudeMeters>
            <DistanceMeters>NAN</DistanceMeters>
          </Trackpoint>
          <Trackpoint>
            <Time>2020-12-05T09:00:28.000Z</Time>
            <Position>
              <LatitudeDegrees>36.80665654130280017852783203125</LatitudeDegrees>
              <LongitudeDegrees>-4.3789730966091156005859375</LongitudeDegrees>
            </Position>
            <AltitudeMeters>817.4000244140625</AltitudeMeters>
            <DistanceMeters>NAN</DistanceMeters>
          </Trackpoint>
          <Trackpoint>
            <Time>2020-12-05T09:00:29.000Z</Time>
            <Position>
              <LatitudeDegrees>36.80665687657892704010009765625</LatitudeDegrees>
              <LongitudeDegrees>-4.37898307107388973236083984375</LongitudeDegrees>
            </Position>
            <AltitudeMeters>817.4000244140625</AltitudeMeters>
            <DistanceMeters>NAN</DistanceMeters>
          </Trackpoint>
          <Trackpoint>
            <Time>2020-12-05T09:00:30.000Z</Time>
            <Position>
              <LatitudeDegrees>36.8066566251218318939208984375</LatitudeDegrees>
              <LongitudeDegrees>-4.37898692674934864044189453125</LongitudeDegrees>
            </Position>
            <AltitudeMeters>817.4000244140625</AltitudeMeters>
            <DistanceMeters>NAN</DistanceMeters>
          </Trackpoint>
          <Trackpoint>
            <Time>2020-12-05T09:00:31.000Z</Time>
            <Position>
              <LatitudeDegrees>36.8066556192934513092041015625</LatitudeDegrees>
              <LongitudeDegrees>-4.37899128533899784088134765625</LongitudeDegrees>
            </Position>
            <AltitudeMeters>817.4000244140625</AltitudeMeters>
            <DistanceMeters>NAN</DistanceMeters>
          </Trackpoint>
          <Trackpoint>
            <Time>2020-12-05T09:00:32.000Z</Time>
            <Position>
              <LatitudeDegrees>36.806653104722499847412109375</LatitudeDegrees>
              <LongitudeDegrees>-4.3789920397102832794189453125</LongitudeDegrees>
            </Position>
            <AltitudeMeters>817.4000244140625</AltitudeMeters>
            <DistanceMeters>NAN</DistanceMeters>
          </Trackpoint>
          <Trackpoint>
            <Time>2020-12-05T09:00:33.000Z</Time>
            <Position>
              <LatitudeDegrees>36.80665117688477039337158203125</LatitudeDegrees>
              <LongitudeDegrees>-4.3789917044341564178466796875</LongitudeDegrees>
            </Position>
            <AltitudeMeters>817.5999755859375</AltitudeMeters>
            <DistanceMeters>NAN</DistanceMeters>
          </Trackpoint>
          <Trackpoint>
            <Time>2020-12-05T09:00:34.000Z</Time>
            <Position>
              <LatitudeDegrees>36.80665142834186553955078125</LatitudeDegrees>
              <LongitudeDegrees>-4.3789865076541900634765625</LongitudeDegrees>
            </Position>
            <AltitudeMeters>817.5999755859375</AltitudeMeters>
            <DistanceMeters>NAN</DistanceMeters>
          </Trackpoint>
          <Trackpoint>
            <Time>2020-12-05T09:00:35.000Z</Time>
            <Position>
              <LatitudeDegrees>36.80665134452283382415771484375</LatitudeDegrees>
              <LongitudeDegrees>-4.37898240052163600921630859375</LongitudeDegrees>
            </Position>
            <AltitudeMeters>817.79998779296875</AltitudeMeters>
            <DistanceMeters>NAN</DistanceMeters>
          </Trackpoint>
          <Trackpoint>
            <Time>2020-12-05T09:00:36.000Z</Time>
            <Position>
              <LatitudeDegrees>36.80665276944637298583984375</LatitudeDegrees>
              <LongitudeDegrees>-4.37897603027522563934326171875</LongitudeDegrees>
            </Position>
            <AltitudeMeters>818.20001220703125</AltitudeMeters>
            <DistanceMeters>NAN</DistanceMeters>
          </Trackpoint>
          <Trackpoint>
            <Time>2020-12-05T09:00:37.000Z</Time>
            <Position>
              <LatitudeDegrees>36.8066547811031341552734375</LatitudeDegrees>
              <LongitudeDegrees>-4.378968738019466400146484375</LongitudeDegrees>
            </Position>
            <AltitudeMeters>818.20001220703125</AltitudeMeters>
            <DistanceMeters>NAN</DistanceMeters>
          </Trackpoint>
          <Trackpoint>
            <Time>2020-12-05T09:00:38.000Z</Time>
            <Position>
              <LatitudeDegrees>36.806657128036022186279296875</LatitudeDegrees>
              <LongitudeDegrees>-4.37896035611629486083984375</LongitudeDegrees>
            </Position>
            <AltitudeMeters>818.4000244140625</AltitudeMeters>
            <DistanceMeters>NAN</DistanceMeters>
          </Trackpoint>
          <Trackpoint>
            <Time>2020-12-05T09:00:39.000Z</Time>
            <Position>
              <LatitudeDegrees>36.806659139692783355712890625</LatitudeDegrees>
              <LongitudeDegrees>-4.37895298004150390625</LongitudeDegrees>
            </Position>
            <AltitudeMeters>818.4000244140625</AltitudeMeters>
            <DistanceMeters>NAN</DistanceMeters>
          </Trackpoint>
          <Trackpoint>
            <Time>2020-12-05T09:00:40.000Z</Time>
            <Position>
              <LatitudeDegrees>36.80666483938694000244140625</LatitudeDegrees>
              <LongitudeDegrees>-4.37894350849092006683349609375</LongitudeDegrees>
            </Position>
            <AltitudeMeters>818.4000244140625</AltitudeMeters>
            <DistanceMeters>NAN</DistanceMeters>
          </Trackpoint>
          <Trackpoint>
            <Time>2020-12-05T09:00:41.000Z</Time>
            <Position>
              <LatitudeDegrees>36.8066697008907794952392578125</LatitudeDegrees>
              <LongitudeDegrees>-4.37893688678741455078125</LongitudeDegrees>
            </Position>
            <AltitudeMeters>818.4000244140625</AltitudeMeters>
            <DistanceMeters>NAN</DistanceMeters>
          </Trackpoint>
          <Trackpoint>
            <Time>2020-12-05T09:00:42.000Z</Time>
            <Position>
              <LatitudeDegrees>36.8066767416894435882568359375</LatitudeDegrees>
              <LongitudeDegrees>-4.3789274990558624267578125</LongitudeDegrees>
            </Position>
            <AltitudeMeters>818.20001220703125</AltitudeMeters>
            <DistanceMeters>NAN</DistanceMeters>
          </Trackpoint>
          <Trackpoint>
            <Time>2020-12-05T09:00:43.000Z</Time>
            <Position>
              <LatitudeDegrees>36.80668738670647144317626953125</LatitudeDegrees>
              <LongitudeDegrees>-4.37891148962080478668212890625</LongitudeDegrees>
            </Position>
            <AltitudeMeters>818</AltitudeMeters>
            <DistanceMeters>NAN</DistanceMeters>
          </Trackpoint>
          <Trackpoint>
            <Time>2020-12-05T09:00:44.000Z</Time>
            <Position>
              <LatitudeDegrees>36.8066981993615627288818359375</LatitudeDegrees>
              <LongitudeDegrees>-4.37889522872865200042724609375</LongitudeDegrees>
            </Position>
            <AltitudeMeters>817.79998779296875</AltitudeMeters>
            <DistanceMeters>NAN</DistanceMeters>
          </Trackpoint>
          <Trackpoint>
            <Time>2020-12-05T09:00:45.000Z</Time>
            <Position>
              <LatitudeDegrees>36.80671102367341518402099609375</LatitudeDegrees>
              <LongitudeDegrees>-4.3788820691406726837158203125</LongitudeDegrees>
            </Position>
            <AltitudeMeters>817.5999755859375</AltitudeMeters>
            <DistanceMeters>NAN</DistanceMeters>
          </Trackpoint>
          <Trackpoint>
            <Time>2020-12-05T09:00:46.000Z</Time>
            <Position>
              <LatitudeDegrees>36.8067230097949504852294921875</LatitudeDegrees>
              <LongitudeDegrees>-4.3788713403046131134033203125</LongitudeDegrees>
            </Position>
            <AltitudeMeters>817.5999755859375</AltitudeMeters>
            <DistanceMeters>NAN</DistanceMeters>
          </Trackpoint>
          <Trackpoint>
            <Time>2020-12-05T09:00:47.000Z</Time>
            <Position>
              <LatitudeDegrees>36.8067401088774204254150390625</LatitudeDegrees>
              <LongitudeDegrees>-4.37886639498174190521240234375</LongitudeDegrees>
            </Position>
            <AltitudeMeters>817.4000244140625</AltitudeMeters>
            <DistanceMeters>NAN</DistanceMeters>
          </Trackpoint>
          <Trackpoint>
            <Time>2020-12-05T09:00:48.000Z</Time>
            <Position>
              <LatitudeDegrees>36.80675393901765346527099609375</LatitudeDegrees>
              <LongitudeDegrees>-4.378857426345348358154296875</LongitudeDegrees>
            </Position>
            <AltitudeMeters>817.5999755859375</AltitudeMeters>
            <DistanceMeters>NAN</DistanceMeters>
          </Trackpoint>
          <Trackpoint>
            <Time>2020-12-05T09:00:49.000Z</Time>
            <Position>
              <LatitudeDegrees>36.80676299147307872772216796875</LatitudeDegrees>
              <LongitudeDegrees>-4.3788435123860836029052734375</LongitudeDegrees>
            </Position>
            <AltitudeMeters>817.79998779296875</AltitudeMeters>
            <DistanceMeters>NAN</DistanceMeters>
          </Trackpoint>
          <Trackpoint>
            <Time>2020-12-05T09:00:50.000Z</Time>
            <Position>
              <LatitudeDegrees>36.80676600895822048187255859375</LatitudeDegrees>
              <LongitudeDegrees>-4.37882951460778713226318359375</LongitudeDegrees>
            </Position>
            <AltitudeMeters>817.5999755859375</AltitudeMeters>
            <DistanceMeters>NAN</DistanceMeters>
          </Trackpoint>
          <Trackpoint>
            <Time>2020-12-05T09:00:51.000Z</Time>
            <Position>
              <LatitudeDegrees>36.806767769157886505126953125</LatitudeDegrees>
              <LongitudeDegrees>-4.3788166902959346771240234375</LongitudeDegrees>
            </Position>
            <AltitudeMeters>817.79998779296875</AltitudeMeters>
            <DistanceMeters>NAN</DistanceMeters>
          </Trackpoint>
          <Trackpoint>
            <Time>2020-12-05T09:00:52.000Z</Time>
            <Position>
              <LatitudeDegrees>36.80676810443401336669921875</LatitudeDegrees>
              <LongitudeDegrees>-4.37880520708858966827392578125</LongitudeDegrees>
            </Position>
            <AltitudeMeters>817.79998779296875</AltitudeMeters>
            <DistanceMeters>NAN</DistanceMeters>
          </Trackpoint>
          <Trackpoint>
            <Time>2020-12-05T09:00:53.000Z</Time>
            <Position>
              <LatitudeDegrees>36.80676751770079135894775390625</LatitudeDegrees>
              <LongitudeDegrees>-4.378796406090259552001953125</LongitudeDegrees>
            </Position>
            <AltitudeMeters>817.5999755859375</AltitudeMeters>
            <DistanceMeters>NAN</DistanceMeters>
          </Trackpoint>
          <Trackpoint>
            <Time>2020-12-05T09:00:54.000Z</Time>
            <Position>
              <LatitudeDegrees>36.80676986463367938995361328125</LatitudeDegrees>
              <LongitudeDegrees>-4.3787848390638828277587890625</LongitudeDegrees>
            </Position>
            <AltitudeMeters>817.5999755859375</AltitudeMeters>
            <DistanceMeters>NAN</DistanceMeters>
          </Trackpoint>
          <Trackpoint>
            <Time>2020-12-05T09:00:55.000Z</Time>
            <Position>
              <LatitudeDegrees>36.80677422322332859039306640625</LatitudeDegrees>
              <LongitudeDegrees>-4.378774277865886688232421875</LongitudeDegrees>
            </Position>
            <AltitudeMeters>817.5999755859375</AltitudeMeters>
            <DistanceMeters>NAN</DistanceMeters>
          </Trackpoint>
          <Trackpoint>
            <Time>2020-12-05T09:00:56.000Z</Time>
            <Position>
              <LatitudeDegrees>36.806780509650707244873046875</LatitudeDegrees>
              <LongitudeDegrees>-4.378763549029827117919921875</LongitudeDegrees>
            </Position>
            <AltitudeMeters>817.4000244140625</AltitudeMeters>
            <DistanceMeters>NAN</DistanceMeters>
          </Trackpoint>
          <Trackpoint>
            <Time>2020-12-05T09:00:57.000Z</Time>
            <Position>
              <LatitudeDegrees>36.80678495205938816070556640625</LatitudeDegrees>
              <LongitudeDegrees>-4.378754831850528717041015625</LongitudeDegrees>
            </Position>
            <AltitudeMeters>817.4000244140625</AltitudeMeters>
            <DistanceMeters>NAN</DistanceMeters>
          </Trackpoint>
          <Trackpoint>
            <Time>2020-12-05T09:00:58.000Z</Time>
            <Position>
              <LatitudeDegrees>36.806787550449371337890625</LatitudeDegrees>
              <LongitudeDegrees>-4.3787469528615474700927734375</LongitudeDegrees>
            </Position>
            <AltitudeMeters>817.20001220703125</AltitudeMeters>
            <DistanceMeters>NAN</DistanceMeters>
          </Trackpoint>
          <Trackpoint>
            <Time>2020-12-05T09:00:59.000Z</Time>
            <Position>
              <LatitudeDegrees>36.80678847245872020721435546875</LatitudeDegrees>
              <LongitudeDegrees>-4.37873999588191509246826171875</LongitudeDegrees>
            </Position>
            <AltitudeMeters>817.20001220703125</AltitudeMeters>
            <DistanceMeters>NAN</DistanceMeters>
          </Trackpoint>
          <Trackpoint>
            <Time>2020-12-05T09:01:00.000Z</Time>
            <Position>
              <LatitudeDegrees>36.80679065175354480743408203125</LatitudeDegrees>
              <LongitudeDegrees>-4.378734715282917022705078125</LongitudeDegrees>
            </Position>
            <AltitudeMeters>817.20001220703125</AltitudeMeters>
            <DistanceMeters>NAN</DistanceMeters>
          </Trackpoint>
          <Trackpoint>
            <Time>2020-12-05T09:01:01.000Z</Time>
            <Position>
              <LatitudeDegrees>36.8067934177815914154052734375</LatitudeDegrees>
              <LongitudeDegrees>-4.3787265010178089141845703125</LongitudeDegrees>
            </Position>
            <AltitudeMeters>817.20001220703125</AltitudeMeters>
            <DistanceMeters>NAN</DistanceMeters>
          </Trackpoint>
          <Trackpoint>
            <Time>2020-12-05T09:01:02.000Z</Time>
            <Position>
              <LatitudeDegrees>36.8067977763712406158447265625</LatitudeDegrees>
              <LongitudeDegrees>-4.3787208013236522674560546875</LongitudeDegrees>
            </Position>
            <AltitudeMeters>817</AltitudeMeters>
            <DistanceMeters>NAN</DistanceMeters>
          </Trackpoint>
          <Trackpoint>
            <Time>2020-12-05T09:01:03.000Z</Time>
            <Position>
              <LatitudeDegrees>36.80680355988442897796630859375</LatitudeDegrees>
              <LongitudeDegrees>-4.378714263439178466796875</LongitudeDegrees>
            </Position>
            <AltitudeMeters>817.20001220703125</AltitudeMeters>
            <DistanceMeters>NAN</DistanceMeters>
          </Trackpoint>
          <Trackpoint>
            <Time>2020-12-05T09:01:04.000Z</Time>
            <Position>
              <LatitudeDegrees>36.806811355054378509521484375</LatitudeDegrees>
              <LongitudeDegrees>-4.37870948575437068939208984375</LongitudeDegrees>
            </Position>
            <AltitudeMeters>817</AltitudeMeters>
            <DistanceMeters>NAN</DistanceMeters>
          </Trackpoint>
          <Trackpoint>
            <Time>2020-12-05T09:01:05.000Z</Time>
            <Position>
              <LatitudeDegrees>36.806818731129169464111328125</LatitudeDegrees>
              <LongitudeDegrees>-4.37870286405086517333984375</LongitudeDegrees>
            </Position>
            <AltitudeMeters>817</AltitudeMeters>
            <DistanceMeters>NAN</DistanceMeters>
          </Trackpoint>
          <Trackpoint>
            <Time>2020-12-05T09:01:06.000Z</Time>
            <Position>
              <LatitudeDegrees>36.8068272806704044342041015625</LatitudeDegrees>
              <LongitudeDegrees>-4.37869758345186710357666015625</LongitudeDegrees>
            </Position>
            <AltitudeMeters>817</AltitudeMeters>
            <DistanceMeters>NAN</DistanceMeters>
          </Trackpoint>
          <Trackpoint>
            <Time>2020-12-05T09:01:07.000Z</Time>
            <Position>
              <LatitudeDegrees>36.80683792568743228912353515625</LatitudeDegrees>
              <LongitudeDegrees>-4.37869205139577388763427734375</LongitudeDegrees>
            </Position>
            <AltitudeMeters>817.20001220703125</AltitudeMeters>
            <DistanceMeters>NAN</DistanceMeters>
          </Trackpoint>
          <Trackpoint>
            <Time>2020-12-05T09:01:08.000Z</Time>
            <Position>
              <LatitudeDegrees>36.8068479001522064208984375</LatitudeDegrees>
              <LongitudeDegrees>-4.37868702225387096405029296875</LongitudeDegrees>
            </Position>
            <AltitudeMeters>817.20001220703125</AltitudeMeters>
            <DistanceMeters>NAN</DistanceMeters>
          </Trackpoint>
          <Trackpoint>
            <Time>2020-12-05T09:01:09.000Z</Time>
            <Position>
              <LatitudeDegrees>36.806859634816646575927734375</LatitudeDegrees>
              <LongitudeDegrees>-4.378683753311634063720703125</LongitudeDegrees>
            </Position>
            <AltitudeMeters>817.4000244140625</AltitudeMeters>
            <DistanceMeters>NAN</DistanceMeters>
          </Trackpoint>
          <Trackpoint>
            <Time>2020-12-05T09:01:10.000Z</Time>
            <Position>
              <LatitudeDegrees>36.80687095038592815399169921875</LatitudeDegrees>
              <LongitudeDegrees>-4.3786825798451900482177734375</LongitudeDegrees>
            </Position>
            <AltitudeMeters>817.4000244140625</AltitudeMeters>
            <DistanceMeters>NAN</DistanceMeters>
          </Trackpoint>
          <Trackpoint>
            <Time>2020-12-05T09:01:11.000Z</Time>
            <Position>
              <LatitudeDegrees>36.80688302032649517059326171875</LatitudeDegrees>
              <LongitudeDegrees>-4.3786822445690631866455078125</LongitudeDegrees>
            </Position>
            <AltitudeMeters>817.4000244140625</AltitudeMeters>
            <DistanceMeters>NAN</DistanceMeters>
          </Trackpoint>
          <Trackpoint>
            <Time>2020-12-05T09:01:12.000Z</Time>
            <Position>
              <LatitudeDegrees>36.80689685046672821044921875</LatitudeDegrees>
              <LongitudeDegrees>-4.37868333421647548675537109375</LongitudeDegrees>
            </Position>
            <AltitudeMeters>817.4000244140625</AltitudeMeters>
            <DistanceMeters>NAN</DistanceMeters>
          </Trackpoint>
          <Trackpoint>
            <Time>2020-12-05T09:01:13.000Z</Time>
            <Position>
              <LatitudeDegrees>36.80690824985504150390625</LatitudeDegrees>
              <LongitudeDegrees>-4.3786809034645557403564453125</LongitudeDegrees>
            </Position>
            <AltitudeMeters>817.20001220703125</AltitudeMeters>
            <DistanceMeters>NAN</DistanceMeters>
          </Trackpoint>
          <Trackpoint>
            <Time>2020-12-05T09:01:14.000Z</Time>
            <Position>
              <LatitudeDegrees>36.806918643414974212646484375</LatitudeDegrees>
              <LongitudeDegrees>-4.37867939472198486328125</LongitudeDegrees>
            </Position>
            <AltitudeMeters>817</AltitudeMeters>
            <DistanceMeters>NAN</DistanceMeters>
          </Trackpoint>
          <Trackpoint>
            <Time>2020-12-05T09:01:15.000Z</Time>
            <Position>
              <LatitudeDegrees>36.8069298751652240753173828125</LatitudeDegrees>
              <LongitudeDegrees>-4.37867897562682628631591796875</LongitudeDegrees>
            </Position>
            <AltitudeMeters>816.79998779296875</AltitudeMeters>
            <DistanceMeters>NAN</DistanceMeters>
          </Trackpoint>
          <Trackpoint>
            <Time>2020-12-05T09:01:16.000Z</Time>
            <Position>
              <LatitudeDegrees>36.80694236420094966888427734375</LatitudeDegrees>
              <LongitudeDegrees>-4.378679059445858001708984375</LongitudeDegrees>
            </Position>
            <AltitudeMeters>816.5999755859375</AltitudeMeters>
            <DistanceMeters>NAN</DistanceMeters>
          </Trackpoint>
          <Trackpoint>
            <Time>2020-12-05T09:01:17.000Z</Time>
            <Position>
              <LatitudeDegrees>36.80695661343634128570556640625</LatitudeDegrees>
              <LongitudeDegrees>-4.37867998145520687103271484375</LongitudeDegrees>
            </Position>
            <AltitudeMeters>816.5999755859375</AltitudeMeters>
            <DistanceMeters>NAN</DistanceMeters>
          </Trackpoint>
          <Trackpoint>
            <Time>2020-12-05T09:01:18.000Z</Time>
            <Position>
              <LatitudeDegrees>36.80696415714919567108154296875</LatitudeDegrees>
              <LongitudeDegrees>-4.3786812387406826019287109375</LongitudeDegrees>
            </Position>
            <AltitudeMeters>816.5999755859375</AltitudeMeters>
            <DistanceMeters>NAN</DistanceMeters>
          </Trackpoint>
          <Trackpoint>
            <Time>2020-12-05T09:01:19.000Z</Time>
            <Position>
              <LatitudeDegrees>36.8069632351398468017578125</LatitudeDegrees>
              <LongitudeDegrees>-4.37868149019777774810791015625</LongitudeDegrees>
            </Position>
            <AltitudeMeters>816.5999755859375</AltitudeMeters>
            <DistanceMeters>NAN</DistanceMeters>
          </Trackpoint>
          <Trackpoint>
            <Time>2020-12-05T09:01:20.000Z</Time>
            <Position>
              <LatitudeDegrees>36.80696683935821056365966796875</LatitudeDegrees>
              <LongitudeDegrees>-4.3786815740168094635009765625</LongitudeDegrees>
            </Position>
            <AltitudeMeters>816.5999755859375</AltitudeMeters>
            <DistanceMeters>NAN</DistanceMeters>
          </Trackpoint>
          <Trackpoint>
            <Time>2020-12-05T09:01:21.000Z</Time>
            <Position>
              <LatitudeDegrees>36.80696918629109859466552734375</LatitudeDegrees>
              <LongitudeDegrees>-4.378681741654872894287109375</LongitudeDegrees>
            </Position>
            <AltitudeMeters>816.5999755859375</AltitudeMeters>
            <DistanceMeters>NAN</DistanceMeters>
          </Trackpoint>
          <Trackpoint>
            <Time>2020-12-05T09:01:22.000Z</Time>
            <Position>
              <LatitudeDegrees>36.80696901865303516387939453125</LatitudeDegrees>
              <LongitudeDegrees>-4.3786861002445220947265625</LongitudeDegrees>
            </Position>
            <AltitudeMeters>816.79998779296875</AltitudeMeters>
            <DistanceMeters>NAN</DistanceMeters>
          </Trackpoint>
          <Trackpoint>
            <Time>2020-12-05T09:01:23.000Z</Time>
            <Position>
              <LatitudeDegrees>36.80697119794785976409912109375</LatitudeDegrees>
              <LongitudeDegrees>-4.37868366949260234832763671875</LongitudeDegrees>
            </Position>
            <AltitudeMeters>816.79998779296875</AltitudeMeters>
            <DistanceMeters>NAN</DistanceMeters>
          </Trackpoint>
          <Trackpoint>
            <Time>2020-12-05T09:01:24.000Z</Time>
            <Position>
              <LatitudeDegrees>36.8069778196513652801513671875</LatitudeDegrees>
              <LongitudeDegrees>-4.378680400550365447998046875</LongitudeDegrees>
            </Position>
            <AltitudeMeters>816.79998779296875</AltitudeMeters>
            <DistanceMeters>NAN</DistanceMeters>
          </Trackpoint>
          <Trackpoint>
            <Time>2020-12-05T09:01:25.000Z</Time>
            <Position>
              <LatitudeDegrees>36.80699114687740802764892578125</LatitudeDegrees>
              <LongitudeDegrees>-4.3786780536174774169921875</LongitudeDegrees>
            </Position>
            <AltitudeMeters>816.5999755859375</AltitudeMeters>
            <DistanceMeters>NAN</DistanceMeters>
          </Trackpoint>
          <Trackpoint>
            <Time>2020-12-05T09:01:26.000Z</Time>
            <Position>
              <LatitudeDegrees>36.80700841359794139862060546875</LatitudeDegrees>
              <LongitudeDegrees>-4.378681071102619171142578125</LongitudeDegrees>
            </Position>
            <AltitudeMeters>816.4000244140625</AltitudeMeters>
            <DistanceMeters>NAN</DistanceMeters>
          </Trackpoint>
          <Trackpoint>
            <Time>2020-12-05T09:01:27.000Z</Time>
            <Position>
              <LatitudeDegrees>36.8070244230329990386962890625</LatitudeDegrees>
              <LongitudeDegrees>-4.37868735752999782562255859375</LongitudeDegrees>
            </Position>
            <AltitudeMeters>816.20001220703125</AltitudeMeters>
            <DistanceMeters>NAN</DistanceMeters>
          </Trackpoint>
          <Trackpoint>
            <Time>2020-12-05T09:01:28.000Z</Time>
            <Position>
              <LatitudeDegrees>36.80704160593450069427490234375</LatitudeDegrees>
              <LongitudeDegrees>-4.37868702225387096405029296875</LongitudeDegrees>
            </Position>
            <AltitudeMeters>816</AltitudeMeters>
            <DistanceMeters>NAN</DistanceMeters>
          </Trackpoint>
          <Trackpoint>
            <Time>2020-12-05T09:01:29.000Z</Time>
            <Position>
              <LatitudeDegrees>36.80705845355987548828125</LatitudeDegrees>
              <LongitudeDegrees>-4.37868718989193439483642578125</LongitudeDegrees>
            </Position>
            <AltitudeMeters>816</AltitudeMeters>
            <DistanceMeters>NAN</DistanceMeters>
          </Trackpoint>
          <Trackpoint>
            <Time>2020-12-05T09:01:30.000Z</Time>
            <Position>
              <LatitudeDegrees>36.8070758879184722900390625</LatitudeDegrees>
              <LongitudeDegrees>-4.37868869863450527191162109375</LongitudeDegrees>
            </Position>
            <AltitudeMeters>815.79998779296875</AltitudeMeters>
            <DistanceMeters>NAN</DistanceMeters>
          </Trackpoint>
          <Trackpoint>
            <Time>2020-12-05T09:01:31.000Z</Time>
            <Position>
              <LatitudeDegrees>36.8070948310196399688720703125</LatitudeDegrees>
              <LongitudeDegrees>-4.37869213521480560302734375</LongitudeDegrees>
            </Position>
            <AltitudeMeters>815.4000244140625</AltitudeMeters>
            <DistanceMeters>NAN</DistanceMeters>
          </Trackpoint>
          <Trackpoint>
            <Time>2020-12-05T09:01:32.000Z</Time>
            <Position>
              <LatitudeDegrees>36.80711570195853710174560546875</LatitudeDegrees>
              <LongitudeDegrees>-4.37869322486221790313720703125</LongitudeDegrees>
            </Position>
            <AltitudeMeters>815.20001220703125</AltitudeMeters>
            <DistanceMeters>NAN</DistanceMeters>
          </Trackpoint>
          <Trackpoint>
            <Time>2020-12-05T09:01:33.000Z</Time>
            <Position>
              <LatitudeDegrees>36.8071307055652141571044921875</LatitudeDegrees>
              <LongitudeDegrees>-4.37869456596672534942626953125</LongitudeDegrees>
            </Position>
            <AltitudeMeters>815</AltitudeMeters>
            <DistanceMeters>NAN</DistanceMeters>
          </Trackpoint>
          <Trackpoint>
            <Time>2020-12-05T09:01:34.000Z</Time>
            <Position>
              <LatitudeDegrees>36.80714495480060577392578125</LatitudeDegrees>
              <LongitudeDegrees>-4.3786966614425182342529296875</LongitudeDegrees>
            </Position>
            <AltitudeMeters>814.79998779296875</AltitudeMeters>
            <DistanceMeters>NAN</DistanceMeters>
          </Trackpoint>
          <Trackpoint>
            <Time>2020-12-05T09:01:35.000Z</Time>
            <Position>
              <LatitudeDegrees>36.80715643800795078277587890625</LatitudeDegrees>
              <LongitudeDegrees>-4.378697834908962249755859375</LongitudeDegrees>
            </Position>
            <AltitudeMeters>814.5999755859375</AltitudeMeters>
            <DistanceMeters>NAN</DistanceMeters>
          </Trackpoint>
          <Trackpoint>
            <Time>2020-12-05T09:01:36.000Z</Time>
            <Position>
              <LatitudeDegrees>36.807165406644344329833984375</LatitudeDegrees>
              <LongitudeDegrees>-4.37869708053767681121826171875</LongitudeDegrees>
            </Position>
            <AltitudeMeters>814.4000244140625</AltitudeMeters>
            <DistanceMeters>NAN</DistanceMeters>
          </Trackpoint>
          <Trackpoint>
            <Time>2020-12-05T09:01:37.000Z</Time>
            <Position>
              <LatitudeDegrees>36.807175464928150177001953125</LatitudeDegrees>
              <LongitudeDegrees>-4.37869640998542308807373046875</LongitudeDegrees>
            </Position>
            <AltitudeMeters>814.20001220703125</AltitudeMeters>
            <DistanceMeters>NAN</DistanceMeters>
          </Trackpoint>
          <Trackpoint>
            <Time>2020-12-05T09:01:38.000Z</Time>
            <Position>
              <LatitudeDegrees>36.80718560703098773956298828125</LatitudeDegrees>
              <LongitudeDegrees>-4.37869288958609104156494140625</LongitudeDegrees>
            </Position>
            <AltitudeMeters>814.20001220703125</AltitudeMeters>
            <DistanceMeters>NAN</DistanceMeters>
          </Trackpoint>
          <Trackpoint>
            <Time>2020-12-05T09:01:39.000Z</Time>
            <Position>
              <LatitudeDegrees>36.80719264782965183258056640625</LatitudeDegrees>
              <LongitudeDegrees>-4.37868769280612468719482421875</LongitudeDegrees>
            </Position>
            <AltitudeMeters>814</AltitudeMeters>
            <DistanceMeters>NAN</DistanceMeters>
          </Trackpoint>
          <Trackpoint>
            <Time>2020-12-05T09:01:40.000Z</Time>
            <Position>
              <LatitudeDegrees>36.8072001077234745025634765625</LatitudeDegrees>
              <LongitudeDegrees>-4.37868383713066577911376953125</LongitudeDegrees>
            </Position>
            <AltitudeMeters>814</AltitudeMeters>
            <DistanceMeters>NAN</DistanceMeters>
          </Trackpoint>
          <Trackpoint>
            <Time>2020-12-05T09:01:41.000Z</Time>
            <Position>
              <LatitudeDegrees>36.8072074837982654571533203125</LatitudeDegrees>
              <LongitudeDegrees>-4.37867595814168453216552734375</LongitudeDegrees>
            </Position>
            <AltitudeMeters>813.79998779296875</AltitudeMeters>
            <DistanceMeters>NAN</DistanceMeters>
          </Trackpoint>
          <Trackpoint>
            <Time>2020-12-05T09:01:42.000Z</Time>
            <Position>
              <LatitudeDegrees>36.80721930228173732757568359375</LatitudeDegrees>
              <LongitudeDegrees>-4.37866807915270328521728515625</LongitudeDegrees>
            </Position>
            <AltitudeMeters>814</AltitudeMeters>
            <DistanceMeters>NAN</DistanceMeters>
          </Trackpoint>
          <Trackpoint>
            <Time>2020-12-05T09:01:43.000Z</Time>
            <Position>
              <LatitudeDegrees>36.80723405443131923675537109375</LatitudeDegrees>
              <LongitudeDegrees>-4.37865919433534145355224609375</LongitudeDegrees>
            </Position>
            <AltitudeMeters>814</AltitudeMeters>
            <DistanceMeters>NAN</DistanceMeters>
          </Trackpoint>
          <Trackpoint>
            <Time>2020-12-05T09:01:44.000Z</Time>
            <Position>
              <LatitudeDegrees>36.80724763311445713043212890625</LatitudeDegrees>
              <LongitudeDegrees>-4.37865517102181911468505859375</LongitudeDegrees>
            </Position>
            <AltitudeMeters>814.20001220703125</AltitudeMeters>
            <DistanceMeters>NAN</DistanceMeters>
          </Trackpoint>
          <Trackpoint>
            <Time>2020-12-05T09:01:45.000Z</Time>
            <Position>
              <LatitudeDegrees>36.807260625064373016357421875</LatitudeDegrees>
              <LongitudeDegrees>-4.37864846549928188323974609375</LongitudeDegrees>
            </Position>
            <AltitudeMeters>814.20001220703125</AltitudeMeters>
            <DistanceMeters>NAN</DistanceMeters>
          </Trackpoint>
          <Trackpoint>
            <Time>2020-12-05T09:01:46.000Z</Time>
            <Position>
              <LatitudeDegrees>36.80727680213749408721923828125</LatitudeDegrees>
              <LongitudeDegrees>-4.3786413408815860748291015625</LongitudeDegrees>
            </Position>
            <AltitudeMeters>814.20001220703125</AltitudeMeters>
            <DistanceMeters>NAN</DistanceMeters>
          </Trackpoint>
          <Trackpoint>
            <Time>2020-12-05T09:01:47.000Z</Time>
            <Position>
              <LatitudeDegrees>36.807291805744171142578125</LatitudeDegrees>
              <LongitudeDegrees>-4.37863371334969997406005859375</LongitudeDegrees>
            </Position>
            <AltitudeMeters>814.20001220703125</AltitudeMeters>
            <DistanceMeters>NAN</DistanceMeters>
          </Trackpoint>
          <Trackpoint>
            <Time>2020-12-05T09:01:48.000Z</Time>
            <Position>
              <LatitudeDegrees>36.80730630643665790557861328125</LatitudeDegrees>
              <LongitudeDegrees>-4.37862600199878215789794921875</LongitudeDegrees>
            </Position>
            <AltitudeMeters>814.20001220703125</AltitudeMeters>
            <DistanceMeters>NAN</DistanceMeters>
          </Trackpoint>
          <Trackpoint>
            <Time>2020-12-05T09:01:49.000Z</Time>
            <Position>
              <LatitudeDegrees>36.80732038803398609161376953125</LatitudeDegrees>
              <LongitudeDegrees>-4.37862063758075237274169921875</LongitudeDegrees>
            </Position>
            <AltitudeMeters>814</AltitudeMeters>
            <DistanceMeters>NAN</DistanceMeters>
          </Trackpoint>
          <Trackpoint>
            <Time>2020-12-05T09:01:50.000Z</Time>
            <Position>
              <LatitudeDegrees>36.8073318712413311004638671875</LatitudeDegrees>
              <LongitudeDegrees>-4.3786135129630565643310546875</LongitudeDegrees>
            </Position>
            <AltitudeMeters>813.79998779296875</AltitudeMeters>
            <DistanceMeters>NAN</DistanceMeters>
          </Trackpoint>
          <Trackpoint>
            <Time>2020-12-05T09:01:51.000Z</Time>
            <Position>
              <LatitudeDegrees>36.807342432439327239990234375</LatitudeDegrees>
              <LongitudeDegrees>-4.3786047957837581634521484375</LongitudeDegrees>
            </Position>
            <AltitudeMeters>813.79998779296875</AltitudeMeters>
            <DistanceMeters>NAN</DistanceMeters>
          </Trackpoint>
          <Trackpoint>
            <Time>2020-12-05T09:01:52.000Z</Time>
            <Position>
              <LatitudeDegrees>36.8073546700179576873779296875</LatitudeDegrees>
              <LongitudeDegrees>-4.37859633006155490875244140625</LongitudeDegrees>
            </Position>
            <AltitudeMeters>813.79998779296875</AltitudeMeters>
            <DistanceMeters>NAN</DistanceMeters>
          </Trackpoint>
          <Trackpoint>
            <Time>2020-12-05T09:01:53.000Z</Time>
            <Position>
              <LatitudeDegrees>36.8073664046823978424072265625</LatitudeDegrees>
              <LongitudeDegrees>-4.37858928926289081573486328125</LongitudeDegrees>
            </Position>
            <AltitudeMeters>813.79998779296875</AltitudeMeters>
            <DistanceMeters>NAN</DistanceMeters>
          </Trackpoint>
          <Trackpoint>
            <Time>2020-12-05T09:01:54.000Z</Time>
            <Position>
              <LatitudeDegrees>36.8073771335184574127197265625</LatitudeDegrees>
              <LongitudeDegrees>-4.37858124263584613800048828125</LongitudeDegrees>
            </Position>
            <AltitudeMeters>813.79998779296875</AltitudeMeters>
            <DistanceMeters>NAN</DistanceMeters>
          </Trackpoint>
          <Trackpoint>
            <Time>2020-12-05T09:01:55.000Z</Time>
            <Position>
              <LatitudeDegrees>36.80738903582096099853515625</LatitudeDegrees>
              <LongitudeDegrees>-4.37857286073267459869384765625</LongitudeDegrees>
            </Position>
            <AltitudeMeters>813.5999755859375</AltitudeMeters>
            <DistanceMeters>NAN</DistanceMeters>
          </Trackpoint>
          <Trackpoint>
            <Time>2020-12-05T09:01:56.000Z</Time>
            <Position>
              <LatitudeDegrees>36.80739951319992542266845703125</LatitudeDegrees>
              <LongitudeDegrees>-4.37856447882950305938720703125</LongitudeDegrees>
            </Position>
            <AltitudeMeters>813.5999755859375</AltitudeMeters>
            <DistanceMeters>NAN</DistanceMeters>
          </Trackpoint>
          <Trackpoint>
            <Time>2020-12-05T09:01:57.000Z</Time>
            <Position>
              <LatitudeDegrees>36.80741074495017528533935546875</LatitudeDegrees>
              <LongitudeDegrees>-4.37855626456439495086669921875</LongitudeDegrees>
            </Position>
            <AltitudeMeters>813.4000244140625</AltitudeMeters>
            <DistanceMeters>NAN</DistanceMeters>
          </Trackpoint>
          <Trackpoint>
            <Time>2020-12-05T09:01:58.000Z</Time>
            <Position>
              <LatitudeDegrees>36.8074180372059345245361328125</LatitudeDegrees>
              <LongitudeDegrees>-4.3785474635660648345947265625</LongitudeDegrees>
            </Position>
            <AltitudeMeters>813.20001220703125</AltitudeMeters>
            <DistanceMeters>NAN</DistanceMeters>
          </Trackpoint>
          <Trackpoint>
            <Time>2020-12-05T09:01:59.000Z</Time>
            <Position>
              <LatitudeDegrees>36.8074245750904083251953125</LatitudeDegrees>
              <LongitudeDegrees>-4.3785427697002887725830078125</LongitudeDegrees>
            </Position>
            <AltitudeMeters>812.79998779296875</AltitudeMeters>
            <DistanceMeters>NAN</DistanceMeters>
          </Trackpoint>
          <Trackpoint>
            <Time>2020-12-05T09:02:00.000Z</Time>
            <Position>
              <LatitudeDegrees>36.8074324540793895721435546875</LatitudeDegrees>
              <LongitudeDegrees>-4.37854100950062274932861328125</LongitudeDegrees>
            </Position>
            <AltitudeMeters>812.5999755859375</AltitudeMeters>
            <DistanceMeters>NAN</DistanceMeters>
          </Trackpoint>
          <Trackpoint>
            <Time>2020-12-05T09:02:01.000Z</Time>
            <Position>
              <LatitudeDegrees>36.8074379861354827880859375</LatitudeDegrees>
              <LongitudeDegrees>-4.3785412609577178955078125</LongitudeDegrees>
            </Position>
            <AltitudeMeters>812.4000244140625</AltitudeMeters>
            <DistanceMeters>NAN</DistanceMeters>
          </Trackpoint>
          <Trackpoint>
            <Time>2020-12-05T09:02:02.000Z</Time>
            <Position>
              <LatitudeDegrees>36.80744628421962261199951171875</LatitudeDegrees>
              <LongitudeDegrees>-4.37854268588125705718994140625</LongitudeDegrees>
            </Position>
            <AltitudeMeters>812.4000244140625</AltitudeMeters>
            <DistanceMeters>NAN</DistanceMeters>
          </Trackpoint>
          <Trackpoint>
            <Time>2020-12-05T09:02:03.000Z</Time>
            <Position>
              <LatitudeDegrees>36.80745483376085758209228515625</LatitudeDegrees>
              <LongitudeDegrees>-4.378547631204128265380859375</LongitudeDegrees>
            </Position>
            <AltitudeMeters>812.20001220703125</AltitudeMeters>
            <DistanceMeters>NAN</DistanceMeters>
          </Trackpoint>
          <Trackpoint>
            <Time>2020-12-05T09:02:04.000Z</Time>
            <Position>
              <LatitudeDegrees>36.80746640078723430633544921875</LatitudeDegrees>
              <LongitudeDegrees>-4.3785524927079677581787109375</LongitudeDegrees>
            </Position>
            <AltitudeMeters>812</AltitudeMeters>
            <DistanceMeters>NAN</DistanceMeters>
          </Trackpoint>
          <Trackpoint>
            <Time>2020-12-05T09:02:05.000Z</Time>
            <Position>
              <LatitudeDegrees>36.80747562088072299957275390625</LatitudeDegrees>
              <LongitudeDegrees>-4.378557689487934112548828125</LongitudeDegrees>
            </Position>
            <AltitudeMeters>812</AltitudeMeters>
            <DistanceMeters>NAN</DistanceMeters>
          </Trackpoint>
          <Trackpoint>
            <Time>2020-12-05T09:02:06.000Z</Time>
            <Position>
              <LatitudeDegrees>36.8074860982596874237060546875</LatitudeDegrees>
              <LongitudeDegrees>-4.37856079079210758209228515625</LongitudeDegrees>
            </Position>
            <AltitudeMeters>811.79998779296875</AltitudeMeters>
            <DistanceMeters>NAN</DistanceMeters>
          </Trackpoint>
          <Trackpoint>
            <Time>2020-12-05T09:02:07.000Z</Time>
            <Position>
              <LatitudeDegrees>36.80750009603798389434814453125</LatitudeDegrees>
              <LongitudeDegrees>-4.378567747771739959716796875</LongitudeDegrees>
            </Position>
            <AltitudeMeters>811.5999755859375</AltitudeMeters>
            <DistanceMeters>NAN</DistanceMeters>
          </Trackpoint>
          <Trackpoint>
            <Time>2020-12-05T09:02:08.000Z</Time>
            <Position>
              <LatitudeDegrees>36.80750998668372631072998046875</LatitudeDegrees>
              <LongitudeDegrees>-4.37857336364686489105224609375</LongitudeDegrees>
            </Position>
            <AltitudeMeters>811.5999755859375</AltitudeMeters>
            <DistanceMeters>NAN</DistanceMeters>
          </Trackpoint>
          <Trackpoint>
            <Time>2020-12-05T09:02:09.000Z</Time>
            <Position>
              <LatitudeDegrees>36.8075233139097690582275390625</LatitudeDegrees>
              <LongitudeDegrees>-4.37858224846422672271728515625</LongitudeDegrees>
            </Position>
            <AltitudeMeters>811.5999755859375</AltitudeMeters>
            <DistanceMeters>NAN</DistanceMeters>
          </Trackpoint>
          <Trackpoint>
            <Time>2020-12-05T09:02:10.000Z</Time>
            <Position>
              <LatitudeDegrees>36.8075343780219554901123046875</LatitudeDegrees>
              <LongitudeDegrees>-4.378590881824493408203125</LongitudeDegrees>
            </Position>
            <AltitudeMeters>811.4000244140625</AltitudeMeters>
            <DistanceMeters>NAN</DistanceMeters>
          </Trackpoint>
          <Trackpoint>
            <Time>2020-12-05T09:02:11.000Z</Time>
            <Position>
              <LatitudeDegrees>36.80754217319190502166748046875</LatitudeDegrees>
              <LongitudeDegrees>-4.37859783880412578582763671875</LongitudeDegrees>
            </Position>
            <AltitudeMeters>811.4000244140625</AltitudeMeters>
            <DistanceMeters>NAN</DistanceMeters>
          </Trackpoint>
          <Trackpoint>
            <Time>2020-12-05T09:02:12.000Z</Time>
            <Position>
              <LatitudeDegrees>36.807550974190235137939453125</LatitudeDegrees>
              <LongitudeDegrees>-4.37860487960278987884521484375</LongitudeDegrees>
            </Position>
            <AltitudeMeters>811.4000244140625</AltitudeMeters>
            <DistanceMeters>NAN</DistanceMeters>
          </Trackpoint>
          <Trackpoint>
            <Time>2020-12-05T09:02:13.000Z</Time>
            <Position>
              <LatitudeDegrees>36.8075625412166118621826171875</LatitudeDegrees>
              <LongitudeDegrees>-4.37861326150596141815185546875</LongitudeDegrees>
            </Position>
            <AltitudeMeters>811.4000244140625</AltitudeMeters>
            <DistanceMeters>NAN</DistanceMeters>
          </Trackpoint>
          <Trackpoint>
            <Time>2020-12-05T09:02:14.000Z</Time>
            <Position>
              <LatitudeDegrees>36.80757519789040088653564453125</LatitudeDegrees>
              <LongitudeDegrees>-4.37862214632332324981689453125</LongitudeDegrees>
            </Position>
            <AltitudeMeters>811.5999755859375</AltitudeMeters>
            <DistanceMeters>NAN</DistanceMeters>
          </Trackpoint>
          <Trackpoint>
            <Time>2020-12-05T09:02:15.000Z</Time>
            <Position>
              <LatitudeDegrees>36.807586848735809326171875</LatitudeDegrees>
              <LongitudeDegrees>-4.37863170169293880462646484375</LongitudeDegrees>
            </Position>
            <AltitudeMeters>811.5999755859375</AltitudeMeters>
            <DistanceMeters>NAN</DistanceMeters>
          </Trackpoint>
          <Trackpoint>
            <Time>2020-12-05T09:02:16.000Z</Time>
            <Position>
              <LatitudeDegrees>36.8075943924486637115478515625</LatitudeDegrees>
              <LongitudeDegrees>-4.37863983213901519775390625</LongitudeDegrees>
            </Position>
            <AltitudeMeters>811.5999755859375</AltitudeMeters>
            <DistanceMeters>NAN</DistanceMeters>
          </Trackpoint>
          <Trackpoint>
            <Time>2020-12-05T09:02:17.000Z</Time>
            <Position>
              <LatitudeDegrees>36.80759917013347148895263671875</LatitudeDegrees>
              <LongitudeDegrees>-4.3786503933370113372802734375</LongitudeDegrees>
            </Position>
            <AltitudeMeters>811.79998779296875</AltitudeMeters>
            <DistanceMeters>NAN</DistanceMeters>
          </Trackpoint>
          <Trackpoint>
            <Time>2020-12-05T09:02:18.000Z</Time>
            <Position>
              <LatitudeDegrees>36.80760562419891357421875</LatitudeDegrees>
              <LongitudeDegrees>-4.3786601163446903228759765625</LongitudeDegrees>
            </Position>
            <AltitudeMeters>812.20001220703125</AltitudeMeters>
            <DistanceMeters>NAN</DistanceMeters>
          </Trackpoint>
          <Trackpoint>
            <Time>2020-12-05T09:02:19.000Z</Time>
            <Position>
              <LatitudeDegrees>36.8076123297214508056640625</LatitudeDegrees>
              <LongitudeDegrees>-4.3786644749343395233154296875</LongitudeDegrees>
            </Position>
            <AltitudeMeters>812.79998779296875</AltitudeMeters>
            <DistanceMeters>NAN</DistanceMeters>
          </Trackpoint>
          <Trackpoint>
            <Time>2020-12-05T09:02:20.000Z</Time>
            <Position>
              <LatitudeDegrees>36.8076217174530029296875</LatitudeDegrees>
              <LongitudeDegrees>-4.378670342266559600830078125</LongitudeDegrees>
            </Position>
            <AltitudeMeters>813.20001220703125</AltitudeMeters>
            <DistanceMeters>NAN</DistanceMeters>
          </Trackpoint>
          <Trackpoint>
            <Time>2020-12-05T09:02:21.000Z</Time>
            <Position>
              <LatitudeDegrees>36.80763236247003078460693359375</LatitudeDegrees>
              <LongitudeDegrees>-4.3786753714084625244140625</LongitudeDegrees>
            </Position>
            <AltitudeMeters>813.4000244140625</AltitudeMeters>
            <DistanceMeters>NAN</DistanceMeters>
          </Trackpoint>
          <Trackpoint>
            <Time>2020-12-05T09:02:22.000Z</Time>
            <Position>
              <LatitudeDegrees>36.80764493532478809356689453125</LatitudeDegrees>
              <LongitudeDegrees>-4.37868149019777774810791015625</LongitudeDegrees>
            </Position>
            <AltitudeMeters>813.5999755859375</AltitudeMeters>
            <DistanceMeters>NAN</DistanceMeters>
          </Trackpoint>
          <Trackpoint>
            <Time>2020-12-05T09:02:23.000Z</Time>
            <Position>
              <LatitudeDegrees>36.8076557479798793792724609375</LatitudeDegrees>
              <LongitudeDegrees>-4.3786855973303318023681640625</LongitudeDegrees>
            </Position>
            <AltitudeMeters>813.5999755859375</AltitudeMeters>
            <DistanceMeters>NAN</DistanceMeters>
          </Trackpoint>
          <Trackpoint>
            <Time>2020-12-05T09:02:24.000Z</Time>
            <Position>
              <LatitudeDegrees>36.8076658062636852264404296875</LatitudeDegrees>
              <LongitudeDegrees>-4.37868945300579071044921875</LongitudeDegrees>
            </Position>
            <AltitudeMeters>813.79998779296875</AltitudeMeters>
            <DistanceMeters>NAN</DistanceMeters>
          </Trackpoint>
          <Trackpoint>
            <Time>2020-12-05T09:02:25.000Z</Time>
            <Position>
              <LatitudeDegrees>36.80767678655683994293212890625</LatitudeDegrees>
              <LongitudeDegrees>-4.37869490124285221099853515625</LongitudeDegrees>
            </Position>
            <AltitudeMeters>813.79998779296875</AltitudeMeters>
            <DistanceMeters>NAN</DistanceMeters>
          </Trackpoint>
          <Trackpoint>
            <Time>2020-12-05T09:02:26.000Z</Time>
            <Position>
              <LatitudeDegrees>36.8076862581074237823486328125</LatitudeDegrees>
              <LongitudeDegrees>-4.378698170185089111328125</LongitudeDegrees>
            </Position>
            <AltitudeMeters>813.79998779296875</AltitudeMeters>
            <DistanceMeters>NAN</DistanceMeters>
          </Trackpoint>
          <Trackpoint>
            <Time>2020-12-05T09:02:27.000Z</Time>
            <Position>
              <LatitudeDegrees>36.80769422091543674468994140625</LatitudeDegrees>
              <LongitudeDegrees>-4.3787000142037868499755859375</LongitudeDegrees>
            </Position>
            <AltitudeMeters>813.79998779296875</AltitudeMeters>
            <DistanceMeters>NAN</DistanceMeters>
          </Trackpoint>
          <Trackpoint>
            <Time>2020-12-05T09:02:28.000Z</Time>
            <Position>
              <LatitudeDegrees>36.80770226754248142242431640625</LatitudeDegrees>
              <LongitudeDegrees>-4.3787021934986114501953125</LongitudeDegrees>
            </Position>
            <AltitudeMeters>813.79998779296875</AltitudeMeters>
            <DistanceMeters>NAN</DistanceMeters>
          </Trackpoint>
          <Trackpoint>
            <Time>2020-12-05T09:02:29.000Z</Time>
            <Position>
              <LatitudeDegrees>36.8077114038169384002685546875</LatitudeDegrees>
              <LongitudeDegrees>-4.37870680354535579681396484375</LongitudeDegrees>
            </Position>
            <AltitudeMeters>813.79998779296875</AltitudeMeters>
            <DistanceMeters>NAN</DistanceMeters>
          </Trackpoint>
          <Trackpoint>
            <Time>2020-12-05T09:02:30.000Z</Time>
            <Position>
              <LatitudeDegrees>36.80772154591977596282958984375</LatitudeDegrees>
              <LongitudeDegrees>-4.37871334142982959747314453125</LongitudeDegrees>
            </Position>
            <AltitudeMeters>814</AltitudeMeters>
            <DistanceMeters>NAN</DistanceMeters>
          </Trackpoint>
          <Trackpoint>
            <Time>2020-12-05T09:02:31.000Z</Time>
            <Position>
              <LatitudeDegrees>36.80773495696485042572021484375</LatitudeDegrees>
              <LongitudeDegrees>-4.37871719710528850555419921875</LongitudeDegrees>
            </Position>
            <AltitudeMeters>814</AltitudeMeters>
            <DistanceMeters>NAN</DistanceMeters>
          </Trackpoint>
          <Trackpoint>
            <Time>2020-12-05T09:02:32.000Z</Time>
            <Position>
              <LatitudeDegrees>36.80774920620024204254150390625</LatitudeDegrees>
              <LongitudeDegrees>-4.378718622028827667236328125</LongitudeDegrees>
            </Position>
            <AltitudeMeters>814.20001220703125</AltitudeMeters>
            <DistanceMeters>NAN</DistanceMeters>
          </Trackpoint>
          <Trackpoint>
            <Time>2020-12-05T09:02:33.000Z</Time>
            <Position>
              <LatitudeDegrees>36.8077637068927288055419921875</LatitudeDegrees>
              <LongitudeDegrees>-4.37871937640011310577392578125</LongitudeDegrees>
            </Position>
            <AltitudeMeters>814.20001220703125</AltitudeMeters>
            <DistanceMeters>NAN</DistanceMeters>
          </Trackpoint>
          <Trackpoint>
            <Time>2020-12-05T09:02:34.000Z</Time>
            <Position>
              <LatitudeDegrees>36.80777753703296184539794921875</LatitudeDegrees>
              <LongitudeDegrees>-4.37872004695236682891845703125</LongitudeDegrees>
            </Position>
            <AltitudeMeters>814.4000244140625</AltitudeMeters>
            <DistanceMeters>NAN</DistanceMeters>
          </Trackpoint>
          <Trackpoint>
            <Time>2020-12-05T09:02:35.000Z</Time>
            <Position>
              <LatitudeDegrees>36.8077898584306240081787109375</LatitudeDegrees>
              <LongitudeDegrees>-4.37871920876204967498779296875</LongitudeDegrees>
            </Position>
            <AltitudeMeters>814.4000244140625</AltitudeMeters>
            <DistanceMeters>NAN</DistanceMeters>
          </Trackpoint>
          <Trackpoint>
            <Time>2020-12-05T09:02:36.000Z</Time>
            <Position>
              <LatitudeDegrees>36.80780201219022274017333984375</LatitudeDegrees>
              <LongitudeDegrees>-4.3787182867527008056640625</LongitudeDegrees>
            </Position>
            <AltitudeMeters>814.4000244140625</AltitudeMeters>
            <DistanceMeters>NAN</DistanceMeters>
          </Trackpoint>
          <Trackpoint>
            <Time>2020-12-05T09:02:37.000Z</Time>
            <Position>
              <LatitudeDegrees>36.80781357921659946441650390625</LatitudeDegrees>
              <LongitudeDegrees>-4.3787187896668910980224609375</LongitudeDegrees>
            </Position>
            <AltitudeMeters>814.4000244140625</AltitudeMeters>
            <DistanceMeters>NAN</DistanceMeters>
          </Trackpoint>
          <Trackpoint>
            <Time>2020-12-05T09:02:38.000Z</Time>
            <Position>
              <LatitudeDegrees>36.80782464332878589630126953125</LatitudeDegrees>
              <LongitudeDegrees>-4.378717280924320220947265625</LongitudeDegrees>
            </Position>
            <AltitudeMeters>814.4000244140625</AltitudeMeters>
            <DistanceMeters>NAN</DistanceMeters>
          </Trackpoint>
          <Trackpoint>
            <Time>2020-12-05T09:02:39.000Z</Time>
            <Position>
              <LatitudeDegrees>36.80783570744097232818603515625</LatitudeDegrees>
              <LongitudeDegrees>-4.37871283851563930511474609375</LongitudeDegrees>
            </Position>
            <AltitudeMeters>814.4000244140625</AltitudeMeters>
            <DistanceMeters>NAN</DistanceMeters>
          </Trackpoint>
          <Trackpoint>
            <Time>2020-12-05T09:02:40.000Z</Time>
            <Position>
              <LatitudeDegrees>36.80784501135349273681640625</LatitudeDegrees>
              <LongitudeDegrees>-4.378709904849529266357421875</LongitudeDegrees>
            </Position>
            <AltitudeMeters>814.4000244140625</AltitudeMeters>
            <DistanceMeters>NAN</DistanceMeters>
          </Trackpoint>
          <Trackpoint>
            <Time>2020-12-05T09:02:41.000Z</Time>
            <Position>
              <LatitudeDegrees>36.80785599164664745330810546875</LatitudeDegrees>
              <LongitudeDegrees>-4.37870730645954608917236328125</LongitudeDegrees>
            </Position>
            <AltitudeMeters>814.4000244140625</AltitudeMeters>
            <DistanceMeters>NAN</DistanceMeters>
          </Trackpoint>
          <Trackpoint>
            <Time>2020-12-05T09:02:42.000Z</Time>
            <Position>
              <LatitudeDegrees>36.8078673072159290313720703125</LatitudeDegrees>
              <LongitudeDegrees>-4.37870152294635772705078125</LongitudeDegrees>
            </Position>
            <AltitudeMeters>814.4000244140625</AltitudeMeters>
            <DistanceMeters>NAN</DistanceMeters>
          </Trackpoint>
          <Trackpoint>
            <Time>2020-12-05T09:02:43.000Z</Time>
            <Position>
              <LatitudeDegrees>36.80787946097552776336669921875</LatitudeDegrees>
              <LongitudeDegrees>-4.3786926381289958953857421875</LongitudeDegrees>
            </Position>
            <AltitudeMeters>814.4000244140625</AltitudeMeters>
            <DistanceMeters>NAN</DistanceMeters>
          </Trackpoint>
          <Trackpoint>
            <Time>2020-12-05T09:02:44.000Z</Time>
            <Position>
              <LatitudeDegrees>36.80789169855415821075439453125</LatitudeDegrees>
              <LongitudeDegrees>-4.37868568114936351776123046875</LongitudeDegrees>
            </Position>
            <AltitudeMeters>814.4000244140625</AltitudeMeters>
            <DistanceMeters>NAN</DistanceMeters>
          </Trackpoint>
          <Trackpoint>
            <Time>2020-12-05T09:02:45.000Z</Time>
            <Position>
              <LatitudeDegrees>36.80790594778954982757568359375</LatitudeDegrees>
              <LongitudeDegrees>-4.37868400476872920989990234375</LongitudeDegrees>
            </Position>
            <AltitudeMeters>814.4000244140625</AltitudeMeters>
            <DistanceMeters>NAN</DistanceMeters>
          </Trackpoint>
          <Trackpoint>
            <Time>2020-12-05T09:02:46.000Z</Time>
            <Position>
              <LatitudeDegrees>36.80791868828237056732177734375</LatitudeDegrees>
              <LongitudeDegrees>-4.37868232838809490203857421875</LongitudeDegrees>
            </Position>
            <AltitudeMeters>814.20001220703125</AltitudeMeters>
            <DistanceMeters>NAN</DistanceMeters>
          </Trackpoint>
          <Trackpoint>
            <Time>2020-12-05T09:02:47.000Z</Time>
            <Position>
              <LatitudeDegrees>36.8079296685755252838134765625</LatitudeDegrees>
              <LongitudeDegrees>-4.3786795623600482940673828125</LongitudeDegrees>
            </Position>
            <AltitudeMeters>814</AltitudeMeters>
            <DistanceMeters>NAN</DistanceMeters>
          </Trackpoint>
          <Trackpoint>
            <Time>2020-12-05T09:02:48.000Z</Time>
            <Position>
              <LatitudeDegrees>36.80793981067836284637451171875</LatitudeDegrees>
              <LongitudeDegrees>-4.3786772154271602630615234375</LongitudeDegrees>
            </Position>
            <AltitudeMeters>814</AltitudeMeters>
            <DistanceMeters>NAN</DistanceMeters>
          </Trackpoint>
          <Trackpoint>
            <Time>2020-12-05T09:02:49.000Z</Time>
            <Position>
              <LatitudeDegrees>36.80794768966734409332275390625</LatitudeDegrees>
              <LongitudeDegrees>-4.378673695027828216552734375</LongitudeDegrees>
            </Position>
            <AltitudeMeters>813.5999755859375</AltitudeMeters>
            <DistanceMeters>NAN</DistanceMeters>
          </Trackpoint>
          <Trackpoint>
            <Time>2020-12-05T09:02:50.000Z</Time>
            <Position>
              <LatitudeDegrees>36.8079534731805324554443359375</LatitudeDegrees>
              <LongitudeDegrees>-4.37867009080946445465087890625</LongitudeDegrees>
            </Position>
            <AltitudeMeters>813</AltitudeMeters>
            <DistanceMeters>NAN</DistanceMeters>
          </Trackpoint>
          <Trackpoint>
            <Time>2020-12-05T09:02:51.000Z</Time>
            <Position>
              <LatitudeDegrees>36.80795690976083278656005859375</LatitudeDegrees>
              <LongitudeDegrees>-4.3786668218672275543212890625</LongitudeDegrees>
            </Position>
            <AltitudeMeters>812.79998779296875</AltitudeMeters>
            <DistanceMeters>NAN</DistanceMeters>
          </Trackpoint>
          <Trackpoint>
            <Time>2020-12-05T09:02:52.000Z</Time>
            <Position>
              <LatitudeDegrees>36.80796478874981403350830078125</LatitudeDegrees>
              <LongitudeDegrees>-4.37866305001080036163330078125</LongitudeDegrees>
            </Position>
            <AltitudeMeters>812.79998779296875</AltitudeMeters>
            <DistanceMeters>NAN</DistanceMeters>
          </Trackpoint>
          <Trackpoint>
            <Time>2020-12-05T09:02:53.000Z</Time>
            <Position>
              <LatitudeDegrees>36.807974092662334442138671875</LatitudeDegrees>
              <LongitudeDegrees>-4.3786607868969440460205078125</LongitudeDegrees>
            </Position>
            <AltitudeMeters>812.79998779296875</AltitudeMeters>
            <DistanceMeters>NAN</DistanceMeters>
          </Trackpoint>
          <Trackpoint>
            <Time>2020-12-05T09:02:54.000Z</Time>
            <Position>
              <LatitudeDegrees>36.807988174259662628173828125</LatitudeDegrees>
              <LongitudeDegrees>-4.378658272325992584228515625</LongitudeDegrees>
            </Position>
            <AltitudeMeters>813</AltitudeMeters>
            <DistanceMeters>NAN</DistanceMeters>
          </Trackpoint>
          <Trackpoint>
            <Time>2020-12-05T09:02:55.000Z</Time>
            <Position>
              <LatitudeDegrees>36.8080017529428005218505859375</LatitudeDegrees>
              <LongitudeDegrees>-4.37865265645086765289306640625</LongitudeDegrees>
            </Position>
            <AltitudeMeters>813</AltitudeMeters>
            <DistanceMeters>NAN</DistanceMeters>
          </Trackpoint>
          <Trackpoint>
            <Time>2020-12-05T09:02:56.000Z</Time>
            <Position>
              <LatitudeDegrees>36.808015666902065277099609375</LatitudeDegrees>
              <LongitudeDegrees>-4.378651566803455352783203125</LongitudeDegrees>
            </Position>
            <AltitudeMeters>813.20001220703125</AltitudeMeters>
            <DistanceMeters>NAN</DistanceMeters>
          </Trackpoint>
          <Trackpoint>
            <Time>2020-12-05T09:02:57.000Z</Time>
            <Position>
              <LatitudeDegrees>36.808033101260662078857421875</LatitudeDegrees>
              <LongitudeDegrees>-4.3786513991653919219970703125</LongitudeDegrees>
            </Position>
            <AltitudeMeters>813.20001220703125</AltitudeMeters>
            <DistanceMeters>NAN</DistanceMeters>
          </Trackpoint>
          <Trackpoint>
            <Time>2020-12-05T09:02:58.000Z</Time>
            <Position>
              <LatitudeDegrees>36.80804693140089511871337890625</LatitudeDegrees>
              <LongitudeDegrees>-4.37864645384252071380615234375</LongitudeDegrees>
            </Position>
            <AltitudeMeters>813.4000244140625</AltitudeMeters>
            <DistanceMeters>NAN</DistanceMeters>
          </Trackpoint>
          <Trackpoint>
            <Time>2020-12-05T09:02:59.000Z</Time>
            <Position>
              <LatitudeDegrees>36.80806092917919158935546875</LatitudeDegrees>
              <LongitudeDegrees>-4.37864159233868122100830078125</LongitudeDegrees>
            </Position>
            <AltitudeMeters>813.4000244140625</AltitudeMeters>
            <DistanceMeters>NAN</DistanceMeters>
          </Trackpoint>
          <Trackpoint>
            <Time>2020-12-05T09:03:00.000Z</Time>
            <Position>
              <LatitudeDegrees>36.80807207711040973663330078125</LatitudeDegrees>
              <LongitudeDegrees>-4.37864075414836406707763671875</LongitudeDegrees>
            </Position>
            <AltitudeMeters>813.4000244140625</AltitudeMeters>
            <DistanceMeters>NAN</DistanceMeters>
          </Trackpoint>
          <Trackpoint>
            <Time>2020-12-05T09:03:01.000Z</Time>
            <Position>
              <LatitudeDegrees>36.8080795370042324066162109375</LatitudeDegrees>
              <LongitudeDegrees>-4.3786410056054592132568359375</LongitudeDegrees>
            </Position>
            <AltitudeMeters>813.4000244140625</AltitudeMeters>
            <DistanceMeters>NAN</DistanceMeters>
          </Trackpoint>
          <Trackpoint>
            <Time>2020-12-05T09:03:02.000Z</Time>
            <Position>
              <LatitudeDegrees>36.808088757097721099853515625</LatitudeDegrees>
              <LongitudeDegrees>-4.3786420114338397979736328125</LongitudeDegrees>
            </Position>
            <AltitudeMeters>813.5999755859375</AltitudeMeters>
            <DistanceMeters>NAN</DistanceMeters>
          </Trackpoint>
          <Trackpoint>
            <Time>2020-12-05T09:03:03.000Z</Time>
            <Position>
              <LatitudeDegrees>36.80809940211474895477294921875</LatitudeDegrees>
              <LongitudeDegrees>-4.37864360399544239044189453125</LongitudeDegrees>
            </Position>
            <AltitudeMeters>813.79998779296875</AltitudeMeters>
            <DistanceMeters>NAN</DistanceMeters>
          </Trackpoint>
          <Trackpoint>
            <Time>2020-12-05T09:03:04.000Z</Time>
            <Position>
              <LatitudeDegrees>36.8081097118556499481201171875</LatitudeDegrees>
              <LongitudeDegrees>-4.37864921987056732177734375</LongitudeDegrees>
            </Position>
            <AltitudeMeters>813.79998779296875</AltitudeMeters>
            <DistanceMeters>NAN</DistanceMeters>
          </Trackpoint>
          <Trackpoint>
            <Time>2020-12-05T09:03:05.000Z</Time>
            <Position>
              <LatitudeDegrees>36.80812153033912181854248046875</LatitudeDegrees>
              <LongitudeDegrees>-4.3786570988595485687255859375</LongitudeDegrees>
            </Position>
            <AltitudeMeters>814</AltitudeMeters>
            <DistanceMeters>NAN</DistanceMeters>
          </Trackpoint>
          <Trackpoint>
            <Time>2020-12-05T09:03:06.000Z</Time>
            <Position>
              <LatitudeDegrees>36.80813410319387912750244140625</LatitudeDegrees>
              <LongitudeDegrees>-4.37866640277206897735595703125</LongitudeDegrees>
            </Position>
            <AltitudeMeters>813.79998779296875</AltitudeMeters>
            <DistanceMeters>NAN</DistanceMeters>
          </Trackpoint>
          <Trackpoint>
            <Time>2020-12-05T09:03:07.000Z</Time>
            <Position>
              <LatitudeDegrees>36.80814516730606555938720703125</LatitudeDegrees>
              <LongitudeDegrees>-4.378675036132335662841796875</LongitudeDegrees>
            </Position>
            <AltitudeMeters>813.5999755859375</AltitudeMeters>
            <DistanceMeters>NAN</DistanceMeters>
          </Trackpoint>
          <Trackpoint>
            <Time>2020-12-05T09:03:08.000Z</Time>
            <Position>
              <LatitudeDegrees>36.80815354920923709869384765625</LatitudeDegrees>
              <LongitudeDegrees>-4.37868601642549037933349609375</LongitudeDegrees>
            </Position>
            <AltitudeMeters>813</AltitudeMeters>
            <DistanceMeters>NAN</DistanceMeters>
          </Trackpoint>
          <Trackpoint>
            <Time>2020-12-05T09:03:09.000Z</Time>
            <Position>
              <LatitudeDegrees>36.80815975181758403778076171875</LatitudeDegrees>
              <LongitudeDegrees>-4.37869691289961338043212890625</LongitudeDegrees>
            </Position>
            <AltitudeMeters>812.5999755859375</AltitudeMeters>
            <DistanceMeters>NAN</DistanceMeters>
          </Trackpoint>
          <Trackpoint>
            <Time>2020-12-05T09:03:10.000Z</Time>
            <Position>
              <LatitudeDegrees>36.80816779844462871551513671875</LatitudeDegrees>
              <LongitudeDegrees>-4.3787080608308315277099609375</LongitudeDegrees>
            </Position>
            <AltitudeMeters>812.4000244140625</AltitudeMeters>
            <DistanceMeters>NAN</DistanceMeters>
          </Trackpoint>
          <Trackpoint>
            <Time>2020-12-05T09:03:11.000Z</Time>
            <Position>
              <LatitudeDegrees>36.8081744201481342315673828125</LatitudeDegrees>
              <LongitudeDegrees>-4.3787156045436859130859375</LongitudeDegrees>
            </Position>
            <AltitudeMeters>812.20001220703125</AltitudeMeters>
            <DistanceMeters>NAN</DistanceMeters>
          </Trackpoint>
          <Trackpoint>
            <Time>2020-12-05T09:03:12.000Z</Time>
            <Position>
              <LatitudeDegrees>36.80817936547100543975830078125</LatitudeDegrees>
              <LongitudeDegrees>-4.3787218071520328521728515625</LongitudeDegrees>
            </Position>
            <AltitudeMeters>812</AltitudeMeters>
            <DistanceMeters>NAN</DistanceMeters>
          </Trackpoint>
          <Trackpoint>
            <Time>2020-12-05T09:03:13.000Z</Time>
            <Position>
              <LatitudeDegrees>36.80818338878452777862548828125</LatitudeDegrees>
              <LongitudeDegrees>-4.37872943468391895294189453125</LongitudeDegrees>
            </Position>
            <AltitudeMeters>811.79998779296875</AltitudeMeters>
            <DistanceMeters>NAN</DistanceMeters>
          </Trackpoint>
          <Trackpoint>
            <Time>2020-12-05T09:03:14.000Z</Time>
            <Position>
              <LatitudeDegrees>36.80818573571741580963134765625</LatitudeDegrees>
              <LongitudeDegrees>-4.37873982824385166168212890625</LongitudeDegrees>
            </Position>
            <AltitudeMeters>811.79998779296875</AltitudeMeters>
            <DistanceMeters>NAN</DistanceMeters>
          </Trackpoint>
          <Trackpoint>
            <Time>2020-12-05T09:03:15.000Z</Time>
            <Position>
              <LatitudeDegrees>36.80818908847868442535400390625</LatitudeDegrees>
              <LongitudeDegrees>-4.3787523172795772552490234375</LongitudeDegrees>
            </Position>
            <AltitudeMeters>811.5999755859375</AltitudeMeters>
            <DistanceMeters>NAN</DistanceMeters>
          </Trackpoint>
          <Trackpoint>
            <Time>2020-12-05T09:03:16.000Z</Time>
            <Position>
              <LatitudeDegrees>36.80819445289671421051025390625</LatitudeDegrees>
              <LongitudeDegrees>-4.3787638843059539794921875</LongitudeDegrees>
            </Position>
            <AltitudeMeters>811.5999755859375</AltitudeMeters>
            <DistanceMeters>NAN</DistanceMeters>
          </Trackpoint>
          <Trackpoint>
            <Time>2020-12-05T09:03:17.000Z</Time>
            <Position>
              <LatitudeDegrees>36.8081999011337757110595703125</LatitudeDegrees>
              <LongitudeDegrees>-4.3787731043994426727294921875</LongitudeDegrees>
            </Position>
            <AltitudeMeters>811.5999755859375</AltitudeMeters>
            <DistanceMeters>NAN</DistanceMeters>
          </Trackpoint>
          <Trackpoint>
            <Time>2020-12-05T09:03:18.000Z</Time>
            <Position>
              <LatitudeDegrees>36.80820367299020290374755859375</LatitudeDegrees>
              <LongitudeDegrees>-4.37878441996872425079345703125</LongitudeDegrees>
            </Position>
            <AltitudeMeters>811.5999755859375</AltitudeMeters>
            <DistanceMeters>NAN</DistanceMeters>
          </Trackpoint>
          <Trackpoint>
            <Time>2020-12-05T09:03:19.000Z</Time>
            <Position>
              <LatitudeDegrees>36.80820970796048641204833984375</LatitudeDegrees>
              <LongitudeDegrees>-4.3787999264895915985107421875</LongitudeDegrees>
            </Position>
            <AltitudeMeters>811.5999755859375</AltitudeMeters>
            <DistanceMeters>NAN</DistanceMeters>
          </Trackpoint>
          <Trackpoint>
            <Time>2020-12-05T09:03:20.000Z</Time>
            <Position>
              <LatitudeDegrees>36.80821591056883335113525390625</LatitudeDegrees>
              <LongitudeDegrees>-4.37881543301045894622802734375</LongitudeDegrees>
            </Position>
            <AltitudeMeters>811.5999755859375</AltitudeMeters>
            <DistanceMeters>NAN</DistanceMeters>
          </Trackpoint>
          <Trackpoint>
            <Time>2020-12-05T09:03:21.000Z</Time>
            <Position>
              <LatitudeDegrees>36.80822052061557769775390625</LatitudeDegrees>
              <LongitudeDegrees>-4.3788282573223114013671875</LongitudeDegrees>
            </Position>
            <AltitudeMeters>811.79998779296875</AltitudeMeters>
            <DistanceMeters>NAN</DistanceMeters>
          </Trackpoint>
          <Trackpoint>
            <Time>2020-12-05T09:03:22.000Z</Time>
            <Position>
              <LatitudeDegrees>36.80822563357651233673095703125</LatitudeDegrees>
              <LongitudeDegrees>-4.3788404949009418487548828125</LongitudeDegrees>
            </Position>
            <AltitudeMeters>812</AltitudeMeters>
            <DistanceMeters>NAN</DistanceMeters>
          </Trackpoint>
          <Trackpoint>
            <Time>2020-12-05T09:03:23.000Z</Time>
            <Position>
              <LatitudeDegrees>36.80823124945163726806640625</LatitudeDegrees>
              <LongitudeDegrees>-4.37885415740311145782470703125</LongitudeDegrees>
            </Position>
            <AltitudeMeters>812.4000244140625</AltitudeMeters>
            <DistanceMeters>NAN</DistanceMeters>
          </Trackpoint>
          <Trackpoint>
            <Time>2020-12-05T09:03:24.000Z</Time>
            <Position>
              <LatitudeDegrees>36.80823971517384052276611328125</LatitudeDegrees>
              <LongitudeDegrees>-4.378866814076900482177734375</LongitudeDegrees>
            </Position>
            <AltitudeMeters>812.5999755859375</AltitudeMeters>
            <DistanceMeters>NAN</DistanceMeters>
          </Trackpoint>
          <Trackpoint>
            <Time>2020-12-05T09:03:25.000Z</Time>
            <Position>
              <LatitudeDegrees>36.80824809707701206207275390625</LatitudeDegrees>
              <LongitudeDegrees>-4.37888391315937042236328125</LongitudeDegrees>
            </Position>
            <AltitudeMeters>812.79998779296875</AltitudeMeters>
            <DistanceMeters>NAN</DistanceMeters>
          </Trackpoint>
          <Trackpoint>
            <Time>2020-12-05T09:03:26.000Z</Time>
            <Position>
              <LatitudeDegrees>36.8082589097321033477783203125</LatitudeDegrees>
              <LongitudeDegrees>-4.378897659480571746826171875</LongitudeDegrees>
            </Position>
            <AltitudeMeters>812.79998779296875</AltitudeMeters>
            <DistanceMeters>NAN</DistanceMeters>
          </Trackpoint>
          <Trackpoint>
            <Time>2020-12-05T09:03:27.000Z</Time>
            <Position>
              <LatitudeDegrees>36.80826720781624317169189453125</LatitudeDegrees>
              <LongitudeDegrees>-4.3789152614772319793701171875</LongitudeDegrees>
            </Position>
            <AltitudeMeters>812.79998779296875</AltitudeMeters>
            <DistanceMeters>NAN</DistanceMeters>
          </Trackpoint>
          <Trackpoint>
            <Time>2020-12-05T09:03:28.000Z</Time>
            <Position>
              <LatitudeDegrees>36.808275170624256134033203125</LatitudeDegrees>
              <LongitudeDegrees>-4.37893093563616275787353515625</LongitudeDegrees>
            </Position>
            <AltitudeMeters>812.5999755859375</AltitudeMeters>
            <DistanceMeters>NAN</DistanceMeters>
          </Trackpoint>
          <Trackpoint>
            <Time>2020-12-05T09:03:29.000Z</Time>
            <Position>
              <LatitudeDegrees>36.80827894248068332672119140625</LatitudeDegrees>
              <LongitudeDegrees>-4.37894753180444240570068359375</LongitudeDegrees>
            </Position>
            <AltitudeMeters>812.4000244140625</AltitudeMeters>
            <DistanceMeters>NAN</DistanceMeters>
          </Trackpoint>
          <Trackpoint>
            <Time>2020-12-05T09:03:30.000Z</Time>
            <Position>
              <LatitudeDegrees>36.8082867376506328582763671875</LatitudeDegrees>
              <LongitudeDegrees>-4.37896169722080230712890625</LongitudeDegrees>
            </Position>
            <AltitudeMeters>812.4000244140625</AltitudeMeters>
            <DistanceMeters>NAN</DistanceMeters>
          </Trackpoint>
          <Trackpoint>
            <Time>2020-12-05T09:03:31.000Z</Time>
            <Position>
              <LatitudeDegrees>36.80829520337283611297607421875</LatitudeDegrees>
              <LongitudeDegrees>-4.37897435389459133148193359375</LongitudeDegrees>
            </Position>
            <AltitudeMeters>812.4000244140625</AltitudeMeters>
            <DistanceMeters>NAN</DistanceMeters>
          </Trackpoint>
          <Trackpoint>
            <Time>2020-12-05T09:03:32.000Z</Time>
            <Position>
              <LatitudeDegrees>36.8083048425614833831787109375</LatitudeDegrees>
              <LongitudeDegrees>-4.3789819814264774322509765625</LongitudeDegrees>
            </Position>
            <AltitudeMeters>812.20001220703125</AltitudeMeters>
            <DistanceMeters>NAN</DistanceMeters>
          </Trackpoint>
          <Trackpoint>
            <Time>2020-12-05T09:03:33.000Z</Time>
            <Position>
              <LatitudeDegrees>36.80831146426498889923095703125</LatitudeDegrees>
              <LongitudeDegrees>-4.3789963982999324798583984375</LongitudeDegrees>
            </Position>
            <AltitudeMeters>812</AltitudeMeters>
            <DistanceMeters>NAN</DistanceMeters>
          </Trackpoint>
          <Trackpoint>
            <Time>2020-12-05T09:03:34.000Z</Time>
            <Position>
              <LatitudeDegrees>36.80831582285463809967041015625</LatitudeDegrees>
              <LongitudeDegrees>-4.379010312259197235107421875</LongitudeDegrees>
            </Position>
            <AltitudeMeters>811.79998779296875</AltitudeMeters>
            <DistanceMeters>NAN</DistanceMeters>
          </Trackpoint>
          <Trackpoint>
            <Time>2020-12-05T09:03:35.000Z</Time>
            <Position>
              <LatitudeDegrees>36.8083209358155727386474609375</LatitudeDegrees>
              <LongitudeDegrees>-4.3790235556662082672119140625</LongitudeDegrees>
            </Position>
            <AltitudeMeters>811.79998779296875</AltitudeMeters>
            <DistanceMeters>NAN</DistanceMeters>
          </Trackpoint>
          <Trackpoint>
            <Time>2020-12-05T09:03:36.000Z</Time>
            <Position>
              <LatitudeDegrees>36.80832688696682453155517578125</LatitudeDegrees>
              <LongitudeDegrees>-4.37903906218707561492919921875</LongitudeDegrees>
            </Position>
            <AltitudeMeters>811.5999755859375</AltitudeMeters>
            <DistanceMeters>NAN</DistanceMeters>
          </Trackpoint>
          <Trackpoint>
            <Time>2020-12-05T09:03:37.000Z</Time>
            <Position>
              <LatitudeDegrees>36.80833325721323490142822265625</LatitudeDegrees>
              <LongitudeDegrees>-4.37905414961278438568115234375</LongitudeDegrees>
            </Position>
            <AltitudeMeters>811.5999755859375</AltitudeMeters>
            <DistanceMeters>NAN</DistanceMeters>
          </Trackpoint>
          <Trackpoint>
            <Time>2020-12-05T09:03:38.000Z</Time>
            <Position>
              <LatitudeDegrees>36.80834314785897731781005859375</LatitudeDegrees>
              <LongitudeDegrees>-4.37906722538173198699951171875</LongitudeDegrees>
            </Position>
            <AltitudeMeters>811.4000244140625</AltitudeMeters>
            <DistanceMeters>NAN</DistanceMeters>
          </Trackpoint>
          <Trackpoint>
            <Time>2020-12-05T09:03:39.000Z</Time>
            <Position>
              <LatitudeDegrees>36.808352284133434295654296875</LatitudeDegrees>
              <LongitudeDegrees>-4.37908331863582134246826171875</LongitudeDegrees>
            </Position>
            <AltitudeMeters>811.4000244140625</AltitudeMeters>
            <DistanceMeters>NAN</DistanceMeters>
          </Trackpoint>
          <Trackpoint>
            <Time>2020-12-05T09:03:40.000Z</Time>
            <Position>
              <LatitudeDegrees>36.80835655890405178070068359375</LatitudeDegrees>
              <LongitudeDegrees>-4.3791020102798938751220703125</LongitudeDegrees>
            </Position>
            <AltitudeMeters>811.20001220703125</AltitudeMeters>
            <DistanceMeters>NAN</DistanceMeters>
          </Trackpoint>
          <Trackpoint>
            <Time>2020-12-05T09:03:41.000Z</Time>
            <Position>
              <LatitudeDegrees>36.80836309678852558135986328125</LatitudeDegrees>
              <LongitudeDegrees>-4.3791160918772220611572265625</LongitudeDegrees>
            </Position>
            <AltitudeMeters>811.20001220703125</AltitudeMeters>
            <DistanceMeters>NAN</DistanceMeters>
          </Trackpoint>
          <Trackpoint>
            <Time>2020-12-05T09:03:42.000Z</Time>
            <Position>
              <LatitudeDegrees>36.8083687126636505126953125</LatitudeDegrees>
              <LongitudeDegrees>-4.3791221268475055694580078125</LongitudeDegrees>
            </Position>
            <AltitudeMeters>811.20001220703125</AltitudeMeters>
            <DistanceMeters>NAN</DistanceMeters>
          </Trackpoint>
          <Trackpoint>
            <Time>2020-12-05T09:03:43.000Z</Time>
            <Position>
              <LatitudeDegrees>36.808375418186187744140625</LatitudeDegrees>
              <LongitudeDegrees>-4.37912556342780590057373046875</LongitudeDegrees>
            </Position>
            <AltitudeMeters>811</AltitudeMeters>
            <DistanceMeters>NAN</DistanceMeters>
          </Trackpoint>
          <Trackpoint>
            <Time>2020-12-05T09:03:44.000Z</Time>
            <Position>
              <LatitudeDegrees>36.8083819560706615447998046875</LatitudeDegrees>
              <LongitudeDegrees>-4.3791321851313114166259765625</LongitudeDegrees>
            </Position>
            <AltitudeMeters>810.79998779296875</AltitudeMeters>
            <DistanceMeters>NAN</DistanceMeters>
          </Trackpoint>
          <Trackpoint>
            <Time>2020-12-05T09:03:45.000Z</Time>
            <Position>
              <LatitudeDegrees>36.80838958360254764556884765625</LatitudeDegrees>
              <LongitudeDegrees>-4.3791358731687068939208984375</LongitudeDegrees>
            </Position>
            <AltitudeMeters>810.5999755859375</AltitudeMeters>
            <DistanceMeters>NAN</DistanceMeters>
          </Trackpoint>
          <Trackpoint>
            <Time>2020-12-05T09:03:46.000Z</Time>
            <Position>
              <LatitudeDegrees>36.8083973787724971771240234375</LatitudeDegrees>
              <LongitudeDegrees>-4.37914551235735416412353515625</LongitudeDegrees>
            </Position>
            <AltitudeMeters>810.5999755859375</AltitudeMeters>
            <DistanceMeters>NAN</DistanceMeters>
          </Trackpoint>
          <Trackpoint>
            <Time>2020-12-05T09:03:47.000Z</Time>
            <Position>
              <LatitudeDegrees>36.8084062635898590087890625</LatitudeDegrees>
              <LongitudeDegrees>-4.3791576661169528961181640625</LongitudeDegrees>
            </Position>
            <AltitudeMeters>810.4000244140625</AltitudeMeters>
            <DistanceMeters>NAN</DistanceMeters>
          </Trackpoint>
          <Trackpoint>
            <Time>2020-12-05T09:03:48.000Z</Time>
            <Position>
              <LatitudeDegrees>36.8084131367504596710205078125</LatitudeDegrees>
              <LongitudeDegrees>-4.37916965223848819732666015625</LongitudeDegrees>
            </Position>
            <AltitudeMeters>810.4000244140625</AltitudeMeters>
            <DistanceMeters>NAN</DistanceMeters>
          </Trackpoint>
          <Trackpoint>
            <Time>2020-12-05T09:03:49.000Z</Time>
            <Position>
              <LatitudeDegrees>36.80841523222625255584716796875</LatitudeDegrees>
              <LongitudeDegrees>-4.37918163836002349853515625</LongitudeDegrees>
            </Position>
            <AltitudeMeters>810.4000244140625</AltitudeMeters>
            <DistanceMeters>NAN</DistanceMeters>
          </Trackpoint>
          <Trackpoint>
            <Time>2020-12-05T09:03:50.000Z</Time>
            <Position>
              <LatitudeDegrees>36.808422021567821502685546875</LatitudeDegrees>
              <LongitudeDegrees>-4.37919211573898792266845703125</LongitudeDegrees>
            </Position>
            <AltitudeMeters>810.5999755859375</AltitudeMeters>
            <DistanceMeters>NAN</DistanceMeters>
          </Trackpoint>
          <Trackpoint>
            <Time>2020-12-05T09:03:51.000Z</Time>
            <Position>
              <LatitudeDegrees>36.8084330856800079345703125</LatitudeDegrees>
              <LongitudeDegrees>-4.37920577824115753173828125</LongitudeDegrees>
            </Position>
            <AltitudeMeters>810.5999755859375</AltitudeMeters>
            <DistanceMeters>NAN</DistanceMeters>
          </Trackpoint>
          <Trackpoint>
            <Time>2020-12-05T09:03:52.000Z</Time>
            <Position>
              <LatitudeDegrees>36.80844356305897235870361328125</LatitudeDegrees>
              <LongitudeDegrees>-4.37922229059040546417236328125</LongitudeDegrees>
            </Position>
            <AltitudeMeters>810.5999755859375</AltitudeMeters>
            <DistanceMeters>NAN</DistanceMeters>
          </Trackpoint>
          <Trackpoint>
            <Time>2020-12-05T09:03:53.000Z</Time>
            <Position>
              <LatitudeDegrees>36.80845010094344615936279296875</LatitudeDegrees>
              <LongitudeDegrees>-4.3792411498725414276123046875</LongitudeDegrees>
            </Position>
            <AltitudeMeters>810.4000244140625</AltitudeMeters>
            <DistanceMeters>NAN</DistanceMeters>
          </Trackpoint>
          <Trackpoint>
            <Time>2020-12-05T09:03:54.000Z</Time>
            <Position>
              <LatitudeDegrees>36.80845513008534908294677734375</LatitudeDegrees>
              <LongitudeDegrees>-4.37925967387855052947998046875</LongitudeDegrees>
            </Position>
            <AltitudeMeters>810.4000244140625</AltitudeMeters>
            <DistanceMeters>NAN</DistanceMeters>
          </Trackpoint>
          <Trackpoint>
            <Time>2020-12-05T09:03:55.000Z</Time>
            <Position>
              <LatitudeDegrees>36.808458231389522552490234375</LatitudeDegrees>
              <LongitudeDegrees>-4.37927794642746448516845703125</LongitudeDegrees>
            </Position>
            <AltitudeMeters>810.20001220703125</AltitudeMeters>
            <DistanceMeters>NAN</DistanceMeters>
          </Trackpoint>
          <Trackpoint>
            <Time>2020-12-05T09:03:56.000Z</Time>
            <Position>
              <LatitudeDegrees>36.8084637634456157684326171875</LatitudeDegrees>
              <LongitudeDegrees>-4.37929253093898296356201171875</LongitudeDegrees>
            </Position>
            <AltitudeMeters>810.20001220703125</AltitudeMeters>
            <DistanceMeters>NAN</DistanceMeters>
          </Trackpoint>
          <Trackpoint>
            <Time>2020-12-05T09:03:57.000Z</Time>
            <Position>
              <LatitudeDegrees>36.80847340263426303863525390625</LatitudeDegrees>
              <LongitudeDegrees>-4.379308037459850311279296875</LongitudeDegrees>
            </Position>
            <AltitudeMeters>810</AltitudeMeters>
            <DistanceMeters>NAN</DistanceMeters>
          </Trackpoint>
          <Trackpoint>
            <Time>2020-12-05T09:03:58.000Z</Time>
            <Position>
              <LatitudeDegrees>36.80848203599452972412109375</LatitudeDegrees>
              <LongitudeDegrees>-4.3793206103146076202392578125</LongitudeDegrees>
            </Position>
            <AltitudeMeters>810.20001220703125</AltitudeMeters>
            <DistanceMeters>NAN</DistanceMeters>
          </Trackpoint>
          <Trackpoint>
            <Time>2020-12-05T09:03:59.000Z</Time>
            <Position>
              <LatitudeDegrees>36.80848999880254268646240234375</LatitudeDegrees>
              <LongitudeDegrees>-4.3793323449790477752685546875</LongitudeDegrees>
            </Position>
            <AltitudeMeters>810.20001220703125</AltitudeMeters>
            <DistanceMeters>NAN</DistanceMeters>
          </Trackpoint>
          <Trackpoint>
            <Time>2020-12-05T09:04:00.000Z</Time>
            <Position>
              <LatitudeDegrees>36.8084976263344287872314453125</LatitudeDegrees>
              <LongitudeDegrees>-4.37934298999607563018798828125</LongitudeDegrees>
            </Position>
            <AltitudeMeters>810.20001220703125</AltitudeMeters>
            <DistanceMeters>NAN</DistanceMeters>
          </Trackpoint>
          <Trackpoint>
            <Time>2020-12-05T09:04:01.000Z</Time>
            <Position>
              <LatitudeDegrees>36.808504499495029449462890625</LatitudeDegrees>
              <LongitudeDegrees>-4.3793561495840549468994140625</LongitudeDegrees>
            </Position>
            <AltitudeMeters>810.20001220703125</AltitudeMeters>
            <DistanceMeters>NAN</DistanceMeters>
          </Trackpoint>
          <Trackpoint>
            <Time>2020-12-05T09:04:02.000Z</Time>
            <Position>
              <LatitudeDegrees>36.80851078592240810394287109375</LatitudeDegrees>
              <LongitudeDegrees>-4.3793714046478271484375</LongitudeDegrees>
            </Position>
            <AltitudeMeters>810.20001220703125</AltitudeMeters>
            <DistanceMeters>NAN</DistanceMeters>
          </Trackpoint>
          <Trackpoint>
            <Time>2020-12-05T09:04:03.000Z</Time>
            <Position>
              <LatitudeDegrees>36.80851631797850131988525390625</LatitudeDegrees>
              <LongitudeDegrees>-4.37938741408288478851318359375</LongitudeDegrees>
            </Position>
            <AltitudeMeters>810.20001220703125</AltitudeMeters>
            <DistanceMeters>NAN</DistanceMeters>
          </Trackpoint>
          <Trackpoint>
            <Time>2020-12-05T09:04:04.000Z</Time>
            <Position>
              <LatitudeDegrees>36.8085229396820068359375</LatitudeDegrees>
              <LongitudeDegrees>-4.37939998693764209747314453125</LongitudeDegrees>
            </Position>
            <AltitudeMeters>810.20001220703125</AltitudeMeters>
            <DistanceMeters>NAN</DistanceMeters>
          </Trackpoint>
          <Trackpoint>
            <Time>2020-12-05T09:04:05.000Z</Time>
            <Position>
              <LatitudeDegrees>36.80852922610938549041748046875</LatitudeDegrees>
              <LongitudeDegrees>-4.37940962612628936767578125</LongitudeDegrees>
            </Position>
            <AltitudeMeters>810.20001220703125</AltitudeMeters>
            <DistanceMeters>NAN</DistanceMeters>
          </Trackpoint>
          <Trackpoint>
            <Time>2020-12-05T09:04:06.000Z</Time>
            <Position>
              <LatitudeDegrees>36.80853609926998615264892578125</LatitudeDegrees>
              <LongitudeDegrees>-4.3794201873242855072021484375</LongitudeDegrees>
            </Position>
            <AltitudeMeters>810.4000244140625</AltitudeMeters>
            <DistanceMeters>NAN</DistanceMeters>
          </Trackpoint>
          <Trackpoint>
            <Time>2020-12-05T09:04:07.000Z</Time>
            <Position>
              <LatitudeDegrees>36.8085443973541259765625</LatitudeDegrees>
              <LongitudeDegrees>-4.37942882068455219268798828125</LongitudeDegrees>
            </Position>
            <AltitudeMeters>810.4000244140625</AltitudeMeters>
            <DistanceMeters>NAN</DistanceMeters>
          </Trackpoint>
          <Trackpoint>
            <Time>2020-12-05T09:04:08.000Z</Time>
            <Position>
              <LatitudeDegrees>36.80855437181890010833740234375</LatitudeDegrees>
              <LongitudeDegrees>-4.3794423155486583709716796875</LongitudeDegrees>
            </Position>
            <AltitudeMeters>810.4000244140625</AltitudeMeters>
            <DistanceMeters>NAN</DistanceMeters>
          </Trackpoint>
          <Trackpoint>
            <Time>2020-12-05T09:04:09.000Z</Time>
            <Position>
              <LatitudeDegrees>36.8085660226643085479736328125</LatitudeDegrees>
              <LongitudeDegrees>-4.37945463694632053375244140625</LongitudeDegrees>
            </Position>
            <AltitudeMeters>810.4000244140625</AltitudeMeters>
            <DistanceMeters>NAN</DistanceMeters>
          </Trackpoint>
          <Trackpoint>
            <Time>2020-12-05T09:04:10.000Z</Time>
            <Position>
              <LatitudeDegrees>36.80857817642390727996826171875</LatitudeDegrees>
              <LongitudeDegrees>-4.37946586869657039642333984375</LongitudeDegrees>
            </Position>
            <AltitudeMeters>810.4000244140625</AltitudeMeters>
            <DistanceMeters>NAN</DistanceMeters>
          </Trackpoint>
          <Trackpoint>
            <Time>2020-12-05T09:04:11.000Z</Time>
            <Position>
              <LatitudeDegrees>36.80859041400253772735595703125</LatitudeDegrees>
              <LongitudeDegrees>-4.37947626225650310516357421875</LongitudeDegrees>
            </Position>
            <AltitudeMeters>810.4000244140625</AltitudeMeters>
            <DistanceMeters>NAN</DistanceMeters>
          </Trackpoint>
          <Trackpoint>
            <Time>2020-12-05T09:04:12.000Z</Time>
            <Position>
              <LatitudeDegrees>36.808601729571819305419921875</LatitudeDegrees>
              <LongitudeDegrees>-4.37948531471192836761474609375</LongitudeDegrees>
            </Position>
            <AltitudeMeters>810.20001220703125</AltitudeMeters>
            <DistanceMeters>NAN</DistanceMeters>
          </Trackpoint>
          <Trackpoint>
            <Time>2020-12-05T09:04:13.000Z</Time>
            <Position>
              <LatitudeDegrees>36.8086149729788303375244140625</LatitudeDegrees>
              <LongitudeDegrees>-4.37949411571025848388671875</LongitudeDegrees>
            </Position>
            <AltitudeMeters>810.20001220703125</AltitudeMeters>
            <DistanceMeters>NAN</DistanceMeters>
          </Trackpoint>
          <Trackpoint>
            <Time>2020-12-05T09:04:14.000Z</Time>
            <Position>
              <LatitudeDegrees>36.80862612091004848480224609375</LatitudeDegrees>
              <LongitudeDegrees>-4.379503168165683746337890625</LongitudeDegrees>
            </Position>
            <AltitudeMeters>810.20001220703125</AltitudeMeters>
            <DistanceMeters>NAN</DistanceMeters>
          </Trackpoint>
          <Trackpoint>
            <Time>2020-12-05T09:04:15.000Z</Time>
            <Position>
              <LatitudeDegrees>36.80863969959318637847900390625</LatitudeDegrees>
              <LongitudeDegrees>-4.37950886785984039306640625</LongitudeDegrees>
            </Position>
            <AltitudeMeters>810.4000244140625</AltitudeMeters>
            <DistanceMeters>NAN</DistanceMeters>
          </Trackpoint>
          <Trackpoint>
            <Time>2020-12-05T09:04:16.000Z</Time>
            <Position>
              <LatitudeDegrees>36.80865562520921230316162109375</LatitudeDegrees>
              <LongitudeDegrees>-4.379511214792728424072265625</LongitudeDegrees>
            </Position>
            <AltitudeMeters>810.4000244140625</AltitudeMeters>
            <DistanceMeters>NAN</DistanceMeters>
          </Trackpoint>
          <Trackpoint>
            <Time>2020-12-05T09:04:17.000Z</Time>
            <Position>
              <LatitudeDegrees>36.80867188610136508941650390625</LatitudeDegrees>
              <LongitudeDegrees>-4.379513561725616455078125</LongitudeDegrees>
            </Position>
            <AltitudeMeters>810.4000244140625</AltitudeMeters>
            <DistanceMeters>NAN</DistanceMeters>
          </Trackpoint>
          <Trackpoint>
            <Time>2020-12-05T09:04:18.000Z</Time>
            <Position>
              <LatitudeDegrees>36.80868714116513729095458984375</LatitudeDegrees>
              <LongitudeDegrees>-4.37951599247753620147705078125</LongitudeDegrees>
            </Position>
            <AltitudeMeters>810.5999755859375</AltitudeMeters>
            <DistanceMeters>NAN</DistanceMeters>
          </Trackpoint>
          <Trackpoint>
            <Time>2020-12-05T09:04:19.000Z</Time>
            <Position>
              <LatitudeDegrees>36.80870071984827518463134765625</LatitudeDegrees>
              <LongitudeDegrees>-4.37951699830591678619384765625</LongitudeDegrees>
            </Position>
            <AltitudeMeters>810.5999755859375</AltitudeMeters>
            <DistanceMeters>NAN</DistanceMeters>
          </Trackpoint>
          <Trackpoint>
            <Time>2020-12-05T09:04:20.000Z</Time>
            <Position>
              <LatitudeDegrees>36.80871463380753993988037109375</LatitudeDegrees>
              <LongitudeDegrees>-4.37951465137302875518798828125</LongitudeDegrees>
            </Position>
            <AltitudeMeters>810.5999755859375</AltitudeMeters>
            <DistanceMeters>NAN</DistanceMeters>
          </Trackpoint>
          <Trackpoint>
            <Time>2020-12-05T09:04:21.000Z</Time>
            <Position>
              <LatitudeDegrees>36.808726787567138671875</LatitudeDegrees>
              <LongitudeDegrees>-4.37951347790658473968505859375</LongitudeDegrees>
            </Position>
            <AltitudeMeters>810.20001220703125</AltitudeMeters>
            <DistanceMeters>NAN</DistanceMeters>
          </Trackpoint>
          <Trackpoint>
            <Time>2020-12-05T09:04:22.000Z</Time>
            <Position>
              <LatitudeDegrees>36.80873977951705455780029296875</LatitudeDegrees>
              <LongitudeDegrees>-4.3795103766024112701416015625</LongitudeDegrees>
            </Position>
            <AltitudeMeters>809.20001220703125</AltitudeMeters>
            <DistanceMeters>NAN</DistanceMeters>
          </Trackpoint>
          <Trackpoint>
            <Time>2020-12-05T09:04:23.000Z</Time>
            <Position>
              <LatitudeDegrees>36.80875319056212902069091796875</LatitudeDegrees>
              <LongitudeDegrees>-4.3795093707740306854248046875</LongitudeDegrees>
            </Position>
            <AltitudeMeters>808.5999755859375</AltitudeMeters>
            <DistanceMeters>NAN</DistanceMeters>
          </Trackpoint>
          <Trackpoint>
            <Time>2020-12-05T09:04:24.000Z</Time>
            <Position>
              <LatitudeDegrees>36.80876542814075946807861328125</LatitudeDegrees>
              <LongitudeDegrees>-4.3795070238411426544189453125</LongitudeDegrees>
            </Position>
            <AltitudeMeters>808.20001220703125</AltitudeMeters>
            <DistanceMeters>NAN</DistanceMeters>
          </Trackpoint>
          <Trackpoint>
            <Time>2020-12-05T09:04:25.000Z</Time>
            <Position>
              <LatitudeDegrees>36.80877582170069217681884765625</LatitudeDegrees>
              <LongitudeDegrees>-4.37950124032795429229736328125</LongitudeDegrees>
            </Position>
            <AltitudeMeters>808</AltitudeMeters>
            <DistanceMeters>NAN</DistanceMeters>
          </Trackpoint>
          <Trackpoint>
            <Time>2020-12-05T09:04:26.000Z</Time>
            <Position>
              <LatitudeDegrees>36.808784119784832000732421875</LatitudeDegrees>
              <LongitudeDegrees>-4.37949403189122676849365234375</LongitudeDegrees>
            </Position>
            <AltitudeMeters>808.20001220703125</AltitudeMeters>
            <DistanceMeters>NAN</DistanceMeters>
          </Trackpoint>
          <Trackpoint>
            <Time>2020-12-05T09:04:27.000Z</Time>
            <Position>
              <LatitudeDegrees>36.8087899871170520782470703125</LatitudeDegrees>
              <LongitudeDegrees>-4.379484392702579498291015625</LongitudeDegrees>
            </Position>
            <AltitudeMeters>808.4000244140625</AltitudeMeters>
            <DistanceMeters>NAN</DistanceMeters>
          </Trackpoint>
          <Trackpoint>
            <Time>2020-12-05T09:04:28.000Z</Time>
            <Position>
              <LatitudeDegrees>36.80879711173474788665771484375</LatitudeDegrees>
              <LongitudeDegrees>-4.3794719874858856201171875</LongitudeDegrees>
            </Position>
            <AltitudeMeters>808.5999755859375</AltitudeMeters>
            <DistanceMeters>NAN</DistanceMeters>
          </Trackpoint>
          <Trackpoint>
            <Time>2020-12-05T09:04:29.000Z</Time>
            <Position>
              <LatitudeDegrees>36.80880364961922168731689453125</LatitudeDegrees>
              <LongitudeDegrees>-4.37946033664047718048095703125</LongitudeDegrees>
            </Position>
            <AltitudeMeters>808.79998779296875</AltitudeMeters>
            <DistanceMeters>NAN</DistanceMeters>
          </Trackpoint>
          <Trackpoint>
            <Time>2020-12-05T09:04:30.000Z</Time>
            <Position>
              <LatitudeDegrees>36.80881270207464694976806640625</LatitudeDegrees>
              <LongitudeDegrees>-4.3794480152428150177001953125</LongitudeDegrees>
            </Position>
            <AltitudeMeters>808.5999755859375</AltitudeMeters>
            <DistanceMeters>NAN</DistanceMeters>
          </Trackpoint>
          <Trackpoint>
            <Time>2020-12-05T09:04:31.000Z</Time>
            <Position>
              <LatitudeDegrees>36.80882577784359455108642578125</LatitudeDegrees>
              <LongitudeDegrees>-4.37943636439740657806396484375</LongitudeDegrees>
            </Position>
            <AltitudeMeters>808.4000244140625</AltitudeMeters>
            <DistanceMeters>NAN</DistanceMeters>
          </Trackpoint>
          <Trackpoint>
            <Time>2020-12-05T09:04:32.000Z</Time>
            <Position>
              <LatitudeDegrees>36.80883985944092273712158203125</LatitudeDegrees>
              <LongitudeDegrees>-4.379428066313266754150390625</LongitudeDegrees>
            </Position>
            <AltitudeMeters>807.79998779296875</AltitudeMeters>
            <DistanceMeters>NAN</DistanceMeters>
          </Trackpoint>
          <Trackpoint>
            <Time>2020-12-05T09:04:33.000Z</Time>
            <Position>
              <LatitudeDegrees>36.8088523484766483306884765625</LatitudeDegrees>
              <LongitudeDegrees>-4.3794198520481586456298828125</LongitudeDegrees>
            </Position>
            <AltitudeMeters>807.4000244140625</AltitudeMeters>
            <DistanceMeters>NAN</DistanceMeters>
          </Trackpoint>
          <Trackpoint>
            <Time>2020-12-05T09:04:34.000Z</Time>
            <Position>
              <LatitudeDegrees>36.808863915503025054931640625</LatitudeDegrees>
              <LongitudeDegrees>-4.37941356562077999114990234375</LongitudeDegrees>
            </Position>
            <AltitudeMeters>807.20001220703125</AltitudeMeters>
            <DistanceMeters>NAN</DistanceMeters>
          </Trackpoint>
          <Trackpoint>
            <Time>2020-12-05T09:04:35.000Z</Time>
            <Position>
              <LatitudeDegrees>36.80887388996779918670654296875</LatitudeDegrees>
              <LongitudeDegrees>-4.3794097937643527984619140625</LongitudeDegrees>
            </Position>
            <AltitudeMeters>807</AltitudeMeters>
            <DistanceMeters>NAN</DistanceMeters>
          </Trackpoint>
          <Trackpoint>
            <Time>2020-12-05T09:04:36.000Z</Time>
            <Position>
              <LatitudeDegrees>36.80888512171804904937744140625</LatitudeDegrees>
              <LongitudeDegrees>-4.37940417788922786712646484375</LongitudeDegrees>
            </Position>
            <AltitudeMeters>807</AltitudeMeters>
            <DistanceMeters>NAN</DistanceMeters>
          </Trackpoint>
          <Trackpoint>
            <Time>2020-12-05T09:04:37.000Z</Time>
            <Position>
              <LatitudeDegrees>36.80889601819217205047607421875</LatitudeDegrees>
              <LongitudeDegrees>-4.379399232566356658935546875</LongitudeDegrees>
            </Position>
            <AltitudeMeters>807.20001220703125</AltitudeMeters>
            <DistanceMeters>NAN</DistanceMeters>
          </Trackpoint>
          <Trackpoint>
            <Time>2020-12-05T09:04:38.000Z</Time>
            <Position>
              <LatitudeDegrees>36.80890716612339019775390625</LatitudeDegrees>
              <LongitudeDegrees>-4.37939294613897800445556640625</LongitudeDegrees>
            </Position>
            <AltitudeMeters>807.4000244140625</AltitudeMeters>
            <DistanceMeters>NAN</DistanceMeters>
          </Trackpoint>
          <Trackpoint>
            <Time>2020-12-05T09:04:39.000Z</Time>
            <Position>
              <LatitudeDegrees>36.80891714058816432952880859375</LatitudeDegrees>
              <LongitudeDegrees>-4.37938624061644077301025390625</LongitudeDegrees>
            </Position>
            <AltitudeMeters>807.5999755859375</AltitudeMeters>
            <DistanceMeters>NAN</DistanceMeters>
          </Trackpoint>
          <Trackpoint>
            <Time>2020-12-05T09:04:40.000Z</Time>
            <Position>
              <LatitudeDegrees>36.80892451666295528411865234375</LatitudeDegrees>
              <LongitudeDegrees>-4.37937903217971324920654296875</LongitudeDegrees>
            </Position>
            <AltitudeMeters>807.5999755859375</AltitudeMeters>
            <DistanceMeters>NAN</DistanceMeters>
          </Trackpoint>
          <Trackpoint>
            <Time>2020-12-05T09:04:41.000Z</Time>
            <Position>
              <LatitudeDegrees>36.80893122218549251556396484375</LatitudeDegrees>
              <LongitudeDegrees>-4.37937207520008087158203125</LongitudeDegrees>
            </Position>
            <AltitudeMeters>807.79998779296875</AltitudeMeters>
            <DistanceMeters>NAN</DistanceMeters>
          </Trackpoint>
          <Trackpoint>
            <Time>2020-12-05T09:04:42.000Z</Time>
            <Position>
              <LatitudeDegrees>36.8089378438889980316162109375</LatitudeDegrees>
              <LongitudeDegrees>-4.379363358020782470703125</LongitudeDegrees>
            </Position>
            <AltitudeMeters>808.20001220703125</AltitudeMeters>
            <DistanceMeters>NAN</DistanceMeters>
          </Trackpoint>
          <Trackpoint>
            <Time>2020-12-05T09:04:43.000Z</Time>
            <Position>
              <LatitudeDegrees>36.80894429795444011688232421875</LatitudeDegrees>
              <LongitudeDegrees>-4.379356317222118377685546875</LongitudeDegrees>
            </Position>
            <AltitudeMeters>808.4000244140625</AltitudeMeters>
            <DistanceMeters>NAN</DistanceMeters>
          </Trackpoint>
          <Trackpoint>
            <Time>2020-12-05T09:04:44.000Z</Time>
            <Position>
              <LatitudeDegrees>36.80895284749567508697509765625</LatitudeDegrees>
              <LongitudeDegrees>-4.3793477676808834075927734375</LongitudeDegrees>
            </Position>
            <AltitudeMeters>808.4000244140625</AltitudeMeters>
            <DistanceMeters>NAN</DistanceMeters>
          </Trackpoint>
          <Trackpoint>
            <Time>2020-12-05T09:04:45.000Z</Time>
            <Position>
              <LatitudeDegrees>36.808960139751434326171875</LatitudeDegrees>
              <LongitudeDegrees>-4.37933854758739471435546875</LongitudeDegrees>
            </Position>
            <AltitudeMeters>808.4000244140625</AltitudeMeters>
            <DistanceMeters>NAN</DistanceMeters>
          </Trackpoint>
          <Trackpoint>
            <Time>2020-12-05T09:04:46.000Z</Time>
            <Position>
              <LatitudeDegrees>36.808969862759113311767578125</LatitudeDegrees>
              <LongitudeDegrees>-4.379326142370700836181640625</LongitudeDegrees>
            </Position>
            <AltitudeMeters>808.20001220703125</AltitudeMeters>
            <DistanceMeters>NAN</DistanceMeters>
          </Trackpoint>
          <Trackpoint>
            <Time>2020-12-05T09:04:47.000Z</Time>
            <Position>
              <LatitudeDegrees>36.8089797534048557281494140625</LatitudeDegrees>
              <LongitudeDegrees>-4.37931331805884838104248046875</LongitudeDegrees>
            </Position>
            <AltitudeMeters>808</AltitudeMeters>
            <DistanceMeters>NAN</DistanceMeters>
          </Trackpoint>
          <Trackpoint>
            <Time>2020-12-05T09:04:48.000Z</Time>
            <Position>
              <LatitudeDegrees>36.8089914880692958831787109375</LatitudeDegrees>
              <LongitudeDegrees>-4.37930024228990077972412109375</LongitudeDegrees>
            </Position>
            <AltitudeMeters>808</AltitudeMeters>
            <DistanceMeters>NAN</DistanceMeters>
          </Trackpoint>
          <Trackpoint>
            <Time>2020-12-05T09:04:49.000Z</Time>
            <Position>
              <LatitudeDegrees>36.809003055095672607421875</LatitudeDegrees>
              <LongitudeDegrees>-4.37929253093898296356201171875</LongitudeDegrees>
            </Position>
            <AltitudeMeters>807.79998779296875</AltitudeMeters>
            <DistanceMeters>NAN</DistanceMeters>
          </Trackpoint>
          <Trackpoint>
            <Time>2020-12-05T09:04:50.000Z</Time>
            <Position>
              <LatitudeDegrees>36.809016130864620208740234375</LatitudeDegrees>
              <LongitudeDegrees>-4.3792880885303020477294921875</LongitudeDegrees>
            </Position>
            <AltitudeMeters>807.79998779296875</AltitudeMeters>
            <DistanceMeters>NAN</DistanceMeters>
          </Trackpoint>
          <Trackpoint>
            <Time>2020-12-05T09:04:51.000Z</Time>
            <Position>
              <LatitudeDegrees>36.80902744643390178680419921875</LatitudeDegrees>
              <LongitudeDegrees>-4.3792803771793842315673828125</LongitudeDegrees>
            </Position>
            <AltitudeMeters>807.5999755859375</AltitudeMeters>
            <DistanceMeters>NAN</DistanceMeters>
          </Trackpoint>
          <Trackpoint>
            <Time>2020-12-05T09:04:52.000Z</Time>
            <Position>
              <LatitudeDegrees>36.80903725326061248779296875</LatitudeDegrees>
              <LongitudeDegrees>-4.3792723305523395538330078125</LongitudeDegrees>
            </Position>
            <AltitudeMeters>807.79998779296875</AltitudeMeters>
            <DistanceMeters>NAN</DistanceMeters>
          </Trackpoint>
          <Trackpoint>
            <Time>2020-12-05T09:04:53.000Z</Time>
            <Position>
              <LatitudeDegrees>36.809046976268291473388671875</LatitudeDegrees>
              <LongitudeDegrees>-4.379263110458850860595703125</LongitudeDegrees>
            </Position>
            <AltitudeMeters>807.79998779296875</AltitudeMeters>
            <DistanceMeters>NAN</DistanceMeters>
          </Trackpoint>
          <Trackpoint>
            <Time>2020-12-05T09:04:54.000Z</Time>
            <Position>
              <LatitudeDegrees>36.80905762128531932830810546875</LatitudeDegrees>
              <LongitudeDegrees>-4.379253722727298736572265625</LongitudeDegrees>
            </Position>
            <AltitudeMeters>807.5999755859375</AltitudeMeters>
            <DistanceMeters>NAN</DistanceMeters>
          </Trackpoint>
          <Trackpoint>
            <Time>2020-12-05T09:04:55.000Z</Time>
            <Position>
              <LatitudeDegrees>36.80906935594975948333740234375</LatitudeDegrees>
              <LongitudeDegrees>-4.3792461790144443511962890625</LongitudeDegrees>
            </Position>
            <AltitudeMeters>807.4000244140625</AltitudeMeters>
            <DistanceMeters>NAN</DistanceMeters>
          </Trackpoint>
          <Trackpoint>
            <Time>2020-12-05T09:04:56.000Z</Time>
            <Position>
              <LatitudeDegrees>36.8090810067951679229736328125</LatitudeDegrees>
              <LongitudeDegrees>-4.37923486344516277313232421875</LongitudeDegrees>
            </Position>
            <AltitudeMeters>806.5999755859375</AltitudeMeters>
            <DistanceMeters>NAN</DistanceMeters>
          </Trackpoint>
          <Trackpoint>
            <Time>2020-12-05T09:04:57.000Z</Time>
            <Position>
              <LatitudeDegrees>36.8090940825641155242919921875</LatitudeDegrees>
              <LongitudeDegrees>-4.37922111712396144866943359375</LongitudeDegrees>
            </Position>
            <AltitudeMeters>805.79998779296875</AltitudeMeters>
            <DistanceMeters>NAN</DistanceMeters>
          </Trackpoint>
          <Trackpoint>
            <Time>2020-12-05T09:04:58.000Z</Time>
            <Position>
              <LatitudeDegrees>36.80910405702888965606689453125</LatitudeDegrees>
              <LongitudeDegrees>-4.3792066164314746856689453125</LongitudeDegrees>
            </Position>
            <AltitudeMeters>805.20001220703125</AltitudeMeters>
            <DistanceMeters>NAN</DistanceMeters>
          </Trackpoint>
          <Trackpoint>
            <Time>2020-12-05T09:04:59.000Z</Time>
            <Position>
              <LatitudeDegrees>36.80911310948431491851806640625</LatitudeDegrees>
              <LongitudeDegrees>-4.3791932053864002227783203125</LongitudeDegrees>
            </Position>
            <AltitudeMeters>804.5999755859375</AltitudeMeters>
            <DistanceMeters>NAN</DistanceMeters>
          </Trackpoint>
          <Trackpoint>
            <Time>2020-12-05T09:05:00.000Z</Time>
            <Position>
              <LatitudeDegrees>36.8091224133968353271484375</LatitudeDegrees>
              <LongitudeDegrees>-4.379181973636150360107421875</LongitudeDegrees>
            </Position>
            <AltitudeMeters>804.4000244140625</AltitudeMeters>
            <DistanceMeters>NAN</DistanceMeters>
          </Trackpoint>
          <Trackpoint>
            <Time>2020-12-05T09:05:01.000Z</Time>
            <Position>
              <LatitudeDegrees>36.80913020856678485870361328125</LatitudeDegrees>
              <LongitudeDegrees>-4.3791744299232959747314453125</LongitudeDegrees>
            </Position>
            <AltitudeMeters>804</AltitudeMeters>
            <DistanceMeters>NAN</DistanceMeters>
          </Trackpoint>
          <Trackpoint>
            <Time>2020-12-05T09:05:02.000Z</Time>
            <Position>
              <LatitudeDegrees>36.80913959629833698272705078125</LatitudeDegrees>
              <LongitudeDegrees>-4.379170574247837066650390625</LongitudeDegrees>
            </Position>
            <AltitudeMeters>804</AltitudeMeters>
            <DistanceMeters>NAN</DistanceMeters>
          </Trackpoint>
          <Trackpoint>
            <Time>2020-12-05T09:05:03.000Z</Time>
            <Position>
              <LatitudeDegrees>36.8091494031250476837158203125</LatitudeDegrees>
              <LongitudeDegrees>-4.37916554510593414306640625</LongitudeDegrees>
            </Position>
            <AltitudeMeters>803.4000244140625</AltitudeMeters>
            <DistanceMeters>NAN</DistanceMeters>
          </Trackpoint>
          <Trackpoint>
            <Time>2020-12-05T09:05:04.000Z</Time>
            <Position>
              <LatitudeDegrees>36.80916004814207553863525390625</LatitudeDegrees>
              <LongitudeDegrees>-4.37915875576436519622802734375</LongitudeDegrees>
            </Position>
            <AltitudeMeters>802.79998779296875</AltitudeMeters>
            <DistanceMeters>NAN</DistanceMeters>
          </Trackpoint>
          <Trackpoint>
            <Time>2020-12-05T09:05:05.000Z</Time>
            <Position>
              <LatitudeDegrees>36.80916876532137393951416015625</LatitudeDegrees>
              <LongitudeDegrees>-4.3791501224040985107421875</LongitudeDegrees>
            </Position>
            <AltitudeMeters>802.5999755859375</AltitudeMeters>
            <DistanceMeters>NAN</DistanceMeters>
          </Trackpoint>
          <Trackpoint>
            <Time>2020-12-05T09:05:06.000Z</Time>
            <Position>
              <LatitudeDegrees>36.809177398681640625</LatitudeDegrees>
              <LongitudeDegrees>-4.379146434366703033447265625</LongitudeDegrees>
            </Position>
            <AltitudeMeters>802.5999755859375</AltitudeMeters>
            <DistanceMeters>NAN</DistanceMeters>
          </Trackpoint>
          <Trackpoint>
            <Time>2020-12-05T09:05:07.000Z</Time>
            <Position>
              <LatitudeDegrees>36.80918720550835132598876953125</LatitudeDegrees>
              <LongitudeDegrees>-4.3791415728628635406494140625</LongitudeDegrees>
            </Position>
            <AltitudeMeters>802.4000244140625</AltitudeMeters>
            <DistanceMeters>NAN</DistanceMeters>
          </Trackpoint>
          <Trackpoint>
            <Time>2020-12-05T09:05:08.000Z</Time>
            <Position>
              <LatitudeDegrees>36.8091990239918231964111328125</LatitudeDegrees>
              <LongitudeDegrees>-4.3791318498551845550537109375</LongitudeDegrees>
            </Position>
            <AltitudeMeters>802.5999755859375</AltitudeMeters>
            <DistanceMeters>NAN</DistanceMeters>
          </Trackpoint>
          <Trackpoint>
            <Time>2020-12-05T09:05:09.000Z</Time>
            <Position>
              <LatitudeDegrees>36.80921218357980251312255859375</LatitudeDegrees>
              <LongitudeDegrees>-4.37911936081945896148681640625</LongitudeDegrees>
            </Position>
            <AltitudeMeters>802.5999755859375</AltitudeMeters>
            <DistanceMeters>NAN</DistanceMeters>
          </Trackpoint>
          <Trackpoint>
            <Time>2020-12-05T09:05:10.000Z</Time>
            <Position>
              <LatitudeDegrees>36.80922676809132099151611328125</LatitudeDegrees>
              <LongitudeDegrees>-4.37910779379308223724365234375</LongitudeDegrees>
            </Position>
            <AltitudeMeters>802.79998779296875</AltitudeMeters>
            <DistanceMeters>NAN</DistanceMeters>
          </Trackpoint>
          <Trackpoint>
            <Time>2020-12-05T09:05:11.000Z</Time>
            <Position>
              <LatitudeDegrees>36.8092429451644420623779296875</LatitudeDegrees>
              <LongitudeDegrees>-4.37909522093832492828369140625</LongitudeDegrees>
            </Position>
            <AltitudeMeters>803.20001220703125</AltitudeMeters>
            <DistanceMeters>NAN</DistanceMeters>
          </Trackpoint>
          <Trackpoint>
            <Time>2020-12-05T09:05:12.000Z</Time>
            <Position>
              <LatitudeDegrees>36.8092553503811359405517578125</LatitudeDegrees>
              <LongitudeDegrees>-4.379080720245838165283203125</LongitudeDegrees>
            </Position>
            <AltitudeMeters>803.4000244140625</AltitudeMeters>
            <DistanceMeters>NAN</DistanceMeters>
          </Trackpoint>
          <Trackpoint>
            <Time>2020-12-05T09:05:13.000Z</Time>
            <Position>
              <LatitudeDegrees>36.8092674203217029571533203125</LatitudeDegrees>
              <LongitudeDegrees>-4.37907376326620578765869140625</LongitudeDegrees>
            </Position>
            <AltitudeMeters>803.79998779296875</AltitudeMeters>
            <DistanceMeters>NAN</DistanceMeters>
          </Trackpoint>
          <Trackpoint>
            <Time>2020-12-05T09:05:14.000Z</Time>
            <Position>
              <LatitudeDegrees>36.8092784844338893890380859375</LatitudeDegrees>
              <LongitudeDegrees>-4.37906437553465366363525390625</LongitudeDegrees>
            </Position>
            <AltitudeMeters>804.20001220703125</AltitudeMeters>
            <DistanceMeters>NAN</DistanceMeters>
          </Trackpoint>
          <Trackpoint>
            <Time>2020-12-05T09:05:15.000Z</Time>
            <Position>
              <LatitudeDegrees>36.809287369251251220703125</LatitudeDegrees>
              <LongitudeDegrees>-4.3790577538311481475830078125</LongitudeDegrees>
            </Position>
            <AltitudeMeters>804.4000244140625</AltitudeMeters>
            <DistanceMeters>NAN</DistanceMeters>
          </Trackpoint>
          <Trackpoint>
            <Time>2020-12-05T09:05:16.000Z</Time>
            <Position>
              <LatitudeDegrees>36.80929767899215221405029296875</LatitudeDegrees>
              <LongitudeDegrees>-4.3790490366518497467041015625</LongitudeDegrees>
            </Position>
            <AltitudeMeters>804.5999755859375</AltitudeMeters>
            <DistanceMeters>NAN</DistanceMeters>
          </Trackpoint>
          <Trackpoint>
            <Time>2020-12-05T09:05:17.000Z</Time>
            <Position>
              <LatitudeDegrees>36.8093074858188629150390625</LatitudeDegrees>
              <LongitudeDegrees>-4.379039816558361053466796875</LongitudeDegrees>
            </Position>
            <AltitudeMeters>804.5999755859375</AltitudeMeters>
            <DistanceMeters>NAN</DistanceMeters>
          </Trackpoint>
          <Trackpoint>
            <Time>2020-12-05T09:05:18.000Z</Time>
            <Position>
              <LatitudeDegrees>36.80931729264557361602783203125</LatitudeDegrees>
              <LongitudeDegrees>-4.37903285957872867584228515625</LongitudeDegrees>
            </Position>
            <AltitudeMeters>804.5999755859375</AltitudeMeters>
            <DistanceMeters>NAN</DistanceMeters>
          </Trackpoint>
          <Trackpoint>
            <Time>2020-12-05T09:05:19.000Z</Time>
            <Position>
              <LatitudeDegrees>36.8093257583677768707275390625</LatitudeDegrees>
              <LongitudeDegrees>-4.379022382199764251708984375</LongitudeDegrees>
            </Position>
            <AltitudeMeters>804.4000244140625</AltitudeMeters>
            <DistanceMeters>NAN</DistanceMeters>
          </Trackpoint>
          <Trackpoint>
            <Time>2020-12-05T09:05:20.000Z</Time>
            <Position>
              <LatitudeDegrees>36.809331960976123809814453125</LatitudeDegrees>
              <LongitudeDegrees>-4.3790121562778949737548828125</LongitudeDegrees>
            </Position>
            <AltitudeMeters>803.5999755859375</AltitudeMeters>
            <DistanceMeters>NAN</DistanceMeters>
          </Trackpoint>
          <Trackpoint>
            <Time>2020-12-05T09:05:21.000Z</Time>
            <Position>
              <LatitudeDegrees>36.8093383312225341796875</LatitudeDegrees>
              <LongitudeDegrees>-4.3790027685463428497314453125</LongitudeDegrees>
            </Position>
            <AltitudeMeters>802.79998779296875</AltitudeMeters>
            <DistanceMeters>NAN</DistanceMeters>
          </Trackpoint>
          <Trackpoint>
            <Time>2020-12-05T09:05:22.000Z</Time>
            <Position>
              <LatitudeDegrees>36.80934143252670764923095703125</LatitudeDegrees>
              <LongitudeDegrees>-4.378994889557361602783203125</LongitudeDegrees>
            </Position>
            <AltitudeMeters>802.4000244140625</AltitudeMeters>
            <DistanceMeters>NAN</DistanceMeters>
          </Trackpoint>
          <Trackpoint>
            <Time>2020-12-05T09:05:23.000Z</Time>
            <Position>
              <LatitudeDegrees>36.8093418516218662261962890625</LatitudeDegrees>
              <LongitudeDegrees>-4.3789900280535221099853515625</LongitudeDegrees>
            </Position>
            <AltitudeMeters>802</AltitudeMeters>
            <DistanceMeters>NAN</DistanceMeters>
          </Trackpoint>
          <Trackpoint>
            <Time>2020-12-05T09:05:24.000Z</Time>
            <Position>
              <LatitudeDegrees>36.80934327654540538787841796875</LatitudeDegrees>
              <LongitudeDegrees>-4.3789866752922534942626953125</LongitudeDegrees>
            </Position>
            <AltitudeMeters>801.79998779296875</AltitudeMeters>
            <DistanceMeters>NAN</DistanceMeters>
          </Trackpoint>
          <Trackpoint>
            <Time>2020-12-05T09:05:25.000Z</Time>
            <Position>
              <LatitudeDegrees>36.80934629403054714202880859375</LatitudeDegrees>
              <LongitudeDegrees>-4.378984160721302032470703125</LongitudeDegrees>
            </Position>
            <AltitudeMeters>801.5999755859375</AltitudeMeters>
            <DistanceMeters>NAN</DistanceMeters>
          </Trackpoint>
          <Trackpoint>
            <Time>2020-12-05T09:05:26.000Z</Time>
            <Position>
              <LatitudeDegrees>36.80935316719114780426025390625</LatitudeDegrees>
              <LongitudeDegrees>-4.37898156233131885528564453125</LongitudeDegrees>
            </Position>
            <AltitudeMeters>801.79998779296875</AltitudeMeters>
            <DistanceMeters>NAN</DistanceMeters>
          </Trackpoint>
          <Trackpoint>
            <Time>2020-12-05T09:05:27.000Z</Time>
            <Position>
              <LatitudeDegrees>36.80936406366527080535888671875</LatitudeDegrees>
              <LongitudeDegrees>-4.37897787429392337799072265625</LongitudeDegrees>
            </Position>
            <AltitudeMeters>802</AltitudeMeters>
            <DistanceMeters>NAN</DistanceMeters>
          </Trackpoint>
          <Trackpoint>
            <Time>2020-12-05T09:05:28.000Z</Time>
            <Position>
              <LatitudeDegrees>36.80937789380550384521484375</LatitudeDegrees>
              <LongitudeDegrees>-4.3789709173142910003662109375</LongitudeDegrees>
            </Position>
            <AltitudeMeters>802</AltitudeMeters>
            <DistanceMeters>NAN</DistanceMeters>
          </Trackpoint>
          <Trackpoint>
            <Time>2020-12-05T09:05:29.000Z</Time>
            <Position>
              <LatitudeDegrees>36.809390299022197723388671875</LatitudeDegrees>
              <LongitudeDegrees>-4.37896211631596088409423828125</LongitudeDegrees>
            </Position>
            <AltitudeMeters>802</AltitudeMeters>
            <DistanceMeters>NAN</DistanceMeters>
          </Trackpoint>
          <Trackpoint>
            <Time>2020-12-05T09:05:30.000Z</Time>
            <Position>
              <LatitudeDegrees>36.8094045482575893402099609375</LatitudeDegrees>
              <LongitudeDegrees>-4.37894954346120357513427734375</LongitudeDegrees>
            </Position>
            <AltitudeMeters>802</AltitudeMeters>
            <DistanceMeters>NAN</DistanceMeters>
          </Trackpoint>
          <Trackpoint>
            <Time>2020-12-05T09:05:31.000Z</Time>
            <Position>
              <LatitudeDegrees>36.80941946804523468017578125</LatitudeDegrees>
              <LongitudeDegrees>-4.3789343722164630889892578125</LongitudeDegrees>
            </Position>
            <AltitudeMeters>802</AltitudeMeters>
            <DistanceMeters>NAN</DistanceMeters>
          </Trackpoint>
          <Trackpoint>
            <Time>2020-12-05T09:05:32.000Z</Time>
            <Position>
              <LatitudeDegrees>36.8094317056238651275634765625</LatitudeDegrees>
              <LongitudeDegrees>-4.37892070971429347991943359375</LongitudeDegrees>
            </Position>
            <AltitudeMeters>801.79998779296875</AltitudeMeters>
            <DistanceMeters>NAN</DistanceMeters>
          </Trackpoint>
          <Trackpoint>
            <Time>2020-12-05T09:05:33.000Z</Time>
            <Position>
              <LatitudeDegrees>36.8094410933554172515869140625</LatitudeDegrees>
              <LongitudeDegrees>-4.378909058868885040283203125</LongitudeDegrees>
            </Position>
            <AltitudeMeters>801.5999755859375</AltitudeMeters>
            <DistanceMeters>NAN</DistanceMeters>
          </Trackpoint>
          <Trackpoint>
            <Time>2020-12-05T09:05:34.000Z</Time>
            <Position>
              <LatitudeDegrees>36.80944972671568393707275390625</LatitudeDegrees>
              <LongitudeDegrees>-4.37889640219509601593017578125</LongitudeDegrees>
            </Position>
            <AltitudeMeters>801.4000244140625</AltitudeMeters>
            <DistanceMeters>NAN</DistanceMeters>
          </Trackpoint>
          <Trackpoint>
            <Time>2020-12-05T09:05:35.000Z</Time>
            <Position>
              <LatitudeDegrees>36.80945978499948978424072265625</LatitudeDegrees>
              <LongitudeDegrees>-4.37888014130294322967529296875</LongitudeDegrees>
            </Position>
            <AltitudeMeters>801.20001220703125</AltitudeMeters>
            <DistanceMeters>NAN</DistanceMeters>
          </Trackpoint>
          <Trackpoint>
            <Time>2020-12-05T09:05:36.000Z</Time>
            <Position>
              <LatitudeDegrees>36.8094729445874691009521484375</LatitudeDegrees>
              <LongitudeDegrees>-4.378865472972393035888671875</LongitudeDegrees>
            </Position>
            <AltitudeMeters>801</AltitudeMeters>
            <DistanceMeters>NAN</DistanceMeters>
          </Trackpoint>
          <Trackpoint>
            <Time>2020-12-05T09:05:37.000Z</Time>
            <Position>
              <LatitudeDegrees>36.8094846792519092559814453125</LatitudeDegrees>
              <LongitudeDegrees>-4.3788522295653820037841796875</LongitudeDegrees>
            </Position>
            <AltitudeMeters>800.79998779296875</AltitudeMeters>
            <DistanceMeters>NAN</DistanceMeters>
          </Trackpoint>
          <Trackpoint>
            <Time>2020-12-05T09:05:38.000Z</Time>
            <Position>
              <LatitudeDegrees>36.80949515663087368011474609375</LatitudeDegrees>
              <LongitudeDegrees>-4.37883806414902210235595703125</LongitudeDegrees>
            </Position>
            <AltitudeMeters>800.79998779296875</AltitudeMeters>
            <DistanceMeters>NAN</DistanceMeters>
          </Trackpoint>
          <Trackpoint>
            <Time>2020-12-05T09:05:39.000Z</Time>
            <Position>
              <LatitudeDegrees>36.80950337089598178863525390625</LatitudeDegrees>
              <LongitudeDegrees>-4.378821216523647308349609375</LongitudeDegrees>
            </Position>
            <AltitudeMeters>800.79998779296875</AltitudeMeters>
            <DistanceMeters>NAN</DistanceMeters>
          </Trackpoint>
          <Trackpoint>
            <Time>2020-12-05T09:05:40.000Z</Time>
            <Position>
              <LatitudeDegrees>36.80950890295207500457763671875</LatitudeDegrees>
              <LongitudeDegrees>-4.37880420126020908355712890625</LongitudeDegrees>
            </Position>
            <AltitudeMeters>800.79998779296875</AltitudeMeters>
            <DistanceMeters>NAN</DistanceMeters>
          </Trackpoint>
          <Trackpoint>
            <Time>2020-12-05T09:05:41.000Z</Time>
            <Position>
              <LatitudeDegrees>36.80951225571334362030029296875</LatitudeDegrees>
              <LongitudeDegrees>-4.37878743745386600494384765625</LongitudeDegrees>
            </Position>
            <AltitudeMeters>800.79998779296875</AltitudeMeters>
            <DistanceMeters>NAN</DistanceMeters>
          </Trackpoint>
          <Trackpoint>
            <Time>2020-12-05T09:05:42.000Z</Time>
            <Position>
              <LatitudeDegrees>36.8095140159130096435546875</LatitudeDegrees>
              <LongitudeDegrees>-4.378771595656871795654296875</LongitudeDegrees>
            </Position>
            <AltitudeMeters>800.79998779296875</AltitudeMeters>
            <DistanceMeters>NAN</DistanceMeters>
          </Trackpoint>
          <Trackpoint>
            <Time>2020-12-05T09:05:43.000Z</Time>
            <Position>
              <LatitudeDegrees>36.8095161952078342437744140625</LatitudeDegrees>
              <LongitudeDegrees>-4.37875877134501934051513671875</LongitudeDegrees>
            </Position>
            <AltitudeMeters>800.5999755859375</AltitudeMeters>
            <DistanceMeters>NAN</DistanceMeters>
          </Trackpoint>
          <Trackpoint>
            <Time>2020-12-05T09:05:44.000Z</Time>
            <Position>
              <LatitudeDegrees>36.80951795540750026702880859375</LatitudeDegrees>
              <LongitudeDegrees>-4.37874619849026203155517578125</LongitudeDegrees>
            </Position>
            <AltitudeMeters>800.4000244140625</AltitudeMeters>
            <DistanceMeters>NAN</DistanceMeters>
          </Trackpoint>
          <Trackpoint>
            <Time>2020-12-05T09:05:45.000Z</Time>
            <Position>
              <LatitudeDegrees>36.80951963178813457489013671875</LatitudeDegrees>
              <LongitudeDegrees>-4.3787338770925998687744140625</LongitudeDegrees>
            </Position>
            <AltitudeMeters>799.79998779296875</AltitudeMeters>
            <DistanceMeters>NAN</DistanceMeters>
          </Trackpoint>
          <Trackpoint>
            <Time>2020-12-05T09:05:46.000Z</Time>
            <Position>
              <LatitudeDegrees>36.809523403644561767578125</LatitudeDegrees>
              <LongitudeDegrees>-4.3787228129804134368896484375</LongitudeDegrees>
            </Position>
            <AltitudeMeters>799.20001220703125</AltitudeMeters>
            <DistanceMeters>NAN</DistanceMeters>
          </Trackpoint>
          <Trackpoint>
            <Time>2020-12-05T09:05:47.000Z</Time>
            <Position>
              <LatitudeDegrees>36.80952801369130611419677734375</LatitudeDegrees>
              <LongitudeDegrees>-4.3787075579166412353515625</LongitudeDegrees>
            </Position>
            <AltitudeMeters>798.79998779296875</AltitudeMeters>
            <DistanceMeters>NAN</DistanceMeters>
          </Trackpoint>
          <Trackpoint>
            <Time>2020-12-05T09:05:48.000Z</Time>
            <Position>
              <LatitudeDegrees>36.80953077971935272216796875</LatitudeDegrees>
              <LongitudeDegrees>-4.37869255430996417999267578125</LongitudeDegrees>
            </Position>
            <AltitudeMeters>798.20001220703125</AltitudeMeters>
            <DistanceMeters>NAN</DistanceMeters>
          </Trackpoint>
          <Trackpoint>
            <Time>2020-12-05T09:05:49.000Z</Time>
            <Position>
              <LatitudeDegrees>36.80953421629965305328369140625</LatitudeDegrees>
              <LongitudeDegrees>-4.37867528758943080902099609375</LongitudeDegrees>
            </Position>
            <AltitudeMeters>798</AltitudeMeters>
            <DistanceMeters>NAN</DistanceMeters>
          </Trackpoint>
          <Trackpoint>
            <Time>2020-12-05T09:05:50.000Z</Time>
            <Position>
              <LatitudeDegrees>36.80953639559447765350341796875</LatitudeDegrees>
              <LongitudeDegrees>-4.3786567635834217071533203125</LongitudeDegrees>
            </Position>
            <AltitudeMeters>797.79998779296875</AltitudeMeters>
            <DistanceMeters>NAN</DistanceMeters>
          </Trackpoint>
          <Trackpoint>
            <Time>2020-12-05T09:05:51.000Z</Time>
            <Position>
              <LatitudeDegrees>36.8095408380031585693359375</LatitudeDegrees>
              <LongitudeDegrees>-4.37863840721547603607177734375</LongitudeDegrees>
            </Position>
            <AltitudeMeters>797.79998779296875</AltitudeMeters>
            <DistanceMeters>NAN</DistanceMeters>
          </Trackpoint>
          <Trackpoint>
            <Time>2020-12-05T09:05:52.000Z</Time>
            <Position>
              <LatitudeDegrees>36.80954662151634693145751953125</LatitudeDegrees>
              <LongitudeDegrees>-4.3786245770752429962158203125</LongitudeDegrees>
            </Position>
            <AltitudeMeters>798.20001220703125</AltitudeMeters>
            <DistanceMeters>NAN</DistanceMeters>
          </Trackpoint>
          <Trackpoint>
            <Time>2020-12-05T09:05:53.000Z</Time>
            <Position>
              <LatitudeDegrees>36.80955232121050357818603515625</LatitudeDegrees>
              <LongitudeDegrees>-4.37861192040145397186279296875</LongitudeDegrees>
            </Position>
            <AltitudeMeters>798.4000244140625</AltitudeMeters>
            <DistanceMeters>NAN</DistanceMeters>
          </Trackpoint>
          <Trackpoint>
            <Time>2020-12-05T09:05:54.000Z</Time>
            <Position>
              <LatitudeDegrees>36.80955701507627964019775390625</LatitudeDegrees>
              <LongitudeDegrees>-4.37859767116606235504150390625</LongitudeDegrees>
            </Position>
            <AltitudeMeters>799</AltitudeMeters>
            <DistanceMeters>NAN</DistanceMeters>
          </Trackpoint>
          <Trackpoint>
            <Time>2020-12-05T09:05:55.000Z</Time>
            <Position>
              <LatitudeDegrees>36.8095596134662628173828125</LatitudeDegrees>
              <LongitudeDegrees>-4.378583841025829315185546875</LongitudeDegrees>
            </Position>
            <AltitudeMeters>799.5999755859375</AltitudeMeters>
            <DistanceMeters>NAN</DistanceMeters>
          </Trackpoint>
          <Trackpoint>
            <Time>2020-12-05T09:05:56.000Z</Time>
            <Position>
              <LatitudeDegrees>36.80956363677978515625</LatitudeDegrees>
              <LongitudeDegrees>-4.3785709328949451446533203125</LongitudeDegrees>
            </Position>
            <AltitudeMeters>800</AltitudeMeters>
            <DistanceMeters>NAN</DistanceMeters>
          </Trackpoint>
          <Trackpoint>
            <Time>2020-12-05T09:05:57.000Z</Time>
            <Position>
              <LatitudeDegrees>36.80956824682652950286865234375</LatitudeDegrees>
              <LongitudeDegrees>-4.37855827622115612030029296875</LongitudeDegrees>
            </Position>
            <AltitudeMeters>800.4000244140625</AltitudeMeters>
            <DistanceMeters>NAN</DistanceMeters>
          </Trackpoint>
          <Trackpoint>
            <Time>2020-12-05T09:05:58.000Z</Time>
            <Position>
              <LatitudeDegrees>36.8095711804926395416259765625</LatitudeDegrees>
              <LongitudeDegrees>-4.37854637391865253448486328125</LongitudeDegrees>
            </Position>
            <AltitudeMeters>800.79998779296875</AltitudeMeters>
            <DistanceMeters>NAN</DistanceMeters>
          </Trackpoint>
          <Trackpoint>
            <Time>2020-12-05T09:05:59.000Z</Time>
            <Position>
              <LatitudeDegrees>36.80957780219614505767822265625</LatitudeDegrees>
              <LongitudeDegrees>-4.378535561263561248779296875</LongitudeDegrees>
            </Position>
            <AltitudeMeters>801</AltitudeMeters>
            <DistanceMeters>NAN</DistanceMeters>
          </Trackpoint>
          <Trackpoint>
            <Time>2020-12-05T09:06:00.000Z</Time>
            <Position>
              <LatitudeDegrees>36.80958936922252178192138671875</LatitudeDegrees>
              <LongitudeDegrees>-4.37853095121681690216064453125</LongitudeDegrees>
            </Position>
            <AltitudeMeters>801.20001220703125</AltitudeMeters>
            <DistanceMeters>NAN</DistanceMeters>
          </Trackpoint>
          <Trackpoint>
            <Time>2020-12-05T09:06:01.000Z</Time>
            <Position>
              <LatitudeDegrees>36.80960210971534252166748046875</LatitudeDegrees>
              <LongitudeDegrees>-4.37852910719811916351318359375</LongitudeDegrees>
            </Position>
            <AltitudeMeters>801.79998779296875</AltitudeMeters>
            <DistanceMeters>NAN</DistanceMeters>
          </Trackpoint>
          <Trackpoint>
            <Time>2020-12-05T09:06:02.000Z</Time>
            <Position>
              <LatitudeDegrees>36.8096151016652584075927734375</LatitudeDegrees>
              <LongitudeDegrees>-4.378529526293277740478515625</LongitudeDegrees>
            </Position>
            <AltitudeMeters>801.79998779296875</AltitudeMeters>
            <DistanceMeters>NAN</DistanceMeters>
          </Trackpoint>
          <Trackpoint>
            <Time>2020-12-05T09:06:03.000Z</Time>
            <Position>
              <LatitudeDegrees>36.80962926708161830902099609375</LatitudeDegrees>
              <LongitudeDegrees>-4.3785293586552143096923828125</LongitudeDegrees>
            </Position>
            <AltitudeMeters>802</AltitudeMeters>
            <DistanceMeters>NAN</DistanceMeters>
          </Trackpoint>
          <Trackpoint>
            <Time>2020-12-05T09:06:04.000Z</Time>
            <Position>
              <LatitudeDegrees>36.80964351631700992584228515625</LatitudeDegrees>
              <LongitudeDegrees>-4.37852474860846996307373046875</LongitudeDegrees>
            </Position>
            <AltitudeMeters>802</AltitudeMeters>
            <DistanceMeters>NAN</DistanceMeters>
          </Trackpoint>
          <Trackpoint>
            <Time>2020-12-05T09:06:05.000Z</Time>
            <Position>
              <LatitudeDegrees>36.80965860374271869659423828125</LatitudeDegrees>
              <LongitudeDegrees>-4.3785196356475353240966796875</LongitudeDegrees>
            </Position>
            <AltitudeMeters>802.20001220703125</AltitudeMeters>
            <DistanceMeters>NAN</DistanceMeters>
          </Trackpoint>
          <Trackpoint>
            <Time>2020-12-05T09:06:06.000Z</Time>
            <Position>
              <LatitudeDegrees>36.8096720986068248748779296875</LatitudeDegrees>
              <LongitudeDegrees>-4.37851703725755214691162109375</LongitudeDegrees>
            </Position>
            <AltitudeMeters>802.20001220703125</AltitudeMeters>
            <DistanceMeters>NAN</DistanceMeters>
          </Trackpoint>
          <Trackpoint>
            <Time>2020-12-05T09:06:07.000Z</Time>
            <Position>
              <LatitudeDegrees>36.809684000909328460693359375</LatitudeDegrees>
              <LongitudeDegrees>-4.37851569615304470062255859375</LongitudeDegrees>
            </Position>
            <AltitudeMeters>802.20001220703125</AltitudeMeters>
            <DistanceMeters>NAN</DistanceMeters>
          </Trackpoint>
          <Trackpoint>
            <Time>2020-12-05T09:06:08.000Z</Time>
            <Position>
              <LatitudeDegrees>36.80969498120248317718505859375</LatitudeDegrees>
              <LongitudeDegrees>-4.37851837836205959320068359375</LongitudeDegrees>
            </Position>
            <AltitudeMeters>802.20001220703125</AltitudeMeters>
            <DistanceMeters>NAN</DistanceMeters>
          </Trackpoint>
          <Trackpoint>
            <Time>2020-12-05T09:06:09.000Z</Time>
            <Position>
              <LatitudeDegrees>36.80970554240047931671142578125</LatitudeDegrees>
              <LongitudeDegrees>-4.378518797457218170166015625</LongitudeDegrees>
            </Position>
            <AltitudeMeters>802.20001220703125</AltitudeMeters>
            <DistanceMeters>NAN</DistanceMeters>
          </Trackpoint>
          <Trackpoint>
            <Time>2020-12-05T09:06:10.000Z</Time>
            <Position>
              <LatitudeDegrees>36.809713505208492279052734375</LatitudeDegrees>
              <LongitudeDegrees>-4.378521144390106201171875</LongitudeDegrees>
            </Position>
            <AltitudeMeters>802.20001220703125</AltitudeMeters>
            <DistanceMeters>NAN</DistanceMeters>
          </Trackpoint>
          <Trackpoint>
            <Time>2020-12-05T09:06:11.000Z</Time>
            <Position>
              <LatitudeDegrees>36.8097230605781078338623046875</LatitudeDegrees>
              <LongitudeDegrees>-4.3785278499126434326171875</LongitudeDegrees>
            </Position>
            <AltitudeMeters>802.20001220703125</AltitudeMeters>
            <DistanceMeters>NAN</DistanceMeters>
          </Trackpoint>
          <Trackpoint>
            <Time>2020-12-05T09:06:12.000Z</Time>
            <Position>
              <LatitudeDegrees>36.80973286740481853485107421875</LatitudeDegrees>
              <LongitudeDegrees>-4.37853547744452953338623046875</LongitudeDegrees>
            </Position>
            <AltitudeMeters>802</AltitudeMeters>
            <DistanceMeters>NAN</DistanceMeters>
          </Trackpoint>
          <Trackpoint>
            <Time>2020-12-05T09:06:13.000Z</Time>
            <Position>
              <LatitudeDegrees>36.80974426679313182830810546875</LatitudeDegrees>
              <LongitudeDegrees>-4.37854553572833538055419921875</LongitudeDegrees>
            </Position>
            <AltitudeMeters>801.5999755859375</AltitudeMeters>
            <DistanceMeters>NAN</DistanceMeters>
          </Trackpoint>
          <Trackpoint>
            <Time>2020-12-05T09:06:14.000Z</Time>
            <Position>
              <LatitudeDegrees>36.8097539059817790985107421875</LatitudeDegrees>
              <LongitudeDegrees>-4.37855140306055545806884765625</LongitudeDegrees>
            </Position>
            <AltitudeMeters>801.20001220703125</AltitudeMeters>
            <DistanceMeters>NAN</DistanceMeters>
          </Trackpoint>
          <Trackpoint>
            <Time>2020-12-05T09:06:15.000Z</Time>
            <Position>
              <LatitudeDegrees>36.8097639642655849456787109375</LatitudeDegrees>
              <LongitudeDegrees>-4.378561042249202728271484375</LongitudeDegrees>
            </Position>
            <AltitudeMeters>801</AltitudeMeters>
            <DistanceMeters>NAN</DistanceMeters>
          </Trackpoint>
          <Trackpoint>
            <Time>2020-12-05T09:06:16.000Z</Time>
            <Position>
              <LatitudeDegrees>36.80977326817810535430908203125</LatitudeDegrees>
              <LongitudeDegrees>-4.37857168726623058319091796875</LongitudeDegrees>
            </Position>
            <AltitudeMeters>800.79998779296875</AltitudeMeters>
            <DistanceMeters>NAN</DistanceMeters>
          </Trackpoint>
          <Trackpoint>
            <Time>2020-12-05T09:06:17.000Z</Time>
            <Position>
              <LatitudeDegrees>36.8097840808331966400146484375</LatitudeDegrees>
              <LongitudeDegrees>-4.37858509831130504608154296875</LongitudeDegrees>
            </Position>
            <AltitudeMeters>800.79998779296875</AltitudeMeters>
            <DistanceMeters>NAN</DistanceMeters>
          </Trackpoint>
          <Trackpoint>
            <Time>2020-12-05T09:06:18.000Z</Time>
            <Position>
              <LatitudeDegrees>36.8097956478595733642578125</LatitudeDegrees>
              <LongitudeDegrees>-4.378596246242523193359375</LongitudeDegrees>
            </Position>
            <AltitudeMeters>800.79998779296875</AltitudeMeters>
            <DistanceMeters>NAN</DistanceMeters>
          </Trackpoint>
          <Trackpoint>
            <Time>2020-12-05T09:06:19.000Z</Time>
            <Position>
              <LatitudeDegrees>36.80980746634304523468017578125</LatitudeDegrees>
              <LongitudeDegrees>-4.37860622070729732513427734375</LongitudeDegrees>
            </Position>
            <AltitudeMeters>800.79998779296875</AltitudeMeters>
            <DistanceMeters>NAN</DistanceMeters>
          </Trackpoint>
          <Trackpoint>
            <Time>2020-12-05T09:06:20.000Z</Time>
            <Position>
              <LatitudeDegrees>36.80982037447392940521240234375</LatitudeDegrees>
              <LongitudeDegrees>-4.3786165304481983184814453125</LongitudeDegrees>
            </Position>
            <AltitudeMeters>800.79998779296875</AltitudeMeters>
            <DistanceMeters>NAN</DistanceMeters>
          </Trackpoint>
          <Trackpoint>
            <Time>2020-12-05T09:06:21.000Z</Time>
            <Position>
              <LatitudeDegrees>36.8098330311477184295654296875</LatitudeDegrees>
              <LongitudeDegrees>-4.37862600199878215789794921875</LongitudeDegrees>
            </Position>
            <AltitudeMeters>800.5999755859375</AltitudeMeters>
            <DistanceMeters>NAN</DistanceMeters>
          </Trackpoint>
          <Trackpoint>
            <Time>2020-12-05T09:06:22.000Z</Time>
            <Position>
              <LatitudeDegrees>36.80984484963119029998779296875</LatitudeDegrees>
              <LongitudeDegrees>-4.3786366470158100128173828125</LongitudeDegrees>
            </Position>
            <AltitudeMeters>800.5999755859375</AltitudeMeters>
            <DistanceMeters>NAN</DistanceMeters>
          </Trackpoint>
          <Trackpoint>
            <Time>2020-12-05T09:06:23.000Z</Time>
            <Position>
              <LatitudeDegrees>36.80985541082918643951416015625</LatitudeDegrees>
              <LongitudeDegrees>-4.37864444218575954437255859375</LongitudeDegrees>
            </Position>
            <AltitudeMeters>800.4000244140625</AltitudeMeters>
            <DistanceMeters>NAN</DistanceMeters>
          </Trackpoint>
          <Trackpoint>
            <Time>2020-12-05T09:06:24.000Z</Time>
            <Position>
              <LatitudeDegrees>36.8098672293126583099365234375</LatitudeDegrees>
              <LongitudeDegrees>-4.37865064479410648345947265625</LongitudeDegrees>
            </Position>
            <AltitudeMeters>800.4000244140625</AltitudeMeters>
            <DistanceMeters>NAN</DistanceMeters>
          </Trackpoint>
          <Trackpoint>
            <Time>2020-12-05T09:06:25.000Z</Time>
            <Position>
              <LatitudeDegrees>36.80988005362451076507568359375</LatitudeDegrees>
              <LongitudeDegrees>-4.37865860760211944580078125</LongitudeDegrees>
            </Position>
            <AltitudeMeters>800.4000244140625</AltitudeMeters>
            <DistanceMeters>NAN</DistanceMeters>
          </Trackpoint>
          <Trackpoint>
            <Time>2020-12-05T09:06:26.000Z</Time>
            <Position>
              <LatitudeDegrees>36.80988860316574573516845703125</LatitudeDegrees>
              <LongitudeDegrees>-4.3786658160388469696044921875</LongitudeDegrees>
            </Position>
            <AltitudeMeters>800.20001220703125</AltitudeMeters>
            <DistanceMeters>NAN</DistanceMeters>
          </Trackpoint>
          <Trackpoint>
            <Time>2020-12-05T09:06:27.000Z</Time>
            <Position>
              <LatitudeDegrees>36.80989958345890045166015625</LatitudeDegrees>
              <LongitudeDegrees>-4.3786728568375110626220703125</LongitudeDegrees>
            </Position>
            <AltitudeMeters>800.20001220703125</AltitudeMeters>
            <DistanceMeters>NAN</DistanceMeters>
          </Trackpoint>
          <Trackpoint>
            <Time>2020-12-05T09:06:28.000Z</Time>
            <Position>
              <LatitudeDegrees>36.8099134974181652069091796875</LatitudeDegrees>
              <LongitudeDegrees>-4.3786758743226528167724609375</LongitudeDegrees>
            </Position>
            <AltitudeMeters>800.20001220703125</AltitudeMeters>
            <DistanceMeters>NAN</DistanceMeters>
          </Trackpoint>
          <Trackpoint>
            <Time>2020-12-05T09:06:29.000Z</Time>
            <Position>
              <LatitudeDegrees>36.80992397479712963104248046875</LatitudeDegrees>
              <LongitudeDegrees>-4.3786785565316677093505859375</LongitudeDegrees>
            </Position>
            <AltitudeMeters>800.20001220703125</AltitudeMeters>
            <DistanceMeters>NAN</DistanceMeters>
          </Trackpoint>
          <Trackpoint>
            <Time>2020-12-05T09:06:30.000Z</Time>
            <Position>
              <LatitudeDegrees>36.80993453599512577056884765625</LatitudeDegrees>
              <LongitudeDegrees>-4.37868249602615833282470703125</LongitudeDegrees>
            </Position>
            <AltitudeMeters>800.20001220703125</AltitudeMeters>
            <DistanceMeters>NAN</DistanceMeters>
          </Trackpoint>
          <Trackpoint>
            <Time>2020-12-05T09:06:31.000Z</Time>
            <Position>
              <LatitudeDegrees>36.80994928814470767974853515625</LatitudeDegrees>
              <LongitudeDegrees>-4.3786887824535369873046875</LongitudeDegrees>
            </Position>
            <AltitudeMeters>800.20001220703125</AltitudeMeters>
            <DistanceMeters>NAN</DistanceMeters>
          </Trackpoint>
          <Trackpoint>
            <Time>2020-12-05T09:06:32.000Z</Time>
            <Position>
              <LatitudeDegrees>36.8099654652178287506103515625</LatitudeDegrees>
              <LongitudeDegrees>-4.37869439832866191864013671875</LongitudeDegrees>
            </Position>
            <AltitudeMeters>800</AltitudeMeters>
            <DistanceMeters>NAN</DistanceMeters>
          </Trackpoint>
          <Trackpoint>
            <Time>2020-12-05T09:06:33.000Z</Time>
            <Position>
              <LatitudeDegrees>36.8099780380725860595703125</LatitudeDegrees>
              <LongitudeDegrees>-4.3786968290805816650390625</LongitudeDegrees>
            </Position>
            <AltitudeMeters>800</AltitudeMeters>
            <DistanceMeters>NAN</DistanceMeters>
          </Trackpoint>
          <Trackpoint>
            <Time>2020-12-05T09:06:34.000Z</Time>
            <Position>
              <LatitudeDegrees>36.80998985655605792999267578125</LatitudeDegrees>
              <LongitudeDegrees>-4.37869724817574024200439453125</LongitudeDegrees>
            </Position>
            <AltitudeMeters>800</AltitudeMeters>
            <DistanceMeters>NAN</DistanceMeters>
          </Trackpoint>
          <Trackpoint>
            <Time>2020-12-05T09:06:35.000Z</Time>
            <Position>
              <LatitudeDegrees>36.81000259704887866973876953125</LatitudeDegrees>
              <LongitudeDegrees>-4.37869892455637454986572265625</LongitudeDegrees>
            </Position>
            <AltitudeMeters>800.20001220703125</AltitudeMeters>
            <DistanceMeters>NAN</DistanceMeters>
          </Trackpoint>
          <Trackpoint>
            <Time>2020-12-05T09:06:36.000Z</Time>
            <Position>
              <LatitudeDegrees>36.8100129067897796630859375</LatitudeDegrees>
              <LongitudeDegrees>-4.3787000142037868499755859375</LongitudeDegrees>
            </Position>
            <AltitudeMeters>800.4000244140625</AltitudeMeters>
            <DistanceMeters>NAN</DistanceMeters>
          </Trackpoint>
          <Trackpoint>
            <Time>2020-12-05T09:06:37.000Z</Time>
            <Position>
              <LatitudeDegrees>36.81002371944487094879150390625</LatitudeDegrees>
              <LongitudeDegrees>-4.378699176013469696044921875</LongitudeDegrees>
            </Position>
            <AltitudeMeters>800.5999755859375</AltitudeMeters>
            <DistanceMeters>NAN</DistanceMeters>
          </Trackpoint>
          <Trackpoint>
            <Time>2020-12-05T09:06:38.000Z</Time>
            <Position>
              <LatitudeDegrees>36.81003361009061336517333984375</LatitudeDegrees>
              <LongitudeDegrees>-4.37869506888091564178466796875</LongitudeDegrees>
            </Position>
            <AltitudeMeters>800.79998779296875</AltitudeMeters>
            <DistanceMeters>NAN</DistanceMeters>
          </Trackpoint>
          <Trackpoint>
            <Time>2020-12-05T09:06:39.000Z</Time>
            <Position>
              <LatitudeDegrees>36.8100442551076412200927734375</LatitudeDegrees>
              <LongitudeDegrees>-4.3786933086812496185302734375</LongitudeDegrees>
            </Position>
            <AltitudeMeters>800.79998779296875</AltitudeMeters>
            <DistanceMeters>NAN</DistanceMeters>
          </Trackpoint>
          <Trackpoint>
            <Time>2020-12-05T09:06:40.000Z</Time>
            <Position>
              <LatitudeDegrees>36.8100573308765888214111328125</LatitudeDegrees>
              <LongitudeDegrees>-4.378691799938678741455078125</LongitudeDegrees>
            </Position>
            <AltitudeMeters>800.79998779296875</AltitudeMeters>
            <DistanceMeters>NAN</DistanceMeters>
          </Trackpoint>
          <Trackpoint>
            <Time>2020-12-05T09:06:41.000Z</Time>
            <Position>
              <LatitudeDegrees>36.81006965227425098419189453125</LatitudeDegrees>
              <LongitudeDegrees>-4.37868568114936351776123046875</LongitudeDegrees>
            </Position>
            <AltitudeMeters>800.79998779296875</AltitudeMeters>
            <DistanceMeters>NAN</DistanceMeters>
          </Trackpoint>
          <Trackpoint>
            <Time>2020-12-05T09:06:42.000Z</Time>
            <Position>
              <LatitudeDegrees>36.810081303119659423828125</LatitudeDegrees>
              <LongitudeDegrees>-4.37867470085620880126953125</LongitudeDegrees>
            </Position>
            <AltitudeMeters>800.79998779296875</AltitudeMeters>
            <DistanceMeters>NAN</DistanceMeters>
          </Trackpoint>
          <Trackpoint>
            <Time>2020-12-05T09:06:43.000Z</Time>
            <Position>
              <LatitudeDegrees>36.8100948818027973175048828125</LatitudeDegrees>
              <LongitudeDegrees>-4.3786634691059589385986328125</LongitudeDegrees>
            </Position>
            <AltitudeMeters>800.79998779296875</AltitudeMeters>
            <DistanceMeters>NAN</DistanceMeters>
          </Trackpoint>
          <Trackpoint>
            <Time>2020-12-05T09:06:44.000Z</Time>
            <Position>
              <LatitudeDegrees>36.81010904721915721893310546875</LatitudeDegrees>
              <LongitudeDegrees>-4.37865064479410648345947265625</LongitudeDegrees>
            </Position>
            <AltitudeMeters>800.5999755859375</AltitudeMeters>
            <DistanceMeters>NAN</DistanceMeters>
          </Trackpoint>
          <Trackpoint>
            <Time>2020-12-05T09:06:45.000Z</Time>
            <Position>
              <LatitudeDegrees>36.8101200275123119354248046875</LatitudeDegrees>
              <LongitudeDegrees>-4.3786420114338397979736328125</LongitudeDegrees>
            </Position>
            <AltitudeMeters>800.4000244140625</AltitudeMeters>
            <DistanceMeters>NAN</DistanceMeters>
          </Trackpoint>
          <Trackpoint>
            <Time>2020-12-05T09:06:46.000Z</Time>
            <Position>
              <LatitudeDegrees>36.81012983433902263641357421875</LatitudeDegrees>
              <LongitudeDegrees>-4.37863052822649478912353515625</LongitudeDegrees>
            </Position>
            <AltitudeMeters>800.4000244140625</AltitudeMeters>
            <DistanceMeters>NAN</DistanceMeters>
          </Trackpoint>
          <Trackpoint>
            <Time>2020-12-05T09:06:47.000Z</Time>
            <Position>
              <LatitudeDegrees>36.8101391382515430450439453125</LatitudeDegrees>
              <LongitudeDegrees>-4.37861611135303974151611328125</LongitudeDegrees>
            </Position>
            <AltitudeMeters>800.20001220703125</AltitudeMeters>
            <DistanceMeters>NAN</DistanceMeters>
          </Trackpoint>
          <Trackpoint>
            <Time>2020-12-05T09:06:48.000Z</Time>
            <Position>
              <LatitudeDegrees>36.81014961563050746917724609375</LatitudeDegrees>
              <LongitudeDegrees>-4.3786001019179821014404296875</LongitudeDegrees>
            </Position>
            <AltitudeMeters>800.20001220703125</AltitudeMeters>
            <DistanceMeters>NAN</DistanceMeters>
          </Trackpoint>
          <Trackpoint>
            <Time>2020-12-05T09:06:49.000Z</Time>
            <Position>
              <LatitudeDegrees>36.81015908718109130859375</LatitudeDegrees>
              <LongitudeDegrees>-4.37858560122549533843994140625</LongitudeDegrees>
            </Position>
            <AltitudeMeters>800</AltitudeMeters>
            <DistanceMeters>NAN</DistanceMeters>
          </Trackpoint>
          <Trackpoint>
            <Time>2020-12-05T09:06:50.000Z</Time>
            <Position>
              <LatitudeDegrees>36.81016772054135799407958984375</LatitudeDegrees>
              <LongitudeDegrees>-4.37857889570295810699462890625</LongitudeDegrees>
            </Position>
            <AltitudeMeters>799.79998779296875</AltitudeMeters>
            <DistanceMeters>NAN</DistanceMeters>
          </Trackpoint>
          <Trackpoint>
            <Time>2020-12-05T09:06:51.000Z</Time>
            <Position>
              <LatitudeDegrees>36.81018012575805187225341796875</LatitudeDegrees>
              <LongitudeDegrees>-4.37857101671397686004638671875</LongitudeDegrees>
            </Position>
            <AltitudeMeters>799.79998779296875</AltitudeMeters>
            <DistanceMeters>NAN</DistanceMeters>
          </Trackpoint>
          <Trackpoint>
            <Time>2020-12-05T09:06:52.000Z</Time>
            <Position>
              <LatitudeDegrees>36.810189597308635711669921875</LatitudeDegrees>
              <LongitudeDegrees>-4.37856649048626422882080078125</LongitudeDegrees>
            </Position>
            <AltitudeMeters>799.5999755859375</AltitudeMeters>
            <DistanceMeters>NAN</DistanceMeters>
          </Trackpoint>
          <Trackpoint>
            <Time>2020-12-05T09:06:53.000Z</Time>
            <Position>
              <LatitudeDegrees>36.810198314487934112548828125</LatitudeDegrees>
              <LongitudeDegrees>-4.3785627186298370361328125</LongitudeDegrees>
            </Position>
            <AltitudeMeters>799.4000244140625</AltitudeMeters>
            <DistanceMeters>NAN</DistanceMeters>
          </Trackpoint>
          <Trackpoint>
            <Time>2020-12-05T09:06:54.000Z</Time>
            <Position>
              <LatitudeDegrees>36.81020594201982021331787109375</LatitudeDegrees>
              <LongitudeDegrees>-4.378561712801456451416015625</LongitudeDegrees>
            </Position>
            <AltitudeMeters>799</AltitudeMeters>
            <DistanceMeters>NAN</DistanceMeters>
          </Trackpoint>
          <Trackpoint>
            <Time>2020-12-05T09:06:55.000Z</Time>
            <Position>
              <LatitudeDegrees>36.810216419398784637451171875</LatitudeDegrees>
              <LongitudeDegrees>-4.3785622157156467437744140625</LongitudeDegrees>
            </Position>
            <AltitudeMeters>798.5999755859375</AltitudeMeters>
            <DistanceMeters>NAN</DistanceMeters>
          </Trackpoint>
          <Trackpoint>
            <Time>2020-12-05T09:06:56.000Z</Time>
            <Position>
              <LatitudeDegrees>36.81022639386355876922607421875</LatitudeDegrees>
              <LongitudeDegrees>-4.378566741943359375</LongitudeDegrees>
            </Position>
            <AltitudeMeters>798.4000244140625</AltitudeMeters>
            <DistanceMeters>NAN</DistanceMeters>
          </Trackpoint>
          <Trackpoint>
            <Time>2020-12-05T09:06:57.000Z</Time>
            <Position>
              <LatitudeDegrees>36.81023611687123775482177734375</LatitudeDegrees>
              <LongitudeDegrees>-4.37857118435204029083251953125</LongitudeDegrees>
            </Position>
            <AltitudeMeters>798.4000244140625</AltitudeMeters>
            <DistanceMeters>NAN</DistanceMeters>
          </Trackpoint>
          <Trackpoint>
            <Time>2020-12-05T09:06:58.000Z</Time>
            <Position>
              <LatitudeDegrees>36.81024734862148761749267578125</LatitudeDegrees>
              <LongitudeDegrees>-4.37857889570295810699462890625</LongitudeDegrees>
            </Position>
            <AltitudeMeters>798.20001220703125</AltitudeMeters>
            <DistanceMeters>NAN</DistanceMeters>
          </Trackpoint>
          <Trackpoint>
            <Time>2020-12-05T09:06:59.000Z</Time>
            <Position>
              <LatitudeDegrees>36.810263358056545257568359375</LatitudeDegrees>
              <LongitudeDegrees>-4.37859297730028629302978515625</LongitudeDegrees>
            </Position>
            <AltitudeMeters>798.4000244140625</AltitudeMeters>
            <DistanceMeters>NAN</DistanceMeters>
          </Trackpoint>
          <Trackpoint>
            <Time>2020-12-05T09:07:00.000Z</Time>
            <Position>
              <LatitudeDegrees>36.810276098549365997314453125</LatitudeDegrees>
              <LongitudeDegrees>-4.37860337086021900177001953125</LongitudeDegrees>
            </Position>
            <AltitudeMeters>798.5999755859375</AltitudeMeters>
            <DistanceMeters>NAN</DistanceMeters>
          </Trackpoint>
          <Trackpoint>
            <Time>2020-12-05T09:07:01.000Z</Time>
            <Position>
              <LatitudeDegrees>36.8102896772325038909912109375</LatitudeDegrees>
              <LongitudeDegrees>-4.378614015877246856689453125</LongitudeDegrees>
            </Position>
            <AltitudeMeters>798.79998779296875</AltitudeMeters>
            <DistanceMeters>NAN</DistanceMeters>
          </Trackpoint>
          <Trackpoint>
            <Time>2020-12-05T09:07:02.000Z</Time>
            <Position>
              <LatitudeDegrees>36.81029981933534145355224609375</LatitudeDegrees>
              <LongitudeDegrees>-4.3786229006946086883544921875</LongitudeDegrees>
            </Position>
            <AltitudeMeters>799</AltitudeMeters>
            <DistanceMeters>NAN</DistanceMeters>
          </Trackpoint>
          <Trackpoint>
            <Time>2020-12-05T09:07:03.000Z</Time>
            <Position>
              <LatitudeDegrees>36.81030736304819583892822265625</LatitudeDegrees>
              <LongitudeDegrees>-4.37863119877874851226806640625</LongitudeDegrees>
            </Position>
            <AltitudeMeters>799.4000244140625</AltitudeMeters>
            <DistanceMeters>NAN</DistanceMeters>
          </Trackpoint>
          <Trackpoint>
            <Time>2020-12-05T09:07:04.000Z</Time>
            <Position>
              <LatitudeDegrees>36.81031540967524051666259765625</LatitudeDegrees>
              <LongitudeDegrees>-4.3786383233964443206787109375</LongitudeDegrees>
            </Position>
            <AltitudeMeters>799.4000244140625</AltitudeMeters>
            <DistanceMeters>NAN</DistanceMeters>
          </Trackpoint>
          <Trackpoint>
            <Time>2020-12-05T09:07:05.000Z</Time>
            <Position>
              <LatitudeDegrees>36.8103235401213169097900390625</LatitudeDegrees>
              <LongitudeDegrees>-4.378644861280918121337890625</LongitudeDegrees>
            </Position>
            <AltitudeMeters>799.5999755859375</AltitudeMeters>
            <DistanceMeters>NAN</DistanceMeters>
          </Trackpoint>
          <Trackpoint>
            <Time>2020-12-05T09:07:06.000Z</Time>
            <Position>
              <LatitudeDegrees>36.810331754386425018310546875</LatitudeDegrees>
              <LongitudeDegrees>-4.37864921987056732177734375</LongitudeDegrees>
            </Position>
            <AltitudeMeters>799.5999755859375</AltitudeMeters>
            <DistanceMeters>NAN</DistanceMeters>
          </Trackpoint>
          <Trackpoint>
            <Time>2020-12-05T09:07:07.000Z</Time>
            <Position>
              <LatitudeDegrees>36.81034080684185028076171875</LatitudeDegrees>
              <LongitudeDegrees>-4.37865382991731166839599609375</LongitudeDegrees>
            </Position>
            <AltitudeMeters>799.79998779296875</AltitudeMeters>
            <DistanceMeters>NAN</DistanceMeters>
          </Trackpoint>
          <Trackpoint>
            <Time>2020-12-05T09:07:08.000Z</Time>
            <Position>
              <LatitudeDegrees>36.81035195477306842803955078125</LatitudeDegrees>
              <LongitudeDegrees>-4.3786577694118022918701171875</LongitudeDegrees>
            </Position>
            <AltitudeMeters>799.79998779296875</AltitudeMeters>
            <DistanceMeters>NAN</DistanceMeters>
          </Trackpoint>
          <Trackpoint>
            <Time>2020-12-05T09:07:09.000Z</Time>
            <Position>
              <LatitudeDegrees>36.81036167778074741363525390625</LatitudeDegrees>
              <LongitudeDegrees>-4.37866472639143466949462890625</LongitudeDegrees>
            </Position>
            <AltitudeMeters>799.79998779296875</AltitudeMeters>
            <DistanceMeters>NAN</DistanceMeters>
          </Trackpoint>
          <Trackpoint>
            <Time>2020-12-05T09:07:10.000Z</Time>
            <Position>
              <LatitudeDegrees>36.81036922149360179901123046875</LatitudeDegrees>
              <LongitudeDegrees>-4.37867042608559131622314453125</LongitudeDegrees>
            </Position>
            <AltitudeMeters>799.79998779296875</AltitudeMeters>
            <DistanceMeters>NAN</DistanceMeters>
          </Trackpoint>
          <Trackpoint>
            <Time>2020-12-05T09:07:11.000Z</Time>
            <Position>
              <LatitudeDegrees>36.81037508882582187652587890625</LatitudeDegrees>
              <LongitudeDegrees>-4.37868006527423858642578125</LongitudeDegrees>
            </Position>
            <AltitudeMeters>800</AltitudeMeters>
            <DistanceMeters>NAN</DistanceMeters>
          </Trackpoint>
          <Trackpoint>
            <Time>2020-12-05T09:07:12.000Z</Time>
            <Position>
              <LatitudeDegrees>36.8103859014809131622314453125</LatitudeDegrees>
              <LongitudeDegrees>-4.3786906264722347259521484375</LongitudeDegrees>
            </Position>
            <AltitudeMeters>800.20001220703125</AltitudeMeters>
            <DistanceMeters>NAN</DistanceMeters>
          </Trackpoint>
          <Trackpoint>
            <Time>2020-12-05T09:07:13.000Z</Time>
            <Position>
              <LatitudeDegrees>36.81039721705019474029541015625</LatitudeDegrees>
              <LongitudeDegrees>-4.37870143912732601165771484375</LongitudeDegrees>
            </Position>
            <AltitudeMeters>800.4000244140625</AltitudeMeters>
            <DistanceMeters>NAN</DistanceMeters>
          </Trackpoint>
          <Trackpoint>
            <Time>2020-12-05T09:07:14.000Z</Time>
            <Position>
              <LatitudeDegrees>36.8104083649814128875732421875</LatitudeDegrees>
              <LongitudeDegrees>-4.37871359288692474365234375</LongitudeDegrees>
            </Position>
            <AltitudeMeters>800.5999755859375</AltitudeMeters>
            <DistanceMeters>NAN</DistanceMeters>
          </Trackpoint>
          <Trackpoint>
            <Time>2020-12-05T09:07:15.000Z</Time>
            <Position>
              <LatitudeDegrees>36.81042286567389965057373046875</LatitudeDegrees>
              <LongitudeDegrees>-4.37872105278074741363525390625</LongitudeDegrees>
            </Position>
            <AltitudeMeters>800.79998779296875</AltitudeMeters>
            <DistanceMeters>NAN</DistanceMeters>
          </Trackpoint>
          <Trackpoint>
            <Time>2020-12-05T09:07:16.000Z</Time>
            <Position>
              <LatitudeDegrees>36.81043879128992557525634765625</LatitudeDegrees>
              <LongitudeDegrees>-4.3787311948835849761962890625</LongitudeDegrees>
            </Position>
            <AltitudeMeters>801</AltitudeMeters>
            <DistanceMeters>NAN</DistanceMeters>
          </Trackpoint>
          <Trackpoint>
            <Time>2020-12-05T09:07:17.000Z</Time>
            <Position>
              <LatitudeDegrees>36.8104522861540317535400390625</LatitudeDegrees>
              <LongitudeDegrees>-4.37873907387256622314453125</LongitudeDegrees>
            </Position>
            <AltitudeMeters>801</AltitudeMeters>
            <DistanceMeters>NAN</DistanceMeters>
          </Trackpoint>
          <Trackpoint>
            <Time>2020-12-05T09:07:18.000Z</Time>
            <Position>
              <LatitudeDegrees>36.8104635179042816162109375</LatitudeDegrees>
              <LongitudeDegrees>-4.3787482939660549163818359375</LongitudeDegrees>
            </Position>
            <AltitudeMeters>800.79998779296875</AltitudeMeters>
            <DistanceMeters>NAN</DistanceMeters>
          </Trackpoint>
          <Trackpoint>
            <Time>2020-12-05T09:07:19.000Z</Time>
            <Position>
              <LatitudeDegrees>36.8104742467403411865234375</LatitudeDegrees>
              <LongitudeDegrees>-4.37875910662114620208740234375</LongitudeDegrees>
            </Position>
            <AltitudeMeters>800.5999755859375</AltitudeMeters>
            <DistanceMeters>NAN</DistanceMeters>
          </Trackpoint>
          <Trackpoint>
            <Time>2020-12-05T09:07:20.000Z</Time>
            <Position>
              <LatitudeDegrees>36.810483969748020172119140625</LatitudeDegrees>
              <LongitudeDegrees>-4.37877117656171321868896484375</LongitudeDegrees>
            </Position>
            <AltitudeMeters>800.5999755859375</AltitudeMeters>
            <DistanceMeters>NAN</DistanceMeters>
          </Trackpoint>
          <Trackpoint>
            <Time>2020-12-05T09:07:21.000Z</Time>
            <Position>
              <LatitudeDegrees>36.81049277074635028839111328125</LatitudeDegrees>
              <LongitudeDegrees>-4.37878333032131195068359375</LongitudeDegrees>
            </Position>
            <AltitudeMeters>800.4000244140625</AltitudeMeters>
            <DistanceMeters>NAN</DistanceMeters>
          </Trackpoint>
          <Trackpoint>
            <Time>2020-12-05T09:07:22.000Z</Time>
            <Position>
              <LatitudeDegrees>36.810499727725982666015625</LatitudeDegrees>
              <LongitudeDegrees>-4.37879548408091068267822265625</LongitudeDegrees>
            </Position>
            <AltitudeMeters>800.20001220703125</AltitudeMeters>
            <DistanceMeters>NAN</DistanceMeters>
          </Trackpoint>
          <Trackpoint>
            <Time>2020-12-05T09:07:23.000Z</Time>
            <Position>
              <LatitudeDegrees>36.81050735525786876678466796875</LatitudeDegrees>
              <LongitudeDegrees>-4.3788056261837482452392578125</LongitudeDegrees>
            </Position>
            <AltitudeMeters>800.20001220703125</AltitudeMeters>
            <DistanceMeters>NAN</DistanceMeters>
          </Trackpoint>
          <Trackpoint>
            <Time>2020-12-05T09:07:24.000Z</Time>
            <Position>
              <LatitudeDegrees>36.8105159886181354522705078125</LatitudeDegrees>
              <LongitudeDegrees>-4.3788136728107929229736328125</LongitudeDegrees>
            </Position>
            <AltitudeMeters>800.20001220703125</AltitudeMeters>
            <DistanceMeters>NAN</DistanceMeters>
          </Trackpoint>
          <Trackpoint>
            <Time>2020-12-05T09:07:25.000Z</Time>
            <Position>
              <LatitudeDegrees>36.81052587926387786865234375</LatitudeDegrees>
              <LongitudeDegrees>-4.37882113270461559295654296875</LongitudeDegrees>
            </Position>
            <AltitudeMeters>800</AltitudeMeters>
            <DistanceMeters>NAN</DistanceMeters>
          </Trackpoint>
          <Trackpoint>
            <Time>2020-12-05T09:07:26.000Z</Time>
            <Position>
              <LatitudeDegrees>36.8105377815663814544677734375</LatitudeDegrees>
              <LongitudeDegrees>-4.37883001752197742462158203125</LongitudeDegrees>
            </Position>
            <AltitudeMeters>800</AltitudeMeters>
            <DistanceMeters>NAN</DistanceMeters>
          </Trackpoint>
          <Trackpoint>
            <Time>2020-12-05T09:07:27.000Z</Time>
            <Position>
              <LatitudeDegrees>36.81055060587823390960693359375</LatitudeDegrees>
              <LongitudeDegrees>-4.37883890233933925628662109375</LongitudeDegrees>
            </Position>
            <AltitudeMeters>800</AltitudeMeters>
            <DistanceMeters>NAN</DistanceMeters>
          </Trackpoint>
          <Trackpoint>
            <Time>2020-12-05T09:07:28.000Z</Time>
            <Position>
              <LatitudeDegrees>36.81056477129459381103515625</LatitudeDegrees>
              <LongitudeDegrees>-4.37884678132832050323486328125</LongitudeDegrees>
            </Position>
            <AltitudeMeters>800.4000244140625</AltitudeMeters>
            <DistanceMeters>NAN</DistanceMeters>
          </Trackpoint>
          <Trackpoint>
            <Time>2020-12-05T09:07:29.000Z</Time>
            <Position>
              <LatitudeDegrees>36.8105803616344928741455078125</LatitudeDegrees>
              <LongitudeDegrees>-4.37885365448892116546630859375</LongitudeDegrees>
            </Position>
            <AltitudeMeters>801</AltitudeMeters>
            <DistanceMeters>NAN</DistanceMeters>
          </Trackpoint>
          <Trackpoint>
            <Time>2020-12-05T09:07:30.000Z</Time>
            <Position>
              <LatitudeDegrees>36.81059502996504306793212890625</LatitudeDegrees>
              <LongitudeDegrees>-4.37886119820177555084228515625</LongitudeDegrees>
            </Position>
            <AltitudeMeters>801.20001220703125</AltitudeMeters>
            <DistanceMeters>NAN</DistanceMeters>
          </Trackpoint>
          <Trackpoint>
            <Time>2020-12-05T09:07:31.000Z</Time>
            <Position>
              <LatitudeDegrees>36.81061145849525928497314453125</LatitudeDegrees>
              <LongitudeDegrees>-4.3788706697523593902587890625</LongitudeDegrees>
            </Position>
            <AltitudeMeters>801.4000244140625</AltitudeMeters>
            <DistanceMeters>NAN</DistanceMeters>
          </Trackpoint>
          <Trackpoint>
            <Time>2020-12-05T09:07:32.000Z</Time>
            <Position>
              <LatitudeDegrees>36.8106293119490146636962890625</LatitudeDegrees>
              <LongitudeDegrees>-4.3788778781890869140625</LongitudeDegrees>
            </Position>
            <AltitudeMeters>802</AltitudeMeters>
            <DistanceMeters>NAN</DistanceMeters>
          </Trackpoint>
          <Trackpoint>
            <Time>2020-12-05T09:07:33.000Z</Time>
            <Position>
              <LatitudeDegrees>36.81064565666019916534423828125</LatitudeDegrees>
              <LongitudeDegrees>-4.37887947075068950653076171875</LongitudeDegrees>
            </Position>
            <AltitudeMeters>802.79998779296875</AltitudeMeters>
            <DistanceMeters>NAN</DistanceMeters>
          </Trackpoint>
          <Trackpoint>
            <Time>2020-12-05T09:07:34.000Z</Time>
            <Position>
              <LatitudeDegrees>36.810660660266876220703125</LatitudeDegrees>
              <LongitudeDegrees>-4.37888123095035552978515625</LongitudeDegrees>
            </Position>
            <AltitudeMeters>803.20001220703125</AltitudeMeters>
            <DistanceMeters>NAN</DistanceMeters>
          </Trackpoint>
          <Trackpoint>
            <Time>2020-12-05T09:07:35.000Z</Time>
            <Position>
              <LatitudeDegrees>36.8106775917112827301025390625</LatitudeDegrees>
              <LongitudeDegrees>-4.37887586653232574462890625</LongitudeDegrees>
            </Position>
            <AltitudeMeters>803.5999755859375</AltitudeMeters>
            <DistanceMeters>NAN</DistanceMeters>
          </Trackpoint>
          <Trackpoint>
            <Time>2020-12-05T09:07:36.000Z</Time>
            <Position>
              <LatitudeDegrees>36.81069008074700832366943359375</LatitudeDegrees>
              <LongitudeDegrees>-4.37886723317205905914306640625</LongitudeDegrees>
            </Position>
            <AltitudeMeters>803.5999755859375</AltitudeMeters>
            <DistanceMeters>NAN</DistanceMeters>
          </Trackpoint>
          <Trackpoint>
            <Time>2020-12-05T09:07:37.000Z</Time>
            <Position>
              <LatitudeDegrees>36.8107013963162899017333984375</LatitudeDegrees>
              <LongitudeDegrees>-4.37885977327823638916015625</LongitudeDegrees>
            </Position>
            <AltitudeMeters>803.4000244140625</AltitudeMeters>
            <DistanceMeters>NAN</DistanceMeters>
          </Trackpoint>
          <Trackpoint>
            <Time>2020-12-05T09:07:38.000Z</Time>
            <Position>
              <LatitudeDegrees>36.8107091076672077178955078125</LatitudeDegrees>
              <LongitudeDegrees>-4.3788492120802402496337890625</LongitudeDegrees>
            </Position>
            <AltitudeMeters>802.79998779296875</AltitudeMeters>
            <DistanceMeters>NAN</DistanceMeters>
          </Trackpoint>
          <Trackpoint>
            <Time>2020-12-05T09:07:39.000Z</Time>
            <Position>
              <LatitudeDegrees>36.81071338243782520294189453125</LatitudeDegrees>
              <LongitudeDegrees>-4.37883856706321239471435546875</LongitudeDegrees>
            </Position>
            <AltitudeMeters>802.4000244140625</AltitudeMeters>
            <DistanceMeters>NAN</DistanceMeters>
          </Trackpoint>
          <Trackpoint>
            <Time>2020-12-05T09:07:40.000Z</Time>
            <Position>
              <LatitudeDegrees>36.8107154779136180877685546875</LatitudeDegrees>
              <LongitudeDegrees>-4.37882465310394763946533203125</LongitudeDegrees>
            </Position>
            <AltitudeMeters>802.20001220703125</AltitudeMeters>
            <DistanceMeters>NAN</DistanceMeters>
          </Trackpoint>
          <Trackpoint>
            <Time>2020-12-05T09:07:41.000Z</Time>
            <Position>
              <LatitudeDegrees>36.81072142906486988067626953125</LatitudeDegrees>
              <LongitudeDegrees>-4.378813840448856353759765625</LongitudeDegrees>
            </Position>
            <AltitudeMeters>802</AltitudeMeters>
            <DistanceMeters>NAN</DistanceMeters>
          </Trackpoint>
          <Trackpoint>
            <Time>2020-12-05T09:07:42.000Z</Time>
            <Position>
              <LatitudeDegrees>36.81073014624416828155517578125</LatitudeDegrees>
              <LongitudeDegrees>-4.37880051322281360626220703125</LongitudeDegrees>
            </Position>
            <AltitudeMeters>802</AltitudeMeters>
            <DistanceMeters>NAN</DistanceMeters>
          </Trackpoint>
          <Trackpoint>
            <Time>2020-12-05T09:07:43.000Z</Time>
            <Position>
              <LatitudeDegrees>36.810734085738658905029296875</LatitudeDegrees>
              <LongitudeDegrees>-4.378788359463214874267578125</LongitudeDegrees>
            </Position>
            <AltitudeMeters>802</AltitudeMeters>
            <DistanceMeters>NAN</DistanceMeters>
          </Trackpoint>
          <Trackpoint>
            <Time>2020-12-05T09:07:44.000Z</Time>
            <Position>
              <LatitudeDegrees>36.81073500774800777435302734375</LatitudeDegrees>
              <LongitudeDegrees>-4.3787717632949352264404296875</LongitudeDegrees>
            </Position>
            <AltitudeMeters>802</AltitudeMeters>
            <DistanceMeters>NAN</DistanceMeters>
          </Trackpoint>
          <Trackpoint>
            <Time>2020-12-05T09:07:45.000Z</Time>
            <Position>
              <LatitudeDegrees>36.81073534302413463592529296875</LatitudeDegrees>
              <LongitudeDegrees>-4.3787549994885921478271484375</LongitudeDegrees>
            </Position>
            <AltitudeMeters>802</AltitudeMeters>
            <DistanceMeters>NAN</DistanceMeters>
          </Trackpoint>
          <Trackpoint>
            <Time>2020-12-05T09:07:46.000Z</Time>
            <Position>
              <LatitudeDegrees>36.81073584593832492828369140625</LatitudeDegrees>
              <LongitudeDegrees>-4.378741085529327392578125</LongitudeDegrees>
            </Position>
            <AltitudeMeters>802</AltitudeMeters>
            <DistanceMeters>NAN</DistanceMeters>
          </Trackpoint>
          <Trackpoint>
            <Time>2020-12-05T09:07:47.000Z</Time>
            <Position>
              <LatitudeDegrees>36.81074003688991069793701171875</LatitudeDegrees>
              <LongitudeDegrees>-4.3787295185029506683349609375</LongitudeDegrees>
            </Position>
            <AltitudeMeters>802.20001220703125</AltitudeMeters>
            <DistanceMeters>NAN</DistanceMeters>
          </Trackpoint>
          <Trackpoint>
            <Time>2020-12-05T09:07:48.000Z</Time>
            <Position>
              <LatitudeDegrees>36.81074439547955989837646484375</LatitudeDegrees>
              <LongitudeDegrees>-4.37871803529560565948486328125</LongitudeDegrees>
            </Position>
            <AltitudeMeters>802.79998779296875</AltitudeMeters>
            <DistanceMeters>NAN</DistanceMeters>
          </Trackpoint>
          <Trackpoint>
            <Time>2020-12-05T09:07:49.000Z</Time>
            <Position>
              <LatitudeDegrees>36.81074741296470165252685546875</LatitudeDegrees>
              <LongitudeDegrees>-4.3787037022411823272705078125</LongitudeDegrees>
            </Position>
            <AltitudeMeters>803.4000244140625</AltitudeMeters>
            <DistanceMeters>NAN</DistanceMeters>
          </Trackpoint>
          <Trackpoint>
            <Time>2020-12-05T09:07:50.000Z</Time>
            <Position>
              <LatitudeDegrees>36.81075143627822399139404296875</LatitudeDegrees>
              <LongitudeDegrees>-4.37869020737707614898681640625</LongitudeDegrees>
            </Position>
            <AltitudeMeters>803.79998779296875</AltitudeMeters>
            <DistanceMeters>NAN</DistanceMeters>
          </Trackpoint>
          <Trackpoint>
            <Time>2020-12-05T09:07:51.000Z</Time>
            <Position>
              <LatitudeDegrees>36.81075294502079486846923828125</LatitudeDegrees>
              <LongitudeDegrees>-4.37867646105587482452392578125</LongitudeDegrees>
            </Position>
            <AltitudeMeters>804</AltitudeMeters>
            <DistanceMeters>NAN</DistanceMeters>
          </Trackpoint>
          <Trackpoint>
            <Time>2020-12-05T09:07:52.000Z</Time>
            <Position>
              <LatitudeDegrees>36.81075680069625377655029296875</LatitudeDegrees>
              <LongitudeDegrees>-4.37866640277206897735595703125</LongitudeDegrees>
            </Position>
            <AltitudeMeters>804.4000244140625</AltitudeMeters>
            <DistanceMeters>NAN</DistanceMeters>
          </Trackpoint>
          <Trackpoint>
            <Time>2020-12-05T09:07:53.000Z</Time>
            <Position>
              <LatitudeDegrees>36.810762248933315277099609375</LatitudeDegrees>
              <LongitudeDegrees>-4.378653578460216522216796875</LongitudeDegrees>
            </Position>
            <AltitudeMeters>804.5999755859375</AltitudeMeters>
            <DistanceMeters>NAN</DistanceMeters>
          </Trackpoint>
          <Trackpoint>
            <Time>2020-12-05T09:07:54.000Z</Time>
            <Position>
              <LatitudeDegrees>36.8107687868177890777587890625</LatitudeDegrees>
              <LongitudeDegrees>-4.37864175997674465179443359375</LongitudeDegrees>
            </Position>
            <AltitudeMeters>804.79998779296875</AltitudeMeters>
            <DistanceMeters>NAN</DistanceMeters>
          </Trackpoint>
          <Trackpoint>
            <Time>2020-12-05T09:07:55.000Z</Time>
            <Position>
              <LatitudeDegrees>36.8107718043029308319091796875</LatitudeDegrees>
              <LongitudeDegrees>-4.37862952239811420440673828125</LongitudeDegrees>
            </Position>
            <AltitudeMeters>805.20001220703125</AltitudeMeters>
            <DistanceMeters>NAN</DistanceMeters>
          </Trackpoint>
          <Trackpoint>
            <Time>2020-12-05T09:07:56.000Z</Time>
            <Position>
              <LatitudeDegrees>36.8107741512358188629150390625</LatitudeDegrees>
              <LongitudeDegrees>-4.3786188773810863494873046875</LongitudeDegrees>
            </Position>
            <AltitudeMeters>805.5999755859375</AltitudeMeters>
            <DistanceMeters>NAN</DistanceMeters>
          </Trackpoint>
          <Trackpoint>
            <Time>2020-12-05T09:07:57.000Z</Time>
            <Position>
              <LatitudeDegrees>36.81077524088323116302490234375</LatitudeDegrees>
              <LongitudeDegrees>-4.37860638834536075592041015625</LongitudeDegrees>
            </Position>
            <AltitudeMeters>805.5999755859375</AltitudeMeters>
            <DistanceMeters>NAN</DistanceMeters>
          </Trackpoint>
          <Trackpoint>
            <Time>2020-12-05T09:07:58.000Z</Time>
            <Position>
              <LatitudeDegrees>36.8107744865119457244873046875</LatitudeDegrees>
              <LongitudeDegrees>-4.37859515659511089324951171875</LongitudeDegrees>
            </Position>
            <AltitudeMeters>805.79998779296875</AltitudeMeters>
            <DistanceMeters>NAN</DistanceMeters>
          </Trackpoint>
          <Trackpoint>
            <Time>2020-12-05T09:07:59.000Z</Time>
            <Position>
              <LatitudeDegrees>36.8107731454074382781982421875</LatitudeDegrees>
              <LongitudeDegrees>-4.37858426012098789215087890625</LongitudeDegrees>
            </Position>
            <AltitudeMeters>805.79998779296875</AltitudeMeters>
            <DistanceMeters>NAN</DistanceMeters>
          </Trackpoint>
          <Trackpoint>
            <Time>2020-12-05T09:08:00.000Z</Time>
            <Position>
              <LatitudeDegrees>36.81077457033097743988037109375</LatitudeDegrees>
              <LongitudeDegrees>-4.37857202254235744476318359375</LongitudeDegrees>
            </Position>
            <AltitudeMeters>805.79998779296875</AltitudeMeters>
            <DistanceMeters>NAN</DistanceMeters>
          </Trackpoint>
          <Trackpoint>
            <Time>2020-12-05T09:08:01.000Z</Time>
            <Position>
              <LatitudeDegrees>36.8107771687209606170654296875</LatitudeDegrees>
              <LongitudeDegrees>-4.37855961732566356658935546875</LongitudeDegrees>
            </Position>
            <AltitudeMeters>805.79998779296875</AltitudeMeters>
            <DistanceMeters>NAN</DistanceMeters>
          </Trackpoint>
          <Trackpoint>
            <Time>2020-12-05T09:08:02.000Z</Time>
            <Position>
              <LatitudeDegrees>36.81077976711094379425048828125</LatitudeDegrees>
              <LongitudeDegrees>-4.37854821793735027313232421875</LongitudeDegrees>
            </Position>
            <AltitudeMeters>805.79998779296875</AltitudeMeters>
            <DistanceMeters>NAN</DistanceMeters>
          </Trackpoint>
          <Trackpoint>
            <Time>2020-12-05T09:08:03.000Z</Time>
            <Position>
              <LatitudeDegrees>36.81078161112964153289794921875</LatitudeDegrees>
              <LongitudeDegrees>-4.37853765673935413360595703125</LongitudeDegrees>
            </Position>
            <AltitudeMeters>805.79998779296875</AltitudeMeters>
            <DistanceMeters>NAN</DistanceMeters>
          </Trackpoint>
          <Trackpoint>
            <Time>2020-12-05T09:08:04.000Z</Time>
            <Position>
              <LatitudeDegrees>36.81078781373798847198486328125</LatitudeDegrees>
              <LongitudeDegrees>-4.37852491624653339385986328125</LongitudeDegrees>
            </Position>
            <AltitudeMeters>806</AltitudeMeters>
            <DistanceMeters>NAN</DistanceMeters>
          </Trackpoint>
          <Trackpoint>
            <Time>2020-12-05T09:08:05.000Z</Time>
            <Position>
              <LatitudeDegrees>36.810793764889240264892578125</LatitudeDegrees>
              <LongitudeDegrees>-4.37851184047758579254150390625</LongitudeDegrees>
            </Position>
            <AltitudeMeters>806</AltitudeMeters>
            <DistanceMeters>NAN</DistanceMeters>
          </Trackpoint>
          <Trackpoint>
            <Time>2020-12-05T09:08:06.000Z</Time>
            <Position>
              <LatitudeDegrees>36.81079820729792118072509765625</LatitudeDegrees>
              <LongitudeDegrees>-4.37849943526089191436767578125</LongitudeDegrees>
            </Position>
            <AltitudeMeters>806.20001220703125</AltitudeMeters>
            <DistanceMeters>NAN</DistanceMeters>
          </Trackpoint>
          <Trackpoint>
            <Time>2020-12-05T09:08:07.000Z</Time>
            <Position>
              <LatitudeDegrees>36.81080122478306293487548828125</LatitudeDegrees>
              <LongitudeDegrees>-4.3784911371767520904541015625</LongitudeDegrees>
            </Position>
            <AltitudeMeters>806.4000244140625</AltitudeMeters>
            <DistanceMeters>NAN</DistanceMeters>
          </Trackpoint>
          <Trackpoint>
            <Time>2020-12-05T09:08:08.000Z</Time>
            <Position>
              <LatitudeDegrees>36.81080348789691925048828125</LatitudeDegrees>
              <LongitudeDegrees>-4.3784810788929462432861328125</LongitudeDegrees>
            </Position>
            <AltitudeMeters>806.5999755859375</AltitudeMeters>
            <DistanceMeters>NAN</DistanceMeters>
          </Trackpoint>
          <Trackpoint>
            <Time>2020-12-05T09:08:09.000Z</Time>
            <Position>
              <LatitudeDegrees>36.81080625392496585845947265625</LatitudeDegrees>
              <LongitudeDegrees>-4.3784680031239986419677734375</LongitudeDegrees>
            </Position>
            <AltitudeMeters>806.79998779296875</AltitudeMeters>
            <DistanceMeters>NAN</DistanceMeters>
          </Trackpoint>
          <Trackpoint>
            <Time>2020-12-05T09:08:10.000Z</Time>
            <Position>
              <LatitudeDegrees>36.8108086846768856048583984375</LatitudeDegrees>
              <LongitudeDegrees>-4.3784554302692413330078125</LongitudeDegrees>
            </Position>
            <AltitudeMeters>807</AltitudeMeters>
            <DistanceMeters>NAN</DistanceMeters>
          </Trackpoint>
          <Trackpoint>
            <Time>2020-12-05T09:08:11.000Z</Time>
            <Position>
              <LatitudeDegrees>36.81081497110426425933837890625</LatitudeDegrees>
              <LongitudeDegrees>-4.37844428233802318572998046875</LongitudeDegrees>
            </Position>
            <AltitudeMeters>807</AltitudeMeters>
            <DistanceMeters>NAN</DistanceMeters>
          </Trackpoint>
          <Trackpoint>
            <Time>2020-12-05T09:08:12.000Z</Time>
            <Position>
              <LatitudeDegrees>36.810820586979389190673828125</LatitudeDegrees>
              <LongitudeDegrees>-4.378436319530010223388671875</LongitudeDegrees>
            </Position>
            <AltitudeMeters>807.20001220703125</AltitudeMeters>
            <DistanceMeters>NAN</DistanceMeters>
          </Trackpoint>
          <Trackpoint>
            <Time>2020-12-05T09:08:13.000Z</Time>
            <Position>
              <LatitudeDegrees>36.8108271248638629913330078125</LatitudeDegrees>
              <LongitudeDegrees>-4.37842525541782379150390625</LongitudeDegrees>
            </Position>
            <AltitudeMeters>807.20001220703125</AltitudeMeters>
            <DistanceMeters>NAN</DistanceMeters>
          </Trackpoint>
          <Trackpoint>
            <Time>2020-12-05T09:08:14.000Z</Time>
            <Position>
              <LatitudeDegrees>36.810831986367702484130859375</LatitudeDegrees>
              <LongitudeDegrees>-4.37841293402016162872314453125</LongitudeDegrees>
            </Position>
            <AltitudeMeters>807.20001220703125</AltitudeMeters>
            <DistanceMeters>NAN</DistanceMeters>
          </Trackpoint>
          <Trackpoint>
            <Time>2020-12-05T09:08:15.000Z</Time>
            <Position>
              <LatitudeDegrees>36.81083676405251026153564453125</LatitudeDegrees>
              <LongitudeDegrees>-4.378403462469577789306640625</LongitudeDegrees>
            </Position>
            <AltitudeMeters>807.4000244140625</AltitudeMeters>
            <DistanceMeters>NAN</DistanceMeters>
          </Trackpoint>
          <Trackpoint>
            <Time>2020-12-05T09:08:16.000Z</Time>
            <Position>
              <LatitudeDegrees>36.8108395300805568695068359375</LatitudeDegrees>
              <LongitudeDegrees>-4.3783939070999622344970703125</LongitudeDegrees>
            </Position>
            <AltitudeMeters>807.4000244140625</AltitudeMeters>
            <DistanceMeters>NAN</DistanceMeters>
          </Trackpoint>
          <Trackpoint>
            <Time>2020-12-05T09:08:17.000Z</Time>
            <Position>
              <LatitudeDegrees>36.810841374099254608154296875</LatitudeDegrees>
              <LongitudeDegrees>-4.37838057987391948699951171875</LongitudeDegrees>
            </Position>
            <AltitudeMeters>807.4000244140625</AltitudeMeters>
            <DistanceMeters>NAN</DistanceMeters>
          </Trackpoint>
          <Trackpoint>
            <Time>2020-12-05T09:08:18.000Z</Time>
            <Position>
              <LatitudeDegrees>36.81084229610860347747802734375</LatitudeDegrees>
              <LongitudeDegrees>-4.3783633969724178314208984375</LongitudeDegrees>
            </Position>
            <AltitudeMeters>807.5999755859375</AltitudeMeters>
            <DistanceMeters>NAN</DistanceMeters>
          </Trackpoint>
          <Trackpoint>
            <Time>2020-12-05T09:08:19.000Z</Time>
            <Position>
              <LatitudeDegrees>36.81084497831761837005615234375</LatitudeDegrees>
              <LongitudeDegrees>-4.37834520824253559112548828125</LongitudeDegrees>
            </Position>
            <AltitudeMeters>807.5999755859375</AltitudeMeters>
            <DistanceMeters>NAN</DistanceMeters>
          </Trackpoint>
          <Trackpoint>
            <Time>2020-12-05T09:08:20.000Z</Time>
            <Position>
              <LatitudeDegrees>36.8108469061553478240966796875</LatitudeDegrees>
              <LongitudeDegrees>-4.37833162955939769744873046875</LongitudeDegrees>
            </Position>
            <AltitudeMeters>807.79998779296875</AltitudeMeters>
            <DistanceMeters>NAN</DistanceMeters>
          </Trackpoint>
          <Trackpoint>
            <Time>2020-12-05T09:08:21.000Z</Time>
            <Position>
              <LatitudeDegrees>36.81085000745952129364013671875</LatitudeDegrees>
              <LongitudeDegrees>-4.37831838615238666534423828125</LongitudeDegrees>
            </Position>
            <AltitudeMeters>808.20001220703125</AltitudeMeters>
            <DistanceMeters>NAN</DistanceMeters>
          </Trackpoint>
          <Trackpoint>
            <Time>2020-12-05T09:08:22.000Z</Time>
            <Position>
              <LatitudeDegrees>36.81085042655467987060546875</LatitudeDegrees>
              <LongitudeDegrees>-4.378302879631519317626953125</LongitudeDegrees>
            </Position>
            <AltitudeMeters>808.4000244140625</AltitudeMeters>
            <DistanceMeters>NAN</DistanceMeters>
          </Trackpoint>
          <Trackpoint>
            <Time>2020-12-05T09:08:23.000Z</Time>
            <Position>
              <LatitudeDegrees>36.81085168384015560150146484375</LatitudeDegrees>
              <LongitudeDegrees>-4.37828770838677883148193359375</LongitudeDegrees>
            </Position>
            <AltitudeMeters>808.79998779296875</AltitudeMeters>
            <DistanceMeters>NAN</DistanceMeters>
          </Trackpoint>
          <Trackpoint>
            <Time>2020-12-05T09:08:24.000Z</Time>
            <Position>
              <LatitudeDegrees>36.81085520423948764801025390625</LatitudeDegrees>
              <LongitudeDegrees>-4.3782738782465457916259765625</LongitudeDegrees>
            </Position>
            <AltitudeMeters>809</AltitudeMeters>
            <DistanceMeters>NAN</DistanceMeters>
          </Trackpoint>
          <Trackpoint>
            <Time>2020-12-05T09:08:25.000Z</Time>
            <Position>
              <LatitudeDegrees>36.81085838936269283294677734375</LatitudeDegrees>
              <LongitudeDegrees>-4.3782608024775981903076171875</LongitudeDegrees>
            </Position>
            <AltitudeMeters>809.20001220703125</AltitudeMeters>
            <DistanceMeters>NAN</DistanceMeters>
          </Trackpoint>
          <Trackpoint>
            <Time>2020-12-05T09:08:26.000Z</Time>
            <Position>
              <LatitudeDegrees>36.81086140684783458709716796875</LatitudeDegrees>
              <LongitudeDegrees>-4.37824898399412631988525390625</LongitudeDegrees>
            </Position>
            <AltitudeMeters>809.20001220703125</AltitudeMeters>
            <DistanceMeters>NAN</DistanceMeters>
          </Trackpoint>
          <Trackpoint>
            <Time>2020-12-05T09:08:27.000Z</Time>
            <Position>
              <LatitudeDegrees>36.81086308322846889495849609375</LatitudeDegrees>
              <LongitudeDegrees>-4.378237836062908172607421875</LongitudeDegrees>
            </Position>
            <AltitudeMeters>809.20001220703125</AltitudeMeters>
            <DistanceMeters>NAN</DistanceMeters>
          </Trackpoint>
          <Trackpoint>
            <Time>2020-12-05T09:08:28.000Z</Time>
            <Position>
              <LatitudeDegrees>36.8108646757900714874267578125</LatitudeDegrees>
              <LongitudeDegrees>-4.37822467647492885589599609375</LongitudeDegrees>
            </Position>
            <AltitudeMeters>809.4000244140625</AltitudeMeters>
            <DistanceMeters>NAN</DistanceMeters>
          </Trackpoint>
          <Trackpoint>
            <Time>2020-12-05T09:08:29.000Z</Time>
            <Position>
              <LatitudeDegrees>36.810862831771373748779296875</LatitudeDegrees>
              <LongitudeDegrees>-4.37820774503052234649658203125</LongitudeDegrees>
            </Position>
            <AltitudeMeters>809.4000244140625</AltitudeMeters>
            <DistanceMeters>NAN</DistanceMeters>
          </Trackpoint>
          <Trackpoint>
            <Time>2020-12-05T09:08:30.000Z</Time>
            <Position>
              <LatitudeDegrees>36.81086878292262554168701171875</LatitudeDegrees>
              <LongitudeDegrees>-4.37819081358611583709716796875</LongitudeDegrees>
            </Position>
            <AltitudeMeters>809.20001220703125</AltitudeMeters>
            <DistanceMeters>NAN</DistanceMeters>
          </Trackpoint>
          <Trackpoint>
            <Time>2020-12-05T09:08:31.000Z</Time>
            <Position>
              <LatitudeDegrees>36.81087615899741649627685546875</LatitudeDegrees>
              <LongitudeDegrees>-4.37817036174237728118896484375</LongitudeDegrees>
            </Position>
            <AltitudeMeters>809.20001220703125</AltitudeMeters>
            <DistanceMeters>NAN</DistanceMeters>
          </Trackpoint>
          <Trackpoint>
            <Time>2020-12-05T09:08:32.000Z</Time>
            <Position>
              <LatitudeDegrees>36.81088252924382686614990234375</LatitudeDegrees>
              <LongitudeDegrees>-4.3781525082886219024658203125</LongitudeDegrees>
            </Position>
            <AltitudeMeters>809</AltitudeMeters>
            <DistanceMeters>NAN</DistanceMeters>
          </Trackpoint>
          <Trackpoint>
            <Time>2020-12-05T09:08:33.000Z</Time>
            <Position>
              <LatitudeDegrees>36.81088739074766635894775390625</LatitudeDegrees>
              <LongitudeDegrees>-4.37813415192067623138427734375</LongitudeDegrees>
            </Position>
            <AltitudeMeters>809.20001220703125</AltitudeMeters>
            <DistanceMeters>NAN</DistanceMeters>
          </Trackpoint>
          <Trackpoint>
            <Time>2020-12-05T09:08:34.000Z</Time>
            <Position>
              <LatitudeDegrees>36.810894347727298736572265625</LatitudeDegrees>
              <LongitudeDegrees>-4.378117136657238006591796875</LongitudeDegrees>
            </Position>
            <AltitudeMeters>809.20001220703125</AltitudeMeters>
            <DistanceMeters>NAN</DistanceMeters>
          </Trackpoint>
          <Trackpoint>
            <Time>2020-12-05T09:08:35.000Z</Time>
            <Position>
              <LatitudeDegrees>36.81089828722178936004638671875</LatitudeDegrees>
              <LongitudeDegrees>-4.3781028874218463897705078125</LongitudeDegrees>
            </Position>
            <AltitudeMeters>809.20001220703125</AltitudeMeters>
            <DistanceMeters>NAN</DistanceMeters>
          </Trackpoint>
          <Trackpoint>
            <Time>2020-12-05T09:08:36.000Z</Time>
            <Position>
              <LatitudeDegrees>36.81090138852596282958984375</LatitudeDegrees>
              <LongitudeDegrees>-4.3780894763767719268798828125</LongitudeDegrees>
            </Position>
            <AltitudeMeters>809.20001220703125</AltitudeMeters>
            <DistanceMeters>NAN</DistanceMeters>
          </Trackpoint>
          <Trackpoint>
            <Time>2020-12-05T09:08:37.000Z</Time>
            <Position>
              <LatitudeDegrees>36.810905747115612030029296875</LatitudeDegrees>
              <LongitudeDegrees>-4.3780757300555706024169921875</LongitudeDegrees>
            </Position>
            <AltitudeMeters>809.20001220703125</AltitudeMeters>
            <DistanceMeters>NAN</DistanceMeters>
          </Trackpoint>
          <Trackpoint>
            <Time>2020-12-05T09:08:38.000Z</Time>
            <Position>
              <LatitudeDegrees>36.81091203354299068450927734375</LatitudeDegrees>
              <LongitudeDegrees>-4.37806223519146442413330078125</LongitudeDegrees>
            </Position>
            <AltitudeMeters>809</AltitudeMeters>
            <DistanceMeters>NAN</DistanceMeters>
          </Trackpoint>
          <Trackpoint>
            <Time>2020-12-05T09:08:39.000Z</Time>
            <Position>
              <LatitudeDegrees>36.8109210021793842315673828125</LatitudeDegrees>
              <LongitudeDegrees>-4.3780519254505634307861328125</LongitudeDegrees>
            </Position>
            <AltitudeMeters>808.79998779296875</AltitudeMeters>
            <DistanceMeters>NAN</DistanceMeters>
          </Trackpoint>
          <Trackpoint>
            <Time>2020-12-05T09:08:40.000Z</Time>
            <Position>
              <LatitudeDegrees>36.8109374307096004486083984375</LatitudeDegrees>
              <LongitudeDegrees>-4.378043711185455322265625</LongitudeDegrees>
            </Position>
            <AltitudeMeters>808.79998779296875</AltitudeMeters>
            <DistanceMeters>NAN</DistanceMeters>
          </Trackpoint>
          <Trackpoint>
            <Time>2020-12-05T09:08:41.000Z</Time>
            <Position>
              <LatitudeDegrees>36.81095327250659465789794921875</LatitudeDegrees>
              <LongitudeDegrees>-4.37803591601550579071044921875</LongitudeDegrees>
            </Position>
            <AltitudeMeters>808.5999755859375</AltitudeMeters>
            <DistanceMeters>NAN</DistanceMeters>
          </Trackpoint>
          <Trackpoint>
            <Time>2020-12-05T09:08:42.000Z</Time>
            <Position>
              <LatitudeDegrees>36.81096735410392284393310546875</LatitudeDegrees>
              <LongitudeDegrees>-4.3780569545924663543701171875</LongitudeDegrees>
            </Position>
            <AltitudeMeters>808.5999755859375</AltitudeMeters>
            <DistanceMeters>NAN</DistanceMeters>
          </Trackpoint>
          <Trackpoint>
            <Time>2020-12-05T09:08:43.000Z</Time>
            <Position>
              <LatitudeDegrees>36.81097137741744518280029296875</LatitudeDegrees>
              <LongitudeDegrees>-4.37812610529363155364990234375</LongitudeDegrees>
            </Position>
            <AltitudeMeters>808.5999755859375</AltitudeMeters>
            <DistanceMeters>NAN</DistanceMeters>
          </Trackpoint>
          <Trackpoint>
            <Time>2020-12-05T09:08:44.000Z</Time>
            <Position>
              <LatitudeDegrees>36.81098663248121738433837890625</LatitudeDegrees>
              <LongitudeDegrees>-4.37811277806758880615234375</LongitudeDegrees>
            </Position>
            <AltitudeMeters>808.4000244140625</AltitudeMeters>
            <DistanceMeters>NAN</DistanceMeters>
          </Trackpoint>
          <Trackpoint>
            <Time>2020-12-05T09:08:45.000Z</Time>
            <Position>
              <LatitudeDegrees>36.811001636087894439697265625</LatitudeDegrees>
              <LongitudeDegrees>-4.37811571173369884490966796875</LongitudeDegrees>
            </Position>
            <AltitudeMeters>808.4000244140625</AltitudeMeters>
            <DistanceMeters>NAN</DistanceMeters>
          </Trackpoint>
          <Trackpoint>
            <Time>2020-12-05T09:08:46.000Z</Time>
            <Position>
              <LatitudeDegrees>36.8110135383903980255126953125</LatitudeDegrees>
              <LongitudeDegrees>-4.37811973504722118377685546875</LongitudeDegrees>
            </Position>
            <AltitudeMeters>808.20001220703125</AltitudeMeters>
            <DistanceMeters>NAN</DistanceMeters>
          </Trackpoint>
          <Trackpoint>
            <Time>2020-12-05T09:08:47.000Z</Time>
            <Position>
              <LatitudeDegrees>36.8110252730548381805419921875</LatitudeDegrees>
              <LongitudeDegrees>-4.37812241725623607635498046875</LongitudeDegrees>
            </Position>
            <AltitudeMeters>808</AltitudeMeters>
            <DistanceMeters>NAN</DistanceMeters>
          </Trackpoint>
          <Trackpoint>
            <Time>2020-12-05T09:08:48.000Z</Time>
            <Position>
              <LatitudeDegrees>36.8110321462154388427734375</LatitudeDegrees>
              <LongitudeDegrees>-4.37813096679747104644775390625</LongitudeDegrees>
            </Position>
            <AltitudeMeters>807.79998779296875</AltitudeMeters>
            <DistanceMeters>NAN</DistanceMeters>
          </Trackpoint>
          <Trackpoint>
            <Time>2020-12-05T09:08:49.000Z</Time>
            <Position>
              <LatitudeDegrees>36.81103994138538837432861328125</LatitudeDegrees>
              <LongitudeDegrees>-4.37813825905323028564453125</LongitudeDegrees>
            </Position>
            <AltitudeMeters>807.4000244140625</AltitudeMeters>
            <DistanceMeters>NAN</DistanceMeters>
          </Trackpoint>
          <Trackpoint>
            <Time>2020-12-05T09:08:50.000Z</Time>
            <Position>
              <LatitudeDegrees>36.81105318479239940643310546875</LatitudeDegrees>
              <LongitudeDegrees>-4.3781451322138309478759765625</LongitudeDegrees>
            </Position>
            <AltitudeMeters>807.20001220703125</AltitudeMeters>
            <DistanceMeters>NAN</DistanceMeters>
          </Trackpoint>
          <Trackpoint>
            <Time>2020-12-05T09:08:51.000Z</Time>
            <Position>
              <LatitudeDegrees>36.811064667999744415283203125</LatitudeDegrees>
              <LongitudeDegrees>-4.3781474791467189788818359375</LongitudeDegrees>
            </Position>
            <AltitudeMeters>807.20001220703125</AltitudeMeters>
            <DistanceMeters>NAN</DistanceMeters>
          </Trackpoint>
          <Trackpoint>
            <Time>2020-12-05T09:08:52.000Z</Time>
            <Position>
              <LatitudeDegrees>36.8110718764364719390869140625</LatitudeDegrees>
              <LongitudeDegrees>-4.37815225683152675628662109375</LongitudeDegrees>
            </Position>
            <AltitudeMeters>807.20001220703125</AltitudeMeters>
            <DistanceMeters>NAN</DistanceMeters>
          </Trackpoint>
          <Trackpoint>
            <Time>2020-12-05T09:08:53.000Z</Time>
            <Position>
              <LatitudeDegrees>36.81107732467353343963623046875</LatitudeDegrees>
              <LongitudeDegrees>-4.37815837562084197998046875</LongitudeDegrees>
            </Position>
            <AltitudeMeters>807.20001220703125</AltitudeMeters>
            <DistanceMeters>NAN</DistanceMeters>
          </Trackpoint>
          <Trackpoint>
            <Time>2020-12-05T09:08:54.000Z</Time>
            <Position>
              <LatitudeDegrees>36.81108511984348297119140625</LatitudeDegrees>
              <LongitudeDegrees>-4.3781699426472187042236328125</LongitudeDegrees>
            </Position>
            <AltitudeMeters>807.4000244140625</AltitudeMeters>
            <DistanceMeters>NAN</DistanceMeters>
          </Trackpoint>
          <Trackpoint>
            <Time>2020-12-05T09:08:55.000Z</Time>
            <Position>
              <LatitudeDegrees>36.8110916577279567718505859375</LatitudeDegrees>
              <LongitudeDegrees>-4.3781796656548976898193359375</LongitudeDegrees>
            </Position>
            <AltitudeMeters>807.79998779296875</AltitudeMeters>
            <DistanceMeters>NAN</DistanceMeters>
          </Trackpoint>
          <Trackpoint>
            <Time>2020-12-05T09:08:56.000Z</Time>
            <Position>
              <LatitudeDegrees>36.8110976926982402801513671875</LatitudeDegrees>
              <LongitudeDegrees>-4.37819383107125759124755859375</LongitudeDegrees>
            </Position>
            <AltitudeMeters>808</AltitudeMeters>
            <DistanceMeters>NAN</DistanceMeters>
          </Trackpoint>
          <Trackpoint>
            <Time>2020-12-05T09:08:57.000Z</Time>
            <Position>
              <LatitudeDegrees>36.8111040629446506500244140625</LatitudeDegrees>
              <LongitudeDegrees>-4.37820606864988803863525390625</LongitudeDegrees>
            </Position>
            <AltitudeMeters>808.4000244140625</AltitudeMeters>
            <DistanceMeters>NAN</DistanceMeters>
          </Trackpoint>
          <Trackpoint>
            <Time>2020-12-05T09:08:58.000Z</Time>
            <Position>
              <LatitudeDegrees>36.81111286394298076629638671875</LatitudeDegrees>
              <LongitudeDegrees>-4.37821336090564727783203125</LongitudeDegrees>
            </Position>
            <AltitudeMeters>809</AltitudeMeters>
            <DistanceMeters>NAN</DistanceMeters>
          </Trackpoint>
          <Trackpoint>
            <Time>2020-12-05T09:08:59.000Z</Time>
            <Position>
              <LatitudeDegrees>36.81112074293196201324462890625</LatitudeDegrees>
              <LongitudeDegrees>-4.37822149135172367095947265625</LongitudeDegrees>
            </Position>
            <AltitudeMeters>809.5999755859375</AltitudeMeters>
            <DistanceMeters>NAN</DistanceMeters>
          </Trackpoint>
          <Trackpoint>
            <Time>2020-12-05T09:09:00.000Z</Time>
            <Position>
              <LatitudeDegrees>36.81112677790224552154541015625</LatitudeDegrees>
              <LongitudeDegrees>-4.37823079526424407958984375</LongitudeDegrees>
            </Position>
            <AltitudeMeters>810</AltitudeMeters>
            <DistanceMeters>NAN</DistanceMeters>
          </Trackpoint>
          <Trackpoint>
            <Time>2020-12-05T09:09:01.000Z</Time>
            <Position>
              <LatitudeDegrees>36.81112929247319698333740234375</LatitudeDegrees>
              <LongitudeDegrees>-4.37824261374771595001220703125</LongitudeDegrees>
            </Position>
            <AltitudeMeters>810.5999755859375</AltitudeMeters>
            <DistanceMeters>NAN</DistanceMeters>
          </Trackpoint>
          <Trackpoint>
            <Time>2020-12-05T09:09:02.000Z</Time>
            <Position>
              <LatitudeDegrees>36.81113474071025848388671875</LatitudeDegrees>
              <LongitudeDegrees>-4.37825015746057033538818359375</LongitudeDegrees>
            </Position>
            <AltitudeMeters>811</AltitudeMeters>
            <DistanceMeters>NAN</DistanceMeters>
          </Trackpoint>
          <Trackpoint>
            <Time>2020-12-05T09:09:03.000Z</Time>
            <Position>
              <LatitudeDegrees>36.8111429549753665924072265625</LatitudeDegrees>
              <LongitudeDegrees>-4.37825853936374187469482421875</LongitudeDegrees>
            </Position>
            <AltitudeMeters>811.20001220703125</AltitudeMeters>
            <DistanceMeters>NAN</DistanceMeters>
          </Trackpoint>
          <Trackpoint>
            <Time>2020-12-05T09:09:04.000Z</Time>
            <Position>
              <LatitudeDegrees>36.8111536838114261627197265625</LatitudeDegrees>
              <LongitudeDegrees>-4.37826826237142086029052734375</LongitudeDegrees>
            </Position>
            <AltitudeMeters>811.20001220703125</AltitudeMeters>
            <DistanceMeters>NAN</DistanceMeters>
          </Trackpoint>
          <Trackpoint>
            <Time>2020-12-05T09:09:05.000Z</Time>
            <Position>
              <LatitudeDegrees>36.8111647479236125946044921875</LatitudeDegrees>
              <LongitudeDegrees>-4.37827681191265583038330078125</LongitudeDegrees>
            </Position>
            <AltitudeMeters>811.4000244140625</AltitudeMeters>
            <DistanceMeters>NAN</DistanceMeters>
          </Trackpoint>
          <Trackpoint>
            <Time>2020-12-05T09:09:06.000Z</Time>
            <Position>
              <LatitudeDegrees>36.8111741356551647186279296875</LatitudeDegrees>
              <LongitudeDegrees>-4.37828251160681247711181640625</LongitudeDegrees>
            </Position>
            <AltitudeMeters>811.79998779296875</AltitudeMeters>
            <DistanceMeters>NAN</DistanceMeters>
          </Trackpoint>
          <Trackpoint>
            <Time>2020-12-05T09:09:07.000Z</Time>
            <Position>
              <LatitudeDegrees>36.8111825175583362579345703125</LatitudeDegrees>
              <LongitudeDegrees>-4.37828242778778076171875</LongitudeDegrees>
            </Position>
            <AltitudeMeters>812.4000244140625</AltitudeMeters>
            <DistanceMeters>NAN</DistanceMeters>
          </Trackpoint>
          <Trackpoint>
            <Time>2020-12-05T09:09:08.000Z</Time>
            <Position>
              <LatitudeDegrees>36.81119031272828578948974609375</LatitudeDegrees>
              <LongitudeDegrees>-4.378284774720668792724609375</LongitudeDegrees>
            </Position>
            <AltitudeMeters>812.79998779296875</AltitudeMeters>
            <DistanceMeters>NAN</DistanceMeters>
          </Trackpoint>
          <Trackpoint>
            <Time>2020-12-05T09:09:09.000Z</Time>
            <Position>
              <LatitudeDegrees>36.81119886226952075958251953125</LatitudeDegrees>
              <LongitudeDegrees>-4.3782889656722545623779296875</LongitudeDegrees>
            </Position>
            <AltitudeMeters>813</AltitudeMeters>
            <DistanceMeters>NAN</DistanceMeters>
          </Trackpoint>
          <Trackpoint>
            <Time>2020-12-05T09:09:10.000Z</Time>
            <Position>
              <LatitudeDegrees>36.8112091720104217529296875</LatitudeDegrees>
              <LongitudeDegrees>-4.3782980181276798248291015625</LongitudeDegrees>
            </Position>
            <AltitudeMeters>813.20001220703125</AltitudeMeters>
            <DistanceMeters>NAN</DistanceMeters>
          </Trackpoint>
          <Trackpoint>
            <Time>2020-12-05T09:09:11.000Z</Time>
            <Position>
              <LatitudeDegrees>36.81122233159840106964111328125</LatitudeDegrees>
              <LongitudeDegrees>-4.3783087469637393951416015625</LongitudeDegrees>
            </Position>
            <AltitudeMeters>813.20001220703125</AltitudeMeters>
            <DistanceMeters>NAN</DistanceMeters>
          </Trackpoint>
          <Trackpoint>
            <Time>2020-12-05T09:09:12.000Z</Time>
            <Position>
              <LatitudeDegrees>36.81123238988220691680908203125</LatitudeDegrees>
              <LongitudeDegrees>-4.378316961228847503662109375</LongitudeDegrees>
            </Position>
            <AltitudeMeters>813</AltitudeMeters>
            <DistanceMeters>NAN</DistanceMeters>
          </Trackpoint>
          <Trackpoint>
            <Time>2020-12-05T09:09:13.000Z</Time>
            <Position>
              <LatitudeDegrees>36.81124362163245677947998046875</LatitudeDegrees>
              <LongitudeDegrees>-4.37832576222717761993408203125</LongitudeDegrees>
            </Position>
            <AltitudeMeters>812.79998779296875</AltitudeMeters>
            <DistanceMeters>NAN</DistanceMeters>
          </Trackpoint>
          <Trackpoint>
            <Time>2020-12-05T09:09:14.000Z</Time>
            <Position>
              <LatitudeDegrees>36.811253763735294342041015625</LatitudeDegrees>
              <LongitudeDegrees>-4.37833112664520740509033203125</LongitudeDegrees>
            </Position>
            <AltitudeMeters>812.79998779296875</AltitudeMeters>
            <DistanceMeters>NAN</DistanceMeters>
          </Trackpoint>
          <Trackpoint>
            <Time>2020-12-05T09:09:15.000Z</Time>
            <Position>
              <LatitudeDegrees>36.81126424111425876617431640625</LatitudeDegrees>
              <LongitudeDegrees>-4.3783389218151569366455078125</LongitudeDegrees>
            </Position>
            <AltitudeMeters>812.5999755859375</AltitudeMeters>
            <DistanceMeters>NAN</DistanceMeters>
          </Trackpoint>
          <Trackpoint>
            <Time>2020-12-05T09:09:16.000Z</Time>
            <Position>
              <LatitudeDegrees>36.81127547286450862884521484375</LatitudeDegrees>
              <LongitudeDegrees>-4.378344118595123291015625</LongitudeDegrees>
            </Position>
            <AltitudeMeters>812.5999755859375</AltitudeMeters>
            <DistanceMeters>NAN</DistanceMeters>
          </Trackpoint>
          <Trackpoint>
            <Time>2020-12-05T09:09:17.000Z</Time>
            <Position>
              <LatitudeDegrees>36.8112831003963947296142578125</LatitudeDegrees>
              <LongitudeDegrees>-4.37834638170897960662841796875</LongitudeDegrees>
            </Position>
            <AltitudeMeters>812.79998779296875</AltitudeMeters>
            <DistanceMeters>NAN</DistanceMeters>
          </Trackpoint>
          <Trackpoint>
            <Time>2020-12-05T09:09:18.000Z</Time>
            <Position>
              <LatitudeDegrees>36.81129357777535915374755859375</LatitudeDegrees>
              <LongitudeDegrees>-4.37834939919412136077880859375</LongitudeDegrees>
            </Position>
            <AltitudeMeters>812.79998779296875</AltitudeMeters>
            <DistanceMeters>NAN</DistanceMeters>
          </Trackpoint>
          <Trackpoint>
            <Time>2020-12-05T09:09:19.000Z</Time>
            <Position>
              <LatitudeDegrees>36.8113058991730213165283203125</LatitudeDegrees>
              <LongitudeDegrees>-4.37835275195538997650146484375</LongitudeDegrees>
            </Position>
            <AltitudeMeters>812.79998779296875</AltitudeMeters>
            <DistanceMeters>NAN</DistanceMeters>
          </Trackpoint>
          <Trackpoint>
            <Time>2020-12-05T09:09:20.000Z</Time>
            <Position>
              <LatitudeDegrees>36.8113176338374614715576171875</LatitudeDegrees>
              <LongitudeDegrees>-4.37835610471665859222412109375</LongitudeDegrees>
            </Position>
            <AltitudeMeters>813</AltitudeMeters>
            <DistanceMeters>NAN</DistanceMeters>
          </Trackpoint>
          <Trackpoint>
            <Time>2020-12-05T09:09:21.000Z</Time>
            <Position>
              <LatitudeDegrees>36.81132777594029903411865234375</LatitudeDegrees>
              <LongitudeDegrees>-4.37835794873535633087158203125</LongitudeDegrees>
            </Position>
            <AltitudeMeters>813.20001220703125</AltitudeMeters>
            <DistanceMeters>NAN</DistanceMeters>
          </Trackpoint>
          <Trackpoint>
            <Time>2020-12-05T09:09:22.000Z</Time>
            <Position>
              <LatitudeDegrees>36.81133858859539031982421875</LatitudeDegrees>
              <LongitudeDegrees>-4.37835509888827800750732421875</LongitudeDegrees>
            </Position>
            <AltitudeMeters>813.5999755859375</AltitudeMeters>
            <DistanceMeters>NAN</DistanceMeters>
          </Trackpoint>
          <Trackpoint>
            <Time>2020-12-05T09:09:23.000Z</Time>
            <Position>
              <LatitudeDegrees>36.811350993812084197998046875</LatitudeDegrees>
              <LongitudeDegrees>-4.37835157848894596099853515625</LongitudeDegrees>
            </Position>
            <AltitudeMeters>813.5999755859375</AltitudeMeters>
            <DistanceMeters>NAN</DistanceMeters>
          </Trackpoint>
          <Trackpoint>
            <Time>2020-12-05T09:09:24.000Z</Time>
            <Position>
              <LatitudeDegrees>36.81136331520974636077880859375</LatitudeDegrees>
              <LongitudeDegrees>-4.3783469684422016143798828125</LongitudeDegrees>
            </Position>
            <AltitudeMeters>813.79998779296875</AltitudeMeters>
            <DistanceMeters>NAN</DistanceMeters>
          </Trackpoint>
          <Trackpoint>
            <Time>2020-12-05T09:09:25.000Z</Time>
            <Position>
              <LatitudeDegrees>36.81137521751224994659423828125</LatitudeDegrees>
              <LongitudeDegrees>-4.3783405981957912445068359375</LongitudeDegrees>
            </Position>
            <AltitudeMeters>814</AltitudeMeters>
            <DistanceMeters>NAN</DistanceMeters>
          </Trackpoint>
          <Trackpoint>
            <Time>2020-12-05T09:09:26.000Z</Time>
            <Position>
              <LatitudeDegrees>36.81138829328119754791259765625</LatitudeDegrees>
              <LongitudeDegrees>-4.37833766452968120574951171875</LongitudeDegrees>
            </Position>
            <AltitudeMeters>814</AltitudeMeters>
            <DistanceMeters>NAN</DistanceMeters>
          </Trackpoint>
          <Trackpoint>
            <Time>2020-12-05T09:09:27.000Z</Time>
            <Position>
              <LatitudeDegrees>36.81140103377401828765869140625</LatitudeDegrees>
              <LongitudeDegrees>-4.37833598814904689788818359375</LongitudeDegrees>
            </Position>
            <AltitudeMeters>814</AltitudeMeters>
            <DistanceMeters>NAN</DistanceMeters>
          </Trackpoint>
          <Trackpoint>
            <Time>2020-12-05T09:09:28.000Z</Time>
            <Position>
              <LatitudeDegrees>36.81141410954296588897705078125</LatitudeDegrees>
              <LongitudeDegrees>-4.37833263538777828216552734375</LongitudeDegrees>
            </Position>
            <AltitudeMeters>814</AltitudeMeters>
            <DistanceMeters>NAN</DistanceMeters>
          </Trackpoint>
          <Trackpoint>
            <Time>2020-12-05T09:09:29.000Z</Time>
            <Position>
              <LatitudeDegrees>36.8114252574741840362548828125</LatitudeDegrees>
              <LongitudeDegrees>-4.37832844443619251251220703125</LongitudeDegrees>
            </Position>
            <AltitudeMeters>813.5999755859375</AltitudeMeters>
            <DistanceMeters>NAN</DistanceMeters>
          </Trackpoint>
          <Trackpoint>
            <Time>2020-12-05T09:09:30.000Z</Time>
            <Position>
              <LatitudeDegrees>36.811433471739292144775390625</LatitudeDegrees>
              <LongitudeDegrees>-4.3783251754939556121826171875</LongitudeDegrees>
            </Position>
            <AltitudeMeters>813.4000244140625</AltitudeMeters>
            <DistanceMeters>NAN</DistanceMeters>
          </Trackpoint>
          <Trackpoint>
            <Time>2020-12-05T09:09:31.000Z</Time>
            <Position>
              <LatitudeDegrees>36.81143992580473423004150390625</LatitudeDegrees>
              <LongitudeDegrees>-4.37832207418978214263916015625</LongitudeDegrees>
            </Position>
            <AltitudeMeters>813.4000244140625</AltitudeMeters>
            <DistanceMeters>NAN</DistanceMeters>
          </Trackpoint>
          <Trackpoint>
            <Time>2020-12-05T09:09:32.000Z</Time>
            <Position>
              <LatitudeDegrees>36.81144855916500091552734375</LatitudeDegrees>
              <LongitudeDegrees>-4.378319643437862396240234375</LongitudeDegrees>
            </Position>
            <AltitudeMeters>813.20001220703125</AltitudeMeters>
            <DistanceMeters>NAN</DistanceMeters>
          </Trackpoint>
          <Trackpoint>
            <Time>2020-12-05T09:09:33.000Z</Time>
            <Position>
              <LatitudeDegrees>36.811459623277187347412109375</LatitudeDegrees>
              <LongitudeDegrees>-4.378316290676593780517578125</LongitudeDegrees>
            </Position>
            <AltitudeMeters>813.20001220703125</AltitudeMeters>
            <DistanceMeters>NAN</DistanceMeters>
          </Trackpoint>
          <Trackpoint>
            <Time>2020-12-05T09:09:34.000Z</Time>
            <Position>
              <LatitudeDegrees>36.81147177703678607940673828125</LatitudeDegrees>
              <LongitudeDegrees>-4.3783159554004669189453125</LongitudeDegrees>
            </Position>
            <AltitudeMeters>813.20001220703125</AltitudeMeters>
            <DistanceMeters>NAN</DistanceMeters>
          </Trackpoint>
          <Trackpoint>
            <Time>2020-12-05T09:09:35.000Z</Time>
            <Position>
              <LatitudeDegrees>36.8114849366247653961181640625</LatitudeDegrees>
              <LongitudeDegrees>-4.37831603921949863433837890625</LongitudeDegrees>
            </Position>
            <AltitudeMeters>813.4000244140625</AltitudeMeters>
            <DistanceMeters>NAN</DistanceMeters>
          </Trackpoint>
          <Trackpoint>
            <Time>2020-12-05T09:09:36.000Z</Time>
            <Position>
              <LatitudeDegrees>36.8114990182220935821533203125</LatitudeDegrees>
              <LongitudeDegrees>-4.37831268645823001861572265625</LongitudeDegrees>
            </Position>
            <AltitudeMeters>813.5999755859375</AltitudeMeters>
            <DistanceMeters>NAN</DistanceMeters>
          </Trackpoint>
          <Trackpoint>
            <Time>2020-12-05T09:09:37.000Z</Time>
            <Position>
              <LatitudeDegrees>36.81150899268686771392822265625</LatitudeDegrees>
              <LongitudeDegrees>-4.37830832786858081817626953125</LongitudeDegrees>
            </Position>
            <AltitudeMeters>813.79998779296875</AltitudeMeters>
            <DistanceMeters>NAN</DistanceMeters>
          </Trackpoint>
          <Trackpoint>
            <Time>2020-12-05T09:09:38.000Z</Time>
            <Position>
              <LatitudeDegrees>36.8115208111703395843505859375</LatitudeDegrees>
              <LongitudeDegrees>-4.378304220736026763916015625</LongitudeDegrees>
            </Position>
            <AltitudeMeters>813.79998779296875</AltitudeMeters>
            <DistanceMeters>NAN</DistanceMeters>
          </Trackpoint>
          <Trackpoint>
            <Time>2020-12-05T09:09:39.000Z</Time>
            <Position>
              <LatitudeDegrees>36.8115328811109066009521484375</LatitudeDegrees>
              <LongitudeDegrees>-4.3782971799373626708984375</LongitudeDegrees>
            </Position>
            <AltitudeMeters>814</AltitudeMeters>
            <DistanceMeters>NAN</DistanceMeters>
          </Trackpoint>
          <Trackpoint>
            <Time>2020-12-05T09:09:40.000Z</Time>
            <Position>
              <LatitudeDegrees>36.811544783413410186767578125</LatitudeDegrees>
              <LongitudeDegrees>-4.3782909773290157318115234375</LongitudeDegrees>
            </Position>
            <AltitudeMeters>814.20001220703125</AltitudeMeters>
            <DistanceMeters>NAN</DistanceMeters>
          </Trackpoint>
          <Trackpoint>
            <Time>2020-12-05T09:09:41.000Z</Time>
            <Position>
              <LatitudeDegrees>36.81155459024012088775634765625</LatitudeDegrees>
              <LongitudeDegrees>-4.37828904949128627777099609375</LongitudeDegrees>
            </Position>
            <AltitudeMeters>814.20001220703125</AltitudeMeters>
            <DistanceMeters>NAN</DistanceMeters>
          </Trackpoint>
          <Trackpoint>
            <Time>2020-12-05T09:09:42.000Z</Time>
            <Position>
              <LatitudeDegrees>36.81156280450522899627685546875</LatitudeDegrees>
              <LongitudeDegrees>-4.37828921712934970855712890625</LongitudeDegrees>
            </Position>
            <AltitudeMeters>814.20001220703125</AltitudeMeters>
            <DistanceMeters>NAN</DistanceMeters>
          </Trackpoint>
          <Trackpoint>
            <Time>2020-12-05T09:09:43.000Z</Time>
            <Position>
              <LatitudeDegrees>36.8115687556564807891845703125</LatitudeDegrees>
              <LongitudeDegrees>-4.37829541973769664764404296875</LongitudeDegrees>
            </Position>
            <AltitudeMeters>814.4000244140625</AltitudeMeters>
            <DistanceMeters>NAN</DistanceMeters>
          </Trackpoint>
          <Trackpoint>
            <Time>2020-12-05T09:09:44.000Z</Time>
            <Position>
              <LatitudeDegrees>36.81157738901674747467041015625</LatitudeDegrees>
              <LongitudeDegrees>-4.378302209079265594482421875</LongitudeDegrees>
            </Position>
            <AltitudeMeters>814.4000244140625</AltitudeMeters>
            <DistanceMeters>NAN</DistanceMeters>
          </Trackpoint>
          <Trackpoint>
            <Time>2020-12-05T09:09:45.000Z</Time>
            <Position>
              <LatitudeDegrees>36.8115878663957118988037109375</LatitudeDegrees>
              <LongitudeDegrees>-4.37830698676407337188720703125</LongitudeDegrees>
            </Position>
            <AltitudeMeters>814.5999755859375</AltitudeMeters>
            <DistanceMeters>NAN</DistanceMeters>
          </Trackpoint>
          <Trackpoint>
            <Time>2020-12-05T09:09:46.000Z</Time>
            <Position>
              <LatitudeDegrees>36.81159817613661289215087890625</LatitudeDegrees>
              <LongitudeDegrees>-4.37830883078277111053466796875</LongitudeDegrees>
            </Position>
            <AltitudeMeters>814.79998779296875</AltitudeMeters>
            <DistanceMeters>NAN</DistanceMeters>
          </Trackpoint>
          <Trackpoint>
            <Time>2020-12-05T09:09:47.000Z</Time>
            <Position>
              <LatitudeDegrees>36.81160806678235530853271484375</LatitudeDegrees>
              <LongitudeDegrees>-4.3783137761056423187255859375</LongitudeDegrees>
            </Position>
            <AltitudeMeters>815</AltitudeMeters>
            <DistanceMeters>NAN</DistanceMeters>
          </Trackpoint>
          <Trackpoint>
            <Time>2020-12-05T09:09:48.000Z</Time>
            <Position>
              <LatitudeDegrees>36.81162047199904918670654296875</LatitudeDegrees>
              <LongitudeDegrees>-4.37831620685756206512451171875</LongitudeDegrees>
            </Position>
            <AltitudeMeters>815.4000244140625</AltitudeMeters>
            <DistanceMeters>NAN</DistanceMeters>
          </Trackpoint>
          <Trackpoint>
            <Time>2020-12-05T09:09:49.000Z</Time>
            <Position>
              <LatitudeDegrees>36.81163153611123561859130859375</LatitudeDegrees>
              <LongitudeDegrees>-4.3783201463520526885986328125</LongitudeDegrees>
            </Position>
            <AltitudeMeters>815.5999755859375</AltitudeMeters>
            <DistanceMeters>NAN</DistanceMeters>
          </Trackpoint>
          <Trackpoint>
            <Time>2020-12-05T09:09:50.000Z</Time>
            <Position>
              <LatitudeDegrees>36.81164176203310489654541015625</LatitudeDegrees>
              <LongitudeDegrees>-4.378323666751384735107421875</LongitudeDegrees>
            </Position>
            <AltitudeMeters>816</AltitudeMeters>
            <DistanceMeters>NAN</DistanceMeters>
          </Trackpoint>
          <Trackpoint>
            <Time>2020-12-05T09:09:51.000Z</Time>
            <Position>
              <LatitudeDegrees>36.811650730669498443603515625</LatitudeDegrees>
              <LongitudeDegrees>-4.37832601368427276611328125</LongitudeDegrees>
            </Position>
            <AltitudeMeters>816.20001220703125</AltitudeMeters>
            <DistanceMeters>NAN</DistanceMeters>
          </Trackpoint>
          <Trackpoint>
            <Time>2020-12-05T09:09:52.000Z</Time>
            <Position>
              <LatitudeDegrees>36.81166087277233600616455078125</LatitudeDegrees>
              <LongitudeDegrees>-4.378325678408145904541015625</LongitudeDegrees>
            </Position>
            <AltitudeMeters>816.20001220703125</AltitudeMeters>
            <DistanceMeters>NAN</DistanceMeters>
          </Trackpoint>
          <Trackpoint>
            <Time>2020-12-05T09:09:53.000Z</Time>
            <Position>
              <LatitudeDegrees>36.81167252361774444580078125</LatitudeDegrees>
              <LongitudeDegrees>-4.378326348960399627685546875</LongitudeDegrees>
            </Position>
            <AltitudeMeters>816.4000244140625</AltitudeMeters>
            <DistanceMeters>NAN</DistanceMeters>
          </Trackpoint>
          <Trackpoint>
            <Time>2020-12-05T09:09:54.000Z</Time>
            <Position>
              <LatitudeDegrees>36.8116844259202480316162109375</LatitudeDegrees>
              <LongitudeDegrees>-4.3783268518745899200439453125</LongitudeDegrees>
            </Position>
            <AltitudeMeters>816.4000244140625</AltitudeMeters>
            <DistanceMeters>NAN</DistanceMeters>
          </Trackpoint>
          <Trackpoint>
            <Time>2020-12-05T09:09:55.000Z</Time>
            <Position>
              <LatitudeDegrees>36.81169674731791019439697265625</LatitudeDegrees>
              <LongitudeDegrees>-4.3783268518745899200439453125</LongitudeDegrees>
            </Position>
            <AltitudeMeters>816.5999755859375</AltitudeMeters>
            <DistanceMeters>NAN</DistanceMeters>
          </Trackpoint>
          <Trackpoint>
            <Time>2020-12-05T09:09:56.000Z</Time>
            <Position>
              <LatitudeDegrees>36.81170848198235034942626953125</LatitudeDegrees>
              <LongitudeDegrees>-4.37832492403686046600341796875</LongitudeDegrees>
            </Position>
            <AltitudeMeters>816.5999755859375</AltitudeMeters>
            <DistanceMeters>NAN</DistanceMeters>
          </Trackpoint>
          <Trackpoint>
            <Time>2020-12-05T09:09:57.000Z</Time>
            <Position>
              <LatitudeDegrees>36.81171803735196590423583984375</LatitudeDegrees>
              <LongitudeDegrees>-4.37832207418978214263916015625</LongitudeDegrees>
            </Position>
            <AltitudeMeters>816.79998779296875</AltitudeMeters>
            <DistanceMeters>NAN</DistanceMeters>
          </Trackpoint>
          <Trackpoint>
            <Time>2020-12-05T09:09:58.000Z</Time>
            <Position>
              <LatitudeDegrees>36.8117270059883594512939453125</LatitudeDegrees>
              <LongitudeDegrees>-4.37831905670464038848876953125</LongitudeDegrees>
            </Position>
            <AltitudeMeters>816.79998779296875</AltitudeMeters>
            <DistanceMeters>NAN</DistanceMeters>
          </Trackpoint>
          <Trackpoint>
            <Time>2020-12-05T09:09:59.000Z</Time>
            <Position>
              <LatitudeDegrees>36.81173689663410186767578125</LatitudeDegrees>
              <LongitudeDegrees>-4.3783191405236721038818359375</LongitudeDegrees>
            </Position>
            <AltitudeMeters>816.5999755859375</AltitudeMeters>
            <DistanceMeters>NAN</DistanceMeters>
          </Trackpoint>
          <Trackpoint>
            <Time>2020-12-05T09:10:00.000Z</Time>
            <Position>
              <LatitudeDegrees>36.81174620054662227630615234375</LatitudeDegrees>
              <LongitudeDegrees>-4.378316961228847503662109375</LongitudeDegrees>
            </Position>
            <AltitudeMeters>816.5999755859375</AltitudeMeters>
            <DistanceMeters>NAN</DistanceMeters>
          </Trackpoint>
          <Trackpoint>
            <Time>2020-12-05T09:10:01.000Z</Time>
            <Position>
              <LatitudeDegrees>36.81175190024077892303466796875</LatitudeDegrees>
              <LongitudeDegrees>-4.37831235118210315704345703125</LongitudeDegrees>
            </Position>
            <AltitudeMeters>816.5999755859375</AltitudeMeters>
            <DistanceMeters>NAN</DistanceMeters>
          </Trackpoint>
          <Trackpoint>
            <Time>2020-12-05T09:10:02.000Z</Time>
            <Position>
              <LatitudeDegrees>36.81176061742007732391357421875</LatitudeDegrees>
              <LongitudeDegrees>-4.37830866314470767974853515625</LongitudeDegrees>
            </Position>
            <AltitudeMeters>816.4000244140625</AltitudeMeters>
            <DistanceMeters>NAN</DistanceMeters>
          </Trackpoint>
          <Trackpoint>
            <Time>2020-12-05T09:10:03.000Z</Time>
            <Position>
              <LatitudeDegrees>36.811771430075168609619140625</LatitudeDegrees>
              <LongitudeDegrees>-4.37830380164086818695068359375</LongitudeDegrees>
            </Position>
            <AltitudeMeters>816.20001220703125</AltitudeMeters>
            <DistanceMeters>NAN</DistanceMeters>
          </Trackpoint>
          <Trackpoint>
            <Time>2020-12-05T09:10:04.000Z</Time>
            <Position>
              <LatitudeDegrees>36.81178458966314792633056640625</LatitudeDegrees>
              <LongitudeDegrees>-4.37830011360347270965576171875</LongitudeDegrees>
            </Position>
            <AltitudeMeters>816</AltitudeMeters>
            <DistanceMeters>NAN</DistanceMeters>
          </Trackpoint>
          <Trackpoint>
            <Time>2020-12-05T09:10:05.000Z</Time>
            <Position>
              <LatitudeDegrees>36.81179716251790523529052734375</LatitudeDegrees>
              <LongitudeDegrees>-4.3782943300902843475341796875</LongitudeDegrees>
            </Position>
            <AltitudeMeters>815.79998779296875</AltitudeMeters>
            <DistanceMeters>NAN</DistanceMeters>
          </Trackpoint>
          <Trackpoint>
            <Time>2020-12-05T09:10:06.000Z</Time>
            <Position>
              <LatitudeDegrees>36.81181090883910655975341796875</LatitudeDegrees>
              <LongitudeDegrees>-4.37829340808093547821044921875</LongitudeDegrees>
            </Position>
            <AltitudeMeters>815.79998779296875</AltitudeMeters>
            <DistanceMeters>NAN</DistanceMeters>
          </Trackpoint>
          <Trackpoint>
            <Time>2020-12-05T09:10:07.000Z</Time>
            <Position>
              <LatitudeDegrees>36.81182482279837131500244140625</LatitudeDegrees>
              <LongitudeDegrees>-4.37829173170030117034912109375</LongitudeDegrees>
            </Position>
            <AltitudeMeters>815.79998779296875</AltitudeMeters>
            <DistanceMeters>NAN</DistanceMeters>
          </Trackpoint>
          <Trackpoint>
            <Time>2020-12-05T09:10:08.000Z</Time>
            <Position>
              <LatitudeDegrees>36.81183622218668460845947265625</LatitudeDegrees>
              <LongitudeDegrees>-4.37828846275806427001953125</LongitudeDegrees>
            </Position>
            <AltitudeMeters>815.79998779296875</AltitudeMeters>
            <DistanceMeters>NAN</DistanceMeters>
          </Trackpoint>
          <Trackpoint>
            <Time>2020-12-05T09:10:09.000Z</Time>
            <Position>
              <LatitudeDegrees>36.8118473701179027557373046875</LatitudeDegrees>
              <LongitudeDegrees>-4.3782864511013031005859375</LongitudeDegrees>
            </Position>
            <AltitudeMeters>815.79998779296875</AltitudeMeters>
            <DistanceMeters>NAN</DistanceMeters>
          </Trackpoint>
          <Trackpoint>
            <Time>2020-12-05T09:10:10.000Z</Time>
            <Position>
              <LatitudeDegrees>36.811857260763645172119140625</LatitudeDegrees>
              <LongitudeDegrees>-4.37828502617776393890380859375</LongitudeDegrees>
            </Position>
            <AltitudeMeters>816</AltitudeMeters>
            <DistanceMeters>NAN</DistanceMeters>
          </Trackpoint>
          <Trackpoint>
            <Time>2020-12-05T09:10:11.000Z</Time>
            <Position>
              <LatitudeDegrees>36.8118627928197383880615234375</LatitudeDegrees>
              <LongitudeDegrees>-4.37828938476741313934326171875</LongitudeDegrees>
            </Position>
            <AltitudeMeters>816</AltitudeMeters>
            <DistanceMeters>NAN</DistanceMeters>
          </Trackpoint>
          <Trackpoint>
            <Time>2020-12-05T09:10:12.000Z</Time>
            <Position>
              <LatitudeDegrees>36.81186974979937076568603515625</LatitudeDegrees>
              <LongitudeDegrees>-4.37829005531966686248779296875</LongitudeDegrees>
            </Position>
            <AltitudeMeters>816</AltitudeMeters>
            <DistanceMeters>NAN</DistanceMeters>
          </Trackpoint>
          <Trackpoint>
            <Time>2020-12-05T09:10:13.000Z</Time>
            <Position>
              <LatitudeDegrees>36.811878718435764312744140625</LatitudeDegrees>
              <LongitudeDegrees>-4.3782903067767620086669921875</LongitudeDegrees>
            </Position>
            <AltitudeMeters>816</AltitudeMeters>
            <DistanceMeters>NAN</DistanceMeters>
          </Trackpoint>
          <Trackpoint>
            <Time>2020-12-05T09:10:14.000Z</Time>
            <Position>
              <LatitudeDegrees>36.81188969872891902923583984375</LatitudeDegrees>
              <LongitudeDegrees>-4.3782862834632396697998046875</LongitudeDegrees>
            </Position>
            <AltitudeMeters>816</AltitudeMeters>
            <DistanceMeters>NAN</DistanceMeters>
          </Trackpoint>
          <Trackpoint>
            <Time>2020-12-05T09:10:15.000Z</Time>
            <Position>
              <LatitudeDegrees>36.8119038641452789306640625</LatitudeDegrees>
              <LongitudeDegrees>-4.37828586436808109283447265625</LongitudeDegrees>
            </Position>
            <AltitudeMeters>815.79998779296875</AltitudeMeters>
            <DistanceMeters>NAN</DistanceMeters>
          </Trackpoint>
          <Trackpoint>
            <Time>2020-12-05T09:10:16.000Z</Time>
            <Position>
              <LatitudeDegrees>36.81191928684711456298828125</LatitudeDegrees>
              <LongitudeDegrees>-4.37828452326357364654541015625</LongitudeDegrees>
            </Position>
            <AltitudeMeters>815.79998779296875</AltitudeMeters>
            <DistanceMeters>NAN</DistanceMeters>
          </Trackpoint>
          <Trackpoint>
            <Time>2020-12-05T09:10:17.000Z</Time>
            <Position>
              <LatitudeDegrees>36.81193512864410877227783203125</LatitudeDegrees>
              <LongitudeDegrees>-4.3782812543213367462158203125</LongitudeDegrees>
            </Position>
            <AltitudeMeters>815.5999755859375</AltitudeMeters>
            <DistanceMeters>NAN</DistanceMeters>
          </Trackpoint>
          <Trackpoint>
            <Time>2020-12-05T09:10:18.000Z</Time>
            <Position>
              <LatitudeDegrees>36.81194820441305637359619140625</LatitudeDegrees>
              <LongitudeDegrees>-4.3782784044742584228515625</LongitudeDegrees>
            </Position>
            <AltitudeMeters>815.5999755859375</AltitudeMeters>
            <DistanceMeters>NAN</DistanceMeters>
          </Trackpoint>
          <Trackpoint>
            <Time>2020-12-05T09:10:19.000Z</Time>
            <Position>
              <LatitudeDegrees>36.81196178309619426727294921875</LatitudeDegrees>
              <LongitudeDegrees>-4.3782738782465457916259765625</LongitudeDegrees>
            </Position>
            <AltitudeMeters>815.5999755859375</AltitudeMeters>
            <DistanceMeters>NAN</DistanceMeters>
          </Trackpoint>
          <Trackpoint>
            <Time>2020-12-05T09:10:20.000Z</Time>
            <Position>
              <LatitudeDegrees>36.81197687052190303802490234375</LatitudeDegrees>
              <LongitudeDegrees>-4.3782708607614040374755859375</LongitudeDegrees>
            </Position>
            <AltitudeMeters>815.5999755859375</AltitudeMeters>
            <DistanceMeters>NAN</DistanceMeters>
          </Trackpoint>
          <Trackpoint>
            <Time>2020-12-05T09:10:21.000Z</Time>
            <Position>
              <LatitudeDegrees>36.81199028156697750091552734375</LatitudeDegrees>
              <LongitudeDegrees>-4.37826977111399173736572265625</LongitudeDegrees>
            </Position>
            <AltitudeMeters>815.79998779296875</AltitudeMeters>
            <DistanceMeters>NAN</DistanceMeters>
          </Trackpoint>
          <Trackpoint>
            <Time>2020-12-05T09:10:22.000Z</Time>
            <Position>
              <LatitudeDegrees>36.81200318969786167144775390625</LatitudeDegrees>
              <LongitudeDegrees>-4.37827077694237232208251953125</LongitudeDegrees>
            </Position>
            <AltitudeMeters>816</AltitudeMeters>
            <DistanceMeters>NAN</DistanceMeters>
          </Trackpoint>
          <Trackpoint>
            <Time>2020-12-05T09:10:23.000Z</Time>
            <Position>
              <LatitudeDegrees>36.81201458908617496490478515625</LatitudeDegrees>
              <LongitudeDegrees>-4.37827278859913349151611328125</LongitudeDegrees>
            </Position>
            <AltitudeMeters>816.20001220703125</AltitudeMeters>
            <DistanceMeters>NAN</DistanceMeters>
          </Trackpoint>
          <Trackpoint>
            <Time>2020-12-05T09:10:24.000Z</Time>
            <Position>
              <LatitudeDegrees>36.81202791631221771240234375</LatitudeDegrees>
              <LongitudeDegrees>-4.378272034227848052978515625</LongitudeDegrees>
            </Position>
            <AltitudeMeters>816.4000244140625</AltitudeMeters>
            <DistanceMeters>NAN</DistanceMeters>
          </Trackpoint>
          <Trackpoint>
            <Time>2020-12-05T09:10:25.000Z</Time>
            <Position>
              <LatitudeDegrees>36.81204007007181644439697265625</LatitudeDegrees>
              <LongitudeDegrees>-4.37826834619045257568359375</LongitudeDegrees>
            </Position>
            <AltitudeMeters>816.5999755859375</AltitudeMeters>
            <DistanceMeters>NAN</DistanceMeters>
          </Trackpoint>
          <Trackpoint>
            <Time>2020-12-05T09:10:26.000Z</Time>
            <Position>
              <LatitudeDegrees>36.81205197237432003021240234375</LatitudeDegrees>
              <LongitudeDegrees>-4.3782654963433742523193359375</LongitudeDegrees>
            </Position>
            <AltitudeMeters>816.79998779296875</AltitudeMeters>
            <DistanceMeters>NAN</DistanceMeters>
          </Trackpoint>
          <Trackpoint>
            <Time>2020-12-05T09:10:27.000Z</Time>
            <Position>
              <LatitudeDegrees>36.81206370703876018524169921875</LatitudeDegrees>
              <LongitudeDegrees>-4.37826029956340789794921875</LongitudeDegrees>
            </Position>
            <AltitudeMeters>817.4000244140625</AltitudeMeters>
            <DistanceMeters>NAN</DistanceMeters>
          </Trackpoint>
          <Trackpoint>
            <Time>2020-12-05T09:10:28.000Z</Time>
            <Position>
              <LatitudeDegrees>36.81207443587481975555419921875</LatitudeDegrees>
              <LongitudeDegrees>-4.3782556056976318359375</LongitudeDegrees>
            </Position>
            <AltitudeMeters>817.79998779296875</AltitudeMeters>
            <DistanceMeters>NAN</DistanceMeters>
          </Trackpoint>
          <Trackpoint>
            <Time>2020-12-05T09:10:29.000Z</Time>
            <Position>
              <LatitudeDegrees>36.81208265013992786407470703125</LatitudeDegrees>
              <LongitudeDegrees>-4.37825166620314121246337890625</LongitudeDegrees>
            </Position>
            <AltitudeMeters>818.20001220703125</AltitudeMeters>
            <DistanceMeters>NAN</DistanceMeters>
          </Trackpoint>
          <Trackpoint>
            <Time>2020-12-05T09:10:30.000Z</Time>
            <Position>
              <LatitudeDegrees>36.81209203787147998809814453125</LatitudeDegrees>
              <LongitudeDegrees>-4.3782489001750946044921875</LongitudeDegrees>
            </Position>
            <AltitudeMeters>818.5999755859375</AltitudeMeters>
            <DistanceMeters>NAN</DistanceMeters>
          </Trackpoint>
          <Trackpoint>
            <Time>2020-12-05T09:10:31.000Z</Time>
            <Position>
              <LatitudeDegrees>36.8121041916310787200927734375</LatitudeDegrees>
              <LongitudeDegrees>-4.378247559070587158203125</LongitudeDegrees>
            </Position>
            <AltitudeMeters>818.5999755859375</AltitudeMeters>
            <DistanceMeters>NAN</DistanceMeters>
          </Trackpoint>
          <Trackpoint>
            <Time>2020-12-05T09:10:32.000Z</Time>
            <Position>
              <LatitudeDegrees>36.8121155910193920135498046875</LatitudeDegrees>
              <LongitudeDegrees>-4.3782462179660797119140625</LongitudeDegrees>
            </Position>
            <AltitudeMeters>818.5999755859375</AltitudeMeters>
            <DistanceMeters>NAN</DistanceMeters>
          </Trackpoint>
          <Trackpoint>
            <Time>2020-12-05T09:10:33.000Z</Time>
            <Position>
              <LatitudeDegrees>36.81212439201772212982177734375</LatitudeDegrees>
              <LongitudeDegrees>-4.37824663706123828887939453125</LongitudeDegrees>
            </Position>
            <AltitudeMeters>818.5999755859375</AltitudeMeters>
            <DistanceMeters>NAN</DistanceMeters>
          </Trackpoint>
          <Trackpoint>
            <Time>2020-12-05T09:10:34.000Z</Time>
            <Position>
              <LatitudeDegrees>36.8121326901018619537353515625</LatitudeDegrees>
              <LongitudeDegrees>-4.37825015746057033538818359375</LongitudeDegrees>
            </Position>
            <AltitudeMeters>818.5999755859375</AltitudeMeters>
            <DistanceMeters>NAN</DistanceMeters>
          </Trackpoint>
          <Trackpoint>
            <Time>2020-12-05T09:10:35.000Z</Time>
            <Position>
              <LatitudeDegrees>36.81214333511888980865478515625</LatitudeDegrees>
              <LongitudeDegrees>-4.3782477267086505889892578125</LongitudeDegrees>
            </Position>
            <AltitudeMeters>818.4000244140625</AltitudeMeters>
            <DistanceMeters>NAN</DistanceMeters>
          </Trackpoint>
          <Trackpoint>
            <Time>2020-12-05T09:10:36.000Z</Time>
            <Position>
              <LatitudeDegrees>36.81215574033558368682861328125</LatitudeDegrees>
              <LongitudeDegrees>-4.37824688851833343505859375</LongitudeDegrees>
            </Position>
            <AltitudeMeters>818.4000244140625</AltitudeMeters>
            <DistanceMeters>NAN</DistanceMeters>
          </Trackpoint>
          <Trackpoint>
            <Time>2020-12-05T09:10:37.000Z</Time>
            <Position>
              <LatitudeDegrees>36.8121707439422607421875</LatitudeDegrees>
              <LongitudeDegrees>-4.37824420630931854248046875</LongitudeDegrees>
            </Position>
            <AltitudeMeters>818.4000244140625</AltitudeMeters>
            <DistanceMeters>NAN</DistanceMeters>
          </Trackpoint>
          <Trackpoint>
            <Time>2020-12-05T09:10:38.000Z</Time>
            <Position>
              <LatitudeDegrees>36.8121854960918426513671875</LatitudeDegrees>
              <LongitudeDegrees>-4.3782386742532253265380859375</LongitudeDegrees>
            </Position>
            <AltitudeMeters>818.4000244140625</AltitudeMeters>
            <DistanceMeters>NAN</DistanceMeters>
          </Trackpoint>
          <Trackpoint>
            <Time>2020-12-05T09:10:39.000Z</Time>
            <Position>
              <LatitudeDegrees>36.81219848804175853729248046875</LatitudeDegrees>
              <LongitudeDegrees>-4.3782326392829418182373046875</LongitudeDegrees>
            </Position>
            <AltitudeMeters>818.4000244140625</AltitudeMeters>
            <DistanceMeters>NAN</DistanceMeters>
          </Trackpoint>
          <Trackpoint>
            <Time>2020-12-05T09:10:40.000Z</Time>
            <Position>
              <LatitudeDegrees>36.81221039034426212310791015625</LatitudeDegrees>
              <LongitudeDegrees>-4.37822677195072174072265625</LongitudeDegrees>
            </Position>
            <AltitudeMeters>818.4000244140625</AltitudeMeters>
            <DistanceMeters>NAN</DistanceMeters>
          </Trackpoint>
          <Trackpoint>
            <Time>2020-12-05T09:10:41.000Z</Time>
            <Position>
              <LatitudeDegrees>36.81222061626613140106201171875</LatitudeDegrees>
              <LongitudeDegrees>-4.37822266481816768646240234375</LongitudeDegrees>
            </Position>
            <AltitudeMeters>818.4000244140625</AltitudeMeters>
            <DistanceMeters>NAN</DistanceMeters>
          </Trackpoint>
          <Trackpoint>
            <Time>2020-12-05T09:10:42.000Z</Time>
            <Position>
              <LatitudeDegrees>36.8122309260070323944091796875</LatitudeDegrees>
              <LongitudeDegrees>-4.37821847386658191680908203125</LongitudeDegrees>
            </Position>
            <AltitudeMeters>818.5999755859375</AltitudeMeters>
            <DistanceMeters>NAN</DistanceMeters>
          </Trackpoint>
          <Trackpoint>
            <Time>2020-12-05T09:10:43.000Z</Time>
            <Position>
              <LatitudeDegrees>36.81224106810986995697021484375</LatitudeDegrees>
              <LongitudeDegrees>-4.3782141990959644317626953125</LongitudeDegrees>
            </Position>
            <AltitudeMeters>818.79998779296875</AltitudeMeters>
            <DistanceMeters>NAN</DistanceMeters>
          </Trackpoint>
          <Trackpoint>
            <Time>2020-12-05T09:10:44.000Z</Time>
            <Position>
              <LatitudeDegrees>36.81224894709885120391845703125</LatitudeDegrees>
              <LongitudeDegrees>-4.37821445055305957794189453125</LongitudeDegrees>
            </Position>
            <AltitudeMeters>819</AltitudeMeters>
            <DistanceMeters>NAN</DistanceMeters>
          </Trackpoint>
          <Trackpoint>
            <Time>2020-12-05T09:10:45.000Z</Time>
            <Position>
              <LatitudeDegrees>36.8122590892016887664794921875</LatitudeDegrees>
              <LongitudeDegrees>-4.37821872532367706298828125</LongitudeDegrees>
            </Position>
            <AltitudeMeters>819.20001220703125</AltitudeMeters>
            <DistanceMeters>NAN</DistanceMeters>
          </Trackpoint>
          <Trackpoint>
            <Time>2020-12-05T09:10:46.000Z</Time>
            <Position>
              <LatitudeDegrees>36.8122701533138751983642578125</LatitudeDegrees>
              <LongitudeDegrees>-4.37822517938911914825439453125</LongitudeDegrees>
            </Position>
            <AltitudeMeters>819.4000244140625</AltitudeMeters>
            <DistanceMeters>NAN</DistanceMeters>
          </Trackpoint>
          <Trackpoint>
            <Time>2020-12-05T09:10:47.000Z</Time>
            <Position>
              <LatitudeDegrees>36.8122812174260616302490234375</LatitudeDegrees>
              <LongitudeDegrees>-4.37822668813169002532958984375</LongitudeDegrees>
            </Position>
            <AltitudeMeters>819.79998779296875</AltitudeMeters>
            <DistanceMeters>NAN</DistanceMeters>
          </Trackpoint>
          <Trackpoint>
            <Time>2020-12-05T09:10:48.000Z</Time>
            <Position>
              <LatitudeDegrees>36.8122906051576137542724609375</LatitudeDegrees>
              <LongitudeDegrees>-4.3782301247119903564453125</LongitudeDegrees>
            </Position>
            <AltitudeMeters>820</AltitudeMeters>
            <DistanceMeters>NAN</DistanceMeters>
          </Trackpoint>
          <Trackpoint>
            <Time>2020-12-05T09:10:49.000Z</Time>
            <Position>
              <LatitudeDegrees>36.81230057962238788604736328125</LatitudeDegrees>
              <LongitudeDegrees>-4.3782339803874492645263671875</LongitudeDegrees>
            </Position>
            <AltitudeMeters>820.4000244140625</AltitudeMeters>
            <DistanceMeters>NAN</DistanceMeters>
          </Trackpoint>
          <Trackpoint>
            <Time>2020-12-05T09:10:50.000Z</Time>
            <Position>
              <LatitudeDegrees>36.8123117275536060333251953125</LatitudeDegrees>
              <LongitudeDegrees>-4.37824018299579620361328125</LongitudeDegrees>
            </Position>
            <AltitudeMeters>820.5999755859375</AltitudeMeters>
            <DistanceMeters>NAN</DistanceMeters>
          </Trackpoint>
          <Trackpoint>
            <Time>2020-12-05T09:10:51.000Z</Time>
            <Position>
              <LatitudeDegrees>36.8123227916657924652099609375</LatitudeDegrees>
              <LongitudeDegrees>-4.37824814580380916595458984375</LongitudeDegrees>
            </Position>
            <AltitudeMeters>821</AltitudeMeters>
            <DistanceMeters>NAN</DistanceMeters>
          </Trackpoint>
          <Trackpoint>
            <Time>2020-12-05T09:10:52.000Z</Time>
            <Position>
              <LatitudeDegrees>36.81233226321637630462646484375</LatitudeDegrees>
              <LongitudeDegrees>-4.3782530911266803741455078125</LongitudeDegrees>
            </Position>
            <AltitudeMeters>821.20001220703125</AltitudeMeters>
            <DistanceMeters>NAN</DistanceMeters>
          </Trackpoint>
          <Trackpoint>
            <Time>2020-12-05T09:10:53.000Z</Time>
            <Position>
              <LatitudeDegrees>36.8123408965766429901123046875</LatitudeDegrees>
              <LongitudeDegrees>-4.37825870700180530548095703125</LongitudeDegrees>
            </Position>
            <AltitudeMeters>821.4000244140625</AltitudeMeters>
            <DistanceMeters>NAN</DistanceMeters>
          </Trackpoint>
          <Trackpoint>
            <Time>2020-12-05T09:10:54.000Z</Time>
            <Position>
              <LatitudeDegrees>36.81234852410852909088134765625</LatitudeDegrees>
              <LongitudeDegrees>-4.3782678432762622833251953125</LongitudeDegrees>
            </Position>
            <AltitudeMeters>821.79998779296875</AltitudeMeters>
            <DistanceMeters>NAN</DistanceMeters>
          </Trackpoint>
          <Trackpoint>
            <Time>2020-12-05T09:10:55.000Z</Time>
            <Position>
              <LatitudeDegrees>36.8123563192784786224365234375</LatitudeDegrees>
              <LongitudeDegrees>-4.37827228568494319915771484375</LongitudeDegrees>
            </Position>
            <AltitudeMeters>822</AltitudeMeters>
            <DistanceMeters>NAN</DistanceMeters>
          </Trackpoint>
          <Trackpoint>
            <Time>2020-12-05T09:10:56.000Z</Time>
            <Position>
              <LatitudeDegrees>36.81236545555293560028076171875</LatitudeDegrees>
              <LongitudeDegrees>-4.37827505171298980712890625</LongitudeDegrees>
            </Position>
            <AltitudeMeters>822.20001220703125</AltitudeMeters>
            <DistanceMeters>NAN</DistanceMeters>
          </Trackpoint>
          <Trackpoint>
            <Time>2020-12-05T09:10:57.000Z</Time>
            <Position>
              <LatitudeDegrees>36.812375597655773162841796875</LatitudeDegrees>
              <LongitudeDegrees>-4.37828334979712963104248046875</LongitudeDegrees>
            </Position>
            <AltitudeMeters>822.20001220703125</AltitudeMeters>
            <DistanceMeters>NAN</DistanceMeters>
          </Trackpoint>
          <Trackpoint>
            <Time>2020-12-05T09:10:58.000Z</Time>
            <Position>
              <LatitudeDegrees>36.8123868294060230255126953125</LatitudeDegrees>
              <LongitudeDegrees>-4.378290139138698577880859375</LongitudeDegrees>
            </Position>
            <AltitudeMeters>822.4000244140625</AltitudeMeters>
            <DistanceMeters>NAN</DistanceMeters>
          </Trackpoint>
          <Trackpoint>
            <Time>2020-12-05T09:10:59.000Z</Time>
            <Position>
              <LatitudeDegrees>36.81240015663206577301025390625</LatitudeDegrees>
              <LongitudeDegrees>-4.37829114496707916259765625</LongitudeDegrees>
            </Position>
            <AltitudeMeters>822.4000244140625</AltitudeMeters>
            <DistanceMeters>NAN</DistanceMeters>
          </Trackpoint>
          <Trackpoint>
            <Time>2020-12-05T09:11:00.000Z</Time>
            <Position>
              <LatitudeDegrees>36.8124136514961719512939453125</LatitudeDegrees>
              <LongitudeDegrees>-4.378290474414825439453125</LongitudeDegrees>
            </Position>
            <AltitudeMeters>822.5999755859375</AltitudeMeters>
            <DistanceMeters>NAN</DistanceMeters>
          </Trackpoint>
          <Trackpoint>
            <Time>2020-12-05T09:11:01.000Z</Time>
            <Position>
              <LatitudeDegrees>36.8124237097799777984619140625</LatitudeDegrees>
              <LongitudeDegrees>-4.3782896362245082855224609375</LongitudeDegrees>
            </Position>
            <AltitudeMeters>822.5999755859375</AltitudeMeters>
            <DistanceMeters>NAN</DistanceMeters>
          </Trackpoint>
          <Trackpoint>
            <Time>2020-12-05T09:11:02.000Z</Time>
            <Position>
              <LatitudeDegrees>36.81243158876895904541015625</LatitudeDegrees>
              <LongitudeDegrees>-4.37829106114804744720458984375</LongitudeDegrees>
            </Position>
            <AltitudeMeters>822.79998779296875</AltitudeMeters>
            <DistanceMeters>NAN</DistanceMeters>
          </Trackpoint>
          <Trackpoint>
            <Time>2020-12-05T09:11:03.000Z</Time>
            <Position>
              <LatitudeDegrees>36.81244122795760631561279296875</LatitudeDegrees>
              <LongitudeDegrees>-4.378291480243206024169921875</LongitudeDegrees>
            </Position>
            <AltitudeMeters>822.79998779296875</AltitudeMeters>
            <DistanceMeters>NAN</DistanceMeters>
          </Trackpoint>
          <Trackpoint>
            <Time>2020-12-05T09:11:04.000Z</Time>
            <Position>
              <LatitudeDegrees>36.81245095096528530120849609375</LatitudeDegrees>
              <LongitudeDegrees>-4.37829173170030117034912109375</LongitudeDegrees>
            </Position>
            <AltitudeMeters>822.79998779296875</AltitudeMeters>
            <DistanceMeters>NAN</DistanceMeters>
          </Trackpoint>
          <Trackpoint>
            <Time>2020-12-05T09:11:05.000Z</Time>
            <Position>
              <LatitudeDegrees>36.81246033869683742523193359375</LatitudeDegrees>
              <LongitudeDegrees>-4.378292150795459747314453125</LongitudeDegrees>
            </Position>
            <AltitudeMeters>823</AltitudeMeters>
            <DistanceMeters>NAN</DistanceMeters>
          </Trackpoint>
          <Trackpoint>
            <Time>2020-12-05T09:11:06.000Z</Time>
            <Position>
              <LatitudeDegrees>36.81247039698064327239990234375</LatitudeDegrees>
              <LongitudeDegrees>-4.3782918155193328857421875</LongitudeDegrees>
            </Position>
            <AltitudeMeters>823</AltitudeMeters>
            <DistanceMeters>NAN</DistanceMeters>
          </Trackpoint>
          <Trackpoint>
            <Time>2020-12-05T09:11:07.000Z</Time>
            <Position>
              <LatitudeDegrees>36.81248280219733715057373046875</LatitudeDegrees>
              <LongitudeDegrees>-4.37829324044287204742431640625</LongitudeDegrees>
            </Position>
            <AltitudeMeters>823.20001220703125</AltitudeMeters>
            <DistanceMeters>NAN</DistanceMeters>
          </Trackpoint>
          <Trackpoint>
            <Time>2020-12-05T09:11:08.000Z</Time>
            <Position>
              <LatitudeDegrees>36.81249604560434818267822265625</LatitudeDegrees>
              <LongitudeDegrees>-4.37829776667058467864990234375</LongitudeDegrees>
            </Position>
            <AltitudeMeters>823.20001220703125</AltitudeMeters>
            <DistanceMeters>NAN</DistanceMeters>
          </Trackpoint>
          <Trackpoint>
            <Time>2020-12-05T09:11:09.000Z</Time>
            <Position>
              <LatitudeDegrees>36.81250962428748607635498046875</LatitudeDegrees>
              <LongitudeDegrees>-4.3783025443553924560546875</LongitudeDegrees>
            </Position>
            <AltitudeMeters>823.4000244140625</AltitudeMeters>
            <DistanceMeters>NAN</DistanceMeters>
          </Trackpoint>
          <Trackpoint>
            <Time>2020-12-05T09:11:10.000Z</Time>
            <Position>
              <LatitudeDegrees>36.8125236220657825469970703125</LatitudeDegrees>
              <LongitudeDegrees>-4.37830329872667789459228515625</LongitudeDegrees>
            </Position>
            <AltitudeMeters>823.5999755859375</AltitudeMeters>
            <DistanceMeters>NAN</DistanceMeters>
          </Trackpoint>
          <Trackpoint>
            <Time>2020-12-05T09:11:11.000Z</Time>
            <Position>
              <LatitudeDegrees>36.8125373683869838714599609375</LatitudeDegrees>
              <LongitudeDegrees>-4.37830547802150249481201171875</LongitudeDegrees>
            </Position>
            <AltitudeMeters>823.79998779296875</AltitudeMeters>
            <DistanceMeters>NAN</DistanceMeters>
          </Trackpoint>
          <Trackpoint>
            <Time>2020-12-05T09:11:12.000Z</Time>
            <Position>
              <LatitudeDegrees>36.81254935450851917266845703125</LatitudeDegrees>
              <LongitudeDegrees>-4.3783050589263439178466796875</LongitudeDegrees>
            </Position>
            <AltitudeMeters>824</AltitudeMeters>
            <DistanceMeters>NAN</DistanceMeters>
          </Trackpoint>
          <Trackpoint>
            <Time>2020-12-05T09:11:13.000Z</Time>
            <Position>
              <LatitudeDegrees>36.812562681734561920166015625</LatitudeDegrees>
              <LongitudeDegrees>-4.37830463983118534088134765625</LongitudeDegrees>
            </Position>
            <AltitudeMeters>823.79998779296875</AltitudeMeters>
            <DistanceMeters>NAN</DistanceMeters>
          </Trackpoint>
          <Trackpoint>
            <Time>2020-12-05T09:11:14.000Z</Time>
            <Position>
              <LatitudeDegrees>36.8125765956938266754150390625</LatitudeDegrees>
              <LongitudeDegrees>-4.37830262817442417144775390625</LongitudeDegrees>
            </Position>
            <AltitudeMeters>824.20001220703125</AltitudeMeters>
            <DistanceMeters>NAN</DistanceMeters>
          </Trackpoint>
          <Trackpoint>
            <Time>2020-12-05T09:11:15.000Z</Time>
            <Position>
              <LatitudeDegrees>36.81259277276694774627685546875</LatitudeDegrees>
              <LongitudeDegrees>-4.37829910777509212493896484375</LongitudeDegrees>
            </Position>
            <AltitudeMeters>824.4000244140625</AltitudeMeters>
            <DistanceMeters>NAN</DistanceMeters>
          </Trackpoint>
          <Trackpoint>
            <Time>2020-12-05T09:11:16.000Z</Time>
            <Position>
              <LatitudeDegrees>36.8126081116497516632080078125</LatitudeDegrees>
              <LongitudeDegrees>-4.3782918155193328857421875</LongitudeDegrees>
            </Position>
            <AltitudeMeters>824.4000244140625</AltitudeMeters>
            <DistanceMeters>NAN</DistanceMeters>
          </Trackpoint>
          <Trackpoint>
            <Time>2020-12-05T09:11:17.000Z</Time>
            <Position>
              <LatitudeDegrees>36.81262277998030185699462890625</LatitudeDegrees>
              <LongitudeDegrees>-4.378284104168415069580078125</LongitudeDegrees>
            </Position>
            <AltitudeMeters>824</AltitudeMeters>
            <DistanceMeters>NAN</DistanceMeters>
          </Trackpoint>
          <Trackpoint>
            <Time>2020-12-05T09:11:18.000Z</Time>
            <Position>
              <LatitudeDegrees>36.81263267062604427337646484375</LatitudeDegrees>
              <LongitudeDegrees>-4.3782782368361949920654296875</LongitudeDegrees>
            </Position>
            <AltitudeMeters>823.4000244140625</AltitudeMeters>
            <DistanceMeters>NAN</DistanceMeters>
          </Trackpoint>
          <Trackpoint>
            <Time>2020-12-05T09:11:19.000Z</Time>
            <Position>
              <LatitudeDegrees>36.81264373473823070526123046875</LatitudeDegrees>
              <LongitudeDegrees>-4.3782701902091503143310546875</LongitudeDegrees>
            </Position>
            <AltitudeMeters>823</AltitudeMeters>
            <DistanceMeters>NAN</DistanceMeters>
          </Trackpoint>
          <Trackpoint>
            <Time>2020-12-05T09:11:20.000Z</Time>
            <Position>
              <LatitudeDegrees>36.81265513412654399871826171875</LatitudeDegrees>
              <LongitudeDegrees>-4.3782596290111541748046875</LongitudeDegrees>
            </Position>
            <AltitudeMeters>822.5999755859375</AltitudeMeters>
            <DistanceMeters>NAN</DistanceMeters>
          </Trackpoint>
          <Trackpoint>
            <Time>2020-12-05T09:11:21.000Z</Time>
            <Position>
              <LatitudeDegrees>36.812666617333889007568359375</LatitudeDegrees>
              <LongitudeDegrees>-4.378247559070587158203125</LongitudeDegrees>
            </Position>
            <AltitudeMeters>822.4000244140625</AltitudeMeters>
            <DistanceMeters>NAN</DistanceMeters>
          </Trackpoint>
          <Trackpoint>
            <Time>2020-12-05T09:11:22.000Z</Time>
            <Position>
              <LatitudeDegrees>36.81267843581736087799072265625</LatitudeDegrees>
              <LongitudeDegrees>-4.37823758460581302642822265625</LongitudeDegrees>
            </Position>
            <AltitudeMeters>822.20001220703125</AltitudeMeters>
            <DistanceMeters>NAN</DistanceMeters>
          </Trackpoint>
          <Trackpoint>
            <Time>2020-12-05T09:11:23.000Z</Time>
            <Position>
              <LatitudeDegrees>36.81268849410116672515869140625</LatitudeDegrees>
              <LongitudeDegrees>-4.3782289512455463409423828125</LongitudeDegrees>
            </Position>
            <AltitudeMeters>822.20001220703125</AltitudeMeters>
            <DistanceMeters>NAN</DistanceMeters>
          </Trackpoint>
          <Trackpoint>
            <Time>2020-12-05T09:11:24.000Z</Time>
            <Position>
              <LatitudeDegrees>36.812698133289813995361328125</LatitudeDegrees>
              <LongitudeDegrees>-4.37822283245623111724853515625</LongitudeDegrees>
            </Position>
            <AltitudeMeters>822</AltitudeMeters>
            <DistanceMeters>NAN</DistanceMeters>
          </Trackpoint>
          <Trackpoint>
            <Time>2020-12-05T09:11:25.000Z</Time>
            <Position>
              <LatitudeDegrees>36.81270659901201725006103515625</LatitudeDegrees>
              <LongitudeDegrees>-4.3782193958759307861328125</LongitudeDegrees>
            </Position>
            <AltitudeMeters>822</AltitudeMeters>
            <DistanceMeters>NAN</DistanceMeters>
          </Trackpoint>
          <Trackpoint>
            <Time>2020-12-05T09:11:26.000Z</Time>
            <Position>
              <LatitudeDegrees>36.81271498091518878936767578125</LatitudeDegrees>
              <LongitudeDegrees>-4.378212355077266693115234375</LongitudeDegrees>
            </Position>
            <AltitudeMeters>821.79998779296875</AltitudeMeters>
            <DistanceMeters>NAN</DistanceMeters>
          </Trackpoint>
          <Trackpoint>
            <Time>2020-12-05T09:11:27.000Z</Time>
            <Position>
              <LatitudeDegrees>36.81272386573255062103271484375</LatitudeDegrees>
              <LongitudeDegrees>-4.378203637897968292236328125</LongitudeDegrees>
            </Position>
            <AltitudeMeters>821.5999755859375</AltitudeMeters>
            <DistanceMeters>NAN</DistanceMeters>
          </Trackpoint>
          <Trackpoint>
            <Time>2020-12-05T09:11:28.000Z</Time>
            <Position>
              <LatitudeDegrees>36.8127299845218658447265625</LatitudeDegrees>
              <LongitudeDegrees>-4.3781950883567333221435546875</LongitudeDegrees>
            </Position>
            <AltitudeMeters>821.5999755859375</AltitudeMeters>
            <DistanceMeters>NAN</DistanceMeters>
          </Trackpoint>
          <Trackpoint>
            <Time>2020-12-05T09:11:29.000Z</Time>
            <Position>
              <LatitudeDegrees>36.812736354768276214599609375</LatitudeDegrees>
              <LongitudeDegrees>-4.37818586826324462890625</LongitudeDegrees>
            </Position>
            <AltitudeMeters>821.4000244140625</AltitudeMeters>
            <DistanceMeters>NAN</DistanceMeters>
          </Trackpoint>
          <Trackpoint>
            <Time>2020-12-05T09:11:30.000Z</Time>
            <Position>
              <LatitudeDegrees>36.81274314410984516143798828125</LatitudeDegrees>
              <LongitudeDegrees>-4.37817740254104137420654296875</LongitudeDegrees>
            </Position>
            <AltitudeMeters>821.4000244140625</AltitudeMeters>
            <DistanceMeters>NAN</DistanceMeters>
          </Trackpoint>
          <Trackpoint>
            <Time>2020-12-05T09:11:31.000Z</Time>
            <Position>
              <LatitudeDegrees>36.81275018490850925445556640625</LatitudeDegrees>
              <LongitudeDegrees>-4.37817002646625041961669921875</LongitudeDegrees>
            </Position>
            <AltitudeMeters>821.20001220703125</AltitudeMeters>
            <DistanceMeters>NAN</DistanceMeters>
          </Trackpoint>
          <Trackpoint>
            <Time>2020-12-05T09:11:32.000Z</Time>
            <Position>
              <LatitudeDegrees>36.8127620033919811248779296875</LatitudeDegrees>
              <LongitudeDegrees>-4.378160052001476287841796875</LongitudeDegrees>
            </Position>
            <AltitudeMeters>821.20001220703125</AltitudeMeters>
            <DistanceMeters>NAN</DistanceMeters>
          </Trackpoint>
          <Trackpoint>
            <Time>2020-12-05T09:11:33.000Z</Time>
            <Position>
              <LatitudeDegrees>36.812769882380962371826171875</LatitudeDegrees>
              <LongitudeDegrees>-4.3781538493931293487548828125</LongitudeDegrees>
            </Position>
            <AltitudeMeters>821</AltitudeMeters>
            <DistanceMeters>NAN</DistanceMeters>
          </Trackpoint>
          <Trackpoint>
            <Time>2020-12-05T09:11:34.000Z</Time>
            <Position>
              <LatitudeDegrees>36.81277482770383358001708984375</LatitudeDegrees>
              <LongitudeDegrees>-4.37814488075673580169677734375</LongitudeDegrees>
            </Position>
            <AltitudeMeters>821</AltitudeMeters>
            <DistanceMeters>NAN</DistanceMeters>
          </Trackpoint>
          <Trackpoint>
            <Time>2020-12-05T09:11:35.000Z</Time>
            <Position>
              <LatitudeDegrees>36.812776587903499603271484375</LatitudeDegrees>
              <LongitudeDegrees>-4.3781370855867862701416015625</LongitudeDegrees>
            </Position>
            <AltitudeMeters>820.79998779296875</AltitudeMeters>
            <DistanceMeters>NAN</DistanceMeters>
          </Trackpoint>
          <Trackpoint>
            <Time>2020-12-05T09:11:36.000Z</Time>
            <Position>
              <LatitudeDegrees>36.81277918629348278045654296875</LatitudeDegrees>
              <LongitudeDegrees>-4.3781283684074878692626953125</LongitudeDegrees>
            </Position>
            <AltitudeMeters>820.79998779296875</AltitudeMeters>
            <DistanceMeters>NAN</DistanceMeters>
          </Trackpoint>
          <Trackpoint>
            <Time>2020-12-05T09:11:37.000Z</Time>
            <Position>
              <LatitudeDegrees>36.8127824552357196807861328125</LatitudeDegrees>
              <LongitudeDegrees>-4.37812057323753833770751953125</LongitudeDegrees>
            </Position>
            <AltitudeMeters>820.79998779296875</AltitudeMeters>
            <DistanceMeters>NAN</DistanceMeters>
          </Trackpoint>
          <Trackpoint>
            <Time>2020-12-05T09:11:38.000Z</Time>
            <Position>
              <LatitudeDegrees>36.8127871491014957427978515625</LatitudeDegrees>
              <LongitudeDegrees>-4.3781126104295253753662109375</LongitudeDegrees>
            </Position>
            <AltitudeMeters>820.79998779296875</AltitudeMeters>
            <DistanceMeters>NAN</DistanceMeters>
          </Trackpoint>
          <Trackpoint>
            <Time>2020-12-05T09:11:39.000Z</Time>
            <Position>
              <LatitudeDegrees>36.812792010605335235595703125</LatitudeDegrees>
              <LongitudeDegrees>-4.3781067430973052978515625</LongitudeDegrees>
            </Position>
            <AltitudeMeters>821</AltitudeMeters>
            <DistanceMeters>NAN</DistanceMeters>
          </Trackpoint>
          <Trackpoint>
            <Time>2020-12-05T09:11:40.000Z</Time>
            <Position>
              <LatitudeDegrees>36.812798045575618743896484375</LatitudeDegrees>
              <LongitudeDegrees>-4.3780988641083240509033203125</LongitudeDegrees>
            </Position>
            <AltitudeMeters>821.20001220703125</AltitudeMeters>
            <DistanceMeters>NAN</DistanceMeters>
          </Trackpoint>
          <Trackpoint>
            <Time>2020-12-05T09:11:41.000Z</Time>
            <Position>
              <LatitudeDegrees>36.81280517019331455230712890625</LatitudeDegrees>
              <LongitudeDegrees>-4.3780906498432159423828125</LongitudeDegrees>
            </Position>
            <AltitudeMeters>821.5999755859375</AltitudeMeters>
            <DistanceMeters>NAN</DistanceMeters>
          </Trackpoint>
          <Trackpoint>
            <Time>2020-12-05T09:11:42.000Z</Time>
            <Position>
              <LatitudeDegrees>36.81281137280166149139404296875</LatitudeDegrees>
              <LongitudeDegrees>-4.378084279596805572509765625</LongitudeDegrees>
            </Position>
            <AltitudeMeters>822</AltitudeMeters>
            <DistanceMeters>NAN</DistanceMeters>
          </Trackpoint>
          <Trackpoint>
            <Time>2020-12-05T09:11:43.000Z</Time>
            <Position>
              <LatitudeDegrees>36.81281640194356441497802734375</LatitudeDegrees>
              <LongitudeDegrees>-4.37808151356875896453857421875</LongitudeDegrees>
            </Position>
            <AltitudeMeters>823</AltitudeMeters>
            <DistanceMeters>NAN</DistanceMeters>
          </Trackpoint>
          <Trackpoint>
            <Time>2020-12-05T09:11:44.000Z</Time>
            <Position>
              <LatitudeDegrees>36.81282143108546733856201171875</LatitudeDegrees>
              <LongitudeDegrees>-4.37807799316942691802978515625</LongitudeDegrees>
            </Position>
            <AltitudeMeters>824.20001220703125</AltitudeMeters>
            <DistanceMeters>NAN</DistanceMeters>
          </Trackpoint>
          <Trackpoint>
            <Time>2020-12-05T09:11:45.000Z</Time>
            <Position>
              <LatitudeDegrees>36.81282914243638515472412109375</LatitudeDegrees>
              <LongitudeDegrees>-4.37807329930365085601806640625</LongitudeDegrees>
            </Position>
            <AltitudeMeters>825.5999755859375</AltitudeMeters>
            <DistanceMeters>NAN</DistanceMeters>
          </Trackpoint>
          <Trackpoint>
            <Time>2020-12-05T09:11:46.000Z</Time>
            <Position>
              <LatitudeDegrees>36.8128360994160175323486328125</LatitudeDegrees>
              <LongitudeDegrees>-4.378067515790462493896484375</LongitudeDegrees>
            </Position>
            <AltitudeMeters>826.79998779296875</AltitudeMeters>
            <DistanceMeters>NAN</DistanceMeters>
          </Trackpoint>
          <Trackpoint>
            <Time>2020-12-05T09:11:47.000Z</Time>
            <Position>
              <LatitudeDegrees>36.81284322403371334075927734375</LatitudeDegrees>
              <LongitudeDegrees>-4.37806240282952785491943359375</LongitudeDegrees>
            </Position>
            <AltitudeMeters>827.5999755859375</AltitudeMeters>
            <DistanceMeters>NAN</DistanceMeters>
          </Trackpoint>
          <Trackpoint>
            <Time>2020-12-05T09:11:48.000Z</Time>
            <Position>
              <LatitudeDegrees>36.81285060010850429534912109375</LatitudeDegrees>
              <LongitudeDegrees>-4.37805737368762493133544921875</LongitudeDegrees>
            </Position>
            <AltitudeMeters>828</AltitudeMeters>
            <DistanceMeters>NAN</DistanceMeters>
          </Trackpoint>
          <Trackpoint>
            <Time>2020-12-05T09:11:49.000Z</Time>
            <Position>
              <LatitudeDegrees>36.81285713799297809600830078125</LatitudeDegrees>
              <LongitudeDegrees>-4.37804647721350193023681640625</LongitudeDegrees>
            </Position>
            <AltitudeMeters>828.20001220703125</AltitudeMeters>
            <DistanceMeters>NAN</DistanceMeters>
          </Trackpoint>
          <Trackpoint>
            <Time>2020-12-05T09:11:50.000Z</Time>
            <Position>
              <LatitudeDegrees>36.81286585517227649688720703125</LatitudeDegrees>
              <LongitudeDegrees>-4.37803759239614009857177734375</LongitudeDegrees>
            </Position>
            <AltitudeMeters>828.20001220703125</AltitudeMeters>
            <DistanceMeters>NAN</DistanceMeters>
          </Trackpoint>
          <Trackpoint>
            <Time>2020-12-05T09:11:51.000Z</Time>
            <Position>
              <LatitudeDegrees>36.8128743208944797515869140625</LatitudeDegrees>
              <LongitudeDegrees>-4.37802636064589023590087890625</LongitudeDegrees>
            </Position>
            <AltitudeMeters>828.20001220703125</AltitudeMeters>
            <DistanceMeters>NAN</DistanceMeters>
          </Trackpoint>
          <Trackpoint>
            <Time>2020-12-05T09:11:52.000Z</Time>
            <Position>
              <LatitudeDegrees>36.8128793500363826751708984375</LatitudeDegrees>
              <LongitudeDegrees>-4.37801420688629150390625</LongitudeDegrees>
            </Position>
            <AltitudeMeters>828</AltitudeMeters>
            <DistanceMeters>NAN</DistanceMeters>
          </Trackpoint>
          <Trackpoint>
            <Time>2020-12-05T09:11:53.000Z</Time>
            <Position>
              <LatitudeDegrees>36.81288412772119045257568359375</LatitudeDegrees>
              <LongitudeDegrees>-4.37800121493637561798095703125</LongitudeDegrees>
            </Position>
            <AltitudeMeters>827.79998779296875</AltitudeMeters>
            <DistanceMeters>NAN</DistanceMeters>
          </Trackpoint>
          <Trackpoint>
            <Time>2020-12-05T09:11:54.000Z</Time>
            <Position>
              <LatitudeDegrees>36.81289116851985454559326171875</LatitudeDegrees>
              <LongitudeDegrees>-4.37798746861517429351806640625</LongitudeDegrees>
            </Position>
            <AltitudeMeters>827.79998779296875</AltitudeMeters>
            <DistanceMeters>NAN</DistanceMeters>
          </Trackpoint>
          <Trackpoint>
            <Time>2020-12-05T09:11:55.000Z</Time>
            <Position>
              <LatitudeDegrees>36.812899298965930938720703125</LatitudeDegrees>
              <LongitudeDegrees>-4.37797221355140209197998046875</LongitudeDegrees>
            </Position>
            <AltitudeMeters>827.79998779296875</AltitudeMeters>
            <DistanceMeters>NAN</DistanceMeters>
          </Trackpoint>
          <Trackpoint>
            <Time>2020-12-05T09:11:56.000Z</Time>
            <Position>
              <LatitudeDegrees>36.81291145272552967071533203125</LatitudeDegrees>
              <LongitudeDegrees>-4.37795662321150302886962890625</LongitudeDegrees>
            </Position>
            <AltitudeMeters>827.79998779296875</AltitudeMeters>
            <DistanceMeters>NAN</DistanceMeters>
          </Trackpoint>
          <Trackpoint>
            <Time>2020-12-05T09:11:57.000Z</Time>
            <Position>
              <LatitudeDegrees>36.81292268447577953338623046875</LatitudeDegrees>
              <LongitudeDegrees>-4.37794472090899944305419921875</LongitudeDegrees>
            </Position>
            <AltitudeMeters>827.79998779296875</AltitudeMeters>
            <DistanceMeters>NAN</DistanceMeters>
          </Trackpoint>
          <Trackpoint>
            <Time>2020-12-05T09:11:58.000Z</Time>
            <Position>
              <LatitudeDegrees>36.8129293061792850494384765625</LatitudeDegrees>
              <LongitudeDegrees>-4.3779362551867961883544921875</LongitudeDegrees>
            </Position>
            <AltitudeMeters>828</AltitudeMeters>
            <DistanceMeters>NAN</DistanceMeters>
          </Trackpoint>
          <Trackpoint>
            <Time>2020-12-05T09:11:59.000Z</Time>
            <Position>
              <LatitudeDegrees>36.81293525733053684234619140625</LatitudeDegrees>
              <LongitudeDegrees>-4.37793063931167125701904296875</LongitudeDegrees>
            </Position>
            <AltitudeMeters>828.4000244140625</AltitudeMeters>
            <DistanceMeters>NAN</DistanceMeters>
          </Trackpoint>
          <Trackpoint>
            <Time>2020-12-05T09:12:00.000Z</Time>
            <Position>
              <LatitudeDegrees>36.81293995119631290435791015625</LatitudeDegrees>
              <LongitudeDegrees>-4.37792695127427577972412109375</LongitudeDegrees>
            </Position>
            <AltitudeMeters>828.5999755859375</AltitudeMeters>
            <DistanceMeters>NAN</DistanceMeters>
          </Trackpoint>
          <Trackpoint>
            <Time>2020-12-05T09:12:01.000Z</Time>
            <Position>
              <LatitudeDegrees>36.8129457347095012664794921875</LatitudeDegrees>
              <LongitudeDegrees>-4.3779248557984828948974609375</LongitudeDegrees>
            </Position>
            <AltitudeMeters>829</AltitudeMeters>
            <DistanceMeters>NAN</DistanceMeters>
          </Trackpoint>
          <Trackpoint>
            <Time>2020-12-05T09:12:02.000Z</Time>
            <Position>
              <LatitudeDegrees>36.812952943146228790283203125</LatitudeDegrees>
              <LongitudeDegrees>-4.37792393378913402557373046875</LongitudeDegrees>
            </Position>
            <AltitudeMeters>829.20001220703125</AltitudeMeters>
            <DistanceMeters>NAN</DistanceMeters>
          </Trackpoint>
          <Trackpoint>
            <Time>2020-12-05T09:12:03.000Z</Time>
            <Position>
              <LatitudeDegrees>36.81296132504940032958984375</LatitudeDegrees>
              <LongitudeDegrees>-4.37791756354272365570068359375</LongitudeDegrees>
            </Position>
            <AltitudeMeters>829.4000244140625</AltitudeMeters>
            <DistanceMeters>NAN</DistanceMeters>
          </Trackpoint>
          <Trackpoint>
            <Time>2020-12-05T09:12:04.000Z</Time>
            <Position>
              <LatitudeDegrees>36.81296803057193756103515625</LatitudeDegrees>
              <LongitudeDegrees>-4.37791161239147186279296875</LongitudeDegrees>
            </Position>
            <AltitudeMeters>829.4000244140625</AltitudeMeters>
            <DistanceMeters>NAN</DistanceMeters>
          </Trackpoint>
          <Trackpoint>
            <Time>2020-12-05T09:12:05.000Z</Time>
            <Position>
              <LatitudeDegrees>36.8129745684564113616943359375</LatitudeDegrees>
              <LongitudeDegrees>-4.37790633179247379302978515625</LongitudeDegrees>
            </Position>
            <AltitudeMeters>829.4000244140625</AltitudeMeters>
            <DistanceMeters>NAN</DistanceMeters>
          </Trackpoint>
          <Trackpoint>
            <Time>2020-12-05T09:12:06.000Z</Time>
            <Position>
              <LatitudeDegrees>36.81298077106475830078125</LatitudeDegrees>
              <LongitudeDegrees>-4.377897866070270538330078125</LongitudeDegrees>
            </Position>
            <AltitudeMeters>829.4000244140625</AltitudeMeters>
            <DistanceMeters>NAN</DistanceMeters>
          </Trackpoint>
          <Trackpoint>
            <Time>2020-12-05T09:12:07.000Z</Time>
            <Position>
              <LatitudeDegrees>36.81298588402569293975830078125</LatitudeDegrees>
              <LongitudeDegrees>-4.37788940034806728363037109375</LongitudeDegrees>
            </Position>
            <AltitudeMeters>829.4000244140625</AltitudeMeters>
            <DistanceMeters>NAN</DistanceMeters>
          </Trackpoint>
          <Trackpoint>
            <Time>2020-12-05T09:12:08.000Z</Time>
            <Position>
              <LatitudeDegrees>36.81299208663403987884521484375</LatitudeDegrees>
              <LongitudeDegrees>-4.37788152135908603668212890625</LongitudeDegrees>
            </Position>
            <AltitudeMeters>829.4000244140625</AltitudeMeters>
            <DistanceMeters>NAN</DistanceMeters>
          </Trackpoint>
          <Trackpoint>
            <Time>2020-12-05T09:12:09.000Z</Time>
            <Position>
              <LatitudeDegrees>36.81299728341400623321533203125</LatitudeDegrees>
              <LongitudeDegrees>-4.37787716276943683624267578125</LongitudeDegrees>
            </Position>
            <AltitudeMeters>829.4000244140625</AltitudeMeters>
            <DistanceMeters>NAN</DistanceMeters>
          </Trackpoint>
          <Trackpoint>
            <Time>2020-12-05T09:12:10.000Z</Time>
            <Position>
              <LatitudeDegrees>36.81300281547009944915771484375</LatitudeDegrees>
              <LongitudeDegrees>-4.37787079252302646636962890625</LongitudeDegrees>
            </Position>
            <AltitudeMeters>829.4000244140625</AltitudeMeters>
            <DistanceMeters>NAN</DistanceMeters>
          </Trackpoint>
          <Trackpoint>
            <Time>2020-12-05T09:12:11.000Z</Time>
            <Position>
              <LatitudeDegrees>36.81300851516425609588623046875</LatitudeDegrees>
              <LongitudeDegrees>-4.37786601483821868896484375</LongitudeDegrees>
            </Position>
            <AltitudeMeters>829.4000244140625</AltitudeMeters>
            <DistanceMeters>NAN</DistanceMeters>
          </Trackpoint>
          <Trackpoint>
            <Time>2020-12-05T09:12:12.000Z</Time>
            <Position>
              <LatitudeDegrees>36.81301354430615901947021484375</LatitudeDegrees>
              <LongitudeDegrees>-4.37785905785858631134033203125</LongitudeDegrees>
            </Position>
            <AltitudeMeters>829.4000244140625</AltitudeMeters>
            <DistanceMeters>NAN</DistanceMeters>
          </Trackpoint>
          <Trackpoint>
            <Time>2020-12-05T09:12:13.000Z</Time>
            <Position>
              <LatitudeDegrees>36.81301924400031566619873046875</LatitudeDegrees>
              <LongitudeDegrees>-4.3778514303267002105712890625</LongitudeDegrees>
            </Position>
            <AltitudeMeters>829.5999755859375</AltitudeMeters>
            <DistanceMeters>NAN</DistanceMeters>
          </Trackpoint>
          <Trackpoint>
            <Time>2020-12-05T09:12:14.000Z</Time>
            <Position>
              <LatitudeDegrees>36.81302628479897975921630859375</LatitudeDegrees>
              <LongitudeDegrees>-4.3778427131474018096923828125</LongitudeDegrees>
            </Position>
            <AltitudeMeters>829.5999755859375</AltitudeMeters>
            <DistanceMeters>NAN</DistanceMeters>
          </Trackpoint>
          <Trackpoint>
            <Time>2020-12-05T09:12:15.000Z</Time>
            <Position>
              <LatitudeDegrees>36.813033409416675567626953125</LatitudeDegrees>
              <LongitudeDegrees>-4.377830810844898223876953125</LongitudeDegrees>
            </Position>
            <AltitudeMeters>829.5999755859375</AltitudeMeters>
            <DistanceMeters>NAN</DistanceMeters>
          </Trackpoint>
          <Trackpoint>
            <Time>2020-12-05T09:12:16.000Z</Time>
            <Position>
              <LatitudeDegrees>36.8130416236817836761474609375</LatitudeDegrees>
              <LongitudeDegrees>-4.377815388143062591552734375</LongitudeDegrees>
            </Position>
            <AltitudeMeters>829.4000244140625</AltitudeMeters>
            <DistanceMeters>NAN</DistanceMeters>
          </Trackpoint>
          <Trackpoint>
            <Time>2020-12-05T09:12:17.000Z</Time>
            <Position>
              <LatitudeDegrees>36.8130530230700969696044921875</LatitudeDegrees>
              <LongitudeDegrees>-4.3777997978031635284423828125</LongitudeDegrees>
            </Position>
            <AltitudeMeters>829.4000244140625</AltitudeMeters>
            <DistanceMeters>NAN</DistanceMeters>
          </Trackpoint>
          <Trackpoint>
            <Time>2020-12-05T09:12:18.000Z</Time>
            <Position>
              <LatitudeDegrees>36.8130637519061565399169921875</LatitudeDegrees>
              <LongitudeDegrees>-4.37778730876743793487548828125</LongitudeDegrees>
            </Position>
            <AltitudeMeters>829.4000244140625</AltitudeMeters>
            <DistanceMeters>NAN</DistanceMeters>
          </Trackpoint>
          <Trackpoint>
            <Time>2020-12-05T09:12:19.000Z</Time>
            <Position>
              <LatitudeDegrees>36.81307624094188213348388671875</LatitudeDegrees>
              <LongitudeDegrees>-4.37777817249298095703125</LongitudeDegrees>
            </Position>
            <AltitudeMeters>829.20001220703125</AltitudeMeters>
            <DistanceMeters>NAN</DistanceMeters>
          </Trackpoint>
          <Trackpoint>
            <Time>2020-12-05T09:12:20.000Z</Time>
            <Position>
              <LatitudeDegrees>36.8130888976156711578369140625</LatitudeDegrees>
              <LongitudeDegrees>-4.377771131694316864013671875</LongitudeDegrees>
            </Position>
            <AltitudeMeters>829</AltitudeMeters>
            <DistanceMeters>NAN</DistanceMeters>
          </Trackpoint>
          <Trackpoint>
            <Time>2020-12-05T09:12:21.000Z</Time>
            <Position>
              <LatitudeDegrees>36.8130992911756038665771484375</LatitudeDegrees>
              <LongitudeDegrees>-4.37776300124824047088623046875</LongitudeDegrees>
            </Position>
            <AltitudeMeters>829.20001220703125</AltitudeMeters>
            <DistanceMeters>NAN</DistanceMeters>
          </Trackpoint>
          <Trackpoint>
            <Time>2020-12-05T09:12:22.000Z</Time>
            <Position>
              <LatitudeDegrees>36.81310926564037799835205078125</LatitudeDegrees>
              <LongitudeDegrees>-4.37775604426860809326171875</LongitudeDegrees>
            </Position>
            <AltitudeMeters>829.20001220703125</AltitudeMeters>
            <DistanceMeters>NAN</DistanceMeters>
          </Trackpoint>
          <Trackpoint>
            <Time>2020-12-05T09:12:23.000Z</Time>
            <Position>
              <LatitudeDegrees>36.81311823427677154541015625</LatitudeDegrees>
              <LongitudeDegrees>-4.37774908728897571563720703125</LongitudeDegrees>
            </Position>
            <AltitudeMeters>829.4000244140625</AltitudeMeters>
            <DistanceMeters>NAN</DistanceMeters>
          </Trackpoint>
          <Trackpoint>
            <Time>2020-12-05T09:12:24.000Z</Time>
            <Position>
              <LatitudeDegrees>36.8131298013031482696533203125</LatitudeDegrees>
              <LongitudeDegrees>-4.37774137593805789947509765625</LongitudeDegrees>
            </Position>
            <AltitudeMeters>829.4000244140625</AltitudeMeters>
            <DistanceMeters>NAN</DistanceMeters>
          </Trackpoint>
          <Trackpoint>
            <Time>2020-12-05T09:12:25.000Z</Time>
            <Position>
              <LatitudeDegrees>36.813140027225017547607421875</LatitudeDegrees>
              <LongitudeDegrees>-4.37773349694907665252685546875</LongitudeDegrees>
            </Position>
            <AltitudeMeters>829.5999755859375</AltitudeMeters>
            <DistanceMeters>NAN</DistanceMeters>
          </Trackpoint>
          <Trackpoint>
            <Time>2020-12-05T09:12:26.000Z</Time>
            <Position>
              <LatitudeDegrees>36.81314907968044281005859375</LatitudeDegrees>
              <LongitudeDegrees>-4.3777250312268733978271484375</LongitudeDegrees>
            </Position>
            <AltitudeMeters>829.79998779296875</AltitudeMeters>
            <DistanceMeters>NAN</DistanceMeters>
          </Trackpoint>
          <Trackpoint>
            <Time>2020-12-05T09:12:27.000Z</Time>
            <Position>
              <LatitudeDegrees>36.81316073052585124969482421875</LatitudeDegrees>
              <LongitudeDegrees>-4.37771338038146495819091796875</LongitudeDegrees>
            </Position>
            <AltitudeMeters>830</AltitudeMeters>
            <DistanceMeters>NAN</DistanceMeters>
          </Trackpoint>
          <Trackpoint>
            <Time>2020-12-05T09:12:28.000Z</Time>
            <Position>
              <LatitudeDegrees>36.81317129172384738922119140625</LatitudeDegrees>
              <LongitudeDegrees>-4.37770047225058078765869140625</LongitudeDegrees>
            </Position>
            <AltitudeMeters>830.20001220703125</AltitudeMeters>
            <DistanceMeters>NAN</DistanceMeters>
          </Trackpoint>
          <Trackpoint>
            <Time>2020-12-05T09:12:29.000Z</Time>
            <Position>
              <LatitudeDegrees>36.8131760694086551666259765625</LatitudeDegrees>
              <LongitudeDegrees>-4.37769007869064807891845703125</LongitudeDegrees>
            </Position>
            <AltitudeMeters>830.5999755859375</AltitudeMeters>
            <DistanceMeters>NAN</DistanceMeters>
          </Trackpoint>
          <Trackpoint>
            <Time>2020-12-05T09:12:30.000Z</Time>
            <Position>
              <LatitudeDegrees>36.813183613121509552001953125</LatitudeDegrees>
              <LongitudeDegrees>-4.37767934985458850860595703125</LongitudeDegrees>
            </Position>
            <AltitudeMeters>831</AltitudeMeters>
            <DistanceMeters>NAN</DistanceMeters>
          </Trackpoint>
          <Trackpoint>
            <Time>2020-12-05T09:12:31.000Z</Time>
            <Position>
              <LatitudeDegrees>36.81319006718695163726806640625</LatitudeDegrees>
              <LongitudeDegrees>-4.3776703812181949615478515625</LongitudeDegrees>
            </Position>
            <AltitudeMeters>831.4000244140625</AltitudeMeters>
            <DistanceMeters>NAN</DistanceMeters>
          </Trackpoint>
          <Trackpoint>
            <Time>2020-12-05T09:12:32.000Z</Time>
            <Position>
              <LatitudeDegrees>36.8131948448717594146728515625</LatitudeDegrees>
              <LongitudeDegrees>-4.37766241841018199920654296875</LongitudeDegrees>
            </Position>
            <AltitudeMeters>831.79998779296875</AltitudeMeters>
            <DistanceMeters>NAN</DistanceMeters>
          </Trackpoint>
          <Trackpoint>
            <Time>2020-12-05T09:12:33.000Z</Time>
            <Position>
              <LatitudeDegrees>36.81319945491850376129150390625</LatitudeDegrees>
              <LongitudeDegrees>-4.3776536174118518829345703125</LongitudeDegrees>
            </Position>
            <AltitudeMeters>832.20001220703125</AltitudeMeters>
            <DistanceMeters>NAN</DistanceMeters>
          </Trackpoint>
          <Trackpoint>
            <Time>2020-12-05T09:12:34.000Z</Time>
            <Position>
              <LatitudeDegrees>36.8132038973271846771240234375</LatitudeDegrees>
              <LongitudeDegrees>-4.3776402063667774200439453125</LongitudeDegrees>
            </Position>
            <AltitudeMeters>832.79998779296875</AltitudeMeters>
            <DistanceMeters>NAN</DistanceMeters>
          </Trackpoint>
          <Trackpoint>
            <Time>2020-12-05T09:12:35.000Z</Time>
            <Position>
              <LatitudeDegrees>36.813208423554897308349609375</LatitudeDegrees>
              <LongitudeDegrees>-4.37762654386460781097412109375</LongitudeDegrees>
            </Position>
            <AltitudeMeters>833.20001220703125</AltitudeMeters>
            <DistanceMeters>NAN</DistanceMeters>
          </Trackpoint>
          <Trackpoint>
            <Time>2020-12-05T09:12:36.000Z</Time>
            <Position>
              <LatitudeDegrees>36.813213117420673370361328125</LatitudeDegrees>
              <LongitudeDegrees>-4.3776140548288822174072265625</LongitudeDegrees>
            </Position>
            <AltitudeMeters>833.4000244140625</AltitudeMeters>
            <DistanceMeters>NAN</DistanceMeters>
          </Trackpoint>
          <Trackpoint>
            <Time>2020-12-05T09:12:37.000Z</Time>
            <Position>
              <LatitudeDegrees>36.8132181465625762939453125</LatitudeDegrees>
              <LongitudeDegrees>-4.37760357744991779327392578125</LongitudeDegrees>
            </Position>
            <AltitudeMeters>833.5999755859375</AltitudeMeters>
            <DistanceMeters>NAN</DistanceMeters>
          </Trackpoint>
          <Trackpoint>
            <Time>2020-12-05T09:12:38.000Z</Time>
            <Position>
              <LatitudeDegrees>36.81322309188544750213623046875</LatitudeDegrees>
              <LongitudeDegrees>-4.37759418971836566925048828125</LongitudeDegrees>
            </Position>
            <AltitudeMeters>833.5999755859375</AltitudeMeters>
            <DistanceMeters>NAN</DistanceMeters>
          </Trackpoint>
          <Trackpoint>
            <Time>2020-12-05T09:12:39.000Z</Time>
            <Position>
              <LatitudeDegrees>36.81323046796023845672607421875</LatitudeDegrees>
              <LongitudeDegrees>-4.37758564017713069915771484375</LongitudeDegrees>
            </Position>
            <AltitudeMeters>833.5999755859375</AltitudeMeters>
            <DistanceMeters>NAN</DistanceMeters>
          </Trackpoint>
          <Trackpoint>
            <Time>2020-12-05T09:12:40.000Z</Time>
            <Position>
              <LatitudeDegrees>36.8132354132831096649169921875</LatitudeDegrees>
              <LongitudeDegrees>-4.37757994048297405242919921875</LongitudeDegrees>
            </Position>
            <AltitudeMeters>833.5999755859375</AltitudeMeters>
            <DistanceMeters>NAN</DistanceMeters>
          </Trackpoint>
          <Trackpoint>
            <Time>2020-12-05T09:12:41.000Z</Time>
            <Position>
              <LatitudeDegrees>36.81324253790080547332763671875</LatitudeDegrees>
              <LongitudeDegrees>-4.3775728158652782440185546875</LongitudeDegrees>
            </Position>
            <AltitudeMeters>833.5999755859375</AltitudeMeters>
            <DistanceMeters>NAN</DistanceMeters>
          </Trackpoint>
          <Trackpoint>
            <Time>2020-12-05T09:12:42.000Z</Time>
            <Position>
              <LatitudeDegrees>36.81325091980397701263427734375</LatitudeDegrees>
              <LongitudeDegrees>-4.37756585888564586639404296875</LongitudeDegrees>
            </Position>
            <AltitudeMeters>833.5999755859375</AltitudeMeters>
            <DistanceMeters>NAN</DistanceMeters>
          </Trackpoint>
          <Trackpoint>
            <Time>2020-12-05T09:12:43.000Z</Time>
            <Position>
              <LatitudeDegrees>36.8132595531642436981201171875</LatitudeDegrees>
              <LongitudeDegrees>-4.37755487859249114990234375</LongitudeDegrees>
            </Position>
            <AltitudeMeters>833.5999755859375</AltitudeMeters>
            <DistanceMeters>NAN</DistanceMeters>
          </Trackpoint>
          <Trackpoint>
            <Time>2020-12-05T09:12:44.000Z</Time>
            <Position>
              <LatitudeDegrees>36.8132702820003032684326171875</LatitudeDegrees>
              <LongitudeDegrees>-4.3775407969951629638671875</LongitudeDegrees>
            </Position>
            <AltitudeMeters>833.79998779296875</AltitudeMeters>
            <DistanceMeters>NAN</DistanceMeters>
          </Trackpoint>
          <Trackpoint>
            <Time>2020-12-05T09:12:45.000Z</Time>
            <Position>
              <LatitudeDegrees>36.81327573023736476898193359375</LatitudeDegrees>
              <LongitudeDegrees>-4.3775319121778011322021484375</LongitudeDegrees>
            </Position>
            <AltitudeMeters>834</AltitudeMeters>
            <DistanceMeters>NAN</DistanceMeters>
          </Trackpoint>
          <Trackpoint>
            <Time>2020-12-05T09:12:46.000Z</Time>
            <Position>
              <LatitudeDegrees>36.8132798373699188232421875</LatitudeDegrees>
              <LongitudeDegrees>-4.3775211833417415618896484375</LongitudeDegrees>
            </Position>
            <AltitudeMeters>834</AltitudeMeters>
            <DistanceMeters>NAN</DistanceMeters>
          </Trackpoint>
          <Trackpoint>
            <Time>2020-12-05T09:12:47.000Z</Time>
            <Position>
              <LatitudeDegrees>36.81328461505472660064697265625</LatitudeDegrees>
              <LongitudeDegrees>-4.37750835902988910675048828125</LongitudeDegrees>
            </Position>
            <AltitudeMeters>834</AltitudeMeters>
            <DistanceMeters>NAN</DistanceMeters>
          </Trackpoint>
          <Trackpoint>
            <Time>2020-12-05T09:12:48.000Z</Time>
            <Position>
              <LatitudeDegrees>36.8132914043962955474853515625</LatitudeDegrees>
              <LongitudeDegrees>-4.3774926848709583282470703125</LongitudeDegrees>
            </Position>
            <AltitudeMeters>833.79998779296875</AltitudeMeters>
            <DistanceMeters>NAN</DistanceMeters>
          </Trackpoint>
          <Trackpoint>
            <Time>2020-12-05T09:12:49.000Z</Time>
            <Position>
              <LatitudeDegrees>36.8132977746427059173583984375</LatitudeDegrees>
              <LongitudeDegrees>-4.37747952528297901153564453125</LongitudeDegrees>
            </Position>
            <AltitudeMeters>833.79998779296875</AltitudeMeters>
            <DistanceMeters>NAN</DistanceMeters>
          </Trackpoint>
          <Trackpoint>
            <Time>2020-12-05T09:12:50.000Z</Time>
            <Position>
              <LatitudeDegrees>36.81330372579395771026611328125</LatitudeDegrees>
              <LongitudeDegrees>-4.37746661715209484100341796875</LongitudeDegrees>
            </Position>
            <AltitudeMeters>833.5999755859375</AltitudeMeters>
            <DistanceMeters>NAN</DistanceMeters>
          </Trackpoint>
          <Trackpoint>
            <Time>2020-12-05T09:12:51.000Z</Time>
            <Position>
              <LatitudeDegrees>36.8133091740310192108154296875</LatitudeDegrees>
              <LongitudeDegrees>-4.3774531222879886627197265625</LongitudeDegrees>
            </Position>
            <AltitudeMeters>833.5999755859375</AltitudeMeters>
            <DistanceMeters>NAN</DistanceMeters>
          </Trackpoint>
          <Trackpoint>
            <Time>2020-12-05T09:12:52.000Z</Time>
            <Position>
              <LatitudeDegrees>36.81331428699195384979248046875</LatitudeDegrees>
              <LongitudeDegrees>-4.377443902194499969482421875</LongitudeDegrees>
            </Position>
            <AltitudeMeters>833.4000244140625</AltitudeMeters>
            <DistanceMeters>NAN</DistanceMeters>
          </Trackpoint>
          <Trackpoint>
            <Time>2020-12-05T09:12:53.000Z</Time>
            <Position>
              <LatitudeDegrees>36.813317053020000457763671875</LatitudeDegrees>
              <LongitudeDegrees>-4.37743761576712131500244140625</LongitudeDegrees>
            </Position>
            <AltitudeMeters>833.4000244140625</AltitudeMeters>
            <DistanceMeters>NAN</DistanceMeters>
          </Trackpoint>
          <Trackpoint>
            <Time>2020-12-05T09:12:54.000Z</Time>
            <Position>
              <LatitudeDegrees>36.81331965140998363494873046875</LatitudeDegrees>
              <LongitudeDegrees>-4.377429150044918060302734375</LongitudeDegrees>
            </Position>
            <AltitudeMeters>833.4000244140625</AltitudeMeters>
            <DistanceMeters>NAN</DistanceMeters>
          </Trackpoint>
          <Trackpoint>
            <Time>2020-12-05T09:12:55.000Z</Time>
            <Position>
              <LatitudeDegrees>36.81332300417125225067138671875</LatitudeDegrees>
              <LongitudeDegrees>-4.37741942703723907470703125</LongitudeDegrees>
            </Position>
            <AltitudeMeters>833.4000244140625</AltitudeMeters>
            <DistanceMeters>NAN</DistanceMeters>
          </Trackpoint>
          <Trackpoint>
            <Time>2020-12-05T09:12:56.000Z</Time>
            <Position>
              <LatitudeDegrees>36.81332384236156940460205078125</LatitudeDegrees>
              <LongitudeDegrees>-4.3774088658392429351806640625</LongitudeDegrees>
            </Position>
            <AltitudeMeters>833.5999755859375</AltitudeMeters>
            <DistanceMeters>NAN</DistanceMeters>
          </Trackpoint>
          <Trackpoint>
            <Time>2020-12-05T09:12:57.000Z</Time>
            <Position>
              <LatitudeDegrees>36.81332635693252086639404296875</LatitudeDegrees>
              <LongitudeDegrees>-4.37739587388932704925537109375</LongitudeDegrees>
            </Position>
            <AltitudeMeters>833.79998779296875</AltitudeMeters>
            <DistanceMeters>NAN</DistanceMeters>
          </Trackpoint>
          <Trackpoint>
            <Time>2020-12-05T09:12:58.000Z</Time>
            <Position>
              <LatitudeDegrees>36.8133313022553920745849609375</LatitudeDegrees>
              <LongitudeDegrees>-4.37738195993006229400634765625</LongitudeDegrees>
            </Position>
            <AltitudeMeters>834.20001220703125</AltitudeMeters>
            <DistanceMeters>NAN</DistanceMeters>
          </Trackpoint>
          <Trackpoint>
            <Time>2020-12-05T09:12:59.000Z</Time>
            <Position>
              <LatitudeDegrees>36.8133339844644069671630859375</LatitudeDegrees>
              <LongitudeDegrees>-4.377370811998844146728515625</LongitudeDegrees>
            </Position>
            <AltitudeMeters>834.5999755859375</AltitudeMeters>
            <DistanceMeters>NAN</DistanceMeters>
          </Trackpoint>
          <Trackpoint>
            <Time>2020-12-05T09:13:00.000Z</Time>
            <Position>
              <LatitudeDegrees>36.813337840139865875244140625</LatitudeDegrees>
              <LongitudeDegrees>-4.377356059849262237548828125</LongitudeDegrees>
            </Position>
            <AltitudeMeters>834.79998779296875</AltitudeMeters>
            <DistanceMeters>NAN</DistanceMeters>
          </Trackpoint>
          <Trackpoint>
            <Time>2020-12-05T09:13:01.000Z</Time>
            <Position>
              <LatitudeDegrees>36.81334747932851314544677734375</LatitudeDegrees>
              <LongitudeDegrees>-4.3773394636809825897216796875</LongitudeDegrees>
            </Position>
            <AltitudeMeters>835</AltitudeMeters>
            <DistanceMeters>NAN</DistanceMeters>
          </Trackpoint>
          <Trackpoint>
            <Time>2020-12-05T09:13:02.000Z</Time>
            <Position>
              <LatitudeDegrees>36.8133549392223358154296875</LatitudeDegrees>
              <LongitudeDegrees>-4.37732194550335407257080078125</LongitudeDegrees>
            </Position>
            <AltitudeMeters>835.20001220703125</AltitudeMeters>
            <DistanceMeters>NAN</DistanceMeters>
          </Trackpoint>
          <Trackpoint>
            <Time>2020-12-05T09:13:03.000Z</Time>
            <Position>
              <LatitudeDegrees>36.81335736997425556182861328125</LatitudeDegrees>
              <LongitudeDegrees>-4.3773052655160427093505859375</LongitudeDegrees>
            </Position>
            <AltitudeMeters>835.20001220703125</AltitudeMeters>
            <DistanceMeters>NAN</DistanceMeters>
          </Trackpoint>
          <Trackpoint>
            <Time>2020-12-05T09:13:04.000Z</Time>
            <Position>
              <LatitudeDegrees>36.81336038745939731597900390625</LatitudeDegrees>
              <LongitudeDegrees>-4.37729529105126857757568359375</LongitudeDegrees>
            </Position>
            <AltitudeMeters>835.20001220703125</AltitudeMeters>
            <DistanceMeters>NAN</DistanceMeters>
          </Trackpoint>
          <Trackpoint>
            <Time>2020-12-05T09:13:05.000Z</Time>
            <Position>
              <LatitudeDegrees>36.81336910463869571685791015625</LatitudeDegrees>
              <LongitudeDegrees>-4.377280287444591522216796875</LongitudeDegrees>
            </Position>
            <AltitudeMeters>835</AltitudeMeters>
            <DistanceMeters>NAN</DistanceMeters>
          </Trackpoint>
          <Trackpoint>
            <Time>2020-12-05T09:13:06.000Z</Time>
            <Position>
              <LatitudeDegrees>36.81337346322834491729736328125</LatitudeDegrees>
              <LongitudeDegrees>-4.377268217504024505615234375</LongitudeDegrees>
            </Position>
            <AltitudeMeters>835</AltitudeMeters>
            <DistanceMeters>NAN</DistanceMeters>
          </Trackpoint>
          <Trackpoint>
            <Time>2020-12-05T09:13:07.000Z</Time>
            <Position>
              <LatitudeDegrees>36.81338100694119930267333984375</LatitudeDegrees>
              <LongitudeDegrees>-4.3772563152015209197998046875</LongitudeDegrees>
            </Position>
            <AltitudeMeters>835</AltitudeMeters>
            <DistanceMeters>NAN</DistanceMeters>
          </Trackpoint>
          <Trackpoint>
            <Time>2020-12-05T09:13:08.000Z</Time>
            <Position>
              <LatitudeDegrees>36.8133906461298465728759765625</LatitudeDegrees>
              <LongitudeDegrees>-4.3772445805370807647705078125</LongitudeDegrees>
            </Position>
            <AltitudeMeters>834.79998779296875</AltitudeMeters>
            <DistanceMeters>NAN</DistanceMeters>
          </Trackpoint>
          <Trackpoint>
            <Time>2020-12-05T09:13:09.000Z</Time>
            <Position>
              <LatitudeDegrees>36.81339047849178314208984375</LatitudeDegrees>
              <LongitudeDegrees>-4.377231337130069732666015625</LongitudeDegrees>
            </Position>
            <AltitudeMeters>834.79998779296875</AltitudeMeters>
            <DistanceMeters>NAN</DistanceMeters>
          </Trackpoint>
          <Trackpoint>
            <Time>2020-12-05T09:13:10.000Z</Time>
            <Position>
              <LatitudeDegrees>36.81338905356824398040771484375</LatitudeDegrees>
              <LongitudeDegrees>-4.3772194348275661468505859375</LongitudeDegrees>
            </Position>
            <AltitudeMeters>834.79998779296875</AltitudeMeters>
            <DistanceMeters>NAN</DistanceMeters>
          </Trackpoint>
          <Trackpoint>
            <Time>2020-12-05T09:13:11.000Z</Time>
            <Position>
              <LatitudeDegrees>36.81338788010179996490478515625</LatitudeDegrees>
              <LongitudeDegrees>-4.37720677815377712249755859375</LongitudeDegrees>
            </Position>
            <AltitudeMeters>835</AltitudeMeters>
            <DistanceMeters>NAN</DistanceMeters>
          </Trackpoint>
          <Trackpoint>
            <Time>2020-12-05T09:13:12.000Z</Time>
            <Position>
              <LatitudeDegrees>36.81338435970246791839599609375</LatitudeDegrees>
              <LongitudeDegrees>-4.37719621695578098297119140625</LongitudeDegrees>
            </Position>
            <AltitudeMeters>835</AltitudeMeters>
            <DistanceMeters>NAN</DistanceMeters>
          </Trackpoint>
          <Trackpoint>
            <Time>2020-12-05T09:13:13.000Z</Time>
            <Position>
              <LatitudeDegrees>36.813380084931850433349609375</LatitudeDegrees>
              <LongitudeDegrees>-4.37718917615711688995361328125</LongitudeDegrees>
            </Position>
            <AltitudeMeters>835</AltitudeMeters>
            <DistanceMeters>NAN</DistanceMeters>
          </Trackpoint>
          <Trackpoint>
            <Time>2020-12-05T09:13:14.000Z</Time>
            <Position>
              <LatitudeDegrees>36.81337597779929637908935546875</LatitudeDegrees>
              <LongitudeDegrees>-4.3771835602819919586181640625</LongitudeDegrees>
            </Position>
            <AltitudeMeters>835.20001220703125</AltitudeMeters>
            <DistanceMeters>NAN</DistanceMeters>
          </Trackpoint>
          <Trackpoint>
            <Time>2020-12-05T09:13:15.000Z</Time>
            <Position>
              <LatitudeDegrees>36.813378073275089263916015625</LatitudeDegrees>
              <LongitudeDegrees>-4.37717995606362819671630859375</LongitudeDegrees>
            </Position>
            <AltitudeMeters>835.4000244140625</AltitudeMeters>
            <DistanceMeters>NAN</DistanceMeters>
          </Trackpoint>
          <Trackpoint>
            <Time>2020-12-05T09:13:16.000Z</Time>
            <Position>
              <LatitudeDegrees>36.81338134221732616424560546875</LatitudeDegrees>
              <LongitudeDegrees>-4.37717358581721782684326171875</LongitudeDegrees>
            </Position>
            <AltitudeMeters>835.5999755859375</AltitudeMeters>
            <DistanceMeters>NAN</DistanceMeters>
          </Trackpoint>
          <Trackpoint>
            <Time>2020-12-05T09:13:17.000Z</Time>
            <Position>
              <LatitudeDegrees>36.81338385678827762603759765625</LatitudeDegrees>
              <LongitudeDegrees>-4.37716704793274402618408203125</LongitudeDegrees>
            </Position>
            <AltitudeMeters>836</AltitudeMeters>
            <DistanceMeters>NAN</DistanceMeters>
          </Trackpoint>
          <Trackpoint>
            <Time>2020-12-05T09:13:18.000Z</Time>
            <Position>
              <LatitudeDegrees>36.81338754482567310333251953125</LatitudeDegrees>
              <LongitudeDegrees>-4.37715590000152587890625</LongitudeDegrees>
            </Position>
            <AltitudeMeters>836.4000244140625</AltitudeMeters>
            <DistanceMeters>NAN</DistanceMeters>
          </Trackpoint>
          <Trackpoint>
            <Time>2020-12-05T09:13:19.000Z</Time>
            <Position>
              <LatitudeDegrees>36.8133906461298465728759765625</LatitudeDegrees>
              <LongitudeDegrees>-4.37714517116546630859375</LongitudeDegrees>
            </Position>
            <AltitudeMeters>836.5999755859375</AltitudeMeters>
            <DistanceMeters>NAN</DistanceMeters>
          </Trackpoint>
          <Trackpoint>
            <Time>2020-12-05T09:13:20.000Z</Time>
            <Position>
              <LatitudeDegrees>36.8133939988911151885986328125</LatitudeDegrees>
              <LongitudeDegrees>-4.3771369569003582000732421875</LongitudeDegrees>
            </Position>
            <AltitudeMeters>837</AltitudeMeters>
            <DistanceMeters>NAN</DistanceMeters>
          </Trackpoint>
          <Trackpoint>
            <Time>2020-12-05T09:13:21.000Z</Time>
            <Position>
              <LatitudeDegrees>36.8133966811001300811767578125</LatitudeDegrees>
              <LongitudeDegrees>-4.37712849117815494537353515625</LongitudeDegrees>
            </Position>
            <AltitudeMeters>837.20001220703125</AltitudeMeters>
            <DistanceMeters>NAN</DistanceMeters>
          </Trackpoint>
          <Trackpoint>
            <Time>2020-12-05T09:13:22.000Z</Time>
            <Position>
              <LatitudeDegrees>36.8133993633091449737548828125</LatitudeDegrees>
              <LongitudeDegrees>-4.3771198578178882598876953125</LongitudeDegrees>
            </Position>
            <AltitudeMeters>837.4000244140625</AltitudeMeters>
            <DistanceMeters>NAN</DistanceMeters>
          </Trackpoint>
          <Trackpoint>
            <Time>2020-12-05T09:13:23.000Z</Time>
            <Position>
              <LatitudeDegrees>36.81339877657592296600341796875</LatitudeDegrees>
              <LongitudeDegrees>-4.37711365520954132080078125</LongitudeDegrees>
            </Position>
            <AltitudeMeters>837.79998779296875</AltitudeMeters>
            <DistanceMeters>NAN</DistanceMeters>
          </Trackpoint>
          <Trackpoint>
            <Time>2020-12-05T09:13:24.000Z</Time>
            <Position>
              <LatitudeDegrees>36.813398189842700958251953125</LatitudeDegrees>
              <LongitudeDegrees>-4.37710686586797237396240234375</LongitudeDegrees>
            </Position>
            <AltitudeMeters>838.4000244140625</AltitudeMeters>
            <DistanceMeters>NAN</DistanceMeters>
          </Trackpoint>
          <Trackpoint>
            <Time>2020-12-05T09:13:25.000Z</Time>
            <Position>
              <LatitudeDegrees>36.8133966811001300811767578125</LatitudeDegrees>
              <LongitudeDegrees>-4.37709881924092769622802734375</LongitudeDegrees>
            </Position>
            <AltitudeMeters>838.79998779296875</AltitudeMeters>
            <DistanceMeters>NAN</DistanceMeters>
          </Trackpoint>
          <Trackpoint>
            <Time>2020-12-05T09:13:26.000Z</Time>
            <Position>
              <LatitudeDegrees>36.81339450180530548095703125</LatitudeDegrees>
              <LongitudeDegrees>-4.37708876095712184906005859375</LongitudeDegrees>
            </Position>
            <AltitudeMeters>839</AltitudeMeters>
            <DistanceMeters>NAN</DistanceMeters>
          </Trackpoint>
          <Trackpoint>
            <Time>2020-12-05T09:13:27.000Z</Time>
            <Position>
              <LatitudeDegrees>36.8133946694433689117431640625</LatitudeDegrees>
              <LongitudeDegrees>-4.377076439559459686279296875</LongitudeDegrees>
            </Position>
            <AltitudeMeters>839.4000244140625</AltitudeMeters>
            <DistanceMeters>NAN</DistanceMeters>
          </Trackpoint>
          <Trackpoint>
            <Time>2020-12-05T09:13:28.000Z</Time>
            <Position>
              <LatitudeDegrees>36.81339357979595661163330078125</LatitudeDegrees>
              <LongitudeDegrees>-4.3770678900182247161865234375</LongitudeDegrees>
            </Position>
            <AltitudeMeters>839.4000244140625</AltitudeMeters>
            <DistanceMeters>NAN</DistanceMeters>
          </Trackpoint>
          <Trackpoint>
            <Time>2020-12-05T09:13:29.000Z</Time>
            <Position>
              <LatitudeDegrees>36.813392825424671173095703125</LatitudeDegrees>
              <LongitudeDegrees>-4.3770571611821651458740234375</LongitudeDegrees>
            </Position>
            <AltitudeMeters>839.5999755859375</AltitudeMeters>
            <DistanceMeters>NAN</DistanceMeters>
          </Trackpoint>
          <Trackpoint>
            <Time>2020-12-05T09:13:30.000Z</Time>
            <Position>
              <LatitudeDegrees>36.81339307688176631927490234375</LatitudeDegrees>
              <LongitudeDegrees>-4.37704391777515411376953125</LongitudeDegrees>
            </Position>
            <AltitudeMeters>839.5999755859375</AltitudeMeters>
            <DistanceMeters>NAN</DistanceMeters>
          </Trackpoint>
          <Trackpoint>
            <Time>2020-12-05T09:13:31.000Z</Time>
            <Position>
              <LatitudeDegrees>36.81339492090046405792236328125</LatitudeDegrees>
              <LongitudeDegrees>-4.37703025527298450469970703125</LongitudeDegrees>
            </Position>
            <AltitudeMeters>839.79998779296875</AltitudeMeters>
            <DistanceMeters>NAN</DistanceMeters>
          </Trackpoint>
          <Trackpoint>
            <Time>2020-12-05T09:13:32.000Z</Time>
            <Position>
              <LatitudeDegrees>36.81339877657592296600341796875</LatitudeDegrees>
              <LongitudeDegrees>-4.37701801769435405731201171875</LongitudeDegrees>
            </Position>
            <AltitudeMeters>839.79998779296875</AltitudeMeters>
            <DistanceMeters>NAN</DistanceMeters>
          </Trackpoint>
          <Trackpoint>
            <Time>2020-12-05T09:13:33.000Z</Time>
            <Position>
              <LatitudeDegrees>36.8134007044136524200439453125</LatitudeDegrees>
              <LongitudeDegrees>-4.3770045228302478790283203125</LongitudeDegrees>
            </Position>
            <AltitudeMeters>839.79998779296875</AltitudeMeters>
            <DistanceMeters>NAN</DistanceMeters>
          </Trackpoint>
          <Trackpoint>
            <Time>2020-12-05T09:13:34.000Z</Time>
            <Position>
              <LatitudeDegrees>36.81340313516557216644287109375</LatitudeDegrees>
              <LongitudeDegrees>-4.37699538655579090118408203125</LongitudeDegrees>
            </Position>
            <AltitudeMeters>839.5999755859375</AltitudeMeters>
            <DistanceMeters>NAN</DistanceMeters>
          </Trackpoint>
          <Trackpoint>
            <Time>2020-12-05T09:13:35.000Z</Time>
            <Position>
              <LatitudeDegrees>36.81340430863201618194580078125</LatitudeDegrees>
              <LongitudeDegrees>-4.3769834004342555999755859375</LongitudeDegrees>
            </Position>
            <AltitudeMeters>839.5999755859375</AltitudeMeters>
            <DistanceMeters>NAN</DistanceMeters>
          </Trackpoint>
          <Trackpoint>
            <Time>2020-12-05T09:13:36.000Z</Time>
            <Position>
              <LatitudeDegrees>36.8134032189846038818359375</LatitudeDegrees>
              <LongitudeDegrees>-4.3769681453704833984375</LongitudeDegrees>
            </Position>
            <AltitudeMeters>839.5999755859375</AltitudeMeters>
            <DistanceMeters>NAN</DistanceMeters>
          </Trackpoint>
          <Trackpoint>
            <Time>2020-12-05T09:13:37.000Z</Time>
            <Position>
              <LatitudeDegrees>36.81340129114687442779541015625</LatitudeDegrees>
              <LongitudeDegrees>-4.3769575841724872589111328125</LongitudeDegrees>
            </Position>
            <AltitudeMeters>839.4000244140625</AltitudeMeters>
            <DistanceMeters>NAN</DistanceMeters>
          </Trackpoint>
          <Trackpoint>
            <Time>2020-12-05T09:13:38.000Z</Time>
            <Position>
              <LatitudeDegrees>36.813401542603969573974609375</LatitudeDegrees>
              <LongitudeDegrees>-4.376946352422237396240234375</LongitudeDegrees>
            </Position>
            <AltitudeMeters>839.4000244140625</AltitudeMeters>
            <DistanceMeters>NAN</DistanceMeters>
          </Trackpoint>
          <Trackpoint>
            <Time>2020-12-05T09:13:39.000Z</Time>
            <Position>
              <LatitudeDegrees>36.81340363807976245880126953125</LatitudeDegrees>
              <LongitudeDegrees>-4.37693503685295581817626953125</LongitudeDegrees>
            </Position>
            <AltitudeMeters>839.4000244140625</AltitudeMeters>
            <DistanceMeters>NAN</DistanceMeters>
          </Trackpoint>
          <Trackpoint>
            <Time>2020-12-05T09:13:40.000Z</Time>
            <Position>
              <LatitudeDegrees>36.813408248126506805419921875</LatitudeDegrees>
              <LongitudeDegrees>-4.3769227154552936553955078125</LongitudeDegrees>
            </Position>
            <AltitudeMeters>839.20001220703125</AltitudeMeters>
            <DistanceMeters>NAN</DistanceMeters>
          </Trackpoint>
          <Trackpoint>
            <Time>2020-12-05T09:13:41.000Z</Time>
            <Position>
              <LatitudeDegrees>36.81341352872550487518310546875</LatitudeDegrees>
              <LongitudeDegrees>-4.3769077956676483154296875</LongitudeDegrees>
            </Position>
            <AltitudeMeters>839.20001220703125</AltitudeMeters>
            <DistanceMeters>NAN</DistanceMeters>
          </Trackpoint>
          <Trackpoint>
            <Time>2020-12-05T09:13:42.000Z</Time>
            <Position>
              <LatitudeDegrees>36.813416965305805206298828125</LatitudeDegrees>
              <LongitudeDegrees>-4.37689161859452724456787109375</LongitudeDegrees>
            </Position>
            <AltitudeMeters>839.4000244140625</AltitudeMeters>
            <DistanceMeters>NAN</DistanceMeters>
          </Trackpoint>
          <Trackpoint>
            <Time>2020-12-05T09:13:43.000Z</Time>
            <Position>
              <LatitudeDegrees>36.81342107243835926055908203125</LatitudeDegrees>
              <LongitudeDegrees>-4.37687485478818416595458984375</LongitudeDegrees>
            </Position>
            <AltitudeMeters>839.20001220703125</AltitudeMeters>
            <DistanceMeters>NAN</DistanceMeters>
          </Trackpoint>
          <Trackpoint>
            <Time>2020-12-05T09:13:44.000Z</Time>
            <Position>
              <LatitudeDegrees>36.8134241737425327301025390625</LatitudeDegrees>
              <LongitudeDegrees>-4.37685482203960418701171875</LongitudeDegrees>
            </Position>
            <AltitudeMeters>839</AltitudeMeters>
            <DistanceMeters>NAN</DistanceMeters>
          </Trackpoint>
          <Trackpoint>
            <Time>2020-12-05T09:13:45.000Z</Time>
            <Position>
              <LatitudeDegrees>36.81342978961765766143798828125</LatitudeDegrees>
              <LongitudeDegrees>-4.3768375553190708160400390625</LongitudeDegrees>
            </Position>
            <AltitudeMeters>839.20001220703125</AltitudeMeters>
            <DistanceMeters>NAN</DistanceMeters>
          </Trackpoint>
          <Trackpoint>
            <Time>2020-12-05T09:13:46.000Z</Time>
            <Position>
              <LatitudeDegrees>36.813434064388275146484375</LatitudeDegrees>
              <LongitudeDegrees>-4.37682104296982288360595703125</LongitudeDegrees>
            </Position>
            <AltitudeMeters>839.20001220703125</AltitudeMeters>
            <DistanceMeters>NAN</DistanceMeters>
          </Trackpoint>
          <Trackpoint>
            <Time>2020-12-05T09:13:47.000Z</Time>
            <Position>
              <LatitudeDegrees>36.81343733333051204681396484375</LatitudeDegrees>
              <LongitudeDegrees>-4.37680813483893871307373046875</LongitudeDegrees>
            </Position>
            <AltitudeMeters>839.20001220703125</AltitudeMeters>
            <DistanceMeters>NAN</DistanceMeters>
          </Trackpoint>
          <Trackpoint>
            <Time>2020-12-05T09:13:48.000Z</Time>
            <Position>
              <LatitudeDegrees>36.81343984790146350860595703125</LatitudeDegrees>
              <LongitudeDegrees>-4.37679623253643512725830078125</LongitudeDegrees>
            </Position>
            <AltitudeMeters>839.20001220703125</AltitudeMeters>
            <DistanceMeters>NAN</DistanceMeters>
          </Trackpoint>
          <Trackpoint>
            <Time>2020-12-05T09:13:49.000Z</Time>
            <Position>
              <LatitudeDegrees>36.81344286538660526275634765625</LatitudeDegrees>
              <LongitudeDegrees>-4.3767829053103923797607421875</LongitudeDegrees>
            </Position>
            <AltitudeMeters>839.4000244140625</AltitudeMeters>
            <DistanceMeters>NAN</DistanceMeters>
          </Trackpoint>
          <Trackpoint>
            <Time>2020-12-05T09:13:50.000Z</Time>
            <Position>
              <LatitudeDegrees>36.8134434521198272705078125</LatitudeDegrees>
              <LongitudeDegrees>-4.3767738528549671173095703125</LongitudeDegrees>
            </Position>
            <AltitudeMeters>839.4000244140625</AltitudeMeters>
            <DistanceMeters>NAN</DistanceMeters>
          </Trackpoint>
          <Trackpoint>
            <Time>2020-12-05T09:13:51.000Z</Time>
            <Position>
              <LatitudeDegrees>36.8134432844817638397216796875</LatitudeDegrees>
              <LongitudeDegrees>-4.376765973865985870361328125</LongitudeDegrees>
            </Position>
            <AltitudeMeters>839.5999755859375</AltitudeMeters>
            <DistanceMeters>NAN</DistanceMeters>
          </Trackpoint>
          <Trackpoint>
            <Time>2020-12-05T09:13:52.000Z</Time>
            <Position>
              <LatitudeDegrees>36.81344420649111270904541015625</LatitudeDegrees>
              <LongitudeDegrees>-4.37675633467733860015869140625</LongitudeDegrees>
            </Position>
            <AltitudeMeters>840</AltitudeMeters>
            <DistanceMeters>NAN</DistanceMeters>
          </Trackpoint>
          <Trackpoint>
            <Time>2020-12-05T09:13:53.000Z</Time>
            <Position>
              <LatitudeDegrees>36.81344412267208099365234375</LatitudeDegrees>
              <LongitudeDegrees>-4.37674409709870815277099609375</LongitudeDegrees>
            </Position>
            <AltitudeMeters>840.5999755859375</AltitudeMeters>
            <DistanceMeters>NAN</DistanceMeters>
          </Trackpoint>
          <Trackpoint>
            <Time>2020-12-05T09:13:54.000Z</Time>
            <Position>
              <LatitudeDegrees>36.81344437412917613983154296875</LatitudeDegrees>
              <LongitudeDegrees>-4.37673102132976055145263671875</LongitudeDegrees>
            </Position>
            <AltitudeMeters>840.79998779296875</AltitudeMeters>
            <DistanceMeters>NAN</DistanceMeters>
          </Trackpoint>
          <Trackpoint>
            <Time>2020-12-05T09:13:55.000Z</Time>
            <Position>
              <LatitudeDegrees>36.81344403885304927825927734375</LatitudeDegrees>
              <LongitudeDegrees>-4.37671341933310031890869140625</LongitudeDegrees>
            </Position>
            <AltitudeMeters>841.20001220703125</AltitudeMeters>
            <DistanceMeters>NAN</DistanceMeters>
          </Trackpoint>
          <Trackpoint>
            <Time>2020-12-05T09:13:56.000Z</Time>
            <Position>
              <LatitudeDegrees>36.81344688870012760162353515625</LatitudeDegrees>
              <LongitudeDegrees>-4.37669657170772552490234375</LongitudeDegrees>
            </Position>
            <AltitudeMeters>841.5999755859375</AltitudeMeters>
            <DistanceMeters>NAN</DistanceMeters>
          </Trackpoint>
          <Trackpoint>
            <Time>2020-12-05T09:13:57.000Z</Time>
            <Position>
              <LatitudeDegrees>36.81344856508076190948486328125</LatitudeDegrees>
              <LongitudeDegrees>-4.3766829930245876312255859375</LongitudeDegrees>
            </Position>
            <AltitudeMeters>841.79998779296875</AltitudeMeters>
            <DistanceMeters>NAN</DistanceMeters>
          </Trackpoint>
          <Trackpoint>
            <Time>2020-12-05T09:13:58.000Z</Time>
            <Position>
              <LatitudeDegrees>36.8134479783475399017333984375</LatitudeDegrees>
              <LongitudeDegrees>-4.376665055751800537109375</LongitudeDegrees>
            </Position>
            <AltitudeMeters>841.5999755859375</AltitudeMeters>
            <DistanceMeters>NAN</DistanceMeters>
          </Trackpoint>
          <Trackpoint>
            <Time>2020-12-05T09:13:59.000Z</Time>
            <Position>
              <LatitudeDegrees>36.81344772689044475555419921875</LatitudeDegrees>
              <LongitudeDegrees>-4.3766484595835208892822265625</LongitudeDegrees>
            </Position>
            <AltitudeMeters>841.5999755859375</AltitudeMeters>
            <DistanceMeters>NAN</DistanceMeters>
          </Trackpoint>
          <Trackpoint>
            <Time>2020-12-05T09:14:00.000Z</Time>
            <Position>
              <LatitudeDegrees>36.813449151813983917236328125</LatitudeDegrees>
              <LongitudeDegrees>-4.3766333721578121185302734375</LongitudeDegrees>
            </Position>
            <AltitudeMeters>841.5999755859375</AltitudeMeters>
            <DistanceMeters>NAN</DistanceMeters>
          </Trackpoint>
          <Trackpoint>
            <Time>2020-12-05T09:14:01.000Z</Time>
            <Position>
              <LatitudeDegrees>36.81345359422266483306884765625</LatitudeDegrees>
              <LongitudeDegrees>-4.37661702744662761688232421875</LongitudeDegrees>
            </Position>
            <AltitudeMeters>841.5999755859375</AltitudeMeters>
            <DistanceMeters>NAN</DistanceMeters>
          </Trackpoint>
          <Trackpoint>
            <Time>2020-12-05T09:14:02.000Z</Time>
            <Position>
              <LatitudeDegrees>36.813453845679759979248046875</LatitudeDegrees>
              <LongitudeDegrees>-4.37660403549671173095703125</LongitudeDegrees>
            </Position>
            <AltitudeMeters>841.4000244140625</AltitudeMeters>
            <DistanceMeters>NAN</DistanceMeters>
          </Trackpoint>
          <Trackpoint>
            <Time>2020-12-05T09:14:03.000Z</Time>
            <Position>
              <LatitudeDegrees>36.81345460005104541778564453125</LatitudeDegrees>
              <LongitudeDegrees>-4.37659540213644504547119140625</LongitudeDegrees>
            </Position>
            <AltitudeMeters>841.20001220703125</AltitudeMeters>
            <DistanceMeters>NAN</DistanceMeters>
          </Trackpoint>
          <Trackpoint>
            <Time>2020-12-05T09:14:04.000Z</Time>
            <Position>
              <LatitudeDegrees>36.81345778517425060272216796875</LatitudeDegrees>
              <LongitudeDegrees>-4.37658651731908321380615234375</LongitudeDegrees>
            </Position>
            <AltitudeMeters>840.79998779296875</AltitudeMeters>
            <DistanceMeters>NAN</DistanceMeters>
          </Trackpoint>
          <Trackpoint>
            <Time>2020-12-05T09:14:05.000Z</Time>
            <Position>
              <LatitudeDegrees>36.8134649097919464111328125</LatitudeDegrees>
              <LongitudeDegrees>-4.37657654285430908203125</LongitudeDegrees>
            </Position>
            <AltitudeMeters>840.4000244140625</AltitudeMeters>
            <DistanceMeters>NAN</DistanceMeters>
          </Trackpoint>
          <Trackpoint>
            <Time>2020-12-05T09:14:06.000Z</Time>
            <Position>
              <LatitudeDegrees>36.81347555480897426605224609375</LatitudeDegrees>
              <LongitudeDegrees>-4.37656505964696407318115234375</LongitudeDegrees>
            </Position>
            <AltitudeMeters>840</AltitudeMeters>
            <DistanceMeters>NAN</DistanceMeters>
          </Trackpoint>
          <Trackpoint>
            <Time>2020-12-05T09:14:07.000Z</Time>
            <Position>
              <LatitudeDegrees>36.81348963640630245208740234375</LatitudeDegrees>
              <LongitudeDegrees>-4.37655030749738216400146484375</LongitudeDegrees>
            </Position>
            <AltitudeMeters>839.79998779296875</AltitudeMeters>
            <DistanceMeters>NAN</DistanceMeters>
          </Trackpoint>
          <Trackpoint>
            <Time>2020-12-05T09:14:08.000Z</Time>
            <Position>
              <LatitudeDegrees>36.81349583901464939117431640625</LatitudeDegrees>
              <LongitudeDegrees>-4.376537315547466278076171875</LongitudeDegrees>
            </Position>
            <AltitudeMeters>839.4000244140625</AltitudeMeters>
            <DistanceMeters>NAN</DistanceMeters>
          </Trackpoint>
          <Trackpoint>
            <Time>2020-12-05T09:14:09.000Z</Time>
            <Position>
              <LatitudeDegrees>36.8135019578039646148681640625</LatitudeDegrees>
              <LongitudeDegrees>-4.376524575054645538330078125</LongitudeDegrees>
            </Position>
            <AltitudeMeters>839.20001220703125</AltitudeMeters>
            <DistanceMeters>NAN</DistanceMeters>
          </Trackpoint>
          <Trackpoint>
            <Time>2020-12-05T09:14:10.000Z</Time>
            <Position>
              <LatitudeDegrees>36.8135076574981212615966796875</LatitudeDegrees>
              <LongitudeDegrees>-4.37651208601891994476318359375</LongitudeDegrees>
            </Position>
            <AltitudeMeters>839</AltitudeMeters>
            <DistanceMeters>NAN</DistanceMeters>
          </Trackpoint>
          <Trackpoint>
            <Time>2020-12-05T09:14:11.000Z</Time>
            <Position>
              <LatitudeDegrees>36.81351386010646820068359375</LatitudeDegrees>
              <LongitudeDegrees>-4.376500435173511505126953125</LongitudeDegrees>
            </Position>
            <AltitudeMeters>838.79998779296875</AltitudeMeters>
            <DistanceMeters>NAN</DistanceMeters>
          </Trackpoint>
          <Trackpoint>
            <Time>2020-12-05T09:14:12.000Z</Time>
            <Position>
              <LatitudeDegrees>36.813520230352878570556640625</LatitudeDegrees>
              <LongitudeDegrees>-4.3764865212142467498779296875</LongitudeDegrees>
            </Position>
            <AltitudeMeters>838.5999755859375</AltitudeMeters>
            <DistanceMeters>NAN</DistanceMeters>
          </Trackpoint>
          <Trackpoint>
            <Time>2020-12-05T09:14:13.000Z</Time>
            <Position>
              <LatitudeDegrees>36.8135239183902740478515625</LatitudeDegrees>
              <LongitudeDegrees>-4.3764771334826946258544921875</LongitudeDegrees>
            </Position>
            <AltitudeMeters>838.4000244140625</AltitudeMeters>
            <DistanceMeters>NAN</DistanceMeters>
          </Trackpoint>
          <Trackpoint>
            <Time>2020-12-05T09:14:14.000Z</Time>
            <Position>
              <LatitudeDegrees>36.8135264329612255096435546875</LatitudeDegrees>
              <LongitudeDegrees>-4.37646950595080852508544921875</LongitudeDegrees>
            </Position>
            <AltitudeMeters>838.4000244140625</AltitudeMeters>
            <DistanceMeters>NAN</DistanceMeters>
          </Trackpoint>
          <Trackpoint>
            <Time>2020-12-05T09:14:15.000Z</Time>
            <Position>
              <LatitudeDegrees>36.81353171356022357940673828125</LatitudeDegrees>
              <LongitudeDegrees>-4.3764617107808589935302734375</LongitudeDegrees>
            </Position>
            <AltitudeMeters>838.4000244140625</AltitudeMeters>
            <DistanceMeters>NAN</DistanceMeters>
          </Trackpoint>
          <Trackpoint>
            <Time>2020-12-05T09:14:16.000Z</Time>
            <Position>
              <LatitudeDegrees>36.8135368265211582183837890625</LatitudeDegrees>
              <LongitudeDegrees>-4.37644989229738712310791015625</LongitudeDegrees>
            </Position>
            <AltitudeMeters>838.4000244140625</AltitudeMeters>
            <DistanceMeters>NAN</DistanceMeters>
          </Trackpoint>
          <Trackpoint>
            <Time>2020-12-05T09:14:17.000Z</Time>
            <Position>
              <LatitudeDegrees>36.813545040786266326904296875</LatitudeDegrees>
              <LongitudeDegrees>-4.37643530778586864471435546875</LongitudeDegrees>
            </Position>
            <AltitudeMeters>838.4000244140625</AltitudeMeters>
            <DistanceMeters>NAN</DistanceMeters>
          </Trackpoint>
          <Trackpoint>
            <Time>2020-12-05T09:14:18.000Z</Time>
            <Position>
              <LatitudeDegrees>36.8135507404804229736328125</LatitudeDegrees>
              <LongitudeDegrees>-4.37642307020723819732666015625</LongitudeDegrees>
            </Position>
            <AltitudeMeters>838.4000244140625</AltitudeMeters>
            <DistanceMeters>NAN</DistanceMeters>
          </Trackpoint>
          <Trackpoint>
            <Time>2020-12-05T09:14:19.000Z</Time>
            <Position>
              <LatitudeDegrees>36.813554428517818450927734375</LatitudeDegrees>
              <LongitudeDegrees>-4.376411251723766326904296875</LongitudeDegrees>
            </Position>
            <AltitudeMeters>838.5999755859375</AltitudeMeters>
            <DistanceMeters>NAN</DistanceMeters>
          </Trackpoint>
          <Trackpoint>
            <Time>2020-12-05T09:14:20.000Z</Time>
            <Position>
              <LatitudeDegrees>36.81355937384068965911865234375</LatitudeDegrees>
              <LongitudeDegrees>-4.37640144489705562591552734375</LongitudeDegrees>
            </Position>
            <AltitudeMeters>838.5999755859375</AltitudeMeters>
            <DistanceMeters>NAN</DistanceMeters>
          </Trackpoint>
          <Trackpoint>
            <Time>2020-12-05T09:14:21.000Z</Time>
            <Position>
              <LatitudeDegrees>36.81356507353484630584716796875</LatitudeDegrees>
              <LongitudeDegrees>-4.3763901293277740478515625</LongitudeDegrees>
            </Position>
            <AltitudeMeters>838.5999755859375</AltitudeMeters>
            <DistanceMeters>NAN</DistanceMeters>
          </Trackpoint>
          <Trackpoint>
            <Time>2020-12-05T09:14:22.000Z</Time>
            <Position>
              <LatitudeDegrees>36.81357278488576412200927734375</LatitudeDegrees>
              <LongitudeDegrees>-4.37637831084430217742919921875</LongitudeDegrees>
            </Position>
            <AltitudeMeters>838.5999755859375</AltitudeMeters>
            <DistanceMeters>NAN</DistanceMeters>
          </Trackpoint>
          <Trackpoint>
            <Time>2020-12-05T09:14:23.000Z</Time>
            <Position>
              <LatitudeDegrees>36.813578903675079345703125</LatitudeDegrees>
              <LongitudeDegrees>-4.3763651512563228607177734375</LongitudeDegrees>
            </Position>
            <AltitudeMeters>838.5999755859375</AltitudeMeters>
            <DistanceMeters>NAN</DistanceMeters>
          </Trackpoint>
          <Trackpoint>
            <Time>2020-12-05T09:14:24.000Z</Time>
            <Position>
              <LatitudeDegrees>36.81358762085437774658203125</LatitudeDegrees>
              <LongitudeDegrees>-4.3763527460396289825439453125</LongitudeDegrees>
            </Position>
            <AltitudeMeters>838.5999755859375</AltitudeMeters>
            <DistanceMeters>NAN</DistanceMeters>
          </Trackpoint>
          <Trackpoint>
            <Time>2020-12-05T09:14:25.000Z</Time>
            <Position>
              <LatitudeDegrees>36.81359508074820041656494140625</LatitudeDegrees>
              <LongitudeDegrees>-4.3763426877558231353759765625</LongitudeDegrees>
            </Position>
            <AltitudeMeters>838.4000244140625</AltitudeMeters>
            <DistanceMeters>NAN</DistanceMeters>
          </Trackpoint>
          <Trackpoint>
            <Time>2020-12-05T09:14:26.000Z</Time>
            <Position>
              <LatitudeDegrees>36.81360195390880107879638671875</LatitudeDegrees>
              <LongitudeDegrees>-4.37633723951876163482666015625</LongitudeDegrees>
            </Position>
            <AltitudeMeters>838.4000244140625</AltitudeMeters>
            <DistanceMeters>NAN</DistanceMeters>
          </Trackpoint>
          <Trackpoint>
            <Time>2020-12-05T09:14:27.000Z</Time>
            <Position>
              <LatitudeDegrees>36.81360798887908458709716796875</LatitudeDegrees>
              <LongitudeDegrees>-4.37633355148136615753173828125</LongitudeDegrees>
            </Position>
            <AltitudeMeters>838.4000244140625</AltitudeMeters>
            <DistanceMeters>NAN</DistanceMeters>
          </Trackpoint>
          <Trackpoint>
            <Time>2020-12-05T09:14:28.000Z</Time>
            <Position>
              <LatitudeDegrees>36.813614778220653533935546875</LatitudeDegrees>
              <LongitudeDegrees>-4.37633304856717586517333984375</LongitudeDegrees>
            </Position>
            <AltitudeMeters>838.4000244140625</AltitudeMeters>
            <DistanceMeters>NAN</DistanceMeters>
          </Trackpoint>
          <Trackpoint>
            <Time>2020-12-05T09:14:29.000Z</Time>
            <Position>
              <LatitudeDegrees>36.8136226572096347808837890625</LatitudeDegrees>
              <LongitudeDegrees>-4.37633313238620758056640625</LongitudeDegrees>
            </Position>
            <AltitudeMeters>838.20001220703125</AltitudeMeters>
            <DistanceMeters>NAN</DistanceMeters>
          </Trackpoint>
          <Trackpoint>
            <Time>2020-12-05T09:14:30.000Z</Time>
            <Position>
              <LatitudeDegrees>36.81362994946539402008056640625</LatitudeDegrees>
              <LongitudeDegrees>-4.37633606605231761932373046875</LongitudeDegrees>
            </Position>
            <AltitudeMeters>838</AltitudeMeters>
            <DistanceMeters>NAN</DistanceMeters>
          </Trackpoint>
          <Trackpoint>
            <Time>2020-12-05T09:14:31.000Z</Time>
            <Position>
              <LatitudeDegrees>36.81363263167440891265869140625</LatitudeDegrees>
              <LongitudeDegrees>-4.3763403408229351043701171875</LongitudeDegrees>
            </Position>
            <AltitudeMeters>838</AltitudeMeters>
            <DistanceMeters>NAN</DistanceMeters>
          </Trackpoint>
          <Trackpoint>
            <Time>2020-12-05T09:14:32.000Z</Time>
            <Position>
              <LatitudeDegrees>36.81363631971180438995361328125</LatitudeDegrees>
              <LongitudeDegrees>-4.37634293921291828155517578125</LongitudeDegrees>
            </Position>
            <AltitudeMeters>837.79998779296875</AltitudeMeters>
            <DistanceMeters>NAN</DistanceMeters>
          </Trackpoint>
          <Trackpoint>
            <Time>2020-12-05T09:14:33.000Z</Time>
            <Position>
              <LatitudeDegrees>36.81364126503467559814453125</LatitudeDegrees>
              <LongitudeDegrees>-4.37634528614580631256103515625</LongitudeDegrees>
            </Position>
            <AltitudeMeters>837.79998779296875</AltitudeMeters>
            <DistanceMeters>NAN</DistanceMeters>
          </Trackpoint>
          <Trackpoint>
            <Time>2020-12-05T09:14:34.000Z</Time>
            <Position>
              <LatitudeDegrees>36.8136457912623882293701171875</LatitudeDegrees>
              <LongitudeDegrees>-4.37634746544063091278076171875</LongitudeDegrees>
            </Position>
            <AltitudeMeters>837.79998779296875</AltitudeMeters>
            <DistanceMeters>NAN</DistanceMeters>
          </Trackpoint>
          <Trackpoint>
            <Time>2020-12-05T09:14:35.000Z</Time>
            <Position>
              <LatitudeDegrees>36.8136474676430225372314453125</LatitudeDegrees>
              <LongitudeDegrees>-4.3763524107635021209716796875</LongitudeDegrees>
            </Position>
            <AltitudeMeters>837.79998779296875</AltitudeMeters>
            <DistanceMeters>NAN</DistanceMeters>
          </Trackpoint>
          <Trackpoint>
            <Time>2020-12-05T09:14:36.000Z</Time>
            <Position>
              <LatitudeDegrees>36.81364403106272220611572265625</LatitudeDegrees>
              <LongitudeDegrees>-4.376356601715087890625</LongitudeDegrees>
            </Position>
            <AltitudeMeters>837.79998779296875</AltitudeMeters>
            <DistanceMeters>NAN</DistanceMeters>
          </Trackpoint>
          <Trackpoint>
            <Time>2020-12-05T09:14:37.000Z</Time>
            <Position>
              <LatitudeDegrees>36.8136421032249927520751953125</LatitudeDegrees>
              <LongitudeDegrees>-4.37636288814246654510498046875</LongitudeDegrees>
            </Position>
            <AltitudeMeters>837.5999755859375</AltitudeMeters>
            <DistanceMeters>NAN</DistanceMeters>
          </Trackpoint>
          <Trackpoint>
            <Time>2020-12-05T09:14:38.000Z</Time>
            <Position>
              <LatitudeDegrees>36.813640594482421875</LatitudeDegrees>
              <LongitudeDegrees>-4.37637227587401866912841796875</LongitudeDegrees>
            </Position>
            <AltitudeMeters>837.5999755859375</AltitudeMeters>
            <DistanceMeters>NAN</DistanceMeters>
          </Trackpoint>
          <Trackpoint>
            <Time>2020-12-05T09:14:39.000Z</Time>
            <Position>
              <LatitudeDegrees>36.8136364035308361053466796875</LatitudeDegrees>
              <LongitudeDegrees>-4.3763852678239345550537109375</LongitudeDegrees>
            </Position>
            <AltitudeMeters>837.5999755859375</AltitudeMeters>
            <DistanceMeters>NAN</DistanceMeters>
          </Trackpoint>
          <Trackpoint>
            <Time>2020-12-05T09:14:40.000Z</Time>
            <Position>
              <LatitudeDegrees>36.81363414041697978973388671875</LatitudeDegrees>
              <LongitudeDegrees>-4.376402534544467926025390625</LongitudeDegrees>
            </Position>
            <AltitudeMeters>837.5999755859375</AltitudeMeters>
            <DistanceMeters>NAN</DistanceMeters>
          </Trackpoint>
          <Trackpoint>
            <Time>2020-12-05T09:14:41.000Z</Time>
            <Position>
              <LatitudeDegrees>36.81363229639828205108642578125</LatitudeDegrees>
              <LongitudeDegrees>-4.3764174543321132659912109375</LongitudeDegrees>
            </Position>
            <AltitudeMeters>837.5999755859375</AltitudeMeters>
            <DistanceMeters>NAN</DistanceMeters>
          </Trackpoint>
          <Trackpoint>
            <Time>2020-12-05T09:14:42.000Z</Time>
            <Position>
              <LatitudeDegrees>36.81363481096923351287841796875</LatitudeDegrees>
              <LongitudeDegrees>-4.3764268420636653900146484375</LongitudeDegrees>
            </Position>
            <AltitudeMeters>837.4000244140625</AltitudeMeters>
            <DistanceMeters>NAN</DistanceMeters>
          </Trackpoint>
          <Trackpoint>
            <Time>2020-12-05T09:14:43.000Z</Time>
            <Position>
              <LatitudeDegrees>36.81363581679761409759521484375</LatitudeDegrees>
              <LongitudeDegrees>-4.376441426575183868408203125</LongitudeDegrees>
            </Position>
            <AltitudeMeters>837.4000244140625</AltitudeMeters>
            <DistanceMeters>NAN</DistanceMeters>
          </Trackpoint>
          <Trackpoint>
            <Time>2020-12-05T09:14:44.000Z</Time>
            <Position>
              <LatitudeDegrees>36.81363715790212154388427734375</LatitudeDegrees>
              <LongitudeDegrees>-4.3764545023441314697265625</LongitudeDegrees>
            </Position>
            <AltitudeMeters>837.20001220703125</AltitudeMeters>
            <DistanceMeters>NAN</DistanceMeters>
          </Trackpoint>
          <Trackpoint>
            <Time>2020-12-05T09:14:45.000Z</Time>
            <Position>
              <LatitudeDegrees>36.81363481096923351287841796875</LatitudeDegrees>
              <LongitudeDegrees>-4.37646497972309589385986328125</LongitudeDegrees>
            </Position>
            <AltitudeMeters>837.20001220703125</AltitudeMeters>
            <DistanceMeters>NAN</DistanceMeters>
          </Trackpoint>
          <Trackpoint>
            <Time>2020-12-05T09:14:46.000Z</Time>
            <Position>
              <LatitudeDegrees>36.813631542026996612548828125</LatitudeDegrees>
              <LongitudeDegrees>-4.37647939659655094146728515625</LongitudeDegrees>
            </Position>
            <AltitudeMeters>837</AltitudeMeters>
            <DistanceMeters>NAN</DistanceMeters>
          </Trackpoint>
          <Trackpoint>
            <Time>2020-12-05T09:14:47.000Z</Time>
            <Position>
              <LatitudeDegrees>36.81363062001764774322509765625</LatitudeDegrees>
              <LongitudeDegrees>-4.37649565748870372772216796875</LongitudeDegrees>
            </Position>
            <AltitudeMeters>837</AltitudeMeters>
            <DistanceMeters>NAN</DistanceMeters>
          </Trackpoint>
          <Trackpoint>
            <Time>2020-12-05T09:14:48.000Z</Time>
            <Position>
              <LatitudeDegrees>36.8136313743889331817626953125</LatitudeDegrees>
              <LongitudeDegrees>-4.37651292420923709869384765625</LongitudeDegrees>
            </Position>
            <AltitudeMeters>837</AltitudeMeters>
            <DistanceMeters>NAN</DistanceMeters>
          </Trackpoint>
          <Trackpoint>
            <Time>2020-12-05T09:14:49.000Z</Time>
            <Position>
              <LatitudeDegrees>36.81363464333117008209228515625</LatitudeDegrees>
              <LongitudeDegrees>-4.37652759253978729248046875</LongitudeDegrees>
            </Position>
            <AltitudeMeters>837</AltitudeMeters>
            <DistanceMeters>NAN</DistanceMeters>
          </Trackpoint>
          <Trackpoint>
            <Time>2020-12-05T09:14:50.000Z</Time>
            <Position>
              <LatitudeDegrees>36.81363933719694614410400390625</LatitudeDegrees>
              <LongitudeDegrees>-4.3765435181558132171630859375</LongitudeDegrees>
            </Position>
            <AltitudeMeters>837</AltitudeMeters>
            <DistanceMeters>NAN</DistanceMeters>
          </Trackpoint>
          <Trackpoint>
            <Time>2020-12-05T09:14:51.000Z</Time>
            <Position>
              <LatitudeDegrees>36.81364302523434162139892578125</LatitudeDegrees>
              <LongitudeDegrees>-4.3765617907047271728515625</LongitudeDegrees>
            </Position>
            <AltitudeMeters>837</AltitudeMeters>
            <DistanceMeters>NAN</DistanceMeters>
          </Trackpoint>
          <Trackpoint>
            <Time>2020-12-05T09:14:52.000Z</Time>
            <Position>
              <LatitudeDegrees>36.813645623624324798583984375</LatitudeDegrees>
              <LongitudeDegrees>-4.376581571996212005615234375</LongitudeDegrees>
            </Position>
            <AltitudeMeters>836.79998779296875</AltitudeMeters>
            <DistanceMeters>NAN</DistanceMeters>
          </Trackpoint>
          <Trackpoint>
            <Time>2020-12-05T09:14:53.000Z</Time>
            <Position>
              <LatitudeDegrees>36.81364805437624454498291015625</LatitudeDegrees>
              <LongitudeDegrees>-4.37659959308803081512451171875</LongitudeDegrees>
            </Position>
            <AltitudeMeters>836.79998779296875</AltitudeMeters>
            <DistanceMeters>NAN</DistanceMeters>
          </Trackpoint>
          <Trackpoint>
            <Time>2020-12-05T09:14:54.000Z</Time>
            <Position>
              <LatitudeDegrees>36.8136491440236568450927734375</LatitudeDegrees>
              <LongitudeDegrees>-4.3766119144856929779052734375</LongitudeDegrees>
            </Position>
            <AltitudeMeters>836.79998779296875</AltitudeMeters>
            <DistanceMeters>NAN</DistanceMeters>
          </Trackpoint>
          <Trackpoint>
            <Time>2020-12-05T09:14:55.000Z</Time>
            <Position>
              <LatitudeDegrees>36.81365459226071834564208984375</LatitudeDegrees>
              <LongitudeDegrees>-4.37662457115948200225830078125</LongitudeDegrees>
            </Position>
            <AltitudeMeters>836.5999755859375</AltitudeMeters>
            <DistanceMeters>NAN</DistanceMeters>
          </Trackpoint>
          <Trackpoint>
            <Time>2020-12-05T09:14:56.000Z</Time>
            <Position>
              <LatitudeDegrees>36.8136602081358432769775390625</LatitudeDegrees>
              <LongitudeDegrees>-4.37663546763360500335693359375</LongitudeDegrees>
            </Position>
            <AltitudeMeters>836.5999755859375</AltitudeMeters>
            <DistanceMeters>NAN</DistanceMeters>
          </Trackpoint>
          <Trackpoint>
            <Time>2020-12-05T09:14:57.000Z</Time>
            <Position>
              <LatitudeDegrees>36.8136659078299999237060546875</LatitudeDegrees>
              <LongitudeDegrees>-4.37664695084095001220703125</LongitudeDegrees>
            </Position>
            <AltitudeMeters>836.5999755859375</AltitudeMeters>
            <DistanceMeters>NAN</DistanceMeters>
          </Trackpoint>
          <Trackpoint>
            <Time>2020-12-05T09:14:58.000Z</Time>
            <Position>
              <LatitudeDegrees>36.81367169134318828582763671875</LatitudeDegrees>
              <LongitudeDegrees>-4.3766571767628192901611328125</LongitudeDegrees>
            </Position>
            <AltitudeMeters>836.5999755859375</AltitudeMeters>
            <DistanceMeters>NAN</DistanceMeters>
          </Trackpoint>
          <Trackpoint>
            <Time>2020-12-05T09:14:59.000Z</Time>
            <Position>
              <LatitudeDegrees>36.8136776424944400787353515625</LatitudeDegrees>
              <LongitudeDegrees>-4.37667234800755977630615234375</LongitudeDegrees>
            </Position>
            <AltitudeMeters>836.79998779296875</AltitudeMeters>
            <DistanceMeters>NAN</DistanceMeters>
          </Trackpoint>
          <Trackpoint>
            <Time>2020-12-05T09:15:00.000Z</Time>
            <Position>
              <LatitudeDegrees>36.8136816658079624176025390625</LatitudeDegrees>
              <LongitudeDegrees>-4.37668659724295139312744140625</LongitudeDegrees>
            </Position>
            <AltitudeMeters>837</AltitudeMeters>
            <DistanceMeters>NAN</DistanceMeters>
          </Trackpoint>
          <Trackpoint>
            <Time>2020-12-05T09:15:01.000Z</Time>
            <Position>
              <LatitudeDegrees>36.81367990560829639434814453125</LatitudeDegrees>
              <LongitudeDegrees>-4.37670193612575531005859375</LongitudeDegrees>
            </Position>
            <AltitudeMeters>837.20001220703125</AltitudeMeters>
            <DistanceMeters>NAN</DistanceMeters>
          </Trackpoint>
          <Trackpoint>
            <Time>2020-12-05T09:15:02.000Z</Time>
            <Position>
              <LatitudeDegrees>36.81367621757090091705322265625</LatitudeDegrees>
              <LongitudeDegrees>-4.37671660445630550384521484375</LongitudeDegrees>
            </Position>
            <AltitudeMeters>837.20001220703125</AltitudeMeters>
            <DistanceMeters>NAN</DistanceMeters>
          </Trackpoint>
          <Trackpoint>
            <Time>2020-12-05T09:15:03.000Z</Time>
            <Position>
              <LatitudeDegrees>36.81367521174252033233642578125</LatitudeDegrees>
              <LongitudeDegrees>-4.376729093492031097412109375</LongitudeDegrees>
            </Position>
            <AltitudeMeters>837.4000244140625</AltitudeMeters>
            <DistanceMeters>NAN</DistanceMeters>
          </Trackpoint>
          <Trackpoint>
            <Time>2020-12-05T09:15:04.000Z</Time>
            <Position>
              <LatitudeDegrees>36.81367487646639347076416015625</LatitudeDegrees>
              <LongitudeDegrees>-4.37674158252775669097900390625</LongitudeDegrees>
            </Position>
            <AltitudeMeters>837.4000244140625</AltitudeMeters>
            <DistanceMeters>NAN</DistanceMeters>
          </Trackpoint>
          <Trackpoint>
            <Time>2020-12-05T09:15:05.000Z</Time>
            <Position>
              <LatitudeDegrees>36.8136716075241565704345703125</LatitudeDegrees>
              <LongitudeDegrees>-4.3767540715634822845458984375</LongitudeDegrees>
            </Position>
            <AltitudeMeters>837.4000244140625</AltitudeMeters>
            <DistanceMeters>NAN</DistanceMeters>
          </Trackpoint>
          <Trackpoint>
            <Time>2020-12-05T09:15:06.000Z</Time>
            <Position>
              <LatitudeDegrees>36.81366800330579280853271484375</LatitudeDegrees>
              <LongitudeDegrees>-4.37676991336047649383544921875</LongitudeDegrees>
            </Position>
            <AltitudeMeters>837.4000244140625</AltitudeMeters>
            <DistanceMeters>NAN</DistanceMeters>
          </Trackpoint>
          <Trackpoint>
            <Time>2020-12-05T09:15:07.000Z</Time>
            <Position>
              <LatitudeDegrees>36.8136679194867610931396484375</LatitudeDegrees>
              <LongitudeDegrees>-4.3767822347581386566162109375</LongitudeDegrees>
            </Position>
            <AltitudeMeters>837.4000244140625</AltitudeMeters>
            <DistanceMeters>NAN</DistanceMeters>
          </Trackpoint>
          <Trackpoint>
            <Time>2020-12-05T09:15:08.000Z</Time>
            <Position>
              <LatitudeDegrees>36.8136687576770782470703125</LatitudeDegrees>
              <LongitudeDegrees>-4.37679355032742023468017578125</LongitudeDegrees>
            </Position>
            <AltitudeMeters>837.20001220703125</AltitudeMeters>
            <DistanceMeters>NAN</DistanceMeters>
          </Trackpoint>
          <Trackpoint>
            <Time>2020-12-05T09:15:09.000Z</Time>
            <Position>
              <LatitudeDegrees>36.81367152370512485504150390625</LatitudeDegrees>
              <LongitudeDegrees>-4.37680411152541637420654296875</LongitudeDegrees>
            </Position>
            <AltitudeMeters>837.20001220703125</AltitudeMeters>
            <DistanceMeters>NAN</DistanceMeters>
          </Trackpoint>
          <Trackpoint>
            <Time>2020-12-05T09:15:10.000Z</Time>
            <Position>
              <LatitudeDegrees>36.8136726133525371551513671875</LatitudeDegrees>
              <LongitudeDegrees>-4.376815259456634521484375</LongitudeDegrees>
            </Position>
            <AltitudeMeters>837</AltitudeMeters>
            <DistanceMeters>NAN</DistanceMeters>
          </Trackpoint>
          <Trackpoint>
            <Time>2020-12-05T09:15:11.000Z</Time>
            <Position>
              <LatitudeDegrees>36.81367286480963230133056640625</LatitudeDegrees>
              <LongitudeDegrees>-4.3768285028636455535888671875</LongitudeDegrees>
            </Position>
            <AltitudeMeters>836.79998779296875</AltitudeMeters>
            <DistanceMeters>NAN</DistanceMeters>
          </Trackpoint>
          <Trackpoint>
            <Time>2020-12-05T09:15:12.000Z</Time>
            <Position>
              <LatitudeDegrees>36.8136746250092983245849609375</LatitudeDegrees>
              <LongitudeDegrees>-4.3768409080803394317626953125</LongitudeDegrees>
            </Position>
            <AltitudeMeters>836.5999755859375</AltitudeMeters>
            <DistanceMeters>NAN</DistanceMeters>
          </Trackpoint>
          <Trackpoint>
            <Time>2020-12-05T09:15:13.000Z</Time>
            <Position>
              <LatitudeDegrees>36.8136756308376789093017578125</LatitudeDegrees>
              <LongitudeDegrees>-4.3768553249537944793701171875</LongitudeDegrees>
            </Position>
            <AltitudeMeters>836.4000244140625</AltitudeMeters>
            <DistanceMeters>NAN</DistanceMeters>
          </Trackpoint>
          <Trackpoint>
            <Time>2020-12-05T09:15:14.000Z</Time>
            <Position>
              <LatitudeDegrees>36.81367881596088409423828125</LatitudeDegrees>
              <LongitudeDegrees>-4.376868903636932373046875</LongitudeDegrees>
            </Position>
            <AltitudeMeters>836</AltitudeMeters>
            <DistanceMeters>NAN</DistanceMeters>
          </Trackpoint>
          <Trackpoint>
            <Time>2020-12-05T09:15:15.000Z</Time>
            <Position>
              <LatitudeDegrees>36.8136806599795818328857421875</LatitudeDegrees>
              <LongitudeDegrees>-4.37688189558684825897216796875</LongitudeDegrees>
            </Position>
            <AltitudeMeters>835.5999755859375</AltitudeMeters>
            <DistanceMeters>NAN</DistanceMeters>
          </Trackpoint>
          <Trackpoint>
            <Time>2020-12-05T09:15:16.000Z</Time>
            <Position>
              <LatitudeDegrees>36.8136823363602161407470703125</LatitudeDegrees>
              <LongitudeDegrees>-4.37689212150871753692626953125</LongitudeDegrees>
            </Position>
            <AltitudeMeters>835.20001220703125</AltitudeMeters>
            <DistanceMeters>NAN</DistanceMeters>
          </Trackpoint>
          <Trackpoint>
            <Time>2020-12-05T09:15:17.000Z</Time>
            <Position>
              <LatitudeDegrees>36.813686527311801910400390625</LatitudeDegrees>
              <LongitudeDegrees>-4.37690469436347484588623046875</LongitudeDegrees>
            </Position>
            <AltitudeMeters>835</AltitudeMeters>
            <DistanceMeters>NAN</DistanceMeters>
          </Trackpoint>
          <Trackpoint>
            <Time>2020-12-05T09:15:18.000Z</Time>
            <Position>
              <LatitudeDegrees>36.81368761695921421051025390625</LatitudeDegrees>
              <LongitudeDegrees>-4.37692011706531047821044921875</LongitudeDegrees>
            </Position>
            <AltitudeMeters>834.79998779296875</AltitudeMeters>
            <DistanceMeters>NAN</DistanceMeters>
          </Trackpoint>
          <Trackpoint>
            <Time>2020-12-05T09:15:19.000Z</Time>
            <Position>
              <LatitudeDegrees>36.8136913888156414031982421875</LatitudeDegrees>
              <LongitudeDegrees>-4.37693285755813121795654296875</LongitudeDegrees>
            </Position>
            <AltitudeMeters>834.5999755859375</AltitudeMeters>
            <DistanceMeters>NAN</DistanceMeters>
          </Trackpoint>
          <Trackpoint>
            <Time>2020-12-05T09:15:20.000Z</Time>
            <Position>
              <LatitudeDegrees>36.81369298137724399566650390625</LatitudeDegrees>
              <LongitudeDegrees>-4.376946352422237396240234375</LongitudeDegrees>
            </Position>
            <AltitudeMeters>834.5999755859375</AltitudeMeters>
            <DistanceMeters>NAN</DistanceMeters>
          </Trackpoint>
          <Trackpoint>
            <Time>2020-12-05T09:15:21.000Z</Time>
            <Position>
              <LatitudeDegrees>36.81369633413851261138916015625</LatitudeDegrees>
              <LongitudeDegrees>-4.376958422362804412841796875</LongitudeDegrees>
            </Position>
            <AltitudeMeters>834.5999755859375</AltitudeMeters>
            <DistanceMeters>NAN</DistanceMeters>
          </Trackpoint>
          <Trackpoint>
            <Time>2020-12-05T09:15:22.000Z</Time>
            <Position>
              <LatitudeDegrees>36.8136982619762420654296875</LatitudeDegrees>
              <LongitudeDegrees>-4.37697015702724456787109375</LongitudeDegrees>
            </Position>
            <AltitudeMeters>834.5999755859375</AltitudeMeters>
            <DistanceMeters>NAN</DistanceMeters>
          </Trackpoint>
          <Trackpoint>
            <Time>2020-12-05T09:15:23.000Z</Time>
            <Position>
              <LatitudeDegrees>36.8136960826814174652099609375</LatitudeDegrees>
              <LongitudeDegrees>-4.3769880943000316619873046875</LongitudeDegrees>
            </Position>
            <AltitudeMeters>834.79998779296875</AltitudeMeters>
            <DistanceMeters>NAN</DistanceMeters>
          </Trackpoint>
          <Trackpoint>
            <Time>2020-12-05T09:15:24.000Z</Time>
            <Position>
              <LatitudeDegrees>36.813696585595607757568359375</LatitudeDegrees>
              <LongitudeDegrees>-4.3770038522779941558837890625</LongitudeDegrees>
            </Position>
            <AltitudeMeters>835.20001220703125</AltitudeMeters>
            <DistanceMeters>NAN</DistanceMeters>
          </Trackpoint>
          <Trackpoint>
            <Time>2020-12-05T09:15:25.000Z</Time>
            <Position>
              <LatitudeDegrees>36.8136947415769100189208984375</LatitudeDegrees>
              <LongitudeDegrees>-4.37701734714210033416748046875</LongitudeDegrees>
            </Position>
            <AltitudeMeters>835.4000244140625</AltitudeMeters>
            <DistanceMeters>NAN</DistanceMeters>
          </Trackpoint>
          <Trackpoint>
            <Time>2020-12-05T09:15:26.000Z</Time>
            <Position>
              <LatitudeDegrees>36.81369264610111713409423828125</LatitudeDegrees>
              <LongitudeDegrees>-4.37703008763492107391357421875</LongitudeDegrees>
            </Position>
            <AltitudeMeters>835.4000244140625</AltitudeMeters>
            <DistanceMeters>NAN</DistanceMeters>
          </Trackpoint>
          <Trackpoint>
            <Time>2020-12-05T09:15:27.000Z</Time>
            <Position>
              <LatitudeDegrees>36.8136870302259922027587890625</LatitudeDegrees>
              <LongitudeDegrees>-4.3770464323461055755615234375</LongitudeDegrees>
            </Position>
            <AltitudeMeters>835.5999755859375</AltitudeMeters>
            <DistanceMeters>NAN</DistanceMeters>
          </Trackpoint>
          <Trackpoint>
            <Time>2020-12-05T09:15:28.000Z</Time>
            <Position>
              <LatitudeDegrees>36.81368359364569187164306640625</LatitudeDegrees>
              <LongitudeDegrees>-4.3770601786673069000244140625</LongitudeDegrees>
            </Position>
            <AltitudeMeters>835.5999755859375</AltitudeMeters>
            <DistanceMeters>NAN</DistanceMeters>
          </Trackpoint>
          <Trackpoint>
            <Time>2020-12-05T09:15:29.000Z</Time>
            <Position>
              <LatitudeDegrees>36.81368174962699413299560546875</LatitudeDegrees>
              <LongitudeDegrees>-4.377071075141429901123046875</LongitudeDegrees>
            </Position>
            <AltitudeMeters>835.5999755859375</AltitudeMeters>
            <DistanceMeters>NAN</DistanceMeters>
          </Trackpoint>
          <Trackpoint>
            <Time>2020-12-05T09:15:30.000Z</Time>
            <Position>
              <LatitudeDegrees>36.81367789395153522491455078125</LatitudeDegrees>
              <LongitudeDegrees>-4.37708280980587005615234375</LongitudeDegrees>
            </Position>
            <AltitudeMeters>835.20001220703125</AltitudeMeters>
            <DistanceMeters>NAN</DistanceMeters>
          </Trackpoint>
          <Trackpoint>
            <Time>2020-12-05T09:15:31.000Z</Time>
            <Position>
              <LatitudeDegrees>36.81367705576121807098388671875</LatitudeDegrees>
              <LongitudeDegrees>-4.3770987354218959808349609375</LongitudeDegrees>
            </Position>
            <AltitudeMeters>834.79998779296875</AltitudeMeters>
            <DistanceMeters>NAN</DistanceMeters>
          </Trackpoint>
          <Trackpoint>
            <Time>2020-12-05T09:15:32.000Z</Time>
            <Position>
              <LatitudeDegrees>36.813679151237010955810546875</LatitudeDegrees>
              <LongitudeDegrees>-4.37711474485695362091064453125</LongitudeDegrees>
            </Position>
            <AltitudeMeters>834.5999755859375</AltitudeMeters>
            <DistanceMeters>NAN</DistanceMeters>
          </Trackpoint>
          <Trackpoint>
            <Time>2020-12-05T09:15:33.000Z</Time>
            <Position>
              <LatitudeDegrees>36.81368191726505756378173828125</LatitudeDegrees>
              <LongitudeDegrees>-4.377131760120391845703125</LongitudeDegrees>
            </Position>
            <AltitudeMeters>834.4000244140625</AltitudeMeters>
            <DistanceMeters>NAN</DistanceMeters>
          </Trackpoint>
          <Trackpoint>
            <Time>2020-12-05T09:15:34.000Z</Time>
            <Position>
              <LatitudeDegrees>36.813681162893772125244140625</LatitudeDegrees>
              <LongitudeDegrees>-4.37715413980185985565185546875</LongitudeDegrees>
            </Position>
            <AltitudeMeters>834.4000244140625</AltitudeMeters>
            <DistanceMeters>NAN</DistanceMeters>
          </Trackpoint>
          <Trackpoint>
            <Time>2020-12-05T09:15:35.000Z</Time>
            <Position>
              <LatitudeDegrees>36.81368124671280384063720703125</LatitudeDegrees>
              <LongitudeDegrees>-4.3771748431026935577392578125</LongitudeDegrees>
            </Position>
            <AltitudeMeters>834.4000244140625</AltitudeMeters>
            <DistanceMeters>NAN</DistanceMeters>
          </Trackpoint>
          <Trackpoint>
            <Time>2020-12-05T09:15:36.000Z</Time>
            <Position>
              <LatitudeDegrees>36.81368409655988216400146484375</LatitudeDegrees>
              <LongitudeDegrees>-4.37719252891838550567626953125</LongitudeDegrees>
            </Position>
            <AltitudeMeters>834.4000244140625</AltitudeMeters>
            <DistanceMeters>NAN</DistanceMeters>
          </Trackpoint>
          <Trackpoint>
            <Time>2020-12-05T09:15:37.000Z</Time>
            <Position>
              <LatitudeDegrees>36.81368711404502391815185546875</LatitudeDegrees>
              <LongitudeDegrees>-4.377206526696681976318359375</LongitudeDegrees>
            </Position>
            <AltitudeMeters>834.4000244140625</AltitudeMeters>
            <DistanceMeters>NAN</DistanceMeters>
          </Trackpoint>
          <Trackpoint>
            <Time>2020-12-05T09:15:38.000Z</Time>
            <Position>
              <LatitudeDegrees>36.813689880073070526123046875</LatitudeDegrees>
              <LongitudeDegrees>-4.37721482478082180023193359375</LongitudeDegrees>
            </Position>
            <AltitudeMeters>834.4000244140625</AltitudeMeters>
            <DistanceMeters>NAN</DistanceMeters>
          </Trackpoint>
          <Trackpoint>
            <Time>2020-12-05T09:15:39.000Z</Time>
            <Position>
              <LatitudeDegrees>36.81369088590145111083984375</LatitudeDegrees>
              <LongitudeDegrees>-4.3772254697978496551513671875</LongitudeDegrees>
            </Position>
            <AltitudeMeters>834.4000244140625</AltitudeMeters>
            <DistanceMeters>NAN</DistanceMeters>
          </Trackpoint>
          <Trackpoint>
            <Time>2020-12-05T09:15:40.000Z</Time>
            <Position>
              <LatitudeDegrees>36.81369063444435596466064453125</LatitudeDegrees>
              <LongitudeDegrees>-4.377238713204860687255859375</LongitudeDegrees>
            </Position>
            <AltitudeMeters>834.4000244140625</AltitudeMeters>
            <DistanceMeters>NAN</DistanceMeters>
          </Trackpoint>
          <Trackpoint>
            <Time>2020-12-05T09:15:41.000Z</Time>
            <Position>
              <LatitudeDegrees>36.8136910535395145416259765625</LatitudeDegrees>
              <LongitudeDegrees>-4.3772509507834911346435546875</LongitudeDegrees>
            </Position>
            <AltitudeMeters>834.4000244140625</AltitudeMeters>
            <DistanceMeters>NAN</DistanceMeters>
          </Trackpoint>
          <Trackpoint>
            <Time>2020-12-05T09:15:42.000Z</Time>
            <Position>
              <LatitudeDegrees>36.81369130499660968780517578125</LatitudeDegrees>
              <LongitudeDegrees>-4.3772643618285655975341796875</LongitudeDegrees>
            </Position>
            <AltitudeMeters>834.4000244140625</AltitudeMeters>
            <DistanceMeters>NAN</DistanceMeters>
          </Trackpoint>
          <Trackpoint>
            <Time>2020-12-05T09:15:43.000Z</Time>
            <Position>
              <LatitudeDegrees>36.81369222700595855712890625</LatitudeDegrees>
              <LongitudeDegrees>-4.3772784434258937835693359375</LongitudeDegrees>
            </Position>
            <AltitudeMeters>834.5999755859375</AltitudeMeters>
            <DistanceMeters>NAN</DistanceMeters>
          </Trackpoint>
          <Trackpoint>
            <Time>2020-12-05T09:15:44.000Z</Time>
            <Position>
              <LatitudeDegrees>36.81369532831013202667236328125</LatitudeDegrees>
              <LongitudeDegrees>-4.37729747034609317779541015625</LongitudeDegrees>
            </Position>
            <AltitudeMeters>834.79998779296875</AltitudeMeters>
            <DistanceMeters>NAN</DistanceMeters>
          </Trackpoint>
          <Trackpoint>
            <Time>2020-12-05T09:15:45.000Z</Time>
            <Position>
              <LatitudeDegrees>36.813697926700115203857421875</LatitudeDegrees>
              <LongitudeDegrees>-4.37731473706662654876708984375</LongitudeDegrees>
            </Position>
            <AltitudeMeters>835</AltitudeMeters>
            <DistanceMeters>NAN</DistanceMeters>
          </Trackpoint>
          <Trackpoint>
            <Time>2020-12-05T09:15:46.000Z</Time>
            <Position>
              <LatitudeDegrees>36.81370069272816181182861328125</LatitudeDegrees>
              <LongitudeDegrees>-4.37732881866395473480224609375</LongitudeDegrees>
            </Position>
            <AltitudeMeters>835</AltitudeMeters>
            <DistanceMeters>NAN</DistanceMeters>
          </Trackpoint>
          <Trackpoint>
            <Time>2020-12-05T09:15:47.000Z</Time>
            <Position>
              <LatitudeDegrees>36.8137024529278278350830078125</LatitudeDegrees>
              <LongitudeDegrees>-4.3773414753377437591552734375</LongitudeDegrees>
            </Position>
            <AltitudeMeters>835</AltitudeMeters>
            <DistanceMeters>NAN</DistanceMeters>
          </Trackpoint>
          <Trackpoint>
            <Time>2020-12-05T09:15:48.000Z</Time>
            <Position>
              <LatitudeDegrees>36.8137071467936038970947265625</LatitudeDegrees>
              <LongitudeDegrees>-4.3773555569350719451904296875</LongitudeDegrees>
            </Position>
            <AltitudeMeters>835.20001220703125</AltitudeMeters>
            <DistanceMeters>NAN</DistanceMeters>
          </Trackpoint>
          <Trackpoint>
            <Time>2020-12-05T09:15:49.000Z</Time>
            <Position>
              <LatitudeDegrees>36.8137121759355068206787109375</LatitudeDegrees>
              <LongitudeDegrees>-4.37737056054174900054931640625</LongitudeDegrees>
            </Position>
            <AltitudeMeters>835</AltitudeMeters>
            <DistanceMeters>NAN</DistanceMeters>
          </Trackpoint>
          <Trackpoint>
            <Time>2020-12-05T09:15:50.000Z</Time>
            <Position>
              <LatitudeDegrees>36.81371812708675861358642578125</LatitudeDegrees>
              <LongitudeDegrees>-4.3773850612342357635498046875</LongitudeDegrees>
            </Position>
            <AltitudeMeters>835</AltitudeMeters>
            <DistanceMeters>NAN</DistanceMeters>
          </Trackpoint>
          <Trackpoint>
            <Time>2020-12-05T09:15:51.000Z</Time>
            <Position>
              <LatitudeDegrees>36.81372432969510555267333984375</LatitudeDegrees>
              <LongitudeDegrees>-4.37739671207964420318603515625</LongitudeDegrees>
            </Position>
            <AltitudeMeters>835</AltitudeMeters>
            <DistanceMeters>NAN</DistanceMeters>
          </Trackpoint>
          <Trackpoint>
            <Time>2020-12-05T09:15:52.000Z</Time>
            <Position>
              <LatitudeDegrees>36.81372818537056446075439453125</LatitudeDegrees>
              <LongitudeDegrees>-4.37740861438214778900146484375</LongitudeDegrees>
            </Position>
            <AltitudeMeters>835</AltitudeMeters>
            <DistanceMeters>NAN</DistanceMeters>
          </Trackpoint>
          <Trackpoint>
            <Time>2020-12-05T09:15:53.000Z</Time>
            <Position>
              <LatitudeDegrees>36.813734471797943115234375</LatitudeDegrees>
              <LongitudeDegrees>-4.3774202652275562286376953125</LongitudeDegrees>
            </Position>
            <AltitudeMeters>835</AltitudeMeters>
            <DistanceMeters>NAN</DistanceMeters>
          </Trackpoint>
          <Trackpoint>
            <Time>2020-12-05T09:15:54.000Z</Time>
            <Position>
              <LatitudeDegrees>36.81373916566371917724609375</LatitudeDegrees>
              <LongitudeDegrees>-4.3774281442165374755859375</LongitudeDegrees>
            </Position>
            <AltitudeMeters>834.79998779296875</AltitudeMeters>
            <DistanceMeters>NAN</DistanceMeters>
          </Trackpoint>
          <Trackpoint>
            <Time>2020-12-05T09:15:55.000Z</Time>
            <Position>
              <LatitudeDegrees>36.81374193169176578521728515625</LatitudeDegrees>
              <LongitudeDegrees>-4.37743552029132843017578125</LongitudeDegrees>
            </Position>
            <AltitudeMeters>834.79998779296875</AltitudeMeters>
            <DistanceMeters>NAN</DistanceMeters>
          </Trackpoint>
          <Trackpoint>
            <Time>2020-12-05T09:15:56.000Z</Time>
            <Position>
              <LatitudeDegrees>36.8137467093765735626220703125</LatitudeDegrees>
              <LongitudeDegrees>-4.3774480931460857391357421875</LongitudeDegrees>
            </Position>
            <AltitudeMeters>834.5999755859375</AltitudeMeters>
            <DistanceMeters>NAN</DistanceMeters>
          </Trackpoint>
          <Trackpoint>
            <Time>2020-12-05T09:15:57.000Z</Time>
            <Position>
              <LatitudeDegrees>36.813750900328159332275390625</LatitudeDegrees>
              <LongitudeDegrees>-4.37746276147663593292236328125</LongitudeDegrees>
            </Position>
            <AltitudeMeters>834.4000244140625</AltitudeMeters>
            <DistanceMeters>NAN</DistanceMeters>
          </Trackpoint>
          <Trackpoint>
            <Time>2020-12-05T09:15:58.000Z</Time>
            <Position>
              <LatitudeDegrees>36.813754923641681671142578125</LatitudeDegrees>
              <LongitudeDegrees>-4.37747734598815441131591796875</LongitudeDegrees>
            </Position>
            <AltitudeMeters>834</AltitudeMeters>
            <DistanceMeters>NAN</DistanceMeters>
          </Trackpoint>
          <Trackpoint>
            <Time>2020-12-05T09:15:59.000Z</Time>
            <Position>
              <LatitudeDegrees>36.81376137770712375640869140625</LatitudeDegrees>
              <LongitudeDegrees>-4.37748790718615055084228515625</LongitudeDegrees>
            </Position>
            <AltitudeMeters>833.79998779296875</AltitudeMeters>
            <DistanceMeters>NAN</DistanceMeters>
          </Trackpoint>
          <Trackpoint>
            <Time>2020-12-05T09:16:00.000Z</Time>
            <Position>
              <LatitudeDegrees>36.81376590393483638763427734375</LatitudeDegrees>
              <LongitudeDegrees>-4.37749964185059070587158203125</LongitudeDegrees>
            </Position>
            <AltitudeMeters>833.5999755859375</AltitudeMeters>
            <DistanceMeters>NAN</DistanceMeters>
          </Trackpoint>
          <Trackpoint>
            <Time>2020-12-05T09:16:01.000Z</Time>
            <Position>
              <LatitudeDegrees>36.81376875378191471099853515625</LatitudeDegrees>
              <LongitudeDegrees>-4.37751338817179203033447265625</LongitudeDegrees>
            </Position>
            <AltitudeMeters>833.5999755859375</AltitudeMeters>
            <DistanceMeters>NAN</DistanceMeters>
          </Trackpoint>
          <Trackpoint>
            <Time>2020-12-05T09:16:02.000Z</Time>
            <Position>
              <LatitudeDegrees>36.813772022724151611328125</LatitudeDegrees>
              <LongitudeDegrees>-4.3775262124836444854736328125</LongitudeDegrees>
            </Position>
            <AltitudeMeters>833.4000244140625</AltitudeMeters>
            <DistanceMeters>NAN</DistanceMeters>
          </Trackpoint>
          <Trackpoint>
            <Time>2020-12-05T09:16:03.000Z</Time>
            <Position>
              <LatitudeDegrees>36.81377344764769077301025390625</LatitudeDegrees>
              <LongitudeDegrees>-4.37754121609032154083251953125</LongitudeDegrees>
            </Position>
            <AltitudeMeters>833.4000244140625</AltitudeMeters>
            <DistanceMeters>NAN</DistanceMeters>
          </Trackpoint>
          <Trackpoint>
            <Time>2020-12-05T09:16:04.000Z</Time>
            <Position>
              <LatitudeDegrees>36.8137731961905956268310546875</LatitudeDegrees>
              <LongitudeDegrees>-4.37755546532571315765380859375</LongitudeDegrees>
            </Position>
            <AltitudeMeters>833.4000244140625</AltitudeMeters>
            <DistanceMeters>NAN</DistanceMeters>
          </Trackpoint>
          <Trackpoint>
            <Time>2020-12-05T09:16:05.000Z</Time>
            <Position>
              <LatitudeDegrees>36.813776381313800811767578125</LatitudeDegrees>
              <LongitudeDegrees>-4.377568624913692474365234375</LongitudeDegrees>
            </Position>
            <AltitudeMeters>833.20001220703125</AltitudeMeters>
            <DistanceMeters>NAN</DistanceMeters>
          </Trackpoint>
          <Trackpoint>
            <Time>2020-12-05T09:16:06.000Z</Time>
            <Position>
              <LatitudeDegrees>36.81378233246505260467529296875</LatitudeDegrees>
              <LongitudeDegrees>-4.377580694854259490966796875</LongitudeDegrees>
            </Position>
            <AltitudeMeters>833</AltitudeMeters>
            <DistanceMeters>NAN</DistanceMeters>
          </Trackpoint>
          <Trackpoint>
            <Time>2020-12-05T09:16:07.000Z</Time>
            <Position>
              <LatitudeDegrees>36.81378635577857494354248046875</LatitudeDegrees>
              <LongitudeDegrees>-4.3775922618806362152099609375</LongitudeDegrees>
            </Position>
            <AltitudeMeters>832.79998779296875</AltitudeMeters>
            <DistanceMeters>NAN</DistanceMeters>
          </Trackpoint>
          <Trackpoint>
            <Time>2020-12-05T09:16:08.000Z</Time>
            <Position>
              <LatitudeDegrees>36.8137906305491924285888671875</LatitudeDegrees>
              <LongitudeDegrees>-4.377603828907012939453125</LongitudeDegrees>
            </Position>
            <AltitudeMeters>832.5999755859375</AltitudeMeters>
            <DistanceMeters>NAN</DistanceMeters>
          </Trackpoint>
          <Trackpoint>
            <Time>2020-12-05T09:16:09.000Z</Time>
            <Position>
              <LatitudeDegrees>36.81379591114819049835205078125</LatitudeDegrees>
              <LongitudeDegrees>-4.3776167370378971099853515625</LongitudeDegrees>
            </Position>
            <AltitudeMeters>832.4000244140625</AltitudeMeters>
            <DistanceMeters>NAN</DistanceMeters>
          </Trackpoint>
          <Trackpoint>
            <Time>2020-12-05T09:16:10.000Z</Time>
            <Position>
              <LatitudeDegrees>36.81380144320428371429443359375</LatitudeDegrees>
              <LongitudeDegrees>-4.37762788496911525726318359375</LongitudeDegrees>
            </Position>
            <AltitudeMeters>832.20001220703125</AltitudeMeters>
            <DistanceMeters>NAN</DistanceMeters>
          </Trackpoint>
          <Trackpoint>
            <Time>2020-12-05T09:16:11.000Z</Time>
            <Position>
              <LatitudeDegrees>36.81380487978458404541015625</LatitudeDegrees>
              <LongitudeDegrees>-4.37763802707195281982421875</LongitudeDegrees>
            </Position>
            <AltitudeMeters>831.79998779296875</AltitudeMeters>
            <DistanceMeters>NAN</DistanceMeters>
          </Trackpoint>
          <Trackpoint>
            <Time>2020-12-05T09:16:12.000Z</Time>
            <Position>
              <LatitudeDegrees>36.81380622088909149169921875</LatitudeDegrees>
              <LongitudeDegrees>-4.37765168957412242889404296875</LongitudeDegrees>
            </Position>
            <AltitudeMeters>831.5999755859375</AltitudeMeters>
            <DistanceMeters>NAN</DistanceMeters>
          </Trackpoint>
          <Trackpoint>
            <Time>2020-12-05T09:16:13.000Z</Time>
            <Position>
              <LatitudeDegrees>36.81380596943199634552001953125</LatitudeDegrees>
              <LongitudeDegrees>-4.37766526825726032257080078125</LongitudeDegrees>
            </Position>
            <AltitudeMeters>831.5999755859375</AltitudeMeters>
            <DistanceMeters>NAN</DistanceMeters>
          </Trackpoint>
          <Trackpoint>
            <Time>2020-12-05T09:16:14.000Z</Time>
            <Position>
              <LatitudeDegrees>36.81380496360361576080322265625</LatitudeDegrees>
              <LongitudeDegrees>-4.3776801042258739471435546875</LongitudeDegrees>
            </Position>
            <AltitudeMeters>831.5999755859375</AltitudeMeters>
            <DistanceMeters>NAN</DistanceMeters>
          </Trackpoint>
          <Trackpoint>
            <Time>2020-12-05T09:16:15.000Z</Time>
            <Position>
              <LatitudeDegrees>36.813809238374233245849609375</LatitudeDegrees>
              <LongitudeDegrees>-4.37769242562353610992431640625</LongitudeDegrees>
            </Position>
            <AltitudeMeters>831.79998779296875</AltitudeMeters>
            <DistanceMeters>NAN</DistanceMeters>
          </Trackpoint>
          <Trackpoint>
            <Time>2020-12-05T09:16:16.000Z</Time>
            <Position>
              <LatitudeDegrees>36.8138161115348339080810546875</LatitudeDegrees>
              <LongitudeDegrees>-4.3777029030025005340576171875</LongitudeDegrees>
            </Position>
            <AltitudeMeters>831.79998779296875</AltitudeMeters>
            <DistanceMeters>NAN</DistanceMeters>
          </Trackpoint>
          <Trackpoint>
            <Time>2020-12-05T09:16:17.000Z</Time>
            <Position>
              <LatitudeDegrees>36.8138234876096248626708984375</LatitudeDegrees>
              <LongitudeDegrees>-4.37770952470600605010986328125</LongitudeDegrees>
            </Position>
            <AltitudeMeters>831.79998779296875</AltitudeMeters>
            <DistanceMeters>NAN</DistanceMeters>
          </Trackpoint>
          <Trackpoint>
            <Time>2020-12-05T09:16:18.000Z</Time>
            <Position>
              <LatitudeDegrees>36.81383044458925724029541015625</LatitudeDegrees>
              <LongitudeDegrees>-4.3777169845998287200927734375</LongitudeDegrees>
            </Position>
            <AltitudeMeters>831.79998779296875</AltitudeMeters>
            <DistanceMeters>NAN</DistanceMeters>
          </Trackpoint>
          <Trackpoint>
            <Time>2020-12-05T09:16:19.000Z</Time>
            <Position>
              <LatitudeDegrees>36.81383430026471614837646484375</LatitudeDegrees>
              <LongitudeDegrees>-4.37772922217845916748046875</LongitudeDegrees>
            </Position>
            <AltitudeMeters>831.5999755859375</AltitudeMeters>
            <DistanceMeters>NAN</DistanceMeters>
          </Trackpoint>
          <Trackpoint>
            <Time>2020-12-05T09:16:20.000Z</Time>
            <Position>
              <LatitudeDegrees>36.81383597664535045623779296875</LatitudeDegrees>
              <LongitudeDegrees>-4.3777458183467388153076171875</LongitudeDegrees>
            </Position>
            <AltitudeMeters>831.20001220703125</AltitudeMeters>
            <DistanceMeters>NAN</DistanceMeters>
          </Trackpoint>
          <Trackpoint>
            <Time>2020-12-05T09:16:21.000Z</Time>
            <Position>
              <LatitudeDegrees>36.813837401568889617919921875</LatitudeDegrees>
              <LongitudeDegrees>-4.3777609057724475860595703125</LongitudeDegrees>
            </Position>
            <AltitudeMeters>830.79998779296875</AltitudeMeters>
            <DistanceMeters>NAN</DistanceMeters>
          </Trackpoint>
          <Trackpoint>
            <Time>2020-12-05T09:16:22.000Z</Time>
            <Position>
              <LatitudeDegrees>36.81384083814918994903564453125</LatitudeDegrees>
              <LongitudeDegrees>-4.37777624465525150299072265625</LongitudeDegrees>
            </Position>
            <AltitudeMeters>830.5999755859375</AltitudeMeters>
            <DistanceMeters>NAN</DistanceMeters>
          </Trackpoint>
          <Trackpoint>
            <Time>2020-12-05T09:16:23.000Z</Time>
            <Position>
              <LatitudeDegrees>36.81384955532848834991455078125</LatitudeDegrees>
              <LongitudeDegrees>-4.37778999097645282745361328125</LongitudeDegrees>
            </Position>
            <AltitudeMeters>830.5999755859375</AltitudeMeters>
            <DistanceMeters>NAN</DistanceMeters>
          </Trackpoint>
          <Trackpoint>
            <Time>2020-12-05T09:16:24.000Z</Time>
            <Position>
              <LatitudeDegrees>36.81385341100394725799560546875</LatitudeDegrees>
              <LongitudeDegrees>-4.37780071981251239776611328125</LongitudeDegrees>
            </Position>
            <AltitudeMeters>830.4000244140625</AltitudeMeters>
            <DistanceMeters>NAN</DistanceMeters>
          </Trackpoint>
          <Trackpoint>
            <Time>2020-12-05T09:16:25.000Z</Time>
            <Position>
              <LatitudeDegrees>36.813855506479740142822265625</LatitudeDegrees>
              <LongitudeDegrees>-4.3778132088482379913330078125</LongitudeDegrees>
            </Position>
            <AltitudeMeters>830.4000244140625</AltitudeMeters>
            <DistanceMeters>NAN</DistanceMeters>
          </Trackpoint>
          <Trackpoint>
            <Time>2020-12-05T09:16:26.000Z</Time>
            <Position>
              <LatitudeDegrees>36.8138570152223110198974609375</LatitudeDegrees>
              <LongitudeDegrees>-4.377823770046234130859375</LongitudeDegrees>
            </Position>
            <AltitudeMeters>830.4000244140625</AltitudeMeters>
            <DistanceMeters>NAN</DistanceMeters>
          </Trackpoint>
          <Trackpoint>
            <Time>2020-12-05T09:16:27.000Z</Time>
            <Position>
              <LatitudeDegrees>36.81385642848908901214599609375</LatitudeDegrees>
              <LongitudeDegrees>-4.37783709727227687835693359375</LongitudeDegrees>
            </Position>
            <AltitudeMeters>830.4000244140625</AltitudeMeters>
            <DistanceMeters>NAN</DistanceMeters>
          </Trackpoint>
          <Trackpoint>
            <Time>2020-12-05T09:16:28.000Z</Time>
            <Position>
              <LatitudeDegrees>36.8138560093939304351806640625</LatitudeDegrees>
              <LongitudeDegrees>-4.37785084359347820281982421875</LongitudeDegrees>
            </Position>
            <AltitudeMeters>830.79998779296875</AltitudeMeters>
            <DistanceMeters>NAN</DistanceMeters>
          </Trackpoint>
          <Trackpoint>
            <Time>2020-12-05T09:16:29.000Z</Time>
            <Position>
              <LatitudeDegrees>36.81385844014585018157958984375</LatitudeDegrees>
              <LongitudeDegrees>-4.37786375172436237335205078125</LongitudeDegrees>
            </Position>
            <AltitudeMeters>831.20001220703125</AltitudeMeters>
            <DistanceMeters>NAN</DistanceMeters>
          </Trackpoint>
          <Trackpoint>
            <Time>2020-12-05T09:16:30.000Z</Time>
            <Position>
              <LatitudeDegrees>36.81386162526905536651611328125</LatitudeDegrees>
              <LongitudeDegrees>-4.3778772465884685516357421875</LongitudeDegrees>
            </Position>
            <AltitudeMeters>831.4000244140625</AltitudeMeters>
            <DistanceMeters>NAN</DistanceMeters>
          </Trackpoint>
          <Trackpoint>
            <Time>2020-12-05T09:16:31.000Z</Time>
            <Position>
              <LatitudeDegrees>36.81386564858257770538330078125</LatitudeDegrees>
              <LongitudeDegrees>-4.37789074145257472991943359375</LongitudeDegrees>
            </Position>
            <AltitudeMeters>831.5999755859375</AltitudeMeters>
            <DistanceMeters>NAN</DistanceMeters>
          </Trackpoint>
          <Trackpoint>
            <Time>2020-12-05T09:16:32.000Z</Time>
            <Position>
              <LatitudeDegrees>36.813871599733829498291015625</LatitudeDegrees>
              <LongitudeDegrees>-4.37790046446025371551513671875</LongitudeDegrees>
            </Position>
            <AltitudeMeters>831.79998779296875</AltitudeMeters>
            <DistanceMeters>NAN</DistanceMeters>
          </Trackpoint>
          <Trackpoint>
            <Time>2020-12-05T09:16:33.000Z</Time>
            <Position>
              <LatitudeDegrees>36.8138779699802398681640625</LatitudeDegrees>
              <LongitudeDegrees>-4.3779127858579158782958984375</LongitudeDegrees>
            </Position>
            <AltitudeMeters>831.79998779296875</AltitudeMeters>
            <DistanceMeters>NAN</DistanceMeters>
          </Trackpoint>
          <Trackpoint>
            <Time>2020-12-05T09:16:34.000Z</Time>
            <Position>
              <LatitudeDegrees>36.8138848431408405303955078125</LatitudeDegrees>
              <LongitudeDegrees>-4.37792544253170490264892578125</LongitudeDegrees>
            </Position>
            <AltitudeMeters>831.79998779296875</AltitudeMeters>
            <DistanceMeters>NAN</DistanceMeters>
          </Trackpoint>
          <Trackpoint>
            <Time>2020-12-05T09:16:35.000Z</Time>
            <Position>
              <LatitudeDegrees>36.81388945318758487701416015625</LatitudeDegrees>
              <LongitudeDegrees>-4.3779349140822887420654296875</LongitudeDegrees>
            </Position>
            <AltitudeMeters>831.79998779296875</AltitudeMeters>
            <DistanceMeters>NAN</DistanceMeters>
          </Trackpoint>
          <Trackpoint>
            <Time>2020-12-05T09:16:36.000Z</Time>
            <Position>
              <LatitudeDegrees>36.81389473378658294677734375</LatitudeDegrees>
              <LongitudeDegrees>-4.3779458105564117431640625</LongitudeDegrees>
            </Position>
            <AltitudeMeters>831.4000244140625</AltitudeMeters>
            <DistanceMeters>NAN</DistanceMeters>
          </Trackpoint>
          <Trackpoint>
            <Time>2020-12-05T09:16:37.000Z</Time>
            <Position>
              <LatitudeDegrees>36.81389884091913700103759765625</LatitudeDegrees>
              <LongitudeDegrees>-4.37795528210699558258056640625</LongitudeDegrees>
            </Position>
            <AltitudeMeters>831.20001220703125</AltitudeMeters>
            <DistanceMeters>NAN</DistanceMeters>
          </Trackpoint>
          <Trackpoint>
            <Time>2020-12-05T09:16:38.000Z</Time>
            <Position>
              <LatitudeDegrees>36.81390420533716678619384765625</LatitudeDegrees>
              <LongitudeDegrees>-4.3779650889337062835693359375</LongitudeDegrees>
            </Position>
            <AltitudeMeters>831</AltitudeMeters>
            <DistanceMeters>NAN</DistanceMeters>
          </Trackpoint>
          <Trackpoint>
            <Time>2020-12-05T09:16:39.000Z</Time>
            <Position>
              <LatitudeDegrees>36.81390688754618167877197265625</LatitudeDegrees>
              <LongitudeDegrees>-4.3779753148555755615234375</LongitudeDegrees>
            </Position>
            <AltitudeMeters>831</AltitudeMeters>
            <DistanceMeters>NAN</DistanceMeters>
          </Trackpoint>
          <Trackpoint>
            <Time>2020-12-05T09:16:40.000Z</Time>
            <Position>
              <LatitudeDegrees>36.8139049597084522247314453125</LatitudeDegrees>
              <LongitudeDegrees>-4.37799450941383838653564453125</LongitudeDegrees>
            </Position>
            <AltitudeMeters>830.79998779296875</AltitudeMeters>
            <DistanceMeters>NAN</DistanceMeters>
          </Trackpoint>
          <Trackpoint>
            <Time>2020-12-05T09:16:41.000Z</Time>
            <Position>
              <LatitudeDegrees>36.81390973739326000213623046875</LatitudeDegrees>
              <LongitudeDegrees>-4.37800624407827854156494140625</LongitudeDegrees>
            </Position>
            <AltitudeMeters>830.5999755859375</AltitudeMeters>
            <DistanceMeters>NAN</DistanceMeters>
          </Trackpoint>
          <Trackpoint>
            <Time>2020-12-05T09:16:42.000Z</Time>
            <Position>
              <LatitudeDegrees>36.81391761638224124908447265625</LatitudeDegrees>
              <LongitudeDegrees>-4.37801663763821125030517578125</LongitudeDegrees>
            </Position>
            <AltitudeMeters>830.5999755859375</AltitudeMeters>
            <DistanceMeters>NAN</DistanceMeters>
          </Trackpoint>
          <Trackpoint>
            <Time>2020-12-05T09:16:43.000Z</Time>
            <Position>
              <LatitudeDegrees>36.81392247788608074188232421875</LatitudeDegrees>
              <LongitudeDegrees>-4.3780237622559070587158203125</LongitudeDegrees>
            </Position>
            <AltitudeMeters>830.5999755859375</AltitudeMeters>
            <DistanceMeters>NAN</DistanceMeters>
          </Trackpoint>
          <Trackpoint>
            <Time>2020-12-05T09:16:44.000Z</Time>
            <Position>
              <LatitudeDegrees>36.81392549537122249603271484375</LatitudeDegrees>
              <LongitudeDegrees>-4.3780316412448883056640625</LongitudeDegrees>
            </Position>
            <AltitudeMeters>830.5999755859375</AltitudeMeters>
            <DistanceMeters>NAN</DistanceMeters>
          </Trackpoint>
          <Trackpoint>
            <Time>2020-12-05T09:16:45.000Z</Time>
            <Position>
              <LatitudeDegrees>36.8139287643134593963623046875</LatitudeDegrees>
              <LongitudeDegrees>-4.37804178334772586822509765625</LongitudeDegrees>
            </Position>
            <AltitudeMeters>830.5999755859375</AltitudeMeters>
            <DistanceMeters>NAN</DistanceMeters>
          </Trackpoint>
          <Trackpoint>
            <Time>2020-12-05T09:16:46.000Z</Time>
            <Position>
              <LatitudeDegrees>36.81393471546471118927001953125</LatitudeDegrees>
              <LongitudeDegrees>-4.378055445849895477294921875</LongitudeDegrees>
            </Position>
            <AltitudeMeters>830.5999755859375</AltitudeMeters>
            <DistanceMeters>NAN</DistanceMeters>
          </Trackpoint>
          <Trackpoint>
            <Time>2020-12-05T09:16:47.000Z</Time>
            <Position>
              <LatitudeDegrees>36.81394125334918498992919921875</LatitudeDegrees>
              <LongitudeDegrees>-4.37807011418044567108154296875</LongitudeDegrees>
            </Position>
            <AltitudeMeters>830.4000244140625</AltitudeMeters>
            <DistanceMeters>NAN</DistanceMeters>
          </Trackpoint>
          <Trackpoint>
            <Time>2020-12-05T09:16:48.000Z</Time>
            <Position>
              <LatitudeDegrees>36.81394812650978565216064453125</LatitudeDegrees>
              <LongitudeDegrees>-4.37808352522552013397216796875</LongitudeDegrees>
            </Position>
            <AltitudeMeters>830.20001220703125</AltitudeMeters>
            <DistanceMeters>NAN</DistanceMeters>
          </Trackpoint>
          <Trackpoint>
            <Time>2020-12-05T09:16:49.000Z</Time>
            <Position>
              <LatitudeDegrees>36.81395483203232288360595703125</LatitudeDegrees>
              <LongitudeDegrees>-4.378097355365753173828125</LongitudeDegrees>
            </Position>
            <AltitudeMeters>830</AltitudeMeters>
            <DistanceMeters>NAN</DistanceMeters>
          </Trackpoint>
          <Trackpoint>
            <Time>2020-12-05T09:16:50.000Z</Time>
            <Position>
              <LatitudeDegrees>36.813958100974559783935546875</LatitudeDegrees>
              <LongitudeDegrees>-4.3781085871160030364990234375</LongitudeDegrees>
            </Position>
            <AltitudeMeters>830</AltitudeMeters>
            <DistanceMeters>NAN</DistanceMeters>
          </Trackpoint>
          <Trackpoint>
            <Time>2020-12-05T09:16:51.000Z</Time>
            <Position>
              <LatitudeDegrees>36.813962124288082122802734375</LatitudeDegrees>
              <LongitudeDegrees>-4.3781169690191745758056640625</LongitudeDegrees>
            </Position>
            <AltitudeMeters>829.79998779296875</AltitudeMeters>
            <DistanceMeters>NAN</DistanceMeters>
          </Trackpoint>
          <Trackpoint>
            <Time>2020-12-05T09:16:52.000Z</Time>
            <Position>
              <LatitudeDegrees>36.81396505795419216156005859375</LatitudeDegrees>
              <LongitudeDegrees>-4.378127865493297576904296875</LongitudeDegrees>
            </Position>
            <AltitudeMeters>830</AltitudeMeters>
            <DistanceMeters>NAN</DistanceMeters>
          </Trackpoint>
          <Trackpoint>
            <Time>2020-12-05T09:16:53.000Z</Time>
            <Position>
              <LatitudeDegrees>36.8139693327248096466064453125</LatitudeDegrees>
              <LongitudeDegrees>-4.37813834287226200103759765625</LongitudeDegrees>
            </Position>
            <AltitudeMeters>830</AltitudeMeters>
            <DistanceMeters>NAN</DistanceMeters>
          </Trackpoint>
          <Trackpoint>
            <Time>2020-12-05T09:16:54.000Z</Time>
            <Position>
              <LatitudeDegrees>36.8139777146279811859130859375</LatitudeDegrees>
              <LongitudeDegrees>-4.3781464733183383941650390625</LongitudeDegrees>
            </Position>
            <AltitudeMeters>830.20001220703125</AltitudeMeters>
            <DistanceMeters>NAN</DistanceMeters>
          </Trackpoint>
          <Trackpoint>
            <Time>2020-12-05T09:16:55.000Z</Time>
            <Position>
              <LatitudeDegrees>36.8139887787401676177978515625</LatitudeDegrees>
              <LongitudeDegrees>-4.378153346478939056396484375</LongitudeDegrees>
            </Position>
            <AltitudeMeters>830.4000244140625</AltitudeMeters>
            <DistanceMeters>NAN</DistanceMeters>
          </Trackpoint>
          <Trackpoint>
            <Time>2020-12-05T09:16:56.000Z</Time>
            <Position>
              <LatitudeDegrees>36.81399707682430744171142578125</LatitudeDegrees>
              <LongitudeDegrees>-4.3781582079827785491943359375</LongitudeDegrees>
            </Position>
            <AltitudeMeters>830.5999755859375</AltitudeMeters>
            <DistanceMeters>NAN</DistanceMeters>
          </Trackpoint>
          <Trackpoint>
            <Time>2020-12-05T09:16:57.000Z</Time>
            <Position>
              <LatitudeDegrees>36.81400059722363948822021484375</LatitudeDegrees>
              <LongitudeDegrees>-4.3781662546098232269287109375</LongitudeDegrees>
            </Position>
            <AltitudeMeters>830.5999755859375</AltitudeMeters>
            <DistanceMeters>NAN</DistanceMeters>
          </Trackpoint>
          <Trackpoint>
            <Time>2020-12-05T09:16:58.000Z</Time>
            <Position>
              <LatitudeDegrees>36.814002692699432373046875</LatitudeDegrees>
              <LongitudeDegrees>-4.3781743012368679046630859375</LongitudeDegrees>
            </Position>
            <AltitudeMeters>830.5999755859375</AltitudeMeters>
            <DistanceMeters>NAN</DistanceMeters>
          </Trackpoint>
          <Trackpoint>
            <Time>2020-12-05T09:16:59.000Z</Time>
            <Position>
              <LatitudeDegrees>36.8140085600316524505615234375</LatitudeDegrees>
              <LongitudeDegrees>-4.37818259932100772857666015625</LongitudeDegrees>
            </Position>
            <AltitudeMeters>830.5999755859375</AltitudeMeters>
            <DistanceMeters>NAN</DistanceMeters>
          </Trackpoint>
          <Trackpoint>
            <Time>2020-12-05T09:17:00.000Z</Time>
            <Position>
              <LatitudeDegrees>36.8140159361064434051513671875</LatitudeDegrees>
              <LongitudeDegrees>-4.37819366343319416046142578125</LongitudeDegrees>
            </Position>
            <AltitudeMeters>830.79998779296875</AltitudeMeters>
            <DistanceMeters>NAN</DistanceMeters>
          </Trackpoint>
          <Trackpoint>
            <Time>2020-12-05T09:17:01.000Z</Time>
            <Position>
              <LatitudeDegrees>36.81402071379125118255615234375</LatitudeDegrees>
              <LongitudeDegrees>-4.37820657156407833099365234375</LongitudeDegrees>
            </Position>
            <AltitudeMeters>830.79998779296875</AltitudeMeters>
            <DistanceMeters>NAN</DistanceMeters>
          </Trackpoint>
          <Trackpoint>
            <Time>2020-12-05T09:17:02.000Z</Time>
            <Position>
              <LatitudeDegrees>36.81402456946671009063720703125</LatitudeDegrees>
              <LongitudeDegrees>-4.37822098843753337860107421875</LongitudeDegrees>
            </Position>
            <AltitudeMeters>831</AltitudeMeters>
            <DistanceMeters>NAN</DistanceMeters>
          </Trackpoint>
          <Trackpoint>
            <Time>2020-12-05T09:17:03.000Z</Time>
            <Position>
              <LatitudeDegrees>36.8140276707708835601806640625</LatitudeDegrees>
              <LongitudeDegrees>-4.37823481857776641845703125</LongitudeDegrees>
            </Position>
            <AltitudeMeters>831</AltitudeMeters>
            <DistanceMeters>NAN</DistanceMeters>
          </Trackpoint>
          <Trackpoint>
            <Time>2020-12-05T09:17:04.000Z</Time>
            <Position>
              <LatitudeDegrees>36.81403093971312046051025390625</LatitudeDegrees>
              <LongitudeDegrees>-4.37825015746057033538818359375</LongitudeDegrees>
            </Position>
            <AltitudeMeters>831.20001220703125</AltitudeMeters>
            <DistanceMeters>NAN</DistanceMeters>
          </Trackpoint>
          <Trackpoint>
            <Time>2020-12-05T09:17:05.000Z</Time>
            <Position>
              <LatitudeDegrees>36.81403429247438907623291015625</LatitudeDegrees>
              <LongitudeDegrees>-4.3782623112201690673828125</LongitudeDegrees>
            </Position>
            <AltitudeMeters>831.20001220703125</AltitudeMeters>
            <DistanceMeters>NAN</DistanceMeters>
          </Trackpoint>
          <Trackpoint>
            <Time>2020-12-05T09:17:06.000Z</Time>
            <Position>
              <LatitudeDegrees>36.81403932161629199981689453125</LatitudeDegrees>
              <LongitudeDegrees>-4.3782703578472137451171875</LongitudeDegrees>
            </Position>
            <AltitudeMeters>831.20001220703125</AltitudeMeters>
            <DistanceMeters>NAN</DistanceMeters>
          </Trackpoint>
          <Trackpoint>
            <Time>2020-12-05T09:17:07.000Z</Time>
            <Position>
              <LatitudeDegrees>36.81404703296720981597900390625</LatitudeDegrees>
              <LongitudeDegrees>-4.37827681191265583038330078125</LongitudeDegrees>
            </Position>
            <AltitudeMeters>831</AltitudeMeters>
            <DistanceMeters>NAN</DistanceMeters>
          </Trackpoint>
          <Trackpoint>
            <Time>2020-12-05T09:17:08.000Z</Time>
            <Position>
              <LatitudeDegrees>36.81405642069876194000244140625</LatitudeDegrees>
              <LongitudeDegrees>-4.37828284688293933868408203125</LongitudeDegrees>
            </Position>
            <AltitudeMeters>830.79998779296875</AltitudeMeters>
            <DistanceMeters>NAN</DistanceMeters>
          </Trackpoint>
          <Trackpoint>
            <Time>2020-12-05T09:17:09.000Z</Time>
            <Position>
              <LatitudeDegrees>36.81406446732580661773681640625</LatitudeDegrees>
              <LongitudeDegrees>-4.37829273752868175506591796875</LongitudeDegrees>
            </Position>
            <AltitudeMeters>830.5999755859375</AltitudeMeters>
            <DistanceMeters>NAN</DistanceMeters>
          </Trackpoint>
          <Trackpoint>
            <Time>2020-12-05T09:17:10.000Z</Time>
            <Position>
              <LatitudeDegrees>36.814072430133819580078125</LatitudeDegrees>
              <LongitudeDegrees>-4.3783040530979633331298828125</LongitudeDegrees>
            </Position>
            <AltitudeMeters>830.20001220703125</AltitudeMeters>
            <DistanceMeters>NAN</DistanceMeters>
          </Trackpoint>
          <Trackpoint>
            <Time>2020-12-05T09:17:11.000Z</Time>
            <Position>
              <LatitudeDegrees>36.81407980620861053466796875</LatitudeDegrees>
              <LongitudeDegrees>-4.37831796705722808837890625</LongitudeDegrees>
            </Position>
            <AltitudeMeters>829.79998779296875</AltitudeMeters>
            <DistanceMeters>NAN</DistanceMeters>
          </Trackpoint>
          <Trackpoint>
            <Time>2020-12-05T09:17:12.000Z</Time>
            <Position>
              <LatitudeDegrees>36.8140870146453380584716796875</LatitudeDegrees>
              <LongitudeDegrees>-4.37833447940647602081298828125</LongitudeDegrees>
            </Position>
            <AltitudeMeters>829.4000244140625</AltitudeMeters>
            <DistanceMeters>NAN</DistanceMeters>
          </Trackpoint>
          <Trackpoint>
            <Time>2020-12-05T09:17:13.000Z</Time>
            <Position>
              <LatitudeDegrees>36.814095564186573028564453125</LatitudeDegrees>
              <LongitudeDegrees>-4.37834654934704303741455078125</LongitudeDegrees>
            </Position>
            <AltitudeMeters>829</AltitudeMeters>
            <DistanceMeters>NAN</DistanceMeters>
          </Trackpoint>
          <Trackpoint>
            <Time>2020-12-05T09:17:14.000Z</Time>
            <Position>
              <LatitudeDegrees>36.81410185061395168304443359375</LatitudeDegrees>
              <LongitudeDegrees>-4.37835392542183399200439453125</LongitudeDegrees>
            </Position>
            <AltitudeMeters>828.79998779296875</AltitudeMeters>
            <DistanceMeters>NAN</DistanceMeters>
          </Trackpoint>
          <Trackpoint>
            <Time>2020-12-05T09:17:15.000Z</Time>
            <Position>
              <LatitudeDegrees>36.81410889141261577606201171875</LatitudeDegrees>
              <LongitudeDegrees>-4.3783664144575595855712890625</LongitudeDegrees>
            </Position>
            <AltitudeMeters>828.5999755859375</AltitudeMeters>
            <DistanceMeters>NAN</DistanceMeters>
          </Trackpoint>
          <Trackpoint>
            <Time>2020-12-05T09:17:16.000Z</Time>
            <Position>
              <LatitudeDegrees>36.814115680754184722900390625</LatitudeDegrees>
              <LongitudeDegrees>-4.378384016454219818115234375</LongitudeDegrees>
            </Position>
            <AltitudeMeters>828.4000244140625</AltitudeMeters>
            <DistanceMeters>NAN</DistanceMeters>
          </Trackpoint>
          <Trackpoint>
            <Time>2020-12-05T09:17:17.000Z</Time>
            <Position>
              <LatitudeDegrees>36.8141225539147853851318359375</LatitudeDegrees>
              <LongitudeDegrees>-4.3784012831747531890869140625</LongitudeDegrees>
            </Position>
            <AltitudeMeters>828.4000244140625</AltitudeMeters>
            <DistanceMeters>NAN</DistanceMeters>
          </Trackpoint>
          <Trackpoint>
            <Time>2020-12-05T09:17:18.000Z</Time>
            <Position>
              <LatitudeDegrees>36.81413051672279834747314453125</LatitudeDegrees>
              <LongitudeDegrees>-4.37841477803885936737060546875</LongitudeDegrees>
            </Position>
            <AltitudeMeters>828.4000244140625</AltitudeMeters>
            <DistanceMeters>NAN</DistanceMeters>
          </Trackpoint>
          <Trackpoint>
            <Time>2020-12-05T09:17:19.000Z</Time>
            <Position>
              <LatitudeDegrees>36.81413873098790645599365234375</LatitudeDegrees>
              <LongitudeDegrees>-4.37842525541782379150390625</LongitudeDegrees>
            </Position>
            <AltitudeMeters>828</AltitudeMeters>
            <DistanceMeters>NAN</DistanceMeters>
          </Trackpoint>
          <Trackpoint>
            <Time>2020-12-05T09:17:20.000Z</Time>
            <Position>
              <LatitudeDegrees>36.8141473643481731414794921875</LatitudeDegrees>
              <LongitudeDegrees>-4.37843305058777332305908203125</LongitudeDegrees>
            </Position>
            <AltitudeMeters>827.79998779296875</AltitudeMeters>
            <DistanceMeters>NAN</DistanceMeters>
          </Trackpoint>
          <Trackpoint>
            <Time>2020-12-05T09:17:21.000Z</Time>
            <Position>
              <LatitudeDegrees>36.8141554109752178192138671875</LatitudeDegrees>
              <LongitudeDegrees>-4.3784418515861034393310546875</LongitudeDegrees>
            </Position>
            <AltitudeMeters>827.79998779296875</AltitudeMeters>
            <DistanceMeters>NAN</DistanceMeters>
          </Trackpoint>
          <Trackpoint>
            <Time>2020-12-05T09:17:22.000Z</Time>
            <Position>
              <LatitudeDegrees>36.8141644634306430816650390625</LatitudeDegrees>
              <LongitudeDegrees>-4.3784498982131481170654296875</LongitudeDegrees>
            </Position>
            <AltitudeMeters>827.79998779296875</AltitudeMeters>
            <DistanceMeters>NAN</DistanceMeters>
          </Trackpoint>
          <Trackpoint>
            <Time>2020-12-05T09:17:23.000Z</Time>
            <Position>
              <LatitudeDegrees>36.8141728453338146209716796875</LatitudeDegrees>
              <LongitudeDegrees>-4.3784576095640659332275390625</LongitudeDegrees>
            </Position>
            <AltitudeMeters>827.79998779296875</AltitudeMeters>
            <DistanceMeters>NAN</DistanceMeters>
          </Trackpoint>
          <Trackpoint>
            <Time>2020-12-05T09:17:24.000Z</Time>
            <Position>
              <LatitudeDegrees>36.81418298743665218353271484375</LatitudeDegrees>
              <LongitudeDegrees>-4.378465153276920318603515625</LongitudeDegrees>
            </Position>
            <AltitudeMeters>827.79998779296875</AltitudeMeters>
            <DistanceMeters>NAN</DistanceMeters>
          </Trackpoint>
          <Trackpoint>
            <Time>2020-12-05T09:17:25.000Z</Time>
            <Position>
              <LatitudeDegrees>36.814193464815616607666015625</LatitudeDegrees>
              <LongitudeDegrees>-4.3784715235233306884765625</LongitudeDegrees>
            </Position>
            <AltitudeMeters>827.5999755859375</AltitudeMeters>
            <DistanceMeters>NAN</DistanceMeters>
          </Trackpoint>
          <Trackpoint>
            <Time>2020-12-05T09:17:26.000Z</Time>
            <Position>
              <LatitudeDegrees>36.81420343928039073944091796875</LatitudeDegrees>
              <LongitudeDegrees>-4.37847529537975788116455078125</LongitudeDegrees>
            </Position>
            <AltitudeMeters>827.5999755859375</AltitudeMeters>
            <DistanceMeters>NAN</DistanceMeters>
          </Trackpoint>
          <Trackpoint>
            <Time>2020-12-05T09:17:27.000Z</Time>
            <Position>
              <LatitudeDegrees>36.81421265937387943267822265625</LatitudeDegrees>
              <LongitudeDegrees>-4.3784767203032970428466796875</LongitudeDegrees>
            </Position>
            <AltitudeMeters>827.4000244140625</AltitudeMeters>
            <DistanceMeters>NAN</DistanceMeters>
          </Trackpoint>
          <Trackpoint>
            <Time>2020-12-05T09:17:28.000Z</Time>
            <Position>
              <LatitudeDegrees>36.8142241425812244415283203125</LatitudeDegrees>
              <LongitudeDegrees>-4.3784787319600582122802734375</LongitudeDegrees>
            </Position>
            <AltitudeMeters>827.5999755859375</AltitudeMeters>
            <DistanceMeters>NAN</DistanceMeters>
          </Trackpoint>
          <Trackpoint>
            <Time>2020-12-05T09:17:29.000Z</Time>
            <Position>
              <LatitudeDegrees>36.81423596106469631195068359375</LatitudeDegrees>
              <LongitudeDegrees>-4.3784797377884387969970703125</LongitudeDegrees>
            </Position>
            <AltitudeMeters>827.79998779296875</AltitudeMeters>
            <DistanceMeters>NAN</DistanceMeters>
          </Trackpoint>
          <Trackpoint>
            <Time>2020-12-05T09:17:30.000Z</Time>
            <Position>
              <LatitudeDegrees>36.8142466060817241668701171875</LatitudeDegrees>
              <LongitudeDegrees>-4.378481246531009674072265625</LongitudeDegrees>
            </Position>
            <AltitudeMeters>828.20001220703125</AltitudeMeters>
            <DistanceMeters>NAN</DistanceMeters>
          </Trackpoint>
          <Trackpoint>
            <Time>2020-12-05T09:17:31.000Z</Time>
            <Position>
              <LatitudeDegrees>36.814259849488735198974609375</LatitudeDegrees>
              <LongitudeDegrees>-4.3784837611019611358642578125</LongitudeDegrees>
            </Position>
            <AltitudeMeters>828.79998779296875</AltitudeMeters>
            <DistanceMeters>NAN</DistanceMeters>
          </Trackpoint>
          <Trackpoint>
            <Time>2020-12-05T09:17:32.000Z</Time>
            <Position>
              <LatitudeDegrees>36.81427200324833393096923828125</LatitudeDegrees>
              <LongitudeDegrees>-4.37848426401615142822265625</LongitudeDegrees>
            </Position>
            <AltitudeMeters>829.4000244140625</AltitudeMeters>
            <DistanceMeters>NAN</DistanceMeters>
          </Trackpoint>
          <Trackpoint>
            <Time>2020-12-05T09:17:33.000Z</Time>
            <Position>
              <LatitudeDegrees>36.8142811395227909088134765625</LatitudeDegrees>
              <LongitudeDegrees>-4.37849088571965694427490234375</LongitudeDegrees>
            </Position>
            <AltitudeMeters>829.5999755859375</AltitudeMeters>
            <DistanceMeters>NAN</DistanceMeters>
          </Trackpoint>
          <Trackpoint>
            <Time>2020-12-05T09:17:34.000Z</Time>
            <Position>
              <LatitudeDegrees>36.81429111398756504058837890625</LatitudeDegrees>
              <LongitudeDegrees>-4.37849440611898899078369140625</LongitudeDegrees>
            </Position>
            <AltitudeMeters>829.79998779296875</AltitudeMeters>
            <DistanceMeters>NAN</DistanceMeters>
          </Trackpoint>
          <Trackpoint>
            <Time>2020-12-05T09:17:35.000Z</Time>
            <Position>
              <LatitudeDegrees>36.814303100109100341796875</LatitudeDegrees>
              <LongitudeDegrees>-4.3784985132515430450439453125</LongitudeDegrees>
            </Position>
            <AltitudeMeters>830.4000244140625</AltitudeMeters>
            <DistanceMeters>NAN</DistanceMeters>
          </Trackpoint>
          <Trackpoint>
            <Time>2020-12-05T09:17:36.000Z</Time>
            <Position>
              <LatitudeDegrees>36.81431449949741363525390625</LatitudeDegrees>
              <LongitudeDegrees>-4.37850303947925567626953125</LongitudeDegrees>
            </Position>
            <AltitudeMeters>831.20001220703125</AltitudeMeters>
            <DistanceMeters>NAN</DistanceMeters>
          </Trackpoint>
          <Trackpoint>
            <Time>2020-12-05T09:17:37.000Z</Time>
            <Position>
              <LatitudeDegrees>36.8143250606954097747802734375</LatitudeDegrees>
              <LongitudeDegrees>-4.37850446440279483795166015625</LongitudeDegrees>
            </Position>
            <AltitudeMeters>830.79998779296875</AltitudeMeters>
            <DistanceMeters>NAN</DistanceMeters>
          </Trackpoint>
          <Trackpoint>
            <Time>2020-12-05T09:17:38.000Z</Time>
            <Position>
              <LatitudeDegrees>36.81433729827404022216796875</LatitudeDegrees>
              <LongitudeDegrees>-4.3785038776695728302001953125</LongitudeDegrees>
            </Position>
            <AltitudeMeters>829.79998779296875</AltitudeMeters>
            <DistanceMeters>NAN</DistanceMeters>
          </Trackpoint>
          <Trackpoint>
            <Time>2020-12-05T09:17:39.000Z</Time>
            <Position>
              <LatitudeDegrees>36.8143478594720363616943359375</LatitudeDegrees>
              <LongitudeDegrees>-4.37850513495504856109619140625</LongitudeDegrees>
            </Position>
            <AltitudeMeters>829</AltitudeMeters>
            <DistanceMeters>NAN</DistanceMeters>
          </Trackpoint>
          <Trackpoint>
            <Time>2020-12-05T09:17:40.000Z</Time>
            <Position>
              <LatitudeDegrees>36.81435917504131793975830078125</LatitudeDegrees>
              <LongitudeDegrees>-4.378506727516651153564453125</LongitudeDegrees>
            </Position>
            <AltitudeMeters>829</AltitudeMeters>
            <DistanceMeters>NAN</DistanceMeters>
          </Trackpoint>
          <Trackpoint>
            <Time>2020-12-05T09:17:41.000Z</Time>
            <Position>
              <LatitudeDegrees>36.81437057442963123321533203125</LatitudeDegrees>
              <LongitudeDegrees>-4.37850840389728546142578125</LongitudeDegrees>
            </Position>
            <AltitudeMeters>829.5999755859375</AltitudeMeters>
            <DistanceMeters>NAN</DistanceMeters>
          </Trackpoint>
          <Trackpoint>
            <Time>2020-12-05T09:17:42.000Z</Time>
            <Position>
              <LatitudeDegrees>36.81438247673213481903076171875</LatitudeDegrees>
              <LongitudeDegrees>-4.37850949354469776153564453125</LongitudeDegrees>
            </Position>
            <AltitudeMeters>829.79998779296875</AltitudeMeters>
            <DistanceMeters>NAN</DistanceMeters>
          </Trackpoint>
          <Trackpoint>
            <Time>2020-12-05T09:17:43.000Z</Time>
            <Position>
              <LatitudeDegrees>36.814395971596240997314453125</LatitudeDegrees>
              <LongitudeDegrees>-4.3785092420876026153564453125</LongitudeDegrees>
            </Position>
            <AltitudeMeters>830</AltitudeMeters>
            <DistanceMeters>NAN</DistanceMeters>
          </Trackpoint>
          <Trackpoint>
            <Time>2020-12-05T09:17:44.000Z</Time>
            <Position>
              <LatitudeDegrees>36.8144102208316326141357421875</LatitudeDegrees>
              <LongitudeDegrees>-4.37850496731698513031005859375</LongitudeDegrees>
            </Position>
            <AltitudeMeters>830</AltitudeMeters>
            <DistanceMeters>NAN</DistanceMeters>
          </Trackpoint>
          <Trackpoint>
            <Time>2020-12-05T09:17:45.000Z</Time>
            <Position>
              <LatitudeDegrees>36.814425475895404815673828125</LatitudeDegrees>
              <LongitudeDegrees>-4.37849993817508220672607421875</LongitudeDegrees>
            </Position>
            <AltitudeMeters>830.20001220703125</AltitudeMeters>
            <DistanceMeters>NAN</DistanceMeters>
          </Trackpoint>
          <Trackpoint>
            <Time>2020-12-05T09:17:46.000Z</Time>
            <Position>
              <LatitudeDegrees>36.8144367076456546783447265625</LatitudeDegrees>
              <LongitudeDegrees>-4.37849658541381359100341796875</LongitudeDegrees>
            </Position>
            <AltitudeMeters>830.20001220703125</AltitudeMeters>
            <DistanceMeters>NAN</DistanceMeters>
          </Trackpoint>
          <Trackpoint>
            <Time>2020-12-05T09:17:47.000Z</Time>
            <Position>
              <LatitudeDegrees>36.81444919668138027191162109375</LatitudeDegrees>
              <LongitudeDegrees>-4.3784954957664012908935546875</LongitudeDegrees>
            </Position>
            <AltitudeMeters>829.79998779296875</AltitudeMeters>
            <DistanceMeters>NAN</DistanceMeters>
          </Trackpoint>
          <Trackpoint>
            <Time>2020-12-05T09:17:48.000Z</Time>
            <Position>
              <LatitudeDegrees>36.81446109898388385772705078125</LatitudeDegrees>
              <LongitudeDegrees>-4.3784954957664012908935546875</LongitudeDegrees>
            </Position>
            <AltitudeMeters>829.20001220703125</AltitudeMeters>
            <DistanceMeters>NAN</DistanceMeters>
          </Trackpoint>
          <Trackpoint>
            <Time>2020-12-05T09:17:49.000Z</Time>
            <Position>
              <LatitudeDegrees>36.81447065435349941253662109375</LatitudeDegrees>
              <LongitudeDegrees>-4.37849373556673526763916015625</LongitudeDegrees>
            </Position>
            <AltitudeMeters>828.79998779296875</AltitudeMeters>
            <DistanceMeters>NAN</DistanceMeters>
          </Trackpoint>
          <Trackpoint>
            <Time>2020-12-05T09:17:50.000Z</Time>
            <Position>
              <LatitudeDegrees>36.81447903625667095184326171875</LatitudeDegrees>
              <LongitudeDegrees>-4.37848853878676891326904296875</LongitudeDegrees>
            </Position>
            <AltitudeMeters>828.5999755859375</AltitudeMeters>
            <DistanceMeters>NAN</DistanceMeters>
          </Trackpoint>
          <Trackpoint>
            <Time>2020-12-05T09:17:51.000Z</Time>
            <Position>
              <LatitudeDegrees>36.8144893459975719451904296875</LatitudeDegrees>
              <LongitudeDegrees>-4.37847948633134365081787109375</LongitudeDegrees>
            </Position>
            <AltitudeMeters>828.4000244140625</AltitudeMeters>
            <DistanceMeters>NAN</DistanceMeters>
          </Trackpoint>
          <Trackpoint>
            <Time>2020-12-05T09:17:52.000Z</Time>
            <Position>
              <LatitudeDegrees>36.81450133211910724639892578125</LatitudeDegrees>
              <LongitudeDegrees>-4.37847311608493328094482421875</LongitudeDegrees>
            </Position>
            <AltitudeMeters>828.4000244140625</AltitudeMeters>
            <DistanceMeters>NAN</DistanceMeters>
          </Trackpoint>
          <Trackpoint>
            <Time>2020-12-05T09:17:53.000Z</Time>
            <Position>
              <LatitudeDegrees>36.81451340205967426300048828125</LatitudeDegrees>
              <LongitudeDegrees>-4.37846406362950801849365234375</LongitudeDegrees>
            </Position>
            <AltitudeMeters>828.5999755859375</AltitudeMeters>
            <DistanceMeters>NAN</DistanceMeters>
          </Trackpoint>
          <Trackpoint>
            <Time>2020-12-05T09:17:54.000Z</Time>
            <Position>
              <LatitudeDegrees>36.8145232088863849639892578125</LatitudeDegrees>
              <LongitudeDegrees>-4.37845367006957530975341796875</LongitudeDegrees>
            </Position>
            <AltitudeMeters>829</AltitudeMeters>
            <DistanceMeters>NAN</DistanceMeters>
          </Trackpoint>
          <Trackpoint>
            <Time>2020-12-05T09:17:55.000Z</Time>
            <Position>
              <LatitudeDegrees>36.8145310878753662109375</LatitudeDegrees>
              <LongitudeDegrees>-4.37844377942383289337158203125</LongitudeDegrees>
            </Position>
            <AltitudeMeters>829.5999755859375</AltitudeMeters>
            <DistanceMeters>NAN</DistanceMeters>
          </Trackpoint>
          <Trackpoint>
            <Time>2020-12-05T09:17:56.000Z</Time>
            <Position>
              <LatitudeDegrees>36.81454173289239406585693359375</LatitudeDegrees>
              <LongitudeDegrees>-4.37843573279678821563720703125</LongitudeDegrees>
            </Position>
            <AltitudeMeters>830.20001220703125</AltitudeMeters>
            <DistanceMeters>NAN</DistanceMeters>
          </Trackpoint>
          <Trackpoint>
            <Time>2020-12-05T09:17:57.000Z</Time>
            <Position>
              <LatitudeDegrees>36.8145527131855487823486328125</LatitudeDegrees>
              <LongitudeDegrees>-4.37842533923685550689697265625</LongitudeDegrees>
            </Position>
            <AltitudeMeters>830.4000244140625</AltitudeMeters>
            <DistanceMeters>NAN</DistanceMeters>
          </Trackpoint>
          <Trackpoint>
            <Time>2020-12-05T09:17:58.000Z</Time>
            <Position>
              <LatitudeDegrees>36.81456335820257663726806640625</LatitudeDegrees>
              <LongitudeDegrees>-4.37841293402016162872314453125</LongitudeDegrees>
            </Position>
            <AltitudeMeters>830.4000244140625</AltitudeMeters>
            <DistanceMeters>NAN</DistanceMeters>
          </Trackpoint>
          <Trackpoint>
            <Time>2020-12-05T09:17:59.000Z</Time>
            <Position>
              <LatitudeDegrees>36.81457458995282649993896484375</LatitudeDegrees>
              <LongitudeDegrees>-4.3784016184508800506591796875</LongitudeDegrees>
            </Position>
            <AltitudeMeters>830.4000244140625</AltitudeMeters>
            <DistanceMeters>NAN</DistanceMeters>
          </Trackpoint>
          <Trackpoint>
            <Time>2020-12-05T09:18:00.000Z</Time>
            <Position>
              <LatitudeDegrees>36.81458397768437862396240234375</LatitudeDegrees>
              <LongitudeDegrees>-4.37839365564286708831787109375</LongitudeDegrees>
            </Position>
            <AltitudeMeters>829.79998779296875</AltitudeMeters>
            <DistanceMeters>NAN</DistanceMeters>
          </Trackpoint>
          <Trackpoint>
            <Time>2020-12-05T09:18:01.000Z</Time>
            <Position>
              <LatitudeDegrees>36.81459286250174045562744140625</LatitudeDegrees>
              <LongitudeDegrees>-4.37838594429194927215576171875</LongitudeDegrees>
            </Position>
            <AltitudeMeters>829.20001220703125</AltitudeMeters>
            <DistanceMeters>NAN</DistanceMeters>
          </Trackpoint>
          <Trackpoint>
            <Time>2020-12-05T09:18:02.000Z</Time>
            <Position>
              <LatitudeDegrees>36.81460275314748287200927734375</LatitudeDegrees>
              <LongitudeDegrees>-4.37837873585522174835205078125</LongitudeDegrees>
            </Position>
            <AltitudeMeters>828.79998779296875</AltitudeMeters>
            <DistanceMeters>NAN</DistanceMeters>
          </Trackpoint>
          <Trackpoint>
            <Time>2020-12-05T09:18:03.000Z</Time>
            <Position>
              <LatitudeDegrees>36.81461297906935214996337890625</LatitudeDegrees>
              <LongitudeDegrees>-4.378370940685272216796875</LongitudeDegrees>
            </Position>
            <AltitudeMeters>828.4000244140625</AltitudeMeters>
            <DistanceMeters>NAN</DistanceMeters>
          </Trackpoint>
          <Trackpoint>
            <Time>2020-12-05T09:18:04.000Z</Time>
            <Position>
              <LatitudeDegrees>36.81462295353412628173828125</LatitudeDegrees>
              <LongitudeDegrees>-4.37836063094437122344970703125</LongitudeDegrees>
            </Position>
            <AltitudeMeters>828.4000244140625</AltitudeMeters>
            <DistanceMeters>NAN</DistanceMeters>
          </Trackpoint>
          <Trackpoint>
            <Time>2020-12-05T09:18:05.000Z</Time>
            <Position>
              <LatitudeDegrees>36.81463577784597873687744140625</LatitudeDegrees>
              <LongitudeDegrees>-4.3783496506512165069580078125</LongitudeDegrees>
            </Position>
            <AltitudeMeters>828.20001220703125</AltitudeMeters>
            <DistanceMeters>NAN</DistanceMeters>
          </Trackpoint>
          <Trackpoint>
            <Time>2020-12-05T09:18:06.000Z</Time>
            <Position>
              <LatitudeDegrees>36.8146479316055774688720703125</LatitudeDegrees>
              <LongitudeDegrees>-4.3783392570912837982177734375</LongitudeDegrees>
            </Position>
            <AltitudeMeters>828.4000244140625</AltitudeMeters>
            <DistanceMeters>NAN</DistanceMeters>
          </Trackpoint>
          <Trackpoint>
            <Time>2020-12-05T09:18:07.000Z</Time>
            <Position>
              <LatitudeDegrees>36.81465782225131988525390625</LatitudeDegrees>
              <LongitudeDegrees>-4.3783288635313510894775390625</LongitudeDegrees>
            </Position>
            <AltitudeMeters>828.5999755859375</AltitudeMeters>
            <DistanceMeters>NAN</DistanceMeters>
          </Trackpoint>
          <Trackpoint>
            <Time>2020-12-05T09:18:08.000Z</Time>
            <Position>
              <LatitudeDegrees>36.81466461159288883209228515625</LatitudeDegrees>
              <LongitudeDegrees>-4.37831821851432323455810546875</LongitudeDegrees>
            </Position>
            <AltitudeMeters>828.5999755859375</AltitudeMeters>
            <DistanceMeters>NAN</DistanceMeters>
          </Trackpoint>
          <Trackpoint>
            <Time>2020-12-05T09:18:09.000Z</Time>
            <Position>
              <LatitudeDegrees>36.81467182002961635589599609375</LatitudeDegrees>
              <LongitudeDegrees>-4.37830849550664424896240234375</LongitudeDegrees>
            </Position>
            <AltitudeMeters>828.79998779296875</AltitudeMeters>
            <DistanceMeters>NAN</DistanceMeters>
          </Trackpoint>
          <Trackpoint>
            <Time>2020-12-05T09:18:10.000Z</Time>
            <Position>
              <LatitudeDegrees>36.81468171067535877227783203125</LatitudeDegrees>
              <LongitudeDegrees>-4.3783007003366947174072265625</LongitudeDegrees>
            </Position>
            <AltitudeMeters>829</AltitudeMeters>
            <DistanceMeters>NAN</DistanceMeters>
          </Trackpoint>
          <Trackpoint>
            <Time>2020-12-05T09:18:11.000Z</Time>
            <Position>
              <LatitudeDegrees>36.8146911822259426116943359375</LatitudeDegrees>
              <LongitudeDegrees>-4.37829508446156978607177734375</LongitudeDegrees>
            </Position>
            <AltitudeMeters>829.20001220703125</AltitudeMeters>
            <DistanceMeters>NAN</DistanceMeters>
          </Trackpoint>
          <Trackpoint>
            <Time>2020-12-05T09:18:12.000Z</Time>
            <Position>
              <LatitudeDegrees>36.81469830684363842010498046875</LatitudeDegrees>
              <LongitudeDegrees>-4.3782886303961277008056640625</LongitudeDegrees>
            </Position>
            <AltitudeMeters>829.4000244140625</AltitudeMeters>
            <DistanceMeters>NAN</DistanceMeters>
          </Trackpoint>
          <Trackpoint>
            <Time>2020-12-05T09:18:13.000Z</Time>
            <Position>
              <LatitudeDegrees>36.8147052638232707977294921875</LatitudeDegrees>
              <LongitudeDegrees>-4.37828267924487590789794921875</LongitudeDegrees>
            </Position>
            <AltitudeMeters>829.4000244140625</AltitudeMeters>
            <DistanceMeters>NAN</DistanceMeters>
          </Trackpoint>
          <Trackpoint>
            <Time>2020-12-05T09:18:14.000Z</Time>
            <Position>
              <LatitudeDegrees>36.814713813364505767822265625</LatitudeDegrees>
              <LongitudeDegrees>-4.37827614136040210723876953125</LongitudeDegrees>
            </Position>
            <AltitudeMeters>829.4000244140625</AltitudeMeters>
            <DistanceMeters>NAN</DistanceMeters>
          </Trackpoint>
          <Trackpoint>
            <Time>2020-12-05T09:18:15.000Z</Time>
            <Position>
              <LatitudeDegrees>36.8147257156670093536376953125</LatitudeDegrees>
              <LongitudeDegrees>-4.378270022571086883544921875</LongitudeDegrees>
            </Position>
            <AltitudeMeters>829.4000244140625</AltitudeMeters>
            <DistanceMeters>NAN</DistanceMeters>
          </Trackpoint>
          <Trackpoint>
            <Time>2020-12-05T09:18:16.000Z</Time>
            <Position>
              <LatitudeDegrees>36.81473694741725921630859375</LatitudeDegrees>
              <LongitudeDegrees>-4.378265328705310821533203125</LongitudeDegrees>
            </Position>
            <AltitudeMeters>829.4000244140625</AltitudeMeters>
            <DistanceMeters>NAN</DistanceMeters>
          </Trackpoint>
          <Trackpoint>
            <Time>2020-12-05T09:18:17.000Z</Time>
            <Position>
              <LatitudeDegrees>36.814748346805572509765625</LatitudeDegrees>
              <LongitudeDegrees>-4.37826097011566162109375</LongitudeDegrees>
            </Position>
            <AltitudeMeters>829</AltitudeMeters>
            <DistanceMeters>NAN</DistanceMeters>
          </Trackpoint>
          <Trackpoint>
            <Time>2020-12-05T09:18:18.000Z</Time>
            <Position>
              <LatitudeDegrees>36.8147565610706806182861328125</LatitudeDegrees>
              <LongitudeDegrees>-4.37825619243085384368896484375</LongitudeDegrees>
            </Position>
            <AltitudeMeters>828.79998779296875</AltitudeMeters>
            <DistanceMeters>NAN</DistanceMeters>
          </Trackpoint>
          <Trackpoint>
            <Time>2020-12-05T09:18:19.000Z</Time>
            <Position>
              <LatitudeDegrees>36.81476502679288387298583984375</LatitudeDegrees>
              <LongitudeDegrees>-4.37825116328895092010498046875</LongitudeDegrees>
            </Position>
            <AltitudeMeters>828.79998779296875</AltitudeMeters>
            <DistanceMeters>NAN</DistanceMeters>
          </Trackpoint>
          <Trackpoint>
            <Time>2020-12-05T09:18:20.000Z</Time>
            <Position>
              <LatitudeDegrees>36.8147716484963893890380859375</LatitudeDegrees>
              <LongitudeDegrees>-4.3782467208802700042724609375</LongitudeDegrees>
            </Position>
            <AltitudeMeters>828.79998779296875</AltitudeMeters>
            <DistanceMeters>NAN</DistanceMeters>
          </Trackpoint>
          <Trackpoint>
            <Time>2020-12-05T09:18:21.000Z</Time>
            <Position>
              <LatitudeDegrees>36.81478120386600494384765625</LatitudeDegrees>
              <LongitudeDegrees>-4.37823884189128875732421875</LongitudeDegrees>
            </Position>
            <AltitudeMeters>829</AltitudeMeters>
            <DistanceMeters>NAN</DistanceMeters>
          </Trackpoint>
          <Trackpoint>
            <Time>2020-12-05T09:18:22.000Z</Time>
            <Position>
              <LatitudeDegrees>36.8147910945117473602294921875</LatitudeDegrees>
              <LongitudeDegrees>-4.3782333098351955413818359375</LongitudeDegrees>
            </Position>
            <AltitudeMeters>829</AltitudeMeters>
            <DistanceMeters>NAN</DistanceMeters>
          </Trackpoint>
          <Trackpoint>
            <Time>2020-12-05T09:18:23.000Z</Time>
            <Position>
              <LatitudeDegrees>36.81480157189071178436279296875</LatitudeDegrees>
              <LongitudeDegrees>-4.3782279454171657562255859375</LongitudeDegrees>
            </Position>
            <AltitudeMeters>829.20001220703125</AltitudeMeters>
            <DistanceMeters>NAN</DistanceMeters>
          </Trackpoint>
          <Trackpoint>
            <Time>2020-12-05T09:18:24.000Z</Time>
            <Position>
              <LatitudeDegrees>36.81481481529772281646728515625</LatitudeDegrees>
              <LongitudeDegrees>-4.37822132371366024017333984375</LongitudeDegrees>
            </Position>
            <AltitudeMeters>829.4000244140625</AltitudeMeters>
            <DistanceMeters>NAN</DistanceMeters>
          </Trackpoint>
          <Trackpoint>
            <Time>2020-12-05T09:18:25.000Z</Time>
            <Position>
              <LatitudeDegrees>36.814829818904399871826171875</LatitudeDegrees>
              <LongitudeDegrees>-4.3782155402004718780517578125</LongitudeDegrees>
            </Position>
            <AltitudeMeters>829.5999755859375</AltitudeMeters>
            <DistanceMeters>NAN</DistanceMeters>
          </Trackpoint>
          <Trackpoint>
            <Time>2020-12-05T09:18:26.000Z</Time>
            <Position>
              <LatitudeDegrees>36.81484264321625232696533203125</LatitudeDegrees>
              <LongitudeDegrees>-4.378213025629520416259765625</LongitudeDegrees>
            </Position>
            <AltitudeMeters>829.79998779296875</AltitudeMeters>
            <DistanceMeters>NAN</DistanceMeters>
          </Trackpoint>
          <Trackpoint>
            <Time>2020-12-05T09:18:27.000Z</Time>
            <Position>
              <LatitudeDegrees>36.81485555134713649749755859375</LatitudeDegrees>
              <LongitudeDegrees>-4.378212355077266693115234375</LongitudeDegrees>
            </Position>
            <AltitudeMeters>830.20001220703125</AltitudeMeters>
            <DistanceMeters>NAN</DistanceMeters>
          </Trackpoint>
          <Trackpoint>
            <Time>2020-12-05T09:18:28.000Z</Time>
            <Position>
              <LatitudeDegrees>36.81486711837351322174072265625</LatitudeDegrees>
              <LongitudeDegrees>-4.378215037286281585693359375</LongitudeDegrees>
            </Position>
            <AltitudeMeters>830.5999755859375</AltitudeMeters>
            <DistanceMeters>NAN</DistanceMeters>
          </Trackpoint>
          <Trackpoint>
            <Time>2020-12-05T09:18:29.000Z</Time>
            <Position>
              <LatitudeDegrees>36.8148779310286045074462890625</LatitudeDegrees>
              <LongitudeDegrees>-4.37821679748594760894775390625</LongitudeDegrees>
            </Position>
            <AltitudeMeters>830.79998779296875</AltitudeMeters>
            <DistanceMeters>NAN</DistanceMeters>
          </Trackpoint>
          <Trackpoint>
            <Time>2020-12-05T09:18:30.000Z</Time>
            <Position>
              <LatitudeDegrees>36.8148869834840297698974609375</LatitudeDegrees>
              <LongitudeDegrees>-4.3782209046185016632080078125</LongitudeDegrees>
            </Position>
            <AltitudeMeters>831</AltitudeMeters>
            <DistanceMeters>NAN</DistanceMeters>
          </Trackpoint>
          <Trackpoint>
            <Time>2020-12-05T09:18:31.000Z</Time>
            <Position>
              <LatitudeDegrees>36.8148957006633281707763671875</LatitudeDegrees>
              <LongitudeDegrees>-4.37822702340781688690185546875</LongitudeDegrees>
            </Position>
            <AltitudeMeters>831.20001220703125</AltitudeMeters>
            <DistanceMeters>NAN</DistanceMeters>
          </Trackpoint>
          <Trackpoint>
            <Time>2020-12-05T09:18:32.000Z</Time>
            <Position>
              <LatitudeDegrees>36.8149020709097385406494140625</LatitudeDegrees>
              <LongitudeDegrees>-4.3782383389770984649658203125</LongitudeDegrees>
            </Position>
            <AltitudeMeters>831.20001220703125</AltitudeMeters>
            <DistanceMeters>NAN</DistanceMeters>
          </Trackpoint>
          <Trackpoint>
            <Time>2020-12-05T09:18:33.000Z</Time>
            <Position>
              <LatitudeDegrees>36.8149087764322757720947265625</LatitudeDegrees>
              <LongitudeDegrees>-4.37824747525155544281005859375</LongitudeDegrees>
            </Position>
            <AltitudeMeters>831.20001220703125</AltitudeMeters>
            <DistanceMeters>NAN</DistanceMeters>
          </Trackpoint>
          <Trackpoint>
            <Time>2020-12-05T09:18:34.000Z</Time>
            <Position>
              <LatitudeDegrees>36.81491405703127384185791015625</LatitudeDegrees>
              <LongitudeDegrees>-4.3782540969550609588623046875</LongitudeDegrees>
            </Position>
            <AltitudeMeters>831.20001220703125</AltitudeMeters>
            <DistanceMeters>NAN</DistanceMeters>
          </Trackpoint>
          <Trackpoint>
            <Time>2020-12-05T09:18:35.000Z</Time>
            <Position>
              <LatitudeDegrees>36.81491925381124019622802734375</LatitudeDegrees>
              <LongitudeDegrees>-4.3782591260969638824462890625</LongitudeDegrees>
            </Position>
            <AltitudeMeters>831</AltitudeMeters>
            <DistanceMeters>NAN</DistanceMeters>
          </Trackpoint>
          <Trackpoint>
            <Time>2020-12-05T09:18:36.000Z</Time>
            <Position>
              <LatitudeDegrees>36.81492445059120655059814453125</LatitudeDegrees>
              <LongitudeDegrees>-4.37826239503920078277587890625</LongitudeDegrees>
            </Position>
            <AltitudeMeters>830.5999755859375</AltitudeMeters>
            <DistanceMeters>NAN</DistanceMeters>
          </Trackpoint>
          <Trackpoint>
            <Time>2020-12-05T09:18:37.000Z</Time>
            <Position>
              <LatitudeDegrees>36.814927719533443450927734375</LatitudeDegrees>
              <LongitudeDegrees>-4.3782665021717548370361328125</LongitudeDegrees>
            </Position>
            <AltitudeMeters>830.5999755859375</AltitudeMeters>
            <DistanceMeters>NAN</DistanceMeters>
          </Trackpoint>
          <Trackpoint>
            <Time>2020-12-05T09:18:38.000Z</Time>
            <Position>
              <LatitudeDegrees>36.81493274867534637451171875</LatitudeDegrees>
              <LongitudeDegrees>-4.37827907502651214599609375</LongitudeDegrees>
            </Position>
            <AltitudeMeters>830.4000244140625</AltitudeMeters>
            <DistanceMeters>NAN</DistanceMeters>
          </Trackpoint>
          <Trackpoint>
            <Time>2020-12-05T09:18:39.000Z</Time>
            <Position>
              <LatitudeDegrees>36.81494071148335933685302734375</LatitudeDegrees>
              <LongitudeDegrees>-4.3782923184335231781005859375</LongitudeDegrees>
            </Position>
            <AltitudeMeters>830.4000244140625</AltitudeMeters>
            <DistanceMeters>NAN</DistanceMeters>
          </Trackpoint>
          <Trackpoint>
            <Time>2020-12-05T09:18:40.000Z</Time>
            <Position>
              <LatitudeDegrees>36.81495093740522861480712890625</LatitudeDegrees>
              <LongitudeDegrees>-4.37830614857375621795654296875</LongitudeDegrees>
            </Position>
            <AltitudeMeters>830.4000244140625</AltitudeMeters>
            <DistanceMeters>NAN</DistanceMeters>
          </Trackpoint>
          <Trackpoint>
            <Time>2020-12-05T09:18:41.000Z</Time>
            <Position>
              <LatitudeDegrees>36.8149607442319393157958984375</LatitudeDegrees>
              <LongitudeDegrees>-4.3783201463520526885986328125</LongitudeDegrees>
            </Position>
            <AltitudeMeters>830.20001220703125</AltitudeMeters>
            <DistanceMeters>NAN</DistanceMeters>
          </Trackpoint>
          <Trackpoint>
            <Time>2020-12-05T09:18:42.000Z</Time>
            <Position>
              <LatitudeDegrees>36.8149697966873645782470703125</LatitudeDegrees>
              <LongitudeDegrees>-4.378331042826175689697265625</LongitudeDegrees>
            </Position>
            <AltitudeMeters>830.20001220703125</AltitudeMeters>
            <DistanceMeters>NAN</DistanceMeters>
          </Trackpoint>
          <Trackpoint>
            <Time>2020-12-05T09:18:43.000Z</Time>
            <Position>
              <LatitudeDegrees>36.8149765022099018096923828125</LatitudeDegrees>
              <LongitudeDegrees>-4.3783382512629032135009765625</LongitudeDegrees>
            </Position>
            <AltitudeMeters>830.20001220703125</AltitudeMeters>
            <DistanceMeters>NAN</DistanceMeters>
          </Trackpoint>
          <Trackpoint>
            <Time>2020-12-05T09:18:44.000Z</Time>
            <Position>
              <LatitudeDegrees>36.81498505175113677978515625</LatitudeDegrees>
              <LongitudeDegrees>-4.3783449567854404449462890625</LongitudeDegrees>
            </Position>
            <AltitudeMeters>829.79998779296875</AltitudeMeters>
            <DistanceMeters>NAN</DistanceMeters>
          </Trackpoint>
          <Trackpoint>
            <Time>2020-12-05T09:18:45.000Z</Time>
            <Position>
              <LatitudeDegrees>36.8149919249117374420166015625</LatitudeDegrees>
              <LongitudeDegrees>-4.37835685908794403076171875</LongitudeDegrees>
            </Position>
            <AltitudeMeters>829.20001220703125</AltitudeMeters>
            <DistanceMeters>NAN</DistanceMeters>
          </Trackpoint>
          <Trackpoint>
            <Time>2020-12-05T09:18:46.000Z</Time>
            <Position>
              <LatitudeDegrees>36.81500022299587726593017578125</LatitudeDegrees>
              <LongitudeDegrees>-4.378367252647876739501953125</LongitudeDegrees>
            </Position>
            <AltitudeMeters>828.5999755859375</AltitudeMeters>
            <DistanceMeters>NAN</DistanceMeters>
          </Trackpoint>
          <Trackpoint>
            <Time>2020-12-05T09:18:47.000Z</Time>
            <Position>
              <LatitudeDegrees>36.815010197460651397705078125</LatitudeDegrees>
              <LongitudeDegrees>-4.37837773002684116363525390625</LongitudeDegrees>
            </Position>
            <AltitudeMeters>828</AltitudeMeters>
            <DistanceMeters>NAN</DistanceMeters>
          </Trackpoint>
          <Trackpoint>
            <Time>2020-12-05T09:18:48.000Z</Time>
            <Position>
              <LatitudeDegrees>36.8150190822780132293701171875</LatitudeDegrees>
              <LongitudeDegrees>-4.378384687006473541259765625</LongitudeDegrees>
            </Position>
            <AltitudeMeters>827.5999755859375</AltitudeMeters>
            <DistanceMeters>NAN</DistanceMeters>
          </Trackpoint>
          <Trackpoint>
            <Time>2020-12-05T09:18:49.000Z</Time>
            <Position>
              <LatitudeDegrees>36.81502721272408962249755859375</LatitudeDegrees>
              <LongitudeDegrees>-4.378392398357391357421875</LongitudeDegrees>
            </Position>
            <AltitudeMeters>827.4000244140625</AltitudeMeters>
            <DistanceMeters>NAN</DistanceMeters>
          </Trackpoint>
          <Trackpoint>
            <Time>2020-12-05T09:18:50.000Z</Time>
            <Position>
              <LatitudeDegrees>36.81503777392208576202392578125</LatitudeDegrees>
              <LongitudeDegrees>-4.37840086407959461212158203125</LongitudeDegrees>
            </Position>
            <AltitudeMeters>827</AltitudeMeters>
            <DistanceMeters>NAN</DistanceMeters>
          </Trackpoint>
          <Trackpoint>
            <Time>2020-12-05T09:18:51.000Z</Time>
            <Position>
              <LatitudeDegrees>36.8150485865771770477294921875</LatitudeDegrees>
              <LongitudeDegrees>-4.37840916216373443603515625</LongitudeDegrees>
            </Position>
            <AltitudeMeters>826.5999755859375</AltitudeMeters>
            <DistanceMeters>NAN</DistanceMeters>
          </Trackpoint>
          <Trackpoint>
            <Time>2020-12-05T09:18:52.000Z</Time>
            <Position>
              <LatitudeDegrees>36.8150609917938709259033203125</LatitudeDegrees>
              <LongitudeDegrees>-4.37841628678143024444580078125</LongitudeDegrees>
            </Position>
            <AltitudeMeters>826.20001220703125</AltitudeMeters>
            <DistanceMeters>NAN</DistanceMeters>
          </Trackpoint>
          <Trackpoint>
            <Time>2020-12-05T09:18:53.000Z</Time>
            <Position>
              <LatitudeDegrees>36.81506979279220104217529296875</LatitudeDegrees>
              <LongitudeDegrees>-4.37842383049428462982177734375</LongitudeDegrees>
            </Position>
            <AltitudeMeters>826</AltitudeMeters>
            <DistanceMeters>NAN</DistanceMeters>
          </Trackpoint>
          <Trackpoint>
            <Time>2020-12-05T09:18:54.000Z</Time>
            <Position>
              <LatitudeDegrees>36.81507356464862823486328125</LatitudeDegrees>
              <LongitudeDegrees>-4.378436319530010223388671875</LongitudeDegrees>
            </Position>
            <AltitudeMeters>825.79998779296875</AltitudeMeters>
            <DistanceMeters>NAN</DistanceMeters>
          </Trackpoint>
          <Trackpoint>
            <Time>2020-12-05T09:18:55.000Z</Time>
            <Position>
              <LatitudeDegrees>36.8150777556002140045166015625</LatitudeDegrees>
              <LongitudeDegrees>-4.378445036709308624267578125</LongitudeDegrees>
            </Position>
            <AltitudeMeters>826</AltitudeMeters>
            <DistanceMeters>NAN</DistanceMeters>
          </Trackpoint>
          <Trackpoint>
            <Time>2020-12-05T09:18:56.000Z</Time>
            <Position>
              <LatitudeDegrees>36.81508471257984638214111328125</LatitudeDegrees>
              <LongitudeDegrees>-4.37845199368894100189208984375</LongitudeDegrees>
            </Position>
            <AltitudeMeters>826.20001220703125</AltitudeMeters>
            <DistanceMeters>NAN</DistanceMeters>
          </Trackpoint>
          <Trackpoint>
            <Time>2020-12-05T09:18:57.000Z</Time>
            <Position>
              <LatitudeDegrees>36.8150908313691616058349609375</LatitudeDegrees>
              <LongitudeDegrees>-4.37845651991665363311767578125</LongitudeDegrees>
            </Position>
            <AltitudeMeters>826.4000244140625</AltitudeMeters>
            <DistanceMeters>NAN</DistanceMeters>
          </Trackpoint>
          <Trackpoint>
            <Time>2020-12-05T09:18:58.000Z</Time>
            <Position>
              <LatitudeDegrees>36.81509493850171566009521484375</LatitudeDegrees>
              <LongitudeDegrees>-4.3784653209149837493896484375</LongitudeDegrees>
            </Position>
            <AltitudeMeters>826.4000244140625</AltitudeMeters>
            <DistanceMeters>NAN</DistanceMeters>
          </Trackpoint>
          <Trackpoint>
            <Time>2020-12-05T09:18:59.000Z</Time>
            <Position>
              <LatitudeDegrees>36.81510063819587230682373046875</LatitudeDegrees>
              <LongitudeDegrees>-4.37847345136106014251708984375</LongitudeDegrees>
            </Position>
            <AltitudeMeters>826.5999755859375</AltitudeMeters>
            <DistanceMeters>NAN</DistanceMeters>
          </Trackpoint>
          <Trackpoint>
            <Time>2020-12-05T09:19:00.000Z</Time>
            <Position>
              <LatitudeDegrees>36.8151096068322658538818359375</LatitudeDegrees>
              <LongitudeDegrees>-4.37848426401615142822265625</LongitudeDegrees>
            </Position>
            <AltitudeMeters>827</AltitudeMeters>
            <DistanceMeters>NAN</DistanceMeters>
          </Trackpoint>
          <Trackpoint>
            <Time>2020-12-05T09:19:01.000Z</Time>
            <Position>
              <LatitudeDegrees>36.81511916220188140869140625</LatitudeDegrees>
              <LongitudeDegrees>-4.37849608249962329864501953125</LongitudeDegrees>
            </Position>
            <AltitudeMeters>827.4000244140625</AltitudeMeters>
            <DistanceMeters>NAN</DistanceMeters>
          </Trackpoint>
          <Trackpoint>
            <Time>2020-12-05T09:19:02.000Z</Time>
            <Position>
              <LatitudeDegrees>36.81512779556214809417724609375</LatitudeDegrees>
              <LongitudeDegrees>-4.37850630842149257659912109375</LongitudeDegrees>
            </Position>
            <AltitudeMeters>828</AltitudeMeters>
            <DistanceMeters>NAN</DistanceMeters>
          </Trackpoint>
          <Trackpoint>
            <Time>2020-12-05T09:19:03.000Z</Time>
            <Position>
              <LatitudeDegrees>36.81513802148401737213134765625</LatitudeDegrees>
              <LongitudeDegrees>-4.37851779162883758544921875</LongitudeDegrees>
            </Position>
            <AltitudeMeters>828.4000244140625</AltitudeMeters>
            <DistanceMeters>NAN</DistanceMeters>
          </Trackpoint>
          <Trackpoint>
            <Time>2020-12-05T09:19:04.000Z</Time>
            <Position>
              <LatitudeDegrees>36.81514858268201351165771484375</LatitudeDegrees>
              <LongitudeDegrees>-4.3785290233790874481201171875</LongitudeDegrees>
            </Position>
            <AltitudeMeters>828.79998779296875</AltitudeMeters>
            <DistanceMeters>NAN</DistanceMeters>
          </Trackpoint>
          <Trackpoint>
            <Time>2020-12-05T09:19:05.000Z</Time>
            <Position>
              <LatitudeDegrees>36.81516115553677082061767578125</LatitudeDegrees>
              <LongitudeDegrees>-4.37853883020579814910888671875</LongitudeDegrees>
            </Position>
            <AltitudeMeters>829</AltitudeMeters>
            <DistanceMeters>NAN</DistanceMeters>
          </Trackpoint>
          <Trackpoint>
            <Time>2020-12-05T09:19:06.000Z</Time>
            <Position>
              <LatitudeDegrees>36.8151719681918621063232421875</LatitudeDegrees>
              <LongitudeDegrees>-4.37854922376573085784912109375</LongitudeDegrees>
            </Position>
            <AltitudeMeters>829</AltitudeMeters>
            <DistanceMeters>NAN</DistanceMeters>
          </Trackpoint>
          <Trackpoint>
            <Time>2020-12-05T09:19:07.000Z</Time>
            <Position>
              <LatitudeDegrees>36.81518093682825565338134765625</LatitudeDegrees>
              <LongitudeDegrees>-4.37855894677340984344482421875</LongitudeDegrees>
            </Position>
            <AltitudeMeters>829.20001220703125</AltitudeMeters>
            <DistanceMeters>NAN</DistanceMeters>
          </Trackpoint>
          <Trackpoint>
            <Time>2020-12-05T09:19:08.000Z</Time>
            <Position>
              <LatitudeDegrees>36.815193258225917816162109375</LatitudeDegrees>
              <LongitudeDegrees>-4.37856447882950305938720703125</LongitudeDegrees>
            </Position>
            <AltitudeMeters>829.4000244140625</AltitudeMeters>
            <DistanceMeters>NAN</DistanceMeters>
          </Trackpoint>
          <Trackpoint>
            <Time>2020-12-05T09:19:09.000Z</Time>
            <Position>
              <LatitudeDegrees>36.81520675309002399444580078125</LatitudeDegrees>
              <LongitudeDegrees>-4.3785682506859302520751953125</LongitudeDegrees>
            </Position>
            <AltitudeMeters>829.5999755859375</AltitudeMeters>
            <DistanceMeters>NAN</DistanceMeters>
          </Trackpoint>
          <Trackpoint>
            <Time>2020-12-05T09:19:10.000Z</Time>
            <Position>
              <LatitudeDegrees>36.81522033177316188812255859375</LatitudeDegrees>
              <LongitudeDegrees>-4.3785702623426914215087890625</LongitudeDegrees>
            </Position>
            <AltitudeMeters>829.5999755859375</AltitudeMeters>
            <DistanceMeters>NAN</DistanceMeters>
          </Trackpoint>
          <Trackpoint>
            <Time>2020-12-05T09:19:11.000Z</Time>
            <Position>
              <LatitudeDegrees>36.815236508846282958984375</LatitudeDegrees>
              <LongitudeDegrees>-4.378574788570404052734375</LongitudeDegrees>
            </Position>
            <AltitudeMeters>829.5999755859375</AltitudeMeters>
            <DistanceMeters>NAN</DistanceMeters>
          </Trackpoint>
          <Trackpoint>
            <Time>2020-12-05T09:19:12.000Z</Time>
            <Position>
              <LatitudeDegrees>36.8152512609958648681640625</LatitudeDegrees>
              <LongitudeDegrees>-4.37857554294168949127197265625</LongitudeDegrees>
            </Position>
            <AltitudeMeters>829.5999755859375</AltitudeMeters>
            <DistanceMeters>NAN</DistanceMeters>
          </Trackpoint>
          <Trackpoint>
            <Time>2020-12-05T09:19:13.000Z</Time>
            <Position>
              <LatitudeDegrees>36.815260313451290130615234375</LatitudeDegrees>
              <LongitudeDegrees>-4.3785793147981166839599609375</LongitudeDegrees>
            </Position>
            <AltitudeMeters>829.4000244140625</AltitudeMeters>
            <DistanceMeters>NAN</DistanceMeters>
          </Trackpoint>
          <Trackpoint>
            <Time>2020-12-05T09:19:14.000Z</Time>
            <Position>
              <LatitudeDegrees>36.8152695335447788238525390625</LatitudeDegrees>
              <LongitudeDegrees>-4.378581158816814422607421875</LongitudeDegrees>
            </Position>
            <AltitudeMeters>829.20001220703125</AltitudeMeters>
            <DistanceMeters>NAN</DistanceMeters>
          </Trackpoint>
          <Trackpoint>
            <Time>2020-12-05T09:19:15.000Z</Time>
            <Position>
              <LatitudeDegrees>36.81527950800955295562744140625</LatitudeDegrees>
              <LongitudeDegrees>-4.37857948243618011474609375</LongitudeDegrees>
            </Position>
            <AltitudeMeters>829.20001220703125</AltitudeMeters>
            <DistanceMeters>NAN</DistanceMeters>
          </Trackpoint>
          <Trackpoint>
            <Time>2020-12-05T09:19:16.000Z</Time>
            <Position>
              <LatitudeDegrees>36.81528990156948566436767578125</LatitudeDegrees>
              <LongitudeDegrees>-4.37857571057975292205810546875</LongitudeDegrees>
            </Position>
            <AltitudeMeters>829</AltitudeMeters>
            <DistanceMeters>NAN</DistanceMeters>
          </Trackpoint>
          <Trackpoint>
            <Time>2020-12-05T09:19:17.000Z</Time>
            <Position>
              <LatitudeDegrees>36.8153017200529575347900390625</LatitudeDegrees>
              <LongitudeDegrees>-4.37857353128492832183837890625</LongitudeDegrees>
            </Position>
            <AltitudeMeters>828.79998779296875</AltitudeMeters>
            <DistanceMeters>NAN</DistanceMeters>
          </Trackpoint>
          <Trackpoint>
            <Time>2020-12-05T09:19:18.000Z</Time>
            <Position>
              <LatitudeDegrees>36.8153156340122222900390625</LatitudeDegrees>
              <LongitudeDegrees>-4.378573112189769744873046875</LongitudeDegrees>
            </Position>
            <AltitudeMeters>828.5999755859375</AltitudeMeters>
            <DistanceMeters>NAN</DistanceMeters>
          </Trackpoint>
          <Trackpoint>
            <Time>2020-12-05T09:19:19.000Z</Time>
            <Position>
              <LatitudeDegrees>36.81532896123826503753662109375</LatitudeDegrees>
              <LongitudeDegrees>-4.37857252545654773712158203125</LongitudeDegrees>
            </Position>
            <AltitudeMeters>828.4000244140625</AltitudeMeters>
            <DistanceMeters>NAN</DistanceMeters>
          </Trackpoint>
          <Trackpoint>
            <Time>2020-12-05T09:19:20.000Z</Time>
            <Position>
              <LatitudeDegrees>36.81534321047365665435791015625</LatitudeDegrees>
              <LongitudeDegrees>-4.3785702623426914215087890625</LongitudeDegrees>
            </Position>
            <AltitudeMeters>828.20001220703125</AltitudeMeters>
            <DistanceMeters>NAN</DistanceMeters>
          </Trackpoint>
          <Trackpoint>
            <Time>2020-12-05T09:19:21.000Z</Time>
            <Position>
              <LatitudeDegrees>36.81535678915679454803466796875</LatitudeDegrees>
              <LongitudeDegrees>-4.37856481410562992095947265625</LongitudeDegrees>
            </Position>
            <AltitudeMeters>828.20001220703125</AltitudeMeters>
            <DistanceMeters>NAN</DistanceMeters>
          </Trackpoint>
          <Trackpoint>
            <Time>2020-12-05T09:19:22.000Z</Time>
            <Position>
              <LatitudeDegrees>36.815368942916393280029296875</LatitudeDegrees>
              <LongitudeDegrees>-4.37855693511664867401123046875</LongitudeDegrees>
            </Position>
            <AltitudeMeters>828.20001220703125</AltitudeMeters>
            <DistanceMeters>NAN</DistanceMeters>
          </Trackpoint>
          <Trackpoint>
            <Time>2020-12-05T09:19:23.000Z</Time>
            <Position>
              <LatitudeDegrees>36.8153798393905162811279296875</LatitudeDegrees>
              <LongitudeDegrees>-4.3785498104989528656005859375</LongitudeDegrees>
            </Position>
            <AltitudeMeters>828.20001220703125</AltitudeMeters>
            <DistanceMeters>NAN</DistanceMeters>
          </Trackpoint>
          <Trackpoint>
            <Time>2020-12-05T09:19:24.000Z</Time>
            <Position>
              <LatitudeDegrees>36.81539098732173442840576171875</LatitudeDegrees>
              <LongitudeDegrees>-4.37854520045220851898193359375</LongitudeDegrees>
            </Position>
            <AltitudeMeters>828.20001220703125</AltitudeMeters>
            <DistanceMeters>NAN</DistanceMeters>
          </Trackpoint>
          <Trackpoint>
            <Time>2020-12-05T09:19:25.000Z</Time>
            <Position>
              <LatitudeDegrees>36.8154043145477771759033203125</LatitudeDegrees>
              <LongitudeDegrees>-4.3785407580435276031494140625</LongitudeDegrees>
            </Position>
            <AltitudeMeters>828.4000244140625</AltitudeMeters>
            <DistanceMeters>NAN</DistanceMeters>
          </Trackpoint>
          <Trackpoint>
            <Time>2020-12-05T09:19:26.000Z</Time>
            <Position>
              <LatitudeDegrees>36.81541579775512218475341796875</LatitudeDegrees>
              <LongitudeDegrees>-4.37853564508259296417236328125</LongitudeDegrees>
            </Position>
            <AltitudeMeters>828.5999755859375</AltitudeMeters>
            <DistanceMeters>NAN</DistanceMeters>
          </Trackpoint>
          <Trackpoint>
            <Time>2020-12-05T09:19:27.000Z</Time>
            <Position>
              <LatitudeDegrees>36.81542694568634033203125</LatitudeDegrees>
              <LongitudeDegrees>-4.37852919101715087890625</LongitudeDegrees>
            </Position>
            <AltitudeMeters>828.5999755859375</AltitudeMeters>
            <DistanceMeters>NAN</DistanceMeters>
          </Trackpoint>
          <Trackpoint>
            <Time>2020-12-05T09:19:28.000Z</Time>
            <Position>
              <LatitudeDegrees>36.81543641723692417144775390625</LatitudeDegrees>
              <LongitudeDegrees>-4.3785223178565502166748046875</LongitudeDegrees>
            </Position>
            <AltitudeMeters>828.79998779296875</AltitudeMeters>
            <DistanceMeters>NAN</DistanceMeters>
          </Trackpoint>
          <Trackpoint>
            <Time>2020-12-05T09:19:29.000Z</Time>
            <Position>
              <LatitudeDegrees>36.81544563733041286468505859375</LatitudeDegrees>
              <LongitudeDegrees>-4.37851452268660068511962890625</LongitudeDegrees>
            </Position>
            <AltitudeMeters>828.79998779296875</AltitudeMeters>
            <DistanceMeters>NAN</DistanceMeters>
          </Trackpoint>
          <Trackpoint>
            <Time>2020-12-05T09:19:30.000Z</Time>
            <Position>
              <LatitudeDegrees>36.8154546059668064117431640625</LatitudeDegrees>
              <LongitudeDegrees>-4.37850446440279483795166015625</LongitudeDegrees>
            </Position>
            <AltitudeMeters>828.79998779296875</AltitudeMeters>
            <DistanceMeters>NAN</DistanceMeters>
          </Trackpoint>
          <Trackpoint>
            <Time>2020-12-05T09:19:31.000Z</Time>
            <Position>
              <LatitudeDegrees>36.8154626525938510894775390625</LatitudeDegrees>
              <LongitudeDegrees>-4.378495328128337860107421875</LongitudeDegrees>
            </Position>
            <AltitudeMeters>828.79998779296875</AltitudeMeters>
            <DistanceMeters>NAN</DistanceMeters>
          </Trackpoint>
          <Trackpoint>
            <Time>2020-12-05T09:19:32.000Z</Time>
            <Position>
              <LatitudeDegrees>36.8154703639447689056396484375</LatitudeDegrees>
              <LongitudeDegrees>-4.3784854374825954437255859375</LongitudeDegrees>
            </Position>
            <AltitudeMeters>829</AltitudeMeters>
            <DistanceMeters>NAN</DistanceMeters>
          </Trackpoint>
          <Trackpoint>
            <Time>2020-12-05T09:19:33.000Z</Time>
            <Position>
              <LatitudeDegrees>36.8154787458479404449462890625</LatitudeDegrees>
              <LongitudeDegrees>-4.37847487628459930419921875</LongitudeDegrees>
            </Position>
            <AltitudeMeters>829</AltitudeMeters>
            <DistanceMeters>NAN</DistanceMeters>
          </Trackpoint>
          <Trackpoint>
            <Time>2020-12-05T09:19:34.000Z</Time>
            <Position>
              <LatitudeDegrees>36.8154851160943508148193359375</LatitudeDegrees>
              <LongitudeDegrees>-4.37846624292433261871337890625</LongitudeDegrees>
            </Position>
            <AltitudeMeters>829</AltitudeMeters>
            <DistanceMeters>NAN</DistanceMeters>
          </Trackpoint>
          <Trackpoint>
            <Time>2020-12-05T09:19:35.000Z</Time>
            <Position>
              <LatitudeDegrees>36.8154918216168880462646484375</LatitudeDegrees>
              <LongitudeDegrees>-4.3784572742879390716552734375</LongitudeDegrees>
            </Position>
            <AltitudeMeters>829</AltitudeMeters>
            <DistanceMeters>NAN</DistanceMeters>
          </Trackpoint>
          <Trackpoint>
            <Time>2020-12-05T09:19:36.000Z</Time>
            <Position>
              <LatitudeDegrees>36.815497688949108123779296875</LatitudeDegrees>
              <LongitudeDegrees>-4.37844805419445037841796875</LongitudeDegrees>
            </Position>
            <AltitudeMeters>829.20001220703125</AltitudeMeters>
            <DistanceMeters>NAN</DistanceMeters>
          </Trackpoint>
          <Trackpoint>
            <Time>2020-12-05T09:19:37.000Z</Time>
            <Position>
              <LatitudeDegrees>36.815507411956787109375</LatitudeDegrees>
              <LongitudeDegrees>-4.37843472696840763092041015625</LongitudeDegrees>
            </Position>
            <AltitudeMeters>829.20001220703125</AltitudeMeters>
            <DistanceMeters>NAN</DistanceMeters>
          </Trackpoint>
          <Trackpoint>
            <Time>2020-12-05T09:19:38.000Z</Time>
            <Position>
              <LatitudeDegrees>36.81551621295511722564697265625</LatitudeDegrees>
              <LongitudeDegrees>-4.37842148356139659881591796875</LongitudeDegrees>
            </Position>
            <AltitudeMeters>829.20001220703125</AltitudeMeters>
            <DistanceMeters>NAN</DistanceMeters>
          </Trackpoint>
          <Trackpoint>
            <Time>2020-12-05T09:19:39.000Z</Time>
            <Position>
              <LatitudeDegrees>36.81552962400019168853759765625</LatitudeDegrees>
              <LongitudeDegrees>-4.37840572558343410491943359375</LongitudeDegrees>
            </Position>
            <AltitudeMeters>829.4000244140625</AltitudeMeters>
            <DistanceMeters>NAN</DistanceMeters>
          </Trackpoint>
          <Trackpoint>
            <Time>2020-12-05T09:19:40.000Z</Time>
            <Position>
              <LatitudeDegrees>36.81554286740720272064208984375</LatitudeDegrees>
              <LongitudeDegrees>-4.37839315272867679595947265625</LongitudeDegrees>
            </Position>
            <AltitudeMeters>829.4000244140625</AltitudeMeters>
            <DistanceMeters>NAN</DistanceMeters>
          </Trackpoint>
          <Trackpoint>
            <Time>2020-12-05T09:19:41.000Z</Time>
            <Position>
              <LatitudeDegrees>36.81555359624326229095458984375</LatitudeDegrees>
              <LongitudeDegrees>-4.37838175334036350250244140625</LongitudeDegrees>
            </Position>
            <AltitudeMeters>829.5999755859375</AltitudeMeters>
            <DistanceMeters>NAN</DistanceMeters>
          </Trackpoint>
          <Trackpoint>
            <Time>2020-12-05T09:19:42.000Z</Time>
            <Position>
              <LatitudeDegrees>36.81556038558483123779296875</LatitudeDegrees>
              <LongitudeDegrees>-4.3783727847039699554443359375</LongitudeDegrees>
            </Position>
            <AltitudeMeters>829.5999755859375</AltitudeMeters>
            <DistanceMeters>NAN</DistanceMeters>
          </Trackpoint>
          <Trackpoint>
            <Time>2020-12-05T09:19:43.000Z</Time>
            <Position>
              <LatitudeDegrees>36.81556801311671733856201171875</LatitudeDegrees>
              <LongitudeDegrees>-4.3783640675246715545654296875</LongitudeDegrees>
            </Position>
            <AltitudeMeters>829.79998779296875</AltitudeMeters>
            <DistanceMeters>NAN</DistanceMeters>
          </Trackpoint>
          <Trackpoint>
            <Time>2020-12-05T09:19:44.000Z</Time>
            <Position>
              <LatitudeDegrees>36.8155749700963497161865234375</LatitudeDegrees>
              <LongitudeDegrees>-4.37835442833602428436279296875</LongitudeDegrees>
            </Position>
            <AltitudeMeters>829.79998779296875</AltitudeMeters>
            <DistanceMeters>NAN</DistanceMeters>
          </Trackpoint>
          <Trackpoint>
            <Time>2020-12-05T09:19:45.000Z</Time>
            <Position>
              <LatitudeDegrees>36.81558377109467983245849609375</LatitudeDegrees>
              <LongitudeDegrees>-4.3783426098525524139404296875</LongitudeDegrees>
            </Position>
            <AltitudeMeters>829.79998779296875</AltitudeMeters>
            <DistanceMeters>NAN</DistanceMeters>
          </Trackpoint>
          <Trackpoint>
            <Time>2020-12-05T09:19:46.000Z</Time>
            <Position>
              <LatitudeDegrees>36.815594248473644256591796875</LatitudeDegrees>
              <LongitudeDegrees>-4.37833162955939769744873046875</LongitudeDegrees>
            </Position>
            <AltitudeMeters>829.5999755859375</AltitudeMeters>
            <DistanceMeters>NAN</DistanceMeters>
          </Trackpoint>
          <Trackpoint>
            <Time>2020-12-05T09:19:47.000Z</Time>
            <Position>
              <LatitudeDegrees>36.81560656987130641937255859375</LatitudeDegrees>
              <LongitudeDegrees>-4.37831805087625980377197265625</LongitudeDegrees>
            </Position>
            <AltitudeMeters>829.4000244140625</AltitudeMeters>
            <DistanceMeters>NAN</DistanceMeters>
          </Trackpoint>
          <Trackpoint>
            <Time>2020-12-05T09:19:48.000Z</Time>
            <Position>
              <LatitudeDegrees>36.8156158737838268280029296875</LatitudeDegrees>
              <LongitudeDegrees>-4.37830413691699504852294921875</LongitudeDegrees>
            </Position>
            <AltitudeMeters>829</AltitudeMeters>
            <DistanceMeters>NAN</DistanceMeters>
          </Trackpoint>
          <Trackpoint>
            <Time>2020-12-05T09:19:49.000Z</Time>
            <Position>
              <LatitudeDegrees>36.815624423325061798095703125</LatitudeDegrees>
              <LongitudeDegrees>-4.3782896362245082855224609375</LongitudeDegrees>
            </Position>
            <AltitudeMeters>828.79998779296875</AltitudeMeters>
            <DistanceMeters>NAN</DistanceMeters>
          </Trackpoint>
          <Trackpoint>
            <Time>2020-12-05T09:19:50.000Z</Time>
            <Position>
              <LatitudeDegrees>36.81563221849501132965087890625</LatitudeDegrees>
              <LongitudeDegrees>-4.37827798537909984588623046875</LongitudeDegrees>
            </Position>
            <AltitudeMeters>828.4000244140625</AltitudeMeters>
            <DistanceMeters>NAN</DistanceMeters>
          </Trackpoint>
          <Trackpoint>
            <Time>2020-12-05T09:19:51.000Z</Time>
            <Position>
              <LatitudeDegrees>36.81563741527497768402099609375</LatitudeDegrees>
              <LongitudeDegrees>-4.37826591543853282928466796875</LongitudeDegrees>
            </Position>
            <AltitudeMeters>828.20001220703125</AltitudeMeters>
            <DistanceMeters>NAN</DistanceMeters>
          </Trackpoint>
          <Trackpoint>
            <Time>2020-12-05T09:19:52.000Z</Time>
            <Position>
              <LatitudeDegrees>36.81564345024526119232177734375</LatitudeDegrees>
              <LongitudeDegrees>-4.37825770117342472076416015625</LongitudeDegrees>
            </Position>
            <AltitudeMeters>828</AltitudeMeters>
            <DistanceMeters>NAN</DistanceMeters>
          </Trackpoint>
          <Trackpoint>
            <Time>2020-12-05T09:19:53.000Z</Time>
            <Position>
              <LatitudeDegrees>36.815649904310703277587890625</LatitudeDegrees>
              <LongitudeDegrees>-4.37825032509863376617431640625</LongitudeDegrees>
            </Position>
            <AltitudeMeters>827.79998779296875</AltitudeMeters>
            <DistanceMeters>NAN</DistanceMeters>
          </Trackpoint>
          <Trackpoint>
            <Time>2020-12-05T09:19:54.000Z</Time>
            <Position>
              <LatitudeDegrees>36.8156567774713039398193359375</LatitudeDegrees>
              <LongitudeDegrees>-4.37823951244354248046875</LongitudeDegrees>
            </Position>
            <AltitudeMeters>827.79998779296875</AltitudeMeters>
            <DistanceMeters>NAN</DistanceMeters>
          </Trackpoint>
          <Trackpoint>
            <Time>2020-12-05T09:19:55.000Z</Time>
            <Position>
              <LatitudeDegrees>36.81566557846963405609130859375</LatitudeDegrees>
              <LongitudeDegrees>-4.37823054380714893341064453125</LongitudeDegrees>
            </Position>
            <AltitudeMeters>827.79998779296875</AltitudeMeters>
            <DistanceMeters>NAN</DistanceMeters>
          </Trackpoint>
          <Trackpoint>
            <Time>2020-12-05T09:19:56.000Z</Time>
            <Position>
              <LatitudeDegrees>36.8156758882105350494384765625</LatitudeDegrees>
              <LongitudeDegrees>-4.37822165898978710174560546875</LongitudeDegrees>
            </Position>
            <AltitudeMeters>828.20001220703125</AltitudeMeters>
            <DistanceMeters>NAN</DistanceMeters>
          </Trackpoint>
          <Trackpoint>
            <Time>2020-12-05T09:19:57.000Z</Time>
            <Position>
              <LatitudeDegrees>36.81568644940853118896484375</LatitudeDegrees>
              <LongitudeDegrees>-4.37821512110531330108642578125</LongitudeDegrees>
            </Position>
            <AltitudeMeters>829</AltitudeMeters>
            <DistanceMeters>NAN</DistanceMeters>
          </Trackpoint>
          <Trackpoint>
            <Time>2020-12-05T09:19:58.000Z</Time>
            <Position>
              <LatitudeDegrees>36.81569592095911502838134765625</LatitudeDegrees>
              <LongitudeDegrees>-4.37820640392601490020751953125</LongitudeDegrees>
            </Position>
            <AltitudeMeters>829.79998779296875</AltitudeMeters>
            <DistanceMeters>NAN</DistanceMeters>
          </Trackpoint>
          <Trackpoint>
            <Time>2020-12-05T09:19:59.000Z</Time>
            <Position>
              <LatitudeDegrees>36.81570430286228656768798828125</LatitudeDegrees>
              <LongitudeDegrees>-4.378199279308319091796875</LongitudeDegrees>
            </Position>
            <AltitudeMeters>830.5999755859375</AltitudeMeters>
            <DistanceMeters>NAN</DistanceMeters>
          </Trackpoint>
          <Trackpoint>
            <Time>2020-12-05T09:20:00.000Z</Time>
            <Position>
              <LatitudeDegrees>36.8157141096889972686767578125</LatitudeDegrees>
              <LongitudeDegrees>-4.37818863429129123687744140625</LongitudeDegrees>
            </Position>
            <AltitudeMeters>831</AltitudeMeters>
            <DistanceMeters>NAN</DistanceMeters>
          </Trackpoint>
          <Trackpoint>
            <Time>2020-12-05T09:20:01.000Z</Time>
            <Position>
              <LatitudeDegrees>36.81572542525827884674072265625</LatitudeDegrees>
              <LongitudeDegrees>-4.37817572616040706634521484375</LongitudeDegrees>
            </Position>
            <AltitudeMeters>831.4000244140625</AltitudeMeters>
            <DistanceMeters>NAN</DistanceMeters>
          </Trackpoint>
          <Trackpoint>
            <Time>2020-12-05T09:20:02.000Z</Time>
            <Position>
              <LatitudeDegrees>36.81573749519884586334228515625</LatitudeDegrees>
              <LongitudeDegrees>-4.37816499732434749603271484375</LongitudeDegrees>
            </Position>
            <AltitudeMeters>831.5999755859375</AltitudeMeters>
            <DistanceMeters>NAN</DistanceMeters>
          </Trackpoint>
          <Trackpoint>
            <Time>2020-12-05T09:20:03.000Z</Time>
            <Position>
              <LatitudeDegrees>36.81574755348265171051025390625</LatitudeDegrees>
              <LongitudeDegrees>-4.37815929763019084930419921875</LongitudeDegrees>
            </Position>
            <AltitudeMeters>831.5999755859375</AltitudeMeters>
            <DistanceMeters>NAN</DistanceMeters>
          </Trackpoint>
          <Trackpoint>
            <Time>2020-12-05T09:20:04.000Z</Time>
            <Position>
              <LatitudeDegrees>36.815758533775806427001953125</LatitudeDegrees>
              <LongitudeDegrees>-4.3781518377363681793212890625</LongitudeDegrees>
            </Position>
            <AltitudeMeters>831.5999755859375</AltitudeMeters>
            <DistanceMeters>NAN</DistanceMeters>
          </Trackpoint>
          <Trackpoint>
            <Time>2020-12-05T09:20:05.000Z</Time>
            <Position>
              <LatitudeDegrees>36.8157677538692951202392578125</LatitudeDegrees>
              <LongitudeDegrees>-4.37814496457576751708984375</LongitudeDegrees>
            </Position>
            <AltitudeMeters>831.20001220703125</AltitudeMeters>
            <DistanceMeters>NAN</DistanceMeters>
          </Trackpoint>
          <Trackpoint>
            <Time>2020-12-05T09:20:06.000Z</Time>
            <Position>
              <LatitudeDegrees>36.8157751299440860748291015625</LatitudeDegrees>
              <LongitudeDegrees>-4.3781390972435474395751953125</LongitudeDegrees>
            </Position>
            <AltitudeMeters>830.79998779296875</AltitudeMeters>
            <DistanceMeters>NAN</DistanceMeters>
          </Trackpoint>
          <Trackpoint>
            <Time>2020-12-05T09:20:07.000Z</Time>
            <Position>
              <LatitudeDegrees>36.8157801590859889984130859375</LatitudeDegrees>
              <LongitudeDegrees>-4.37813566066324710845947265625</LongitudeDegrees>
            </Position>
            <AltitudeMeters>830.5999755859375</AltitudeMeters>
            <DistanceMeters>NAN</DistanceMeters>
          </Trackpoint>
          <Trackpoint>
            <Time>2020-12-05T09:20:08.000Z</Time>
            <Position>
              <LatitudeDegrees>36.81578577496111392974853515625</LatitudeDegrees>
              <LongitudeDegrees>-4.3781330622732639312744140625</LongitudeDegrees>
            </Position>
            <AltitudeMeters>830.4000244140625</AltitudeMeters>
            <DistanceMeters>NAN</DistanceMeters>
          </Trackpoint>
          <Trackpoint>
            <Time>2020-12-05T09:20:09.000Z</Time>
            <Position>
              <LatitudeDegrees>36.81579382158815860748291015625</LatitudeDegrees>
              <LongitudeDegrees>-4.37812677584588527679443359375</LongitudeDegrees>
            </Position>
            <AltitudeMeters>829.79998779296875</AltitudeMeters>
            <DistanceMeters>NAN</DistanceMeters>
          </Trackpoint>
          <Trackpoint>
            <Time>2020-12-05T09:20:10.000Z</Time>
            <Position>
              <LatitudeDegrees>36.81580538861453533172607421875</LatitudeDegrees>
              <LongitudeDegrees>-4.378118477761745452880859375</LongitudeDegrees>
            </Position>
            <AltitudeMeters>829.4000244140625</AltitudeMeters>
            <DistanceMeters>NAN</DistanceMeters>
          </Trackpoint>
          <Trackpoint>
            <Time>2020-12-05T09:20:11.000Z</Time>
            <Position>
              <LatitudeDegrees>36.81581863202154636383056640625</LatitudeDegrees>
              <LongitudeDegrees>-4.37810649164021015167236328125</LongitudeDegrees>
            </Position>
            <AltitudeMeters>829</AltitudeMeters>
            <DistanceMeters>NAN</DistanceMeters>
          </Trackpoint>
          <Trackpoint>
            <Time>2020-12-05T09:20:12.000Z</Time>
            <Position>
              <LatitudeDegrees>36.8158247508108615875244140625</LatitudeDegrees>
              <LongitudeDegrees>-4.3780968524515628814697265625</LongitudeDegrees>
            </Position>
            <AltitudeMeters>828.79998779296875</AltitudeMeters>
            <DistanceMeters>NAN</DistanceMeters>
          </Trackpoint>
          <Trackpoint>
            <Time>2020-12-05T09:20:13.000Z</Time>
            <Position>
              <LatitudeDegrees>36.815831623971462249755859375</LatitudeDegrees>
              <LongitudeDegrees>-4.3780928291380405426025390625</LongitudeDegrees>
            </Position>
            <AltitudeMeters>828.5999755859375</AltitudeMeters>
            <DistanceMeters>NAN</DistanceMeters>
          </Trackpoint>
          <Trackpoint>
            <Time>2020-12-05T09:20:14.000Z</Time>
            <Position>
              <LatitudeDegrees>36.81583841331303119659423828125</LatitudeDegrees>
              <LongitudeDegrees>-4.37808821909129619598388671875</LongitudeDegrees>
            </Position>
            <AltitudeMeters>828.4000244140625</AltitudeMeters>
            <DistanceMeters>NAN</DistanceMeters>
          </Trackpoint>
          <Trackpoint>
            <Time>2020-12-05T09:20:15.000Z</Time>
            <Position>
              <LatitudeDegrees>36.8158438615500926971435546875</LatitudeDegrees>
              <LongitudeDegrees>-4.37808235175907611846923828125</LongitudeDegrees>
            </Position>
            <AltitudeMeters>828.20001220703125</AltitudeMeters>
            <DistanceMeters>NAN</DistanceMeters>
          </Trackpoint>
          <Trackpoint>
            <Time>2020-12-05T09:20:16.000Z</Time>
            <Position>
              <LatitudeDegrees>36.81584964506328105926513671875</LatitudeDegrees>
              <LongitudeDegrees>-4.37807782553136348724365234375</LongitudeDegrees>
            </Position>
            <AltitudeMeters>828</AltitudeMeters>
            <DistanceMeters>NAN</DistanceMeters>
          </Trackpoint>
          <Trackpoint>
            <Time>2020-12-05T09:20:17.000Z</Time>
            <Position>
              <LatitudeDegrees>36.81585551239550113677978515625</LatitudeDegrees>
              <LongitudeDegrees>-4.37807329930365085601806640625</LongitudeDegrees>
            </Position>
            <AltitudeMeters>827.79998779296875</AltitudeMeters>
            <DistanceMeters>NAN</DistanceMeters>
          </Trackpoint>
          <Trackpoint>
            <Time>2020-12-05T09:20:18.000Z</Time>
            <Position>
              <LatitudeDegrees>36.8158609606325626373291015625</LatitudeDegrees>
              <LongitudeDegrees>-4.378067515790462493896484375</LongitudeDegrees>
            </Position>
            <AltitudeMeters>827.5999755859375</AltitudeMeters>
            <DistanceMeters>NAN</DistanceMeters>
          </Trackpoint>
          <Trackpoint>
            <Time>2020-12-05T09:20:19.000Z</Time>
            <Position>
              <LatitudeDegrees>36.815867163240909576416015625</LatitudeDegrees>
              <LongitudeDegrees>-4.378058798611164093017578125</LongitudeDegrees>
            </Position>
            <AltitudeMeters>827.4000244140625</AltitudeMeters>
            <DistanceMeters>NAN</DistanceMeters>
          </Trackpoint>
          <Trackpoint>
            <Time>2020-12-05T09:20:20.000Z</Time>
            <Position>
              <LatitudeDegrees>36.815874874591827392578125</LatitudeDegrees>
              <LongitudeDegrees>-4.37804899178445339202880859375</LongitudeDegrees>
            </Position>
            <AltitudeMeters>827.4000244140625</AltitudeMeters>
            <DistanceMeters>NAN</DistanceMeters>
          </Trackpoint>
          <Trackpoint>
            <Time>2020-12-05T09:20:21.000Z</Time>
            <Position>
              <LatitudeDegrees>36.81588090956211090087890625</LatitudeDegrees>
              <LongitudeDegrees>-4.3780358321964740753173828125</LongitudeDegrees>
            </Position>
            <AltitudeMeters>827.20001220703125</AltitudeMeters>
            <DistanceMeters>NAN</DistanceMeters>
          </Trackpoint>
          <Trackpoint>
            <Time>2020-12-05T09:20:22.000Z</Time>
            <Position>
              <LatitudeDegrees>36.8158896267414093017578125</LatitudeDegrees>
              <LongitudeDegrees>-4.37802401371300220489501953125</LongitudeDegrees>
            </Position>
            <AltitudeMeters>827.20001220703125</AltitudeMeters>
            <DistanceMeters>NAN</DistanceMeters>
          </Trackpoint>
          <Trackpoint>
            <Time>2020-12-05T09:20:23.000Z</Time>
            <Position>
              <LatitudeDegrees>36.8158988468348979949951171875</LatitudeDegrees>
              <LongitudeDegrees>-4.37801261432468891143798828125</LongitudeDegrees>
            </Position>
            <AltitudeMeters>827.4000244140625</AltitudeMeters>
            <DistanceMeters>NAN</DistanceMeters>
          </Trackpoint>
          <Trackpoint>
            <Time>2020-12-05T09:20:24.000Z</Time>
            <Position>
              <LatitudeDegrees>36.81590907275676727294921875</LatitudeDegrees>
              <LongitudeDegrees>-4.3780021369457244873046875</LongitudeDegrees>
            </Position>
            <AltitudeMeters>828</AltitudeMeters>
            <DistanceMeters>NAN</DistanceMeters>
          </Trackpoint>
          <Trackpoint>
            <Time>2020-12-05T09:20:25.000Z</Time>
            <Position>
              <LatitudeDegrees>36.81592558510601520538330078125</LatitudeDegrees>
              <LongitudeDegrees>-4.3779902346432209014892578125</LongitudeDegrees>
            </Position>
            <AltitudeMeters>828.5999755859375</AltitudeMeters>
            <DistanceMeters>NAN</DistanceMeters>
          </Trackpoint>
          <Trackpoint>
            <Time>2020-12-05T09:20:26.000Z</Time>
            <Position>
              <LatitudeDegrees>36.8159420974552631378173828125</LatitudeDegrees>
              <LongitudeDegrees>-4.377974309027194976806640625</LongitudeDegrees>
            </Position>
            <AltitudeMeters>829.20001220703125</AltitudeMeters>
            <DistanceMeters>NAN</DistanceMeters>
          </Trackpoint>
          <Trackpoint>
            <Time>2020-12-05T09:20:27.000Z</Time>
            <Position>
              <LatitudeDegrees>36.81595190428197383880615234375</LatitudeDegrees>
              <LongitudeDegrees>-4.3779660947620868682861328125</LongitudeDegrees>
            </Position>
            <AltitudeMeters>829.79998779296875</AltitudeMeters>
            <DistanceMeters>NAN</DistanceMeters>
          </Trackpoint>
          <Trackpoint>
            <Time>2020-12-05T09:20:28.000Z</Time>
            <Position>
              <LatitudeDegrees>36.815963052213191986083984375</LatitudeDegrees>
              <LongitudeDegrees>-4.37796064652502536773681640625</LongitudeDegrees>
            </Position>
            <AltitudeMeters>830</AltitudeMeters>
            <DistanceMeters>NAN</DistanceMeters>
          </Trackpoint>
          <Trackpoint>
            <Time>2020-12-05T09:20:29.000Z</Time>
            <Position>
              <LatitudeDegrees>36.8159762956202030181884765625</LatitudeDegrees>
              <LongitudeDegrees>-4.377957880496978759765625</LongitudeDegrees>
            </Position>
            <AltitudeMeters>830</AltitudeMeters>
            <DistanceMeters>NAN</DistanceMeters>
          </Trackpoint>
          <Trackpoint>
            <Time>2020-12-05T09:20:30.000Z</Time>
            <Position>
              <LatitudeDegrees>36.8159888684749603271484375</LatitudeDegrees>
              <LongitudeDegrees>-4.37796064652502536773681640625</LongitudeDegrees>
            </Position>
            <AltitudeMeters>830.20001220703125</AltitudeMeters>
            <DistanceMeters>NAN</DistanceMeters>
          </Trackpoint>
          <Trackpoint>
            <Time>2020-12-05T09:20:31.000Z</Time>
            <Position>
              <LatitudeDegrees>36.8160004355013370513916015625</LatitudeDegrees>
              <LongitudeDegrees>-4.37795947305858135223388671875</LongitudeDegrees>
            </Position>
            <AltitudeMeters>830.20001220703125</AltitudeMeters>
            <DistanceMeters>NAN</DistanceMeters>
          </Trackpoint>
          <Trackpoint>
            <Time>2020-12-05T09:20:32.000Z</Time>
            <Position>
              <LatitudeDegrees>36.8160098232328891754150390625</LatitudeDegrees>
              <LongitudeDegrees>-4.3779600597918033599853515625</LongitudeDegrees>
            </Position>
            <AltitudeMeters>830.20001220703125</AltitudeMeters>
            <DistanceMeters>NAN</DistanceMeters>
          </Trackpoint>
          <Trackpoint>
            <Time>2020-12-05T09:20:33.000Z</Time>
            <Position>
              <LatitudeDegrees>36.81601761840283870697021484375</LatitudeDegrees>
              <LongitudeDegrees>-4.37796383164823055267333984375</LongitudeDegrees>
            </Position>
            <AltitudeMeters>830</AltitudeMeters>
            <DistanceMeters>NAN</DistanceMeters>
          </Trackpoint>
          <Trackpoint>
            <Time>2020-12-05T09:20:34.000Z</Time>
            <Position>
              <LatitudeDegrees>36.81602952070534229278564453125</LatitudeDegrees>
              <LongitudeDegrees>-4.377971626818180084228515625</LongitudeDegrees>
            </Position>
            <AltitudeMeters>830</AltitudeMeters>
            <DistanceMeters>NAN</DistanceMeters>
          </Trackpoint>
          <Trackpoint>
            <Time>2020-12-05T09:20:35.000Z</Time>
            <Position>
              <LatitudeDegrees>36.81603840552270412445068359375</LatitudeDegrees>
              <LongitudeDegrees>-4.3779731355607509613037109375</LongitudeDegrees>
            </Position>
            <AltitudeMeters>829.5999755859375</AltitudeMeters>
            <DistanceMeters>NAN</DistanceMeters>
          </Trackpoint>
          <Trackpoint>
            <Time>2020-12-05T09:20:36.000Z</Time>
            <Position>
              <LatitudeDegrees>36.81605097837746143341064453125</LatitudeDegrees>
              <LongitudeDegrees>-4.3779835291206836700439453125</LongitudeDegrees>
            </Position>
            <AltitudeMeters>829.4000244140625</AltitudeMeters>
            <DistanceMeters>NAN</DistanceMeters>
          </Trackpoint>
          <Trackpoint>
            <Time>2020-12-05T09:20:37.000Z</Time>
            <Position>
              <LatitudeDegrees>36.8160584382712841033935546875</LatitudeDegrees>
              <LongitudeDegrees>-4.377987720072269439697265625</LongitudeDegrees>
            </Position>
            <AltitudeMeters>829</AltitudeMeters>
            <DistanceMeters>NAN</DistanceMeters>
          </Trackpoint>
          <Trackpoint>
            <Time>2020-12-05T09:20:38.000Z</Time>
            <Position>
              <LatitudeDegrees>36.81606237776577472686767578125</LatitudeDegrees>
              <LongitudeDegrees>-4.3779986165463924407958984375</LongitudeDegrees>
            </Position>
            <AltitudeMeters>828.79998779296875</AltitudeMeters>
            <DistanceMeters>NAN</DistanceMeters>
          </Trackpoint>
          <Trackpoint>
            <Time>2020-12-05T09:20:39.000Z</Time>
            <Position>
              <LatitudeDegrees>36.8160658143460750579833984375</LatitudeDegrees>
              <LongitudeDegrees>-4.37801362015306949615478515625</LongitudeDegrees>
            </Position>
            <AltitudeMeters>828.79998779296875</AltitudeMeters>
            <DistanceMeters>NAN</DistanceMeters>
          </Trackpoint>
          <Trackpoint>
            <Time>2020-12-05T09:20:40.000Z</Time>
            <Position>
              <LatitudeDegrees>36.816068328917026519775390625</LatitudeDegrees>
              <LongitudeDegrees>-4.3780289590358734130859375</LongitudeDegrees>
            </Position>
            <AltitudeMeters>828.5999755859375</AltitudeMeters>
            <DistanceMeters>NAN</DistanceMeters>
          </Trackpoint>
          <Trackpoint>
            <Time>2020-12-05T09:20:41.000Z</Time>
            <Position>
              <LatitudeDegrees>36.8160664848983287811279296875</LatitudeDegrees>
              <LongitudeDegrees>-4.37804329209029674530029296875</LongitudeDegrees>
            </Position>
            <AltitudeMeters>828.5999755859375</AltitudeMeters>
            <DistanceMeters>NAN</DistanceMeters>
          </Trackpoint>
          <Trackpoint>
            <Time>2020-12-05T09:20:42.000Z</Time>
            <Position>
              <LatitudeDegrees>36.81605994701385498046875</LatitudeDegrees>
              <LongitudeDegrees>-4.37805821187794208526611328125</LongitudeDegrees>
            </Position>
            <AltitudeMeters>828.5999755859375</AltitudeMeters>
            <DistanceMeters>NAN</DistanceMeters>
          </Trackpoint>
          <Trackpoint>
            <Time>2020-12-05T09:20:43.000Z</Time>
            <Position>
              <LatitudeDegrees>36.8160507269203662872314453125</LatitudeDegrees>
              <LongitudeDegrees>-4.3780747242271900177001953125</LongitudeDegrees>
            </Position>
            <AltitudeMeters>828.5999755859375</AltitudeMeters>
            <DistanceMeters>NAN</DistanceMeters>
          </Trackpoint>
          <Trackpoint>
            <Time>2020-12-05T09:20:44.000Z</Time>
            <Position>
              <LatitudeDegrees>36.816043853759765625</LatitudeDegrees>
              <LongitudeDegrees>-4.37808520160615444183349609375</LongitudeDegrees>
            </Position>
            <AltitudeMeters>828.5999755859375</AltitudeMeters>
            <DistanceMeters>NAN</DistanceMeters>
          </Trackpoint>
          <Trackpoint>
            <Time>2020-12-05T09:20:45.000Z</Time>
            <Position>
              <LatitudeDegrees>36.81603672914206981658935546875</LatitudeDegrees>
              <LongitudeDegrees>-4.37809173949062824249267578125</LongitudeDegrees>
            </Position>
            <AltitudeMeters>828.5999755859375</AltitudeMeters>
            <DistanceMeters>NAN</DistanceMeters>
          </Trackpoint>
          <Trackpoint>
            <Time>2020-12-05T09:20:46.000Z</Time>
            <Position>
              <LatitudeDegrees>36.8160296045243740081787109375</LatitudeDegrees>
              <LongitudeDegrees>-4.37809978611767292022705078125</LongitudeDegrees>
            </Position>
            <AltitudeMeters>828.5999755859375</AltitudeMeters>
            <DistanceMeters>NAN</DistanceMeters>
          </Trackpoint>
          <Trackpoint>
            <Time>2020-12-05T09:20:47.000Z</Time>
            <Position>
              <LatitudeDegrees>36.81602264754474163055419921875</LatitudeDegrees>
              <LongitudeDegrees>-4.378113113343715667724609375</LongitudeDegrees>
            </Position>
            <AltitudeMeters>829</AltitudeMeters>
            <DistanceMeters>NAN</DistanceMeters>
          </Trackpoint>
          <Trackpoint>
            <Time>2020-12-05T09:20:48.000Z</Time>
            <Position>
              <LatitudeDegrees>36.81601879186928272247314453125</LatitudeDegrees>
              <LongitudeDegrees>-4.37813012860715389251708984375</LongitudeDegrees>
            </Position>
            <AltitudeMeters>829.20001220703125</AltitudeMeters>
            <DistanceMeters>NAN</DistanceMeters>
          </Trackpoint>
          <Trackpoint>
            <Time>2020-12-05T09:20:49.000Z</Time>
            <Position>
              <LatitudeDegrees>36.81601728312671184539794921875</LatitudeDegrees>
              <LongitudeDegrees>-4.378145970404148101806640625</LongitudeDegrees>
            </Position>
            <AltitudeMeters>829.4000244140625</AltitudeMeters>
            <DistanceMeters>NAN</DistanceMeters>
          </Trackpoint>
          <Trackpoint>
            <Time>2020-12-05T09:20:50.000Z</Time>
            <Position>
              <LatitudeDegrees>36.81601409800350666046142578125</LatitudeDegrees>
              <LongitudeDegrees>-4.378162063658237457275390625</LongitudeDegrees>
            </Position>
            <AltitudeMeters>829.4000244140625</AltitudeMeters>
            <DistanceMeters>NAN</DistanceMeters>
          </Trackpoint>
          <Trackpoint>
            <Time>2020-12-05T09:20:51.000Z</Time>
            <Position>
              <LatitudeDegrees>36.81601309217512607574462890625</LatitudeDegrees>
              <LongitudeDegrees>-4.37817522324621677398681640625</LongitudeDegrees>
            </Position>
            <AltitudeMeters>829.4000244140625</AltitudeMeters>
            <DistanceMeters>NAN</DistanceMeters>
          </Trackpoint>
          <Trackpoint>
            <Time>2020-12-05T09:20:52.000Z</Time>
            <Position>
              <LatitudeDegrees>36.81601275689899921417236328125</LatitudeDegrees>
              <LongitudeDegrees>-4.3781872093677520751953125</LongitudeDegrees>
            </Position>
            <AltitudeMeters>829.4000244140625</AltitudeMeters>
            <DistanceMeters>NAN</DistanceMeters>
          </Trackpoint>
          <Trackpoint>
            <Time>2020-12-05T09:20:53.000Z</Time>
            <Position>
              <LatitudeDegrees>36.81601108051836490631103515625</LatitudeDegrees>
              <LongitudeDegrees>-4.3781984411180019378662109375</LongitudeDegrees>
            </Position>
            <AltitudeMeters>829.5999755859375</AltitudeMeters>
            <DistanceMeters>NAN</DistanceMeters>
          </Trackpoint>
          <Trackpoint>
            <Time>2020-12-05T09:20:54.000Z</Time>
            <Position>
              <LatitudeDegrees>36.8160098232328891754150390625</LatitudeDegrees>
              <LongitudeDegrees>-4.37821201980113983154296875</LongitudeDegrees>
            </Position>
            <AltitudeMeters>829.5999755859375</AltitudeMeters>
            <DistanceMeters>NAN</DistanceMeters>
          </Trackpoint>
          <Trackpoint>
            <Time>2020-12-05T09:20:55.000Z</Time>
            <Position>
              <LatitudeDegrees>36.8160088174045085906982421875</LatitudeDegrees>
              <LongitudeDegrees>-4.37822467647492885589599609375</LongitudeDegrees>
            </Position>
            <AltitudeMeters>829.5999755859375</AltitudeMeters>
            <DistanceMeters>NAN</DistanceMeters>
          </Trackpoint>
          <Trackpoint>
            <Time>2020-12-05T09:20:56.000Z</Time>
            <Position>
              <LatitudeDegrees>36.8160094879567623138427734375</LatitudeDegrees>
              <LongitudeDegrees>-4.3782393448054790496826171875</LongitudeDegrees>
            </Position>
            <AltitudeMeters>829.79998779296875</AltitudeMeters>
            <DistanceMeters>NAN</DistanceMeters>
          </Trackpoint>
          <Trackpoint>
            <Time>2020-12-05T09:20:57.000Z</Time>
            <Position>
              <LatitudeDegrees>36.8160091526806354522705078125</LatitudeDegrees>
              <LongitudeDegrees>-4.37825468368828296661376953125</LongitudeDegrees>
            </Position>
            <AltitudeMeters>829.79998779296875</AltitudeMeters>
            <DistanceMeters>NAN</DistanceMeters>
          </Trackpoint>
          <Trackpoint>
            <Time>2020-12-05T09:20:58.000Z</Time>
            <Position>
              <LatitudeDegrees>36.81601342745125293731689453125</LatitudeDegrees>
              <LongitudeDegrees>-4.378269352018833160400390625</LongitudeDegrees>
            </Position>
            <AltitudeMeters>829.5999755859375</AltitudeMeters>
            <DistanceMeters>NAN</DistanceMeters>
          </Trackpoint>
          <Trackpoint>
            <Time>2020-12-05T09:20:59.000Z</Time>
            <Position>
              <LatitudeDegrees>36.81602038443088531494140625</LatitudeDegrees>
              <LongitudeDegrees>-4.37828485853970050811767578125</LongitudeDegrees>
            </Position>
            <AltitudeMeters>829.5999755859375</AltitudeMeters>
            <DistanceMeters>NAN</DistanceMeters>
          </Trackpoint>
          <Trackpoint>
            <Time>2020-12-05T09:21:00.000Z</Time>
            <Position>
              <LatitudeDegrees>36.81602600030601024627685546875</LatitudeDegrees>
              <LongitudeDegrees>-4.378301538527011871337890625</LongitudeDegrees>
            </Position>
            <AltitudeMeters>829.4000244140625</AltitudeMeters>
            <DistanceMeters>NAN</DistanceMeters>
          </Trackpoint>
          <Trackpoint>
            <Time>2020-12-05T09:21:01.000Z</Time>
            <Position>
              <LatitudeDegrees>36.81603170000016689300537109375</LatitudeDegrees>
              <LongitudeDegrees>-4.37832064926624298095703125</LongitudeDegrees>
            </Position>
            <AltitudeMeters>829.20001220703125</AltitudeMeters>
            <DistanceMeters>NAN</DistanceMeters>
          </Trackpoint>
          <Trackpoint>
            <Time>2020-12-05T09:21:02.000Z</Time>
            <Position>
              <LatitudeDegrees>36.8160403333604335784912109375</LatitudeDegrees>
              <LongitudeDegrees>-4.37834034673869609832763671875</LongitudeDegrees>
            </Position>
            <AltitudeMeters>829</AltitudeMeters>
            <DistanceMeters>NAN</DistanceMeters>
          </Trackpoint>
          <Trackpoint>
            <Time>2020-12-05T09:21:03.000Z</Time>
            <Position>
              <LatitudeDegrees>36.8160530738532543182373046875</LatitudeDegrees>
              <LongitudeDegrees>-4.378359876573085784912109375</LongitudeDegrees>
            </Position>
            <AltitudeMeters>829</AltitudeMeters>
            <DistanceMeters>NAN</DistanceMeters>
          </Trackpoint>
          <Trackpoint>
            <Time>2020-12-05T09:21:04.000Z</Time>
            <Position>
              <LatitudeDegrees>36.81606975384056568145751953125</LatitudeDegrees>
              <LongitudeDegrees>-4.37837806530296802520751953125</LongitudeDegrees>
            </Position>
            <AltitudeMeters>829</AltitudeMeters>
            <DistanceMeters>NAN</DistanceMeters>
          </Trackpoint>
          <Trackpoint>
            <Time>2020-12-05T09:21:05.000Z</Time>
            <Position>
              <LatitudeDegrees>36.81608140468597412109375</LatitudeDegrees>
              <LongitudeDegrees>-4.3783935718238353729248046875</LongitudeDegrees>
            </Position>
            <AltitudeMeters>829</AltitudeMeters>
            <DistanceMeters>NAN</DistanceMeters>
          </Trackpoint>
          <Trackpoint>
            <Time>2020-12-05T09:21:06.000Z</Time>
            <Position>
              <LatitudeDegrees>36.81608970277011394500732421875</LatitudeDegrees>
              <LongitudeDegrees>-4.3784086592495441436767578125</LongitudeDegrees>
            </Position>
            <AltitudeMeters>829</AltitudeMeters>
            <DistanceMeters>NAN</DistanceMeters>
          </Trackpoint>
          <Trackpoint>
            <Time>2020-12-05T09:21:07.000Z</Time>
            <Position>
              <LatitudeDegrees>36.8161000125110149383544921875</LatitudeDegrees>
              <LongitudeDegrees>-4.37841896899044513702392578125</LongitudeDegrees>
            </Position>
            <AltitudeMeters>828.79998779296875</AltitudeMeters>
            <DistanceMeters>NAN</DistanceMeters>
          </Trackpoint>
          <Trackpoint>
            <Time>2020-12-05T09:21:08.000Z</Time>
            <Position>
              <LatitudeDegrees>36.81611233390867710113525390625</LatitudeDegrees>
              <LongitudeDegrees>-4.37843305058777332305908203125</LongitudeDegrees>
            </Position>
            <AltitudeMeters>828.79998779296875</AltitudeMeters>
            <DistanceMeters>NAN</DistanceMeters>
          </Trackpoint>
          <Trackpoint>
            <Time>2020-12-05T09:21:09.000Z</Time>
            <Position>
              <LatitudeDegrees>36.8161234818398952484130859375</LatitudeDegrees>
              <LongitudeDegrees>-4.3784431926906108856201171875</LongitudeDegrees>
            </Position>
            <AltitudeMeters>828.4000244140625</AltitudeMeters>
            <DistanceMeters>NAN</DistanceMeters>
          </Trackpoint>
          <Trackpoint>
            <Time>2020-12-05T09:21:10.000Z</Time>
            <Position>
              <LatitudeDegrees>36.8161342106759548187255859375</LatitudeDegrees>
              <LongitudeDegrees>-4.37844914384186267852783203125</LongitudeDegrees>
            </Position>
            <AltitudeMeters>828</AltitudeMeters>
            <DistanceMeters>NAN</DistanceMeters>
          </Trackpoint>
          <Trackpoint>
            <Time>2020-12-05T09:21:11.000Z</Time>
            <Position>
              <LatitudeDegrees>36.8161429278552532196044921875</LatitudeDegrees>
              <LongitudeDegrees>-4.378457106649875640869140625</LongitudeDegrees>
            </Position>
            <AltitudeMeters>827.79998779296875</AltitudeMeters>
            <DistanceMeters>NAN</DistanceMeters>
          </Trackpoint>
          <Trackpoint>
            <Time>2020-12-05T09:21:12.000Z</Time>
            <Position>
              <LatitudeDegrees>36.81615491397678852081298828125</LatitudeDegrees>
              <LongitudeDegrees>-4.3784659914672374725341796875</LongitudeDegrees>
            </Position>
            <AltitudeMeters>827.5999755859375</AltitudeMeters>
            <DistanceMeters>NAN</DistanceMeters>
          </Trackpoint>
          <Trackpoint>
            <Time>2020-12-05T09:21:13.000Z</Time>
            <Position>
              <LatitudeDegrees>36.81616882793605327606201171875</LatitudeDegrees>
              <LongitudeDegrees>-4.37847563065588474273681640625</LongitudeDegrees>
            </Position>
            <AltitudeMeters>827.5999755859375</AltitudeMeters>
            <DistanceMeters>NAN</DistanceMeters>
          </Trackpoint>
          <Trackpoint>
            <Time>2020-12-05T09:21:14.000Z</Time>
            <Position>
              <LatitudeDegrees>36.8161801435053348541259765625</LatitudeDegrees>
              <LongitudeDegrees>-4.3784807436168193817138671875</LongitudeDegrees>
            </Position>
            <AltitudeMeters>827.5999755859375</AltitudeMeters>
            <DistanceMeters>NAN</DistanceMeters>
          </Trackpoint>
          <Trackpoint>
            <Time>2020-12-05T09:21:15.000Z</Time>
            <Position>
              <LatitudeDegrees>36.8161918781697750091552734375</LatitudeDegrees>
              <LongitudeDegrees>-4.3784864433109760284423828125</LongitudeDegrees>
            </Position>
            <AltitudeMeters>827.5999755859375</AltitudeMeters>
            <DistanceMeters>NAN</DistanceMeters>
          </Trackpoint>
          <Trackpoint>
            <Time>2020-12-05T09:21:16.000Z</Time>
            <Position>
              <LatitudeDegrees>36.8162042833864688873291015625</LatitudeDegrees>
              <LongitudeDegrees>-4.37849155627191066741943359375</LongitudeDegrees>
            </Position>
            <AltitudeMeters>827.79998779296875</AltitudeMeters>
            <DistanceMeters>NAN</DistanceMeters>
          </Trackpoint>
          <Trackpoint>
            <Time>2020-12-05T09:21:17.000Z</Time>
            <Position>
              <LatitudeDegrees>36.81621660478413105010986328125</LatitudeDegrees>
              <LongitudeDegrees>-4.378495998680591583251953125</LongitudeDegrees>
            </Position>
            <AltitudeMeters>827.79998779296875</AltitudeMeters>
            <DistanceMeters>NAN</DistanceMeters>
          </Trackpoint>
          <Trackpoint>
            <Time>2020-12-05T09:21:18.000Z</Time>
            <Position>
              <LatitudeDegrees>36.81623437441885471343994140625</LatitudeDegrees>
              <LongitudeDegrees>-4.37849809415638446807861328125</LongitudeDegrees>
            </Position>
            <AltitudeMeters>828</AltitudeMeters>
            <DistanceMeters>NAN</DistanceMeters>
          </Trackpoint>
          <Trackpoint>
            <Time>2020-12-05T09:21:19.000Z</Time>
            <Position>
              <LatitudeDegrees>36.8162515573203563690185546875</LatitudeDegrees>
              <LongitudeDegrees>-4.3785018660128116607666015625</LongitudeDegrees>
            </Position>
            <AltitudeMeters>828</AltitudeMeters>
            <DistanceMeters>NAN</DistanceMeters>
          </Trackpoint>
          <Trackpoint>
            <Time>2020-12-05T09:21:20.000Z</Time>
            <Position>
              <LatitudeDegrees>36.81626589037477970123291015625</LatitudeDegrees>
              <LongitudeDegrees>-4.37850848771631717681884765625</LongitudeDegrees>
            </Position>
            <AltitudeMeters>828</AltitudeMeters>
            <DistanceMeters>NAN</DistanceMeters>
          </Trackpoint>
          <Trackpoint>
            <Time>2020-12-05T09:21:21.000Z</Time>
            <Position>
              <LatitudeDegrees>36.816280893981456756591796875</LatitudeDegrees>
              <LongitudeDegrees>-4.378514103591442108154296875</LongitudeDegrees>
            </Position>
            <AltitudeMeters>828</AltitudeMeters>
            <DistanceMeters>NAN</DistanceMeters>
          </Trackpoint>
          <Trackpoint>
            <Time>2020-12-05T09:21:22.000Z</Time>
            <Position>
              <LatitudeDegrees>36.81629807688295841217041015625</LatitudeDegrees>
              <LongitudeDegrees>-4.37851787544786930084228515625</LongitudeDegrees>
            </Position>
            <AltitudeMeters>828</AltitudeMeters>
            <DistanceMeters>NAN</DistanceMeters>
          </Trackpoint>
          <Trackpoint>
            <Time>2020-12-05T09:21:23.000Z</Time>
            <Position>
              <LatitudeDegrees>36.81631567887961864471435546875</LatitudeDegrees>
              <LongitudeDegrees>-4.37852106057107448577880859375</LongitudeDegrees>
            </Position>
            <AltitudeMeters>828.20001220703125</AltitudeMeters>
            <DistanceMeters>NAN</DistanceMeters>
          </Trackpoint>
          <Trackpoint>
            <Time>2020-12-05T09:21:24.000Z</Time>
            <Position>
              <LatitudeDegrees>36.816333867609500885009765625</LatitudeDegrees>
              <LongitudeDegrees>-4.3785198032855987548828125</LongitudeDegrees>
            </Position>
            <AltitudeMeters>828.20001220703125</AltitudeMeters>
            <DistanceMeters>NAN</DistanceMeters>
          </Trackpoint>
          <Trackpoint>
            <Time>2020-12-05T09:21:25.000Z</Time>
            <Position>
              <LatitudeDegrees>36.81634753011167049407958984375</LatitudeDegrees>
              <LongitudeDegrees>-4.3785206414759159088134765625</LongitudeDegrees>
            </Position>
            <AltitudeMeters>828.20001220703125</AltitudeMeters>
            <DistanceMeters>NAN</DistanceMeters>
          </Trackpoint>
          <Trackpoint>
            <Time>2020-12-05T09:21:26.000Z</Time>
            <Position>
              <LatitudeDegrees>36.81635524146258831024169921875</LatitudeDegrees>
              <LongitudeDegrees>-4.37852374278008937835693359375</LongitudeDegrees>
            </Position>
            <AltitudeMeters>828.20001220703125</AltitudeMeters>
            <DistanceMeters>NAN</DistanceMeters>
          </Trackpoint>
          <Trackpoint>
            <Time>2020-12-05T09:21:27.000Z</Time>
            <Position>
              <LatitudeDegrees>36.81636261753737926483154296875</LatitudeDegrees>
              <LongitudeDegrees>-4.37852558679878711700439453125</LongitudeDegrees>
            </Position>
            <AltitudeMeters>828</AltitudeMeters>
            <DistanceMeters>NAN</DistanceMeters>
          </Trackpoint>
          <Trackpoint>
            <Time>2020-12-05T09:21:28.000Z</Time>
            <Position>
              <LatitudeDegrees>36.816368736326694488525390625</LatitudeDegrees>
              <LongitudeDegrees>-4.378525502979755401611328125</LongitudeDegrees>
            </Position>
            <AltitudeMeters>828</AltitudeMeters>
            <DistanceMeters>NAN</DistanceMeters>
          </Trackpoint>
          <Trackpoint>
            <Time>2020-12-05T09:21:29.000Z</Time>
            <Position>
              <LatitudeDegrees>36.81637787260115146636962890625</LatitudeDegrees>
              <LongitudeDegrees>-4.3785250000655651092529296875</LongitudeDegrees>
            </Position>
            <AltitudeMeters>827.79998779296875</AltitudeMeters>
            <DistanceMeters>NAN</DistanceMeters>
          </Trackpoint>
          <Trackpoint>
            <Time>2020-12-05T09:21:30.000Z</Time>
            <Position>
              <LatitudeDegrees>36.81638893671333789825439453125</LatitudeDegrees>
              <LongitudeDegrees>-4.37852592207491397857666015625</LongitudeDegrees>
            </Position>
            <AltitudeMeters>827.79998779296875</AltitudeMeters>
            <DistanceMeters>NAN</DistanceMeters>
          </Trackpoint>
          <Trackpoint>
            <Time>2020-12-05T09:21:31.000Z</Time>
            <Position>
              <LatitudeDegrees>36.81639933027327060699462890625</LatitudeDegrees>
              <LongitudeDegrees>-4.37852726317942142486572265625</LongitudeDegrees>
            </Position>
            <AltitudeMeters>827.5999755859375</AltitudeMeters>
            <DistanceMeters>NAN</DistanceMeters>
          </Trackpoint>
          <Trackpoint>
            <Time>2020-12-05T09:21:32.000Z</Time>
            <Position>
              <LatitudeDegrees>36.816407628357410430908203125</LatitudeDegrees>
              <LongitudeDegrees>-4.3785313703119754791259765625</LongitudeDegrees>
            </Position>
            <AltitudeMeters>827.5999755859375</AltitudeMeters>
            <DistanceMeters>NAN</DistanceMeters>
          </Trackpoint>
          <Trackpoint>
            <Time>2020-12-05T09:21:33.000Z</Time>
            <Position>
              <LatitudeDegrees>36.81641642935574054718017578125</LatitudeDegrees>
              <LongitudeDegrees>-4.37853564508259296417236328125</LongitudeDegrees>
            </Position>
            <AltitudeMeters>827.5999755859375</AltitudeMeters>
            <DistanceMeters>NAN</DistanceMeters>
          </Trackpoint>
          <Trackpoint>
            <Time>2020-12-05T09:21:34.000Z</Time>
            <Position>
              <LatitudeDegrees>36.81642539799213409423828125</LatitudeDegrees>
              <LongitudeDegrees>-4.37854017131030559539794921875</LongitudeDegrees>
            </Position>
            <AltitudeMeters>827.5999755859375</AltitudeMeters>
            <DistanceMeters>NAN</DistanceMeters>
          </Trackpoint>
          <Trackpoint>
            <Time>2020-12-05T09:21:35.000Z</Time>
            <Position>
              <LatitudeDegrees>36.8164332769811153411865234375</LatitudeDegrees>
              <LongitudeDegrees>-4.37854754738509654998779296875</LongitudeDegrees>
            </Position>
            <AltitudeMeters>827.5999755859375</AltitudeMeters>
            <DistanceMeters>NAN</DistanceMeters>
          </Trackpoint>
          <Trackpoint>
            <Time>2020-12-05T09:21:36.000Z</Time>
            <Position>
              <LatitudeDegrees>36.81644274853169918060302734375</LatitudeDegrees>
              <LongitudeDegrees>-4.37855509109795093536376953125</LongitudeDegrees>
            </Position>
            <AltitudeMeters>827.5999755859375</AltitudeMeters>
            <DistanceMeters>NAN</DistanceMeters>
          </Trackpoint>
          <Trackpoint>
            <Time>2020-12-05T09:21:37.000Z</Time>
            <Position>
              <LatitudeDegrees>36.81645113043487071990966796875</LatitudeDegrees>
              <LongitudeDegrees>-4.37856229953467845916748046875</LongitudeDegrees>
            </Position>
            <AltitudeMeters>827.5999755859375</AltitudeMeters>
            <DistanceMeters>NAN</DistanceMeters>
          </Trackpoint>
          <Trackpoint>
            <Time>2020-12-05T09:21:38.000Z</Time>
            <Position>
              <LatitudeDegrees>36.8164570815861225128173828125</LatitudeDegrees>
              <LongitudeDegrees>-4.3785679154098033905029296875</LongitudeDegrees>
            </Position>
            <AltitudeMeters>827.5999755859375</AltitudeMeters>
            <DistanceMeters>NAN</DistanceMeters>
          </Trackpoint>
          <Trackpoint>
            <Time>2020-12-05T09:21:39.000Z</Time>
            <Position>
              <LatitudeDegrees>36.81645934469997882843017578125</LatitudeDegrees>
              <LongitudeDegrees>-4.37857487238943576812744140625</LongitudeDegrees>
            </Position>
            <AltitudeMeters>827.5999755859375</AltitudeMeters>
            <DistanceMeters>NAN</DistanceMeters>
          </Trackpoint>
          <Trackpoint>
            <Time>2020-12-05T09:21:40.000Z</Time>
            <Position>
              <LatitudeDegrees>36.816459260880947113037109375</LatitudeDegrees>
              <LongitudeDegrees>-4.37858560122549533843994140625</LongitudeDegrees>
            </Position>
            <AltitudeMeters>827.5999755859375</AltitudeMeters>
            <DistanceMeters>NAN</DistanceMeters>
          </Trackpoint>
          <Trackpoint>
            <Time>2020-12-05T09:21:41.000Z</Time>
            <Position>
              <LatitudeDegrees>36.8164617754518985748291015625</LatitudeDegrees>
              <LongitudeDegrees>-4.37859498895704746246337890625</LongitudeDegrees>
            </Position>
            <AltitudeMeters>827.5999755859375</AltitudeMeters>
            <DistanceMeters>NAN</DistanceMeters>
          </Trackpoint>
          <Trackpoint>
            <Time>2020-12-05T09:21:42.000Z</Time>
            <Position>
              <LatitudeDegrees>36.81645984761416912078857421875</LatitudeDegrees>
              <LongitudeDegrees>-4.37860940583050251007080078125</LongitudeDegrees>
            </Position>
            <AltitudeMeters>827.4000244140625</AltitudeMeters>
            <DistanceMeters>NAN</DistanceMeters>
          </Trackpoint>
          <Trackpoint>
            <Time>2020-12-05T09:21:43.000Z</Time>
            <Position>
              <LatitudeDegrees>36.81646102108061313629150390625</LatitudeDegrees>
              <LongitudeDegrees>-4.3786232359707355499267578125</LongitudeDegrees>
            </Position>
            <AltitudeMeters>827.4000244140625</AltitudeMeters>
            <DistanceMeters>NAN</DistanceMeters>
          </Trackpoint>
          <Trackpoint>
            <Time>2020-12-05T09:21:44.000Z</Time>
            <Position>
              <LatitudeDegrees>36.816463284194469451904296875</LatitudeDegrees>
              <LongitudeDegrees>-4.378639161586761474609375</LongitudeDegrees>
            </Position>
            <AltitudeMeters>827.20001220703125</AltitudeMeters>
            <DistanceMeters>NAN</DistanceMeters>
          </Trackpoint>
          <Trackpoint>
            <Time>2020-12-05T09:21:45.000Z</Time>
            <Position>
              <LatitudeDegrees>36.81646403856575489044189453125</LatitudeDegrees>
              <LongitudeDegrees>-4.37865324318408966064453125</LongitudeDegrees>
            </Position>
            <AltitudeMeters>827.20001220703125</AltitudeMeters>
            <DistanceMeters>NAN</DistanceMeters>
          </Trackpoint>
          <Trackpoint>
            <Time>2020-12-05T09:21:46.000Z</Time>
            <Position>
              <LatitudeDegrees>36.81646521203219890594482421875</LatitudeDegrees>
              <LongitudeDegrees>-4.3786668218672275543212890625</LongitudeDegrees>
            </Position>
            <AltitudeMeters>827.20001220703125</AltitudeMeters>
            <DistanceMeters>NAN</DistanceMeters>
          </Trackpoint>
          <Trackpoint>
            <Time>2020-12-05T09:21:47.000Z</Time>
            <Position>
              <LatitudeDegrees>36.8164644576609134674072265625</LatitudeDegrees>
              <LongitudeDegrees>-4.3786780536174774169921875</LongitudeDegrees>
            </Position>
            <AltitudeMeters>827.20001220703125</AltitudeMeters>
            <DistanceMeters>NAN</DistanceMeters>
          </Trackpoint>
          <Trackpoint>
            <Time>2020-12-05T09:21:48.000Z</Time>
            <Position>
              <LatitudeDegrees>36.81646470911800861358642578125</LatitudeDegrees>
              <LongitudeDegrees>-4.37868920154869556427001953125</LongitudeDegrees>
            </Position>
            <AltitudeMeters>827.4000244140625</AltitudeMeters>
            <DistanceMeters>NAN</DistanceMeters>
          </Trackpoint>
          <Trackpoint>
            <Time>2020-12-05T09:21:49.000Z</Time>
            <Position>
              <LatitudeDegrees>36.81646537967026233673095703125</LatitudeDegrees>
              <LongitudeDegrees>-4.37869976274669170379638671875</LongitudeDegrees>
            </Position>
            <AltitudeMeters>827.4000244140625</AltitudeMeters>
            <DistanceMeters>NAN</DistanceMeters>
          </Trackpoint>
          <Trackpoint>
            <Time>2020-12-05T09:21:50.000Z</Time>
            <Position>
              <LatitudeDegrees>36.81646470911800861358642578125</LatitudeDegrees>
              <LongitudeDegrees>-4.3787130899727344512939453125</LongitudeDegrees>
            </Position>
            <AltitudeMeters>827.5999755859375</AltitudeMeters>
            <DistanceMeters>NAN</DistanceMeters>
          </Trackpoint>
          <Trackpoint>
            <Time>2020-12-05T09:21:51.000Z</Time>
            <Position>
              <LatitudeDegrees>36.81646429002285003662109375</LatitudeDegrees>
              <LongitudeDegrees>-4.37872708775103092193603515625</LongitudeDegrees>
            </Position>
            <AltitudeMeters>827.5999755859375</AltitudeMeters>
            <DistanceMeters>NAN</DistanceMeters>
          </Trackpoint>
          <Trackpoint>
            <Time>2020-12-05T09:21:52.000Z</Time>
            <Position>
              <LatitudeDegrees>36.81646429002285003662109375</LatitudeDegrees>
              <LongitudeDegrees>-4.37874133698642253875732421875</LongitudeDegrees>
            </Position>
            <AltitudeMeters>827.79998779296875</AltitudeMeters>
            <DistanceMeters>NAN</DistanceMeters>
          </Trackpoint>
          <Trackpoint>
            <Time>2020-12-05T09:21:53.000Z</Time>
            <Position>
              <LatitudeDegrees>36.8164671398699283599853515625</LatitudeDegrees>
              <LongitudeDegrees>-4.378756843507289886474609375</LongitudeDegrees>
            </Position>
            <AltitudeMeters>827.79998779296875</AltitudeMeters>
            <DistanceMeters>NAN</DistanceMeters>
          </Trackpoint>
          <Trackpoint>
            <Time>2020-12-05T09:21:54.000Z</Time>
            <Position>
              <LatitudeDegrees>36.8164731748402118682861328125</LatitudeDegrees>
              <LongitudeDegrees>-4.37877452932298183441162109375</LongitudeDegrees>
            </Position>
            <AltitudeMeters>828</AltitudeMeters>
            <DistanceMeters>NAN</DistanceMeters>
          </Trackpoint>
          <Trackpoint>
            <Time>2020-12-05T09:21:55.000Z</Time>
            <Position>
              <LatitudeDegrees>36.8164845742285251617431640625</LatitudeDegrees>
              <LongitudeDegrees>-4.378796406090259552001953125</LongitudeDegrees>
            </Position>
            <AltitudeMeters>828</AltitudeMeters>
            <DistanceMeters>NAN</DistanceMeters>
          </Trackpoint>
          <Trackpoint>
            <Time>2020-12-05T09:21:56.000Z</Time>
            <Position>
              <LatitudeDegrees>36.8164939619600772857666015625</LatitudeDegrees>
              <LongitudeDegrees>-4.37881425954401493072509765625</LongitudeDegrees>
            </Position>
            <AltitudeMeters>828</AltitudeMeters>
            <DistanceMeters>NAN</DistanceMeters>
          </Trackpoint>
          <Trackpoint>
            <Time>2020-12-05T09:21:57.000Z</Time>
            <Position>
              <LatitudeDegrees>36.8164984881877899169921875</LatitudeDegrees>
              <LongitudeDegrees>-4.3788317777216434478759765625</LongitudeDegrees>
            </Position>
            <AltitudeMeters>828</AltitudeMeters>
            <DistanceMeters>NAN</DistanceMeters>
          </Trackpoint>
          <Trackpoint>
            <Time>2020-12-05T09:21:58.000Z</Time>
            <Position>
              <LatitudeDegrees>36.81650024838745594024658203125</LatitudeDegrees>
              <LongitudeDegrees>-4.37885080464184284210205078125</LongitudeDegrees>
            </Position>
            <AltitudeMeters>827.79998779296875</AltitudeMeters>
            <DistanceMeters>NAN</DistanceMeters>
          </Trackpoint>
          <Trackpoint>
            <Time>2020-12-05T09:21:59.000Z</Time>
            <Position>
              <LatitudeDegrees>36.81650309823453426361083984375</LatitudeDegrees>
              <LongitudeDegrees>-4.37886941246688365936279296875</LongitudeDegrees>
            </Position>
            <AltitudeMeters>827.79998779296875</AltitudeMeters>
            <DistanceMeters>NAN</DistanceMeters>
          </Trackpoint>
          <Trackpoint>
            <Time>2020-12-05T09:22:00.000Z</Time>
            <Position>
              <LatitudeDegrees>36.81650712154805660247802734375</LatitudeDegrees>
              <LongitudeDegrees>-4.378885589540004730224609375</LongitudeDegrees>
            </Position>
            <AltitudeMeters>827.79998779296875</AltitudeMeters>
            <DistanceMeters>NAN</DistanceMeters>
          </Trackpoint>
          <Trackpoint>
            <Time>2020-12-05T09:22:01.000Z</Time>
            <Position>
              <LatitudeDegrees>36.81651215068995952606201171875</LatitudeDegrees>
              <LongitudeDegrees>-4.37890109606087207794189453125</LongitudeDegrees>
            </Position>
            <AltitudeMeters>827.4000244140625</AltitudeMeters>
            <DistanceMeters>NAN</DistanceMeters>
          </Trackpoint>
          <Trackpoint>
            <Time>2020-12-05T09:22:02.000Z</Time>
            <Position>
              <LatitudeDegrees>36.816514246165752410888671875</LatitudeDegrees>
              <LongitudeDegrees>-4.3789119087159633636474609375</LongitudeDegrees>
            </Position>
            <AltitudeMeters>827.4000244140625</AltitudeMeters>
            <DistanceMeters>NAN</DistanceMeters>
          </Trackpoint>
          <Trackpoint>
            <Time>2020-12-05T09:22:03.000Z</Time>
            <Position>
              <LatitudeDegrees>36.81651650927960872650146484375</LatitudeDegrees>
              <LongitudeDegrees>-4.37892070971429347991943359375</LongitudeDegrees>
            </Position>
            <AltitudeMeters>827.20001220703125</AltitudeMeters>
            <DistanceMeters>NAN</DistanceMeters>
          </Trackpoint>
          <Trackpoint>
            <Time>2020-12-05T09:22:04.000Z</Time>
            <Position>
              <LatitudeDegrees>36.8165181018412113189697265625</LatitudeDegrees>
              <LongitudeDegrees>-4.3789293430745601654052734375</LongitudeDegrees>
            </Position>
            <AltitudeMeters>826.79998779296875</AltitudeMeters>
            <DistanceMeters>NAN</DistanceMeters>
          </Trackpoint>
          <Trackpoint>
            <Time>2020-12-05T09:22:05.000Z</Time>
            <Position>
              <LatitudeDegrees>36.8165191076695919036865234375</LatitudeDegrees>
              <LongitudeDegrees>-4.37893730588257312774658203125</LongitudeDegrees>
            </Position>
            <AltitudeMeters>826.79998779296875</AltitudeMeters>
            <DistanceMeters>NAN</DistanceMeters>
          </Trackpoint>
          <Trackpoint>
            <Time>2020-12-05T09:22:06.000Z</Time>
            <Position>
              <LatitudeDegrees>36.8165201134979724884033203125</LatitudeDegrees>
              <LongitudeDegrees>-4.3789430893957614898681640625</LongitudeDegrees>
            </Position>
            <AltitudeMeters>826.5999755859375</AltitudeMeters>
            <DistanceMeters>NAN</DistanceMeters>
          </Trackpoint>
          <Trackpoint>
            <Time>2020-12-05T09:22:07.000Z</Time>
            <Position>
              <LatitudeDegrees>36.81652522645890712738037109375</LatitudeDegrees>
              <LongitudeDegrees>-4.37894828617572784423828125</LongitudeDegrees>
            </Position>
            <AltitudeMeters>826.5999755859375</AltitudeMeters>
            <DistanceMeters>NAN</DistanceMeters>
          </Trackpoint>
          <Trackpoint>
            <Time>2020-12-05T09:22:08.000Z</Time>
            <Position>
              <LatitudeDegrees>36.8165306746959686279296875</LatitudeDegrees>
              <LongitudeDegrees>-4.37895608134567737579345703125</LongitudeDegrees>
            </Position>
            <AltitudeMeters>826.5999755859375</AltitudeMeters>
            <DistanceMeters>NAN</DistanceMeters>
          </Trackpoint>
          <Trackpoint>
            <Time>2020-12-05T09:22:09.000Z</Time>
            <Position>
              <LatitudeDegrees>36.8165345303714275360107421875</LatitudeDegrees>
              <LongitudeDegrees>-4.37896446324884891510009765625</LongitudeDegrees>
            </Position>
            <AltitudeMeters>826.5999755859375</AltitudeMeters>
            <DistanceMeters>NAN</DistanceMeters>
          </Trackpoint>
          <Trackpoint>
            <Time>2020-12-05T09:22:10.000Z</Time>
            <Position>
              <LatitudeDegrees>36.81653696112334728240966796875</LatitudeDegrees>
              <LongitudeDegrees>-4.3789742700755596160888671875</LongitudeDegrees>
            </Position>
            <AltitudeMeters>826.79998779296875</AltitudeMeters>
            <DistanceMeters>NAN</DistanceMeters>
          </Trackpoint>
          <Trackpoint>
            <Time>2020-12-05T09:22:11.000Z</Time>
            <Position>
              <LatitudeDegrees>36.81654383428394794464111328125</LatitudeDegrees>
              <LongitudeDegrees>-4.37898575328290462493896484375</LongitudeDegrees>
            </Position>
            <AltitudeMeters>826.79998779296875</AltitudeMeters>
            <DistanceMeters>NAN</DistanceMeters>
          </Trackpoint>
          <Trackpoint>
            <Time>2020-12-05T09:22:12.000Z</Time>
            <Position>
              <LatitudeDegrees>36.8165512941777706146240234375</LatitudeDegrees>
              <LongitudeDegrees>-4.37900302000343799591064453125</LongitudeDegrees>
            </Position>
            <AltitudeMeters>826.79998779296875</AltitudeMeters>
            <DistanceMeters>NAN</DistanceMeters>
          </Trackpoint>
          <Trackpoint>
            <Time>2020-12-05T09:22:13.000Z</Time>
            <Position>
              <LatitudeDegrees>36.81655774824321269989013671875</LatitudeDegrees>
              <LongitudeDegrees>-4.3790228851139545440673828125</LongitudeDegrees>
            </Position>
            <AltitudeMeters>826.79998779296875</AltitudeMeters>
            <DistanceMeters>NAN</DistanceMeters>
          </Trackpoint>
          <Trackpoint>
            <Time>2020-12-05T09:22:14.000Z</Time>
            <Position>
              <LatitudeDegrees>36.81656545959413051605224609375</LatitudeDegrees>
              <LongitudeDegrees>-4.3790446780622005462646484375</LongitudeDegrees>
            </Position>
            <AltitudeMeters>826.79998779296875</AltitudeMeters>
            <DistanceMeters>NAN</DistanceMeters>
          </Trackpoint>
          <Trackpoint>
            <Time>2020-12-05T09:22:15.000Z</Time>
            <Position>
              <LatitudeDegrees>36.81656948290765285491943359375</LatitudeDegrees>
              <LongitudeDegrees>-4.37906068749725818634033203125</LongitudeDegrees>
            </Position>
            <AltitudeMeters>826.5999755859375</AltitudeMeters>
            <DistanceMeters>NAN</DistanceMeters>
          </Trackpoint>
          <Trackpoint>
            <Time>2020-12-05T09:22:16.000Z</Time>
            <Position>
              <LatitudeDegrees>36.81657685898244380950927734375</LatitudeDegrees>
              <LongitudeDegrees>-4.379073344171047210693359375</LongitudeDegrees>
            </Position>
            <AltitudeMeters>826.5999755859375</AltitudeMeters>
            <DistanceMeters>NAN</DistanceMeters>
          </Trackpoint>
          <Trackpoint>
            <Time>2020-12-05T09:22:17.000Z</Time>
            <Position>
              <LatitudeDegrees>36.81658825837075710296630859375</LatitudeDegrees>
              <LongitudeDegrees>-4.37908097170293331146240234375</LongitudeDegrees>
            </Position>
            <AltitudeMeters>826.5999755859375</AltitudeMeters>
            <DistanceMeters>NAN</DistanceMeters>
          </Trackpoint>
          <Trackpoint>
            <Time>2020-12-05T09:22:18.000Z</Time>
            <Position>
              <LatitudeDegrees>36.8165982328355312347412109375</LatitudeDegrees>
              <LongitudeDegrees>-4.3790889345109462738037109375</LongitudeDegrees>
            </Position>
            <AltitudeMeters>826.79998779296875</AltitudeMeters>
            <DistanceMeters>NAN</DistanceMeters>
          </Trackpoint>
          <Trackpoint>
            <Time>2020-12-05T09:22:19.000Z</Time>
            <Position>
              <LatitudeDegrees>36.81660778820514678955078125</LatitudeDegrees>
              <LongitudeDegrees>-4.37909991480410099029541015625</LongitudeDegrees>
            </Position>
            <AltitudeMeters>826.79998779296875</AltitudeMeters>
            <DistanceMeters>NAN</DistanceMeters>
          </Trackpoint>
          <Trackpoint>
            <Time>2020-12-05T09:22:20.000Z</Time>
            <Position>
              <LatitudeDegrees>36.81661474518477916717529296875</LatitudeDegrees>
              <LongitudeDegrees>-4.37911114655435085296630859375</LongitudeDegrees>
            </Position>
            <AltitudeMeters>826.79998779296875</AltitudeMeters>
            <DistanceMeters>NAN</DistanceMeters>
          </Trackpoint>
          <Trackpoint>
            <Time>2020-12-05T09:22:21.000Z</Time>
            <Position>
              <LatitudeDegrees>36.81662262417376041412353515625</LatitudeDegrees>
              <LongitudeDegrees>-4.37911860644817352294921875</LongitudeDegrees>
            </Position>
            <AltitudeMeters>827</AltitudeMeters>
            <DistanceMeters>NAN</DistanceMeters>
          </Trackpoint>
          <Trackpoint>
            <Time>2020-12-05T09:22:22.000Z</Time>
            <Position>
              <LatitudeDegrees>36.8166334368288516998291015625</LatitudeDegrees>
              <LongitudeDegrees>-4.37912723980844020843505859375</LongitudeDegrees>
            </Position>
            <AltitudeMeters>827</AltitudeMeters>
            <DistanceMeters>NAN</DistanceMeters>
          </Trackpoint>
          <Trackpoint>
            <Time>2020-12-05T09:22:23.000Z</Time>
            <Position>
              <LatitudeDegrees>36.8166438303887844085693359375</LatitudeDegrees>
              <LongitudeDegrees>-4.37913444824516773223876953125</LongitudeDegrees>
            </Position>
            <AltitudeMeters>827.20001220703125</AltitudeMeters>
            <DistanceMeters>NAN</DistanceMeters>
          </Trackpoint>
          <Trackpoint>
            <Time>2020-12-05T09:22:24.000Z</Time>
            <Position>
              <LatitudeDegrees>36.8166535533964633941650390625</LatitudeDegrees>
              <LongitudeDegrees>-4.3791432492434978485107421875</LongitudeDegrees>
            </Position>
            <AltitudeMeters>827.20001220703125</AltitudeMeters>
            <DistanceMeters>NAN</DistanceMeters>
          </Trackpoint>
          <Trackpoint>
            <Time>2020-12-05T09:22:25.000Z</Time>
            <Position>
              <LatitudeDegrees>36.81666889227926731109619140625</LatitudeDegrees>
              <LongitudeDegrees>-4.37915104441344738006591796875</LongitudeDegrees>
            </Position>
            <AltitudeMeters>827.4000244140625</AltitudeMeters>
            <DistanceMeters>NAN</DistanceMeters>
          </Trackpoint>
          <Trackpoint>
            <Time>2020-12-05T09:22:26.000Z</Time>
            <Position>
              <LatitudeDegrees>36.8166820518672466278076171875</LatitudeDegrees>
              <LongitudeDegrees>-4.37916311435401439666748046875</LongitudeDegrees>
            </Position>
            <AltitudeMeters>827.20001220703125</AltitudeMeters>
            <DistanceMeters>NAN</DistanceMeters>
          </Trackpoint>
          <Trackpoint>
            <Time>2020-12-05T09:22:27.000Z</Time>
            <Position>
              <LatitudeDegrees>36.8166954629123210906982421875</LatitudeDegrees>
              <LongitudeDegrees>-4.37917602248489856719970703125</LongitudeDegrees>
            </Position>
            <AltitudeMeters>827.20001220703125</AltitudeMeters>
            <DistanceMeters>NAN</DistanceMeters>
          </Trackpoint>
          <Trackpoint>
            <Time>2020-12-05T09:22:28.000Z</Time>
            <Position>
              <LatitudeDegrees>36.8167075328528881072998046875</LatitudeDegrees>
              <LongitudeDegrees>-4.379186667501926422119140625</LongitudeDegrees>
            </Position>
            <AltitudeMeters>827</AltitudeMeters>
            <DistanceMeters>NAN</DistanceMeters>
          </Trackpoint>
          <Trackpoint>
            <Time>2020-12-05T09:22:29.000Z</Time>
            <Position>
              <LatitudeDegrees>36.8167155794799327850341796875</LatitudeDegrees>
              <LongitudeDegrees>-4.37919949181377887725830078125</LongitudeDegrees>
            </Position>
            <AltitudeMeters>827</AltitudeMeters>
            <DistanceMeters>NAN</DistanceMeters>
          </Trackpoint>
          <Trackpoint>
            <Time>2020-12-05T09:22:30.000Z</Time>
            <Position>
              <LatitudeDegrees>36.816724799573421478271484375</LatitudeDegrees>
              <LongitudeDegrees>-4.3792109750211238861083984375</LongitudeDegrees>
            </Position>
            <AltitudeMeters>827</AltitudeMeters>
            <DistanceMeters>NAN</DistanceMeters>
          </Trackpoint>
          <Trackpoint>
            <Time>2020-12-05T09:22:31.000Z</Time>
            <Position>
              <LatitudeDegrees>36.81673326529562473297119140625</LatitudeDegrees>
              <LongitudeDegrees>-4.3792212009429931640625</LongitudeDegrees>
            </Position>
            <AltitudeMeters>827</AltitudeMeters>
            <DistanceMeters>NAN</DistanceMeters>
          </Trackpoint>
          <Trackpoint>
            <Time>2020-12-05T09:22:32.000Z</Time>
            <Position>
              <LatitudeDegrees>36.81673862971365451812744140625</LatitudeDegrees>
              <LongitudeDegrees>-4.3792327679693698883056640625</LongitudeDegrees>
            </Position>
            <AltitudeMeters>827</AltitudeMeters>
            <DistanceMeters>NAN</DistanceMeters>
          </Trackpoint>
          <Trackpoint>
            <Time>2020-12-05T09:22:33.000Z</Time>
            <Position>
              <LatitudeDegrees>36.81674215011298656463623046875</LatitudeDegrees>
              <LongitudeDegrees>-4.379245676100254058837890625</LongitudeDegrees>
            </Position>
            <AltitudeMeters>827</AltitudeMeters>
            <DistanceMeters>NAN</DistanceMeters>
          </Trackpoint>
          <Trackpoint>
            <Time>2020-12-05T09:22:34.000Z</Time>
            <Position>
              <LatitudeDegrees>36.81674701161682605743408203125</LatitudeDegrees>
              <LongitudeDegrees>-4.37926084734499454498291015625</LongitudeDegrees>
            </Position>
            <AltitudeMeters>827</AltitudeMeters>
            <DistanceMeters>NAN</DistanceMeters>
          </Trackpoint>
          <Trackpoint>
            <Time>2020-12-05T09:22:35.000Z</Time>
            <Position>
              <LatitudeDegrees>36.81675254367291927337646484375</LatitudeDegrees>
              <LongitudeDegrees>-4.37927627004683017730712890625</LongitudeDegrees>
            </Position>
            <AltitudeMeters>827</AltitudeMeters>
            <DistanceMeters>NAN</DistanceMeters>
          </Trackpoint>
          <Trackpoint>
            <Time>2020-12-05T09:22:36.000Z</Time>
            <Position>
              <LatitudeDegrees>36.8167598359286785125732421875</LatitudeDegrees>
              <LongitudeDegrees>-4.3792924471199512481689453125</LongitudeDegrees>
            </Position>
            <AltitudeMeters>827</AltitudeMeters>
            <DistanceMeters>NAN</DistanceMeters>
          </Trackpoint>
          <Trackpoint>
            <Time>2020-12-05T09:22:37.000Z</Time>
            <Position>
              <LatitudeDegrees>36.816767044365406036376953125</LatitudeDegrees>
              <LongitudeDegrees>-4.37930929474532604217529296875</LongitudeDegrees>
            </Position>
            <AltitudeMeters>826.79998779296875</AltitudeMeters>
            <DistanceMeters>NAN</DistanceMeters>
          </Trackpoint>
          <Trackpoint>
            <Time>2020-12-05T09:22:38.000Z</Time>
            <Position>
              <LatitudeDegrees>36.8167720735073089599609375</LatitudeDegrees>
              <LongitudeDegrees>-4.37932505272328853607177734375</LongitudeDegrees>
            </Position>
            <AltitudeMeters>826.79998779296875</AltitudeMeters>
            <DistanceMeters>NAN</DistanceMeters>
          </Trackpoint>
          <Trackpoint>
            <Time>2020-12-05T09:22:39.000Z</Time>
            <Position>
              <LatitudeDegrees>36.81677852757275104522705078125</LatitudeDegrees>
              <LongitudeDegrees>-4.37933796085417270660400390625</LongitudeDegrees>
            </Position>
            <AltitudeMeters>826.5999755859375</AltitudeMeters>
            <DistanceMeters>NAN</DistanceMeters>
          </Trackpoint>
          <Trackpoint>
            <Time>2020-12-05T09:22:40.000Z</Time>
            <Position>
              <LatitudeDegrees>36.8167782761156558990478515625</LatitudeDegrees>
              <LongitudeDegrees>-4.37935053370893001556396484375</LongitudeDegrees>
            </Position>
            <AltitudeMeters>826.4000244140625</AltitudeMeters>
            <DistanceMeters>NAN</DistanceMeters>
          </Trackpoint>
          <Trackpoint>
            <Time>2020-12-05T09:22:41.000Z</Time>
            <Position>
              <LatitudeDegrees>36.81678087450563907623291015625</LatitudeDegrees>
              <LongitudeDegrees>-4.379363022744655609130859375</LongitudeDegrees>
            </Position>
            <AltitudeMeters>826.4000244140625</AltitudeMeters>
            <DistanceMeters>NAN</DistanceMeters>
          </Trackpoint>
          <Trackpoint>
            <Time>2020-12-05T09:22:42.000Z</Time>
            <Position>
              <LatitudeDegrees>36.81678288616240024566650390625</LatitudeDegrees>
              <LongitudeDegrees>-4.37937534414231777191162109375</LongitudeDegrees>
            </Position>
            <AltitudeMeters>826.5999755859375</AltitudeMeters>
            <DistanceMeters>NAN</DistanceMeters>
          </Trackpoint>
          <Trackpoint>
            <Time>2020-12-05T09:22:43.000Z</Time>
            <Position>
              <LatitudeDegrees>36.81678204797208309173583984375</LatitudeDegrees>
              <LongitudeDegrees>-4.37938691116869449615478515625</LongitudeDegrees>
            </Position>
            <AltitudeMeters>826.5999755859375</AltitudeMeters>
            <DistanceMeters>NAN</DistanceMeters>
          </Trackpoint>
          <Trackpoint>
            <Time>2020-12-05T09:22:44.000Z</Time>
            <Position>
              <LatitudeDegrees>36.81678506545722484588623046875</LatitudeDegrees>
              <LongitudeDegrees>-4.37939663417637348175048828125</LongitudeDegrees>
            </Position>
            <AltitudeMeters>826.5999755859375</AltitudeMeters>
            <DistanceMeters>NAN</DistanceMeters>
          </Trackpoint>
          <Trackpoint>
            <Time>2020-12-05T09:22:45.000Z</Time>
            <Position>
              <LatitudeDegrees>36.816784478724002838134765625</LatitudeDegrees>
              <LongitudeDegrees>-4.37940669246017932891845703125</LongitudeDegrees>
            </Position>
            <AltitudeMeters>826.5999755859375</AltitudeMeters>
            <DistanceMeters>NAN</DistanceMeters>
          </Trackpoint>
          <Trackpoint>
            <Time>2020-12-05T09:22:46.000Z</Time>
            <Position>
              <LatitudeDegrees>36.8167799524962902069091796875</LatitudeDegrees>
              <LongitudeDegrees>-4.37941591255366802215576171875</LongitudeDegrees>
            </Position>
            <AltitudeMeters>826.5999755859375</AltitudeMeters>
            <DistanceMeters>NAN</DistanceMeters>
          </Trackpoint>
          <Trackpoint>
            <Time>2020-12-05T09:22:47.000Z</Time>
            <Position>
              <LatitudeDegrees>36.81677517481148242950439453125</LatitudeDegrees>
              <LongitudeDegrees>-4.379424713551998138427734375</LongitudeDegrees>
            </Position>
            <AltitudeMeters>826.5999755859375</AltitudeMeters>
            <DistanceMeters>NAN</DistanceMeters>
          </Trackpoint>
          <Trackpoint>
            <Time>2020-12-05T09:22:48.000Z</Time>
            <Position>
              <LatitudeDegrees>36.8167692236602306365966796875</LatitudeDegrees>
              <LongitudeDegrees>-4.379433095455169677734375</LongitudeDegrees>
            </Position>
            <AltitudeMeters>826.4000244140625</AltitudeMeters>
            <DistanceMeters>NAN</DistanceMeters>
          </Trackpoint>
          <Trackpoint>
            <Time>2020-12-05T09:22:49.000Z</Time>
            <Position>
              <LatitudeDegrees>36.8167558126151561737060546875</LatitudeDegrees>
              <LongitudeDegrees>-4.37944407574832439422607421875</LongitudeDegrees>
            </Position>
            <AltitudeMeters>826.20001220703125</AltitudeMeters>
            <DistanceMeters>NAN</DistanceMeters>
          </Trackpoint>
          <Trackpoint>
            <Time>2020-12-05T09:22:50.000Z</Time>
            <Position>
              <LatitudeDegrees>36.81675656698644161224365234375</LatitudeDegrees>
              <LongitudeDegrees>-4.37945363111793994903564453125</LongitudeDegrees>
            </Position>
            <AltitudeMeters>826.20001220703125</AltitudeMeters>
            <DistanceMeters>NAN</DistanceMeters>
          </Trackpoint>
          <Trackpoint>
            <Time>2020-12-05T09:22:51.000Z</Time>
            <Position>
              <LatitudeDegrees>36.81675438769161701202392578125</LatitudeDegrees>
              <LongitudeDegrees>-4.37946653924882411956787109375</LongitudeDegrees>
            </Position>
            <AltitudeMeters>826</AltitudeMeters>
            <DistanceMeters>NAN</DistanceMeters>
          </Trackpoint>
          <Trackpoint>
            <Time>2020-12-05T09:22:52.000Z</Time>
            <Position>
              <LatitudeDegrees>36.816754974424839019775390625</LatitudeDegrees>
              <LongitudeDegrees>-4.3794822134077548980712890625</LongitudeDegrees>
            </Position>
            <AltitudeMeters>825.79998779296875</AltitudeMeters>
            <DistanceMeters>NAN</DistanceMeters>
          </Trackpoint>
          <Trackpoint>
            <Time>2020-12-05T09:22:53.000Z</Time>
            <Position>
              <LatitudeDegrees>36.816755644977092742919921875</LatitudeDegrees>
              <LongitudeDegrees>-4.3795040063560009002685546875</LongitudeDegrees>
            </Position>
            <AltitudeMeters>825.79998779296875</AltitudeMeters>
            <DistanceMeters>NAN</DistanceMeters>
          </Trackpoint>
          <Trackpoint>
            <Time>2020-12-05T09:22:54.000Z</Time>
            <Position>
              <LatitudeDegrees>36.81675908155739307403564453125</LatitudeDegrees>
              <LongitudeDegrees>-4.3795227818191051483154296875</LongitudeDegrees>
            </Position>
            <AltitudeMeters>825.5999755859375</AltitudeMeters>
            <DistanceMeters>NAN</DistanceMeters>
          </Trackpoint>
          <Trackpoint>
            <Time>2020-12-05T09:22:55.000Z</Time>
            <Position>
              <LatitudeDegrees>36.816757656633853912353515625</LatitudeDegrees>
              <LongitudeDegrees>-4.37954633496701717376708984375</LongitudeDegrees>
            </Position>
            <AltitudeMeters>825.5999755859375</AltitudeMeters>
            <DistanceMeters>NAN</DistanceMeters>
          </Trackpoint>
          <Trackpoint>
            <Time>2020-12-05T09:22:56.000Z</Time>
            <Position>
              <LatitudeDegrees>36.81675941683351993560791015625</LatitudeDegrees>
              <LongitudeDegrees>-4.3795653618872165679931640625</LongitudeDegrees>
            </Position>
            <AltitudeMeters>825.4000244140625</AltitudeMeters>
            <DistanceMeters>NAN</DistanceMeters>
          </Trackpoint>
          <Trackpoint>
            <Time>2020-12-05T09:22:57.000Z</Time>
            <Position>
              <LatitudeDegrees>36.81675639934837818145751953125</LatitudeDegrees>
              <LongitudeDegrees>-4.3795831315219402313232421875</LongitudeDegrees>
            </Position>
            <AltitudeMeters>825.4000244140625</AltitudeMeters>
            <DistanceMeters>NAN</DistanceMeters>
          </Trackpoint>
          <Trackpoint>
            <Time>2020-12-05T09:22:58.000Z</Time>
            <Position>
              <LatitudeDegrees>36.81675723753869533538818359375</LatitudeDegrees>
              <LongitudeDegrees>-4.3795953691005706787109375</LongitudeDegrees>
            </Position>
            <AltitudeMeters>825.4000244140625</AltitudeMeters>
            <DistanceMeters>NAN</DistanceMeters>
          </Trackpoint>
          <Trackpoint>
            <Time>2020-12-05T09:22:59.000Z</Time>
            <Position>
              <LatitudeDegrees>36.8167571537196636199951171875</LatitudeDegrees>
              <LongitudeDegrees>-4.3796029128134250640869140625</LongitudeDegrees>
            </Position>
            <AltitudeMeters>825.5999755859375</AltitudeMeters>
            <DistanceMeters>NAN</DistanceMeters>
          </Trackpoint>
          <Trackpoint>
            <Time>2020-12-05T09:23:00.000Z</Time>
            <Position>
              <LatitudeDegrees>36.81675774045288562774658203125</LatitudeDegrees>
              <LongitudeDegrees>-4.3796062655746936798095703125</LongitudeDegrees>
            </Position>
            <AltitudeMeters>825.5999755859375</AltitudeMeters>
            <DistanceMeters>NAN</DistanceMeters>
          </Trackpoint>
          <Trackpoint>
            <Time>2020-12-05T09:23:01.000Z</Time>
            <Position>
              <LatitudeDegrees>36.81675908155739307403564453125</LatitudeDegrees>
              <LongitudeDegrees>-4.3796102888882160186767578125</LongitudeDegrees>
            </Position>
            <AltitudeMeters>825.5999755859375</AltitudeMeters>
            <DistanceMeters>NAN</DistanceMeters>
          </Trackpoint>
          <Trackpoint>
            <Time>2020-12-05T09:23:02.000Z</Time>
            <Position>
              <LatitudeDegrees>36.8167595006525516510009765625</LatitudeDegrees>
              <LongitudeDegrees>-4.379619173705577850341796875</LongitudeDegrees>
            </Position>
            <AltitudeMeters>825.5999755859375</AltitudeMeters>
            <DistanceMeters>NAN</DistanceMeters>
          </Trackpoint>
          <Trackpoint>
            <Time>2020-12-05T09:23:03.000Z</Time>
            <Position>
              <LatitudeDegrees>36.81676025502383708953857421875</LatitudeDegrees>
              <LongitudeDegrees>-4.37963493168354034423828125</LongitudeDegrees>
            </Position>
            <AltitudeMeters>825.4000244140625</AltitudeMeters>
            <DistanceMeters>NAN</DistanceMeters>
          </Trackpoint>
          <Trackpoint>
            <Time>2020-12-05T09:23:04.000Z</Time>
            <Position>
              <LatitudeDegrees>36.81675790809094905853271484375</LatitudeDegrees>
              <LongitudeDegrees>-4.379656054079532623291015625</LongitudeDegrees>
            </Position>
            <AltitudeMeters>825.4000244140625</AltitudeMeters>
            <DistanceMeters>NAN</DistanceMeters>
          </Trackpoint>
          <Trackpoint>
            <Time>2020-12-05T09:23:05.000Z</Time>
            <Position>
              <LatitudeDegrees>36.81676176376640796661376953125</LatitudeDegrees>
              <LongitudeDegrees>-4.379676841199398040771484375</LongitudeDegrees>
            </Position>
            <AltitudeMeters>825.4000244140625</AltitudeMeters>
            <DistanceMeters>NAN</DistanceMeters>
          </Trackpoint>
          <Trackpoint>
            <Time>2020-12-05T09:23:06.000Z</Time>
            <Position>
              <LatitudeDegrees>36.81677006185054779052734375</LatitudeDegrees>
              <LongitudeDegrees>-4.37970064580440521240234375</LongitudeDegrees>
            </Position>
            <AltitudeMeters>825.20001220703125</AltitudeMeters>
            <DistanceMeters>NAN</DistanceMeters>
          </Trackpoint>
          <Trackpoint>
            <Time>2020-12-05T09:23:07.000Z</Time>
            <Position>
              <LatitudeDegrees>36.81677341461181640625</LatitudeDegrees>
              <LongitudeDegrees>-4.37972084619104862213134765625</LongitudeDegrees>
            </Position>
            <AltitudeMeters>825.20001220703125</AltitudeMeters>
            <DistanceMeters>NAN</DistanceMeters>
          </Trackpoint>
          <Trackpoint>
            <Time>2020-12-05T09:23:08.000Z</Time>
            <Position>
              <LatitudeDegrees>36.8167749233543872833251953125</LatitudeDegrees>
              <LongitudeDegrees>-4.37973643653094768524169921875</LongitudeDegrees>
            </Position>
            <AltitudeMeters>825</AltitudeMeters>
            <DistanceMeters>NAN</DistanceMeters>
          </Trackpoint>
          <Trackpoint>
            <Time>2020-12-05T09:23:09.000Z</Time>
            <Position>
              <LatitudeDegrees>36.81677970103919506072998046875</LatitudeDegrees>
              <LongitudeDegrees>-4.37975051812827587127685546875</LongitudeDegrees>
            </Position>
            <AltitudeMeters>825</AltitudeMeters>
            <DistanceMeters>NAN</DistanceMeters>
          </Trackpoint>
          <Trackpoint>
            <Time>2020-12-05T09:23:10.000Z</Time>
            <Position>
              <LatitudeDegrees>36.8167782761156558990478515625</LatitudeDegrees>
              <LongitudeDegrees>-4.379765689373016357421875</LongitudeDegrees>
            </Position>
            <AltitudeMeters>825</AltitudeMeters>
            <DistanceMeters>NAN</DistanceMeters>
          </Trackpoint>
          <Trackpoint>
            <Time>2020-12-05T09:23:11.000Z</Time>
            <Position>
              <LatitudeDegrees>36.816777773201465606689453125</LatitudeDegrees>
              <LongitudeDegrees>-4.3797804415225982666015625</LongitudeDegrees>
            </Position>
            <AltitudeMeters>825</AltitudeMeters>
            <DistanceMeters>NAN</DistanceMeters>
          </Trackpoint>
          <Trackpoint>
            <Time>2020-12-05T09:23:12.000Z</Time>
            <Position>
              <LatitudeDegrees>36.81677919812500476837158203125</LatitudeDegrees>
              <LongitudeDegrees>-4.379791505634784698486328125</LongitudeDegrees>
            </Position>
            <AltitudeMeters>825</AltitudeMeters>
            <DistanceMeters>NAN</DistanceMeters>
          </Trackpoint>
          <Trackpoint>
            <Time>2020-12-05T09:23:13.000Z</Time>
            <Position>
              <LatitudeDegrees>36.816779784858226776123046875</LatitudeDegrees>
              <LongitudeDegrees>-4.379800222814083099365234375</LongitudeDegrees>
            </Position>
            <AltitudeMeters>825.20001220703125</AltitudeMeters>
            <DistanceMeters>NAN</DistanceMeters>
          </Trackpoint>
          <Trackpoint>
            <Time>2020-12-05T09:23:14.000Z</Time>
            <Position>
              <LatitudeDegrees>36.81678322143852710723876953125</LatitudeDegrees>
              <LongitudeDegrees>-4.37980902381241321563720703125</LongitudeDegrees>
            </Position>
            <AltitudeMeters>825.4000244140625</AltitudeMeters>
            <DistanceMeters>NAN</DistanceMeters>
          </Trackpoint>
          <Trackpoint>
            <Time>2020-12-05T09:23:15.000Z</Time>
            <Position>
              <LatitudeDegrees>36.8167883343994617462158203125</LatitudeDegrees>
              <LongitudeDegrees>-4.37981757335364818572998046875</LongitudeDegrees>
            </Position>
            <AltitudeMeters>825.5999755859375</AltitudeMeters>
            <DistanceMeters>NAN</DistanceMeters>
          </Trackpoint>
          <Trackpoint>
            <Time>2020-12-05T09:23:16.000Z</Time>
            <Position>
              <LatitudeDegrees>36.8167873285710811614990234375</LatitudeDegrees>
              <LongitudeDegrees>-4.37982805073261260986328125</LongitudeDegrees>
            </Position>
            <AltitudeMeters>825.5999755859375</AltitudeMeters>
            <DistanceMeters>NAN</DistanceMeters>
          </Trackpoint>
          <Trackpoint>
            <Time>2020-12-05T09:23:17.000Z</Time>
            <Position>
              <LatitudeDegrees>36.81678322143852710723876953125</LatitudeDegrees>
              <LongitudeDegrees>-4.37984137795865535736083984375</LongitudeDegrees>
            </Position>
            <AltitudeMeters>825.79998779296875</AltitudeMeters>
            <DistanceMeters>NAN</DistanceMeters>
          </Trackpoint>
          <Trackpoint>
            <Time>2020-12-05T09:23:18.000Z</Time>
            <Position>
              <LatitudeDegrees>36.8167856521904468536376953125</LatitudeDegrees>
              <LongitudeDegrees>-4.3798555433750152587890625</LongitudeDegrees>
            </Position>
            <AltitudeMeters>826</AltitudeMeters>
            <DistanceMeters>NAN</DistanceMeters>
          </Trackpoint>
          <Trackpoint>
            <Time>2020-12-05T09:23:19.000Z</Time>
            <Position>
              <LatitudeDegrees>36.81679210625588893890380859375</LatitudeDegrees>
              <LongitudeDegrees>-4.37987088225781917572021484375</LongitudeDegrees>
            </Position>
            <AltitudeMeters>826.20001220703125</AltitudeMeters>
            <DistanceMeters>NAN</DistanceMeters>
          </Trackpoint>
          <Trackpoint>
            <Time>2020-12-05T09:23:20.000Z</Time>
            <Position>
              <LatitudeDegrees>36.816797219216823577880859375</LatitudeDegrees>
              <LongitudeDegrees>-4.3798858858644962310791015625</LongitudeDegrees>
            </Position>
            <AltitudeMeters>826.4000244140625</AltitudeMeters>
            <DistanceMeters>NAN</DistanceMeters>
          </Trackpoint>
          <Trackpoint>
            <Time>2020-12-05T09:23:21.000Z</Time>
            <Position>
              <LatitudeDegrees>36.8168050982058048248291015625</LatitudeDegrees>
              <LongitudeDegrees>-4.37989971600472927093505859375</LongitudeDegrees>
            </Position>
            <AltitudeMeters>826.4000244140625</AltitudeMeters>
            <DistanceMeters>NAN</DistanceMeters>
          </Trackpoint>
          <Trackpoint>
            <Time>2020-12-05T09:23:22.000Z</Time>
            <Position>
              <LatitudeDegrees>36.816813312470912933349609375</LatitudeDegrees>
              <LongitudeDegrees>-4.3799137137830257415771484375</LongitudeDegrees>
            </Position>
            <AltitudeMeters>826.4000244140625</AltitudeMeters>
            <DistanceMeters>NAN</DistanceMeters>
          </Trackpoint>
          <Trackpoint>
            <Time>2020-12-05T09:23:23.000Z</Time>
            <Position>
              <LatitudeDegrees>36.8168201856315135955810546875</LatitudeDegrees>
              <LongitudeDegrees>-4.37992318533360958099365234375</LongitudeDegrees>
            </Position>
            <AltitudeMeters>826.4000244140625</AltitudeMeters>
            <DistanceMeters>NAN</DistanceMeters>
          </Trackpoint>
          <Trackpoint>
            <Time>2020-12-05T09:23:24.000Z</Time>
            <Position>
              <LatitudeDegrees>36.8168278969824314117431640625</LatitudeDegrees>
              <LongitudeDegrees>-4.3799351714551448822021484375</LongitudeDegrees>
            </Position>
            <AltitudeMeters>826.20001220703125</AltitudeMeters>
            <DistanceMeters>NAN</DistanceMeters>
          </Trackpoint>
          <Trackpoint>
            <Time>2020-12-05T09:23:25.000Z</Time>
            <Position>
              <LatitudeDegrees>36.8168356083333492279052734375</LatitudeDegrees>
              <LongitudeDegrees>-4.37994472682476043701171875</LongitudeDegrees>
            </Position>
            <AltitudeMeters>825.79998779296875</AltitudeMeters>
            <DistanceMeters>NAN</DistanceMeters>
          </Trackpoint>
          <Trackpoint>
            <Time>2020-12-05T09:23:26.000Z</Time>
            <Position>
              <LatitudeDegrees>36.81684122420847415924072265625</LatitudeDegrees>
              <LongitudeDegrees>-4.37995436601340770721435546875</LongitudeDegrees>
            </Position>
            <AltitudeMeters>825.5999755859375</AltitudeMeters>
            <DistanceMeters>NAN</DistanceMeters>
          </Trackpoint>
          <Trackpoint>
            <Time>2020-12-05T09:23:27.000Z</Time>
            <Position>
              <LatitudeDegrees>36.81684910319745540618896484375</LatitudeDegrees>
              <LongitudeDegrees>-4.37996911816298961639404296875</LongitudeDegrees>
            </Position>
            <AltitudeMeters>825.4000244140625</AltitudeMeters>
            <DistanceMeters>NAN</DistanceMeters>
          </Trackpoint>
          <Trackpoint>
            <Time>2020-12-05T09:23:28.000Z</Time>
            <Position>
              <LatitudeDegrees>36.8168574012815952301025390625</LatitudeDegrees>
              <LongitudeDegrees>-4.37998370267450809478759765625</LongitudeDegrees>
            </Position>
            <AltitudeMeters>825.20001220703125</AltitudeMeters>
            <DistanceMeters>NAN</DistanceMeters>
          </Trackpoint>
          <Trackpoint>
            <Time>2020-12-05T09:23:29.000Z</Time>
            <Position>
              <LatitudeDegrees>36.81685966439545154571533203125</LatitudeDegrees>
              <LongitudeDegrees>-4.37999627552926540374755859375</LongitudeDegrees>
            </Position>
            <AltitudeMeters>825.20001220703125</AltitudeMeters>
            <DistanceMeters>NAN</DistanceMeters>
          </Trackpoint>
          <Trackpoint>
            <Time>2020-12-05T09:23:30.000Z</Time>
            <Position>
              <LatitudeDegrees>36.81686553172767162322998046875</LatitudeDegrees>
              <LongitudeDegrees>-4.38000909984111785888671875</LongitudeDegrees>
            </Position>
            <AltitudeMeters>825.20001220703125</AltitudeMeters>
            <DistanceMeters>NAN</DistanceMeters>
          </Trackpoint>
          <Trackpoint>
            <Time>2020-12-05T09:23:31.000Z</Time>
            <Position>
              <LatitudeDegrees>36.8168761767446994781494140625</LatitudeDegrees>
              <LongitudeDegrees>-4.3800218403339385986328125</LongitudeDegrees>
            </Position>
            <AltitudeMeters>825.20001220703125</AltitudeMeters>
            <DistanceMeters>NAN</DistanceMeters>
          </Trackpoint>
          <Trackpoint>
            <Time>2020-12-05T09:23:32.000Z</Time>
            <Position>
              <LatitudeDegrees>36.81688447482883930206298828125</LatitudeDegrees>
              <LongitudeDegrees>-4.38003600575029850006103515625</LongitudeDegrees>
            </Position>
            <AltitudeMeters>825.20001220703125</AltitudeMeters>
            <DistanceMeters>NAN</DistanceMeters>
          </Trackpoint>
          <Trackpoint>
            <Time>2020-12-05T09:23:33.000Z</Time>
            <Position>
              <LatitudeDegrees>36.81689067743718624114990234375</LatitudeDegrees>
              <LongitudeDegrees>-4.38004706986248493194580078125</LongitudeDegrees>
            </Position>
            <AltitudeMeters>825.20001220703125</AltitudeMeters>
            <DistanceMeters>NAN</DistanceMeters>
          </Trackpoint>
          <Trackpoint>
            <Time>2020-12-05T09:23:34.000Z</Time>
            <Position>
              <LatitudeDegrees>36.81689956225454807281494140625</LatitudeDegrees>
              <LongitudeDegrees>-4.38005511648952960968017578125</LongitudeDegrees>
            </Position>
            <AltitudeMeters>825.20001220703125</AltitudeMeters>
            <DistanceMeters>NAN</DistanceMeters>
          </Trackpoint>
          <Trackpoint>
            <Time>2020-12-05T09:23:35.000Z</Time>
            <Position>
              <LatitudeDegrees>36.81691163219511508941650390625</LatitudeDegrees>
              <LongitudeDegrees>-4.38006341457366943359375</LongitudeDegrees>
            </Position>
            <AltitudeMeters>825.20001220703125</AltitudeMeters>
            <DistanceMeters>NAN</DistanceMeters>
          </Trackpoint>
          <Trackpoint>
            <Time>2020-12-05T09:23:36.000Z</Time>
            <Position>
              <LatitudeDegrees>36.81692303158342838287353515625</LatitudeDegrees>
              <LongitudeDegrees>-4.38007221557199954986572265625</LongitudeDegrees>
            </Position>
            <AltitudeMeters>825.4000244140625</AltitudeMeters>
            <DistanceMeters>NAN</DistanceMeters>
          </Trackpoint>
          <Trackpoint>
            <Time>2020-12-05T09:23:37.000Z</Time>
            <Position>
              <LatitudeDegrees>36.81693510152399539947509765625</LatitudeDegrees>
              <LongitudeDegrees>-4.3800823576748371124267578125</LongitudeDegrees>
            </Position>
            <AltitudeMeters>825.4000244140625</AltitudeMeters>
            <DistanceMeters>NAN</DistanceMeters>
          </Trackpoint>
          <Trackpoint>
            <Time>2020-12-05T09:23:38.000Z</Time>
            <Position>
              <LatitudeDegrees>36.81694650091230869293212890625</LatitudeDegrees>
              <LongitudeDegrees>-4.38009551726281642913818359375</LongitudeDegrees>
            </Position>
            <AltitudeMeters>825.4000244140625</AltitudeMeters>
            <DistanceMeters>NAN</DistanceMeters>
          </Trackpoint>
          <Trackpoint>
            <Time>2020-12-05T09:23:39.000Z</Time>
            <Position>
              <LatitudeDegrees>36.8169553019106388092041015625</LatitudeDegrees>
              <LongitudeDegrees>-4.3801021389663219451904296875</LongitudeDegrees>
            </Position>
            <AltitudeMeters>825.4000244140625</AltitudeMeters>
            <DistanceMeters>NAN</DistanceMeters>
          </Trackpoint>
          <Trackpoint>
            <Time>2020-12-05T09:23:40.000Z</Time>
            <Position>
              <LatitudeDegrees>36.8169623427093029022216796875</LatitudeDegrees>
              <LongitudeDegrees>-4.380110688507556915283203125</LongitudeDegrees>
            </Position>
            <AltitudeMeters>825.5999755859375</AltitudeMeters>
            <DistanceMeters>NAN</DistanceMeters>
          </Trackpoint>
          <Trackpoint>
            <Time>2020-12-05T09:23:41.000Z</Time>
            <Position>
              <LatitudeDegrees>36.81697256863117218017578125</LatitudeDegrees>
              <LongitudeDegrees>-4.380117394030094146728515625</LongitudeDegrees>
            </Position>
            <AltitudeMeters>825.79998779296875</AltitudeMeters>
            <DistanceMeters>NAN</DistanceMeters>
          </Trackpoint>
          <Trackpoint>
            <Time>2020-12-05T09:23:42.000Z</Time>
            <Position>
              <LatitudeDegrees>36.81698170490562915802001953125</LatitudeDegrees>
              <LongitudeDegrees>-4.38012384809553623199462890625</LongitudeDegrees>
            </Position>
            <AltitudeMeters>825.79998779296875</AltitudeMeters>
            <DistanceMeters>NAN</DistanceMeters>
          </Trackpoint>
          <Trackpoint>
            <Time>2020-12-05T09:23:43.000Z</Time>
            <Position>
              <LatitudeDegrees>36.81699142791330814361572265625</LatitudeDegrees>
              <LongitudeDegrees>-4.38012820668518543243408203125</LongitudeDegrees>
            </Position>
            <AltitudeMeters>825.79998779296875</AltitudeMeters>
            <DistanceMeters>NAN</DistanceMeters>
          </Trackpoint>
          <Trackpoint>
            <Time>2020-12-05T09:23:44.000Z</Time>
            <Position>
              <LatitudeDegrees>36.8170002289116382598876953125</LatitudeDegrees>
              <LongitudeDegrees>-4.38013206236064434051513671875</LongitudeDegrees>
            </Position>
            <AltitudeMeters>825.79998779296875</AltitudeMeters>
            <DistanceMeters>NAN</DistanceMeters>
          </Trackpoint>
          <Trackpoint>
            <Time>2020-12-05T09:23:45.000Z</Time>
            <Position>
              <LatitudeDegrees>36.817009449005126953125</LatitudeDegrees>
              <LongitudeDegrees>-4.380135498940944671630859375</LongitudeDegrees>
            </Position>
            <AltitudeMeters>825.5999755859375</AltitudeMeters>
            <DistanceMeters>NAN</DistanceMeters>
          </Trackpoint>
          <Trackpoint>
            <Time>2020-12-05T09:23:46.000Z</Time>
            <Position>
              <LatitudeDegrees>36.81701590307056903839111328125</LatitudeDegrees>
              <LongitudeDegrees>-4.3801393546164035797119140625</LongitudeDegrees>
            </Position>
            <AltitudeMeters>825.79998779296875</AltitudeMeters>
            <DistanceMeters>NAN</DistanceMeters>
          </Trackpoint>
          <Trackpoint>
            <Time>2020-12-05T09:23:47.000Z</Time>
            <Position>
              <LatitudeDegrees>36.81702344678342342376708984375</LatitudeDegrees>
              <LongitudeDegrees>-4.3801452219486236572265625</LongitudeDegrees>
            </Position>
            <AltitudeMeters>825.5999755859375</AltitudeMeters>
            <DistanceMeters>NAN</DistanceMeters>
          </Trackpoint>
          <Trackpoint>
            <Time>2020-12-05T09:23:48.000Z</Time>
            <Position>
              <LatitudeDegrees>36.81703291833400726318359375</LatitudeDegrees>
              <LongitudeDegrees>-4.380156286060810089111328125</LongitudeDegrees>
            </Position>
            <AltitudeMeters>825.4000244140625</AltitudeMeters>
            <DistanceMeters>NAN</DistanceMeters>
          </Trackpoint>
          <Trackpoint>
            <Time>2020-12-05T09:23:49.000Z</Time>
            <Position>
              <LatitudeDegrees>36.8170429766178131103515625</LatitudeDegrees>
              <LongitudeDegrees>-4.38016843982040882110595703125</LongitudeDegrees>
            </Position>
            <AltitudeMeters>825.4000244140625</AltitudeMeters>
            <DistanceMeters>NAN</DistanceMeters>
          </Trackpoint>
          <Trackpoint>
            <Time>2020-12-05T09:23:50.000Z</Time>
            <Position>
              <LatitudeDegrees>36.8170521967113018035888671875</LatitudeDegrees>
              <LongitudeDegrees>-4.38018000684678554534912109375</LongitudeDegrees>
            </Position>
            <AltitudeMeters>825.20001220703125</AltitudeMeters>
            <DistanceMeters>NAN</DistanceMeters>
          </Trackpoint>
          <Trackpoint>
            <Time>2020-12-05T09:23:51.000Z</Time>
            <Position>
              <LatitudeDegrees>36.81706108152866363525390625</LatitudeDegrees>
              <LongitudeDegrees>-4.38018972985446453094482421875</LongitudeDegrees>
            </Position>
            <AltitudeMeters>825.20001220703125</AltitudeMeters>
            <DistanceMeters>NAN</DistanceMeters>
          </Trackpoint>
          <Trackpoint>
            <Time>2020-12-05T09:23:52.000Z</Time>
            <Position>
              <LatitudeDegrees>36.81707038544118404388427734375</LatitudeDegrees>
              <LongitudeDegrees>-4.38020045869052410125732421875</LongitudeDegrees>
            </Position>
            <AltitudeMeters>825</AltitudeMeters>
            <DistanceMeters>NAN</DistanceMeters>
          </Trackpoint>
          <Trackpoint>
            <Time>2020-12-05T09:23:53.000Z</Time>
            <Position>
              <LatitudeDegrees>36.8170773424208164215087890625</LatitudeDegrees>
              <LongitudeDegrees>-4.38020833767950534820556640625</LongitudeDegrees>
            </Position>
            <AltitudeMeters>824.79998779296875</AltitudeMeters>
            <DistanceMeters>NAN</DistanceMeters>
          </Trackpoint>
          <Trackpoint>
            <Time>2020-12-05T09:23:54.000Z</Time>
            <Position>
              <LatitudeDegrees>36.8170867301523685455322265625</LatitudeDegrees>
              <LongitudeDegrees>-4.38021839596331119537353515625</LongitudeDegrees>
            </Position>
            <AltitudeMeters>824.79998779296875</AltitudeMeters>
            <DistanceMeters>NAN</DistanceMeters>
          </Trackpoint>
          <Trackpoint>
            <Time>2020-12-05T09:23:55.000Z</Time>
            <Position>
              <LatitudeDegrees>36.817096956074237823486328125</LatitudeDegrees>
              <LongitudeDegrees>-4.38022912479937076568603515625</LongitudeDegrees>
            </Position>
            <AltitudeMeters>824.79998779296875</AltitudeMeters>
            <DistanceMeters>NAN</DistanceMeters>
          </Trackpoint>
          <Trackpoint>
            <Time>2020-12-05T09:23:56.000Z</Time>
            <Position>
              <LatitudeDegrees>36.817103326320648193359375</LatitudeDegrees>
              <LongitudeDegrees>-4.38023549504578113555908203125</LongitudeDegrees>
            </Position>
            <AltitudeMeters>824.79998779296875</AltitudeMeters>
            <DistanceMeters>NAN</DistanceMeters>
          </Trackpoint>
          <Trackpoint>
            <Time>2020-12-05T09:23:57.000Z</Time>
            <Position>
              <LatitudeDegrees>36.8171085231006145477294921875</LatitudeDegrees>
              <LongitudeDegrees>-4.380240775644779205322265625</LongitudeDegrees>
            </Position>
            <AltitudeMeters>824.79998779296875</AltitudeMeters>
            <DistanceMeters>NAN</DistanceMeters>
          </Trackpoint>
          <Trackpoint>
            <Time>2020-12-05T09:23:58.000Z</Time>
            <Position>
              <LatitudeDegrees>36.81711464188992977142333984375</LatitudeDegrees>
              <LongitudeDegrees>-4.380250833928585052490234375</LongitudeDegrees>
            </Position>
            <AltitudeMeters>824.79998779296875</AltitudeMeters>
            <DistanceMeters>NAN</DistanceMeters>
          </Trackpoint>
          <Trackpoint>
            <Time>2020-12-05T09:23:59.000Z</Time>
            <Position>
              <LatitudeDegrees>36.817124783992767333984375</LatitudeDegrees>
              <LongitudeDegrees>-4.38025460578501224517822265625</LongitudeDegrees>
            </Position>
            <AltitudeMeters>824.79998779296875</AltitudeMeters>
            <DistanceMeters>NAN</DistanceMeters>
          </Trackpoint>
          <Trackpoint>
            <Time>2020-12-05T09:24:00.000Z</Time>
            <Position>
              <LatitudeDegrees>36.8171316571533679962158203125</LatitudeDegrees>
              <LongitudeDegrees>-4.380258210003376007080078125</LongitudeDegrees>
            </Position>
            <AltitudeMeters>824.79998779296875</AltitudeMeters>
            <DistanceMeters>NAN</DistanceMeters>
          </Trackpoint>
          <Trackpoint>
            <Time>2020-12-05T09:24:01.000Z</Time>
            <Position>
              <LatitudeDegrees>36.8171383626759052276611328125</LatitudeDegrees>
              <LongitudeDegrees>-4.38026256859302520751953125</LongitudeDegrees>
            </Position>
            <AltitudeMeters>824.79998779296875</AltitudeMeters>
            <DistanceMeters>NAN</DistanceMeters>
          </Trackpoint>
          <Trackpoint>
            <Time>2020-12-05T09:24:02.000Z</Time>
            <Position>
              <LatitudeDegrees>36.817148588597774505615234375</LatitudeDegrees>
              <LongitudeDegrees>-4.3802687712013721466064453125</LongitudeDegrees>
            </Position>
            <AltitudeMeters>825</AltitudeMeters>
            <DistanceMeters>NAN</DistanceMeters>
          </Trackpoint>
          <Trackpoint>
            <Time>2020-12-05T09:24:03.000Z</Time>
            <Position>
              <LatitudeDegrees>36.8171578086912631988525390625</LatitudeDegrees>
              <LongitudeDegrees>-4.38027505762875080108642578125</LongitudeDegrees>
            </Position>
            <AltitudeMeters>825</AltitudeMeters>
            <DistanceMeters>NAN</DistanceMeters>
          </Trackpoint>
          <Trackpoint>
            <Time>2020-12-05T09:24:04.000Z</Time>
            <Position>
              <LatitudeDegrees>36.817170046269893646240234375</LatitudeDegrees>
              <LongitudeDegrees>-4.380285032093524932861328125</LongitudeDegrees>
            </Position>
            <AltitudeMeters>824.79998779296875</AltitudeMeters>
            <DistanceMeters>NAN</DistanceMeters>
          </Trackpoint>
          <Trackpoint>
            <Time>2020-12-05T09:24:05.000Z</Time>
            <Position>
              <LatitudeDegrees>36.8171826191246509552001953125</LatitudeDegrees>
              <LongitudeDegrees>-4.3802986107766628265380859375</LongitudeDegrees>
            </Position>
            <AltitudeMeters>824.79998779296875</AltitudeMeters>
            <DistanceMeters>NAN</DistanceMeters>
          </Trackpoint>
          <Trackpoint>
            <Time>2020-12-05T09:24:06.000Z</Time>
            <Position>
              <LatitudeDegrees>36.81719795800745487213134765625</LatitudeDegrees>
              <LongitudeDegrees>-4.3803069926798343658447265625</LongitudeDegrees>
            </Position>
            <AltitudeMeters>824.79998779296875</AltitudeMeters>
            <DistanceMeters>NAN</DistanceMeters>
          </Trackpoint>
          <Trackpoint>
            <Time>2020-12-05T09:24:07.000Z</Time>
            <Position>
              <LatitudeDegrees>36.817210279405117034912109375</LatitudeDegrees>
              <LongitudeDegrees>-4.38031747005879878997802734375</LongitudeDegrees>
            </Position>
            <AltitudeMeters>824.79998779296875</AltitudeMeters>
            <DistanceMeters>NAN</DistanceMeters>
          </Trackpoint>
          <Trackpoint>
            <Time>2020-12-05T09:24:08.000Z</Time>
            <Position>
              <LatitudeDegrees>36.81722444482147693634033203125</LatitudeDegrees>
              <LongitudeDegrees>-4.3803291209042072296142578125</LongitudeDegrees>
            </Position>
            <AltitudeMeters>824.79998779296875</AltitudeMeters>
            <DistanceMeters>NAN</DistanceMeters>
          </Trackpoint>
          <Trackpoint>
            <Time>2020-12-05T09:24:09.000Z</Time>
            <Position>
              <LatitudeDegrees>36.817235089838504791259765625</LatitudeDegrees>
              <LongitudeDegrees>-4.380336664617061614990234375</LongitudeDegrees>
            </Position>
            <AltitudeMeters>824.79998779296875</AltitudeMeters>
            <DistanceMeters>NAN</DistanceMeters>
          </Trackpoint>
          <Trackpoint>
            <Time>2020-12-05T09:24:10.000Z</Time>
            <Position>
              <LatitudeDegrees>36.81724372319877147674560546875</LatitudeDegrees>
              <LongitudeDegrees>-4.38034546561539173126220703125</LongitudeDegrees>
            </Position>
            <AltitudeMeters>824.79998779296875</AltitudeMeters>
            <DistanceMeters>NAN</DistanceMeters>
          </Trackpoint>
          <Trackpoint>
            <Time>2020-12-05T09:24:11.000Z</Time>
            <Position>
              <LatitudeDegrees>36.817249841988086700439453125</LatitudeDegrees>
              <LongitudeDegrees>-4.380354098975658416748046875</LongitudeDegrees>
            </Position>
            <AltitudeMeters>824.79998779296875</AltitudeMeters>
            <DistanceMeters>NAN</DistanceMeters>
          </Trackpoint>
          <Trackpoint>
            <Time>2020-12-05T09:24:12.000Z</Time>
            <Position>
              <LatitudeDegrees>36.817254535853862762451171875</LatitudeDegrees>
              <LongitudeDegrees>-4.38036373816430568695068359375</LongitudeDegrees>
            </Position>
            <AltitudeMeters>824.5999755859375</AltitudeMeters>
            <DistanceMeters>NAN</DistanceMeters>
          </Trackpoint>
          <Trackpoint>
            <Time>2020-12-05T09:24:13.000Z</Time>
            <Position>
              <LatitudeDegrees>36.81726132519543170928955078125</LatitudeDegrees>
              <LongitudeDegrees>-4.3803740479052066802978515625</LongitudeDegrees>
            </Position>
            <AltitudeMeters>824.4000244140625</AltitudeMeters>
            <DistanceMeters>NAN</DistanceMeters>
          </Trackpoint>
          <Trackpoint>
            <Time>2020-12-05T09:24:14.000Z</Time>
            <Position>
              <LatitudeDegrees>36.8172736465930938720703125</LatitudeDegrees>
              <LongitudeDegrees>-4.38038318417966365814208984375</LongitudeDegrees>
            </Position>
            <AltitudeMeters>824.4000244140625</AltitudeMeters>
            <DistanceMeters>NAN</DistanceMeters>
          </Trackpoint>
          <Trackpoint>
            <Time>2020-12-05T09:24:15.000Z</Time>
            <Position>
              <LatitudeDegrees>36.8172870576381683349609375</LatitudeDegrees>
              <LongitudeDegrees>-4.38039056025445461273193359375</LongitudeDegrees>
            </Position>
            <AltitudeMeters>824.20001220703125</AltitudeMeters>
            <DistanceMeters>NAN</DistanceMeters>
          </Trackpoint>
          <Trackpoint>
            <Time>2020-12-05T09:24:16.000Z</Time>
            <Position>
              <LatitudeDegrees>36.81730038486421108245849609375</LatitudeDegrees>
              <LongitudeDegrees>-4.3803988583385944366455078125</LongitudeDegrees>
            </Position>
            <AltitudeMeters>824</AltitudeMeters>
            <DistanceMeters>NAN</DistanceMeters>
          </Trackpoint>
          <Trackpoint>
            <Time>2020-12-05T09:24:17.000Z</Time>
            <Position>
              <LatitudeDegrees>36.8173133768141269683837890625</LatitudeDegrees>
              <LongitudeDegrees>-4.38040749169886112213134765625</LongitudeDegrees>
            </Position>
            <AltitudeMeters>823.79998779296875</AltitudeMeters>
            <DistanceMeters>NAN</DistanceMeters>
          </Trackpoint>
          <Trackpoint>
            <Time>2020-12-05T09:24:18.000Z</Time>
            <Position>
              <LatitudeDegrees>36.81732703931629657745361328125</LatitudeDegrees>
              <LongitudeDegrees>-4.38041419722139835357666015625</LongitudeDegrees>
            </Position>
            <AltitudeMeters>823.79998779296875</AltitudeMeters>
            <DistanceMeters>NAN</DistanceMeters>
          </Trackpoint>
          <Trackpoint>
            <Time>2020-12-05T09:24:19.000Z</Time>
            <Position>
              <LatitudeDegrees>36.81734003126621246337890625</LatitudeDegrees>
              <LongitudeDegrees>-4.3804206512868404388427734375</LongitudeDegrees>
            </Position>
            <AltitudeMeters>824</AltitudeMeters>
            <DistanceMeters>NAN</DistanceMeters>
          </Trackpoint>
          <Trackpoint>
            <Time>2020-12-05T09:24:20.000Z</Time>
            <Position>
              <LatitudeDegrees>36.8173522688448429107666015625</LatitudeDegrees>
              <LongitudeDegrees>-4.3804280273616313934326171875</LongitudeDegrees>
            </Position>
            <AltitudeMeters>824</AltitudeMeters>
            <DistanceMeters>NAN</DistanceMeters>
          </Trackpoint>
          <Trackpoint>
            <Time>2020-12-05T09:24:21.000Z</Time>
            <Position>
              <LatitudeDegrees>36.81736324913799762725830078125</LatitudeDegrees>
              <LongitudeDegrees>-4.380434565246105194091796875</LongitudeDegrees>
            </Position>
            <AltitudeMeters>824</AltitudeMeters>
            <DistanceMeters>NAN</DistanceMeters>
          </Trackpoint>
          <Trackpoint>
            <Time>2020-12-05T09:24:22.000Z</Time>
            <Position>
              <LatitudeDegrees>36.81737489998340606689453125</LatitudeDegrees>
              <LongitudeDegrees>-4.38044521026313304901123046875</LongitudeDegrees>
            </Position>
            <AltitudeMeters>824</AltitudeMeters>
            <DistanceMeters>NAN</DistanceMeters>
          </Trackpoint>
          <Trackpoint>
            <Time>2020-12-05T09:24:23.000Z</Time>
            <Position>
              <LatitudeDegrees>36.817385964095592498779296875</LatitudeDegrees>
              <LongitudeDegrees>-4.38045677728950977325439453125</LongitudeDegrees>
            </Position>
            <AltitudeMeters>824</AltitudeMeters>
            <DistanceMeters>NAN</DistanceMeters>
          </Trackpoint>
          <Trackpoint>
            <Time>2020-12-05T09:24:24.000Z</Time>
            <Position>
              <LatitudeDegrees>36.8173948489129543304443359375</LatitudeDegrees>
              <LongitudeDegrees>-4.380464069545269012451171875</LongitudeDegrees>
            </Position>
            <AltitudeMeters>824</AltitudeMeters>
            <DistanceMeters>NAN</DistanceMeters>
          </Trackpoint>
          <Trackpoint>
            <Time>2020-12-05T09:24:25.000Z</Time>
            <Position>
              <LatitudeDegrees>36.81740515865385532379150390625</LatitudeDegrees>
              <LongitudeDegrees>-4.380470104515552520751953125</LongitudeDegrees>
            </Position>
            <AltitudeMeters>824</AltitudeMeters>
            <DistanceMeters>NAN</DistanceMeters>
          </Trackpoint>
          <Trackpoint>
            <Time>2020-12-05T09:24:26.000Z</Time>
            <Position>
              <LatitudeDegrees>36.81741781532764434814453125</LatitudeDegrees>
              <LongitudeDegrees>-4.38047756440937519073486328125</LongitudeDegrees>
            </Position>
            <AltitudeMeters>823.79998779296875</AltitudeMeters>
            <DistanceMeters>NAN</DistanceMeters>
          </Trackpoint>
          <Trackpoint>
            <Time>2020-12-05T09:24:27.000Z</Time>
            <Position>
              <LatitudeDegrees>36.8174293823540210723876953125</LatitudeDegrees>
              <LongitudeDegrees>-4.3804840184748172760009765625</LongitudeDegrees>
            </Position>
            <AltitudeMeters>823.79998779296875</AltitudeMeters>
            <DistanceMeters>NAN</DistanceMeters>
          </Trackpoint>
          <Trackpoint>
            <Time>2020-12-05T09:24:28.000Z</Time>
            <Position>
              <LatitudeDegrees>36.81743927299976348876953125</LatitudeDegrees>
              <LongitudeDegrees>-4.38048913143575191497802734375</LongitudeDegrees>
            </Position>
            <AltitudeMeters>823.5999755859375</AltitudeMeters>
            <DistanceMeters>NAN</DistanceMeters>
          </Trackpoint>
          <Trackpoint>
            <Time>2020-12-05T09:24:29.000Z</Time>
            <Position>
              <LatitudeDegrees>36.817446984350681304931640625</LatitudeDegrees>
              <LongitudeDegrees>-4.3804897181689739227294921875</LongitudeDegrees>
            </Position>
            <AltitudeMeters>823.4000244140625</AltitudeMeters>
            <DistanceMeters>NAN</DistanceMeters>
          </Trackpoint>
          <Trackpoint>
            <Time>2020-12-05T09:24:30.000Z</Time>
            <Position>
              <LatitudeDegrees>36.8174535222351551055908203125</LatitudeDegrees>
              <LongitudeDegrees>-4.38048779033124446868896484375</LongitudeDegrees>
            </Position>
            <AltitudeMeters>823.4000244140625</AltitudeMeters>
            <DistanceMeters>NAN</DistanceMeters>
          </Trackpoint>
          <Trackpoint>
            <Time>2020-12-05T09:24:31.000Z</Time>
            <Position>
              <LatitudeDegrees>36.817461065948009490966796875</LatitudeDegrees>
              <LongitudeDegrees>-4.38048309646546840667724609375</LongitudeDegrees>
            </Position>
            <AltitudeMeters>823.4000244140625</AltitudeMeters>
            <DistanceMeters>NAN</DistanceMeters>
          </Trackpoint>
          <Trackpoint>
            <Time>2020-12-05T09:24:32.000Z</Time>
            <Position>
              <LatitudeDegrees>36.8174753151834011077880859375</LatitudeDegrees>
              <LongitudeDegrees>-4.3804831802845001220703125</LongitudeDegrees>
            </Position>
            <AltitudeMeters>823.4000244140625</AltitudeMeters>
            <DistanceMeters>NAN</DistanceMeters>
          </Trackpoint>
          <Trackpoint>
            <Time>2020-12-05T09:24:33.000Z</Time>
            <Position>
              <LatitudeDegrees>36.81748931296169757843017578125</LatitudeDegrees>
              <LongitudeDegrees>-4.38048611395061016082763671875</LongitudeDegrees>
            </Position>
            <AltitudeMeters>823.4000244140625</AltitudeMeters>
            <DistanceMeters>NAN</DistanceMeters>
          </Trackpoint>
          <Trackpoint>
            <Time>2020-12-05T09:24:34.000Z</Time>
            <Position>
              <LatitudeDegrees>36.81750138290226459503173828125</LatitudeDegrees>
              <LongitudeDegrees>-4.3804856948554515838623046875</LongitudeDegrees>
            </Position>
            <AltitudeMeters>823.4000244140625</AltitudeMeters>
            <DistanceMeters>NAN</DistanceMeters>
          </Trackpoint>
          <Trackpoint>
            <Time>2020-12-05T09:24:35.000Z</Time>
            <Position>
              <LatitudeDegrees>36.8175115250051021575927734375</LatitudeDegrees>
              <LongitudeDegrees>-4.3804924003779888153076171875</LongitudeDegrees>
            </Position>
            <AltitudeMeters>823.4000244140625</AltitudeMeters>
            <DistanceMeters>NAN</DistanceMeters>
          </Trackpoint>
          <Trackpoint>
            <Time>2020-12-05T09:24:36.000Z</Time>
            <Position>
              <LatitudeDegrees>36.81752468459308147430419921875</LatitudeDegrees>
              <LongitudeDegrees>-4.38050086610019207000732421875</LongitudeDegrees>
            </Position>
            <AltitudeMeters>823.4000244140625</AltitudeMeters>
            <DistanceMeters>NAN</DistanceMeters>
          </Trackpoint>
          <Trackpoint>
            <Time>2020-12-05T09:24:37.000Z</Time>
            <Position>
              <LatitudeDegrees>36.8175418674945831298828125</LatitudeDegrees>
              <LongitudeDegrees>-4.38050187192857265472412109375</LongitudeDegrees>
            </Position>
            <AltitudeMeters>823.4000244140625</AltitudeMeters>
            <DistanceMeters>NAN</DistanceMeters>
          </Trackpoint>
          <Trackpoint>
            <Time>2020-12-05T09:24:38.000Z</Time>
            <Position>
              <LatitudeDegrees>36.81755737401545047760009765625</LatitudeDegrees>
              <LongitudeDegrees>-4.38050396740436553955078125</LongitudeDegrees>
            </Position>
            <AltitudeMeters>823.4000244140625</AltitudeMeters>
            <DistanceMeters>NAN</DistanceMeters>
          </Trackpoint>
          <Trackpoint>
            <Time>2020-12-05T09:24:39.000Z</Time>
            <Position>
              <LatitudeDegrees>36.8175705336034297943115234375</LatitudeDegrees>
              <LongitudeDegrees>-4.3805046379566192626953125</LongitudeDegrees>
            </Position>
            <AltitudeMeters>823.4000244140625</AltitudeMeters>
            <DistanceMeters>NAN</DistanceMeters>
          </Trackpoint>
          <Trackpoint>
            <Time>2020-12-05T09:24:40.000Z</Time>
            <Position>
              <LatitudeDegrees>36.81758419610559940338134765625</LatitudeDegrees>
              <LongitudeDegrees>-4.38050639815628528594970703125</LongitudeDegrees>
            </Position>
            <AltitudeMeters>823.4000244140625</AltitudeMeters>
            <DistanceMeters>NAN</DistanceMeters>
          </Trackpoint>
          <Trackpoint>
            <Time>2020-12-05T09:24:41.000Z</Time>
            <Position>
              <LatitudeDegrees>36.81759676896035671234130859375</LatitudeDegrees>
              <LongitudeDegrees>-4.38050623051822185516357421875</LongitudeDegrees>
            </Position>
            <AltitudeMeters>823.20001220703125</AltitudeMeters>
            <DistanceMeters>NAN</DistanceMeters>
          </Trackpoint>
          <Trackpoint>
            <Time>2020-12-05T09:24:42.000Z</Time>
            <Position>
              <LatitudeDegrees>36.81760900653898715972900390625</LatitudeDegrees>
              <LongitudeDegrees>-4.3805041350424289703369140625</LongitudeDegrees>
            </Position>
            <AltitudeMeters>823.20001220703125</AltitudeMeters>
            <DistanceMeters>NAN</DistanceMeters>
          </Trackpoint>
          <Trackpoint>
            <Time>2020-12-05T09:24:43.000Z</Time>
            <Position>
              <LatitudeDegrees>36.8176211602985858917236328125</LatitudeDegrees>
              <LongitudeDegrees>-4.3805037997663021087646484375</LongitudeDegrees>
            </Position>
            <AltitudeMeters>823.20001220703125</AltitudeMeters>
            <DistanceMeters>NAN</DistanceMeters>
          </Trackpoint>
          <Trackpoint>
            <Time>2020-12-05T09:24:44.000Z</Time>
            <Position>
              <LatitudeDegrees>36.81763431988656520843505859375</LatitudeDegrees>
              <LongitudeDegrees>-4.3805048055946826934814453125</LongitudeDegrees>
            </Position>
            <AltitudeMeters>823.20001220703125</AltitudeMeters>
            <DistanceMeters>NAN</DistanceMeters>
          </Trackpoint>
          <Trackpoint>
            <Time>2020-12-05T09:24:45.000Z</Time>
            <Position>
              <LatitudeDegrees>36.8176449649035930633544921875</LatitudeDegrees>
              <LongitudeDegrees>-4.380502961575984954833984375</LongitudeDegrees>
            </Position>
            <AltitudeMeters>823.20001220703125</AltitudeMeters>
            <DistanceMeters>NAN</DistanceMeters>
          </Trackpoint>
          <Trackpoint>
            <Time>2020-12-05T09:24:46.000Z</Time>
            <Position>
              <LatitudeDegrees>36.81765695102512836456298828125</LatitudeDegrees>
              <LongitudeDegrees>-4.3805011175572872161865234375</LongitudeDegrees>
            </Position>
            <AltitudeMeters>823.4000244140625</AltitudeMeters>
            <DistanceMeters>NAN</DistanceMeters>
          </Trackpoint>
          <Trackpoint>
            <Time>2020-12-05T09:24:47.000Z</Time>
            <Position>
              <LatitudeDegrees>36.8176679313182830810546875</LatitudeDegrees>
              <LongitudeDegrees>-4.38050120137631893157958984375</LongitudeDegrees>
            </Position>
            <AltitudeMeters>823.4000244140625</AltitudeMeters>
            <DistanceMeters>NAN</DistanceMeters>
          </Trackpoint>
          <Trackpoint>
            <Time>2020-12-05T09:24:48.000Z</Time>
            <Position>
              <LatitudeDegrees>36.8176791630685329437255859375</LatitudeDegrees>
              <LongitudeDegrees>-4.3805041350424289703369140625</LongitudeDegrees>
            </Position>
            <AltitudeMeters>823.4000244140625</AltitudeMeters>
            <DistanceMeters>NAN</DistanceMeters>
          </Trackpoint>
          <Trackpoint>
            <Time>2020-12-05T09:24:49.000Z</Time>
            <Position>
              <LatitudeDegrees>36.81768813170492649078369140625</LatitudeDegrees>
              <LongitudeDegrees>-4.38050857745110988616943359375</LongitudeDegrees>
            </Position>
            <AltitudeMeters>823.4000244140625</AltitudeMeters>
            <DistanceMeters>NAN</DistanceMeters>
          </Trackpoint>
          <Trackpoint>
            <Time>2020-12-05T09:24:50.000Z</Time>
            <Position>
              <LatitudeDegrees>36.81769450195133686065673828125</LatitudeDegrees>
              <LongitudeDegrees>-4.380519054830074310302734375</LongitudeDegrees>
            </Position>
            <AltitudeMeters>823.4000244140625</AltitudeMeters>
            <DistanceMeters>NAN</DistanceMeters>
          </Trackpoint>
          <Trackpoint>
            <Time>2020-12-05T09:24:51.000Z</Time>
            <Position>
              <LatitudeDegrees>36.81770212948322296142578125</LatitudeDegrees>
              <LongitudeDegrees>-4.3805286101996898651123046875</LongitudeDegrees>
            </Position>
            <AltitudeMeters>823.4000244140625</AltitudeMeters>
            <DistanceMeters>NAN</DistanceMeters>
          </Trackpoint>
          <Trackpoint>
            <Time>2020-12-05T09:24:52.000Z</Time>
            <Position>
              <LatitudeDegrees>36.817713193595409393310546875</LatitudeDegrees>
              <LongitudeDegrees>-4.38053841702640056610107421875</LongitudeDegrees>
            </Position>
            <AltitudeMeters>823.4000244140625</AltitudeMeters>
            <DistanceMeters>NAN</DistanceMeters>
          </Trackpoint>
          <Trackpoint>
            <Time>2020-12-05T09:24:53.000Z</Time>
            <Position>
              <LatitudeDegrees>36.81772517971694469451904296875</LatitudeDegrees>
              <LongitudeDegrees>-4.380547888576984405517578125</LongitudeDegrees>
            </Position>
            <AltitudeMeters>823.4000244140625</AltitudeMeters>
            <DistanceMeters>NAN</DistanceMeters>
          </Trackpoint>
          <Trackpoint>
            <Time>2020-12-05T09:24:54.000Z</Time>
            <Position>
              <LatitudeDegrees>36.81773523800075054168701171875</LatitudeDegrees>
              <LongitudeDegrees>-4.380555264651775360107421875</LongitudeDegrees>
            </Position>
            <AltitudeMeters>823.4000244140625</AltitudeMeters>
            <DistanceMeters>NAN</DistanceMeters>
          </Trackpoint>
          <Trackpoint>
            <Time>2020-12-05T09:24:55.000Z</Time>
            <Position>
              <LatitudeDegrees>36.81774579919874668121337890625</LatitudeDegrees>
              <LongitudeDegrees>-4.3805636465549468994140625</LongitudeDegrees>
            </Position>
            <AltitudeMeters>823.4000244140625</AltitudeMeters>
            <DistanceMeters>NAN</DistanceMeters>
          </Trackpoint>
          <Trackpoint>
            <Time>2020-12-05T09:24:56.000Z</Time>
            <Position>
              <LatitudeDegrees>36.81775652803480625152587890625</LatitudeDegrees>
              <LongitudeDegrees>-4.38057144172489643096923828125</LongitudeDegrees>
            </Position>
            <AltitudeMeters>823.4000244140625</AltitudeMeters>
            <DistanceMeters>NAN</DistanceMeters>
          </Trackpoint>
          <Trackpoint>
            <Time>2020-12-05T09:24:57.000Z</Time>
            <Position>
              <LatitudeDegrees>36.81776356883347034454345703125</LatitudeDegrees>
              <LongitudeDegrees>-4.38057965599000453948974609375</LongitudeDegrees>
            </Position>
            <AltitudeMeters>823.4000244140625</AltitudeMeters>
            <DistanceMeters>NAN</DistanceMeters>
          </Trackpoint>
          <Trackpoint>
            <Time>2020-12-05T09:24:58.000Z</Time>
            <Position>
              <LatitudeDegrees>36.81776960380375385284423828125</LatitudeDegrees>
              <LongitudeDegrees>-4.380584098398685455322265625</LongitudeDegrees>
            </Position>
            <AltitudeMeters>823.5999755859375</AltitudeMeters>
            <DistanceMeters>NAN</DistanceMeters>
          </Trackpoint>
          <Trackpoint>
            <Time>2020-12-05T09:24:59.000Z</Time>
            <Position>
              <LatitudeDegrees>36.81777630932629108428955078125</LatitudeDegrees>
              <LongitudeDegrees>-4.380589462816715240478515625</LongitudeDegrees>
            </Position>
            <AltitudeMeters>823.5999755859375</AltitudeMeters>
            <DistanceMeters>NAN</DistanceMeters>
          </Trackpoint>
          <Trackpoint>
            <Time>2020-12-05T09:25:00.000Z</Time>
            <Position>
              <LatitudeDegrees>36.81778351776301860809326171875</LatitudeDegrees>
              <LongitudeDegrees>-4.38059373758733272552490234375</LongitudeDegrees>
            </Position>
            <AltitudeMeters>823.79998779296875</AltitudeMeters>
            <DistanceMeters>NAN</DistanceMeters>
          </Trackpoint>
          <Trackpoint>
            <Time>2020-12-05T09:25:01.000Z</Time>
            <Position>
              <LatitudeDegrees>36.81779106147587299346923828125</LatitudeDegrees>
              <LongitudeDegrees>-4.38059910200536251068115234375</LongitudeDegrees>
            </Position>
            <AltitudeMeters>823.79998779296875</AltitudeMeters>
            <DistanceMeters>NAN</DistanceMeters>
          </Trackpoint>
          <Trackpoint>
            <Time>2020-12-05T09:25:02.000Z</Time>
            <Position>
              <LatitudeDegrees>36.8177966773509979248046875</LatitudeDegrees>
              <LongitudeDegrees>-4.3806080706417560577392578125</LongitudeDegrees>
            </Position>
            <AltitudeMeters>823.79998779296875</AltitudeMeters>
            <DistanceMeters>NAN</DistanceMeters>
          </Trackpoint>
          <Trackpoint>
            <Time>2020-12-05T09:25:03.000Z</Time>
            <Position>
              <LatitudeDegrees>36.81780405342578887939453125</LatitudeDegrees>
              <LongitudeDegrees>-4.38062022440135478973388671875</LongitudeDegrees>
            </Position>
            <AltitudeMeters>823.79998779296875</AltitudeMeters>
            <DistanceMeters>NAN</DistanceMeters>
          </Trackpoint>
          <Trackpoint>
            <Time>2020-12-05T09:25:04.000Z</Time>
            <Position>
              <LatitudeDegrees>36.817813105881214141845703125</LatitudeDegrees>
              <LongitudeDegrees>-4.38063003122806549072265625</LongitudeDegrees>
            </Position>
            <AltitudeMeters>823.79998779296875</AltitudeMeters>
            <DistanceMeters>NAN</DistanceMeters>
          </Trackpoint>
          <Trackpoint>
            <Time>2020-12-05T09:25:05.000Z</Time>
            <Position>
              <LatitudeDegrees>36.81782257743179798126220703125</LatitudeDegrees>
              <LongitudeDegrees>-4.38063933514058589935302734375</LongitudeDegrees>
            </Position>
            <AltitudeMeters>823.79998779296875</AltitudeMeters>
            <DistanceMeters>NAN</DistanceMeters>
          </Trackpoint>
          <Trackpoint>
            <Time>2020-12-05T09:25:06.000Z</Time>
            <Position>
              <LatitudeDegrees>36.817829869687557220458984375</LatitudeDegrees>
              <LongitudeDegrees>-4.3806496448814868927001953125</LongitudeDegrees>
            </Position>
            <AltitudeMeters>823.79998779296875</AltitudeMeters>
            <DistanceMeters>NAN</DistanceMeters>
          </Trackpoint>
          <Trackpoint>
            <Time>2020-12-05T09:25:07.000Z</Time>
            <Position>
              <LatitudeDegrees>36.8178374134004116058349609375</LatitudeDegrees>
              <LongitudeDegrees>-4.38065819442272186279296875</LongitudeDegrees>
            </Position>
            <AltitudeMeters>823.79998779296875</AltitudeMeters>
            <DistanceMeters>NAN</DistanceMeters>
          </Trackpoint>
          <Trackpoint>
            <Time>2020-12-05T09:25:08.000Z</Time>
            <Position>
              <LatitudeDegrees>36.81784403510391712188720703125</LatitudeDegrees>
              <LongitudeDegrees>-4.38066766597330570220947265625</LongitudeDegrees>
            </Position>
            <AltitudeMeters>823.79998779296875</AltitudeMeters>
            <DistanceMeters>NAN</DistanceMeters>
          </Trackpoint>
          <Trackpoint>
            <Time>2020-12-05T09:25:09.000Z</Time>
            <Position>
              <LatitudeDegrees>36.8178531713783740997314453125</LatitudeDegrees>
              <LongitudeDegrees>-4.380677305161952972412109375</LongitudeDegrees>
            </Position>
            <AltitudeMeters>823.79998779296875</AltitudeMeters>
            <DistanceMeters>NAN</DistanceMeters>
          </Trackpoint>
          <Trackpoint>
            <Time>2020-12-05T09:25:10.000Z</Time>
            <Position>
              <LatitudeDegrees>36.81786264292895793914794921875</LatitudeDegrees>
              <LongitudeDegrees>-4.38068811781704425811767578125</LongitudeDegrees>
            </Position>
            <AltitudeMeters>823.79998779296875</AltitudeMeters>
            <DistanceMeters>NAN</DistanceMeters>
          </Trackpoint>
          <Trackpoint>
            <Time>2020-12-05T09:25:11.000Z</Time>
            <Position>
              <LatitudeDegrees>36.8178709410130977630615234375</LatitudeDegrees>
              <LongitudeDegrees>-4.3806972540915012359619140625</LongitudeDegrees>
            </Position>
            <AltitudeMeters>823.79998779296875</AltitudeMeters>
            <DistanceMeters>NAN</DistanceMeters>
          </Trackpoint>
          <Trackpoint>
            <Time>2020-12-05T09:25:12.000Z</Time>
            <Position>
              <LatitudeDegrees>36.8178786523640155792236328125</LatitudeDegrees>
              <LongitudeDegrees>-4.3807136826217174530029296875</LongitudeDegrees>
            </Position>
            <AltitudeMeters>823.5999755859375</AltitudeMeters>
            <DistanceMeters>NAN</DistanceMeters>
          </Trackpoint>
          <Trackpoint>
            <Time>2020-12-05T09:25:13.000Z</Time>
            <Position>
              <LatitudeDegrees>36.81788611225783824920654296875</LatitudeDegrees>
              <LongitudeDegrees>-4.38073086552321910858154296875</LongitudeDegrees>
            </Position>
            <AltitudeMeters>823.5999755859375</AltitudeMeters>
            <DistanceMeters>NAN</DistanceMeters>
          </Trackpoint>
          <Trackpoint>
            <Time>2020-12-05T09:25:14.000Z</Time>
            <Position>
              <LatitudeDegrees>36.817896254360675811767578125</LatitudeDegrees>
              <LongitudeDegrees>-4.38074268400669097900390625</LongitudeDegrees>
            </Position>
            <AltitudeMeters>823.5999755859375</AltitudeMeters>
            <DistanceMeters>NAN</DistanceMeters>
          </Trackpoint>
          <Trackpoint>
            <Time>2020-12-05T09:25:15.000Z</Time>
            <Position>
              <LatitudeDegrees>36.8179034627974033355712890625</LatitudeDegrees>
              <LongitudeDegrees>-4.38075131736695766448974609375</LongitudeDegrees>
            </Position>
            <AltitudeMeters>823.79998779296875</AltitudeMeters>
            <DistanceMeters>NAN</DistanceMeters>
          </Trackpoint>
          <Trackpoint>
            <Time>2020-12-05T09:25:16.000Z</Time>
            <Position>
              <LatitudeDegrees>36.81791134178638458251953125</LatitudeDegrees>
              <LongitudeDegrees>-4.380755759775638580322265625</LongitudeDegrees>
            </Position>
            <AltitudeMeters>823.79998779296875</AltitudeMeters>
            <DistanceMeters>NAN</DistanceMeters>
          </Trackpoint>
          <Trackpoint>
            <Time>2020-12-05T09:25:17.000Z</Time>
            <Position>
              <LatitudeDegrees>36.817918717861175537109375</LatitudeDegrees>
              <LongitudeDegrees>-4.380759112536907196044921875</LongitudeDegrees>
            </Position>
            <AltitudeMeters>823.79998779296875</AltitudeMeters>
            <DistanceMeters>NAN</DistanceMeters>
          </Trackpoint>
          <Trackpoint>
            <Time>2020-12-05T09:25:18.000Z</Time>
            <Position>
              <LatitudeDegrees>36.817924417555332183837890625</LatitudeDegrees>
              <LongitudeDegrees>-4.38076238147914409637451171875</LongitudeDegrees>
            </Position>
            <AltitudeMeters>824</AltitudeMeters>
            <DistanceMeters>NAN</DistanceMeters>
          </Trackpoint>
          <Trackpoint>
            <Time>2020-12-05T09:25:19.000Z</Time>
            <Position>
              <LatitudeDegrees>36.8179289437830448150634765625</LatitudeDegrees>
              <LongitudeDegrees>-4.3807674944400787353515625</LongitudeDegrees>
            </Position>
            <AltitudeMeters>824.20001220703125</AltitudeMeters>
            <DistanceMeters>NAN</DistanceMeters>
          </Trackpoint>
          <Trackpoint>
            <Time>2020-12-05T09:25:20.000Z</Time>
            <Position>
              <LatitudeDegrees>36.8179343082010746002197265625</LatitudeDegrees>
              <LongitudeDegrees>-4.3807777203619480133056640625</LongitudeDegrees>
            </Position>
            <AltitudeMeters>824.5999755859375</AltitudeMeters>
            <DistanceMeters>NAN</DistanceMeters>
          </Trackpoint>
          <Trackpoint>
            <Time>2020-12-05T09:25:21.000Z</Time>
            <Position>
              <LatitudeDegrees>36.8179403431713581085205078125</LatitudeDegrees>
              <LongitudeDegrees>-4.38079364597797393798828125</LongitudeDegrees>
            </Position>
            <AltitudeMeters>824.79998779296875</AltitudeMeters>
            <DistanceMeters>NAN</DistanceMeters>
          </Trackpoint>
          <Trackpoint>
            <Time>2020-12-05T09:25:22.000Z</Time>
            <Position>
              <LatitudeDegrees>36.81795014999806880950927734375</LatitudeDegrees>
              <LongitudeDegrees>-4.38081133179366588592529296875</LongitudeDegrees>
            </Position>
            <AltitudeMeters>824.79998779296875</AltitudeMeters>
            <DistanceMeters>NAN</DistanceMeters>
          </Trackpoint>
          <Trackpoint>
            <Time>2020-12-05T09:25:23.000Z</Time>
            <Position>
              <LatitudeDegrees>36.817961968481540679931640625</LatitudeDegrees>
              <LongitudeDegrees>-4.3808303587138652801513671875</LongitudeDegrees>
            </Position>
            <AltitudeMeters>825</AltitudeMeters>
            <DistanceMeters>NAN</DistanceMeters>
          </Trackpoint>
          <Trackpoint>
            <Time>2020-12-05T09:25:24.000Z</Time>
            <Position>
              <LatitudeDegrees>36.81797035038471221923828125</LatitudeDegrees>
              <LongitudeDegrees>-4.38084863126277923583984375</LongitudeDegrees>
            </Position>
            <AltitudeMeters>825</AltitudeMeters>
            <DistanceMeters>NAN</DistanceMeters>
          </Trackpoint>
          <Trackpoint>
            <Time>2020-12-05T09:25:25.000Z</Time>
            <Position>
              <LatitudeDegrees>36.81797412224113941192626953125</LatitudeDegrees>
              <LongitudeDegrees>-4.38086698763072490692138671875</LongitudeDegrees>
            </Position>
            <AltitudeMeters>825.20001220703125</AltitudeMeters>
            <DistanceMeters>NAN</DistanceMeters>
          </Trackpoint>
          <Trackpoint>
            <Time>2020-12-05T09:25:26.000Z</Time>
            <Position>
              <LatitudeDegrees>36.81797730736434459686279296875</LatitudeDegrees>
              <LongitudeDegrees>-4.38089079223573207855224609375</LongitudeDegrees>
            </Position>
            <AltitudeMeters>825</AltitudeMeters>
            <DistanceMeters>NAN</DistanceMeters>
          </Trackpoint>
          <Trackpoint>
            <Time>2020-12-05T09:25:27.000Z</Time>
            <Position>
              <LatitudeDegrees>36.81798334233462810516357421875</LatitudeDegrees>
              <LongitudeDegrees>-4.38090621493756771087646484375</LongitudeDegrees>
            </Position>
            <AltitudeMeters>825</AltitudeMeters>
            <DistanceMeters>NAN</DistanceMeters>
          </Trackpoint>
          <Trackpoint>
            <Time>2020-12-05T09:25:28.000Z</Time>
            <Position>
              <LatitudeDegrees>36.81798216886818408966064453125</LatitudeDegrees>
              <LongitudeDegrees>-4.380923397839069366455078125</LongitudeDegrees>
            </Position>
            <AltitudeMeters>825</AltitudeMeters>
            <DistanceMeters>NAN</DistanceMeters>
          </Trackpoint>
          <Trackpoint>
            <Time>2020-12-05T09:25:29.000Z</Time>
            <Position>
              <LatitudeDegrees>36.81797998957335948944091796875</LatitudeDegrees>
              <LongitudeDegrees>-4.380942173302173614501953125</LongitudeDegrees>
            </Position>
            <AltitudeMeters>824.79998779296875</AltitudeMeters>
            <DistanceMeters>NAN</DistanceMeters>
          </Trackpoint>
          <Trackpoint>
            <Time>2020-12-05T09:25:30.000Z</Time>
            <Position>
              <LatitudeDegrees>36.8179755471646785736083984375</LatitudeDegrees>
              <LongitudeDegrees>-4.38095533289015293121337890625</LongitudeDegrees>
            </Position>
            <AltitudeMeters>824.5999755859375</AltitudeMeters>
            <DistanceMeters>NAN</DistanceMeters>
          </Trackpoint>
          <Trackpoint>
            <Time>2020-12-05T09:25:31.000Z</Time>
            <Position>
              <LatitudeDegrees>36.81796590797603130340576171875</LatitudeDegrees>
              <LongitudeDegrees>-4.380959607660770416259765625</LongitudeDegrees>
            </Position>
            <AltitudeMeters>824.4000244140625</AltitudeMeters>
            <DistanceMeters>NAN</DistanceMeters>
          </Trackpoint>
          <Trackpoint>
            <Time>2020-12-05T09:25:32.000Z</Time>
            <Position>
              <LatitudeDegrees>36.817958615720272064208984375</LatitudeDegrees>
              <LongitudeDegrees>-4.38096472062170505523681640625</LongitudeDegrees>
            </Position>
            <AltitudeMeters>824.4000244140625</AltitudeMeters>
            <DistanceMeters>NAN</DistanceMeters>
          </Trackpoint>
          <Trackpoint>
            <Time>2020-12-05T09:25:33.000Z</Time>
            <Position>
              <LatitudeDegrees>36.8179468810558319091796875</LatitudeDegrees>
              <LongitudeDegrees>-4.38096069730818271636962890625</LongitudeDegrees>
            </Position>
            <AltitudeMeters>824.4000244140625</AltitudeMeters>
            <DistanceMeters>NAN</DistanceMeters>
          </Trackpoint>
          <Trackpoint>
            <Time>2020-12-05T09:25:34.000Z</Time>
            <Position>
              <LatitudeDegrees>36.8179353140294551849365234375</LatitudeDegrees>
              <LongitudeDegrees>-4.3809557519853115081787109375</LongitudeDegrees>
            </Position>
            <AltitudeMeters>824.20001220703125</AltitudeMeters>
            <DistanceMeters>NAN</DistanceMeters>
          </Trackpoint>
          <Trackpoint>
            <Time>2020-12-05T09:25:35.000Z</Time>
            <Position>
              <LatitudeDegrees>36.81792248971760272979736328125</LatitudeDegrees>
              <LongitudeDegrees>-4.3809497170150279998779296875</LongitudeDegrees>
            </Position>
            <AltitudeMeters>824.20001220703125</AltitudeMeters>
            <DistanceMeters>NAN</DistanceMeters>
          </Trackpoint>
          <Trackpoint>
            <Time>2020-12-05T09:25:36.000Z</Time>
            <Position>
              <LatitudeDegrees>36.817910671234130859375</LatitudeDegrees>
              <LongitudeDegrees>-4.38094812445342540740966796875</LongitudeDegrees>
            </Position>
            <AltitudeMeters>824.20001220703125</AltitudeMeters>
            <DistanceMeters>NAN</DistanceMeters>
          </Trackpoint>
          <Trackpoint>
            <Time>2020-12-05T09:25:37.000Z</Time>
            <Position>
              <LatitudeDegrees>36.81790455244481563568115234375</LatitudeDegrees>
              <LongitudeDegrees>-4.38094812445342540740966796875</LongitudeDegrees>
            </Position>
            <AltitudeMeters>824.20001220703125</AltitudeMeters>
            <DistanceMeters>NAN</DistanceMeters>
          </Trackpoint>
          <Trackpoint>
            <Time>2020-12-05T09:25:38.000Z</Time>
            <Position>
              <LatitudeDegrees>36.8179007805883884429931640625</LatitudeDegrees>
              <LongitudeDegrees>-4.38095114193856716156005859375</LongitudeDegrees>
            </Position>
            <AltitudeMeters>824</AltitudeMeters>
            <DistanceMeters>NAN</DistanceMeters>
          </Trackpoint>
          <Trackpoint>
            <Time>2020-12-05T09:25:39.000Z</Time>
            <Position>
              <LatitudeDegrees>36.8178964219987392425537109375</LatitudeDegrees>
              <LongitudeDegrees>-4.3809537403285503387451171875</LongitudeDegrees>
            </Position>
            <AltitudeMeters>823.79998779296875</AltitudeMeters>
            <DistanceMeters>NAN</DistanceMeters>
          </Trackpoint>
          <Trackpoint>
            <Time>2020-12-05T09:25:40.000Z</Time>
            <Position>
              <LatitudeDegrees>36.8178826756775379180908203125</LatitudeDegrees>
              <LongitudeDegrees>-4.38097075559198856353759765625</LongitudeDegrees>
            </Position>
            <AltitudeMeters>823.5999755859375</AltitudeMeters>
            <DistanceMeters>NAN</DistanceMeters>
          </Trackpoint>
          <Trackpoint>
            <Time>2020-12-05T09:25:41.000Z</Time>
            <Position>
              <LatitudeDegrees>36.8178672529757022857666015625</LatitudeDegrees>
              <LongitudeDegrees>-4.38098634593188762664794921875</LongitudeDegrees>
            </Position>
            <AltitudeMeters>823.20001220703125</AltitudeMeters>
            <DistanceMeters>NAN</DistanceMeters>
          </Trackpoint>
          <Trackpoint>
            <Time>2020-12-05T09:25:42.000Z</Time>
            <Position>
              <LatitudeDegrees>36.81785342283546924591064453125</LatitudeDegrees>
              <LongitudeDegrees>-4.380999505519866943359375</LongitudeDegrees>
            </Position>
            <AltitudeMeters>823</AltitudeMeters>
            <DistanceMeters>NAN</DistanceMeters>
          </Trackpoint>
          <Trackpoint>
            <Time>2020-12-05T09:25:43.000Z</Time>
            <Position>
              <LatitudeDegrees>36.81784026324748992919921875</LatitudeDegrees>
              <LongitudeDegrees>-4.38101031817495822906494140625</LongitudeDegrees>
            </Position>
            <AltitudeMeters>823</AltitudeMeters>
            <DistanceMeters>NAN</DistanceMeters>
          </Trackpoint>
          <Trackpoint>
            <Time>2020-12-05T09:25:44.000Z</Time>
            <Position>
              <LatitudeDegrees>36.81783045642077922821044921875</LatitudeDegrees>
              <LongitudeDegrees>-4.38102389685809612274169921875</LongitudeDegrees>
            </Position>
            <AltitudeMeters>822.79998779296875</AltitudeMeters>
            <DistanceMeters>NAN</DistanceMeters>
          </Trackpoint>
          <Trackpoint>
            <Time>2020-12-05T09:25:45.000Z</Time>
            <Position>
              <LatitudeDegrees>36.81782123632729053497314453125</LatitudeDegrees>
              <LongitudeDegrees>-4.38103613443672657012939453125</LongitudeDegrees>
            </Position>
            <AltitudeMeters>822.79998779296875</AltitudeMeters>
            <DistanceMeters>NAN</DistanceMeters>
          </Trackpoint>
          <Trackpoint>
            <Time>2020-12-05T09:25:46.000Z</Time>
            <Position>
              <LatitudeDegrees>36.81781184859573841094970703125</LatitudeDegrees>
              <LongitudeDegrees>-4.38104636035859584808349609375</LongitudeDegrees>
            </Position>
            <AltitudeMeters>822.5999755859375</AltitudeMeters>
            <DistanceMeters>NAN</DistanceMeters>
          </Trackpoint>
          <Trackpoint>
            <Time>2020-12-05T09:25:47.000Z</Time>
            <Position>
              <LatitudeDegrees>36.8178015388548374176025390625</LatitudeDegrees>
              <LongitudeDegrees>-4.3810553289949893951416015625</LongitudeDegrees>
            </Position>
            <AltitudeMeters>822.5999755859375</AltitudeMeters>
            <DistanceMeters>NAN</DistanceMeters>
          </Trackpoint>
          <Trackpoint>
            <Time>2020-12-05T09:25:48.000Z</Time>
            <Position>
              <LatitudeDegrees>36.81779223494231700897216796875</LatitudeDegrees>
              <LongitudeDegrees>-4.3810627050697803497314453125</LongitudeDegrees>
            </Position>
            <AltitudeMeters>822.4000244140625</AltitudeMeters>
            <DistanceMeters>NAN</DistanceMeters>
          </Trackpoint>
          <Trackpoint>
            <Time>2020-12-05T09:25:49.000Z</Time>
            <Position>
              <LatitudeDegrees>36.817784942686557769775390625</LatitudeDegrees>
              <LongitudeDegrees>-4.3810694105923175811767578125</LongitudeDegrees>
            </Position>
            <AltitudeMeters>822.4000244140625</AltitudeMeters>
            <DistanceMeters>NAN</DistanceMeters>
          </Trackpoint>
          <Trackpoint>
            <Time>2020-12-05T09:25:50.000Z</Time>
            <Position>
              <LatitudeDegrees>36.81777999736368656158447265625</LatitudeDegrees>
              <LongitudeDegrees>-4.38107837922871112823486328125</LongitudeDegrees>
            </Position>
            <AltitudeMeters>822.20001220703125</AltitudeMeters>
            <DistanceMeters>NAN</DistanceMeters>
          </Trackpoint>
          <Trackpoint>
            <Time>2020-12-05T09:25:51.000Z</Time>
            <Position>
              <LatitudeDegrees>36.81777345947921276092529296875</LatitudeDegrees>
              <LongitudeDegrees>-4.38108759932219982147216796875</LongitudeDegrees>
            </Position>
            <AltitudeMeters>822.20001220703125</AltitudeMeters>
            <DistanceMeters>NAN</DistanceMeters>
          </Trackpoint>
          <Trackpoint>
            <Time>2020-12-05T09:25:52.000Z</Time>
            <Position>
              <LatitudeDegrees>36.81776918470859527587890625</LatitudeDegrees>
              <LongitudeDegrees>-4.381097070872783660888671875</LongitudeDegrees>
            </Position>
            <AltitudeMeters>822.20001220703125</AltitudeMeters>
            <DistanceMeters>NAN</DistanceMeters>
          </Trackpoint>
          <Trackpoint>
            <Time>2020-12-05T09:25:53.000Z</Time>
            <Position>
              <LatitudeDegrees>36.81776457466185092926025390625</LatitudeDegrees>
              <LongitudeDegrees>-4.3811029382050037384033203125</LongitudeDegrees>
            </Position>
            <AltitudeMeters>822</AltitudeMeters>
            <DistanceMeters>NAN</DistanceMeters>
          </Trackpoint>
          <Trackpoint>
            <Time>2020-12-05T09:25:54.000Z</Time>
            <Position>
              <LatitudeDegrees>36.81775845587253570556640625</LatitudeDegrees>
              <LongitudeDegrees>-4.38110687769949436187744140625</LongitudeDegrees>
            </Position>
            <AltitudeMeters>822</AltitudeMeters>
            <DistanceMeters>NAN</DistanceMeters>
          </Trackpoint>
          <Trackpoint>
            <Time>2020-12-05T09:25:55.000Z</Time>
            <Position>
              <LatitudeDegrees>36.817746721208095550537109375</LatitudeDegrees>
              <LongitudeDegrees>-4.3811150081455707550048828125</LongitudeDegrees>
            </Position>
            <AltitudeMeters>822</AltitudeMeters>
            <DistanceMeters>NAN</DistanceMeters>
          </Trackpoint>
          <Trackpoint>
            <Time>2020-12-05T09:25:56.000Z</Time>
            <Position>
              <LatitudeDegrees>36.81773574091494083404541015625</LatitudeDegrees>
              <LongitudeDegrees>-4.38112230040132999420166015625</LongitudeDegrees>
            </Position>
            <AltitudeMeters>821.79998779296875</AltitudeMeters>
            <DistanceMeters>NAN</DistanceMeters>
          </Trackpoint>
          <Trackpoint>
            <Time>2020-12-05T09:25:57.000Z</Time>
            <Position>
              <LatitudeDegrees>36.81772333569824695587158203125</LatitudeDegrees>
              <LongitudeDegrees>-4.38113160431385040283203125</LongitudeDegrees>
            </Position>
            <AltitudeMeters>821.79998779296875</AltitudeMeters>
            <DistanceMeters>NAN</DistanceMeters>
          </Trackpoint>
          <Trackpoint>
            <Time>2020-12-05T09:25:58.000Z</Time>
            <Position>
              <LatitudeDegrees>36.81771361269056797027587890625</LatitudeDegrees>
              <LongitudeDegrees>-4.381137974560260772705078125</LongitudeDegrees>
            </Position>
            <AltitudeMeters>821.5999755859375</AltitudeMeters>
            <DistanceMeters>NAN</DistanceMeters>
          </Trackpoint>
          <Trackpoint>
            <Time>2020-12-05T09:25:59.000Z</Time>
            <Position>
              <LatitudeDegrees>36.81770573370158672332763671875</LatitudeDegrees>
              <LongitudeDegrees>-4.38114233314990997314453125</LongitudeDegrees>
            </Position>
            <AltitudeMeters>821.5999755859375</AltitudeMeters>
            <DistanceMeters>NAN</DistanceMeters>
          </Trackpoint>
          <Trackpoint>
            <Time>2020-12-05T09:26:00.000Z</Time>
            <Position>
              <LatitudeDegrees>36.8177006207406520843505859375</LatitudeDegrees>
              <LongitudeDegrees>-4.38114476390182971954345703125</LongitudeDegrees>
            </Position>
            <AltitudeMeters>821.5999755859375</AltitudeMeters>
            <DistanceMeters>NAN</DistanceMeters>
          </Trackpoint>
          <Trackpoint>
            <Time>2020-12-05T09:26:01.000Z</Time>
            <Position>
              <LatitudeDegrees>36.8176992796361446380615234375</LatitudeDegrees>
              <LongitudeDegrees>-4.38115146942436695098876953125</LongitudeDegrees>
            </Position>
            <AltitudeMeters>821.4000244140625</AltitudeMeters>
            <DistanceMeters>NAN</DistanceMeters>
          </Trackpoint>
          <Trackpoint>
            <Time>2020-12-05T09:26:02.000Z</Time>
            <Position>
              <LatitudeDegrees>36.8176947534084320068359375</LatitudeDegrees>
              <LongitudeDegrees>-4.38116404227912425994873046875</LongitudeDegrees>
            </Position>
            <AltitudeMeters>821.4000244140625</AltitudeMeters>
            <DistanceMeters>NAN</DistanceMeters>
          </Trackpoint>
          <Trackpoint>
            <Time>2020-12-05T09:26:03.000Z</Time>
            <Position>
              <LatitudeDegrees>36.81769366376101970672607421875</LatitudeDegrees>
              <LongitudeDegrees>-4.38117586076259613037109375</LongitudeDegrees>
            </Position>
            <AltitudeMeters>821.20001220703125</AltitudeMeters>
            <DistanceMeters>NAN</DistanceMeters>
          </Trackpoint>
          <Trackpoint>
            <Time>2020-12-05T09:26:04.000Z</Time>
            <Position>
              <LatitudeDegrees>36.8176922388374805450439453125</LatitudeDegrees>
              <LongitudeDegrees>-4.38118969090282917022705078125</LongitudeDegrees>
            </Position>
            <AltitudeMeters>821</AltitudeMeters>
            <DistanceMeters>NAN</DistanceMeters>
          </Trackpoint>
          <Trackpoint>
            <Time>2020-12-05T09:26:05.000Z</Time>
            <Position>
              <LatitudeDegrees>36.817688383162021636962890625</LatitudeDegrees>
              <LongitudeDegrees>-4.381204359233379364013671875</LongitudeDegrees>
            </Position>
            <AltitudeMeters>821</AltitudeMeters>
            <DistanceMeters>NAN</DistanceMeters>
          </Trackpoint>
          <Trackpoint>
            <Time>2020-12-05T09:26:06.000Z</Time>
            <Position>
              <LatitudeDegrees>36.81768310256302356719970703125</LatitudeDegrees>
              <LongitudeDegrees>-4.381216429173946380615234375</LongitudeDegrees>
            </Position>
            <AltitudeMeters>821</AltitudeMeters>
            <DistanceMeters>NAN</DistanceMeters>
          </Trackpoint>
          <Trackpoint>
            <Time>2020-12-05T09:26:07.000Z</Time>
            <Position>
              <LatitudeDegrees>36.81767706759274005889892578125</LatitudeDegrees>
              <LongitudeDegrees>-4.38122816383838653564453125</LongitudeDegrees>
            </Position>
            <AltitudeMeters>821</AltitudeMeters>
            <DistanceMeters>NAN</DistanceMeters>
          </Trackpoint>
          <Trackpoint>
            <Time>2020-12-05T09:26:08.000Z</Time>
            <Position>
              <LatitudeDegrees>36.8176714517176151275634765625</LatitudeDegrees>
              <LongitudeDegrees>-4.3812424130737781524658203125</LongitudeDegrees>
            </Position>
            <AltitudeMeters>821</AltitudeMeters>
            <DistanceMeters>NAN</DistanceMeters>
          </Trackpoint>
          <Trackpoint>
            <Time>2020-12-05T09:26:09.000Z</Time>
            <Position>
              <LatitudeDegrees>36.81766499765217304229736328125</LatitudeDegrees>
              <LongitudeDegrees>-4.381260015070438385009765625</LongitudeDegrees>
            </Position>
            <AltitudeMeters>821</AltitudeMeters>
            <DistanceMeters>NAN</DistanceMeters>
          </Trackpoint>
          <Trackpoint>
            <Time>2020-12-05T09:26:10.000Z</Time>
            <Position>
              <LatitudeDegrees>36.81765929795801639556884765625</LatitudeDegrees>
              <LongitudeDegrees>-4.38127837143838405609130859375</LongitudeDegrees>
            </Position>
            <AltitudeMeters>821</AltitudeMeters>
            <DistanceMeters>NAN</DistanceMeters>
          </Trackpoint>
          <Trackpoint>
            <Time>2020-12-05T09:26:11.000Z</Time>
            <Position>
              <LatitudeDegrees>36.81765376590192317962646484375</LatitudeDegrees>
              <LongitudeDegrees>-4.3813000805675983428955078125</LongitudeDegrees>
            </Position>
            <AltitudeMeters>821.20001220703125</AltitudeMeters>
            <DistanceMeters>NAN</DistanceMeters>
          </Trackpoint>
          <Trackpoint>
            <Time>2020-12-05T09:26:12.000Z</Time>
            <Position>
              <LatitudeDegrees>36.81765024550259113311767578125</LatitudeDegrees>
              <LongitudeDegrees>-4.3813205324113368988037109375</LongitudeDegrees>
            </Position>
            <AltitudeMeters>821.20001220703125</AltitudeMeters>
            <DistanceMeters>NAN</DistanceMeters>
          </Trackpoint>
          <Trackpoint>
            <Time>2020-12-05T09:26:13.000Z</Time>
            <Position>
              <LatitudeDegrees>36.817643456161022186279296875</LatitudeDegrees>
              <LongitudeDegrees>-4.3813383020460605621337890625</LongitudeDegrees>
            </Position>
            <AltitudeMeters>821.4000244140625</AltitudeMeters>
            <DistanceMeters>NAN</DistanceMeters>
          </Trackpoint>
          <Trackpoint>
            <Time>2020-12-05T09:26:14.000Z</Time>
            <Position>
              <LatitudeDegrees>36.8176365830004215240478515625</LatitudeDegrees>
              <LongitudeDegrees>-4.38135129399597644805908203125</LongitudeDegrees>
            </Position>
            <AltitudeMeters>821.4000244140625</AltitudeMeters>
            <DistanceMeters>NAN</DistanceMeters>
          </Trackpoint>
          <Trackpoint>
            <Time>2020-12-05T09:26:15.000Z</Time>
            <Position>
              <LatitudeDegrees>36.8176251836121082305908203125</LatitudeDegrees>
              <LongitudeDegrees>-4.38136386685073375701904296875</LongitudeDegrees>
            </Position>
            <AltitudeMeters>821.5999755859375</AltitudeMeters>
            <DistanceMeters>NAN</DistanceMeters>
          </Trackpoint>
          <Trackpoint>
            <Time>2020-12-05T09:26:16.000Z</Time>
            <Position>
              <LatitudeDegrees>36.8176116049289703369140625</LatitudeDegrees>
              <LongitudeDegrees>-4.38137970864772796630859375</LongitudeDegrees>
            </Position>
            <AltitudeMeters>821.5999755859375</AltitudeMeters>
            <DistanceMeters>NAN</DistanceMeters>
          </Trackpoint>
          <Trackpoint>
            <Time>2020-12-05T09:26:17.000Z</Time>
            <Position>
              <LatitudeDegrees>36.81760364212095737457275390625</LatitudeDegrees>
              <LongitudeDegrees>-4.3813926167786121368408203125</LongitudeDegrees>
            </Position>
            <AltitudeMeters>821.79998779296875</AltitudeMeters>
            <DistanceMeters>NAN</DistanceMeters>
          </Trackpoint>
          <Trackpoint>
            <Time>2020-12-05T09:26:18.000Z</Time>
            <Position>
              <LatitudeDegrees>36.81760095991194248199462890625</LatitudeDegrees>
              <LongitudeDegrees>-4.3814077042043209075927734375</LongitudeDegrees>
            </Position>
            <AltitudeMeters>822</AltitudeMeters>
            <DistanceMeters>NAN</DistanceMeters>
          </Trackpoint>
          <Trackpoint>
            <Time>2020-12-05T09:26:19.000Z</Time>
            <Position>
              <LatitudeDegrees>36.817597858607769012451171875</LatitudeDegrees>
              <LongitudeDegrees>-4.38142522238194942474365234375</LongitudeDegrees>
            </Position>
            <AltitudeMeters>822</AltitudeMeters>
            <DistanceMeters>NAN</DistanceMeters>
          </Trackpoint>
          <Trackpoint>
            <Time>2020-12-05T09:26:20.000Z</Time>
            <Position>
              <LatitudeDegrees>36.81759576313197612762451171875</LatitudeDegrees>
              <LongitudeDegrees>-4.3814452551305294036865234375</LongitudeDegrees>
            </Position>
            <AltitudeMeters>822</AltitudeMeters>
            <DistanceMeters>NAN</DistanceMeters>
          </Trackpoint>
          <Trackpoint>
            <Time>2020-12-05T09:26:21.000Z</Time>
            <Position>
              <LatitudeDegrees>36.81759224273264408111572265625</LatitudeDegrees>
              <LongitudeDegrees>-4.38146461732685565948486328125</LongitudeDegrees>
            </Position>
            <AltitudeMeters>822</AltitudeMeters>
            <DistanceMeters>NAN</DistanceMeters>
          </Trackpoint>
          <Trackpoint>
            <Time>2020-12-05T09:26:22.000Z</Time>
            <Position>
              <LatitudeDegrees>36.8175903148949146270751953125</LatitudeDegrees>
              <LongitudeDegrees>-4.38148272223770618438720703125</LongitudeDegrees>
            </Position>
            <AltitudeMeters>822</AltitudeMeters>
            <DistanceMeters>NAN</DistanceMeters>
          </Trackpoint>
          <Trackpoint>
            <Time>2020-12-05T09:26:23.000Z</Time>
            <Position>
              <LatitudeDegrees>36.81759542785584926605224609375</LatitudeDegrees>
              <LongitudeDegrees>-4.381506107747554779052734375</LongitudeDegrees>
            </Position>
            <AltitudeMeters>822</AltitudeMeters>
            <DistanceMeters>NAN</DistanceMeters>
          </Trackpoint>
          <Trackpoint>
            <Time>2020-12-05T09:26:24.000Z</Time>
            <Position>
              <LatitudeDegrees>36.817599870264530181884765625</LatitudeDegrees>
              <LongitudeDegrees>-4.38152991235256195068359375</LongitudeDegrees>
            </Position>
            <AltitudeMeters>822.20001220703125</AltitudeMeters>
            <DistanceMeters>NAN</DistanceMeters>
          </Trackpoint>
          <Trackpoint>
            <Time>2020-12-05T09:26:25.000Z</Time>
            <Position>
              <LatitudeDegrees>36.8176040612161159515380859375</LatitudeDegrees>
              <LongitudeDegrees>-4.38155195675790309906005859375</LongitudeDegrees>
            </Position>
            <AltitudeMeters>822.20001220703125</AltitudeMeters>
            <DistanceMeters>NAN</DistanceMeters>
          </Trackpoint>
          <Trackpoint>
            <Time>2020-12-05T09:26:26.000Z</Time>
            <Position>
              <LatitudeDegrees>36.8176070787012577056884765625</LatitudeDegrees>
              <LongitudeDegrees>-4.38156788237392902374267578125</LongitudeDegrees>
            </Position>
            <AltitudeMeters>822.20001220703125</AltitudeMeters>
            <DistanceMeters>NAN</DistanceMeters>
          </Trackpoint>
          <Trackpoint>
            <Time>2020-12-05T09:26:27.000Z</Time>
            <Position>
              <LatitudeDegrees>36.81760867126286029815673828125</LatitudeDegrees>
              <LongitudeDegrees>-4.38157844357192516326904296875</LongitudeDegrees>
            </Position>
            <AltitudeMeters>822</AltitudeMeters>
            <DistanceMeters>NAN</DistanceMeters>
          </Trackpoint>
          <Trackpoint>
            <Time>2020-12-05T09:26:28.000Z</Time>
            <Position>
              <LatitudeDegrees>36.8176121078431606292724609375</LatitudeDegrees>
              <LongitudeDegrees>-4.38158649019896984100341796875</LongitudeDegrees>
            </Position>
            <AltitudeMeters>821.79998779296875</AltitudeMeters>
            <DistanceMeters>NAN</DistanceMeters>
          </Trackpoint>
          <Trackpoint>
            <Time>2020-12-05T09:26:29.000Z</Time>
            <Position>
              <LatitudeDegrees>36.8176181428134441375732421875</LatitudeDegrees>
              <LongitudeDegrees>-4.38159369863569736480712890625</LongitudeDegrees>
            </Position>
            <AltitudeMeters>821.4000244140625</AltitudeMeters>
            <DistanceMeters>NAN</DistanceMeters>
          </Trackpoint>
          <Trackpoint>
            <Time>2020-12-05T09:26:30.000Z</Time>
            <Position>
              <LatitudeDegrees>36.8176235072314739227294921875</LatitudeDegrees>
              <LongitudeDegrees>-4.38160208053886890411376953125</LongitudeDegrees>
            </Position>
            <AltitudeMeters>821.20001220703125</AltitudeMeters>
            <DistanceMeters>NAN</DistanceMeters>
          </Trackpoint>
          <Trackpoint>
            <Time>2020-12-05T09:26:31.000Z</Time>
            <Position>
              <LatitudeDegrees>36.81763113476336002349853515625</LatitudeDegrees>
              <LongitudeDegrees>-4.38161130063235759735107421875</LongitudeDegrees>
            </Position>
            <AltitudeMeters>821.20001220703125</AltitudeMeters>
            <DistanceMeters>NAN</DistanceMeters>
          </Trackpoint>
          <Trackpoint>
            <Time>2020-12-05T09:26:32.000Z</Time>
            <Position>
              <LatitudeDegrees>36.81764370761811733245849609375</LatitudeDegrees>
              <LongitudeDegrees>-4.38161884434521198272705078125</LongitudeDegrees>
            </Position>
            <AltitudeMeters>821</AltitudeMeters>
            <DistanceMeters>NAN</DistanceMeters>
          </Trackpoint>
          <Trackpoint>
            <Time>2020-12-05T09:26:33.000Z</Time>
            <Position>
              <LatitudeDegrees>36.817656867206096649169921875</LatitudeDegrees>
              <LongitudeDegrees>-4.38162571750581264495849609375</LongitudeDegrees>
            </Position>
            <AltitudeMeters>821</AltitudeMeters>
            <DistanceMeters>NAN</DistanceMeters>
          </Trackpoint>
          <Trackpoint>
            <Time>2020-12-05T09:26:34.000Z</Time>
            <Position>
              <LatitudeDegrees>36.817666925489902496337890625</LatitudeDegrees>
              <LongitudeDegrees>-4.38163694925606250762939453125</LongitudeDegrees>
            </Position>
            <AltitudeMeters>821</AltitudeMeters>
            <DistanceMeters>NAN</DistanceMeters>
          </Trackpoint>
          <Trackpoint>
            <Time>2020-12-05T09:26:35.000Z</Time>
            <Position>
              <LatitudeDegrees>36.8176751397550106048583984375</LatitudeDegrees>
              <LongitudeDegrees>-4.38164935447275638580322265625</LongitudeDegrees>
            </Position>
            <AltitudeMeters>821.20001220703125</AltitudeMeters>
            <DistanceMeters>NAN</DistanceMeters>
          </Trackpoint>
          <Trackpoint>
            <Time>2020-12-05T09:26:36.000Z</Time>
            <Position>
              <LatitudeDegrees>36.81768679060041904449462890625</LatitudeDegrees>
              <LongitudeDegrees>-4.38165941275656223297119140625</LongitudeDegrees>
            </Position>
            <AltitudeMeters>821.20001220703125</AltitudeMeters>
            <DistanceMeters>NAN</DistanceMeters>
          </Trackpoint>
          <Trackpoint>
            <Time>2020-12-05T09:26:37.000Z</Time>
            <Position>
              <LatitudeDegrees>36.8176972679793834686279296875</LatitudeDegrees>
              <LongitudeDegrees>-4.3816668726503849029541015625</LongitudeDegrees>
            </Position>
            <AltitudeMeters>821.20001220703125</AltitudeMeters>
            <DistanceMeters>NAN</DistanceMeters>
          </Trackpoint>
          <Trackpoint>
            <Time>2020-12-05T09:26:38.000Z</Time>
            <Position>
              <LatitudeDegrees>36.81770707480609416961669921875</LatitudeDegrees>
              <LongitudeDegrees>-4.38167768530547618865966796875</LongitudeDegrees>
            </Position>
            <AltitudeMeters>821.20001220703125</AltitudeMeters>
            <DistanceMeters>NAN</DistanceMeters>
          </Trackpoint>
          <Trackpoint>
            <Time>2020-12-05T09:26:39.000Z</Time>
            <Position>
              <LatitudeDegrees>36.81771864183247089385986328125</LatitudeDegrees>
              <LongitudeDegrees>-4.38168682157993316650390625</LongitudeDegrees>
            </Position>
            <AltitudeMeters>821.20001220703125</AltitudeMeters>
            <DistanceMeters>NAN</DistanceMeters>
          </Trackpoint>
          <Trackpoint>
            <Time>2020-12-05T09:26:40.000Z</Time>
            <Position>
              <LatitudeDegrees>36.81773188523948192596435546875</LatitudeDegrees>
              <LongitudeDegrees>-4.38169243745505809783935546875</LongitudeDegrees>
            </Position>
            <AltitudeMeters>821.20001220703125</AltitudeMeters>
            <DistanceMeters>NAN</DistanceMeters>
          </Trackpoint>
          <Trackpoint>
            <Time>2020-12-05T09:26:41.000Z</Time>
            <Position>
              <LatitudeDegrees>36.81774429045617580413818359375</LatitudeDegrees>
              <LongitudeDegrees>-4.38169428147375583648681640625</LongitudeDegrees>
            </Position>
            <AltitudeMeters>821.20001220703125</AltitudeMeters>
            <DistanceMeters>NAN</DistanceMeters>
          </Trackpoint>
          <Trackpoint>
            <Time>2020-12-05T09:26:42.000Z</Time>
            <Position>
              <LatitudeDegrees>36.81775669567286968231201171875</LatitudeDegrees>
              <LongitudeDegrees>-4.38169361092150211334228515625</LongitudeDegrees>
            </Position>
            <AltitudeMeters>821.20001220703125</AltitudeMeters>
            <DistanceMeters>NAN</DistanceMeters>
          </Trackpoint>
          <Trackpoint>
            <Time>2020-12-05T09:26:43.000Z</Time>
            <Position>
              <LatitudeDegrees>36.8177671730518341064453125</LatitudeDegrees>
              <LongitudeDegrees>-4.38169361092150211334228515625</LongitudeDegrees>
            </Position>
            <AltitudeMeters>821.20001220703125</AltitudeMeters>
            <DistanceMeters>NAN</DistanceMeters>
          </Trackpoint>
          <Trackpoint>
            <Time>2020-12-05T09:26:44.000Z</Time>
            <Position>
              <LatitudeDegrees>36.8177777342498302459716796875</LatitudeDegrees>
              <LongitudeDegrees>-4.38169662840664386749267578125</LongitudeDegrees>
            </Position>
            <AltitudeMeters>821.20001220703125</AltitudeMeters>
            <DistanceMeters>NAN</DistanceMeters>
          </Trackpoint>
          <Trackpoint>
            <Time>2020-12-05T09:26:45.000Z</Time>
            <Position>
              <LatitudeDegrees>36.817790977656841278076171875</LatitudeDegrees>
              <LongitudeDegrees>-4.381703920662403106689453125</LongitudeDegrees>
            </Position>
            <AltitudeMeters>821</AltitudeMeters>
            <DistanceMeters>NAN</DistanceMeters>
          </Trackpoint>
          <Trackpoint>
            <Time>2020-12-05T09:26:46.000Z</Time>
            <Position>
              <LatitudeDegrees>36.8178047239780426025390625</LatitudeDegrees>
              <LongitudeDegrees>-4.38171372748911380767822265625</LongitudeDegrees>
            </Position>
            <AltitudeMeters>821</AltitudeMeters>
            <DistanceMeters>NAN</DistanceMeters>
          </Trackpoint>
          <Trackpoint>
            <Time>2020-12-05T09:26:47.000Z</Time>
            <Position>
              <LatitudeDegrees>36.8178179673850536346435546875</LatitudeDegrees>
              <LongitudeDegrees>-4.3817242048680782318115234375</LongitudeDegrees>
            </Position>
            <AltitudeMeters>821</AltitudeMeters>
            <DistanceMeters>NAN</DistanceMeters>
          </Trackpoint>
          <Trackpoint>
            <Time>2020-12-05T09:26:48.000Z</Time>
            <Position>
              <LatitudeDegrees>36.8178276903927326202392578125</LatitudeDegrees>
              <LongitudeDegrees>-4.38173501752316951751708984375</LongitudeDegrees>
            </Position>
            <AltitudeMeters>821</AltitudeMeters>
            <DistanceMeters>NAN</DistanceMeters>
          </Trackpoint>
          <Trackpoint>
            <Time>2020-12-05T09:26:49.000Z</Time>
            <Position>
              <LatitudeDegrees>36.8178374134004116058349609375</LatitudeDegrees>
              <LongitudeDegrees>-4.38174189068377017974853515625</LongitudeDegrees>
            </Position>
            <AltitudeMeters>821</AltitudeMeters>
            <DistanceMeters>NAN</DistanceMeters>
          </Trackpoint>
          <Trackpoint>
            <Time>2020-12-05T09:26:50.000Z</Time>
            <Position>
              <LatitudeDegrees>36.81784638203680515289306640625</LatitudeDegrees>
              <LongitudeDegrees>-4.38174926675856113433837890625</LongitudeDegrees>
            </Position>
            <AltitudeMeters>821</AltitudeMeters>
            <DistanceMeters>NAN</DistanceMeters>
          </Trackpoint>
          <Trackpoint>
            <Time>2020-12-05T09:26:51.000Z</Time>
            <Position>
              <LatitudeDegrees>36.8178578652441501617431640625</LatitudeDegrees>
              <LongitudeDegrees>-4.3817523680627346038818359375</LongitudeDegrees>
            </Position>
            <AltitudeMeters>821</AltitudeMeters>
            <DistanceMeters>NAN</DistanceMeters>
          </Trackpoint>
          <Trackpoint>
            <Time>2020-12-05T09:26:52.000Z</Time>
            <Position>
              <LatitudeDegrees>36.817868091166019439697265625</LatitudeDegrees>
              <LongitudeDegrees>-4.38175253570079803466796875</LongitudeDegrees>
            </Position>
            <AltitudeMeters>820.79998779296875</AltitudeMeters>
            <DistanceMeters>NAN</DistanceMeters>
          </Trackpoint>
          <Trackpoint>
            <Time>2020-12-05T09:26:53.000Z</Time>
            <Position>
              <LatitudeDegrees>36.8178820051252841949462890625</LatitudeDegrees>
              <LongitudeDegrees>-4.3817510269582271575927734375</LongitudeDegrees>
            </Position>
            <AltitudeMeters>820.79998779296875</AltitudeMeters>
            <DistanceMeters>NAN</DistanceMeters>
          </Trackpoint>
          <Trackpoint>
            <Time>2020-12-05T09:26:54.000Z</Time>
            <Position>
              <LatitudeDegrees>36.817898266017436981201171875</LatitudeDegrees>
              <LongitudeDegrees>-4.3817466683685779571533203125</LongitudeDegrees>
            </Position>
            <AltitudeMeters>820.79998779296875</AltitudeMeters>
            <DistanceMeters>NAN</DistanceMeters>
          </Trackpoint>
          <Trackpoint>
            <Time>2020-12-05T09:26:55.000Z</Time>
            <Position>
              <LatitudeDegrees>36.8179173767566680908203125</LatitudeDegrees>
              <LongitudeDegrees>-4.38173912465572357177734375</LongitudeDegrees>
            </Position>
            <AltitudeMeters>820.79998779296875</AltitudeMeters>
            <DistanceMeters>NAN</DistanceMeters>
          </Trackpoint>
          <Trackpoint>
            <Time>2020-12-05T09:26:56.000Z</Time>
            <Position>
              <LatitudeDegrees>36.817934811115264892578125</LatitudeDegrees>
              <LongitudeDegrees>-4.3817322514951229095458984375</LongitudeDegrees>
            </Position>
            <AltitudeMeters>820.79998779296875</AltitudeMeters>
            <DistanceMeters>NAN</DistanceMeters>
          </Trackpoint>
          <Trackpoint>
            <Time>2020-12-05T09:26:57.000Z</Time>
            <Position>
              <LatitudeDegrees>36.8179487250745296478271484375</LatitudeDegrees>
              <LongitudeDegrees>-4.3817288987338542938232421875</LongitudeDegrees>
            </Position>
            <AltitudeMeters>820.79998779296875</AltitudeMeters>
            <DistanceMeters>NAN</DistanceMeters>
          </Trackpoint>
          <Trackpoint>
            <Time>2020-12-05T09:26:58.000Z</Time>
            <Position>
              <LatitudeDegrees>36.8179604597389698028564453125</LatitudeDegrees>
              <LongitudeDegrees>-4.38172630034387111663818359375</LongitudeDegrees>
            </Position>
            <AltitudeMeters>820.79998779296875</AltitudeMeters>
            <DistanceMeters>NAN</DistanceMeters>
          </Trackpoint>
          <Trackpoint>
            <Time>2020-12-05T09:26:59.000Z</Time>
            <Position>
              <LatitudeDegrees>36.81796967983245849609375</LatitudeDegrees>
              <LongitudeDegrees>-4.38172495923936367034912109375</LongitudeDegrees>
            </Position>
            <AltitudeMeters>821</AltitudeMeters>
            <DistanceMeters>NAN</DistanceMeters>
          </Trackpoint>
          <Trackpoint>
            <Time>2020-12-05T09:27:00.000Z</Time>
            <Position>
              <LatitudeDegrees>36.81797797791659832000732421875</LatitudeDegrees>
              <LongitudeDegrees>-4.38172345049679279327392578125</LongitudeDegrees>
            </Position>
            <AltitudeMeters>821.20001220703125</AltitudeMeters>
            <DistanceMeters>NAN</DistanceMeters>
          </Trackpoint>
          <Trackpoint>
            <Time>2020-12-05T09:27:01.000Z</Time>
            <Position>
              <LatitudeDegrees>36.8179879523813724517822265625</LatitudeDegrees>
              <LongitudeDegrees>-4.38172328285872936248779296875</LongitudeDegrees>
            </Position>
            <AltitudeMeters>821.20001220703125</AltitudeMeters>
            <DistanceMeters>NAN</DistanceMeters>
          </Trackpoint>
          <Trackpoint>
            <Time>2020-12-05T09:27:02.000Z</Time>
            <Position>
              <LatitudeDegrees>36.8179983459413051605224609375</LatitudeDegrees>
              <LongitudeDegrees>-4.38172177411615848541259765625</LongitudeDegrees>
            </Position>
            <AltitudeMeters>821.20001220703125</AltitudeMeters>
            <DistanceMeters>NAN</DistanceMeters>
          </Trackpoint>
          <Trackpoint>
            <Time>2020-12-05T09:27:03.000Z</Time>
            <Position>
              <LatitudeDegrees>36.818007566034793853759765625</LatitudeDegrees>
              <LongitudeDegrees>-4.38172034919261932373046875</LongitudeDegrees>
            </Position>
            <AltitudeMeters>821.20001220703125</AltitudeMeters>
            <DistanceMeters>NAN</DistanceMeters>
          </Trackpoint>
          <Trackpoint>
            <Time>2020-12-05T09:27:04.000Z</Time>
            <Position>
              <LatitudeDegrees>36.81801955215632915496826171875</LatitudeDegrees>
              <LongitudeDegrees>-4.38172093592584133148193359375</LongitudeDegrees>
            </Position>
            <AltitudeMeters>821.20001220703125</AltitudeMeters>
            <DistanceMeters>NAN</DistanceMeters>
          </Trackpoint>
          <Trackpoint>
            <Time>2020-12-05T09:27:05.000Z</Time>
            <Position>
              <LatitudeDegrees>36.81803204119205474853515625</LatitudeDegrees>
              <LongitudeDegrees>-4.3817238695919513702392578125</LongitudeDegrees>
            </Position>
            <AltitudeMeters>821.4000244140625</AltitudeMeters>
            <DistanceMeters>NAN</DistanceMeters>
          </Trackpoint>
          <Trackpoint>
            <Time>2020-12-05T09:27:06.000Z</Time>
            <Position>
              <LatitudeDegrees>36.8180429376661777496337890625</LatitudeDegrees>
              <LongitudeDegrees>-4.381727389991283416748046875</LongitudeDegrees>
            </Position>
            <AltitudeMeters>821.4000244140625</AltitudeMeters>
            <DistanceMeters>NAN</DistanceMeters>
          </Trackpoint>
          <Trackpoint>
            <Time>2020-12-05T09:27:07.000Z</Time>
            <Position>
              <LatitudeDegrees>36.8180541694164276123046875</LatitudeDegrees>
              <LongitudeDegrees>-4.38173384405672550201416015625</LongitudeDegrees>
            </Position>
            <AltitudeMeters>821.5999755859375</AltitudeMeters>
            <DistanceMeters>NAN</DistanceMeters>
          </Trackpoint>
          <Trackpoint>
            <Time>2020-12-05T09:27:08.000Z</Time>
            <Position>
              <LatitudeDegrees>36.818065904080867767333984375</LatitudeDegrees>
              <LongitudeDegrees>-4.381738789379596710205078125</LongitudeDegrees>
            </Position>
            <AltitudeMeters>821.5999755859375</AltitudeMeters>
            <DistanceMeters>NAN</DistanceMeters>
          </Trackpoint>
          <Trackpoint>
            <Time>2020-12-05T09:27:09.000Z</Time>
            <Position>
              <LatitudeDegrees>36.81807763874530792236328125</LatitudeDegrees>
              <LongitudeDegrees>-4.3817411363124847412109375</LongitudeDegrees>
            </Position>
            <AltitudeMeters>821.5999755859375</AltitudeMeters>
            <DistanceMeters>NAN</DistanceMeters>
          </Trackpoint>
          <Trackpoint>
            <Time>2020-12-05T09:27:10.000Z</Time>
            <Position>
              <LatitudeDegrees>36.8180902116000652313232421875</LatitudeDegrees>
              <LongitudeDegrees>-4.3817426450550556182861328125</LongitudeDegrees>
            </Position>
            <AltitudeMeters>821.4000244140625</AltitudeMeters>
            <DistanceMeters>NAN</DistanceMeters>
          </Trackpoint>
          <Trackpoint>
            <Time>2020-12-05T09:27:11.000Z</Time>
            <Position>
              <LatitudeDegrees>36.81810353882610797882080078125</LatitudeDegrees>
              <LongitudeDegrees>-4.38174189068377017974853515625</LongitudeDegrees>
            </Position>
            <AltitudeMeters>821.4000244140625</AltitudeMeters>
            <DistanceMeters>NAN</DistanceMeters>
          </Trackpoint>
          <Trackpoint>
            <Time>2020-12-05T09:27:12.000Z</Time>
            <Position>
              <LatitudeDegrees>36.81811929680407047271728515625</LatitudeDegrees>
              <LongitudeDegrees>-4.3817416392266750335693359375</LongitudeDegrees>
            </Position>
            <AltitudeMeters>821.20001220703125</AltitudeMeters>
            <DistanceMeters>NAN</DistanceMeters>
          </Trackpoint>
          <Trackpoint>
            <Time>2020-12-05T09:27:13.000Z</Time>
            <Position>
              <LatitudeDegrees>36.8181337974965572357177734375</LatitudeDegrees>
              <LongitudeDegrees>-4.38174054957926273345947265625</LongitudeDegrees>
            </Position>
            <AltitudeMeters>821.20001220703125</AltitudeMeters>
            <DistanceMeters>NAN</DistanceMeters>
          </Trackpoint>
          <Trackpoint>
            <Time>2020-12-05T09:27:14.000Z</Time>
            <Position>
              <LatitudeDegrees>36.81814729236066341400146484375</LatitudeDegrees>
              <LongitudeDegrees>-4.38173954375088214874267578125</LongitudeDegrees>
            </Position>
            <AltitudeMeters>821.20001220703125</AltitudeMeters>
            <DistanceMeters>NAN</DistanceMeters>
          </Trackpoint>
          <Trackpoint>
            <Time>2020-12-05T09:27:15.000Z</Time>
            <Position>
              <LatitudeDegrees>36.8181626312434673309326171875</LatitudeDegrees>
              <LongitudeDegrees>-4.381738789379596710205078125</LongitudeDegrees>
            </Position>
            <AltitudeMeters>821.20001220703125</AltitudeMeters>
            <DistanceMeters>NAN</DistanceMeters>
          </Trackpoint>
          <Trackpoint>
            <Time>2020-12-05T09:27:16.000Z</Time>
            <Position>
              <LatitudeDegrees>36.81817461736500263214111328125</LatitudeDegrees>
              <LongitudeDegrees>-4.38173702917993068695068359375</LongitudeDegrees>
            </Position>
            <AltitudeMeters>821.4000244140625</AltitudeMeters>
            <DistanceMeters>NAN</DistanceMeters>
          </Trackpoint>
          <Trackpoint>
            <Time>2020-12-05T09:27:17.000Z</Time>
            <Position>
              <LatitudeDegrees>36.81818417273461818695068359375</LatitudeDegrees>
              <LongitudeDegrees>-4.38173216767609119415283203125</LongitudeDegrees>
            </Position>
            <AltitudeMeters>821.5999755859375</AltitudeMeters>
            <DistanceMeters>NAN</DistanceMeters>
          </Trackpoint>
          <Trackpoint>
            <Time>2020-12-05T09:27:18.000Z</Time>
            <Position>
              <LatitudeDegrees>36.8181918002665042877197265625</LatitudeDegrees>
              <LongitudeDegrees>-4.381732083857059478759765625</LongitudeDegrees>
            </Position>
            <AltitudeMeters>821.5999755859375</AltitudeMeters>
            <DistanceMeters>NAN</DistanceMeters>
          </Trackpoint>
          <Trackpoint>
            <Time>2020-12-05T09:27:19.000Z</Time>
            <Position>
              <LatitudeDegrees>36.81820211000740528106689453125</LatitudeDegrees>
              <LongitudeDegrees>-4.38173149712383747100830078125</LongitudeDegrees>
            </Position>
            <AltitudeMeters>821.4000244140625</AltitudeMeters>
            <DistanceMeters>NAN</DistanceMeters>
          </Trackpoint>
          <Trackpoint>
            <Time>2020-12-05T09:27:20.000Z</Time>
            <Position>
              <LatitudeDegrees>36.81821350939571857452392578125</LatitudeDegrees>
              <LongitudeDegrees>-4.38173552043735980987548828125</LongitudeDegrees>
            </Position>
            <AltitudeMeters>821.4000244140625</AltitudeMeters>
            <DistanceMeters>NAN</DistanceMeters>
          </Trackpoint>
          <Trackpoint>
            <Time>2020-12-05T09:27:21.000Z</Time>
            <Position>
              <LatitudeDegrees>36.8182259984314441680908203125</LatitudeDegrees>
              <LongitudeDegrees>-4.38174507580697536468505859375</LongitudeDegrees>
            </Position>
            <AltitudeMeters>821.4000244140625</AltitudeMeters>
            <DistanceMeters>NAN</DistanceMeters>
          </Trackpoint>
          <Trackpoint>
            <Time>2020-12-05T09:27:22.000Z</Time>
            <Position>
              <LatitudeDegrees>36.81823194958269596099853515625</LatitudeDegrees>
              <LongitudeDegrees>-4.38175127841532230377197265625</LongitudeDegrees>
            </Position>
            <AltitudeMeters>821.20001220703125</AltitudeMeters>
            <DistanceMeters>NAN</DistanceMeters>
          </Trackpoint>
          <Trackpoint>
            <Time>2020-12-05T09:27:23.000Z</Time>
            <Position>
              <LatitudeDegrees>36.818236224353313446044921875</LatitudeDegrees>
              <LongitudeDegrees>-4.38175245188176631927490234375</LongitudeDegrees>
            </Position>
            <AltitudeMeters>821</AltitudeMeters>
            <DistanceMeters>NAN</DistanceMeters>
          </Trackpoint>
          <Trackpoint>
            <Time>2020-12-05T09:27:24.000Z</Time>
            <Position>
              <LatitudeDegrees>36.8182407505810260772705078125</LatitudeDegrees>
              <LongitudeDegrees>-4.3817610852420330047607421875</LongitudeDegrees>
            </Position>
            <AltitudeMeters>821</AltitudeMeters>
            <DistanceMeters>NAN</DistanceMeters>
          </Trackpoint>
          <Trackpoint>
            <Time>2020-12-05T09:27:25.000Z</Time>
            <Position>
              <LatitudeDegrees>36.81824150495231151580810546875</LatitudeDegrees>
              <LongitudeDegrees>-4.38177131116390228271484375</LongitudeDegrees>
            </Position>
            <AltitudeMeters>821</AltitudeMeters>
            <DistanceMeters>NAN</DistanceMeters>
          </Trackpoint>
          <Trackpoint>
            <Time>2020-12-05T09:27:26.000Z</Time>
            <Position>
              <LatitudeDegrees>36.8182390742003917694091796875</LatitudeDegrees>
              <LongitudeDegrees>-4.38177994452416896820068359375</LongitudeDegrees>
            </Position>
            <AltitudeMeters>820.79998779296875</AltitudeMeters>
            <DistanceMeters>NAN</DistanceMeters>
          </Trackpoint>
          <Trackpoint>
            <Time>2020-12-05T09:27:27.000Z</Time>
            <Position>
              <LatitudeDegrees>36.81823144666850566864013671875</LatitudeDegrees>
              <LongitudeDegrees>-4.3817858956754207611083984375</LongitudeDegrees>
            </Position>
            <AltitudeMeters>820.79998779296875</AltitudeMeters>
            <DistanceMeters>NAN</DistanceMeters>
          </Trackpoint>
          <Trackpoint>
            <Time>2020-12-05T09:27:28.000Z</Time>
            <Position>
              <LatitudeDegrees>36.81822516024112701416015625</LatitudeDegrees>
              <LongitudeDegrees>-4.3817949481308460235595703125</LongitudeDegrees>
            </Position>
            <AltitudeMeters>820.79998779296875</AltitudeMeters>
            <DistanceMeters>NAN</DistanceMeters>
          </Trackpoint>
          <Trackpoint>
            <Time>2020-12-05T09:27:29.000Z</Time>
            <Position>
              <LatitudeDegrees>36.8182243220508098602294921875</LatitudeDegrees>
              <LongitudeDegrees>-4.38180609606206417083740234375</LongitudeDegrees>
            </Position>
            <AltitudeMeters>820.79998779296875</AltitudeMeters>
            <DistanceMeters>NAN</DistanceMeters>
          </Trackpoint>
          <Trackpoint>
            <Time>2020-12-05T09:27:30.000Z</Time>
            <Position>
              <LatitudeDegrees>36.81822381913661956787109375</LatitudeDegrees>
              <LongitudeDegrees>-4.381821937859058380126953125</LongitudeDegrees>
            </Position>
            <AltitudeMeters>820.79998779296875</AltitudeMeters>
            <DistanceMeters>NAN</DistanceMeters>
          </Trackpoint>
          <Trackpoint>
            <Time>2020-12-05T09:27:31.000Z</Time>
            <Position>
              <LatitudeDegrees>36.8182202987372875213623046875</LatitudeDegrees>
              <LongitudeDegrees>-4.381837360560894012451171875</LongitudeDegrees>
            </Position>
            <AltitudeMeters>820.79998779296875</AltitudeMeters>
            <DistanceMeters>NAN</DistanceMeters>
          </Trackpoint>
          <Trackpoint>
            <Time>2020-12-05T09:27:32.000Z</Time>
            <Position>
              <LatitudeDegrees>36.8182213045656681060791015625</LatitudeDegrees>
              <LongitudeDegrees>-4.38185454346239566802978515625</LongitudeDegrees>
            </Position>
            <AltitudeMeters>820.79998779296875</AltitudeMeters>
            <DistanceMeters>NAN</DistanceMeters>
          </Trackpoint>
          <Trackpoint>
            <Time>2020-12-05T09:27:33.000Z</Time>
            <Position>
              <LatitudeDegrees>36.81822608225047588348388671875</LatitudeDegrees>
              <LongitudeDegrees>-4.38187533058226108551025390625</LongitudeDegrees>
            </Position>
            <AltitudeMeters>820.79998779296875</AltitudeMeters>
            <DistanceMeters>NAN</DistanceMeters>
          </Trackpoint>
          <Trackpoint>
            <Time>2020-12-05T09:27:34.000Z</Time>
            <Position>
              <LatitudeDegrees>36.818227507174015045166015625</LatitudeDegrees>
              <LongitudeDegrees>-4.38189678825438022613525390625</LongitudeDegrees>
            </Position>
            <AltitudeMeters>820.5999755859375</AltitudeMeters>
            <DistanceMeters>NAN</DistanceMeters>
          </Trackpoint>
          <Trackpoint>
            <Time>2020-12-05T09:27:35.000Z</Time>
            <Position>
              <LatitudeDegrees>36.81822675280272960662841796875</LatitudeDegrees>
              <LongitudeDegrees>-4.38191690482199192047119140625</LongitudeDegrees>
            </Position>
            <AltitudeMeters>820.4000244140625</AltitudeMeters>
            <DistanceMeters>NAN</DistanceMeters>
          </Trackpoint>
          <Trackpoint>
            <Time>2020-12-05T09:27:36.000Z</Time>
            <Position>
              <LatitudeDegrees>36.81822474114596843719482421875</LatitudeDegrees>
              <LongitudeDegrees>-4.38193601556122303009033203125</LongitudeDegrees>
            </Position>
            <AltitudeMeters>820.4000244140625</AltitudeMeters>
            <DistanceMeters>NAN</DistanceMeters>
          </Trackpoint>
          <Trackpoint>
            <Time>2020-12-05T09:27:37.000Z</Time>
            <Position>
              <LatitudeDegrees>36.81822004728019237518310546875</LatitudeDegrees>
              <LongitudeDegrees>-4.38195395283401012420654296875</LongitudeDegrees>
            </Position>
            <AltitudeMeters>820.4000244140625</AltitudeMeters>
            <DistanceMeters>NAN</DistanceMeters>
          </Trackpoint>
          <Trackpoint>
            <Time>2020-12-05T09:27:38.000Z</Time>
            <Position>
              <LatitudeDegrees>36.81821267120540142059326171875</LatitudeDegrees>
              <LongitudeDegrees>-4.38196551986038684844970703125</LongitudeDegrees>
            </Position>
            <AltitudeMeters>820.4000244140625</AltitudeMeters>
            <DistanceMeters>NAN</DistanceMeters>
          </Trackpoint>
          <Trackpoint>
            <Time>2020-12-05T09:27:39.000Z</Time>
            <Position>
              <LatitudeDegrees>36.81820663623511791229248046875</LatitudeDegrees>
              <LongitudeDegrees>-4.3819746561348438262939453125</LongitudeDegrees>
            </Position>
            <AltitudeMeters>820.4000244140625</AltitudeMeters>
            <DistanceMeters>NAN</DistanceMeters>
          </Trackpoint>
          <Trackpoint>
            <Time>2020-12-05T09:27:40.000Z</Time>
            <Position>
              <LatitudeDegrees>36.81820646859705448150634765625</LatitudeDegrees>
              <LongitudeDegrees>-4.3819837085902690887451171875</LongitudeDegrees>
            </Position>
            <AltitudeMeters>820.4000244140625</AltitudeMeters>
            <DistanceMeters>NAN</DistanceMeters>
          </Trackpoint>
          <Trackpoint>
            <Time>2020-12-05T09:27:41.000Z</Time>
            <Position>
              <LatitudeDegrees>36.818204037845134735107421875</LatitudeDegrees>
              <LongitudeDegrees>-4.38199552707374095916748046875</LongitudeDegrees>
            </Position>
            <AltitudeMeters>820.4000244140625</AltitudeMeters>
            <DistanceMeters>NAN</DistanceMeters>
          </Trackpoint>
          <Trackpoint>
            <Time>2020-12-05T09:27:42.000Z</Time>
            <Position>
              <LatitudeDegrees>36.81820194236934185028076171875</LatitudeDegrees>
              <LongitudeDegrees>-4.3820071779191493988037109375</LongitudeDegrees>
            </Position>
            <AltitudeMeters>820.4000244140625</AltitudeMeters>
            <DistanceMeters>NAN</DistanceMeters>
          </Trackpoint>
          <Trackpoint>
            <Time>2020-12-05T09:27:43.000Z</Time>
            <Position>
              <LatitudeDegrees>36.81819573976099491119384765625</LatitudeDegrees>
              <LongitudeDegrees>-4.38202268444001674652099609375</LongitudeDegrees>
            </Position>
            <AltitudeMeters>820.20001220703125</AltitudeMeters>
            <DistanceMeters>NAN</DistanceMeters>
          </Trackpoint>
          <Trackpoint>
            <Time>2020-12-05T09:27:44.000Z</Time>
            <Position>
              <LatitudeDegrees>36.81819054298102855682373046875</LatitudeDegrees>
              <LongitudeDegrees>-4.38203752040863037109375</LongitudeDegrees>
            </Position>
            <AltitudeMeters>820</AltitudeMeters>
            <DistanceMeters>NAN</DistanceMeters>
          </Trackpoint>
          <Trackpoint>
            <Time>2020-12-05T09:27:45.000Z</Time>
            <Position>
              <LatitudeDegrees>36.81819221936166286468505859375</LatitudeDegrees>
              <LongitudeDegrees>-4.3820571340620517730712890625</LongitudeDegrees>
            </Position>
            <AltitudeMeters>819.79998779296875</AltitudeMeters>
            <DistanceMeters>NAN</DistanceMeters>
          </Trackpoint>
          <Trackpoint>
            <Time>2020-12-05T09:27:46.000Z</Time>
            <Position>
              <LatitudeDegrees>36.8181887827813625335693359375</LatitudeDegrees>
              <LongitudeDegrees>-4.38207666389644145965576171875</LongitudeDegrees>
            </Position>
            <AltitudeMeters>819.79998779296875</AltitudeMeters>
            <DistanceMeters>NAN</DistanceMeters>
          </Trackpoint>
          <Trackpoint>
            <Time>2020-12-05T09:27:47.000Z</Time>
            <Position>
              <LatitudeDegrees>36.81818895041942596435546875</LatitudeDegrees>
              <LongitudeDegrees>-4.3820936791598796844482421875</LongitudeDegrees>
            </Position>
            <AltitudeMeters>819.79998779296875</AltitudeMeters>
            <DistanceMeters>NAN</DistanceMeters>
          </Trackpoint>
          <Trackpoint>
            <Time>2020-12-05T09:27:48.000Z</Time>
            <Position>
              <LatitudeDegrees>36.81819071061909198760986328125</LatitudeDegrees>
              <LongitudeDegrees>-4.3821104429662227630615234375</LongitudeDegrees>
            </Position>
            <AltitudeMeters>819.79998779296875</AltitudeMeters>
            <DistanceMeters>NAN</DistanceMeters>
          </Trackpoint>
          <Trackpoint>
            <Time>2020-12-05T09:27:49.000Z</Time>
            <Position>
              <LatitudeDegrees>36.81819221936166286468505859375</LatitudeDegrees>
              <LongitudeDegrees>-4.38212175853550434112548828125</LongitudeDegrees>
            </Position>
            <AltitudeMeters>819.79998779296875</AltitudeMeters>
            <DistanceMeters>NAN</DistanceMeters>
          </Trackpoint>
          <Trackpoint>
            <Time>2020-12-05T09:27:50.000Z</Time>
            <Position>
              <LatitudeDegrees>36.81819188408553600311279296875</LatitudeDegrees>
              <LongitudeDegrees>-4.3821329064667224884033203125</LongitudeDegrees>
            </Position>
            <AltitudeMeters>819.5999755859375</AltitudeMeters>
            <DistanceMeters>NAN</DistanceMeters>
          </Trackpoint>
          <Trackpoint>
            <Time>2020-12-05T09:27:51.000Z</Time>
            <Position>
              <LatitudeDegrees>36.81818702258169651031494140625</LatitudeDegrees>
              <LongitudeDegrees>-4.38214405439794063568115234375</LongitudeDegrees>
            </Position>
            <AltitudeMeters>819.4000244140625</AltitudeMeters>
            <DistanceMeters>NAN</DistanceMeters>
          </Trackpoint>
          <Trackpoint>
            <Time>2020-12-05T09:27:52.000Z</Time>
            <Position>
              <LatitudeDegrees>36.818181909620761871337890625</LatitudeDegrees>
              <LongitudeDegrees>-4.3821568787097930908203125</LongitudeDegrees>
            </Position>
            <AltitudeMeters>819.20001220703125</AltitudeMeters>
            <DistanceMeters>NAN</DistanceMeters>
          </Trackpoint>
          <Trackpoint>
            <Time>2020-12-05T09:27:53.000Z</Time>
            <Position>
              <LatitudeDegrees>36.81818081997334957122802734375</LatitudeDegrees>
              <LongitudeDegrees>-4.38217221759259700775146484375</LongitudeDegrees>
            </Position>
            <AltitudeMeters>819</AltitudeMeters>
            <DistanceMeters>NAN</DistanceMeters>
          </Trackpoint>
          <Trackpoint>
            <Time>2020-12-05T09:27:54.000Z</Time>
            <Position>
              <LatitudeDegrees>36.8181861005723476409912109375</LatitudeDegrees>
              <LongitudeDegrees>-4.38218981958925724029541015625</LongitudeDegrees>
            </Position>
            <AltitudeMeters>818.79998779296875</AltitudeMeters>
            <DistanceMeters>NAN</DistanceMeters>
          </Trackpoint>
          <Trackpoint>
            <Time>2020-12-05T09:27:55.000Z</Time>
            <Position>
              <LatitudeDegrees>36.81819297373294830322265625</LatitudeDegrees>
              <LongitudeDegrees>-4.38220851123332977294921875</LongitudeDegrees>
            </Position>
            <AltitudeMeters>818.79998779296875</AltitudeMeters>
            <DistanceMeters>NAN</DistanceMeters>
          </Trackpoint>
          <Trackpoint>
            <Time>2020-12-05T09:27:56.000Z</Time>
            <Position>
              <LatitudeDegrees>36.8182015232741832733154296875</LatitudeDegrees>
              <LongitudeDegrees>-4.3822261132299900054931640625</LongitudeDegrees>
            </Position>
            <AltitudeMeters>818.79998779296875</AltitudeMeters>
            <DistanceMeters>NAN</DistanceMeters>
          </Trackpoint>
          <Trackpoint>
            <Time>2020-12-05T09:27:57.000Z</Time>
            <Position>
              <LatitudeDegrees>36.8182095699012279510498046875</LatitudeDegrees>
              <LongitudeDegrees>-4.3822469003498554229736328125</LongitudeDegrees>
            </Position>
            <AltitudeMeters>818.79998779296875</AltitudeMeters>
            <DistanceMeters>NAN</DistanceMeters>
          </Trackpoint>
          <Trackpoint>
            <Time>2020-12-05T09:27:58.000Z</Time>
            <Position>
              <LatitudeDegrees>36.81821711361408233642578125</LatitudeDegrees>
              <LongitudeDegrees>-4.382261149585247039794921875</LongitudeDegrees>
            </Position>
            <AltitudeMeters>819</AltitudeMeters>
            <DistanceMeters>NAN</DistanceMeters>
          </Trackpoint>
          <Trackpoint>
            <Time>2020-12-05T09:27:59.000Z</Time>
            <Position>
              <LatitudeDegrees>36.81822474114596843719482421875</LatitudeDegrees>
              <LongitudeDegrees>-4.38227162696421146392822265625</LongitudeDegrees>
            </Position>
            <AltitudeMeters>819</AltitudeMeters>
            <DistanceMeters>NAN</DistanceMeters>
          </Trackpoint>
          <Trackpoint>
            <Time>2020-12-05T09:28:00.000Z</Time>
            <Position>
              <LatitudeDegrees>36.81822742335498332977294921875</LatitudeDegrees>
              <LongitudeDegrees>-4.3822760693728923797607421875</LongitudeDegrees>
            </Position>
            <AltitudeMeters>819</AltitudeMeters>
            <DistanceMeters>NAN</DistanceMeters>
          </Trackpoint>
          <Trackpoint>
            <Time>2020-12-05T09:28:01.000Z</Time>
            <Position>
              <LatitudeDegrees>36.81823178194463253021240234375</LatitudeDegrees>
              <LongitudeDegrees>-4.382282607257366180419921875</LongitudeDegrees>
            </Position>
            <AltitudeMeters>819</AltitudeMeters>
            <DistanceMeters>NAN</DistanceMeters>
          </Trackpoint>
          <Trackpoint>
            <Time>2020-12-05T09:28:02.000Z</Time>
            <Position>
              <LatitudeDegrees>36.81823446415364742279052734375</LatitudeDegrees>
              <LongitudeDegrees>-4.38228855840861797332763671875</LongitudeDegrees>
            </Position>
            <AltitudeMeters>819</AltitudeMeters>
            <DistanceMeters>NAN</DistanceMeters>
          </Trackpoint>
          <Trackpoint>
            <Time>2020-12-05T09:28:03.000Z</Time>
            <Position>
              <LatitudeDegrees>36.81824100203812122344970703125</LatitudeDegrees>
              <LongitudeDegrees>-4.382297359406948089599609375</LongitudeDegrees>
            </Position>
            <AltitudeMeters>818.79998779296875</AltitudeMeters>
            <DistanceMeters>NAN</DistanceMeters>
          </Trackpoint>
          <Trackpoint>
            <Time>2020-12-05T09:28:04.000Z</Time>
            <Position>
              <LatitudeDegrees>36.8182504735887050628662109375</LatitudeDegrees>
              <LongitudeDegrees>-4.38230699859559535980224609375</LongitudeDegrees>
            </Position>
            <AltitudeMeters>818.79998779296875</AltitudeMeters>
            <DistanceMeters>NAN</DistanceMeters>
          </Trackpoint>
          <Trackpoint>
            <Time>2020-12-05T09:28:05.000Z</Time>
            <Position>
              <LatitudeDegrees>36.8182571791112422943115234375</LatitudeDegrees>
              <LongitudeDegrees>-4.3823169730603694915771484375</LongitudeDegrees>
            </Position>
            <AltitudeMeters>818.5999755859375</AltitudeMeters>
            <DistanceMeters>NAN</DistanceMeters>
          </Trackpoint>
          <Trackpoint>
            <Time>2020-12-05T09:28:06.000Z</Time>
            <Position>
              <LatitudeDegrees>36.8182632140815258026123046875</LatitudeDegrees>
              <LongitudeDegrees>-4.38232946209609508514404296875</LongitudeDegrees>
            </Position>
            <AltitudeMeters>818.5999755859375</AltitudeMeters>
            <DistanceMeters>NAN</DistanceMeters>
          </Trackpoint>
          <Trackpoint>
            <Time>2020-12-05T09:28:07.000Z</Time>
            <Position>
              <LatitudeDegrees>36.81826815940439701080322265625</LatitudeDegrees>
              <LongitudeDegrees>-4.38234203495085239410400390625</LongitudeDegrees>
            </Position>
            <AltitudeMeters>818.5999755859375</AltitudeMeters>
            <DistanceMeters>NAN</DistanceMeters>
          </Trackpoint>
          <Trackpoint>
            <Time>2020-12-05T09:28:08.000Z</Time>
            <Position>
              <LatitudeDegrees>36.81827545166015625</LatitudeDegrees>
              <LongitudeDegrees>-4.38235460780560970306396484375</LongitudeDegrees>
            </Position>
            <AltitudeMeters>818.4000244140625</AltitudeMeters>
            <DistanceMeters>NAN</DistanceMeters>
          </Trackpoint>
          <Trackpoint>
            <Time>2020-12-05T09:28:09.000Z</Time>
            <Position>
              <LatitudeDegrees>36.81828475557267665863037109375</LatitudeDegrees>
              <LongitudeDegrees>-4.38237153925001621246337890625</LongitudeDegrees>
            </Position>
            <AltitudeMeters>818.4000244140625</AltitudeMeters>
            <DistanceMeters>NAN</DistanceMeters>
          </Trackpoint>
          <Trackpoint>
            <Time>2020-12-05T09:28:10.000Z</Time>
            <Position>
              <LatitudeDegrees>36.81829850189387798309326171875</LatitudeDegrees>
              <LongitudeDegrees>-4.38238930888473987579345703125</LongitudeDegrees>
            </Position>
            <AltitudeMeters>818.5999755859375</AltitudeMeters>
            <DistanceMeters>NAN</DistanceMeters>
          </Trackpoint>
          <Trackpoint>
            <Time>2020-12-05T09:28:11.000Z</Time>
            <Position>
              <LatitudeDegrees>36.8183135055005550384521484375</LatitudeDegrees>
              <LongitudeDegrees>-4.38240104354918003082275390625</LongitudeDegrees>
            </Position>
            <AltitudeMeters>818.5999755859375</AltitudeMeters>
            <DistanceMeters>NAN</DistanceMeters>
          </Trackpoint>
          <Trackpoint>
            <Time>2020-12-05T09:28:12.000Z</Time>
            <Position>
              <LatitudeDegrees>36.81832632981240749359130859375</LatitudeDegrees>
              <LongitudeDegrees>-4.38240909017622470855712890625</LongitudeDegrees>
            </Position>
            <AltitudeMeters>818.79998779296875</AltitudeMeters>
            <DistanceMeters>NAN</DistanceMeters>
          </Trackpoint>
          <Trackpoint>
            <Time>2020-12-05T09:28:13.000Z</Time>
            <Position>
              <LatitudeDegrees>36.8183383159339427947998046875</LatitudeDegrees>
              <LongitudeDegrees>-4.3824165500700473785400390625</LongitudeDegrees>
            </Position>
            <AltitudeMeters>819</AltitudeMeters>
            <DistanceMeters>NAN</DistanceMeters>
          </Trackpoint>
          <Trackpoint>
            <Time>2020-12-05T09:28:14.000Z</Time>
            <Position>
              <LatitudeDegrees>36.8183503858745098114013671875</LatitudeDegrees>
              <LongitudeDegrees>-4.38241881318390369415283203125</LongitudeDegrees>
            </Position>
            <AltitudeMeters>819.20001220703125</AltitudeMeters>
            <DistanceMeters>NAN</DistanceMeters>
          </Trackpoint>
          <Trackpoint>
            <Time>2020-12-05T09:28:15.000Z</Time>
            <Position>
              <LatitudeDegrees>36.8183612823486328125</LatitudeDegrees>
              <LongitudeDegrees>-4.38242149539291858673095703125</LongitudeDegrees>
            </Position>
            <AltitudeMeters>819.4000244140625</AltitudeMeters>
            <DistanceMeters>NAN</DistanceMeters>
          </Trackpoint>
          <Trackpoint>
            <Time>2020-12-05T09:28:16.000Z</Time>
            <Position>
              <LatitudeDegrees>36.8183715082705020904541015625</LatitudeDegrees>
              <LongitudeDegrees>-4.3824242614209651947021484375</LongitudeDegrees>
            </Position>
            <AltitudeMeters>819.5999755859375</AltitudeMeters>
            <DistanceMeters>NAN</DistanceMeters>
          </Trackpoint>
          <Trackpoint>
            <Time>2020-12-05T09:28:17.000Z</Time>
            <Position>
              <LatitudeDegrees>36.81838181801140308380126953125</LatitudeDegrees>
              <LongitudeDegrees>-4.38242820091545581817626953125</LongitudeDegrees>
            </Position>
            <AltitudeMeters>819.5999755859375</AltitudeMeters>
            <DistanceMeters>NAN</DistanceMeters>
          </Trackpoint>
          <Trackpoint>
            <Time>2020-12-05T09:28:18.000Z</Time>
            <Position>
              <LatitudeDegrees>36.81839522905647754669189453125</LatitudeDegrees>
              <LongitudeDegrees>-4.3824329786002635955810546875</LongitudeDegrees>
            </Position>
            <AltitudeMeters>819.5999755859375</AltitudeMeters>
            <DistanceMeters>NAN</DistanceMeters>
          </Trackpoint>
          <Trackpoint>
            <Time>2020-12-05T09:28:19.000Z</Time>
            <Position>
              <LatitudeDegrees>36.8184097297489643096923828125</LatitudeDegrees>
              <LongitudeDegrees>-4.38243708573281764984130859375</LongitudeDegrees>
            </Position>
            <AltitudeMeters>819.5999755859375</AltitudeMeters>
            <DistanceMeters>NAN</DistanceMeters>
          </Trackpoint>
          <Trackpoint>
            <Time>2020-12-05T09:28:20.000Z</Time>
            <Position>
              <LatitudeDegrees>36.8184248171746730804443359375</LatitudeDegrees>
              <LongitudeDegrees>-4.38244379125535488128662109375</LongitudeDegrees>
            </Position>
            <AltitudeMeters>819.4000244140625</AltitudeMeters>
            <DistanceMeters>NAN</DistanceMeters>
          </Trackpoint>
          <Trackpoint>
            <Time>2020-12-05T09:28:21.000Z</Time>
            <Position>
              <LatitudeDegrees>36.8184419162571430206298828125</LatitudeDegrees>
              <LongitudeDegrees>-4.382448233664035797119140625</LongitudeDegrees>
            </Position>
            <AltitudeMeters>819.4000244140625</AltitudeMeters>
            <DistanceMeters>NAN</DistanceMeters>
          </Trackpoint>
          <Trackpoint>
            <Time>2020-12-05T09:28:22.000Z</Time>
            <Position>
              <LatitudeDegrees>36.81845742277801036834716796875</LatitudeDegrees>
              <LongitudeDegrees>-4.38245938159525394439697265625</LongitudeDegrees>
            </Position>
            <AltitudeMeters>819.4000244140625</AltitudeMeters>
            <DistanceMeters>NAN</DistanceMeters>
          </Trackpoint>
          <Trackpoint>
            <Time>2020-12-05T09:28:23.000Z</Time>
            <Position>
              <LatitudeDegrees>36.8184757791459560394287109375</LatitudeDegrees>
              <LongitudeDegrees>-4.38246759586036205291748046875</LongitudeDegrees>
            </Position>
            <AltitudeMeters>819.5999755859375</AltitudeMeters>
            <DistanceMeters>NAN</DistanceMeters>
          </Trackpoint>
          <Trackpoint>
            <Time>2020-12-05T09:28:24.000Z</Time>
            <Position>
              <LatitudeDegrees>36.81849128566682338714599609375</LatitudeDegrees>
              <LongitudeDegrees>-4.38247530721127986907958984375</LongitudeDegrees>
            </Position>
            <AltitudeMeters>819.5999755859375</AltitudeMeters>
            <DistanceMeters>NAN</DistanceMeters>
          </Trackpoint>
          <Trackpoint>
            <Time>2020-12-05T09:28:25.000Z</Time>
            <Position>
              <LatitudeDegrees>36.81850519962608814239501953125</LatitudeDegrees>
              <LongitudeDegrees>-4.3824814260005950927734375</LongitudeDegrees>
            </Position>
            <AltitudeMeters>819.5999755859375</AltitudeMeters>
            <DistanceMeters>NAN</DistanceMeters>
          </Trackpoint>
          <Trackpoint>
            <Time>2020-12-05T09:28:26.000Z</Time>
            <Position>
              <LatitudeDegrees>36.8185176886618137359619140625</LatitudeDegrees>
              <LongitudeDegrees>-4.38248570077121257781982421875</LongitudeDegrees>
            </Position>
            <AltitudeMeters>819.5999755859375</AltitudeMeters>
            <DistanceMeters>NAN</DistanceMeters>
          </Trackpoint>
          <Trackpoint>
            <Time>2020-12-05T09:28:27.000Z</Time>
            <Position>
              <LatitudeDegrees>36.8185337819159030914306640625</LatitudeDegrees>
              <LongitudeDegrees>-4.38248570077121257781982421875</LongitudeDegrees>
            </Position>
            <AltitudeMeters>819.5999755859375</AltitudeMeters>
            <DistanceMeters>NAN</DistanceMeters>
          </Trackpoint>
          <Trackpoint>
            <Time>2020-12-05T09:28:28.000Z</Time>
            <Position>
              <LatitudeDegrees>36.81854995898902416229248046875</LatitudeDegrees>
              <LongitudeDegrees>-4.38248435966670513153076171875</LongitudeDegrees>
            </Position>
            <AltitudeMeters>819.5999755859375</AltitudeMeters>
            <DistanceMeters>NAN</DistanceMeters>
          </Trackpoint>
          <Trackpoint>
            <Time>2020-12-05T09:28:29.000Z</Time>
            <Position>
              <LatitudeDegrees>36.81856186129152774810791015625</LatitudeDegrees>
              <LongitudeDegrees>-4.3824819289147853851318359375</LongitudeDegrees>
            </Position>
            <AltitudeMeters>819.5999755859375</AltitudeMeters>
            <DistanceMeters>NAN</DistanceMeters>
          </Trackpoint>
          <Trackpoint>
            <Time>2020-12-05T09:28:30.000Z</Time>
            <Position>
              <LatitudeDegrees>36.81857426650822162628173828125</LatitudeDegrees>
              <LongitudeDegrees>-4.38248234800994396209716796875</LongitudeDegrees>
            </Position>
            <AltitudeMeters>819.5999755859375</AltitudeMeters>
            <DistanceMeters>NAN</DistanceMeters>
          </Trackpoint>
          <Trackpoint>
            <Time>2020-12-05T09:28:31.000Z</Time>
            <Position>
              <LatitudeDegrees>36.8185860849916934967041015625</LatitudeDegrees>
              <LongitudeDegrees>-4.3824856169521808624267578125</LongitudeDegrees>
            </Position>
            <AltitudeMeters>819.5999755859375</AltitudeMeters>
            <DistanceMeters>NAN</DistanceMeters>
          </Trackpoint>
          <Trackpoint>
            <Time>2020-12-05T09:28:32.000Z</Time>
            <Position>
              <LatitudeDegrees>36.8185937963426113128662109375</LatitudeDegrees>
              <LongitudeDegrees>-4.38248637132346630096435546875</LongitudeDegrees>
            </Position>
            <AltitudeMeters>819.5999755859375</AltitudeMeters>
            <DistanceMeters>NAN</DistanceMeters>
          </Trackpoint>
          <Trackpoint>
            <Time>2020-12-05T09:28:33.000Z</Time>
            <Position>
              <LatitudeDegrees>36.81860125623643398284912109375</LatitudeDegrees>
              <LongitudeDegrees>-4.38248653896152973175048828125</LongitudeDegrees>
            </Position>
            <AltitudeMeters>819.4000244140625</AltitudeMeters>
            <DistanceMeters>NAN</DistanceMeters>
          </Trackpoint>
          <Trackpoint>
            <Time>2020-12-05T09:28:34.000Z</Time>
            <Position>
              <LatitudeDegrees>36.81861030869185924530029296875</LatitudeDegrees>
              <LongitudeDegrees>-4.382489137351512908935546875</LongitudeDegrees>
            </Position>
            <AltitudeMeters>819.4000244140625</AltitudeMeters>
            <DistanceMeters>NAN</DistanceMeters>
          </Trackpoint>
          <Trackpoint>
            <Time>2020-12-05T09:28:35.000Z</Time>
            <Position>
              <LatitudeDegrees>36.81862371973693370819091796875</LatitudeDegrees>
              <LongitudeDegrees>-4.3824953399598598480224609375</LongitudeDegrees>
            </Position>
            <AltitudeMeters>819.4000244140625</AltitudeMeters>
            <DistanceMeters>NAN</DistanceMeters>
          </Trackpoint>
          <Trackpoint>
            <Time>2020-12-05T09:28:36.000Z</Time>
            <Position>
              <LatitudeDegrees>36.81863646022975444793701171875</LatitudeDegrees>
              <LongitudeDegrees>-4.38249818980693817138671875</LongitudeDegrees>
            </Position>
            <AltitudeMeters>819.4000244140625</AltitudeMeters>
            <DistanceMeters>NAN</DistanceMeters>
          </Trackpoint>
          <Trackpoint>
            <Time>2020-12-05T09:28:37.000Z</Time>
            <Position>
              <LatitudeDegrees>36.818649955093860626220703125</LatitudeDegrees>
              <LongitudeDegrees>-4.38250330276787281036376953125</LongitudeDegrees>
            </Position>
            <AltitudeMeters>819.20001220703125</AltitudeMeters>
            <DistanceMeters>NAN</DistanceMeters>
          </Trackpoint>
          <Trackpoint>
            <Time>2020-12-05T09:28:38.000Z</Time>
            <Position>
              <LatitudeDegrees>36.8186655454337596893310546875</LatitudeDegrees>
              <LongitudeDegrees>-4.382509253919124603271484375</LongitudeDegrees>
            </Position>
            <AltitudeMeters>819</AltitudeMeters>
            <DistanceMeters>NAN</DistanceMeters>
          </Trackpoint>
          <Trackpoint>
            <Time>2020-12-05T09:28:39.000Z</Time>
            <Position>
              <LatitudeDegrees>36.8186826445162296295166015625</LatitudeDegrees>
              <LongitudeDegrees>-4.38251252286136150360107421875</LongitudeDegrees>
            </Position>
            <AltitudeMeters>819</AltitudeMeters>
            <DistanceMeters>NAN</DistanceMeters>
          </Trackpoint>
          <Trackpoint>
            <Time>2020-12-05T09:28:40.000Z</Time>
            <Position>
              <LatitudeDegrees>36.818697564303874969482421875</LatitudeDegrees>
              <LongitudeDegrees>-4.38251738436520099639892578125</LongitudeDegrees>
            </Position>
            <AltitudeMeters>818.79998779296875</AltitudeMeters>
            <DistanceMeters>NAN</DistanceMeters>
          </Trackpoint>
          <Trackpoint>
            <Time>2020-12-05T09:28:41.000Z</Time>
            <Position>
              <LatitudeDegrees>36.81871206499636173248291015625</LatitudeDegrees>
              <LongitudeDegrees>-4.38252274878323078155517578125</LongitudeDegrees>
            </Position>
            <AltitudeMeters>818.79998779296875</AltitudeMeters>
            <DistanceMeters>NAN</DistanceMeters>
          </Trackpoint>
          <Trackpoint>
            <Time>2020-12-05T09:28:42.000Z</Time>
            <Position>
              <LatitudeDegrees>36.8187238834798336029052734375</LatitudeDegrees>
              <LongitudeDegrees>-4.38252643682062625885009765625</LongitudeDegrees>
            </Position>
            <AltitudeMeters>818.79998779296875</AltitudeMeters>
            <DistanceMeters>NAN</DistanceMeters>
          </Trackpoint>
          <Trackpoint>
            <Time>2020-12-05T09:28:43.000Z</Time>
            <Position>
              <LatitudeDegrees>36.818735115230083465576171875</LatitudeDegrees>
              <LongitudeDegrees>-4.3825256824493408203125</LongitudeDegrees>
            </Position>
            <AltitudeMeters>818.5999755859375</AltitudeMeters>
            <DistanceMeters>NAN</DistanceMeters>
          </Trackpoint>
          <Trackpoint>
            <Time>2020-12-05T09:28:44.000Z</Time>
            <Position>
              <LatitudeDegrees>36.81874374859035015106201171875</LatitudeDegrees>
              <LongitudeDegrees>-4.38252492807805538177490234375</LongitudeDegrees>
            </Position>
            <AltitudeMeters>818.5999755859375</AltitudeMeters>
            <DistanceMeters>NAN</DistanceMeters>
          </Trackpoint>
          <Trackpoint>
            <Time>2020-12-05T09:28:45.000Z</Time>
            <Position>
              <LatitudeDegrees>36.81875430978834629058837890625</LatitudeDegrees>
              <LongitudeDegrees>-4.38252274878323078155517578125</LongitudeDegrees>
            </Position>
            <AltitudeMeters>818.5999755859375</AltitudeMeters>
            <DistanceMeters>NAN</DistanceMeters>
          </Trackpoint>
          <Trackpoint>
            <Time>2020-12-05T09:28:46.000Z</Time>
            <Position>
              <LatitudeDegrees>36.8187681399285793304443359375</LatitudeDegrees>
              <LongitudeDegrees>-4.38251855783164501190185546875</LongitudeDegrees>
            </Position>
            <AltitudeMeters>818.79998779296875</AltitudeMeters>
            <DistanceMeters>NAN</DistanceMeters>
          </Trackpoint>
          <Trackpoint>
            <Time>2020-12-05T09:28:47.000Z</Time>
            <Position>
              <LatitudeDegrees>36.8187805451452732086181640625</LatitudeDegrees>
              <LongitudeDegrees>-4.3825144506990909576416015625</LongitudeDegrees>
            </Position>
            <AltitudeMeters>818.79998779296875</AltitudeMeters>
            <DistanceMeters>NAN</DistanceMeters>
          </Trackpoint>
          <Trackpoint>
            <Time>2020-12-05T09:28:48.000Z</Time>
            <Position>
              <LatitudeDegrees>36.81879169307649135589599609375</LatitudeDegrees>
              <LongitudeDegrees>-4.3825090862810611724853515625</LongitudeDegrees>
            </Position>
            <AltitudeMeters>819</AltitudeMeters>
            <DistanceMeters>NAN</DistanceMeters>
          </Trackpoint>
          <Trackpoint>
            <Time>2020-12-05T09:28:49.000Z</Time>
            <Position>
              <LatitudeDegrees>36.81880393065512180328369140625</LatitudeDegrees>
              <LongitudeDegrees>-4.38250095583498477935791015625</LongitudeDegrees>
            </Position>
            <AltitudeMeters>819.20001220703125</AltitudeMeters>
            <DistanceMeters>NAN</DistanceMeters>
          </Trackpoint>
          <Trackpoint>
            <Time>2020-12-05T09:28:50.000Z</Time>
            <Position>
              <LatitudeDegrees>36.8188154138624668121337890625</LatitudeDegrees>
              <LongitudeDegrees>-4.38248989172279834747314453125</LongitudeDegrees>
            </Position>
            <AltitudeMeters>819.20001220703125</AltitudeMeters>
            <DistanceMeters>NAN</DistanceMeters>
          </Trackpoint>
          <Trackpoint>
            <Time>2020-12-05T09:28:51.000Z</Time>
            <Position>
              <LatitudeDegrees>36.81882463395595550537109375</LatitudeDegrees>
              <LongitudeDegrees>-4.38248335383832454681396484375</LongitudeDegrees>
            </Position>
            <AltitudeMeters>819.4000244140625</AltitudeMeters>
            <DistanceMeters>NAN</DistanceMeters>
          </Trackpoint>
          <Trackpoint>
            <Time>2020-12-05T09:28:52.000Z</Time>
            <Position>
              <LatitudeDegrees>36.81883393786847591400146484375</LatitudeDegrees>
              <LongitudeDegrees>-4.38248209655284881591796875</LongitudeDegrees>
            </Position>
            <AltitudeMeters>819.4000244140625</AltitudeMeters>
            <DistanceMeters>NAN</DistanceMeters>
          </Trackpoint>
          <Trackpoint>
            <Time>2020-12-05T09:28:53.000Z</Time>
            <Position>
              <LatitudeDegrees>36.8188459239900112152099609375</LatitudeDegrees>
              <LongitudeDegrees>-4.3824822641909122467041015625</LongitudeDegrees>
            </Position>
            <AltitudeMeters>819.4000244140625</AltitudeMeters>
            <DistanceMeters>NAN</DistanceMeters>
          </Trackpoint>
          <Trackpoint>
            <Time>2020-12-05T09:28:54.000Z</Time>
            <Position>
              <LatitudeDegrees>36.818859837949275970458984375</LatitudeDegrees>
              <LongitudeDegrees>-4.38248083926737308502197265625</LongitudeDegrees>
            </Position>
            <AltitudeMeters>819.4000244140625</AltitudeMeters>
            <DistanceMeters>NAN</DistanceMeters>
          </Trackpoint>
          <Trackpoint>
            <Time>2020-12-05T09:28:55.000Z</Time>
            <Position>
              <LatitudeDegrees>36.81887417100369930267333984375</LatitudeDegrees>
              <LongitudeDegrees>-4.3824814260005950927734375</LongitudeDegrees>
            </Position>
            <AltitudeMeters>819.4000244140625</AltitudeMeters>
            <DistanceMeters>NAN</DistanceMeters>
          </Trackpoint>
          <Trackpoint>
            <Time>2020-12-05T09:28:56.000Z</Time>
            <Position>
              <LatitudeDegrees>36.81888632476329803466796875</LatitudeDegrees>
              <LongitudeDegrees>-4.3824859522283077239990234375</LongitudeDegrees>
            </Position>
            <AltitudeMeters>819.4000244140625</AltitudeMeters>
            <DistanceMeters>NAN</DistanceMeters>
          </Trackpoint>
          <Trackpoint>
            <Time>2020-12-05T09:28:57.000Z</Time>
            <Position>
              <LatitudeDegrees>36.8188978917896747589111328125</LatitudeDegrees>
              <LongitudeDegrees>-4.3824936635792255401611328125</LongitudeDegrees>
            </Position>
            <AltitudeMeters>819.4000244140625</AltitudeMeters>
            <DistanceMeters>NAN</DistanceMeters>
          </Trackpoint>
          <Trackpoint>
            <Time>2020-12-05T09:28:58.000Z</Time>
            <Position>
              <LatitudeDegrees>36.81890887208282947540283203125</LatitudeDegrees>
              <LongitudeDegrees>-4.3824966810643672943115234375</LongitudeDegrees>
            </Position>
            <AltitudeMeters>819.4000244140625</AltitudeMeters>
            <DistanceMeters>NAN</DistanceMeters>
          </Trackpoint>
          <Trackpoint>
            <Time>2020-12-05T09:28:59.000Z</Time>
            <Position>
              <LatitudeDegrees>36.8189205229282379150390625</LatitudeDegrees>
              <LongitudeDegrees>-4.38250145874917507171630859375</LongitudeDegrees>
            </Position>
            <AltitudeMeters>819.20001220703125</AltitudeMeters>
            <DistanceMeters>NAN</DistanceMeters>
          </Trackpoint>
          <Trackpoint>
            <Time>2020-12-05T09:29:00.000Z</Time>
            <Position>
              <LatitudeDegrees>36.81893200613558292388916015625</LatitudeDegrees>
              <LongitudeDegrees>-4.38250757753849029541015625</LongitudeDegrees>
            </Position>
            <AltitudeMeters>819.20001220703125</AltitudeMeters>
            <DistanceMeters>NAN</DistanceMeters>
          </Trackpoint>
          <Trackpoint>
            <Time>2020-12-05T09:29:01.000Z</Time>
            <Position>
              <LatitudeDegrees>36.818942315876483917236328125</LatitudeDegrees>
              <LongitudeDegrees>-4.382513277232646942138671875</LongitudeDegrees>
            </Position>
            <AltitudeMeters>819.4000244140625</AltitudeMeters>
            <DistanceMeters>NAN</DistanceMeters>
          </Trackpoint>
          <Trackpoint>
            <Time>2020-12-05T09:29:02.000Z</Time>
            <Position>
              <LatitudeDegrees>36.8189532123506069183349609375</LatitudeDegrees>
              <LongitudeDegrees>-4.38251964747905731201171875</LongitudeDegrees>
            </Position>
            <AltitudeMeters>819.4000244140625</AltitudeMeters>
            <DistanceMeters>NAN</DistanceMeters>
          </Trackpoint>
          <Trackpoint>
            <Time>2020-12-05T09:29:03.000Z</Time>
            <Position>
              <LatitudeDegrees>36.8189639411866664886474609375</LatitudeDegrees>
              <LongitudeDegrees>-4.38252442516386508941650390625</LongitudeDegrees>
            </Position>
            <AltitudeMeters>819.4000244140625</AltitudeMeters>
            <DistanceMeters>NAN</DistanceMeters>
          </Trackpoint>
          <Trackpoint>
            <Time>2020-12-05T09:29:04.000Z</Time>
            <Position>
              <LatitudeDegrees>36.81897215545177459716796875</LatitudeDegrees>
              <LongitudeDegrees>-4.38253146596252918243408203125</LongitudeDegrees>
            </Position>
            <AltitudeMeters>819.4000244140625</AltitudeMeters>
            <DistanceMeters>NAN</DistanceMeters>
          </Trackpoint>
          <Trackpoint>
            <Time>2020-12-05T09:29:05.000Z</Time>
            <Position>
              <LatitudeDegrees>36.81898422539234161376953125</LatitudeDegrees>
              <LongitudeDegrees>-4.38253699801862239837646484375</LongitudeDegrees>
            </Position>
            <AltitudeMeters>819.4000244140625</AltitudeMeters>
            <DistanceMeters>NAN</DistanceMeters>
          </Trackpoint>
          <Trackpoint>
            <Time>2020-12-05T09:29:06.000Z</Time>
            <Position>
              <LatitudeDegrees>36.818996965885162353515625</LatitudeDegrees>
              <LongitudeDegrees>-4.38254646956920623779296875</LongitudeDegrees>
            </Position>
            <AltitudeMeters>819.4000244140625</AltitudeMeters>
            <DistanceMeters>NAN</DistanceMeters>
          </Trackpoint>
          <Trackpoint>
            <Time>2020-12-05T09:29:07.000Z</Time>
            <Position>
              <LatitudeDegrees>36.81900702416896820068359375</LatitudeDegrees>
              <LongitudeDegrees>-4.38255443237721920013427734375</LongitudeDegrees>
            </Position>
            <AltitudeMeters>819.4000244140625</AltitudeMeters>
            <DistanceMeters>NAN</DistanceMeters>
          </Trackpoint>
          <Trackpoint>
            <Time>2020-12-05T09:29:08.000Z</Time>
            <Position>
              <LatitudeDegrees>36.81901113130152225494384765625</LatitudeDegrees>
              <LongitudeDegrees>-4.38256314955651760101318359375</LongitudeDegrees>
            </Position>
            <AltitudeMeters>819.4000244140625</AltitudeMeters>
            <DistanceMeters>NAN</DistanceMeters>
          </Trackpoint>
          <Trackpoint>
            <Time>2020-12-05T09:29:09.000Z</Time>
            <Position>
              <LatitudeDegrees>36.8190112151205539703369140625</LatitudeDegrees>
              <LongitudeDegrees>-4.38257329165935516357421875</LongitudeDegrees>
            </Position>
            <AltitudeMeters>819.4000244140625</AltitudeMeters>
            <DistanceMeters>NAN</DistanceMeters>
          </Trackpoint>
          <Trackpoint>
            <Time>2020-12-05T09:29:10.000Z</Time>
            <Position>
              <LatitudeDegrees>36.81901783682405948638916015625</LatitudeDegrees>
              <LongitudeDegrees>-4.382580332458019256591796875</LongitudeDegrees>
            </Position>
            <AltitudeMeters>819.4000244140625</AltitudeMeters>
            <DistanceMeters>NAN</DistanceMeters>
          </Trackpoint>
          <Trackpoint>
            <Time>2020-12-05T09:29:11.000Z</Time>
            <Position>
              <LatitudeDegrees>36.8190229497849941253662109375</LatitudeDegrees>
              <LongitudeDegrees>-4.3825868703424930572509765625</LongitudeDegrees>
            </Position>
            <AltitudeMeters>819.20001220703125</AltitudeMeters>
            <DistanceMeters>NAN</DistanceMeters>
          </Trackpoint>
          <Trackpoint>
            <Time>2020-12-05T09:29:12.000Z</Time>
            <Position>
              <LatitudeDegrees>36.819027476012706756591796875</LatitudeDegrees>
              <LongitudeDegrees>-4.3825940787792205810546875</LongitudeDegrees>
            </Position>
            <AltitudeMeters>819</AltitudeMeters>
            <DistanceMeters>NAN</DistanceMeters>
          </Trackpoint>
          <Trackpoint>
            <Time>2020-12-05T09:29:13.000Z</Time>
            <Position>
              <LatitudeDegrees>36.81903124786913394927978515625</LatitudeDegrees>
              <LongitudeDegrees>-4.3825967609882354736328125</LongitudeDegrees>
            </Position>
            <AltitudeMeters>819</AltitudeMeters>
            <DistanceMeters>NAN</DistanceMeters>
          </Trackpoint>
          <Trackpoint>
            <Time>2020-12-05T09:29:14.000Z</Time>
            <Position>
              <LatitudeDegrees>36.81902470998466014862060546875</LatitudeDegrees>
              <LongitudeDegrees>-4.382595084607601165771484375</LongitudeDegrees>
            </Position>
            <AltitudeMeters>818.79998779296875</AltitudeMeters>
            <DistanceMeters>NAN</DistanceMeters>
          </Trackpoint>
          <Trackpoint>
            <Time>2020-12-05T09:29:15.000Z</Time>
            <Position>
              <LatitudeDegrees>36.8190226145088672637939453125</LatitudeDegrees>
              <LongitudeDegrees>-4.382597766816616058349609375</LongitudeDegrees>
            </Position>
            <AltitudeMeters>818.5999755859375</AltitudeMeters>
            <DistanceMeters>NAN</DistanceMeters>
          </Trackpoint>
          <Trackpoint>
            <Time>2020-12-05T09:29:16.000Z</Time>
            <Position>
              <LatitudeDegrees>36.819022782146930694580078125</LatitudeDegrees>
              <LongitudeDegrees>-4.38259952701628208160400390625</LongitudeDegrees>
            </Position>
            <AltitudeMeters>818.5999755859375</AltitudeMeters>
            <DistanceMeters>NAN</DistanceMeters>
          </Trackpoint>
          <Trackpoint>
            <Time>2020-12-05T09:29:17.000Z</Time>
            <Position>
              <LatitudeDegrees>36.81902035139501094818115234375</LatitudeDegrees>
              <LongitudeDegrees>-4.3826086632907390594482421875</LongitudeDegrees>
            </Position>
            <AltitudeMeters>818.5999755859375</AltitudeMeters>
            <DistanceMeters>NAN</DistanceMeters>
          </Trackpoint>
          <Trackpoint>
            <Time>2020-12-05T09:29:18.000Z</Time>
            <Position>
              <LatitudeDegrees>36.819016076624393463134765625</LatitudeDegrees>
              <LongitudeDegrees>-4.38262048177421092987060546875</LongitudeDegrees>
            </Position>
            <AltitudeMeters>818.5999755859375</AltitudeMeters>
            <DistanceMeters>NAN</DistanceMeters>
          </Trackpoint>
          <Trackpoint>
            <Time>2020-12-05T09:29:19.000Z</Time>
            <Position>
              <LatitudeDegrees>36.819012723863124847412109375</LatitudeDegrees>
              <LongitudeDegrees>-4.382632635533809661865234375</LongitudeDegrees>
            </Position>
            <AltitudeMeters>818.5999755859375</AltitudeMeters>
            <DistanceMeters>NAN</DistanceMeters>
          </Trackpoint>
          <Trackpoint>
            <Time>2020-12-05T09:29:20.000Z</Time>
            <Position>
              <LatitudeDegrees>36.819011382758617401123046875</LatitudeDegrees>
              <LongitudeDegrees>-4.38264705240726470947265625</LongitudeDegrees>
            </Position>
            <AltitudeMeters>818.5999755859375</AltitudeMeters>
            <DistanceMeters>NAN</DistanceMeters>
          </Trackpoint>
          <Trackpoint>
            <Time>2020-12-05T09:29:21.000Z</Time>
            <Position>
              <LatitudeDegrees>36.819008700549602508544921875</LatitudeDegrees>
              <LongitudeDegrees>-4.382660128176212310791015625</LongitudeDegrees>
            </Position>
            <AltitudeMeters>818.5999755859375</AltitudeMeters>
            <DistanceMeters>NAN</DistanceMeters>
          </Trackpoint>
          <Trackpoint>
            <Time>2020-12-05T09:29:22.000Z</Time>
            <Position>
              <LatitudeDegrees>36.81901297532021999359130859375</LatitudeDegrees>
              <LongitudeDegrees>-4.38267412595450878143310546875</LongitudeDegrees>
            </Position>
            <AltitudeMeters>818.5999755859375</AltitudeMeters>
            <DistanceMeters>NAN</DistanceMeters>
          </Trackpoint>
          <Trackpoint>
            <Time>2020-12-05T09:29:23.000Z</Time>
            <Position>
              <LatitudeDegrees>36.81901347823441028594970703125</LatitudeDegrees>
              <LongitudeDegrees>-4.38268803991377353668212890625</LongitudeDegrees>
            </Position>
            <AltitudeMeters>818.79998779296875</AltitudeMeters>
            <DistanceMeters>NAN</DistanceMeters>
          </Trackpoint>
          <Trackpoint>
            <Time>2020-12-05T09:29:24.000Z</Time>
            <Position>
              <LatitudeDegrees>36.81901632808148860931396484375</LatitudeDegrees>
              <LongitudeDegrees>-4.38269709236919879913330078125</LongitudeDegrees>
            </Position>
            <AltitudeMeters>818.79998779296875</AltitudeMeters>
            <DistanceMeters>NAN</DistanceMeters>
          </Trackpoint>
          <Trackpoint>
            <Time>2020-12-05T09:29:25.000Z</Time>
            <Position>
              <LatitudeDegrees>36.81901850737631320953369140625</LatitudeDegrees>
              <LongitudeDegrees>-4.38270379789173603057861328125</LongitudeDegrees>
            </Position>
            <AltitudeMeters>818.79998779296875</AltitudeMeters>
            <DistanceMeters>NAN</DistanceMeters>
          </Trackpoint>
          <Trackpoint>
            <Time>2020-12-05T09:29:26.000Z</Time>
            <Position>
              <LatitudeDegrees>36.81902236305177211761474609375</LatitudeDegrees>
              <LongitudeDegrees>-4.38271217979490756988525390625</LongitudeDegrees>
            </Position>
            <AltitudeMeters>818.79998779296875</AltitudeMeters>
            <DistanceMeters>NAN</DistanceMeters>
          </Trackpoint>
          <Trackpoint>
            <Time>2020-12-05T09:29:27.000Z</Time>
            <Position>
              <LatitudeDegrees>36.81902923621237277984619140625</LatitudeDegrees>
              <LongitudeDegrees>-4.382719807326793670654296875</LongitudeDegrees>
            </Position>
            <AltitudeMeters>818.79998779296875</AltitudeMeters>
            <DistanceMeters>NAN</DistanceMeters>
          </Trackpoint>
          <Trackpoint>
            <Time>2020-12-05T09:29:28.000Z</Time>
            <Position>
              <LatitudeDegrees>36.81903409771621227264404296875</LatitudeDegrees>
              <LongitudeDegrees>-4.38272575847804546356201171875</LongitudeDegrees>
            </Position>
            <AltitudeMeters>819</AltitudeMeters>
            <DistanceMeters>NAN</DistanceMeters>
          </Trackpoint>
          <Trackpoint>
            <Time>2020-12-05T09:29:29.000Z</Time>
            <Position>
              <LatitudeDegrees>36.81903661228716373443603515625</LatitudeDegrees>
              <LongitudeDegrees>-4.3827313743531703948974609375</LongitudeDegrees>
            </Position>
            <AltitudeMeters>819</AltitudeMeters>
            <DistanceMeters>NAN</DistanceMeters>
          </Trackpoint>
          <Trackpoint>
            <Time>2020-12-05T09:29:30.000Z</Time>
            <Position>
              <LatitudeDegrees>36.819032169878482818603515625</LatitudeDegrees>
              <LongitudeDegrees>-4.3827357329428195953369140625</LongitudeDegrees>
            </Position>
            <AltitudeMeters>819</AltitudeMeters>
            <DistanceMeters>NAN</DistanceMeters>
          </Trackpoint>
          <Trackpoint>
            <Time>2020-12-05T09:29:31.000Z</Time>
            <Position>
              <LatitudeDegrees>36.81902579963207244873046875</LatitudeDegrees>
              <LongitudeDegrees>-4.38274101354181766510009765625</LongitudeDegrees>
            </Position>
            <AltitudeMeters>819</AltitudeMeters>
            <DistanceMeters>NAN</DistanceMeters>
          </Trackpoint>
          <Trackpoint>
            <Time>2020-12-05T09:29:32.000Z</Time>
            <Position>
              <LatitudeDegrees>36.819017417728900909423828125</LatitudeDegrees>
              <LongitudeDegrees>-4.382747970521450042724609375</LongitudeDegrees>
            </Position>
            <AltitudeMeters>819.20001220703125</AltitudeMeters>
            <DistanceMeters>NAN</DistanceMeters>
          </Trackpoint>
          <Trackpoint>
            <Time>2020-12-05T09:29:33.000Z</Time>
            <Position>
              <LatitudeDegrees>36.81900811381638050079345703125</LatitudeDegrees>
              <LongitudeDegrees>-4.3827528320252895355224609375</LongitudeDegrees>
            </Position>
            <AltitudeMeters>819.20001220703125</AltitudeMeters>
            <DistanceMeters>NAN</DistanceMeters>
          </Trackpoint>
          <Trackpoint>
            <Time>2020-12-05T09:29:34.000Z</Time>
            <Position>
              <LatitudeDegrees>36.81899922899901866912841796875</LatitudeDegrees>
              <LongitudeDegrees>-4.3827576935291290283203125</LongitudeDegrees>
            </Position>
            <AltitudeMeters>819.20001220703125</AltitudeMeters>
            <DistanceMeters>NAN</DistanceMeters>
          </Trackpoint>
          <Trackpoint>
            <Time>2020-12-05T09:29:35.000Z</Time>
            <Position>
              <LatitudeDegrees>36.8189974687993526458740234375</LatitudeDegrees>
              <LongitudeDegrees>-4.38276129774749279022216796875</LongitudeDegrees>
            </Position>
            <AltitudeMeters>819.20001220703125</AltitudeMeters>
            <DistanceMeters>NAN</DistanceMeters>
          </Trackpoint>
          <Trackpoint>
            <Time>2020-12-05T09:29:36.000Z</Time>
            <Position>
              <LatitudeDegrees>36.81899537332355976104736328125</LatitudeDegrees>
              <LongitudeDegrees>-4.38276817090809345245361328125</LongitudeDegrees>
            </Position>
            <AltitudeMeters>821.5999755859375</AltitudeMeters>
            <DistanceMeters>NAN</DistanceMeters>
          </Trackpoint>
          <Trackpoint>
            <Time>2020-12-05T09:29:37.000Z</Time>
            <Position>
              <LatitudeDegrees>36.81899453513324260711669921875</LatitudeDegrees>
              <LongitudeDegrees>-4.3827759660780429840087890625</LongitudeDegrees>
            </Position>
            <AltitudeMeters>820</AltitudeMeters>
            <DistanceMeters>NAN</DistanceMeters>
          </Trackpoint>
          <Trackpoint>
            <Time>2020-12-05T09:29:38.000Z</Time>
            <Position>
              <LatitudeDegrees>36.81899520568549633026123046875</LatitudeDegrees>
              <LongitudeDegrees>-4.38278057612478733062744140625</LongitudeDegrees>
            </Position>
            <AltitudeMeters>819.20001220703125</AltitudeMeters>
            <DistanceMeters>NAN</DistanceMeters>
          </Trackpoint>
          <Trackpoint>
            <Time>2020-12-05T09:29:39.000Z</Time>
            <Position>
              <LatitudeDegrees>36.818995960056781768798828125</LatitudeDegrees>
              <LongitudeDegrees>-4.382784850895404815673828125</LongitudeDegrees>
            </Position>
            <AltitudeMeters>818.79998779296875</AltitudeMeters>
            <DistanceMeters>NAN</DistanceMeters>
          </Trackpoint>
          <Trackpoint>
            <Time>2020-12-05T09:29:40.000Z</Time>
            <Position>
              <LatitudeDegrees>36.81899772025644779205322265625</LatitudeDegrees>
              <LongitudeDegrees>-4.38278996385633945465087890625</LongitudeDegrees>
            </Position>
            <AltitudeMeters>818.5999755859375</AltitudeMeters>
            <DistanceMeters>NAN</DistanceMeters>
          </Trackpoint>
          <Trackpoint>
            <Time>2020-12-05T09:29:41.000Z</Time>
            <Position>
              <LatitudeDegrees>36.81899956427514553070068359375</LatitudeDegrees>
              <LongitudeDegrees>-4.38279499299824237823486328125</LongitudeDegrees>
            </Position>
            <AltitudeMeters>818.4000244140625</AltitudeMeters>
            <DistanceMeters>NAN</DistanceMeters>
          </Trackpoint>
          <Trackpoint>
            <Time>2020-12-05T09:29:42.000Z</Time>
            <Position>
              <LatitudeDegrees>36.8190011568367481231689453125</LatitudeDegrees>
              <LongitudeDegrees>-4.38280303962528705596923828125</LongitudeDegrees>
            </Position>
            <AltitudeMeters>818.4000244140625</AltitudeMeters>
            <DistanceMeters>NAN</DistanceMeters>
          </Trackpoint>
          <Trackpoint>
            <Time>2020-12-05T09:29:43.000Z</Time>
            <Position>
              <LatitudeDegrees>36.81900300085544586181640625</LatitudeDegrees>
              <LongitudeDegrees>-4.38280756585299968719482421875</LongitudeDegrees>
            </Position>
            <AltitudeMeters>818.4000244140625</AltitudeMeters>
            <DistanceMeters>NAN</DistanceMeters>
          </Trackpoint>
          <Trackpoint>
            <Time>2020-12-05T09:29:44.000Z</Time>
            <Position>
              <LatitudeDegrees>36.8189998157322406768798828125</LatitudeDegrees>
              <LongitudeDegrees>-4.3828086555004119873046875</LongitudeDegrees>
            </Position>
            <AltitudeMeters>818.4000244140625</AltitudeMeters>
            <DistanceMeters>NAN</DistanceMeters>
          </Trackpoint>
          <Trackpoint>
            <Time>2020-12-05T09:29:45.000Z</Time>
            <Position>
              <LatitudeDegrees>36.8189988099038600921630859375</LatitudeDegrees>
              <LongitudeDegrees>-4.382802285254001617431640625</LongitudeDegrees>
            </Position>
            <AltitudeMeters>818.4000244140625</AltitudeMeters>
            <DistanceMeters>NAN</DistanceMeters>
          </Trackpoint>
          <Trackpoint>
            <Time>2020-12-05T09:29:46.000Z</Time>
            <Position>
              <LatitudeDegrees>36.81899772025644779205322265625</LatitudeDegrees>
              <LongitudeDegrees>-4.38279901631176471710205078125</LongitudeDegrees>
            </Position>
            <AltitudeMeters>818.4000244140625</AltitudeMeters>
            <DistanceMeters>NAN</DistanceMeters>
          </Trackpoint>
          <Trackpoint>
            <Time>2020-12-05T09:29:47.000Z</Time>
            <Position>
              <LatitudeDegrees>36.81900174356997013092041015625</LatitudeDegrees>
              <LongitudeDegrees>-4.3828001059591770172119140625</LongitudeDegrees>
            </Position>
            <AltitudeMeters>818.4000244140625</AltitudeMeters>
            <DistanceMeters>NAN</DistanceMeters>
          </Trackpoint>
          <Trackpoint>
            <Time>2020-12-05T09:29:48.000Z</Time>
            <Position>
              <LatitudeDegrees>36.8190045095980167388916015625</LatitudeDegrees>
              <LongitudeDegrees>-4.382803626358509063720703125</LongitudeDegrees>
            </Position>
            <AltitudeMeters>818.4000244140625</AltitudeMeters>
            <DistanceMeters>NAN</DistanceMeters>
          </Trackpoint>
          <Trackpoint>
            <Time>2020-12-05T09:29:49.000Z</Time>
            <Position>
              <LatitudeDegrees>36.8190038390457630157470703125</LatitudeDegrees>
              <LongitudeDegrees>-4.3828104995191097259521484375</LongitudeDegrees>
            </Position>
            <AltitudeMeters>818.4000244140625</AltitudeMeters>
            <DistanceMeters>NAN</DistanceMeters>
          </Trackpoint>
          <Trackpoint>
            <Time>2020-12-05T09:29:50.000Z</Time>
            <Position>
              <LatitudeDegrees>36.819008029997348785400390625</LatitudeDegrees>
              <LongitudeDegrees>-4.38281427137553691864013671875</LongitudeDegrees>
            </Position>
            <AltitudeMeters>818.4000244140625</AltitudeMeters>
            <DistanceMeters>NAN</DistanceMeters>
          </Trackpoint>
          <Trackpoint>
            <Time>2020-12-05T09:29:51.000Z</Time>
            <Position>
              <LatitudeDegrees>36.8190102092921733856201171875</LatitudeDegrees>
              <LongitudeDegrees>-4.3828178755939006805419921875</LongitudeDegrees>
            </Position>
            <AltitudeMeters>818.4000244140625</AltitudeMeters>
            <DistanceMeters>NAN</DistanceMeters>
          </Trackpoint>
          <Trackpoint>
            <Time>2020-12-05T09:29:52.000Z</Time>
            <Position>
              <LatitudeDegrees>36.81901230476796627044677734375</LatitudeDegrees>
              <LongitudeDegrees>-4.38282080926001071929931640625</LongitudeDegrees>
            </Position>
            <AltitudeMeters>818.4000244140625</AltitudeMeters>
            <DistanceMeters>NAN</DistanceMeters>
          </Trackpoint>
          <Trackpoint>
            <Time>2020-12-05T09:29:53.000Z</Time>
            <Position>
              <LatitudeDegrees>36.819017417728900909423828125</LatitudeDegrees>
              <LongitudeDegrees>-4.38282315619289875030517578125</LongitudeDegrees>
            </Position>
            <AltitudeMeters>818.4000244140625</AltitudeMeters>
            <DistanceMeters>NAN</DistanceMeters>
          </Trackpoint>
          <Trackpoint>
            <Time>2020-12-05T09:29:54.000Z</Time>
            <Position>
              <LatitudeDegrees>36.81902051903307437896728515625</LatitudeDegrees>
              <LongitudeDegrees>-4.38282483257353305816650390625</LongitudeDegrees>
            </Position>
            <AltitudeMeters>818.4000244140625</AltitudeMeters>
            <DistanceMeters>NAN</DistanceMeters>
          </Trackpoint>
          <Trackpoint>
            <Time>2020-12-05T09:29:55.000Z</Time>
            <Position>
              <LatitudeDegrees>36.81902579963207244873046875</LatitudeDegrees>
              <LongitudeDegrees>-4.38282332383096218109130859375</LongitudeDegrees>
            </Position>
            <AltitudeMeters>818.4000244140625</AltitudeMeters>
            <DistanceMeters>NAN</DistanceMeters>
          </Trackpoint>
          <Trackpoint>
            <Time>2020-12-05T09:29:56.000Z</Time>
            <Position>
              <LatitudeDegrees>36.81903116405010223388671875</LatitudeDegrees>
              <LongitudeDegrees>-4.38281946815550327301025390625</LongitudeDegrees>
            </Position>
            <AltitudeMeters>818.4000244140625</AltitudeMeters>
            <DistanceMeters>NAN</DistanceMeters>
          </Trackpoint>
          <Trackpoint>
            <Time>2020-12-05T09:29:57.000Z</Time>
            <Position>
              <LatitudeDegrees>36.81903543882071971893310546875</LatitudeDegrees>
              <LongitudeDegrees>-4.38281544484198093414306640625</LongitudeDegrees>
            </Position>
            <AltitudeMeters>818.4000244140625</AltitudeMeters>
            <DistanceMeters>NAN</DistanceMeters>
          </Trackpoint>
          <Trackpoint>
            <Time>2020-12-05T09:29:58.000Z</Time>
            <Position>
              <LatitudeDegrees>36.8190370313823223114013671875</LatitudeDegrees>
              <LongitudeDegrees>-4.382815025746822357177734375</LongitudeDegrees>
            </Position>
            <AltitudeMeters>818.4000244140625</AltitudeMeters>
            <DistanceMeters>NAN</DistanceMeters>
          </Trackpoint>
          <Trackpoint>
            <Time>2020-12-05T09:29:59.000Z</Time>
            <Position>
              <LatitudeDegrees>36.81903946213424205780029296875</LatitudeDegrees>
              <LongitudeDegrees>-4.382814355194568634033203125</LongitudeDegrees>
            </Position>
            <AltitudeMeters>818.4000244140625</AltitudeMeters>
            <DistanceMeters>NAN</DistanceMeters>
          </Trackpoint>
          <Trackpoint>
            <Time>2020-12-05T09:30:00.000Z</Time>
            <Position>
              <LatitudeDegrees>36.81903677992522716522216796875</LatitudeDegrees>
              <LongitudeDegrees>-4.38281343318521976470947265625</LongitudeDegrees>
            </Position>
            <AltitudeMeters>818.4000244140625</AltitudeMeters>
            <DistanceMeters>NAN</DistanceMeters>
          </Trackpoint>
          <Trackpoint>
            <Time>2020-12-05T09:30:01.000Z</Time>
            <Position>
              <LatitudeDegrees>36.8190363608300685882568359375</LatitudeDegrees>
              <LongitudeDegrees>-4.38281259499490261077880859375</LongitudeDegrees>
            </Position>
            <AltitudeMeters>818.4000244140625</AltitudeMeters>
            <DistanceMeters>NAN</DistanceMeters>
          </Trackpoint>
          <Trackpoint>
            <Time>2020-12-05T09:30:02.000Z</Time>
            <Position>
              <LatitudeDegrees>36.8190377019345760345458984375</LatitudeDegrees>
              <LongitudeDegrees>-4.38281125389039516448974609375</LongitudeDegrees>
            </Position>
            <AltitudeMeters>818.4000244140625</AltitudeMeters>
            <DistanceMeters>NAN</DistanceMeters>
          </Trackpoint>
          <Trackpoint>
            <Time>2020-12-05T09:30:03.000Z</Time>
            <Position>
              <LatitudeDegrees>36.819040216505527496337890625</LatitudeDegrees>
              <LongitudeDegrees>-4.3828086555004119873046875</LongitudeDegrees>
            </Position>
            <AltitudeMeters>818.4000244140625</AltitudeMeters>
            <DistanceMeters>NAN</DistanceMeters>
          </Trackpoint>
          <Trackpoint>
            <Time>2020-12-05T09:30:04.000Z</Time>
            <Position>
              <LatitudeDegrees>36.8190417252480983734130859375</LatitudeDegrees>
              <LongitudeDegrees>-4.38280689530074596405029296875</LongitudeDegrees>
            </Position>
            <AltitudeMeters>818.4000244140625</AltitudeMeters>
            <DistanceMeters>NAN</DistanceMeters>
          </Trackpoint>
          <Trackpoint>
            <Time>2020-12-05T09:30:05.000Z</Time>
            <Position>
              <LatitudeDegrees>36.81904097087681293487548828125</LatitudeDegrees>
              <LongitudeDegrees>-4.3828027881681919097900390625</LongitudeDegrees>
            </Position>
            <AltitudeMeters>818.4000244140625</AltitudeMeters>
            <DistanceMeters>NAN</DistanceMeters>
          </Trackpoint>
          <Trackpoint>
            <Time>2020-12-05T09:30:06.000Z</Time>
            <Position>
              <LatitudeDegrees>36.819038204848766326904296875</LatitudeDegrees>
              <LongitudeDegrees>-4.38279918394982814788818359375</LongitudeDegrees>
            </Position>
            <AltitudeMeters>818.4000244140625</AltitudeMeters>
            <DistanceMeters>NAN</DistanceMeters>
          </Trackpoint>
          <Trackpoint>
            <Time>2020-12-05T09:30:07.000Z</Time>
            <Position>
              <LatitudeDegrees>36.81903929449617862701416015625</LatitudeDegrees>
              <LongitudeDegrees>-4.38279599882662296295166015625</LongitudeDegrees>
            </Position>
            <AltitudeMeters>818.4000244140625</AltitudeMeters>
            <DistanceMeters>NAN</DistanceMeters>
          </Trackpoint>
          <Trackpoint>
            <Time>2020-12-05T09:30:08.000Z</Time>
            <Position>
              <LatitudeDegrees>36.81903979741036891937255859375</LatitudeDegrees>
              <LongitudeDegrees>-4.3827952444553375244140625</LongitudeDegrees>
            </Position>
            <AltitudeMeters>818.4000244140625</AltitudeMeters>
            <DistanceMeters>NAN</DistanceMeters>
          </Trackpoint>
          <Trackpoint>
            <Time>2020-12-05T09:30:09.000Z</Time>
            <Position>
              <LatitudeDegrees>36.8190412223339080810546875</LatitudeDegrees>
              <LongitudeDegrees>-4.382795579731464385986328125</LongitudeDegrees>
            </Position>
            <AltitudeMeters>818.4000244140625</AltitudeMeters>
            <DistanceMeters>NAN</DistanceMeters>
          </Trackpoint>
          <Trackpoint>
            <Time>2020-12-05T09:30:10.000Z</Time>
            <Position>
              <LatitudeDegrees>36.819043569266796112060546875</LatitudeDegrees>
              <LongitudeDegrees>-4.38279784284532070159912109375</LongitudeDegrees>
            </Position>
            <AltitudeMeters>818.4000244140625</AltitudeMeters>
            <DistanceMeters>NAN</DistanceMeters>
          </Trackpoint>
          <Trackpoint>
            <Time>2020-12-05T09:30:11.000Z</Time>
            <Position>
              <LatitudeDegrees>36.81904650293290615081787109375</LatitudeDegrees>
              <LongitudeDegrees>-4.38280069269239902496337890625</LongitudeDegrees>
            </Position>
            <AltitudeMeters>818.4000244140625</AltitudeMeters>
            <DistanceMeters>NAN</DistanceMeters>
          </Trackpoint>
          <Trackpoint>
            <Time>2020-12-05T09:30:12.000Z</Time>
            <Position>
              <LatitudeDegrees>36.8190501071512699127197265625</LatitudeDegrees>
              <LongitudeDegrees>-4.38280438072979450225830078125</LongitudeDegrees>
            </Position>
            <AltitudeMeters>818.4000244140625</AltitudeMeters>
            <DistanceMeters>NAN</DistanceMeters>
          </Trackpoint>
          <Trackpoint>
            <Time>2020-12-05T09:30:13.000Z</Time>
            <Position>
              <LatitudeDegrees>36.819050945341587066650390625</LatitudeDegrees>
              <LongitudeDegrees>-4.382806308567523956298828125</LongitudeDegrees>
            </Position>
            <AltitudeMeters>818.4000244140625</AltitudeMeters>
            <DistanceMeters>NAN</DistanceMeters>
          </Trackpoint>
          <Trackpoint>
            <Time>2020-12-05T09:30:14.000Z</Time>
            <Position>
              <LatitudeDegrees>36.81905153207480907440185546875</LatitudeDegrees>
              <LongitudeDegrees>-4.38280538655817508697509765625</LongitudeDegrees>
            </Position>
            <AltitudeMeters>818.4000244140625</AltitudeMeters>
            <DistanceMeters>NAN</DistanceMeters>
          </Trackpoint>
          <Trackpoint>
            <Time>2020-12-05T09:30:15.000Z</Time>
            <Position>
              <LatitudeDegrees>36.8190531246364116668701171875</LatitudeDegrees>
              <LongitudeDegrees>-4.3828021176159381866455078125</LongitudeDegrees>
            </Position>
            <AltitudeMeters>818.4000244140625</AltitudeMeters>
            <DistanceMeters>NAN</DistanceMeters>
          </Trackpoint>
          <Trackpoint>
            <Time>2020-12-05T09:30:16.000Z</Time>
            <Position>
              <LatitudeDegrees>36.8190519511699676513671875</LatitudeDegrees>
              <LongitudeDegrees>-4.38280018977820873260498046875</LongitudeDegrees>
            </Position>
            <AltitudeMeters>818.4000244140625</AltitudeMeters>
            <DistanceMeters>NAN</DistanceMeters>
          </Trackpoint>
          <Trackpoint>
            <Time>2020-12-05T09:30:17.000Z</Time>
            <Position>
              <LatitudeDegrees>36.8190511129796504974365234375</LatitudeDegrees>
              <LongitudeDegrees>-4.3828006088733673095703125</LongitudeDegrees>
            </Position>
            <AltitudeMeters>818.4000244140625</AltitudeMeters>
            <DistanceMeters>NAN</DistanceMeters>
          </Trackpoint>
          <Trackpoint>
            <Time>2020-12-05T09:30:18.000Z</Time>
            <Position>
              <LatitudeDegrees>36.81904952041804790496826171875</LatitudeDegrees>
              <LongitudeDegrees>-4.38280169852077960968017578125</LongitudeDegrees>
            </Position>
            <AltitudeMeters>818.4000244140625</AltitudeMeters>
            <DistanceMeters>NAN</DistanceMeters>
          </Trackpoint>
          <Trackpoint>
            <Time>2020-12-05T09:30:19.000Z</Time>
            <Position>
              <LatitudeDegrees>36.819042898714542388916015625</LatitudeDegrees>
              <LongitudeDegrees>-4.3828044645488262176513671875</LongitudeDegrees>
            </Position>
            <AltitudeMeters>818.4000244140625</AltitudeMeters>
            <DistanceMeters>NAN</DistanceMeters>
          </Trackpoint>
          <Trackpoint>
            <Time>2020-12-05T09:30:20.000Z</Time>
            <Position>
              <LatitudeDegrees>36.81903594173491001129150390625</LatitudeDegrees>
              <LongitudeDegrees>-4.3828104995191097259521484375</LongitudeDegrees>
            </Position>
            <AltitudeMeters>818.4000244140625</AltitudeMeters>
            <DistanceMeters>NAN</DistanceMeters>
          </Trackpoint>
          <Trackpoint>
            <Time>2020-12-05T09:30:21.000Z</Time>
            <Position>
              <LatitudeDegrees>36.8190299905836582183837890625</LatitudeDegrees>
              <LongitudeDegrees>-4.38281862996518611907958984375</LongitudeDegrees>
            </Position>
            <AltitudeMeters>818.4000244140625</AltitudeMeters>
            <DistanceMeters>NAN</DistanceMeters>
          </Trackpoint>
          <Trackpoint>
            <Time>2020-12-05T09:30:22.000Z</Time>
            <Position>
              <LatitudeDegrees>36.81902311742305755615234375</LatitudeDegrees>
              <LongitudeDegrees>-4.38282952643930912017822265625</LongitudeDegrees>
            </Position>
            <AltitudeMeters>818.4000244140625</AltitudeMeters>
            <DistanceMeters>NAN</DistanceMeters>
          </Trackpoint>
          <Trackpoint>
            <Time>2020-12-05T09:30:23.000Z</Time>
            <Position>
              <LatitudeDegrees>36.81901716627180576324462890625</LatitudeDegrees>
              <LongitudeDegrees>-4.38284276984632015228271484375</LongitudeDegrees>
            </Position>
            <AltitudeMeters>818.4000244140625</AltitudeMeters>
            <DistanceMeters>NAN</DistanceMeters>
          </Trackpoint>
          <Trackpoint>
            <Time>2020-12-05T09:30:24.000Z</Time>
            <Position>
              <LatitudeDegrees>36.81901431642472743988037109375</LatitudeDegrees>
              <LongitudeDegrees>-4.38285903073847293853759765625</LongitudeDegrees>
            </Position>
            <AltitudeMeters>818.4000244140625</AltitudeMeters>
            <DistanceMeters>NAN</DistanceMeters>
          </Trackpoint>
          <Trackpoint>
            <Time>2020-12-05T09:30:25.000Z</Time>
            <Position>
              <LatitudeDegrees>36.81901079602539539337158203125</LatitudeDegrees>
              <LongitudeDegrees>-4.38287311233580112457275390625</LongitudeDegrees>
            </Position>
            <AltitudeMeters>818.4000244140625</AltitudeMeters>
            <DistanceMeters>NAN</DistanceMeters>
          </Trackpoint>
          <Trackpoint>
            <Time>2020-12-05T09:30:26.000Z</Time>
            <Position>
              <LatitudeDegrees>36.81900559924542903900146484375</LatitudeDegrees>
              <LongitudeDegrees>-4.38288903795182704925537109375</LongitudeDegrees>
            </Position>
            <AltitudeMeters>818.4000244140625</AltitudeMeters>
            <DistanceMeters>NAN</DistanceMeters>
          </Trackpoint>
          <Trackpoint>
            <Time>2020-12-05T09:30:27.000Z</Time>
            <Position>
              <LatitudeDegrees>36.81899621151387691497802734375</LatitudeDegrees>
              <LongitudeDegrees>-4.382903873920440673828125</LongitudeDegrees>
            </Position>
            <AltitudeMeters>818.4000244140625</AltitudeMeters>
            <DistanceMeters>NAN</DistanceMeters>
          </Trackpoint>
          <Trackpoint>
            <Time>2020-12-05T09:30:28.000Z</Time>
            <Position>
              <LatitudeDegrees>36.81899227201938629150390625</LatitudeDegrees>
              <LongitudeDegrees>-4.3829239904880523681640625</LongitudeDegrees>
            </Position>
            <AltitudeMeters>818.4000244140625</AltitudeMeters>
            <DistanceMeters>NAN</DistanceMeters>
          </Trackpoint>
          <Trackpoint>
            <Time>2020-12-05T09:30:29.000Z</Time>
            <Position>
              <LatitudeDegrees>36.81899151764810085296630859375</LatitudeDegrees>
              <LongitudeDegrees>-4.3829368986189365386962890625</LongitudeDegrees>
            </Position>
            <AltitudeMeters>818.4000244140625</AltitudeMeters>
            <DistanceMeters>NAN</DistanceMeters>
          </Trackpoint>
          <Trackpoint>
            <Time>2020-12-05T09:30:30.000Z</Time>
            <Position>
              <LatitudeDegrees>36.8189874105155467987060546875</LatitudeDegrees>
              <LongitudeDegrees>-4.382950477302074432373046875</LongitudeDegrees>
            </Position>
            <AltitudeMeters>818.4000244140625</AltitudeMeters>
            <DistanceMeters>NAN</DistanceMeters>
          </Trackpoint>
          <Trackpoint>
            <Time>2020-12-05T09:30:31.000Z</Time>
            <Position>
              <LatitudeDegrees>36.81898078881204128265380859375</LatitudeDegrees>
              <LongitudeDegrees>-4.38296564854681491851806640625</LongitudeDegrees>
            </Position>
            <AltitudeMeters>818.4000244140625</AltitudeMeters>
            <DistanceMeters>NAN</DistanceMeters>
          </Trackpoint>
          <Trackpoint>
            <Time>2020-12-05T09:30:32.000Z</Time>
            <Position>
              <LatitudeDegrees>36.81898011825978755950927734375</LatitudeDegrees>
              <LongitudeDegrees>-4.3829774670302867889404296875</LongitudeDegrees>
            </Position>
            <AltitudeMeters>818.4000244140625</AltitudeMeters>
            <DistanceMeters>NAN</DistanceMeters>
          </Trackpoint>
          <Trackpoint>
            <Time>2020-12-05T09:30:33.000Z</Time>
            <Position>
              <LatitudeDegrees>36.81897559203207492828369140625</LatitudeDegrees>
              <LongitudeDegrees>-4.382982663810253143310546875</LongitudeDegrees>
            </Position>
            <AltitudeMeters>818.4000244140625</AltitudeMeters>
            <DistanceMeters>NAN</DistanceMeters>
          </Trackpoint>
          <Trackpoint>
            <Time>2020-12-05T09:30:34.000Z</Time>
            <Position>
              <LatitudeDegrees>36.81897483766078948974609375</LatitudeDegrees>
              <LongitudeDegrees>-4.3829878605902194976806640625</LongitudeDegrees>
            </Position>
            <AltitudeMeters>818.4000244140625</AltitudeMeters>
            <DistanceMeters>NAN</DistanceMeters>
          </Trackpoint>
          <Trackpoint>
            <Time>2020-12-05T09:30:35.000Z</Time>
            <Position>
              <LatitudeDegrees>36.81896721012890338897705078125</LatitudeDegrees>
              <LongitudeDegrees>-4.3829952366650104522705078125</LongitudeDegrees>
            </Position>
            <AltitudeMeters>818.4000244140625</AltitudeMeters>
            <DistanceMeters>NAN</DistanceMeters>
          </Trackpoint>
          <Trackpoint>
            <Time>2020-12-05T09:30:36.000Z</Time>
            <Position>
              <LatitudeDegrees>36.8189652822911739349365234375</LatitudeDegrees>
              <LongitudeDegrees>-4.383002780377864837646484375</LongitudeDegrees>
            </Position>
            <AltitudeMeters>818.5999755859375</AltitudeMeters>
            <DistanceMeters>NAN</DistanceMeters>
          </Trackpoint>
          <Trackpoint>
            <Time>2020-12-05T09:30:37.000Z</Time>
            <Position>
              <LatitudeDegrees>36.81896083988249301910400390625</LatitudeDegrees>
              <LongitudeDegrees>-4.38300940208137035369873046875</LongitudeDegrees>
            </Position>
            <AltitudeMeters>818.79998779296875</AltitudeMeters>
            <DistanceMeters>NAN</DistanceMeters>
          </Trackpoint>
          <Trackpoint>
            <Time>2020-12-05T09:30:38.000Z</Time>
            <Position>
              <LatitudeDegrees>36.81895530782639980316162109375</LatitudeDegrees>
              <LongitudeDegrees>-4.38301459886133670806884765625</LongitudeDegrees>
            </Position>
            <AltitudeMeters>819.20001220703125</AltitudeMeters>
            <DistanceMeters>NAN</DistanceMeters>
          </Trackpoint>
          <Trackpoint>
            <Time>2020-12-05T09:30:39.000Z</Time>
            <Position>
              <LatitudeDegrees>36.818948350846767425537109375</LatitudeDegrees>
              <LongitudeDegrees>-4.383022226393222808837890625</LongitudeDegrees>
            </Position>
            <AltitudeMeters>819.5999755859375</AltitudeMeters>
            <DistanceMeters>NAN</DistanceMeters>
          </Trackpoint>
          <Trackpoint>
            <Time>2020-12-05T09:30:40.000Z</Time>
            <Position>
              <LatitudeDegrees>36.8189444951713085174560546875</LatitudeDegrees>
              <LongitudeDegrees>-4.38303329050540924072265625</LongitudeDegrees>
            </Position>
            <AltitudeMeters>819.5999755859375</AltitudeMeters>
            <DistanceMeters>NAN</DistanceMeters>
          </Trackpoint>
          <Trackpoint>
            <Time>2020-12-05T09:30:41.000Z</Time>
            <Position>
              <LatitudeDegrees>36.818942986428737640380859375</LatitudeDegrees>
              <LongitudeDegrees>-4.3830448575317859649658203125</LongitudeDegrees>
            </Position>
            <AltitudeMeters>819.79998779296875</AltitudeMeters>
            <DistanceMeters>NAN</DistanceMeters>
          </Trackpoint>
          <Trackpoint>
            <Time>2020-12-05T09:30:42.000Z</Time>
            <Position>
              <LatitudeDegrees>36.8189431540668010711669921875</LatitudeDegrees>
              <LongitudeDegrees>-4.38305474817752838134765625</LongitudeDegrees>
            </Position>
            <AltitudeMeters>819.79998779296875</AltitudeMeters>
            <DistanceMeters>NAN</DistanceMeters>
          </Trackpoint>
          <Trackpoint>
            <Time>2020-12-05T09:30:43.000Z</Time>
            <Position>
              <LatitudeDegrees>36.81893787346780300140380859375</LatitudeDegrees>
              <LongitudeDegrees>-4.38306690193712711334228515625</LongitudeDegrees>
            </Position>
            <AltitudeMeters>819.79998779296875</AltitudeMeters>
            <DistanceMeters>NAN</DistanceMeters>
          </Trackpoint>
          <Trackpoint>
            <Time>2020-12-05T09:30:44.000Z</Time>
            <Position>
              <LatitudeDegrees>36.81893452070653438568115234375</LatitudeDegrees>
              <LongitudeDegrees>-4.38307821750640869140625</LongitudeDegrees>
            </Position>
            <AltitudeMeters>819.79998779296875</AltitudeMeters>
            <DistanceMeters>NAN</DistanceMeters>
          </Trackpoint>
          <Trackpoint>
            <Time>2020-12-05T09:30:45.000Z</Time>
            <Position>
              <LatitudeDegrees>36.81893217377364635467529296875</LatitudeDegrees>
              <LongitudeDegrees>-4.38309020362794399261474609375</LongitudeDegrees>
            </Position>
            <AltitudeMeters>819.79998779296875</AltitudeMeters>
            <DistanceMeters>NAN</DistanceMeters>
          </Trackpoint>
          <Trackpoint>
            <Time>2020-12-05T09:30:46.000Z</Time>
            <Position>
              <LatitudeDegrees>36.8189270608127117156982421875</LatitudeDegrees>
              <LongitudeDegrees>-4.383102357387542724609375</LongitudeDegrees>
            </Position>
            <AltitudeMeters>819.79998779296875</AltitudeMeters>
            <DistanceMeters>NAN</DistanceMeters>
          </Trackpoint>
          <Trackpoint>
            <Time>2020-12-05T09:30:47.000Z</Time>
            <Position>
              <LatitudeDegrees>36.81892446242272853851318359375</LatitudeDegrees>
              <LongitudeDegrees>-4.38311669044196605682373046875</LongitudeDegrees>
            </Position>
            <AltitudeMeters>819.79998779296875</AltitudeMeters>
            <DistanceMeters>NAN</DistanceMeters>
          </Trackpoint>
          <Trackpoint>
            <Time>2020-12-05T09:30:48.000Z</Time>
            <Position>
              <LatitudeDegrees>36.81892119348049163818359375</LatitudeDegrees>
              <LongitudeDegrees>-4.38312758691608905792236328125</LongitudeDegrees>
            </Position>
            <AltitudeMeters>819.79998779296875</AltitudeMeters>
            <DistanceMeters>NAN</DistanceMeters>
          </Trackpoint>
          <Trackpoint>
            <Time>2020-12-05T09:30:49.000Z</Time>
            <Position>
              <LatitudeDegrees>36.818921528756618499755859375</LatitudeDegrees>
              <LongitudeDegrees>-4.3831387348473072052001953125</LongitudeDegrees>
            </Position>
            <AltitudeMeters>820</AltitudeMeters>
            <DistanceMeters>NAN</DistanceMeters>
          </Trackpoint>
          <Trackpoint>
            <Time>2020-12-05T09:30:50.000Z</Time>
            <Position>
              <LatitudeDegrees>36.81892580352723598480224609375</LatitudeDegrees>
              <LongitudeDegrees>-4.3831494636833667755126953125</LongitudeDegrees>
            </Position>
            <AltitudeMeters>820</AltitudeMeters>
            <DistanceMeters>NAN</DistanceMeters>
          </Trackpoint>
          <Trackpoint>
            <Time>2020-12-05T09:30:51.000Z</Time>
            <Position>
              <LatitudeDegrees>36.8189314194023609161376953125</LatitudeDegrees>
              <LongitudeDegrees>-4.3831601925194263458251953125</LongitudeDegrees>
            </Position>
            <AltitudeMeters>819.79998779296875</AltitudeMeters>
            <DistanceMeters>NAN</DistanceMeters>
          </Trackpoint>
          <Trackpoint>
            <Time>2020-12-05T09:30:52.000Z</Time>
            <Position>
              <LatitudeDegrees>36.8189337663352489471435546875</LatitudeDegrees>
              <LongitudeDegrees>-4.38317486084997653961181640625</LongitudeDegrees>
            </Position>
            <AltitudeMeters>819.79998779296875</AltitudeMeters>
            <DistanceMeters>NAN</DistanceMeters>
          </Trackpoint>
          <Trackpoint>
            <Time>2020-12-05T09:30:53.000Z</Time>
            <Position>
              <LatitudeDegrees>36.8189324252307415008544921875</LatitudeDegrees>
              <LongitudeDegrees>-4.383193887770175933837890625</LongitudeDegrees>
            </Position>
            <AltitudeMeters>819.5999755859375</AltitudeMeters>
            <DistanceMeters>NAN</DistanceMeters>
          </Trackpoint>
          <Trackpoint>
            <Time>2020-12-05T09:30:54.000Z</Time>
            <Position>
              <LatitudeDegrees>36.818928234279155731201171875</LatitudeDegrees>
              <LongitudeDegrees>-4.383209981024265289306640625</LongitudeDegrees>
            </Position>
            <AltitudeMeters>819.4000244140625</AltitudeMeters>
            <DistanceMeters>NAN</DistanceMeters>
          </Trackpoint>
          <Trackpoint>
            <Time>2020-12-05T09:30:55.000Z</Time>
            <Position>
              <LatitudeDegrees>36.81892513297498226165771484375</LatitudeDegrees>
              <LongitudeDegrees>-4.38322531990706920623779296875</LongitudeDegrees>
            </Position>
            <AltitudeMeters>819.20001220703125</AltitudeMeters>
            <DistanceMeters>NAN</DistanceMeters>
          </Trackpoint>
          <Trackpoint>
            <Time>2020-12-05T09:30:56.000Z</Time>
            <Position>
              <LatitudeDegrees>36.81892144493758678436279296875</LatitudeDegrees>
              <LongitudeDegrees>-4.38323722220957279205322265625</LongitudeDegrees>
            </Position>
            <AltitudeMeters>819</AltitudeMeters>
            <DistanceMeters>NAN</DistanceMeters>
          </Trackpoint>
          <Trackpoint>
            <Time>2020-12-05T09:30:57.000Z</Time>
            <Position>
              <LatitudeDegrees>36.81891792453825473785400390625</LatitudeDegrees>
              <LongitudeDegrees>-4.38324459828436374664306640625</LongitudeDegrees>
            </Position>
            <AltitudeMeters>818.79998779296875</AltitudeMeters>
            <DistanceMeters>NAN</DistanceMeters>
          </Trackpoint>
          <Trackpoint>
            <Time>2020-12-05T09:30:58.000Z</Time>
            <Position>
              <LatitudeDegrees>36.81891121901571750640869140625</LatitudeDegrees>
              <LongitudeDegrees>-4.38325189054012298583984375</LongitudeDegrees>
            </Position>
            <AltitudeMeters>818.79998779296875</AltitudeMeters>
            <DistanceMeters>NAN</DistanceMeters>
          </Trackpoint>
          <Trackpoint>
            <Time>2020-12-05T09:30:59.000Z</Time>
            <Position>
              <LatitudeDegrees>36.81890753097832202911376953125</LatitudeDegrees>
              <LongitudeDegrees>-4.38325918279588222503662109375</LongitudeDegrees>
            </Position>
            <AltitudeMeters>818.5999755859375</AltitudeMeters>
            <DistanceMeters>NAN</DistanceMeters>
          </Trackpoint>
          <Trackpoint>
            <Time>2020-12-05T09:31:00.000Z</Time>
            <Position>
              <LatitudeDegrees>36.8189086206257343292236328125</LatitudeDegrees>
              <LongitudeDegrees>-4.3832681514322757720947265625</LongitudeDegrees>
            </Position>
            <AltitudeMeters>818.5999755859375</AltitudeMeters>
            <DistanceMeters>NAN</DistanceMeters>
          </Trackpoint>
          <Trackpoint>
            <Time>2020-12-05T09:31:01.000Z</Time>
            <Position>
              <LatitudeDegrees>36.81890510022640228271484375</LatitudeDegrees>
              <LongitudeDegrees>-4.3832807242870330810546875</LongitudeDegrees>
            </Position>
            <AltitudeMeters>818.4000244140625</AltitudeMeters>
            <DistanceMeters>NAN</DistanceMeters>
          </Trackpoint>
          <Trackpoint>
            <Time>2020-12-05T09:31:02.000Z</Time>
            <Position>
              <LatitudeDegrees>36.81890082545578479766845703125</LatitudeDegrees>
              <LongitudeDegrees>-4.38328919000923633575439453125</LongitudeDegrees>
            </Position>
            <AltitudeMeters>818.4000244140625</AltitudeMeters>
            <DistanceMeters>NAN</DistanceMeters>
          </Trackpoint>
          <Trackpoint>
            <Time>2020-12-05T09:31:03.000Z</Time>
            <Position>
              <LatitudeDegrees>36.8188978917896747589111328125</LatitudeDegrees>
              <LongitudeDegrees>-4.38328650780022144317626953125</LongitudeDegrees>
            </Position>
            <AltitudeMeters>818.20001220703125</AltitudeMeters>
            <DistanceMeters>NAN</DistanceMeters>
          </Trackpoint>
          <Trackpoint>
            <Time>2020-12-05T09:31:04.000Z</Time>
            <Position>
              <LatitudeDegrees>36.8188925273716449737548828125</LatitudeDegrees>
              <LongitudeDegrees>-4.3832825683057308197021484375</LongitudeDegrees>
            </Position>
            <AltitudeMeters>818.20001220703125</AltitudeMeters>
            <DistanceMeters>NAN</DistanceMeters>
          </Trackpoint>
          <Trackpoint>
            <Time>2020-12-05T09:31:05.000Z</Time>
            <Position>
              <LatitudeDegrees>36.818885989487171173095703125</LatitudeDegrees>
              <LongitudeDegrees>-4.38328064046800136566162109375</LongitudeDegrees>
            </Position>
            <AltitudeMeters>818.20001220703125</AltitudeMeters>
            <DistanceMeters>NAN</DistanceMeters>
          </Trackpoint>
          <Trackpoint>
            <Time>2020-12-05T09:31:06.000Z</Time>
            <Position>
              <LatitudeDegrees>36.81887467391788959503173828125</LatitudeDegrees>
              <LongitudeDegrees>-4.38329078257083892822265625</LongitudeDegrees>
            </Position>
            <AltitudeMeters>818.20001220703125</AltitudeMeters>
            <DistanceMeters>NAN</DistanceMeters>
          </Trackpoint>
          <Trackpoint>
            <Time>2020-12-05T09:31:07.000Z</Time>
            <Position>
              <LatitudeDegrees>36.8188633583486080169677734375</LatitudeDegrees>
              <LongitudeDegrees>-4.3833010084927082061767578125</LongitudeDegrees>
            </Position>
            <AltitudeMeters>818.20001220703125</AltitudeMeters>
            <DistanceMeters>NAN</DistanceMeters>
          </Trackpoint>
          <Trackpoint>
            <Time>2020-12-05T09:31:08.000Z</Time>
            <Position>
              <LatitudeDegrees>36.81885371915996074676513671875</LatitudeDegrees>
              <LongitudeDegrees>-4.38331366516649723052978515625</LongitudeDegrees>
            </Position>
            <AltitudeMeters>818.20001220703125</AltitudeMeters>
            <DistanceMeters>NAN</DistanceMeters>
          </Trackpoint>
          <Trackpoint>
            <Time>2020-12-05T09:31:09.000Z</Time>
            <Position>
              <LatitudeDegrees>36.8188472650945186614990234375</LatitudeDegrees>
              <LongitudeDegrees>-4.38332657329738140106201171875</LongitudeDegrees>
            </Position>
            <AltitudeMeters>818.20001220703125</AltitudeMeters>
            <DistanceMeters>NAN</DistanceMeters>
          </Trackpoint>
          <Trackpoint>
            <Time>2020-12-05T09:31:10.000Z</Time>
            <Position>
              <LatitudeDegrees>36.81883829645812511444091796875</LatitudeDegrees>
              <LongitudeDegrees>-4.383340738713741302490234375</LongitudeDegrees>
            </Position>
            <AltitudeMeters>818.4000244140625</AltitudeMeters>
            <DistanceMeters>NAN</DistanceMeters>
          </Trackpoint>
          <Trackpoint>
            <Time>2020-12-05T09:31:11.000Z</Time>
            <Position>
              <LatitudeDegrees>36.81883092038333415985107421875</LatitudeDegrees>
              <LongitudeDegrees>-4.38335490413010120391845703125</LongitudeDegrees>
            </Position>
            <AltitudeMeters>818.4000244140625</AltitudeMeters>
            <DistanceMeters>NAN</DistanceMeters>
          </Trackpoint>
          <Trackpoint>
            <Time>2020-12-05T09:31:12.000Z</Time>
            <Position>
              <LatitudeDegrees>36.81882237084209918975830078125</LatitudeDegrees>
              <LongitudeDegrees>-4.38336764462292194366455078125</LongitudeDegrees>
            </Position>
            <AltitudeMeters>818.4000244140625</AltitudeMeters>
            <DistanceMeters>NAN</DistanceMeters>
          </Trackpoint>
          <Trackpoint>
            <Time>2020-12-05T09:31:13.000Z</Time>
            <Position>
              <LatitudeDegrees>36.81881449185311794281005859375</LatitudeDegrees>
              <LongitudeDegrees>-4.3833818100392818450927734375</LongitudeDegrees>
            </Position>
            <AltitudeMeters>818.4000244140625</AltitudeMeters>
            <DistanceMeters>NAN</DistanceMeters>
          </Trackpoint>
          <Trackpoint>
            <Time>2020-12-05T09:31:14.000Z</Time>
            <Position>
              <LatitudeDegrees>36.8188113905489444732666015625</LatitudeDegrees>
              <LongitudeDegrees>-4.38339312560856342315673828125</LongitudeDegrees>
            </Position>
            <AltitudeMeters>818.4000244140625</AltitudeMeters>
            <DistanceMeters>NAN</DistanceMeters>
          </Trackpoint>
          <Trackpoint>
            <Time>2020-12-05T09:31:15.000Z</Time>
            <Position>
              <LatitudeDegrees>36.8188077025115489959716796875</LatitudeDegrees>
              <LongitudeDegrees>-4.38340385444462299346923828125</LongitudeDegrees>
            </Position>
            <AltitudeMeters>818.4000244140625</AltitudeMeters>
            <DistanceMeters>NAN</DistanceMeters>
          </Trackpoint>
          <Trackpoint>
            <Time>2020-12-05T09:31:16.000Z</Time>
            <Position>
              <LatitudeDegrees>36.81880879215896129608154296875</LatitudeDegrees>
              <LongitudeDegrees>-4.38341818749904632568359375</LongitudeDegrees>
            </Position>
            <AltitudeMeters>818.4000244140625</AltitudeMeters>
            <DistanceMeters>NAN</DistanceMeters>
          </Trackpoint>
          <Trackpoint>
            <Time>2020-12-05T09:31:17.000Z</Time>
            <Position>
              <LatitudeDegrees>36.818809211254119873046875</LatitudeDegrees>
              <LongitudeDegrees>-4.38343687914311885833740234375</LongitudeDegrees>
            </Position>
            <AltitudeMeters>818.20001220703125</AltitudeMeters>
            <DistanceMeters>NAN</DistanceMeters>
          </Trackpoint>
          <Trackpoint>
            <Time>2020-12-05T09:31:18.000Z</Time>
            <Position>
              <LatitudeDegrees>36.81880342774093151092529296875</LatitudeDegrees>
              <LongitudeDegrees>-4.3834575824439525604248046875</LongitudeDegrees>
            </Position>
            <AltitudeMeters>818.20001220703125</AltitudeMeters>
            <DistanceMeters>NAN</DistanceMeters>
          </Trackpoint>
          <Trackpoint>
            <Time>2020-12-05T09:31:19.000Z</Time>
            <Position>
              <LatitudeDegrees>36.8187971413135528564453125</LatitudeDegrees>
              <LongitudeDegrees>-4.38347526825964450836181640625</LongitudeDegrees>
            </Position>
            <AltitudeMeters>818</AltitudeMeters>
            <DistanceMeters>NAN</DistanceMeters>
          </Trackpoint>
          <Trackpoint>
            <Time>2020-12-05T09:31:20.000Z</Time>
            <Position>
              <LatitudeDegrees>36.81879085488617420196533203125</LatitudeDegrees>
              <LongitudeDegrees>-4.3834874220192432403564453125</LongitudeDegrees>
            </Position>
            <AltitudeMeters>818</AltitudeMeters>
            <DistanceMeters>NAN</DistanceMeters>
          </Trackpoint>
          <Trackpoint>
            <Time>2020-12-05T09:31:21.000Z</Time>
            <Position>
              <LatitudeDegrees>36.81878440082073211669921875</LatitudeDegrees>
              <LongitudeDegrees>-4.38349865376949310302734375</LongitudeDegrees>
            </Position>
            <AltitudeMeters>818.20001220703125</AltitudeMeters>
            <DistanceMeters>NAN</DistanceMeters>
          </Trackpoint>
          <Trackpoint>
            <Time>2020-12-05T09:31:22.000Z</Time>
            <Position>
              <LatitudeDegrees>36.81877878494560718536376953125</LatitudeDegrees>
              <LongitudeDegrees>-4.38350938260555267333984375</LongitudeDegrees>
            </Position>
            <AltitudeMeters>818.20001220703125</AltitudeMeters>
            <DistanceMeters>NAN</DistanceMeters>
          </Trackpoint>
          <Trackpoint>
            <Time>2020-12-05T09:31:23.000Z</Time>
            <Position>
              <LatitudeDegrees>36.81877325288951396942138671875</LatitudeDegrees>
              <LongitudeDegrees>-4.3835189379751682281494140625</LongitudeDegrees>
            </Position>
            <AltitudeMeters>818.20001220703125</AltitudeMeters>
            <DistanceMeters>NAN</DistanceMeters>
          </Trackpoint>
          <Trackpoint>
            <Time>2020-12-05T09:31:24.000Z</Time>
            <Position>
              <LatitudeDegrees>36.81877107359468936920166015625</LatitudeDegrees>
              <LongitudeDegrees>-4.38353444449603557586669921875</LongitudeDegrees>
            </Position>
            <AltitudeMeters>818.20001220703125</AltitudeMeters>
            <DistanceMeters>NAN</DistanceMeters>
          </Trackpoint>
          <Trackpoint>
            <Time>2020-12-05T09:31:25.000Z</Time>
            <Position>
              <LatitudeDegrees>36.8187694810330867767333984375</LatitudeDegrees>
              <LongitudeDegrees>-4.38354802317917346954345703125</LongitudeDegrees>
            </Position>
            <AltitudeMeters>818.20001220703125</AltitudeMeters>
            <DistanceMeters>NAN</DistanceMeters>
          </Trackpoint>
          <Trackpoint>
            <Time>2020-12-05T09:31:26.000Z</Time>
            <Position>
              <LatitudeDegrees>36.818767972290515899658203125</LatitudeDegrees>
              <LongitudeDegrees>-4.3835625238716602325439453125</LongitudeDegrees>
            </Position>
            <AltitudeMeters>818</AltitudeMeters>
            <DistanceMeters>NAN</DistanceMeters>
          </Trackpoint>
          <Trackpoint>
            <Time>2020-12-05T09:31:27.000Z</Time>
            <Position>
              <LatitudeDegrees>36.81876369751989841461181640625</LatitudeDegrees>
              <LongitudeDegrees>-4.3835749290883541107177734375</LongitudeDegrees>
            </Position>
            <AltitudeMeters>817.79998779296875</AltitudeMeters>
            <DistanceMeters>NAN</DistanceMeters>
          </Trackpoint>
          <Trackpoint>
            <Time>2020-12-05T09:31:28.000Z</Time>
            <Position>
              <LatitudeDegrees>36.81875900365412235260009765625</LatitudeDegrees>
              <LongitudeDegrees>-4.38358322717249393463134765625</LongitudeDegrees>
            </Position>
            <AltitudeMeters>817.79998779296875</AltitudeMeters>
            <DistanceMeters>NAN</DistanceMeters>
          </Trackpoint>
          <Trackpoint>
            <Time>2020-12-05T09:31:29.000Z</Time>
            <Position>
              <LatitudeDegrees>36.8187527172267436981201171875</LatitudeDegrees>
              <LongitudeDegrees>-4.38359261490404605865478515625</LongitudeDegrees>
            </Position>
            <AltitudeMeters>817.5999755859375</AltitudeMeters>
            <DistanceMeters>NAN</DistanceMeters>
          </Trackpoint>
          <Trackpoint>
            <Time>2020-12-05T09:31:30.000Z</Time>
            <Position>
              <LatitudeDegrees>36.81874819099903106689453125</LatitudeDegrees>
              <LongitudeDegrees>-4.3835994042456150054931640625</LongitudeDegrees>
            </Position>
            <AltitudeMeters>817.4000244140625</AltitudeMeters>
            <DistanceMeters>NAN</DistanceMeters>
          </Trackpoint>
          <Trackpoint>
            <Time>2020-12-05T09:31:31.000Z</Time>
            <Position>
              <LatitudeDegrees>36.818742491304874420166015625</LatitudeDegrees>
              <LongitudeDegrees>-4.38361105509102344512939453125</LongitudeDegrees>
            </Position>
            <AltitudeMeters>817.4000244140625</AltitudeMeters>
            <DistanceMeters>NAN</DistanceMeters>
          </Trackpoint>
          <Trackpoint>
            <Time>2020-12-05T09:31:32.000Z</Time>
            <Position>
              <LatitudeDegrees>36.81873620487749576568603515625</LatitudeDegrees>
              <LongitudeDegrees>-4.38362111337482929229736328125</LongitudeDegrees>
            </Position>
            <AltitudeMeters>817.4000244140625</AltitudeMeters>
            <DistanceMeters>NAN</DistanceMeters>
          </Trackpoint>
          <Trackpoint>
            <Time>2020-12-05T09:31:33.000Z</Time>
            <Position>
              <LatitudeDegrees>36.81873218156397342681884765625</LatitudeDegrees>
              <LongitudeDegrees>-4.3836347758769989013671875</LongitudeDegrees>
            </Position>
            <AltitudeMeters>817.20001220703125</AltitudeMeters>
            <DistanceMeters>NAN</DistanceMeters>
          </Trackpoint>
          <Trackpoint>
            <Time>2020-12-05T09:31:34.000Z</Time>
            <Position>
              <LatitudeDegrees>36.81872815825045108795166015625</LatitudeDegrees>
              <LongitudeDegrees>-4.38364977948367595672607421875</LongitudeDegrees>
            </Position>
            <AltitudeMeters>817</AltitudeMeters>
            <DistanceMeters>NAN</DistanceMeters>
          </Trackpoint>
          <Trackpoint>
            <Time>2020-12-05T09:31:35.000Z</Time>
            <Position>
              <LatitudeDegrees>36.81872346438467502593994140625</LatitudeDegrees>
              <LongitudeDegrees>-4.383663944900035858154296875</LongitudeDegrees>
            </Position>
            <AltitudeMeters>817</AltitudeMeters>
            <DistanceMeters>NAN</DistanceMeters>
          </Trackpoint>
          <Trackpoint>
            <Time>2020-12-05T09:31:36.000Z</Time>
            <Position>
              <LatitudeDegrees>36.81871709413826465606689453125</LatitudeDegrees>
              <LongitudeDegrees>-4.38368163071572780609130859375</LongitudeDegrees>
            </Position>
            <AltitudeMeters>816.79998779296875</AltitudeMeters>
            <DistanceMeters>NAN</DistanceMeters>
          </Trackpoint>
          <Trackpoint>
            <Time>2020-12-05T09:31:37.000Z</Time>
            <Position>
              <LatitudeDegrees>36.81871357373893260955810546875</LatitudeDegrees>
              <LongitudeDegrees>-4.3836973048746585845947265625</LongitudeDegrees>
            </Position>
            <AltitudeMeters>816.79998779296875</AltitudeMeters>
            <DistanceMeters>NAN</DistanceMeters>
          </Trackpoint>
          <Trackpoint>
            <Time>2020-12-05T09:31:38.000Z</Time>
            <Position>
              <LatitudeDegrees>36.81871240027248859405517578125</LatitudeDegrees>
              <LongitudeDegrees>-4.3837150745093822479248046875</LongitudeDegrees>
            </Position>
            <AltitudeMeters>816.79998779296875</AltitudeMeters>
            <DistanceMeters>NAN</DistanceMeters>
          </Trackpoint>
          <Trackpoint>
            <Time>2020-12-05T09:31:39.000Z</Time>
            <Position>
              <LatitudeDegrees>36.81871064007282257080078125</LatitudeDegrees>
              <LongitudeDegrees>-4.38373024575412273406982421875</LongitudeDegrees>
            </Position>
            <AltitudeMeters>816.79998779296875</AltitudeMeters>
            <DistanceMeters>NAN</DistanceMeters>
          </Trackpoint>
          <Trackpoint>
            <Time>2020-12-05T09:31:40.000Z</Time>
            <Position>
              <LatitudeDegrees>36.818707287311553955078125</LatitudeDegrees>
              <LongitudeDegrees>-4.383743070065975189208984375</LongitudeDegrees>
            </Position>
            <AltitudeMeters>816.79998779296875</AltitudeMeters>
            <DistanceMeters>NAN</DistanceMeters>
          </Trackpoint>
          <Trackpoint>
            <Time>2020-12-05T09:31:41.000Z</Time>
            <Position>
              <LatitudeDegrees>36.81870603002607822418212890625</LatitudeDegrees>
              <LongitudeDegrees>-4.383753128349781036376953125</LongitudeDegrees>
            </Position>
            <AltitudeMeters>816.5999755859375</AltitudeMeters>
            <DistanceMeters>NAN</DistanceMeters>
          </Trackpoint>
          <Trackpoint>
            <Time>2020-12-05T09:31:42.000Z</Time>
            <Position>
              <LatitudeDegrees>36.818708293139934539794921875</LatitudeDegrees>
              <LongitudeDegrees>-4.38376377336680889129638671875</LongitudeDegrees>
            </Position>
            <AltitudeMeters>816.5999755859375</AltitudeMeters>
            <DistanceMeters>NAN</DistanceMeters>
          </Trackpoint>
          <Trackpoint>
            <Time>2020-12-05T09:31:43.000Z</Time>
            <Position>
              <LatitudeDegrees>36.8187071196734905242919921875</LatitudeDegrees>
              <LongitudeDegrees>-4.3837754242122173309326171875</LongitudeDegrees>
            </Position>
            <AltitudeMeters>816.4000244140625</AltitudeMeters>
            <DistanceMeters>NAN</DistanceMeters>
          </Trackpoint>
          <Trackpoint>
            <Time>2020-12-05T09:31:44.000Z</Time>
            <Position>
              <LatitudeDegrees>36.81870368309319019317626953125</LatitudeDegrees>
              <LongitudeDegrees>-4.3837888352572917938232421875</LongitudeDegrees>
            </Position>
            <AltitudeMeters>816.20001220703125</AltitudeMeters>
            <DistanceMeters>NAN</DistanceMeters>
          </Trackpoint>
          <Trackpoint>
            <Time>2020-12-05T09:31:45.000Z</Time>
            <Position>
              <LatitudeDegrees>36.81870435364544391632080078125</LatitudeDegrees>
              <LongitudeDegrees>-4.38379897736012935638427734375</LongitudeDegrees>
            </Position>
            <AltitudeMeters>816</AltitudeMeters>
            <DistanceMeters>NAN</DistanceMeters>
          </Trackpoint>
          <Trackpoint>
            <Time>2020-12-05T09:31:46.000Z</Time>
            <Position>
              <LatitudeDegrees>36.81870720349252223968505859375</LatitudeDegrees>
              <LongitudeDegrees>-4.38380308449268341064453125</LongitudeDegrees>
            </Position>
            <AltitudeMeters>816</AltitudeMeters>
            <DistanceMeters>NAN</DistanceMeters>
          </Trackpoint>
          <Trackpoint>
            <Time>2020-12-05T09:31:47.000Z</Time>
            <Position>
              <LatitudeDegrees>36.81870250962674617767333984375</LatitudeDegrees>
              <LongitudeDegrees>-4.383809454739093780517578125</LongitudeDegrees>
            </Position>
            <AltitudeMeters>815.79998779296875</AltitudeMeters>
            <DistanceMeters>NAN</DistanceMeters>
          </Trackpoint>
          <Trackpoint>
            <Time>2020-12-05T09:31:48.000Z</Time>
            <Position>
              <LatitudeDegrees>36.81869991123676300048828125</LatitudeDegrees>
              <LongitudeDegrees>-4.38381875865161418914794921875</LongitudeDegrees>
            </Position>
            <AltitudeMeters>815.5999755859375</AltitudeMeters>
            <DistanceMeters>NAN</DistanceMeters>
          </Trackpoint>
          <Trackpoint>
            <Time>2020-12-05T09:31:49.000Z</Time>
            <Position>
              <LatitudeDegrees>36.8187027610838413238525390625</LatitudeDegrees>
              <LongitudeDegrees>-4.38383258879184722900390625</LongitudeDegrees>
            </Position>
            <AltitudeMeters>815.5999755859375</AltitudeMeters>
            <DistanceMeters>NAN</DistanceMeters>
          </Trackpoint>
          <Trackpoint>
            <Time>2020-12-05T09:31:50.000Z</Time>
            <Position>
              <LatitudeDegrees>36.81870770640671253204345703125</LatitudeDegrees>
              <LongitudeDegrees>-4.3838444910943508148193359375</LongitudeDegrees>
            </Position>
            <AltitudeMeters>815.4000244140625</AltitudeMeters>
            <DistanceMeters>NAN</DistanceMeters>
          </Trackpoint>
          <Trackpoint>
            <Time>2020-12-05T09:31:51.000Z</Time>
            <Position>
              <LatitudeDegrees>36.8187094666063785552978515625</LatitudeDegrees>
              <LongitudeDegrees>-4.38385781832039356231689453125</LongitudeDegrees>
            </Position>
            <AltitudeMeters>815.5999755859375</AltitudeMeters>
            <DistanceMeters>NAN</DistanceMeters>
          </Trackpoint>
          <Trackpoint>
            <Time>2020-12-05T09:31:52.000Z</Time>
            <Position>
              <LatitudeDegrees>36.8187086284160614013671875</LatitudeDegrees>
              <LongitudeDegrees>-4.38387156464159488677978515625</LongitudeDegrees>
            </Position>
            <AltitudeMeters>815.5999755859375</AltitudeMeters>
            <DistanceMeters>NAN</DistanceMeters>
          </Trackpoint>
          <Trackpoint>
            <Time>2020-12-05T09:31:53.000Z</Time>
            <Position>
              <LatitudeDegrees>36.8187084607779979705810546875</LatitudeDegrees>
              <LongitudeDegrees>-4.38388732261955738067626953125</LongitudeDegrees>
            </Position>
            <AltitudeMeters>815.5999755859375</AltitudeMeters>
            <DistanceMeters>NAN</DistanceMeters>
          </Trackpoint>
          <Trackpoint>
            <Time>2020-12-05T09:31:54.000Z</Time>
            <Position>
              <LatitudeDegrees>36.8187087960541248321533203125</LatitudeDegrees>
              <LongitudeDegrees>-4.38390291295945644378662109375</LongitudeDegrees>
            </Position>
            <AltitudeMeters>815.5999755859375</AltitudeMeters>
            <DistanceMeters>NAN</DistanceMeters>
          </Trackpoint>
          <Trackpoint>
            <Time>2020-12-05T09:31:55.000Z</Time>
            <Position>
              <LatitudeDegrees>36.81870871223509311676025390625</LatitudeDegrees>
              <LongitudeDegrees>-4.38391976058483123779296875</LongitudeDegrees>
            </Position>
            <AltitudeMeters>815.79998779296875</AltitudeMeters>
            <DistanceMeters>NAN</DistanceMeters>
          </Trackpoint>
          <Trackpoint>
            <Time>2020-12-05T09:31:56.000Z</Time>
            <Position>
              <LatitudeDegrees>36.818707287311553955078125</LatitudeDegrees>
              <LongitudeDegrees>-4.3839360214769840240478515625</LongitudeDegrees>
            </Position>
            <AltitudeMeters>815.79998779296875</AltitudeMeters>
            <DistanceMeters>NAN</DistanceMeters>
          </Trackpoint>
          <Trackpoint>
            <Time>2020-12-05T09:31:57.000Z</Time>
            <Position>
              <LatitudeDegrees>36.81870770640671253204345703125</LatitudeDegrees>
              <LongitudeDegrees>-4.38394733704626560211181640625</LongitudeDegrees>
            </Position>
            <AltitudeMeters>815.79998779296875</AltitudeMeters>
            <DistanceMeters>NAN</DistanceMeters>
          </Trackpoint>
          <Trackpoint>
            <Time>2020-12-05T09:31:58.000Z</Time>
            <Position>
              <LatitudeDegrees>36.818707622587680816650390625</LatitudeDegrees>
              <LongitudeDegrees>-4.38395203091204166412353515625</LongitudeDegrees>
            </Position>
            <AltitudeMeters>815.5999755859375</AltitudeMeters>
            <DistanceMeters>NAN</DistanceMeters>
          </Trackpoint>
          <Trackpoint>
            <Time>2020-12-05T09:31:59.000Z</Time>
            <Position>
              <LatitudeDegrees>36.81870971806347370147705078125</LatitudeDegrees>
              <LongitudeDegrees>-4.3839539587497711181640625</LongitudeDegrees>
            </Position>
            <AltitudeMeters>815.5999755859375</AltitudeMeters>
            <DistanceMeters>NAN</DistanceMeters>
          </Trackpoint>
          <Trackpoint>
            <Time>2020-12-05T09:32:00.000Z</Time>
            <Position>
              <LatitudeDegrees>36.818709634244441986083984375</LatitudeDegrees>
              <LongitudeDegrees>-4.38395462930202484130859375</LongitudeDegrees>
            </Position>
            <AltitudeMeters>815.5999755859375</AltitudeMeters>
            <DistanceMeters>NAN</DistanceMeters>
          </Trackpoint>
          <Trackpoint>
            <Time>2020-12-05T09:32:01.000Z</Time>
            <Position>
              <LatitudeDegrees>36.81871105916798114776611328125</LatitudeDegrees>
              <LongitudeDegrees>-4.3839608319103717803955078125</LongitudeDegrees>
            </Position>
            <AltitudeMeters>815.4000244140625</AltitudeMeters>
            <DistanceMeters>NAN</DistanceMeters>
          </Trackpoint>
          <Trackpoint>
            <Time>2020-12-05T09:32:02.000Z</Time>
            <Position>
              <LatitudeDegrees>36.81871508248150348663330078125</LatitudeDegrees>
              <LongitudeDegrees>-4.3839698843657970428466796875</LongitudeDegrees>
            </Position>
            <AltitudeMeters>815.4000244140625</AltitudeMeters>
            <DistanceMeters>NAN</DistanceMeters>
          </Trackpoint>
          <Trackpoint>
            <Time>2020-12-05T09:32:03.000Z</Time>
            <Position>
              <LatitudeDegrees>36.818723715841770172119140625</LatitudeDegrees>
              <LongitudeDegrees>-4.3839843012392520904541015625</LongitudeDegrees>
            </Position>
            <AltitudeMeters>815.20001220703125</AltitudeMeters>
            <DistanceMeters>NAN</DistanceMeters>
          </Trackpoint>
          <Trackpoint>
            <Time>2020-12-05T09:32:04.000Z</Time>
            <Position>
              <LatitudeDegrees>36.81872882880270481109619140625</LatitudeDegrees>
              <LongitudeDegrees>-4.38399729318916797637939453125</LongitudeDegrees>
            </Position>
            <AltitudeMeters>815.20001220703125</AltitudeMeters>
            <DistanceMeters>NAN</DistanceMeters>
          </Trackpoint>
          <Trackpoint>
            <Time>2020-12-05T09:32:05.000Z</Time>
            <Position>
              <LatitudeDegrees>36.81873452849686145782470703125</LatitudeDegrees>
              <LongitudeDegrees>-4.38401590101420879364013671875</LongitudeDegrees>
            </Position>
            <AltitudeMeters>815</AltitudeMeters>
            <DistanceMeters>NAN</DistanceMeters>
          </Trackpoint>
          <Trackpoint>
            <Time>2020-12-05T09:32:06.000Z</Time>
            <Position>
              <LatitudeDegrees>36.818741150200366973876953125</LatitudeDegrees>
              <LongitudeDegrees>-4.38403132371604442596435546875</LongitudeDegrees>
            </Position>
            <AltitudeMeters>815</AltitudeMeters>
            <DistanceMeters>NAN</DistanceMeters>
          </Trackpoint>
          <Trackpoint>
            <Time>2020-12-05T09:32:07.000Z</Time>
            <Position>
              <LatitudeDegrees>36.81874626316130161285400390625</LatitudeDegrees>
              <LongitudeDegrees>-4.3840439803898334503173828125</LongitudeDegrees>
            </Position>
            <AltitudeMeters>814.79998779296875</AltitudeMeters>
            <DistanceMeters>NAN</DistanceMeters>
          </Trackpoint>
          <Trackpoint>
            <Time>2020-12-05T09:32:08.000Z</Time>
            <Position>
              <LatitudeDegrees>36.8187515437602996826171875</LatitudeDegrees>
              <LongitudeDegrees>-4.38406082801520824432373046875</LongitudeDegrees>
            </Position>
            <AltitudeMeters>814.79998779296875</AltitudeMeters>
            <DistanceMeters>NAN</DistanceMeters>
          </Trackpoint>
          <Trackpoint>
            <Time>2020-12-05T09:32:09.000Z</Time>
            <Position>
              <LatitudeDegrees>36.81875548325479030609130859375</LatitudeDegrees>
              <LongitudeDegrees>-4.38407591544091701507568359375</LongitudeDegrees>
            </Position>
            <AltitudeMeters>814.79998779296875</AltitudeMeters>
            <DistanceMeters>NAN</DistanceMeters>
          </Trackpoint>
          <Trackpoint>
            <Time>2020-12-05T09:32:10.000Z</Time>
            <Position>
              <LatitudeDegrees>36.8187624402344226837158203125</LatitudeDegrees>
              <LongitudeDegrees>-4.38408915884792804718017578125</LongitudeDegrees>
            </Position>
            <AltitudeMeters>815</AltitudeMeters>
            <DistanceMeters>NAN</DistanceMeters>
          </Trackpoint>
          <Trackpoint>
            <Time>2020-12-05T09:32:11.000Z</Time>
            <Position>
              <LatitudeDegrees>36.8187698163092136383056640625</LatitudeDegrees>
              <LongitudeDegrees>-4.38410374335944652557373046875</LongitudeDegrees>
            </Position>
            <AltitudeMeters>815.20001220703125</AltitudeMeters>
            <DistanceMeters>NAN</DistanceMeters>
          </Trackpoint>
          <Trackpoint>
            <Time>2020-12-05T09:32:12.000Z</Time>
            <Position>
              <LatitudeDegrees>36.8187778629362583160400390625</LatitudeDegrees>
              <LongitudeDegrees>-4.38412000425159931182861328125</LongitudeDegrees>
            </Position>
            <AltitudeMeters>815.20001220703125</AltitudeMeters>
            <DistanceMeters>NAN</DistanceMeters>
          </Trackpoint>
          <Trackpoint>
            <Time>2020-12-05T09:32:13.000Z</Time>
            <Position>
              <LatitudeDegrees>36.81878766976296901702880859375</LatitudeDegrees>
              <LongitudeDegrees>-4.38413257710635662078857421875</LongitudeDegrees>
            </Position>
            <AltitudeMeters>815.4000244140625</AltitudeMeters>
            <DistanceMeters>NAN</DistanceMeters>
          </Trackpoint>
          <Trackpoint>
            <Time>2020-12-05T09:32:14.000Z</Time>
            <Position>
              <LatitudeDegrees>36.81879387237131595611572265625</LatitudeDegrees>
              <LongitudeDegrees>-4.38414431177079677581787109375</LongitudeDegrees>
            </Position>
            <AltitudeMeters>815.5999755859375</AltitudeMeters>
            <DistanceMeters>NAN</DistanceMeters>
          </Trackpoint>
          <Trackpoint>
            <Time>2020-12-05T09:32:15.000Z</Time>
            <Position>
              <LatitudeDegrees>36.81879756040871143341064453125</LatitudeDegrees>
              <LongitudeDegrees>-4.3841562978923320770263671875</LongitudeDegrees>
            </Position>
            <AltitudeMeters>815.5999755859375</AltitudeMeters>
            <DistanceMeters>NAN</DistanceMeters>
          </Trackpoint>
          <Trackpoint>
            <Time>2020-12-05T09:32:16.000Z</Time>
            <Position>
              <LatitudeDegrees>36.81880141608417034149169921875</LatitudeDegrees>
              <LongitudeDegrees>-4.38416694290935993194580078125</LongitudeDegrees>
            </Position>
            <AltitudeMeters>815.5999755859375</AltitudeMeters>
            <DistanceMeters>NAN</DistanceMeters>
          </Trackpoint>
          <Trackpoint>
            <Time>2020-12-05T09:32:17.000Z</Time>
            <Position>
              <LatitudeDegrees>36.81880476884543895721435546875</LatitudeDegrees>
              <LongitudeDegrees>-4.38417582772672176361083984375</LongitudeDegrees>
            </Position>
            <AltitudeMeters>815.5999755859375</AltitudeMeters>
            <DistanceMeters>NAN</DistanceMeters>
          </Trackpoint>
          <Trackpoint>
            <Time>2020-12-05T09:32:18.000Z</Time>
            <Position>
              <LatitudeDegrees>36.81880694814026355743408203125</LatitudeDegrees>
              <LongitudeDegrees>-4.38417901284992694854736328125</LongitudeDegrees>
            </Position>
            <AltitudeMeters>815.5999755859375</AltitudeMeters>
            <DistanceMeters>NAN</DistanceMeters>
          </Trackpoint>
          <Trackpoint>
            <Time>2020-12-05T09:32:19.000Z</Time>
            <Position>
              <LatitudeDegrees>36.81880912743508815765380859375</LatitudeDegrees>
              <LongitudeDegrees>-4.38418253324925899505615234375</LongitudeDegrees>
            </Position>
            <AltitudeMeters>815.79998779296875</AltitudeMeters>
            <DistanceMeters>NAN</DistanceMeters>
          </Trackpoint>
          <Trackpoint>
            <Time>2020-12-05T09:32:20.000Z</Time>
            <Position>
              <LatitudeDegrees>36.8188100494444370269775390625</LatitudeDegrees>
              <LongitudeDegrees>-4.3841844610869884490966796875</LongitudeDegrees>
            </Position>
            <AltitudeMeters>815.79998779296875</AltitudeMeters>
            <DistanceMeters>NAN</DistanceMeters>
          </Trackpoint>
          <Trackpoint>
            <Time>2020-12-05T09:32:21.000Z</Time>
            <Position>
              <LatitudeDegrees>36.81881281547248363494873046875</LatitudeDegrees>
              <LongitudeDegrees>-4.38418605364859104156494140625</LongitudeDegrees>
            </Position>
            <AltitudeMeters>816</AltitudeMeters>
            <DistanceMeters>NAN</DistanceMeters>
          </Trackpoint>
          <Trackpoint>
            <Time>2020-12-05T09:32:22.000Z</Time>
            <Position>
              <LatitudeDegrees>36.818818934261798858642578125</LatitudeDegrees>
              <LongitudeDegrees>-4.38418856821954250335693359375</LongitudeDegrees>
            </Position>
            <AltitudeMeters>816</AltitudeMeters>
            <DistanceMeters>NAN</DistanceMeters>
          </Trackpoint>
          <Trackpoint>
            <Time>2020-12-05T09:32:23.000Z</Time>
            <Position>
              <LatitudeDegrees>36.81882656179368495941162109375</LatitudeDegrees>
              <LongitudeDegrees>-4.38419242389500141143798828125</LongitudeDegrees>
            </Position>
            <AltitudeMeters>816</AltitudeMeters>
            <DistanceMeters>NAN</DistanceMeters>
          </Trackpoint>
          <Trackpoint>
            <Time>2020-12-05T09:32:24.000Z</Time>
            <Position>
              <LatitudeDegrees>36.81883125565946102142333984375</LatitudeDegrees>
              <LongitudeDegrees>-4.384199716150760650634765625</LongitudeDegrees>
            </Position>
            <AltitudeMeters>815.79998779296875</AltitudeMeters>
            <DistanceMeters>NAN</DistanceMeters>
          </Trackpoint>
          <Trackpoint>
            <Time>2020-12-05T09:32:25.000Z</Time>
            <Position>
              <LatitudeDegrees>36.818836368620395660400390625</LatitudeDegrees>
              <LongitudeDegrees>-4.38421220518648624420166015625</LongitudeDegrees>
            </Position>
            <AltitudeMeters>815.79998779296875</AltitudeMeters>
            <DistanceMeters>NAN</DistanceMeters>
          </Trackpoint>
          <Trackpoint>
            <Time>2020-12-05T09:32:26.000Z</Time>
            <Position>
              <LatitudeDegrees>36.8188427388668060302734375</LatitudeDegrees>
              <LongitudeDegrees>-4.38422285020351409912109375</LongitudeDegrees>
            </Position>
            <AltitudeMeters>815.79998779296875</AltitudeMeters>
            <DistanceMeters>NAN</DistanceMeters>
          </Trackpoint>
          <Trackpoint>
            <Time>2020-12-05T09:32:27.000Z</Time>
            <Position>
              <LatitudeDegrees>36.8188496120274066925048828125</LatitudeDegrees>
              <LongitudeDegrees>-4.384233914315700531005859375</LongitudeDegrees>
            </Position>
            <AltitudeMeters>815.5999755859375</AltitudeMeters>
            <DistanceMeters>NAN</DistanceMeters>
          </Trackpoint>
          <Trackpoint>
            <Time>2020-12-05T09:32:28.000Z</Time>
            <Position>
              <LatitudeDegrees>36.81885371915996074676513671875</LatitudeDegrees>
              <LongitudeDegrees>-4.3842463195323944091796875</LongitudeDegrees>
            </Position>
            <AltitudeMeters>815.5999755859375</AltitudeMeters>
            <DistanceMeters>NAN</DistanceMeters>
          </Trackpoint>
          <Trackpoint>
            <Time>2020-12-05T09:32:29.000Z</Time>
            <Position>
              <LatitudeDegrees>36.81885656900703907012939453125</LatitudeDegrees>
              <LongitudeDegrees>-4.38425696454942226409912109375</LongitudeDegrees>
            </Position>
            <AltitudeMeters>815.5999755859375</AltitudeMeters>
            <DistanceMeters>NAN</DistanceMeters>
          </Trackpoint>
          <Trackpoint>
            <Time>2020-12-05T09:32:30.000Z</Time>
            <Position>
              <LatitudeDegrees>36.81885925121605396270751953125</LatitudeDegrees>
              <LongitudeDegrees>-4.3842682801187038421630859375</LongitudeDegrees>
            </Position>
            <AltitudeMeters>815.5999755859375</AltitudeMeters>
            <DistanceMeters>NAN</DistanceMeters>
          </Trackpoint>
          <Trackpoint>
            <Time>2020-12-05T09:32:31.000Z</Time>
            <Position>
              <LatitudeDegrees>36.81886511854827404022216796875</LatitudeDegrees>
              <LongitudeDegrees>-4.38428319990634918212890625</LongitudeDegrees>
            </Position>
            <AltitudeMeters>815.5999755859375</AltitudeMeters>
            <DistanceMeters>NAN</DistanceMeters>
          </Trackpoint>
          <Trackpoint>
            <Time>2020-12-05T09:32:32.000Z</Time>
            <Position>
              <LatitudeDegrees>36.81887291371822357177734375</LatitudeDegrees>
              <LongitudeDegrees>-4.38430390320718288421630859375</LongitudeDegrees>
            </Position>
            <AltitudeMeters>815.79998779296875</AltitudeMeters>
            <DistanceMeters>NAN</DistanceMeters>
          </Trackpoint>
          <Trackpoint>
            <Time>2020-12-05T09:32:33.000Z</Time>
            <Position>
              <LatitudeDegrees>36.81888087652623653411865234375</LatitudeDegrees>
              <LongitudeDegrees>-4.38432200811803340911865234375</LongitudeDegrees>
            </Position>
            <AltitudeMeters>815.5999755859375</AltitudeMeters>
            <DistanceMeters>NAN</DistanceMeters>
          </Trackpoint>
          <Trackpoint>
            <Time>2020-12-05T09:32:34.000Z</Time>
            <Position>
              <LatitudeDegrees>36.81889059953391551971435546875</LatitudeDegrees>
              <LongitudeDegrees>-4.38433743081986904144287109375</LongitudeDegrees>
            </Position>
            <AltitudeMeters>815.5999755859375</AltitudeMeters>
            <DistanceMeters>NAN</DistanceMeters>
          </Trackpoint>
          <Trackpoint>
            <Time>2020-12-05T09:32:35.000Z</Time>
            <Position>
              <LatitudeDegrees>36.8188982270658016204833984375</LatitudeDegrees>
              <LongitudeDegrees>-4.384352602064609527587890625</LongitudeDegrees>
            </Position>
            <AltitudeMeters>815.4000244140625</AltitudeMeters>
            <DistanceMeters>NAN</DistanceMeters>
          </Trackpoint>
          <Trackpoint>
            <Time>2020-12-05T09:32:36.000Z</Time>
            <Position>
              <LatitudeDegrees>36.81890241801738739013671875</LatitudeDegrees>
              <LongitudeDegrees>-4.384370036423206329345703125</LongitudeDegrees>
            </Position>
            <AltitudeMeters>815.4000244140625</AltitudeMeters>
            <DistanceMeters>NAN</DistanceMeters>
          </Trackpoint>
          <Trackpoint>
            <Time>2020-12-05T09:32:37.000Z</Time>
            <Position>
              <LatitudeDegrees>36.818904764950275421142578125</LatitudeDegrees>
              <LongitudeDegrees>-4.38438688404858112335205078125</LongitudeDegrees>
            </Position>
            <AltitudeMeters>815.4000244140625</AltitudeMeters>
            <DistanceMeters>NAN</DistanceMeters>
          </Trackpoint>
          <Trackpoint>
            <Time>2020-12-05T09:32:38.000Z</Time>
            <Position>
              <LatitudeDegrees>36.81890753097832202911376953125</LatitudeDegrees>
              <LongitudeDegrees>-4.3844013847410678863525390625</LongitudeDegrees>
            </Position>
            <AltitudeMeters>815.20001220703125</AltitudeMeters>
            <DistanceMeters>NAN</DistanceMeters>
          </Trackpoint>
          <Trackpoint>
            <Time>2020-12-05T09:32:39.000Z</Time>
            <Position>
              <LatitudeDegrees>36.8189084529876708984375</LatitudeDegrees>
              <LongitudeDegrees>-4.3844158016145229339599609375</LongitudeDegrees>
            </Position>
            <AltitudeMeters>815</AltitudeMeters>
            <DistanceMeters>NAN</DistanceMeters>
          </Trackpoint>
          <Trackpoint>
            <Time>2020-12-05T09:32:40.000Z</Time>
            <Position>
              <LatitudeDegrees>36.81891473941504955291748046875</LatitudeDegrees>
              <LongitudeDegrees>-4.384426362812519073486328125</LongitudeDegrees>
            </Position>
            <AltitudeMeters>815</AltitudeMeters>
            <DistanceMeters>NAN</DistanceMeters>
          </Trackpoint>
          <Trackpoint>
            <Time>2020-12-05T09:32:41.000Z</Time>
            <Position>
              <LatitudeDegrees>36.81892127729952335357666015625</LatitudeDegrees>
              <LongitudeDegrees>-4.38443499617278575897216796875</LongitudeDegrees>
            </Position>
            <AltitudeMeters>814.79998779296875</AltitudeMeters>
            <DistanceMeters>NAN</DistanceMeters>
          </Trackpoint>
          <Trackpoint>
            <Time>2020-12-05T09:32:42.000Z</Time>
            <Position>
              <LatitudeDegrees>36.8189247138798236846923828125</LatitudeDegrees>
              <LongitudeDegrees>-4.38444237224757671356201171875</LongitudeDegrees>
            </Position>
            <AltitudeMeters>814.79998779296875</AltitudeMeters>
            <DistanceMeters>NAN</DistanceMeters>
          </Trackpoint>
          <Trackpoint>
            <Time>2020-12-05T09:32:43.000Z</Time>
            <Position>
              <LatitudeDegrees>36.81892546825110912322998046875</LatitudeDegrees>
              <LongitudeDegrees>-4.3844516761600971221923828125</LongitudeDegrees>
            </Position>
            <AltitudeMeters>814.5999755859375</AltitudeMeters>
            <DistanceMeters>NAN</DistanceMeters>
          </Trackpoint>
          <Trackpoint>
            <Time>2020-12-05T09:32:44.000Z</Time>
            <Position>
              <LatitudeDegrees>36.81893032975494861602783203125</LatitudeDegrees>
              <LongitudeDegrees>-4.3844634108245372772216796875</LongitudeDegrees>
            </Position>
            <AltitudeMeters>814.5999755859375</AltitudeMeters>
            <DistanceMeters>NAN</DistanceMeters>
          </Trackpoint>
          <Trackpoint>
            <Time>2020-12-05T09:32:45.000Z</Time>
            <Position>
              <LatitudeDegrees>36.81893686763942241668701171875</LatitudeDegrees>
              <LongitudeDegrees>-4.38448143191635608673095703125</LongitudeDegrees>
            </Position>
            <AltitudeMeters>814.4000244140625</AltitudeMeters>
            <DistanceMeters>NAN</DistanceMeters>
          </Trackpoint>
          <Trackpoint>
            <Time>2020-12-05T09:32:46.000Z</Time>
            <Position>
              <LatitudeDegrees>36.818942986428737640380859375</LatitudeDegrees>
              <LongitudeDegrees>-4.3844979442656040191650390625</LongitudeDegrees>
            </Position>
            <AltitudeMeters>814.4000244140625</AltitudeMeters>
            <DistanceMeters>NAN</DistanceMeters>
          </Trackpoint>
          <Trackpoint>
            <Time>2020-12-05T09:32:47.000Z</Time>
            <Position>
              <LatitudeDegrees>36.81894960813224315643310546875</LatitudeDegrees>
              <LongitudeDegrees>-4.38451127149164676666259765625</LongitudeDegrees>
            </Position>
            <AltitudeMeters>814.4000244140625</AltitudeMeters>
            <DistanceMeters>NAN</DistanceMeters>
          </Trackpoint>
          <Trackpoint>
            <Time>2020-12-05T09:32:48.000Z</Time>
            <Position>
              <LatitudeDegrees>36.8189535476267337799072265625</LatitudeDegrees>
              <LongitudeDegrees>-4.3845200724899768829345703125</LongitudeDegrees>
            </Position>
            <AltitudeMeters>814.5999755859375</AltitudeMeters>
            <DistanceMeters>NAN</DistanceMeters>
          </Trackpoint>
          <Trackpoint>
            <Time>2020-12-05T09:32:49.000Z</Time>
            <Position>
              <LatitudeDegrees>36.81895346380770206451416015625</LatitudeDegrees>
              <LongitudeDegrees>-4.38452753238379955291748046875</LongitudeDegrees>
            </Position>
            <AltitudeMeters>814.5999755859375</AltitudeMeters>
            <DistanceMeters>NAN</DistanceMeters>
          </Trackpoint>
          <Trackpoint>
            <Time>2020-12-05T09:32:50.000Z</Time>
            <Position>
              <LatitudeDegrees>36.8189513683319091796875</LatitudeDegrees>
              <LongitudeDegrees>-4.38453306443989276885986328125</LongitudeDegrees>
            </Position>
            <AltitudeMeters>814.5999755859375</AltitudeMeters>
            <DistanceMeters>NAN</DistanceMeters>
          </Trackpoint>
          <Trackpoint>
            <Time>2020-12-05T09:32:51.000Z</Time>
            <Position>
              <LatitudeDegrees>36.81894541718065738677978515625</LatitudeDegrees>
              <LongitudeDegrees>-4.38453742302954196929931640625</LongitudeDegrees>
            </Position>
            <AltitudeMeters>814.79998779296875</AltitudeMeters>
            <DistanceMeters>NAN</DistanceMeters>
          </Trackpoint>
          <Trackpoint>
            <Time>2020-12-05T09:32:52.000Z</Time>
            <Position>
              <LatitudeDegrees>36.81894139386713504791259765625</LatitudeDegrees>
              <LongitudeDegrees>-4.384544380009174346923828125</LongitudeDegrees>
            </Position>
            <AltitudeMeters>814.79998779296875</AltitudeMeters>
            <DistanceMeters>NAN</DistanceMeters>
          </Trackpoint>
          <Trackpoint>
            <Time>2020-12-05T09:32:53.000Z</Time>
            <Position>
              <LatitudeDegrees>36.81893737055361270904541015625</LatitudeDegrees>
              <LongitudeDegrees>-4.3845520913600921630859375</LongitudeDegrees>
            </Position>
            <AltitudeMeters>814.5999755859375</AltitudeMeters>
            <DistanceMeters>NAN</DistanceMeters>
          </Trackpoint>
          <Trackpoint>
            <Time>2020-12-05T09:32:54.000Z</Time>
            <Position>
              <LatitudeDegrees>36.81893351487815380096435546875</LatitudeDegrees>
              <LongitudeDegrees>-4.3845646642148494720458984375</LongitudeDegrees>
            </Position>
            <AltitudeMeters>814.4000244140625</AltitudeMeters>
            <DistanceMeters>NAN</DistanceMeters>
          </Trackpoint>
          <Trackpoint>
            <Time>2020-12-05T09:32:55.000Z</Time>
            <Position>
              <LatitudeDegrees>36.8189307488501071929931640625</LatitudeDegrees>
              <LongitudeDegrees>-4.3845820985734462738037109375</LongitudeDegrees>
            </Position>
            <AltitudeMeters>814.20001220703125</AltitudeMeters>
            <DistanceMeters>NAN</DistanceMeters>
          </Trackpoint>
          <Trackpoint>
            <Time>2020-12-05T09:32:56.000Z</Time>
            <Position>
              <LatitudeDegrees>36.81892747990787029266357421875</LatitudeDegrees>
              <LongitudeDegrees>-4.38459978438913822174072265625</LongitudeDegrees>
            </Position>
            <AltitudeMeters>814</AltitudeMeters>
            <DistanceMeters>NAN</DistanceMeters>
          </Trackpoint>
          <Trackpoint>
            <Time>2020-12-05T09:32:57.000Z</Time>
            <Position>
              <LatitudeDegrees>36.81892463006079196929931640625</LatitudeDegrees>
              <LongitudeDegrees>-4.38461520709097385406494140625</LongitudeDegrees>
            </Position>
            <AltitudeMeters>814</AltitudeMeters>
            <DistanceMeters>NAN</DistanceMeters>
          </Trackpoint>
          <Trackpoint>
            <Time>2020-12-05T09:32:58.000Z</Time>
            <Position>
              <LatitudeDegrees>36.81891859509050846099853515625</LatitudeDegrees>
              <LongitudeDegrees>-4.3846320547163486480712890625</LongitudeDegrees>
            </Position>
            <AltitudeMeters>813.79998779296875</AltitudeMeters>
            <DistanceMeters>NAN</DistanceMeters>
          </Trackpoint>
          <Trackpoint>
            <Time>2020-12-05T09:32:59.000Z</Time>
            <Position>
              <LatitudeDegrees>36.81891323067247867584228515625</LatitudeDegrees>
              <LongitudeDegrees>-4.384642280638217926025390625</LongitudeDegrees>
            </Position>
            <AltitudeMeters>813.79998779296875</AltitudeMeters>
            <DistanceMeters>NAN</DistanceMeters>
          </Trackpoint>
          <Trackpoint>
            <Time>2020-12-05T09:33:00.000Z</Time>
            <Position>
              <LatitudeDegrees>36.8189097940921783447265625</LatitudeDegrees>
              <LongitudeDegrees>-4.3846498243510723114013671875</LongitudeDegrees>
            </Position>
            <AltitudeMeters>814</AltitudeMeters>
            <DistanceMeters>NAN</DistanceMeters>
          </Trackpoint>
          <Trackpoint>
            <Time>2020-12-05T09:33:01.000Z</Time>
            <Position>
              <LatitudeDegrees>36.81891105137765407562255859375</LatitudeDegrees>
              <LongitudeDegrees>-4.38465761952102184295654296875</LongitudeDegrees>
            </Position>
            <AltitudeMeters>814</AltitudeMeters>
            <DistanceMeters>NAN</DistanceMeters>
          </Trackpoint>
          <Trackpoint>
            <Time>2020-12-05T09:33:02.000Z</Time>
            <Position>
              <LatitudeDegrees>36.81891188956797122955322265625</LatitudeDegrees>
              <LongitudeDegrees>-4.38466683961451053619384765625</LongitudeDegrees>
            </Position>
            <AltitudeMeters>814.20001220703125</AltitudeMeters>
            <DistanceMeters>NAN</DistanceMeters>
          </Trackpoint>
          <Trackpoint>
            <Time>2020-12-05T09:33:03.000Z</Time>
            <Position>
              <LatitudeDegrees>36.81890786625444889068603515625</LatitudeDegrees>
              <LongitudeDegrees>-4.38468343578279018402099609375</LongitudeDegrees>
            </Position>
            <AltitudeMeters>814.20001220703125</AltitudeMeters>
            <DistanceMeters>NAN</DistanceMeters>
          </Trackpoint>
          <Trackpoint>
            <Time>2020-12-05T09:33:04.000Z</Time>
            <Position>
              <LatitudeDegrees>36.81890384294092655181884765625</LatitudeDegrees>
              <LongitudeDegrees>-4.3847031332552433013916015625</LongitudeDegrees>
            </Position>
            <AltitudeMeters>814.20001220703125</AltitudeMeters>
            <DistanceMeters>NAN</DistanceMeters>
          </Trackpoint>
          <Trackpoint>
            <Time>2020-12-05T09:33:05.000Z</Time>
            <Position>
              <LatitudeDegrees>36.81889881379902362823486328125</LatitudeDegrees>
              <LongitudeDegrees>-4.3847212381660938262939453125</LongitudeDegrees>
            </Position>
            <AltitudeMeters>814.20001220703125</AltitudeMeters>
            <DistanceMeters>NAN</DistanceMeters>
          </Trackpoint>
          <Trackpoint>
            <Time>2020-12-05T09:33:06.000Z</Time>
            <Position>
              <LatitudeDegrees>36.81889261119067668914794921875</LatitudeDegrees>
              <LongitudeDegrees>-4.38473791815340518951416015625</LongitudeDegrees>
            </Position>
            <AltitudeMeters>814.4000244140625</AltitudeMeters>
            <DistanceMeters>NAN</DistanceMeters>
          </Trackpoint>
          <Trackpoint>
            <Time>2020-12-05T09:33:07.000Z</Time>
            <Position>
              <LatitudeDegrees>36.8188864924013614654541015625</LatitudeDegrees>
              <LongitudeDegrees>-4.38475484959781169891357421875</LongitudeDegrees>
            </Position>
            <AltitudeMeters>814.20001220703125</AltitudeMeters>
            <DistanceMeters>NAN</DistanceMeters>
          </Trackpoint>
          <Trackpoint>
            <Time>2020-12-05T09:33:08.000Z</Time>
            <Position>
              <LatitudeDegrees>36.8188817985355854034423828125</LatitudeDegrees>
              <LongitudeDegrees>-4.3847685120999813079833984375</LongitudeDegrees>
            </Position>
            <AltitudeMeters>814</AltitudeMeters>
            <DistanceMeters>NAN</DistanceMeters>
          </Trackpoint>
          <Trackpoint>
            <Time>2020-12-05T09:33:09.000Z</Time>
            <Position>
              <LatitudeDegrees>36.818876601755619049072265625</LatitudeDegrees>
              <LongitudeDegrees>-4.38478410243988037109375</LongitudeDegrees>
            </Position>
            <AltitudeMeters>814</AltitudeMeters>
            <DistanceMeters>NAN</DistanceMeters>
          </Trackpoint>
          <Trackpoint>
            <Time>2020-12-05T09:33:10.000Z</Time>
            <Position>
              <LatitudeDegrees>36.81887014769017696380615234375</LatitudeDegrees>
              <LongitudeDegrees>-4.38479742966592311859130859375</LongitudeDegrees>
            </Position>
            <AltitudeMeters>814</AltitudeMeters>
            <DistanceMeters>NAN</DistanceMeters>
          </Trackpoint>
          <Trackpoint>
            <Time>2020-12-05T09:33:11.000Z</Time>
            <Position>
              <LatitudeDegrees>36.81886377744376659393310546875</LatitudeDegrees>
              <LongitudeDegrees>-4.3848087452352046966552734375</LongitudeDegrees>
            </Position>
            <AltitudeMeters>814</AltitudeMeters>
            <DistanceMeters>NAN</DistanceMeters>
          </Trackpoint>
          <Trackpoint>
            <Time>2020-12-05T09:33:12.000Z</Time>
            <Position>
              <LatitudeDegrees>36.81886143051087856292724609375</LatitudeDegrees>
              <LongitudeDegrees>-4.38482140190899372100830078125</LongitudeDegrees>
            </Position>
            <AltitudeMeters>814</AltitudeMeters>
            <DistanceMeters>NAN</DistanceMeters>
          </Trackpoint>
          <Trackpoint>
            <Time>2020-12-05T09:33:13.000Z</Time>
            <Position>
              <LatitudeDegrees>36.81886143051087856292724609375</LatitudeDegrees>
              <LongitudeDegrees>-4.384835064411163330078125</LongitudeDegrees>
            </Position>
            <AltitudeMeters>814</AltitudeMeters>
            <DistanceMeters>NAN</DistanceMeters>
          </Trackpoint>
          <Trackpoint>
            <Time>2020-12-05T09:33:14.000Z</Time>
            <Position>
              <LatitudeDegrees>36.81886645965278148651123046875</LatitudeDegrees>
              <LongitudeDegrees>-4.3848513253033161163330078125</LongitudeDegrees>
            </Position>
            <AltitudeMeters>814.20001220703125</AltitudeMeters>
            <DistanceMeters>NAN</DistanceMeters>
          </Trackpoint>
          <Trackpoint>
            <Time>2020-12-05T09:33:15.000Z</Time>
            <Position>
              <LatitudeDegrees>36.81886662729084491729736328125</LatitudeDegrees>
              <LongitudeDegrees>-4.3848724476993083953857421875</LongitudeDegrees>
            </Position>
            <AltitudeMeters>814.20001220703125</AltitudeMeters>
            <DistanceMeters>NAN</DistanceMeters>
          </Trackpoint>
          <Trackpoint>
            <Time>2020-12-05T09:33:16.000Z</Time>
            <Position>
              <LatitudeDegrees>36.8188673816621303558349609375</LatitudeDegrees>
              <LongitudeDegrees>-4.3848922289907932281494140625</LongitudeDegrees>
            </Position>
            <AltitudeMeters>814.20001220703125</AltitudeMeters>
            <DistanceMeters>NAN</DistanceMeters>
          </Trackpoint>
          <Trackpoint>
            <Time>2020-12-05T09:33:17.000Z</Time>
            <Position>
              <LatitudeDegrees>36.8188653700053691864013671875</LatitudeDegrees>
              <LongitudeDegrees>-4.3849120102822780609130859375</LongitudeDegrees>
            </Position>
            <AltitudeMeters>814.4000244140625</AltitudeMeters>
            <DistanceMeters>NAN</DistanceMeters>
          </Trackpoint>
          <Trackpoint>
            <Time>2020-12-05T09:33:18.000Z</Time>
            <Position>
              <LatitudeDegrees>36.81886511854827404022216796875</LatitudeDegrees>
              <LongitudeDegrees>-4.38492961227893829345703125</LongitudeDegrees>
            </Position>
            <AltitudeMeters>814.4000244140625</AltitudeMeters>
            <DistanceMeters>NAN</DistanceMeters>
          </Trackpoint>
          <Trackpoint>
            <Time>2020-12-05T09:33:19.000Z</Time>
            <Position>
              <LatitudeDegrees>36.81886218488216400146484375</LatitudeDegrees>
              <LongitudeDegrees>-4.384946711361408233642578125</LongitudeDegrees>
            </Position>
            <AltitudeMeters>814.4000244140625</AltitudeMeters>
            <DistanceMeters>NAN</DistanceMeters>
          </Trackpoint>
          <Trackpoint>
            <Time>2020-12-05T09:33:20.000Z</Time>
            <Position>
              <LatitudeDegrees>36.81885221041738986968994140625</LatitudeDegrees>
              <LongitudeDegrees>-4.38496741466224193572998046875</LongitudeDegrees>
            </Position>
            <AltitudeMeters>814.4000244140625</AltitudeMeters>
            <DistanceMeters>NAN</DistanceMeters>
          </Trackpoint>
          <Trackpoint>
            <Time>2020-12-05T09:33:21.000Z</Time>
            <Position>
              <LatitudeDegrees>36.818845085799694061279296875</LatitudeDegrees>
              <LongitudeDegrees>-4.38497948460280895233154296875</LongitudeDegrees>
            </Position>
            <AltitudeMeters>814.5999755859375</AltitudeMeters>
            <DistanceMeters>NAN</DistanceMeters>
          </Trackpoint>
          <Trackpoint>
            <Time>2020-12-05T09:33:22.000Z</Time>
            <Position>
              <LatitudeDegrees>36.81883796118199825286865234375</LatitudeDegrees>
              <LongitudeDegrees>-4.38499323092401027679443359375</LongitudeDegrees>
            </Position>
            <AltitudeMeters>814.5999755859375</AltitudeMeters>
            <DistanceMeters>NAN</DistanceMeters>
          </Trackpoint>
          <Trackpoint>
            <Time>2020-12-05T09:33:23.000Z</Time>
            <Position>
              <LatitudeDegrees>36.8188351951539516448974609375</LatitudeDegrees>
              <LongitudeDegrees>-4.38500748015940189361572265625</LongitudeDegrees>
            </Position>
            <AltitudeMeters>814.5999755859375</AltitudeMeters>
            <DistanceMeters>NAN</DistanceMeters>
          </Trackpoint>
          <Trackpoint>
            <Time>2020-12-05T09:33:24.000Z</Time>
            <Position>
              <LatitudeDegrees>36.81883712299168109893798828125</LatitudeDegrees>
              <LongitudeDegrees>-4.38502348959445953369140625</LongitudeDegrees>
            </Position>
            <AltitudeMeters>814.5999755859375</AltitudeMeters>
            <DistanceMeters>NAN</DistanceMeters>
          </Trackpoint>
          <Trackpoint>
            <Time>2020-12-05T09:33:25.000Z</Time>
            <Position>
              <LatitudeDegrees>36.8188375420868396759033203125</LatitudeDegrees>
              <LongitudeDegrees>-4.3850374035537242889404296875</LongitudeDegrees>
            </Position>
            <AltitudeMeters>814.5999755859375</AltitudeMeters>
            <DistanceMeters>NAN</DistanceMeters>
          </Trackpoint>
          <Trackpoint>
            <Time>2020-12-05T09:33:26.000Z</Time>
            <Position>
              <LatitudeDegrees>36.81884081102907657623291015625</LatitudeDegrees>
              <LongitudeDegrees>-4.38504922203719615936279296875</LongitudeDegrees>
            </Position>
            <AltitudeMeters>814.4000244140625</AltitudeMeters>
            <DistanceMeters>NAN</DistanceMeters>
          </Trackpoint>
          <Trackpoint>
            <Time>2020-12-05T09:33:27.000Z</Time>
            <Position>
              <LatitudeDegrees>36.81884366087615489959716796875</LatitudeDegrees>
              <LongitudeDegrees>-4.38506372272968292236328125</LongitudeDegrees>
            </Position>
            <AltitudeMeters>814.20001220703125</AltitudeMeters>
            <DistanceMeters>NAN</DistanceMeters>
          </Trackpoint>
          <Trackpoint>
            <Time>2020-12-05T09:33:28.000Z</Time>
            <Position>
              <LatitudeDegrees>36.81884483434259891510009765625</LatitudeDegrees>
              <LongitudeDegrees>-4.38507889397442340850830078125</LongitudeDegrees>
            </Position>
            <AltitudeMeters>814.20001220703125</AltitudeMeters>
            <DistanceMeters>NAN</DistanceMeters>
          </Trackpoint>
          <Trackpoint>
            <Time>2020-12-05T09:33:29.000Z</Time>
            <Position>
              <LatitudeDegrees>36.81883997283875942230224609375</LatitudeDegrees>
              <LongitudeDegrees>-4.38509247265756130218505859375</LongitudeDegrees>
            </Position>
            <AltitudeMeters>814</AltitudeMeters>
            <DistanceMeters>NAN</DistanceMeters>
          </Trackpoint>
          <Trackpoint>
            <Time>2020-12-05T09:33:30.000Z</Time>
            <Position>
              <LatitudeDegrees>36.8188338540494441986083984375</LatitudeDegrees>
              <LongitudeDegrees>-4.38510471023619174957275390625</LongitudeDegrees>
            </Position>
            <AltitudeMeters>813.79998779296875</AltitudeMeters>
            <DistanceMeters>NAN</DistanceMeters>
          </Trackpoint>
          <Trackpoint>
            <Time>2020-12-05T09:33:31.000Z</Time>
            <Position>
              <LatitudeDegrees>36.81883108802139759063720703125</LatitudeDegrees>
              <LongitudeDegrees>-4.3851135112345218658447265625</LongitudeDegrees>
            </Position>
            <AltitudeMeters>813.79998779296875</AltitudeMeters>
            <DistanceMeters>NAN</DistanceMeters>
          </Trackpoint>
          <Trackpoint>
            <Time>2020-12-05T09:33:32.000Z</Time>
            <Position>
              <LatitudeDegrees>36.818833686411380767822265625</LatitudeDegrees>
              <LongitudeDegrees>-4.3851232342422008514404296875</LongitudeDegrees>
            </Position>
            <AltitudeMeters>813.5999755859375</AltitudeMeters>
            <DistanceMeters>NAN</DistanceMeters>
          </Trackpoint>
          <Trackpoint>
            <Time>2020-12-05T09:33:33.000Z</Time>
            <Position>
              <LatitudeDegrees>36.81883326731622219085693359375</LatitudeDegrees>
              <LongitudeDegrees>-4.38513320870697498321533203125</LongitudeDegrees>
            </Position>
            <AltitudeMeters>813.5999755859375</AltitudeMeters>
            <DistanceMeters>NAN</DistanceMeters>
          </Trackpoint>
          <Trackpoint>
            <Time>2020-12-05T09:33:34.000Z</Time>
            <Position>
              <LatitudeDegrees>36.8188321776688098907470703125</LatitudeDegrees>
              <LongitudeDegrees>-4.3851443566381931304931640625</LongitudeDegrees>
            </Position>
            <AltitudeMeters>813.4000244140625</AltitudeMeters>
            <DistanceMeters>NAN</DistanceMeters>
          </Trackpoint>
          <Trackpoint>
            <Time>2020-12-05T09:33:35.000Z</Time>
            <Position>
              <LatitudeDegrees>36.81883133947849273681640625</LatitudeDegrees>
              <LongitudeDegrees>-4.3851570971310138702392578125</LongitudeDegrees>
            </Position>
            <AltitudeMeters>813.4000244140625</AltitudeMeters>
            <DistanceMeters>NAN</DistanceMeters>
          </Trackpoint>
          <Trackpoint>
            <Time>2020-12-05T09:33:36.000Z</Time>
            <Position>
              <LatitudeDegrees>36.8188258074223995208740234375</LatitudeDegrees>
              <LongitudeDegrees>-4.38517176546156406402587890625</LongitudeDegrees>
            </Position>
            <AltitudeMeters>813.4000244140625</AltitudeMeters>
            <DistanceMeters>NAN</DistanceMeters>
          </Trackpoint>
          <Trackpoint>
            <Time>2020-12-05T09:33:37.000Z</Time>
            <Position>
              <LatitudeDegrees>36.81881926953792572021484375</LatitudeDegrees>
              <LongitudeDegrees>-4.3851864337921142578125</LongitudeDegrees>
            </Position>
            <AltitudeMeters>813.5999755859375</AltitudeMeters>
            <DistanceMeters>NAN</DistanceMeters>
          </Trackpoint>
          <Trackpoint>
            <Time>2020-12-05T09:33:38.000Z</Time>
            <Position>
              <LatitudeDegrees>36.81881600059568881988525390625</LatitudeDegrees>
              <LongitudeDegrees>-4.38519875518977642059326171875</LongitudeDegrees>
            </Position>
            <AltitudeMeters>813.5999755859375</AltitudeMeters>
            <DistanceMeters>NAN</DistanceMeters>
          </Trackpoint>
          <Trackpoint>
            <Time>2020-12-05T09:33:39.000Z</Time>
            <Position>
              <LatitudeDegrees>36.8188174255192279815673828125</LatitudeDegrees>
              <LongitudeDegrees>-4.38521166332066059112548828125</LongitudeDegrees>
            </Position>
            <AltitudeMeters>813.4000244140625</AltitudeMeters>
            <DistanceMeters>NAN</DistanceMeters>
          </Trackpoint>
          <Trackpoint>
            <Time>2020-12-05T09:33:40.000Z</Time>
            <Position>
              <LatitudeDegrees>36.818818263709545135498046875</LatitudeDegrees>
              <LongitudeDegrees>-4.385229013860225677490234375</LongitudeDegrees>
            </Position>
            <AltitudeMeters>813.4000244140625</AltitudeMeters>
            <DistanceMeters>NAN</DistanceMeters>
          </Trackpoint>
          <Trackpoint>
            <Time>2020-12-05T09:33:41.000Z</Time>
            <Position>
              <LatitudeDegrees>36.81882119737565517425537109375</LatitudeDegrees>
              <LongitudeDegrees>-4.3852472864091396331787109375</LongitudeDegrees>
            </Position>
            <AltitudeMeters>813.4000244140625</AltitudeMeters>
            <DistanceMeters>NAN</DistanceMeters>
          </Trackpoint>
          <Trackpoint>
            <Time>2020-12-05T09:33:42.000Z</Time>
            <Position>
              <LatitudeDegrees>36.8188268132507801055908203125</LatitudeDegrees>
              <LongitudeDegrees>-4.38526715151965618133544921875</LongitudeDegrees>
            </Position>
            <AltitudeMeters>813.4000244140625</AltitudeMeters>
            <DistanceMeters>NAN</DistanceMeters>
          </Trackpoint>
          <Trackpoint>
            <Time>2020-12-05T09:33:43.000Z</Time>
            <Position>
              <LatitudeDegrees>36.81883628480136394500732421875</LatitudeDegrees>
              <LongitudeDegrees>-4.385286681354045867919921875</LongitudeDegrees>
            </Position>
            <AltitudeMeters>813.20001220703125</AltitudeMeters>
            <DistanceMeters>NAN</DistanceMeters>
          </Trackpoint>
          <Trackpoint>
            <Time>2020-12-05T09:33:44.000Z</Time>
            <Position>
              <LatitudeDegrees>36.818847097456455230712890625</LatitudeDegrees>
              <LongitudeDegrees>-4.38530243933200836181640625</LongitudeDegrees>
            </Position>
            <AltitudeMeters>813</AltitudeMeters>
            <DistanceMeters>NAN</DistanceMeters>
          </Trackpoint>
          <Trackpoint>
            <Time>2020-12-05T09:33:45.000Z</Time>
            <Position>
              <LatitudeDegrees>36.81885975413024425506591796875</LatitudeDegrees>
              <LongitudeDegrees>-4.385318867862224578857421875</LongitudeDegrees>
            </Position>
            <AltitudeMeters>813</AltitudeMeters>
            <DistanceMeters>NAN</DistanceMeters>
          </Trackpoint>
          <Trackpoint>
            <Time>2020-12-05T09:33:46.000Z</Time>
            <Position>
              <LatitudeDegrees>36.8188710696995258331298828125</LatitudeDegrees>
              <LongitudeDegrees>-4.3853341229259967803955078125</LongitudeDegrees>
            </Position>
            <AltitudeMeters>813</AltitudeMeters>
            <DistanceMeters>NAN</DistanceMeters>
          </Trackpoint>
          <Trackpoint>
            <Time>2020-12-05T09:33:47.000Z</Time>
            <Position>
              <LatitudeDegrees>36.81888003833591938018798828125</LatitudeDegrees>
              <LongitudeDegrees>-4.3853515572845935821533203125</LongitudeDegrees>
            </Position>
            <AltitudeMeters>813</AltitudeMeters>
            <DistanceMeters>NAN</DistanceMeters>
          </Trackpoint>
          <Trackpoint>
            <Time>2020-12-05T09:33:48.000Z</Time>
            <Position>
              <LatitudeDegrees>36.81888389401137828826904296875</LatitudeDegrees>
              <LongitudeDegrees>-4.38536681234836578369140625</LongitudeDegrees>
            </Position>
            <AltitudeMeters>813.20001220703125</AltitudeMeters>
            <DistanceMeters>NAN</DistanceMeters>
          </Trackpoint>
          <Trackpoint>
            <Time>2020-12-05T09:33:49.000Z</Time>
            <Position>
              <LatitudeDegrees>36.81888758204877376556396484375</LatitudeDegrees>
              <LongitudeDegrees>-4.38538433052599430084228515625</LongitudeDegrees>
            </Position>
            <AltitudeMeters>813.20001220703125</AltitudeMeters>
            <DistanceMeters>NAN</DistanceMeters>
          </Trackpoint>
          <Trackpoint>
            <Time>2020-12-05T09:33:50.000Z</Time>
            <Position>
              <LatitudeDegrees>36.8188911862671375274658203125</LatitudeDegrees>
              <LongitudeDegrees>-4.38540092669427394866943359375</LongitudeDegrees>
            </Position>
            <AltitudeMeters>813.4000244140625</AltitudeMeters>
            <DistanceMeters>NAN</DistanceMeters>
          </Trackpoint>
          <Trackpoint>
            <Time>2020-12-05T09:33:51.000Z</Time>
            <Position>
              <LatitudeDegrees>36.81889311410486698150634765625</LatitudeDegrees>
              <LongitudeDegrees>-4.385415427386760711669921875</LongitudeDegrees>
            </Position>
            <AltitudeMeters>813.4000244140625</AltitudeMeters>
            <DistanceMeters>NAN</DistanceMeters>
          </Trackpoint>
          <Trackpoint>
            <Time>2020-12-05T09:33:52.000Z</Time>
            <Position>
              <LatitudeDegrees>36.81889914907515048980712890625</LatitudeDegrees>
              <LongitudeDegrees>-4.38542942516505718231201171875</LongitudeDegrees>
            </Position>
            <AltitudeMeters>813.4000244140625</AltitudeMeters>
            <DistanceMeters>NAN</DistanceMeters>
          </Trackpoint>
          <Trackpoint>
            <Time>2020-12-05T09:33:53.000Z</Time>
            <Position>
              <LatitudeDegrees>36.81890535168349742889404296875</LatitudeDegrees>
              <LongitudeDegrees>-4.38544300384819507598876953125</LongitudeDegrees>
            </Position>
            <AltitudeMeters>813.5999755859375</AltitudeMeters>
            <DistanceMeters>NAN</DistanceMeters>
          </Trackpoint>
          <Trackpoint>
            <Time>2020-12-05T09:33:54.000Z</Time>
            <Position>
              <LatitudeDegrees>36.81891121901571750640869140625</LatitudeDegrees>
              <LongitudeDegrees>-4.38545540906488895416259765625</LongitudeDegrees>
            </Position>
            <AltitudeMeters>813.5999755859375</AltitudeMeters>
            <DistanceMeters>NAN</DistanceMeters>
          </Trackpoint>
          <Trackpoint>
            <Time>2020-12-05T09:33:55.000Z</Time>
            <Position>
              <LatitudeDegrees>36.8189129792153835296630859375</LatitudeDegrees>
              <LongitudeDegrees>-4.3854678981006145477294921875</LongitudeDegrees>
            </Position>
            <AltitudeMeters>813.4000244140625</AltitudeMeters>
            <DistanceMeters>NAN</DistanceMeters>
          </Trackpoint>
          <Trackpoint>
            <Time>2020-12-05T09:33:56.000Z</Time>
            <Position>
              <LatitudeDegrees>36.81891239248216152191162109375</LatitudeDegrees>
              <LongitudeDegrees>-4.38547812402248382568359375</LongitudeDegrees>
            </Position>
            <AltitudeMeters>813.4000244140625</AltitudeMeters>
            <DistanceMeters>NAN</DistanceMeters>
          </Trackpoint>
          <Trackpoint>
            <Time>2020-12-05T09:33:57.000Z</Time>
            <Position>
              <LatitudeDegrees>36.81891323067247867584228515625</LatitudeDegrees>
              <LongitudeDegrees>-4.3854846619069576263427734375</LongitudeDegrees>
            </Position>
            <AltitudeMeters>813.4000244140625</AltitudeMeters>
            <DistanceMeters>NAN</DistanceMeters>
          </Trackpoint>
          <Trackpoint>
            <Time>2020-12-05T09:33:58.000Z</Time>
            <Position>
              <LatitudeDegrees>36.81891490705311298370361328125</LatitudeDegrees>
              <LongitudeDegrees>-4.385492540895938873291015625</LongitudeDegrees>
            </Position>
            <AltitudeMeters>813.4000244140625</AltitudeMeters>
            <DistanceMeters>NAN</DistanceMeters>
          </Trackpoint>
          <Trackpoint>
            <Time>2020-12-05T09:33:59.000Z</Time>
            <Position>
              <LatitudeDegrees>36.81891423650085926055908203125</LatitudeDegrees>
              <LongitudeDegrees>-4.38550435937941074371337890625</LongitudeDegrees>
            </Position>
            <AltitudeMeters>813.4000244140625</AltitudeMeters>
            <DistanceMeters>NAN</DistanceMeters>
          </Trackpoint>
          <Trackpoint>
            <Time>2020-12-05T09:34:00.000Z</Time>
            <Position>
              <LatitudeDegrees>36.81891306303441524505615234375</LatitudeDegrees>
              <LongitudeDegrees>-4.38551542349159717559814453125</LongitudeDegrees>
            </Position>
            <AltitudeMeters>813.4000244140625</AltitudeMeters>
            <DistanceMeters>NAN</DistanceMeters>
          </Trackpoint>
          <Trackpoint>
            <Time>2020-12-05T09:34:01.000Z</Time>
            <Position>
              <LatitudeDegrees>36.81891323067247867584228515625</LatitudeDegrees>
              <LongitudeDegrees>-4.38552531413733959197998046875</LongitudeDegrees>
            </Position>
            <AltitudeMeters>813.4000244140625</AltitudeMeters>
            <DistanceMeters>NAN</DistanceMeters>
          </Trackpoint>
          <Trackpoint>
            <Time>2020-12-05T09:34:02.000Z</Time>
            <Position>
              <LatitudeDegrees>36.81891339831054210662841796875</LatitudeDegrees>
              <LongitudeDegrees>-4.385534115135669708251953125</LongitudeDegrees>
            </Position>
            <AltitudeMeters>813.4000244140625</AltitudeMeters>
            <DistanceMeters>NAN</DistanceMeters>
          </Trackpoint>
          <Trackpoint>
            <Time>2020-12-05T09:34:03.000Z</Time>
            <Position>
              <LatitudeDegrees>36.81891742162406444549560546875</LatitudeDegrees>
              <LongitudeDegrees>-4.38554509542882442474365234375</LongitudeDegrees>
            </Position>
            <AltitudeMeters>813.5999755859375</AltitudeMeters>
            <DistanceMeters>NAN</DistanceMeters>
          </Trackpoint>
          <Trackpoint>
            <Time>2020-12-05T09:34:04.000Z</Time>
            <Position>
              <LatitudeDegrees>36.81892530061304569244384765625</LatitudeDegrees>
              <LongitudeDegrees>-4.38555917702615261077880859375</LongitudeDegrees>
            </Position>
            <AltitudeMeters>813.5999755859375</AltitudeMeters>
            <DistanceMeters>NAN</DistanceMeters>
          </Trackpoint>
          <Trackpoint>
            <Time>2020-12-05T09:34:05.000Z</Time>
            <Position>
              <LatitudeDegrees>36.81893368251621723175048828125</LatitudeDegrees>
              <LongitudeDegrees>-4.3855704925954341888427734375</LongitudeDegrees>
            </Position>
            <AltitudeMeters>813.5999755859375</AltitudeMeters>
            <DistanceMeters>NAN</DistanceMeters>
          </Trackpoint>
          <Trackpoint>
            <Time>2020-12-05T09:34:06.000Z</Time>
            <Position>
              <LatitudeDegrees>36.818943321704864501953125</LatitudeDegrees>
              <LongitudeDegrees>-4.38558465801179409027099609375</LongitudeDegrees>
            </Position>
            <AltitudeMeters>813.5999755859375</AltitudeMeters>
            <DistanceMeters>NAN</DistanceMeters>
          </Trackpoint>
          <Trackpoint>
            <Time>2020-12-05T09:34:07.000Z</Time>
            <Position>
              <LatitudeDegrees>36.81895145215094089508056640625</LatitudeDegrees>
              <LongitudeDegrees>-4.3855959735810756683349609375</LongitudeDegrees>
            </Position>
            <AltitudeMeters>813.5999755859375</AltitudeMeters>
            <DistanceMeters>NAN</DistanceMeters>
          </Trackpoint>
          <Trackpoint>
            <Time>2020-12-05T09:34:08.000Z</Time>
            <Position>
              <LatitudeDegrees>36.8189562298357486724853515625</LatitudeDegrees>
              <LongitudeDegrees>-4.38560594804584980010986328125</LongitudeDegrees>
            </Position>
            <AltitudeMeters>813.4000244140625</AltitudeMeters>
            <DistanceMeters>NAN</DistanceMeters>
          </Trackpoint>
          <Trackpoint>
            <Time>2020-12-05T09:34:09.000Z</Time>
            <Position>
              <LatitudeDegrees>36.81896033696830272674560546875</LatitudeDegrees>
              <LongitudeDegrees>-4.385618604719638824462890625</LongitudeDegrees>
            </Position>
            <AltitudeMeters>813.4000244140625</AltitudeMeters>
            <DistanceMeters>NAN</DistanceMeters>
          </Trackpoint>
          <Trackpoint>
            <Time>2020-12-05T09:34:10.000Z</Time>
            <Position>
              <LatitudeDegrees>36.818959079682826995849609375</LatitudeDegrees>
              <LongitudeDegrees>-4.38562857918441295623779296875</LongitudeDegrees>
            </Position>
            <AltitudeMeters>813.20001220703125</AltitudeMeters>
            <DistanceMeters>NAN</DistanceMeters>
          </Trackpoint>
          <Trackpoint>
            <Time>2020-12-05T09:34:11.000Z</Time>
            <Position>
              <LatitudeDegrees>36.81895748712122440338134765625</LatitudeDegrees>
              <LongitudeDegrees>-4.38564383424818515777587890625</LongitudeDegrees>
            </Position>
            <AltitudeMeters>813.20001220703125</AltitudeMeters>
            <DistanceMeters>NAN</DistanceMeters>
          </Trackpoint>
          <Trackpoint>
            <Time>2020-12-05T09:34:12.000Z</Time>
            <Position>
              <LatitudeDegrees>36.81895849294960498809814453125</LatitudeDegrees>
              <LongitudeDegrees>-4.3856546469032764434814453125</LongitudeDegrees>
            </Position>
            <AltitudeMeters>813</AltitudeMeters>
            <DistanceMeters>NAN</DistanceMeters>
          </Trackpoint>
          <Trackpoint>
            <Time>2020-12-05T09:34:13.000Z</Time>
            <Position>
              <LatitudeDegrees>36.81895597837865352630615234375</LatitudeDegrees>
              <LongitudeDegrees>-4.38566696830093860626220703125</LongitudeDegrees>
            </Position>
            <AltitudeMeters>813</AltitudeMeters>
            <DistanceMeters>NAN</DistanceMeters>
          </Trackpoint>
          <Trackpoint>
            <Time>2020-12-05T09:34:14.000Z</Time>
            <Position>
              <LatitudeDegrees>36.81894927285611629486083984375</LatitudeDegrees>
              <LongitudeDegrees>-4.3856807984411716461181640625</LongitudeDegrees>
            </Position>
            <AltitudeMeters>812.79998779296875</AltitudeMeters>
            <DistanceMeters>NAN</DistanceMeters>
          </Trackpoint>
          <Trackpoint>
            <Time>2020-12-05T09:34:15.000Z</Time>
            <Position>
              <LatitudeDegrees>36.8189431540668010711669921875</LatitudeDegrees>
              <LongitudeDegrees>-4.3856905214488506317138671875</LongitudeDegrees>
            </Position>
            <AltitudeMeters>812.79998779296875</AltitudeMeters>
            <DistanceMeters>NAN</DistanceMeters>
          </Trackpoint>
          <Trackpoint>
            <Time>2020-12-05T09:34:16.000Z</Time>
            <Position>
              <LatitudeDegrees>36.81894038803875446319580078125</LatitudeDegrees>
              <LongitudeDegrees>-4.3857025913894176483154296875</LongitudeDegrees>
            </Position>
            <AltitudeMeters>812.79998779296875</AltitudeMeters>
            <DistanceMeters>NAN</DistanceMeters>
          </Trackpoint>
          <Trackpoint>
            <Time>2020-12-05T09:34:17.000Z</Time>
            <Position>
              <LatitudeDegrees>36.81894038803875446319580078125</LatitudeDegrees>
              <LongitudeDegrees>-4.38571105711162090301513671875</LongitudeDegrees>
            </Position>
            <AltitudeMeters>812.79998779296875</AltitudeMeters>
            <DistanceMeters>NAN</DistanceMeters>
          </Trackpoint>
          <Trackpoint>
            <Time>2020-12-05T09:34:18.000Z</Time>
            <Position>
              <LatitudeDegrees>36.81894256733357906341552734375</LatitudeDegrees>
              <LongitudeDegrees>-4.38571876846253871917724609375</LongitudeDegrees>
            </Position>
            <AltitudeMeters>813</AltitudeMeters>
            <DistanceMeters>NAN</DistanceMeters>
          </Trackpoint>
          <Trackpoint>
            <Time>2020-12-05T09:34:19.000Z</Time>
            <Position>
              <LatitudeDegrees>36.818949021399021148681640625</LatitudeDegrees>
              <LongitudeDegrees>-4.385725222527980804443359375</LongitudeDegrees>
            </Position>
            <AltitudeMeters>813</AltitudeMeters>
            <DistanceMeters>NAN</DistanceMeters>
          </Trackpoint>
          <Trackpoint>
            <Time>2020-12-05T09:34:20.000Z</Time>
            <Position>
              <LatitudeDegrees>36.81895815767347812652587890625</LatitudeDegrees>
              <LongitudeDegrees>-4.3857331015169620513916015625</LongitudeDegrees>
            </Position>
            <AltitudeMeters>813</AltitudeMeters>
            <DistanceMeters>NAN</DistanceMeters>
          </Trackpoint>
          <Trackpoint>
            <Time>2020-12-05T09:34:21.000Z</Time>
            <Position>
              <LatitudeDegrees>36.818966455757617950439453125</LatitudeDegrees>
              <LongitudeDegrees>-4.3857445009052753448486328125</LongitudeDegrees>
            </Position>
            <AltitudeMeters>813.20001220703125</AltitudeMeters>
            <DistanceMeters>NAN</DistanceMeters>
          </Trackpoint>
          <Trackpoint>
            <Time>2020-12-05T09:34:22.000Z</Time>
            <Position>
              <LatitudeDegrees>36.81897408328950405120849609375</LatitudeDegrees>
              <LongitudeDegrees>-4.38575598411262035369873046875</LongitudeDegrees>
            </Position>
            <AltitudeMeters>813.4000244140625</AltitudeMeters>
            <DistanceMeters>NAN</DistanceMeters>
          </Trackpoint>
          <Trackpoint>
            <Time>2020-12-05T09:34:23.000Z</Time>
            <Position>
              <LatitudeDegrees>36.8189795315265655517578125</LatitudeDegrees>
              <LongitudeDegrees>-4.3857671320438385009765625</LongitudeDegrees>
            </Position>
            <AltitudeMeters>813.4000244140625</AltitudeMeters>
            <DistanceMeters>NAN</DistanceMeters>
          </Trackpoint>
          <Trackpoint>
            <Time>2020-12-05T09:34:24.000Z</Time>
            <Position>
              <LatitudeDegrees>36.81898556649684906005859375</LatitudeDegrees>
              <LongitudeDegrees>-4.38577677123248577117919921875</LongitudeDegrees>
            </Position>
            <AltitudeMeters>813.5999755859375</AltitudeMeters>
            <DistanceMeters>NAN</DistanceMeters>
          </Trackpoint>
          <Trackpoint>
            <Time>2020-12-05T09:34:25.000Z</Time>
            <Position>
              <LatitudeDegrees>36.81898313574492931365966796875</LatitudeDegrees>
              <LongitudeDegrees>-4.38578750006854534149169921875</LongitudeDegrees>
            </Position>
            <AltitudeMeters>813.79998779296875</AltitudeMeters>
            <DistanceMeters>NAN</DistanceMeters>
          </Trackpoint>
          <Trackpoint>
            <Time>2020-12-05T09:34:26.000Z</Time>
            <Position>
              <LatitudeDegrees>36.81897894479334354400634765625</LatitudeDegrees>
              <LongitudeDegrees>-4.385797977447509765625</LongitudeDegrees>
            </Position>
            <AltitudeMeters>813.79998779296875</AltitudeMeters>
            <DistanceMeters>NAN</DistanceMeters>
          </Trackpoint>
          <Trackpoint>
            <Time>2020-12-05T09:34:27.000Z</Time>
            <Position>
              <LatitudeDegrees>36.81897617876529693603515625</LatitudeDegrees>
              <LongitudeDegrees>-4.38580879010260105133056640625</LongitudeDegrees>
            </Position>
            <AltitudeMeters>813.79998779296875</AltitudeMeters>
            <DistanceMeters>NAN</DistanceMeters>
          </Trackpoint>
          <Trackpoint>
            <Time>2020-12-05T09:34:28.000Z</Time>
            <Position>
              <LatitudeDegrees>36.81897140108048915863037109375</LatitudeDegrees>
              <LongitudeDegrees>-4.3858261406421661376953125</LongitudeDegrees>
            </Position>
            <AltitudeMeters>813.79998779296875</AltitudeMeters>
            <DistanceMeters>NAN</DistanceMeters>
          </Trackpoint>
          <Trackpoint>
            <Time>2020-12-05T09:34:29.000Z</Time>
            <Position>
              <LatitudeDegrees>36.81896670721471309661865234375</LatitudeDegrees>
              <LongitudeDegrees>-4.38584516756236553192138671875</LongitudeDegrees>
            </Position>
            <AltitudeMeters>813.79998779296875</AltitudeMeters>
            <DistanceMeters>NAN</DistanceMeters>
          </Trackpoint>
          <Trackpoint>
            <Time>2020-12-05T09:34:30.000Z</Time>
            <Position>
              <LatitudeDegrees>36.81895782239735126495361328125</LatitudeDegrees>
              <LongitudeDegrees>-4.3858698941767215728759765625</LongitudeDegrees>
            </Position>
            <AltitudeMeters>813.79998779296875</AltitudeMeters>
            <DistanceMeters>NAN</DistanceMeters>
          </Trackpoint>
          <Trackpoint>
            <Time>2020-12-05T09:34:31.000Z</Time>
            <Position>
              <LatitudeDegrees>36.818943656980991363525390625</LatitudeDegrees>
              <LongitudeDegrees>-4.38590182922780513763427734375</LongitudeDegrees>
            </Position>
            <AltitudeMeters>813.79998779296875</AltitudeMeters>
            <DistanceMeters>NAN</DistanceMeters>
          </Trackpoint>
          <Trackpoint>
            <Time>2020-12-05T09:34:32.000Z</Time>
            <Position>
              <LatitudeDegrees>36.81893535889685153961181640625</LatitudeDegrees>
              <LongitudeDegrees>-4.3859225325286388397216796875</LongitudeDegrees>
            </Position>
            <AltitudeMeters>813.5999755859375</AltitudeMeters>
            <DistanceMeters>NAN</DistanceMeters>
          </Trackpoint>
          <Trackpoint>
            <Time>2020-12-05T09:34:33.000Z</Time>
            <Position>
              <LatitudeDegrees>36.81893737055361270904541015625</LatitudeDegrees>
              <LongitudeDegrees>-4.38593904487788677215576171875</LongitudeDegrees>
            </Position>
            <AltitudeMeters>813.4000244140625</AltitudeMeters>
            <DistanceMeters>NAN</DistanceMeters>
          </Trackpoint>
          <Trackpoint>
            <Time>2020-12-05T09:34:34.000Z</Time>
            <Position>
              <LatitudeDegrees>36.8189381249248981475830078125</LatitudeDegrees>
              <LongitudeDegrees>-4.38595354557037353515625</LongitudeDegrees>
            </Position>
            <AltitudeMeters>813.20001220703125</AltitudeMeters>
            <DistanceMeters>NAN</DistanceMeters>
          </Trackpoint>
          <Trackpoint>
            <Time>2020-12-05T09:34:35.000Z</Time>
            <Position>
              <LatitudeDegrees>36.8189354427158832550048828125</LatitudeDegrees>
              <LongitudeDegrees>-4.3859701417386531829833984375</LongitudeDegrees>
            </Position>
            <AltitudeMeters>813.20001220703125</AltitudeMeters>
            <DistanceMeters>NAN</DistanceMeters>
          </Trackpoint>
          <Trackpoint>
            <Time>2020-12-05T09:34:36.000Z</Time>
            <Position>
              <LatitudeDegrees>36.81892580352723598480224609375</LatitudeDegrees>
              <LongitudeDegrees>-4.38599109649658203125</LongitudeDegrees>
            </Position>
            <AltitudeMeters>813.20001220703125</AltitudeMeters>
            <DistanceMeters>NAN</DistanceMeters>
          </Trackpoint>
          <Trackpoint>
            <Time>2020-12-05T09:34:37.000Z</Time>
            <Position>
              <LatitudeDegrees>36.81891926564276218414306640625</LatitudeDegrees>
              <LongitudeDegrees>-4.38600727356970310211181640625</LongitudeDegrees>
            </Position>
            <AltitudeMeters>813.4000244140625</AltitudeMeters>
            <DistanceMeters>NAN</DistanceMeters>
          </Trackpoint>
          <Trackpoint>
            <Time>2020-12-05T09:34:38.000Z</Time>
            <Position>
              <LatitudeDegrees>36.818917505443096160888671875</LatitudeDegrees>
              <LongitudeDegrees>-4.38601967878639698028564453125</LongitudeDegrees>
            </Position>
            <AltitudeMeters>813.5999755859375</AltitudeMeters>
            <DistanceMeters>NAN</DistanceMeters>
          </Trackpoint>
          <Trackpoint>
            <Time>2020-12-05T09:34:39.000Z</Time>
            <Position>
              <LatitudeDegrees>36.81891323067247867584228515625</LatitudeDegrees>
              <LongitudeDegrees>-4.3860371969640254974365234375</LongitudeDegrees>
            </Position>
            <AltitudeMeters>813.5999755859375</AltitudeMeters>
            <DistanceMeters>NAN</DistanceMeters>
          </Trackpoint>
          <Trackpoint>
            <Time>2020-12-05T09:34:40.000Z</Time>
            <Position>
              <LatitudeDegrees>36.81890669278800487518310546875</LatitudeDegrees>
              <LongitudeDegrees>-4.3860623426735401153564453125</LongitudeDegrees>
            </Position>
            <AltitudeMeters>813.79998779296875</AltitudeMeters>
            <DistanceMeters>NAN</DistanceMeters>
          </Trackpoint>
          <Trackpoint>
            <Time>2020-12-05T09:34:41.000Z</Time>
            <Position>
              <LatitudeDegrees>36.8189029209315776824951171875</LatitudeDegrees>
              <LongitudeDegrees>-4.38608170486986637115478515625</LongitudeDegrees>
            </Position>
            <AltitudeMeters>813.79998779296875</AltitudeMeters>
            <DistanceMeters>NAN</DistanceMeters>
          </Trackpoint>
          <Trackpoint>
            <Time>2020-12-05T09:34:42.000Z</Time>
            <Position>
              <LatitudeDegrees>36.81889973580837249755859375</LatitudeDegrees>
              <LongitudeDegrees>-4.38609746284782886505126953125</LongitudeDegrees>
            </Position>
            <AltitudeMeters>813.79998779296875</AltitudeMeters>
            <DistanceMeters>NAN</DistanceMeters>
          </Trackpoint>
          <Trackpoint>
            <Time>2020-12-05T09:34:43.000Z</Time>
            <Position>
              <LatitudeDegrees>36.8188915215432643890380859375</LatitudeDegrees>
              <LongitudeDegrees>-4.38611556775867938995361328125</LongitudeDegrees>
            </Position>
            <AltitudeMeters>813.79998779296875</AltitudeMeters>
            <DistanceMeters>NAN</DistanceMeters>
          </Trackpoint>
          <Trackpoint>
            <Time>2020-12-05T09:34:44.000Z</Time>
            <Position>
              <LatitudeDegrees>36.81888791732490062713623046875</LatitudeDegrees>
              <LongitudeDegrees>-4.38612713478505611419677734375</LongitudeDegrees>
            </Position>
            <AltitudeMeters>813.79998779296875</AltitudeMeters>
            <DistanceMeters>NAN</DistanceMeters>
          </Trackpoint>
          <Trackpoint>
            <Time>2020-12-05T09:34:45.000Z</Time>
            <Position>
              <LatitudeDegrees>36.81888573803007602691650390625</LatitudeDegrees>
              <LongitudeDegrees>-4.38613551668822765350341796875</LongitudeDegrees>
            </Position>
            <AltitudeMeters>813.5999755859375</AltitudeMeters>
            <DistanceMeters>NAN</DistanceMeters>
          </Trackpoint>
          <Trackpoint>
            <Time>2020-12-05T09:34:46.000Z</Time>
            <Position>
              <LatitudeDegrees>36.8188858218491077423095703125</LatitudeDegrees>
              <LongitudeDegrees>-4.38614222221076488494873046875</LongitudeDegrees>
            </Position>
            <AltitudeMeters>813.5999755859375</AltitudeMeters>
            <DistanceMeters>NAN</DistanceMeters>
          </Trackpoint>
          <Trackpoint>
            <Time>2020-12-05T09:34:47.000Z</Time>
            <Position>
              <LatitudeDegrees>36.818882636725902557373046875</LatitudeDegrees>
              <LongitudeDegrees>-4.386149346828460693359375</LongitudeDegrees>
            </Position>
            <AltitudeMeters>813.5999755859375</AltitudeMeters>
            <DistanceMeters>NAN</DistanceMeters>
          </Trackpoint>
          <Trackpoint>
            <Time>2020-12-05T09:34:48.000Z</Time>
            <Position>
              <LatitudeDegrees>36.8188784457743167877197265625</LatitudeDegrees>
              <LongitudeDegrees>-4.38615898601710796356201171875</LongitudeDegrees>
            </Position>
            <AltitudeMeters>813.5999755859375</AltitudeMeters>
            <DistanceMeters>NAN</DistanceMeters>
          </Trackpoint>
          <Trackpoint>
            <Time>2020-12-05T09:34:49.000Z</Time>
            <Position>
              <LatitudeDegrees>36.8188740871846675872802734375</LatitudeDegrees>
              <LongitudeDegrees>-4.38617407344281673431396484375</LongitudeDegrees>
            </Position>
            <AltitudeMeters>813.79998779296875</AltitudeMeters>
            <DistanceMeters>NAN</DistanceMeters>
          </Trackpoint>
          <Trackpoint>
            <Time>2020-12-05T09:34:50.000Z</Time>
            <Position>
              <LatitudeDegrees>36.81886578910052776336669921875</LatitudeDegrees>
              <LongitudeDegrees>-4.38619293272495269775390625</LongitudeDegrees>
            </Position>
            <AltitudeMeters>813.79998779296875</AltitudeMeters>
            <DistanceMeters>NAN</DistanceMeters>
          </Trackpoint>
          <Trackpoint>
            <Time>2020-12-05T09:34:51.000Z</Time>
            <Position>
              <LatitudeDegrees>36.81885589845478534698486328125</LatitudeDegrees>
              <LongitudeDegrees>-4.38620793633162975311279296875</LongitudeDegrees>
            </Position>
            <AltitudeMeters>814</AltitudeMeters>
            <DistanceMeters>NAN</DistanceMeters>
          </Trackpoint>
          <Trackpoint>
            <Time>2020-12-05T09:34:52.000Z</Time>
            <Position>
              <LatitudeDegrees>36.81884785182774066925048828125</LatitudeDegrees>
              <LongitudeDegrees>-4.38621883280575275421142578125</LongitudeDegrees>
            </Position>
            <AltitudeMeters>814</AltitudeMeters>
            <DistanceMeters>NAN</DistanceMeters>
          </Trackpoint>
          <Trackpoint>
            <Time>2020-12-05T09:34:53.000Z</Time>
            <Position>
              <LatitudeDegrees>36.818833686411380767822265625</LatitudeDegrees>
              <LongitudeDegrees>-4.38623392023146152496337890625</LongitudeDegrees>
            </Position>
            <AltitudeMeters>814</AltitudeMeters>
            <DistanceMeters>NAN</DistanceMeters>
          </Trackpoint>
          <Trackpoint>
            <Time>2020-12-05T09:34:54.000Z</Time>
            <Position>
              <LatitudeDegrees>36.8188231252133846282958984375</LatitudeDegrees>
              <LongitudeDegrees>-4.386244900524616241455078125</LongitudeDegrees>
            </Position>
            <AltitudeMeters>814.20001220703125</AltitudeMeters>
            <DistanceMeters>NAN</DistanceMeters>
          </Trackpoint>
          <Trackpoint>
            <Time>2020-12-05T09:34:55.000Z</Time>
            <Position>
              <LatitudeDegrees>36.818811893463134765625</LatitudeDegrees>
              <LongitudeDegrees>-4.386257641017436981201171875</LongitudeDegrees>
            </Position>
            <AltitudeMeters>813.79998779296875</AltitudeMeters>
            <DistanceMeters>NAN</DistanceMeters>
          </Trackpoint>
          <Trackpoint>
            <Time>2020-12-05T09:34:56.000Z</Time>
            <Position>
              <LatitudeDegrees>36.8187996558845043182373046875</LatitudeDegrees>
              <LongitudeDegrees>-4.38627381809055805206298828125</LongitudeDegrees>
            </Position>
            <AltitudeMeters>813.4000244140625</AltitudeMeters>
            <DistanceMeters>NAN</DistanceMeters>
          </Trackpoint>
          <Trackpoint>
            <Time>2020-12-05T09:34:57.000Z</Time>
            <Position>
              <LatitudeDegrees>36.81879001669585704803466796875</LatitudeDegrees>
              <LongitudeDegrees>-4.3862869776785373687744140625</LongitudeDegrees>
            </Position>
            <AltitudeMeters>813.20001220703125</AltitudeMeters>
            <DistanceMeters>NAN</DistanceMeters>
          </Trackpoint>
          <Trackpoint>
            <Time>2020-12-05T09:34:58.000Z</Time>
            <Position>
              <LatitudeDegrees>36.8187805451452732086181640625</LatitudeDegrees>
              <LongitudeDegrees>-4.3863000534474849700927734375</LongitudeDegrees>
            </Position>
            <AltitudeMeters>813.20001220703125</AltitudeMeters>
            <DistanceMeters>NAN</DistanceMeters>
          </Trackpoint>
          <Trackpoint>
            <Time>2020-12-05T09:34:59.000Z</Time>
            <Position>
              <LatitudeDegrees>36.81877241469919681549072265625</LatitudeDegrees>
              <LongitudeDegrees>-4.38630969263613224029541015625</LongitudeDegrees>
            </Position>
            <AltitudeMeters>813</AltitudeMeters>
            <DistanceMeters>NAN</DistanceMeters>
          </Trackpoint>
          <Trackpoint>
            <Time>2020-12-05T09:35:00.000Z</Time>
            <Position>
              <LatitudeDegrees>36.81876830756664276123046875</LatitudeDegrees>
              <LongitudeDegrees>-4.38631958328187465667724609375</LongitudeDegrees>
            </Position>
            <AltitudeMeters>813</AltitudeMeters>
            <DistanceMeters>NAN</DistanceMeters>
          </Trackpoint>
          <Trackpoint>
            <Time>2020-12-05T09:35:01.000Z</Time>
            <Position>
              <LatitudeDegrees>36.81876805610954761505126953125</LatitudeDegrees>
              <LongitudeDegrees>-4.3863303959369659423828125</LongitudeDegrees>
            </Position>
            <AltitudeMeters>812.79998779296875</AltitudeMeters>
            <DistanceMeters>NAN</DistanceMeters>
          </Trackpoint>
          <Trackpoint>
            <Time>2020-12-05T09:35:02.000Z</Time>
            <Position>
              <LatitudeDegrees>36.8187684752047061920166015625</LatitudeDegrees>
              <LongitudeDegrees>-4.38634238205850124359130859375</LongitudeDegrees>
            </Position>
            <AltitudeMeters>812.79998779296875</AltitudeMeters>
            <DistanceMeters>NAN</DistanceMeters>
          </Trackpoint>
          <Trackpoint>
            <Time>2020-12-05T09:35:03.000Z</Time>
            <Position>
              <LatitudeDegrees>36.81876587681472301483154296875</LatitudeDegrees>
              <LongitudeDegrees>-4.38635294325649738311767578125</LongitudeDegrees>
            </Position>
            <AltitudeMeters>812.79998779296875</AltitudeMeters>
            <DistanceMeters>NAN</DistanceMeters>
          </Trackpoint>
          <Trackpoint>
            <Time>2020-12-05T09:35:04.000Z</Time>
            <Position>
              <LatitudeDegrees>36.81876386515796184539794921875</LatitudeDegrees>
              <LongitudeDegrees>-4.38636853359639644622802734375</LongitudeDegrees>
            </Position>
            <AltitudeMeters>812.79998779296875</AltitudeMeters>
            <DistanceMeters>NAN</DistanceMeters>
          </Trackpoint>
          <Trackpoint>
            <Time>2020-12-05T09:35:05.000Z</Time>
            <Position>
              <LatitudeDegrees>36.81876520626246929168701171875</LatitudeDegrees>
              <LongitudeDegrees>-4.3863867223262786865234375</LongitudeDegrees>
            </Position>
            <AltitudeMeters>812.79998779296875</AltitudeMeters>
            <DistanceMeters>NAN</DistanceMeters>
          </Trackpoint>
          <Trackpoint>
            <Time>2020-12-05T09:35:06.000Z</Time>
            <Position>
              <LatitudeDegrees>36.8187657929956912994384765625</LatitudeDegrees>
              <LongitudeDegrees>-4.3864049948751926422119140625</LongitudeDegrees>
            </Position>
            <AltitudeMeters>812.79998779296875</AltitudeMeters>
            <DistanceMeters>NAN</DistanceMeters>
          </Trackpoint>
          <Trackpoint>
            <Time>2020-12-05T09:35:07.000Z</Time>
            <Position>
              <LatitudeDegrees>36.81876428425312042236328125</LatitudeDegrees>
              <LongitudeDegrees>-4.38642737455666065216064453125</LongitudeDegrees>
            </Position>
            <AltitudeMeters>812.79998779296875</AltitudeMeters>
            <DistanceMeters>NAN</DistanceMeters>
          </Trackpoint>
          <Trackpoint>
            <Time>2020-12-05T09:35:08.000Z</Time>
            <Position>
              <LatitudeDegrees>36.81876453571021556854248046875</LatitudeDegrees>
              <LongitudeDegrees>-4.38644497655332088470458984375</LongitudeDegrees>
            </Position>
            <AltitudeMeters>813</AltitudeMeters>
            <DistanceMeters>NAN</DistanceMeters>
          </Trackpoint>
          <Trackpoint>
            <Time>2020-12-05T09:35:09.000Z</Time>
            <Position>
              <LatitudeDegrees>36.8187634460628032684326171875</LatitudeDegrees>
              <LongitudeDegrees>-4.3864613212645053863525390625</LongitudeDegrees>
            </Position>
            <AltitudeMeters>813</AltitudeMeters>
            <DistanceMeters>NAN</DistanceMeters>
          </Trackpoint>
          <Trackpoint>
            <Time>2020-12-05T09:35:10.000Z</Time>
            <Position>
              <LatitudeDegrees>36.81876520626246929168701171875</LatitudeDegrees>
              <LongitudeDegrees>-4.38647045753896236419677734375</LongitudeDegrees>
            </Position>
            <AltitudeMeters>813.20001220703125</AltitudeMeters>
            <DistanceMeters>NAN</DistanceMeters>
          </Trackpoint>
          <Trackpoint>
            <Time>2020-12-05T09:35:11.000Z</Time>
            <Position>
              <LatitudeDegrees>36.8187698163092136383056640625</LatitudeDegrees>
              <LongitudeDegrees>-4.38647716306149959564208984375</LongitudeDegrees>
            </Position>
            <AltitudeMeters>813.20001220703125</AltitudeMeters>
            <DistanceMeters>NAN</DistanceMeters>
          </Trackpoint>
          <Trackpoint>
            <Time>2020-12-05T09:35:12.000Z</Time>
            <Position>
              <LatitudeDegrees>36.81877233088016510009765625</LatitudeDegrees>
              <LongitudeDegrees>-4.38648487441241741180419921875</LongitudeDegrees>
            </Position>
            <AltitudeMeters>813.4000244140625</AltitudeMeters>
            <DistanceMeters>NAN</DistanceMeters>
          </Trackpoint>
          <Trackpoint>
            <Time>2020-12-05T09:35:13.000Z</Time>
            <Position>
              <LatitudeDegrees>36.81877476163208484649658203125</LatitudeDegrees>
              <LongitudeDegrees>-4.3864945136010646820068359375</LongitudeDegrees>
            </Position>
            <AltitudeMeters>813.5999755859375</AltitudeMeters>
            <DistanceMeters>NAN</DistanceMeters>
          </Trackpoint>
          <Trackpoint>
            <Time>2020-12-05T09:35:14.000Z</Time>
            <Position>
              <LatitudeDegrees>36.81877895258367061614990234375</LatitudeDegrees>
              <LongitudeDegrees>-4.38650608062744140625</LongitudeDegrees>
            </Position>
            <AltitudeMeters>813.79998779296875</AltitudeMeters>
            <DistanceMeters>NAN</DistanceMeters>
          </Trackpoint>
          <Trackpoint>
            <Time>2020-12-05T09:35:15.000Z</Time>
            <Position>
              <LatitudeDegrees>36.818780712783336639404296875</LatitudeDegrees>
              <LongitudeDegrees>-4.3865173123776912689208984375</LongitudeDegrees>
            </Position>
            <AltitudeMeters>814</AltitudeMeters>
            <DistanceMeters>NAN</DistanceMeters>
          </Trackpoint>
          <Trackpoint>
            <Time>2020-12-05T09:35:16.000Z</Time>
            <Position>
              <LatitudeDegrees>36.81878079660236835479736328125</LatitudeDegrees>
              <LongitudeDegrees>-4.386528544127941131591796875</LongitudeDegrees>
            </Position>
            <AltitudeMeters>814.20001220703125</AltitudeMeters>
            <DistanceMeters>NAN</DistanceMeters>
          </Trackpoint>
          <Trackpoint>
            <Time>2020-12-05T09:35:17.000Z</Time>
            <Position>
              <LatitudeDegrees>36.81878113187849521636962890625</LatitudeDegrees>
              <LongitudeDegrees>-4.38653768040239810943603515625</LongitudeDegrees>
            </Position>
            <AltitudeMeters>814.20001220703125</AltitudeMeters>
            <DistanceMeters>NAN</DistanceMeters>
          </Trackpoint>
          <Trackpoint>
            <Time>2020-12-05T09:35:18.000Z</Time>
            <Position>
              <LatitudeDegrees>36.81878037750720977783203125</LatitudeDegrees>
              <LongitudeDegrees>-4.3865468166768550872802734375</LongitudeDegrees>
            </Position>
            <AltitudeMeters>814.4000244140625</AltitudeMeters>
            <DistanceMeters>NAN</DistanceMeters>
          </Trackpoint>
          <Trackpoint>
            <Time>2020-12-05T09:35:19.000Z</Time>
            <Position>
              <LatitudeDegrees>36.81878146715462207794189453125</LatitudeDegrees>
              <LongitudeDegrees>-4.3865582160651683807373046875</LongitudeDegrees>
            </Position>
            <AltitudeMeters>814.20001220703125</AltitudeMeters>
            <DistanceMeters>NAN</DistanceMeters>
          </Trackpoint>
          <Trackpoint>
            <Time>2020-12-05T09:35:20.000Z</Time>
            <Position>
              <LatitudeDegrees>36.81878213770687580108642578125</LatitudeDegrees>
              <LongitudeDegrees>-4.3865686096251010894775390625</LongitudeDegrees>
            </Position>
            <AltitudeMeters>814.20001220703125</AltitudeMeters>
            <DistanceMeters>NAN</DistanceMeters>
          </Trackpoint>
          <Trackpoint>
            <Time>2020-12-05T09:35:21.000Z</Time>
            <Position>
              <LatitudeDegrees>36.8187785334885120391845703125</LatitudeDegrees>
              <LongitudeDegrees>-4.38658746890723705291748046875</LongitudeDegrees>
            </Position>
            <AltitudeMeters>814.4000244140625</AltitudeMeters>
            <DistanceMeters>NAN</DistanceMeters>
          </Trackpoint>
          <Trackpoint>
            <Time>2020-12-05T09:35:22.000Z</Time>
            <Position>
              <LatitudeDegrees>36.818779371678829193115234375</LatitudeDegrees>
              <LongitudeDegrees>-4.3866004608571529388427734375</LongitudeDegrees>
            </Position>
            <AltitudeMeters>814.4000244140625</AltitudeMeters>
            <DistanceMeters>NAN</DistanceMeters>
          </Trackpoint>
          <Trackpoint>
            <Time>2020-12-05T09:35:23.000Z</Time>
            <Position>
              <LatitudeDegrees>36.8187815509736537933349609375</LatitudeDegrees>
              <LongitudeDegrees>-4.38661462627351284027099609375</LongitudeDegrees>
            </Position>
            <AltitudeMeters>814.4000244140625</AltitudeMeters>
            <DistanceMeters>NAN</DistanceMeters>
          </Trackpoint>
          <Trackpoint>
            <Time>2020-12-05T09:35:24.000Z</Time>
            <Position>
              <LatitudeDegrees>36.81878599338233470916748046875</LatitudeDegrees>
              <LongitudeDegrees>-4.38663289882242679595947265625</LongitudeDegrees>
            </Position>
            <AltitudeMeters>814.5999755859375</AltitudeMeters>
            <DistanceMeters>NAN</DistanceMeters>
          </Trackpoint>
          <Trackpoint>
            <Time>2020-12-05T09:35:25.000Z</Time>
            <Position>
              <LatitudeDegrees>36.81878884322941303253173828125</LatitudeDegrees>
              <LongitudeDegrees>-4.3866549432277679443359375</LongitudeDegrees>
            </Position>
            <AltitudeMeters>814.5999755859375</AltitudeMeters>
            <DistanceMeters>NAN</DistanceMeters>
          </Trackpoint>
          <Trackpoint>
            <Time>2020-12-05T09:35:26.000Z</Time>
            <Position>
              <LatitudeDegrees>36.81879370473325252532958984375</LatitudeDegrees>
              <LongitudeDegrees>-4.38667329959571361541748046875</LongitudeDegrees>
            </Position>
            <AltitudeMeters>814.5999755859375</AltitudeMeters>
            <DistanceMeters>NAN</DistanceMeters>
          </Trackpoint>
          <Trackpoint>
            <Time>2020-12-05T09:35:27.000Z</Time>
            <Position>
              <LatitudeDegrees>36.81879739277064800262451171875</LatitudeDegrees>
              <LongitudeDegrees>-4.3866846151649951934814453125</LongitudeDegrees>
            </Position>
            <AltitudeMeters>814.79998779296875</AltitudeMeters>
            <DistanceMeters>NAN</DistanceMeters>
          </Trackpoint>
          <Trackpoint>
            <Time>2020-12-05T09:35:28.000Z</Time>
            <Position>
              <LatitudeDegrees>36.81880007497966289520263671875</LatitudeDegrees>
              <LongitudeDegrees>-4.38669308088719844818115234375</LongitudeDegrees>
            </Position>
            <AltitudeMeters>814.79998779296875</AltitudeMeters>
            <DistanceMeters>NAN</DistanceMeters>
          </Trackpoint>
          <Trackpoint>
            <Time>2020-12-05T09:35:29.000Z</Time>
            <Position>
              <LatitudeDegrees>36.818800829350948333740234375</LatitudeDegrees>
              <LongitudeDegrees>-4.3867032229900360107421875</LongitudeDegrees>
            </Position>
            <AltitudeMeters>815</AltitudeMeters>
            <DistanceMeters>NAN</DistanceMeters>
          </Trackpoint>
          <Trackpoint>
            <Time>2020-12-05T09:35:30.000Z</Time>
            <Position>
              <LatitudeDegrees>36.81880376301705837249755859375</LatitudeDegrees>
              <LongitudeDegrees>-4.38670867122709751129150390625</LongitudeDegrees>
            </Position>
            <AltitudeMeters>815.20001220703125</AltitudeMeters>
            <DistanceMeters>NAN</DistanceMeters>
          </Trackpoint>
          <Trackpoint>
            <Time>2020-12-05T09:35:31.000Z</Time>
            <Position>
              <LatitudeDegrees>36.81880610994994640350341796875</LatitudeDegrees>
              <LongitudeDegrees>-4.38671655021607875823974609375</LongitudeDegrees>
            </Position>
            <AltitudeMeters>815.4000244140625</AltitudeMeters>
            <DistanceMeters>NAN</DistanceMeters>
          </Trackpoint>
          <Trackpoint>
            <Time>2020-12-05T09:35:32.000Z</Time>
            <Position>
              <LatitudeDegrees>36.81881197728216648101806640625</LatitudeDegrees>
              <LongitudeDegrees>-4.38672761432826519012451171875</LongitudeDegrees>
            </Position>
            <AltitudeMeters>815.5999755859375</AltitudeMeters>
            <DistanceMeters>NAN</DistanceMeters>
          </Trackpoint>
          <Trackpoint>
            <Time>2020-12-05T09:35:33.000Z</Time>
            <Position>
              <LatitudeDegrees>36.81881817989051342010498046875</LatitudeDegrees>
              <LongitudeDegrees>-4.38673817552626132965087890625</LongitudeDegrees>
            </Position>
            <AltitudeMeters>815.5999755859375</AltitudeMeters>
            <DistanceMeters>NAN</DistanceMeters>
          </Trackpoint>
          <Trackpoint>
            <Time>2020-12-05T09:35:34.000Z</Time>
            <Position>
              <LatitudeDegrees>36.8188226222991943359375</LatitudeDegrees>
              <LongitudeDegrees>-4.38674991019070148468017578125</LongitudeDegrees>
            </Position>
            <AltitudeMeters>815.79998779296875</AltitudeMeters>
            <DistanceMeters>NAN</DistanceMeters>
          </Trackpoint>
          <Trackpoint>
            <Time>2020-12-05T09:35:35.000Z</Time>
            <Position>
              <LatitudeDegrees>36.81882102973759174346923828125</LatitudeDegrees>
              <LongitudeDegrees>-4.38677019439637660980224609375</LongitudeDegrees>
            </Position>
            <AltitudeMeters>815.79998779296875</AltitudeMeters>
            <DistanceMeters>NAN</DistanceMeters>
          </Trackpoint>
          <Trackpoint>
            <Time>2020-12-05T09:35:36.000Z</Time>
            <Position>
              <LatitudeDegrees>36.81881801225244998931884765625</LatitudeDegrees>
              <LongitudeDegrees>-4.38679232262074947357177734375</LongitudeDegrees>
            </Position>
            <AltitudeMeters>815.79998779296875</AltitudeMeters>
            <DistanceMeters>NAN</DistanceMeters>
          </Trackpoint>
          <Trackpoint>
            <Time>2020-12-05T09:35:37.000Z</Time>
            <Position>
              <LatitudeDegrees>36.81881792843341827392578125</LatitudeDegrees>
              <LongitudeDegrees>-4.386813528835773468017578125</LongitudeDegrees>
            </Position>
            <AltitudeMeters>816</AltitudeMeters>
            <DistanceMeters>NAN</DistanceMeters>
          </Trackpoint>
          <Trackpoint>
            <Time>2020-12-05T09:35:38.000Z</Time>
            <Position>
              <LatitudeDegrees>36.8188239634037017822265625</LatitudeDegrees>
              <LongitudeDegrees>-4.38683272339403629302978515625</LongitudeDegrees>
            </Position>
            <AltitudeMeters>816.20001220703125</AltitudeMeters>
            <DistanceMeters>NAN</DistanceMeters>
          </Trackpoint>
          <Trackpoint>
            <Time>2020-12-05T09:35:39.000Z</Time>
            <Position>
              <LatitudeDegrees>36.8188318423926830291748046875</LatitudeDegrees>
              <LongitudeDegrees>-4.3868438713252544403076171875</LongitudeDegrees>
            </Position>
            <AltitudeMeters>816.5999755859375</AltitudeMeters>
            <DistanceMeters>NAN</DistanceMeters>
          </Trackpoint>
          <Trackpoint>
            <Time>2020-12-05T09:35:40.000Z</Time>
            <Position>
              <LatitudeDegrees>36.818845756351947784423828125</LatitudeDegrees>
              <LongitudeDegrees>-4.3868542648851871490478515625</LongitudeDegrees>
            </Position>
            <AltitudeMeters>816.79998779296875</AltitudeMeters>
            <DistanceMeters>NAN</DistanceMeters>
          </Trackpoint>
          <Trackpoint>
            <Time>2020-12-05T09:35:41.000Z</Time>
            <Position>
              <LatitudeDegrees>36.818857491016387939453125</LatitudeDegrees>
              <LongitudeDegrees>-4.38686524517834186553955078125</LongitudeDegrees>
            </Position>
            <AltitudeMeters>817</AltitudeMeters>
            <DistanceMeters>NAN</DistanceMeters>
          </Trackpoint>
          <Trackpoint>
            <Time>2020-12-05T09:35:42.000Z</Time>
            <Position>
              <LatitudeDegrees>36.8188667111098766326904296875</LatitudeDegrees>
              <LongitudeDegrees>-4.38687421381473541259765625</LongitudeDegrees>
            </Position>
            <AltitudeMeters>817</AltitudeMeters>
            <DistanceMeters>NAN</DistanceMeters>
          </Trackpoint>
          <Trackpoint>
            <Time>2020-12-05T09:35:43.000Z</Time>
            <Position>
              <LatitudeDegrees>36.81887333281338214874267578125</LatitudeDegrees>
              <LongitudeDegrees>-4.38687765039503574371337890625</LongitudeDegrees>
            </Position>
            <AltitudeMeters>817.20001220703125</AltitudeMeters>
            <DistanceMeters>NAN</DistanceMeters>
          </Trackpoint>
          <Trackpoint>
            <Time>2020-12-05T09:35:44.000Z</Time>
            <Position>
              <LatitudeDegrees>36.81887559592723846435546875</LatitudeDegrees>
              <LongitudeDegrees>-4.38688385300338268280029296875</LongitudeDegrees>
            </Position>
            <AltitudeMeters>817.4000244140625</AltitudeMeters>
            <DistanceMeters>NAN</DistanceMeters>
          </Trackpoint>
          <Trackpoint>
            <Time>2020-12-05T09:35:45.000Z</Time>
            <Position>
              <LatitudeDegrees>36.818874590098857879638671875</LatitudeDegrees>
              <LongitudeDegrees>-4.38689340837299823760986328125</LongitudeDegrees>
            </Position>
            <AltitudeMeters>817.4000244140625</AltitudeMeters>
            <DistanceMeters>NAN</DistanceMeters>
          </Trackpoint>
          <Trackpoint>
            <Time>2020-12-05T09:35:46.000Z</Time>
            <Position>
              <LatitudeDegrees>36.81887467391788959503173828125</LatitudeDegrees>
              <LongitudeDegrees>-4.38690514303743839263916015625</LongitudeDegrees>
            </Position>
            <AltitudeMeters>817.5999755859375</AltitudeMeters>
            <DistanceMeters>NAN</DistanceMeters>
          </Trackpoint>
          <Trackpoint>
            <Time>2020-12-05T09:35:47.000Z</Time>
            <Position>
              <LatitudeDegrees>36.81887551210820674896240234375</LatitudeDegrees>
              <LongitudeDegrees>-4.38691704533994197845458984375</LongitudeDegrees>
            </Position>
            <AltitudeMeters>817.5999755859375</AltitudeMeters>
            <DistanceMeters>NAN</DistanceMeters>
          </Trackpoint>
          <Trackpoint>
            <Time>2020-12-05T09:35:48.000Z</Time>
            <Position>
              <LatitudeDegrees>36.818877272307872772216796875</LatitudeDegrees>
              <LongitudeDegrees>-4.38693188130855560302734375</LongitudeDegrees>
            </Position>
            <AltitudeMeters>817.79998779296875</AltitudeMeters>
            <DistanceMeters>NAN</DistanceMeters>
          </Trackpoint>
          <Trackpoint>
            <Time>2020-12-05T09:35:49.000Z</Time>
            <Position>
              <LatitudeDegrees>36.81887819431722164154052734375</LatitudeDegrees>
              <LongitudeDegrees>-4.38694923184812068939208984375</LongitudeDegrees>
            </Position>
            <AltitudeMeters>818</AltitudeMeters>
            <DistanceMeters>NAN</DistanceMeters>
          </Trackpoint>
          <Trackpoint>
            <Time>2020-12-05T09:35:50.000Z</Time>
            <Position>
              <LatitudeDegrees>36.81888355873525142669677734375</LatitudeDegrees>
              <LongitudeDegrees>-4.386964738368988037109375</LongitudeDegrees>
            </Position>
            <AltitudeMeters>818</AltitudeMeters>
            <DistanceMeters>NAN</DistanceMeters>
          </Trackpoint>
          <Trackpoint>
            <Time>2020-12-05T09:35:51.000Z</Time>
            <Position>
              <LatitudeDegrees>36.818890683352947235107421875</LatitudeDegrees>
              <LongitudeDegrees>-4.38698343001306056976318359375</LongitudeDegrees>
            </Position>
            <AltitudeMeters>818.20001220703125</AltitudeMeters>
            <DistanceMeters>NAN</DistanceMeters>
          </Trackpoint>
          <Trackpoint>
            <Time>2020-12-05T09:35:52.000Z</Time>
            <Position>
              <LatitudeDegrees>36.81889847852289676666259765625</LatitudeDegrees>
              <LongitudeDegrees>-4.38699985854327678680419921875</LongitudeDegrees>
            </Position>
            <AltitudeMeters>818.4000244140625</AltitudeMeters>
            <DistanceMeters>NAN</DistanceMeters>
          </Trackpoint>
          <Trackpoint>
            <Time>2020-12-05T09:35:53.000Z</Time>
            <Position>
              <LatitudeDegrees>36.818905770778656005859375</LatitudeDegrees>
              <LongitudeDegrees>-4.3870108388364315032958984375</LongitudeDegrees>
            </Position>
            <AltitudeMeters>818.5999755859375</AltitudeMeters>
            <DistanceMeters>NAN</DistanceMeters>
          </Trackpoint>
          <Trackpoint>
            <Time>2020-12-05T09:35:54.000Z</Time>
            <Position>
              <LatitudeDegrees>36.81891339831054210662841796875</LatitudeDegrees>
              <LongitudeDegrees>-4.38701980747282505035400390625</LongitudeDegrees>
            </Position>
            <AltitudeMeters>818.79998779296875</AltitudeMeters>
            <DistanceMeters>NAN</DistanceMeters>
          </Trackpoint>
          <Trackpoint>
            <Time>2020-12-05T09:35:55.000Z</Time>
            <Position>
              <LatitudeDegrees>36.81891691870987415313720703125</LatitudeDegrees>
              <LongitudeDegrees>-4.3870262615382671356201171875</LongitudeDegrees>
            </Position>
            <AltitudeMeters>819</AltitudeMeters>
            <DistanceMeters>NAN</DistanceMeters>
          </Trackpoint>
          <Trackpoint>
            <Time>2020-12-05T09:35:56.000Z</Time>
            <Position>
              <LatitudeDegrees>36.81891725398600101470947265625</LatitudeDegrees>
              <LongitudeDegrees>-4.38703187741339206695556640625</LongitudeDegrees>
            </Position>
            <AltitudeMeters>819</AltitudeMeters>
            <DistanceMeters>NAN</DistanceMeters>
          </Trackpoint>
          <Trackpoint>
            <Time>2020-12-05T09:35:57.000Z</Time>
            <Position>
              <LatitudeDegrees>36.8189183436334133148193359375</LatitudeDegrees>
              <LongitudeDegrees>-4.3870339728891849517822265625</LongitudeDegrees>
            </Position>
            <AltitudeMeters>819</AltitudeMeters>
            <DistanceMeters>NAN</DistanceMeters>
          </Trackpoint>
          <Trackpoint>
            <Time>2020-12-05T09:35:58.000Z</Time>
            <Position>
              <LatitudeDegrees>36.81891725398600101470947265625</LatitudeDegrees>
              <LongitudeDegrees>-4.3870396725833415985107421875</LongitudeDegrees>
            </Position>
            <AltitudeMeters>819</AltitudeMeters>
            <DistanceMeters>NAN</DistanceMeters>
          </Trackpoint>
          <Trackpoint>
            <Time>2020-12-05T09:35:59.000Z</Time>
            <Position>
              <LatitudeDegrees>36.81891658343374729156494140625</LatitudeDegrees>
              <LongitudeDegrees>-4.38704947941005229949951171875</LongitudeDegrees>
            </Position>
            <AltitudeMeters>818.5999755859375</AltitudeMeters>
            <DistanceMeters>NAN</DistanceMeters>
          </Trackpoint>
          <Trackpoint>
            <Time>2020-12-05T09:36:00.000Z</Time>
            <Position>
              <LatitudeDegrees>36.8189223669469356536865234375</LatitudeDegrees>
              <LongitudeDegrees>-4.3870574422180652618408203125</LongitudeDegrees>
            </Position>
            <AltitudeMeters>818.4000244140625</AltitudeMeters>
            <DistanceMeters>NAN</DistanceMeters>
          </Trackpoint>
          <Trackpoint>
            <Time>2020-12-05T09:36:01.000Z</Time>
            <Position>
              <LatitudeDegrees>36.8189304135739803314208984375</LatitudeDegrees>
              <LongitudeDegrees>-4.38706322573125362396240234375</LongitudeDegrees>
            </Position>
            <AltitudeMeters>818.4000244140625</AltitudeMeters>
            <DistanceMeters>NAN</DistanceMeters>
          </Trackpoint>
          <Trackpoint>
            <Time>2020-12-05T09:36:02.000Z</Time>
            <Position>
              <LatitudeDegrees>36.81893720291554927825927734375</LatitudeDegrees>
              <LongitudeDegrees>-4.387070350348949432373046875</LongitudeDegrees>
            </Position>
            <AltitudeMeters>818.20001220703125</AltitudeMeters>
            <DistanceMeters>NAN</DistanceMeters>
          </Trackpoint>
          <Trackpoint>
            <Time>2020-12-05T09:36:03.000Z</Time>
            <Position>
              <LatitudeDegrees>36.81893887929618358612060546875</LatitudeDegrees>
              <LongitudeDegrees>-4.38707915134727954864501953125</LongitudeDegrees>
            </Position>
            <AltitudeMeters>818.20001220703125</AltitudeMeters>
            <DistanceMeters>NAN</DistanceMeters>
          </Trackpoint>
          <Trackpoint>
            <Time>2020-12-05T09:36:04.000Z</Time>
            <Position>
              <LatitudeDegrees>36.818936951458454132080078125</LatitudeDegrees>
              <LongitudeDegrees>-4.3870876170694828033447265625</LongitudeDegrees>
            </Position>
            <AltitudeMeters>818</AltitudeMeters>
            <DistanceMeters>NAN</DistanceMeters>
          </Trackpoint>
          <Trackpoint>
            <Time>2020-12-05T09:36:05.000Z</Time>
            <Position>
              <LatitudeDegrees>36.81893485598266124725341796875</LatitudeDegrees>
              <LongitudeDegrees>-4.38708879053592681884765625</LongitudeDegrees>
            </Position>
            <AltitudeMeters>818</AltitudeMeters>
            <DistanceMeters>NAN</DistanceMeters>
          </Trackpoint>
          <Trackpoint>
            <Time>2020-12-05T09:36:06.000Z</Time>
            <Position>
              <LatitudeDegrees>36.818930245935916900634765625</LatitudeDegrees>
              <LongitudeDegrees>-4.38708853907883167266845703125</LongitudeDegrees>
            </Position>
            <AltitudeMeters>817.79998779296875</AltitudeMeters>
            <DistanceMeters>NAN</DistanceMeters>
          </Trackpoint>
          <Trackpoint>
            <Time>2020-12-05T09:36:07.000Z</Time>
            <Position>
              <LatitudeDegrees>36.818926222622394561767578125</LatitudeDegrees>
              <LongitudeDegrees>-4.38708971254527568817138671875</LongitudeDegrees>
            </Position>
            <AltitudeMeters>817.5999755859375</AltitudeMeters>
            <DistanceMeters>NAN</DistanceMeters>
          </Trackpoint>
          <Trackpoint>
            <Time>2020-12-05T09:36:08.000Z</Time>
            <Position>
              <LatitudeDegrees>36.8189280666410923004150390625</LatitudeDegrees>
              <LongitudeDegrees>-4.3870929814875125885009765625</LongitudeDegrees>
            </Position>
            <AltitudeMeters>817.4000244140625</AltitudeMeters>
            <DistanceMeters>NAN</DistanceMeters>
          </Trackpoint>
          <Trackpoint>
            <Time>2020-12-05T09:36:09.000Z</Time>
            <Position>
              <LatitudeDegrees>36.8189327605068683624267578125</LatitudeDegrees>
              <LongitudeDegrees>-4.387099184095859527587890625</LongitudeDegrees>
            </Position>
            <AltitudeMeters>817.20001220703125</AltitudeMeters>
            <DistanceMeters>NAN</DistanceMeters>
          </Trackpoint>
          <Trackpoint>
            <Time>2020-12-05T09:36:10.000Z</Time>
            <Position>
              <LatitudeDegrees>36.81893066503107547760009765625</LatitudeDegrees>
              <LongitudeDegrees>-4.3871028721332550048828125</LongitudeDegrees>
            </Position>
            <AltitudeMeters>817.20001220703125</AltitudeMeters>
            <DistanceMeters>NAN</DistanceMeters>
          </Trackpoint>
          <Trackpoint>
            <Time>2020-12-05T09:36:11.000Z</Time>
            <Position>
              <LatitudeDegrees>36.81892965920269489288330078125</LatitudeDegrees>
              <LongitudeDegrees>-4.38711016438901424407958984375</LongitudeDegrees>
            </Position>
            <AltitudeMeters>817.20001220703125</AltitudeMeters>
            <DistanceMeters>NAN</DistanceMeters>
          </Trackpoint>
          <Trackpoint>
            <Time>2020-12-05T09:36:12.000Z</Time>
            <Position>
              <LatitudeDegrees>36.81892680935561656951904296875</LatitudeDegrees>
              <LongitudeDegrees>-4.38711837865412235260009765625</LongitudeDegrees>
            </Position>
            <AltitudeMeters>817.4000244140625</AltitudeMeters>
            <DistanceMeters>NAN</DistanceMeters>
          </Trackpoint>
          <Trackpoint>
            <Time>2020-12-05T09:36:13.000Z</Time>
            <Position>
              <LatitudeDegrees>36.81892731226980686187744140625</LatitudeDegrees>
              <LongitudeDegrees>-4.3871301971375942230224609375</LongitudeDegrees>
            </Position>
            <AltitudeMeters>817.4000244140625</AltitudeMeters>
            <DistanceMeters>NAN</DistanceMeters>
          </Trackpoint>
          <Trackpoint>
            <Time>2020-12-05T09:36:14.000Z</Time>
            <Position>
              <LatitudeDegrees>36.81892521679401397705078125</LatitudeDegrees>
              <LongitudeDegrees>-4.38714645802974700927734375</LongitudeDegrees>
            </Position>
            <AltitudeMeters>817.4000244140625</AltitudeMeters>
            <DistanceMeters>NAN</DistanceMeters>
          </Trackpoint>
          <Trackpoint>
            <Time>2020-12-05T09:36:15.000Z</Time>
            <Position>
              <LatitudeDegrees>36.818922869861125946044921875</LatitudeDegrees>
              <LongitudeDegrees>-4.38716514967381954193115234375</LongitudeDegrees>
            </Position>
            <AltitudeMeters>817.4000244140625</AltitudeMeters>
            <DistanceMeters>NAN</DistanceMeters>
          </Trackpoint>
          <Trackpoint>
            <Time>2020-12-05T09:36:16.000Z</Time>
            <Position>
              <LatitudeDegrees>36.8189203552901744842529296875</LatitudeDegrees>
              <LongitudeDegrees>-4.3871784768998622894287109375</LongitudeDegrees>
            </Position>
            <AltitudeMeters>817.4000244140625</AltitudeMeters>
            <DistanceMeters>NAN</DistanceMeters>
          </Trackpoint>
          <Trackpoint>
            <Time>2020-12-05T09:36:17.000Z</Time>
            <Position>
              <LatitudeDegrees>36.81891473941504955291748046875</LatitudeDegrees>
              <LongitudeDegrees>-4.38718593679368495941162109375</LongitudeDegrees>
            </Position>
            <AltitudeMeters>817.4000244140625</AltitudeMeters>
            <DistanceMeters>NAN</DistanceMeters>
          </Trackpoint>
          <Trackpoint>
            <Time>2020-12-05T09:36:18.000Z</Time>
            <Position>
              <LatitudeDegrees>36.81890912353992462158203125</LatitudeDegrees>
              <LongitudeDegrees>-4.38719272613525390625</LongitudeDegrees>
            </Position>
            <AltitudeMeters>817</AltitudeMeters>
            <DistanceMeters>NAN</DistanceMeters>
          </Trackpoint>
          <Trackpoint>
            <Time>2020-12-05T09:36:19.000Z</Time>
            <Position>
              <LatitudeDegrees>36.81890702806413173675537109375</LatitudeDegrees>
              <LongitudeDegrees>-4.3871952407062053680419921875</LongitudeDegrees>
            </Position>
            <AltitudeMeters>816.5999755859375</AltitudeMeters>
            <DistanceMeters>NAN</DistanceMeters>
          </Trackpoint>
          <Trackpoint>
            <Time>2020-12-05T09:36:20.000Z</Time>
            <Position>
              <LatitudeDegrees>36.81890568695962429046630859375</LatitudeDegrees>
              <LongitudeDegrees>-4.3871967494487762451171875</LongitudeDegrees>
            </Position>
            <AltitudeMeters>816.20001220703125</AltitudeMeters>
            <DistanceMeters>NAN</DistanceMeters>
          </Trackpoint>
          <Trackpoint>
            <Time>2020-12-05T09:36:21.000Z</Time>
            <Position>
              <LatitudeDegrees>36.8189042620360851287841796875</LatitudeDegrees>
              <LongitudeDegrees>-4.38719733618199825286865234375</LongitudeDegrees>
            </Position>
            <AltitudeMeters>816.20001220703125</AltitudeMeters>
            <DistanceMeters>NAN</DistanceMeters>
          </Trackpoint>
          <Trackpoint>
            <Time>2020-12-05T09:36:22.000Z</Time>
            <Position>
              <LatitudeDegrees>36.81890183128416538238525390625</LatitudeDegrees>
              <LongitudeDegrees>-4.3871982581913471221923828125</LongitudeDegrees>
            </Position>
            <AltitudeMeters>816.20001220703125</AltitudeMeters>
            <DistanceMeters>NAN</DistanceMeters>
          </Trackpoint>
          <Trackpoint>
            <Time>2020-12-05T09:36:23.000Z</Time>
            <Position>
              <LatitudeDegrees>36.81890183128416538238525390625</LatitudeDegrees>
              <LongitudeDegrees>-4.38720320351421833038330078125</LongitudeDegrees>
            </Position>
            <AltitudeMeters>816.20001220703125</AltitudeMeters>
            <DistanceMeters>NAN</DistanceMeters>
          </Trackpoint>
          <Trackpoint>
            <Time>2020-12-05T09:36:24.000Z</Time>
            <Position>
              <LatitudeDegrees>36.81889973580837249755859375</LatitudeDegrees>
              <LongitudeDegrees>-4.38721024431288242340087890625</LongitudeDegrees>
            </Position>
            <AltitudeMeters>816.20001220703125</AltitudeMeters>
            <DistanceMeters>NAN</DistanceMeters>
          </Trackpoint>
          <Trackpoint>
            <Time>2020-12-05T09:36:25.000Z</Time>
            <Position>
              <LatitudeDegrees>36.81889881379902362823486328125</LatitudeDegrees>
              <LongitudeDegrees>-4.38721158541738986968994140625</LongitudeDegrees>
            </Position>
            <AltitudeMeters>816.20001220703125</AltitudeMeters>
            <DistanceMeters>NAN</DistanceMeters>
          </Trackpoint>
          <Trackpoint>
            <Time>2020-12-05T09:36:26.000Z</Time>
            <Position>
              <LatitudeDegrees>36.818896718323230743408203125</LatitudeDegrees>
              <LongitudeDegrees>-4.3872130103409290313720703125</LongitudeDegrees>
            </Position>
            <AltitudeMeters>815.79998779296875</AltitudeMeters>
            <DistanceMeters>NAN</DistanceMeters>
          </Trackpoint>
          <Trackpoint>
            <Time>2020-12-05T09:36:27.000Z</Time>
            <Position>
              <LatitudeDegrees>36.81888900697231292724609375</LatitudeDegrees>
              <LongitudeDegrees>-4.38721376471221446990966796875</LongitudeDegrees>
            </Position>
            <AltitudeMeters>815.20001220703125</AltitudeMeters>
            <DistanceMeters>NAN</DistanceMeters>
          </Trackpoint>
          <Trackpoint>
            <Time>2020-12-05T09:36:28.000Z</Time>
            <Position>
              <LatitudeDegrees>36.81888003833591938018798828125</LatitudeDegrees>
              <LongitudeDegrees>-4.387211501598358154296875</LongitudeDegrees>
            </Position>
            <AltitudeMeters>815</AltitudeMeters>
            <DistanceMeters>NAN</DistanceMeters>
          </Trackpoint>
          <Trackpoint>
            <Time>2020-12-05T09:36:29.000Z</Time>
            <Position>
              <LatitudeDegrees>36.818873919546604156494140625</LatitudeDegrees>
              <LongitudeDegrees>-4.38721158541738986968994140625</LongitudeDegrees>
            </Position>
            <AltitudeMeters>814.79998779296875</AltitudeMeters>
            <DistanceMeters>NAN</DistanceMeters>
          </Trackpoint>
          <Trackpoint>
            <Time>2020-12-05T09:36:30.000Z</Time>
            <Position>
              <LatitudeDegrees>36.8188693933188915252685546875</LatitudeDegrees>
              <LongitudeDegrees>-4.387208484113216400146484375</LongitudeDegrees>
            </Position>
            <AltitudeMeters>814.79998779296875</AltitudeMeters>
            <DistanceMeters>NAN</DistanceMeters>
          </Trackpoint>
          <Trackpoint>
            <Time>2020-12-05T09:36:31.000Z</Time>
            <Position>
              <LatitudeDegrees>36.81886411271989345550537109375</LatitudeDegrees>
              <LongitudeDegrees>-4.38720571808516979217529296875</LongitudeDegrees>
            </Position>
            <AltitudeMeters>815.4000244140625</AltitudeMeters>
            <DistanceMeters>NAN</DistanceMeters>
          </Trackpoint>
          <Trackpoint>
            <Time>2020-12-05T09:36:32.000Z</Time>
            <Position>
              <LatitudeDegrees>36.81885891593992710113525390625</LatitudeDegrees>
              <LongitudeDegrees>-4.38720806501805782318115234375</LongitudeDegrees>
            </Position>
            <AltitudeMeters>816.20001220703125</AltitudeMeters>
            <DistanceMeters>NAN</DistanceMeters>
          </Trackpoint>
          <Trackpoint>
            <Time>2020-12-05T09:36:33.000Z</Time>
            <Position>
              <LatitudeDegrees>36.81884818710386753082275390625</LatitudeDegrees>
              <LongitudeDegrees>-4.38720722682774066925048828125</LongitudeDegrees>
            </Position>
            <AltitudeMeters>817.20001220703125</AltitudeMeters>
            <DistanceMeters>NAN</DistanceMeters>
          </Trackpoint>
          <Trackpoint>
            <Time>2020-12-05T09:36:34.000Z</Time>
            <Position>
              <LatitudeDegrees>36.818840391933917999267578125</LatitudeDegrees>
              <LongitudeDegrees>-4.3872042931616306304931640625</LongitudeDegrees>
            </Position>
            <AltitudeMeters>818</AltitudeMeters>
            <DistanceMeters>NAN</DistanceMeters>
          </Trackpoint>
          <Trackpoint>
            <Time>2020-12-05T09:36:35.000Z</Time>
            <Position>
              <LatitudeDegrees>36.81883611716330051422119140625</LatitudeDegrees>
              <LongitudeDegrees>-4.38720286823809146881103515625</LongitudeDegrees>
            </Position>
            <AltitudeMeters>818.5999755859375</AltitudeMeters>
            <DistanceMeters>NAN</DistanceMeters>
          </Trackpoint>
          <Trackpoint>
            <Time>2020-12-05T09:36:36.000Z</Time>
            <Position>
              <LatitudeDegrees>36.81883024983108043670654296875</LatitudeDegrees>
              <LongitudeDegrees>-4.38720219768583774566650390625</LongitudeDegrees>
            </Position>
            <AltitudeMeters>818.79998779296875</AltitudeMeters>
            <DistanceMeters>NAN</DistanceMeters>
          </Trackpoint>
          <Trackpoint>
            <Time>2020-12-05T09:36:37.000Z</Time>
            <Position>
              <LatitudeDegrees>36.81881935335695743560791015625</LatitudeDegrees>
              <LongitudeDegrees>-4.38720169477164745330810546875</LongitudeDegrees>
            </Position>
            <AltitudeMeters>819</AltitudeMeters>
            <DistanceMeters>NAN</DistanceMeters>
          </Trackpoint>
          <Trackpoint>
            <Time>2020-12-05T09:36:38.000Z</Time>
            <Position>
              <LatitudeDegrees>36.8188056908547878265380859375</LatitudeDegrees>
              <LongitudeDegrees>-4.387199096381664276123046875</LongitudeDegrees>
            </Position>
            <AltitudeMeters>819.20001220703125</AltitudeMeters>
            <DistanceMeters>NAN</DistanceMeters>
          </Trackpoint>
          <Trackpoint>
            <Time>2020-12-05T09:36:39.000Z</Time>
            <Position>
              <LatitudeDegrees>36.81879244744777679443359375</LatitudeDegrees>
              <LongitudeDegrees>-4.38719783909618854522705078125</LongitudeDegrees>
            </Position>
            <AltitudeMeters>819</AltitudeMeters>
            <DistanceMeters>NAN</DistanceMeters>
          </Trackpoint>
          <Trackpoint>
            <Time>2020-12-05T09:36:40.000Z</Time>
            <Position>
              <LatitudeDegrees>36.8187825568020343780517578125</LatitudeDegrees>
              <LongitudeDegrees>-4.38720068894326686859130859375</LongitudeDegrees>
            </Position>
            <AltitudeMeters>819</AltitudeMeters>
            <DistanceMeters>NAN</DistanceMeters>
          </Trackpoint>
          <Trackpoint>
            <Time>2020-12-05T09:36:41.000Z</Time>
            <Position>
              <LatitudeDegrees>36.8187741748988628387451171875</LatitudeDegrees>
              <LongitudeDegrees>-4.38720948994159698486328125</LongitudeDegrees>
            </Position>
            <AltitudeMeters>818.5999755859375</AltitudeMeters>
            <DistanceMeters>NAN</DistanceMeters>
          </Trackpoint>
          <Trackpoint>
            <Time>2020-12-05T09:36:42.000Z</Time>
            <Position>
              <LatitudeDegrees>36.8187703192234039306640625</LatitudeDegrees>
              <LongitudeDegrees>-4.38721862621605396270751953125</LongitudeDegrees>
            </Position>
            <AltitudeMeters>818.4000244140625</AltitudeMeters>
            <DistanceMeters>NAN</DistanceMeters>
          </Trackpoint>
          <Trackpoint>
            <Time>2020-12-05T09:36:43.000Z</Time>
            <Position>
              <LatitudeDegrees>36.8187684752047061920166015625</LatitudeDegrees>
              <LongitudeDegrees>-4.38722717575728893280029296875</LongitudeDegrees>
            </Position>
            <AltitudeMeters>818.4000244140625</AltitudeMeters>
            <DistanceMeters>NAN</DistanceMeters>
          </Trackpoint>
          <Trackpoint>
            <Time>2020-12-05T09:36:44.000Z</Time>
            <Position>
              <LatitudeDegrees>36.8187631107866764068603515625</LatitudeDegrees>
              <LongitudeDegrees>-4.387237988412380218505859375</LongitudeDegrees>
            </Position>
            <AltitudeMeters>818.20001220703125</AltitudeMeters>
            <DistanceMeters>NAN</DistanceMeters>
          </Trackpoint>
          <Trackpoint>
            <Time>2020-12-05T09:36:45.000Z</Time>
            <Position>
              <LatitudeDegrees>36.81875682435929775238037109375</LatitudeDegrees>
              <LongitudeDegrees>-4.387244693934917449951171875</LongitudeDegrees>
            </Position>
            <AltitudeMeters>818</AltitudeMeters>
            <DistanceMeters>NAN</DistanceMeters>
          </Trackpoint>
          <Trackpoint>
            <Time>2020-12-05T09:36:46.000Z</Time>
            <Position>
              <LatitudeDegrees>36.8187507055699825286865234375</LatitudeDegrees>
              <LongitudeDegrees>-4.3872498907148838043212890625</LongitudeDegrees>
            </Position>
            <AltitudeMeters>817.79998779296875</AltitudeMeters>
            <DistanceMeters>NAN</DistanceMeters>
          </Trackpoint>
          <Trackpoint>
            <Time>2020-12-05T09:36:47.000Z</Time>
            <Position>
              <LatitudeDegrees>36.8187419883906841278076171875</LatitudeDegrees>
              <LongitudeDegrees>-4.38725751824676990509033203125</LongitudeDegrees>
            </Position>
            <AltitudeMeters>817.79998779296875</AltitudeMeters>
            <DistanceMeters>NAN</DistanceMeters>
          </Trackpoint>
          <Trackpoint>
            <Time>2020-12-05T09:36:48.000Z</Time>
            <Position>
              <LatitudeDegrees>36.81873419322073459625244140625</LatitudeDegrees>
              <LongitudeDegrees>-4.3872609548270702362060546875</LongitudeDegrees>
            </Position>
            <AltitudeMeters>817.79998779296875</AltitudeMeters>
            <DistanceMeters>NAN</DistanceMeters>
          </Trackpoint>
          <Trackpoint>
            <Time>2020-12-05T09:36:49.000Z</Time>
            <Position>
              <LatitudeDegrees>36.81872882880270481109619140625</LatitudeDegrees>
              <LongitudeDegrees>-4.38726221211254596710205078125</LongitudeDegrees>
            </Position>
            <AltitudeMeters>818</AltitudeMeters>
            <DistanceMeters>NAN</DistanceMeters>
          </Trackpoint>
          <Trackpoint>
            <Time>2020-12-05T09:36:50.000Z</Time>
            <Position>
              <LatitudeDegrees>36.81872312910854816436767578125</LatitudeDegrees>
              <LongitudeDegrees>-4.3872639723122119903564453125</LongitudeDegrees>
            </Position>
            <AltitudeMeters>818</AltitudeMeters>
            <DistanceMeters>NAN</DistanceMeters>
          </Trackpoint>
          <Trackpoint>
            <Time>2020-12-05T09:36:51.000Z</Time>
            <Position>
              <LatitudeDegrees>36.81872011162340641021728515625</LatitudeDegrees>
              <LongitudeDegrees>-4.38726590014994144439697265625</LongitudeDegrees>
            </Position>
            <AltitudeMeters>818</AltitudeMeters>
            <DistanceMeters>NAN</DistanceMeters>
          </Trackpoint>
          <Trackpoint>
            <Time>2020-12-05T09:36:52.000Z</Time>
            <Position>
              <LatitudeDegrees>36.8187166750431060791015625</LatitudeDegrees>
              <LongitudeDegrees>-4.3872656486928462982177734375</LongitudeDegrees>
            </Position>
            <AltitudeMeters>818</AltitudeMeters>
            <DistanceMeters>NAN</DistanceMeters>
          </Trackpoint>
          <Trackpoint>
            <Time>2020-12-05T09:36:53.000Z</Time>
            <Position>
              <LatitudeDegrees>36.8187114782631397247314453125</LatitudeDegrees>
              <LongitudeDegrees>-4.3872679956257343292236328125</LongitudeDegrees>
            </Position>
            <AltitudeMeters>817.79998779296875</AltitudeMeters>
            <DistanceMeters>NAN</DistanceMeters>
          </Trackpoint>
          <Trackpoint>
            <Time>2020-12-05T09:36:54.000Z</Time>
            <Position>
              <LatitudeDegrees>36.81870820932090282440185546875</LatitudeDegrees>
              <LongitudeDegrees>-4.38727461732923984527587890625</LongitudeDegrees>
            </Position>
            <AltitudeMeters>817.79998779296875</AltitudeMeters>
            <DistanceMeters>NAN</DistanceMeters>
          </Trackpoint>
          <Trackpoint>
            <Time>2020-12-05T09:36:55.000Z</Time>
            <Position>
              <LatitudeDegrees>36.81870401836931705474853515625</LatitudeDegrees>
              <LongitudeDegrees>-4.38728727400302886962890625</LongitudeDegrees>
            </Position>
            <AltitudeMeters>817.5999755859375</AltitudeMeters>
            <DistanceMeters>NAN</DistanceMeters>
          </Trackpoint>
          <Trackpoint>
            <Time>2020-12-05T09:36:56.000Z</Time>
            <Position>
              <LatitudeDegrees>36.818700917065143585205078125</LatitudeDegrees>
              <LongitudeDegrees>-4.38729934394359588623046875</LongitudeDegrees>
            </Position>
            <AltitudeMeters>817.4000244140625</AltitudeMeters>
            <DistanceMeters>NAN</DistanceMeters>
          </Trackpoint>
          <Trackpoint>
            <Time>2020-12-05T09:36:57.000Z</Time>
            <Position>
              <LatitudeDegrees>36.818694882094860076904296875</LatitudeDegrees>
              <LongitudeDegrees>-4.387309066951274871826171875</LongitudeDegrees>
            </Position>
            <AltitudeMeters>817.20001220703125</AltitudeMeters>
            <DistanceMeters>NAN</DistanceMeters>
          </Trackpoint>
          <Trackpoint>
            <Time>2020-12-05T09:36:58.000Z</Time>
            <Position>
              <LatitudeDegrees>36.818688847124576568603515625</LatitudeDegrees>
              <LongitudeDegrees>-4.38731669448316097259521484375</LongitudeDegrees>
            </Position>
            <AltitudeMeters>817.20001220703125</AltitudeMeters>
            <DistanceMeters>NAN</DistanceMeters>
          </Trackpoint>
          <Trackpoint>
            <Time>2020-12-05T09:36:59.000Z</Time>
            <Position>
              <LatitudeDegrees>36.818684153258800506591796875</LatitudeDegrees>
              <LongitudeDegrees>-4.387327171862125396728515625</LongitudeDegrees>
            </Position>
            <AltitudeMeters>817</AltitudeMeters>
            <DistanceMeters>NAN</DistanceMeters>
          </Trackpoint>
          <Trackpoint>
            <Time>2020-12-05T09:37:00.000Z</Time>
            <Position>
              <LatitudeDegrees>36.81868172250688076019287109375</LatitudeDegrees>
              <LongitudeDegrees>-4.38734217546880245208740234375</LongitudeDegrees>
            </Position>
            <AltitudeMeters>817</AltitudeMeters>
            <DistanceMeters>NAN</DistanceMeters>
          </Trackpoint>
          <Trackpoint>
            <Time>2020-12-05T09:37:01.000Z</Time>
            <Position>
              <LatitudeDegrees>36.8186722509562969207763671875</LatitudeDegrees>
              <LongitudeDegrees>-4.387354664504528045654296875</LongitudeDegrees>
            </Position>
            <AltitudeMeters>817.20001220703125</AltitudeMeters>
            <DistanceMeters>NAN</DistanceMeters>
          </Trackpoint>
          <Trackpoint>
            <Time>2020-12-05T09:37:02.000Z</Time>
            <Position>
              <LatitudeDegrees>36.81865439750254154205322265625</LatitudeDegrees>
              <LongitudeDegrees>-4.387370757758617401123046875</LongitudeDegrees>
            </Position>
            <AltitudeMeters>817.4000244140625</AltitudeMeters>
            <DistanceMeters>NAN</DistanceMeters>
          </Trackpoint>
          <Trackpoint>
            <Time>2020-12-05T09:37:03.000Z</Time>
            <Position>
              <LatitudeDegrees>36.8186457641422748565673828125</LatitudeDegrees>
              <LongitudeDegrees>-4.38738106749951839447021484375</LongitudeDegrees>
            </Position>
            <AltitudeMeters>817.5999755859375</AltitudeMeters>
            <DistanceMeters>NAN</DistanceMeters>
          </Trackpoint>
          <Trackpoint>
            <Time>2020-12-05T09:37:04.000Z</Time>
            <Position>
              <LatitudeDegrees>36.81863981299102306365966796875</LatitudeDegrees>
              <LongitudeDegrees>-4.3873898684978485107421875</LongitudeDegrees>
            </Position>
            <AltitudeMeters>817.5999755859375</AltitudeMeters>
            <DistanceMeters>NAN</DistanceMeters>
          </Trackpoint>
          <Trackpoint>
            <Time>2020-12-05T09:37:05.000Z</Time>
            <Position>
              <LatitudeDegrees>36.81863109581172466278076171875</LatitudeDegrees>
              <LongitudeDegrees>-4.38739984296262264251708984375</LongitudeDegrees>
            </Position>
            <AltitudeMeters>817.79998779296875</AltitudeMeters>
            <DistanceMeters>NAN</DistanceMeters>
          </Trackpoint>
          <Trackpoint>
            <Time>2020-12-05T09:37:06.000Z</Time>
            <Position>
              <LatitudeDegrees>36.81862170808017253875732421875</LatitudeDegrees>
              <LongitudeDegrees>-4.38740990124642848968505859375</LongitudeDegrees>
            </Position>
            <AltitudeMeters>817.79998779296875</AltitudeMeters>
            <DistanceMeters>NAN</DistanceMeters>
          </Trackpoint>
          <Trackpoint>
            <Time>2020-12-05T09:37:07.000Z</Time>
            <Position>
              <LatitudeDegrees>36.8186122365295886993408203125</LatitudeDegrees>
              <LongitudeDegrees>-4.3874198757112026214599609375</LongitudeDegrees>
            </Position>
            <AltitudeMeters>817.79998779296875</AltitudeMeters>
            <DistanceMeters>NAN</DistanceMeters>
          </Trackpoint>
          <Trackpoint>
            <Time>2020-12-05T09:37:08.000Z</Time>
            <Position>
              <LatitudeDegrees>36.818601675331592559814453125</LatitudeDegrees>
              <LongitudeDegrees>-4.38743085600435733795166015625</LongitudeDegrees>
            </Position>
            <AltitudeMeters>817.5999755859375</AltitudeMeters>
            <DistanceMeters>NAN</DistanceMeters>
          </Trackpoint>
          <Trackpoint>
            <Time>2020-12-05T09:37:09.000Z</Time>
            <Position>
              <LatitudeDegrees>36.81859388016164302825927734375</LatitudeDegrees>
              <LongitudeDegrees>-4.38744074665009975433349609375</LongitudeDegrees>
            </Position>
            <AltitudeMeters>817.4000244140625</AltitudeMeters>
            <DistanceMeters>NAN</DistanceMeters>
          </Trackpoint>
          <Trackpoint>
            <Time>2020-12-05T09:37:10.000Z</Time>
            <Position>
              <LatitudeDegrees>36.81858591735363006591796875</LatitudeDegrees>
              <LongitudeDegrees>-4.38744896091520786285400390625</LongitudeDegrees>
            </Position>
            <AltitudeMeters>817</AltitudeMeters>
            <DistanceMeters>NAN</DistanceMeters>
          </Trackpoint>
          <Trackpoint>
            <Time>2020-12-05T09:37:11.000Z</Time>
            <Position>
              <LatitudeDegrees>36.81857728399336338043212890625</LatitudeDegrees>
              <LongitudeDegrees>-4.38745432533323764801025390625</LongitudeDegrees>
            </Position>
            <AltitudeMeters>816.5999755859375</AltitudeMeters>
            <DistanceMeters>NAN</DistanceMeters>
          </Trackpoint>
          <Trackpoint>
            <Time>2020-12-05T09:37:12.000Z</Time>
            <Position>
              <LatitudeDegrees>36.8185693211853504180908203125</LatitudeDegrees>
              <LongitudeDegrees>-4.38745968975126743316650390625</LongitudeDegrees>
            </Position>
            <AltitudeMeters>816.20001220703125</AltitudeMeters>
            <DistanceMeters>NAN</DistanceMeters>
          </Trackpoint>
          <Trackpoint>
            <Time>2020-12-05T09:37:13.000Z</Time>
            <Position>
              <LatitudeDegrees>36.81856035254895687103271484375</LatitudeDegrees>
              <LongitudeDegrees>-4.38746890984475612640380859375</LongitudeDegrees>
            </Position>
            <AltitudeMeters>816</AltitudeMeters>
            <DistanceMeters>NAN</DistanceMeters>
          </Trackpoint>
          <Trackpoint>
            <Time>2020-12-05T09:37:14.000Z</Time>
            <Position>
              <LatitudeDegrees>36.81855364702641963958740234375</LatitudeDegrees>
              <LongitudeDegrees>-4.38747745938599109649658203125</LongitudeDegrees>
            </Position>
            <AltitudeMeters>815.79998779296875</AltitudeMeters>
            <DistanceMeters>NAN</DistanceMeters>
          </Trackpoint>
          <Trackpoint>
            <Time>2020-12-05T09:37:15.000Z</Time>
            <Position>
              <LatitudeDegrees>36.81854727678000926971435546875</LatitudeDegrees>
              <LongitudeDegrees>-4.38748315908014774322509765625</LongitudeDegrees>
            </Position>
            <AltitudeMeters>815.79998779296875</AltitudeMeters>
            <DistanceMeters>NAN</DistanceMeters>
          </Trackpoint>
          <Trackpoint>
            <Time>2020-12-05T09:37:16.000Z</Time>
            <Position>
              <LatitudeDegrees>36.8185404874384403228759765625</LatitudeDegrees>
              <LongitudeDegrees>-4.38748751766979694366455078125</LongitudeDegrees>
            </Position>
            <AltitudeMeters>815.79998779296875</AltitudeMeters>
            <DistanceMeters>NAN</DistanceMeters>
          </Trackpoint>
          <Trackpoint>
            <Time>2020-12-05T09:37:17.000Z</Time>
            <Position>
              <LatitudeDegrees>36.81853235699236392974853515625</LatitudeDegrees>
              <LongitudeDegrees>-4.38749003224074840545654296875</LongitudeDegrees>
            </Position>
            <AltitudeMeters>815.79998779296875</AltitudeMeters>
            <DistanceMeters>NAN</DistanceMeters>
          </Trackpoint>
          <Trackpoint>
            <Time>2020-12-05T09:37:18.000Z</Time>
            <Position>
              <LatitudeDegrees>36.81852682493627071380615234375</LatitudeDegrees>
              <LongitudeDegrees>-4.38749757595360279083251953125</LongitudeDegrees>
            </Position>
            <AltitudeMeters>816</AltitudeMeters>
            <DistanceMeters>NAN</DistanceMeters>
          </Trackpoint>
          <Trackpoint>
            <Time>2020-12-05T09:37:19.000Z</Time>
            <Position>
              <LatitudeDegrees>36.8185200355947017669677734375</LatitudeDegrees>
              <LongitudeDegrees>-4.3875070475041866302490234375</LongitudeDegrees>
            </Position>
            <AltitudeMeters>816.20001220703125</AltitudeMeters>
            <DistanceMeters>NAN</DistanceMeters>
          </Trackpoint>
          <Trackpoint>
            <Time>2020-12-05T09:37:20.000Z</Time>
            <Position>
              <LatitudeDegrees>36.81851106695830821990966796875</LatitudeDegrees>
              <LongitudeDegrees>-4.38752062618732452392578125</LongitudeDegrees>
            </Position>
            <AltitudeMeters>816.20001220703125</AltitudeMeters>
            <DistanceMeters>NAN</DistanceMeters>
          </Trackpoint>
          <Trackpoint>
            <Time>2020-12-05T09:37:21.000Z</Time>
            <Position>
              <LatitudeDegrees>36.8185056187212467193603515625</LatitudeDegrees>
              <LongitudeDegrees>-4.38753697089850902557373046875</LongitudeDegrees>
            </Position>
            <AltitudeMeters>816.20001220703125</AltitudeMeters>
            <DistanceMeters>NAN</DistanceMeters>
          </Trackpoint>
          <Trackpoint>
            <Time>2020-12-05T09:37:22.000Z</Time>
            <Position>
              <LatitudeDegrees>36.8185002543032169342041015625</LatitudeDegrees>
              <LongitudeDegrees>-4.38755440525710582733154296875</LongitudeDegrees>
            </Position>
            <AltitudeMeters>816.4000244140625</AltitudeMeters>
            <DistanceMeters>NAN</DistanceMeters>
          </Trackpoint>
          <Trackpoint>
            <Time>2020-12-05T09:37:23.000Z</Time>
            <Position>
              <LatitudeDegrees>36.8184932135045528411865234375</LatitudeDegrees>
              <LongitudeDegrees>-4.38756530173122882843017578125</LongitudeDegrees>
            </Position>
            <AltitudeMeters>816.4000244140625</AltitudeMeters>
            <DistanceMeters>NAN</DistanceMeters>
          </Trackpoint>
          <Trackpoint>
            <Time>2020-12-05T09:37:24.000Z</Time>
            <Position>
              <LatitudeDegrees>36.81848575361073017120361328125</LatitudeDegrees>
              <LongitudeDegrees>-4.38756731338798999786376953125</LongitudeDegrees>
            </Position>
            <AltitudeMeters>816.4000244140625</AltitudeMeters>
            <DistanceMeters>NAN</DistanceMeters>
          </Trackpoint>
          <Trackpoint>
            <Time>2020-12-05T09:37:25.000Z</Time>
            <Position>
              <LatitudeDegrees>36.8184767849743366241455078125</LatitudeDegrees>
              <LongitudeDegrees>-4.38757016323506832122802734375</LongitudeDegrees>
            </Position>
            <AltitudeMeters>816.20001220703125</AltitudeMeters>
            <DistanceMeters>NAN</DistanceMeters>
          </Trackpoint>
          <Trackpoint>
            <Time>2020-12-05T09:37:26.000Z</Time>
            <Position>
              <LatitudeDegrees>36.8184694088995456695556640625</LatitudeDegrees>
              <LongitudeDegrees>-4.38757502473890781402587890625</LongitudeDegrees>
            </Position>
            <AltitudeMeters>816.20001220703125</AltitudeMeters>
            <DistanceMeters>NAN</DistanceMeters>
          </Trackpoint>
          <Trackpoint>
            <Time>2020-12-05T09:37:27.000Z</Time>
            <Position>
              <LatitudeDegrees>36.81845826096832752227783203125</LatitudeDegrees>
              <LongitudeDegrees>-4.387587346136569976806640625</LongitudeDegrees>
            </Position>
            <AltitudeMeters>816.20001220703125</AltitudeMeters>
            <DistanceMeters>NAN</DistanceMeters>
          </Trackpoint>
          <Trackpoint>
            <Time>2020-12-05T09:37:28.000Z</Time>
            <Position>
              <LatitudeDegrees>36.8184526450932025909423828125</LatitudeDegrees>
              <LongitudeDegrees>-4.38759966753423213958740234375</LongitudeDegrees>
            </Position>
            <AltitudeMeters>816</AltitudeMeters>
            <DistanceMeters>NAN</DistanceMeters>
          </Trackpoint>
          <Trackpoint>
            <Time>2020-12-05T09:37:29.000Z</Time>
            <Position>
              <LatitudeDegrees>36.81844719685614109039306640625</LatitudeDegrees>
              <LongitudeDegrees>-4.387611486017704010009765625</LongitudeDegrees>
            </Position>
            <AltitudeMeters>816</AltitudeMeters>
            <DistanceMeters>NAN</DistanceMeters>
          </Trackpoint>
          <Trackpoint>
            <Time>2020-12-05T09:37:30.000Z</Time>
            <Position>
              <LatitudeDegrees>36.81844099424779415130615234375</LatitudeDegrees>
              <LongitudeDegrees>-4.38762313686311244964599609375</LongitudeDegrees>
            </Position>
            <AltitudeMeters>816.20001220703125</AltitudeMeters>
            <DistanceMeters>NAN</DistanceMeters>
          </Trackpoint>
          <Trackpoint>
            <Time>2020-12-05T09:37:31.000Z</Time>
            <Position>
              <LatitudeDegrees>36.8184409104287624359130859375</LatitudeDegrees>
              <LongitudeDegrees>-4.38763420097529888153076171875</LongitudeDegrees>
            </Position>
            <AltitudeMeters>816.20001220703125</AltitudeMeters>
            <DistanceMeters>NAN</DistanceMeters>
          </Trackpoint>
          <Trackpoint>
            <Time>2020-12-05T09:37:32.000Z</Time>
            <Position>
              <LatitudeDegrees>36.8184342049062252044677734375</LatitudeDegrees>
              <LongitudeDegrees>-4.38764107413589954376220703125</LongitudeDegrees>
            </Position>
            <AltitudeMeters>816.20001220703125</AltitudeMeters>
            <DistanceMeters>NAN</DistanceMeters>
          </Trackpoint>
          <Trackpoint>
            <Time>2020-12-05T09:37:33.000Z</Time>
            <Position>
              <LatitudeDegrees>36.8184228055179119110107421875</LatitudeDegrees>
              <LongitudeDegrees>-4.38764459453523159027099609375</LongitudeDegrees>
            </Position>
            <AltitudeMeters>816.20001220703125</AltitudeMeters>
            <DistanceMeters>NAN</DistanceMeters>
          </Trackpoint>
          <Trackpoint>
            <Time>2020-12-05T09:37:34.000Z</Time>
            <Position>
              <LatitudeDegrees>36.818413250148296356201171875</LatitudeDegrees>
              <LongitudeDegrees>-4.38765498809516429901123046875</LongitudeDegrees>
            </Position>
            <AltitudeMeters>816.4000244140625</AltitudeMeters>
            <DistanceMeters>NAN</DistanceMeters>
          </Trackpoint>
          <Trackpoint>
            <Time>2020-12-05T09:37:35.000Z</Time>
            <Position>
              <LatitudeDegrees>36.8184087239205837249755859375</LatitudeDegrees>
              <LongitudeDegrees>-4.38766538165509700775146484375</LongitudeDegrees>
            </Position>
            <AltitudeMeters>816.5999755859375</AltitudeMeters>
            <DistanceMeters>NAN</DistanceMeters>
          </Trackpoint>
          <Trackpoint>
            <Time>2020-12-05T09:37:36.000Z</Time>
            <Position>
              <LatitudeDegrees>36.818406544625759124755859375</LatitudeDegrees>
              <LongitudeDegrees>-4.387678541243076324462890625</LongitudeDegrees>
            </Position>
            <AltitudeMeters>816.5999755859375</AltitudeMeters>
            <DistanceMeters>NAN</DistanceMeters>
          </Trackpoint>
          <Trackpoint>
            <Time>2020-12-05T09:37:37.000Z</Time>
            <Position>
              <LatitudeDegrees>36.8184070475399494171142578125</LatitudeDegrees>
              <LongitudeDegrees>-4.38768692314624786376953125</LongitudeDegrees>
            </Position>
            <AltitudeMeters>816.5999755859375</AltitudeMeters>
            <DistanceMeters>NAN</DistanceMeters>
          </Trackpoint>
          <Trackpoint>
            <Time>2020-12-05T09:37:38.000Z</Time>
            <Position>
              <LatitudeDegrees>36.81840352714061737060546875</LatitudeDegrees>
              <LongitudeDegrees>-4.38768826425075531005859375</LongitudeDegrees>
            </Position>
            <AltitudeMeters>816.5999755859375</AltitudeMeters>
            <DistanceMeters>NAN</DistanceMeters>
          </Trackpoint>
          <Trackpoint>
            <Time>2020-12-05T09:37:39.000Z</Time>
            <Position>
              <LatitudeDegrees>36.81839925236999988555908203125</LatitudeDegrees>
              <LongitudeDegrees>-4.38768558204174041748046875</LongitudeDegrees>
            </Position>
            <AltitudeMeters>816.79998779296875</AltitudeMeters>
            <DistanceMeters>NAN</DistanceMeters>
          </Trackpoint>
          <Trackpoint>
            <Time>2020-12-05T09:37:40.000Z</Time>
            <Position>
              <LatitudeDegrees>36.81839388795197010040283203125</LatitudeDegrees>
              <LongitudeDegrees>-4.38768516294658184051513671875</LongitudeDegrees>
            </Position>
            <AltitudeMeters>816.79998779296875</AltitudeMeters>
            <DistanceMeters>NAN</DistanceMeters>
          </Trackpoint>
          <Trackpoint>
            <Time>2020-12-05T09:37:41.000Z</Time>
            <Position>
              <LatitudeDegrees>36.8183902837336063385009765625</LatitudeDegrees>
              <LongitudeDegrees>-4.3876817263662815093994140625</LongitudeDegrees>
            </Position>
            <AltitudeMeters>816.79998779296875</AltitudeMeters>
            <DistanceMeters>NAN</DistanceMeters>
          </Trackpoint>
          <Trackpoint>
            <Time>2020-12-05T09:37:42.000Z</Time>
            <Position>
              <LatitudeDegrees>36.8183902837336063385009765625</LatitudeDegrees>
              <LongitudeDegrees>-4.38767828978598117828369140625</LongitudeDegrees>
            </Position>
            <AltitudeMeters>817.20001220703125</AltitudeMeters>
            <DistanceMeters>NAN</DistanceMeters>
          </Trackpoint>
          <Trackpoint>
            <Time>2020-12-05T09:37:43.000Z</Time>
            <Position>
              <LatitudeDegrees>36.8183933012187480926513671875</LatitudeDegrees>
              <LongitudeDegrees>-4.3876766972243785858154296875</LongitudeDegrees>
            </Position>
            <AltitudeMeters>818</AltitudeMeters>
            <DistanceMeters>NAN</DistanceMeters>
          </Trackpoint>
          <Trackpoint>
            <Time>2020-12-05T09:37:44.000Z</Time>
            <Position>
              <LatitudeDegrees>36.8183922953903675079345703125</LatitudeDegrees>
              <LongitudeDegrees>-4.38767242245376110076904296875</LongitudeDegrees>
            </Position>
            <AltitudeMeters>818.79998779296875</AltitudeMeters>
            <DistanceMeters>NAN</DistanceMeters>
          </Trackpoint>
          <Trackpoint>
            <Time>2020-12-05T09:37:45.000Z</Time>
            <Position>
              <LatitudeDegrees>36.81838684715330600738525390625</LatitudeDegrees>
              <LongitudeDegrees>-4.387672506272792816162109375</LongitudeDegrees>
            </Position>
            <AltitudeMeters>819.20001220703125</AltitudeMeters>
            <DistanceMeters>NAN</DistanceMeters>
          </Trackpoint>
          <Trackpoint>
            <Time>2020-12-05T09:37:46.000Z</Time>
            <Position>
              <LatitudeDegrees>36.81838047690689563751220703125</LatitudeDegrees>
              <LongitudeDegrees>-4.3876693211495876312255859375</LongitudeDegrees>
            </Position>
            <AltitudeMeters>819.4000244140625</AltitudeMeters>
            <DistanceMeters>NAN</DistanceMeters>
          </Trackpoint>
          <Trackpoint>
            <Time>2020-12-05T09:37:47.000Z</Time>
            <Position>
              <LatitudeDegrees>36.81837762705981731414794921875</LatitudeDegrees>
              <LongitudeDegrees>-4.3876673094928264617919921875</LongitudeDegrees>
            </Position>
            <AltitudeMeters>819</AltitudeMeters>
            <DistanceMeters>NAN</DistanceMeters>
          </Trackpoint>
          <Trackpoint>
            <Time>2020-12-05T09:37:48.000Z</Time>
            <Position>
              <LatitudeDegrees>36.81837326847016811370849609375</LatitudeDegrees>
              <LongitudeDegrees>-4.38767141662538051605224609375</LongitudeDegrees>
            </Position>
            <AltitudeMeters>818.4000244140625</AltitudeMeters>
            <DistanceMeters>NAN</DistanceMeters>
          </Trackpoint>
          <Trackpoint>
            <Time>2020-12-05T09:37:49.000Z</Time>
            <Position>
              <LatitudeDegrees>36.8183671496808528900146484375</LatitudeDegrees>
              <LongitudeDegrees>-4.38767024315893650054931640625</LongitudeDegrees>
            </Position>
            <AltitudeMeters>817.79998779296875</AltitudeMeters>
            <DistanceMeters>NAN</DistanceMeters>
          </Trackpoint>
          <Trackpoint>
            <Time>2020-12-05T09:37:50.000Z</Time>
            <Position>
              <LatitudeDegrees>36.81836195290088653564453125</LatitudeDegrees>
              <LongitudeDegrees>-4.3876689858734607696533203125</LongitudeDegrees>
            </Position>
            <AltitudeMeters>817.4000244140625</AltitudeMeters>
            <DistanceMeters>NAN</DistanceMeters>
          </Trackpoint>
          <Trackpoint>
            <Time>2020-12-05T09:37:51.000Z</Time>
            <Position>
              <LatitudeDegrees>36.8183520622551441192626953125</LatitudeDegrees>
              <LongitudeDegrees>-4.38767074607312679290771484375</LongitudeDegrees>
            </Position>
            <AltitudeMeters>817.4000244140625</AltitudeMeters>
            <DistanceMeters>NAN</DistanceMeters>
          </Trackpoint>
          <Trackpoint>
            <Time>2020-12-05T09:37:52.000Z</Time>
            <Position>
              <LatitudeDegrees>36.8183393217623233795166015625</LatitudeDegrees>
              <LongitudeDegrees>-4.387677200138568878173828125</LongitudeDegrees>
            </Position>
            <AltitudeMeters>817.20001220703125</AltitudeMeters>
            <DistanceMeters>NAN</DistanceMeters>
          </Trackpoint>
          <Trackpoint>
            <Time>2020-12-05T09:37:53.000Z</Time>
            <Position>
              <LatitudeDegrees>36.818328760564327239990234375</LatitudeDegrees>
              <LongitudeDegrees>-4.3876800499856472015380859375</LongitudeDegrees>
            </Position>
            <AltitudeMeters>817</AltitudeMeters>
            <DistanceMeters>NAN</DistanceMeters>
          </Trackpoint>
          <Trackpoint>
            <Time>2020-12-05T09:37:54.000Z</Time>
            <Position>
              <LatitudeDegrees>36.8183252401649951934814453125</LatitudeDegrees>
              <LongitudeDegrees>-4.387683570384979248046875</LongitudeDegrees>
            </Position>
            <AltitudeMeters>817</AltitudeMeters>
            <DistanceMeters>NAN</DistanceMeters>
          </Trackpoint>
          <Trackpoint>
            <Time>2020-12-05T09:37:55.000Z</Time>
            <Position>
              <LatitudeDegrees>36.81831627152860164642333984375</LatitudeDegrees>
              <LongitudeDegrees>-4.38769228756427764892578125</LongitudeDegrees>
            </Position>
            <AltitudeMeters>816.79998779296875</AltitudeMeters>
            <DistanceMeters>NAN</DistanceMeters>
          </Trackpoint>
          <Trackpoint>
            <Time>2020-12-05T09:37:56.000Z</Time>
            <Position>
              <LatitudeDegrees>36.8183061294257640838623046875</LatitudeDegrees>
              <LongitudeDegrees>-4.38770226202905178070068359375</LongitudeDegrees>
            </Position>
            <AltitudeMeters>816.79998779296875</AltitudeMeters>
            <DistanceMeters>NAN</DistanceMeters>
          </Trackpoint>
          <Trackpoint>
            <Time>2020-12-05T09:37:57.000Z</Time>
            <Position>
              <LatitudeDegrees>36.8182997591793537139892578125</LatitudeDegrees>
              <LongitudeDegrees>-4.387713409960269927978515625</LongitudeDegrees>
            </Position>
            <AltitudeMeters>816.5999755859375</AltitudeMeters>
            <DistanceMeters>NAN</DistanceMeters>
          </Trackpoint>
          <Trackpoint>
            <Time>2020-12-05T09:37:58.000Z</Time>
            <Position>
              <LatitudeDegrees>36.818295903503894805908203125</LatitudeDegrees>
              <LongitudeDegrees>-4.38772740773856639862060546875</LongitudeDegrees>
            </Position>
            <AltitudeMeters>816.5999755859375</AltitudeMeters>
            <DistanceMeters>NAN</DistanceMeters>
          </Trackpoint>
          <Trackpoint>
            <Time>2020-12-05T09:37:59.000Z</Time>
            <Position>
              <LatitudeDegrees>36.81829179637134075164794921875</LatitudeDegrees>
              <LongitudeDegrees>-4.38774853013455867767333984375</LongitudeDegrees>
            </Position>
            <AltitudeMeters>816.5999755859375</AltitudeMeters>
            <DistanceMeters>NAN</DistanceMeters>
          </Trackpoint>
          <Trackpoint>
            <Time>2020-12-05T09:38:00.000Z</Time>
            <Position>
              <LatitudeDegrees>36.8182863481342792510986328125</LatitudeDegrees>
              <LongitudeDegrees>-4.38776462338864803314208984375</LongitudeDegrees>
            </Position>
            <AltitudeMeters>816.4000244140625</AltitudeMeters>
            <DistanceMeters>NAN</DistanceMeters>
          </Trackpoint>
          <Trackpoint>
            <Time>2020-12-05T09:38:01.000Z</Time>
            <Position>
              <LatitudeDegrees>36.8182826600968837738037109375</LatitudeDegrees>
              <LongitudeDegrees>-4.38777945935726165771484375</LongitudeDegrees>
            </Position>
            <AltitudeMeters>816.20001220703125</AltitudeMeters>
            <DistanceMeters>NAN</DistanceMeters>
          </Trackpoint>
          <Trackpoint>
            <Time>2020-12-05T09:38:02.000Z</Time>
            <Position>
              <LatitudeDegrees>36.8182794749736785888671875</LatitudeDegrees>
              <LongitudeDegrees>-4.38779287040233612060546875</LongitudeDegrees>
            </Position>
            <AltitudeMeters>816.20001220703125</AltitudeMeters>
            <DistanceMeters>NAN</DistanceMeters>
          </Trackpoint>
          <Trackpoint>
            <Time>2020-12-05T09:38:03.000Z</Time>
            <Position>
              <LatitudeDegrees>36.81827302090823650360107421875</LatitudeDegrees>
              <LongitudeDegrees>-4.387802593410015106201171875</LongitudeDegrees>
            </Position>
            <AltitudeMeters>816.4000244140625</AltitudeMeters>
            <DistanceMeters>NAN</DistanceMeters>
          </Trackpoint>
          <Trackpoint>
            <Time>2020-12-05T09:38:04.000Z</Time>
            <Position>
              <LatitudeDegrees>36.81826363317668437957763671875</LatitudeDegrees>
              <LongitudeDegrees>-4.3878148309886455535888671875</LongitudeDegrees>
            </Position>
            <AltitudeMeters>816.5999755859375</AltitudeMeters>
            <DistanceMeters>NAN</DistanceMeters>
          </Trackpoint>
          <Trackpoint>
            <Time>2020-12-05T09:38:05.000Z</Time>
            <Position>
              <LatitudeDegrees>36.8182524852454662322998046875</LatitudeDegrees>
              <LongitudeDegrees>-4.38782497309148311614990234375</LongitudeDegrees>
            </Position>
            <AltitudeMeters>816.5999755859375</AltitudeMeters>
            <DistanceMeters>NAN</DistanceMeters>
          </Trackpoint>
          <Trackpoint>
            <Time>2020-12-05T09:38:06.000Z</Time>
            <Position>
              <LatitudeDegrees>36.81824301369488239288330078125</LatitudeDegrees>
              <LongitudeDegrees>-4.387828744947910308837890625</LongitudeDegrees>
            </Position>
            <AltitudeMeters>817</AltitudeMeters>
            <DistanceMeters>NAN</DistanceMeters>
          </Trackpoint>
          <Trackpoint>
            <Time>2020-12-05T09:38:07.000Z</Time>
            <Position>
              <LatitudeDegrees>36.81824167259037494659423828125</LatitudeDegrees>
              <LongitudeDegrees>-4.3878245539963245391845703125</LongitudeDegrees>
            </Position>
            <AltitudeMeters>817.79998779296875</AltitudeMeters>
            <DistanceMeters>NAN</DistanceMeters>
          </Trackpoint>
          <Trackpoint>
            <Time>2020-12-05T09:38:08.000Z</Time>
            <Position>
              <LatitudeDegrees>36.81824066676199436187744140625</LatitudeDegrees>
              <LongitudeDegrees>-4.387822709977626800537109375</LongitudeDegrees>
            </Position>
            <AltitudeMeters>818.5999755859375</AltitudeMeters>
            <DistanceMeters>NAN</DistanceMeters>
          </Trackpoint>
          <Trackpoint>
            <Time>2020-12-05T09:38:09.000Z</Time>
            <Position>
              <LatitudeDegrees>36.81823865510523319244384765625</LatitudeDegrees>
              <LongitudeDegrees>-4.3878297507762908935546875</LongitudeDegrees>
            </Position>
            <AltitudeMeters>819.4000244140625</AltitudeMeters>
            <DistanceMeters>NAN</DistanceMeters>
          </Trackpoint>
          <Trackpoint>
            <Time>2020-12-05T09:38:10.000Z</Time>
            <Position>
              <LatitudeDegrees>36.8182350508868694305419921875</LatitudeDegrees>
              <LongitudeDegrees>-4.38783603720366954803466796875</LongitudeDegrees>
            </Position>
            <AltitudeMeters>820</AltitudeMeters>
            <DistanceMeters>NAN</DistanceMeters>
          </Trackpoint>
          <Trackpoint>
            <Time>2020-12-05T09:38:11.000Z</Time>
            <Position>
              <LatitudeDegrees>36.8182313628494739532470703125</LatitudeDegrees>
              <LongitudeDegrees>-4.387841485440731048583984375</LongitudeDegrees>
            </Position>
            <AltitudeMeters>820.4000244140625</AltitudeMeters>
            <DistanceMeters>NAN</DistanceMeters>
          </Trackpoint>
          <Trackpoint>
            <Time>2020-12-05T09:38:12.000Z</Time>
            <Position>
              <LatitudeDegrees>36.81822088547050952911376953125</LatitudeDegrees>
              <LongitudeDegrees>-4.3878453411161899566650390625</LongitudeDegrees>
            </Position>
            <AltitudeMeters>820.5999755859375</AltitudeMeters>
            <DistanceMeters>NAN</DistanceMeters>
          </Trackpoint>
          <Trackpoint>
            <Time>2020-12-05T09:38:13.000Z</Time>
            <Position>
              <LatitudeDegrees>36.81821451522409915924072265625</LatitudeDegrees>
              <LongitudeDegrees>-4.38784810714423656463623046875</LongitudeDegrees>
            </Position>
            <AltitudeMeters>820</AltitudeMeters>
            <DistanceMeters>NAN</DistanceMeters>
          </Trackpoint>
          <Trackpoint>
            <Time>2020-12-05T09:38:14.000Z</Time>
            <Position>
              <LatitudeDegrees>36.81821786798536777496337890625</LatitudeDegrees>
              <LongitudeDegrees>-4.38784760423004627227783203125</LongitudeDegrees>
            </Position>
            <AltitudeMeters>819.5999755859375</AltitudeMeters>
            <DistanceMeters>NAN</DistanceMeters>
          </Trackpoint>
          <Trackpoint>
            <Time>2020-12-05T09:38:15.000Z</Time>
            <Position>
              <LatitudeDegrees>36.81822423823177814483642578125</LatitudeDegrees>
              <LongitudeDegrees>-4.3878540582954883575439453125</LongitudeDegrees>
            </Position>
            <AltitudeMeters>819.20001220703125</AltitudeMeters>
            <DistanceMeters>NAN</DistanceMeters>
          </Trackpoint>
          <Trackpoint>
            <Time>2020-12-05T09:38:16.000Z</Time>
            <Position>
              <LatitudeDegrees>36.818224824965000152587890625</LatitudeDegrees>
              <LongitudeDegrees>-4.38785632140934467315673828125</LongitudeDegrees>
            </Position>
            <AltitudeMeters>818.5999755859375</AltitudeMeters>
            <DistanceMeters>NAN</DistanceMeters>
          </Trackpoint>
          <Trackpoint>
            <Time>2020-12-05T09:38:17.000Z</Time>
            <Position>
              <LatitudeDegrees>36.81822826154530048370361328125</LatitudeDegrees>
              <LongitudeDegrees>-4.38785548321902751922607421875</LongitudeDegrees>
            </Position>
            <AltitudeMeters>818.4000244140625</AltitudeMeters>
            <DistanceMeters>NAN</DistanceMeters>
          </Trackpoint>
          <Trackpoint>
            <Time>2020-12-05T09:38:18.000Z</Time>
            <Position>
              <LatitudeDegrees>36.8182313628494739532470703125</LatitudeDegrees>
              <LongitudeDegrees>-4.38785145990550518035888671875</LongitudeDegrees>
            </Position>
            <AltitudeMeters>818</AltitudeMeters>
            <DistanceMeters>NAN</DistanceMeters>
          </Trackpoint>
          <Trackpoint>
            <Time>2020-12-05T09:38:19.000Z</Time>
            <Position>
              <LatitudeDegrees>36.8182323686778545379638671875</LatitudeDegrees>
              <LongitudeDegrees>-4.38784525729715824127197265625</LongitudeDegrees>
            </Position>
            <AltitudeMeters>817.5999755859375</AltitudeMeters>
            <DistanceMeters>NAN</DistanceMeters>
          </Trackpoint>
          <Trackpoint>
            <Time>2020-12-05T09:38:20.000Z</Time>
            <Position>
              <LatitudeDegrees>36.8182286806404590606689453125</LatitudeDegrees>
              <LongitudeDegrees>-4.38784291036427021026611328125</LongitudeDegrees>
            </Position>
            <AltitudeMeters>817.4000244140625</AltitudeMeters>
            <DistanceMeters>NAN</DistanceMeters>
          </Trackpoint>
          <Trackpoint>
            <Time>2020-12-05T09:38:21.000Z</Time>
            <Position>
              <LatitudeDegrees>36.8182253278791904449462890625</LatitudeDegrees>
              <LongitudeDegrees>-4.38784693367779254913330078125</LongitudeDegrees>
            </Position>
            <AltitudeMeters>817.4000244140625</AltitudeMeters>
            <DistanceMeters>NAN</DistanceMeters>
          </Trackpoint>
          <Trackpoint>
            <Time>2020-12-05T09:38:22.000Z</Time>
            <Position>
              <LatitudeDegrees>36.818224824965000152587890625</LatitudeDegrees>
              <LongitudeDegrees>-4.38785062171518802642822265625</LongitudeDegrees>
            </Position>
            <AltitudeMeters>817.4000244140625</AltitudeMeters>
            <DistanceMeters>NAN</DistanceMeters>
          </Trackpoint>
          <Trackpoint>
            <Time>2020-12-05T09:38:23.000Z</Time>
            <Position>
              <LatitudeDegrees>36.8182276748120784759521484375</LatitudeDegrees>
              <LongitudeDegrees>-4.3878483586013317108154296875</LongitudeDegrees>
            </Position>
            <AltitudeMeters>817.4000244140625</AltitudeMeters>
            <DistanceMeters>NAN</DistanceMeters>
          </Trackpoint>
          <Trackpoint>
            <Time>2020-12-05T09:38:24.000Z</Time>
            <Position>
              <LatitudeDegrees>36.8182283453643321990966796875</LatitudeDegrees>
              <LongitudeDegrees>-4.38784525729715824127197265625</LongitudeDegrees>
            </Position>
            <AltitudeMeters>817.4000244140625</AltitudeMeters>
            <DistanceMeters>NAN</DistanceMeters>
          </Trackpoint>
          <Trackpoint>
            <Time>2020-12-05T09:38:25.000Z</Time>
            <Position>
              <LatitudeDegrees>36.81823194958269596099853515625</LatitudeDegrees>
              <LongitudeDegrees>-4.387839473783969879150390625</LongitudeDegrees>
            </Position>
            <AltitudeMeters>817.4000244140625</AltitudeMeters>
            <DistanceMeters>NAN</DistanceMeters>
          </Trackpoint>
          <Trackpoint>
            <Time>2020-12-05T09:38:26.000Z</Time>
            <Position>
              <LatitudeDegrees>36.81823764927685260772705078125</LatitudeDegrees>
              <LongitudeDegrees>-4.38783922232687473297119140625</LongitudeDegrees>
            </Position>
            <AltitudeMeters>817.4000244140625</AltitudeMeters>
            <DistanceMeters>NAN</DistanceMeters>
          </Trackpoint>
          <Trackpoint>
            <Time>2020-12-05T09:38:27.000Z</Time>
            <Position>
              <LatitudeDegrees>36.8182434327900409698486328125</LatitudeDegrees>
              <LongitudeDegrees>-4.38783737830817699432373046875</LongitudeDegrees>
            </Position>
            <AltitudeMeters>817.20001220703125</AltitudeMeters>
            <DistanceMeters>NAN</DistanceMeters>
          </Trackpoint>
          <Trackpoint>
            <Time>2020-12-05T09:38:28.000Z</Time>
            <Position>
              <LatitudeDegrees>36.8182474561035633087158203125</LatitudeDegrees>
              <LongitudeDegrees>-4.38783704303205013275146484375</LongitudeDegrees>
            </Position>
            <AltitudeMeters>817</AltitudeMeters>
            <DistanceMeters>NAN</DistanceMeters>
          </Trackpoint>
          <Trackpoint>
            <Time>2020-12-05T09:38:29.000Z</Time>
            <Position>
              <LatitudeDegrees>36.81825106032192707061767578125</LatitudeDegrees>
              <LongitudeDegrees>-4.38783452846109867095947265625</LongitudeDegrees>
            </Position>
            <AltitudeMeters>816.5999755859375</AltitudeMeters>
            <DistanceMeters>NAN</DistanceMeters>
          </Trackpoint>
          <Trackpoint>
            <Time>2020-12-05T09:38:30.000Z</Time>
            <Position>
              <LatitudeDegrees>36.8182511441409587860107421875</LatitudeDegrees>
              <LongitudeDegrees>-4.3878270685672760009765625</LongitudeDegrees>
            </Position>
            <AltitudeMeters>816.4000244140625</AltitudeMeters>
            <DistanceMeters>NAN</DistanceMeters>
          </Trackpoint>
          <Trackpoint>
            <Time>2020-12-05T09:38:31.000Z</Time>
            <Position>
              <LatitudeDegrees>36.81825038976967334747314453125</LatitudeDegrees>
              <LongitudeDegrees>-4.38782732002437114715576171875</LongitudeDegrees>
            </Position>
            <AltitudeMeters>816.20001220703125</AltitudeMeters>
            <DistanceMeters>NAN</DistanceMeters>
          </Trackpoint>
          <Trackpoint>
            <Time>2020-12-05T09:38:32.000Z</Time>
            <Position>
              <LatitudeDegrees>36.8182474561035633087158203125</LatitudeDegrees>
              <LongitudeDegrees>-4.38783117569983005523681640625</LongitudeDegrees>
            </Position>
            <AltitudeMeters>816.20001220703125</AltitudeMeters>
            <DistanceMeters>NAN</DistanceMeters>
          </Trackpoint>
          <Trackpoint>
            <Time>2020-12-05T09:38:33.000Z</Time>
            <Position>
              <LatitudeDegrees>36.8182441033422946929931640625</LatitudeDegrees>
              <LongitudeDegrees>-4.38783285208046436309814453125</LongitudeDegrees>
            </Position>
            <AltitudeMeters>816</AltitudeMeters>
            <DistanceMeters>NAN</DistanceMeters>
          </Trackpoint>
          <Trackpoint>
            <Time>2020-12-05T09:38:34.000Z</Time>
            <Position>
              <LatitudeDegrees>36.8182414211332798004150390625</LatitudeDegrees>
              <LongitudeDegrees>-4.38783268444240093231201171875</LongitudeDegrees>
            </Position>
            <AltitudeMeters>815.79998779296875</AltitudeMeters>
            <DistanceMeters>NAN</DistanceMeters>
          </Trackpoint>
          <Trackpoint>
            <Time>2020-12-05T09:38:35.000Z</Time>
            <Position>
              <LatitudeDegrees>36.81823982857167720794677734375</LatitudeDegrees>
              <LongitudeDegrees>-4.3878305889666080474853515625</LongitudeDegrees>
            </Position>
            <AltitudeMeters>815.5999755859375</AltitudeMeters>
            <DistanceMeters>NAN</DistanceMeters>
          </Trackpoint>
          <Trackpoint>
            <Time>2020-12-05T09:38:36.000Z</Time>
            <Position>
              <LatitudeDegrees>36.8182353861629962921142578125</LatitudeDegrees>
              <LongitudeDegrees>-4.38782530836760997772216796875</LongitudeDegrees>
            </Position>
            <AltitudeMeters>815.4000244140625</AltitudeMeters>
            <DistanceMeters>NAN</DistanceMeters>
          </Trackpoint>
          <Trackpoint>
            <Time>2020-12-05T09:38:37.000Z</Time>
            <Position>
              <LatitudeDegrees>36.818234883248805999755859375</LatitudeDegrees>
              <LongitudeDegrees>-4.38782111741602420806884765625</LongitudeDegrees>
            </Position>
            <AltitudeMeters>815.20001220703125</AltitudeMeters>
            <DistanceMeters>NAN</DistanceMeters>
          </Trackpoint>
          <Trackpoint>
            <Time>2020-12-05T09:38:38.000Z</Time>
            <Position>
              <LatitudeDegrees>36.8182353861629962921142578125</LatitudeDegrees>
              <LongitudeDegrees>-4.3878188543021678924560546875</LongitudeDegrees>
            </Position>
            <AltitudeMeters>814.79998779296875</AltitudeMeters>
            <DistanceMeters>NAN</DistanceMeters>
          </Trackpoint>
          <Trackpoint>
            <Time>2020-12-05T09:38:39.000Z</Time>
            <Position>
              <LatitudeDegrees>36.818240247666835784912109375</LatitudeDegrees>
              <LongitudeDegrees>-4.387813322246074676513671875</LongitudeDegrees>
            </Position>
            <AltitudeMeters>814.5999755859375</AltitudeMeters>
            <DistanceMeters>NAN</DistanceMeters>
          </Trackpoint>
          <Trackpoint>
            <Time>2020-12-05T09:38:40.000Z</Time>
            <Position>
              <LatitudeDegrees>36.8182464502751827239990234375</LatitudeDegrees>
              <LongitudeDegrees>-4.38780351541936397552490234375</LongitudeDegrees>
            </Position>
            <AltitudeMeters>814.20001220703125</AltitudeMeters>
            <DistanceMeters>NAN</DistanceMeters>
          </Trackpoint>
          <Trackpoint>
            <Time>2020-12-05T09:38:41.000Z</Time>
            <Position>
              <LatitudeDegrees>36.81825156323611736297607421875</LatitudeDegrees>
              <LongitudeDegrees>-4.3877973966300487518310546875</LongitudeDegrees>
            </Position>
            <AltitudeMeters>814</AltitudeMeters>
            <DistanceMeters>NAN</DistanceMeters>
          </Trackpoint>
          <Trackpoint>
            <Time>2020-12-05T09:38:42.000Z</Time>
            <Position>
              <LatitudeDegrees>36.8182615377008914947509765625</LatitudeDegrees>
              <LongitudeDegrees>-4.387785829603672027587890625</LongitudeDegrees>
            </Position>
            <AltitudeMeters>814</AltitudeMeters>
            <DistanceMeters>NAN</DistanceMeters>
          </Trackpoint>
          <Trackpoint>
            <Time>2020-12-05T09:38:43.000Z</Time>
            <Position>
              <LatitudeDegrees>36.81826698593795299530029296875</LatitudeDegrees>
              <LongitudeDegrees>-4.38778121955692768096923828125</LongitudeDegrees>
            </Position>
            <AltitudeMeters>814</AltitudeMeters>
            <DistanceMeters>NAN</DistanceMeters>
          </Trackpoint>
          <Trackpoint>
            <Time>2020-12-05T09:38:44.000Z</Time>
            <Position>
              <LatitudeDegrees>36.8182712607085704803466796875</LatitudeDegrees>
              <LongitudeDegrees>-4.3877816386520862579345703125</LongitudeDegrees>
            </Position>
            <AltitudeMeters>814</AltitudeMeters>
            <DistanceMeters>NAN</DistanceMeters>
          </Trackpoint>
          <Trackpoint>
            <Time>2020-12-05T09:38:45.000Z</Time>
            <Position>
              <LatitudeDegrees>36.818273104727268218994140625</LatitudeDegrees>
              <LongitudeDegrees>-4.3877843208611011505126953125</LongitudeDegrees>
            </Position>
            <AltitudeMeters>814</AltitudeMeters>
            <DistanceMeters>NAN</DistanceMeters>
          </Trackpoint>
          <Trackpoint>
            <Time>2020-12-05T09:38:46.000Z</Time>
            <Position>
              <LatitudeDegrees>36.81827067397534847259521484375</LatitudeDegrees>
              <LongitudeDegrees>-4.387785829603672027587890625</LongitudeDegrees>
            </Position>
            <AltitudeMeters>814</AltitudeMeters>
            <DistanceMeters>NAN</DistanceMeters>
          </Trackpoint>
          <Trackpoint>
            <Time>2020-12-05T09:38:47.000Z</Time>
            <Position>
              <LatitudeDegrees>36.81826581247150897979736328125</LatitudeDegrees>
              <LongitudeDegrees>-4.3877863325178623199462890625</LongitudeDegrees>
            </Position>
            <AltitudeMeters>814</AltitudeMeters>
            <DistanceMeters>NAN</DistanceMeters>
          </Trackpoint>
          <Trackpoint>
            <Time>2020-12-05T09:38:48.000Z</Time>
            <Position>
              <LatitudeDegrees>36.81826279498636722564697265625</LatitudeDegrees>
              <LongitudeDegrees>-4.38778557814657688140869140625</LongitudeDegrees>
            </Position>
            <AltitudeMeters>814</AltitudeMeters>
            <DistanceMeters>NAN</DistanceMeters>
          </Trackpoint>
          <Trackpoint>
            <Time>2020-12-05T09:38:49.000Z</Time>
            <Position>
              <LatitudeDegrees>36.8182628788053989410400390625</LatitudeDegrees>
              <LongitudeDegrees>-4.3877841532230377197265625</LongitudeDegrees>
            </Position>
            <AltitudeMeters>813.79998779296875</AltitudeMeters>
            <DistanceMeters>NAN</DistanceMeters>
          </Trackpoint>
          <Trackpoint>
            <Time>2020-12-05T09:38:50.000Z</Time>
            <Position>
              <LatitudeDegrees>36.8182645551860332489013671875</LatitudeDegrees>
              <LongitudeDegrees>-4.38778390176594257354736328125</LongitudeDegrees>
            </Position>
            <AltitudeMeters>813.79998779296875</AltitudeMeters>
            <DistanceMeters>NAN</DistanceMeters>
          </Trackpoint>
          <Trackpoint>
            <Time>2020-12-05T09:38:51.000Z</Time>
            <Position>
              <LatitudeDegrees>36.818267405033111572265625</LatitudeDegrees>
              <LongitudeDegrees>-4.38778608106076717376708984375</LongitudeDegrees>
            </Position>
            <AltitudeMeters>813.5999755859375</AltitudeMeters>
            <DistanceMeters>NAN</DistanceMeters>
          </Trackpoint>
          <Trackpoint>
            <Time>2020-12-05T09:38:52.000Z</Time>
            <Position>
              <LatitudeDegrees>36.81827184744179248809814453125</LatitudeDegrees>
              <LongitudeDegrees>-4.38778406940400600433349609375</LongitudeDegrees>
            </Position>
            <AltitudeMeters>813.5999755859375</AltitudeMeters>
            <DistanceMeters>NAN</DistanceMeters>
          </Trackpoint>
          <Trackpoint>
            <Time>2020-12-05T09:38:53.000Z</Time>
            <Position>
              <LatitudeDegrees>36.81827201507985591888427734375</LatitudeDegrees>
              <LongitudeDegrees>-4.38778239302337169647216796875</LongitudeDegrees>
            </Position>
            <AltitudeMeters>813.79998779296875</AltitudeMeters>
            <DistanceMeters>NAN</DistanceMeters>
          </Trackpoint>
          <Trackpoint>
            <Time>2020-12-05T09:38:54.000Z</Time>
            <Position>
              <LatitudeDegrees>36.818269081413745880126953125</LatitudeDegrees>
              <LongitudeDegrees>-4.387779124081134796142578125</LongitudeDegrees>
            </Position>
            <AltitudeMeters>813.79998779296875</AltitudeMeters>
            <DistanceMeters>NAN</DistanceMeters>
          </Trackpoint>
          <Trackpoint>
            <Time>2020-12-05T09:38:55.000Z</Time>
            <Position>
              <LatitudeDegrees>36.8182632140815258026123046875</LatitudeDegrees>
              <LongitudeDegrees>-4.38777954317629337310791015625</LongitudeDegrees>
            </Position>
            <AltitudeMeters>813.79998779296875</AltitudeMeters>
            <DistanceMeters>NAN</DistanceMeters>
          </Trackpoint>
          <Trackpoint>
            <Time>2020-12-05T09:38:56.000Z</Time>
            <Position>
              <LatitudeDegrees>36.818248964846134185791015625</LatitudeDegrees>
              <LongitudeDegrees>-4.38778482377529144287109375</LongitudeDegrees>
            </Position>
            <AltitudeMeters>814</AltitudeMeters>
            <DistanceMeters>NAN</DistanceMeters>
          </Trackpoint>
          <Trackpoint>
            <Time>2020-12-05T09:38:57.000Z</Time>
            <Position>
              <LatitudeDegrees>36.81823245249688625335693359375</LatitudeDegrees>
              <LongitudeDegrees>-4.38779161311686038970947265625</LongitudeDegrees>
            </Position>
            <AltitudeMeters>814.20001220703125</AltitudeMeters>
            <DistanceMeters>NAN</DistanceMeters>
          </Trackpoint>
          <Trackpoint>
            <Time>2020-12-05T09:38:58.000Z</Time>
            <Position>
              <LatitudeDegrees>36.818220131099224090576171875</LatitudeDegrees>
              <LongitudeDegrees>-4.3877997435629367828369140625</LongitudeDegrees>
            </Position>
            <AltitudeMeters>814.4000244140625</AltitudeMeters>
            <DistanceMeters>NAN</DistanceMeters>
          </Trackpoint>
          <Trackpoint>
            <Time>2020-12-05T09:38:59.000Z</Time>
            <Position>
              <LatitudeDegrees>36.8182145990431308746337890625</LatitudeDegrees>
              <LongitudeDegrees>-4.38780686818063259124755859375</LongitudeDegrees>
            </Position>
            <AltitudeMeters>814.79998779296875</AltitudeMeters>
            <DistanceMeters>NAN</DistanceMeters>
          </Trackpoint>
          <Trackpoint>
            <Time>2020-12-05T09:39:00.000Z</Time>
            <Position>
              <LatitudeDegrees>36.81821267120540142059326171875</LatitudeDegrees>
              <LongitudeDegrees>-4.3878104723989963531494140625</LongitudeDegrees>
            </Position>
            <AltitudeMeters>815.20001220703125</AltitudeMeters>
            <DistanceMeters>NAN</DistanceMeters>
          </Trackpoint>
          <Trackpoint>
            <Time>2020-12-05T09:39:01.000Z</Time>
            <Position>
              <LatitudeDegrees>36.81821309030055999755859375</LatitudeDegrees>
              <LongitudeDegrees>-4.3878138251602649688720703125</LongitudeDegrees>
            </Position>
            <AltitudeMeters>815.4000244140625</AltitudeMeters>
            <DistanceMeters>NAN</DistanceMeters>
          </Trackpoint>
          <Trackpoint>
            <Time>2020-12-05T09:39:02.000Z</Time>
            <Position>
              <LatitudeDegrees>36.81821686215698719024658203125</LatitudeDegrees>
              <LongitudeDegrees>-4.38781709410250186920166015625</LongitudeDegrees>
            </Position>
            <AltitudeMeters>815.79998779296875</AltitudeMeters>
            <DistanceMeters>NAN</DistanceMeters>
          </Trackpoint>
          <Trackpoint>
            <Time>2020-12-05T09:39:03.000Z</Time>
            <Position>
              <LatitudeDegrees>36.81821367703378200531005859375</LatitudeDegrees>
              <LongitudeDegrees>-4.38782497309148311614990234375</LongitudeDegrees>
            </Position>
            <AltitudeMeters>816.4000244140625</AltitudeMeters>
            <DistanceMeters>NAN</DistanceMeters>
          </Trackpoint>
          <Trackpoint>
            <Time>2020-12-05T09:39:04.000Z</Time>
            <Position>
              <LatitudeDegrees>36.81820345111191272735595703125</LatitudeDegrees>
              <LongitudeDegrees>-4.387842155992984771728515625</LongitudeDegrees>
            </Position>
            <AltitudeMeters>816.4000244140625</AltitudeMeters>
            <DistanceMeters>NAN</DistanceMeters>
          </Trackpoint>
          <Trackpoint>
            <Time>2020-12-05T09:39:05.000Z</Time>
            <Position>
              <LatitudeDegrees>36.8181914649903774261474609375</LatitudeDegrees>
              <LongitudeDegrees>-4.38785816542804241180419921875</LongitudeDegrees>
            </Position>
            <AltitudeMeters>816.4000244140625</AltitudeMeters>
            <DistanceMeters>NAN</DistanceMeters>
          </Trackpoint>
          <Trackpoint>
            <Time>2020-12-05T09:39:06.000Z</Time>
            <Position>
              <LatitudeDegrees>36.81817914359271526336669921875</LatitudeDegrees>
              <LongitudeDegrees>-4.38787241466343402862548828125</LongitudeDegrees>
            </Position>
            <AltitudeMeters>816.4000244140625</AltitudeMeters>
            <DistanceMeters>NAN</DistanceMeters>
          </Trackpoint>
          <Trackpoint>
            <Time>2020-12-05T09:39:07.000Z</Time>
            <Position>
              <LatitudeDegrees>36.818169169127941131591796875</LatitudeDegrees>
              <LongitudeDegrees>-4.3878892622888088226318359375</LongitudeDegrees>
            </Position>
            <AltitudeMeters>816.4000244140625</AltitudeMeters>
            <DistanceMeters>NAN</DistanceMeters>
          </Trackpoint>
          <Trackpoint>
            <Time>2020-12-05T09:39:08.000Z</Time>
            <Position>
              <LatitudeDegrees>36.818160116672515869140625</LatitudeDegrees>
              <LongitudeDegrees>-4.3879040144383907318115234375</LongitudeDegrees>
            </Position>
            <AltitudeMeters>816.5999755859375</AltitudeMeters>
            <DistanceMeters>NAN</DistanceMeters>
          </Trackpoint>
          <Trackpoint>
            <Time>2020-12-05T09:39:09.000Z</Time>
            <Position>
              <LatitudeDegrees>36.8181505613029003143310546875</LatitudeDegrees>
              <LongitudeDegrees>-4.38792035914957523345947265625</LongitudeDegrees>
            </Position>
            <AltitudeMeters>816.4000244140625</AltitudeMeters>
            <DistanceMeters>NAN</DistanceMeters>
          </Trackpoint>
          <Trackpoint>
            <Time>2020-12-05T09:39:10.000Z</Time>
            <Position>
              <LatitudeDegrees>36.81814360432326793670654296875</LatitudeDegrees>
              <LongitudeDegrees>-4.38793460838496685028076171875</LongitudeDegrees>
            </Position>
            <AltitudeMeters>816.20001220703125</AltitudeMeters>
            <DistanceMeters>NAN</DistanceMeters>
          </Trackpoint>
          <Trackpoint>
            <Time>2020-12-05T09:39:11.000Z</Time>
            <Position>
              <LatitudeDegrees>36.81813706643879413604736328125</LatitudeDegrees>
              <LongitudeDegrees>-4.38794701360166072845458984375</LongitudeDegrees>
            </Position>
            <AltitudeMeters>816</AltitudeMeters>
            <DistanceMeters>NAN</DistanceMeters>
          </Trackpoint>
          <Trackpoint>
            <Time>2020-12-05T09:39:12.000Z</Time>
            <Position>
              <LatitudeDegrees>36.81813287548720836639404296875</LatitudeDegrees>
              <LongitudeDegrees>-4.3879546411335468292236328125</LongitudeDegrees>
            </Position>
            <AltitudeMeters>815.79998779296875</AltitudeMeters>
            <DistanceMeters>NAN</DistanceMeters>
          </Trackpoint>
          <Trackpoint>
            <Time>2020-12-05T09:39:13.000Z</Time>
            <Position>
              <LatitudeDegrees>36.81812700815498828887939453125</LatitudeDegrees>
              <LongitudeDegrees>-4.387959502637386322021484375</LongitudeDegrees>
            </Position>
            <AltitudeMeters>815.79998779296875</AltitudeMeters>
            <DistanceMeters>NAN</DistanceMeters>
          </Trackpoint>
          <Trackpoint>
            <Time>2020-12-05T09:39:14.000Z</Time>
            <Position>
              <LatitudeDegrees>36.81811896152794361114501953125</LatitudeDegrees>
              <LongitudeDegrees>-4.38796092756092548370361328125</LongitudeDegrees>
            </Position>
            <AltitudeMeters>815.79998779296875</AltitudeMeters>
            <DistanceMeters>NAN</DistanceMeters>
          </Trackpoint>
          <Trackpoint>
            <Time>2020-12-05T09:39:15.000Z</Time>
            <Position>
              <LatitudeDegrees>36.81810940615832805633544921875</LatitudeDegrees>
              <LongitudeDegrees>-4.38796780072152614593505859375</LongitudeDegrees>
            </Position>
            <AltitudeMeters>815.79998779296875</AltitudeMeters>
            <DistanceMeters>NAN</DistanceMeters>
          </Trackpoint>
          <Trackpoint>
            <Time>2020-12-05T09:39:16.000Z</Time>
            <Position>
              <LatitudeDegrees>36.81809515692293643951416015625</LatitudeDegrees>
              <LongitudeDegrees>-4.38797391951084136962890625</LongitudeDegrees>
            </Position>
            <AltitudeMeters>816</AltitudeMeters>
            <DistanceMeters>NAN</DistanceMeters>
          </Trackpoint>
          <Trackpoint>
            <Time>2020-12-05T09:39:17.000Z</Time>
            <Position>
              <LatitudeDegrees>36.81808258406817913055419921875</LatitudeDegrees>
              <LongitudeDegrees>-4.38797886483371257781982421875</LongitudeDegrees>
            </Position>
            <AltitudeMeters>816.20001220703125</AltitudeMeters>
            <DistanceMeters>NAN</DistanceMeters>
          </Trackpoint>
          <Trackpoint>
            <Time>2020-12-05T09:39:18.000Z</Time>
            <Position>
              <LatitudeDegrees>36.8180721066892147064208984375</LatitudeDegrees>
              <LongitudeDegrees>-4.38799043186008930206298828125</LongitudeDegrees>
            </Position>
            <AltitudeMeters>816.20001220703125</AltitudeMeters>
            <DistanceMeters>NAN</DistanceMeters>
          </Trackpoint>
          <Trackpoint>
            <Time>2020-12-05T09:39:19.000Z</Time>
            <Position>
              <LatitudeDegrees>36.81806582026183605194091796875</LatitudeDegrees>
              <LongitudeDegrees>-4.38799914903938770294189453125</LongitudeDegrees>
            </Position>
            <AltitudeMeters>816.4000244140625</AltitudeMeters>
            <DistanceMeters>NAN</DistanceMeters>
          </Trackpoint>
          <Trackpoint>
            <Time>2020-12-05T09:39:20.000Z</Time>
            <Position>
              <LatitudeDegrees>36.81806280277669429779052734375</LatitudeDegrees>
              <LongitudeDegrees>-4.3880092911422252655029296875</LongitudeDegrees>
            </Position>
            <AltitudeMeters>816.79998779296875</AltitudeMeters>
            <DistanceMeters>NAN</DistanceMeters>
          </Trackpoint>
          <Trackpoint>
            <Time>2020-12-05T09:39:21.000Z</Time>
            <Position>
              <LatitudeDegrees>36.8180546723306179046630859375</LatitudeDegrees>
              <LongitudeDegrees>-4.38802161253988742828369140625</LongitudeDegrees>
            </Position>
            <AltitudeMeters>817.20001220703125</AltitudeMeters>
            <DistanceMeters>NAN</DistanceMeters>
          </Trackpoint>
          <Trackpoint>
            <Time>2020-12-05T09:39:22.000Z</Time>
            <Position>
              <LatitudeDegrees>36.818049810826778411865234375</LatitudeDegrees>
              <LongitudeDegrees>-4.388029910624027252197265625</LongitudeDegrees>
            </Position>
            <AltitudeMeters>817.79998779296875</AltitudeMeters>
            <DistanceMeters>NAN</DistanceMeters>
          </Trackpoint>
          <Trackpoint>
            <Time>2020-12-05T09:39:23.000Z</Time>
            <Position>
              <LatitudeDegrees>36.81804520078003406524658203125</LatitudeDegrees>
              <LongitudeDegrees>-4.3880414776504039764404296875</LongitudeDegrees>
            </Position>
            <AltitudeMeters>818.20001220703125</AltitudeMeters>
            <DistanceMeters>NAN</DistanceMeters>
          </Trackpoint>
          <Trackpoint>
            <Time>2020-12-05T09:39:24.000Z</Time>
            <Position>
              <LatitudeDegrees>36.8180375732481479644775390625</LatitudeDegrees>
              <LongitudeDegrees>-4.3880595825612545013427734375</LongitudeDegrees>
            </Position>
            <AltitudeMeters>818.4000244140625</AltitudeMeters>
            <DistanceMeters>NAN</DistanceMeters>
          </Trackpoint>
          <Trackpoint>
            <Time>2020-12-05T09:39:25.000Z</Time>
            <Position>
              <LatitudeDegrees>36.81803472340106964111328125</LatitudeDegrees>
              <LongitudeDegrees>-4.3880793638527393341064453125</LongitudeDegrees>
            </Position>
            <AltitudeMeters>818.4000244140625</AltitudeMeters>
            <DistanceMeters>NAN</DistanceMeters>
          </Trackpoint>
          <Trackpoint>
            <Time>2020-12-05T09:39:26.000Z</Time>
            <Position>
              <LatitudeDegrees>36.8180322088301181793212890625</LatitudeDegrees>
              <LongitudeDegrees>-4.388098977506160736083984375</LongitudeDegrees>
            </Position>
            <AltitudeMeters>818.5999755859375</AltitudeMeters>
            <DistanceMeters>NAN</DistanceMeters>
          </Trackpoint>
          <Trackpoint>
            <Time>2020-12-05T09:39:27.000Z</Time>
            <Position>
              <LatitudeDegrees>36.818025670945644378662109375</LatitudeDegrees>
              <LongitudeDegrees>-4.38810643739998340606689453125</LongitudeDegrees>
            </Position>
            <AltitudeMeters>818.4000244140625</AltitudeMeters>
            <DistanceMeters>NAN</DistanceMeters>
          </Trackpoint>
          <Trackpoint>
            <Time>2020-12-05T09:39:28.000Z</Time>
            <Position>
              <LatitudeDegrees>36.8180214799940586090087890625</LatitudeDegrees>
              <LongitudeDegrees>-4.38811347819864749908447265625</LongitudeDegrees>
            </Position>
            <AltitudeMeters>818.4000244140625</AltitudeMeters>
            <DistanceMeters>NAN</DistanceMeters>
          </Trackpoint>
          <Trackpoint>
            <Time>2020-12-05T09:39:29.000Z</Time>
            <Position>
              <LatitudeDegrees>36.81801938451826572418212890625</LatitudeDegrees>
              <LongitudeDegrees>-4.388122446835041046142578125</LongitudeDegrees>
            </Position>
            <AltitudeMeters>818.20001220703125</AltitudeMeters>
            <DistanceMeters>NAN</DistanceMeters>
          </Trackpoint>
          <Trackpoint>
            <Time>2020-12-05T09:39:30.000Z</Time>
            <Position>
              <LatitudeDegrees>36.81801754049956798553466796875</LatitudeDegrees>
              <LongitudeDegrees>-4.38813074491918087005615234375</LongitudeDegrees>
            </Position>
            <AltitudeMeters>818.20001220703125</AltitudeMeters>
            <DistanceMeters>NAN</DistanceMeters>
          </Trackpoint>
          <Trackpoint>
            <Time>2020-12-05T09:39:31.000Z</Time>
            <Position>
              <LatitudeDegrees>36.81801569648087024688720703125</LatitudeDegrees>
              <LongitudeDegrees>-4.388139210641384124755859375</LongitudeDegrees>
            </Position>
            <AltitudeMeters>818</AltitudeMeters>
            <DistanceMeters>NAN</DistanceMeters>
          </Trackpoint>
          <Trackpoint>
            <Time>2020-12-05T09:39:32.000Z</Time>
            <Position>
              <LatitudeDegrees>36.8180166184902191162109375</LatitudeDegrees>
              <LongitudeDegrees>-4.3881457485258579254150390625</LongitudeDegrees>
            </Position>
            <AltitudeMeters>817.4000244140625</AltitudeMeters>
            <DistanceMeters>NAN</DistanceMeters>
          </Trackpoint>
          <Trackpoint>
            <Time>2020-12-05T09:39:33.000Z</Time>
            <Position>
              <LatitudeDegrees>36.81801619939506053924560546875</LatitudeDegrees>
              <LongitudeDegrees>-4.38815086148679256439208984375</LongitudeDegrees>
            </Position>
            <AltitudeMeters>817.20001220703125</AltitudeMeters>
            <DistanceMeters>NAN</DistanceMeters>
          </Trackpoint>
          <Trackpoint>
            <Time>2020-12-05T09:39:34.000Z</Time>
            <Position>
              <LatitudeDegrees>36.81801259517669677734375</LatitudeDegrees>
              <LongitudeDegrees>-4.388153962790966033935546875</LongitudeDegrees>
            </Position>
            <AltitudeMeters>817</AltitudeMeters>
            <DistanceMeters>NAN</DistanceMeters>
          </Trackpoint>
          <Trackpoint>
            <Time>2020-12-05T09:39:35.000Z</Time>
            <Position>
              <LatitudeDegrees>36.81800362654030323028564453125</LatitudeDegrees>
              <LongitudeDegrees>-4.388157315552234649658203125</LongitudeDegrees>
            </Position>
            <AltitudeMeters>817</AltitudeMeters>
            <DistanceMeters>NAN</DistanceMeters>
          </Trackpoint>
          <Trackpoint>
            <Time>2020-12-05T09:39:36.000Z</Time>
            <Position>
              <LatitudeDegrees>36.8179919756948947906494140625</LatitudeDegrees>
              <LongitudeDegrees>-4.38815790228545665740966796875</LongitudeDegrees>
            </Position>
            <AltitudeMeters>816.79998779296875</AltitudeMeters>
            <DistanceMeters>NAN</DistanceMeters>
          </Trackpoint>
          <Trackpoint>
            <Time>2020-12-05T09:39:37.000Z</Time>
            <Position>
              <LatitudeDegrees>36.817984767258167266845703125</LatitudeDegrees>
              <LongitudeDegrees>-4.38815387897193431854248046875</LongitudeDegrees>
            </Position>
            <AltitudeMeters>816.79998779296875</AltitudeMeters>
            <DistanceMeters>NAN</DistanceMeters>
          </Trackpoint>
          <Trackpoint>
            <Time>2020-12-05T09:39:38.000Z</Time>
            <Position>
              <LatitudeDegrees>36.81797747500240802764892578125</LatitudeDegrees>
              <LongitudeDegrees>-4.38814449124038219451904296875</LongitudeDegrees>
            </Position>
            <AltitudeMeters>817</AltitudeMeters>
            <DistanceMeters>NAN</DistanceMeters>
          </Trackpoint>
          <Trackpoint>
            <Time>2020-12-05T09:39:39.000Z</Time>
            <Position>
              <LatitudeDegrees>36.8179708532989025115966796875</LatitudeDegrees>
              <LongitudeDegrees>-4.38813812099397182464599609375</LongitudeDegrees>
            </Position>
            <AltitudeMeters>817</AltitudeMeters>
            <DistanceMeters>NAN</DistanceMeters>
          </Trackpoint>
          <Trackpoint>
            <Time>2020-12-05T09:39:40.000Z</Time>
            <Position>
              <LatitudeDegrees>36.81796490214765071868896484375</LatitudeDegrees>
              <LongitudeDegrees>-4.38813074491918087005615234375</LongitudeDegrees>
            </Position>
            <AltitudeMeters>817.20001220703125</AltitudeMeters>
            <DistanceMeters>NAN</DistanceMeters>
          </Trackpoint>
          <Trackpoint>
            <Time>2020-12-05T09:39:41.000Z</Time>
            <Position>
              <LatitudeDegrees>36.817966662347316741943359375</LatitudeDegrees>
              <LongitudeDegrees>-4.3881299905478954315185546875</LongitudeDegrees>
            </Position>
            <AltitudeMeters>817.20001220703125</AltitudeMeters>
            <DistanceMeters>NAN</DistanceMeters>
          </Trackpoint>
          <Trackpoint>
            <Time>2020-12-05T09:39:42.000Z</Time>
            <Position>
              <LatitudeDegrees>36.81797160767018795013427734375</LatitudeDegrees>
              <LongitudeDegrees>-4.38813057728111743927001953125</LongitudeDegrees>
            </Position>
            <AltitudeMeters>817</AltitudeMeters>
            <DistanceMeters>NAN</DistanceMeters>
          </Trackpoint>
          <Trackpoint>
            <Time>2020-12-05T09:39:43.000Z</Time>
            <Position>
              <LatitudeDegrees>36.8179745413362979888916015625</LatitudeDegrees>
              <LongitudeDegrees>-4.3881313316524028778076171875</LongitudeDegrees>
            </Position>
            <AltitudeMeters>816.79998779296875</AltitudeMeters>
            <DistanceMeters>NAN</DistanceMeters>
          </Trackpoint>
          <Trackpoint>
            <Time>2020-12-05T09:39:44.000Z</Time>
            <Position>
              <LatitudeDegrees>36.81797705590724945068359375</LatitudeDegrees>
              <LongitudeDegrees>-4.3881263025104999542236328125</LongitudeDegrees>
            </Position>
            <AltitudeMeters>816.79998779296875</AltitudeMeters>
            <DistanceMeters>NAN</DistanceMeters>
          </Trackpoint>
          <Trackpoint>
            <Time>2020-12-05T09:39:45.000Z</Time>
            <Position>
              <LatitudeDegrees>36.81797973811626434326171875</LatitudeDegrees>
              <LongitudeDegrees>-4.3881239555776119232177734375</LongitudeDegrees>
            </Position>
            <AltitudeMeters>816.79998779296875</AltitudeMeters>
            <DistanceMeters>NAN</DistanceMeters>
          </Trackpoint>
          <Trackpoint>
            <Time>2020-12-05T09:39:46.000Z</Time>
            <Position>
              <LatitudeDegrees>36.81798149831593036651611328125</LatitudeDegrees>
              <LongitudeDegrees>-4.38812873326241970062255859375</LongitudeDegrees>
            </Position>
            <AltitudeMeters>816.5999755859375</AltitudeMeters>
            <DistanceMeters>NAN</DistanceMeters>
          </Trackpoint>
          <Trackpoint>
            <Time>2020-12-05T09:39:47.000Z</Time>
            <Position>
              <LatitudeDegrees>36.8179857730865478515625</LatitudeDegrees>
              <LongitudeDegrees>-4.38813493587076663970947265625</LongitudeDegrees>
            </Position>
            <AltitudeMeters>816.4000244140625</AltitudeMeters>
            <DistanceMeters>NAN</DistanceMeters>
          </Trackpoint>
          <Trackpoint>
            <Time>2020-12-05T09:39:48.000Z</Time>
            <Position>
              <LatitudeDegrees>36.8179876171052455902099609375</LatitudeDegrees>
              <LongitudeDegrees>-4.3881423957645893096923828125</LongitudeDegrees>
            </Position>
            <AltitudeMeters>816.4000244140625</AltitudeMeters>
            <DistanceMeters>NAN</DistanceMeters>
          </Trackpoint>
          <Trackpoint>
            <Time>2020-12-05T09:39:49.000Z</Time>
            <Position>
              <LatitudeDegrees>36.8179896287620067596435546875</LatitudeDegrees>
              <LongitudeDegrees>-4.38814826309680938720703125</LongitudeDegrees>
            </Position>
            <AltitudeMeters>816.20001220703125</AltitudeMeters>
            <DistanceMeters>NAN</DistanceMeters>
          </Trackpoint>
          <Trackpoint>
            <Time>2020-12-05T09:39:50.000Z</Time>
            <Position>
              <LatitudeDegrees>36.81799323298037052154541015625</LatitudeDegrees>
              <LongitudeDegrees>-4.38815237022936344146728515625</LongitudeDegrees>
            </Position>
            <AltitudeMeters>816.20001220703125</AltitudeMeters>
            <DistanceMeters>NAN</DistanceMeters>
          </Trackpoint>
          <Trackpoint>
            <Time>2020-12-05T09:39:51.000Z</Time>
            <Position>
              <LatitudeDegrees>36.81799507699906826019287109375</LatitudeDegrees>
              <LongitudeDegrees>-4.38815538771450519561767578125</LongitudeDegrees>
            </Position>
            <AltitudeMeters>816</AltitudeMeters>
            <DistanceMeters>NAN</DistanceMeters>
          </Trackpoint>
          <Trackpoint>
            <Time>2020-12-05T09:39:52.000Z</Time>
            <Position>
              <LatitudeDegrees>36.81799742393195629119873046875</LatitudeDegrees>
              <LongitudeDegrees>-4.388159327208995819091796875</LongitudeDegrees>
            </Position>
            <AltitudeMeters>816</AltitudeMeters>
            <DistanceMeters>NAN</DistanceMeters>
          </Trackpoint>
          <Trackpoint>
            <Time>2020-12-05T09:39:53.000Z</Time>
            <Position>
              <LatitudeDegrees>36.81799574755132198333740234375</LatitudeDegrees>
              <LongitudeDegrees>-4.3881623446941375732421875</LongitudeDegrees>
            </Position>
            <AltitudeMeters>815.79998779296875</AltitudeMeters>
            <DistanceMeters>NAN</DistanceMeters>
          </Trackpoint>
          <Trackpoint>
            <Time>2020-12-05T09:39:54.000Z</Time>
            <Position>
              <LatitudeDegrees>36.81799356825649738311767578125</LatitudeDegrees>
              <LongitudeDegrees>-4.38816712237894535064697265625</LongitudeDegrees>
            </Position>
            <AltitudeMeters>816</AltitudeMeters>
            <DistanceMeters>NAN</DistanceMeters>
          </Trackpoint>
          <Trackpoint>
            <Time>2020-12-05T09:39:55.000Z</Time>
            <Position>
              <LatitudeDegrees>36.8179924786090850830078125</LatitudeDegrees>
              <LongitudeDegrees>-4.3881692178547382354736328125</LongitudeDegrees>
            </Position>
            <AltitudeMeters>816</AltitudeMeters>
            <DistanceMeters>NAN</DistanceMeters>
          </Trackpoint>
          <Trackpoint>
            <Time>2020-12-05T09:39:56.000Z</Time>
            <Position>
              <LatitudeDegrees>36.81799273006618022918701171875</LatitudeDegrees>
              <LongitudeDegrees>-4.38816762529313564300537109375</LongitudeDegrees>
            </Position>
            <AltitudeMeters>816</AltitudeMeters>
            <DistanceMeters>NAN</DistanceMeters>
          </Trackpoint>
          <Trackpoint>
            <Time>2020-12-05T09:39:57.000Z</Time>
            <Position>
              <LatitudeDegrees>36.81799004785716533660888671875</LatitudeDegrees>
              <LongitudeDegrees>-4.388166703283786773681640625</LongitudeDegrees>
            </Position>
            <AltitudeMeters>816.20001220703125</AltitudeMeters>
            <DistanceMeters>NAN</DistanceMeters>
          </Trackpoint>
          <Trackpoint>
            <Time>2020-12-05T09:39:58.000Z</Time>
            <Position>
              <LatitudeDegrees>36.817984096705913543701171875</LatitudeDegrees>
              <LongitudeDegrees>-4.38816360197961330413818359375</LongitudeDegrees>
            </Position>
            <AltitudeMeters>816.4000244140625</AltitudeMeters>
            <DistanceMeters>NAN</DistanceMeters>
          </Trackpoint>
          <Trackpoint>
            <Time>2020-12-05T09:39:59.000Z</Time>
            <Position>
              <LatitudeDegrees>36.81797730736434459686279296875</LatitudeDegrees>
              <LongitudeDegrees>-4.3881578184664249420166015625</LongitudeDegrees>
            </Position>
            <AltitudeMeters>816.79998779296875</AltitudeMeters>
            <DistanceMeters>NAN</DistanceMeters>
          </Trackpoint>
          <Trackpoint>
            <Time>2020-12-05T09:40:00.000Z</Time>
            <Position>
              <LatitudeDegrees>36.81796926073729991912841796875</LatitudeDegrees>
              <LongitudeDegrees>-4.38815035857260227203369140625</LongitudeDegrees>
            </Position>
            <AltitudeMeters>817.20001220703125</AltitudeMeters>
            <DistanceMeters>NAN</DistanceMeters>
          </Trackpoint>
          <Trackpoint>
            <Time>2020-12-05T09:40:01.000Z</Time>
            <Position>
              <LatitudeDegrees>36.81796154938638210296630859375</LatitudeDegrees>
              <LongitudeDegrees>-4.38814398832619190216064453125</LongitudeDegrees>
            </Position>
            <AltitudeMeters>818</AltitudeMeters>
            <DistanceMeters>NAN</DistanceMeters>
          </Trackpoint>
          <Trackpoint>
            <Time>2020-12-05T09:40:02.000Z</Time>
            <Position>
              <LatitudeDegrees>36.81795501150190830230712890625</LatitudeDegrees>
              <LongitudeDegrees>-4.3881382048130035400390625</LongitudeDegrees>
            </Position>
            <AltitudeMeters>818.79998779296875</AltitudeMeters>
            <DistanceMeters>NAN</DistanceMeters>
          </Trackpoint>
          <Trackpoint>
            <Time>2020-12-05T09:40:03.000Z</Time>
            <Position>
              <LatitudeDegrees>36.81794813834130764007568359375</LatitudeDegrees>
              <LongitudeDegrees>-4.38813175074756145477294921875</LongitudeDegrees>
            </Position>
            <AltitudeMeters>819.4000244140625</AltitudeMeters>
            <DistanceMeters>NAN</DistanceMeters>
          </Trackpoint>
          <Trackpoint>
            <Time>2020-12-05T09:40:04.000Z</Time>
            <Position>
              <LatitudeDegrees>36.8179415166378021240234375</LatitudeDegrees>
              <LongitudeDegrees>-4.38812772743403911590576171875</LongitudeDegrees>
            </Position>
            <AltitudeMeters>819.5999755859375</AltitudeMeters>
            <DistanceMeters>NAN</DistanceMeters>
          </Trackpoint>
          <Trackpoint>
            <Time>2020-12-05T09:40:05.000Z</Time>
            <Position>
              <LatitudeDegrees>36.8179363198578357696533203125</LatitudeDegrees>
              <LongitudeDegrees>-4.38812948763370513916015625</LongitudeDegrees>
            </Position>
            <AltitudeMeters>819.79998779296875</AltitudeMeters>
            <DistanceMeters>NAN</DistanceMeters>
          </Trackpoint>
          <Trackpoint>
            <Time>2020-12-05T09:40:06.000Z</Time>
            <Position>
              <LatitudeDegrees>36.81792986579239368438720703125</LatitudeDegrees>
              <LongitudeDegrees>-4.3881313316524028778076171875</LongitudeDegrees>
            </Position>
            <AltitudeMeters>819.79998779296875</AltitudeMeters>
            <DistanceMeters>NAN</DistanceMeters>
          </Trackpoint>
          <Trackpoint>
            <Time>2020-12-05T09:40:07.000Z</Time>
            <Position>
              <LatitudeDegrees>36.8179292790591716766357421875</LatitudeDegrees>
              <LongitudeDegrees>-4.38813828863203525543212890625</LongitudeDegrees>
            </Position>
            <AltitudeMeters>819.79998779296875</AltitudeMeters>
            <DistanceMeters>NAN</DistanceMeters>
          </Trackpoint>
          <Trackpoint>
            <Time>2020-12-05T09:40:08.000Z</Time>
            <Position>
              <LatitudeDegrees>36.81793170981109142303466796875</LatitudeDegrees>
              <LongitudeDegrees>-4.388144575059413909912109375</LongitudeDegrees>
            </Position>
            <AltitudeMeters>819.4000244140625</AltitudeMeters>
            <DistanceMeters>NAN</DistanceMeters>
          </Trackpoint>
          <Trackpoint>
            <Time>2020-12-05T09:40:09.000Z</Time>
            <Position>
              <LatitudeDegrees>36.817938499152660369873046875</LatitudeDegrees>
              <LongitudeDegrees>-4.38814817927777767181396484375</LongitudeDegrees>
            </Position>
            <AltitudeMeters>818.79998779296875</AltitudeMeters>
            <DistanceMeters>NAN</DistanceMeters>
          </Trackpoint>
          <Trackpoint>
            <Time>2020-12-05T09:40:10.000Z</Time>
            <Position>
              <LatitudeDegrees>36.8179426901042461395263671875</LatitudeDegrees>
              <LongitudeDegrees>-4.38815228641033172607421875</LongitudeDegrees>
            </Position>
            <AltitudeMeters>818</AltitudeMeters>
            <DistanceMeters>NAN</DistanceMeters>
          </Trackpoint>
          <Trackpoint>
            <Time>2020-12-05T09:40:11.000Z</Time>
            <Position>
              <LatitudeDegrees>36.81794294156134128570556640625</LatitudeDegrees>
              <LongitudeDegrees>-4.38815765082836151123046875</LongitudeDegrees>
            </Position>
            <AltitudeMeters>817.4000244140625</AltitudeMeters>
            <DistanceMeters>NAN</DistanceMeters>
          </Trackpoint>
          <Trackpoint>
            <Time>2020-12-05T09:40:12.000Z</Time>
            <Position>
              <LatitudeDegrees>36.8179383315145969390869140625</LatitudeDegrees>
              <LongitudeDegrees>-4.3881618417799472808837890625</LongitudeDegrees>
            </Position>
            <AltitudeMeters>816.4000244140625</AltitudeMeters>
            <DistanceMeters>NAN</DistanceMeters>
          </Trackpoint>
          <Trackpoint>
            <Time>2020-12-05T09:40:13.000Z</Time>
            <Position>
              <LatitudeDegrees>36.8179363198578357696533203125</LatitudeDegrees>
              <LongitudeDegrees>-4.38816729001700878143310546875</LongitudeDegrees>
            </Position>
            <AltitudeMeters>815.4000244140625</AltitudeMeters>
            <DistanceMeters>NAN</DistanceMeters>
          </Trackpoint>
          <Trackpoint>
            <Time>2020-12-05T09:40:14.000Z</Time>
            <Position>
              <LatitudeDegrees>36.81793657131493091583251953125</LatitudeDegrees>
              <LongitudeDegrees>-4.38817198388278484344482421875</LongitudeDegrees>
            </Position>
            <AltitudeMeters>814.79998779296875</AltitudeMeters>
            <DistanceMeters>NAN</DistanceMeters>
          </Trackpoint>
          <Trackpoint>
            <Time>2020-12-05T09:40:15.000Z</Time>
            <Position>
              <LatitudeDegrees>36.8179353140294551849365234375</LatitudeDegrees>
              <LongitudeDegrees>-4.38818120397627353668212890625</LongitudeDegrees>
            </Position>
            <AltitudeMeters>815.20001220703125</AltitudeMeters>
            <DistanceMeters>NAN</DistanceMeters>
          </Trackpoint>
          <Trackpoint>
            <Time>2020-12-05T09:40:16.000Z</Time>
            <Position>
              <LatitudeDegrees>36.8179379962384700775146484375</LatitudeDegrees>
              <LongitudeDegrees>-4.3881893344223499298095703125</LongitudeDegrees>
            </Position>
            <AltitudeMeters>815.79998779296875</AltitudeMeters>
            <DistanceMeters>NAN</DistanceMeters>
          </Trackpoint>
          <Trackpoint>
            <Time>2020-12-05T09:40:17.000Z</Time>
            <Position>
              <LatitudeDegrees>36.81794495321810245513916015625</LatitudeDegrees>
              <LongitudeDegrees>-4.38819763250648975372314453125</LongitudeDegrees>
            </Position>
            <AltitudeMeters>815.79998779296875</AltitudeMeters>
            <DistanceMeters>NAN</DistanceMeters>
          </Trackpoint>
          <Trackpoint>
            <Time>2020-12-05T09:40:18.000Z</Time>
            <Position>
              <LatitudeDegrees>36.817949898540973663330078125</LatitudeDegrees>
              <LongitudeDegrees>-4.3882064335048198699951171875</LongitudeDegrees>
            </Position>
            <AltitudeMeters>816.20001220703125</AltitudeMeters>
            <DistanceMeters>NAN</DistanceMeters>
          </Trackpoint>
          <Trackpoint>
            <Time>2020-12-05T09:40:19.000Z</Time>
            <Position>
              <LatitudeDegrees>36.817950904369354248046875</LatitudeDegrees>
              <LongitudeDegrees>-4.38821221701800823211669921875</LongitudeDegrees>
            </Position>
            <AltitudeMeters>816.5999755859375</AltitudeMeters>
            <DistanceMeters>NAN</DistanceMeters>
          </Trackpoint>
          <Trackpoint>
            <Time>2020-12-05T09:40:20.000Z</Time>
            <Position>
              <LatitudeDegrees>36.8179547600448131561279296875</LatitudeDegrees>
              <LongitudeDegrees>-4.38821825198829174041748046875</LongitudeDegrees>
            </Position>
            <AltitudeMeters>816.79998779296875</AltitudeMeters>
            <DistanceMeters>NAN</DistanceMeters>
          </Trackpoint>
          <Trackpoint>
            <Time>2020-12-05T09:40:21.000Z</Time>
            <Position>
              <LatitudeDegrees>36.81795828044414520263671875</LatitudeDegrees>
              <LongitudeDegrees>-4.38822738826274871826171875</LongitudeDegrees>
            </Position>
            <AltitudeMeters>816.79998779296875</AltitudeMeters>
            <DistanceMeters>NAN</DistanceMeters>
          </Trackpoint>
          <Trackpoint>
            <Time>2020-12-05T09:40:22.000Z</Time>
            <Position>
              <LatitudeDegrees>36.81795953772962093353271484375</LatitudeDegrees>
              <LongitudeDegrees>-4.38823635689914226531982421875</LongitudeDegrees>
            </Position>
            <AltitudeMeters>816.79998779296875</AltitudeMeters>
            <DistanceMeters>NAN</DistanceMeters>
          </Trackpoint>
          <Trackpoint>
            <Time>2020-12-05T09:40:23.000Z</Time>
            <Position>
              <LatitudeDegrees>36.81796138174831867218017578125</LatitudeDegrees>
              <LongitudeDegrees>-4.38824490644037723541259765625</LongitudeDegrees>
            </Position>
            <AltitudeMeters>816.5999755859375</AltitudeMeters>
            <DistanceMeters>NAN</DistanceMeters>
          </Trackpoint>
          <Trackpoint>
            <Time>2020-12-05T09:40:24.000Z</Time>
            <Position>
              <LatitudeDegrees>36.8179629743099212646484375</LatitudeDegrees>
              <LongitudeDegrees>-4.3882483430206775665283203125</LongitudeDegrees>
            </Position>
            <AltitudeMeters>816.5999755859375</AltitudeMeters>
            <DistanceMeters>NAN</DistanceMeters>
          </Trackpoint>
          <Trackpoint>
            <Time>2020-12-05T09:40:25.000Z</Time>
            <Position>
              <LatitudeDegrees>36.8179661594331264495849609375</LatitudeDegrees>
              <LongitudeDegrees>-4.38824909739196300506591796875</LongitudeDegrees>
            </Position>
            <AltitudeMeters>816.5999755859375</AltitudeMeters>
            <DistanceMeters>NAN</DistanceMeters>
          </Trackpoint>
          <Trackpoint>
            <Time>2020-12-05T09:40:26.000Z</Time>
            <Position>
              <LatitudeDegrees>36.81796674616634845733642578125</LatitudeDegrees>
              <LongitudeDegrees>-4.388251192867755889892578125</LongitudeDegrees>
            </Position>
            <AltitudeMeters>816.5999755859375</AltitudeMeters>
            <DistanceMeters>NAN</DistanceMeters>
          </Trackpoint>
          <Trackpoint>
            <Time>2020-12-05T09:40:27.000Z</Time>
            <Position>
              <LatitudeDegrees>36.81796791963279247283935546875</LatitudeDegrees>
              <LongitudeDegrees>-4.3882510252296924591064453125</LongitudeDegrees>
            </Position>
            <AltitudeMeters>816.5999755859375</AltitudeMeters>
            <DistanceMeters>NAN</DistanceMeters>
          </Trackpoint>
          <Trackpoint>
            <Time>2020-12-05T09:40:28.000Z</Time>
            <Position>
              <LatitudeDegrees>36.8179695121943950653076171875</LatitudeDegrees>
              <LongitudeDegrees>-4.3882490135729312896728515625</LongitudeDegrees>
            </Position>
            <AltitudeMeters>816.79998779296875</AltitudeMeters>
            <DistanceMeters>NAN</DistanceMeters>
          </Trackpoint>
          <Trackpoint>
            <Time>2020-12-05T09:40:29.000Z</Time>
            <Position>
              <LatitudeDegrees>36.81797035038471221923828125</LatitudeDegrees>
              <LongitudeDegrees>-4.3882486782968044281005859375</LongitudeDegrees>
            </Position>
            <AltitudeMeters>816.79998779296875</AltitudeMeters>
            <DistanceMeters>NAN</DistanceMeters>
          </Trackpoint>
          <Trackpoint>
            <Time>2020-12-05T09:40:30.000Z</Time>
            <Position>
              <LatitudeDegrees>36.81797194294631481170654296875</LatitudeDegrees>
              <LongitudeDegrees>-4.38825094141066074371337890625</LongitudeDegrees>
            </Position>
            <AltitudeMeters>817</AltitudeMeters>
            <DistanceMeters>NAN</DistanceMeters>
          </Trackpoint>
          <Trackpoint>
            <Time>2020-12-05T09:40:31.000Z</Time>
            <Position>
              <LatitudeDegrees>36.81797571480274200439453125</LatitudeDegrees>
              <LongitudeDegrees>-4.38825412653386592864990234375</LongitudeDegrees>
            </Position>
            <AltitudeMeters>817.4000244140625</AltitudeMeters>
            <DistanceMeters>NAN</DistanceMeters>
          </Trackpoint>
          <Trackpoint>
            <Time>2020-12-05T09:40:32.000Z</Time>
            <Position>
              <LatitudeDegrees>36.8179802410304546356201171875</LatitudeDegrees>
              <LongitudeDegrees>-4.38825312070548534393310546875</LongitudeDegrees>
            </Position>
            <AltitudeMeters>817.5999755859375</AltitudeMeters>
            <DistanceMeters>NAN</DistanceMeters>
          </Trackpoint>
          <Trackpoint>
            <Time>2020-12-05T09:40:33.000Z</Time>
            <Position>
              <LatitudeDegrees>36.8179902993142604827880859375</LatitudeDegrees>
              <LongitudeDegrees>-4.3882503546774387359619140625</LongitudeDegrees>
            </Position>
            <AltitudeMeters>817.5999755859375</AltitudeMeters>
            <DistanceMeters>NAN</DistanceMeters>
          </Trackpoint>
          <Trackpoint>
            <Time>2020-12-05T09:40:34.000Z</Time>
            <Position>
              <LatitudeDegrees>36.81800161488354206085205078125</LatitudeDegrees>
              <LongitudeDegrees>-4.38824473880231380462646484375</LongitudeDegrees>
            </Position>
            <AltitudeMeters>817.4000244140625</AltitudeMeters>
            <DistanceMeters>NAN</DistanceMeters>
          </Trackpoint>
          <Trackpoint>
            <Time>2020-12-05T09:40:35.000Z</Time>
            <Position>
              <LatitudeDegrees>36.818011589348316192626953125</LatitudeDegrees>
              <LongitudeDegrees>-4.3882429786026477813720703125</LongitudeDegrees>
            </Position>
            <AltitudeMeters>816.79998779296875</AltitudeMeters>
            <DistanceMeters>NAN</DistanceMeters>
          </Trackpoint>
          <Trackpoint>
            <Time>2020-12-05T09:40:36.000Z</Time>
            <Position>
              <LatitudeDegrees>36.8180224858224391937255859375</LatitudeDegrees>
              <LongitudeDegrees>-4.38823937438428401947021484375</LongitudeDegrees>
            </Position>
            <AltitudeMeters>816.20001220703125</AltitudeMeters>
            <DistanceMeters>NAN</DistanceMeters>
          </Trackpoint>
          <Trackpoint>
            <Time>2020-12-05T09:40:37.000Z</Time>
            <Position>
              <LatitudeDegrees>36.81803044863045215606689453125</LatitudeDegrees>
              <LongitudeDegrees>-4.38823518343269824981689453125</LongitudeDegrees>
            </Position>
            <AltitudeMeters>815.5999755859375</AltitudeMeters>
            <DistanceMeters>NAN</DistanceMeters>
          </Trackpoint>
          <Trackpoint>
            <Time>2020-12-05T09:40:38.000Z</Time>
            <Position>
              <LatitudeDegrees>36.818036399781703948974609375</LatitudeDegrees>
              <LongitudeDegrees>-4.3882334232330322265625</LongitudeDegrees>
            </Position>
            <AltitudeMeters>815</AltitudeMeters>
            <DistanceMeters>NAN</DistanceMeters>
          </Trackpoint>
          <Trackpoint>
            <Time>2020-12-05T09:40:39.000Z</Time>
            <Position>
              <LatitudeDegrees>36.818042099475860595703125</LatitudeDegrees>
              <LongitudeDegrees>-4.3882325850427150726318359375</LongitudeDegrees>
            </Position>
            <AltitudeMeters>814.5999755859375</AltitudeMeters>
            <DistanceMeters>NAN</DistanceMeters>
          </Trackpoint>
          <Trackpoint>
            <Time>2020-12-05T09:40:40.000Z</Time>
            <Position>
              <LatitudeDegrees>36.8180456198751926422119140625</LatitudeDegrees>
              <LongitudeDegrees>-4.3882347643375396728515625</LongitudeDegrees>
            </Position>
            <AltitudeMeters>814.4000244140625</AltitudeMeters>
            <DistanceMeters>NAN</DistanceMeters>
          </Trackpoint>
          <Trackpoint>
            <Time>2020-12-05T09:40:41.000Z</Time>
            <Position>
              <LatitudeDegrees>36.8180446140468120574951171875</LatitudeDegrees>
              <LongitudeDegrees>-4.3882369436323642730712890625</LongitudeDegrees>
            </Position>
            <AltitudeMeters>814.4000244140625</AltitudeMeters>
            <DistanceMeters>NAN</DistanceMeters>
          </Trackpoint>
          <Trackpoint>
            <Time>2020-12-05T09:40:42.000Z</Time>
            <Position>
              <LatitudeDegrees>36.81804385967552661895751953125</LatitudeDegrees>
              <LongitudeDegrees>-4.3882349319756031036376953125</LongitudeDegrees>
            </Position>
            <AltitudeMeters>814.4000244140625</AltitudeMeters>
            <DistanceMeters>NAN</DistanceMeters>
          </Trackpoint>
          <Trackpoint>
            <Time>2020-12-05T09:40:43.000Z</Time>
            <Position>
              <LatitudeDegrees>36.8180452845990657806396484375</LatitudeDegrees>
              <LongitudeDegrees>-4.38823250122368335723876953125</LongitudeDegrees>
            </Position>
            <AltitudeMeters>814.5999755859375</AltitudeMeters>
            <DistanceMeters>NAN</DistanceMeters>
          </Trackpoint>
          <Trackpoint>
            <Time>2020-12-05T09:40:44.000Z</Time>
            <Position>
              <LatitudeDegrees>36.81804553605616092681884765625</LatitudeDegrees>
              <LongitudeDegrees>-4.38823266886174678802490234375</LongitudeDegrees>
            </Position>
            <AltitudeMeters>815</AltitudeMeters>
            <DistanceMeters>NAN</DistanceMeters>
          </Trackpoint>
          <Trackpoint>
            <Time>2020-12-05T09:40:45.000Z</Time>
            <Position>
              <LatitudeDegrees>36.8180419318377971649169921875</LatitudeDegrees>
              <LongitudeDegrees>-4.38823618926107883453369140625</LongitudeDegrees>
            </Position>
            <AltitudeMeters>815.4000244140625</AltitudeMeters>
            <DistanceMeters>NAN</DistanceMeters>
          </Trackpoint>
          <Trackpoint>
            <Time>2020-12-05T09:40:46.000Z</Time>
            <Position>
              <LatitudeDegrees>36.81804033927619457244873046875</LatitudeDegrees>
              <LongitudeDegrees>-4.388237781822681427001953125</LongitudeDegrees>
            </Position>
            <AltitudeMeters>816.20001220703125</AltitudeMeters>
            <DistanceMeters>NAN</DistanceMeters>
          </Trackpoint>
          <Trackpoint>
            <Time>2020-12-05T09:40:47.000Z</Time>
            <Position>
              <LatitudeDegrees>36.81804067455232143402099609375</LatitudeDegrees>
              <LongitudeDegrees>-4.38823568634688854217529296875</LongitudeDegrees>
            </Position>
            <AltitudeMeters>816.79998779296875</AltitudeMeters>
            <DistanceMeters>NAN</DistanceMeters>
          </Trackpoint>
          <Trackpoint>
            <Time>2020-12-05T09:40:48.000Z</Time>
            <Position>
              <LatitudeDegrees>36.81804084219038486480712890625</LatitudeDegrees>
              <LongitudeDegrees>-4.38823015429079532623291015625</LongitudeDegrees>
            </Position>
            <AltitudeMeters>817.20001220703125</AltitudeMeters>
            <DistanceMeters>NAN</DistanceMeters>
          </Trackpoint>
          <Trackpoint>
            <Time>2020-12-05T09:40:49.000Z</Time>
            <Position>
              <LatitudeDegrees>36.81802977807819843292236328125</LatitudeDegrees>
              <LongitudeDegrees>-4.3882275559008121490478515625</LongitudeDegrees>
            </Position>
            <AltitudeMeters>817.4000244140625</AltitudeMeters>
            <DistanceMeters>NAN</DistanceMeters>
          </Trackpoint>
          <Trackpoint>
            <Time>2020-12-05T09:40:50.000Z</Time>
            <Position>
              <LatitudeDegrees>36.81802265346050262451171875</LatitudeDegrees>
              <LongitudeDegrees>-4.3882211856544017791748046875</LongitudeDegrees>
            </Position>
            <AltitudeMeters>817.5999755859375</AltitudeMeters>
            <DistanceMeters>NAN</DistanceMeters>
          </Trackpoint>
          <Trackpoint>
            <Time>2020-12-05T09:40:51.000Z</Time>
            <Position>
              <LatitudeDegrees>36.818018294870853424072265625</LatitudeDegrees>
              <LongitudeDegrees>-4.3882171623408794403076171875</LongitudeDegrees>
            </Position>
            <AltitudeMeters>817.4000244140625</AltitudeMeters>
            <DistanceMeters>NAN</DistanceMeters>
          </Trackpoint>
          <Trackpoint>
            <Time>2020-12-05T09:40:52.000Z</Time>
            <Position>
              <LatitudeDegrees>36.818013601005077362060546875</LatitudeDegrees>
              <LongitudeDegrees>-4.38821707852184772491455078125</LongitudeDegrees>
            </Position>
            <AltitudeMeters>817.20001220703125</AltitudeMeters>
            <DistanceMeters>NAN</DistanceMeters>
          </Trackpoint>
          <Trackpoint>
            <Time>2020-12-05T09:40:53.000Z</Time>
            <Position>
              <LatitudeDegrees>36.81801301427185535430908203125</LatitudeDegrees>
              <LongitudeDegrees>-4.388215653598308563232421875</LongitudeDegrees>
            </Position>
            <AltitudeMeters>817</AltitudeMeters>
            <DistanceMeters>NAN</DistanceMeters>
          </Trackpoint>
          <Trackpoint>
            <Time>2020-12-05T09:40:54.000Z</Time>
            <Position>
              <LatitudeDegrees>36.8180110864341259002685546875</LatitudeDegrees>
              <LongitudeDegrees>-4.38821556977927684783935546875</LongitudeDegrees>
            </Position>
            <AltitudeMeters>816.5999755859375</AltitudeMeters>
            <DistanceMeters>NAN</DistanceMeters>
          </Trackpoint>
          <Trackpoint>
            <Time>2020-12-05T09:40:55.000Z</Time>
            <Position>
              <LatitudeDegrees>36.818010248243808746337890625</LatitudeDegrees>
              <LongitudeDegrees>-4.3882154859602451324462890625</LongitudeDegrees>
            </Position>
            <AltitudeMeters>816.4000244140625</AltitudeMeters>
            <DistanceMeters>NAN</DistanceMeters>
          </Trackpoint>
          <Trackpoint>
            <Time>2020-12-05T09:40:56.000Z</Time>
            <Position>
              <LatitudeDegrees>36.81801184080541133880615234375</LatitudeDegrees>
              <LongitudeDegrees>-4.38821741379797458648681640625</LongitudeDegrees>
            </Position>
            <AltitudeMeters>816.4000244140625</AltitudeMeters>
            <DistanceMeters>NAN</DistanceMeters>
          </Trackpoint>
          <Trackpoint>
            <Time>2020-12-05T09:40:57.000Z</Time>
            <Position>
              <LatitudeDegrees>36.818013601005077362060546875</LatitudeDegrees>
              <LongitudeDegrees>-4.38822009600698947906494140625</LongitudeDegrees>
            </Position>
            <AltitudeMeters>816.5999755859375</AltitudeMeters>
            <DistanceMeters>NAN</DistanceMeters>
          </Trackpoint>
          <Trackpoint>
            <Time>2020-12-05T09:40:58.000Z</Time>
            <Position>
              <LatitudeDegrees>36.818012930452823638916015625</LatitudeDegrees>
              <LongitudeDegrees>-4.3882211856544017791748046875</LongitudeDegrees>
            </Position>
            <AltitudeMeters>816.5999755859375</AltitudeMeters>
            <DistanceMeters>NAN</DistanceMeters>
          </Trackpoint>
          <Trackpoint>
            <Time>2020-12-05T09:40:59.000Z</Time>
            <Position>
              <LatitudeDegrees>36.81801502592861652374267578125</LatitudeDegrees>
              <LongitudeDegrees>-4.38821925781667232513427734375</LongitudeDegrees>
            </Position>
            <AltitudeMeters>817</AltitudeMeters>
            <DistanceMeters>NAN</DistanceMeters>
          </Trackpoint>
          <Trackpoint>
            <Time>2020-12-05T09:41:00.000Z</Time>
            <Position>
              <LatitudeDegrees>36.8180161155760288238525390625</LatitudeDegrees>
              <LongitudeDegrees>-4.388218335807323455810546875</LongitudeDegrees>
            </Position>
            <AltitudeMeters>817.5999755859375</AltitudeMeters>
            <DistanceMeters>NAN</DistanceMeters>
          </Trackpoint>
          <Trackpoint>
            <Time>2020-12-05T09:41:01.000Z</Time>
            <Position>
              <LatitudeDegrees>36.8180154450237751007080078125</LatitudeDegrees>
              <LongitudeDegrees>-4.38822059892117977142333984375</LongitudeDegrees>
            </Position>
            <AltitudeMeters>818.20001220703125</AltitudeMeters>
            <DistanceMeters>NAN</DistanceMeters>
          </Trackpoint>
          <Trackpoint>
            <Time>2020-12-05T09:41:02.000Z</Time>
            <Position>
              <LatitudeDegrees>36.81801770813763141632080078125</LatitudeDegrees>
              <LongitudeDegrees>-4.38822478987276554107666015625</LongitudeDegrees>
            </Position>
            <AltitudeMeters>818.5999755859375</AltitudeMeters>
            <DistanceMeters>NAN</DistanceMeters>
          </Trackpoint>
          <Trackpoint>
            <Time>2020-12-05T09:41:03.000Z</Time>
            <Position>
              <LatitudeDegrees>36.818022318184375762939453125</LatitudeDegrees>
              <LongitudeDegrees>-4.3882345966994762420654296875</LongitudeDegrees>
            </Position>
            <AltitudeMeters>818.5999755859375</AltitudeMeters>
            <DistanceMeters>NAN</DistanceMeters>
          </Trackpoint>
          <Trackpoint>
            <Time>2020-12-05T09:41:04.000Z</Time>
            <Position>
              <LatitudeDegrees>36.81802860461175441741943359375</LatitudeDegrees>
              <LongitudeDegrees>-4.38824356533586978912353515625</LongitudeDegrees>
            </Position>
            <AltitudeMeters>818.5999755859375</AltitudeMeters>
            <DistanceMeters>NAN</DistanceMeters>
          </Trackpoint>
          <Trackpoint>
            <Time>2020-12-05T09:41:05.000Z</Time>
            <Position>
              <LatitudeDegrees>36.81803229264914989471435546875</LatitudeDegrees>
              <LongitudeDegrees>-4.3882473371922969818115234375</LongitudeDegrees>
            </Position>
            <AltitudeMeters>818.20001220703125</AltitudeMeters>
            <DistanceMeters>NAN</DistanceMeters>
          </Trackpoint>
          <Trackpoint>
            <Time>2020-12-05T09:41:06.000Z</Time>
            <Position>
              <LatitudeDegrees>36.81803111918270587921142578125</LatitudeDegrees>
              <LongitudeDegrees>-4.388250522315502166748046875</LongitudeDegrees>
            </Position>
            <AltitudeMeters>818.20001220703125</AltitudeMeters>
            <DistanceMeters>NAN</DistanceMeters>
          </Trackpoint>
          <Trackpoint>
            <Time>2020-12-05T09:41:07.000Z</Time>
            <Position>
              <LatitudeDegrees>36.81802877224981784820556640625</LatitudeDegrees>
              <LongitudeDegrees>-4.3882516957819461822509765625</LongitudeDegrees>
            </Position>
            <AltitudeMeters>818</AltitudeMeters>
            <DistanceMeters>NAN</DistanceMeters>
          </Trackpoint>
          <Trackpoint>
            <Time>2020-12-05T09:41:08.000Z</Time>
            <Position>
              <LatitudeDegrees>36.81802458129823207855224609375</LatitudeDegrees>
              <LongitudeDegrees>-4.388249851763248443603515625</LongitudeDegrees>
            </Position>
            <AltitudeMeters>817.79998779296875</AltitudeMeters>
            <DistanceMeters>NAN</DistanceMeters>
          </Trackpoint>
          <Trackpoint>
            <Time>2020-12-05T09:41:09.000Z</Time>
            <Position>
              <LatitudeDegrees>36.8180238269269466400146484375</LatitudeDegrees>
              <LongitudeDegrees>-4.38824825920164585113525390625</LongitudeDegrees>
            </Position>
            <AltitudeMeters>817.5999755859375</AltitudeMeters>
            <DistanceMeters>NAN</DistanceMeters>
          </Trackpoint>
          <Trackpoint>
            <Time>2020-12-05T09:41:10.000Z</Time>
            <Position>
              <LatitudeDegrees>36.81802265346050262451171875</LatitudeDegrees>
              <LongitudeDegrees>-4.38824390061199665069580078125</LongitudeDegrees>
            </Position>
            <AltitudeMeters>817.4000244140625</AltitudeMeters>
            <DistanceMeters>NAN</DistanceMeters>
          </Trackpoint>
          <Trackpoint>
            <Time>2020-12-05T09:41:11.000Z</Time>
            <Position>
              <LatitudeDegrees>36.81802307255566120147705078125</LatitudeDegrees>
              <LongitudeDegrees>-4.3882366083562374114990234375</LongitudeDegrees>
            </Position>
            <AltitudeMeters>817.4000244140625</AltitudeMeters>
            <DistanceMeters>NAN</DistanceMeters>
          </Trackpoint>
          <Trackpoint>
            <Time>2020-12-05T09:41:12.000Z</Time>
            <Position>
              <LatitudeDegrees>36.8180204741656780242919921875</LatitudeDegrees>
              <LongitudeDegrees>-4.3882295675575733184814453125</LongitudeDegrees>
            </Position>
            <AltitudeMeters>817.20001220703125</AltitudeMeters>
            <DistanceMeters>NAN</DistanceMeters>
          </Trackpoint>
          <Trackpoint>
            <Time>2020-12-05T09:41:13.000Z</Time>
            <Position>
              <LatitudeDegrees>36.81801770813763141632080078125</LatitudeDegrees>
              <LongitudeDegrees>-4.38822277821600437164306640625</LongitudeDegrees>
            </Position>
            <AltitudeMeters>817</AltitudeMeters>
            <DistanceMeters>NAN</DistanceMeters>
          </Trackpoint>
          <Trackpoint>
            <Time>2020-12-05T09:41:14.000Z</Time>
            <Position>
              <LatitudeDegrees>36.81801821105182170867919921875</LatitudeDegrees>
              <LongitudeDegrees>-4.388216994702816009521484375</LongitudeDegrees>
            </Position>
            <AltitudeMeters>816.5999755859375</AltitudeMeters>
            <DistanceMeters>NAN</DistanceMeters>
          </Trackpoint>
          <Trackpoint>
            <Time>2020-12-05T09:41:15.000Z</Time>
            <Position>
              <LatitudeDegrees>36.81801787577569484710693359375</LatitudeDegrees>
              <LongitudeDegrees>-4.388216994702816009521484375</LongitudeDegrees>
            </Position>
            <AltitudeMeters>816.5999755859375</AltitudeMeters>
            <DistanceMeters>NAN</DistanceMeters>
          </Trackpoint>
          <Trackpoint>
            <Time>2020-12-05T09:41:16.000Z</Time>
            <Position>
              <LatitudeDegrees>36.81801284663379192352294921875</LatitudeDegrees>
              <LongitudeDegrees>-4.38821556977927684783935546875</LongitudeDegrees>
            </Position>
            <AltitudeMeters>816.4000244140625</AltitudeMeters>
            <DistanceMeters>NAN</DistanceMeters>
          </Trackpoint>
          <Trackpoint>
            <Time>2020-12-05T09:41:17.000Z</Time>
            <Position>
              <LatitudeDegrees>36.8180077336728572845458984375</LatitudeDegrees>
              <LongitudeDegrees>-4.3882159888744354248046875</LongitudeDegrees>
            </Position>
            <AltitudeMeters>816.4000244140625</AltitudeMeters>
            <DistanceMeters>NAN</DistanceMeters>
          </Trackpoint>
          <Trackpoint>
            <Time>2020-12-05T09:41:18.000Z</Time>
            <Position>
              <LatitudeDegrees>36.81800278834998607635498046875</LatitudeDegrees>
              <LongitudeDegrees>-4.3882124684751033782958984375</LongitudeDegrees>
            </Position>
            <AltitudeMeters>816.4000244140625</AltitudeMeters>
            <DistanceMeters>NAN</DistanceMeters>
          </Trackpoint>
          <Trackpoint>
            <Time>2020-12-05T09:41:19.000Z</Time>
            <Position>
              <LatitudeDegrees>36.81800345890223979949951171875</LatitudeDegrees>
              <LongitudeDegrees>-4.38820953480899333953857421875</LongitudeDegrees>
            </Position>
            <AltitudeMeters>816.4000244140625</AltitudeMeters>
            <DistanceMeters>NAN</DistanceMeters>
          </Trackpoint>
          <Trackpoint>
            <Time>2020-12-05T09:41:20.000Z</Time>
            <Position>
              <LatitudeDegrees>36.81800798512995243072509765625</LatitudeDegrees>
              <LongitudeDegrees>-4.38820660114288330078125</LongitudeDegrees>
            </Position>
            <AltitudeMeters>816.4000244140625</AltitudeMeters>
            <DistanceMeters>NAN</DistanceMeters>
          </Trackpoint>
          <Trackpoint>
            <Time>2020-12-05T09:41:21.000Z</Time>
            <Position>
              <LatitudeDegrees>36.8180147744715213775634765625</LatitudeDegrees>
              <LongitudeDegrees>-4.38820500858128070831298828125</LongitudeDegrees>
            </Position>
            <AltitudeMeters>816.4000244140625</AltitudeMeters>
            <DistanceMeters>NAN</DistanceMeters>
          </Trackpoint>
          <Trackpoint>
            <Time>2020-12-05T09:41:22.000Z</Time>
            <Position>
              <LatitudeDegrees>36.8180181272327899932861328125</LatitudeDegrees>
              <LongitudeDegrees>-4.38820031471550464630126953125</LongitudeDegrees>
            </Position>
            <AltitudeMeters>816.4000244140625</AltitudeMeters>
            <DistanceMeters>NAN</DistanceMeters>
          </Trackpoint>
          <Trackpoint>
            <Time>2020-12-05T09:41:23.000Z</Time>
            <Position>
              <LatitudeDegrees>36.8180204741656780242919921875</LatitudeDegrees>
              <LongitudeDegrees>-4.3881957046687602996826171875</LongitudeDegrees>
            </Position>
            <AltitudeMeters>816.5999755859375</AltitudeMeters>
            <DistanceMeters>NAN</DistanceMeters>
          </Trackpoint>
          <Trackpoint>
            <Time>2020-12-05T09:41:24.000Z</Time>
            <Position>
              <LatitudeDegrees>36.81801653467118740081787109375</LatitudeDegrees>
              <LongitudeDegrees>-4.38819344155490398406982421875</LongitudeDegrees>
            </Position>
            <AltitudeMeters>816.4000244140625</AltitudeMeters>
            <DistanceMeters>NAN</DistanceMeters>
          </Trackpoint>
          <Trackpoint>
            <Time>2020-12-05T09:41:25.000Z</Time>
            <Position>
              <LatitudeDegrees>36.81801259517669677734375</LatitudeDegrees>
              <LongitudeDegrees>-4.388191513717174530029296875</LongitudeDegrees>
            </Position>
            <AltitudeMeters>816.5999755859375</AltitudeMeters>
            <DistanceMeters>NAN</DistanceMeters>
          </Trackpoint>
          <Trackpoint>
            <Time>2020-12-05T09:41:26.000Z</Time>
            <Position>
              <LatitudeDegrees>36.81800924241542816162109375</LatitudeDegrees>
              <LongitudeDegrees>-4.388186819851398468017578125</LongitudeDegrees>
            </Position>
            <AltitudeMeters>816.79998779296875</AltitudeMeters>
            <DistanceMeters>NAN</DistanceMeters>
          </Trackpoint>
          <Trackpoint>
            <Time>2020-12-05T09:41:27.000Z</Time>
            <Position>
              <LatitudeDegrees>36.81800530292093753814697265625</LatitudeDegrees>
              <LongitudeDegrees>-4.388184808194637298583984375</LongitudeDegrees>
            </Position>
            <AltitudeMeters>817.4000244140625</AltitudeMeters>
            <DistanceMeters>NAN</DistanceMeters>
          </Trackpoint>
          <Trackpoint>
            <Time>2020-12-05T09:41:28.000Z</Time>
            <Position>
              <LatitudeDegrees>36.818002201616764068603515625</LatitudeDegrees>
              <LongitudeDegrees>-4.3881829641759395599365234375</LongitudeDegrees>
            </Position>
            <AltitudeMeters>817.79998779296875</AltitudeMeters>
            <DistanceMeters>NAN</DistanceMeters>
          </Trackpoint>
          <Trackpoint>
            <Time>2020-12-05T09:41:29.000Z</Time>
            <Position>
              <LatitudeDegrees>36.81800119578838348388671875</LatitudeDegrees>
              <LongitudeDegrees>-4.3881829641759395599365234375</LongitudeDegrees>
            </Position>
            <AltitudeMeters>818.4000244140625</AltitudeMeters>
            <DistanceMeters>NAN</DistanceMeters>
          </Trackpoint>
          <Trackpoint>
            <Time>2020-12-05T09:41:30.000Z</Time>
            <Position>
              <LatitudeDegrees>36.818004213273525238037109375</LatitudeDegrees>
              <LongitudeDegrees>-4.38818371854722499847412109375</LongitudeDegrees>
            </Position>
            <AltitudeMeters>818.5999755859375</AltitudeMeters>
            <DistanceMeters>NAN</DistanceMeters>
          </Trackpoint>
          <Trackpoint>
            <Time>2020-12-05T09:41:31.000Z</Time>
            <Position>
              <LatitudeDegrees>36.818008907139301300048828125</LatitudeDegrees>
              <LongitudeDegrees>-4.38819075934588909149169921875</LongitudeDegrees>
            </Position>
            <AltitudeMeters>818.5999755859375</AltitudeMeters>
            <DistanceMeters>NAN</DistanceMeters>
          </Trackpoint>
          <Trackpoint>
            <Time>2020-12-05T09:41:32.000Z</Time>
            <Position>
              <LatitudeDegrees>36.81801502592861652374267578125</LatitudeDegrees>
              <LongitudeDegrees>-4.38819863833487033843994140625</LongitudeDegrees>
            </Position>
            <AltitudeMeters>818.79998779296875</AltitudeMeters>
            <DistanceMeters>NAN</DistanceMeters>
          </Trackpoint>
          <Trackpoint>
            <Time>2020-12-05T09:41:33.000Z</Time>
            <Position>
              <LatitudeDegrees>36.8180166184902191162109375</LatitudeDegrees>
              <LongitudeDegrees>-4.388209618628025054931640625</LongitudeDegrees>
            </Position>
            <AltitudeMeters>818.5999755859375</AltitudeMeters>
            <DistanceMeters>NAN</DistanceMeters>
          </Trackpoint>
          <Trackpoint>
            <Time>2020-12-05T09:41:34.000Z</Time>
            <Position>
              <LatitudeDegrees>36.8180193006992340087890625</LatitudeDegrees>
              <LongitudeDegrees>-4.38821875490248203277587890625</LongitudeDegrees>
            </Position>
            <AltitudeMeters>818.5999755859375</AltitudeMeters>
            <DistanceMeters>NAN</DistanceMeters>
          </Trackpoint>
          <Trackpoint>
            <Time>2020-12-05T09:41:35.000Z</Time>
            <Position>
              <LatitudeDegrees>36.81801787577569484710693359375</LatitudeDegrees>
              <LongitudeDegrees>-4.38822068274021148681640625</LongitudeDegrees>
            </Position>
            <AltitudeMeters>818.5999755859375</AltitudeMeters>
            <DistanceMeters>NAN</DistanceMeters>
          </Trackpoint>
          <Trackpoint>
            <Time>2020-12-05T09:41:36.000Z</Time>
            <Position>
              <LatitudeDegrees>36.818016283214092254638671875</LatitudeDegrees>
              <LongitudeDegrees>-4.38821800053119659423828125</LongitudeDegrees>
            </Position>
            <AltitudeMeters>818.20001220703125</AltitudeMeters>
            <DistanceMeters>NAN</DistanceMeters>
          </Trackpoint>
          <Trackpoint>
            <Time>2020-12-05T09:41:37.000Z</Time>
            <Position>
              <LatitudeDegrees>36.81801519356667995452880859375</LatitudeDegrees>
              <LongitudeDegrees>-4.38820769079029560089111328125</LongitudeDegrees>
            </Position>
            <AltitudeMeters>818</AltitudeMeters>
            <DistanceMeters>NAN</DistanceMeters>
          </Trackpoint>
          <Trackpoint>
            <Time>2020-12-05T09:41:38.000Z</Time>
            <Position>
              <LatitudeDegrees>36.81801519356667995452880859375</LatitudeDegrees>
              <LongitudeDegrees>-4.38820098526775836944580078125</LongitudeDegrees>
            </Position>
            <AltitudeMeters>817.5999755859375</AltitudeMeters>
            <DistanceMeters>NAN</DistanceMeters>
          </Trackpoint>
          <Trackpoint>
            <Time>2020-12-05T09:41:39.000Z</Time>
            <Position>
              <LatitudeDegrees>36.81801049970090389251708984375</LatitudeDegrees>
              <LongitudeDegrees>-4.3881987221539020538330078125</LongitudeDegrees>
            </Position>
            <AltitudeMeters>817.20001220703125</AltitudeMeters>
            <DistanceMeters>NAN</DistanceMeters>
          </Trackpoint>
          <Trackpoint>
            <Time>2020-12-05T09:41:40.000Z</Time>
            <Position>
              <LatitudeDegrees>36.81800949387252330780029296875</LatitudeDegrees>
              <LongitudeDegrees>-4.38819193281233310699462890625</LongitudeDegrees>
            </Position>
            <AltitudeMeters>816.5999755859375</AltitudeMeters>
            <DistanceMeters>NAN</DistanceMeters>
          </Trackpoint>
          <Trackpoint>
            <Time>2020-12-05T09:41:41.000Z</Time>
            <Position>
              <LatitudeDegrees>36.81800915859639644622802734375</LatitudeDegrees>
              <LongitudeDegrees>-4.38818313181400299072265625</LongitudeDegrees>
            </Position>
            <AltitudeMeters>816.4000244140625</AltitudeMeters>
            <DistanceMeters>NAN</DistanceMeters>
          </Trackpoint>
          <Trackpoint>
            <Time>2020-12-05T09:41:42.000Z</Time>
            <Position>
              <LatitudeDegrees>36.81801133789122104644775390625</LatitudeDegrees>
              <LongitudeDegrees>-4.38818044960498809814453125</LongitudeDegrees>
            </Position>
            <AltitudeMeters>816.20001220703125</AltitudeMeters>
            <DistanceMeters>NAN</DistanceMeters>
          </Trackpoint>
          <Trackpoint>
            <Time>2020-12-05T09:41:43.000Z</Time>
            <Position>
              <LatitudeDegrees>36.8180120922625064849853515625</LatitudeDegrees>
              <LongitudeDegrees>-4.3881779350340366363525390625</LongitudeDegrees>
            </Position>
            <AltitudeMeters>816.20001220703125</AltitudeMeters>
            <DistanceMeters>NAN</DistanceMeters>
          </Trackpoint>
          <Trackpoint>
            <Time>2020-12-05T09:41:44.000Z</Time>
            <Position>
              <LatitudeDegrees>36.81801594793796539306640625</LatitudeDegrees>
              <LongitudeDegrees>-4.38817416317760944366455078125</LongitudeDegrees>
            </Position>
            <AltitudeMeters>816.20001220703125</AltitudeMeters>
            <DistanceMeters>NAN</DistanceMeters>
          </Trackpoint>
          <Trackpoint>
            <Time>2020-12-05T09:41:45.000Z</Time>
            <Position>
              <LatitudeDegrees>36.8180177919566631317138671875</LatitudeDegrees>
              <LongitudeDegrees>-4.38817433081567287445068359375</LongitudeDegrees>
            </Position>
            <AltitudeMeters>816</AltitudeMeters>
            <DistanceMeters>NAN</DistanceMeters>
          </Trackpoint>
          <Trackpoint>
            <Time>2020-12-05T09:41:46.000Z</Time>
            <Position>
              <LatitudeDegrees>36.81801686994731426239013671875</LatitudeDegrees>
              <LongitudeDegrees>-4.388178773224353790283203125</LongitudeDegrees>
            </Position>
            <AltitudeMeters>815.79998779296875</AltitudeMeters>
            <DistanceMeters>NAN</DistanceMeters>
          </Trackpoint>
          <Trackpoint>
            <Time>2020-12-05T09:41:47.000Z</Time>
            <Position>
              <LatitudeDegrees>36.8180134333670139312744140625</LatitudeDegrees>
              <LongitudeDegrees>-4.3881822936236858367919921875</LongitudeDegrees>
            </Position>
            <AltitudeMeters>815.79998779296875</AltitudeMeters>
            <DistanceMeters>NAN</DistanceMeters>
          </Trackpoint>
          <Trackpoint>
            <Time>2020-12-05T09:41:48.000Z</Time>
            <Position>
              <LatitudeDegrees>36.81800949387252330780029296875</LatitudeDegrees>
              <LongitudeDegrees>-4.38819117844104766845703125</LongitudeDegrees>
            </Position>
            <AltitudeMeters>815.79998779296875</AltitudeMeters>
            <DistanceMeters>NAN</DistanceMeters>
          </Trackpoint>
          <Trackpoint>
            <Time>2020-12-05T09:41:49.000Z</Time>
            <Position>
              <LatitudeDegrees>36.8180171214044094085693359375</LatitudeDegrees>
              <LongitudeDegrees>-4.38819075934588909149169921875</LongitudeDegrees>
            </Position>
            <AltitudeMeters>816</AltitudeMeters>
            <DistanceMeters>NAN</DistanceMeters>
          </Trackpoint>
          <Trackpoint>
            <Time>2020-12-05T09:41:50.000Z</Time>
            <Position>
              <LatitudeDegrees>36.8180278502404689788818359375</LatitudeDegrees>
              <LongitudeDegrees>-4.38819226808845996856689453125</LongitudeDegrees>
            </Position>
            <AltitudeMeters>816</AltitudeMeters>
            <DistanceMeters>NAN</DistanceMeters>
          </Trackpoint>
          <Trackpoint>
            <Time>2020-12-05T09:41:51.000Z</Time>
            <Position>
              <LatitudeDegrees>36.8180436082184314727783203125</LatitudeDegrees>
              <LongitudeDegrees>-4.3881920166313648223876953125</LongitudeDegrees>
            </Position>
            <AltitudeMeters>816.4000244140625</AltitudeMeters>
            <DistanceMeters>NAN</DistanceMeters>
          </Trackpoint>
          <Trackpoint>
            <Time>2020-12-05T09:41:52.000Z</Time>
            <Position>
              <LatitudeDegrees>36.81805592961609363555908203125</LatitudeDegrees>
              <LongitudeDegrees>-4.3881864845752716064453125</LongitudeDegrees>
            </Position>
            <AltitudeMeters>816.79998779296875</AltitudeMeters>
            <DistanceMeters>NAN</DistanceMeters>
          </Trackpoint>
          <Trackpoint>
            <Time>2020-12-05T09:41:53.000Z</Time>
            <Position>
              <LatitudeDegrees>36.81806514970958232879638671875</LatitudeDegrees>
              <LongitudeDegrees>-4.3881829641759395599365234375</LongitudeDegrees>
            </Position>
            <AltitudeMeters>817</AltitudeMeters>
            <DistanceMeters>NAN</DistanceMeters>
          </Trackpoint>
          <Trackpoint>
            <Time>2020-12-05T09:41:54.000Z</Time>
            <Position>
              <LatitudeDegrees>36.81807420216500759124755859375</LatitudeDegrees>
              <LongitudeDegrees>-4.38817919231951236724853515625</LongitudeDegrees>
            </Position>
            <AltitudeMeters>817.20001220703125</AltitudeMeters>
            <DistanceMeters>NAN</DistanceMeters>
          </Trackpoint>
          <Trackpoint>
            <Time>2020-12-05T09:41:55.000Z</Time>
            <Position>
              <LatitudeDegrees>36.8180804885923862457275390625</LatitudeDegrees>
              <LongitudeDegrees>-4.3881742469966411590576171875</LongitudeDegrees>
            </Position>
            <AltitudeMeters>817.20001220703125</AltitudeMeters>
            <DistanceMeters>NAN</DistanceMeters>
          </Trackpoint>
          <Trackpoint>
            <Time>2020-12-05T09:41:56.000Z</Time>
            <Position>
              <LatitudeDegrees>36.81808325462043285369873046875</LatitudeDegrees>
              <LongitudeDegrees>-4.3881668709218502044677734375</LongitudeDegrees>
            </Position>
            <AltitudeMeters>817</AltitudeMeters>
            <DistanceMeters>NAN</DistanceMeters>
          </Trackpoint>
          <Trackpoint>
            <Time>2020-12-05T09:41:57.000Z</Time>
            <Position>
              <LatitudeDegrees>36.81808300316333770751953125</LatitudeDegrees>
              <LongitudeDegrees>-4.38815538771450519561767578125</LongitudeDegrees>
            </Position>
            <AltitudeMeters>817</AltitudeMeters>
            <DistanceMeters>NAN</DistanceMeters>
          </Trackpoint>
          <Trackpoint>
            <Time>2020-12-05T09:41:58.000Z</Time>
            <Position>
              <LatitudeDegrees>36.818084679543972015380859375</LatitudeDegrees>
              <LongitudeDegrees>-4.38814482651650905609130859375</LongitudeDegrees>
            </Position>
            <AltitudeMeters>816.79998779296875</AltitudeMeters>
            <DistanceMeters>NAN</DistanceMeters>
          </Trackpoint>
          <Trackpoint>
            <Time>2020-12-05T09:41:59.000Z</Time>
            <Position>
              <LatitudeDegrees>36.8180878646671772003173828125</LatitudeDegrees>
              <LongitudeDegrees>-4.388139210641384124755859375</LongitudeDegrees>
            </Position>
            <AltitudeMeters>816.4000244140625</AltitudeMeters>
            <DistanceMeters>NAN</DistanceMeters>
          </Trackpoint>
          <Trackpoint>
            <Time>2020-12-05T09:42:00.000Z</Time>
            <Position>
              <LatitudeDegrees>36.81808878667652606964111328125</LatitudeDegrees>
              <LongitudeDegrees>-4.38813627697527408599853515625</LongitudeDegrees>
            </Position>
            <AltitudeMeters>815.79998779296875</AltitudeMeters>
            <DistanceMeters>NAN</DistanceMeters>
          </Trackpoint>
          <Trackpoint>
            <Time>2020-12-05T09:42:01.000Z</Time>
            <Position>
              <LatitudeDegrees>36.8180863559246063232421875</LatitudeDegrees>
              <LongitudeDegrees>-4.3881363607943058013916015625</LongitudeDegrees>
            </Position>
            <AltitudeMeters>815.4000244140625</AltitudeMeters>
            <DistanceMeters>NAN</DistanceMeters>
          </Trackpoint>
          <Trackpoint>
            <Time>2020-12-05T09:42:02.000Z</Time>
            <Position>
              <LatitudeDegrees>36.81807956658303737640380859375</LatitudeDegrees>
              <LongitudeDegrees>-4.38813325949013233184814453125</LongitudeDegrees>
            </Position>
            <AltitudeMeters>815.79998779296875</AltitudeMeters>
            <DistanceMeters>NAN</DistanceMeters>
          </Trackpoint>
          <Trackpoint>
            <Time>2020-12-05T09:42:03.000Z</Time>
            <Position>
              <LatitudeDegrees>36.818074285984039306640625</LatitudeDegrees>
              <LongitudeDegrees>-4.38813325949013233184814453125</LongitudeDegrees>
            </Position>
            <AltitudeMeters>816.4000244140625</AltitudeMeters>
            <DistanceMeters>NAN</DistanceMeters>
          </Trackpoint>
          <Trackpoint>
            <Time>2020-12-05T09:42:04.000Z</Time>
            <Position>
              <LatitudeDegrees>36.8180667422711849212646484375</LatitudeDegrees>
              <LongitudeDegrees>-4.3881350196897983551025390625</LongitudeDegrees>
            </Position>
            <AltitudeMeters>816.5999755859375</AltitudeMeters>
            <DistanceMeters>NAN</DistanceMeters>
          </Trackpoint>
          <Trackpoint>
            <Time>2020-12-05T09:42:05.000Z</Time>
            <Position>
              <LatitudeDegrees>36.8180660717189311981201171875</LatitudeDegrees>
              <LongitudeDegrees>-4.388137198984622955322265625</LongitudeDegrees>
            </Position>
            <AltitudeMeters>817</AltitudeMeters>
            <DistanceMeters>NAN</DistanceMeters>
          </Trackpoint>
          <Trackpoint>
            <Time>2020-12-05T09:42:06.000Z</Time>
            <Position>
              <LatitudeDegrees>36.81806565262377262115478515625</LatitudeDegrees>
              <LongitudeDegrees>-4.38813745044171810150146484375</LongitudeDegrees>
            </Position>
            <AltitudeMeters>817.20001220703125</AltitudeMeters>
            <DistanceMeters>NAN</DistanceMeters>
          </Trackpoint>
          <Trackpoint>
            <Time>2020-12-05T09:42:07.000Z</Time>
            <Position>
              <LatitudeDegrees>36.81806431151926517486572265625</LatitudeDegrees>
              <LongitudeDegrees>-4.38813778571784496307373046875</LongitudeDegrees>
            </Position>
            <AltitudeMeters>817.5999755859375</AltitudeMeters>
            <DistanceMeters>NAN</DistanceMeters>
          </Trackpoint>
          <Trackpoint>
            <Time>2020-12-05T09:42:08.000Z</Time>
            <Position>
              <LatitudeDegrees>36.81806129403412342071533203125</LatitudeDegrees>
              <LongitudeDegrees>-4.3881370313465595245361328125</LongitudeDegrees>
            </Position>
            <AltitudeMeters>817.79998779296875</AltitudeMeters>
            <DistanceMeters>NAN</DistanceMeters>
          </Trackpoint>
          <Trackpoint>
            <Time>2020-12-05T09:42:09.000Z</Time>
            <Position>
              <LatitudeDegrees>36.81805676780641078948974609375</LatitudeDegrees>
              <LongitudeDegrees>-4.3881320022046566009521484375</LongitudeDegrees>
            </Position>
            <AltitudeMeters>818.20001220703125</AltitudeMeters>
            <DistanceMeters>NAN</DistanceMeters>
          </Trackpoint>
          <Trackpoint>
            <Time>2020-12-05T09:42:10.000Z</Time>
            <Position>
              <LatitudeDegrees>36.81805215775966644287109375</LatitudeDegrees>
              <LongitudeDegrees>-4.3881199322640895843505859375</LongitudeDegrees>
            </Position>
            <AltitudeMeters>818.5999755859375</AltitudeMeters>
            <DistanceMeters>NAN</DistanceMeters>
          </Trackpoint>
          <Trackpoint>
            <Time>2020-12-05T09:42:11.000Z</Time>
            <Position>
              <LatitudeDegrees>36.818049810826778411865234375</LatitudeDegrees>
              <LongitudeDegrees>-4.3881125561892986297607421875</LongitudeDegrees>
            </Position>
            <AltitudeMeters>818.79998779296875</AltitudeMeters>
            <DistanceMeters>NAN</DistanceMeters>
          </Trackpoint>
          <Trackpoint>
            <Time>2020-12-05T09:42:12.000Z</Time>
            <Position>
              <LatitudeDegrees>36.81804788298904895782470703125</LatitudeDegrees>
              <LongitudeDegrees>-4.38810802996158599853515625</LongitudeDegrees>
            </Position>
            <AltitudeMeters>819</AltitudeMeters>
            <DistanceMeters>NAN</DistanceMeters>
          </Trackpoint>
          <Trackpoint>
            <Time>2020-12-05T09:42:13.000Z</Time>
            <Position>
              <LatitudeDegrees>36.81804704479873180389404296875</LatitudeDegrees>
              <LongitudeDegrees>-4.388107024133205413818359375</LongitudeDegrees>
            </Position>
            <AltitudeMeters>819</AltitudeMeters>
            <DistanceMeters>NAN</DistanceMeters>
          </Trackpoint>
          <Trackpoint>
            <Time>2020-12-05T09:42:14.000Z</Time>
            <Position>
              <LatitudeDegrees>36.81804536841809749603271484375</LatitudeDegrees>
              <LongitudeDegrees>-4.38810761086642742156982421875</LongitudeDegrees>
            </Position>
            <AltitudeMeters>819</AltitudeMeters>
            <DistanceMeters>NAN</DistanceMeters>
          </Trackpoint>
          <Trackpoint>
            <Time>2020-12-05T09:42:15.000Z</Time>
            <Position>
              <LatitudeDegrees>36.8180432729423046112060546875</LatitudeDegrees>
              <LongitudeDegrees>-4.388108365237712860107421875</LongitudeDegrees>
            </Position>
            <AltitudeMeters>818.79998779296875</AltitudeMeters>
            <DistanceMeters>NAN</DistanceMeters>
          </Trackpoint>
          <Trackpoint>
            <Time>2020-12-05T09:42:16.000Z</Time>
            <Position>
              <LatitudeDegrees>36.81804033927619457244873046875</LatitudeDegrees>
              <LongitudeDegrees>-4.3881102092564105987548828125</LongitudeDegrees>
            </Position>
            <AltitudeMeters>818.5999755859375</AltitudeMeters>
            <DistanceMeters>NAN</DistanceMeters>
          </Trackpoint>
          <Trackpoint>
            <Time>2020-12-05T09:42:17.000Z</Time>
            <Position>
              <LatitudeDegrees>36.81803681887686252593994140625</LatitudeDegrees>
              <LongitudeDegrees>-4.38811146654188632965087890625</LongitudeDegrees>
            </Position>
            <AltitudeMeters>818.4000244140625</AltitudeMeters>
            <DistanceMeters>NAN</DistanceMeters>
          </Trackpoint>
          <Trackpoint>
            <Time>2020-12-05T09:42:18.000Z</Time>
            <Position>
              <LatitudeDegrees>36.81803396902978420257568359375</LatitudeDegrees>
              <LongitudeDegrees>-4.3881102092564105987548828125</LongitudeDegrees>
            </Position>
            <AltitudeMeters>818.20001220703125</AltitudeMeters>
            <DistanceMeters>NAN</DistanceMeters>
          </Trackpoint>
          <Trackpoint>
            <Time>2020-12-05T09:42:19.000Z</Time>
            <Position>
              <LatitudeDegrees>36.81803195737302303314208984375</LatitudeDegrees>
              <LongitudeDegrees>-4.38810811378061771392822265625</LongitudeDegrees>
            </Position>
            <AltitudeMeters>817.79998779296875</AltitudeMeters>
            <DistanceMeters>NAN</DistanceMeters>
          </Trackpoint>
          <Trackpoint>
            <Time>2020-12-05T09:42:20.000Z</Time>
            <Position>
              <LatitudeDegrees>36.81803338229656219482421875</LatitudeDegrees>
              <LongitudeDegrees>-4.3881046772003173828125</LongitudeDegrees>
            </Position>
            <AltitudeMeters>817.79998779296875</AltitudeMeters>
            <DistanceMeters>NAN</DistanceMeters>
          </Trackpoint>
          <Trackpoint>
            <Time>2020-12-05T09:42:21.000Z</Time>
            <Position>
              <LatitudeDegrees>36.81804218329489231109619140625</LatitudeDegrees>
              <LongitudeDegrees>-4.38809931278228759765625</LongitudeDegrees>
            </Position>
            <AltitudeMeters>817.5999755859375</AltitudeMeters>
            <DistanceMeters>NAN</DistanceMeters>
          </Trackpoint>
          <Trackpoint>
            <Time>2020-12-05T09:42:22.000Z</Time>
            <Position>
              <LatitudeDegrees>36.81804805062711238861083984375</LatitudeDegrees>
              <LongitudeDegrees>-4.38809788785874843597412109375</LongitudeDegrees>
            </Position>
            <AltitudeMeters>817.5999755859375</AltitudeMeters>
            <DistanceMeters>NAN</DistanceMeters>
          </Trackpoint>
          <Trackpoint>
            <Time>2020-12-05T09:42:23.000Z</Time>
            <Position>
              <LatitudeDegrees>36.81804654188454151153564453125</LatitudeDegrees>
              <LongitudeDegrees>-4.38810073770582675933837890625</LongitudeDegrees>
            </Position>
            <AltitudeMeters>817.5999755859375</AltitudeMeters>
            <DistanceMeters>NAN</DistanceMeters>
          </Trackpoint>
          <Trackpoint>
            <Time>2020-12-05T09:42:24.000Z</Time>
            <Position>
              <LatitudeDegrees>36.81804411113262176513671875</LatitudeDegrees>
              <LongitudeDegrees>-4.388103000819683074951171875</LongitudeDegrees>
            </Position>
            <AltitudeMeters>817.4000244140625</AltitudeMeters>
            <DistanceMeters>NAN</DistanceMeters>
          </Trackpoint>
          <Trackpoint>
            <Time>2020-12-05T09:42:25.000Z</Time>
            <Position>
              <LatitudeDegrees>36.81804587133228778839111328125</LatitudeDegrees>
              <LongitudeDegrees>-4.38810274936258792877197265625</LongitudeDegrees>
            </Position>
            <AltitudeMeters>817.20001220703125</AltitudeMeters>
            <DistanceMeters>NAN</DistanceMeters>
          </Trackpoint>
          <Trackpoint>
            <Time>2020-12-05T09:42:26.000Z</Time>
            <Position>
              <LatitudeDegrees>36.818047463893890380859375</LatitudeDegrees>
              <LongitudeDegrees>-4.388101994991302490234375</LongitudeDegrees>
            </Position>
            <AltitudeMeters>817</AltitudeMeters>
            <DistanceMeters>NAN</DistanceMeters>
          </Trackpoint>
          <Trackpoint>
            <Time>2020-12-05T09:42:27.000Z</Time>
            <Position>
              <LatitudeDegrees>36.818052828311920166015625</LatitudeDegrees>
              <LongitudeDegrees>-4.388101994991302490234375</LongitudeDegrees>
            </Position>
            <AltitudeMeters>817.20001220703125</AltitudeMeters>
            <DistanceMeters>NAN</DistanceMeters>
          </Trackpoint>
          <Trackpoint>
            <Time>2020-12-05T09:42:28.000Z</Time>
            <Position>
              <LatitudeDegrees>36.818057186901569366455078125</LatitudeDegrees>
              <LongitudeDegrees>-4.38810878433287143707275390625</LongitudeDegrees>
            </Position>
            <AltitudeMeters>817</AltitudeMeters>
            <DistanceMeters>NAN</DistanceMeters>
          </Trackpoint>
          <Trackpoint>
            <Time>2020-12-05T09:42:29.000Z</Time>
            <Position>
              <LatitudeDegrees>36.81805710308253765106201171875</LatitudeDegrees>
              <LongitudeDegrees>-4.3881152383983135223388671875</LongitudeDegrees>
            </Position>
            <AltitudeMeters>817</AltitudeMeters>
            <DistanceMeters>NAN</DistanceMeters>
          </Trackpoint>
          <Trackpoint>
            <Time>2020-12-05T09:42:30.000Z</Time>
            <Position>
              <LatitudeDegrees>36.81805576197803020477294921875</LatitudeDegrees>
              <LongitudeDegrees>-4.38811917789280414581298828125</LongitudeDegrees>
            </Position>
            <AltitudeMeters>817</AltitudeMeters>
            <DistanceMeters>NAN</DistanceMeters>
          </Trackpoint>
          <Trackpoint>
            <Time>2020-12-05T09:42:31.000Z</Time>
            <Position>
              <LatitudeDegrees>36.8180556781589984893798828125</LatitudeDegrees>
              <LongitudeDegrees>-4.38812387175858020782470703125</LongitudeDegrees>
            </Position>
            <AltitudeMeters>816.79998779296875</AltitudeMeters>
            <DistanceMeters>NAN</DistanceMeters>
          </Trackpoint>
          <Trackpoint>
            <Time>2020-12-05T09:42:32.000Z</Time>
            <Position>
              <LatitudeDegrees>36.8180583603680133819580078125</LatitudeDegrees>
              <LongitudeDegrees>-4.38812948763370513916015625</LongitudeDegrees>
            </Position>
            <AltitudeMeters>816.79998779296875</AltitudeMeters>
            <DistanceMeters>NAN</DistanceMeters>
          </Trackpoint>
          <Trackpoint>
            <Time>2020-12-05T09:42:33.000Z</Time>
            <Position>
              <LatitudeDegrees>36.818061210215091705322265625</LatitudeDegrees>
              <LongitudeDegrees>-4.38812990672886371612548828125</LongitudeDegrees>
            </Position>
            <AltitudeMeters>816.79998779296875</AltitudeMeters>
            <DistanceMeters>NAN</DistanceMeters>
          </Trackpoint>
          <Trackpoint>
            <Time>2020-12-05T09:42:34.000Z</Time>
            <Position>
              <LatitudeDegrees>36.81806380860507488250732421875</LatitudeDegrees>
              <LongitudeDegrees>-4.38812077045440673828125</LongitudeDegrees>
            </Position>
            <AltitudeMeters>816.5999755859375</AltitudeMeters>
            <DistanceMeters>NAN</DistanceMeters>
          </Trackpoint>
          <Trackpoint>
            <Time>2020-12-05T09:42:35.000Z</Time>
            <Position>
              <LatitudeDegrees>36.81806196458637714385986328125</LatitudeDegrees>
              <LongitudeDegrees>-4.3881113827228546142578125</LongitudeDegrees>
            </Position>
            <AltitudeMeters>816.20001220703125</AltitudeMeters>
            <DistanceMeters>NAN</DistanceMeters>
          </Trackpoint>
          <Trackpoint>
            <Time>2020-12-05T09:42:36.000Z</Time>
            <Position>
              <LatitudeDegrees>36.81805961765348911285400390625</LatitudeDegrees>
              <LongitudeDegrees>-4.38810459338128566741943359375</LongitudeDegrees>
            </Position>
            <AltitudeMeters>815.79998779296875</AltitudeMeters>
            <DistanceMeters>NAN</DistanceMeters>
          </Trackpoint>
          <Trackpoint>
            <Time>2020-12-05T09:42:37.000Z</Time>
            <Position>
              <LatitudeDegrees>36.81805752217769622802734375</LatitudeDegrees>
              <LongitudeDegrees>-4.3880941160023212432861328125</LongitudeDegrees>
            </Position>
            <AltitudeMeters>815.20001220703125</AltitudeMeters>
            <DistanceMeters>NAN</DistanceMeters>
          </Trackpoint>
          <Trackpoint>
            <Time>2020-12-05T09:42:38.000Z</Time>
            <Position>
              <LatitudeDegrees>36.81805475614964962005615234375</LatitudeDegrees>
              <LongitudeDegrees>-4.3880847282707691192626953125</LongitudeDegrees>
            </Position>
            <AltitudeMeters>814.79998779296875</AltitudeMeters>
            <DistanceMeters>NAN</DistanceMeters>
          </Trackpoint>
          <Trackpoint>
            <Time>2020-12-05T09:42:39.000Z</Time>
            <Position>
              <LatitudeDegrees>36.81805190630257129669189453125</LatitudeDegrees>
              <LongitudeDegrees>-4.38807785511016845703125</LongitudeDegrees>
            </Position>
            <AltitudeMeters>814.5999755859375</AltitudeMeters>
            <DistanceMeters>NAN</DistanceMeters>
          </Trackpoint>
          <Trackpoint>
            <Time>2020-12-05T09:42:40.000Z</Time>
            <Position>
              <LatitudeDegrees>36.81804771535098552703857421875</LatitudeDegrees>
              <LongitudeDegrees>-4.38807307742536067962646484375</LongitudeDegrees>
            </Position>
            <AltitudeMeters>814.4000244140625</AltitudeMeters>
            <DistanceMeters>NAN</DistanceMeters>
          </Trackpoint>
          <Trackpoint>
            <Time>2020-12-05T09:42:41.000Z</Time>
            <Position>
              <LatitudeDegrees>36.81804402731359004974365234375</LatitudeDegrees>
              <LongitudeDegrees>-4.38807508908212184906005859375</LongitudeDegrees>
            </Position>
            <AltitudeMeters>814.4000244140625</AltitudeMeters>
            <DistanceMeters>NAN</DistanceMeters>
          </Trackpoint>
          <Trackpoint>
            <Time>2020-12-05T09:42:42.000Z</Time>
            <Position>
              <LatitudeDegrees>36.81804788298904895782470703125</LatitudeDegrees>
              <LongitudeDegrees>-4.3880783580243587493896484375</LongitudeDegrees>
            </Position>
            <AltitudeMeters>814.5999755859375</AltitudeMeters>
            <DistanceMeters>NAN</DistanceMeters>
          </Trackpoint>
          <Trackpoint>
            <Time>2020-12-05T09:42:43.000Z</Time>
            <Position>
              <LatitudeDegrees>36.81805257685482501983642578125</LatitudeDegrees>
              <LongitudeDegrees>-4.3880813755095005035400390625</LongitudeDegrees>
            </Position>
            <AltitudeMeters>815</AltitudeMeters>
            <DistanceMeters>NAN</DistanceMeters>
          </Trackpoint>
          <Trackpoint>
            <Time>2020-12-05T09:42:44.000Z</Time>
            <Position>
              <LatitudeDegrees>36.8180546723306179046630859375</LatitudeDegrees>
              <LongitudeDegrees>-4.3880827166140079498291015625</LongitudeDegrees>
            </Position>
            <AltitudeMeters>815.4000244140625</AltitudeMeters>
            <DistanceMeters>NAN</DistanceMeters>
          </Trackpoint>
          <Trackpoint>
            <Time>2020-12-05T09:42:45.000Z</Time>
            <Position>
              <LatitudeDegrees>36.81805794127285480499267578125</LatitudeDegrees>
              <LongitudeDegrees>-4.38808363862335681915283203125</LongitudeDegrees>
            </Position>
            <AltitudeMeters>815.5999755859375</AltitudeMeters>
            <DistanceMeters>NAN</DistanceMeters>
          </Trackpoint>
          <Trackpoint>
            <Time>2020-12-05T09:42:46.000Z</Time>
            <Position>
              <LatitudeDegrees>36.8180633895099163055419921875</LatitudeDegrees>
              <LongitudeDegrees>-4.388082213699817657470703125</LongitudeDegrees>
            </Position>
            <AltitudeMeters>816</AltitudeMeters>
            <DistanceMeters>NAN</DistanceMeters>
          </Trackpoint>
          <Trackpoint>
            <Time>2020-12-05T09:42:47.000Z</Time>
            <Position>
              <LatitudeDegrees>36.81806900538504123687744140625</LatitudeDegrees>
              <LongitudeDegrees>-4.38807894475758075714111328125</LongitudeDegrees>
            </Position>
            <AltitudeMeters>816.20001220703125</AltitudeMeters>
            <DistanceMeters>NAN</DistanceMeters>
          </Trackpoint>
          <Trackpoint>
            <Time>2020-12-05T09:42:48.000Z</Time>
            <Position>
              <LatitudeDegrees>36.8180741183459758758544921875</LatitudeDegrees>
              <LongitudeDegrees>-4.388077519834041595458984375</LongitudeDegrees>
            </Position>
            <AltitudeMeters>816.4000244140625</AltitudeMeters>
            <DistanceMeters>NAN</DistanceMeters>
          </Trackpoint>
          <Trackpoint>
            <Time>2020-12-05T09:42:49.000Z</Time>
            <Position>
              <LatitudeDegrees>36.81807839311659336090087890625</LatitudeDegrees>
              <LongitudeDegrees>-4.388072825968265533447265625</LongitudeDegrees>
            </Position>
            <AltitudeMeters>816.4000244140625</AltitudeMeters>
            <DistanceMeters>NAN</DistanceMeters>
          </Trackpoint>
          <Trackpoint>
            <Time>2020-12-05T09:42:50.000Z</Time>
            <Position>
              <LatitudeDegrees>36.81808174587786197662353515625</LatitudeDegrees>
              <LongitudeDegrees>-4.3880684673786163330078125</LongitudeDegrees>
            </Position>
            <AltitudeMeters>816.5999755859375</AltitudeMeters>
            <DistanceMeters>NAN</DistanceMeters>
          </Trackpoint>
          <Trackpoint>
            <Time>2020-12-05T09:42:51.000Z</Time>
            <Position>
              <LatitudeDegrees>36.81808660738170146942138671875</LatitudeDegrees>
              <LongitudeDegrees>-4.38806436024606227874755859375</LongitudeDegrees>
            </Position>
            <AltitudeMeters>816.5999755859375</AltitudeMeters>
            <DistanceMeters>NAN</DistanceMeters>
          </Trackpoint>
          <Trackpoint>
            <Time>2020-12-05T09:42:52.000Z</Time>
            <Position>
              <LatitudeDegrees>36.818094737827777862548828125</LatitudeDegrees>
              <LongitudeDegrees>-4.38805815763771533966064453125</LongitudeDegrees>
            </Position>
            <AltitudeMeters>816.5999755859375</AltitudeMeters>
            <DistanceMeters>NAN</DistanceMeters>
          </Trackpoint>
          <Trackpoint>
            <Time>2020-12-05T09:42:53.000Z</Time>
            <Position>
              <LatitudeDegrees>36.81810337118804454803466796875</LatitudeDegrees>
              <LongitudeDegrees>-4.38805262558162212371826171875</LongitudeDegrees>
            </Position>
            <AltitudeMeters>816.79998779296875</AltitudeMeters>
            <DistanceMeters>NAN</DistanceMeters>
          </Trackpoint>
          <Trackpoint>
            <Time>2020-12-05T09:42:54.000Z</Time>
            <Position>
              <LatitudeDegrees>36.818108819425106048583984375</LatitudeDegrees>
              <LongitudeDegrees>-4.3880501948297023773193359375</LongitudeDegrees>
            </Position>
            <AltitudeMeters>816.79998779296875</AltitudeMeters>
            <DistanceMeters>NAN</DistanceMeters>
          </Trackpoint>
          <Trackpoint>
            <Time>2020-12-05T09:42:55.000Z</Time>
            <Position>
              <LatitudeDegrees>36.81811116635799407958984375</LatitudeDegrees>
              <LongitudeDegrees>-4.38805438578128814697265625</LongitudeDegrees>
            </Position>
            <AltitudeMeters>816.79998779296875</AltitudeMeters>
            <DistanceMeters>NAN</DistanceMeters>
          </Trackpoint>
          <Trackpoint>
            <Time>2020-12-05T09:42:56.000Z</Time>
            <Position>
              <LatitudeDegrees>36.8181153573095798492431640625</LatitudeDegrees>
              <LongitudeDegrees>-4.38805949874222278594970703125</LongitudeDegrees>
            </Position>
            <AltitudeMeters>816.79998779296875</AltitudeMeters>
            <DistanceMeters>NAN</DistanceMeters>
          </Trackpoint>
          <Trackpoint>
            <Time>2020-12-05T09:42:57.000Z</Time>
            <Position>
              <LatitudeDegrees>36.81812549941241741180419921875</LatitudeDegrees>
              <LongitudeDegrees>-4.3880595825612545013427734375</LongitudeDegrees>
            </Position>
            <AltitudeMeters>816.79998779296875</AltitudeMeters>
            <DistanceMeters>NAN</DistanceMeters>
          </Trackpoint>
          <Trackpoint>
            <Time>2020-12-05T09:42:58.000Z</Time>
            <Position>
              <LatitudeDegrees>36.81813857518136501312255859375</LatitudeDegrees>
              <LongitudeDegrees>-4.38805078156292438507080078125</LongitudeDegrees>
            </Position>
            <AltitudeMeters>816.79998779296875</AltitudeMeters>
            <DistanceMeters>NAN</DistanceMeters>
          </Trackpoint>
          <Trackpoint>
            <Time>2020-12-05T09:42:59.000Z</Time>
            <Position>
              <LatitudeDegrees>36.81814896874129772186279296875</LatitudeDegrees>
              <LongitudeDegrees>-4.38804206438362598419189453125</LongitudeDegrees>
            </Position>
            <AltitudeMeters>816.5999755859375</AltitudeMeters>
            <DistanceMeters>NAN</DistanceMeters>
          </Trackpoint>
          <Trackpoint>
            <Time>2020-12-05T09:43:00.000Z</Time>
            <Position>
              <LatitudeDegrees>36.81815676391124725341796875</LatitudeDegrees>
              <LongitudeDegrees>-4.3880357779562473297119140625</LongitudeDegrees>
            </Position>
            <AltitudeMeters>816.4000244140625</AltitudeMeters>
            <DistanceMeters>NAN</DistanceMeters>
          </Trackpoint>
          <Trackpoint>
            <Time>2020-12-05T09:43:01.000Z</Time>
            <Position>
              <LatitudeDegrees>36.81816036812961101531982421875</LatitudeDegrees>
              <LongitudeDegrees>-4.3880374543368816375732421875</LongitudeDegrees>
            </Position>
            <AltitudeMeters>816.4000244140625</AltitudeMeters>
            <DistanceMeters>NAN</DistanceMeters>
          </Trackpoint>
          <Trackpoint>
            <Time>2020-12-05T09:43:02.000Z</Time>
            <Position>
              <LatitudeDegrees>36.8181643076241016387939453125</LatitudeDegrees>
              <LongitudeDegrees>-4.38803552649915218353271484375</LongitudeDegrees>
            </Position>
            <AltitudeMeters>816</AltitudeMeters>
            <DistanceMeters>NAN</DistanceMeters>
          </Trackpoint>
          <Trackpoint>
            <Time>2020-12-05T09:43:03.000Z</Time>
            <Position>
              <LatitudeDegrees>36.81816590018570423126220703125</LatitudeDegrees>
              <LongitudeDegrees>-4.3880334310233592987060546875</LongitudeDegrees>
            </Position>
            <AltitudeMeters>815.79998779296875</AltitudeMeters>
            <DistanceMeters>NAN</DistanceMeters>
          </Trackpoint>
          <Trackpoint>
            <Time>2020-12-05T09:43:04.000Z</Time>
            <Position>
              <LatitudeDegrees>36.81816573254764080047607421875</LatitudeDegrees>
              <LongitudeDegrees>-4.38803569413721561431884765625</LongitudeDegrees>
            </Position>
            <AltitudeMeters>815.5999755859375</AltitudeMeters>
            <DistanceMeters>NAN</DistanceMeters>
          </Trackpoint>
          <Trackpoint>
            <Time>2020-12-05T09:43:05.000Z</Time>
            <Position>
              <LatitudeDegrees>36.81816707365214824676513671875</LatitudeDegrees>
              <LongitudeDegrees>-4.38804005272686481475830078125</LongitudeDegrees>
            </Position>
            <AltitudeMeters>815.4000244140625</AltitudeMeters>
            <DistanceMeters>NAN</DistanceMeters>
          </Trackpoint>
          <Trackpoint>
            <Time>2020-12-05T09:43:06.000Z</Time>
            <Position>
              <LatitudeDegrees>36.81817076168954372406005859375</LatitudeDegrees>
              <LongitudeDegrees>-4.38804809935390949249267578125</LongitudeDegrees>
            </Position>
            <AltitudeMeters>815.4000244140625</AltitudeMeters>
            <DistanceMeters>NAN</DistanceMeters>
          </Trackpoint>
          <Trackpoint>
            <Time>2020-12-05T09:43:07.000Z</Time>
            <Position>
              <LatitudeDegrees>36.8181736953556537628173828125</LatitudeDegrees>
              <LongitudeDegrees>-4.38805329613387584686279296875</LongitudeDegrees>
            </Position>
            <AltitudeMeters>815.5999755859375</AltitudeMeters>
            <DistanceMeters>NAN</DistanceMeters>
          </Trackpoint>
          <Trackpoint>
            <Time>2020-12-05T09:43:08.000Z</Time>
            <Position>
              <LatitudeDegrees>36.81817495264112949371337890625</LatitudeDegrees>
              <LongitudeDegrees>-4.3880572356283664703369140625</LongitudeDegrees>
            </Position>
            <AltitudeMeters>815.5999755859375</AltitudeMeters>
            <DistanceMeters>NAN</DistanceMeters>
          </Trackpoint>
          <Trackpoint>
            <Time>2020-12-05T09:43:09.000Z</Time>
            <Position>
              <LatitudeDegrees>36.81817151606082916259765625</LatitudeDegrees>
              <LongitudeDegrees>-4.388059079647064208984375</LongitudeDegrees>
            </Position>
            <AltitudeMeters>815.5999755859375</AltitudeMeters>
            <DistanceMeters>NAN</DistanceMeters>
          </Trackpoint>
          <Trackpoint>
            <Time>2020-12-05T09:43:10.000Z</Time>
            <Position>
              <LatitudeDegrees>36.8181700073182582855224609375</LatitudeDegrees>
              <LongitudeDegrees>-4.38806016929447650909423828125</LongitudeDegrees>
            </Position>
            <AltitudeMeters>815.5999755859375</AltitudeMeters>
            <DistanceMeters>NAN</DistanceMeters>
          </Trackpoint>
          <Trackpoint>
            <Time>2020-12-05T09:43:11.000Z</Time>
            <Position>
              <LatitudeDegrees>36.81816958822309970855712890625</LatitudeDegrees>
              <LongitudeDegrees>-4.3880577385425567626953125</LongitudeDegrees>
            </Position>
            <AltitudeMeters>815.5999755859375</AltitudeMeters>
            <DistanceMeters>NAN</DistanceMeters>
          </Trackpoint>
          <Trackpoint>
            <Time>2020-12-05T09:43:12.000Z</Time>
            <Position>
              <LatitudeDegrees>36.8181700073182582855224609375</LatitudeDegrees>
              <LongitudeDegrees>-4.38805815763771533966064453125</LongitudeDegrees>
            </Position>
            <AltitudeMeters>815.5999755859375</AltitudeMeters>
            <DistanceMeters>NAN</DistanceMeters>
          </Trackpoint>
          <Trackpoint>
            <Time>2020-12-05T09:43:13.000Z</Time>
            <Position>
              <LatitudeDegrees>36.818173192441463470458984375</LatitudeDegrees>
              <LongitudeDegrees>-4.38806402496993541717529296875</LongitudeDegrees>
            </Position>
            <AltitudeMeters>815.5999755859375</AltitudeMeters>
            <DistanceMeters>NAN</DistanceMeters>
          </Trackpoint>
          <Trackpoint>
            <Time>2020-12-05T09:43:14.000Z</Time>
            <Position>
              <LatitudeDegrees>36.8181723542511463165283203125</LatitudeDegrees>
              <LongitudeDegrees>-4.38807056285440921783447265625</LongitudeDegrees>
            </Position>
            <AltitudeMeters>815.4000244140625</AltitudeMeters>
            <DistanceMeters>NAN</DistanceMeters>
          </Trackpoint>
          <Trackpoint>
            <Time>2020-12-05T09:43:15.000Z</Time>
            <Position>
              <LatitudeDegrees>36.8181753717362880706787109375</LatitudeDegrees>
              <LongitudeDegrees>-4.38808129169046878814697265625</LongitudeDegrees>
            </Position>
            <AltitudeMeters>815.20001220703125</AltitudeMeters>
            <DistanceMeters>NAN</DistanceMeters>
          </Trackpoint>
          <Trackpoint>
            <Time>2020-12-05T09:43:16.000Z</Time>
            <Position>
              <LatitudeDegrees>36.81818283163011074066162109375</LatitudeDegrees>
              <LongitudeDegrees>-4.38808858394622802734375</LongitudeDegrees>
            </Position>
            <AltitudeMeters>815</AltitudeMeters>
            <DistanceMeters>NAN</DistanceMeters>
          </Trackpoint>
          <Trackpoint>
            <Time>2020-12-05T09:43:17.000Z</Time>
            <Position>
              <LatitudeDegrees>36.8181854300200939178466796875</LatitudeDegrees>
              <LongitudeDegrees>-4.3880899250507354736328125</LongitudeDegrees>
            </Position>
            <AltitudeMeters>815</AltitudeMeters>
            <DistanceMeters>NAN</DistanceMeters>
          </Trackpoint>
          <Trackpoint>
            <Time>2020-12-05T09:43:18.000Z</Time>
            <Position>
              <LatitudeDegrees>36.8181827478110790252685546875</LatitudeDegrees>
              <LongitudeDegrees>-4.3880914337933063507080078125</LongitudeDegrees>
            </Position>
            <AltitudeMeters>814.79998779296875</AltitudeMeters>
            <DistanceMeters>NAN</DistanceMeters>
          </Trackpoint>
          <Trackpoint>
            <Time>2020-12-05T09:43:19.000Z</Time>
            <Position>
              <LatitudeDegrees>36.8181800656020641326904296875</LatitudeDegrees>
              <LongitudeDegrees>-4.38809839077293872833251953125</LongitudeDegrees>
            </Position>
            <AltitudeMeters>814.4000244140625</AltitudeMeters>
            <DistanceMeters>NAN</DistanceMeters>
          </Trackpoint>
          <Trackpoint>
            <Time>2020-12-05T09:43:20.000Z</Time>
            <Position>
              <LatitudeDegrees>36.818179227411746978759765625</LatitudeDegrees>
              <LongitudeDegrees>-4.38810258172452449798583984375</LongitudeDegrees>
            </Position>
            <AltitudeMeters>814</AltitudeMeters>
            <DistanceMeters>NAN</DistanceMeters>
          </Trackpoint>
          <Trackpoint>
            <Time>2020-12-05T09:43:21.000Z</Time>
            <Position>
              <LatitudeDegrees>36.8181783892214298248291015625</LatitudeDegrees>
              <LongitudeDegrees>-4.38810492865741252899169921875</LongitudeDegrees>
            </Position>
            <AltitudeMeters>813.5999755859375</AltitudeMeters>
            <DistanceMeters>NAN</DistanceMeters>
          </Trackpoint>
          <Trackpoint>
            <Time>2020-12-05T09:43:22.000Z</Time>
            <Position>
              <LatitudeDegrees>36.818184591829776763916015625</LatitudeDegrees>
              <LongitudeDegrees>-4.38810006715357303619384765625</LongitudeDegrees>
            </Position>
            <AltitudeMeters>813.20001220703125</AltitudeMeters>
            <DistanceMeters>NAN</DistanceMeters>
          </Trackpoint>
          <Trackpoint>
            <Time>2020-12-05T09:43:23.000Z</Time>
            <Position>
              <LatitudeDegrees>36.8181914649903774261474609375</LatitudeDegrees>
              <LongitudeDegrees>-4.3880967982113361358642578125</LongitudeDegrees>
            </Position>
            <AltitudeMeters>812.79998779296875</AltitudeMeters>
            <DistanceMeters>NAN</DistanceMeters>
          </Trackpoint>
          <Trackpoint>
            <Time>2020-12-05T09:43:24.000Z</Time>
            <Position>
              <LatitudeDegrees>36.8182015232741832733154296875</LatitudeDegrees>
              <LongitudeDegrees>-4.38809218816459178924560546875</LongitudeDegrees>
            </Position>
            <AltitudeMeters>812.5999755859375</AltitudeMeters>
            <DistanceMeters>NAN</DistanceMeters>
          </Trackpoint>
          <Trackpoint>
            <Time>2020-12-05T09:43:25.000Z</Time>
            <Position>
              <LatitudeDegrees>36.8182099051773548126220703125</LatitudeDegrees>
              <LongitudeDegrees>-4.3880887515842914581298828125</LongitudeDegrees>
            </Position>
            <AltitudeMeters>812.5999755859375</AltitudeMeters>
            <DistanceMeters>NAN</DistanceMeters>
          </Trackpoint>
          <Trackpoint>
            <Time>2020-12-05T09:43:26.000Z</Time>
            <Position>
              <LatitudeDegrees>36.8182172812521457672119140625</LatitudeDegrees>
              <LongitudeDegrees>-4.3880837224423885345458984375</LongitudeDegrees>
            </Position>
            <AltitudeMeters>812.4000244140625</AltitudeMeters>
            <DistanceMeters>NAN</DistanceMeters>
          </Trackpoint>
          <Trackpoint>
            <Time>2020-12-05T09:43:27.000Z</Time>
            <Position>
              <LatitudeDegrees>36.81822381913661956787109375</LatitudeDegrees>
              <LongitudeDegrees>-4.388076178729534149169921875</LongitudeDegrees>
            </Position>
            <AltitudeMeters>812.4000244140625</AltitudeMeters>
            <DistanceMeters>NAN</DistanceMeters>
          </Trackpoint>
          <Trackpoint>
            <Time>2020-12-05T09:43:28.000Z</Time>
            <Position>
              <LatitudeDegrees>36.81822842918336391448974609375</LatitudeDegrees>
              <LongitudeDegrees>-4.38807223923504352569580078125</LongitudeDegrees>
            </Position>
            <AltitudeMeters>812.5999755859375</AltitudeMeters>
            <DistanceMeters>NAN</DistanceMeters>
          </Trackpoint>
          <Trackpoint>
            <Time>2020-12-05T09:43:29.000Z</Time>
            <Position>
              <LatitudeDegrees>36.818230859935283660888671875</LatitudeDegrees>
              <LongitudeDegrees>-4.38807022757828235626220703125</LongitudeDegrees>
            </Position>
            <AltitudeMeters>812.5999755859375</AltitudeMeters>
            <DistanceMeters>NAN</DistanceMeters>
          </Trackpoint>
          <Trackpoint>
            <Time>2020-12-05T09:43:30.000Z</Time>
            <Position>
              <LatitudeDegrees>36.81823194958269596099853515625</LatitudeDegrees>
              <LongitudeDegrees>-4.38806922174990177154541015625</LongitudeDegrees>
            </Position>
            <AltitudeMeters>812.79998779296875</AltitudeMeters>
            <DistanceMeters>NAN</DistanceMeters>
          </Trackpoint>
          <Trackpoint>
            <Time>2020-12-05T09:43:31.000Z</Time>
            <Position>
              <LatitudeDegrees>36.81823320686817169189453125</LatitudeDegrees>
              <LongitudeDegrees>-4.3880656175315380096435546875</LongitudeDegrees>
            </Position>
            <AltitudeMeters>813</AltitudeMeters>
            <DistanceMeters>NAN</DistanceMeters>
          </Trackpoint>
          <Trackpoint>
            <Time>2020-12-05T09:43:32.000Z</Time>
            <Position>
              <LatitudeDegrees>36.81823396123945713043212890625</LatitudeDegrees>
              <LongitudeDegrees>-4.38805866055190563201904296875</LongitudeDegrees>
            </Position>
            <AltitudeMeters>813.20001220703125</AltitudeMeters>
            <DistanceMeters>NAN</DistanceMeters>
          </Trackpoint>
          <Trackpoint>
            <Time>2020-12-05T09:43:33.000Z</Time>
            <Position>
              <LatitudeDegrees>36.81824049912393093109130859375</LatitudeDegrees>
              <LongitudeDegrees>-4.38805229030549526214599609375</LongitudeDegrees>
            </Position>
            <AltitudeMeters>813.5999755859375</AltitudeMeters>
            <DistanceMeters>NAN</DistanceMeters>
          </Trackpoint>
          <Trackpoint>
            <Time>2020-12-05T09:43:34.000Z</Time>
            <Position>
              <LatitudeDegrees>36.81824452243745326995849609375</LatitudeDegrees>
              <LongitudeDegrees>-4.38804793171584606170654296875</LongitudeDegrees>
            </Position>
            <AltitudeMeters>813.5999755859375</AltitudeMeters>
            <DistanceMeters>NAN</DistanceMeters>
          </Trackpoint>
          <Trackpoint>
            <Time>2020-12-05T09:43:35.000Z</Time>
            <Position>
              <LatitudeDegrees>36.8182467855513095855712890625</LatitudeDegrees>
              <LongitudeDegrees>-4.38804231584072113037109375</LongitudeDegrees>
            </Position>
            <AltitudeMeters>813.79998779296875</AltitudeMeters>
            <DistanceMeters>NAN</DistanceMeters>
          </Trackpoint>
          <Trackpoint>
            <Time>2020-12-05T09:43:36.000Z</Time>
            <Position>
              <LatitudeDegrees>36.81825055740773677825927734375</LatitudeDegrees>
              <LongitudeDegrees>-4.38803561031818389892578125</LongitudeDegrees>
            </Position>
            <AltitudeMeters>813.79998779296875</AltitudeMeters>
            <DistanceMeters>NAN</DistanceMeters>
          </Trackpoint>
          <Trackpoint>
            <Time>2020-12-05T09:43:37.000Z</Time>
            <Position>
              <LatitudeDegrees>36.8182551674544811248779296875</LatitudeDegrees>
              <LongitudeDegrees>-4.3880287371575832366943359375</LongitudeDegrees>
            </Position>
            <AltitudeMeters>813.5999755859375</AltitudeMeters>
            <DistanceMeters>NAN</DistanceMeters>
          </Trackpoint>
          <Trackpoint>
            <Time>2020-12-05T09:43:38.000Z</Time>
            <Position>
              <LatitudeDegrees>36.8182615377008914947509765625</LatitudeDegrees>
              <LongitudeDegrees>-4.3880206905305385589599609375</LongitudeDegrees>
            </Position>
            <AltitudeMeters>813.4000244140625</AltitudeMeters>
            <DistanceMeters>NAN</DistanceMeters>
          </Trackpoint>
          <Trackpoint>
            <Time>2020-12-05T09:43:39.000Z</Time>
            <Position>
              <LatitudeDegrees>36.8182679079473018646240234375</LatitudeDegrees>
              <LongitudeDegrees>-4.388014487922191619873046875</LongitudeDegrees>
            </Position>
            <AltitudeMeters>813</AltitudeMeters>
            <DistanceMeters>NAN</DistanceMeters>
          </Trackpoint>
          <Trackpoint>
            <Time>2020-12-05T09:43:40.000Z</Time>
            <Position>
              <LatitudeDegrees>36.818275786936283111572265625</LatitudeDegrees>
              <LongitudeDegrees>-4.3880079500377178192138671875</LongitudeDegrees>
            </Position>
            <AltitudeMeters>812.79998779296875</AltitudeMeters>
            <DistanceMeters>NAN</DistanceMeters>
          </Trackpoint>
          <Trackpoint>
            <Time>2020-12-05T09:43:41.000Z</Time>
            <Position>
              <LatitudeDegrees>36.81828089989721775054931640625</LatitudeDegrees>
              <LongitudeDegrees>-4.38800199888646602630615234375</LongitudeDegrees>
            </Position>
            <AltitudeMeters>812.79998779296875</AltitudeMeters>
            <DistanceMeters>NAN</DistanceMeters>
          </Trackpoint>
          <Trackpoint>
            <Time>2020-12-05T09:43:42.000Z</Time>
            <Position>
              <LatitudeDegrees>36.81828710250556468963623046875</LatitudeDegrees>
              <LongitudeDegrees>-4.387997053563594818115234375</LongitudeDegrees>
            </Position>
            <AltitudeMeters>812.5999755859375</AltitudeMeters>
            <DistanceMeters>NAN</DistanceMeters>
          </Trackpoint>
          <Trackpoint>
            <Time>2020-12-05T09:43:43.000Z</Time>
            <Position>
              <LatitudeDegrees>36.818296909332275390625</LatitudeDegrees>
              <LongitudeDegrees>-4.38799269497394561767578125</LongitudeDegrees>
            </Position>
            <AltitudeMeters>812.79998779296875</AltitudeMeters>
            <DistanceMeters>NAN</DistanceMeters>
          </Trackpoint>
          <Trackpoint>
            <Time>2020-12-05T09:43:44.000Z</Time>
            <Position>
              <LatitudeDegrees>36.81830101646482944488525390625</LatitudeDegrees>
              <LongitudeDegrees>-4.387989677488803863525390625</LongitudeDegrees>
            </Position>
            <AltitudeMeters>812.79998779296875</AltitudeMeters>
            <DistanceMeters>NAN</DistanceMeters>
          </Trackpoint>
          <Trackpoint>
            <Time>2020-12-05T09:43:45.000Z</Time>
            <Position>
              <LatitudeDegrees>36.81830487214028835296630859375</LatitudeDegrees>
              <LongitudeDegrees>-4.38799093477427959442138671875</LongitudeDegrees>
            </Position>
            <AltitudeMeters>813.20001220703125</AltitudeMeters>
            <DistanceMeters>NAN</DistanceMeters>
          </Trackpoint>
          <Trackpoint>
            <Time>2020-12-05T09:43:46.000Z</Time>
            <Position>
              <LatitudeDegrees>36.8183051235973834991455078125</LatitudeDegrees>
              <LongitudeDegrees>-4.387991689145565032958984375</LongitudeDegrees>
            </Position>
            <AltitudeMeters>813.79998779296875</AltitudeMeters>
            <DistanceMeters>NAN</DistanceMeters>
          </Trackpoint>
          <Trackpoint>
            <Time>2020-12-05T09:43:47.000Z</Time>
            <Position>
              <LatitudeDegrees>36.81830118410289287567138671875</LatitudeDegrees>
              <LongitudeDegrees>-4.38798959366977214813232421875</LongitudeDegrees>
            </Position>
            <AltitudeMeters>814</AltitudeMeters>
            <DistanceMeters>NAN</DistanceMeters>
          </Trackpoint>
          <Trackpoint>
            <Time>2020-12-05T09:43:48.000Z</Time>
            <Position>
              <LatitudeDegrees>36.81829531677067279815673828125</LatitudeDegrees>
              <LongitudeDegrees>-4.3879885040223598480224609375</LongitudeDegrees>
            </Position>
            <AltitudeMeters>814.20001220703125</AltitudeMeters>
            <DistanceMeters>NAN</DistanceMeters>
          </Trackpoint>
          <Trackpoint>
            <Time>2020-12-05T09:43:49.000Z</Time>
            <Position>
              <LatitudeDegrees>36.81828953325748443603515625</LatitudeDegrees>
              <LongitudeDegrees>-4.3879851512610912322998046875</LongitudeDegrees>
            </Position>
            <AltitudeMeters>814.20001220703125</AltitudeMeters>
            <DistanceMeters>NAN</DistanceMeters>
          </Trackpoint>
          <Trackpoint>
            <Time>2020-12-05T09:43:50.000Z</Time>
            <Position>
              <LatitudeDegrees>36.81828559376299381256103515625</LatitudeDegrees>
              <LongitudeDegrees>-4.38798062503337860107421875</LongitudeDegrees>
            </Position>
            <AltitudeMeters>814.20001220703125</AltitudeMeters>
            <DistanceMeters>NAN</DistanceMeters>
          </Trackpoint>
          <Trackpoint>
            <Time>2020-12-05T09:43:51.000Z</Time>
            <Position>
              <LatitudeDegrees>36.81828492321074008941650390625</LatitudeDegrees>
              <LongitudeDegrees>-4.38797802664339542388916015625</LongitudeDegrees>
            </Position>
            <AltitudeMeters>814</AltitudeMeters>
            <DistanceMeters>NAN</DistanceMeters>
          </Trackpoint>
          <Trackpoint>
            <Time>2020-12-05T09:43:52.000Z</Time>
            <Position>
              <LatitudeDegrees>36.8182806484401226043701171875</LatitudeDegrees>
              <LongitudeDegrees>-4.38797702081501483917236328125</LongitudeDegrees>
            </Position>
            <AltitudeMeters>813.79998779296875</AltitudeMeters>
            <DistanceMeters>NAN</DistanceMeters>
          </Trackpoint>
          <Trackpoint>
            <Time>2020-12-05T09:43:53.000Z</Time>
            <Position>
              <LatitudeDegrees>36.81827905587852001190185546875</LatitudeDegrees>
              <LongitudeDegrees>-4.387977607548236846923828125</LongitudeDegrees>
            </Position>
            <AltitudeMeters>813.4000244140625</AltitudeMeters>
            <DistanceMeters>NAN</DistanceMeters>
          </Trackpoint>
          <Trackpoint>
            <Time>2020-12-05T09:43:54.000Z</Time>
            <Position>
              <LatitudeDegrees>36.81827905587852001190185546875</LatitudeDegrees>
              <LongitudeDegrees>-4.38798171468079090118408203125</LongitudeDegrees>
            </Position>
            <AltitudeMeters>813.20001220703125</AltitudeMeters>
            <DistanceMeters>NAN</DistanceMeters>
          </Trackpoint>
          <Trackpoint>
            <Time>2020-12-05T09:43:55.000Z</Time>
            <Position>
              <LatitudeDegrees>36.8182813189923763275146484375</LatitudeDegrees>
              <LongitudeDegrees>-4.3879878334701061248779296875</LongitudeDegrees>
            </Position>
            <AltitudeMeters>813.4000244140625</AltitudeMeters>
            <DistanceMeters>NAN</DistanceMeters>
          </Trackpoint>
          <Trackpoint>
            <Time>2020-12-05T09:43:56.000Z</Time>
            <Position>
              <LatitudeDegrees>36.8182866834104061126708984375</LatitudeDegrees>
              <LongitudeDegrees>-4.38799227587878704071044921875</LongitudeDegrees>
            </Position>
            <AltitudeMeters>813.4000244140625</AltitudeMeters>
            <DistanceMeters>NAN</DistanceMeters>
          </Trackpoint>
          <Trackpoint>
            <Time>2020-12-05T09:43:57.000Z</Time>
            <Position>
              <LatitudeDegrees>36.818289868533611297607421875</LatitudeDegrees>
              <LongitudeDegrees>-4.38799646683037281036376953125</LongitudeDegrees>
            </Position>
            <AltitudeMeters>813.20001220703125</AltitudeMeters>
            <DistanceMeters>NAN</DistanceMeters>
          </Trackpoint>
          <Trackpoint>
            <Time>2020-12-05T09:43:58.000Z</Time>
            <Position>
              <LatitudeDegrees>36.81829045526683330535888671875</LatitudeDegrees>
              <LongitudeDegrees>-4.38799747265875339508056640625</LongitudeDegrees>
            </Position>
            <AltitudeMeters>812.79998779296875</AltitudeMeters>
            <DistanceMeters>NAN</DistanceMeters>
          </Trackpoint>
          <Trackpoint>
            <Time>2020-12-05T09:43:59.000Z</Time>
            <Position>
              <LatitudeDegrees>36.81829146109521389007568359375</LatitudeDegrees>
              <LongitudeDegrees>-4.3879928626120090484619140625</LongitudeDegrees>
            </Position>
            <AltitudeMeters>812.4000244140625</AltitudeMeters>
            <DistanceMeters>NAN</DistanceMeters>
          </Trackpoint>
          <Trackpoint>
            <Time>2020-12-05T09:44:00.000Z</Time>
            <Position>
              <LatitudeDegrees>36.8182927183806896209716796875</LatitudeDegrees>
              <LongitudeDegrees>-4.3879853188991546630859375</LongitudeDegrees>
            </Position>
            <AltitudeMeters>812.20001220703125</AltitudeMeters>
            <DistanceMeters>NAN</DistanceMeters>
          </Trackpoint>
          <Trackpoint>
            <Time>2020-12-05T09:44:01.000Z</Time>
            <Position>
              <LatitudeDegrees>36.81829498149454593658447265625</LatitudeDegrees>
              <LongitudeDegrees>-4.38797769136726856231689453125</LongitudeDegrees>
            </Position>
            <AltitudeMeters>811.79998779296875</AltitudeMeters>
            <DistanceMeters>NAN</DistanceMeters>
          </Trackpoint>
          <Trackpoint>
            <Time>2020-12-05T09:44:02.000Z</Time>
            <Position>
              <LatitudeDegrees>36.81829866953194141387939453125</LatitudeDegrees>
              <LongitudeDegrees>-4.3879710696637630462646484375</LongitudeDegrees>
            </Position>
            <AltitudeMeters>811.79998779296875</AltitudeMeters>
            <DistanceMeters>NAN</DistanceMeters>
          </Trackpoint>
          <Trackpoint>
            <Time>2020-12-05T09:44:03.000Z</Time>
            <Position>
              <LatitudeDegrees>36.818300597369670867919921875</LatitudeDegrees>
              <LongitudeDegrees>-4.3879690580070018768310546875</LongitudeDegrees>
            </Position>
            <AltitudeMeters>811.5999755859375</AltitudeMeters>
            <DistanceMeters>NAN</DistanceMeters>
          </Trackpoint>
          <Trackpoint>
            <Time>2020-12-05T09:44:04.000Z</Time>
            <Position>
              <LatitudeDegrees>36.81830302812159061431884765625</LatitudeDegrees>
              <LongitudeDegrees>-4.38796713016927242279052734375</LongitudeDegrees>
            </Position>
            <AltitudeMeters>811.79998779296875</AltitudeMeters>
            <DistanceMeters>NAN</DistanceMeters>
          </Trackpoint>
          <Trackpoint>
            <Time>2020-12-05T09:44:05.000Z</Time>
            <Position>
              <LatitudeDegrees>36.8183114938437938690185546875</LatitudeDegrees>
              <LongitudeDegrees>-4.38796277157962322235107421875</LongitudeDegrees>
            </Position>
            <AltitudeMeters>811.79998779296875</AltitudeMeters>
            <DistanceMeters>NAN</DistanceMeters>
          </Trackpoint>
          <Trackpoint>
            <Time>2020-12-05T09:44:06.000Z</Time>
            <Position>
              <LatitudeDegrees>36.81831660680472850799560546875</LatitudeDegrees>
              <LongitudeDegrees>-4.3879611790180206298828125</LongitudeDegrees>
            </Position>
            <AltitudeMeters>812</AltitudeMeters>
            <DistanceMeters>NAN</DistanceMeters>
          </Trackpoint>
          <Trackpoint>
            <Time>2020-12-05T09:44:07.000Z</Time>
            <Position>
              <LatitudeDegrees>36.81832968257367610931396484375</LatitudeDegrees>
              <LongitudeDegrees>-4.3879486061632633209228515625</LongitudeDegrees>
            </Position>
            <AltitudeMeters>812.20001220703125</AltitudeMeters>
            <DistanceMeters>NAN</DistanceMeters>
          </Trackpoint>
          <Trackpoint>
            <Time>2020-12-05T09:44:08.000Z</Time>
            <Position>
              <LatitudeDegrees>36.8183309398591518402099609375</LatitudeDegrees>
              <LongitudeDegrees>-4.3879459239542484283447265625</LongitudeDegrees>
            </Position>
            <AltitudeMeters>812.4000244140625</AltitudeMeters>
            <DistanceMeters>NAN</DistanceMeters>
          </Trackpoint>
          <Trackpoint>
            <Time>2020-12-05T09:44:09.000Z</Time>
            <Position>
              <LatitudeDegrees>36.81832842528820037841796875</LatitudeDegrees>
              <LongitudeDegrees>-4.38794936053454875946044921875</LongitudeDegrees>
            </Position>
            <AltitudeMeters>812.4000244140625</AltitudeMeters>
            <DistanceMeters>NAN</DistanceMeters>
          </Trackpoint>
          <Trackpoint>
            <Time>2020-12-05T09:44:10.000Z</Time>
            <Position>
              <LatitudeDegrees>36.818326413631439208984375</LatitudeDegrees>
              <LongitudeDegrees>-4.38795740716159343719482421875</LongitudeDegrees>
            </Position>
            <AltitudeMeters>812</AltitudeMeters>
            <DistanceMeters>NAN</DistanceMeters>
          </Trackpoint>
          <Trackpoint>
            <Time>2020-12-05T09:44:11.000Z</Time>
            <Position>
              <LatitudeDegrees>36.8183249048888683319091796875</LatitudeDegrees>
              <LongitudeDegrees>-4.38795388676226139068603515625</LongitudeDegrees>
            </Position>
            <AltitudeMeters>811.79998779296875</AltitudeMeters>
            <DistanceMeters>NAN</DistanceMeters>
          </Trackpoint>
          <Trackpoint>
            <Time>2020-12-05T09:44:12.000Z</Time>
            <Position>
              <LatitudeDegrees>36.81833437643945217132568359375</LatitudeDegrees>
              <LongitudeDegrees>-4.38795355148613452911376953125</LongitudeDegrees>
            </Position>
            <AltitudeMeters>812</AltitudeMeters>
            <DistanceMeters>NAN</DistanceMeters>
          </Trackpoint>
          <Trackpoint>
            <Time>2020-12-05T09:44:13.000Z</Time>
            <Position>
              <LatitudeDegrees>36.818338818848133087158203125</LatitudeDegrees>
              <LongitudeDegrees>-4.38796780072152614593505859375</LongitudeDegrees>
            </Position>
            <AltitudeMeters>812</AltitudeMeters>
            <DistanceMeters>NAN</DistanceMeters>
          </Trackpoint>
          <Trackpoint>
            <Time>2020-12-05T09:44:14.000Z</Time>
            <Position>
              <LatitudeDegrees>36.81833554990589618682861328125</LatitudeDegrees>
              <LongitudeDegrees>-4.38797852955758571624755859375</LongitudeDegrees>
            </Position>
            <AltitudeMeters>812</AltitudeMeters>
            <DistanceMeters>NAN</DistanceMeters>
          </Trackpoint>
          <Trackpoint>
            <Time>2020-12-05T09:44:15.000Z</Time>
            <Position>
              <LatitudeDegrees>36.81834451854228973388671875</LatitudeDegrees>
              <LongitudeDegrees>-4.3879874981939792633056640625</LongitudeDegrees>
            </Position>
            <AltitudeMeters>812</AltitudeMeters>
            <DistanceMeters>NAN</DistanceMeters>
          </Trackpoint>
          <Trackpoint>
            <Time>2020-12-05T09:44:16.000Z</Time>
            <Position>
              <LatitudeDegrees>36.81834275834262371063232421875</LatitudeDegrees>
              <LongitudeDegrees>-4.3880014121532440185546875</LongitudeDegrees>
            </Position>
            <AltitudeMeters>812.20001220703125</AltitudeMeters>
            <DistanceMeters>NAN</DistanceMeters>
          </Trackpoint>
          <Trackpoint>
            <Time>2020-12-05T09:44:17.000Z</Time>
            <Position>
              <LatitudeDegrees>36.818332783877849578857421875</LatitudeDegrees>
              <LongitudeDegrees>-4.388006441295146942138671875</LongitudeDegrees>
            </Position>
            <AltitudeMeters>812.20001220703125</AltitudeMeters>
            <DistanceMeters>NAN</DistanceMeters>
          </Trackpoint>
          <Trackpoint>
            <Time>2020-12-05T09:55:19.000Z</Time>
            <Position>
              <LatitudeDegrees>36.8191619217395782470703125</LatitudeDegrees>
              <LongitudeDegrees>-4.38730780966579914093017578125</LongitudeDegrees>
            </Position>
            <AltitudeMeters>808.4000244140625</AltitudeMeters>
            <DistanceMeters>NAN</DistanceMeters>
          </Trackpoint>
          <Trackpoint>
            <Time>2020-12-05T09:55:20.000Z</Time>
            <Position>
              <LatitudeDegrees>36.81917600333690643310546875</LatitudeDegrees>
              <LongitudeDegrees>-4.3873055465519428253173828125</LongitudeDegrees>
            </Position>
            <AltitudeMeters>808.20001220703125</AltitudeMeters>
            <DistanceMeters>NAN</DistanceMeters>
          </Trackpoint>
          <Trackpoint>
            <Time>2020-12-05T09:55:21.000Z</Time>
            <Position>
              <LatitudeDegrees>36.8191952817142009735107421875</LatitudeDegrees>
              <LongitudeDegrees>-4.38729942776262760162353515625</LongitudeDegrees>
            </Position>
            <AltitudeMeters>808.4000244140625</AltitudeMeters>
            <DistanceMeters>NAN</DistanceMeters>
          </Trackpoint>
          <Trackpoint>
            <Time>2020-12-05T09:55:22.000Z</Time>
            <Position>
              <LatitudeDegrees>36.8192120455205440521240234375</LatitudeDegrees>
              <LongitudeDegrees>-4.38729272224009037017822265625</LongitudeDegrees>
            </Position>
            <AltitudeMeters>808</AltitudeMeters>
            <DistanceMeters>NAN</DistanceMeters>
          </Trackpoint>
          <Trackpoint>
            <Time>2020-12-05T09:55:23.000Z</Time>
            <Position>
              <LatitudeDegrees>36.8192261271178722381591796875</LatitudeDegrees>
              <LongitudeDegrees>-4.3872884474694728851318359375</LongitudeDegrees>
            </Position>
            <AltitudeMeters>808</AltitudeMeters>
            <DistanceMeters>NAN</DistanceMeters>
          </Trackpoint>
          <Trackpoint>
            <Time>2020-12-05T09:55:24.000Z</Time>
            <Position>
              <LatitudeDegrees>36.8192361854016780853271484375</LatitudeDegrees>
              <LongitudeDegrees>-4.38728517852723598480224609375</LongitudeDegrees>
            </Position>
            <AltitudeMeters>808</AltitudeMeters>
            <DistanceMeters>NAN</DistanceMeters>
          </Trackpoint>
          <Trackpoint>
            <Time>2020-12-05T09:55:25.000Z</Time>
            <Position>
              <LatitudeDegrees>36.819246076047420501708984375</LatitudeDegrees>
              <LongitudeDegrees>-4.38728417269885540008544921875</LongitudeDegrees>
            </Position>
            <AltitudeMeters>807.79998779296875</AltitudeMeters>
            <DistanceMeters>NAN</DistanceMeters>
          </Trackpoint>
          <Trackpoint>
            <Time>2020-12-05T09:55:26.000Z</Time>
            <Position>
              <LatitudeDegrees>36.819259487092494964599609375</LatitudeDegrees>
              <LongitudeDegrees>-4.3872800655663013458251953125</LongitudeDegrees>
            </Position>
            <AltitudeMeters>807.79998779296875</AltitudeMeters>
            <DistanceMeters>NAN</DistanceMeters>
          </Trackpoint>
          <Trackpoint>
            <Time>2020-12-05T09:55:27.000Z</Time>
            <Position>
              <LatitudeDegrees>36.8192797712981700897216796875</LatitudeDegrees>
              <LongitudeDegrees>-4.38727545551955699920654296875</LongitudeDegrees>
            </Position>
            <AltitudeMeters>807.79998779296875</AltitudeMeters>
            <DistanceMeters>NAN</DistanceMeters>
          </Trackpoint>
          <Trackpoint>
            <Time>2020-12-05T09:55:28.000Z</Time>
            <Position>
              <LatitudeDegrees>36.819303743541240692138671875</LatitudeDegrees>
              <LongitudeDegrees>-4.3872673250734806060791015625</LongitudeDegrees>
            </Position>
            <AltitudeMeters>807.79998779296875</AltitudeMeters>
            <DistanceMeters>NAN</DistanceMeters>
          </Trackpoint>
          <Trackpoint>
            <Time>2020-12-05T09:55:29.000Z</Time>
            <Position>
              <LatitudeDegrees>36.8193253688514232635498046875</LatitudeDegrees>
              <LongitudeDegrees>-4.3872599489986896514892578125</LongitudeDegrees>
            </Position>
            <AltitudeMeters>807.79998779296875</AltitudeMeters>
            <DistanceMeters>NAN</DistanceMeters>
          </Trackpoint>
          <Trackpoint>
            <Time>2020-12-05T09:55:30.000Z</Time>
            <Position>
              <LatitudeDegrees>36.81934389285743236541748046875</LatitudeDegrees>
              <LongitudeDegrees>-4.3872555904090404510498046875</LongitudeDegrees>
            </Position>
            <AltitudeMeters>807.5999755859375</AltitudeMeters>
            <DistanceMeters>NAN</DistanceMeters>
          </Trackpoint>
          <Trackpoint>
            <Time>2020-12-05T09:55:31.000Z</Time>
            <Position>
              <LatitudeDegrees>36.81935864500701427459716796875</LatitudeDegrees>
              <LongitudeDegrees>-4.38724980689585208892822265625</LongitudeDegrees>
            </Position>
            <AltitudeMeters>807.5999755859375</AltitudeMeters>
            <DistanceMeters>NAN</DistanceMeters>
          </Trackpoint>
          <Trackpoint>
            <Time>2020-12-05T09:55:32.000Z</Time>
            <Position>
              <LatitudeDegrees>36.819370798766613006591796875</LatitudeDegrees>
              <LongitudeDegrees>-4.3872450292110443115234375</LongitudeDegrees>
            </Position>
            <AltitudeMeters>807.5999755859375</AltitudeMeters>
            <DistanceMeters>NAN</DistanceMeters>
          </Trackpoint>
          <Trackpoint>
            <Time>2020-12-05T09:55:33.000Z</Time>
            <Position>
              <LatitudeDegrees>36.81938043795526027679443359375</LatitudeDegrees>
              <LongitudeDegrees>-4.3872394971549510955810546875</LongitudeDegrees>
            </Position>
            <AltitudeMeters>807.5999755859375</AltitudeMeters>
            <DistanceMeters>NAN</DistanceMeters>
          </Trackpoint>
          <Trackpoint>
            <Time>2020-12-05T09:55:34.000Z</Time>
            <Position>
              <LatitudeDegrees>36.81938965804874897003173828125</LatitudeDegrees>
              <LongitudeDegrees>-4.38723505474627017974853515625</LongitudeDegrees>
            </Position>
            <AltitudeMeters>807.79998779296875</AltitudeMeters>
            <DistanceMeters>NAN</DistanceMeters>
          </Trackpoint>
          <Trackpoint>
            <Time>2020-12-05T09:55:35.000Z</Time>
            <Position>
              <LatitudeDegrees>36.8194004707038402557373046875</LatitudeDegrees>
              <LongitudeDegrees>-4.38723388127982616424560546875</LongitudeDegrees>
            </Position>
            <AltitudeMeters>807.5999755859375</AltitudeMeters>
            <DistanceMeters>NAN</DistanceMeters>
          </Trackpoint>
          <Trackpoint>
            <Time>2020-12-05T09:55:36.000Z</Time>
            <Position>
              <LatitudeDegrees>36.81941245682537555694580078125</LatitudeDegrees>
              <LongitudeDegrees>-4.387231282889842987060546875</LongitudeDegrees>
            </Position>
            <AltitudeMeters>807.4000244140625</AltitudeMeters>
            <DistanceMeters>NAN</DistanceMeters>
          </Trackpoint>
          <Trackpoint>
            <Time>2020-12-05T09:55:37.000Z</Time>
            <Position>
              <LatitudeDegrees>36.81942385621368885040283203125</LatitudeDegrees>
              <LongitudeDegrees>-4.387221895158290863037109375</LongitudeDegrees>
            </Position>
            <AltitudeMeters>807.20001220703125</AltitudeMeters>
            <DistanceMeters>NAN</DistanceMeters>
          </Trackpoint>
          <Trackpoint>
            <Time>2020-12-05T09:55:38.000Z</Time>
            <Position>
              <LatitudeDegrees>36.8194376863539218902587890625</LatitudeDegrees>
              <LongitudeDegrees>-4.3872128427028656005859375</LongitudeDegrees>
            </Position>
            <AltitudeMeters>806.5999755859375</AltitudeMeters>
            <DistanceMeters>NAN</DistanceMeters>
          </Trackpoint>
          <Trackpoint>
            <Time>2020-12-05T09:55:39.000Z</Time>
            <Position>
              <LatitudeDegrees>36.8194517679512500762939453125</LatitudeDegrees>
              <LongitudeDegrees>-4.38720236532390117645263671875</LongitudeDegrees>
            </Position>
            <AltitudeMeters>806</AltitudeMeters>
            <DistanceMeters>NAN</DistanceMeters>
          </Trackpoint>
          <Trackpoint>
            <Time>2020-12-05T09:55:40.000Z</Time>
            <Position>
              <LatitudeDegrees>36.8194655142724514007568359375</LatitudeDegrees>
              <LongitudeDegrees>-4.38719331286847591400146484375</LongitudeDegrees>
            </Position>
            <AltitudeMeters>805.5999755859375</AltitudeMeters>
            <DistanceMeters>NAN</DistanceMeters>
          </Trackpoint>
          <Trackpoint>
            <Time>2020-12-05T09:55:41.000Z</Time>
            <Position>
              <LatitudeDegrees>36.81947884149849414825439453125</LatitudeDegrees>
              <LongitudeDegrees>-4.38718643970787525177001953125</LongitudeDegrees>
            </Position>
            <AltitudeMeters>805.4000244140625</AltitudeMeters>
            <DistanceMeters>NAN</DistanceMeters>
          </Trackpoint>
          <Trackpoint>
            <Time>2020-12-05T09:55:42.000Z</Time>
            <Position>
              <LatitudeDegrees>36.8194926716387271881103515625</LatitudeDegrees>
              <LongitudeDegrees>-4.387183003127574920654296875</LongitudeDegrees>
            </Position>
            <AltitudeMeters>805</AltitudeMeters>
            <DistanceMeters>NAN</DistanceMeters>
          </Trackpoint>
          <Trackpoint>
            <Time>2020-12-05T09:55:43.000Z</Time>
            <Position>
              <LatitudeDegrees>36.81950750760734081268310546875</LatitudeDegrees>
              <LongitudeDegrees>-4.38718224875628948211669921875</LongitudeDegrees>
            </Position>
            <AltitudeMeters>804.79998779296875</AltitudeMeters>
            <DistanceMeters>NAN</DistanceMeters>
          </Trackpoint>
          <Trackpoint>
            <Time>2020-12-05T09:55:44.000Z</Time>
            <Position>
              <LatitudeDegrees>36.8195258639752864837646484375</LatitudeDegrees>
              <LongitudeDegrees>-4.38718535006046295166015625</LongitudeDegrees>
            </Position>
            <AltitudeMeters>804.4000244140625</AltitudeMeters>
            <DistanceMeters>NAN</DistanceMeters>
          </Trackpoint>
          <Trackpoint>
            <Time>2020-12-05T09:55:45.000Z</Time>
            <Position>
              <LatitudeDegrees>36.81954874657094478607177734375</LatitudeDegrees>
              <LongitudeDegrees>-4.38719314523041248321533203125</LongitudeDegrees>
            </Position>
            <AltitudeMeters>804</AltitudeMeters>
            <DistanceMeters>NAN</DistanceMeters>
          </Trackpoint>
          <Trackpoint>
            <Time>2020-12-05T09:55:46.000Z</Time>
            <Position>
              <LatitudeDegrees>36.819571293890476226806640625</LatitudeDegrees>
              <LongitudeDegrees>-4.38720655627548694610595703125</LongitudeDegrees>
            </Position>
            <AltitudeMeters>803.4000244140625</AltitudeMeters>
            <DistanceMeters>NAN</DistanceMeters>
          </Trackpoint>
          <Trackpoint>
            <Time>2020-12-05T09:55:47.000Z</Time>
            <Position>
              <LatitudeDegrees>36.81959367357194423675537109375</LatitudeDegrees>
              <LongitudeDegrees>-4.3872106634080410003662109375</LongitudeDegrees>
            </Position>
            <AltitudeMeters>803.20001220703125</AltitudeMeters>
            <DistanceMeters>NAN</DistanceMeters>
          </Trackpoint>
          <Trackpoint>
            <Time>2020-12-05T09:55:48.000Z</Time>
            <Position>
              <LatitudeDegrees>36.819608509540557861328125</LatitudeDegrees>
              <LongitudeDegrees>-4.3872150219976902008056640625</LongitudeDegrees>
            </Position>
            <AltitudeMeters>803.20001220703125</AltitudeMeters>
            <DistanceMeters>NAN</DistanceMeters>
          </Trackpoint>
          <Trackpoint>
            <Time>2020-12-05T09:55:49.000Z</Time>
            <Position>
              <LatitudeDegrees>36.81962150149047374725341796875</LatitudeDegrees>
              <LongitudeDegrees>-4.38721644692122936248779296875</LongitudeDegrees>
            </Position>
            <AltitudeMeters>803.20001220703125</AltitudeMeters>
            <DistanceMeters>NAN</DistanceMeters>
          </Trackpoint>
          <Trackpoint>
            <Time>2020-12-05T09:55:50.000Z</Time>
            <Position>
              <LatitudeDegrees>36.8196338228881359100341796875</LatitudeDegrees>
              <LongitudeDegrees>-4.387211501598358154296875</LongitudeDegrees>
            </Position>
            <AltitudeMeters>803.4000244140625</AltitudeMeters>
            <DistanceMeters>NAN</DistanceMeters>
          </Trackpoint>
          <Trackpoint>
            <Time>2020-12-05T09:55:51.000Z</Time>
            <Position>
              <LatitudeDegrees>36.8196472339332103729248046875</LatitudeDegrees>
              <LongitudeDegrees>-4.38719985075294971466064453125</LongitudeDegrees>
            </Position>
            <AltitudeMeters>803.4000244140625</AltitudeMeters>
            <DistanceMeters>NAN</DistanceMeters>
          </Trackpoint>
          <Trackpoint>
            <Time>2020-12-05T09:55:52.000Z</Time>
            <Position>
              <LatitudeDegrees>36.81966123171150684356689453125</LatitudeDegrees>
              <LongitudeDegrees>-4.38718560151755809783935546875</LongitudeDegrees>
            </Position>
            <AltitudeMeters>803.5999755859375</AltitudeMeters>
            <DistanceMeters>NAN</DistanceMeters>
          </Trackpoint>
          <Trackpoint>
            <Time>2020-12-05T09:55:53.000Z</Time>
            <Position>
              <LatitudeDegrees>36.81967397220432758331298828125</LatitudeDegrees>
              <LongitudeDegrees>-4.38717151992022991180419921875</LongitudeDegrees>
            </Position>
            <AltitudeMeters>803.5999755859375</AltitudeMeters>
            <DistanceMeters>NAN</DistanceMeters>
          </Trackpoint>
          <Trackpoint>
            <Time>2020-12-05T09:55:54.000Z</Time>
            <Position>
              <LatitudeDegrees>36.8196857906877994537353515625</LatitudeDegrees>
              <LongitudeDegrees>-4.3871647305786609649658203125</LongitudeDegrees>
            </Position>
            <AltitudeMeters>803.5999755859375</AltitudeMeters>
            <DistanceMeters>NAN</DistanceMeters>
          </Trackpoint>
          <Trackpoint>
            <Time>2020-12-05T09:55:55.000Z</Time>
            <Position>
              <LatitudeDegrees>36.81970213539898395538330078125</LatitudeDegrees>
              <LongitudeDegrees>-4.3871591985225677490234375</LongitudeDegrees>
            </Position>
            <AltitudeMeters>803.4000244140625</AltitudeMeters>
            <DistanceMeters>NAN</DistanceMeters>
          </Trackpoint>
          <Trackpoint>
            <Time>2020-12-05T09:55:56.000Z</Time>
            <Position>
              <LatitudeDegrees>36.81972057558596134185791015625</LatitudeDegrees>
              <LongitudeDegrees>-4.38715509139001369476318359375</LongitudeDegrees>
            </Position>
            <AltitudeMeters>803</AltitudeMeters>
            <DistanceMeters>NAN</DistanceMeters>
          </Trackpoint>
          <Trackpoint>
            <Time>2020-12-05T09:55:57.000Z</Time>
            <Position>
              <LatitudeDegrees>36.81973532773554325103759765625</LatitudeDegrees>
              <LongitudeDegrees>-4.3871540017426013946533203125</LongitudeDegrees>
            </Position>
            <AltitudeMeters>802.5999755859375</AltitudeMeters>
            <DistanceMeters>NAN</DistanceMeters>
          </Trackpoint>
          <Trackpoint>
            <Time>2020-12-05T09:55:58.000Z</Time>
            <Position>
              <LatitudeDegrees>36.8197504989802837371826171875</LatitudeDegrees>
              <LongitudeDegrees>-4.38715048134326934814453125</LongitudeDegrees>
            </Position>
            <AltitudeMeters>802.20001220703125</AltitudeMeters>
            <DistanceMeters>NAN</DistanceMeters>
          </Trackpoint>
          <Trackpoint>
            <Time>2020-12-05T09:55:59.000Z</Time>
            <Position>
              <LatitudeDegrees>36.81976483203470706939697265625</LatitudeDegrees>
              <LongitudeDegrees>-4.38714821822941303253173828125</LongitudeDegrees>
            </Position>
            <AltitudeMeters>801.5999755859375</AltitudeMeters>
            <DistanceMeters>NAN</DistanceMeters>
          </Trackpoint>
          <Trackpoint>
            <Time>2020-12-05T09:56:00.000Z</Time>
            <Position>
              <LatitudeDegrees>36.81977924890816211700439453125</LatitudeDegrees>
              <LongitudeDegrees>-4.38714788295328617095947265625</LongitudeDegrees>
            </Position>
            <AltitudeMeters>801.4000244140625</AltitudeMeters>
            <DistanceMeters>NAN</DistanceMeters>
          </Trackpoint>
          <Trackpoint>
            <Time>2020-12-05T09:56:01.000Z</Time>
            <Position>
              <LatitudeDegrees>36.81979048065841197967529296875</LatitudeDegrees>
              <LongitudeDegrees>-4.38714721240103244781494140625</LongitudeDegrees>
            </Position>
            <AltitudeMeters>801</AltitudeMeters>
            <DistanceMeters>NAN</DistanceMeters>
          </Trackpoint>
          <Trackpoint>
            <Time>2020-12-05T09:56:02.000Z</Time>
            <Position>
              <LatitudeDegrees>36.81980456225574016571044921875</LatitudeDegrees>
              <LongitudeDegrees>-4.38714721240103244781494140625</LongitudeDegrees>
            </Position>
            <AltitudeMeters>800.4000244140625</AltitudeMeters>
            <DistanceMeters>NAN</DistanceMeters>
          </Trackpoint>
          <Trackpoint>
            <Time>2020-12-05T09:56:03.000Z</Time>
            <Position>
              <LatitudeDegrees>36.8198190629482269287109375</LatitudeDegrees>
              <LongitudeDegrees>-4.387149810791015625</LongitudeDegrees>
            </Position>
            <AltitudeMeters>800</AltitudeMeters>
            <DistanceMeters>NAN</DistanceMeters>
          </Trackpoint>
          <Trackpoint>
            <Time>2020-12-05T09:56:04.000Z</Time>
            <Position>
              <LatitudeDegrees>36.8198339827358722686767578125</LatitudeDegrees>
              <LongitudeDegrees>-4.38714972697198390960693359375</LongitudeDegrees>
            </Position>
            <AltitudeMeters>800.20001220703125</AltitudeMeters>
            <DistanceMeters>NAN</DistanceMeters>
          </Trackpoint>
          <Trackpoint>
            <Time>2020-12-05T09:56:05.000Z</Time>
            <Position>
              <LatitudeDegrees>36.81985032744705677032470703125</LatitudeDegrees>
              <LongitudeDegrees>-4.3871570192277431488037109375</LongitudeDegrees>
            </Position>
            <AltitudeMeters>800.20001220703125</AltitudeMeters>
            <DistanceMeters>NAN</DistanceMeters>
          </Trackpoint>
          <Trackpoint>
            <Time>2020-12-05T09:56:06.000Z</Time>
            <Position>
              <LatitudeDegrees>36.81986725889146327972412109375</LatitudeDegrees>
              <LongitudeDegrees>-4.3871647305786609649658203125</LongitudeDegrees>
            </Position>
            <AltitudeMeters>800.20001220703125</AltitudeMeters>
            <DistanceMeters>NAN</DistanceMeters>
          </Trackpoint>
          <Trackpoint>
            <Time>2020-12-05T09:56:07.000Z</Time>
            <Position>
              <LatitudeDegrees>36.819882430136203765869140625</LatitudeDegrees>
              <LongitudeDegrees>-4.38717151992022991180419921875</LongitudeDegrees>
            </Position>
            <AltitudeMeters>800.20001220703125</AltitudeMeters>
            <DistanceMeters>NAN</DistanceMeters>
          </Trackpoint>
          <Trackpoint>
            <Time>2020-12-05T09:56:08.000Z</Time>
            <Position>
              <LatitudeDegrees>36.8198993615806102752685546875</LatitudeDegrees>
              <LongitudeDegrees>-4.38717621378600597381591796875</LongitudeDegrees>
            </Position>
            <AltitudeMeters>800.20001220703125</AltitudeMeters>
            <DistanceMeters>NAN</DistanceMeters>
          </Trackpoint>
          <Trackpoint>
            <Time>2020-12-05T09:56:09.000Z</Time>
            <Position>
              <LatitudeDegrees>36.8199169635772705078125</LatitudeDegrees>
              <LongitudeDegrees>-4.387178979814052581787109375</LongitudeDegrees>
            </Position>
            <AltitudeMeters>800.4000244140625</AltitudeMeters>
            <DistanceMeters>NAN</DistanceMeters>
          </Trackpoint>
          <Trackpoint>
            <Time>2020-12-05T09:56:10.000Z</Time>
            <Position>
              <LatitudeDegrees>36.819935739040374755859375</LatitudeDegrees>
              <LongitudeDegrees>-4.387179650366306304931640625</LongitudeDegrees>
            </Position>
            <AltitudeMeters>800.5999755859375</AltitudeMeters>
            <DistanceMeters>NAN</DistanceMeters>
          </Trackpoint>
          <Trackpoint>
            <Time>2020-12-05T09:56:11.000Z</Time>
            <Position>
              <LatitudeDegrees>36.81995493359863758087158203125</LatitudeDegrees>
              <LongitudeDegrees>-4.387176968157291412353515625</LongitudeDegrees>
            </Position>
            <AltitudeMeters>800.5999755859375</AltitudeMeters>
            <DistanceMeters>NAN</DistanceMeters>
          </Trackpoint>
          <Trackpoint>
            <Time>2020-12-05T09:56:12.000Z</Time>
            <Position>
              <LatitudeDegrees>36.81997186504304409027099609375</LatitudeDegrees>
              <LongitudeDegrees>-4.387174956500530242919921875</LongitudeDegrees>
            </Position>
            <AltitudeMeters>800.5999755859375</AltitudeMeters>
            <DistanceMeters>NAN</DistanceMeters>
          </Trackpoint>
          <Trackpoint>
            <Time>2020-12-05T09:56:13.000Z</Time>
            <Position>
              <LatitudeDegrees>36.81998628191649913787841796875</LatitudeDegrees>
              <LongitudeDegrees>-4.38717286102473735809326171875</LongitudeDegrees>
            </Position>
            <AltitudeMeters>800.5999755859375</AltitudeMeters>
            <DistanceMeters>NAN</DistanceMeters>
          </Trackpoint>
          <Trackpoint>
            <Time>2020-12-05T09:56:14.000Z</Time>
            <Position>
              <LatitudeDegrees>36.82000103406608104705810546875</LatitudeDegrees>
              <LongitudeDegrees>-4.38717286102473735809326171875</LongitudeDegrees>
            </Position>
            <AltitudeMeters>800</AltitudeMeters>
            <DistanceMeters>NAN</DistanceMeters>
          </Trackpoint>
          <Trackpoint>
            <Time>2020-12-05T09:56:15.000Z</Time>
            <Position>
              <LatitudeDegrees>36.82001997716724872589111328125</LatitudeDegrees>
              <LongitudeDegrees>-4.387170933187007904052734375</LongitudeDegrees>
            </Position>
            <AltitudeMeters>799.4000244140625</AltitudeMeters>
            <DistanceMeters>NAN</DistanceMeters>
          </Trackpoint>
          <Trackpoint>
            <Time>2020-12-05T09:56:16.000Z</Time>
            <Position>
              <LatitudeDegrees>36.82004311122000217437744140625</LatitudeDegrees>
              <LongitudeDegrees>-4.3871650658547878265380859375</LongitudeDegrees>
            </Position>
            <AltitudeMeters>799</AltitudeMeters>
            <DistanceMeters>NAN</DistanceMeters>
          </Trackpoint>
          <Trackpoint>
            <Time>2020-12-05T09:56:17.000Z</Time>
            <Position>
              <LatitudeDegrees>36.82006808929145336151123046875</LatitudeDegrees>
              <LongitudeDegrees>-4.3871597014367580413818359375</LongitudeDegrees>
            </Position>
            <AltitudeMeters>799</AltitudeMeters>
            <DistanceMeters>NAN</DistanceMeters>
          </Trackpoint>
          <Trackpoint>
            <Time>2020-12-05T09:56:18.000Z</Time>
            <Position>
              <LatitudeDegrees>36.8200924806296825408935546875</LatitudeDegrees>
              <LongitudeDegrees>-4.38715039752423763275146484375</LongitudeDegrees>
            </Position>
            <AltitudeMeters>799.20001220703125</AltitudeMeters>
            <DistanceMeters>NAN</DistanceMeters>
          </Trackpoint>
          <Trackpoint>
            <Time>2020-12-05T09:56:19.000Z</Time>
            <Position>
              <LatitudeDegrees>36.82011477649211883544921875</LatitudeDegrees>
              <LongitudeDegrees>-4.38714570365846157073974609375</LongitudeDegrees>
            </Position>
            <AltitudeMeters>799.5999755859375</AltitudeMeters>
            <DistanceMeters>NAN</DistanceMeters>
          </Trackpoint>
          <Trackpoint>
            <Time>2020-12-05T09:56:20.000Z</Time>
            <Position>
              <LatitudeDegrees>36.8201350606977939605712890625</LatitudeDegrees>
              <LongitudeDegrees>-4.38714419491589069366455078125</LongitudeDegrees>
            </Position>
            <AltitudeMeters>800</AltitudeMeters>
            <DistanceMeters>NAN</DistanceMeters>
          </Trackpoint>
          <Trackpoint>
            <Time>2020-12-05T09:56:21.000Z</Time>
            <Position>
              <LatitudeDegrees>36.82015475817024707794189453125</LatitudeDegrees>
              <LongitudeDegrees>-4.38714821822941303253173828125</LongitudeDegrees>
            </Position>
            <AltitudeMeters>800.4000244140625</AltitudeMeters>
            <DistanceMeters>NAN</DistanceMeters>
          </Trackpoint>
          <Trackpoint>
            <Time>2020-12-05T09:56:22.000Z</Time>
            <Position>
              <LatitudeDegrees>36.8201731145381927490234375</LatitudeDegrees>
              <LongitudeDegrees>-4.3871526606380939483642578125</LongitudeDegrees>
            </Position>
            <AltitudeMeters>800.5999755859375</AltitudeMeters>
            <DistanceMeters>NAN</DistanceMeters>
          </Trackpoint>
          <Trackpoint>
            <Time>2020-12-05T09:56:23.000Z</Time>
            <Position>
              <LatitudeDegrees>36.8201893754303455352783203125</LatitudeDegrees>
              <LongitudeDegrees>-4.38715584576129913330078125</LongitudeDegrees>
            </Position>
            <AltitudeMeters>800.4000244140625</AltitudeMeters>
            <DistanceMeters>NAN</DistanceMeters>
          </Trackpoint>
          <Trackpoint>
            <Time>2020-12-05T09:56:24.000Z</Time>
            <Position>
              <LatitudeDegrees>36.82020555250346660614013671875</LatitudeDegrees>
              <LongitudeDegrees>-4.38715408556163311004638671875</LongitudeDegrees>
            </Position>
            <AltitudeMeters>800.20001220703125</AltitudeMeters>
            <DistanceMeters>NAN</DistanceMeters>
          </Trackpoint>
          <Trackpoint>
            <Time>2020-12-05T09:56:25.000Z</Time>
            <Position>
              <LatitudeDegrees>36.8202215619385242462158203125</LatitudeDegrees>
              <LongitudeDegrees>-4.3871483020484447479248046875</LongitudeDegrees>
            </Position>
            <AltitudeMeters>799.79998779296875</AltitudeMeters>
            <DistanceMeters>NAN</DistanceMeters>
          </Trackpoint>
          <Trackpoint>
            <Time>2020-12-05T09:56:26.000Z</Time>
            <Position>
              <LatitudeDegrees>36.820236146450042724609375</LatitudeDegrees>
              <LongitudeDegrees>-4.387139417231082916259765625</LongitudeDegrees>
            </Position>
            <AltitudeMeters>799.20001220703125</AltitudeMeters>
            <DistanceMeters>NAN</DistanceMeters>
          </Trackpoint>
          <Trackpoint>
            <Time>2020-12-05T09:56:27.000Z</Time>
            <Position>
              <LatitudeDegrees>36.82024796493351459503173828125</LatitudeDegrees>
              <LongitudeDegrees>-4.38712759874761104583740234375</LongitudeDegrees>
            </Position>
            <AltitudeMeters>798.79998779296875</AltitudeMeters>
            <DistanceMeters>NAN</DistanceMeters>
          </Trackpoint>
          <Trackpoint>
            <Time>2020-12-05T09:56:28.000Z</Time>
            <Position>
              <LatitudeDegrees>36.8202584423124790191650390625</LatitudeDegrees>
              <LongitudeDegrees>-4.38711293041706085205078125</LongitudeDegrees>
            </Position>
            <AltitudeMeters>798.4000244140625</AltitudeMeters>
            <DistanceMeters>NAN</DistanceMeters>
          </Trackpoint>
          <Trackpoint>
            <Time>2020-12-05T09:56:29.000Z</Time>
            <Position>
              <LatitudeDegrees>36.82026808150112628936767578125</LatitudeDegrees>
              <LongitudeDegrees>-4.38709960319101810455322265625</LongitudeDegrees>
            </Position>
            <AltitudeMeters>798</AltitudeMeters>
            <DistanceMeters>NAN</DistanceMeters>
          </Trackpoint>
          <Trackpoint>
            <Time>2020-12-05T09:56:30.000Z</Time>
            <Position>
              <LatitudeDegrees>36.82027931325137615203857421875</LatitudeDegrees>
              <LongitudeDegrees>-4.38708476722240447998046875</LongitudeDegrees>
            </Position>
            <AltitudeMeters>797.5999755859375</AltitudeMeters>
            <DistanceMeters>NAN</DistanceMeters>
          </Trackpoint>
          <Trackpoint>
            <Time>2020-12-05T09:56:31.000Z</Time>
            <Position>
              <LatitudeDegrees>36.82028836570680141448974609375</LatitudeDegrees>
              <LongitudeDegrees>-4.38707143999636173248291015625</LongitudeDegrees>
            </Position>
            <AltitudeMeters>797.20001220703125</AltitudeMeters>
            <DistanceMeters>NAN</DistanceMeters>
          </Trackpoint>
          <Trackpoint>
            <Time>2020-12-05T09:56:32.000Z</Time>
            <Position>
              <LatitudeDegrees>36.82029725052416324615478515625</LatitudeDegrees>
              <LongitudeDegrees>-4.38705450855195522308349609375</LongitudeDegrees>
            </Position>
            <AltitudeMeters>797</AltitudeMeters>
            <DistanceMeters>NAN</DistanceMeters>
          </Trackpoint>
          <Trackpoint>
            <Time>2020-12-05T09:56:33.000Z</Time>
            <Position>
              <LatitudeDegrees>36.820304878056049346923828125</LatitudeDegrees>
              <LongitudeDegrees>-4.38703858293592929840087890625</LongitudeDegrees>
            </Position>
            <AltitudeMeters>796.79998779296875</AltitudeMeters>
            <DistanceMeters>NAN</DistanceMeters>
          </Trackpoint>
          <Trackpoint>
            <Time>2020-12-05T09:56:34.000Z</Time>
            <Position>
              <LatitudeDegrees>36.820312924683094024658203125</LatitudeDegrees>
              <LongitudeDegrees>-4.3870225735008716583251953125</LongitudeDegrees>
            </Position>
            <AltitudeMeters>796.5999755859375</AltitudeMeters>
            <DistanceMeters>NAN</DistanceMeters>
          </Trackpoint>
          <Trackpoint>
            <Time>2020-12-05T09:56:35.000Z</Time>
            <Position>
              <LatitudeDegrees>36.8203197978436946868896484375</LatitudeDegrees>
              <LongitudeDegrees>-4.3870064802467823028564453125</LongitudeDegrees>
            </Position>
            <AltitudeMeters>796.5999755859375</AltitudeMeters>
            <DistanceMeters>NAN</DistanceMeters>
          </Trackpoint>
          <Trackpoint>
            <Time>2020-12-05T09:56:36.000Z</Time>
            <Position>
              <LatitudeDegrees>36.82032356970012187957763671875</LatitudeDegrees>
              <LongitudeDegrees>-4.38699223101139068603515625</LongitudeDegrees>
            </Position>
            <AltitudeMeters>796.4000244140625</AltitudeMeters>
            <DistanceMeters>NAN</DistanceMeters>
          </Trackpoint>
          <Trackpoint>
            <Time>2020-12-05T09:56:37.000Z</Time>
            <Position>
              <LatitudeDegrees>36.8203258328139781951904296875</LatitudeDegrees>
              <LongitudeDegrees>-4.38698016107082366943359375</LongitudeDegrees>
            </Position>
            <AltitudeMeters>796.20001220703125</AltitudeMeters>
            <DistanceMeters>NAN</DistanceMeters>
          </Trackpoint>
          <Trackpoint>
            <Time>2020-12-05T09:56:38.000Z</Time>
            <Position>
              <LatitudeDegrees>36.820327676832675933837890625</LatitudeDegrees>
              <LongitudeDegrees>-4.3869669176638126373291015625</LongitudeDegrees>
            </Position>
            <AltitudeMeters>795.79998779296875</AltitudeMeters>
            <DistanceMeters>NAN</DistanceMeters>
          </Trackpoint>
          <Trackpoint>
            <Time>2020-12-05T09:56:39.000Z</Time>
            <Position>
              <LatitudeDegrees>36.82032993994653224945068359375</LatitudeDegrees>
              <LongitudeDegrees>-4.3869526684284210205078125</LongitudeDegrees>
            </Position>
            <AltitudeMeters>795.79998779296875</AltitudeMeters>
            <DistanceMeters>NAN</DistanceMeters>
          </Trackpoint>
          <Trackpoint>
            <Time>2020-12-05T09:56:40.000Z</Time>
            <Position>
              <LatitudeDegrees>36.82033178396522998809814453125</LatitudeDegrees>
              <LongitudeDegrees>-4.38693699426949024200439453125</LongitudeDegrees>
            </Position>
            <AltitudeMeters>795.4000244140625</AltitudeMeters>
            <DistanceMeters>NAN</DistanceMeters>
          </Trackpoint>
          <Trackpoint>
            <Time>2020-12-05T09:56:41.000Z</Time>
            <Position>
              <LatitudeDegrees>36.8203311972320079803466796875</LatitudeDegrees>
              <LongitudeDegrees>-4.38692157156765460968017578125</LongitudeDegrees>
            </Position>
            <AltitudeMeters>795</AltitudeMeters>
            <DistanceMeters>NAN</DistanceMeters>
          </Trackpoint>
          <Trackpoint>
            <Time>2020-12-05T09:56:42.000Z</Time>
            <Position>
              <LatitudeDegrees>36.82033211924135684967041015625</LatitudeDegrees>
              <LongitudeDegrees>-4.38690732233226299285888671875</LongitudeDegrees>
            </Position>
            <AltitudeMeters>794.79998779296875</AltitudeMeters>
            <DistanceMeters>NAN</DistanceMeters>
          </Trackpoint>
          <Trackpoint>
            <Time>2020-12-05T09:56:43.000Z</Time>
            <Position>
              <LatitudeDegrees>36.82033446617424488067626953125</LatitudeDegrees>
              <LongitudeDegrees>-4.3868941627442836761474609375</LongitudeDegrees>
            </Position>
            <AltitudeMeters>794.79998779296875</AltitudeMeters>
            <DistanceMeters>NAN</DistanceMeters>
          </Trackpoint>
          <Trackpoint>
            <Time>2020-12-05T09:56:44.000Z</Time>
            <Position>
              <LatitudeDegrees>36.82033798657357692718505859375</LatitudeDegrees>
              <LongitudeDegrees>-4.38688016496598720550537109375</LongitudeDegrees>
            </Position>
            <AltitudeMeters>794.79998779296875</AltitudeMeters>
            <DistanceMeters>NAN</DistanceMeters>
          </Trackpoint>
          <Trackpoint>
            <Time>2020-12-05T09:56:45.000Z</Time>
            <Position>
              <LatitudeDegrees>36.82034318335354328155517578125</LatitudeDegrees>
              <LongitudeDegrees>-4.3868643231689929962158203125</LongitudeDegrees>
            </Position>
            <AltitudeMeters>795</AltitudeMeters>
            <DistanceMeters>NAN</DistanceMeters>
          </Trackpoint>
          <Trackpoint>
            <Time>2020-12-05T09:56:46.000Z</Time>
            <Position>
              <LatitudeDegrees>36.8203496374189853668212890625</LatitudeDegrees>
              <LongitudeDegrees>-4.38685007393360137939453125</LongitudeDegrees>
            </Position>
            <AltitudeMeters>795.20001220703125</AltitudeMeters>
            <DistanceMeters>NAN</DistanceMeters>
          </Trackpoint>
          <Trackpoint>
            <Time>2020-12-05T09:56:47.000Z</Time>
            <Position>
              <LatitudeDegrees>36.8203536607325077056884765625</LatitudeDegrees>
              <LongitudeDegrees>-4.386836327612400054931640625</LongitudeDegrees>
            </Position>
            <AltitudeMeters>795.20001220703125</AltitudeMeters>
            <DistanceMeters>NAN</DistanceMeters>
          </Trackpoint>
          <Trackpoint>
            <Time>2020-12-05T09:56:48.000Z</Time>
            <Position>
              <LatitudeDegrees>36.82035609148442745208740234375</LatitudeDegrees>
              <LongitudeDegrees>-4.38682249747216701507568359375</LongitudeDegrees>
            </Position>
            <AltitudeMeters>795.20001220703125</AltitudeMeters>
            <DistanceMeters>NAN</DistanceMeters>
          </Trackpoint>
          <Trackpoint>
            <Time>2020-12-05T09:56:49.000Z</Time>
            <Position>
              <LatitudeDegrees>36.82036179117858409881591796875</LatitudeDegrees>
              <LongitudeDegrees>-4.38680824823677539825439453125</LongitudeDegrees>
            </Position>
            <AltitudeMeters>795.20001220703125</AltitudeMeters>
            <DistanceMeters>NAN</DistanceMeters>
          </Trackpoint>
          <Trackpoint>
            <Time>2020-12-05T09:56:50.000Z</Time>
            <Position>
              <LatitudeDegrees>36.82036933489143848419189453125</LatitudeDegrees>
              <LongitudeDegrees>-4.3867905624210834503173828125</LongitudeDegrees>
            </Position>
            <AltitudeMeters>795.20001220703125</AltitudeMeters>
            <DistanceMeters>NAN</DistanceMeters>
          </Trackpoint>
          <Trackpoint>
            <Time>2020-12-05T09:56:51.000Z</Time>
            <Position>
              <LatitudeDegrees>36.82037587277591228485107421875</LatitudeDegrees>
              <LongitudeDegrees>-4.38677069731056690216064453125</LongitudeDegrees>
            </Position>
            <AltitudeMeters>795</AltitudeMeters>
            <DistanceMeters>NAN</DistanceMeters>
          </Trackpoint>
          <Trackpoint>
            <Time>2020-12-05T09:56:52.000Z</Time>
            <Position>
              <LatitudeDegrees>36.8203798122704029083251953125</LatitudeDegrees>
              <LongitudeDegrees>-4.38675351440906524658203125</LongitudeDegrees>
            </Position>
            <AltitudeMeters>794.79998779296875</AltitudeMeters>
            <DistanceMeters>NAN</DistanceMeters>
          </Trackpoint>
          <Trackpoint>
            <Time>2020-12-05T09:56:53.000Z</Time>
            <Position>
              <LatitudeDegrees>36.82038106955587863922119140625</LatitudeDegrees>
              <LongitudeDegrees>-4.38673532567918300628662109375</LongitudeDegrees>
            </Position>
            <AltitudeMeters>794.4000244140625</AltitudeMeters>
            <DistanceMeters>NAN</DistanceMeters>
          </Trackpoint>
          <Trackpoint>
            <Time>2020-12-05T09:56:54.000Z</Time>
            <Position>
              <LatitudeDegrees>36.8203835003077983856201171875</LatitudeDegrees>
              <LongitudeDegrees>-4.3867178075015544891357421875</LongitudeDegrees>
            </Position>
            <AltitudeMeters>794.20001220703125</AltitudeMeters>
            <DistanceMeters>NAN</DistanceMeters>
          </Trackpoint>
          <Trackpoint>
            <Time>2020-12-05T09:56:55.000Z</Time>
            <Position>
              <LatitudeDegrees>36.8203858472406864166259765625</LatitudeDegrees>
              <LongitudeDegrees>-4.38670196570456027984619140625</LongitudeDegrees>
            </Position>
            <AltitudeMeters>794</AltitudeMeters>
            <DistanceMeters>NAN</DistanceMeters>
          </Trackpoint>
          <Trackpoint>
            <Time>2020-12-05T09:56:56.000Z</Time>
            <Position>
              <LatitudeDegrees>36.82038727216422557830810546875</LatitudeDegrees>
              <LongitudeDegrees>-4.3866866268217563629150390625</LongitudeDegrees>
            </Position>
            <AltitudeMeters>794</AltitudeMeters>
            <DistanceMeters>NAN</DistanceMeters>
          </Trackpoint>
          <Trackpoint>
            <Time>2020-12-05T09:56:57.000Z</Time>
            <Position>
              <LatitudeDegrees>36.820386685431003570556640625</LatitudeDegrees>
              <LongitudeDegrees>-4.38666994683444499969482421875</LongitudeDegrees>
            </Position>
            <AltitudeMeters>793.79998779296875</AltitudeMeters>
            <DistanceMeters>NAN</DistanceMeters>
          </Trackpoint>
          <Trackpoint>
            <Time>2020-12-05T09:56:58.000Z</Time>
            <Position>
              <LatitudeDegrees>36.82038693688809871673583984375</LatitudeDegrees>
              <LongitudeDegrees>-4.3866495788097381591796875</LongitudeDegrees>
            </Position>
            <AltitudeMeters>793.79998779296875</AltitudeMeters>
            <DistanceMeters>NAN</DistanceMeters>
          </Trackpoint>
          <Trackpoint>
            <Time>2020-12-05T09:56:59.000Z</Time>
            <Position>
              <LatitudeDegrees>36.82038961909711360931396484375</LatitudeDegrees>
              <LongitudeDegrees>-4.38663591630756855010986328125</LongitudeDegrees>
            </Position>
            <AltitudeMeters>793.79998779296875</AltitudeMeters>
            <DistanceMeters>NAN</DistanceMeters>
          </Trackpoint>
          <Trackpoint>
            <Time>2020-12-05T09:57:00.000Z</Time>
            <Position>
              <LatitudeDegrees>36.82039263658225536346435546875</LatitudeDegrees>
              <LongitudeDegrees>-4.3866215832531452178955078125</LongitudeDegrees>
            </Position>
            <AltitudeMeters>793.79998779296875</AltitudeMeters>
            <DistanceMeters>NAN</DistanceMeters>
          </Trackpoint>
          <Trackpoint>
            <Time>2020-12-05T09:57:01.000Z</Time>
            <Position>
              <LatitudeDegrees>36.8203942291438579559326171875</LatitudeDegrees>
              <LongitudeDegrees>-4.3866093456745147705078125</LongitudeDegrees>
            </Position>
            <AltitudeMeters>794</AltitudeMeters>
            <DistanceMeters>NAN</DistanceMeters>
          </Trackpoint>
          <Trackpoint>
            <Time>2020-12-05T09:57:02.000Z</Time>
            <Position>
              <LatitudeDegrees>36.82039716280996799468994140625</LatitudeDegrees>
              <LongitudeDegrees>-4.3865967728197574615478515625</LongitudeDegrees>
            </Position>
            <AltitudeMeters>794</AltitudeMeters>
            <DistanceMeters>NAN</DistanceMeters>
          </Trackpoint>
          <Trackpoint>
            <Time>2020-12-05T09:57:03.000Z</Time>
            <Position>
              <LatitudeDegrees>36.82040135376155376434326171875</LatitudeDegrees>
              <LongitudeDegrees>-4.38658093102276325225830078125</LongitudeDegrees>
            </Position>
            <AltitudeMeters>794.20001220703125</AltitudeMeters>
            <DistanceMeters>NAN</DistanceMeters>
          </Trackpoint>
          <Trackpoint>
            <Time>2020-12-05T09:57:04.000Z</Time>
            <Position>
              <LatitudeDegrees>36.820407807826995849609375</LatitudeDegrees>
              <LongitudeDegrees>-4.38656634651124477386474609375</LongitudeDegrees>
            </Position>
            <AltitudeMeters>794.4000244140625</AltitudeMeters>
            <DistanceMeters>NAN</DistanceMeters>
          </Trackpoint>
          <Trackpoint>
            <Time>2020-12-05T09:57:05.000Z</Time>
            <Position>
              <LatitudeDegrees>36.8204145133495330810546875</LatitudeDegrees>
              <LongitudeDegrees>-4.3865538574755191802978515625</LongitudeDegrees>
            </Position>
            <AltitudeMeters>794.5999755859375</AltitudeMeters>
            <DistanceMeters>NAN</DistanceMeters>
          </Trackpoint>
          <Trackpoint>
            <Time>2020-12-05T09:57:06.000Z</Time>
            <Position>
              <LatitudeDegrees>36.82041920721530914306640625</LatitudeDegrees>
              <LongitudeDegrees>-4.38654187135398387908935546875</LongitudeDegrees>
            </Position>
            <AltitudeMeters>794.5999755859375</AltitudeMeters>
            <DistanceMeters>NAN</DistanceMeters>
          </Trackpoint>
          <Trackpoint>
            <Time>2020-12-05T09:57:07.000Z</Time>
            <Position>
              <LatitudeDegrees>36.82042465545237064361572265625</LatitudeDegrees>
              <LongitudeDegrees>-4.38653047196567058563232421875</LongitudeDegrees>
            </Position>
            <AltitudeMeters>794.5999755859375</AltitudeMeters>
            <DistanceMeters>NAN</DistanceMeters>
          </Trackpoint>
          <Trackpoint>
            <Time>2020-12-05T09:57:08.000Z</Time>
            <Position>
              <LatitudeDegrees>36.82043001987040042877197265625</LatitudeDegrees>
              <LongitudeDegrees>-4.3865189887583255767822265625</LongitudeDegrees>
            </Position>
            <AltitudeMeters>794.5999755859375</AltitudeMeters>
            <DistanceMeters>NAN</DistanceMeters>
          </Trackpoint>
          <Trackpoint>
            <Time>2020-12-05T09:57:09.000Z</Time>
            <Position>
              <LatitudeDegrees>36.8204368092119693756103515625</LatitudeDegrees>
              <LongitudeDegrees>-4.3865072540938854217529296875</LongitudeDegrees>
            </Position>
            <AltitudeMeters>794.5999755859375</AltitudeMeters>
            <DistanceMeters>NAN</DistanceMeters>
          </Trackpoint>
          <Trackpoint>
            <Time>2020-12-05T09:57:10.000Z</Time>
            <Position>
              <LatitudeDegrees>36.8204461969435214996337890625</LatitudeDegrees>
              <LongitudeDegrees>-4.38649895600974559783935546875</LongitudeDegrees>
            </Position>
            <AltitudeMeters>794.79998779296875</AltitudeMeters>
            <DistanceMeters>NAN</DistanceMeters>
          </Trackpoint>
          <Trackpoint>
            <Time>2020-12-05T09:57:11.000Z</Time>
            <Position>
              <LatitudeDegrees>36.8204535730183124542236328125</LatitudeDegrees>
              <LongitudeDegrees>-4.386492334306240081787109375</LongitudeDegrees>
            </Position>
            <AltitudeMeters>795</AltitudeMeters>
            <DistanceMeters>NAN</DistanceMeters>
          </Trackpoint>
          <Trackpoint>
            <Time>2020-12-05T09:57:12.000Z</Time>
            <Position>
              <LatitudeDegrees>36.8204629607498645782470703125</LatitudeDegrees>
              <LongitudeDegrees>-4.3864854611456394195556640625</LongitudeDegrees>
            </Position>
            <AltitudeMeters>795.79998779296875</AltitudeMeters>
            <DistanceMeters>NAN</DistanceMeters>
          </Trackpoint>
          <Trackpoint>
            <Time>2020-12-05T09:57:13.000Z</Time>
            <Position>
              <LatitudeDegrees>36.82047377340495586395263671875</LatitudeDegrees>
              <LongitudeDegrees>-4.386477582156658172607421875</LongitudeDegrees>
            </Position>
            <AltitudeMeters>796.4000244140625</AltitudeMeters>
            <DistanceMeters>NAN</DistanceMeters>
          </Trackpoint>
          <Trackpoint>
            <Time>2020-12-05T09:57:14.000Z</Time>
            <Position>
              <LatitudeDegrees>36.82048223912715911865234375</LatitudeDegrees>
              <LongitudeDegrees>-4.3864727206528186798095703125</LongitudeDegrees>
            </Position>
            <AltitudeMeters>796.79998779296875</AltitudeMeters>
            <DistanceMeters>NAN</DistanceMeters>
          </Trackpoint>
          <Trackpoint>
            <Time>2020-12-05T09:57:15.000Z</Time>
            <Position>
              <LatitudeDegrees>36.82049154303967952728271484375</LatitudeDegrees>
              <LongitudeDegrees>-4.386467523872852325439453125</LongitudeDegrees>
            </Position>
            <AltitudeMeters>797</AltitudeMeters>
            <DistanceMeters>NAN</DistanceMeters>
          </Trackpoint>
          <Trackpoint>
            <Time>2020-12-05T09:57:16.000Z</Time>
            <Position>
              <LatitudeDegrees>36.82050009258091449737548828125</LatitudeDegrees>
              <LongitudeDegrees>-4.3864599801599979400634765625</LongitudeDegrees>
            </Position>
            <AltitudeMeters>797</AltitudeMeters>
            <DistanceMeters>NAN</DistanceMeters>
          </Trackpoint>
          <Trackpoint>
            <Time>2020-12-05T09:57:17.000Z</Time>
            <Position>
              <LatitudeDegrees>36.820509396493434906005859375</LatitudeDegrees>
              <LongitudeDegrees>-4.3864482454955577850341796875</LongitudeDegrees>
            </Position>
            <AltitudeMeters>796.4000244140625</AltitudeMeters>
            <DistanceMeters>NAN</DistanceMeters>
          </Trackpoint>
          <Trackpoint>
            <Time>2020-12-05T09:57:18.000Z</Time>
            <Position>
              <LatitudeDegrees>36.8205206282436847686767578125</LatitudeDegrees>
              <LongitudeDegrees>-4.38643190078437328338623046875</LongitudeDegrees>
            </Position>
            <AltitudeMeters>796</AltitudeMeters>
            <DistanceMeters>NAN</DistanceMeters>
          </Trackpoint>
          <Trackpoint>
            <Time>2020-12-05T09:57:19.000Z</Time>
            <Position>
              <LatitudeDegrees>36.82053177617490291595458984375</LatitudeDegrees>
              <LongitudeDegrees>-4.3864187411963939666748046875</LongitudeDegrees>
            </Position>
            <AltitudeMeters>795.5999755859375</AltitudeMeters>
            <DistanceMeters>NAN</DistanceMeters>
          </Trackpoint>
          <Trackpoint>
            <Time>2020-12-05T09:57:20.000Z</Time>
            <Position>
              <LatitudeDegrees>36.82054418139159679412841796875</LatitudeDegrees>
              <LongitudeDegrees>-4.38640608452260494232177734375</LongitudeDegrees>
            </Position>
            <AltitudeMeters>795.20001220703125</AltitudeMeters>
            <DistanceMeters>NAN</DistanceMeters>
          </Trackpoint>
          <Trackpoint>
            <Time>2020-12-05T09:57:21.000Z</Time>
            <Position>
              <LatitudeDegrees>36.82055507786571979522705078125</LatitudeDegrees>
              <LongitudeDegrees>-4.38639686442911624908447265625</LongitudeDegrees>
            </Position>
            <AltitudeMeters>795</AltitudeMeters>
            <DistanceMeters>NAN</DistanceMeters>
          </Trackpoint>
          <Trackpoint>
            <Time>2020-12-05T09:57:22.000Z</Time>
            <Position>
              <LatitudeDegrees>36.8205645494163036346435546875</LatitudeDegrees>
              <LongitudeDegrees>-4.3863858841359615325927734375</LongitudeDegrees>
            </Position>
            <AltitudeMeters>795</AltitudeMeters>
            <DistanceMeters>NAN</DistanceMeters>
          </Trackpoint>
          <Trackpoint>
            <Time>2020-12-05T09:57:23.000Z</Time>
            <Position>
              <LatitudeDegrees>36.820573769509792327880859375</LatitudeDegrees>
              <LongitudeDegrees>-4.38637406565248966217041015625</LongitudeDegrees>
            </Position>
            <AltitudeMeters>795</AltitudeMeters>
            <DistanceMeters>NAN</DistanceMeters>
          </Trackpoint>
          <Trackpoint>
            <Time>2020-12-05T09:57:24.000Z</Time>
            <Position>
              <LatitudeDegrees>36.820581816136837005615234375</LatitudeDegrees>
              <LongitudeDegrees>-4.38636098988354206085205078125</LongitudeDegrees>
            </Position>
            <AltitudeMeters>795</AltitudeMeters>
            <DistanceMeters>NAN</DistanceMeters>
          </Trackpoint>
          <Trackpoint>
            <Time>2020-12-05T09:57:25.000Z</Time>
            <Position>
              <LatitudeDegrees>36.820587180554866790771484375</LatitudeDegrees>
              <LongitudeDegrees>-4.38634959049522876739501953125</LongitudeDegrees>
            </Position>
            <AltitudeMeters>794.79998779296875</AltitudeMeters>
            <DistanceMeters>NAN</DistanceMeters>
          </Trackpoint>
          <Trackpoint>
            <Time>2020-12-05T09:57:26.000Z</Time>
            <Position>
              <LatitudeDegrees>36.820591874420642852783203125</LatitudeDegrees>
              <LongitudeDegrees>-4.3863399513065814971923828125</LongitudeDegrees>
            </Position>
            <AltitudeMeters>794.79998779296875</AltitudeMeters>
            <DistanceMeters>NAN</DistanceMeters>
          </Trackpoint>
          <Trackpoint>
            <Time>2020-12-05T09:57:27.000Z</Time>
            <Position>
              <LatitudeDegrees>36.82059514336287975311279296875</LatitudeDegrees>
              <LongitudeDegrees>-4.38633131794631481170654296875</LongitudeDegrees>
            </Position>
            <AltitudeMeters>794.79998779296875</AltitudeMeters>
            <DistanceMeters>NAN</DistanceMeters>
          </Trackpoint>
          <Trackpoint>
            <Time>2020-12-05T09:57:28.000Z</Time>
            <Position>
              <LatitudeDegrees>36.82060025632381439208984375</LatitudeDegrees>
              <LongitudeDegrees>-4.38632578589022159576416015625</LongitudeDegrees>
            </Position>
            <AltitudeMeters>794.5999755859375</AltitudeMeters>
            <DistanceMeters>NAN</DistanceMeters>
          </Trackpoint>
          <Trackpoint>
            <Time>2020-12-05T09:57:29.000Z</Time>
            <Position>
              <LatitudeDegrees>36.8206047825515270233154296875</LatitudeDegrees>
              <LongitudeDegrees>-4.38632125966250896453857421875</LongitudeDegrees>
            </Position>
            <AltitudeMeters>794.4000244140625</AltitudeMeters>
            <DistanceMeters>NAN</DistanceMeters>
          </Trackpoint>
          <Trackpoint>
            <Time>2020-12-05T09:57:30.000Z</Time>
            <Position>
              <LatitudeDegrees>36.82060788385570049285888671875</LatitudeDegrees>
              <LongitudeDegrees>-4.38631941564381122589111328125</LongitudeDegrees>
            </Position>
            <AltitudeMeters>794.20001220703125</AltitudeMeters>
            <DistanceMeters>NAN</DistanceMeters>
          </Trackpoint>
          <Trackpoint>
            <Time>2020-12-05T09:57:31.000Z</Time>
            <Position>
              <LatitudeDegrees>36.82061073370277881622314453125</LatitudeDegrees>
              <LongitudeDegrees>-4.386313296854496002197265625</LongitudeDegrees>
            </Position>
            <AltitudeMeters>794.20001220703125</AltitudeMeters>
            <DistanceMeters>NAN</DistanceMeters>
          </Trackpoint>
          <Trackpoint>
            <Time>2020-12-05T09:57:32.000Z</Time>
            <Position>
              <LatitudeDegrees>36.82061492465436458587646484375</LatitudeDegrees>
              <LongitudeDegrees>-4.3863037414848804473876953125</LongitudeDegrees>
            </Position>
            <AltitudeMeters>794</AltitudeMeters>
            <DistanceMeters>NAN</DistanceMeters>
          </Trackpoint>
          <Trackpoint>
            <Time>2020-12-05T09:57:33.000Z</Time>
            <Position>
              <LatitudeDegrees>36.82062129490077495574951171875</LatitudeDegrees>
              <LongitudeDegrees>-4.38629225827753543853759765625</LongitudeDegrees>
            </Position>
            <AltitudeMeters>793.79998779296875</AltitudeMeters>
            <DistanceMeters>NAN</DistanceMeters>
          </Trackpoint>
          <Trackpoint>
            <Time>2020-12-05T09:57:34.000Z</Time>
            <Position>
              <LatitudeDegrees>36.8206275813281536102294921875</LatitudeDegrees>
              <LongitudeDegrees>-4.38627867959439754486083984375</LongitudeDegrees>
            </Position>
            <AltitudeMeters>793.4000244140625</AltitudeMeters>
            <DistanceMeters>NAN</DistanceMeters>
          </Trackpoint>
          <Trackpoint>
            <Time>2020-12-05T09:57:35.000Z</Time>
            <Position>
              <LatitudeDegrees>36.82063504122197628021240234375</LatitudeDegrees>
              <LongitudeDegrees>-4.38626945950090885162353515625</LongitudeDegrees>
            </Position>
            <AltitudeMeters>793</AltitudeMeters>
            <DistanceMeters>NAN</DistanceMeters>
          </Trackpoint>
          <Trackpoint>
            <Time>2020-12-05T09:57:36.000Z</Time>
            <Position>
              <LatitudeDegrees>36.82064208202064037322998046875</LatitudeDegrees>
              <LongitudeDegrees>-4.38626275397837162017822265625</LongitudeDegrees>
            </Position>
            <AltitudeMeters>792.5999755859375</AltitudeMeters>
            <DistanceMeters>NAN</DistanceMeters>
          </Trackpoint>
          <Trackpoint>
            <Time>2020-12-05T09:57:37.000Z</Time>
            <Position>
              <LatitudeDegrees>36.82064987719058990478515625</LatitudeDegrees>
              <LongitudeDegrees>-4.38625504262745380401611328125</LongitudeDegrees>
            </Position>
            <AltitudeMeters>792.4000244140625</AltitudeMeters>
            <DistanceMeters>NAN</DistanceMeters>
          </Trackpoint>
          <Trackpoint>
            <Time>2020-12-05T09:57:38.000Z</Time>
            <Position>
              <LatitudeDegrees>36.8206584267318248748779296875</LatitudeDegrees>
              <LongitudeDegrees>-4.38624749891459941864013671875</LongitudeDegrees>
            </Position>
            <AltitudeMeters>792.20001220703125</AltitudeMeters>
            <DistanceMeters>NAN</DistanceMeters>
          </Trackpoint>
          <Trackpoint>
            <Time>2020-12-05T09:57:39.000Z</Time>
            <Position>
              <LatitudeDegrees>36.82066655717790126800537109375</LatitudeDegrees>
              <LongitudeDegrees>-4.38623844645917415618896484375</LongitudeDegrees>
            </Position>
            <AltitudeMeters>792</AltitudeMeters>
            <DistanceMeters>NAN</DistanceMeters>
          </Trackpoint>
          <Trackpoint>
            <Time>2020-12-05T09:57:40.000Z</Time>
            <Position>
              <LatitudeDegrees>36.82067527435719966888427734375</LatitudeDegrees>
              <LongitudeDegrees>-4.38622721470892429351806640625</LongitudeDegrees>
            </Position>
            <AltitudeMeters>792</AltitudeMeters>
            <DistanceMeters>NAN</DistanceMeters>
          </Trackpoint>
          <Trackpoint>
            <Time>2020-12-05T09:57:41.000Z</Time>
            <Position>
              <LatitudeDegrees>36.82068315334618091583251953125</LatitudeDegrees>
              <LongitudeDegrees>-4.3862148933112621307373046875</LongitudeDegrees>
            </Position>
            <AltitudeMeters>792</AltitudeMeters>
            <DistanceMeters>NAN</DistanceMeters>
          </Trackpoint>
          <Trackpoint>
            <Time>2020-12-05T09:57:42.000Z</Time>
            <Position>
              <LatitudeDegrees>36.82069279253482818603515625</LatitudeDegrees>
              <LongitudeDegrees>-4.38619871623814105987548828125</LongitudeDegrees>
            </Position>
            <AltitudeMeters>792.20001220703125</AltitudeMeters>
            <DistanceMeters>NAN</DistanceMeters>
          </Trackpoint>
          <Trackpoint>
            <Time>2020-12-05T09:57:43.000Z</Time>
            <Position>
              <LatitudeDegrees>36.8207020126283168792724609375</LatitudeDegrees>
              <LongitudeDegrees>-4.3861827068030834197998046875</LongitudeDegrees>
            </Position>
            <AltitudeMeters>792.4000244140625</AltitudeMeters>
            <DistanceMeters>NAN</DistanceMeters>
          </Trackpoint>
          <Trackpoint>
            <Time>2020-12-05T09:57:44.000Z</Time>
            <Position>
              <LatitudeDegrees>36.820711903274059295654296875</LatitudeDegrees>
              <LongitudeDegrees>-4.38617013394832611083984375</LongitudeDegrees>
            </Position>
            <AltitudeMeters>792.5999755859375</AltitudeMeters>
            <DistanceMeters>NAN</DistanceMeters>
          </Trackpoint>
          <Trackpoint>
            <Time>2020-12-05T09:57:45.000Z</Time>
            <Position>
              <LatitudeDegrees>36.82072271592915058135986328125</LatitudeDegrees>
              <LongitudeDegrees>-4.38615898601710796356201171875</LongitudeDegrees>
            </Position>
            <AltitudeMeters>793</AltitudeMeters>
            <DistanceMeters>NAN</DistanceMeters>
          </Trackpoint>
          <Trackpoint>
            <Time>2020-12-05T09:57:46.000Z</Time>
            <Position>
              <LatitudeDegrees>36.8207338638603687286376953125</LatitudeDegrees>
              <LongitudeDegrees>-4.38614725135266780853271484375</LongitudeDegrees>
            </Position>
            <AltitudeMeters>793.4000244140625</AltitudeMeters>
            <DistanceMeters>NAN</DistanceMeters>
          </Trackpoint>
          <Trackpoint>
            <Time>2020-12-05T09:57:47.000Z</Time>
            <Position>
              <LatitudeDegrees>36.820743083953857421875</LatitudeDegrees>
              <LongitudeDegrees>-4.38613501377403736114501953125</LongitudeDegrees>
            </Position>
            <AltitudeMeters>793.5999755859375</AltitudeMeters>
            <DistanceMeters>NAN</DistanceMeters>
          </Trackpoint>
          <Trackpoint>
            <Time>2020-12-05T09:57:48.000Z</Time>
            <Position>
              <LatitudeDegrees>36.82075154967606067657470703125</LatitudeDegrees>
              <LongitudeDegrees>-4.3861240334808826446533203125</LongitudeDegrees>
            </Position>
            <AltitudeMeters>793.5999755859375</AltitudeMeters>
            <DistanceMeters>NAN</DistanceMeters>
          </Trackpoint>
          <Trackpoint>
            <Time>2020-12-05T09:57:49.000Z</Time>
            <Position>
              <LatitudeDegrees>36.820758841931819915771484375</LatitudeDegrees>
              <LongitudeDegrees>-4.38611246645450592041015625</LongitudeDegrees>
            </Position>
            <AltitudeMeters>793.5999755859375</AltitudeMeters>
            <DistanceMeters>NAN</DistanceMeters>
          </Trackpoint>
          <Trackpoint>
            <Time>2020-12-05T09:57:50.000Z</Time>
            <Position>
              <LatitudeDegrees>36.82076697237789630889892578125</LatitudeDegrees>
              <LongitudeDegrees>-4.3861008994281291961669921875</LongitudeDegrees>
            </Position>
            <AltitudeMeters>793.4000244140625</AltitudeMeters>
            <DistanceMeters>NAN</DistanceMeters>
          </Trackpoint>
          <Trackpoint>
            <Time>2020-12-05T09:57:51.000Z</Time>
            <Position>
              <LatitudeDegrees>36.82077585719525814056396484375</LatitudeDegrees>
              <LongitudeDegrees>-4.38609193079173564910888671875</LongitudeDegrees>
            </Position>
            <AltitudeMeters>793</AltitudeMeters>
            <DistanceMeters>NAN</DistanceMeters>
          </Trackpoint>
          <Trackpoint>
            <Time>2020-12-05T09:57:52.000Z</Time>
            <Position>
              <LatitudeDegrees>36.82078398764133453369140625</LatitudeDegrees>
              <LongitudeDegrees>-4.38608086667954921722412109375</LongitudeDegrees>
            </Position>
            <AltitudeMeters>792.5999755859375</AltitudeMeters>
            <DistanceMeters>NAN</DistanceMeters>
          </Trackpoint>
          <Trackpoint>
            <Time>2020-12-05T09:57:53.000Z</Time>
            <Position>
              <LatitudeDegrees>36.82078926824033260345458984375</LatitudeDegrees>
              <LongitudeDegrees>-4.386070556938648223876953125</LongitudeDegrees>
            </Position>
            <AltitudeMeters>792.20001220703125</AltitudeMeters>
            <DistanceMeters>NAN</DistanceMeters>
          </Trackpoint>
          <Trackpoint>
            <Time>2020-12-05T09:57:54.000Z</Time>
            <Position>
              <LatitudeDegrees>36.82079614140093326568603515625</LatitudeDegrees>
              <LongitudeDegrees>-4.38605722971260547637939453125</LongitudeDegrees>
            </Position>
            <AltitudeMeters>792.20001220703125</AltitudeMeters>
            <DistanceMeters>NAN</DistanceMeters>
          </Trackpoint>
          <Trackpoint>
            <Time>2020-12-05T09:57:55.000Z</Time>
            <Position>
              <LatitudeDegrees>36.82080402038991451263427734375</LatitudeDegrees>
              <LongitudeDegrees>-4.38604138791561126708984375</LongitudeDegrees>
            </Position>
            <AltitudeMeters>792</AltitudeMeters>
            <DistanceMeters>NAN</DistanceMeters>
          </Trackpoint>
          <Trackpoint>
            <Time>2020-12-05T09:57:56.000Z</Time>
            <Position>
              <LatitudeDegrees>36.82080871425569057464599609375</LatitudeDegrees>
              <LongitudeDegrees>-4.38602470792829990386962890625</LongitudeDegrees>
            </Position>
            <AltitudeMeters>792.4000244140625</AltitudeMeters>
            <DistanceMeters>NAN</DistanceMeters>
          </Trackpoint>
          <Trackpoint>
            <Time>2020-12-05T09:57:57.000Z</Time>
            <Position>
              <LatitudeDegrees>36.82081340812146663665771484375</LatitudeDegrees>
              <LongitudeDegrees>-4.38601146452128887176513671875</LongitudeDegrees>
            </Position>
            <AltitudeMeters>792.5999755859375</AltitudeMeters>
            <DistanceMeters>NAN</DistanceMeters>
          </Trackpoint>
          <Trackpoint>
            <Time>2020-12-05T09:57:58.000Z</Time>
            <Position>
              <LatitudeDegrees>36.820818521082401275634765625</LatitudeDegrees>
              <LongitudeDegrees>-4.38600291498005390167236328125</LongitudeDegrees>
            </Position>
            <AltitudeMeters>793</AltitudeMeters>
            <DistanceMeters>NAN</DistanceMeters>
          </Trackpoint>
          <Trackpoint>
            <Time>2020-12-05T09:57:59.000Z</Time>
            <Position>
              <LatitudeDegrees>36.820827238261699676513671875</LatitudeDegrees>
              <LongitudeDegrees>-4.38599285669624805450439453125</LongitudeDegrees>
            </Position>
            <AltitudeMeters>793.4000244140625</AltitudeMeters>
            <DistanceMeters>NAN</DistanceMeters>
          </Trackpoint>
          <Trackpoint>
            <Time>2020-12-05T09:58:00.000Z</Time>
            <Position>
              <LatitudeDegrees>36.82083620689809322357177734375</LatitudeDegrees>
              <LongitudeDegrees>-4.38598313368856906890869140625</LongitudeDegrees>
            </Position>
            <AltitudeMeters>793.79998779296875</AltitudeMeters>
            <DistanceMeters>NAN</DistanceMeters>
          </Trackpoint>
          <Trackpoint>
            <Time>2020-12-05T09:58:01.000Z</Time>
            <Position>
              <LatitudeDegrees>36.82084425352513790130615234375</LatitudeDegrees>
              <LongitudeDegrees>-4.38597274012863636016845703125</LongitudeDegrees>
            </Position>
            <AltitudeMeters>794.20001220703125</AltitudeMeters>
            <DistanceMeters>NAN</DistanceMeters>
          </Trackpoint>
          <Trackpoint>
            <Time>2020-12-05T09:58:02.000Z</Time>
            <Position>
              <LatitudeDegrees>36.820850372314453125</LatitudeDegrees>
              <LongitudeDegrees>-4.38596268184483051300048828125</LongitudeDegrees>
            </Position>
            <AltitudeMeters>794.20001220703125</AltitudeMeters>
            <DistanceMeters>NAN</DistanceMeters>
          </Trackpoint>
          <Trackpoint>
            <Time>2020-12-05T09:58:03.000Z</Time>
            <Position>
              <LatitudeDegrees>36.82085799984633922576904296875</LatitudeDegrees>
              <LongitudeDegrees>-4.3859493546187877655029296875</LongitudeDegrees>
            </Position>
            <AltitudeMeters>794.4000244140625</AltitudeMeters>
            <DistanceMeters>NAN</DistanceMeters>
          </Trackpoint>
          <Trackpoint>
            <Time>2020-12-05T09:58:04.000Z</Time>
            <Position>
              <LatitudeDegrees>36.82086587883532047271728515625</LatitudeDegrees>
              <LongitudeDegrees>-4.385934770107269287109375</LongitudeDegrees>
            </Position>
            <AltitudeMeters>794.4000244140625</AltitudeMeters>
            <DistanceMeters>NAN</DistanceMeters>
          </Trackpoint>
          <Trackpoint>
            <Time>2020-12-05T09:58:05.000Z</Time>
            <Position>
              <LatitudeDegrees>36.82087208144366741180419921875</LatitudeDegrees>
              <LongitudeDegrees>-4.38592345453798770904541015625</LongitudeDegrees>
            </Position>
            <AltitudeMeters>794.20001220703125</AltitudeMeters>
            <DistanceMeters>NAN</DistanceMeters>
          </Trackpoint>
          <Trackpoint>
            <Time>2020-12-05T09:58:06.000Z</Time>
            <Position>
              <LatitudeDegrees>36.820878870785236358642578125</LatitudeDegrees>
              <LongitudeDegrees>-4.38591121695935726165771484375</LongitudeDegrees>
            </Position>
            <AltitudeMeters>793.79998779296875</AltitudeMeters>
            <DistanceMeters>NAN</DistanceMeters>
          </Trackpoint>
          <Trackpoint>
            <Time>2020-12-05T09:58:07.000Z</Time>
            <Position>
              <LatitudeDegrees>36.82088415138423442840576171875</LatitudeDegrees>
              <LongitudeDegrees>-4.38589914701879024505615234375</LongitudeDegrees>
            </Position>
            <AltitudeMeters>793.5999755859375</AltitudeMeters>
            <DistanceMeters>NAN</DistanceMeters>
          </Trackpoint>
          <Trackpoint>
            <Time>2020-12-05T09:58:08.000Z</Time>
            <Position>
              <LatitudeDegrees>36.82088850997388362884521484375</LatitudeDegrees>
              <LongitudeDegrees>-4.38588841818273067474365234375</LongitudeDegrees>
            </Position>
            <AltitudeMeters>793.4000244140625</AltitudeMeters>
            <DistanceMeters>NAN</DistanceMeters>
          </Trackpoint>
          <Trackpoint>
            <Time>2020-12-05T09:58:09.000Z</Time>
            <Position>
              <LatitudeDegrees>36.820894293487071990966796875</LatitudeDegrees>
              <LongitudeDegrees>-4.38587802462279796600341796875</LongitudeDegrees>
            </Position>
            <AltitudeMeters>793</AltitudeMeters>
            <DistanceMeters>NAN</DistanceMeters>
          </Trackpoint>
          <Trackpoint>
            <Time>2020-12-05T09:58:10.000Z</Time>
            <Position>
              <LatitudeDegrees>36.82090074755251407623291015625</LatitudeDegrees>
              <LongitudeDegrees>-4.38586813397705554962158203125</LongitudeDegrees>
            </Position>
            <AltitudeMeters>792.79998779296875</AltitudeMeters>
            <DistanceMeters>NAN</DistanceMeters>
          </Trackpoint>
          <Trackpoint>
            <Time>2020-12-05T09:58:11.000Z</Time>
            <Position>
              <LatitudeDegrees>36.8209078721702098846435546875</LatitudeDegrees>
              <LongitudeDegrees>-4.38585706986486911773681640625</LongitudeDegrees>
            </Position>
            <AltitudeMeters>792.79998779296875</AltitudeMeters>
            <DistanceMeters>NAN</DistanceMeters>
          </Trackpoint>
          <Trackpoint>
            <Time>2020-12-05T09:58:12.000Z</Time>
            <Position>
              <LatitudeDegrees>36.8209152482450008392333984375</LatitudeDegrees>
              <LongitudeDegrees>-4.38584516756236553192138671875</LongitudeDegrees>
            </Position>
            <AltitudeMeters>792.5999755859375</AltitudeMeters>
            <DistanceMeters>NAN</DistanceMeters>
          </Trackpoint>
          <Trackpoint>
            <Time>2020-12-05T09:58:13.000Z</Time>
            <Position>
              <LatitudeDegrees>36.820921786129474639892578125</LatitudeDegrees>
              <LongitudeDegrees>-4.38583351671695709228515625</LongitudeDegrees>
            </Position>
            <AltitudeMeters>792.5999755859375</AltitudeMeters>
            <DistanceMeters>NAN</DistanceMeters>
          </Trackpoint>
          <Trackpoint>
            <Time>2020-12-05T09:58:14.000Z</Time>
            <Position>
              <LatitudeDegrees>36.82092606090009212493896484375</LatitudeDegrees>
              <LongitudeDegrees>-4.38581717200577259063720703125</LongitudeDegrees>
            </Position>
            <AltitudeMeters>792.5999755859375</AltitudeMeters>
            <DistanceMeters>NAN</DistanceMeters>
          </Trackpoint>
          <Trackpoint>
            <Time>2020-12-05T09:58:15.000Z</Time>
            <Position>
              <LatitudeDegrees>36.8209293298423290252685546875</LatitudeDegrees>
              <LongitudeDegrees>-4.3858025036752223968505859375</LongitudeDegrees>
            </Position>
            <AltitudeMeters>792.5999755859375</AltitudeMeters>
            <DistanceMeters>NAN</DistanceMeters>
          </Trackpoint>
          <Trackpoint>
            <Time>2020-12-05T09:58:16.000Z</Time>
            <Position>
              <LatitudeDegrees>36.82093360461294651031494140625</LatitudeDegrees>
              <LongitudeDegrees>-4.38578649424016475677490234375</LongitudeDegrees>
            </Position>
            <AltitudeMeters>792.5999755859375</AltitudeMeters>
            <DistanceMeters>NAN</DistanceMeters>
          </Trackpoint>
          <Trackpoint>
            <Time>2020-12-05T09:58:17.000Z</Time>
            <Position>
              <LatitudeDegrees>36.820938549935817718505859375</LatitudeDegrees>
              <LongitudeDegrees>-4.3857693113386631011962890625</LongitudeDegrees>
            </Position>
            <AltitudeMeters>792.5999755859375</AltitudeMeters>
            <DistanceMeters>NAN</DistanceMeters>
          </Trackpoint>
          <Trackpoint>
            <Time>2020-12-05T09:58:18.000Z</Time>
            <Position>
              <LatitudeDegrees>36.8209455907344818115234375</LatitudeDegrees>
              <LongitudeDegrees>-4.38575464300811290740966796875</LongitudeDegrees>
            </Position>
            <AltitudeMeters>792.5999755859375</AltitudeMeters>
            <DistanceMeters>NAN</DistanceMeters>
          </Trackpoint>
          <Trackpoint>
            <Time>2020-12-05T09:58:19.000Z</Time>
            <Position>
              <LatitudeDegrees>36.8209534697234630584716796875</LatitudeDegrees>
              <LongitudeDegrees>-4.38573687337338924407958984375</LongitudeDegrees>
            </Position>
            <AltitudeMeters>792.5999755859375</AltitudeMeters>
            <DistanceMeters>NAN</DistanceMeters>
          </Trackpoint>
          <Trackpoint>
            <Time>2020-12-05T09:58:20.000Z</Time>
            <Position>
              <LatitudeDegrees>36.82095807977020740509033203125</LatitudeDegrees>
              <LongitudeDegrees>-4.3857196904718875885009765625</LongitudeDegrees>
            </Position>
            <AltitudeMeters>792.4000244140625</AltitudeMeters>
            <DistanceMeters>NAN</DistanceMeters>
          </Trackpoint>
          <Trackpoint>
            <Time>2020-12-05T09:58:21.000Z</Time>
            <Position>
              <LatitudeDegrees>36.8209631927311420440673828125</LatitudeDegrees>
              <LongitudeDegrees>-4.3856992386281490325927734375</LongitudeDegrees>
            </Position>
            <AltitudeMeters>792.4000244140625</AltitudeMeters>
            <DistanceMeters>NAN</DistanceMeters>
          </Trackpoint>
          <Trackpoint>
            <Time>2020-12-05T09:58:22.000Z</Time>
            <Position>
              <LatitudeDegrees>36.82096478529274463653564453125</LatitudeDegrees>
              <LongitudeDegrees>-4.3856750987470149993896484375</LongitudeDegrees>
            </Position>
            <AltitudeMeters>792.4000244140625</AltitudeMeters>
            <DistanceMeters>NAN</DistanceMeters>
          </Trackpoint>
          <Trackpoint>
            <Time>2020-12-05T09:58:23.000Z</Time>
            <Position>
              <LatitudeDegrees>36.8209662102162837982177734375</LatitudeDegrees>
              <LongitudeDegrees>-4.3856556527316570281982421875</LongitudeDegrees>
            </Position>
            <AltitudeMeters>792.4000244140625</AltitudeMeters>
            <DistanceMeters>NAN</DistanceMeters>
          </Trackpoint>
          <Trackpoint>
            <Time>2020-12-05T09:58:24.000Z</Time>
            <Position>
              <LatitudeDegrees>36.8209658749401569366455078125</LatitudeDegrees>
              <LongitudeDegrees>-4.38563712872564792633056640625</LongitudeDegrees>
            </Position>
            <AltitudeMeters>792.4000244140625</AltitudeMeters>
            <DistanceMeters>NAN</DistanceMeters>
          </Trackpoint>
          <Trackpoint>
            <Time>2020-12-05T09:58:25.000Z</Time>
            <Position>
              <LatitudeDegrees>36.82096662931144237518310546875</LatitudeDegrees>
              <LongitudeDegrees>-4.38562153838574886322021484375</LongitudeDegrees>
            </Position>
            <AltitudeMeters>792.4000244140625</AltitudeMeters>
            <DistanceMeters>NAN</DistanceMeters>
          </Trackpoint>
          <Trackpoint>
            <Time>2020-12-05T09:58:26.000Z</Time>
            <Position>
              <LatitudeDegrees>36.8209678865969181060791015625</LatitudeDegrees>
              <LongitudeDegrees>-4.3856090493500232696533203125</LongitudeDegrees>
            </Position>
            <AltitudeMeters>792.4000244140625</AltitudeMeters>
            <DistanceMeters>NAN</DistanceMeters>
          </Trackpoint>
          <Trackpoint>
            <Time>2020-12-05T09:58:27.000Z</Time>
            <Position>
              <LatitudeDegrees>36.8209678865969181060791015625</LatitudeDegrees>
              <LongitudeDegrees>-4.3855986557900905609130859375</LongitudeDegrees>
            </Position>
            <AltitudeMeters>792.4000244140625</AltitudeMeters>
            <DistanceMeters>NAN</DistanceMeters>
          </Trackpoint>
          <Trackpoint>
            <Time>2020-12-05T09:58:28.000Z</Time>
            <Position>
              <LatitudeDegrees>36.82096864096820354461669921875</LatitudeDegrees>
              <LongitudeDegrees>-4.3855874240398406982421875</LongitudeDegrees>
            </Position>
            <AltitudeMeters>792.20001220703125</AltitudeMeters>
            <DistanceMeters>NAN</DistanceMeters>
          </Trackpoint>
          <Trackpoint>
            <Time>2020-12-05T09:58:29.000Z</Time>
            <Position>
              <LatitudeDegrees>36.82097082026302814483642578125</LatitudeDegrees>
              <LongitudeDegrees>-4.38557895831763744354248046875</LongitudeDegrees>
            </Position>
            <AltitudeMeters>791.5999755859375</AltitudeMeters>
            <DistanceMeters>NAN</DistanceMeters>
          </Trackpoint>
          <Trackpoint>
            <Time>2020-12-05T09:58:30.000Z</Time>
            <Position>
              <LatitudeDegrees>36.82097417302429676055908203125</LatitudeDegrees>
              <LongitudeDegrees>-4.38556923530995845794677734375</LongitudeDegrees>
            </Position>
            <AltitudeMeters>791.4000244140625</AltitudeMeters>
            <DistanceMeters>NAN</DistanceMeters>
          </Trackpoint>
          <Trackpoint>
            <Time>2020-12-05T09:58:31.000Z</Time>
            <Position>
              <LatitudeDegrees>36.82097752578556537628173828125</LatitudeDegrees>
              <LongitudeDegrees>-4.385558255016803741455078125</LongitudeDegrees>
            </Position>
            <AltitudeMeters>791</AltitudeMeters>
            <DistanceMeters>NAN</DistanceMeters>
          </Trackpoint>
          <Trackpoint>
            <Time>2020-12-05T09:58:32.000Z</Time>
            <Position>
              <LatitudeDegrees>36.82098054327070713043212890625</LatitudeDegrees>
              <LongitudeDegrees>-4.38554517924785614013671875</LongitudeDegrees>
            </Position>
            <AltitudeMeters>790.79998779296875</AltitudeMeters>
            <DistanceMeters>NAN</DistanceMeters>
          </Trackpoint>
          <Trackpoint>
            <Time>2020-12-05T09:58:33.000Z</Time>
            <Position>
              <LatitudeDegrees>36.820982806384563446044921875</LatitudeDegrees>
              <LongitudeDegrees>-4.38552699051797389984130859375</LongitudeDegrees>
            </Position>
            <AltitudeMeters>790.20001220703125</AltitudeMeters>
            <DistanceMeters>NAN</DistanceMeters>
          </Trackpoint>
          <Trackpoint>
            <Time>2020-12-05T09:58:34.000Z</Time>
            <Position>
              <LatitudeDegrees>36.82098389603197574615478515625</LatitudeDegrees>
              <LongitudeDegrees>-4.38550628721714019775390625</LongitudeDegrees>
            </Position>
            <AltitudeMeters>790.20001220703125</AltitudeMeters>
            <DistanceMeters>NAN</DistanceMeters>
          </Trackpoint>
          <Trackpoint>
            <Time>2020-12-05T09:58:35.000Z</Time>
            <Position>
              <LatitudeDegrees>36.82098523713648319244384765625</LatitudeDegrees>
              <LongitudeDegrees>-4.38548726029694080352783203125</LongitudeDegrees>
            </Position>
            <AltitudeMeters>790.20001220703125</AltitudeMeters>
            <DistanceMeters>NAN</DistanceMeters>
          </Trackpoint>
          <Trackpoint>
            <Time>2020-12-05T09:58:36.000Z</Time>
            <Position>
              <LatitudeDegrees>36.8209831416606903076171875</LatitudeDegrees>
              <LongitudeDegrees>-4.3854682333767414093017578125</LongitudeDegrees>
            </Position>
            <AltitudeMeters>790.20001220703125</AltitudeMeters>
            <DistanceMeters>NAN</DistanceMeters>
          </Trackpoint>
          <Trackpoint>
            <Time>2020-12-05T09:58:37.000Z</Time>
            <Position>
              <LatitudeDegrees>36.82097936980426311492919921875</LatitudeDegrees>
              <LongitudeDegrees>-4.38545054756104946136474609375</LongitudeDegrees>
            </Position>
            <AltitudeMeters>790.20001220703125</AltitudeMeters>
            <DistanceMeters>NAN</DistanceMeters>
          </Trackpoint>
          <Trackpoint>
            <Time>2020-12-05T09:58:38.000Z</Time>
            <Position>
              <LatitudeDegrees>36.82097668759524822235107421875</LatitudeDegrees>
              <LongitudeDegrees>-4.3854345381259918212890625</LongitudeDegrees>
            </Position>
            <AltitudeMeters>790.79998779296875</AltitudeMeters>
            <DistanceMeters>NAN</DistanceMeters>
          </Trackpoint>
          <Trackpoint>
            <Time>2020-12-05T09:58:39.000Z</Time>
            <Position>
              <LatitudeDegrees>36.82097618468105792999267578125</LatitudeDegrees>
              <LongitudeDegrees>-4.38542406074702739715576171875</LongitudeDegrees>
            </Position>
            <AltitudeMeters>791.20001220703125</AltitudeMeters>
            <DistanceMeters>NAN</DistanceMeters>
          </Trackpoint>
          <Trackpoint>
            <Time>2020-12-05T09:58:40.000Z</Time>
            <Position>
              <LatitudeDegrees>36.820978112518787384033203125</LatitudeDegrees>
              <LongitudeDegrees>-4.3854103982448577880859375</LongitudeDegrees>
            </Position>
            <AltitudeMeters>791.5999755859375</AltitudeMeters>
            <DistanceMeters>NAN</DistanceMeters>
          </Trackpoint>
          <Trackpoint>
            <Time>2020-12-05T09:58:41.000Z</Time>
            <Position>
              <LatitudeDegrees>36.82097978889942169189453125</LatitudeDegrees>
              <LongitudeDegrees>-4.38539707101881504058837890625</LongitudeDegrees>
            </Position>
            <AltitudeMeters>792</AltitudeMeters>
            <DistanceMeters>NAN</DistanceMeters>
          </Trackpoint>
          <Trackpoint>
            <Time>2020-12-05T09:58:42.000Z</Time>
            <Position>
              <LatitudeDegrees>36.82098087854683399200439453125</LatitudeDegrees>
              <LongitudeDegrees>-4.38538382761180400848388671875</LongitudeDegrees>
            </Position>
            <AltitudeMeters>792.20001220703125</AltitudeMeters>
            <DistanceMeters>NAN</DistanceMeters>
          </Trackpoint>
          <Trackpoint>
            <Time>2020-12-05T09:58:43.000Z</Time>
            <Position>
              <LatitudeDegrees>36.82098121382296085357666015625</LatitudeDegrees>
              <LongitudeDegrees>-4.385369829833507537841796875</LongitudeDegrees>
            </Position>
            <AltitudeMeters>792.20001220703125</AltitudeMeters>
            <DistanceMeters>NAN</DistanceMeters>
          </Trackpoint>
          <Trackpoint>
            <Time>2020-12-05T09:58:44.000Z</Time>
            <Position>
              <LatitudeDegrees>36.82098071090877056121826171875</LatitudeDegrees>
              <LongitudeDegrees>-4.38535884954035282135009765625</LongitudeDegrees>
            </Position>
            <AltitudeMeters>792.4000244140625</AltitudeMeters>
            <DistanceMeters>NAN</DistanceMeters>
          </Trackpoint>
          <Trackpoint>
            <Time>2020-12-05T09:58:45.000Z</Time>
            <Position>
              <LatitudeDegrees>36.820980794727802276611328125</LatitudeDegrees>
              <LongitudeDegrees>-4.3853478692471981048583984375</LongitudeDegrees>
            </Position>
            <AltitudeMeters>792.4000244140625</AltitudeMeters>
            <DistanceMeters>NAN</DistanceMeters>
          </Trackpoint>
          <Trackpoint>
            <Time>2020-12-05T09:58:46.000Z</Time>
            <Position>
              <LatitudeDegrees>36.82098188437521457672119140625</LatitudeDegrees>
              <LongitudeDegrees>-4.38533672131597995758056640625</LongitudeDegrees>
            </Position>
            <AltitudeMeters>792.4000244140625</AltitudeMeters>
            <DistanceMeters>NAN</DistanceMeters>
          </Trackpoint>
          <Trackpoint>
            <Time>2020-12-05T09:58:47.000Z</Time>
            <Position>
              <LatitudeDegrees>36.820984147489070892333984375</LatitudeDegrees>
              <LongitudeDegrees>-4.3853245675563812255859375</LongitudeDegrees>
            </Position>
            <AltitudeMeters>792.79998779296875</AltitudeMeters>
            <DistanceMeters>NAN</DistanceMeters>
          </Trackpoint>
          <Trackpoint>
            <Time>2020-12-05T09:58:48.000Z</Time>
            <Position>
              <LatitudeDegrees>36.82098607532680034637451171875</LatitudeDegrees>
              <LongitudeDegrees>-4.385312162339687347412109375</LongitudeDegrees>
            </Position>
            <AltitudeMeters>793</AltitudeMeters>
            <DistanceMeters>NAN</DistanceMeters>
          </Trackpoint>
          <Trackpoint>
            <Time>2020-12-05T09:58:49.000Z</Time>
            <Position>
              <LatitudeDegrees>36.82098808698356151580810546875</LatitudeDegrees>
              <LongitudeDegrees>-4.38529766164720058441162109375</LongitudeDegrees>
            </Position>
            <AltitudeMeters>793.20001220703125</AltitudeMeters>
            <DistanceMeters>NAN</DistanceMeters>
          </Trackpoint>
          <Trackpoint>
            <Time>2020-12-05T09:58:50.000Z</Time>
            <Position>
              <LatitudeDegrees>36.8209885060787200927734375</LatitudeDegrees>
              <LongitudeDegrees>-4.3852798081934452056884765625</LongitudeDegrees>
            </Position>
            <AltitudeMeters>793.20001220703125</AltitudeMeters>
            <DistanceMeters>NAN</DistanceMeters>
          </Trackpoint>
          <Trackpoint>
            <Time>2020-12-05T09:58:51.000Z</Time>
            <Position>
              <LatitudeDegrees>36.82098607532680034637451171875</LatitudeDegrees>
              <LongitudeDegrees>-4.3852647207677364349365234375</LongitudeDegrees>
            </Position>
            <AltitudeMeters>793.20001220703125</AltitudeMeters>
            <DistanceMeters>NAN</DistanceMeters>
          </Trackpoint>
          <Trackpoint>
            <Time>2020-12-05T09:58:52.000Z</Time>
            <Position>
              <LatitudeDegrees>36.82098272256553173065185546875</LatitudeDegrees>
              <LongitudeDegrees>-4.385253824293613433837890625</LongitudeDegrees>
            </Position>
            <AltitudeMeters>793</AltitudeMeters>
            <DistanceMeters>NAN</DistanceMeters>
          </Trackpoint>
          <Trackpoint>
            <Time>2020-12-05T09:58:53.000Z</Time>
            <Position>
              <LatitudeDegrees>36.82097735814750194549560546875</LatitudeDegrees>
              <LongitudeDegrees>-4.38523848541080951690673828125</LongitudeDegrees>
            </Position>
            <AltitudeMeters>792.79998779296875</AltitudeMeters>
            <DistanceMeters>NAN</DistanceMeters>
          </Trackpoint>
          <Trackpoint>
            <Time>2020-12-05T09:58:54.000Z</Time>
            <Position>
              <LatitudeDegrees>36.82097333483397960662841796875</LatitudeDegrees>
              <LongitudeDegrees>-4.38522021286189556121826171875</LongitudeDegrees>
            </Position>
            <AltitudeMeters>792.5999755859375</AltitudeMeters>
            <DistanceMeters>NAN</DistanceMeters>
          </Trackpoint>
          <Trackpoint>
            <Time>2020-12-05T09:58:55.000Z</Time>
            <Position>
              <LatitudeDegrees>36.820970065891742706298828125</LatitudeDegrees>
              <LongitudeDegrees>-4.385202191770076751708984375</LongitudeDegrees>
            </Position>
            <AltitudeMeters>792.4000244140625</AltitudeMeters>
            <DistanceMeters>NAN</DistanceMeters>
          </Trackpoint>
          <Trackpoint>
            <Time>2020-12-05T09:58:56.000Z</Time>
            <Position>
              <LatitudeDegrees>36.82096763513982295989990234375</LatitudeDegrees>
              <LongitudeDegrees>-4.3851852603256702423095703125</LongitudeDegrees>
            </Position>
            <AltitudeMeters>792.4000244140625</AltitudeMeters>
            <DistanceMeters>NAN</DistanceMeters>
          </Trackpoint>
          <Trackpoint>
            <Time>2020-12-05T09:58:57.000Z</Time>
            <Position>
              <LatitudeDegrees>36.82096495293080806732177734375</LatitudeDegrees>
              <LongitudeDegrees>-4.38516539521515369415283203125</LongitudeDegrees>
            </Position>
            <AltitudeMeters>792.4000244140625</AltitudeMeters>
            <DistanceMeters>NAN</DistanceMeters>
          </Trackpoint>
          <Trackpoint>
            <Time>2020-12-05T09:58:58.000Z</Time>
            <Position>
              <LatitudeDegrees>36.82096302509307861328125</LatitudeDegrees>
              <LongitudeDegrees>-4.38514678739011287689208984375</LongitudeDegrees>
            </Position>
            <AltitudeMeters>792.4000244140625</AltitudeMeters>
            <DistanceMeters>NAN</DistanceMeters>
          </Trackpoint>
          <Trackpoint>
            <Time>2020-12-05T09:58:59.000Z</Time>
            <Position>
              <LatitudeDegrees>36.82096428237855434417724609375</LatitudeDegrees>
              <LongitudeDegrees>-4.385129772126674652099609375</LongitudeDegrees>
            </Position>
            <AltitudeMeters>792.5999755859375</AltitudeMeters>
            <DistanceMeters>NAN</DistanceMeters>
          </Trackpoint>
          <Trackpoint>
            <Time>2020-12-05T09:59:00.000Z</Time>
            <Position>
              <LatitudeDegrees>36.82096579112112522125244140625</LatitudeDegrees>
              <LongitudeDegrees>-4.3851131759583950042724609375</LongitudeDegrees>
            </Position>
            <AltitudeMeters>792.79998779296875</AltitudeMeters>
            <DistanceMeters>NAN</DistanceMeters>
          </Trackpoint>
          <Trackpoint>
            <Time>2020-12-05T09:59:01.000Z</Time>
            <Position>
              <LatitudeDegrees>36.82096595875918865203857421875</LatitudeDegrees>
              <LongitudeDegrees>-4.385097585618495941162109375</LongitudeDegrees>
            </Position>
            <AltitudeMeters>793</AltitudeMeters>
            <DistanceMeters>NAN</DistanceMeters>
          </Trackpoint>
          <Trackpoint>
            <Time>2020-12-05T09:59:02.000Z</Time>
            <Position>
              <LatitudeDegrees>36.820965372025966644287109375</LatitudeDegrees>
              <LongitudeDegrees>-4.38508274964988231658935546875</LongitudeDegrees>
            </Position>
            <AltitudeMeters>793.20001220703125</AltitudeMeters>
            <DistanceMeters>NAN</DistanceMeters>
          </Trackpoint>
          <Trackpoint>
            <Time>2020-12-05T09:59:03.000Z</Time>
            <Position>
              <LatitudeDegrees>36.82096294127404689788818359375</LatitudeDegrees>
              <LongitudeDegrees>-4.38506615348160266876220703125</LongitudeDegrees>
            </Position>
            <AltitudeMeters>793.20001220703125</AltitudeMeters>
            <DistanceMeters>NAN</DistanceMeters>
          </Trackpoint>
          <Trackpoint>
            <Time>2020-12-05T09:59:04.000Z</Time>
            <Position>
              <LatitudeDegrees>36.82095992378890514373779296875</LatitudeDegrees>
              <LongitudeDegrees>-4.38505475409328937530517578125</LongitudeDegrees>
            </Position>
            <AltitudeMeters>793</AltitudeMeters>
            <DistanceMeters>NAN</DistanceMeters>
          </Trackpoint>
          <Trackpoint>
            <Time>2020-12-05T09:59:05.000Z</Time>
            <Position>
              <LatitudeDegrees>36.8209574930369853973388671875</LatitudeDegrees>
              <LongitudeDegrees>-4.3850434385240077972412109375</LongitudeDegrees>
            </Position>
            <AltitudeMeters>792.79998779296875</AltitudeMeters>
            <DistanceMeters>NAN</DistanceMeters>
          </Trackpoint>
          <Trackpoint>
            <Time>2020-12-05T09:59:06.000Z</Time>
            <Position>
              <LatitudeDegrees>36.82095657102763652801513671875</LatitudeDegrees>
              <LongitudeDegrees>-4.38503279350697994232177734375</LongitudeDegrees>
            </Position>
            <AltitudeMeters>792.5999755859375</AltitudeMeters>
            <DistanceMeters>NAN</DistanceMeters>
          </Trackpoint>
          <Trackpoint>
            <Time>2020-12-05T09:59:07.000Z</Time>
            <Position>
              <LatitudeDegrees>36.82095506228506565093994140625</LatitudeDegrees>
              <LongitudeDegrees>-4.3850196339190006256103515625</LongitudeDegrees>
            </Position>
            <AltitudeMeters>792.4000244140625</AltitudeMeters>
            <DistanceMeters>NAN</DistanceMeters>
          </Trackpoint>
          <Trackpoint>
            <Time>2020-12-05T09:59:08.000Z</Time>
            <Position>
              <LatitudeDegrees>36.82095539756119251251220703125</LatitudeDegrees>
              <LongitudeDegrees>-4.385007061064243316650390625</LongitudeDegrees>
            </Position>
            <AltitudeMeters>792.20001220703125</AltitudeMeters>
            <DistanceMeters>NAN</DistanceMeters>
          </Trackpoint>
          <Trackpoint>
            <Time>2020-12-05T09:59:09.000Z</Time>
            <Position>
              <LatitudeDegrees>36.820955984294414520263671875</LatitudeDegrees>
              <LongitudeDegrees>-4.3849921412765979766845703125</LongitudeDegrees>
            </Position>
            <AltitudeMeters>792</AltitudeMeters>
            <DistanceMeters>NAN</DistanceMeters>
          </Trackpoint>
          <Trackpoint>
            <Time>2020-12-05T09:59:10.000Z</Time>
            <Position>
              <LatitudeDegrees>36.82095858268439769744873046875</LatitudeDegrees>
              <LongitudeDegrees>-4.38497261144220829010009765625</LongitudeDegrees>
            </Position>
            <AltitudeMeters>792</AltitudeMeters>
            <DistanceMeters>NAN</DistanceMeters>
          </Trackpoint>
          <Trackpoint>
            <Time>2020-12-05T09:59:11.000Z</Time>
            <Position>
              <LatitudeDegrees>36.8209590017795562744140625</LatitudeDegrees>
              <LongitudeDegrees>-4.384952746331691741943359375</LongitudeDegrees>
            </Position>
            <AltitudeMeters>792</AltitudeMeters>
            <DistanceMeters>NAN</DistanceMeters>
          </Trackpoint>
          <Trackpoint>
            <Time>2020-12-05T09:59:12.000Z</Time>
            <Position>
              <LatitudeDegrees>36.82096101343631744384765625</LatitudeDegrees>
              <LongitudeDegrees>-4.384935982525348663330078125</LongitudeDegrees>
            </Position>
            <AltitudeMeters>791.79998779296875</AltitudeMeters>
            <DistanceMeters>NAN</DistanceMeters>
          </Trackpoint>
          <Trackpoint>
            <Time>2020-12-05T09:59:13.000Z</Time>
            <Position>
              <LatitudeDegrees>36.82096310891211032867431640625</LatitudeDegrees>
              <LongitudeDegrees>-4.38492215238511562347412109375</LongitudeDegrees>
            </Position>
            <AltitudeMeters>791.79998779296875</AltitudeMeters>
            <DistanceMeters>NAN</DistanceMeters>
          </Trackpoint>
          <Trackpoint>
            <Time>2020-12-05T09:59:14.000Z</Time>
            <Position>
              <LatitudeDegrees>36.82096445001661777496337890625</LatitudeDegrees>
              <LongitudeDegrees>-4.3849061429500579833984375</LongitudeDegrees>
            </Position>
            <AltitudeMeters>791.5999755859375</AltitudeMeters>
            <DistanceMeters>NAN</DistanceMeters>
          </Trackpoint>
          <Trackpoint>
            <Time>2020-12-05T09:59:15.000Z</Time>
            <Position>
              <LatitudeDegrees>36.820967383682727813720703125</LatitudeDegrees>
              <LongitudeDegrees>-4.38488912768661975860595703125</LongitudeDegrees>
            </Position>
            <AltitudeMeters>791.4000244140625</AltitudeMeters>
            <DistanceMeters>NAN</DistanceMeters>
          </Trackpoint>
          <Trackpoint>
            <Time>2020-12-05T09:59:16.000Z</Time>
            <Position>
              <LatitudeDegrees>36.82096931152045726776123046875</LatitudeDegrees>
              <LongitudeDegrees>-4.384874291718006134033203125</LongitudeDegrees>
            </Position>
            <AltitudeMeters>791.20001220703125</AltitudeMeters>
            <DistanceMeters>NAN</DistanceMeters>
          </Trackpoint>
          <Trackpoint>
            <Time>2020-12-05T09:59:17.000Z</Time>
            <Position>
              <LatitudeDegrees>36.82097350247204303741455078125</LatitudeDegrees>
              <LongitudeDegrees>-4.3848583661019802093505859375</LongitudeDegrees>
            </Position>
            <AltitudeMeters>791.20001220703125</AltitudeMeters>
            <DistanceMeters>NAN</DistanceMeters>
          </Trackpoint>
          <Trackpoint>
            <Time>2020-12-05T09:59:18.000Z</Time>
            <Position>
              <LatitudeDegrees>36.8209792859852313995361328125</LatitudeDegrees>
              <LongitudeDegrees>-4.38484202139079570770263671875</LongitudeDegrees>
            </Position>
            <AltitudeMeters>791.20001220703125</AltitudeMeters>
            <DistanceMeters>NAN</DistanceMeters>
          </Trackpoint>
          <Trackpoint>
            <Time>2020-12-05T09:59:19.000Z</Time>
            <Position>
              <LatitudeDegrees>36.82098339311778545379638671875</LatitudeDegrees>
              <LongitudeDegrees>-4.38482793979346752166748046875</LongitudeDegrees>
            </Position>
            <AltitudeMeters>791.20001220703125</AltitudeMeters>
            <DistanceMeters>NAN</DistanceMeters>
          </Trackpoint>
          <Trackpoint>
            <Time>2020-12-05T09:59:20.000Z</Time>
            <Position>
              <LatitudeDegrees>36.82098473422229290008544921875</LatitudeDegrees>
              <LongitudeDegrees>-4.3848147802054882049560546875</LongitudeDegrees>
            </Position>
            <AltitudeMeters>791</AltitudeMeters>
            <DistanceMeters>NAN</DistanceMeters>
          </Trackpoint>
          <Trackpoint>
            <Time>2020-12-05T09:59:21.000Z</Time>
            <Position>
              <LatitudeDegrees>36.82098515331745147705078125</LatitudeDegrees>
              <LongitudeDegrees>-4.38480178825557231903076171875</LongitudeDegrees>
            </Position>
            <AltitudeMeters>791</AltitudeMeters>
            <DistanceMeters>NAN</DistanceMeters>
          </Trackpoint>
          <Trackpoint>
            <Time>2020-12-05T09:59:22.000Z</Time>
            <Position>
              <LatitudeDegrees>36.820986159145832061767578125</LatitudeDegrees>
              <LongitudeDegrees>-4.38478955067694187164306640625</LongitudeDegrees>
            </Position>
            <AltitudeMeters>791</AltitudeMeters>
            <DistanceMeters>NAN</DistanceMeters>
          </Trackpoint>
          <Trackpoint>
            <Time>2020-12-05T09:59:23.000Z</Time>
            <Position>
              <LatitudeDegrees>36.8209863267838954925537109375</LatitudeDegrees>
              <LongitudeDegrees>-4.38477714546024799346923828125</LongitudeDegrees>
            </Position>
            <AltitudeMeters>790.79998779296875</AltitudeMeters>
            <DistanceMeters>NAN</DistanceMeters>
          </Trackpoint>
          <Trackpoint>
            <Time>2020-12-05T09:59:24.000Z</Time>
            <Position>
              <LatitudeDegrees>36.82098724879324436187744140625</LatitudeDegrees>
              <LongitudeDegrees>-4.38476474024355411529541015625</LongitudeDegrees>
            </Position>
            <AltitudeMeters>790.5999755859375</AltitudeMeters>
            <DistanceMeters>NAN</DistanceMeters>
          </Trackpoint>
          <Trackpoint>
            <Time>2020-12-05T09:59:25.000Z</Time>
            <Position>
              <LatitudeDegrees>36.82098741643130779266357421875</LatitudeDegrees>
              <LongitudeDegrees>-4.38475250266492366790771484375</LongitudeDegrees>
            </Position>
            <AltitudeMeters>790.4000244140625</AltitudeMeters>
            <DistanceMeters>NAN</DistanceMeters>
          </Trackpoint>
          <Trackpoint>
            <Time>2020-12-05T09:59:26.000Z</Time>
            <Position>
              <LatitudeDegrees>36.82098708115518093109130859375</LatitudeDegrees>
              <LongitudeDegrees>-4.38473724760115146636962890625</LongitudeDegrees>
            </Position>
            <AltitudeMeters>790.20001220703125</AltitudeMeters>
            <DistanceMeters>NAN</DistanceMeters>
          </Trackpoint>
          <Trackpoint>
            <Time>2020-12-05T09:59:27.000Z</Time>
            <Position>
              <LatitudeDegrees>36.82098607532680034637451171875</LatitudeDegrees>
              <LongitudeDegrees>-4.38471830449998378753662109375</LongitudeDegrees>
            </Position>
            <AltitudeMeters>789.79998779296875</AltitudeMeters>
            <DistanceMeters>NAN</DistanceMeters>
          </Trackpoint>
          <Trackpoint>
            <Time>2020-12-05T09:59:28.000Z</Time>
            <Position>
              <LatitudeDegrees>36.8209843151271343231201171875</LatitudeDegrees>
              <LongitudeDegrees>-4.38470237888395786285400390625</LongitudeDegrees>
            </Position>
            <AltitudeMeters>789.5999755859375</AltitudeMeters>
            <DistanceMeters>NAN</DistanceMeters>
          </Trackpoint>
          <Trackpoint>
            <Time>2020-12-05T09:59:29.000Z</Time>
            <Position>
              <LatitudeDegrees>36.820983476936817169189453125</LatitudeDegrees>
              <LongitudeDegrees>-4.3846913985908031463623046875</LongitudeDegrees>
            </Position>
            <AltitudeMeters>789.4000244140625</AltitudeMeters>
            <DistanceMeters>NAN</DistanceMeters>
          </Trackpoint>
          <Trackpoint>
            <Time>2020-12-05T09:59:30.000Z</Time>
            <Position>
              <LatitudeDegrees>36.82098406367003917694091796875</LatitudeDegrees>
              <LongitudeDegrees>-4.38467882573604583740234375</LongitudeDegrees>
            </Position>
            <AltitudeMeters>789.4000244140625</AltitudeMeters>
            <DistanceMeters>NAN</DistanceMeters>
          </Trackpoint>
          <Trackpoint>
            <Time>2020-12-05T09:59:31.000Z</Time>
            <Position>
              <LatitudeDegrees>36.820984818041324615478515625</LatitudeDegrees>
              <LongitudeDegrees>-4.38466809689998626708984375</LongitudeDegrees>
            </Position>
            <AltitudeMeters>789.20001220703125</AltitudeMeters>
            <DistanceMeters>NAN</DistanceMeters>
          </Trackpoint>
          <Trackpoint>
            <Time>2020-12-05T09:59:32.000Z</Time>
            <Position>
              <LatitudeDegrees>36.82098372839391231536865234375</LatitudeDegrees>
              <LongitudeDegrees>-4.3846572004258632659912109375</LongitudeDegrees>
            </Position>
            <AltitudeMeters>789.20001220703125</AltitudeMeters>
            <DistanceMeters>NAN</DistanceMeters>
          </Trackpoint>
          <Trackpoint>
            <Time>2020-12-05T09:59:33.000Z</Time>
            <Position>
              <LatitudeDegrees>36.820984147489070892333984375</LatitudeDegrees>
              <LongitudeDegrees>-4.3846458010375499725341796875</LongitudeDegrees>
            </Position>
            <AltitudeMeters>789.20001220703125</AltitudeMeters>
            <DistanceMeters>NAN</DistanceMeters>
          </Trackpoint>
          <Trackpoint>
            <Time>2020-12-05T09:59:34.000Z</Time>
            <Position>
              <LatitudeDegrees>36.82098540477454662322998046875</LatitudeDegrees>
              <LongitudeDegrees>-4.38462895341217517852783203125</LongitudeDegrees>
            </Position>
            <AltitudeMeters>789.20001220703125</AltitudeMeters>
            <DistanceMeters>NAN</DistanceMeters>
          </Trackpoint>
          <Trackpoint>
            <Time>2020-12-05T09:59:35.000Z</Time>
            <Position>
              <LatitudeDegrees>36.82098758406937122344970703125</LatitudeDegrees>
              <LongitudeDegrees>-4.38461218960583209991455078125</LongitudeDegrees>
            </Position>
            <AltitudeMeters>789.4000244140625</AltitudeMeters>
            <DistanceMeters>NAN</DistanceMeters>
          </Trackpoint>
          <Trackpoint>
            <Time>2020-12-05T09:59:36.000Z</Time>
            <Position>
              <LatitudeDegrees>36.82099143974483013153076171875</LatitudeDegrees>
              <LongitudeDegrees>-4.38459911383688449859619140625</LongitudeDegrees>
            </Position>
            <AltitudeMeters>789.4000244140625</AltitudeMeters>
            <DistanceMeters>NAN</DistanceMeters>
          </Trackpoint>
          <Trackpoint>
            <Time>2020-12-05T09:59:37.000Z</Time>
            <Position>
              <LatitudeDegrees>36.8209963850677013397216796875</LatitudeDegrees>
              <LongitudeDegrees>-4.38458821736276149749755859375</LongitudeDegrees>
            </Position>
            <AltitudeMeters>789.4000244140625</AltitudeMeters>
            <DistanceMeters>NAN</DistanceMeters>
          </Trackpoint>
          <Trackpoint>
            <Time>2020-12-05T09:59:38.000Z</Time>
            <Position>
              <LatitudeDegrees>36.82100418023765087127685546875</LatitudeDegrees>
              <LongitudeDegrees>-4.38457782380282878875732421875</LongitudeDegrees>
            </Position>
            <AltitudeMeters>789.5999755859375</AltitudeMeters>
            <DistanceMeters>NAN</DistanceMeters>
          </Trackpoint>
          <Trackpoint>
            <Time>2020-12-05T09:59:39.000Z</Time>
            <Position>
              <LatitudeDegrees>36.82101138867437839508056640625</LatitudeDegrees>
              <LongitudeDegrees>-4.38456743024289608001708984375</LongitudeDegrees>
            </Position>
            <AltitudeMeters>789.79998779296875</AltitudeMeters>
            <DistanceMeters>NAN</DistanceMeters>
          </Trackpoint>
          <Trackpoint>
            <Time>2020-12-05T09:59:40.000Z</Time>
            <Position>
              <LatitudeDegrees>36.8210180103778839111328125</LatitudeDegrees>
              <LongitudeDegrees>-4.3845566175878047943115234375</LongitudeDegrees>
            </Position>
            <AltitudeMeters>790.20001220703125</AltitudeMeters>
            <DistanceMeters>NAN</DistanceMeters>
          </Trackpoint>
          <Trackpoint>
            <Time>2020-12-05T09:59:41.000Z</Time>
            <Position>
              <LatitudeDegrees>36.8210242129862308502197265625</LatitudeDegrees>
              <LongitudeDegrees>-4.38454681076109409332275390625</LongitudeDegrees>
            </Position>
            <AltitudeMeters>790.4000244140625</AltitudeMeters>
            <DistanceMeters>NAN</DistanceMeters>
          </Trackpoint>
          <Trackpoint>
            <Time>2020-12-05T09:59:42.000Z</Time>
            <Position>
              <LatitudeDegrees>36.8210322596132755279541015625</LatitudeDegrees>
              <LongitudeDegrees>-4.38453926704823970794677734375</LongitudeDegrees>
            </Position>
            <AltitudeMeters>790.79998779296875</AltitudeMeters>
            <DistanceMeters>NAN</DistanceMeters>
          </Trackpoint>
          <Trackpoint>
            <Time>2020-12-05T09:59:43.000Z</Time>
            <Position>
              <LatitudeDegrees>36.82104089297354221343994140625</LatitudeDegrees>
              <LongitudeDegrees>-4.38453339971601963043212890625</LongitudeDegrees>
            </Position>
            <AltitudeMeters>790.79998779296875</AltitudeMeters>
            <DistanceMeters>NAN</DistanceMeters>
          </Trackpoint>
          <Trackpoint>
            <Time>2020-12-05T09:59:44.000Z</Time>
            <Position>
              <LatitudeDegrees>36.8210496939718723297119140625</LatitudeDegrees>
              <LongitudeDegrees>-4.3845297954976558685302734375</LongitudeDegrees>
            </Position>
            <AltitudeMeters>791</AltitudeMeters>
            <DistanceMeters>NAN</DistanceMeters>
          </Trackpoint>
          <Trackpoint>
            <Time>2020-12-05T09:59:45.000Z</Time>
            <Position>
              <LatitudeDegrees>36.8210584111511707305908203125</LatitudeDegrees>
              <LongitudeDegrees>-4.384528286755084991455078125</LongitudeDegrees>
            </Position>
            <AltitudeMeters>790.79998779296875</AltitudeMeters>
            <DistanceMeters>NAN</DistanceMeters>
          </Trackpoint>
          <Trackpoint>
            <Time>2020-12-05T09:59:46.000Z</Time>
            <Position>
              <LatitudeDegrees>36.8210657872259616851806640625</LatitudeDegrees>
              <LongitudeDegrees>-4.38452619127929210662841796875</LongitudeDegrees>
            </Position>
            <AltitudeMeters>790.5999755859375</AltitudeMeters>
            <DistanceMeters>NAN</DistanceMeters>
          </Trackpoint>
          <Trackpoint>
            <Time>2020-12-05T09:59:47.000Z</Time>
            <Position>
              <LatitudeDegrees>36.8210751749575138092041015625</LatitudeDegrees>
              <LongitudeDegrees>-4.3845220841467380523681640625</LongitudeDegrees>
            </Position>
            <AltitudeMeters>790.20001220703125</AltitudeMeters>
            <DistanceMeters>NAN</DistanceMeters>
          </Trackpoint>
          <Trackpoint>
            <Time>2020-12-05T09:59:48.000Z</Time>
            <Position>
              <LatitudeDegrees>36.82108447887003421783447265625</LatitudeDegrees>
              <LongitudeDegrees>-4.3845177255570888519287109375</LongitudeDegrees>
            </Position>
            <AltitudeMeters>790</AltitudeMeters>
            <DistanceMeters>NAN</DistanceMeters>
          </Trackpoint>
          <Trackpoint>
            <Time>2020-12-05T09:59:49.000Z</Time>
            <Position>
              <LatitudeDegrees>36.82109378278255462646484375</LatitudeDegrees>
              <LongitudeDegrees>-4.3845143727958202362060546875</LongitudeDegrees>
            </Position>
            <AltitudeMeters>789.79998779296875</AltitudeMeters>
            <DistanceMeters>NAN</DistanceMeters>
          </Trackpoint>
          <Trackpoint>
            <Time>2020-12-05T09:59:50.000Z</Time>
            <Position>
              <LatitudeDegrees>36.8210979737341403961181640625</LatitudeDegrees>
              <LongitudeDegrees>-4.38451361842453479766845703125</LongitudeDegrees>
            </Position>
            <AltitudeMeters>789.5999755859375</AltitudeMeters>
            <DistanceMeters>NAN</DistanceMeters>
          </Trackpoint>
          <Trackpoint>
            <Time>2020-12-05T09:59:51.000Z</Time>
            <Position>
              <LatitudeDegrees>36.82110358960926532745361328125</LatitudeDegrees>
              <LongitudeDegrees>-4.38451076857745647430419921875</LongitudeDegrees>
            </Position>
            <AltitudeMeters>789.4000244140625</AltitudeMeters>
            <DistanceMeters>NAN</DistanceMeters>
          </Trackpoint>
          <Trackpoint>
            <Time>2020-12-05T09:59:52.000Z</Time>
            <Position>
              <LatitudeDegrees>36.821108199656009674072265625</LatitudeDegrees>
              <LongitudeDegrees>-4.38450984656810760498046875</LongitudeDegrees>
            </Position>
            <AltitudeMeters>789</AltitudeMeters>
            <DistanceMeters>NAN</DistanceMeters>
          </Trackpoint>
          <Trackpoint>
            <Time>2020-12-05T09:59:53.000Z</Time>
            <Position>
              <LatitudeDegrees>36.82111163623631000518798828125</LatitudeDegrees>
              <LongitudeDegrees>-4.38450573943555355072021484375</LongitudeDegrees>
            </Position>
            <AltitudeMeters>788.79998779296875</AltitudeMeters>
            <DistanceMeters>NAN</DistanceMeters>
          </Trackpoint>
          <Trackpoint>
            <Time>2020-12-05T09:59:54.000Z</Time>
            <Position>
              <LatitudeDegrees>36.821116246283054351806640625</LatitudeDegrees>
              <LongitudeDegrees>-4.38449970446527004241943359375</LongitudeDegrees>
            </Position>
            <AltitudeMeters>789</AltitudeMeters>
            <DistanceMeters>NAN</DistanceMeters>
          </Trackpoint>
          <Trackpoint>
            <Time>2020-12-05T09:59:55.000Z</Time>
            <Position>
              <LatitudeDegrees>36.8211271427571773529052734375</LatitudeDegrees>
              <LongitudeDegrees>-4.38448864035308361053466796875</LongitudeDegrees>
            </Position>
            <AltitudeMeters>788.79998779296875</AltitudeMeters>
            <DistanceMeters>NAN</DistanceMeters>
          </Trackpoint>
          <Trackpoint>
            <Time>2020-12-05T09:59:56.000Z</Time>
            <Position>
              <LatitudeDegrees>36.8211385421454906463623046875</LatitudeDegrees>
              <LongitudeDegrees>-4.38447740860283374786376953125</LongitudeDegrees>
            </Position>
            <AltitudeMeters>788.79998779296875</AltitudeMeters>
            <DistanceMeters>NAN</DistanceMeters>
          </Trackpoint>
          <Trackpoint>
            <Time>2020-12-05T09:59:58.000Z</Time>
            <Position>
              <LatitudeDegrees>36.82115119881927967071533203125</LatitudeDegrees>
              <LongitudeDegrees>-4.384461231529712677001953125</LongitudeDegrees>
            </Position>
            <AltitudeMeters>788.79998779296875</AltitudeMeters>
            <DistanceMeters>NAN</DistanceMeters>
          </Trackpoint>
          <Trackpoint>
            <Time>2020-12-05T09:59:59.000Z</Time>
            <Position>
              <LatitudeDegrees>36.82116092182695865631103515625</LatitudeDegrees>
              <LongitudeDegrees>-4.38444321043789386749267578125</LongitudeDegrees>
            </Position>
            <AltitudeMeters>788.79998779296875</AltitudeMeters>
            <DistanceMeters>NAN</DistanceMeters>
          </Trackpoint>
          <Trackpoint>
            <Time>2020-12-05T10:00:00.000Z</Time>
            <Position>
              <LatitudeDegrees>36.82116997428238391876220703125</LatitudeDegrees>
              <LongitudeDegrees>-4.38442896120250225067138671875</LongitudeDegrees>
            </Position>
            <AltitudeMeters>788.79998779296875</AltitudeMeters>
            <DistanceMeters>NAN</DistanceMeters>
          </Trackpoint>
          <Trackpoint>
            <Time>2020-12-05T10:00:01.000Z</Time>
            <Position>
              <LatitudeDegrees>36.8211762607097625732421875</LatitudeDegrees>
              <LongitudeDegrees>-4.38442108221352100372314453125</LongitudeDegrees>
            </Position>
            <AltitudeMeters>788.79998779296875</AltitudeMeters>
            <DistanceMeters>NAN</DistanceMeters>
          </Trackpoint>
          <Trackpoint>
            <Time>2020-12-05T10:00:02.000Z</Time>
            <Position>
              <LatitudeDegrees>36.82118439115583896636962890625</LatitudeDegrees>
              <LongitudeDegrees>-4.38441328704357147216796875</LongitudeDegrees>
            </Position>
            <AltitudeMeters>788.79998779296875</AltitudeMeters>
            <DistanceMeters>NAN</DistanceMeters>
          </Trackpoint>
          <Trackpoint>
            <Time>2020-12-05T10:00:03.000Z</Time>
            <Position>
              <LatitudeDegrees>36.82119428180158138275146484375</LatitudeDegrees>
              <LongitudeDegrees>-4.38440884463489055633544921875</LongitudeDegrees>
            </Position>
            <AltitudeMeters>788.79998779296875</AltitudeMeters>
            <DistanceMeters>NAN</DistanceMeters>
          </Trackpoint>
          <Trackpoint>
            <Time>2020-12-05T10:00:04.000Z</Time>
            <Position>
              <LatitudeDegrees>36.82120534591376781463623046875</LatitudeDegrees>
              <LongitudeDegrees>-4.38440582714974880218505859375</LongitudeDegrees>
            </Position>
            <AltitudeMeters>788.79998779296875</AltitudeMeters>
            <DistanceMeters>NAN</DistanceMeters>
          </Trackpoint>
          <Trackpoint>
            <Time>2020-12-05T10:00:05.000Z</Time>
            <Position>
              <LatitudeDegrees>36.8212159909307956695556640625</LatitudeDegrees>
              <LongitudeDegrees>-4.384403228759765625</LongitudeDegrees>
            </Position>
            <AltitudeMeters>788.79998779296875</AltitudeMeters>
            <DistanceMeters>NAN</DistanceMeters>
          </Trackpoint>
          <Trackpoint>
            <Time>2020-12-05T10:00:06.000Z</Time>
            <Position>
              <LatitudeDegrees>36.82122646830976009368896484375</LatitudeDegrees>
              <LongitudeDegrees>-4.38440079800784587860107421875</LongitudeDegrees>
            </Position>
            <AltitudeMeters>788.5999755859375</AltitudeMeters>
            <DistanceMeters>NAN</DistanceMeters>
          </Trackpoint>
          <Trackpoint>
            <Time>2020-12-05T10:00:07.000Z</Time>
            <Position>
              <LatitudeDegrees>36.8212374486029148101806640625</LatitudeDegrees>
              <LongitudeDegrees>-4.384394176304340362548828125</LongitudeDegrees>
            </Position>
            <AltitudeMeters>788.4000244140625</AltitudeMeters>
            <DistanceMeters>NAN</DistanceMeters>
          </Trackpoint>
          <Trackpoint>
            <Time>2020-12-05T10:00:08.000Z</Time>
            <Position>
              <LatitudeDegrees>36.8212491832673549652099609375</LatitudeDegrees>
              <LongitudeDegrees>-4.38438369892537593841552734375</LongitudeDegrees>
            </Position>
            <AltitudeMeters>788.20001220703125</AltitudeMeters>
            <DistanceMeters>NAN</DistanceMeters>
          </Trackpoint>
          <Trackpoint>
            <Time>2020-12-05T10:00:09.000Z</Time>
            <Position>
              <LatitudeDegrees>36.82126217521727085113525390625</LatitudeDegrees>
              <LongitudeDegrees>-4.384369365870952606201171875</LongitudeDegrees>
            </Position>
            <AltitudeMeters>787.79998779296875</AltitudeMeters>
            <DistanceMeters>NAN</DistanceMeters>
          </Trackpoint>
          <Trackpoint>
            <Time>2020-12-05T10:00:10.000Z</Time>
            <Position>
              <LatitudeDegrees>36.82127592153847217559814453125</LatitudeDegrees>
              <LongitudeDegrees>-4.3843567930161952972412109375</LongitudeDegrees>
            </Position>
            <AltitudeMeters>787.4000244140625</AltitudeMeters>
            <DistanceMeters>NAN</DistanceMeters>
          </Trackpoint>
          <Trackpoint>
            <Time>2020-12-05T10:00:11.000Z</Time>
            <Position>
              <LatitudeDegrees>36.82128765620291233062744140625</LatitudeDegrees>
              <LongitudeDegrees>-4.38434698618948459625244140625</LongitudeDegrees>
            </Position>
            <AltitudeMeters>786.5999755859375</AltitudeMeters>
            <DistanceMeters>NAN</DistanceMeters>
          </Trackpoint>
          <Trackpoint>
            <Time>2020-12-05T10:00:12.000Z</Time>
            <Position>
              <LatitudeDegrees>36.8212981335818767547607421875</LatitudeDegrees>
              <LongitudeDegrees>-4.384335838258266448974609375</LongitudeDegrees>
            </Position>
            <AltitudeMeters>785.79998779296875</AltitudeMeters>
            <DistanceMeters>NAN</DistanceMeters>
          </Trackpoint>
          <Trackpoint>
            <Time>2020-12-05T10:00:13.000Z</Time>
            <Position>
              <LatitudeDegrees>36.821310706436634063720703125</LatitudeDegrees>
              <LongitudeDegrees>-4.38432334922254085540771484375</LongitudeDegrees>
            </Position>
            <AltitudeMeters>785.4000244140625</AltitudeMeters>
            <DistanceMeters>NAN</DistanceMeters>
          </Trackpoint>
          <Trackpoint>
            <Time>2020-12-05T10:00:14.000Z</Time>
            <Position>
              <LatitudeDegrees>36.82132269255816936492919921875</LatitudeDegrees>
              <LongitudeDegrees>-4.384309351444244384765625</LongitudeDegrees>
            </Position>
            <AltitudeMeters>785.20001220703125</AltitudeMeters>
            <DistanceMeters>NAN</DistanceMeters>
          </Trackpoint>
          <Trackpoint>
            <Time>2020-12-05T10:00:15.000Z</Time>
            <Position>
              <LatitudeDegrees>36.82133275084197521209716796875</LatitudeDegrees>
              <LongitudeDegrees>-4.38429585658013820648193359375</LongitudeDegrees>
            </Position>
            <AltitudeMeters>785.20001220703125</AltitudeMeters>
            <DistanceMeters>NAN</DistanceMeters>
          </Trackpoint>
          <Trackpoint>
            <Time>2020-12-05T10:00:16.000Z</Time>
            <Position>
              <LatitudeDegrees>36.82134532369673252105712890625</LatitudeDegrees>
              <LongitudeDegrees>-4.3842823617160320281982421875</LongitudeDegrees>
            </Position>
            <AltitudeMeters>785.20001220703125</AltitudeMeters>
            <DistanceMeters>NAN</DistanceMeters>
          </Trackpoint>
          <Trackpoint>
            <Time>2020-12-05T10:00:17.000Z</Time>
            <Position>
              <LatitudeDegrees>36.8213551305234432220458984375</LatitudeDegrees>
              <LongitudeDegrees>-4.384270124137401580810546875</LongitudeDegrees>
            </Position>
            <AltitudeMeters>785.20001220703125</AltitudeMeters>
            <DistanceMeters>NAN</DistanceMeters>
          </Trackpoint>
          <Trackpoint>
            <Time>2020-12-05T10:00:18.000Z</Time>
            <Position>
              <LatitudeDegrees>36.82136275805532932281494140625</LatitudeDegrees>
              <LongitudeDegrees>-4.38425947912037372589111328125</LongitudeDegrees>
            </Position>
            <AltitudeMeters>785.20001220703125</AltitudeMeters>
            <DistanceMeters>NAN</DistanceMeters>
          </Trackpoint>
          <Trackpoint>
            <Time>2020-12-05T10:00:19.000Z</Time>
            <Position>
              <LatitudeDegrees>36.82137415744364261627197265625</LatitudeDegrees>
              <LongitudeDegrees>-4.38424707390367984771728515625</LongitudeDegrees>
            </Position>
            <AltitudeMeters>785.4000244140625</AltitudeMeters>
            <DistanceMeters>NAN</DistanceMeters>
          </Trackpoint>
          <Trackpoint>
            <Time>2020-12-05T10:00:20.000Z</Time>
            <Position>
              <LatitudeDegrees>36.82138455100357532501220703125</LatitudeDegrees>
              <LongitudeDegrees>-4.3842350877821445465087890625</LongitudeDegrees>
            </Position>
            <AltitudeMeters>785.5999755859375</AltitudeMeters>
            <DistanceMeters>NAN</DistanceMeters>
          </Trackpoint>
          <Trackpoint>
            <Time>2020-12-05T10:00:21.000Z</Time>
            <Position>
              <LatitudeDegrees>36.82139209471642971038818359375</LatitudeDegrees>
              <LongitudeDegrees>-4.38422528095543384552001953125</LongitudeDegrees>
            </Position>
            <AltitudeMeters>785.79998779296875</AltitudeMeters>
            <DistanceMeters>NAN</DistanceMeters>
          </Trackpoint>
          <Trackpoint>
            <Time>2020-12-05T10:00:22.000Z</Time>
            <Position>
              <LatitudeDegrees>36.8213975429534912109375</LatitudeDegrees>
              <LongitudeDegrees>-4.3842136301100254058837890625</LongitudeDegrees>
            </Position>
            <AltitudeMeters>786.20001220703125</AltitudeMeters>
            <DistanceMeters>NAN</DistanceMeters>
          </Trackpoint>
          <Trackpoint>
            <Time>2020-12-05T10:00:23.000Z</Time>
            <Position>
              <LatitudeDegrees>36.82140382938086986541748046875</LatitudeDegrees>
              <LongitudeDegrees>-4.3842007219791412353515625</LongitudeDegrees>
            </Position>
            <AltitudeMeters>786.4000244140625</AltitudeMeters>
            <DistanceMeters>NAN</DistanceMeters>
          </Trackpoint>
          <Trackpoint>
            <Time>2020-12-05T10:00:24.000Z</Time>
            <Position>
              <LatitudeDegrees>36.821409277617931365966796875</LatitudeDegrees>
              <LongitudeDegrees>-4.3841871432960033416748046875</LongitudeDegrees>
            </Position>
            <AltitudeMeters>786.5999755859375</AltitudeMeters>
            <DistanceMeters>NAN</DistanceMeters>
          </Trackpoint>
          <Trackpoint>
            <Time>2020-12-05T10:00:25.000Z</Time>
            <Position>
              <LatitudeDegrees>36.82141489349305629730224609375</LatitudeDegrees>
              <LongitudeDegrees>-4.38417322933673858642578125</LongitudeDegrees>
            </Position>
            <AltitudeMeters>786.5999755859375</AltitudeMeters>
            <DistanceMeters>NAN</DistanceMeters>
          </Trackpoint>
          <Trackpoint>
            <Time>2020-12-05T10:00:26.000Z</Time>
            <Position>
              <LatitudeDegrees>36.821421682834625244140625</LatitudeDegrees>
              <LongitudeDegrees>-4.38415923155844211578369140625</LongitudeDegrees>
            </Position>
            <AltitudeMeters>786.79998779296875</AltitudeMeters>
            <DistanceMeters>NAN</DistanceMeters>
          </Trackpoint>
          <Trackpoint>
            <Time>2020-12-05T10:00:27.000Z</Time>
            <Position>
              <LatitudeDegrees>36.821428723633289337158203125</LatitudeDegrees>
              <LongitudeDegrees>-4.38414481468498706817626953125</LongitudeDegrees>
            </Position>
            <AltitudeMeters>787</AltitudeMeters>
            <DistanceMeters>NAN</DistanceMeters>
          </Trackpoint>
          <Trackpoint>
            <Time>2020-12-05T10:00:28.000Z</Time>
            <Position>
              <LatitudeDegrees>36.82143635116517543792724609375</LatitudeDegrees>
              <LongitudeDegrees>-4.3841283023357391357421875</LongitudeDegrees>
            </Position>
            <AltitudeMeters>787.20001220703125</AltitudeMeters>
            <DistanceMeters>NAN</DistanceMeters>
          </Trackpoint>
          <Trackpoint>
            <Time>2020-12-05T10:00:29.000Z</Time>
            <Position>
              <LatitudeDegrees>36.8214446492493152618408203125</LatitudeDegrees>
              <LongitudeDegrees>-4.38411153852939605712890625</LongitudeDegrees>
            </Position>
            <AltitudeMeters>787.4000244140625</AltitudeMeters>
            <DistanceMeters>NAN</DistanceMeters>
          </Trackpoint>
          <Trackpoint>
            <Time>2020-12-05T10:00:30.000Z</Time>
            <Position>
              <LatitudeDegrees>36.8214516900479793548583984375</LatitudeDegrees>
              <LongitudeDegrees>-4.3840939365327358245849609375</LongitudeDegrees>
            </Position>
            <AltitudeMeters>787.79998779296875</AltitudeMeters>
            <DistanceMeters>NAN</DistanceMeters>
          </Trackpoint>
          <Trackpoint>
            <Time>2020-12-05T10:00:31.000Z</Time>
            <Position>
              <LatitudeDegrees>36.82145831175148487091064453125</LatitudeDegrees>
              <LongitudeDegrees>-4.384077675640583038330078125</LongitudeDegrees>
            </Position>
            <AltitudeMeters>788</AltitudeMeters>
            <DistanceMeters>NAN</DistanceMeters>
          </Trackpoint>
          <Trackpoint>
            <Time>2020-12-05T10:00:32.000Z</Time>
            <Position>
              <LatitudeDegrees>36.8214634247124195098876953125</LatitudeDegrees>
              <LongitudeDegrees>-4.38406401313841342926025390625</LongitudeDegrees>
            </Position>
            <AltitudeMeters>788.4000244140625</AltitudeMeters>
            <DistanceMeters>NAN</DistanceMeters>
          </Trackpoint>
          <Trackpoint>
            <Time>2020-12-05T10:00:33.000Z</Time>
            <Position>
              <LatitudeDegrees>36.8214681185781955718994140625</LatitudeDegrees>
              <LongitudeDegrees>-4.3840480037033557891845703125</LongitudeDegrees>
            </Position>
            <AltitudeMeters>788.5999755859375</AltitudeMeters>
            <DistanceMeters>NAN</DistanceMeters>
          </Trackpoint>
          <Trackpoint>
            <Time>2020-12-05T10:00:34.000Z</Time>
            <Position>
              <LatitudeDegrees>36.82147356681525707244873046875</LatitudeDegrees>
              <LongitudeDegrees>-4.38403082080185413360595703125</LongitudeDegrees>
            </Position>
            <AltitudeMeters>788.79998779296875</AltitudeMeters>
            <DistanceMeters>NAN</DistanceMeters>
          </Trackpoint>
          <Trackpoint>
            <Time>2020-12-05T10:00:35.000Z</Time>
            <Position>
              <LatitudeDegrees>36.82147826068103313446044921875</LatitudeDegrees>
              <LongitudeDegrees>-4.38401070423424243927001953125</LongitudeDegrees>
            </Position>
            <AltitudeMeters>788.79998779296875</AltitudeMeters>
            <DistanceMeters>NAN</DistanceMeters>
          </Trackpoint>
          <Trackpoint>
            <Time>2020-12-05T10:00:36.000Z</Time>
            <Position>
              <LatitudeDegrees>36.8214818648993968963623046875</LatitudeDegrees>
              <LongitudeDegrees>-4.38399276696145534515380859375</LongitudeDegrees>
            </Position>
            <AltitudeMeters>788.79998779296875</AltitudeMeters>
            <DistanceMeters>NAN</DistanceMeters>
          </Trackpoint>
          <Trackpoint>
            <Time>2020-12-05T10:00:37.000Z</Time>
            <Position>
              <LatitudeDegrees>36.8214815296232700347900390625</LatitudeDegrees>
              <LongitudeDegrees>-4.38397684134542942047119140625</LongitudeDegrees>
            </Position>
            <AltitudeMeters>789</AltitudeMeters>
            <DistanceMeters>NAN</DistanceMeters>
          </Trackpoint>
          <Trackpoint>
            <Time>2020-12-05T10:00:38.000Z</Time>
            <Position>
              <LatitudeDegrees>36.82148144580423831939697265625</LatitudeDegrees>
              <LongitudeDegrees>-4.38396326266229152679443359375</LongitudeDegrees>
            </Position>
            <AltitudeMeters>789.20001220703125</AltitudeMeters>
            <DistanceMeters>NAN</DistanceMeters>
          </Trackpoint>
          <Trackpoint>
            <Time>2020-12-05T10:00:39.000Z</Time>
            <Position>
              <LatitudeDegrees>36.82148060761392116546630859375</LatitudeDegrees>
              <LongitudeDegrees>-4.38395119272172451019287109375</LongitudeDegrees>
            </Position>
            <AltitudeMeters>789.4000244140625</AltitudeMeters>
            <DistanceMeters>NAN</DistanceMeters>
          </Trackpoint>
          <Trackpoint>
            <Time>2020-12-05T10:00:40.000Z</Time>
            <Position>
              <LatitudeDegrees>36.821477673947811126708984375</LatitudeDegrees>
              <LongitudeDegrees>-4.383938200771808624267578125</LongitudeDegrees>
            </Position>
            <AltitudeMeters>789.5999755859375</AltitudeMeters>
            <DistanceMeters>NAN</DistanceMeters>
          </Trackpoint>
          <Trackpoint>
            <Time>2020-12-05T10:00:41.000Z</Time>
            <Position>
              <LatitudeDegrees>36.82147507555782794952392578125</LatitudeDegrees>
              <LongitudeDegrees>-4.3839259631931781768798828125</LongitudeDegrees>
            </Position>
            <AltitudeMeters>789.79998779296875</AltitudeMeters>
            <DistanceMeters>NAN</DistanceMeters>
          </Trackpoint>
          <Trackpoint>
            <Time>2020-12-05T10:00:42.000Z</Time>
            <Position>
              <LatitudeDegrees>36.82147440500557422637939453125</LatitudeDegrees>
              <LongitudeDegrees>-4.38391313888132572174072265625</LongitudeDegrees>
            </Position>
            <AltitudeMeters>789.5999755859375</AltitudeMeters>
            <DistanceMeters>NAN</DistanceMeters>
          </Trackpoint>
          <Trackpoint>
            <Time>2020-12-05T10:00:43.000Z</Time>
            <Position>
              <LatitudeDegrees>36.8214758299291133880615234375</LatitudeDegrees>
              <LongitudeDegrees>-4.38390106894075870513916015625</LongitudeDegrees>
            </Position>
            <AltitudeMeters>789.79998779296875</AltitudeMeters>
            <DistanceMeters>NAN</DistanceMeters>
          </Trackpoint>
          <Trackpoint>
            <Time>2020-12-05T10:00:44.000Z</Time>
            <Position>
              <LatitudeDegrees>36.82147809304296970367431640625</LatitudeDegrees>
              <LongitudeDegrees>-4.38389017246663570404052734375</LongitudeDegrees>
            </Position>
            <AltitudeMeters>789.79998779296875</AltitudeMeters>
            <DistanceMeters>NAN</DistanceMeters>
          </Trackpoint>
          <Trackpoint>
            <Time>2020-12-05T10:00:45.000Z</Time>
            <Position>
              <LatitudeDegrees>36.821481026709079742431640625</LatitudeDegrees>
              <LongitudeDegrees>-4.3838775157928466796875</LongitudeDegrees>
            </Position>
            <AltitudeMeters>789.79998779296875</AltitudeMeters>
            <DistanceMeters>NAN</DistanceMeters>
          </Trackpoint>
          <Trackpoint>
            <Time>2020-12-05T10:00:46.000Z</Time>
            <Position>
              <LatitudeDegrees>36.82148597203195095062255859375</LatitudeDegrees>
              <LongitudeDegrees>-4.383863769471645355224609375</LongitudeDegrees>
            </Position>
            <AltitudeMeters>789.5999755859375</AltitudeMeters>
            <DistanceMeters>NAN</DistanceMeters>
          </Trackpoint>
          <Trackpoint>
            <Time>2020-12-05T10:00:47.000Z</Time>
            <Position>
              <LatitudeDegrees>36.8214912526309490203857421875</LatitudeDegrees>
              <LongitudeDegrees>-4.38385002315044403076171875</LongitudeDegrees>
            </Position>
            <AltitudeMeters>789.5999755859375</AltitudeMeters>
            <DistanceMeters>NAN</DistanceMeters>
          </Trackpoint>
          <Trackpoint>
            <Time>2020-12-05T10:00:48.000Z</Time>
            <Position>
              <LatitudeDegrees>36.82149770669639110565185546875</LatitudeDegrees>
              <LongitudeDegrees>-4.38383535481989383697509765625</LongitudeDegrees>
            </Position>
            <AltitudeMeters>789.4000244140625</AltitudeMeters>
            <DistanceMeters>NAN</DistanceMeters>
          </Trackpoint>
          <Trackpoint>
            <Time>2020-12-05T10:00:49.000Z</Time>
            <Position>
              <LatitudeDegrees>36.8215034902095794677734375</LatitudeDegrees>
              <LongitudeDegrees>-4.38381859101355075836181640625</LongitudeDegrees>
            </Position>
            <AltitudeMeters>789.4000244140625</AltitudeMeters>
            <DistanceMeters>NAN</DistanceMeters>
          </Trackpoint>
          <Trackpoint>
            <Time>2020-12-05T10:00:50.000Z</Time>
            <Position>
              <LatitudeDegrees>36.82150550186634063720703125</LatitudeDegrees>
              <LongitudeDegrees>-4.38380316831171512603759765625</LongitudeDegrees>
            </Position>
            <AltitudeMeters>789.20001220703125</AltitudeMeters>
            <DistanceMeters>NAN</DistanceMeters>
          </Trackpoint>
          <Trackpoint>
            <Time>2020-12-05T10:00:51.000Z</Time>
            <Position>
              <LatitudeDegrees>36.82150877080857753753662109375</LatitudeDegrees>
              <LongitudeDegrees>-4.3837881647050380706787109375</LongitudeDegrees>
            </Position>
            <AltitudeMeters>789</AltitudeMeters>
            <DistanceMeters>NAN</DistanceMeters>
          </Trackpoint>
          <Trackpoint>
            <Time>2020-12-05T10:00:52.000Z</Time>
            <Position>
              <LatitudeDegrees>36.8215150572359561920166015625</LatitudeDegrees>
              <LongitudeDegrees>-4.3837750889360904693603515625</LongitudeDegrees>
            </Position>
            <AltitudeMeters>789</AltitudeMeters>
            <DistanceMeters>NAN</DistanceMeters>
          </Trackpoint>
          <Trackpoint>
            <Time>2020-12-05T10:00:53.000Z</Time>
            <Position>
              <LatitudeDegrees>36.82152117602527141571044921875</LatitudeDegrees>
              <LongitudeDegrees>-4.38375991769134998321533203125</LongitudeDegrees>
            </Position>
            <AltitudeMeters>789</AltitudeMeters>
            <DistanceMeters>NAN</DistanceMeters>
          </Trackpoint>
          <Trackpoint>
            <Time>2020-12-05T10:00:54.000Z</Time>
            <Position>
              <LatitudeDegrees>36.8215264566242694854736328125</LatitudeDegrees>
              <LongitudeDegrees>-4.3837472610175609588623046875</LongitudeDegrees>
            </Position>
            <AltitudeMeters>788.79998779296875</AltitudeMeters>
            <DistanceMeters>NAN</DistanceMeters>
          </Trackpoint>
          <Trackpoint>
            <Time>2020-12-05T10:00:55.000Z</Time>
            <Position>
              <LatitudeDegrees>36.821529977023601531982421875</LatitudeDegrees>
              <LongitudeDegrees>-4.38373468816280364990234375</LongitudeDegrees>
            </Position>
            <AltitudeMeters>788.79998779296875</AltitudeMeters>
            <DistanceMeters>NAN</DistanceMeters>
          </Trackpoint>
          <Trackpoint>
            <Time>2020-12-05T10:00:56.000Z</Time>
            <Position>
              <LatitudeDegrees>36.821534335613250732421875</LatitudeDegrees>
              <LongitudeDegrees>-4.38372588716447353363037109375</LongitudeDegrees>
            </Position>
            <AltitudeMeters>788.5999755859375</AltitudeMeters>
            <DistanceMeters>NAN</DistanceMeters>
          </Trackpoint>
          <Trackpoint>
            <Time>2020-12-05T10:00:57.000Z</Time>
            <Position>
              <LatitudeDegrees>36.82153693400323390960693359375</LatitudeDegrees>
              <LongitudeDegrees>-4.38371750526130199432373046875</LongitudeDegrees>
            </Position>
            <AltitudeMeters>788.5999755859375</AltitudeMeters>
            <DistanceMeters>NAN</DistanceMeters>
          </Trackpoint>
          <Trackpoint>
            <Time>2020-12-05T10:00:58.000Z</Time>
            <Position>
              <LatitudeDegrees>36.82153911329805850982666015625</LatitudeDegrees>
              <LongitudeDegrees>-4.3837053515017032623291015625</LongitudeDegrees>
            </Position>
            <AltitudeMeters>788.4000244140625</AltitudeMeters>
            <DistanceMeters>NAN</DistanceMeters>
          </Trackpoint>
          <Trackpoint>
            <Time>2020-12-05T10:00:59.000Z</Time>
            <Position>
              <LatitudeDegrees>36.821541376411914825439453125</LatitudeDegrees>
              <LongitudeDegrees>-4.38369152136147022247314453125</LongitudeDegrees>
            </Position>
            <AltitudeMeters>788.20001220703125</AltitudeMeters>
            <DistanceMeters>NAN</DistanceMeters>
          </Trackpoint>
          <Trackpoint>
            <Time>2020-12-05T10:01:00.000Z</Time>
            <Position>
              <LatitudeDegrees>36.8215437233448028564453125</LatitudeDegrees>
              <LongitudeDegrees>-4.38367743976414203643798828125</LongitudeDegrees>
            </Position>
            <AltitudeMeters>788.20001220703125</AltitudeMeters>
            <DistanceMeters>NAN</DistanceMeters>
          </Trackpoint>
          <Trackpoint>
            <Time>2020-12-05T10:01:01.000Z</Time>
            <Position>
              <LatitudeDegrees>36.8215495906770229339599609375</LatitudeDegrees>
              <LongitudeDegrees>-4.38366754911839962005615234375</LongitudeDegrees>
            </Position>
            <AltitudeMeters>788</AltitudeMeters>
            <DistanceMeters>NAN</DistanceMeters>
          </Trackpoint>
          <Trackpoint>
            <Time>2020-12-05T10:01:02.000Z</Time>
            <Position>
              <LatitudeDegrees>36.8215544521808624267578125</LatitudeDegrees>
              <LongitudeDegrees>-4.38365757465362548828125</LongitudeDegrees>
            </Position>
            <AltitudeMeters>787.79998779296875</AltitudeMeters>
            <DistanceMeters>NAN</DistanceMeters>
          </Trackpoint>
          <Trackpoint>
            <Time>2020-12-05T10:01:03.000Z</Time>
            <Position>
              <LatitudeDegrees>36.8215603195130825042724609375</LatitudeDegrees>
              <LongitudeDegrees>-4.383652210235595703125</LongitudeDegrees>
            </Position>
            <AltitudeMeters>787.5999755859375</AltitudeMeters>
            <DistanceMeters>NAN</DistanceMeters>
          </Trackpoint>
          <Trackpoint>
            <Time>2020-12-05T10:01:04.000Z</Time>
            <Position>
              <LatitudeDegrees>36.82156828232109546661376953125</LatitudeDegrees>
              <LongitudeDegrees>-4.38364994712173938751220703125</LongitudeDegrees>
            </Position>
            <AltitudeMeters>787.4000244140625</AltitudeMeters>
            <DistanceMeters>NAN</DistanceMeters>
          </Trackpoint>
          <Trackpoint>
            <Time>2020-12-05T10:01:05.000Z</Time>
            <Position>
              <LatitudeDegrees>36.821573562920093536376953125</LatitudeDegrees>
              <LongitudeDegrees>-4.3836476840078830718994140625</LongitudeDegrees>
            </Position>
            <AltitudeMeters>787</AltitudeMeters>
            <DistanceMeters>NAN</DistanceMeters>
          </Trackpoint>
          <Trackpoint>
            <Time>2020-12-05T10:01:06.000Z</Time>
            <Position>
              <LatitudeDegrees>36.82157867588102817535400390625</LatitudeDegrees>
              <LongitudeDegrees>-4.383646510541439056396484375</LongitudeDegrees>
            </Position>
            <AltitudeMeters>786.5999755859375</AltitudeMeters>
            <DistanceMeters>NAN</DistanceMeters>
          </Trackpoint>
          <Trackpoint>
            <Time>2020-12-05T10:01:07.000Z</Time>
            <Position>
              <LatitudeDegrees>36.82158621959388256072998046875</LatitudeDegrees>
              <LongitudeDegrees>-4.3836470134556293487548828125</LongitudeDegrees>
            </Position>
            <AltitudeMeters>786.4000244140625</AltitudeMeters>
            <DistanceMeters>NAN</DistanceMeters>
          </Trackpoint>
          <Trackpoint>
            <Time>2020-12-05T10:01:08.000Z</Time>
            <Position>
              <LatitudeDegrees>36.8215955235064029693603515625</LatitudeDegrees>
              <LongitudeDegrees>-4.38364843837916851043701171875</LongitudeDegrees>
            </Position>
            <AltitudeMeters>786.20001220703125</AltitudeMeters>
            <DistanceMeters>NAN</DistanceMeters>
          </Trackpoint>
          <Trackpoint>
            <Time>2020-12-05T10:01:09.000Z</Time>
            <Position>
              <LatitudeDegrees>36.82160465978085994720458984375</LatitudeDegrees>
              <LongitudeDegrees>-4.383649192750453948974609375</LongitudeDegrees>
            </Position>
            <AltitudeMeters>786</AltitudeMeters>
            <DistanceMeters>NAN</DistanceMeters>
          </Trackpoint>
          <Trackpoint>
            <Time>2020-12-05T10:01:10.000Z</Time>
            <Position>
              <LatitudeDegrees>36.8216136284172534942626953125</LatitudeDegrees>
              <LongitudeDegrees>-4.38365153968334197998046875</LongitudeDegrees>
            </Position>
            <AltitudeMeters>785.79998779296875</AltitudeMeters>
            <DistanceMeters>NAN</DistanceMeters>
          </Trackpoint>
          <Trackpoint>
            <Time>2020-12-05T10:01:11.000Z</Time>
            <Position>
              <LatitudeDegrees>36.8216206692159175872802734375</LatitudeDegrees>
              <LongitudeDegrees>-4.38365195877850055694580078125</LongitudeDegrees>
            </Position>
            <AltitudeMeters>785.5999755859375</AltitudeMeters>
            <DistanceMeters>NAN</DistanceMeters>
          </Trackpoint>
          <Trackpoint>
            <Time>2020-12-05T10:01:12.000Z</Time>
            <Position>
              <LatitudeDegrees>36.82163164950907230377197265625</LatitudeDegrees>
              <LongitudeDegrees>-4.3836553953588008880615234375</LongitudeDegrees>
            </Position>
            <AltitudeMeters>785.5999755859375</AltitudeMeters>
            <DistanceMeters>NAN</DistanceMeters>
          </Trackpoint>
          <Trackpoint>
            <Time>2020-12-05T10:01:13.000Z</Time>
            <Position>
              <LatitudeDegrees>36.8216421268880367279052734375</LatitudeDegrees>
              <LongitudeDegrees>-4.38366000540554523468017578125</LongitudeDegrees>
            </Position>
            <AltitudeMeters>785.5999755859375</AltitudeMeters>
            <DistanceMeters>NAN</DistanceMeters>
          </Trackpoint>
          <Trackpoint>
            <Time>2020-12-05T10:01:14.000Z</Time>
            <Position>
              <LatitudeDegrees>36.8216501735150814056396484375</LatitudeDegrees>
              <LongitudeDegrees>-4.38366034068167209625244140625</LongitudeDegrees>
            </Position>
            <AltitudeMeters>785.5999755859375</AltitudeMeters>
            <DistanceMeters>NAN</DistanceMeters>
          </Trackpoint>
          <Trackpoint>
            <Time>2020-12-05T10:01:15.000Z</Time>
            <Position>
              <LatitudeDegrees>36.82165746577084064483642578125</LatitudeDegrees>
              <LongitudeDegrees>-4.38365933485329151153564453125</LongitudeDegrees>
            </Position>
            <AltitudeMeters>785.5999755859375</AltitudeMeters>
            <DistanceMeters>NAN</DistanceMeters>
          </Trackpoint>
          <Trackpoint>
            <Time>2020-12-05T10:01:16.000Z</Time>
            <Position>
              <LatitudeDegrees>36.82166400365531444549560546875</LatitudeDegrees>
              <LongitudeDegrees>-4.3836577422916889190673828125</LongitudeDegrees>
            </Position>
            <AltitudeMeters>785.79998779296875</AltitudeMeters>
            <DistanceMeters>NAN</DistanceMeters>
          </Trackpoint>
          <Trackpoint>
            <Time>2020-12-05T10:01:17.000Z</Time>
            <Position>
              <LatitudeDegrees>36.82167238555848598480224609375</LatitudeDegrees>
              <LongitudeDegrees>-4.38365288078784942626953125</LongitudeDegrees>
            </Position>
            <AltitudeMeters>786</AltitudeMeters>
            <DistanceMeters>NAN</DistanceMeters>
          </Trackpoint>
          <Trackpoint>
            <Time>2020-12-05T10:01:18.000Z</Time>
            <Position>
              <LatitudeDegrees>36.8216820247471332550048828125</LatitudeDegrees>
              <LongitudeDegrees>-4.3836503662168979644775390625</LongitudeDegrees>
            </Position>
            <AltitudeMeters>786.4000244140625</AltitudeMeters>
            <DistanceMeters>NAN</DistanceMeters>
          </Trackpoint>
          <Trackpoint>
            <Time>2020-12-05T10:01:19.000Z</Time>
            <Position>
              <LatitudeDegrees>36.82169183157384395599365234375</LatitudeDegrees>
              <LongitudeDegrees>-4.38365346752107143402099609375</LongitudeDegrees>
            </Position>
            <AltitudeMeters>786.5999755859375</AltitudeMeters>
            <DistanceMeters>NAN</DistanceMeters>
          </Trackpoint>
          <Trackpoint>
            <Time>2020-12-05T10:01:20.000Z</Time>
            <Position>
              <LatitudeDegrees>36.821700632572174072265625</LatitudeDegrees>
              <LongitudeDegrees>-4.38365422189235687255859375</LongitudeDegrees>
            </Position>
            <AltitudeMeters>786.79998779296875</AltitudeMeters>
            <DistanceMeters>NAN</DistanceMeters>
          </Trackpoint>
          <Trackpoint>
            <Time>2020-12-05T10:01:21.000Z</Time>
            <Position>
              <LatitudeDegrees>36.82171161286532878875732421875</LatitudeDegrees>
              <LongitudeDegrees>-4.3836550600826740264892578125</LongitudeDegrees>
            </Position>
            <AltitudeMeters>787.20001220703125</AltitudeMeters>
            <DistanceMeters>NAN</DistanceMeters>
          </Trackpoint>
          <Trackpoint>
            <Time>2020-12-05T10:01:22.000Z</Time>
            <Position>
              <LatitudeDegrees>36.82172284461557865142822265625</LatitudeDegrees>
              <LongitudeDegrees>-4.383655227720737457275390625</LongitudeDegrees>
            </Position>
            <AltitudeMeters>787.5999755859375</AltitudeMeters>
            <DistanceMeters>NAN</DistanceMeters>
          </Trackpoint>
          <Trackpoint>
            <Time>2020-12-05T10:01:23.000Z</Time>
            <Position>
              <LatitudeDegrees>36.82173089124262332916259765625</LatitudeDegrees>
              <LongitudeDegrees>-4.38365598209202289581298828125</LongitudeDegrees>
            </Position>
            <AltitudeMeters>788</AltitudeMeters>
            <DistanceMeters>NAN</DistanceMeters>
          </Trackpoint>
          <Trackpoint>
            <Time>2020-12-05T10:01:24.000Z</Time>
            <Position>
              <LatitudeDegrees>36.82173977605998516082763671875</LatitudeDegrees>
              <LongitudeDegrees>-4.38365757465362548828125</LongitudeDegrees>
            </Position>
            <AltitudeMeters>788.4000244140625</AltitudeMeters>
            <DistanceMeters>NAN</DistanceMeters>
          </Trackpoint>
          <Trackpoint>
            <Time>2020-12-05T10:01:25.000Z</Time>
            <Position>
              <LatitudeDegrees>36.821748577058315277099609375</LatitudeDegrees>
              <LongitudeDegrees>-4.38365765847265720367431640625</LongitudeDegrees>
            </Position>
            <AltitudeMeters>788.79998779296875</AltitudeMeters>
            <DistanceMeters>NAN</DistanceMeters>
          </Trackpoint>
          <Trackpoint>
            <Time>2020-12-05T10:01:26.000Z</Time>
            <Position>
              <LatitudeDegrees>36.821763999760150909423828125</LatitudeDegrees>
              <LongitudeDegrees>-4.38365749083459377288818359375</LongitudeDegrees>
            </Position>
            <AltitudeMeters>789</AltitudeMeters>
            <DistanceMeters>NAN</DistanceMeters>
          </Trackpoint>
          <Trackpoint>
            <Time>2020-12-05T10:01:27.000Z</Time>
            <Position>
              <LatitudeDegrees>36.8217785842716693878173828125</LatitudeDegrees>
              <LongitudeDegrees>-4.38365480862557888031005859375</LongitudeDegrees>
            </Position>
            <AltitudeMeters>789.20001220703125</AltitudeMeters>
            <DistanceMeters>NAN</DistanceMeters>
          </Trackpoint>
          <Trackpoint>
            <Time>2020-12-05T10:01:28.000Z</Time>
            <Position>
              <LatitudeDegrees>36.82179057039320468902587890625</LatitudeDegrees>
              <LongitudeDegrees>-4.38364927656948566436767578125</LongitudeDegrees>
            </Position>
            <AltitudeMeters>789.5999755859375</AltitudeMeters>
            <DistanceMeters>NAN</DistanceMeters>
          </Trackpoint>
          <Trackpoint>
            <Time>2020-12-05T10:01:29.000Z</Time>
            <Position>
              <LatitudeDegrees>36.82180196978151798248291015625</LatitudeDegrees>
              <LongitudeDegrees>-4.3836433254182338714599609375</LongitudeDegrees>
            </Position>
            <AltitudeMeters>789.5999755859375</AltitudeMeters>
            <DistanceMeters>NAN</DistanceMeters>
          </Trackpoint>
          <Trackpoint>
            <Time>2020-12-05T10:01:30.000Z</Time>
            <Position>
              <LatitudeDegrees>36.821814291179180145263671875</LatitudeDegrees>
              <LongitudeDegrees>-4.3836389668285846710205078125</LongitudeDegrees>
            </Position>
            <AltitudeMeters>789.79998779296875</AltitudeMeters>
            <DistanceMeters>NAN</DistanceMeters>
          </Trackpoint>
          <Trackpoint>
            <Time>2020-12-05T10:01:31.000Z</Time>
            <Position>
              <LatitudeDegrees>36.82182376272976398468017578125</LatitudeDegrees>
              <LongitudeDegrees>-4.38363670371472835540771484375</LongitudeDegrees>
            </Position>
            <AltitudeMeters>789.79998779296875</AltitudeMeters>
            <DistanceMeters>NAN</DistanceMeters>
          </Trackpoint>
          <Trackpoint>
            <Time>2020-12-05T10:01:32.000Z</Time>
            <Position>
              <LatitudeDegrees>36.8218342401087284088134765625</LatitudeDegrees>
              <LongitudeDegrees>-4.383633770048618316650390625</LongitudeDegrees>
            </Position>
            <AltitudeMeters>789.5999755859375</AltitudeMeters>
            <DistanceMeters>NAN</DistanceMeters>
          </Trackpoint>
          <Trackpoint>
            <Time>2020-12-05T10:01:33.000Z</Time>
            <Position>
              <LatitudeDegrees>36.82184505276381969451904296875</LatitudeDegrees>
              <LongitudeDegrees>-4.38363569788634777069091796875</LongitudeDegrees>
            </Position>
            <AltitudeMeters>789.5999755859375</AltitudeMeters>
            <DistanceMeters>NAN</DistanceMeters>
          </Trackpoint>
          <Trackpoint>
            <Time>2020-12-05T10:01:34.000Z</Time>
            <Position>
              <LatitudeDegrees>36.8218573741614818572998046875</LatitudeDegrees>
              <LongitudeDegrees>-4.38363754190504550933837890625</LongitudeDegrees>
            </Position>
            <AltitudeMeters>789.4000244140625</AltitudeMeters>
            <DistanceMeters>NAN</DistanceMeters>
          </Trackpoint>
          <Trackpoint>
            <Time>2020-12-05T10:01:35.000Z</Time>
            <Position>
              <LatitudeDegrees>36.821869947016239166259765625</LatitudeDegrees>
              <LongitudeDegrees>-4.3836401402950286865234375</LongitudeDegrees>
            </Position>
            <AltitudeMeters>789.20001220703125</AltitudeMeters>
            <DistanceMeters>NAN</DistanceMeters>
          </Trackpoint>
          <Trackpoint>
            <Time>2020-12-05T10:01:36.000Z</Time>
            <Position>
              <LatitudeDegrees>36.821884699165821075439453125</LatitudeDegrees>
              <LongitudeDegrees>-4.38364475034177303314208984375</LongitudeDegrees>
            </Position>
            <AltitudeMeters>788.79998779296875</AltitudeMeters>
            <DistanceMeters>NAN</DistanceMeters>
          </Trackpoint>
          <Trackpoint>
            <Time>2020-12-05T10:01:37.000Z</Time>
            <Position>
              <LatitudeDegrees>36.8219006247818470001220703125</LatitudeDegrees>
              <LongitudeDegrees>-4.3836503662168979644775390625</LongitudeDegrees>
            </Position>
            <AltitudeMeters>788.4000244140625</AltitudeMeters>
            <DistanceMeters>NAN</DistanceMeters>
          </Trackpoint>
          <Trackpoint>
            <Time>2020-12-05T10:01:38.000Z</Time>
            <Position>
              <LatitudeDegrees>36.821915209293365478515625</LatitudeDegrees>
              <LongitudeDegrees>-4.38365547917783260345458984375</LongitudeDegrees>
            </Position>
            <AltitudeMeters>788.20001220703125</AltitudeMeters>
            <DistanceMeters>NAN</DistanceMeters>
          </Trackpoint>
          <Trackpoint>
            <Time>2020-12-05T10:01:39.000Z</Time>
            <Position>
              <LatitudeDegrees>36.8219297938048839569091796875</LatitudeDegrees>
              <LongitudeDegrees>-4.383660592138767242431640625</LongitudeDegrees>
            </Position>
            <AltitudeMeters>787.79998779296875</AltitudeMeters>
            <DistanceMeters>NAN</DistanceMeters>
          </Trackpoint>
          <Trackpoint>
            <Time>2020-12-05T10:01:40.000Z</Time>
            <Position>
              <LatitudeDegrees>36.8219421990215778350830078125</LatitudeDegrees>
              <LongitudeDegrees>-4.3836647830903530120849609375</LongitudeDegrees>
            </Position>
            <AltitudeMeters>787.5999755859375</AltitudeMeters>
            <DistanceMeters>NAN</DistanceMeters>
          </Trackpoint>
          <Trackpoint>
            <Time>2020-12-05T10:01:41.000Z</Time>
            <Position>
              <LatitudeDegrees>36.82195343077182769775390625</LatitudeDegrees>
              <LongitudeDegrees>-4.38366738148033618927001953125</LongitudeDegrees>
            </Position>
            <AltitudeMeters>787.4000244140625</AltitudeMeters>
            <DistanceMeters>NAN</DistanceMeters>
          </Trackpoint>
          <Trackpoint>
            <Time>2020-12-05T10:01:42.000Z</Time>
            <Position>
              <LatitudeDegrees>36.82196415960788726806640625</LatitudeDegrees>
              <LongitudeDegrees>-4.3836738355457782745361328125</LongitudeDegrees>
            </Position>
            <AltitudeMeters>787.20001220703125</AltitudeMeters>
            <DistanceMeters>NAN</DistanceMeters>
          </Trackpoint>
          <Trackpoint>
            <Time>2020-12-05T10:01:43.000Z</Time>
            <Position>
              <LatitudeDegrees>36.82197296060621738433837890625</LatitudeDegrees>
              <LongitudeDegrees>-4.383678697049617767333984375</LongitudeDegrees>
            </Position>
            <AltitudeMeters>787.20001220703125</AltitudeMeters>
            <DistanceMeters>NAN</DistanceMeters>
          </Trackpoint>
          <Trackpoint>
            <Time>2020-12-05T10:01:44.000Z</Time>
            <Position>
              <LatitudeDegrees>36.82198368944227695465087890625</LatitudeDegrees>
              <LongitudeDegrees>-4.38368431292474269866943359375</LongitudeDegrees>
            </Position>
            <AltitudeMeters>787.20001220703125</AltitudeMeters>
            <DistanceMeters>NAN</DistanceMeters>
          </Trackpoint>
          <Trackpoint>
            <Time>2020-12-05T10:01:45.000Z</Time>
            <Position>
              <LatitudeDegrees>36.821995675563812255859375</LatitudeDegrees>
              <LongitudeDegrees>-4.38369168899953365325927734375</LongitudeDegrees>
            </Position>
            <AltitudeMeters>787.20001220703125</AltitudeMeters>
            <DistanceMeters>NAN</DistanceMeters>
          </Trackpoint>
          <Trackpoint>
            <Time>2020-12-05T10:01:46.000Z</Time>
            <Position>
              <LatitudeDegrees>36.82200648821890354156494140625</LatitudeDegrees>
              <LongitudeDegrees>-4.3837013281881809234619140625</LongitudeDegrees>
            </Position>
            <AltitudeMeters>787.20001220703125</AltitudeMeters>
            <DistanceMeters>NAN</DistanceMeters>
          </Trackpoint>
          <Trackpoint>
            <Time>2020-12-05T10:01:47.000Z</Time>
            <Position>
              <LatitudeDegrees>36.822019480168819427490234375</LatitudeDegrees>
              <LongitudeDegrees>-4.38371096737682819366455078125</LongitudeDegrees>
            </Position>
            <AltitudeMeters>787.20001220703125</AltitudeMeters>
            <DistanceMeters>NAN</DistanceMeters>
          </Trackpoint>
          <Trackpoint>
            <Time>2020-12-05T10:01:48.000Z</Time>
            <Position>
              <LatitudeDegrees>36.82203096337616443634033203125</LatitudeDegrees>
              <LongitudeDegrees>-4.3837201036512851715087890625</LongitudeDegrees>
            </Position>
            <AltitudeMeters>787.4000244140625</AltitudeMeters>
            <DistanceMeters>NAN</DistanceMeters>
          </Trackpoint>
          <Trackpoint>
            <Time>2020-12-05T10:01:49.000Z</Time>
            <Position>
              <LatitudeDegrees>36.822043955326080322265625</LatitudeDegrees>
              <LongitudeDegrees>-4.38373309560120105743408203125</LongitudeDegrees>
            </Position>
            <AltitudeMeters>787.4000244140625</AltitudeMeters>
            <DistanceMeters>NAN</DistanceMeters>
          </Trackpoint>
          <Trackpoint>
            <Time>2020-12-05T10:01:50.000Z</Time>
            <Position>
              <LatitudeDegrees>36.822054348886013031005859375</LatitudeDegrees>
              <LongitudeDegrees>-4.38374340534210205078125</LongitudeDegrees>
            </Position>
            <AltitudeMeters>787.4000244140625</AltitudeMeters>
            <DistanceMeters>NAN</DistanceMeters>
          </Trackpoint>
          <Trackpoint>
            <Time>2020-12-05T10:01:51.000Z</Time>
            <Position>
              <LatitudeDegrees>36.82206784375011920928955078125</LatitudeDegrees>
              <LongitudeDegrees>-4.383752457797527313232421875</LongitudeDegrees>
            </Position>
            <AltitudeMeters>787.4000244140625</AltitudeMeters>
            <DistanceMeters>NAN</DistanceMeters>
          </Trackpoint>
          <Trackpoint>
            <Time>2020-12-05T10:01:52.000Z</Time>
            <Position>
              <LatitudeDegrees>36.822078488767147064208984375</LatitudeDegrees>
              <LongitudeDegrees>-4.3837586604058742523193359375</LongitudeDegrees>
            </Position>
            <AltitudeMeters>787.4000244140625</AltitudeMeters>
            <DistanceMeters>NAN</DistanceMeters>
          </Trackpoint>
          <Trackpoint>
            <Time>2020-12-05T10:01:53.000Z</Time>
            <Position>
              <LatitudeDegrees>36.8220856972038745880126953125</LatitudeDegrees>
              <LongitudeDegrees>-4.3837613426148891448974609375</LongitudeDegrees>
            </Position>
            <AltitudeMeters>787.4000244140625</AltitudeMeters>
            <DistanceMeters>NAN</DistanceMeters>
          </Trackpoint>
          <Trackpoint>
            <Time>2020-12-05T10:01:54.000Z</Time>
            <Position>
              <LatitudeDegrees>36.8220920674502849578857421875</LatitudeDegrees>
              <LongitudeDegrees>-4.3837610073387622833251953125</LongitudeDegrees>
            </Position>
            <AltitudeMeters>787.5999755859375</AltitudeMeters>
            <DistanceMeters>NAN</DistanceMeters>
          </Trackpoint>
          <Trackpoint>
            <Time>2020-12-05T10:01:55.000Z</Time>
            <Position>
              <LatitudeDegrees>36.8220991082489490509033203125</LatitudeDegrees>
              <LongitudeDegrees>-4.3837626837193965911865234375</LongitudeDegrees>
            </Position>
            <AltitudeMeters>787.79998779296875</AltitudeMeters>
            <DistanceMeters>NAN</DistanceMeters>
          </Trackpoint>
          <Trackpoint>
            <Time>2020-12-05T10:01:56.000Z</Time>
            <Position>
              <LatitudeDegrees>36.8221078254282474517822265625</LatitudeDegrees>
              <LongitudeDegrees>-4.38376746140420436859130859375</LongitudeDegrees>
            </Position>
            <AltitudeMeters>787.79998779296875</AltitudeMeters>
            <DistanceMeters>NAN</DistanceMeters>
          </Trackpoint>
          <Trackpoint>
            <Time>2020-12-05T10:01:57.000Z</Time>
            <Position>
              <LatitudeDegrees>36.82211629115045070648193359375</LatitudeDegrees>
              <LongitudeDegrees>-4.38377223908901214599609375</LongitudeDegrees>
            </Position>
            <AltitudeMeters>787.79998779296875</AltitudeMeters>
            <DistanceMeters>NAN</DistanceMeters>
          </Trackpoint>
          <Trackpoint>
            <Time>2020-12-05T10:01:58.000Z</Time>
            <Position>
              <LatitudeDegrees>36.822124421596527099609375</LatitudeDegrees>
              <LongitudeDegrees>-4.3837767653167247772216796875</LongitudeDegrees>
            </Position>
            <AltitudeMeters>788</AltitudeMeters>
            <DistanceMeters>NAN</DistanceMeters>
          </Trackpoint>
          <Trackpoint>
            <Time>2020-12-05T10:01:59.000Z</Time>
            <Position>
              <LatitudeDegrees>36.82213238440454006195068359375</LatitudeDegrees>
              <LongitudeDegrees>-4.38377986662089824676513671875</LongitudeDegrees>
            </Position>
            <AltitudeMeters>788</AltitudeMeters>
            <DistanceMeters>NAN</DistanceMeters>
          </Trackpoint>
          <Trackpoint>
            <Time>2020-12-05T10:02:00.000Z</Time>
            <Position>
              <LatitudeDegrees>36.82214118540287017822265625</LatitudeDegrees>
              <LongitudeDegrees>-4.3837804533541202545166015625</LongitudeDegrees>
            </Position>
            <AltitudeMeters>788</AltitudeMeters>
            <DistanceMeters>NAN</DistanceMeters>
          </Trackpoint>
          <Trackpoint>
            <Time>2020-12-05T10:02:01.000Z</Time>
            <Position>
              <LatitudeDegrees>36.8221507407724857330322265625</LatitudeDegrees>
              <LongitudeDegrees>-4.383779950439929962158203125</LongitudeDegrees>
            </Position>
            <AltitudeMeters>787.79998779296875</AltitudeMeters>
            <DistanceMeters>NAN</DistanceMeters>
          </Trackpoint>
          <Trackpoint>
            <Time>2020-12-05T10:02:02.000Z</Time>
            <Position>
              <LatitudeDegrees>36.8221601285040378570556640625</LatitudeDegrees>
              <LongitudeDegrees>-4.3837797828018665313720703125</LongitudeDegrees>
            </Position>
            <AltitudeMeters>787.79998779296875</AltitudeMeters>
            <DistanceMeters>NAN</DistanceMeters>
          </Trackpoint>
          <Trackpoint>
            <Time>2020-12-05T10:02:03.000Z</Time>
            <Position>
              <LatitudeDegrees>36.82217312045395374298095703125</LatitudeDegrees>
              <LongitudeDegrees>-4.38378590159118175506591796875</LongitudeDegrees>
            </Position>
            <AltitudeMeters>787.79998779296875</AltitudeMeters>
            <DistanceMeters>NAN</DistanceMeters>
          </Trackpoint>
          <Trackpoint>
            <Time>2020-12-05T10:02:04.000Z</Time>
            <Position>
              <LatitudeDegrees>36.8221889622509479522705078125</LatitudeDegrees>
              <LongitudeDegrees>-4.38379646278917789459228515625</LongitudeDegrees>
            </Position>
            <AltitudeMeters>787.79998779296875</AltitudeMeters>
            <DistanceMeters>NAN</DistanceMeters>
          </Trackpoint>
          <Trackpoint>
            <Time>2020-12-05T10:02:05.000Z</Time>
            <Position>
              <LatitudeDegrees>36.82220513932406902313232421875</LatitudeDegrees>
              <LongitudeDegrees>-4.3838055990636348724365234375</LongitudeDegrees>
            </Position>
            <AltitudeMeters>787.79998779296875</AltitudeMeters>
            <DistanceMeters>NAN</DistanceMeters>
          </Trackpoint>
          <Trackpoint>
            <Time>2020-12-05T10:02:06.000Z</Time>
            <Position>
              <LatitudeDegrees>36.8222198076546192169189453125</LatitudeDegrees>
              <LongitudeDegrees>-4.38381205312907695770263671875</LongitudeDegrees>
            </Position>
            <AltitudeMeters>787.79998779296875</AltitudeMeters>
            <DistanceMeters>NAN</DistanceMeters>
          </Trackpoint>
          <Trackpoint>
            <Time>2020-12-05T10:02:07.000Z</Time>
            <Position>
              <LatitudeDegrees>36.82223497889935970306396484375</LatitudeDegrees>
              <LongitudeDegrees>-4.38381641171872615814208984375</LongitudeDegrees>
            </Position>
            <AltitudeMeters>787.79998779296875</AltitudeMeters>
            <DistanceMeters>NAN</DistanceMeters>
          </Trackpoint>
          <Trackpoint>
            <Time>2020-12-05T10:02:08.000Z</Time>
            <Position>
              <LatitudeDegrees>36.82225375436246395111083984375</LatitudeDegrees>
              <LongitudeDegrees>-4.3838153220713138580322265625</LongitudeDegrees>
            </Position>
            <AltitudeMeters>788</AltitudeMeters>
            <DistanceMeters>NAN</DistanceMeters>
          </Trackpoint>
          <Trackpoint>
            <Time>2020-12-05T10:02:09.000Z</Time>
            <Position>
              <LatitudeDegrees>36.822254173457622528076171875</LatitudeDegrees>
              <LongitudeDegrees>-4.38383988104760646820068359375</LongitudeDegrees>
            </Position>
            <AltitudeMeters>788</AltitudeMeters>
            <DistanceMeters>NAN</DistanceMeters>
          </Trackpoint>
          <Trackpoint>
            <Time>2020-12-05T10:02:10.000Z</Time>
            <Position>
              <LatitudeDegrees>36.82226079516112804412841796875</LatitudeDegrees>
              <LongitudeDegrees>-4.3838518671691417694091796875</LongitudeDegrees>
            </Position>
            <AltitudeMeters>788</AltitudeMeters>
            <DistanceMeters>NAN</DistanceMeters>
          </Trackpoint>
          <Trackpoint>
            <Time>2020-12-05T10:02:11.000Z</Time>
            <Position>
              <LatitudeDegrees>36.82226766832172870635986328125</LatitudeDegrees>
              <LongitudeDegrees>-4.38386133871972560882568359375</LongitudeDegrees>
            </Position>
            <AltitudeMeters>788</AltitudeMeters>
            <DistanceMeters>NAN</DistanceMeters>
          </Trackpoint>
          <Trackpoint>
            <Time>2020-12-05T10:02:12.000Z</Time>
            <Position>
              <LatitudeDegrees>36.82227320037782192230224609375</LatitudeDegrees>
              <LongitudeDegrees>-4.383871816098690032958984375</LongitudeDegrees>
            </Position>
            <AltitudeMeters>788.20001220703125</AltitudeMeters>
            <DistanceMeters>NAN</DistanceMeters>
          </Trackpoint>
          <Trackpoint>
            <Time>2020-12-05T10:02:13.000Z</Time>
            <Position>
              <LatitudeDegrees>36.82228040881454944610595703125</LatitudeDegrees>
              <LongitudeDegrees>-4.38387843780219554901123046875</LongitudeDegrees>
            </Position>
            <AltitudeMeters>788.20001220703125</AltitudeMeters>
            <DistanceMeters>NAN</DistanceMeters>
          </Trackpoint>
          <Trackpoint>
            <Time>2020-12-05T10:02:14.000Z</Time>
            <Position>
              <LatitudeDegrees>36.82228929363191127777099609375</LatitudeDegrees>
              <LongitudeDegrees>-4.3838874064385890960693359375</LongitudeDegrees>
            </Position>
            <AltitudeMeters>788.20001220703125</AltitudeMeters>
            <DistanceMeters>NAN</DistanceMeters>
          </Trackpoint>
          <Trackpoint>
            <Time>2020-12-05T10:02:15.000Z</Time>
            <Position>
              <LatitudeDegrees>36.82230019010603427886962890625</LatitudeDegrees>
              <LongitudeDegrees>-4.3838967941701412200927734375</LongitudeDegrees>
            </Position>
            <AltitudeMeters>788</AltitudeMeters>
            <DistanceMeters>NAN</DistanceMeters>
          </Trackpoint>
          <Trackpoint>
            <Time>2020-12-05T10:02:16.000Z</Time>
            <Position>
              <LatitudeDegrees>36.8223126791417598724365234375</LatitudeDegrees>
              <LongitudeDegrees>-4.3839055113494396209716796875</LongitudeDegrees>
            </Position>
            <AltitudeMeters>787.79998779296875</AltitudeMeters>
            <DistanceMeters>NAN</DistanceMeters>
          </Trackpoint>
          <Trackpoint>
            <Time>2020-12-05T10:02:17.000Z</Time>
            <Position>
              <LatitudeDegrees>36.8223257549107074737548828125</LatitudeDegrees>
              <LongitudeDegrees>-4.38391431234776973724365234375</LongitudeDegrees>
            </Position>
            <AltitudeMeters>787.5999755859375</AltitudeMeters>
            <DistanceMeters>NAN</DistanceMeters>
          </Trackpoint>
          <Trackpoint>
            <Time>2020-12-05T10:02:18.000Z</Time>
            <Position>
              <LatitudeDegrees>36.82233924977481365203857421875</LatitudeDegrees>
              <LongitudeDegrees>-4.38392135314643383026123046875</LongitudeDegrees>
            </Position>
            <AltitudeMeters>787.5999755859375</AltitudeMeters>
            <DistanceMeters>NAN</DistanceMeters>
          </Trackpoint>
          <Trackpoint>
            <Time>2020-12-05T10:02:19.000Z</Time>
            <Position>
              <LatitudeDegrees>36.82235366664826869964599609375</LatitudeDegrees>
              <LongitudeDegrees>-4.38392579555511474609375</LongitudeDegrees>
            </Position>
            <AltitudeMeters>787.5999755859375</AltitudeMeters>
            <DistanceMeters>NAN</DistanceMeters>
          </Trackpoint>
          <Trackpoint>
            <Time>2020-12-05T10:02:20.000Z</Time>
            <Position>
              <LatitudeDegrees>36.8223676644265651702880859375</LatitudeDegrees>
              <LongitudeDegrees>-4.38393107615411281585693359375</LongitudeDegrees>
            </Position>
            <AltitudeMeters>787.5999755859375</AltitudeMeters>
            <DistanceMeters>NAN</DistanceMeters>
          </Trackpoint>
          <Trackpoint>
            <Time>2020-12-05T10:02:21.000Z</Time>
            <Position>
              <LatitudeDegrees>36.8223778903484344482421875</LatitudeDegrees>
              <LongitudeDegrees>-4.38393945805728435516357421875</LongitudeDegrees>
            </Position>
            <AltitudeMeters>787.5999755859375</AltitudeMeters>
            <DistanceMeters>NAN</DistanceMeters>
          </Trackpoint>
          <Trackpoint>
            <Time>2020-12-05T10:02:22.000Z</Time>
            <Position>
              <LatitudeDegrees>36.822390295565128326416015625</LatitudeDegrees>
              <LongitudeDegrees>-4.38394792377948760986328125</LongitudeDegrees>
            </Position>
            <AltitudeMeters>787.5999755859375</AltitudeMeters>
            <DistanceMeters>NAN</DistanceMeters>
          </Trackpoint>
          <Trackpoint>
            <Time>2020-12-05T10:02:23.000Z</Time>
            <Position>
              <LatitudeDegrees>36.82240194641053676605224609375</LatitudeDegrees>
              <LongitudeDegrees>-4.38395337201654911041259765625</LongitudeDegrees>
            </Position>
            <AltitudeMeters>787.79998779296875</AltitudeMeters>
            <DistanceMeters>NAN</DistanceMeters>
          </Trackpoint>
          <Trackpoint>
            <Time>2020-12-05T10:02:24.000Z</Time>
            <Position>
              <LatitudeDegrees>36.822411753237247467041015625</LatitudeDegrees>
              <LongitudeDegrees>-4.3839591555297374725341796875</LongitudeDegrees>
            </Position>
            <AltitudeMeters>787.79998779296875</AltitudeMeters>
            <DistanceMeters>NAN</DistanceMeters>
          </Trackpoint>
          <Trackpoint>
            <Time>2020-12-05T10:02:25.000Z</Time>
            <Position>
              <LatitudeDegrees>36.8224219791591167449951171875</LatitudeDegrees>
              <LongitudeDegrees>-4.38396460376679897308349609375</LongitudeDegrees>
            </Position>
            <AltitudeMeters>787.4000244140625</AltitudeMeters>
            <DistanceMeters>NAN</DistanceMeters>
          </Trackpoint>
          <Trackpoint>
            <Time>2020-12-05T10:02:26.000Z</Time>
            <Position>
              <LatitudeDegrees>36.8224288523197174072265625</LatitudeDegrees>
              <LongitudeDegrees>-4.38396778889000415802001953125</LongitudeDegrees>
            </Position>
            <AltitudeMeters>786.79998779296875</AltitudeMeters>
            <DistanceMeters>NAN</DistanceMeters>
          </Trackpoint>
          <Trackpoint>
            <Time>2020-12-05T10:02:27.000Z</Time>
            <Position>
              <LatitudeDegrees>36.82243748567998409271240234375</LatitudeDegrees>
              <LongitudeDegrees>-4.3839715607464313507080078125</LongitudeDegrees>
            </Position>
            <AltitudeMeters>786.20001220703125</AltitudeMeters>
            <DistanceMeters>NAN</DistanceMeters>
          </Trackpoint>
          <Trackpoint>
            <Time>2020-12-05T10:02:28.000Z</Time>
            <Position>
              <LatitudeDegrees>36.822445280849933624267578125</LatitudeDegrees>
              <LongitudeDegrees>-4.3839762546122074127197265625</LongitudeDegrees>
            </Position>
            <AltitudeMeters>785.79998779296875</AltitudeMeters>
            <DistanceMeters>NAN</DistanceMeters>
          </Trackpoint>
          <Trackpoint>
            <Time>2020-12-05T10:02:29.000Z</Time>
            <Position>
              <LatitudeDegrees>36.82245441712439060211181640625</LatitudeDegrees>
              <LongitudeDegrees>-4.3839826248586177825927734375</LongitudeDegrees>
            </Position>
            <AltitudeMeters>785.4000244140625</AltitudeMeters>
            <DistanceMeters>NAN</DistanceMeters>
          </Trackpoint>
          <Trackpoint>
            <Time>2020-12-05T10:02:30.000Z</Time>
            <Position>
              <LatitudeDegrees>36.822465397417545318603515625</LatitudeDegrees>
              <LongitudeDegrees>-4.38398740254342555999755859375</LongitudeDegrees>
            </Position>
            <AltitudeMeters>785.20001220703125</AltitudeMeters>
            <DistanceMeters>NAN</DistanceMeters>
          </Trackpoint>
          <Trackpoint>
            <Time>2020-12-05T10:02:31.000Z</Time>
            <Position>
              <LatitudeDegrees>36.82247570715844631195068359375</LatitudeDegrees>
              <LongitudeDegrees>-4.38399394042789936065673828125</LongitudeDegrees>
            </Position>
            <AltitudeMeters>785.20001220703125</AltitudeMeters>
            <DistanceMeters>NAN</DistanceMeters>
          </Trackpoint>
          <Trackpoint>
            <Time>2020-12-05T10:02:32.000Z</Time>
            <Position>
              <LatitudeDegrees>36.82248844765126705169677734375</LatitudeDegrees>
              <LongitudeDegrees>-4.38399779610335826873779296875</LongitudeDegrees>
            </Position>
            <AltitudeMeters>785.20001220703125</AltitudeMeters>
            <DistanceMeters>NAN</DistanceMeters>
          </Trackpoint>
          <Trackpoint>
            <Time>2020-12-05T10:02:33.000Z</Time>
            <Position>
              <LatitudeDegrees>36.8225034512579441070556640625</LatitudeDegrees>
              <LongitudeDegrees>-4.38400383107364177703857421875</LongitudeDegrees>
            </Position>
            <AltitudeMeters>785.20001220703125</AltitudeMeters>
            <DistanceMeters>NAN</DistanceMeters>
          </Trackpoint>
          <Trackpoint>
            <Time>2020-12-05T10:02:34.000Z</Time>
            <Position>
              <LatitudeDegrees>36.82251979596912860870361328125</LatitudeDegrees>
              <LongitudeDegrees>-4.3840076029300689697265625</LongitudeDegrees>
            </Position>
            <AltitudeMeters>785.20001220703125</AltitudeMeters>
            <DistanceMeters>NAN</DistanceMeters>
          </Trackpoint>
          <Trackpoint>
            <Time>2020-12-05T10:02:35.000Z</Time>
            <Position>
              <LatitudeDegrees>36.8225347995758056640625</LatitudeDegrees>
              <LongitudeDegrees>-4.3840102851390838623046875</LongitudeDegrees>
            </Position>
            <AltitudeMeters>785.20001220703125</AltitudeMeters>
            <DistanceMeters>NAN</DistanceMeters>
          </Trackpoint>
          <Trackpoint>
            <Time>2020-12-05T10:02:36.000Z</Time>
            <Position>
              <LatitudeDegrees>36.8225468695163726806640625</LatitudeDegrees>
              <LongitudeDegrees>-4.38401229679584503173828125</LongitudeDegrees>
            </Position>
            <AltitudeMeters>785.20001220703125</AltitudeMeters>
            <DistanceMeters>NAN</DistanceMeters>
          </Trackpoint>
          <Trackpoint>
            <Time>2020-12-05T10:02:37.000Z</Time>
            <Position>
              <LatitudeDegrees>36.82256036438047885894775390625</LatitudeDegrees>
              <LongitudeDegrees>-4.38401238061487674713134765625</LongitudeDegrees>
            </Position>
            <AltitudeMeters>785.20001220703125</AltitudeMeters>
            <DistanceMeters>NAN</DistanceMeters>
          </Trackpoint>
          <Trackpoint>
            <Time>2020-12-05T10:02:38.000Z</Time>
            <Position>
              <LatitudeDegrees>36.82257167994976043701171875</LatitudeDegrees>
              <LongitudeDegrees>-4.3840114586055278778076171875</LongitudeDegrees>
            </Position>
            <AltitudeMeters>785.20001220703125</AltitudeMeters>
            <DistanceMeters>NAN</DistanceMeters>
          </Trackpoint>
          <Trackpoint>
            <Time>2020-12-05T10:02:39.000Z</Time>
            <Position>
              <LatitudeDegrees>36.82258299551904201507568359375</LatitudeDegrees>
              <LongitudeDegrees>-4.3840054236352443695068359375</LongitudeDegrees>
            </Position>
            <AltitudeMeters>785.20001220703125</AltitudeMeters>
            <DistanceMeters>NAN</DistanceMeters>
          </Trackpoint>
          <Trackpoint>
            <Time>2020-12-05T10:02:40.000Z</Time>
            <Position>
              <LatitudeDegrees>36.8225966580212116241455078125</LatitudeDegrees>
              <LongitudeDegrees>-4.38400031067430973052978515625</LongitudeDegrees>
            </Position>
            <AltitudeMeters>785.20001220703125</AltitudeMeters>
            <DistanceMeters>NAN</DistanceMeters>
          </Trackpoint>
          <Trackpoint>
            <Time>2020-12-05T10:02:41.000Z</Time>
            <Position>
              <LatitudeDegrees>36.8226080574095249176025390625</LatitudeDegrees>
              <LongitudeDegrees>-4.38399863429367542266845703125</LongitudeDegrees>
            </Position>
            <AltitudeMeters>784.79998779296875</AltitudeMeters>
            <DistanceMeters>NAN</DistanceMeters>
          </Trackpoint>
          <Trackpoint>
            <Time>2020-12-05T10:02:42.000Z</Time>
            <Position>
              <LatitudeDegrees>36.822617612779140472412109375</LatitudeDegrees>
              <LongitudeDegrees>-4.3839970417320728302001953125</LongitudeDegrees>
            </Position>
            <AltitudeMeters>784.5999755859375</AltitudeMeters>
            <DistanceMeters>NAN</DistanceMeters>
          </Trackpoint>
          <Trackpoint>
            <Time>2020-12-05T10:02:43.000Z</Time>
            <Position>
              <LatitudeDegrees>36.82263211347162723541259765625</LatitudeDegrees>
              <LongitudeDegrees>-4.38399964012205600738525390625</LongitudeDegrees>
            </Position>
            <AltitudeMeters>784.4000244140625</AltitudeMeters>
            <DistanceMeters>NAN</DistanceMeters>
          </Trackpoint>
          <Trackpoint>
            <Time>2020-12-05T10:02:44.000Z</Time>
            <Position>
              <LatitudeDegrees>36.82264870963990688323974609375</LatitudeDegrees>
              <LongitudeDegrees>-4.3840050883591175079345703125</LongitudeDegrees>
            </Position>
            <AltitudeMeters>784.4000244140625</AltitudeMeters>
            <DistanceMeters>NAN</DistanceMeters>
          </Trackpoint>
          <Trackpoint>
            <Time>2020-12-05T10:02:45.000Z</Time>
            <Position>
              <LatitudeDegrees>36.82266262359917163848876953125</LatitudeDegrees>
              <LongitudeDegrees>-4.38400961458683013916015625</LongitudeDegrees>
            </Position>
            <AltitudeMeters>784.4000244140625</AltitudeMeters>
            <DistanceMeters>NAN</DistanceMeters>
          </Trackpoint>
          <Trackpoint>
            <Time>2020-12-05T10:02:46.000Z</Time>
            <Position>
              <LatitudeDegrees>36.82267435826361179351806640625</LatitudeDegrees>
              <LongitudeDegrees>-4.38401087187230587005615234375</LongitudeDegrees>
            </Position>
            <AltitudeMeters>784.4000244140625</AltitudeMeters>
            <DistanceMeters>NAN</DistanceMeters>
          </Trackpoint>
          <Trackpoint>
            <Time>2020-12-05T10:02:47.000Z</Time>
            <Position>
              <LatitudeDegrees>36.8226885236799716949462890625</LatitudeDegrees>
              <LongitudeDegrees>-4.38401103951036930084228515625</LongitudeDegrees>
            </Position>
            <AltitudeMeters>784.4000244140625</AltitudeMeters>
            <DistanceMeters>NAN</DistanceMeters>
          </Trackpoint>
          <Trackpoint>
            <Time>2020-12-05T10:02:48.000Z</Time>
            <Position>
              <LatitudeDegrees>36.822706125676631927490234375</LatitudeDegrees>
              <LongitudeDegrees>-4.38401321880519390106201171875</LongitudeDegrees>
            </Position>
            <AltitudeMeters>784.5999755859375</AltitudeMeters>
            <DistanceMeters>NAN</DistanceMeters>
          </Trackpoint>
          <Trackpoint>
            <Time>2020-12-05T10:02:49.000Z</Time>
            <Position>
              <LatitudeDegrees>36.82272247038781642913818359375</LatitudeDegrees>
              <LongitudeDegrees>-4.3840148113667964935302734375</LongitudeDegrees>
            </Position>
            <AltitudeMeters>784.5999755859375</AltitudeMeters>
            <DistanceMeters>NAN</DistanceMeters>
          </Trackpoint>
          <Trackpoint>
            <Time>2020-12-05T10:02:50.000Z</Time>
            <Position>
              <LatitudeDegrees>36.82273328304290771484375</LatitudeDegrees>
              <LongitudeDegrees>-4.38401422463357448577880859375</LongitudeDegrees>
            </Position>
            <AltitudeMeters>784.5999755859375</AltitudeMeters>
            <DistanceMeters>NAN</DistanceMeters>
          </Trackpoint>
          <Trackpoint>
            <Time>2020-12-05T10:02:51.000Z</Time>
            <Position>
              <LatitudeDegrees>36.82274258695542812347412109375</LatitudeDegrees>
              <LongitudeDegrees>-4.38401338644325733184814453125</LongitudeDegrees>
            </Position>
            <AltitudeMeters>784.79998779296875</AltitudeMeters>
            <DistanceMeters>NAN</DistanceMeters>
          </Trackpoint>
          <Trackpoint>
            <Time>2020-12-05T10:02:52.000Z</Time>
            <Position>
              <LatitudeDegrees>36.8227508850395679473876953125</LatitudeDegrees>
              <LongitudeDegrees>-4.3840094469487667083740234375</LongitudeDegrees>
            </Position>
            <AltitudeMeters>784.79998779296875</AltitudeMeters>
            <DistanceMeters>NAN</DistanceMeters>
          </Trackpoint>
          <Trackpoint>
            <Time>2020-12-05T10:02:53.000Z</Time>
            <Position>
              <LatitudeDegrees>36.82275968603789806365966796875</LatitudeDegrees>
              <LongitudeDegrees>-4.38400517217814922332763671875</LongitudeDegrees>
            </Position>
            <AltitudeMeters>784.79998779296875</AltitudeMeters>
            <DistanceMeters>NAN</DistanceMeters>
          </Trackpoint>
          <Trackpoint>
            <Time>2020-12-05T10:02:54.000Z</Time>
            <Position>
              <LatitudeDegrees>36.822769157588481903076171875</LatitudeDegrees>
              <LongitudeDegrees>-4.38400031067430973052978515625</LongitudeDegrees>
            </Position>
            <AltitudeMeters>784.79998779296875</AltitudeMeters>
            <DistanceMeters>NAN</DistanceMeters>
          </Trackpoint>
          <Trackpoint>
            <Time>2020-12-05T10:02:55.000Z</Time>
            <Position>
              <LatitudeDegrees>36.82277913205325603485107421875</LatitudeDegrees>
              <LongitudeDegrees>-4.3839941918849945068359375</LongitudeDegrees>
            </Position>
            <AltitudeMeters>784.5999755859375</AltitudeMeters>
            <DistanceMeters>NAN</DistanceMeters>
          </Trackpoint>
          <Trackpoint>
            <Time>2020-12-05T10:02:56.000Z</Time>
            <Position>
              <LatitudeDegrees>36.8227904476225376129150390625</LatitudeDegrees>
              <LongitudeDegrees>-4.38398773781955242156982421875</LongitudeDegrees>
            </Position>
            <AltitudeMeters>784.4000244140625</AltitudeMeters>
            <DistanceMeters>NAN</DistanceMeters>
          </Trackpoint>
          <Trackpoint>
            <Time>2020-12-05T10:02:57.000Z</Time>
            <Position>
              <LatitudeDegrees>36.82279975153505802154541015625</LatitudeDegrees>
              <LongitudeDegrees>-4.38398187048733234405517578125</LongitudeDegrees>
            </Position>
            <AltitudeMeters>784.20001220703125</AltitudeMeters>
            <DistanceMeters>NAN</DistanceMeters>
          </Trackpoint>
          <Trackpoint>
            <Time>2020-12-05T10:02:58.000Z</Time>
            <Position>
              <LatitudeDegrees>36.82280863635241985321044921875</LatitudeDegrees>
              <LongitudeDegrees>-4.38397617079317569732666015625</LongitudeDegrees>
            </Position>
            <AltitudeMeters>784</AltitudeMeters>
            <DistanceMeters>NAN</DistanceMeters>
          </Trackpoint>
          <Trackpoint>
            <Time>2020-12-05T10:02:59.000Z</Time>
            <Position>
              <LatitudeDegrees>36.82281483896076679229736328125</LatitudeDegrees>
              <LongitudeDegrees>-4.3839700520038604736328125</LongitudeDegrees>
            </Position>
            <AltitudeMeters>783.79998779296875</AltitudeMeters>
            <DistanceMeters>NAN</DistanceMeters>
          </Trackpoint>
          <Trackpoint>
            <Time>2020-12-05T10:03:00.000Z</Time>
            <Position>
              <LatitudeDegrees>36.822818107903003692626953125</LatitudeDegrees>
              <LongitudeDegrees>-4.38396007753908634185791015625</LongitudeDegrees>
            </Position>
            <AltitudeMeters>783.4000244140625</AltitudeMeters>
            <DistanceMeters>NAN</DistanceMeters>
          </Trackpoint>
          <Trackpoint>
            <Time>2020-12-05T10:03:01.000Z</Time>
            <Position>
              <LatitudeDegrees>36.8228259868919849395751953125</LatitudeDegrees>
              <LongitudeDegrees>-4.38395672477781772613525390625</LongitudeDegrees>
            </Position>
            <AltitudeMeters>783.4000244140625</AltitudeMeters>
            <DistanceMeters>NAN</DistanceMeters>
          </Trackpoint>
          <Trackpoint>
            <Time>2020-12-05T10:03:02.000Z</Time>
            <Position>
              <LatitudeDegrees>36.82283177040517330169677734375</LatitudeDegrees>
              <LongitudeDegrees>-4.38395169563591480255126953125</LongitudeDegrees>
            </Position>
            <AltitudeMeters>783.20001220703125</AltitudeMeters>
            <DistanceMeters>NAN</DistanceMeters>
          </Trackpoint>
          <Trackpoint>
            <Time>2020-12-05T10:03:03.000Z</Time>
            <Position>
              <LatitudeDegrees>36.822842247784137725830078125</LatitudeDegrees>
              <LongitudeDegrees>-4.38394566066563129425048828125</LongitudeDegrees>
            </Position>
            <AltitudeMeters>783.20001220703125</AltitudeMeters>
            <DistanceMeters>NAN</DistanceMeters>
          </Trackpoint>
          <Trackpoint>
            <Time>2020-12-05T10:03:04.000Z</Time>
            <Position>
              <LatitudeDegrees>36.82286295108497142791748046875</LatitudeDegrees>
              <LongitudeDegrees>-4.38394398428499698638916015625</LongitudeDegrees>
            </Position>
            <AltitudeMeters>783.20001220703125</AltitudeMeters>
            <DistanceMeters>NAN</DistanceMeters>
          </Trackpoint>
          <Trackpoint>
            <Time>2020-12-05T10:03:05.000Z</Time>
            <Position>
              <LatitudeDegrees>36.82287837378680706024169921875</LatitudeDegrees>
              <LongitudeDegrees>-4.38394566066563129425048828125</LongitudeDegrees>
            </Position>
            <AltitudeMeters>783.20001220703125</AltitudeMeters>
            <DistanceMeters>NAN</DistanceMeters>
          </Trackpoint>
          <Trackpoint>
            <Time>2020-12-05T10:03:06.000Z</Time>
            <Position>
              <LatitudeDegrees>36.82288843207061290740966796875</LatitudeDegrees>
              <LongitudeDegrees>-4.38395052216947078704833984375</LongitudeDegrees>
            </Position>
            <AltitudeMeters>783.20001220703125</AltitudeMeters>
            <DistanceMeters>NAN</DistanceMeters>
          </Trackpoint>
          <Trackpoint>
            <Time>2020-12-05T10:03:07.000Z</Time>
            <Position>
              <LatitudeDegrees>36.82289597578346729278564453125</LatitudeDegrees>
              <LongitudeDegrees>-4.38395571894943714141845703125</LongitudeDegrees>
            </Position>
            <AltitudeMeters>783.20001220703125</AltitudeMeters>
            <DistanceMeters>NAN</DistanceMeters>
          </Trackpoint>
          <Trackpoint>
            <Time>2020-12-05T10:03:08.000Z</Time>
            <Position>
              <LatitudeDegrees>36.822903268039226531982421875</LatitudeDegrees>
              <LongitudeDegrees>-4.38395990990102291107177734375</LongitudeDegrees>
            </Position>
            <AltitudeMeters>783.20001220703125</AltitudeMeters>
            <DistanceMeters>NAN</DistanceMeters>
          </Trackpoint>
          <Trackpoint>
            <Time>2020-12-05T10:03:09.000Z</Time>
            <Position>
              <LatitudeDegrees>36.82291089557111263275146484375</LatitudeDegrees>
              <LongitudeDegrees>-4.383960999548435211181640625</LongitudeDegrees>
            </Position>
            <AltitudeMeters>783.20001220703125</AltitudeMeters>
            <DistanceMeters>NAN</DistanceMeters>
          </Trackpoint>
          <Trackpoint>
            <Time>2020-12-05T10:03:10.000Z</Time>
            <Position>
              <LatitudeDegrees>36.8229205347597599029541015625</LatitudeDegrees>
              <LongitudeDegrees>-4.38396359793841838836669921875</LongitudeDegrees>
            </Position>
            <AltitudeMeters>783.20001220703125</AltitudeMeters>
            <DistanceMeters>NAN</DistanceMeters>
          </Trackpoint>
          <Trackpoint>
            <Time>2020-12-05T10:03:11.000Z</Time>
            <Position>
              <LatitudeDegrees>36.82293050922453403472900390625</LatitudeDegrees>
              <LongitudeDegrees>-4.38396594487130641937255859375</LongitudeDegrees>
            </Position>
            <AltitudeMeters>783.20001220703125</AltitudeMeters>
            <DistanceMeters>NAN</DistanceMeters>
          </Trackpoint>
          <Trackpoint>
            <Time>2020-12-05T10:03:12.000Z</Time>
            <Position>
              <LatitudeDegrees>36.82294677011668682098388671875</LatitudeDegrees>
              <LongitudeDegrees>-4.38397030346095561981201171875</LongitudeDegrees>
            </Position>
            <AltitudeMeters>783.20001220703125</AltitudeMeters>
            <DistanceMeters>NAN</DistanceMeters>
          </Trackpoint>
          <Trackpoint>
            <Time>2020-12-05T10:03:13.000Z</Time>
            <Position>
              <LatitudeDegrees>36.82296068407595157623291015625</LatitudeDegrees>
              <LongitudeDegrees>-4.38397281803190708160400390625</LongitudeDegrees>
            </Position>
            <AltitudeMeters>783</AltitudeMeters>
            <DistanceMeters>NAN</DistanceMeters>
          </Trackpoint>
          <Trackpoint>
            <Time>2020-12-05T10:03:14.000Z</Time>
            <Position>
              <LatitudeDegrees>36.8229751847684383392333984375</LatitudeDegrees>
              <LongitudeDegrees>-4.3839762546122074127197265625</LongitudeDegrees>
            </Position>
            <AltitudeMeters>783</AltitudeMeters>
            <DistanceMeters>NAN</DistanceMeters>
          </Trackpoint>
          <Trackpoint>
            <Time>2020-12-05T10:03:15.000Z</Time>
            <Position>
              <LatitudeDegrees>36.82299119420349597930908203125</LatitudeDegrees>
              <LongitudeDegrees>-4.3839780986309051513671875</LongitudeDegrees>
            </Position>
            <AltitudeMeters>782.79998779296875</AltitudeMeters>
            <DistanceMeters>NAN</DistanceMeters>
          </Trackpoint>
          <Trackpoint>
            <Time>2020-12-05T10:03:16.000Z</Time>
            <Position>
              <LatitudeDegrees>36.8230082094669342041015625</LatitudeDegrees>
              <LongitudeDegrees>-4.38398404978215694427490234375</LongitudeDegrees>
            </Position>
            <AltitudeMeters>782.79998779296875</AltitudeMeters>
            <DistanceMeters>NAN</DistanceMeters>
          </Trackpoint>
          <Trackpoint>
            <Time>2020-12-05T10:03:17.000Z</Time>
            <Position>
              <LatitudeDegrees>36.82302472181618213653564453125</LatitudeDegrees>
              <LongitudeDegrees>-4.38398757018148899078369140625</LongitudeDegrees>
            </Position>
            <AltitudeMeters>782.4000244140625</AltitudeMeters>
            <DistanceMeters>NAN</DistanceMeters>
          </Trackpoint>
          <Trackpoint>
            <Time>2020-12-05T10:03:18.000Z</Time>
            <Position>
              <LatitudeDegrees>36.823041401803493499755859375</LatitudeDegrees>
              <LongitudeDegrees>-4.38399042002856731414794921875</LongitudeDegrees>
            </Position>
            <AltitudeMeters>782.4000244140625</AltitudeMeters>
            <DistanceMeters>NAN</DistanceMeters>
          </Trackpoint>
          <Trackpoint>
            <Time>2020-12-05T10:03:19.000Z</Time>
            <Position>
              <LatitudeDegrees>36.82305623777210712432861328125</LatitudeDegrees>
              <LongitudeDegrees>-4.38399259932339191436767578125</LongitudeDegrees>
            </Position>
            <AltitudeMeters>782.20001220703125</AltitudeMeters>
            <DistanceMeters>NAN</DistanceMeters>
          </Trackpoint>
          <Trackpoint>
            <Time>2020-12-05T10:03:20.000Z</Time>
            <Position>
              <LatitudeDegrees>36.82307098992168903350830078125</LatitudeDegrees>
              <LongitudeDegrees>-4.383990503847599029541015625</LongitudeDegrees>
            </Position>
            <AltitudeMeters>782</AltitudeMeters>
            <DistanceMeters>NAN</DistanceMeters>
          </Trackpoint>
          <Trackpoint>
            <Time>2020-12-05T10:03:21.000Z</Time>
            <Position>
              <LatitudeDegrees>36.82308104820549488067626953125</LatitudeDegrees>
              <LongitudeDegrees>-4.38398572616279125213623046875</LongitudeDegrees>
            </Position>
            <AltitudeMeters>781.79998779296875</AltitudeMeters>
            <DistanceMeters>NAN</DistanceMeters>
          </Trackpoint>
          <Trackpoint>
            <Time>2020-12-05T10:03:22.000Z</Time>
            <Position>
              <LatitudeDegrees>36.82308708317577838897705078125</LatitudeDegrees>
              <LongitudeDegrees>-4.38398069702088832855224609375</LongitudeDegrees>
            </Position>
            <AltitudeMeters>781.79998779296875</AltitudeMeters>
            <DistanceMeters>NAN</DistanceMeters>
          </Trackpoint>
          <Trackpoint>
            <Time>2020-12-05T10:03:23.000Z</Time>
            <Position>
              <LatitudeDegrees>36.82309429161250591278076171875</LatitudeDegrees>
              <LongitudeDegrees>-4.38397952355444431304931640625</LongitudeDegrees>
            </Position>
            <AltitudeMeters>781.5999755859375</AltitudeMeters>
            <DistanceMeters>NAN</DistanceMeters>
          </Trackpoint>
          <Trackpoint>
            <Time>2020-12-05T10:03:24.000Z</Time>
            <Position>
              <LatitudeDegrees>36.82310183532536029815673828125</LatitudeDegrees>
              <LongitudeDegrees>-4.3839799426496028900146484375</LongitudeDegrees>
            </Position>
            <AltitudeMeters>781.5999755859375</AltitudeMeters>
            <DistanceMeters>NAN</DistanceMeters>
          </Trackpoint>
          <Trackpoint>
            <Time>2020-12-05T10:03:25.000Z</Time>
            <Position>
              <LatitudeDegrees>36.8231103010475635528564453125</LatitudeDegrees>
              <LongitudeDegrees>-4.3839816190302371978759765625</LongitudeDegrees>
            </Position>
            <AltitudeMeters>781.79998779296875</AltitudeMeters>
            <DistanceMeters>NAN</DistanceMeters>
          </Trackpoint>
          <Trackpoint>
            <Time>2020-12-05T10:03:26.000Z</Time>
            <Position>
              <LatitudeDegrees>36.8231220357120037078857421875</LatitudeDegrees>
              <LongitudeDegrees>-4.3839786015450954437255859375</LongitudeDegrees>
            </Position>
            <AltitudeMeters>782</AltitudeMeters>
            <DistanceMeters>NAN</DistanceMeters>
          </Trackpoint>
          <Trackpoint>
            <Time>2020-12-05T10:03:27.000Z</Time>
            <Position>
              <LatitudeDegrees>36.823132932186126708984375</LatitudeDegrees>
              <LongitudeDegrees>-4.383973740041255950927734375</LongitudeDegrees>
            </Position>
            <AltitudeMeters>782</AltitudeMeters>
            <DistanceMeters>NAN</DistanceMeters>
          </Trackpoint>
          <Trackpoint>
            <Time>2020-12-05T10:03:28.000Z</Time>
            <Position>
              <LatitudeDegrees>36.823143325746059417724609375</LatitudeDegrees>
              <LongitudeDegrees>-4.3839708901941776275634765625</LongitudeDegrees>
            </Position>
            <AltitudeMeters>782</AltitudeMeters>
            <DistanceMeters>NAN</DistanceMeters>
          </Trackpoint>
          <Trackpoint>
            <Time>2020-12-05T10:03:29.000Z</Time>
            <Position>
              <LatitudeDegrees>36.82315313257277011871337890625</LatitudeDegrees>
              <LongitudeDegrees>-4.38396845944225788116455078125</LongitudeDegrees>
            </Position>
            <AltitudeMeters>782</AltitudeMeters>
            <DistanceMeters>NAN</DistanceMeters>
          </Trackpoint>
          <Trackpoint>
            <Time>2020-12-05T10:03:30.000Z</Time>
            <Position>
              <LatitudeDegrees>36.82316352613270282745361328125</LatitudeDegrees>
              <LongitudeDegrees>-4.38396963290870189666748046875</LongitudeDegrees>
            </Position>
            <AltitudeMeters>781.79998779296875</AltitudeMeters>
            <DistanceMeters>NAN</DistanceMeters>
          </Trackpoint>
          <Trackpoint>
            <Time>2020-12-05T10:03:31.000Z</Time>
            <Position>
              <LatitudeDegrees>36.8231745064258575439453125</LatitudeDegrees>
              <LongitudeDegrees>-4.38397583551704883575439453125</LongitudeDegrees>
            </Position>
            <AltitudeMeters>781.5999755859375</AltitudeMeters>
            <DistanceMeters>NAN</DistanceMeters>
          </Trackpoint>
          <Trackpoint>
            <Time>2020-12-05T10:03:32.000Z</Time>
            <Position>
              <LatitudeDegrees>36.823189258575439453125</LatitudeDegrees>
              <LongitudeDegrees>-4.3839849717915058135986328125</LongitudeDegrees>
            </Position>
            <AltitudeMeters>781.5999755859375</AltitudeMeters>
            <DistanceMeters>NAN</DistanceMeters>
          </Trackpoint>
          <Trackpoint>
            <Time>2020-12-05T10:03:33.000Z</Time>
            <Position>
              <LatitudeDegrees>36.82320359162986278533935546875</LatitudeDegrees>
              <LongitudeDegrees>-4.3839923478662967681884765625</LongitudeDegrees>
            </Position>
            <AltitudeMeters>781.4000244140625</AltitudeMeters>
            <DistanceMeters>NAN</DistanceMeters>
          </Trackpoint>
          <Trackpoint>
            <Time>2020-12-05T10:03:34.000Z</Time>
            <Position>
              <LatitudeDegrees>36.82321884669363498687744140625</LatitudeDegrees>
              <LongitudeDegrees>-4.38399746082723140716552734375</LongitudeDegrees>
            </Position>
            <AltitudeMeters>781.4000244140625</AltitudeMeters>
            <DistanceMeters>NAN</DistanceMeters>
          </Trackpoint>
          <Trackpoint>
            <Time>2020-12-05T10:03:35.000Z</Time>
            <Position>
              <LatitudeDegrees>36.82323410175740718841552734375</LatitudeDegrees>
              <LongitudeDegrees>-4.38400181941688060760498046875</LongitudeDegrees>
            </Position>
            <AltitudeMeters>781.20001220703125</AltitudeMeters>
            <DistanceMeters>NAN</DistanceMeters>
          </Trackpoint>
          <Trackpoint>
            <Time>2020-12-05T10:03:36.000Z</Time>
            <Position>
              <LatitudeDegrees>36.82324667461216449737548828125</LatitudeDegrees>
              <LongitudeDegrees>-4.38400064595043659210205078125</LongitudeDegrees>
            </Position>
            <AltitudeMeters>781</AltitudeMeters>
            <DistanceMeters>NAN</DistanceMeters>
          </Trackpoint>
          <Trackpoint>
            <Time>2020-12-05T10:03:37.000Z</Time>
            <Position>
              <LatitudeDegrees>36.82325991801917552947998046875</LatitudeDegrees>
              <LongitudeDegrees>-4.3839957006275653839111328125</LongitudeDegrees>
            </Position>
            <AltitudeMeters>780.79998779296875</AltitudeMeters>
            <DistanceMeters>NAN</DistanceMeters>
          </Trackpoint>
          <Trackpoint>
            <Time>2020-12-05T10:03:38.000Z</Time>
            <Position>
              <LatitudeDegrees>36.82327282615005970001220703125</LatitudeDegrees>
              <LongitudeDegrees>-4.383986480534076690673828125</LongitudeDegrees>
            </Position>
            <AltitudeMeters>780.5999755859375</AltitudeMeters>
            <DistanceMeters>NAN</DistanceMeters>
          </Trackpoint>
          <Trackpoint>
            <Time>2020-12-05T10:03:39.000Z</Time>
            <Position>
              <LatitudeDegrees>36.823284141719341278076171875</LatitudeDegrees>
              <LongitudeDegrees>-4.38397902064025402069091796875</LongitudeDegrees>
            </Position>
            <AltitudeMeters>780.4000244140625</AltitudeMeters>
            <DistanceMeters>NAN</DistanceMeters>
          </Trackpoint>
          <Trackpoint>
            <Time>2020-12-05T10:03:40.000Z</Time>
            <Position>
              <LatitudeDegrees>36.82329545728862285614013671875</LatitudeDegrees>
              <LongitudeDegrees>-4.3839718960225582122802734375</LongitudeDegrees>
            </Position>
            <AltitudeMeters>780.4000244140625</AltitudeMeters>
            <DistanceMeters>NAN</DistanceMeters>
          </Trackpoint>
          <Trackpoint>
            <Time>2020-12-05T10:03:41.000Z</Time>
            <Position>
              <LatitudeDegrees>36.8233086168766021728515625</LatitudeDegrees>
              <LongitudeDegrees>-4.38396912999451160430908203125</LongitudeDegrees>
            </Position>
            <AltitudeMeters>780.4000244140625</AltitudeMeters>
            <DistanceMeters>NAN</DistanceMeters>
          </Trackpoint>
          <Trackpoint>
            <Time>2020-12-05T10:03:42.000Z</Time>
            <Position>
              <LatitudeDegrees>36.823319680988788604736328125</LatitudeDegrees>
              <LongitudeDegrees>-4.3839661963284015655517578125</LongitudeDegrees>
            </Position>
            <AltitudeMeters>780.5999755859375</AltitudeMeters>
            <DistanceMeters>NAN</DistanceMeters>
          </Trackpoint>
          <Trackpoint>
            <Time>2020-12-05T10:03:43.000Z</Time>
            <Position>
              <LatitudeDegrees>36.8233285658061504364013671875</LatitudeDegrees>
              <LongitudeDegrees>-4.38396309502422809600830078125</LongitudeDegrees>
            </Position>
            <AltitudeMeters>780.5999755859375</AltitudeMeters>
            <DistanceMeters>NAN</DistanceMeters>
          </Trackpoint>
          <Trackpoint>
            <Time>2020-12-05T10:03:44.000Z</Time>
            <Position>
              <LatitudeDegrees>36.82333736680448055267333984375</LatitudeDegrees>
              <LongitudeDegrees>-4.38395773060619831085205078125</LongitudeDegrees>
            </Position>
            <AltitudeMeters>780.5999755859375</AltitudeMeters>
            <DistanceMeters>NAN</DistanceMeters>
          </Trackpoint>
          <Trackpoint>
            <Time>2020-12-05T10:03:45.000Z</Time>
            <Position>
              <LatitudeDegrees>36.823347173631191253662109375</LatitudeDegrees>
              <LongitudeDegrees>-4.383956976234912872314453125</LongitudeDegrees>
            </Position>
            <AltitudeMeters>780.5999755859375</AltitudeMeters>
            <DistanceMeters>NAN</DistanceMeters>
          </Trackpoint>
          <Trackpoint>
            <Time>2020-12-05T10:03:46.000Z</Time>
            <Position>
              <LatitudeDegrees>36.82335463352501392364501953125</LatitudeDegrees>
              <LongitudeDegrees>-4.3839514441788196563720703125</LongitudeDegrees>
            </Position>
            <AltitudeMeters>780.4000244140625</AltitudeMeters>
            <DistanceMeters>NAN</DistanceMeters>
          </Trackpoint>
          <Trackpoint>
            <Time>2020-12-05T10:03:47.000Z</Time>
            <Position>
              <LatitudeDegrees>36.82336268015205860137939453125</LatitudeDegrees>
              <LongitudeDegrees>-4.383946917951107025146484375</LongitudeDegrees>
            </Position>
            <AltitudeMeters>780.4000244140625</AltitudeMeters>
            <DistanceMeters>NAN</DistanceMeters>
          </Trackpoint>
          <Trackpoint>
            <Time>2020-12-05T10:03:48.000Z</Time>
            <Position>
              <LatitudeDegrees>36.8233694694936275482177734375</LatitudeDegrees>
              <LongitudeDegrees>-4.38394180499017238616943359375</LongitudeDegrees>
            </Position>
            <AltitudeMeters>780.20001220703125</AltitudeMeters>
            <DistanceMeters>NAN</DistanceMeters>
          </Trackpoint>
          <Trackpoint>
            <Time>2020-12-05T10:03:49.000Z</Time>
            <Position>
              <LatitudeDegrees>36.823377348482608795166015625</LatitudeDegrees>
              <LongitudeDegrees>-4.3839373625814914703369140625</LongitudeDegrees>
            </Position>
            <AltitudeMeters>780.20001220703125</AltitudeMeters>
            <DistanceMeters>NAN</DistanceMeters>
          </Trackpoint>
          <Trackpoint>
            <Time>2020-12-05T10:03:50.000Z</Time>
            <Position>
              <LatitudeDegrees>36.823386065661907196044921875</LatitudeDegrees>
              <LongitudeDegrees>-4.3839346803724765777587890625</LongitudeDegrees>
            </Position>
            <AltitudeMeters>780.20001220703125</AltitudeMeters>
            <DistanceMeters>NAN</DistanceMeters>
          </Trackpoint>
          <Trackpoint>
            <Time>2020-12-05T10:03:51.000Z</Time>
            <Position>
              <LatitudeDegrees>36.8233959563076496124267578125</LatitudeDegrees>
              <LongitudeDegrees>-4.3839353509247303009033203125</LongitudeDegrees>
            </Position>
            <AltitudeMeters>780.4000244140625</AltitudeMeters>
            <DistanceMeters>NAN</DistanceMeters>
          </Trackpoint>
          <Trackpoint>
            <Time>2020-12-05T10:03:52.000Z</Time>
            <Position>
              <LatitudeDegrees>36.82340760715305805206298828125</LatitudeDegrees>
              <LongitudeDegrees>-4.3839330039918422698974609375</LongitudeDegrees>
            </Position>
            <AltitudeMeters>780.5999755859375</AltitudeMeters>
            <DistanceMeters>NAN</DistanceMeters>
          </Trackpoint>
          <Trackpoint>
            <Time>2020-12-05T10:03:53.000Z</Time>
            <Position>
              <LatitudeDegrees>36.82341992855072021484375</LatitudeDegrees>
              <LongitudeDegrees>-4.383934848010540008544921875</LongitudeDegrees>
            </Position>
            <AltitudeMeters>780.79998779296875</AltitudeMeters>
            <DistanceMeters>NAN</DistanceMeters>
          </Trackpoint>
          <Trackpoint>
            <Time>2020-12-05T10:03:54.000Z</Time>
            <Position>
              <LatitudeDegrees>36.82343040592968463897705078125</LatitudeDegrees>
              <LongitudeDegrees>-4.38393359072506427764892578125</LongitudeDegrees>
            </Position>
            <AltitudeMeters>781</AltitudeMeters>
            <DistanceMeters>NAN</DistanceMeters>
          </Trackpoint>
          <Trackpoint>
            <Time>2020-12-05T10:03:55.000Z</Time>
            <Position>
              <LatitudeDegrees>36.82344130240380764007568359375</LatitudeDegrees>
              <LongitudeDegrees>-4.3839309923350811004638671875</LongitudeDegrees>
            </Position>
            <AltitudeMeters>781</AltitudeMeters>
            <DistanceMeters>NAN</DistanceMeters>
          </Trackpoint>
          <Trackpoint>
            <Time>2020-12-05T10:03:56.000Z</Time>
            <Position>
              <LatitudeDegrees>36.82345211505889892578125</LatitudeDegrees>
              <LongitudeDegrees>-4.38392378389835357666015625</LongitudeDegrees>
            </Position>
            <AltitudeMeters>781</AltitudeMeters>
            <DistanceMeters>NAN</DistanceMeters>
          </Trackpoint>
          <Trackpoint>
            <Time>2020-12-05T10:03:57.000Z</Time>
            <Position>
              <LatitudeDegrees>36.8234636820852756500244140625</LatitudeDegrees>
              <LongitudeDegrees>-4.3839172460138797760009765625</LongitudeDegrees>
            </Position>
            <AltitudeMeters>780.79998779296875</AltitudeMeters>
            <DistanceMeters>NAN</DistanceMeters>
          </Trackpoint>
          <Trackpoint>
            <Time>2020-12-05T10:03:58.000Z</Time>
            <Position>
              <LatitudeDegrees>36.8234740756452083587646484375</LatitudeDegrees>
              <LongitudeDegrees>-4.38391431234776973724365234375</LongitudeDegrees>
            </Position>
            <AltitudeMeters>780.79998779296875</AltitudeMeters>
            <DistanceMeters>NAN</DistanceMeters>
          </Trackpoint>
          <Trackpoint>
            <Time>2020-12-05T10:03:59.000Z</Time>
            <Position>
              <LatitudeDegrees>36.82348254136741161346435546875</LatitudeDegrees>
              <LongitudeDegrees>-4.3839128874242305755615234375</LongitudeDegrees>
            </Position>
            <AltitudeMeters>780.79998779296875</AltitudeMeters>
            <DistanceMeters>NAN</DistanceMeters>
          </Trackpoint>
          <Trackpoint>
            <Time>2020-12-05T10:04:00.000Z</Time>
            <Position>
              <LatitudeDegrees>36.82348773814737796783447265625</LatitudeDegrees>
              <LongitudeDegrees>-4.38391213305294513702392578125</LongitudeDegrees>
            </Position>
            <AltitudeMeters>780.5999755859375</AltitudeMeters>
            <DistanceMeters>NAN</DistanceMeters>
          </Trackpoint>
          <Trackpoint>
            <Time>2020-12-05T10:04:01.000Z</Time>
            <Position>
              <LatitudeDegrees>36.8234918452799320220947265625</LatitudeDegrees>
              <LongitudeDegrees>-4.38391213305294513702392578125</LongitudeDegrees>
            </Position>
            <AltitudeMeters>780.4000244140625</AltitudeMeters>
            <DistanceMeters>NAN</DistanceMeters>
          </Trackpoint>
          <Trackpoint>
            <Time>2020-12-05T10:04:02.000Z</Time>
            <Position>
              <LatitudeDegrees>36.82349796406924724578857421875</LatitudeDegrees>
              <LongitudeDegrees>-4.383910708129405975341796875</LongitudeDegrees>
            </Position>
            <AltitudeMeters>780.4000244140625</AltitudeMeters>
            <DistanceMeters>NAN</DistanceMeters>
          </Trackpoint>
          <Trackpoint>
            <Time>2020-12-05T10:04:03.000Z</Time>
            <Position>
              <LatitudeDegrees>36.8235082738101482391357421875</LatitudeDegrees>
              <LongitudeDegrees>-4.38390945084393024444580078125</LongitudeDegrees>
            </Position>
            <AltitudeMeters>780.4000244140625</AltitudeMeters>
            <DistanceMeters>NAN</DistanceMeters>
          </Trackpoint>
          <Trackpoint>
            <Time>2020-12-05T10:04:04.000Z</Time>
            <Position>
              <LatitudeDegrees>36.82351757772266864776611328125</LatitudeDegrees>
              <LongitudeDegrees>-4.383907020092010498046875</LongitudeDegrees>
            </Position>
            <AltitudeMeters>780.20001220703125</AltitudeMeters>
            <DistanceMeters>NAN</DistanceMeters>
          </Trackpoint>
          <Trackpoint>
            <Time>2020-12-05T10:04:05.000Z</Time>
            <Position>
              <LatitudeDegrees>36.8235263787209987640380859375</LatitudeDegrees>
              <LongitudeDegrees>-4.383906014263629913330078125</LongitudeDegrees>
            </Position>
            <AltitudeMeters>780.20001220703125</AltitudeMeters>
            <DistanceMeters>NAN</DistanceMeters>
          </Trackpoint>
          <Trackpoint>
            <Time>2020-12-05T10:04:06.000Z</Time>
            <Position>
              <LatitudeDegrees>36.823532246053218841552734375</LatitudeDegrees>
              <LongitudeDegrees>-4.38390324823558330535888671875</LongitudeDegrees>
            </Position>
            <AltitudeMeters>780.20001220703125</AltitudeMeters>
            <DistanceMeters>NAN</DistanceMeters>
          </Trackpoint>
          <Trackpoint>
            <Time>2020-12-05T10:04:07.000Z</Time>
            <Position>
              <LatitudeDegrees>36.823538951575756072998046875</LatitudeDegrees>
              <LongitudeDegrees>-4.38390308059751987457275390625</LongitudeDegrees>
            </Position>
            <AltitudeMeters>780.4000244140625</AltitudeMeters>
            <DistanceMeters>NAN</DistanceMeters>
          </Trackpoint>
          <Trackpoint>
            <Time>2020-12-05T10:04:08.000Z</Time>
            <Position>
              <LatitudeDegrees>36.82354456745088100433349609375</LatitudeDegrees>
              <LongitudeDegrees>-4.383901655673980712890625</LongitudeDegrees>
            </Position>
            <AltitudeMeters>780.79998779296875</AltitudeMeters>
            <DistanceMeters>NAN</DistanceMeters>
          </Trackpoint>
          <Trackpoint>
            <Time>2020-12-05T10:04:09.000Z</Time>
            <Position>
              <LatitudeDegrees>36.82354800403118133544921875</LatitudeDegrees>
              <LongitudeDegrees>-4.38389562070369720458984375</LongitudeDegrees>
            </Position>
            <AltitudeMeters>781</AltitudeMeters>
            <DistanceMeters>NAN</DistanceMeters>
          </Trackpoint>
          <Trackpoint>
            <Time>2020-12-05T10:04:10.000Z</Time>
            <Position>
              <LatitudeDegrees>36.82355026714503765106201171875</LatitudeDegrees>
              <LongitudeDegrees>-4.38389218412339687347412109375</LongitudeDegrees>
            </Position>
            <AltitudeMeters>781.20001220703125</AltitudeMeters>
            <DistanceMeters>NAN</DistanceMeters>
          </Trackpoint>
          <Trackpoint>
            <Time>2020-12-05T10:04:11.000Z</Time>
            <Position>
              <LatitudeDegrees>36.8235532008111476898193359375</LatitudeDegrees>
              <LongitudeDegrees>-4.3838914297521114349365234375</LongitudeDegrees>
            </Position>
            <AltitudeMeters>781.4000244140625</AltitudeMeters>
            <DistanceMeters>NAN</DistanceMeters>
          </Trackpoint>
          <Trackpoint>
            <Time>2020-12-05T10:04:12.000Z</Time>
            <Position>
              <LatitudeDegrees>36.8235572241246700286865234375</LatitudeDegrees>
              <LongitudeDegrees>-4.38389050774276256561279296875</LongitudeDegrees>
            </Position>
            <AltitudeMeters>781.5999755859375</AltitudeMeters>
            <DistanceMeters>NAN</DistanceMeters>
          </Trackpoint>
          <Trackpoint>
            <Time>2020-12-05T10:04:13.000Z</Time>
            <Position>
              <LatitudeDegrees>36.82356149889528751373291015625</LatitudeDegrees>
              <LongitudeDegrees>-4.38389201648533344268798828125</LongitudeDegrees>
            </Position>
            <AltitudeMeters>781.79998779296875</AltitudeMeters>
            <DistanceMeters>NAN</DistanceMeters>
          </Trackpoint>
          <Trackpoint>
            <Time>2020-12-05T10:04:14.000Z</Time>
            <Position>
              <LatitudeDegrees>36.82356485165655612945556640625</LatitudeDegrees>
              <LongitudeDegrees>-4.383891262114048004150390625</LongitudeDegrees>
            </Position>
            <AltitudeMeters>782.5999755859375</AltitudeMeters>
            <DistanceMeters>NAN</DistanceMeters>
          </Trackpoint>
          <Trackpoint>
            <Time>2020-12-05T10:04:15.000Z</Time>
            <Position>
              <LatitudeDegrees>36.82356870733201503753662109375</LatitudeDegrees>
              <LongitudeDegrees>-4.3838890828192234039306640625</LongitudeDegrees>
            </Position>
            <AltitudeMeters>783.20001220703125</AltitudeMeters>
            <DistanceMeters>NAN</DistanceMeters>
          </Trackpoint>
          <Trackpoint>
            <Time>2020-12-05T10:04:16.000Z</Time>
            <Position>
              <LatitudeDegrees>36.82357507757842540740966796875</LatitudeDegrees>
              <LongitudeDegrees>-4.38388866372406482696533203125</LongitudeDegrees>
            </Position>
            <AltitudeMeters>784</AltitudeMeters>
            <DistanceMeters>NAN</DistanceMeters>
          </Trackpoint>
          <Trackpoint>
            <Time>2020-12-05T10:04:17.000Z</Time>
            <Position>
              <LatitudeDegrees>36.8235803581774234771728515625</LatitudeDegrees>
              <LongitudeDegrees>-4.383890591561794281005859375</LongitudeDegrees>
            </Position>
            <AltitudeMeters>784.5999755859375</AltitudeMeters>
            <DistanceMeters>NAN</DistanceMeters>
          </Trackpoint>
          <Trackpoint>
            <Time>2020-12-05T10:04:18.000Z</Time>
            <Position>
              <LatitudeDegrees>36.8235847167670726776123046875</LatitudeDegrees>
              <LongitudeDegrees>-4.3838910944759845733642578125</LongitudeDegrees>
            </Position>
            <AltitudeMeters>785</AltitudeMeters>
            <DistanceMeters>NAN</DistanceMeters>
          </Trackpoint>
          <Trackpoint>
            <Time>2020-12-05T10:04:19.000Z</Time>
            <Position>
              <LatitudeDegrees>36.82358899153769016265869140625</LatitudeDegrees>
              <LongitudeDegrees>-4.38389251939952373504638671875</LongitudeDegrees>
            </Position>
            <AltitudeMeters>785.20001220703125</AltitudeMeters>
            <DistanceMeters>NAN</DistanceMeters>
          </Trackpoint>
          <Trackpoint>
            <Time>2020-12-05T10:04:20.000Z</Time>
            <Position>
              <LatitudeDegrees>36.8235927633941173553466796875</LatitudeDegrees>
              <LongitudeDegrees>-4.3838887475430965423583984375</LongitudeDegrees>
            </Position>
            <AltitudeMeters>785.4000244140625</AltitudeMeters>
            <DistanceMeters>NAN</DistanceMeters>
          </Trackpoint>
          <Trackpoint>
            <Time>2020-12-05T10:04:21.000Z</Time>
            <Position>
              <LatitudeDegrees>36.82359368540346622467041015625</LatitudeDegrees>
              <LongitudeDegrees>-4.38388195820152759552001953125</LongitudeDegrees>
            </Position>
            <AltitudeMeters>785.20001220703125</AltitudeMeters>
            <DistanceMeters>NAN</DistanceMeters>
          </Trackpoint>
          <Trackpoint>
            <Time>2020-12-05T10:04:22.000Z</Time>
            <Position>
              <LatitudeDegrees>36.82359871454536914825439453125</LatitudeDegrees>
              <LongitudeDegrees>-4.38387416303157806396484375</LongitudeDegrees>
            </Position>
            <AltitudeMeters>785.20001220703125</AltitudeMeters>
            <DistanceMeters>NAN</DistanceMeters>
          </Trackpoint>
          <Trackpoint>
            <Time>2020-12-05T10:04:23.000Z</Time>
            <Position>
              <LatitudeDegrees>36.823606006801128387451171875</LatitudeDegrees>
              <LongitudeDegrees>-4.3838686309754848480224609375</LongitudeDegrees>
            </Position>
            <AltitudeMeters>785.20001220703125</AltitudeMeters>
            <DistanceMeters>NAN</DistanceMeters>
          </Trackpoint>
          <Trackpoint>
            <Time>2020-12-05T10:04:24.000Z</Time>
            <Position>
              <LatitudeDegrees>36.82361413724720478057861328125</LatitudeDegrees>
              <LongitudeDegrees>-4.38385672867298126220703125</LongitudeDegrees>
            </Position>
            <AltitudeMeters>785</AltitudeMeters>
            <DistanceMeters>NAN</DistanceMeters>
          </Trackpoint>
          <Trackpoint>
            <Time>2020-12-05T10:04:25.000Z</Time>
            <Position>
              <LatitudeDegrees>36.82362017221748828887939453125</LatitudeDegrees>
              <LongitudeDegrees>-4.383845664560794830322265625</LongitudeDegrees>
            </Position>
            <AltitudeMeters>785</AltitudeMeters>
            <DistanceMeters>NAN</DistanceMeters>
          </Trackpoint>
          <Trackpoint>
            <Time>2020-12-05T10:04:26.000Z</Time>
            <Position>
              <LatitudeDegrees>36.82362578809261322021484375</LatitudeDegrees>
              <LongitudeDegrees>-4.38383820466697216033935546875</LongitudeDegrees>
            </Position>
            <AltitudeMeters>785</AltitudeMeters>
            <DistanceMeters>NAN</DistanceMeters>
          </Trackpoint>
          <Trackpoint>
            <Time>2020-12-05T10:04:27.000Z</Time>
            <Position>
              <LatitudeDegrees>36.823632828891277313232421875</LatitudeDegrees>
              <LongitudeDegrees>-4.38383585773408412933349609375</LongitudeDegrees>
            </Position>
            <AltitudeMeters>785.20001220703125</AltitudeMeters>
            <DistanceMeters>NAN</DistanceMeters>
          </Trackpoint>
          <Trackpoint>
            <Time>2020-12-05T10:04:28.000Z</Time>
            <Position>
              <LatitudeDegrees>36.8236383609473705291748046875</LatitudeDegrees>
              <LongitudeDegrees>-4.38383451662957668304443359375</LongitudeDegrees>
            </Position>
            <AltitudeMeters>785.20001220703125</AltitudeMeters>
            <DistanceMeters>NAN</DistanceMeters>
          </Trackpoint>
          <Trackpoint>
            <Time>2020-12-05T10:04:29.000Z</Time>
            <Position>
              <LatitudeDegrees>36.8236438930034637451171875</LatitudeDegrees>
              <LongitudeDegrees>-4.38382999040186405181884765625</LongitudeDegrees>
            </Position>
            <AltitudeMeters>785.4000244140625</AltitudeMeters>
            <DistanceMeters>NAN</DistanceMeters>
          </Trackpoint>
          <Trackpoint>
            <Time>2020-12-05T10:04:30.000Z</Time>
            <Position>
              <LatitudeDegrees>36.82365051470696926116943359375</LatitudeDegrees>
              <LongitudeDegrees>-4.3838267214596271514892578125</LongitudeDegrees>
            </Position>
            <AltitudeMeters>785.5999755859375</AltitudeMeters>
            <DistanceMeters>NAN</DistanceMeters>
          </Trackpoint>
          <Trackpoint>
            <Time>2020-12-05T10:04:31.000Z</Time>
            <Position>
              <LatitudeDegrees>36.82365470565855503082275390625</LatitudeDegrees>
              <LongitudeDegrees>-4.3838240392506122589111328125</LongitudeDegrees>
            </Position>
            <AltitudeMeters>785.5999755859375</AltitudeMeters>
            <DistanceMeters>NAN</DistanceMeters>
          </Trackpoint>
          <Trackpoint>
            <Time>2020-12-05T10:04:32.000Z</Time>
            <Position>
              <LatitudeDegrees>36.82366065680980682373046875</LatitudeDegrees>
              <LongitudeDegrees>-4.3838203512132167816162109375</LongitudeDegrees>
            </Position>
            <AltitudeMeters>785.79998779296875</AltitudeMeters>
            <DistanceMeters>NAN</DistanceMeters>
          </Trackpoint>
          <Trackpoint>
            <Time>2020-12-05T10:04:33.000Z</Time>
            <Position>
              <LatitudeDegrees>36.823665685951709747314453125</LatitudeDegrees>
              <LongitudeDegrees>-4.383814148604869842529296875</LongitudeDegrees>
            </Position>
            <AltitudeMeters>785.79998779296875</AltitudeMeters>
            <DistanceMeters>NAN</DistanceMeters>
          </Trackpoint>
          <Trackpoint>
            <Time>2020-12-05T10:04:34.000Z</Time>
            <Position>
              <LatitudeDegrees>36.82367096655070781707763671875</LatitudeDegrees>
              <LongitudeDegrees>-4.38380685634911060333251953125</LongitudeDegrees>
            </Position>
            <AltitudeMeters>786</AltitudeMeters>
            <DistanceMeters>NAN</DistanceMeters>
          </Trackpoint>
          <Trackpoint>
            <Time>2020-12-05T10:04:35.000Z</Time>
            <Position>
              <LatitudeDegrees>36.8236755765974521636962890625</LatitudeDegrees>
              <LongitudeDegrees>-4.383799731731414794921875</LongitudeDegrees>
            </Position>
            <AltitudeMeters>786</AltitudeMeters>
            <DistanceMeters>NAN</DistanceMeters>
          </Trackpoint>
          <Trackpoint>
            <Time>2020-12-05T10:04:36.000Z</Time>
            <Position>
              <LatitudeDegrees>36.823681779205799102783203125</LatitudeDegrees>
              <LongitudeDegrees>-4.38380040228366851806640625</LongitudeDegrees>
            </Position>
            <AltitudeMeters>786.20001220703125</AltitudeMeters>
            <DistanceMeters>NAN</DistanceMeters>
          </Trackpoint>
          <Trackpoint>
            <Time>2020-12-05T10:04:37.000Z</Time>
            <Position>
              <LatitudeDegrees>36.82368588633835315704345703125</LatitudeDegrees>
              <LongitudeDegrees>-4.38379914499819278717041015625</LongitudeDegrees>
            </Position>
            <AltitudeMeters>786.4000244140625</AltitudeMeters>
            <DistanceMeters>NAN</DistanceMeters>
          </Trackpoint>
          <Trackpoint>
            <Time>2020-12-05T10:04:38.000Z</Time>
            <Position>
              <LatitudeDegrees>36.8236893229186534881591796875</LatitudeDegrees>
              <LongitudeDegrees>-4.38379612751305103302001953125</LongitudeDegrees>
            </Position>
            <AltitudeMeters>786.4000244140625</AltitudeMeters>
            <DistanceMeters>NAN</DistanceMeters>
          </Trackpoint>
          <Trackpoint>
            <Time>2020-12-05T10:04:39.000Z</Time>
            <Position>
              <LatitudeDegrees>36.8236894905567169189453125</LatitudeDegrees>
              <LongitudeDegrees>-4.3837878294289112091064453125</LongitudeDegrees>
            </Position>
            <AltitudeMeters>786.5999755859375</AltitudeMeters>
            <DistanceMeters>NAN</DistanceMeters>
          </Trackpoint>
          <Trackpoint>
            <Time>2020-12-05T10:04:40.000Z</Time>
            <Position>
              <LatitudeDegrees>36.82369477115571498870849609375</LatitudeDegrees>
              <LongitudeDegrees>-4.3837797828018665313720703125</LongitudeDegrees>
            </Position>
            <AltitudeMeters>786.5999755859375</AltitudeMeters>
            <DistanceMeters>NAN</DistanceMeters>
          </Trackpoint>
          <Trackpoint>
            <Time>2020-12-05T10:04:41.000Z</Time>
            <Position>
              <LatitudeDegrees>36.82370432652533054351806640625</LatitudeDegrees>
              <LongitudeDegrees>-4.38377316109836101531982421875</LongitudeDegrees>
            </Position>
            <AltitudeMeters>786.79998779296875</AltitudeMeters>
            <DistanceMeters>NAN</DistanceMeters>
          </Trackpoint>
          <Trackpoint>
            <Time>2020-12-05T10:04:42.000Z</Time>
            <Position>
              <LatitudeDegrees>36.8237144686281681060791015625</LatitudeDegrees>
              <LongitudeDegrees>-4.383765868842601776123046875</LongitudeDegrees>
            </Position>
            <AltitudeMeters>787</AltitudeMeters>
            <DistanceMeters>NAN</DistanceMeters>
          </Trackpoint>
          <Trackpoint>
            <Time>2020-12-05T10:04:43.000Z</Time>
            <Position>
              <LatitudeDegrees>36.823728047311305999755859375</LatitudeDegrees>
              <LongitudeDegrees>-4.38376419246196746826171875</LongitudeDegrees>
            </Position>
            <AltitudeMeters>787.20001220703125</AltitudeMeters>
            <DistanceMeters>NAN</DistanceMeters>
          </Trackpoint>
          <Trackpoint>
            <Time>2020-12-05T10:04:44.000Z</Time>
            <Position>
              <LatitudeDegrees>36.82374204508960247039794921875</LatitudeDegrees>
              <LongitudeDegrees>-4.38376192934811115264892578125</LongitudeDegrees>
            </Position>
            <AltitudeMeters>787.4000244140625</AltitudeMeters>
            <DistanceMeters>NAN</DistanceMeters>
          </Trackpoint>
          <Trackpoint>
            <Time>2020-12-05T10:04:45.000Z</Time>
            <Position>
              <LatitudeDegrees>36.82375461794435977935791015625</LatitudeDegrees>
              <LongitudeDegrees>-4.38375882804393768310546875</LongitudeDegrees>
            </Position>
            <AltitudeMeters>787.4000244140625</AltitudeMeters>
            <DistanceMeters>NAN</DistanceMeters>
          </Trackpoint>
          <Trackpoint>
            <Time>2020-12-05T10:04:46.000Z</Time>
            <Position>
              <LatitudeDegrees>36.8237672746181488037109375</LatitudeDegrees>
              <LongitudeDegrees>-4.38375421799719333648681640625</LongitudeDegrees>
            </Position>
            <AltitudeMeters>787.79998779296875</AltitudeMeters>
            <DistanceMeters>NAN</DistanceMeters>
          </Trackpoint>
          <Trackpoint>
            <Time>2020-12-05T10:04:47.000Z</Time>
            <Position>
              <LatitudeDegrees>36.82377724908292293548583984375</LatitudeDegrees>
              <LongitudeDegrees>-4.38375187106430530548095703125</LongitudeDegrees>
            </Position>
            <AltitudeMeters>788</AltitudeMeters>
            <DistanceMeters>NAN</DistanceMeters>
          </Trackpoint>
          <Trackpoint>
            <Time>2020-12-05T10:04:48.000Z</Time>
            <Position>
              <LatitudeDegrees>36.823785044252872467041015625</LatitudeDegrees>
              <LongitudeDegrees>-4.38375019468367099761962890625</LongitudeDegrees>
            </Position>
            <AltitudeMeters>788.4000244140625</AltitudeMeters>
            <DistanceMeters>NAN</DistanceMeters>
          </Trackpoint>
          <Trackpoint>
            <Time>2020-12-05T10:04:49.000Z</Time>
            <Position>
              <LatitudeDegrees>36.82379652746021747589111328125</LatitudeDegrees>
              <LongitudeDegrees>-4.38375371508300304412841796875</LongitudeDegrees>
            </Position>
            <AltitudeMeters>788.5999755859375</AltitudeMeters>
            <DistanceMeters>NAN</DistanceMeters>
          </Trackpoint>
          <Trackpoint>
            <Time>2020-12-05T10:04:50.000Z</Time>
            <Position>
              <LatitudeDegrees>36.82380625046789646148681640625</LatitudeDegrees>
              <LongitudeDegrees>-4.38375614583492279052734375</LongitudeDegrees>
            </Position>
            <AltitudeMeters>788.5999755859375</AltitudeMeters>
            <DistanceMeters>NAN</DistanceMeters>
          </Trackpoint>
          <Trackpoint>
            <Time>2020-12-05T10:04:51.000Z</Time>
            <Position>
              <LatitudeDegrees>36.82381731458008289337158203125</LatitudeDegrees>
              <LongitudeDegrees>-4.38375907950103282928466796875</LongitudeDegrees>
            </Position>
            <AltitudeMeters>788.79998779296875</AltitudeMeters>
            <DistanceMeters>NAN</DistanceMeters>
          </Trackpoint>
          <Trackpoint>
            <Time>2020-12-05T10:04:52.000Z</Time>
            <Position>
              <LatitudeDegrees>36.823828630149364471435546875</LatitudeDegrees>
              <LongitudeDegrees>-4.3837616778910160064697265625</LongitudeDegrees>
            </Position>
            <AltitudeMeters>789</AltitudeMeters>
            <DistanceMeters>NAN</DistanceMeters>
          </Trackpoint>
          <Trackpoint>
            <Time>2020-12-05T10:04:53.000Z</Time>
            <Position>
              <LatitudeDegrees>36.82384262792766094207763671875</LatitudeDegrees>
              <LongitudeDegrees>-4.38376762904226779937744140625</LongitudeDegrees>
            </Position>
            <AltitudeMeters>789</AltitudeMeters>
            <DistanceMeters>NAN</DistanceMeters>
          </Trackpoint>
          <Trackpoint>
            <Time>2020-12-05T10:04:54.000Z</Time>
            <Position>
              <LatitudeDegrees>36.8238515965640544891357421875</LatitudeDegrees>
              <LongitudeDegrees>-4.3837714008986949920654296875</LongitudeDegrees>
            </Position>
            <AltitudeMeters>789.20001220703125</AltitudeMeters>
            <DistanceMeters>NAN</DistanceMeters>
          </Trackpoint>
          <Trackpoint>
            <Time>2020-12-05T10:04:55.000Z</Time>
            <Position>
              <LatitudeDegrees>36.8238599784672260284423828125</LatitudeDegrees>
              <LongitudeDegrees>-4.38377500511705875396728515625</LongitudeDegrees>
            </Position>
            <AltitudeMeters>789.20001220703125</AltitudeMeters>
            <DistanceMeters>NAN</DistanceMeters>
          </Trackpoint>
          <Trackpoint>
            <Time>2020-12-05T10:04:56.000Z</Time>
            <Position>
              <LatitudeDegrees>36.82386609725654125213623046875</LatitudeDegrees>
              <LongitudeDegrees>-4.38377517275512218475341796875</LongitudeDegrees>
            </Position>
            <AltitudeMeters>789.20001220703125</AltitudeMeters>
            <DistanceMeters>NAN</DistanceMeters>
          </Trackpoint>
          <Trackpoint>
            <Time>2020-12-05T10:04:57.000Z</Time>
            <Position>
              <LatitudeDegrees>36.82387380860745906829833984375</LatitudeDegrees>
              <LongitudeDegrees>-4.3837720714509487152099609375</LongitudeDegrees>
            </Position>
            <AltitudeMeters>789.20001220703125</AltitudeMeters>
            <DistanceMeters>NAN</DistanceMeters>
          </Trackpoint>
          <Trackpoint>
            <Time>2020-12-05T10:04:58.000Z</Time>
            <Position>
              <LatitudeDegrees>36.82388319633901119232177734375</LatitudeDegrees>
              <LongitudeDegrees>-4.3837688863277435302734375</LongitudeDegrees>
            </Position>
            <AltitudeMeters>789.20001220703125</AltitudeMeters>
            <DistanceMeters>NAN</DistanceMeters>
          </Trackpoint>
          <Trackpoint>
            <Time>2020-12-05T10:04:59.000Z</Time>
            <Position>
              <LatitudeDegrees>36.82389476336538791656494140625</LatitudeDegrees>
              <LongitudeDegrees>-4.38376276753842830657958984375</LongitudeDegrees>
            </Position>
            <AltitudeMeters>789.4000244140625</AltitudeMeters>
            <DistanceMeters>NAN</DistanceMeters>
          </Trackpoint>
          <Trackpoint>
            <Time>2020-12-05T10:05:00.000Z</Time>
            <Position>
              <LatitudeDegrees>36.823905408382415771484375</LatitudeDegrees>
              <LongitudeDegrees>-4.38375488854944705963134765625</LongitudeDegrees>
            </Position>
            <AltitudeMeters>789.4000244140625</AltitudeMeters>
            <DistanceMeters>NAN</DistanceMeters>
          </Trackpoint>
          <Trackpoint>
            <Time>2020-12-05T10:05:01.000Z</Time>
            <Position>
              <LatitudeDegrees>36.82391504757106304168701171875</LatitudeDegrees>
              <LongitudeDegrees>-4.38374700956046581268310546875</LongitudeDegrees>
            </Position>
            <AltitudeMeters>789.4000244140625</AltitudeMeters>
            <DistanceMeters>NAN</DistanceMeters>
          </Trackpoint>
          <Trackpoint>
            <Time>2020-12-05T10:05:02.000Z</Time>
            <Position>
              <LatitudeDegrees>36.82392485439777374267578125</LatitudeDegrees>
              <LongitudeDegrees>-4.3837420642375946044921875</LongitudeDegrees>
            </Position>
            <AltitudeMeters>789.4000244140625</AltitudeMeters>
            <DistanceMeters>NAN</DistanceMeters>
          </Trackpoint>
          <Trackpoint>
            <Time>2020-12-05T10:05:03.000Z</Time>
            <Position>
              <LatitudeDegrees>36.8239357508718967437744140625</LatitudeDegrees>
              <LongitudeDegrees>-4.38373443670570850372314453125</LongitudeDegrees>
            </Position>
            <AltitudeMeters>789.20001220703125</AltitudeMeters>
            <DistanceMeters>NAN</DistanceMeters>
          </Trackpoint>
          <Trackpoint>
            <Time>2020-12-05T10:05:04.000Z</Time>
            <Position>
              <LatitudeDegrees>36.823947317898273468017578125</LatitudeDegrees>
              <LongitudeDegrees>-4.38372421078383922576904296875</LongitudeDegrees>
            </Position>
            <AltitudeMeters>789.20001220703125</AltitudeMeters>
            <DistanceMeters>NAN</DistanceMeters>
          </Trackpoint>
          <Trackpoint>
            <Time>2020-12-05T10:05:05.000Z</Time>
            <Position>
              <LatitudeDegrees>36.8239575438201427459716796875</LatitudeDegrees>
              <LongitudeDegrees>-4.38372069038450717926025390625</LongitudeDegrees>
            </Position>
            <AltitudeMeters>789</AltitudeMeters>
            <DistanceMeters>NAN</DistanceMeters>
          </Trackpoint>
          <Trackpoint>
            <Time>2020-12-05T10:05:06.000Z</Time>
            <Position>
              <LatitudeDegrees>36.82396936230361461639404296875</LatitudeDegrees>
              <LongitudeDegrees>-4.38371364958584308624267578125</LongitudeDegrees>
            </Position>
            <AltitudeMeters>789</AltitudeMeters>
            <DistanceMeters>NAN</DistanceMeters>
          </Trackpoint>
          <Trackpoint>
            <Time>2020-12-05T10:05:07.000Z</Time>
            <Position>
              <LatitudeDegrees>36.82397875003516674041748046875</LatitudeDegrees>
              <LongitudeDegrees>-4.38371029682457447052001953125</LongitudeDegrees>
            </Position>
            <AltitudeMeters>789.20001220703125</AltitudeMeters>
            <DistanceMeters>NAN</DistanceMeters>
          </Trackpoint>
          <Trackpoint>
            <Time>2020-12-05T10:05:08.000Z</Time>
            <Position>
              <LatitudeDegrees>36.82398964650928974151611328125</LatitudeDegrees>
              <LongitudeDegrees>-4.3837080337107181549072265625</LongitudeDegrees>
            </Position>
            <AltitudeMeters>789.4000244140625</AltitudeMeters>
            <DistanceMeters>NAN</DistanceMeters>
          </Trackpoint>
          <Trackpoint>
            <Time>2020-12-05T10:05:09.000Z</Time>
            <Position>
              <LatitudeDegrees>36.82400054298341274261474609375</LatitudeDegrees>
              <LongitudeDegrees>-4.38370644114911556243896484375</LongitudeDegrees>
            </Position>
            <AltitudeMeters>789.5999755859375</AltitudeMeters>
            <DistanceMeters>NAN</DistanceMeters>
          </Trackpoint>
          <Trackpoint>
            <Time>2020-12-05T10:05:10.000Z</Time>
            <Position>
              <LatitudeDegrees>36.82401060126721858978271484375</LatitudeDegrees>
              <LongitudeDegrees>-4.38370359130203723907470703125</LongitudeDegrees>
            </Position>
            <AltitudeMeters>789.5999755859375</AltitudeMeters>
            <DistanceMeters>NAN</DistanceMeters>
          </Trackpoint>
          <Trackpoint>
            <Time>2020-12-05T10:05:11.000Z</Time>
            <Position>
              <LatitudeDegrees>36.824020408093929290771484375</LatitudeDegrees>
              <LongitudeDegrees>-4.383699484169483184814453125</LongitudeDegrees>
            </Position>
            <AltitudeMeters>789.79998779296875</AltitudeMeters>
            <DistanceMeters>NAN</DistanceMeters>
          </Trackpoint>
          <Trackpoint>
            <Time>2020-12-05T10:05:12.000Z</Time>
            <Position>
              <LatitudeDegrees>36.82402786798775196075439453125</LatitudeDegrees>
              <LongitudeDegrees>-4.3836929462850093841552734375</LongitudeDegrees>
            </Position>
            <AltitudeMeters>789.79998779296875</AltitudeMeters>
            <DistanceMeters>NAN</DistanceMeters>
          </Trackpoint>
          <Trackpoint>
            <Time>2020-12-05T10:05:13.000Z</Time>
            <Position>
              <LatitudeDegrees>36.8240359984338283538818359375</LatitudeDegrees>
              <LongitudeDegrees>-4.3836842291057109832763671875</LongitudeDegrees>
            </Position>
            <AltitudeMeters>789.79998779296875</AltitudeMeters>
            <DistanceMeters>NAN</DistanceMeters>
          </Trackpoint>
          <Trackpoint>
            <Time>2020-12-05T10:05:14.000Z</Time>
            <Position>
              <LatitudeDegrees>36.8240473978221416473388671875</LatitudeDegrees>
              <LongitudeDegrees>-4.38367911614477634429931640625</LongitudeDegrees>
            </Position>
            <AltitudeMeters>790</AltitudeMeters>
            <DistanceMeters>NAN</DistanceMeters>
          </Trackpoint>
          <Trackpoint>
            <Time>2020-12-05T10:05:15.000Z</Time>
            <Position>
              <LatitudeDegrees>36.82406030595302581787109375</LatitudeDegrees>
              <LongitudeDegrees>-4.383676685392856597900390625</LongitudeDegrees>
            </Position>
            <AltitudeMeters>790.20001220703125</AltitudeMeters>
            <DistanceMeters>NAN</DistanceMeters>
          </Trackpoint>
          <Trackpoint>
            <Time>2020-12-05T10:05:16.000Z</Time>
            <Position>
              <LatitudeDegrees>36.824072040617465972900390625</LatitudeDegrees>
              <LongitudeDegrees>-4.383676014840602874755859375</LongitudeDegrees>
            </Position>
            <AltitudeMeters>790.4000244140625</AltitudeMeters>
            <DistanceMeters>NAN</DistanceMeters>
          </Trackpoint>
          <Trackpoint>
            <Time>2020-12-05T10:05:17.000Z</Time>
            <Position>
              <LatitudeDegrees>36.8240826018154621124267578125</LatitudeDegrees>
              <LongitudeDegrees>-4.38367844559252262115478515625</LongitudeDegrees>
            </Position>
            <AltitudeMeters>790.5999755859375</AltitudeMeters>
            <DistanceMeters>NAN</DistanceMeters>
          </Trackpoint>
          <Trackpoint>
            <Time>2020-12-05T10:05:18.000Z</Time>
            <Position>
              <LatitudeDegrees>36.82409249246120452880859375</LatitudeDegrees>
              <LongitudeDegrees>-4.3836795352399349212646484375</LongitudeDegrees>
            </Position>
            <AltitudeMeters>790.79998779296875</AltitudeMeters>
            <DistanceMeters>NAN</DistanceMeters>
          </Trackpoint>
          <Trackpoint>
            <Time>2020-12-05T10:05:19.000Z</Time>
            <Position>
              <LatitudeDegrees>36.8240986950695514678955078125</LatitudeDegrees>
              <LongitudeDegrees>-4.38367676921188831329345703125</LongitudeDegrees>
            </Position>
            <AltitudeMeters>790.79998779296875</AltitudeMeters>
            <DistanceMeters>NAN</DistanceMeters>
          </Trackpoint>
          <Trackpoint>
            <Time>2020-12-05T10:05:20.000Z</Time>
            <Position>
              <LatitudeDegrees>36.824103891849517822265625</LatitudeDegrees>
              <LongitudeDegrees>-4.38366788439452648162841796875</LongitudeDegrees>
            </Position>
            <AltitudeMeters>790.79998779296875</AltitudeMeters>
            <DistanceMeters>NAN</DistanceMeters>
          </Trackpoint>
          <Trackpoint>
            <Time>2020-12-05T10:05:21.000Z</Time>
            <Position>
              <LatitudeDegrees>36.8241087533533573150634765625</LatitudeDegrees>
              <LongitudeDegrees>-4.38365849666297435760498046875</LongitudeDegrees>
            </Position>
            <AltitudeMeters>791</AltitudeMeters>
            <DistanceMeters>NAN</DistanceMeters>
          </Trackpoint>
          <Trackpoint>
            <Time>2020-12-05T10:05:22.000Z</Time>
            <Position>
              <LatitudeDegrees>36.82411654852330684661865234375</LatitudeDegrees>
              <LongitudeDegrees>-4.38365078531205654144287109375</LongitudeDegrees>
            </Position>
            <AltitudeMeters>791</AltitudeMeters>
            <DistanceMeters>NAN</DistanceMeters>
          </Trackpoint>
          <Trackpoint>
            <Time>2020-12-05T10:05:23.000Z</Time>
            <Position>
              <LatitudeDegrees>36.82412845082581043243408203125</LatitudeDegrees>
              <LongitudeDegrees>-4.383642487227916717529296875</LongitudeDegrees>
            </Position>
            <AltitudeMeters>791.20001220703125</AltitudeMeters>
            <DistanceMeters>NAN</DistanceMeters>
          </Trackpoint>
          <Trackpoint>
            <Time>2020-12-05T10:05:24.000Z</Time>
            <Position>
              <LatitudeDegrees>36.824144460260868072509765625</LatitudeDegrees>
              <LongitudeDegrees>-4.38363167457282543182373046875</LongitudeDegrees>
            </Position>
            <AltitudeMeters>791.20001220703125</AltitudeMeters>
            <DistanceMeters>NAN</DistanceMeters>
          </Trackpoint>
          <Trackpoint>
            <Time>2020-12-05T10:05:25.000Z</Time>
            <Position>
              <LatitudeDegrees>36.82416030205786228179931640625</LatitudeDegrees>
              <LongitudeDegrees>-4.3836222030222415924072265625</LongitudeDegrees>
            </Position>
            <AltitudeMeters>791.20001220703125</AltitudeMeters>
            <DistanceMeters>NAN</DistanceMeters>
          </Trackpoint>
          <Trackpoint>
            <Time>2020-12-05T10:05:26.000Z</Time>
            <Position>
              <LatitudeDegrees>36.82417170144617557525634765625</LatitudeDegrees>
              <LongitudeDegrees>-4.383616335690021514892578125</LongitudeDegrees>
            </Position>
            <AltitudeMeters>791.20001220703125</AltitudeMeters>
            <DistanceMeters>NAN</DistanceMeters>
          </Trackpoint>
          <Trackpoint>
            <Time>2020-12-05T10:05:27.000Z</Time>
            <Position>
              <LatitudeDegrees>36.8241808377206325531005859375</LatitudeDegrees>
              <LongitudeDegrees>-4.38361088745296001434326171875</LongitudeDegrees>
            </Position>
            <AltitudeMeters>791.20001220703125</AltitudeMeters>
            <DistanceMeters>NAN</DistanceMeters>
          </Trackpoint>
          <Trackpoint>
            <Time>2020-12-05T10:05:28.000Z</Time>
            <Position>
              <LatitudeDegrees>36.824188716709613800048828125</LatitudeDegrees>
              <LongitudeDegrees>-4.38360183499753475189208984375</LongitudeDegrees>
            </Position>
            <AltitudeMeters>791.20001220703125</AltitudeMeters>
            <DistanceMeters>NAN</DistanceMeters>
          </Trackpoint>
          <Trackpoint>
            <Time>2020-12-05T10:05:29.000Z</Time>
            <Position>
              <LatitudeDegrees>36.82419785298407077789306640625</LatitudeDegrees>
              <LongitudeDegrees>-4.38359328545629978179931640625</LongitudeDegrees>
            </Position>
            <AltitudeMeters>791.20001220703125</AltitudeMeters>
            <DistanceMeters>NAN</DistanceMeters>
          </Trackpoint>
          <Trackpoint>
            <Time>2020-12-05T10:05:30.000Z</Time>
            <Position>
              <LatitudeDegrees>36.82420774362981319427490234375</LatitudeDegrees>
              <LongitudeDegrees>-4.3835836462676525115966796875</LongitudeDegrees>
            </Position>
            <AltitudeMeters>791.20001220703125</AltitudeMeters>
            <DistanceMeters>NAN</DistanceMeters>
          </Trackpoint>
          <Trackpoint>
            <Time>2020-12-05T10:05:31.000Z</Time>
            <Position>
              <LatitudeDegrees>36.82421964593231678009033203125</LatitudeDegrees>
              <LongitudeDegrees>-4.38357803039252758026123046875</LongitudeDegrees>
            </Position>
            <AltitudeMeters>791.4000244140625</AltitudeMeters>
            <DistanceMeters>NAN</DistanceMeters>
          </Trackpoint>
          <Trackpoint>
            <Time>2020-12-05T10:05:32.000Z</Time>
            <Position>
              <LatitudeDegrees>36.82423322461545467376708984375</LatitudeDegrees>
              <LongitudeDegrees>-4.383575432002544403076171875</LongitudeDegrees>
            </Position>
            <AltitudeMeters>791.5999755859375</AltitudeMeters>
            <DistanceMeters>NAN</DistanceMeters>
          </Trackpoint>
          <Trackpoint>
            <Time>2020-12-05T10:05:33.000Z</Time>
            <Position>
              <LatitudeDegrees>36.82424579747021198272705078125</LatitudeDegrees>
              <LongitudeDegrees>-4.3835725821554660797119140625</LongitudeDegrees>
            </Position>
            <AltitudeMeters>791.5999755859375</AltitudeMeters>
            <DistanceMeters>NAN</DistanceMeters>
          </Trackpoint>
          <Trackpoint>
            <Time>2020-12-05T10:05:34.000Z</Time>
            <Position>
              <LatitudeDegrees>36.82425870560109615325927734375</LatitudeDegrees>
              <LongitudeDegrees>-4.3835722468793392181396484375</LongitudeDegrees>
            </Position>
            <AltitudeMeters>791.5999755859375</AltitudeMeters>
            <DistanceMeters>NAN</DistanceMeters>
          </Trackpoint>
          <Trackpoint>
            <Time>2020-12-05T10:05:35.000Z</Time>
            <Position>
              <LatitudeDegrees>36.82427345775067806243896484375</LatitudeDegrees>
              <LongitudeDegrees>-4.3835732527077198028564453125</LongitudeDegrees>
            </Position>
            <AltitudeMeters>791.79998779296875</AltitudeMeters>
            <DistanceMeters>NAN</DistanceMeters>
          </Trackpoint>
          <Trackpoint>
            <Time>2020-12-05T10:05:36.000Z</Time>
            <Position>
              <LatitudeDegrees>36.8242847733199596405029296875</LatitudeDegrees>
              <LongitudeDegrees>-4.38357735984027385711669921875</LongitudeDegrees>
            </Position>
            <AltitudeMeters>791.79998779296875</AltitudeMeters>
            <DistanceMeters>NAN</DistanceMeters>
          </Trackpoint>
          <Trackpoint>
            <Time>2020-12-05T10:05:37.000Z</Time>
            <Position>
              <LatitudeDegrees>36.82429692707955837249755859375</LatitudeDegrees>
              <LongitudeDegrees>-4.383578114211559295654296875</LongitudeDegrees>
            </Position>
            <AltitudeMeters>791.5999755859375</AltitudeMeters>
            <DistanceMeters>NAN</DistanceMeters>
          </Trackpoint>
          <Trackpoint>
            <Time>2020-12-05T10:05:38.000Z</Time>
            <Position>
              <LatitudeDegrees>36.8243082426488399505615234375</LatitudeDegrees>
              <LongitudeDegrees>-4.38358020968735218048095703125</LongitudeDegrees>
            </Position>
            <AltitudeMeters>791.79998779296875</AltitudeMeters>
            <DistanceMeters>NAN</DistanceMeters>
          </Trackpoint>
          <Trackpoint>
            <Time>2020-12-05T10:05:39.000Z</Time>
            <Position>
              <LatitudeDegrees>36.82431804947555065155029296875</LatitudeDegrees>
              <LongitudeDegrees>-4.38357803039252758026123046875</LongitudeDegrees>
            </Position>
            <AltitudeMeters>791.79998779296875</AltitudeMeters>
            <DistanceMeters>NAN</DistanceMeters>
          </Trackpoint>
          <Trackpoint>
            <Time>2020-12-05T10:05:40.000Z</Time>
            <Position>
              <LatitudeDegrees>36.82432559318840503692626953125</LatitudeDegrees>
              <LongitudeDegrees>-4.38357383944094181060791015625</LongitudeDegrees>
            </Position>
            <AltitudeMeters>791.79998779296875</AltitudeMeters>
            <DistanceMeters>NAN</DistanceMeters>
          </Trackpoint>
          <Trackpoint>
            <Time>2020-12-05T10:05:41.000Z</Time>
            <Position>
              <LatitudeDegrees>36.8243303708732128143310546875</LatitudeDegrees>
              <LongitudeDegrees>-4.38356596045196056365966796875</LongitudeDegrees>
            </Position>
            <AltitudeMeters>792</AltitudeMeters>
            <DistanceMeters>NAN</DistanceMeters>
          </Trackpoint>
          <Trackpoint>
            <Time>2020-12-05T10:05:42.000Z</Time>
            <Position>
              <LatitudeDegrees>36.82433246634900569915771484375</LatitudeDegrees>
              <LongitudeDegrees>-4.38356026075780391693115234375</LongitudeDegrees>
            </Position>
            <AltitudeMeters>792</AltitudeMeters>
            <DistanceMeters>NAN</DistanceMeters>
          </Trackpoint>
          <Trackpoint>
            <Time>2020-12-05T10:05:43.000Z</Time>
            <Position>
              <LatitudeDegrees>36.82433162815868854522705078125</LatitudeDegrees>
              <LongitudeDegrees>-4.38355523161590099334716796875</LongitudeDegrees>
            </Position>
            <AltitudeMeters>792</AltitudeMeters>
            <DistanceMeters>NAN</DistanceMeters>
          </Trackpoint>
          <Trackpoint>
            <Time>2020-12-05T10:05:44.000Z</Time>
            <Position>
              <LatitudeDegrees>36.824331544339656829833984375</LatitudeDegrees>
              <LongitudeDegrees>-4.38355070538818836212158203125</LongitudeDegrees>
            </Position>
            <AltitudeMeters>792</AltitudeMeters>
            <DistanceMeters>NAN</DistanceMeters>
          </Trackpoint>
          <Trackpoint>
            <Time>2020-12-05T10:05:45.000Z</Time>
            <Position>
              <LatitudeDegrees>36.8243313767015933990478515625</LatitudeDegrees>
              <LongitudeDegrees>-4.38354701735079288482666015625</LongitudeDegrees>
            </Position>
            <AltitudeMeters>792</AltitudeMeters>
            <DistanceMeters>NAN</DistanceMeters>
          </Trackpoint>
          <Trackpoint>
            <Time>2020-12-05T10:05:46.000Z</Time>
            <Position>
              <LatitudeDegrees>36.82433011941611766815185546875</LatitudeDegrees>
              <LongitudeDegrees>-4.3835437484085559844970703125</LongitudeDegrees>
            </Position>
            <AltitudeMeters>792</AltitudeMeters>
            <DistanceMeters>NAN</DistanceMeters>
          </Trackpoint>
          <Trackpoint>
            <Time>2020-12-05T10:05:47.000Z</Time>
            <Position>
              <LatitudeDegrees>36.82432810775935649871826171875</LatitudeDegrees>
              <LongitudeDegrees>-4.38353695906698703765869140625</LongitudeDegrees>
            </Position>
            <AltitudeMeters>792.20001220703125</AltitudeMeters>
            <DistanceMeters>NAN</DistanceMeters>
          </Trackpoint>
          <Trackpoint>
            <Time>2020-12-05T10:05:48.000Z</Time>
            <Position>
              <LatitudeDegrees>36.8243276886641979217529296875</LatitudeDegrees>
              <LongitudeDegrees>-4.3835300020873546600341796875</LongitudeDegrees>
            </Position>
            <AltitudeMeters>792.20001220703125</AltitudeMeters>
            <DistanceMeters>NAN</DistanceMeters>
          </Trackpoint>
          <Trackpoint>
            <Time>2020-12-05T10:05:49.000Z</Time>
            <Position>
              <LatitudeDegrees>36.82432861067354679107666015625</LatitudeDegrees>
              <LongitudeDegrees>-4.38352706842124462127685546875</LongitudeDegrees>
            </Position>
            <AltitudeMeters>792.4000244140625</AltitudeMeters>
            <DistanceMeters>NAN</DistanceMeters>
          </Trackpoint>
          <Trackpoint>
            <Time>2020-12-05T10:05:50.000Z</Time>
            <Position>
              <LatitudeDegrees>36.82432978413999080657958984375</LatitudeDegrees>
              <LongitudeDegrees>-4.38352220691740512847900390625</LongitudeDegrees>
            </Position>
            <AltitudeMeters>792.5999755859375</AltitudeMeters>
            <DistanceMeters>NAN</DistanceMeters>
          </Trackpoint>
          <Trackpoint>
            <Time>2020-12-05T10:05:51.000Z</Time>
            <Position>
              <LatitudeDegrees>36.82433045469224452972412109375</LatitudeDegrees>
              <LongitudeDegrees>-4.3835132382810115814208984375</LongitudeDegrees>
            </Position>
            <AltitudeMeters>792.79998779296875</AltitudeMeters>
            <DistanceMeters>NAN</DistanceMeters>
          </Trackpoint>
          <Trackpoint>
            <Time>2020-12-05T10:05:52.000Z</Time>
            <Position>
              <LatitudeDegrees>36.8243317119777202606201171875</LatitudeDegrees>
              <LongitudeDegrees>-4.3835065327584743499755859375</LongitudeDegrees>
            </Position>
            <AltitudeMeters>793</AltitudeMeters>
            <DistanceMeters>NAN</DistanceMeters>
          </Trackpoint>
          <Trackpoint>
            <Time>2020-12-05T10:05:53.000Z</Time>
            <Position>
              <LatitudeDegrees>36.82433296926319599151611328125</LatitudeDegrees>
              <LongitudeDegrees>-4.38350209034979343414306640625</LongitudeDegrees>
            </Position>
            <AltitudeMeters>793.20001220703125</AltitudeMeters>
            <DistanceMeters>NAN</DistanceMeters>
          </Trackpoint>
          <Trackpoint>
            <Time>2020-12-05T10:05:54.000Z</Time>
            <Position>
              <LatitudeDegrees>36.8243360705673694610595703125</LatitudeDegrees>
              <LongitudeDegrees>-4.38350074924528598785400390625</LongitudeDegrees>
            </Position>
            <AltitudeMeters>793.20001220703125</AltitudeMeters>
            <DistanceMeters>NAN</DistanceMeters>
          </Trackpoint>
          <Trackpoint>
            <Time>2020-12-05T10:05:55.000Z</Time>
            <Position>
              <LatitudeDegrees>36.8243387527763843536376953125</LatitudeDegrees>
              <LongitudeDegrees>-4.38349907286465167999267578125</LongitudeDegrees>
            </Position>
            <AltitudeMeters>793.4000244140625</AltitudeMeters>
            <DistanceMeters>NAN</DistanceMeters>
          </Trackpoint>
          <Trackpoint>
            <Time>2020-12-05T10:05:56.000Z</Time>
            <Position>
              <LatitudeDegrees>36.8243372440338134765625</LatitudeDegrees>
              <LongitudeDegrees>-4.38349370844662189483642578125</LongitudeDegrees>
            </Position>
            <AltitudeMeters>793.4000244140625</AltitudeMeters>
            <DistanceMeters>NAN</DistanceMeters>
          </Trackpoint>
          <Trackpoint>
            <Time>2020-12-05T10:05:57.000Z</Time>
            <Position>
              <LatitudeDegrees>36.82434101589024066925048828125</LatitudeDegrees>
              <LongitudeDegrees>-4.38349387608468532562255859375</LongitudeDegrees>
            </Position>
            <AltitudeMeters>793.5999755859375</AltitudeMeters>
            <DistanceMeters>NAN</DistanceMeters>
          </Trackpoint>
          <Trackpoint>
            <Time>2020-12-05T10:05:58.000Z</Time>
            <Position>
              <LatitudeDegrees>36.8243461288511753082275390625</LatitudeDegrees>
              <LongitudeDegrees>-4.3834934569895267486572265625</LongitudeDegrees>
            </Position>
            <AltitudeMeters>793.5999755859375</AltitudeMeters>
            <DistanceMeters>NAN</DistanceMeters>
          </Trackpoint>
          <Trackpoint>
            <Time>2020-12-05T10:05:59.000Z</Time>
            <Position>
              <LatitudeDegrees>36.8243498168885707855224609375</LatitudeDegrees>
              <LongitudeDegrees>-4.3834897689521312713623046875</LongitudeDegrees>
            </Position>
            <AltitudeMeters>794</AltitudeMeters>
            <DistanceMeters>NAN</DistanceMeters>
          </Trackpoint>
          <Trackpoint>
            <Time>2020-12-05T10:06:00.000Z</Time>
            <Position>
              <LatitudeDegrees>36.82435442693531513214111328125</LatitudeDegrees>
              <LongitudeDegrees>-4.38348650000989437103271484375</LongitudeDegrees>
            </Position>
            <AltitudeMeters>794.20001220703125</AltitudeMeters>
            <DistanceMeters>NAN</DistanceMeters>
          </Trackpoint>
          <Trackpoint>
            <Time>2020-12-05T10:06:01.000Z</Time>
            <Position>
              <LatitudeDegrees>36.8243602104485034942626953125</LatitudeDegrees>
              <LongitudeDegrees>-4.38348264433443546295166015625</LongitudeDegrees>
            </Position>
            <AltitudeMeters>794.5999755859375</AltitudeMeters>
            <DistanceMeters>NAN</DistanceMeters>
          </Trackpoint>
          <Trackpoint>
            <Time>2020-12-05T10:06:02.000Z</Time>
            <Position>
              <LatitudeDegrees>36.8243642337620258331298828125</LatitudeDegrees>
              <LongitudeDegrees>-4.3834765255451202392578125</LongitudeDegrees>
            </Position>
            <AltitudeMeters>794.79998779296875</AltitudeMeters>
            <DistanceMeters>NAN</DistanceMeters>
          </Trackpoint>
          <Trackpoint>
            <Time>2020-12-05T10:06:03.000Z</Time>
            <Position>
              <LatitudeDegrees>36.824365742504596710205078125</LatitudeDegrees>
              <LongitudeDegrees>-4.38346755690872669219970703125</LongitudeDegrees>
            </Position>
            <AltitudeMeters>795</AltitudeMeters>
            <DistanceMeters>NAN</DistanceMeters>
          </Trackpoint>
          <Trackpoint>
            <Time>2020-12-05T10:06:04.000Z</Time>
            <Position>
              <LatitudeDegrees>36.82437035255134105682373046875</LatitudeDegrees>
              <LongitudeDegrees>-4.383462108671665191650390625</LongitudeDegrees>
            </Position>
            <AltitudeMeters>795.20001220703125</AltitudeMeters>
            <DistanceMeters>NAN</DistanceMeters>
          </Trackpoint>
          <Trackpoint>
            <Time>2020-12-05T10:06:05.000Z</Time>
            <Position>
              <LatitudeDegrees>36.82437454350292682647705078125</LatitudeDegrees>
              <LongitudeDegrees>-4.38345682807266712188720703125</LongitudeDegrees>
            </Position>
            <AltitudeMeters>795.4000244140625</AltitudeMeters>
            <DistanceMeters>NAN</DistanceMeters>
          </Trackpoint>
          <Trackpoint>
            <Time>2020-12-05T10:06:06.000Z</Time>
            <Position>
              <LatitudeDegrees>36.8243840150535106658935546875</LatitudeDegrees>
              <LongitudeDegrees>-4.383453391492366790771484375</LongitudeDegrees>
            </Position>
            <AltitudeMeters>795.4000244140625</AltitudeMeters>
            <DistanceMeters>NAN</DistanceMeters>
          </Trackpoint>
          <Trackpoint>
            <Time>2020-12-05T10:06:07.000Z</Time>
            <Position>
              <LatitudeDegrees>36.8243903852999210357666015625</LatitudeDegrees>
              <LongitudeDegrees>-4.383451044559478759765625</LongitudeDegrees>
            </Position>
            <AltitudeMeters>795.5999755859375</AltitudeMeters>
            <DistanceMeters>NAN</DistanceMeters>
          </Trackpoint>
          <Trackpoint>
            <Time>2020-12-05T10:06:08.000Z</Time>
            <Position>
              <LatitudeDegrees>36.82439432479441165924072265625</LatitudeDegrees>
              <LongitudeDegrees>-4.3834481947124004364013671875</LongitudeDegrees>
            </Position>
            <AltitudeMeters>795.5999755859375</AltitudeMeters>
            <DistanceMeters>NAN</DistanceMeters>
          </Trackpoint>
          <Trackpoint>
            <Time>2020-12-05T10:06:09.000Z</Time>
            <Position>
              <LatitudeDegrees>36.82439633645117282867431640625</LatitudeDegrees>
              <LongitudeDegrees>-4.38344559632241725921630859375</LongitudeDegrees>
            </Position>
            <AltitudeMeters>795.5999755859375</AltitudeMeters>
            <DistanceMeters>NAN</DistanceMeters>
          </Trackpoint>
          <Trackpoint>
            <Time>2020-12-05T10:06:10.000Z</Time>
            <Position>
              <LatitudeDegrees>36.824397929012775421142578125</LatitudeDegrees>
              <LongitudeDegrees>-4.3834424950182437896728515625</LongitudeDegrees>
            </Position>
            <AltitudeMeters>795.5999755859375</AltitudeMeters>
            <DistanceMeters>NAN</DistanceMeters>
          </Trackpoint>
          <Trackpoint>
            <Time>2020-12-05T10:06:11.000Z</Time>
            <Position>
              <LatitudeDegrees>36.82440119795501232147216796875</LatitudeDegrees>
              <LongitudeDegrees>-4.3834357894957065582275390625</LongitudeDegrees>
            </Position>
            <AltitudeMeters>795.5999755859375</AltitudeMeters>
            <DistanceMeters>NAN</DistanceMeters>
          </Trackpoint>
          <Trackpoint>
            <Time>2020-12-05T10:06:12.000Z</Time>
            <Position>
              <LatitudeDegrees>36.8244064785540103912353515625</LatitudeDegrees>
              <LongitudeDegrees>-4.38342983834445476531982421875</LongitudeDegrees>
            </Position>
            <AltitudeMeters>795.5999755859375</AltitudeMeters>
            <DistanceMeters>NAN</DistanceMeters>
          </Trackpoint>
          <Trackpoint>
            <Time>2020-12-05T10:06:13.000Z</Time>
            <Position>
              <LatitudeDegrees>36.82440974749624729156494140625</LatitudeDegrees>
              <LongitudeDegrees>-4.38342346809804439544677734375</LongitudeDegrees>
            </Position>
            <AltitudeMeters>795.5999755859375</AltitudeMeters>
            <DistanceMeters>NAN</DistanceMeters>
          </Trackpoint>
          <Trackpoint>
            <Time>2020-12-05T10:06:14.000Z</Time>
            <Position>
              <LatitudeDegrees>36.824414022266864776611328125</LatitudeDegrees>
              <LongitudeDegrees>-4.38341625966131687164306640625</LongitudeDegrees>
            </Position>
            <AltitudeMeters>795.5999755859375</AltitudeMeters>
            <DistanceMeters>NAN</DistanceMeters>
          </Trackpoint>
          <Trackpoint>
            <Time>2020-12-05T10:06:15.000Z</Time>
            <Position>
              <LatitudeDegrees>36.82441494427621364593505859375</LatitudeDegrees>
              <LongitudeDegrees>-4.38340771012008190155029296875</LongitudeDegrees>
            </Position>
            <AltitudeMeters>795.5999755859375</AltitudeMeters>
            <DistanceMeters>NAN</DistanceMeters>
          </Trackpoint>
          <Trackpoint>
            <Time>2020-12-05T10:06:16.000Z</Time>
            <Position>
              <LatitudeDegrees>36.82441377080976963043212890625</LatitudeDegrees>
              <LongitudeDegrees>-4.3833960592746734619140625</LongitudeDegrees>
            </Position>
            <AltitudeMeters>795.5999755859375</AltitudeMeters>
            <DistanceMeters>NAN</DistanceMeters>
          </Trackpoint>
          <Trackpoint>
            <Time>2020-12-05T10:06:17.000Z</Time>
            <Position>
              <LatitudeDegrees>36.824413351714611053466796875</LatitudeDegrees>
              <LongitudeDegrees>-4.383387006819248199462890625</LongitudeDegrees>
            </Position>
            <AltitudeMeters>795.5999755859375</AltitudeMeters>
            <DistanceMeters>NAN</DistanceMeters>
          </Trackpoint>
          <Trackpoint>
            <Time>2020-12-05T10:06:18.000Z</Time>
            <Position>
              <LatitudeDegrees>36.82441326789557933807373046875</LatitudeDegrees>
              <LongitudeDegrees>-4.38338038511574268341064453125</LongitudeDegrees>
            </Position>
            <AltitudeMeters>795.5999755859375</AltitudeMeters>
            <DistanceMeters>NAN</DistanceMeters>
          </Trackpoint>
          <Trackpoint>
            <Time>2020-12-05T10:06:19.000Z</Time>
            <Position>
              <LatitudeDegrees>36.82441259734332561492919921875</LatitudeDegrees>
              <LongitudeDegrees>-4.3833719193935394287109375</LongitudeDegrees>
            </Position>
            <AltitudeMeters>795.5999755859375</AltitudeMeters>
            <DistanceMeters>NAN</DistanceMeters>
          </Trackpoint>
          <Trackpoint>
            <Time>2020-12-05T10:06:20.000Z</Time>
            <Position>
              <LatitudeDegrees>36.82440924458205699920654296875</LatitudeDegrees>
              <LongitudeDegrees>-4.383367560803890228271484375</LongitudeDegrees>
            </Position>
            <AltitudeMeters>795.5999755859375</AltitudeMeters>
            <DistanceMeters>NAN</DistanceMeters>
          </Trackpoint>
          <Trackpoint>
            <Time>2020-12-05T10:06:21.000Z</Time>
            <Position>
              <LatitudeDegrees>36.82440756820142269134521484375</LatitudeDegrees>
              <LongitudeDegrees>-4.38336663879454135894775390625</LongitudeDegrees>
            </Position>
            <AltitudeMeters>795.5999755859375</AltitudeMeters>
            <DistanceMeters>NAN</DistanceMeters>
          </Trackpoint>
          <Trackpoint>
            <Time>2020-12-05T10:06:22.000Z</Time>
            <Position>
              <LatitudeDegrees>36.82440723292529582977294921875</LatitudeDegrees>
              <LongitudeDegrees>-4.3833667226135730743408203125</LongitudeDegrees>
            </Position>
            <AltitudeMeters>795.5999755859375</AltitudeMeters>
            <DistanceMeters>NAN</DistanceMeters>
          </Trackpoint>
          <Trackpoint>
            <Time>2020-12-05T10:06:23.000Z</Time>
            <Position>
              <LatitudeDegrees>36.82440605945885181427001953125</LatitudeDegrees>
              <LongitudeDegrees>-4.38336563296616077423095703125</LongitudeDegrees>
            </Position>
            <AltitudeMeters>795.5999755859375</AltitudeMeters>
            <DistanceMeters>NAN</DistanceMeters>
          </Trackpoint>
          <Trackpoint>
            <Time>2020-12-05T10:06:24.000Z</Time>
            <Position>
              <LatitudeDegrees>36.8244011141359806060791015625</LatitudeDegrees>
              <LongitudeDegrees>-4.3833647109568119049072265625</LongitudeDegrees>
            </Position>
            <AltitudeMeters>795.5999755859375</AltitudeMeters>
            <DistanceMeters>NAN</DistanceMeters>
          </Trackpoint>
          <Trackpoint>
            <Time>2020-12-05T10:06:25.000Z</Time>
            <Position>
              <LatitudeDegrees>36.82439700700342655181884765625</LatitudeDegrees>
              <LongitudeDegrees>-4.3833620287477970123291015625</LongitudeDegrees>
            </Position>
            <AltitudeMeters>795.4000244140625</AltitudeMeters>
            <DistanceMeters>NAN</DistanceMeters>
          </Trackpoint>
          <Trackpoint>
            <Time>2020-12-05T10:06:26.000Z</Time>
            <Position>
              <LatitudeDegrees>36.8243940733373165130615234375</LatitudeDegrees>
              <LongitudeDegrees>-4.383358173072338104248046875</LongitudeDegrees>
            </Position>
            <AltitudeMeters>795.4000244140625</AltitudeMeters>
            <DistanceMeters>NAN</DistanceMeters>
          </Trackpoint>
          <Trackpoint>
            <Time>2020-12-05T10:06:27.000Z</Time>
            <Position>
              <LatitudeDegrees>36.8243947438895702362060546875</LatitudeDegrees>
              <LongitudeDegrees>-4.3833563290536403656005859375</LongitudeDegrees>
            </Position>
            <AltitudeMeters>795.4000244140625</AltitudeMeters>
            <DistanceMeters>NAN</DistanceMeters>
          </Trackpoint>
          <Trackpoint>
            <Time>2020-12-05T10:06:28.000Z</Time>
            <Position>
              <LatitudeDegrees>36.82439214549958705902099609375</LatitudeDegrees>
              <LongitudeDegrees>-4.3833558261394500732421875</LongitudeDegrees>
            </Position>
            <AltitudeMeters>795.20001220703125</AltitudeMeters>
            <DistanceMeters>NAN</DistanceMeters>
          </Trackpoint>
          <Trackpoint>
            <Time>2020-12-05T10:06:29.000Z</Time>
            <Position>
              <LatitudeDegrees>36.82438979856669902801513671875</LatitudeDegrees>
              <LongitudeDegrees>-4.3833559937775135040283203125</LongitudeDegrees>
            </Position>
            <AltitudeMeters>795.20001220703125</AltitudeMeters>
            <DistanceMeters>NAN</DistanceMeters>
          </Trackpoint>
          <Trackpoint>
            <Time>2020-12-05T10:06:30.000Z</Time>
            <Position>
              <LatitudeDegrees>36.8243893794715404510498046875</LatitudeDegrees>
              <LongitudeDegrees>-4.383358173072338104248046875</LongitudeDegrees>
            </Position>
            <AltitudeMeters>795</AltitudeMeters>
            <DistanceMeters>NAN</DistanceMeters>
          </Trackpoint>
          <Trackpoint>
            <Time>2020-12-05T10:06:31.000Z</Time>
            <Position>
              <LatitudeDegrees>36.824387200176715850830078125</LatitudeDegrees>
              <LongitudeDegrees>-4.38336110673844814300537109375</LongitudeDegrees>
            </Position>
            <AltitudeMeters>795</AltitudeMeters>
            <DistanceMeters>NAN</DistanceMeters>
          </Trackpoint>
          <Trackpoint>
            <Time>2020-12-05T10:06:32.000Z</Time>
            <Position>
              <LatitudeDegrees>36.8243883736431598663330078125</LatitudeDegrees>
              <LongitudeDegrees>-4.38336596824228763580322265625</LongitudeDegrees>
            </Position>
            <AltitudeMeters>795</AltitudeMeters>
            <DistanceMeters>NAN</DistanceMeters>
          </Trackpoint>
          <Trackpoint>
            <Time>2020-12-05T10:06:33.000Z</Time>
            <Position>
              <LatitudeDegrees>36.82439130730926990509033203125</LatitudeDegrees>
              <LongitudeDegrees>-4.383370913565158843994140625</LongitudeDegrees>
            </Position>
            <AltitudeMeters>795</AltitudeMeters>
            <DistanceMeters>NAN</DistanceMeters>
          </Trackpoint>
          <Trackpoint>
            <Time>2020-12-05T10:06:34.000Z</Time>
            <Position>
              <LatitudeDegrees>36.8243917264044284820556640625</LatitudeDegrees>
              <LongitudeDegrees>-4.38337502069771289825439453125</LongitudeDegrees>
            </Position>
            <AltitudeMeters>794.79998779296875</AltitudeMeters>
            <DistanceMeters>NAN</DistanceMeters>
          </Trackpoint>
          <Trackpoint>
            <Time>2020-12-05T10:06:35.000Z</Time>
            <Position>
              <LatitudeDegrees>36.8243910558521747589111328125</LatitudeDegrees>
              <LongitudeDegrees>-4.383379630744457244873046875</LongitudeDegrees>
            </Position>
            <AltitudeMeters>794.79998779296875</AltitudeMeters>
            <DistanceMeters>NAN</DistanceMeters>
          </Trackpoint>
          <Trackpoint>
            <Time>2020-12-05T10:06:36.000Z</Time>
            <Position>
              <LatitudeDegrees>36.82439147494733333587646484375</LatitudeDegrees>
              <LongitudeDegrees>-4.383381307125091552734375</LongitudeDegrees>
            </Position>
            <AltitudeMeters>794.5999755859375</AltitudeMeters>
            <DistanceMeters>NAN</DistanceMeters>
          </Trackpoint>
          <Trackpoint>
            <Time>2020-12-05T10:06:37.000Z</Time>
            <Position>
              <LatitudeDegrees>36.824395917356014251708984375</LatitudeDegrees>
              <LongitudeDegrees>-4.383380971848964691162109375</LongitudeDegrees>
            </Position>
            <AltitudeMeters>794.4000244140625</AltitudeMeters>
            <DistanceMeters>NAN</DistanceMeters>
          </Trackpoint>
          <Trackpoint>
            <Time>2020-12-05T10:06:38.000Z</Time>
            <Position>
              <LatitudeDegrees>36.8244004435837268829345703125</LatitudeDegrees>
              <LongitudeDegrees>-4.3833838216960430145263671875</LongitudeDegrees>
            </Position>
            <AltitudeMeters>794.4000244140625</AltitudeMeters>
            <DistanceMeters>NAN</DistanceMeters>
          </Trackpoint>
          <Trackpoint>
            <Time>2020-12-05T10:06:39.000Z</Time>
            <Position>
              <LatitudeDegrees>36.8244074843823909759521484375</LatitudeDegrees>
              <LongitudeDegrees>-4.3833880126476287841796875</LongitudeDegrees>
            </Position>
            <AltitudeMeters>794.4000244140625</AltitudeMeters>
            <DistanceMeters>NAN</DistanceMeters>
          </Trackpoint>
          <Trackpoint>
            <Time>2020-12-05T10:06:40.000Z</Time>
            <Position>
              <LatitudeDegrees>36.8244136869907379150390625</LatitudeDegrees>
              <LongitudeDegrees>-4.3833922035992145538330078125</LongitudeDegrees>
            </Position>
            <AltitudeMeters>794.20001220703125</AltitudeMeters>
            <DistanceMeters>NAN</DistanceMeters>
          </Trackpoint>
          <Trackpoint>
            <Time>2020-12-05T10:06:41.000Z</Time>
            <Position>
              <LatitudeDegrees>36.82441695593297481536865234375</LatitudeDegrees>
              <LongitudeDegrees>-4.38339832238852977752685546875</LongitudeDegrees>
            </Position>
            <AltitudeMeters>794</AltitudeMeters>
            <DistanceMeters>NAN</DistanceMeters>
          </Trackpoint>
          <Trackpoint>
            <Time>2020-12-05T10:06:42.000Z</Time>
            <Position>
              <LatitudeDegrees>36.824421398341655731201171875</LatitudeDegrees>
              <LongitudeDegrees>-4.38340251334011554718017578125</LongitudeDegrees>
            </Position>
            <AltitudeMeters>793.79998779296875</AltitudeMeters>
            <DistanceMeters>NAN</DistanceMeters>
          </Trackpoint>
          <Trackpoint>
            <Time>2020-12-05T10:06:43.000Z</Time>
            <Position>
              <LatitudeDegrees>36.82442449964582920074462890625</LatitudeDegrees>
              <LongitudeDegrees>-4.3834066204726696014404296875</LongitudeDegrees>
            </Position>
            <AltitudeMeters>793.5999755859375</AltitudeMeters>
            <DistanceMeters>NAN</DistanceMeters>
          </Trackpoint>
          <Trackpoint>
            <Time>2020-12-05T10:06:44.000Z</Time>
            <Position>
              <LatitudeDegrees>36.82442500256001949310302734375</LatitudeDegrees>
              <LongitudeDegrees>-4.3834096379578113555908203125</LongitudeDegrees>
            </Position>
            <AltitudeMeters>793.4000244140625</AltitudeMeters>
            <DistanceMeters>NAN</DistanceMeters>
          </Trackpoint>
          <Trackpoint>
            <Time>2020-12-05T10:06:45.000Z</Time>
            <Position>
              <LatitudeDegrees>36.8244208954274654388427734375</LatitudeDegrees>
              <LongitudeDegrees>-4.3834099732339382171630859375</LongitudeDegrees>
            </Position>
            <AltitudeMeters>793.20001220703125</AltitudeMeters>
            <DistanceMeters>NAN</DistanceMeters>
          </Trackpoint>
          <Trackpoint>
            <Time>2020-12-05T10:06:46.000Z</Time>
            <Position>
              <LatitudeDegrees>36.82441796176135540008544921875</LatitudeDegrees>
              <LongitudeDegrees>-4.38341290690004825592041015625</LongitudeDegrees>
            </Position>
            <AltitudeMeters>793</AltitudeMeters>
            <DistanceMeters>NAN</DistanceMeters>
          </Trackpoint>
          <Trackpoint>
            <Time>2020-12-05T10:06:47.000Z</Time>
            <Position>
              <LatitudeDegrees>36.82441444136202335357666015625</LatitudeDegrees>
              <LongitudeDegrees>-4.38341357745230197906494140625</LongitudeDegrees>
            </Position>
            <AltitudeMeters>793</AltitudeMeters>
            <DistanceMeters>NAN</DistanceMeters>
          </Trackpoint>
          <Trackpoint>
            <Time>2020-12-05T10:06:48.000Z</Time>
            <Position>
              <LatitudeDegrees>36.82440765202045440673828125</LatitudeDegrees>
              <LongitudeDegrees>-4.38341223634779453277587890625</LongitudeDegrees>
            </Position>
            <AltitudeMeters>792.79998779296875</AltitudeMeters>
            <DistanceMeters>NAN</DistanceMeters>
          </Trackpoint>
          <Trackpoint>
            <Time>2020-12-05T10:06:49.000Z</Time>
            <Position>
              <LatitudeDegrees>36.82439901866018772125244140625</LatitudeDegrees>
              <LongitudeDegrees>-4.3834126554429531097412109375</LongitudeDegrees>
            </Position>
            <AltitudeMeters>792.79998779296875</AltitudeMeters>
            <DistanceMeters>NAN</DistanceMeters>
          </Trackpoint>
          <Trackpoint>
            <Time>2020-12-05T10:06:50.000Z</Time>
            <Position>
              <LatitudeDegrees>36.8243957497179508209228515625</LatitudeDegrees>
              <LongitudeDegrees>-4.38341525383293628692626953125</LongitudeDegrees>
            </Position>
            <AltitudeMeters>792.5999755859375</AltitudeMeters>
            <DistanceMeters>NAN</DistanceMeters>
          </Trackpoint>
          <Trackpoint>
            <Time>2020-12-05T10:06:51.000Z</Time>
            <Position>
              <LatitudeDegrees>36.82439558207988739013671875</LatitudeDegrees>
              <LongitudeDegrees>-4.3834213726222515106201171875</LongitudeDegrees>
            </Position>
            <AltitudeMeters>792.5999755859375</AltitudeMeters>
            <DistanceMeters>NAN</DistanceMeters>
          </Trackpoint>
          <Trackpoint>
            <Time>2020-12-05T10:06:52.000Z</Time>
            <Position>
              <LatitudeDegrees>36.82439315132796764373779296875</LatitudeDegrees>
              <LongitudeDegrees>-4.3834260664880275726318359375</LongitudeDegrees>
            </Position>
            <AltitudeMeters>792.4000244140625</AltitudeMeters>
            <DistanceMeters>NAN</DistanceMeters>
          </Trackpoint>
          <Trackpoint>
            <Time>2020-12-05T10:06:53.000Z</Time>
            <Position>
              <LatitudeDegrees>36.82438611052930355072021484375</LatitudeDegrees>
              <LongitudeDegrees>-4.38342757523059844970703125</LongitudeDegrees>
            </Position>
            <AltitudeMeters>792.4000244140625</AltitudeMeters>
            <DistanceMeters>NAN</DistanceMeters>
          </Trackpoint>
          <Trackpoint>
            <Time>2020-12-05T10:06:54.000Z</Time>
            <Position>
              <LatitudeDegrees>36.82438351213932037353515625</LatitudeDegrees>
              <LongitudeDegrees>-4.38343017362058162689208984375</LongitudeDegrees>
            </Position>
            <AltitudeMeters>792.4000244140625</AltitudeMeters>
            <DistanceMeters>NAN</DistanceMeters>
          </Trackpoint>
          <Trackpoint>
            <Time>2020-12-05T10:06:55.000Z</Time>
            <Position>
              <LatitudeDegrees>36.8243841826915740966796875</LatitudeDegrees>
              <LongitudeDegrees>-4.38342665322124958038330078125</LongitudeDegrees>
            </Position>
            <AltitudeMeters>792.5999755859375</AltitudeMeters>
            <DistanceMeters>NAN</DistanceMeters>
          </Trackpoint>
          <Trackpoint>
            <Time>2020-12-05T10:06:56.000Z</Time>
            <Position>
              <LatitudeDegrees>36.8243833445012569427490234375</LatitudeDegrees>
              <LongitudeDegrees>-4.38342262990772724151611328125</LongitudeDegrees>
            </Position>
            <AltitudeMeters>792.5999755859375</AltitudeMeters>
            <DistanceMeters>NAN</DistanceMeters>
          </Trackpoint>
          <Trackpoint>
            <Time>2020-12-05T10:06:57.000Z</Time>
            <Position>
              <LatitudeDegrees>36.82438351213932037353515625</LatitudeDegrees>
              <LongitudeDegrees>-4.38341693021357059478759765625</LongitudeDegrees>
            </Position>
            <AltitudeMeters>792.79998779296875</AltitudeMeters>
            <DistanceMeters>NAN</DistanceMeters>
          </Trackpoint>
          <Trackpoint>
            <Time>2020-12-05T10:06:58.000Z</Time>
            <Position>
              <LatitudeDegrees>36.82438191957771778106689453125</LatitudeDegrees>
              <LongitudeDegrees>-4.38341290690004825592041015625</LongitudeDegrees>
            </Position>
            <AltitudeMeters>793</AltitudeMeters>
            <DistanceMeters>NAN</DistanceMeters>
          </Trackpoint>
          <Trackpoint>
            <Time>2020-12-05T10:06:59.000Z</Time>
            <Position>
              <LatitudeDegrees>36.824379153549671173095703125</LatitudeDegrees>
              <LongitudeDegrees>-4.3834143318235874176025390625</LongitudeDegrees>
            </Position>
            <AltitudeMeters>793.20001220703125</AltitudeMeters>
            <DistanceMeters>NAN</DistanceMeters>
          </Trackpoint>
          <Trackpoint>
            <Time>2020-12-05T10:07:00.000Z</Time>
            <Position>
              <LatitudeDegrees>36.8243763037025928497314453125</LatitudeDegrees>
              <LongitudeDegrees>-4.38341978006064891815185546875</LongitudeDegrees>
            </Position>
            <AltitudeMeters>793.20001220703125</AltitudeMeters>
            <DistanceMeters>NAN</DistanceMeters>
          </Trackpoint>
          <Trackpoint>
            <Time>2020-12-05T10:07:01.000Z</Time>
            <Position>
              <LatitudeDegrees>36.82437504641711711883544921875</LatitudeDegrees>
              <LongitudeDegrees>-4.3834270723164081573486328125</LongitudeDegrees>
            </Position>
            <AltitudeMeters>793.4000244140625</AltitudeMeters>
            <DistanceMeters>NAN</DistanceMeters>
          </Trackpoint>
          <Trackpoint>
            <Time>2020-12-05T10:07:02.000Z</Time>
            <Position>
              <LatitudeDegrees>36.82438082993030548095703125</LatitudeDegrees>
              <LongitudeDegrees>-4.38343453221023082733154296875</LongitudeDegrees>
            </Position>
            <AltitudeMeters>793.4000244140625</AltitudeMeters>
            <DistanceMeters>NAN</DistanceMeters>
          </Trackpoint>
          <Trackpoint>
            <Time>2020-12-05T10:07:03.000Z</Time>
            <Position>
              <LatitudeDegrees>36.82438912801444530487060546875</LatitudeDegrees>
              <LongitudeDegrees>-4.38344635069370269775390625</LongitudeDegrees>
            </Position>
            <AltitudeMeters>793.4000244140625</AltitudeMeters>
            <DistanceMeters>NAN</DistanceMeters>
          </Trackpoint>
          <Trackpoint>
            <Time>2020-12-05T10:07:04.000Z</Time>
            <Position>
              <LatitudeDegrees>36.824395917356014251708984375</LatitudeDegrees>
              <LongitudeDegrees>-4.38345716334879398345947265625</LongitudeDegrees>
            </Position>
            <AltitudeMeters>793.4000244140625</AltitudeMeters>
            <DistanceMeters>NAN</DistanceMeters>
          </Trackpoint>
          <Trackpoint>
            <Time>2020-12-05T10:07:05.000Z</Time>
            <Position>
              <LatitudeDegrees>36.82439826428890228271484375</LatitudeDegrees>
              <LongitudeDegrees>-4.3834592588245868682861328125</LongitudeDegrees>
            </Position>
            <AltitudeMeters>793.20001220703125</AltitudeMeters>
            <DistanceMeters>NAN</DistanceMeters>
          </Trackpoint>
          <Trackpoint>
            <Time>2020-12-05T10:07:06.000Z</Time>
            <Position>
              <LatitudeDegrees>36.82440237142145633697509765625</LatitudeDegrees>
              <LongitudeDegrees>-4.38346152193844318389892578125</LongitudeDegrees>
            </Position>
            <AltitudeMeters>793.20001220703125</AltitudeMeters>
            <DistanceMeters>NAN</DistanceMeters>
          </Trackpoint>
          <Trackpoint>
            <Time>2020-12-05T10:07:07.000Z</Time>
            <Position>
              <LatitudeDegrees>36.82440823875367641448974609375</LatitudeDegrees>
              <LongitudeDegrees>-4.38346487469971179962158203125</LongitudeDegrees>
            </Position>
            <AltitudeMeters>793.20001220703125</AltitudeMeters>
            <DistanceMeters>NAN</DistanceMeters>
          </Trackpoint>
          <Trackpoint>
            <Time>2020-12-05T10:07:08.000Z</Time>
            <Position>
              <LatitudeDegrees>36.8244121782481670379638671875</LatitudeDegrees>
              <LongitudeDegrees>-4.3834679760038852691650390625</LongitudeDegrees>
            </Position>
            <AltitudeMeters>793.20001220703125</AltitudeMeters>
            <DistanceMeters>NAN</DistanceMeters>
          </Trackpoint>
          <Trackpoint>
            <Time>2020-12-05T10:07:09.000Z</Time>
            <Position>
              <LatitudeDegrees>36.8244148604571819305419921875</LatitudeDegrees>
              <LongitudeDegrees>-4.38347057439386844635009765625</LongitudeDegrees>
            </Position>
            <AltitudeMeters>793.20001220703125</AltitudeMeters>
            <DistanceMeters>NAN</DistanceMeters>
          </Trackpoint>
          <Trackpoint>
            <Time>2020-12-05T10:07:10.000Z</Time>
            <Position>
              <LatitudeDegrees>36.82441779412329196929931640625</LatitudeDegrees>
              <LongitudeDegrees>-4.383467473089694976806640625</LongitudeDegrees>
            </Position>
            <AltitudeMeters>793.4000244140625</AltitudeMeters>
            <DistanceMeters>NAN</DistanceMeters>
          </Trackpoint>
          <Trackpoint>
            <Time>2020-12-05T10:07:11.000Z</Time>
            <Position>
              <LatitudeDegrees>36.82441930286586284637451171875</LatitudeDegrees>
              <LongitudeDegrees>-4.383464120328426361083984375</LongitudeDegrees>
            </Position>
            <AltitudeMeters>793.4000244140625</AltitudeMeters>
            <DistanceMeters>NAN</DistanceMeters>
          </Trackpoint>
          <Trackpoint>
            <Time>2020-12-05T10:07:12.000Z</Time>
            <Position>
              <LatitudeDegrees>36.82442014105618000030517578125</LatitudeDegrees>
              <LongitudeDegrees>-4.383459426462650299072265625</LongitudeDegrees>
            </Position>
            <AltitudeMeters>793.4000244140625</AltitudeMeters>
            <DistanceMeters>NAN</DistanceMeters>
          </Trackpoint>
          <Trackpoint>
            <Time>2020-12-05T10:07:13.000Z</Time>
            <Position>
              <LatitudeDegrees>36.82442030869424343109130859375</LatitudeDegrees>
              <LongitudeDegrees>-4.38345548696815967559814453125</LongitudeDegrees>
            </Position>
            <AltitudeMeters>793.4000244140625</AltitudeMeters>
            <DistanceMeters>NAN</DistanceMeters>
          </Trackpoint>
          <Trackpoint>
            <Time>2020-12-05T10:07:14.000Z</Time>
            <Position>
              <LatitudeDegrees>36.82441896758973598480224609375</LatitudeDegrees>
              <LongitudeDegrees>-4.38344945199787616729736328125</LongitudeDegrees>
            </Position>
            <AltitudeMeters>793.5999755859375</AltitudeMeters>
            <DistanceMeters>NAN</DistanceMeters>
          </Trackpoint>
          <Trackpoint>
            <Time>2020-12-05T10:07:15.000Z</Time>
            <Position>
              <LatitudeDegrees>36.82441527955234050750732421875</LatitudeDegrees>
              <LongitudeDegrees>-4.38344140537083148956298828125</LongitudeDegrees>
            </Position>
            <AltitudeMeters>793.5999755859375</AltitudeMeters>
            <DistanceMeters>NAN</DistanceMeters>
          </Trackpoint>
          <Trackpoint>
            <Time>2020-12-05T10:07:16.000Z</Time>
            <Position>
              <LatitudeDegrees>36.82440555654466152191162109375</LatitudeDegrees>
              <LongitudeDegrees>-4.383433945477008819580078125</LongitudeDegrees>
            </Position>
            <AltitudeMeters>793.79998779296875</AltitudeMeters>
            <DistanceMeters>NAN</DistanceMeters>
          </Trackpoint>
          <Trackpoint>
            <Time>2020-12-05T10:07:17.000Z</Time>
            <Position>
              <LatitudeDegrees>36.8244016170501708984375</LatitudeDegrees>
              <LongitudeDegrees>-4.38342162407934665679931640625</LongitudeDegrees>
            </Position>
            <AltitudeMeters>793.79998779296875</AltitudeMeters>
            <DistanceMeters>NAN</DistanceMeters>
          </Trackpoint>
          <Trackpoint>
            <Time>2020-12-05T10:07:18.000Z</Time>
            <Position>
              <LatitudeDegrees>36.8243991024792194366455078125</LatitudeDegrees>
              <LongitudeDegrees>-4.38341014087200164794921875</LongitudeDegrees>
            </Position>
            <AltitudeMeters>793.79998779296875</AltitudeMeters>
            <DistanceMeters>NAN</DistanceMeters>
          </Trackpoint>
          <Trackpoint>
            <Time>2020-12-05T10:07:19.000Z</Time>
            <Position>
              <LatitudeDegrees>36.824398934841156005859375</LatitudeDegrees>
              <LongitudeDegrees>-4.38340016640722751617431640625</LongitudeDegrees>
            </Position>
            <AltitudeMeters>793.79998779296875</AltitudeMeters>
            <DistanceMeters>NAN</DistanceMeters>
          </Trackpoint>
          <Trackpoint>
            <Time>2020-12-05T10:07:20.000Z</Time>
            <Position>
              <LatitudeDegrees>36.8244001083076000213623046875</LatitudeDegrees>
              <LongitudeDegrees>-4.38339128158986568450927734375</LongitudeDegrees>
            </Position>
            <AltitudeMeters>793.79998779296875</AltitudeMeters>
            <DistanceMeters>NAN</DistanceMeters>
          </Trackpoint>
          <Trackpoint>
            <Time>2020-12-05T10:07:21.000Z</Time>
            <Position>
              <LatitudeDegrees>36.82440170086920261383056640625</LatitudeDegrees>
              <LongitudeDegrees>-4.383384995162487030029296875</LongitudeDegrees>
            </Position>
            <AltitudeMeters>793.5999755859375</AltitudeMeters>
            <DistanceMeters>NAN</DistanceMeters>
          </Trackpoint>
          <Trackpoint>
            <Time>2020-12-05T10:07:22.000Z</Time>
            <Position>
              <LatitudeDegrees>36.8244024552404880523681640625</LatitudeDegrees>
              <LongitudeDegrees>-4.38337719999253749847412109375</LongitudeDegrees>
            </Position>
            <AltitudeMeters>793.5999755859375</AltitudeMeters>
            <DistanceMeters>NAN</DistanceMeters>
          </Trackpoint>
          <Trackpoint>
            <Time>2020-12-05T10:07:23.000Z</Time>
            <Position>
              <LatitudeDegrees>36.82440438307821750640869140625</LatitudeDegrees>
              <LongitudeDegrees>-4.38336965627968311309814453125</LongitudeDegrees>
            </Position>
            <AltitudeMeters>793.4000244140625</AltitudeMeters>
            <DistanceMeters>NAN</DistanceMeters>
          </Trackpoint>
          <Trackpoint>
            <Time>2020-12-05T10:07:24.000Z</Time>
            <Position>
              <LatitudeDegrees>36.824405975639820098876953125</LatitudeDegrees>
              <LongitudeDegrees>-4.3833593465387821197509765625</LongitudeDegrees>
            </Position>
            <AltitudeMeters>793.20001220703125</AltitudeMeters>
            <DistanceMeters>NAN</DistanceMeters>
          </Trackpoint>
          <Trackpoint>
            <Time>2020-12-05T10:07:25.000Z</Time>
            <Position>
              <LatitudeDegrees>36.82440890930593013763427734375</LatitudeDegrees>
              <LongitudeDegrees>-4.3833409063518047332763671875</LongitudeDegrees>
            </Position>
            <AltitudeMeters>792.79998779296875</AltitudeMeters>
            <DistanceMeters>NAN</DistanceMeters>
          </Trackpoint>
          <Trackpoint>
            <Time>2020-12-05T10:07:26.000Z</Time>
            <Position>
              <LatitudeDegrees>36.82440974749624729156494140625</LatitudeDegrees>
              <LongitudeDegrees>-4.383330680429935455322265625</LongitudeDegrees>
            </Position>
            <AltitudeMeters>792.4000244140625</AltitudeMeters>
            <DistanceMeters>NAN</DistanceMeters>
          </Trackpoint>
          <Trackpoint>
            <Time>2020-12-05T10:07:27.000Z</Time>
            <Position>
              <LatitudeDegrees>36.824408657848834991455078125</LatitudeDegrees>
              <LongitudeDegrees>-4.38332288525998592376708984375</LongitudeDegrees>
            </Position>
            <AltitudeMeters>792.20001220703125</AltitudeMeters>
            <DistanceMeters>NAN</DistanceMeters>
          </Trackpoint>
          <Trackpoint>
            <Time>2020-12-05T10:07:28.000Z</Time>
            <Position>
              <LatitudeDegrees>36.8244084902107715606689453125</LatitudeDegrees>
              <LongitudeDegrees>-4.3833177722990512847900390625</LongitudeDegrees>
            </Position>
            <AltitudeMeters>792</AltitudeMeters>
            <DistanceMeters>NAN</DistanceMeters>
          </Trackpoint>
          <Trackpoint>
            <Time>2020-12-05T10:07:29.000Z</Time>
            <Position>
              <LatitudeDegrees>36.82440572418272495269775390625</LatitudeDegrees>
              <LongitudeDegrees>-4.38331651501357555389404296875</LongitudeDegrees>
            </Position>
            <AltitudeMeters>791.5999755859375</AltitudeMeters>
            <DistanceMeters>NAN</DistanceMeters>
          </Trackpoint>
          <Trackpoint>
            <Time>2020-12-05T10:07:30.000Z</Time>
            <Position>
              <LatitudeDegrees>36.82440362870693206787109375</LatitudeDegrees>
              <LongitudeDegrees>-4.38331617973744869232177734375</LongitudeDegrees>
            </Position>
            <AltitudeMeters>791.4000244140625</AltitudeMeters>
            <DistanceMeters>NAN</DistanceMeters>
          </Trackpoint>
          <Trackpoint>
            <Time>2020-12-05T10:07:31.000Z</Time>
            <Position>
              <LatitudeDegrees>36.82439885102212429046630859375</LatitudeDegrees>
              <LongitudeDegrees>-4.38331819139420986175537109375</LongitudeDegrees>
            </Position>
            <AltitudeMeters>791.20001220703125</AltitudeMeters>
            <DistanceMeters>NAN</DistanceMeters>
          </Trackpoint>
          <Trackpoint>
            <Time>2020-12-05T10:07:32.000Z</Time>
            <Position>
              <LatitudeDegrees>36.8243913911283016204833984375</LatitudeDegrees>
              <LongitudeDegrees>-4.3833217956125736236572265625</LongitudeDegrees>
            </Position>
            <AltitudeMeters>791.20001220703125</AltitudeMeters>
            <DistanceMeters>NAN</DistanceMeters>
          </Trackpoint>
          <Trackpoint>
            <Time>2020-12-05T10:07:33.000Z</Time>
            <Position>
              <LatitudeDegrees>36.82438611052930355072021484375</LatitudeDegrees>
              <LongitudeDegrees>-4.38332372345030307769775390625</LongitudeDegrees>
            </Position>
            <AltitudeMeters>791</AltitudeMeters>
            <DistanceMeters>NAN</DistanceMeters>
          </Trackpoint>
          <Trackpoint>
            <Time>2020-12-05T10:07:34.000Z</Time>
            <Position>
              <LatitudeDegrees>36.824382506310939788818359375</LatitudeDegrees>
              <LongitudeDegrees>-4.38332556746900081634521484375</LongitudeDegrees>
            </Position>
            <AltitudeMeters>790.79998779296875</AltitudeMeters>
            <DistanceMeters>NAN</DistanceMeters>
          </Trackpoint>
          <Trackpoint>
            <Time>2020-12-05T10:07:35.000Z</Time>
            <Position>
              <LatitudeDegrees>36.8243806622922420501708984375</LatitudeDegrees>
              <LongitudeDegrees>-4.38332640565931797027587890625</LongitudeDegrees>
            </Position>
            <AltitudeMeters>790.79998779296875</AltitudeMeters>
            <DistanceMeters>NAN</DistanceMeters>
          </Trackpoint>
          <Trackpoint>
            <Time>2020-12-05T10:07:36.000Z</Time>
            <Position>
              <LatitudeDegrees>36.82437974028289318084716796875</LatitudeDegrees>
              <LongitudeDegrees>-4.38333327881991863250732421875</LongitudeDegrees>
            </Position>
            <AltitudeMeters>790.5999755859375</AltitudeMeters>
            <DistanceMeters>NAN</DistanceMeters>
          </Trackpoint>
          <Trackpoint>
            <Time>2020-12-05T10:07:37.000Z</Time>
            <Position>
              <LatitudeDegrees>36.8243793211877346038818359375</LatitudeDegrees>
              <LongitudeDegrees>-4.3833352066576480865478515625</LongitudeDegrees>
            </Position>
            <AltitudeMeters>790.5999755859375</AltitudeMeters>
            <DistanceMeters>NAN</DistanceMeters>
          </Trackpoint>
          <Trackpoint>
            <Time>2020-12-05T10:07:38.000Z</Time>
            <Position>
              <LatitudeDegrees>36.824376471340656280517578125</LatitudeDegrees>
              <LongitudeDegrees>-4.383343420922756195068359375</LongitudeDegrees>
            </Position>
            <AltitudeMeters>790.5999755859375</AltitudeMeters>
            <DistanceMeters>NAN</DistanceMeters>
          </Trackpoint>
          <Trackpoint>
            <Time>2020-12-05T10:07:39.000Z</Time>
            <Position>
              <LatitudeDegrees>36.82437269948422908782958984375</LatitudeDegrees>
              <LongitudeDegrees>-4.383356161415576934814453125</LongitudeDegrees>
            </Position>
            <AltitudeMeters>790.5999755859375</AltitudeMeters>
            <DistanceMeters>NAN</DistanceMeters>
          </Trackpoint>
          <Trackpoint>
            <Time>2020-12-05T10:07:40.000Z</Time>
            <Position>
              <LatitudeDegrees>36.82436951436102390289306640625</LatitudeDegrees>
              <LongitudeDegrees>-4.38336747698485851287841796875</LongitudeDegrees>
            </Position>
            <AltitudeMeters>790.5999755859375</AltitudeMeters>
            <DistanceMeters>NAN</DistanceMeters>
          </Trackpoint>
          <Trackpoint>
            <Time>2020-12-05T10:07:41.000Z</Time>
            <Position>
              <LatitudeDegrees>36.8243680894374847412109375</LatitudeDegrees>
              <LongitudeDegrees>-4.3833744339644908905029296875</LongitudeDegrees>
            </Position>
            <AltitudeMeters>790.79998779296875</AltitudeMeters>
            <DistanceMeters>NAN</DistanceMeters>
          </Trackpoint>
          <Trackpoint>
            <Time>2020-12-05T10:07:42.000Z</Time>
            <Position>
              <LatitudeDegrees>36.82436934672296047210693359375</LatitudeDegrees>
              <LongitudeDegrees>-4.3833774514496326446533203125</LongitudeDegrees>
            </Position>
            <AltitudeMeters>790.79998779296875</AltitudeMeters>
            <DistanceMeters>NAN</DistanceMeters>
          </Trackpoint>
          <Trackpoint>
            <Time>2020-12-05T10:07:43.000Z</Time>
            <Position>
              <LatitudeDegrees>36.8243712745606899261474609375</LatitudeDegrees>
              <LongitudeDegrees>-4.3833781220018863677978515625</LongitudeDegrees>
            </Position>
            <AltitudeMeters>790.79998779296875</AltitudeMeters>
            <DistanceMeters>NAN</DistanceMeters>
          </Trackpoint>
          <Trackpoint>
            <Time>2020-12-05T10:07:44.000Z</Time>
            <Position>
              <LatitudeDegrees>36.82437739335000514984130859375</LatitudeDegrees>
              <LongitudeDegrees>-4.3833734281361103057861328125</LongitudeDegrees>
            </Position>
            <AltitudeMeters>791</AltitudeMeters>
            <DistanceMeters>NAN</DistanceMeters>
          </Trackpoint>
          <Trackpoint>
            <Time>2020-12-05T10:07:45.000Z</Time>
            <Position>
              <LatitudeDegrees>36.824379824101924896240234375</LatitudeDegrees>
              <LongitudeDegrees>-4.38337049447000026702880859375</LongitudeDegrees>
            </Position>
            <AltitudeMeters>791</AltitudeMeters>
            <DistanceMeters>NAN</DistanceMeters>
          </Trackpoint>
          <Trackpoint>
            <Time>2020-12-05T10:07:46.000Z</Time>
            <Position>
              <LatitudeDegrees>36.82438007555902004241943359375</LatitudeDegrees>
              <LongitudeDegrees>-4.3833687342703342437744140625</LongitudeDegrees>
            </Position>
            <AltitudeMeters>791.20001220703125</AltitudeMeters>
            <DistanceMeters>NAN</DistanceMeters>
          </Trackpoint>
          <Trackpoint>
            <Time>2020-12-05T10:07:47.000Z</Time>
            <Position>
              <LatitudeDegrees>36.8243816681206226348876953125</LatitudeDegrees>
              <LongitudeDegrees>-4.3833670578896999359130859375</LongitudeDegrees>
            </Position>
            <AltitudeMeters>791.4000244140625</AltitudeMeters>
            <DistanceMeters>NAN</DistanceMeters>
          </Trackpoint>
          <Trackpoint>
            <Time>2020-12-05T10:07:48.000Z</Time>
            <Position>
              <LatitudeDegrees>36.82438426651060581207275390625</LatitudeDegrees>
              <LongitudeDegrees>-4.383365213871002197265625</LongitudeDegrees>
            </Position>
            <AltitudeMeters>792</AltitudeMeters>
            <DistanceMeters>NAN</DistanceMeters>
          </Trackpoint>
          <Trackpoint>
            <Time>2020-12-05T10:07:49.000Z</Time>
            <Position>
              <LatitudeDegrees>36.82438342832028865814208984375</LatitudeDegrees>
              <LongitudeDegrees>-4.38336454331874847412109375</LongitudeDegrees>
            </Position>
            <AltitudeMeters>792.4000244140625</AltitudeMeters>
            <DistanceMeters>NAN</DistanceMeters>
          </Trackpoint>
          <Trackpoint>
            <Time>2020-12-05T10:07:50.000Z</Time>
            <Position>
              <LatitudeDegrees>36.824381165206432342529296875</LatitudeDegrees>
              <LongitudeDegrees>-4.38336596824228763580322265625</LongitudeDegrees>
            </Position>
            <AltitudeMeters>792.79998779296875</AltitudeMeters>
            <DistanceMeters>NAN</DistanceMeters>
          </Trackpoint>
          <Trackpoint>
            <Time>2020-12-05T10:07:51.000Z</Time>
            <Position>
              <LatitudeDegrees>36.8243799917399883270263671875</LatitudeDegrees>
              <LongitudeDegrees>-4.38336797989904880523681640625</LongitudeDegrees>
            </Position>
            <AltitudeMeters>793</AltitudeMeters>
            <DistanceMeters>NAN</DistanceMeters>
          </Trackpoint>
          <Trackpoint>
            <Time>2020-12-05T10:07:52.000Z</Time>
            <Position>
              <LatitudeDegrees>36.8243752978742122650146484375</LatitudeDegrees>
              <LongitudeDegrees>-4.38336714170873165130615234375</LongitudeDegrees>
            </Position>
            <AltitudeMeters>793</AltitudeMeters>
            <DistanceMeters>NAN</DistanceMeters>
          </Trackpoint>
          <Trackpoint>
            <Time>2020-12-05T10:07:53.000Z</Time>
            <Position>
              <LatitudeDegrees>36.82437370531260967254638671875</LatitudeDegrees>
              <LongitudeDegrees>-4.38336915336549282073974609375</LongitudeDegrees>
            </Position>
            <AltitudeMeters>793</AltitudeMeters>
            <DistanceMeters>NAN</DistanceMeters>
          </Trackpoint>
          <Trackpoint>
            <Time>2020-12-05T10:07:54.000Z</Time>
            <Position>
              <LatitudeDegrees>36.82437236420810222625732421875</LatitudeDegrees>
              <LongitudeDegrees>-4.38336915336549282073974609375</LongitudeDegrees>
            </Position>
            <AltitudeMeters>793</AltitudeMeters>
            <DistanceMeters>NAN</DistanceMeters>
          </Trackpoint>
          <Trackpoint>
            <Time>2020-12-05T10:07:55.000Z</Time>
            <Position>
              <LatitudeDegrees>36.824372448027133941650390625</LatitudeDegrees>
              <LongitudeDegrees>-4.3833680637180805206298828125</LongitudeDegrees>
            </Position>
            <AltitudeMeters>792.5999755859375</AltitudeMeters>
            <DistanceMeters>NAN</DistanceMeters>
          </Trackpoint>
          <Trackpoint>
            <Time>2020-12-05T10:07:56.000Z</Time>
            <Position>
              <LatitudeDegrees>36.8243749625980854034423828125</LatitudeDegrees>
              <LongitudeDegrees>-4.383366890251636505126953125</LongitudeDegrees>
            </Position>
            <AltitudeMeters>792.4000244140625</AltitudeMeters>
            <DistanceMeters>NAN</DistanceMeters>
          </Trackpoint>
          <Trackpoint>
            <Time>2020-12-05T10:07:57.000Z</Time>
            <Position>
              <LatitudeDegrees>36.8243779800832271575927734375</LatitudeDegrees>
              <LongitudeDegrees>-4.38336077146232128143310546875</LongitudeDegrees>
            </Position>
            <AltitudeMeters>792.20001220703125</AltitudeMeters>
            <DistanceMeters>NAN</DistanceMeters>
          </Trackpoint>
          <Trackpoint>
            <Time>2020-12-05T10:07:58.000Z</Time>
            <Position>
              <LatitudeDegrees>36.82437957264482975006103515625</LatitudeDegrees>
              <LongitudeDegrees>-4.38335021026432514190673828125</LongitudeDegrees>
            </Position>
            <AltitudeMeters>792</AltitudeMeters>
            <DistanceMeters>NAN</DistanceMeters>
          </Trackpoint>
          <Trackpoint>
            <Time>2020-12-05T10:07:59.000Z</Time>
            <Position>
              <LatitudeDegrees>36.824385188519954681396484375</LatitudeDegrees>
              <LongitudeDegrees>-4.38334434293210506439208984375</LongitudeDegrees>
            </Position>
            <AltitudeMeters>792</AltitudeMeters>
            <DistanceMeters>NAN</DistanceMeters>
          </Trackpoint>
          <Trackpoint>
            <Time>2020-12-05T10:08:00.000Z</Time>
            <Position>
              <LatitudeDegrees>36.824395246803760528564453125</LatitudeDegrees>
              <LongitudeDegrees>-4.3833365477621555328369140625</LongitudeDegrees>
            </Position>
            <AltitudeMeters>792</AltitudeMeters>
            <DistanceMeters>NAN</DistanceMeters>
          </Trackpoint>
          <Trackpoint>
            <Time>2020-12-05T10:08:01.000Z</Time>
            <Position>
              <LatitudeDegrees>36.82440228760242462158203125</LatitudeDegrees>
              <LongitudeDegrees>-4.3833348713815212249755859375</LongitudeDegrees>
            </Position>
            <AltitudeMeters>792</AltitudeMeters>
            <DistanceMeters>NAN</DistanceMeters>
          </Trackpoint>
          <Trackpoint>
            <Time>2020-12-05T10:08:02.000Z</Time>
            <Position>
              <LatitudeDegrees>36.82440639473497867584228515625</LatitudeDegrees>
              <LongitudeDegrees>-4.383332021534442901611328125</LongitudeDegrees>
            </Position>
            <AltitudeMeters>792</AltitudeMeters>
            <DistanceMeters>NAN</DistanceMeters>
          </Trackpoint>
          <Trackpoint>
            <Time>2020-12-05T10:08:03.000Z</Time>
            <Position>
              <LatitudeDegrees>36.82440555654466152191162109375</LatitudeDegrees>
              <LongitudeDegrees>-4.38333093188703060150146484375</LongitudeDegrees>
            </Position>
            <AltitudeMeters>792</AltitudeMeters>
            <DistanceMeters>NAN</DistanceMeters>
          </Trackpoint>
          <Trackpoint>
            <Time>2020-12-05T10:08:04.000Z</Time>
            <Position>
              <LatitudeDegrees>36.82440673001110553741455078125</LatitudeDegrees>
              <LongitudeDegrees>-4.38332992605865001678466796875</LongitudeDegrees>
            </Position>
            <AltitudeMeters>792</AltitudeMeters>
            <DistanceMeters>NAN</DistanceMeters>
          </Trackpoint>
          <Trackpoint>
            <Time>2020-12-05T10:08:05.000Z</Time>
            <Position>
              <LatitudeDegrees>36.8244071491062641143798828125</LatitudeDegrees>
              <LongitudeDegrees>-4.38332858495414257049560546875</LongitudeDegrees>
            </Position>
            <AltitudeMeters>792</AltitudeMeters>
            <DistanceMeters>NAN</DistanceMeters>
          </Trackpoint>
          <Trackpoint>
            <Time>2020-12-05T10:08:06.000Z</Time>
            <Position>
              <LatitudeDegrees>36.82440740056335926055908203125</LatitudeDegrees>
              <LongitudeDegrees>-4.3833248130977153778076171875</LongitudeDegrees>
            </Position>
            <AltitudeMeters>792</AltitudeMeters>
            <DistanceMeters>NAN</DistanceMeters>
          </Trackpoint>
          <Trackpoint>
            <Time>2020-12-05T10:08:07.000Z</Time>
            <Position>
              <LatitudeDegrees>36.82440941222012042999267578125</LatitudeDegrees>
              <LongitudeDegrees>-4.38332405872642993927001953125</LongitudeDegrees>
            </Position>
            <AltitudeMeters>792</AltitudeMeters>
            <DistanceMeters>NAN</DistanceMeters>
          </Trackpoint>
          <Trackpoint>
            <Time>2020-12-05T10:08:08.000Z</Time>
            <Position>
              <LatitudeDegrees>36.82441242970526218414306640625</LatitudeDegrees>
              <LongitudeDegrees>-4.383325986564159393310546875</LongitudeDegrees>
            </Position>
            <AltitudeMeters>792.20001220703125</AltitudeMeters>
            <DistanceMeters>NAN</DistanceMeters>
          </Trackpoint>
          <Trackpoint>
            <Time>2020-12-05T10:08:09.000Z</Time>
            <Position>
              <LatitudeDegrees>36.8244145251810550689697265625</LatitudeDegrees>
              <LongitudeDegrees>-4.383326657116413116455078125</LongitudeDegrees>
            </Position>
            <AltitudeMeters>792.4000244140625</AltitudeMeters>
            <DistanceMeters>NAN</DistanceMeters>
          </Trackpoint>
          <Trackpoint>
            <Time>2020-12-05T10:08:10.000Z</Time>
            <Position>
              <LatitudeDegrees>36.82441444136202335357666015625</LatitudeDegrees>
              <LongitudeDegrees>-4.383327662944793701171875</LongitudeDegrees>
            </Position>
            <AltitudeMeters>792.4000244140625</AltitudeMeters>
            <DistanceMeters>NAN</DistanceMeters>
          </Trackpoint>
          <Trackpoint>
            <Time>2020-12-05T10:08:11.000Z</Time>
            <Position>
              <LatitudeDegrees>36.82441276498138904571533203125</LatitudeDegrees>
              <LongitudeDegrees>-4.38332590274512767791748046875</LongitudeDegrees>
            </Position>
            <AltitudeMeters>792.5999755859375</AltitudeMeters>
            <DistanceMeters>NAN</DistanceMeters>
          </Trackpoint>
          <Trackpoint>
            <Time>2020-12-05T10:08:12.000Z</Time>
            <Position>
              <LatitudeDegrees>36.82441435754299163818359375</LatitudeDegrees>
              <LongitudeDegrees>-4.38332472927868366241455078125</LongitudeDegrees>
            </Position>
            <AltitudeMeters>792.5999755859375</AltitudeMeters>
            <DistanceMeters>NAN</DistanceMeters>
          </Trackpoint>
          <Trackpoint>
            <Time>2020-12-05T10:08:13.000Z</Time>
            <Position>
              <LatitudeDegrees>36.82441645301878452301025390625</LatitudeDegrees>
              <LongitudeDegrees>-4.38332539983093738555908203125</LongitudeDegrees>
            </Position>
            <AltitudeMeters>792.5999755859375</AltitudeMeters>
            <DistanceMeters>NAN</DistanceMeters>
          </Trackpoint>
          <Trackpoint>
            <Time>2020-12-05T10:08:14.000Z</Time>
            <Position>
              <LatitudeDegrees>36.8244158662855625152587890625</LatitudeDegrees>
              <LongitudeDegrees>-4.38332623802125453948974609375</LongitudeDegrees>
            </Position>
            <AltitudeMeters>792.79998779296875</AltitudeMeters>
            <DistanceMeters>NAN</DistanceMeters>
          </Trackpoint>
          <Trackpoint>
            <Time>2020-12-05T10:08:15.000Z</Time>
            <Position>
              <LatitudeDegrees>36.82441301643848419189453125</LatitudeDegrees>
              <LongitudeDegrees>-4.3833274953067302703857421875</LongitudeDegrees>
            </Position>
            <AltitudeMeters>792.79998779296875</AltitudeMeters>
            <DistanceMeters>NAN</DistanceMeters>
          </Trackpoint>
          <Trackpoint>
            <Time>2020-12-05T10:08:16.000Z</Time>
            <Position>
              <LatitudeDegrees>36.8244058080017566680908203125</LatitudeDegrees>
              <LongitudeDegrees>-4.38332833349704742431640625</LongitudeDegrees>
            </Position>
            <AltitudeMeters>792.79998779296875</AltitudeMeters>
            <DistanceMeters>NAN</DistanceMeters>
          </Trackpoint>
          <Trackpoint>
            <Time>2020-12-05T10:08:17.000Z</Time>
            <Position>
              <LatitudeDegrees>36.82439885102212429046630859375</LatitudeDegrees>
              <LongitudeDegrees>-4.38333143480122089385986328125</LongitudeDegrees>
            </Position>
            <AltitudeMeters>792.79998779296875</AltitudeMeters>
            <DistanceMeters>NAN</DistanceMeters>
          </Trackpoint>
          <Trackpoint>
            <Time>2020-12-05T10:08:18.000Z</Time>
            <Position>
              <LatitudeDegrees>36.82439415715634822845458984375</LatitudeDegrees>
              <LongitudeDegrees>-4.3833375535905361175537109375</LongitudeDegrees>
            </Position>
            <AltitudeMeters>792.79998779296875</AltitudeMeters>
            <DistanceMeters>NAN</DistanceMeters>
          </Trackpoint>
          <Trackpoint>
            <Time>2020-12-05T10:08:19.000Z</Time>
            <Position>
              <LatitudeDegrees>36.82438711635768413543701171875</LatitudeDegrees>
              <LongitudeDegrees>-4.383344091475009918212890625</LongitudeDegrees>
            </Position>
            <AltitudeMeters>793</AltitudeMeters>
            <DistanceMeters>NAN</DistanceMeters>
          </Trackpoint>
          <Trackpoint>
            <Time>2020-12-05T10:08:20.000Z</Time>
            <Position>
              <LatitudeDegrees>36.82438124902546405792236328125</LatitudeDegrees>
              <LongitudeDegrees>-4.383349120616912841796875</LongitudeDegrees>
            </Position>
            <AltitudeMeters>793</AltitudeMeters>
            <DistanceMeters>NAN</DistanceMeters>
          </Trackpoint>
          <Trackpoint>
            <Time>2020-12-05T10:08:21.000Z</Time>
            <Position>
              <LatitudeDegrees>36.82437890209257602691650390625</LatitudeDegrees>
              <LongitudeDegrees>-4.3833516351878643035888671875</LongitudeDegrees>
            </Position>
            <AltitudeMeters>793</AltitudeMeters>
            <DistanceMeters>NAN</DistanceMeters>
          </Trackpoint>
          <Trackpoint>
            <Time>2020-12-05T10:08:22.000Z</Time>
            <Position>
              <LatitudeDegrees>36.824379824101924896240234375</LatitudeDegrees>
              <LongitudeDegrees>-4.3833593465387821197509765625</LongitudeDegrees>
            </Position>
            <AltitudeMeters>793</AltitudeMeters>
            <DistanceMeters>NAN</DistanceMeters>
          </Trackpoint>
          <Trackpoint>
            <Time>2020-12-05T10:08:23.000Z</Time>
            <Position>
              <LatitudeDegrees>36.82438351213932037353515625</LatitudeDegrees>
              <LongitudeDegrees>-4.38337082974612712860107421875</LongitudeDegrees>
            </Position>
            <AltitudeMeters>793</AltitudeMeters>
            <DistanceMeters>NAN</DistanceMeters>
          </Trackpoint>
          <Trackpoint>
            <Time>2020-12-05T10:08:24.000Z</Time>
            <Position>
              <LatitudeDegrees>36.82439164258539676666259765625</LatitudeDegrees>
              <LongitudeDegrees>-4.38338809646666049957275390625</LongitudeDegrees>
            </Position>
            <AltitudeMeters>793</AltitudeMeters>
            <DistanceMeters>NAN</DistanceMeters>
          </Trackpoint>
          <Trackpoint>
            <Time>2020-12-05T10:08:25.000Z</Time>
            <Position>
              <LatitudeDegrees>36.82440337724983692169189453125</LatitudeDegrees>
              <LongitudeDegrees>-4.3834270723164081573486328125</LongitudeDegrees>
            </Position>
            <AltitudeMeters>793</AltitudeMeters>
            <DistanceMeters>NAN</DistanceMeters>
          </Trackpoint>
          <Trackpoint>
            <Time>2020-12-05T10:08:26.000Z</Time>
            <Position>
              <LatitudeDegrees>36.82441125623881816864013671875</LatitudeDegrees>
              <LongitudeDegrees>-4.38343620859086513519287109375</LongitudeDegrees>
            </Position>
            <AltitudeMeters>793</AltitudeMeters>
            <DistanceMeters>NAN</DistanceMeters>
          </Trackpoint>
          <Trackpoint>
            <Time>2020-12-05T10:08:27.000Z</Time>
            <Position>
              <LatitudeDegrees>36.8244121782481670379638671875</LatitudeDegrees>
              <LongitudeDegrees>-4.38343805260956287384033203125</LongitudeDegrees>
            </Position>
            <AltitudeMeters>793.20001220703125</AltitudeMeters>
            <DistanceMeters>NAN</DistanceMeters>
          </Trackpoint>
          <Trackpoint>
            <Time>2020-12-05T10:08:28.000Z</Time>
            <Position>
              <LatitudeDegrees>36.8244111724197864532470703125</LatitudeDegrees>
              <LongitudeDegrees>-4.383435286581516265869140625</LongitudeDegrees>
            </Position>
            <AltitudeMeters>793.20001220703125</AltitudeMeters>
            <DistanceMeters>NAN</DistanceMeters>
          </Trackpoint>
          <Trackpoint>
            <Time>2020-12-05T10:08:29.000Z</Time>
            <Position>
              <LatitudeDegrees>36.824410669505596160888671875</LatitudeDegrees>
              <LongitudeDegrees>-4.38342631794512271881103515625</LongitudeDegrees>
            </Position>
            <AltitudeMeters>793.4000244140625</AltitudeMeters>
            <DistanceMeters>NAN</DistanceMeters>
          </Trackpoint>
          <Trackpoint>
            <Time>2020-12-05T10:08:30.000Z</Time>
            <Position>
              <LatitudeDegrees>36.824412010610103607177734375</LatitudeDegrees>
              <LongitudeDegrees>-4.38341089524328708648681640625</LongitudeDegrees>
            </Position>
            <AltitudeMeters>793.4000244140625</AltitudeMeters>
            <DistanceMeters>NAN</DistanceMeters>
          </Trackpoint>
          <Trackpoint>
            <Time>2020-12-05T10:08:31.000Z</Time>
            <Position>
              <LatitudeDegrees>36.82441276498138904571533203125</LatitudeDegrees>
              <LongitudeDegrees>-4.3834009207785129547119140625</LongitudeDegrees>
            </Position>
            <AltitudeMeters>793.4000244140625</AltitudeMeters>
            <DistanceMeters>NAN</DistanceMeters>
          </Trackpoint>
          <Trackpoint>
            <Time>2020-12-05T10:08:32.000Z</Time>
            <Position>
              <LatitudeDegrees>36.82440974749624729156494140625</LatitudeDegrees>
              <LongitudeDegrees>-4.38339144922792911529541015625</LongitudeDegrees>
            </Position>
            <AltitudeMeters>793.4000244140625</AltitudeMeters>
            <DistanceMeters>NAN</DistanceMeters>
          </Trackpoint>
          <Trackpoint>
            <Time>2020-12-05T10:08:33.000Z</Time>
            <Position>
              <LatitudeDegrees>36.8244037963449954986572265625</LatitudeDegrees>
              <LongitudeDegrees>-4.38337988220155239105224609375</LongitudeDegrees>
            </Position>
            <AltitudeMeters>793.20001220703125</AltitudeMeters>
            <DistanceMeters>NAN</DistanceMeters>
          </Trackpoint>
          <Trackpoint>
            <Time>2020-12-05T10:08:34.000Z</Time>
            <Position>
              <LatitudeDegrees>36.82440605945885181427001953125</LatitudeDegrees>
              <LongitudeDegrees>-4.38337351195514202117919921875</LongitudeDegrees>
            </Position>
            <AltitudeMeters>793.20001220703125</AltitudeMeters>
            <DistanceMeters>NAN</DistanceMeters>
          </Trackpoint>
          <Trackpoint>
            <Time>2020-12-05T10:08:35.000Z</Time>
            <Position>
              <LatitudeDegrees>36.82440631091594696044921875</LatitudeDegrees>
              <LongitudeDegrees>-4.38336722552776336669921875</LongitudeDegrees>
            </Position>
            <AltitudeMeters>793.20001220703125</AltitudeMeters>
            <DistanceMeters>NAN</DistanceMeters>
          </Trackpoint>
          <Trackpoint>
            <Time>2020-12-05T10:08:36.000Z</Time>
            <Position>
              <LatitudeDegrees>36.8244031257927417755126953125</LatitudeDegrees>
              <LongitudeDegrees>-4.38336496241390705108642578125</LongitudeDegrees>
            </Position>
            <AltitudeMeters>793.20001220703125</AltitudeMeters>
            <DistanceMeters>NAN</DistanceMeters>
          </Trackpoint>
          <Trackpoint>
            <Time>2020-12-05T10:08:37.000Z</Time>
            <Position>
              <LatitudeDegrees>36.82439985685050487518310546875</LatitudeDegrees>
              <LongitudeDegrees>-4.3833623640239238739013671875</LongitudeDegrees>
            </Position>
            <AltitudeMeters>793.20001220703125</AltitudeMeters>
            <DistanceMeters>NAN</DistanceMeters>
          </Trackpoint>
          <Trackpoint>
            <Time>2020-12-05T10:08:38.000Z</Time>
            <Position>
              <LatitudeDegrees>36.82439424097537994384765625</LatitudeDegrees>
              <LongitudeDegrees>-4.38335741870105266571044921875</LongitudeDegrees>
            </Position>
            <AltitudeMeters>793</AltitudeMeters>
            <DistanceMeters>NAN</DistanceMeters>
          </Trackpoint>
          <Trackpoint>
            <Time>2020-12-05T10:08:39.000Z</Time>
            <Position>
              <LatitudeDegrees>36.8243870325386524200439453125</LatitudeDegrees>
              <LongitudeDegrees>-4.38335113227367401123046875</LongitudeDegrees>
            </Position>
            <AltitudeMeters>793</AltitudeMeters>
            <DistanceMeters>NAN</DistanceMeters>
          </Trackpoint>
          <Trackpoint>
            <Time>2020-12-05T10:08:40.000Z</Time>
            <Position>
              <LatitudeDegrees>36.82438041083514690399169921875</LatitudeDegrees>
              <LongitudeDegrees>-4.383348785340785980224609375</LongitudeDegrees>
            </Position>
            <AltitudeMeters>793</AltitudeMeters>
            <DistanceMeters>NAN</DistanceMeters>
          </Trackpoint>
          <Trackpoint>
            <Time>2020-12-05T10:08:41.000Z</Time>
            <Position>
              <LatitudeDegrees>36.82437219657003879547119140625</LatitudeDegrees>
              <LongitudeDegrees>-4.38334769569337368011474609375</LongitudeDegrees>
            </Position>
            <AltitudeMeters>793</AltitudeMeters>
            <DistanceMeters>NAN</DistanceMeters>
          </Trackpoint>
          <Trackpoint>
            <Time>2020-12-05T10:08:42.000Z</Time>
            <Position>
              <LatitudeDegrees>36.82436616159975528717041015625</LatitudeDegrees>
              <LongitudeDegrees>-4.3833477795124053955078125</LongitudeDegrees>
            </Position>
            <AltitudeMeters>792.79998779296875</AltitudeMeters>
            <DistanceMeters>NAN</DistanceMeters>
          </Trackpoint>
          <Trackpoint>
            <Time>2020-12-05T10:08:43.000Z</Time>
            <Position>
              <LatitudeDegrees>36.824365071952342987060546875</LatitudeDegrees>
              <LongitudeDegrees>-4.38334635458886623382568359375</LongitudeDegrees>
            </Position>
            <AltitudeMeters>792.79998779296875</AltitudeMeters>
            <DistanceMeters>NAN</DistanceMeters>
          </Trackpoint>
          <Trackpoint>
            <Time>2020-12-05T10:08:44.000Z</Time>
            <Position>
              <LatitudeDegrees>36.8243659101426601409912109375</LatitudeDegrees>
              <LongitudeDegrees>-4.38334937207400798797607421875</LongitudeDegrees>
            </Position>
            <AltitudeMeters>792.5999755859375</AltitudeMeters>
            <DistanceMeters>NAN</DistanceMeters>
          </Trackpoint>
          <Trackpoint>
            <Time>2020-12-05T10:08:45.000Z</Time>
            <Position>
              <LatitudeDegrees>36.82436532340943813323974609375</LatitudeDegrees>
              <LongitudeDegrees>-4.38335515558719635009765625</LongitudeDegrees>
            </Position>
            <AltitudeMeters>792.5999755859375</AltitudeMeters>
            <DistanceMeters>NAN</DistanceMeters>
          </Trackpoint>
          <Trackpoint>
            <Time>2020-12-05T10:08:46.000Z</Time>
            <Position>
              <LatitudeDegrees>36.82436549104750156402587890625</LatitudeDegrees>
              <LongitudeDegrees>-4.38335758633911609649658203125</LongitudeDegrees>
            </Position>
            <AltitudeMeters>792.4000244140625</AltitudeMeters>
            <DistanceMeters>NAN</DistanceMeters>
          </Trackpoint>
          <Trackpoint>
            <Time>2020-12-05T10:08:47.000Z</Time>
            <Position>
              <LatitudeDegrees>36.82436884380877017974853515625</LatitudeDegrees>
              <LongitudeDegrees>-4.38335641287267208099365234375</LongitudeDegrees>
            </Position>
            <AltitudeMeters>792.4000244140625</AltitudeMeters>
            <DistanceMeters>NAN</DistanceMeters>
          </Trackpoint>
          <Trackpoint>
            <Time>2020-12-05T10:08:48.000Z</Time>
            <Position>
              <LatitudeDegrees>36.824373118579387664794921875</LatitudeDegrees>
              <LongitudeDegrees>-4.38335507176816463470458984375</LongitudeDegrees>
            </Position>
            <AltitudeMeters>792.20001220703125</AltitudeMeters>
            <DistanceMeters>NAN</DistanceMeters>
          </Trackpoint>
          <Trackpoint>
            <Time>2020-12-05T10:08:49.000Z</Time>
            <Position>
              <LatitudeDegrees>36.82438141666352748870849609375</LatitudeDegrees>
              <LongitudeDegrees>-4.38335247337818145751953125</LongitudeDegrees>
            </Position>
            <AltitudeMeters>792.20001220703125</AltitudeMeters>
            <DistanceMeters>NAN</DistanceMeters>
          </Trackpoint>
          <Trackpoint>
            <Time>2020-12-05T10:08:50.000Z</Time>
            <Position>
              <LatitudeDegrees>36.8243895471096038818359375</LatitudeDegrees>
              <LongitudeDegrees>-4.38334668986499309539794921875</LongitudeDegrees>
            </Position>
            <AltitudeMeters>792.20001220703125</AltitudeMeters>
            <DistanceMeters>NAN</DistanceMeters>
          </Trackpoint>
          <Trackpoint>
            <Time>2020-12-05T10:08:51.000Z</Time>
            <Position>
              <LatitudeDegrees>36.82439851574599742889404296875</LatitudeDegrees>
              <LongitudeDegrees>-4.383342750370502471923828125</LongitudeDegrees>
            </Position>
            <AltitudeMeters>792.20001220703125</AltitudeMeters>
            <DistanceMeters>NAN</DistanceMeters>
          </Trackpoint>
          <Trackpoint>
            <Time>2020-12-05T10:08:52.000Z</Time>
            <Position>
              <LatitudeDegrees>36.8244017846882343292236328125</LatitudeDegrees>
              <LongitudeDegrees>-4.38333964906632900238037109375</LongitudeDegrees>
            </Position>
            <AltitudeMeters>792</AltitudeMeters>
            <DistanceMeters>NAN</DistanceMeters>
          </Trackpoint>
          <Trackpoint>
            <Time>2020-12-05T10:08:53.000Z</Time>
            <Position>
              <LatitudeDegrees>36.8244031257927417755126953125</LatitudeDegrees>
              <LongitudeDegrees>-4.38333914615213871002197265625</LongitudeDegrees>
            </Position>
            <AltitudeMeters>791.79998779296875</AltitudeMeters>
            <DistanceMeters>NAN</DistanceMeters>
          </Trackpoint>
          <Trackpoint>
            <Time>2020-12-05T10:08:54.000Z</Time>
            <Position>
              <LatitudeDegrees>36.82440320961177349090576171875</LatitudeDegrees>
              <LongitudeDegrees>-4.38334249891340732574462890625</LongitudeDegrees>
            </Position>
            <AltitudeMeters>791.5999755859375</AltitudeMeters>
            <DistanceMeters>NAN</DistanceMeters>
          </Trackpoint>
          <Trackpoint>
            <Time>2020-12-05T10:08:55.000Z</Time>
            <Position>
              <LatitudeDegrees>36.82440153323113918304443359375</LatitudeDegrees>
              <LongitudeDegrees>-4.38334710896015167236328125</LongitudeDegrees>
            </Position>
            <AltitudeMeters>791.5999755859375</AltitudeMeters>
            <DistanceMeters>NAN</DistanceMeters>
          </Trackpoint>
          <Trackpoint>
            <Time>2020-12-05T10:08:56.000Z</Time>
            <Position>
              <LatitudeDegrees>36.82439734227955341339111328125</LatitudeDegrees>
              <LongitudeDegrees>-4.38335238955914974212646484375</LongitudeDegrees>
            </Position>
            <AltitudeMeters>791.5999755859375</AltitudeMeters>
            <DistanceMeters>NAN</DistanceMeters>
          </Trackpoint>
          <Trackpoint>
            <Time>2020-12-05T10:08:57.000Z</Time>
            <Position>
              <LatitudeDegrees>36.824393905699253082275390625</LatitudeDegrees>
              <LongitudeDegrees>-4.3833596818149089813232421875</LongitudeDegrees>
            </Position>
            <AltitudeMeters>791.5999755859375</AltitudeMeters>
            <DistanceMeters>NAN</DistanceMeters>
          </Trackpoint>
          <Trackpoint>
            <Time>2020-12-05T10:08:58.000Z</Time>
            <Position>
              <LatitudeDegrees>36.8243950791656970977783203125</LatitudeDegrees>
              <LongitudeDegrees>-4.38336311839520931243896484375</LongitudeDegrees>
            </Position>
            <AltitudeMeters>791.4000244140625</AltitudeMeters>
            <DistanceMeters>NAN</DistanceMeters>
          </Trackpoint>
          <Trackpoint>
            <Time>2020-12-05T10:08:59.000Z</Time>
            <Position>
              <LatitudeDegrees>36.8243934027850627899169921875</LatitudeDegrees>
              <LongitudeDegrees>-4.38336311839520931243896484375</LongitudeDegrees>
            </Position>
            <AltitudeMeters>791.4000244140625</AltitudeMeters>
            <DistanceMeters>NAN</DistanceMeters>
          </Trackpoint>
          <Trackpoint>
            <Time>2020-12-05T10:09:00.000Z</Time>
            <Position>
              <LatitudeDegrees>36.8243860267102718353271484375</LatitudeDegrees>
              <LongitudeDegrees>-4.383349455893039703369140625</LongitudeDegrees>
            </Position>
            <AltitudeMeters>791.4000244140625</AltitudeMeters>
            <DistanceMeters>NAN</DistanceMeters>
          </Trackpoint>
          <Trackpoint>
            <Time>2020-12-05T10:09:01.000Z</Time>
            <Position>
              <LatitudeDegrees>36.8243836797773838043212890625</LatitudeDegrees>
              <LongitudeDegrees>-4.38334618695080280303955078125</LongitudeDegrees>
            </Position>
            <AltitudeMeters>791.4000244140625</AltitudeMeters>
            <DistanceMeters>NAN</DistanceMeters>
          </Trackpoint>
          <Trackpoint>
            <Time>2020-12-05T10:09:02.000Z</Time>
            <Position>
              <LatitudeDegrees>36.824385188519954681396484375</LatitudeDegrees>
              <LongitudeDegrees>-4.38334635458886623382568359375</LongitudeDegrees>
            </Position>
            <AltitudeMeters>791.4000244140625</AltitudeMeters>
            <DistanceMeters>NAN</DistanceMeters>
          </Trackpoint>
          <Trackpoint>
            <Time>2020-12-05T10:09:03.000Z</Time>
            <Position>
              <LatitudeDegrees>36.82438912801444530487060546875</LatitudeDegrees>
              <LongitudeDegrees>-4.38335021026432514190673828125</LongitudeDegrees>
            </Position>
            <AltitudeMeters>791.4000244140625</AltitudeMeters>
            <DistanceMeters>NAN</DistanceMeters>
          </Trackpoint>
          <Trackpoint>
            <Time>2020-12-05T10:09:04.000Z</Time>
            <Position>
              <LatitudeDegrees>36.82439398951828479766845703125</LatitudeDegrees>
              <LongitudeDegrees>-4.383352808654308319091796875</LongitudeDegrees>
            </Position>
            <AltitudeMeters>791.4000244140625</AltitudeMeters>
            <DistanceMeters>NAN</DistanceMeters>
          </Trackpoint>
          <Trackpoint>
            <Time>2020-12-05T10:09:05.000Z</Time>
            <Position>
              <LatitudeDegrees>36.82439692318439483642578125</LatitudeDegrees>
              <LongitudeDegrees>-4.3833590112626552581787109375</LongitudeDegrees>
            </Position>
            <AltitudeMeters>791.4000244140625</AltitudeMeters>
            <DistanceMeters>NAN</DistanceMeters>
          </Trackpoint>
          <Trackpoint>
            <Time>2020-12-05T10:09:06.000Z</Time>
            <Position>
              <LatitudeDegrees>36.82440094649791717529296875</LatitudeDegrees>
              <LongitudeDegrees>-4.38336764462292194366455078125</LongitudeDegrees>
            </Position>
            <AltitudeMeters>791.4000244140625</AltitudeMeters>
            <DistanceMeters>NAN</DistanceMeters>
          </Trackpoint>
          <Trackpoint>
            <Time>2020-12-05T10:09:07.000Z</Time>
            <Position>
              <LatitudeDegrees>36.82440186850726604461669921875</LatitudeDegrees>
              <LongitudeDegrees>-4.38337418250739574432373046875</LongitudeDegrees>
            </Position>
            <AltitudeMeters>791.4000244140625</AltitudeMeters>
            <DistanceMeters>NAN</DistanceMeters>
          </Trackpoint>
          <Trackpoint>
            <Time>2020-12-05T10:09:08.000Z</Time>
            <Position>
              <LatitudeDegrees>36.82440052740275859832763671875</LatitudeDegrees>
              <LongitudeDegrees>-4.3833808042109012603759765625</LongitudeDegrees>
            </Position>
            <AltitudeMeters>791.4000244140625</AltitudeMeters>
            <DistanceMeters>NAN</DistanceMeters>
          </Trackpoint>
          <Trackpoint>
            <Time>2020-12-05T10:09:09.000Z</Time>
            <Position>
              <LatitudeDegrees>36.82439968921244144439697265625</LatitudeDegrees>
              <LongitudeDegrees>-4.38340586610138416290283203125</LongitudeDegrees>
            </Position>
            <AltitudeMeters>791.4000244140625</AltitudeMeters>
            <DistanceMeters>NAN</DistanceMeters>
          </Trackpoint>
          <Trackpoint>
            <Time>2020-12-05T10:09:10.000Z</Time>
            <Position>
              <LatitudeDegrees>36.82439826428890228271484375</LatitudeDegrees>
              <LongitudeDegrees>-4.38341282308101654052734375</LongitudeDegrees>
            </Position>
            <AltitudeMeters>791.4000244140625</AltitudeMeters>
            <DistanceMeters>NAN</DistanceMeters>
          </Trackpoint>
          <Trackpoint>
            <Time>2020-12-05T10:09:11.000Z</Time>
            <Position>
              <LatitudeDegrees>36.82439717464148998260498046875</LatitudeDegrees>
              <LongitudeDegrees>-4.38340921886265277862548828125</LongitudeDegrees>
            </Position>
            <AltitudeMeters>791.4000244140625</AltitudeMeters>
            <DistanceMeters>NAN</DistanceMeters>
          </Trackpoint>
          <Trackpoint>
            <Time>2020-12-05T10:09:12.000Z</Time>
            <Position>
              <LatitudeDegrees>36.824397258460521697998046875</LatitudeDegrees>
              <LongitudeDegrees>-4.383405782282352447509765625</LongitudeDegrees>
            </Position>
            <AltitudeMeters>791.20001220703125</AltitudeMeters>
            <DistanceMeters>NAN</DistanceMeters>
          </Trackpoint>
          <Trackpoint>
            <Time>2020-12-05T10:09:13.000Z</Time>
            <Position>
              <LatitudeDegrees>36.8243949115276336669921875</LatitudeDegrees>
              <LongitudeDegrees>-4.3834036029875278472900390625</LongitudeDegrees>
            </Position>
            <AltitudeMeters>791.20001220703125</AltitudeMeters>
            <DistanceMeters>NAN</DistanceMeters>
          </Trackpoint>
          <Trackpoint>
            <Time>2020-12-05T10:09:14.000Z</Time>
            <Position>
              <LatitudeDegrees>36.8243937380611896514892578125</LatitudeDegrees>
              <LongitudeDegrees>-4.38340435735881328582763671875</LongitudeDegrees>
            </Position>
            <AltitudeMeters>791.20001220703125</AltitudeMeters>
            <DistanceMeters>NAN</DistanceMeters>
          </Trackpoint>
          <Trackpoint>
            <Time>2020-12-05T10:09:15.000Z</Time>
            <Position>
              <LatitudeDegrees>36.8243907205760478973388671875</LatitudeDegrees>
              <LongitudeDegrees>-4.38341190107166767120361328125</LongitudeDegrees>
            </Position>
            <AltitudeMeters>791.20001220703125</AltitudeMeters>
            <DistanceMeters>NAN</DistanceMeters>
          </Trackpoint>
          <Trackpoint>
            <Time>2020-12-05T10:09:16.000Z</Time>
            <Position>
              <LatitudeDegrees>36.82439030148088932037353515625</LatitudeDegrees>
              <LongitudeDegrees>-4.38341827131807804107666015625</LongitudeDegrees>
            </Position>
            <AltitudeMeters>791.20001220703125</AltitudeMeters>
            <DistanceMeters>NAN</DistanceMeters>
          </Trackpoint>
          <Trackpoint>
            <Time>2020-12-05T10:09:17.000Z</Time>
            <Position>
              <LatitudeDegrees>36.82439030148088932037353515625</LatitudeDegrees>
              <LongitudeDegrees>-4.38343168236315250396728515625</LongitudeDegrees>
            </Position>
            <AltitudeMeters>791.20001220703125</AltitudeMeters>
            <DistanceMeters>NAN</DistanceMeters>
          </Trackpoint>
          <Trackpoint>
            <Time>2020-12-05T10:09:18.000Z</Time>
            <Position>
              <LatitudeDegrees>36.82439181022346019744873046875</LatitudeDegrees>
              <LongitudeDegrees>-4.38344274647533893585205078125</LongitudeDegrees>
            </Position>
            <AltitudeMeters>791.20001220703125</AltitudeMeters>
            <DistanceMeters>NAN</DistanceMeters>
          </Trackpoint>
          <Trackpoint>
            <Time>2020-12-05T10:09:19.000Z</Time>
            <Position>
              <LatitudeDegrees>36.82439432479441165924072265625</LatitudeDegrees>
              <LongitudeDegrees>-4.38345414586365222930908203125</LongitudeDegrees>
            </Position>
            <AltitudeMeters>791.20001220703125</AltitudeMeters>
            <DistanceMeters>NAN</DistanceMeters>
          </Trackpoint>
          <Trackpoint>
            <Time>2020-12-05T10:09:20.000Z</Time>
            <Position>
              <LatitudeDegrees>36.82439382188022136688232421875</LatitudeDegrees>
              <LongitudeDegrees>-4.38346671871840953826904296875</LongitudeDegrees>
            </Position>
            <AltitudeMeters>791.20001220703125</AltitudeMeters>
            <DistanceMeters>NAN</DistanceMeters>
          </Trackpoint>
          <Trackpoint>
            <Time>2020-12-05T10:09:21.000Z</Time>
            <Position>
              <LatitudeDegrees>36.824391894042491912841796875</LatitudeDegrees>
              <LongitudeDegrees>-4.3834770284593105316162109375</LongitudeDegrees>
            </Position>
            <AltitudeMeters>791.4000244140625</AltitudeMeters>
            <DistanceMeters>NAN</DistanceMeters>
          </Trackpoint>
          <Trackpoint>
            <Time>2020-12-05T10:09:22.000Z</Time>
            <Position>
              <LatitudeDegrees>36.824389882385730743408203125</LatitudeDegrees>
              <LongitudeDegrees>-4.3834857456386089324951171875</LongitudeDegrees>
            </Position>
            <AltitudeMeters>791.4000244140625</AltitudeMeters>
            <DistanceMeters>NAN</DistanceMeters>
          </Trackpoint>
          <Trackpoint>
            <Time>2020-12-05T10:09:23.000Z</Time>
            <Position>
              <LatitudeDegrees>36.8243887089192867279052734375</LatitudeDegrees>
              <LongitudeDegrees>-4.383493959903717041015625</LongitudeDegrees>
            </Position>
            <AltitudeMeters>791.4000244140625</AltitudeMeters>
            <DistanceMeters>NAN</DistanceMeters>
          </Trackpoint>
          <Trackpoint>
            <Time>2020-12-05T10:09:24.000Z</Time>
            <Position>
              <LatitudeDegrees>36.82438812218606472015380859375</LatitudeDegrees>
              <LongitudeDegrees>-4.3835018388926982879638671875</LongitudeDegrees>
            </Position>
            <AltitudeMeters>791.5999755859375</AltitudeMeters>
            <DistanceMeters>NAN</DistanceMeters>
          </Trackpoint>
          <Trackpoint>
            <Time>2020-12-05T10:09:25.000Z</Time>
            <Position>
              <LatitudeDegrees>36.82438795454800128936767578125</LatitudeDegrees>
              <LongitudeDegrees>-4.383507706224918365478515625</LongitudeDegrees>
            </Position>
            <AltitudeMeters>791.5999755859375</AltitudeMeters>
            <DistanceMeters>NAN</DistanceMeters>
          </Trackpoint>
          <Trackpoint>
            <Time>2020-12-05T10:09:26.000Z</Time>
            <Position>
              <LatitudeDegrees>36.82438912801444530487060546875</LatitudeDegrees>
              <LongitudeDegrees>-4.383510388433933258056640625</LongitudeDegrees>
            </Position>
            <AltitudeMeters>791.5999755859375</AltitudeMeters>
            <DistanceMeters>NAN</DistanceMeters>
          </Trackpoint>
          <Trackpoint>
            <Time>2020-12-05T10:09:27.000Z</Time>
            <Position>
              <LatitudeDegrees>36.8243900500237941741943359375</LatitudeDegrees>
              <LongitudeDegrees>-4.3835095502436161041259765625</LongitudeDegrees>
            </Position>
            <AltitudeMeters>791.5999755859375</AltitudeMeters>
            <DistanceMeters>NAN</DistanceMeters>
          </Trackpoint>
          <Trackpoint>
            <Time>2020-12-05T10:09:28.000Z</Time>
            <Position>
              <LatitudeDegrees>36.82439013384282588958740234375</LatitudeDegrees>
              <LongitudeDegrees>-4.3835048563778400421142578125</LongitudeDegrees>
            </Position>
            <AltitudeMeters>791.5999755859375</AltitudeMeters>
            <DistanceMeters>NAN</DistanceMeters>
          </Trackpoint>
          <Trackpoint>
            <Time>2020-12-05T10:09:29.000Z</Time>
            <Position>
              <LatitudeDegrees>36.824390552937984466552734375</LatitudeDegrees>
              <LongitudeDegrees>-4.3834979832172393798828125</LongitudeDegrees>
            </Position>
            <AltitudeMeters>791.5999755859375</AltitudeMeters>
            <DistanceMeters>NAN</DistanceMeters>
          </Trackpoint>
          <Trackpoint>
            <Time>2020-12-05T10:09:30.000Z</Time>
            <Position>
              <LatitudeDegrees>36.82438896037638187408447265625</LatitudeDegrees>
              <LongitudeDegrees>-4.38348884694278240203857421875</LongitudeDegrees>
            </Position>
            <AltitudeMeters>791.5999755859375</AltitudeMeters>
            <DistanceMeters>NAN</DistanceMeters>
          </Trackpoint>
          <Trackpoint>
            <Time>2020-12-05T10:09:31.000Z</Time>
            <Position>
              <LatitudeDegrees>36.82438929565250873565673828125</LatitudeDegrees>
              <LongitudeDegrees>-4.3834746815264225006103515625</LongitudeDegrees>
            </Position>
            <AltitudeMeters>791.5999755859375</AltitudeMeters>
            <DistanceMeters>NAN</DistanceMeters>
          </Trackpoint>
          <Trackpoint>
            <Time>2020-12-05T10:09:32.000Z</Time>
            <Position>
              <LatitudeDegrees>36.82439147494733333587646484375</LatitudeDegrees>
              <LongitudeDegrees>-4.3834602646529674530029296875</LongitudeDegrees>
            </Position>
            <AltitudeMeters>791.5999755859375</AltitudeMeters>
            <DistanceMeters>NAN</DistanceMeters>
          </Trackpoint>
          <Trackpoint>
            <Time>2020-12-05T10:09:33.000Z</Time>
            <Position>
              <LatitudeDegrees>36.82439415715634822845458984375</LatitudeDegrees>
              <LongitudeDegrees>-4.383450709283351898193359375</LongitudeDegrees>
            </Position>
            <AltitudeMeters>791.79998779296875</AltitudeMeters>
            <DistanceMeters>NAN</DistanceMeters>
          </Trackpoint>
          <Trackpoint>
            <Time>2020-12-05T10:09:34.000Z</Time>
            <Position>
              <LatitudeDegrees>36.82439466007053852081298828125</LatitudeDegrees>
              <LongitudeDegrees>-4.38344190828502178192138671875</LongitudeDegrees>
            </Position>
            <AltitudeMeters>791.79998779296875</AltitudeMeters>
            <DistanceMeters>NAN</DistanceMeters>
          </Trackpoint>
          <Trackpoint>
            <Time>2020-12-05T10:09:35.000Z</Time>
            <Position>
              <LatitudeDegrees>36.82439533062279224395751953125</LatitudeDegrees>
              <LongitudeDegrees>-4.38343101181089878082275390625</LongitudeDegrees>
            </Position>
            <AltitudeMeters>791.79998779296875</AltitudeMeters>
            <DistanceMeters>NAN</DistanceMeters>
          </Trackpoint>
          <Trackpoint>
            <Time>2020-12-05T10:09:36.000Z</Time>
            <Position>
              <LatitudeDegrees>36.824393905699253082275390625</LatitudeDegrees>
              <LongitudeDegrees>-4.383420534431934356689453125</LongitudeDegrees>
            </Position>
            <AltitudeMeters>792</AltitudeMeters>
            <DistanceMeters>NAN</DistanceMeters>
          </Trackpoint>
          <Trackpoint>
            <Time>2020-12-05T10:09:37.000Z</Time>
            <Position>
              <LatitudeDegrees>36.82439432479441165924072265625</LatitudeDegrees>
              <LongitudeDegrees>-4.38341014087200164794921875</LongitudeDegrees>
            </Position>
            <AltitudeMeters>792</AltitudeMeters>
            <DistanceMeters>NAN</DistanceMeters>
          </Trackpoint>
          <Trackpoint>
            <Time>2020-12-05T10:09:38.000Z</Time>
            <Position>
              <LatitudeDegrees>36.82439315132796764373779296875</LatitudeDegrees>
              <LongitudeDegrees>-4.3834041059017181396484375</LongitudeDegrees>
            </Position>
            <AltitudeMeters>792</AltitudeMeters>
            <DistanceMeters>NAN</DistanceMeters>
          </Trackpoint>
          <Trackpoint>
            <Time>2020-12-05T10:09:39.000Z</Time>
            <Position>
              <LatitudeDegrees>36.82439348660409450531005859375</LatitudeDegrees>
              <LongitudeDegrees>-4.38340066932141780853271484375</LongitudeDegrees>
            </Position>
            <AltitudeMeters>792</AltitudeMeters>
            <DistanceMeters>NAN</DistanceMeters>
          </Trackpoint>
          <Trackpoint>
            <Time>2020-12-05T10:09:40.000Z</Time>
            <Position>
              <LatitudeDegrees>36.824393905699253082275390625</LatitudeDegrees>
              <LongitudeDegrees>-4.38339538872241973876953125</LongitudeDegrees>
            </Position>
            <AltitudeMeters>792.20001220703125</AltitudeMeters>
            <DistanceMeters>NAN</DistanceMeters>
          </Trackpoint>
          <Trackpoint>
            <Time>2020-12-05T10:09:41.000Z</Time>
            <Position>
              <LatitudeDegrees>36.8243964202702045440673828125</LatitudeDegrees>
              <LongitudeDegrees>-4.38339002430438995361328125</LongitudeDegrees>
            </Position>
            <AltitudeMeters>792</AltitudeMeters>
            <DistanceMeters>NAN</DistanceMeters>
          </Trackpoint>
          <Trackpoint>
            <Time>2020-12-05T10:09:42.000Z</Time>
            <Position>
              <LatitudeDegrees>36.8244017846882343292236328125</LatitudeDegrees>
              <LongitudeDegrees>-4.38338373787701129913330078125</LongitudeDegrees>
            </Position>
            <AltitudeMeters>792</AltitudeMeters>
            <DistanceMeters>NAN</DistanceMeters>
          </Trackpoint>
          <Trackpoint>
            <Time>2020-12-05T10:09:43.000Z</Time>
            <Position>
              <LatitudeDegrees>36.82440899312496185302734375</LatitudeDegrees>
              <LongitudeDegrees>-4.38337736763060092926025390625</LongitudeDegrees>
            </Position>
            <AltitudeMeters>792</AltitudeMeters>
            <DistanceMeters>NAN</DistanceMeters>
          </Trackpoint>
          <Trackpoint>
            <Time>2020-12-05T10:09:44.000Z</Time>
            <Position>
              <LatitudeDegrees>36.8244165368378162384033203125</LatitudeDegrees>
              <LongitudeDegrees>-4.3833724223077297210693359375</LongitudeDegrees>
            </Position>
            <AltitudeMeters>792</AltitudeMeters>
            <DistanceMeters>NAN</DistanceMeters>
          </Trackpoint>
          <Trackpoint>
            <Time>2020-12-05T10:09:45.000Z</Time>
            <Position>
              <LatitudeDegrees>36.824423409998416900634765625</LatitudeDegrees>
              <LongitudeDegrees>-4.38336881808936595916748046875</LongitudeDegrees>
            </Position>
            <AltitudeMeters>792</AltitudeMeters>
            <DistanceMeters>NAN</DistanceMeters>
          </Trackpoint>
          <Trackpoint>
            <Time>2020-12-05T10:09:46.000Z</Time>
            <Position>
              <LatitudeDegrees>36.82442910969257354736328125</LatitudeDegrees>
              <LongitudeDegrees>-4.3833625316619873046875</LongitudeDegrees>
            </Position>
            <AltitudeMeters>792</AltitudeMeters>
            <DistanceMeters>NAN</DistanceMeters>
          </Trackpoint>
          <Trackpoint>
            <Time>2020-12-05T10:09:47.000Z</Time>
            <Position>
              <LatitudeDegrees>36.8244346417486667633056640625</LatitudeDegrees>
              <LongitudeDegrees>-4.38335540704429149627685546875</LongitudeDegrees>
            </Position>
            <AltitudeMeters>792.20001220703125</AltitudeMeters>
            <DistanceMeters>NAN</DistanceMeters>
          </Trackpoint>
          <Trackpoint>
            <Time>2020-12-05T10:09:48.000Z</Time>
            <Position>
              <LatitudeDegrees>36.824436485767364501953125</LatitudeDegrees>
              <LongitudeDegrees>-4.38334853388369083404541015625</LongitudeDegrees>
            </Position>
            <AltitudeMeters>792.20001220703125</AltitudeMeters>
            <DistanceMeters>NAN</DistanceMeters>
          </Trackpoint>
          <Trackpoint>
            <Time>2020-12-05T10:09:49.000Z</Time>
            <Position>
              <LatitudeDegrees>36.82443506084382534027099609375</LatitudeDegrees>
              <LongitudeDegrees>-4.38334434293210506439208984375</LongitudeDegrees>
            </Position>
            <AltitudeMeters>792.20001220703125</AltitudeMeters>
            <DistanceMeters>NAN</DistanceMeters>
          </Trackpoint>
          <Trackpoint>
            <Time>2020-12-05T10:09:50.000Z</Time>
            <Position>
              <LatitudeDegrees>36.8244309537112712860107421875</LatitudeDegrees>
              <LongitudeDegrees>-4.38334182836115360260009765625</LongitudeDegrees>
            </Position>
            <AltitudeMeters>792.4000244140625</AltitudeMeters>
            <DistanceMeters>NAN</DistanceMeters>
          </Trackpoint>
          <Trackpoint>
            <Time>2020-12-05T10:09:51.000Z</Time>
            <Position>
              <LatitudeDegrees>36.82442869059741497039794921875</LatitudeDegrees>
              <LongitudeDegrees>-4.38334115780889987945556640625</LongitudeDegrees>
            </Position>
            <AltitudeMeters>792.5999755859375</AltitudeMeters>
            <DistanceMeters>NAN</DistanceMeters>
          </Trackpoint>
          <Trackpoint>
            <Time>2020-12-05T10:09:52.000Z</Time>
            <Position>
              <LatitudeDegrees>36.82442617602646350860595703125</LatitudeDegrees>
              <LongitudeDegrees>-4.38334048725664615631103515625</LongitudeDegrees>
            </Position>
            <AltitudeMeters>792.5999755859375</AltitudeMeters>
            <DistanceMeters>NAN</DistanceMeters>
          </Trackpoint>
          <Trackpoint>
            <Time>2020-12-05T10:09:53.000Z</Time>
            <Position>
              <LatitudeDegrees>36.8244242481887340545654296875</LatitudeDegrees>
              <LongitudeDegrees>-4.383338727056980133056640625</LongitudeDegrees>
            </Position>
            <AltitudeMeters>792.5999755859375</AltitudeMeters>
            <DistanceMeters>NAN</DistanceMeters>
          </Trackpoint>
          <Trackpoint>
            <Time>2020-12-05T10:09:54.000Z</Time>
            <Position>
              <LatitudeDegrees>36.8244217336177825927734375</LatitudeDegrees>
              <LongitudeDegrees>-4.38333411701023578643798828125</LongitudeDegrees>
            </Position>
            <AltitudeMeters>792.5999755859375</AltitudeMeters>
            <DistanceMeters>NAN</DistanceMeters>
          </Trackpoint>
          <Trackpoint>
            <Time>2020-12-05T10:09:55.000Z</Time>
            <Position>
              <LatitudeDegrees>36.8244192190468311309814453125</LatitudeDegrees>
              <LongitudeDegrees>-4.38332539983093738555908203125</LongitudeDegrees>
            </Position>
            <AltitudeMeters>792.5999755859375</AltitudeMeters>
            <DistanceMeters>NAN</DistanceMeters>
          </Trackpoint>
          <Trackpoint>
            <Time>2020-12-05T10:09:56.000Z</Time>
            <Position>
              <LatitudeDegrees>36.82441662065684795379638671875</LatitudeDegrees>
              <LongitudeDegrees>-4.3833196163177490234375</LongitudeDegrees>
            </Position>
            <AltitudeMeters>792.79998779296875</AltitudeMeters>
            <DistanceMeters>NAN</DistanceMeters>
          </Trackpoint>
          <Trackpoint>
            <Time>2020-12-05T10:09:57.000Z</Time>
            <Position>
              <LatitudeDegrees>36.82441175915300846099853515625</LatitudeDegrees>
              <LongitudeDegrees>-4.38331701792776584625244140625</LongitudeDegrees>
            </Position>
            <AltitudeMeters>792.79998779296875</AltitudeMeters>
            <DistanceMeters>NAN</DistanceMeters>
          </Trackpoint>
          <Trackpoint>
            <Time>2020-12-05T10:09:58.000Z</Time>
            <Position>
              <LatitudeDegrees>36.824404299259185791015625</LatitudeDegrees>
              <LongitudeDegrees>-4.38331894576549530029296875</LongitudeDegrees>
            </Position>
            <AltitudeMeters>792.79998779296875</AltitudeMeters>
            <DistanceMeters>NAN</DistanceMeters>
          </Trackpoint>
          <Trackpoint>
            <Time>2020-12-05T10:09:59.000Z</Time>
            <Position>
              <LatitudeDegrees>36.8243954144418239593505859375</LatitudeDegrees>
              <LongitudeDegrees>-4.38332498073577880859375</LongitudeDegrees>
            </Position>
            <AltitudeMeters>792.79998779296875</AltitudeMeters>
            <DistanceMeters>NAN</DistanceMeters>
          </Trackpoint>
          <Trackpoint>
            <Time>2020-12-05T10:10:00.000Z</Time>
            <Position>
              <LatitudeDegrees>36.82439030148088932037353515625</LatitudeDegrees>
              <LongitudeDegrees>-4.38333109952509403228759765625</LongitudeDegrees>
            </Position>
            <AltitudeMeters>792.79998779296875</AltitudeMeters>
            <DistanceMeters>NAN</DistanceMeters>
          </Trackpoint>
          <Trackpoint>
            <Time>2020-12-05T10:10:01.000Z</Time>
            <Position>
              <LatitudeDegrees>36.8243870325386524200439453125</LatitudeDegrees>
              <LongitudeDegrees>-4.38333830796182155609130859375</LongitudeDegrees>
            </Position>
            <AltitudeMeters>792.5999755859375</AltitudeMeters>
            <DistanceMeters>NAN</DistanceMeters>
          </Trackpoint>
          <Trackpoint>
            <Time>2020-12-05T10:10:02.000Z</Time>
            <Position>
              <LatitudeDegrees>36.824386529624462127685546875</LatitudeDegrees>
              <LongitudeDegrees>-4.38334266655147075653076171875</LongitudeDegrees>
            </Position>
            <AltitudeMeters>792.79998779296875</AltitudeMeters>
            <DistanceMeters>NAN</DistanceMeters>
          </Trackpoint>
          <Trackpoint>
            <Time>2020-12-05T10:10:03.000Z</Time>
            <Position>
              <LatitudeDegrees>36.824385859072208404541015625</LatitudeDegrees>
              <LongitudeDegrees>-4.38334836624562740325927734375</LongitudeDegrees>
            </Position>
            <AltitudeMeters>792.5999755859375</AltitudeMeters>
            <DistanceMeters>NAN</DistanceMeters>
          </Trackpoint>
          <Trackpoint>
            <Time>2020-12-05T10:10:04.000Z</Time>
            <Position>
              <LatitudeDegrees>36.82438745163381099700927734375</LatitudeDegrees>
              <LongitudeDegrees>-4.3833531439304351806640625</LongitudeDegrees>
            </Position>
            <AltitudeMeters>792.5999755859375</AltitudeMeters>
            <DistanceMeters>NAN</DistanceMeters>
          </Trackpoint>
          <Trackpoint>
            <Time>2020-12-05T10:10:05.000Z</Time>
            <Position>
              <LatitudeDegrees>36.82439164258539676666259765625</LatitudeDegrees>
              <LongitudeDegrees>-4.3833596818149089813232421875</LongitudeDegrees>
            </Position>
            <AltitudeMeters>792.4000244140625</AltitudeMeters>
            <DistanceMeters>NAN</DistanceMeters>
          </Trackpoint>
          <Trackpoint>
            <Time>2020-12-05T10:10:06.000Z</Time>
            <Position>
              <LatitudeDegrees>36.82439583353698253631591796875</LatitudeDegrees>
              <LongitudeDegrees>-4.38336412422358989715576171875</LongitudeDegrees>
            </Position>
            <AltitudeMeters>792.4000244140625</AltitudeMeters>
            <DistanceMeters>NAN</DistanceMeters>
          </Trackpoint>
          <Trackpoint>
            <Time>2020-12-05T10:10:07.000Z</Time>
            <Position>
              <LatitudeDegrees>36.824399270117282867431640625</LatitudeDegrees>
              <LongitudeDegrees>-4.38336747698485851287841796875</LongitudeDegrees>
            </Position>
            <AltitudeMeters>792.4000244140625</AltitudeMeters>
            <DistanceMeters>NAN</DistanceMeters>
          </Trackpoint>
          <Trackpoint>
            <Time>2020-12-05T10:10:08.000Z</Time>
            <Position>
              <LatitudeDegrees>36.824398599565029144287109375</LatitudeDegrees>
              <LongitudeDegrees>-4.38337300904095172882080078125</LongitudeDegrees>
            </Position>
            <AltitudeMeters>792.4000244140625</AltitudeMeters>
            <DistanceMeters>NAN</DistanceMeters>
          </Trackpoint>
          <Trackpoint>
            <Time>2020-12-05T10:10:09.000Z</Time>
            <Position>
              <LatitudeDegrees>36.82439566589891910552978515625</LatitudeDegrees>
              <LongitudeDegrees>-4.38337795436382293701171875</LongitudeDegrees>
            </Position>
            <AltitudeMeters>792.4000244140625</AltitudeMeters>
            <DistanceMeters>NAN</DistanceMeters>
          </Trackpoint>
          <Trackpoint>
            <Time>2020-12-05T10:10:10.000Z</Time>
            <Position>
              <LatitudeDegrees>36.82439331896603107452392578125</LatitudeDegrees>
              <LongitudeDegrees>-4.3833834864199161529541015625</LongitudeDegrees>
            </Position>
            <AltitudeMeters>792.4000244140625</AltitudeMeters>
            <DistanceMeters>NAN</DistanceMeters>
          </Trackpoint>
          <Trackpoint>
            <Time>2020-12-05T10:10:11.000Z</Time>
            <Position>
              <LatitudeDegrees>36.8243934027850627899169921875</LatitudeDegrees>
              <LongitudeDegrees>-4.38338675536215305328369140625</LongitudeDegrees>
            </Position>
            <AltitudeMeters>792.5999755859375</AltitudeMeters>
            <DistanceMeters>NAN</DistanceMeters>
          </Trackpoint>
          <Trackpoint>
            <Time>2020-12-05T10:10:12.000Z</Time>
            <Position>
              <LatitudeDegrees>36.82439558207988739013671875</LatitudeDegrees>
              <LongitudeDegrees>-4.3833885155618190765380859375</LongitudeDegrees>
            </Position>
            <AltitudeMeters>792.5999755859375</AltitudeMeters>
            <DistanceMeters>NAN</DistanceMeters>
          </Trackpoint>
          <Trackpoint>
            <Time>2020-12-05T10:10:13.000Z</Time>
            <Position>
              <LatitudeDegrees>36.82439834810793399810791015625</LatitudeDegrees>
              <LongitudeDegrees>-4.38338826410472393035888671875</LongitudeDegrees>
            </Position>
            <AltitudeMeters>792.5999755859375</AltitudeMeters>
            <DistanceMeters>NAN</DistanceMeters>
          </Trackpoint>
          <Trackpoint>
            <Time>2020-12-05T10:10:14.000Z</Time>
            <Position>
              <LatitudeDegrees>36.8244027905166149139404296875</LatitudeDegrees>
              <LongitudeDegrees>-4.38338574953377246856689453125</LongitudeDegrees>
            </Position>
            <AltitudeMeters>792.79998779296875</AltitudeMeters>
            <DistanceMeters>NAN</DistanceMeters>
          </Trackpoint>
          <Trackpoint>
            <Time>2020-12-05T10:10:15.000Z</Time>
            <Position>
              <LatitudeDegrees>36.82440639473497867584228515625</LatitudeDegrees>
              <LongitudeDegrees>-4.383380971848964691162109375</LongitudeDegrees>
            </Position>
            <AltitudeMeters>792.79998779296875</AltitudeMeters>
            <DistanceMeters>NAN</DistanceMeters>
          </Trackpoint>
          <Trackpoint>
            <Time>2020-12-05T10:10:16.000Z</Time>
            <Position>
              <LatitudeDegrees>36.82440823875367641448974609375</LatitudeDegrees>
              <LongitudeDegrees>-4.38337803818285465240478515625</LongitudeDegrees>
            </Position>
            <AltitudeMeters>792.79998779296875</AltitudeMeters>
            <DistanceMeters>NAN</DistanceMeters>
          </Trackpoint>
          <Trackpoint>
            <Time>2020-12-05T10:10:17.000Z</Time>
            <Position>
              <LatitudeDegrees>36.82440974749624729156494140625</LatitudeDegrees>
              <LongitudeDegrees>-4.383373260498046875</LongitudeDegrees>
            </Position>
            <AltitudeMeters>792.79998779296875</AltitudeMeters>
            <DistanceMeters>NAN</DistanceMeters>
          </Trackpoint>
          <Trackpoint>
            <Time>2020-12-05T10:10:18.000Z</Time>
            <Position>
              <LatitudeDegrees>36.8244111724197864532470703125</LatitudeDegrees>
              <LongitudeDegrees>-4.3833670578896999359130859375</LongitudeDegrees>
            </Position>
            <AltitudeMeters>792.79998779296875</AltitudeMeters>
            <DistanceMeters>NAN</DistanceMeters>
          </Trackpoint>
          <Trackpoint>
            <Time>2020-12-05T10:10:19.000Z</Time>
            <Position>
              <LatitudeDegrees>36.82441008277237415313720703125</LatitudeDegrees>
              <LongitudeDegrees>-4.38336177729070186614990234375</LongitudeDegrees>
            </Position>
            <AltitudeMeters>792.79998779296875</AltitudeMeters>
            <DistanceMeters>NAN</DistanceMeters>
          </Trackpoint>
          <Trackpoint>
            <Time>2020-12-05T10:10:20.000Z</Time>
            <Position>
              <LatitudeDegrees>36.82441025041043758392333984375</LatitudeDegrees>
              <LongitudeDegrees>-4.38335917890071868896484375</LongitudeDegrees>
            </Position>
            <AltitudeMeters>792.79998779296875</AltitudeMeters>
            <DistanceMeters>NAN</DistanceMeters>
          </Trackpoint>
          <Trackpoint>
            <Time>2020-12-05T10:10:21.000Z</Time>
            <Position>
              <LatitudeDegrees>36.82441041804850101470947265625</LatitudeDegrees>
              <LongitudeDegrees>-4.383356161415576934814453125</LongitudeDegrees>
            </Position>
            <AltitudeMeters>792.5999755859375</AltitudeMeters>
            <DistanceMeters>NAN</DistanceMeters>
          </Trackpoint>
          <Trackpoint>
            <Time>2020-12-05T10:10:22.000Z</Time>
            <Position>
              <LatitudeDegrees>36.82441075332462787628173828125</LatitudeDegrees>
              <LongitudeDegrees>-4.38335322774946689605712890625</LongitudeDegrees>
            </Position>
            <AltitudeMeters>792.5999755859375</AltitudeMeters>
            <DistanceMeters>NAN</DistanceMeters>
          </Trackpoint>
          <Trackpoint>
            <Time>2020-12-05T10:10:23.000Z</Time>
            <Position>
              <LatitudeDegrees>36.8244098313152790069580078125</LatitudeDegrees>
              <LongitudeDegrees>-4.38335104845464229583740234375</LongitudeDegrees>
            </Position>
            <AltitudeMeters>792.4000244140625</AltitudeMeters>
            <DistanceMeters>NAN</DistanceMeters>
          </Trackpoint>
          <Trackpoint>
            <Time>2020-12-05T10:10:24.000Z</Time>
            <Position>
              <LatitudeDegrees>36.82440765202045440673828125</LatitudeDegrees>
              <LongitudeDegrees>-4.38334845006465911865234375</LongitudeDegrees>
            </Position>
            <AltitudeMeters>792.4000244140625</AltitudeMeters>
            <DistanceMeters>NAN</DistanceMeters>
          </Trackpoint>
          <Trackpoint>
            <Time>2020-12-05T10:10:25.000Z</Time>
            <Position>
              <LatitudeDegrees>36.8244064785540103912353515625</LatitudeDegrees>
              <LongitudeDegrees>-4.3833435885608196258544921875</LongitudeDegrees>
            </Position>
            <AltitudeMeters>792.4000244140625</AltitudeMeters>
            <DistanceMeters>NAN</DistanceMeters>
          </Trackpoint>
          <Trackpoint>
            <Time>2020-12-05T10:10:26.000Z</Time>
            <Position>
              <LatitudeDegrees>36.82440538890659809112548828125</LatitudeDegrees>
              <LongitudeDegrees>-4.38334031961858272552490234375</LongitudeDegrees>
            </Position>
            <AltitudeMeters>792.4000244140625</AltitudeMeters>
            <DistanceMeters>NAN</DistanceMeters>
          </Trackpoint>
          <Trackpoint>
            <Time>2020-12-05T10:10:27.000Z</Time>
            <Position>
              <LatitudeDegrees>36.8244048021733760833740234375</LatitudeDegrees>
              <LongitudeDegrees>-4.3833368830382823944091796875</LongitudeDegrees>
            </Position>
            <AltitudeMeters>797.5999755859375</AltitudeMeters>
            <DistanceMeters>NAN</DistanceMeters>
          </Trackpoint>
          <Trackpoint>
            <Time>2020-12-05T10:10:28.000Z</Time>
            <Position>
              <LatitudeDegrees>36.82440035976469516754150390625</LatitudeDegrees>
              <LongitudeDegrees>-4.38333772122859954833984375</LongitudeDegrees>
            </Position>
            <AltitudeMeters>794.79998779296875</AltitudeMeters>
            <DistanceMeters>NAN</DistanceMeters>
          </Trackpoint>
          <Trackpoint>
            <Time>2020-12-05T10:10:29.000Z</Time>
            <Position>
              <LatitudeDegrees>36.82439801283180713653564453125</LatitudeDegrees>
              <LongitudeDegrees>-4.3833382241427898406982421875</LongitudeDegrees>
            </Position>
            <AltitudeMeters>793.5999755859375</AltitudeMeters>
            <DistanceMeters>NAN</DistanceMeters>
          </Trackpoint>
          <Trackpoint>
            <Time>2020-12-05T10:10:30.000Z</Time>
            <Position>
              <LatitudeDegrees>36.8243987672030925750732421875</LatitudeDegrees>
              <LongitudeDegrees>-4.38333713449537754058837890625</LongitudeDegrees>
            </Position>
            <AltitudeMeters>792.79998779296875</AltitudeMeters>
            <DistanceMeters>NAN</DistanceMeters>
          </Trackpoint>
          <Trackpoint>
            <Time>2020-12-05T10:10:31.000Z</Time>
            <Position>
              <LatitudeDegrees>36.82439834810793399810791015625</LatitudeDegrees>
              <LongitudeDegrees>-4.38333696685731410980224609375</LongitudeDegrees>
            </Position>
            <AltitudeMeters>792.5999755859375</AltitudeMeters>
            <DistanceMeters>NAN</DistanceMeters>
          </Trackpoint>
          <Trackpoint>
            <Time>2020-12-05T10:10:32.000Z</Time>
            <Position>
              <LatitudeDegrees>36.82440069504082202911376953125</LatitudeDegrees>
              <LongitudeDegrees>-4.383341409265995025634765625</LongitudeDegrees>
            </Position>
            <AltitudeMeters>792.4000244140625</AltitudeMeters>
            <DistanceMeters>NAN</DistanceMeters>
          </Trackpoint>
          <Trackpoint>
            <Time>2020-12-05T10:10:33.000Z</Time>
            <Position>
              <LatitudeDegrees>36.82440505363047122955322265625</LatitudeDegrees>
              <LongitudeDegrees>-4.38334819860756397247314453125</LongitudeDegrees>
            </Position>
            <AltitudeMeters>792.20001220703125</AltitudeMeters>
            <DistanceMeters>NAN</DistanceMeters>
          </Trackpoint>
          <Trackpoint>
            <Time>2020-12-05T10:10:34.000Z</Time>
            <Position>
              <LatitudeDegrees>36.82441167533397674560546875</LatitudeDegrees>
              <LongitudeDegrees>-4.38335381448268890380859375</LongitudeDegrees>
            </Position>
            <AltitudeMeters>792.20001220703125</AltitudeMeters>
            <DistanceMeters>NAN</DistanceMeters>
          </Trackpoint>
          <Trackpoint>
            <Time>2020-12-05T10:10:35.000Z</Time>
            <Position>
              <LatitudeDegrees>36.82441427372395992279052734375</LatitudeDegrees>
              <LongitudeDegrees>-4.383354149758815765380859375</LongitudeDegrees>
            </Position>
            <AltitudeMeters>792.20001220703125</AltitudeMeters>
            <DistanceMeters>NAN</DistanceMeters>
          </Trackpoint>
          <Trackpoint>
            <Time>2020-12-05T10:10:36.000Z</Time>
            <Position>
              <LatitudeDegrees>36.8244192190468311309814453125</LatitudeDegrees>
              <LongitudeDegrees>-4.383354485034942626953125</LongitudeDegrees>
            </Position>
            <AltitudeMeters>792.20001220703125</AltitudeMeters>
            <DistanceMeters>NAN</DistanceMeters>
          </Trackpoint>
          <Trackpoint>
            <Time>2020-12-05T10:10:37.000Z</Time>
            <Position>
              <LatitudeDegrees>36.82441947050392627716064453125</LatitudeDegrees>
              <LongitudeDegrees>-4.38335725106298923492431640625</LongitudeDegrees>
            </Position>
            <AltitudeMeters>792.20001220703125</AltitudeMeters>
            <DistanceMeters>NAN</DistanceMeters>
          </Trackpoint>
          <Trackpoint>
            <Time>2020-12-05T10:10:38.000Z</Time>
            <Position>
              <LatitudeDegrees>36.824418045580387115478515625</LatitudeDegrees>
              <LongitudeDegrees>-4.38336462713778018951416015625</LongitudeDegrees>
            </Position>
            <AltitudeMeters>792.20001220703125</AltitudeMeters>
            <DistanceMeters>NAN</DistanceMeters>
          </Trackpoint>
          <Trackpoint>
            <Time>2020-12-05T10:10:39.000Z</Time>
            <Position>
              <LatitudeDegrees>36.82441595010459423065185546875</LatitudeDegrees>
              <LongitudeDegrees>-4.3833734281361103057861328125</LongitudeDegrees>
            </Position>
            <AltitudeMeters>792.20001220703125</AltitudeMeters>
            <DistanceMeters>NAN</DistanceMeters>
          </Trackpoint>
          <Trackpoint>
            <Time>2020-12-05T10:10:40.000Z</Time>
            <Position>
              <LatitudeDegrees>36.824415363371372222900390625</LatitudeDegrees>
              <LongitudeDegrees>-4.3833791278302669525146484375</LongitudeDegrees>
            </Position>
            <AltitudeMeters>792.20001220703125</AltitudeMeters>
            <DistanceMeters>NAN</DistanceMeters>
          </Trackpoint>
          <Trackpoint>
            <Time>2020-12-05T10:10:41.000Z</Time>
            <Position>
              <LatitudeDegrees>36.82441762648522853851318359375</LatitudeDegrees>
              <LongitudeDegrees>-4.38338960520923137664794921875</LongitudeDegrees>
            </Position>
            <AltitudeMeters>792.20001220703125</AltitudeMeters>
            <DistanceMeters>NAN</DistanceMeters>
          </Trackpoint>
          <Trackpoint>
            <Time>2020-12-05T10:10:42.000Z</Time>
            <Position>
              <LatitudeDegrees>36.824420392513275146484375</LatitudeDegrees>
              <LongitudeDegrees>-4.383392371237277984619140625</LongitudeDegrees>
            </Position>
            <AltitudeMeters>792.20001220703125</AltitudeMeters>
            <DistanceMeters>NAN</DistanceMeters>
          </Trackpoint>
          <Trackpoint>
            <Time>2020-12-05T10:10:43.000Z</Time>
            <Position>
              <LatitudeDegrees>36.8244242481887340545654296875</LatitudeDegrees>
              <LongitudeDegrees>-4.38339463435113430023193359375</LongitudeDegrees>
            </Position>
            <AltitudeMeters>792.20001220703125</AltitudeMeters>
            <DistanceMeters>NAN</DistanceMeters>
          </Trackpoint>
          <Trackpoint>
            <Time>2020-12-05T10:10:44.000Z</Time>
            <Position>
              <LatitudeDegrees>36.82442701421678066253662109375</LatitudeDegrees>
              <LongitudeDegrees>-4.3833932094275951385498046875</LongitudeDegrees>
            </Position>
            <AltitudeMeters>792.20001220703125</AltitudeMeters>
            <DistanceMeters>NAN</DistanceMeters>
          </Trackpoint>
          <Trackpoint>
            <Time>2020-12-05T10:10:45.000Z</Time>
            <Position>
              <LatitudeDegrees>36.82443003170192241668701171875</LatitudeDegrees>
              <LongitudeDegrees>-4.3833871744573116302490234375</LongitudeDegrees>
            </Position>
            <AltitudeMeters>792.20001220703125</AltitudeMeters>
            <DistanceMeters>NAN</DistanceMeters>
          </Trackpoint>
          <Trackpoint>
            <Time>2020-12-05T10:10:46.000Z</Time>
            <Position>
              <LatitudeDegrees>36.82443288154900074005126953125</LatitudeDegrees>
              <LongitudeDegrees>-4.38337719999253749847412109375</LongitudeDegrees>
            </Position>
            <AltitudeMeters>792.20001220703125</AltitudeMeters>
            <DistanceMeters>NAN</DistanceMeters>
          </Trackpoint>
          <Trackpoint>
            <Time>2020-12-05T10:10:47.000Z</Time>
            <Position>
              <LatitudeDegrees>36.82443447411060333251953125</LatitudeDegrees>
              <LongitudeDegrees>-4.3833630345761775970458984375</LongitudeDegrees>
            </Position>
            <AltitudeMeters>792.20001220703125</AltitudeMeters>
            <DistanceMeters>NAN</DistanceMeters>
          </Trackpoint>
          <Trackpoint>
            <Time>2020-12-05T10:10:48.000Z</Time>
            <Position>
              <LatitudeDegrees>36.8244319595396518707275390625</LatitudeDegrees>
              <LongitudeDegrees>-4.3833523057401180267333984375</LongitudeDegrees>
            </Position>
            <AltitudeMeters>792.20001220703125</AltitudeMeters>
            <DistanceMeters>NAN</DistanceMeters>
          </Trackpoint>
          <Trackpoint>
            <Time>2020-12-05T10:10:49.000Z</Time>
            <Position>
              <LatitudeDegrees>36.82443086989223957061767578125</LatitudeDegrees>
              <LongitudeDegrees>-4.38333981670439243316650390625</LongitudeDegrees>
            </Position>
            <AltitudeMeters>792.20001220703125</AltitudeMeters>
            <DistanceMeters>NAN</DistanceMeters>
          </Trackpoint>
          <Trackpoint>
            <Time>2020-12-05T10:10:50.000Z</Time>
            <Position>
              <LatitudeDegrees>36.82443154044449329376220703125</LatitudeDegrees>
              <LongitudeDegrees>-4.3833295069634914398193359375</LongitudeDegrees>
            </Position>
            <AltitudeMeters>792.20001220703125</AltitudeMeters>
            <DistanceMeters>NAN</DistanceMeters>
          </Trackpoint>
          <Trackpoint>
            <Time>2020-12-05T10:10:51.000Z</Time>
            <Position>
              <LatitudeDegrees>36.82443187572062015533447265625</LatitudeDegrees>
              <LongitudeDegrees>-4.38332556746900081634521484375</LongitudeDegrees>
            </Position>
            <AltitudeMeters>792.20001220703125</AltitudeMeters>
            <DistanceMeters>NAN</DistanceMeters>
          </Trackpoint>
          <Trackpoint>
            <Time>2020-12-05T10:10:52.000Z</Time>
            <Position>
              <LatitudeDegrees>36.82443019933998584747314453125</LatitudeDegrees>
              <LongitudeDegrees>-4.38332389108836650848388671875</LongitudeDegrees>
            </Position>
            <AltitudeMeters>792.20001220703125</AltitudeMeters>
            <DistanceMeters>NAN</DistanceMeters>
          </Trackpoint>
          <Trackpoint>
            <Time>2020-12-05T10:10:53.000Z</Time>
            <Position>
              <LatitudeDegrees>36.824426092207431793212890625</LatitudeDegrees>
              <LongitudeDegrees>-4.383325316011905670166015625</LongitudeDegrees>
            </Position>
            <AltitudeMeters>792.20001220703125</AltitudeMeters>
            <DistanceMeters>NAN</DistanceMeters>
          </Trackpoint>
          <Trackpoint>
            <Time>2020-12-05T10:10:54.000Z</Time>
            <Position>
              <LatitudeDegrees>36.82441930286586284637451171875</LatitudeDegrees>
              <LongitudeDegrees>-4.38332523219287395477294921875</LongitudeDegrees>
            </Position>
            <AltitudeMeters>792.20001220703125</AltitudeMeters>
            <DistanceMeters>NAN</DistanceMeters>
          </Trackpoint>
          <Trackpoint>
            <Time>2020-12-05T10:10:55.000Z</Time>
            <Position>
              <LatitudeDegrees>36.82441444136202335357666015625</LatitudeDegrees>
              <LongitudeDegrees>-4.383327998220920562744140625</LongitudeDegrees>
            </Position>
            <AltitudeMeters>792.20001220703125</AltitudeMeters>
            <DistanceMeters>NAN</DistanceMeters>
          </Trackpoint>
          <Trackpoint>
            <Time>2020-12-05T10:10:56.000Z</Time>
            <Position>
              <LatitudeDegrees>36.8244098313152790069580078125</LatitudeDegrees>
              <LongitudeDegrees>-4.3833291716873645782470703125</LongitudeDegrees>
            </Position>
            <AltitudeMeters>792.20001220703125</AltitudeMeters>
            <DistanceMeters>NAN</DistanceMeters>
          </Trackpoint>
          <Trackpoint>
            <Time>2020-12-05T10:10:57.000Z</Time>
            <Position>
              <LatitudeDegrees>36.82440488599240779876708984375</LatitudeDegrees>
              <LongitudeDegrees>-4.38333059661090373992919921875</LongitudeDegrees>
            </Position>
            <AltitudeMeters>792.20001220703125</AltitudeMeters>
            <DistanceMeters>NAN</DistanceMeters>
          </Trackpoint>
          <Trackpoint>
            <Time>2020-12-05T10:10:58.000Z</Time>
            <Position>
              <LatitudeDegrees>36.82439901866018772125244140625</LatitudeDegrees>
              <LongitudeDegrees>-4.38332674093544483184814453125</LongitudeDegrees>
            </Position>
            <AltitudeMeters>792.20001220703125</AltitudeMeters>
            <DistanceMeters>NAN</DistanceMeters>
          </Trackpoint>
          <Trackpoint>
            <Time>2020-12-05T10:10:59.000Z</Time>
            <Position>
              <LatitudeDegrees>36.8243954144418239593505859375</LatitudeDegrees>
              <LongitudeDegrees>-4.3833271600306034088134765625</LongitudeDegrees>
            </Position>
            <AltitudeMeters>792.20001220703125</AltitudeMeters>
            <DistanceMeters>NAN</DistanceMeters>
          </Trackpoint>
          <Trackpoint>
            <Time>2020-12-05T10:11:00.000Z</Time>
            <Position>
              <LatitudeDegrees>36.82439113967120647430419921875</LatitudeDegrees>
              <LongitudeDegrees>-4.38332221470773220062255859375</LongitudeDegrees>
            </Position>
            <AltitudeMeters>792.20001220703125</AltitudeMeters>
            <DistanceMeters>NAN</DistanceMeters>
          </Trackpoint>
          <Trackpoint>
            <Time>2020-12-05T10:11:01.000Z</Time>
            <Position>
              <LatitudeDegrees>36.82438828982412815093994140625</LatitudeDegrees>
              <LongitudeDegrees>-4.38331701792776584625244140625</LongitudeDegrees>
            </Position>
            <AltitudeMeters>792.20001220703125</AltitudeMeters>
            <DistanceMeters>NAN</DistanceMeters>
          </Trackpoint>
          <Trackpoint>
            <Time>2020-12-05T10:11:02.000Z</Time>
            <Position>
              <LatitudeDegrees>36.82438812218606472015380859375</LatitudeDegrees>
              <LongitudeDegrees>-4.38331198878586292266845703125</LongitudeDegrees>
            </Position>
            <AltitudeMeters>792.20001220703125</AltitudeMeters>
            <DistanceMeters>NAN</DistanceMeters>
          </Trackpoint>
          <Trackpoint>
            <Time>2020-12-05T10:11:03.000Z</Time>
            <Position>
              <LatitudeDegrees>36.82438552379608154296875</LatitudeDegrees>
              <LongitudeDegrees>-4.383308887481689453125</LongitudeDegrees>
            </Position>
            <AltitudeMeters>792.20001220703125</AltitudeMeters>
            <DistanceMeters>NAN</DistanceMeters>
          </Trackpoint>
          <Trackpoint>
            <Time>2020-12-05T10:11:04.000Z</Time>
            <Position>
              <LatitudeDegrees>36.82438778690993785858154296875</LatitudeDegrees>
              <LongitudeDegrees>-4.3833050318062305450439453125</LongitudeDegrees>
            </Position>
            <AltitudeMeters>792.20001220703125</AltitudeMeters>
            <DistanceMeters>NAN</DistanceMeters>
          </Trackpoint>
          <Trackpoint>
            <Time>2020-12-05T10:11:05.000Z</Time>
            <Position>
              <LatitudeDegrees>36.82438979856669902801513671875</LatitudeDegrees>
              <LongitudeDegrees>-4.38330427743494510650634765625</LongitudeDegrees>
            </Position>
            <AltitudeMeters>792.20001220703125</AltitudeMeters>
            <DistanceMeters>NAN</DistanceMeters>
          </Trackpoint>
          <Trackpoint>
            <Time>2020-12-05T10:11:06.000Z</Time>
            <Position>
              <LatitudeDegrees>36.82439155876636505126953125</LatitudeDegrees>
              <LongitudeDegrees>-4.38330645672976970672607421875</LongitudeDegrees>
            </Position>
            <AltitudeMeters>792.20001220703125</AltitudeMeters>
            <DistanceMeters>NAN</DistanceMeters>
          </Trackpoint>
          <Trackpoint>
            <Time>2020-12-05T10:11:07.000Z</Time>
            <Position>
              <LatitudeDegrees>36.82439449243247509002685546875</LatitudeDegrees>
              <LongitudeDegrees>-4.383308552205562591552734375</LongitudeDegrees>
            </Position>
            <AltitudeMeters>792.20001220703125</AltitudeMeters>
            <DistanceMeters>NAN</DistanceMeters>
          </Trackpoint>
          <Trackpoint>
            <Time>2020-12-05T10:11:08.000Z</Time>
            <Position>
              <LatitudeDegrees>36.8243944086134433746337890625</LatitudeDegrees>
              <LongitudeDegrees>-4.3833127431571483612060546875</LongitudeDegrees>
            </Position>
            <AltitudeMeters>792.20001220703125</AltitudeMeters>
            <DistanceMeters>NAN</DistanceMeters>
          </Trackpoint>
          <Trackpoint>
            <Time>2020-12-05T10:11:09.000Z</Time>
            <Position>
              <LatitudeDegrees>36.82439482770860195159912109375</LatitudeDegrees>
              <LongitudeDegrees>-4.38331567682325839996337890625</LongitudeDegrees>
            </Position>
            <AltitudeMeters>792.20001220703125</AltitudeMeters>
            <DistanceMeters>NAN</DistanceMeters>
          </Trackpoint>
          <Trackpoint>
            <Time>2020-12-05T10:11:10.000Z</Time>
            <Position>
              <LatitudeDegrees>36.82439558207988739013671875</LatitudeDegrees>
              <LongitudeDegrees>-4.3833171017467975616455078125</LongitudeDegrees>
            </Position>
            <AltitudeMeters>792.20001220703125</AltitudeMeters>
            <DistanceMeters>NAN</DistanceMeters>
          </Trackpoint>
          <Trackpoint>
            <Time>2020-12-05T10:11:11.000Z</Time>
            <Position>
              <LatitudeDegrees>36.82440086267888545989990234375</LatitudeDegrees>
              <LongitudeDegrees>-4.38331668265163898468017578125</LongitudeDegrees>
            </Position>
            <AltitudeMeters>792.20001220703125</AltitudeMeters>
            <DistanceMeters>NAN</DistanceMeters>
          </Trackpoint>
          <Trackpoint>
            <Time>2020-12-05T10:11:12.000Z</Time>
            <Position>
              <LatitudeDegrees>36.8244074843823909759521484375</LatitudeDegrees>
              <LongitudeDegrees>-4.3833147548139095306396484375</LongitudeDegrees>
            </Position>
            <AltitudeMeters>792.20001220703125</AltitudeMeters>
            <DistanceMeters>NAN</DistanceMeters>
          </Trackpoint>
          <Trackpoint>
            <Time>2020-12-05T10:11:13.000Z</Time>
            <Position>
              <LatitudeDegrees>36.824407987296581268310546875</LatitudeDegrees>
              <LongitudeDegrees>-4.38331819139420986175537109375</LongitudeDegrees>
            </Position>
            <AltitudeMeters>792.20001220703125</AltitudeMeters>
            <DistanceMeters>NAN</DistanceMeters>
          </Trackpoint>
          <Trackpoint>
            <Time>2020-12-05T10:11:14.000Z</Time>
            <Position>
              <LatitudeDegrees>36.8244078196585178375244140625</LatitudeDegrees>
              <LongitudeDegrees>-4.38332405872642993927001953125</LongitudeDegrees>
            </Position>
            <AltitudeMeters>792.20001220703125</AltitudeMeters>
            <DistanceMeters>NAN</DistanceMeters>
          </Trackpoint>
          <Trackpoint>
            <Time>2020-12-05T10:11:15.000Z</Time>
            <Position>
              <LatitudeDegrees>36.82440631091594696044921875</LatitudeDegrees>
              <LongitudeDegrees>-4.38333445228636264801025390625</LongitudeDegrees>
            </Position>
            <AltitudeMeters>792.20001220703125</AltitudeMeters>
            <DistanceMeters>NAN</DistanceMeters>
          </Trackpoint>
          <Trackpoint>
            <Time>2020-12-05T10:11:16.000Z</Time>
            <Position>
              <LatitudeDegrees>36.82440496981143951416015625</LatitudeDegrees>
              <LongitudeDegrees>-4.383344091475009918212890625</LongitudeDegrees>
            </Position>
            <AltitudeMeters>792.20001220703125</AltitudeMeters>
            <DistanceMeters>NAN</DistanceMeters>
          </Trackpoint>
          <Trackpoint>
            <Time>2020-12-05T10:11:17.000Z</Time>
            <Position>
              <LatitudeDegrees>36.82440488599240779876708984375</LatitudeDegrees>
              <LongitudeDegrees>-4.38335071317851543426513671875</LongitudeDegrees>
            </Position>
            <AltitudeMeters>792.20001220703125</AltitudeMeters>
            <DistanceMeters>NAN</DistanceMeters>
          </Trackpoint>
          <Trackpoint>
            <Time>2020-12-05T10:11:18.000Z</Time>
            <Position>
              <LatitudeDegrees>36.824406646192073822021484375</LatitudeDegrees>
              <LongitudeDegrees>-4.3833563290536403656005859375</LongitudeDegrees>
            </Position>
            <AltitudeMeters>792.20001220703125</AltitudeMeters>
            <DistanceMeters>NAN</DistanceMeters>
          </Trackpoint>
          <Trackpoint>
            <Time>2020-12-05T10:11:19.000Z</Time>
            <Position>
              <LatitudeDegrees>36.824408657848834991455078125</LatitudeDegrees>
              <LongitudeDegrees>-4.38336052000522613525390625</LongitudeDegrees>
            </Position>
            <AltitudeMeters>792.20001220703125</AltitudeMeters>
            <DistanceMeters>NAN</DistanceMeters>
          </Trackpoint>
          <Trackpoint>
            <Time>2020-12-05T10:11:20.000Z</Time>
            <Position>
              <LatitudeDegrees>36.8244094960391521453857421875</LatitudeDegrees>
              <LongitudeDegrees>-4.38336697407066822052001953125</LongitudeDegrees>
            </Position>
            <AltitudeMeters>792.20001220703125</AltitudeMeters>
            <DistanceMeters>NAN</DistanceMeters>
          </Trackpoint>
          <Trackpoint>
            <Time>2020-12-05T10:11:21.000Z</Time>
            <Position>
              <LatitudeDegrees>36.82440991513431072235107421875</LatitudeDegrees>
              <LongitudeDegrees>-4.38336948864161968231201171875</LongitudeDegrees>
            </Position>
            <AltitudeMeters>792.20001220703125</AltitudeMeters>
            <DistanceMeters>NAN</DistanceMeters>
          </Trackpoint>
          <Trackpoint>
            <Time>2020-12-05T10:11:22.000Z</Time>
            <Position>
              <LatitudeDegrees>36.824409998953342437744140625</LatitudeDegrees>
              <LongitudeDegrees>-4.3833697400987148284912109375</LongitudeDegrees>
            </Position>
            <AltitudeMeters>792.20001220703125</AltitudeMeters>
            <DistanceMeters>NAN</DistanceMeters>
          </Trackpoint>
          <Trackpoint>
            <Time>2020-12-05T10:11:23.000Z</Time>
            <Position>
              <LatitudeDegrees>36.82440957985818386077880859375</LatitudeDegrees>
              <LongitudeDegrees>-4.38336932100355625152587890625</LongitudeDegrees>
            </Position>
            <AltitudeMeters>792.20001220703125</AltitudeMeters>
            <DistanceMeters>NAN</DistanceMeters>
          </Trackpoint>
          <Trackpoint>
            <Time>2020-12-05T10:11:24.000Z</Time>
            <Position>
              <LatitudeDegrees>36.82440907694399356842041015625</LatitudeDegrees>
              <LongitudeDegrees>-4.38336965627968311309814453125</LongitudeDegrees>
            </Position>
            <AltitudeMeters>792.20001220703125</AltitudeMeters>
            <DistanceMeters>NAN</DistanceMeters>
          </Trackpoint>
          <Trackpoint>
            <Time>2020-12-05T10:11:25.000Z</Time>
            <Position>
              <LatitudeDegrees>36.824409663677215576171875</LatitudeDegrees>
              <LongitudeDegrees>-4.38336865045130252838134765625</LongitudeDegrees>
            </Position>
            <AltitudeMeters>792.20001220703125</AltitudeMeters>
            <DistanceMeters>NAN</DistanceMeters>
          </Trackpoint>
          <Trackpoint>
            <Time>2020-12-05T10:11:26.000Z</Time>
            <Position>
              <LatitudeDegrees>36.8244115076959133148193359375</LatitudeDegrees>
              <LongitudeDegrees>-4.383366890251636505126953125</LongitudeDegrees>
            </Position>
            <AltitudeMeters>792.20001220703125</AltitudeMeters>
            <DistanceMeters>NAN</DistanceMeters>
          </Trackpoint>
          <Trackpoint>
            <Time>2020-12-05T10:11:27.000Z</Time>
            <Position>
              <LatitudeDegrees>36.8244131840765476226806640625</LatitudeDegrees>
              <LongitudeDegrees>-4.3833657167851924896240234375</LongitudeDegrees>
            </Position>
            <AltitudeMeters>792.20001220703125</AltitudeMeters>
            <DistanceMeters>NAN</DistanceMeters>
          </Trackpoint>
          <Trackpoint>
            <Time>2020-12-05T10:11:28.000Z</Time>
            <Position>
              <LatitudeDegrees>36.82441410608589649200439453125</LatitudeDegrees>
              <LongitudeDegrees>-4.3833670578896999359130859375</LongitudeDegrees>
            </Position>
            <AltitudeMeters>792.20001220703125</AltitudeMeters>
            <DistanceMeters>NAN</DistanceMeters>
          </Trackpoint>
          <Trackpoint>
            <Time>2020-12-05T10:11:29.000Z</Time>
            <Position>
              <LatitudeDegrees>36.82441628538072109222412109375</LatitudeDegrees>
              <LongitudeDegrees>-4.383372254669666290283203125</LongitudeDegrees>
            </Position>
            <AltitudeMeters>792.20001220703125</AltitudeMeters>
            <DistanceMeters>NAN</DistanceMeters>
          </Trackpoint>
          <Trackpoint>
            <Time>2020-12-05T10:11:30.000Z</Time>
            <Position>
              <LatitudeDegrees>36.8244185484945774078369140625</LatitudeDegrees>
              <LongitudeDegrees>-4.383380301296710968017578125</LongitudeDegrees>
            </Position>
            <AltitudeMeters>792.20001220703125</AltitudeMeters>
            <DistanceMeters>NAN</DistanceMeters>
          </Trackpoint>
          <Trackpoint>
            <Time>2020-12-05T10:11:31.000Z</Time>
            <Position>
              <LatitudeDegrees>36.8244217336177825927734375</LatitudeDegrees>
              <LongitudeDegrees>-4.383382312953472137451171875</LongitudeDegrees>
            </Position>
            <AltitudeMeters>792.20001220703125</AltitudeMeters>
            <DistanceMeters>NAN</DistanceMeters>
          </Trackpoint>
          <Trackpoint>
            <Time>2020-12-05T10:11:32.000Z</Time>
            <Position>
              <LatitudeDegrees>36.82442382909357547760009765625</LatitudeDegrees>
              <LongitudeDegrees>-4.3833801336586475372314453125</LongitudeDegrees>
            </Position>
            <AltitudeMeters>792.20001220703125</AltitudeMeters>
            <DistanceMeters>NAN</DistanceMeters>
          </Trackpoint>
          <Trackpoint>
            <Time>2020-12-05T10:11:33.000Z</Time>
            <Position>
              <LatitudeDegrees>36.82442433200776576995849609375</LatitudeDegrees>
              <LongitudeDegrees>-4.3833746016025543212890625</LongitudeDegrees>
            </Position>
            <AltitudeMeters>792.20001220703125</AltitudeMeters>
            <DistanceMeters>NAN</DistanceMeters>
          </Trackpoint>
          <Trackpoint>
            <Time>2020-12-05T10:11:34.000Z</Time>
            <Position>
              <LatitudeDegrees>36.82442399673163890838623046875</LatitudeDegrees>
              <LongitudeDegrees>-4.3833660520613193511962890625</LongitudeDegrees>
            </Position>
            <AltitudeMeters>792.20001220703125</AltitudeMeters>
            <DistanceMeters>NAN</DistanceMeters>
          </Trackpoint>
          <Trackpoint>
            <Time>2020-12-05T10:11:35.000Z</Time>
            <Position>
              <LatitudeDegrees>36.8244262598454952239990234375</LatitudeDegrees>
              <LongitudeDegrees>-4.38336043618619441986083984375</LongitudeDegrees>
            </Position>
            <AltitudeMeters>792.20001220703125</AltitudeMeters>
            <DistanceMeters>NAN</DistanceMeters>
          </Trackpoint>
          <Trackpoint>
            <Time>2020-12-05T10:11:36.000Z</Time>
            <Position>
              <LatitudeDegrees>36.82443179190158843994140625</LatitudeDegrees>
              <LongitudeDegrees>-4.38335540704429149627685546875</LongitudeDegrees>
            </Position>
            <AltitudeMeters>792.20001220703125</AltitudeMeters>
            <DistanceMeters>NAN</DistanceMeters>
          </Trackpoint>
          <Trackpoint>
            <Time>2020-12-05T10:11:37.000Z</Time>
            <Position>
              <LatitudeDegrees>36.82443506084382534027099609375</LatitudeDegrees>
              <LongitudeDegrees>-4.3833456002175807952880859375</LongitudeDegrees>
            </Position>
            <AltitudeMeters>792.20001220703125</AltitudeMeters>
            <DistanceMeters>NAN</DistanceMeters>
          </Trackpoint>
          <Trackpoint>
            <Time>2020-12-05T10:11:38.000Z</Time>
            <Position>
              <LatitudeDegrees>36.82443992234766483306884765625</LatitudeDegrees>
              <LongitudeDegrees>-4.38333696685731410980224609375</LongitudeDegrees>
            </Position>
            <AltitudeMeters>792.20001220703125</AltitudeMeters>
            <DistanceMeters>NAN</DistanceMeters>
          </Trackpoint>
          <Trackpoint>
            <Time>2020-12-05T10:11:39.000Z</Time>
            <Position>
              <LatitudeDegrees>36.8244453705847263336181640625</LatitudeDegrees>
              <LongitudeDegrees>-4.3833335302770137786865234375</LongitudeDegrees>
            </Position>
            <AltitudeMeters>792.20001220703125</AltitudeMeters>
            <DistanceMeters>NAN</DistanceMeters>
          </Trackpoint>
          <Trackpoint>
            <Time>2020-12-05T10:11:40.000Z</Time>
            <Position>
              <LatitudeDegrees>36.8244497291743755340576171875</LatitudeDegrees>
              <LongitudeDegrees>-4.3833321891725063323974609375</LongitudeDegrees>
            </Position>
            <AltitudeMeters>792.20001220703125</AltitudeMeters>
            <DistanceMeters>NAN</DistanceMeters>
          </Trackpoint>
          <Trackpoint>
            <Time>2020-12-05T10:11:41.000Z</Time>
            <Position>
              <LatitudeDegrees>36.8244490586221218109130859375</LatitudeDegrees>
              <LongitudeDegrees>-4.3833271600306034088134765625</LongitudeDegrees>
            </Position>
            <AltitudeMeters>792.20001220703125</AltitudeMeters>
            <DistanceMeters>NAN</DistanceMeters>
          </Trackpoint>
          <Trackpoint>
            <Time>2020-12-05T10:11:42.000Z</Time>
            <Position>
              <LatitudeDegrees>36.82444444857537746429443359375</LatitudeDegrees>
              <LongitudeDegrees>-4.3833167664706707000732421875</LongitudeDegrees>
            </Position>
            <AltitudeMeters>792.20001220703125</AltitudeMeters>
            <DistanceMeters>NAN</DistanceMeters>
          </Trackpoint>
          <Trackpoint>
            <Time>2020-12-05T10:11:43.000Z</Time>
            <Position>
              <LatitudeDegrees>36.82444763369858264923095703125</LatitudeDegrees>
              <LongitudeDegrees>-4.3833110667765140533447265625</LongitudeDegrees>
            </Position>
            <AltitudeMeters>792.20001220703125</AltitudeMeters>
            <DistanceMeters>NAN</DistanceMeters>
          </Trackpoint>
          <Trackpoint>
            <Time>2020-12-05T10:11:44.000Z</Time>
            <Position>
              <LatitudeDegrees>36.824448890984058380126953125</LatitudeDegrees>
              <LongitudeDegrees>-4.38330561853945255279541015625</LongitudeDegrees>
            </Position>
            <AltitudeMeters>792.20001220703125</AltitudeMeters>
            <DistanceMeters>NAN</DistanceMeters>
          </Trackpoint>
          <Trackpoint>
            <Time>2020-12-05T10:11:45.000Z</Time>
            <Position>
              <LatitudeDegrees>36.8244490586221218109130859375</LatitudeDegrees>
              <LongitudeDegrees>-4.3832981586456298828125</LongitudeDegrees>
            </Position>
            <AltitudeMeters>792.20001220703125</AltitudeMeters>
            <DistanceMeters>NAN</DistanceMeters>
          </Trackpoint>
          <Trackpoint>
            <Time>2020-12-05T10:11:46.000Z</Time>
            <Position>
              <LatitudeDegrees>36.8244436942040920257568359375</LatitudeDegrees>
              <LongitudeDegrees>-4.3832875974476337432861328125</LongitudeDegrees>
            </Position>
            <AltitudeMeters>792.20001220703125</AltitudeMeters>
            <DistanceMeters>NAN</DistanceMeters>
          </Trackpoint>
          <Trackpoint>
            <Time>2020-12-05T10:11:47.000Z</Time>
            <Position>
              <LatitudeDegrees>36.82443791069090366363525390625</LatitudeDegrees>
              <LongitudeDegrees>-4.38327871263027191162109375</LongitudeDegrees>
            </Position>
            <AltitudeMeters>792.20001220703125</AltitudeMeters>
            <DistanceMeters>NAN</DistanceMeters>
          </Trackpoint>
          <Trackpoint>
            <Time>2020-12-05T10:11:48.000Z</Time>
            <Position>
              <LatitudeDegrees>36.82443313300609588623046875</LatitudeDegrees>
              <LongitudeDegrees>-4.383271001279354095458984375</LongitudeDegrees>
            </Position>
            <AltitudeMeters>792.20001220703125</AltitudeMeters>
            <DistanceMeters>NAN</DistanceMeters>
          </Trackpoint>
          <Trackpoint>
            <Time>2020-12-05T10:11:49.000Z</Time>
            <Position>
              <LatitudeDegrees>36.82442910969257354736328125</LatitudeDegrees>
              <LongitudeDegrees>-4.38326471485197544097900390625</LongitudeDegrees>
            </Position>
            <AltitudeMeters>792.20001220703125</AltitudeMeters>
            <DistanceMeters>NAN</DistanceMeters>
          </Trackpoint>
          <Trackpoint>
            <Time>2020-12-05T10:11:50.000Z</Time>
            <Position>
              <LatitudeDegrees>36.8244230747222900390625</LatitudeDegrees>
              <LongitudeDegrees>-4.3832594342529773712158203125</LongitudeDegrees>
            </Position>
            <AltitudeMeters>792.20001220703125</AltitudeMeters>
            <DistanceMeters>NAN</DistanceMeters>
          </Trackpoint>
          <Trackpoint>
            <Time>2020-12-05T10:11:51.000Z</Time>
            <Position>
              <LatitudeDegrees>36.824417375028133392333984375</LatitudeDegrees>
              <LongitudeDegrees>-4.38325834460556507110595703125</LongitudeDegrees>
            </Position>
            <AltitudeMeters>792.20001220703125</AltitudeMeters>
            <DistanceMeters>NAN</DistanceMeters>
          </Trackpoint>
          <Trackpoint>
            <Time>2020-12-05T10:11:52.000Z</Time>
            <Position>
              <LatitudeDegrees>36.82441377080976963043212890625</LatitudeDegrees>
              <LongitudeDegrees>-4.38326035626232624053955078125</LongitudeDegrees>
            </Position>
            <AltitudeMeters>792.20001220703125</AltitudeMeters>
            <DistanceMeters>NAN</DistanceMeters>
          </Trackpoint>
          <Trackpoint>
            <Time>2020-12-05T10:11:53.000Z</Time>
            <Position>
              <LatitudeDegrees>36.824412681162357330322265625</LatitudeDegrees>
              <LongitudeDegrees>-4.3832646310329437255859375</LongitudeDegrees>
            </Position>
            <AltitudeMeters>792.20001220703125</AltitudeMeters>
            <DistanceMeters>NAN</DistanceMeters>
          </Trackpoint>
          <Trackpoint>
            <Time>2020-12-05T10:11:54.000Z</Time>
            <Position>
              <LatitudeDegrees>36.824412681162357330322265625</LatitudeDegrees>
              <LongitudeDegrees>-4.38327108509838581085205078125</LongitudeDegrees>
            </Position>
            <AltitudeMeters>792.20001220703125</AltitudeMeters>
            <DistanceMeters>NAN</DistanceMeters>
          </Trackpoint>
          <Trackpoint>
            <Time>2020-12-05T10:11:55.000Z</Time>
            <Position>
              <LatitudeDegrees>36.8244088254868984222412109375</LatitudeDegrees>
              <LongitudeDegrees>-4.383281059563159942626953125</LongitudeDegrees>
            </Position>
            <AltitudeMeters>792.20001220703125</AltitudeMeters>
            <DistanceMeters>NAN</DistanceMeters>
          </Trackpoint>
          <Trackpoint>
            <Time>2020-12-05T10:11:56.000Z</Time>
            <Position>
              <LatitudeDegrees>36.8244064785540103912353515625</LatitudeDegrees>
              <LongitudeDegrees>-4.383287765085697174072265625</LongitudeDegrees>
            </Position>
            <AltitudeMeters>792.20001220703125</AltitudeMeters>
            <DistanceMeters>NAN</DistanceMeters>
          </Trackpoint>
          <Trackpoint>
            <Time>2020-12-05T10:11:57.000Z</Time>
            <Position>
              <LatitudeDegrees>36.824403963983058929443359375</LatitudeDegrees>
              <LongitudeDegrees>-4.38329614698886871337890625</LongitudeDegrees>
            </Position>
            <AltitudeMeters>792.20001220703125</AltitudeMeters>
            <DistanceMeters>NAN</DistanceMeters>
          </Trackpoint>
          <Trackpoint>
            <Time>2020-12-05T10:11:58.000Z</Time>
            <Position>
              <LatitudeDegrees>36.8244001083076000213623046875</LatitudeDegrees>
              <LongitudeDegrees>-4.38330025412142276763916015625</LongitudeDegrees>
            </Position>
            <AltitudeMeters>792.20001220703125</AltitudeMeters>
            <DistanceMeters>NAN</DistanceMeters>
          </Trackpoint>
          <Trackpoint>
            <Time>2020-12-05T10:11:59.000Z</Time>
            <Position>
              <LatitudeDegrees>36.82439784519374370574951171875</LatitudeDegrees>
              <LongitudeDegrees>-4.38330285251140594482421875</LongitudeDegrees>
            </Position>
            <AltitudeMeters>792.20001220703125</AltitudeMeters>
            <DistanceMeters>NAN</DistanceMeters>
          </Trackpoint>
          <Trackpoint>
            <Time>2020-12-05T10:12:00.000Z</Time>
            <Position>
              <LatitudeDegrees>36.8243957497179508209228515625</LatitudeDegrees>
              <LongitudeDegrees>-4.38330528326332569122314453125</LongitudeDegrees>
            </Position>
            <AltitudeMeters>792.20001220703125</AltitudeMeters>
            <DistanceMeters>NAN</DistanceMeters>
          </Trackpoint>
          <Trackpoint>
            <Time>2020-12-05T10:12:01.000Z</Time>
            <Position>
              <LatitudeDegrees>36.82439466007053852081298828125</LatitudeDegrees>
              <LongitudeDegrees>-4.3833067081868648529052734375</LongitudeDegrees>
            </Position>
            <AltitudeMeters>792.20001220703125</AltitudeMeters>
            <DistanceMeters>NAN</DistanceMeters>
          </Trackpoint>
          <Trackpoint>
            <Time>2020-12-05T10:12:02.000Z</Time>
            <Position>
              <LatitudeDegrees>36.824392564594745635986328125</LatitudeDegrees>
              <LongitudeDegrees>-4.38330897130072116851806640625</LongitudeDegrees>
            </Position>
            <AltitudeMeters>792.20001220703125</AltitudeMeters>
            <DistanceMeters>NAN</DistanceMeters>
          </Trackpoint>
          <Trackpoint>
            <Time>2020-12-05T10:12:03.000Z</Time>
            <Position>
              <LatitudeDegrees>36.82439113967120647430419921875</LatitudeDegrees>
              <LongitudeDegrees>-4.38331483863294124603271484375</LongitudeDegrees>
            </Position>
            <AltitudeMeters>792.20001220703125</AltitudeMeters>
            <DistanceMeters>NAN</DistanceMeters>
          </Trackpoint>
          <Trackpoint>
            <Time>2020-12-05T10:12:04.000Z</Time>
            <Position>
              <LatitudeDegrees>36.82439197786152362823486328125</LatitudeDegrees>
              <LongitudeDegrees>-4.383315257728099822998046875</LongitudeDegrees>
            </Position>
            <AltitudeMeters>792.20001220703125</AltitudeMeters>
            <DistanceMeters>NAN</DistanceMeters>
          </Trackpoint>
          <Trackpoint>
            <Time>2020-12-05T10:12:05.000Z</Time>
            <Position>
              <LatitudeDegrees>36.8243923969566822052001953125</LatitudeDegrees>
              <LongitudeDegrees>-4.383314587175846099853515625</LongitudeDegrees>
            </Position>
            <AltitudeMeters>792.20001220703125</AltitudeMeters>
            <DistanceMeters>NAN</DistanceMeters>
          </Trackpoint>
          <Trackpoint>
            <Time>2020-12-05T10:12:06.000Z</Time>
            <Position>
              <LatitudeDegrees>36.82439097203314304351806640625</LatitudeDegrees>
              <LongitudeDegrees>-4.38331349752843379974365234375</LongitudeDegrees>
            </Position>
            <AltitudeMeters>792.20001220703125</AltitudeMeters>
            <DistanceMeters>NAN</DistanceMeters>
          </Trackpoint>
          <Trackpoint>
            <Time>2020-12-05T10:12:07.000Z</Time>
            <Position>
              <LatitudeDegrees>36.82438896037638187408447265625</LatitudeDegrees>
              <LongitudeDegrees>-4.38331517390906810760498046875</LongitudeDegrees>
            </Position>
            <AltitudeMeters>792.20001220703125</AltitudeMeters>
            <DistanceMeters>NAN</DistanceMeters>
          </Trackpoint>
          <Trackpoint>
            <Time>2020-12-05T10:12:08.000Z</Time>
            <Position>
              <LatitudeDegrees>36.8243883736431598663330078125</LatitudeDegrees>
              <LongitudeDegrees>-4.38331148587167263031005859375</LongitudeDegrees>
            </Position>
            <AltitudeMeters>792.20001220703125</AltitudeMeters>
            <DistanceMeters>NAN</DistanceMeters>
          </Trackpoint>
          <Trackpoint>
            <Time>2020-12-05T10:12:09.000Z</Time>
            <Position>
              <LatitudeDegrees>36.8243895471096038818359375</LatitudeDegrees>
              <LongitudeDegrees>-4.38330779783427715301513671875</LongitudeDegrees>
            </Position>
            <AltitudeMeters>792.20001220703125</AltitudeMeters>
            <DistanceMeters>NAN</DistanceMeters>
          </Trackpoint>
          <Trackpoint>
            <Time>2020-12-05T10:12:10.000Z</Time>
            <Position>
              <LatitudeDegrees>36.824392564594745635986328125</LatitudeDegrees>
              <LongitudeDegrees>-4.38330377452075481414794921875</LongitudeDegrees>
            </Position>
            <AltitudeMeters>792.20001220703125</AltitudeMeters>
            <DistanceMeters>NAN</DistanceMeters>
          </Trackpoint>
          <Trackpoint>
            <Time>2020-12-05T10:12:11.000Z</Time>
            <Position>
              <LatitudeDegrees>36.82439901866018772125244140625</LatitudeDegrees>
              <LongitudeDegrees>-4.38330125994980335235595703125</LongitudeDegrees>
            </Position>
            <AltitudeMeters>792.20001220703125</AltitudeMeters>
            <DistanceMeters>NAN</DistanceMeters>
          </Trackpoint>
          <Trackpoint>
            <Time>2020-12-05T10:12:12.000Z</Time>
            <Position>
              <LatitudeDegrees>36.8244048021733760833740234375</LatitudeDegrees>
              <LongitudeDegrees>-4.38329824246466159820556640625</LongitudeDegrees>
            </Position>
            <AltitudeMeters>792.20001220703125</AltitudeMeters>
            <DistanceMeters>NAN</DistanceMeters>
          </Trackpoint>
          <Trackpoint>
            <Time>2020-12-05T10:12:13.000Z</Time>
            <Position>
              <LatitudeDegrees>36.8244037963449954986572265625</LatitudeDegrees>
              <LongitudeDegrees>-4.38329539261758327484130859375</LongitudeDegrees>
            </Position>
            <AltitudeMeters>792.20001220703125</AltitudeMeters>
            <DistanceMeters>NAN</DistanceMeters>
          </Trackpoint>
          <Trackpoint>
            <Time>2020-12-05T10:12:14.000Z</Time>
            <Position>
              <LatitudeDegrees>36.82440228760242462158203125</LatitudeDegrees>
              <LongitudeDegrees>-4.38329338096082210540771484375</LongitudeDegrees>
            </Position>
            <AltitudeMeters>792.20001220703125</AltitudeMeters>
            <DistanceMeters>NAN</DistanceMeters>
          </Trackpoint>
          <Trackpoint>
            <Time>2020-12-05T10:12:15.000Z</Time>
            <Position>
              <LatitudeDegrees>36.82440220378339290618896484375</LatitudeDegrees>
              <LongitudeDegrees>-4.3832953087985515594482421875</LongitudeDegrees>
            </Position>
            <AltitudeMeters>792.20001220703125</AltitudeMeters>
            <DistanceMeters>NAN</DistanceMeters>
          </Trackpoint>
          <Trackpoint>
            <Time>2020-12-05T10:12:16.000Z</Time>
            <Position>
              <LatitudeDegrees>36.82440270669758319854736328125</LatitudeDegrees>
              <LongitudeDegrees>-4.3832973204553127288818359375</LongitudeDegrees>
            </Position>
            <AltitudeMeters>792.20001220703125</AltitudeMeters>
            <DistanceMeters>NAN</DistanceMeters>
          </Trackpoint>
          <Trackpoint>
            <Time>2020-12-05T10:12:17.000Z</Time>
            <Position>
              <LatitudeDegrees>36.824403293430805206298828125</LatitudeDegrees>
              <LongitudeDegrees>-4.38330092467367649078369140625</LongitudeDegrees>
            </Position>
            <AltitudeMeters>792.20001220703125</AltitudeMeters>
            <DistanceMeters>NAN</DistanceMeters>
          </Trackpoint>
          <Trackpoint>
            <Time>2020-12-05T10:12:18.000Z</Time>
            <Position>
              <LatitudeDegrees>36.8244054727256298065185546875</LatitudeDegrees>
              <LongitudeDegrees>-4.38330444507300853729248046875</LongitudeDegrees>
            </Position>
            <AltitudeMeters>792.20001220703125</AltitudeMeters>
            <DistanceMeters>NAN</DistanceMeters>
          </Trackpoint>
          <Trackpoint>
            <Time>2020-12-05T10:12:19.000Z</Time>
            <Position>
              <LatitudeDegrees>36.8244091607630252838134765625</LatitudeDegrees>
              <LongitudeDegrees>-4.38330352306365966796875</LongitudeDegrees>
            </Position>
            <AltitudeMeters>792.20001220703125</AltitudeMeters>
            <DistanceMeters>NAN</DistanceMeters>
          </Trackpoint>
          <Trackpoint>
            <Time>2020-12-05T10:12:20.000Z</Time>
            <Position>
              <LatitudeDegrees>36.82440924458205699920654296875</LatitudeDegrees>
              <LongitudeDegrees>-4.3833026848733425140380859375</LongitudeDegrees>
            </Position>
            <AltitudeMeters>792.20001220703125</AltitudeMeters>
            <DistanceMeters>NAN</DistanceMeters>
          </Trackpoint>
          <Trackpoint>
            <Time>2020-12-05T10:12:21.000Z</Time>
            <Position>
              <LatitudeDegrees>36.824412681162357330322265625</LatitudeDegrees>
              <LongitudeDegrees>-4.38330243341624736785888671875</LongitudeDegrees>
            </Position>
            <AltitudeMeters>792.20001220703125</AltitudeMeters>
            <DistanceMeters>NAN</DistanceMeters>
          </Trackpoint>
          <Trackpoint>
            <Time>2020-12-05T10:12:22.000Z</Time>
            <Position>
              <LatitudeDegrees>36.824415363371372222900390625</LatitudeDegrees>
              <LongitudeDegrees>-4.38330494798719882965087890625</LongitudeDegrees>
            </Position>
            <AltitudeMeters>792.20001220703125</AltitudeMeters>
            <DistanceMeters>NAN</DistanceMeters>
          </Trackpoint>
          <Trackpoint>
            <Time>2020-12-05T10:12:23.000Z</Time>
            <Position>
              <LatitudeDegrees>36.8244182132184505462646484375</LatitudeDegrees>
              <LongitudeDegrees>-4.38330444507300853729248046875</LongitudeDegrees>
            </Position>
            <AltitudeMeters>792.20001220703125</AltitudeMeters>
            <DistanceMeters>NAN</DistanceMeters>
          </Trackpoint>
          <Trackpoint>
            <Time>2020-12-05T10:12:24.000Z</Time>
            <Position>
              <LatitudeDegrees>36.82442131452262401580810546875</LatitudeDegrees>
              <LongitudeDegrees>-4.383302517235279083251953125</LongitudeDegrees>
            </Position>
            <AltitudeMeters>792.20001220703125</AltitudeMeters>
            <DistanceMeters>NAN</DistanceMeters>
          </Trackpoint>
          <Trackpoint>
            <Time>2020-12-05T10:12:25.000Z</Time>
            <Position>
              <LatitudeDegrees>36.82442181743681430816650390625</LatitudeDegrees>
              <LongitudeDegrees>-4.3833016790449619293212890625</LongitudeDegrees>
            </Position>
            <AltitudeMeters>792.20001220703125</AltitudeMeters>
            <DistanceMeters>NAN</DistanceMeters>
          </Trackpoint>
          <Trackpoint>
            <Time>2020-12-05T10:12:26.000Z</Time>
            <Position>
              <LatitudeDegrees>36.824421398341655731201171875</LatitudeDegrees>
              <LongitudeDegrees>-4.3833013437688350677490234375</LongitudeDegrees>
            </Position>
            <AltitudeMeters>792.20001220703125</AltitudeMeters>
            <DistanceMeters>NAN</DistanceMeters>
          </Trackpoint>
          <Trackpoint>
            <Time>2020-12-05T10:12:27.000Z</Time>
            <Position>
              <LatitudeDegrees>36.82441947050392627716064453125</LatitudeDegrees>
              <LongitudeDegrees>-4.38330285251140594482421875</LongitudeDegrees>
            </Position>
            <AltitudeMeters>792.20001220703125</AltitudeMeters>
            <DistanceMeters>NAN</DistanceMeters>
          </Trackpoint>
          <Trackpoint>
            <Time>2020-12-05T10:12:28.000Z</Time>
            <Position>
              <LatitudeDegrees>36.82441829703748226165771484375</LatitudeDegrees>
              <LongitudeDegrees>-4.383305199444293975830078125</LongitudeDegrees>
            </Position>
            <AltitudeMeters>792.20001220703125</AltitudeMeters>
            <DistanceMeters>NAN</DistanceMeters>
          </Trackpoint>
          <Trackpoint>
            <Time>2020-12-05T10:12:29.000Z</Time>
            <Position>
              <LatitudeDegrees>36.824417375028133392333984375</LatitudeDegrees>
              <LongitudeDegrees>-4.38330645672976970672607421875</LongitudeDegrees>
            </Position>
            <AltitudeMeters>792.20001220703125</AltitudeMeters>
            <DistanceMeters>NAN</DistanceMeters>
          </Trackpoint>
          <Trackpoint>
            <Time>2020-12-05T10:12:30.000Z</Time>
            <Position>
              <LatitudeDegrees>36.82441838085651397705078125</LatitudeDegrees>
              <LongitudeDegrees>-4.38330779783427715301513671875</LongitudeDegrees>
            </Position>
            <AltitudeMeters>792.20001220703125</AltitudeMeters>
            <DistanceMeters>NAN</DistanceMeters>
          </Trackpoint>
          <Trackpoint>
            <Time>2020-12-05T10:12:31.000Z</Time>
            <Position>
              <LatitudeDegrees>36.82441980578005313873291015625</LatitudeDegrees>
              <LongitudeDegrees>-4.38330746255815029144287109375</LongitudeDegrees>
            </Position>
            <AltitudeMeters>792.20001220703125</AltitudeMeters>
            <DistanceMeters>NAN</DistanceMeters>
          </Trackpoint>
          <Trackpoint>
            <Time>2020-12-05T10:12:32.000Z</Time>
            <Position>
              <LatitudeDegrees>36.82441963814198970794677734375</LatitudeDegrees>
              <LongitudeDegrees>-4.3833102285861968994140625</LongitudeDegrees>
            </Position>
            <AltitudeMeters>792.20001220703125</AltitudeMeters>
            <DistanceMeters>NAN</DistanceMeters>
          </Trackpoint>
          <Trackpoint>
            <Time>2020-12-05T10:12:33.000Z</Time>
            <Position>
              <LatitudeDegrees>36.82442097924649715423583984375</LatitudeDegrees>
              <LongitudeDegrees>-4.38331425189971923828125</LongitudeDegrees>
            </Position>
            <AltitudeMeters>792.20001220703125</AltitudeMeters>
            <DistanceMeters>NAN</DistanceMeters>
          </Trackpoint>
          <Trackpoint>
            <Time>2020-12-05T10:12:34.000Z</Time>
            <Position>
              <LatitudeDegrees>36.82442282326519489288330078125</LatitudeDegrees>
              <LongitudeDegrees>-4.38331894576549530029296875</LongitudeDegrees>
            </Position>
            <AltitudeMeters>792.20001220703125</AltitudeMeters>
            <DistanceMeters>NAN</DistanceMeters>
          </Trackpoint>
          <Trackpoint>
            <Time>2020-12-05T10:12:35.000Z</Time>
            <Position>
              <LatitudeDegrees>36.82442240417003631591796875</LatitudeDegrees>
              <LongitudeDegrees>-4.3833228014409542083740234375</LongitudeDegrees>
            </Position>
            <AltitudeMeters>792.20001220703125</AltitudeMeters>
            <DistanceMeters>NAN</DistanceMeters>
          </Trackpoint>
          <Trackpoint>
            <Time>2020-12-05T10:12:36.000Z</Time>
            <Position>
              <LatitudeDegrees>36.8244230747222900390625</LatitudeDegrees>
              <LongitudeDegrees>-4.38332271762192249298095703125</LongitudeDegrees>
            </Position>
            <AltitudeMeters>792.20001220703125</AltitudeMeters>
            <DistanceMeters>NAN</DistanceMeters>
          </Trackpoint>
          <Trackpoint>
            <Time>2020-12-05T10:12:37.000Z</Time>
            <Position>
              <LatitudeDegrees>36.82442776858806610107421875</LatitudeDegrees>
              <LongitudeDegrees>-4.38332162797451019287109375</LongitudeDegrees>
            </Position>
            <AltitudeMeters>792.20001220703125</AltitudeMeters>
            <DistanceMeters>NAN</DistanceMeters>
          </Trackpoint>
          <Trackpoint>
            <Time>2020-12-05T10:12:38.000Z</Time>
            <Position>
              <LatitudeDegrees>36.82443221099674701690673828125</LatitudeDegrees>
              <LongitudeDegrees>-4.3833197839558124542236328125</LongitudeDegrees>
            </Position>
            <AltitudeMeters>792.20001220703125</AltitudeMeters>
            <DistanceMeters>NAN</DistanceMeters>
          </Trackpoint>
          <Trackpoint>
            <Time>2020-12-05T10:12:39.000Z</Time>
            <Position>
              <LatitudeDegrees>36.82443640194833278656005859375</LatitudeDegrees>
              <LongitudeDegrees>-4.38331953249871730804443359375</LongitudeDegrees>
            </Position>
            <AltitudeMeters>792.20001220703125</AltitudeMeters>
            <DistanceMeters>NAN</DistanceMeters>
          </Trackpoint>
          <Trackpoint>
            <Time>2020-12-05T10:12:40.000Z</Time>
            <Position>
              <LatitudeDegrees>36.824438832700252532958984375</LatitudeDegrees>
              <LongitudeDegrees>-4.38332087360322475433349609375</LongitudeDegrees>
            </Position>
            <AltitudeMeters>792.20001220703125</AltitudeMeters>
            <DistanceMeters>NAN</DistanceMeters>
          </Trackpoint>
          <Trackpoint>
            <Time>2020-12-05T10:12:41.000Z</Time>
            <Position>
              <LatitudeDegrees>36.8244369886815547943115234375</LatitudeDegrees>
              <LongitudeDegrees>-4.38332405872642993927001953125</LongitudeDegrees>
            </Position>
            <AltitudeMeters>792.20001220703125</AltitudeMeters>
            <DistanceMeters>NAN</DistanceMeters>
          </Trackpoint>
          <Trackpoint>
            <Time>2020-12-05T10:12:42.000Z</Time>
            <Position>
              <LatitudeDegrees>36.8244379945099353790283203125</LatitudeDegrees>
              <LongitudeDegrees>-4.3833248130977153778076171875</LongitudeDegrees>
            </Position>
            <AltitudeMeters>792.20001220703125</AltitudeMeters>
            <DistanceMeters>NAN</DistanceMeters>
          </Trackpoint>
          <Trackpoint>
            <Time>2020-12-05T10:12:43.000Z</Time>
            <Position>
              <LatitudeDegrees>36.82444143109023571014404296875</LatitudeDegrees>
              <LongitudeDegrees>-4.38332338817417621612548828125</LongitudeDegrees>
            </Position>
            <AltitudeMeters>792.20001220703125</AltitudeMeters>
            <DistanceMeters>NAN</DistanceMeters>
          </Trackpoint>
          <Trackpoint>
            <Time>2020-12-05T10:12:44.000Z</Time>
            <Position>
              <LatitudeDegrees>36.8244458734989166259765625</LatitudeDegrees>
              <LongitudeDegrees>-4.38332053832709789276123046875</LongitudeDegrees>
            </Position>
            <AltitudeMeters>792.20001220703125</AltitudeMeters>
            <DistanceMeters>NAN</DistanceMeters>
          </Trackpoint>
          <Trackpoint>
            <Time>2020-12-05T10:12:45.000Z</Time>
            <Position>
              <LatitudeDegrees>36.8244450353085994720458984375</LatitudeDegrees>
              <LongitudeDegrees>-4.38332020305097103118896484375</LongitudeDegrees>
            </Position>
            <AltitudeMeters>792.20001220703125</AltitudeMeters>
            <DistanceMeters>NAN</DistanceMeters>
          </Trackpoint>
          <Trackpoint>
            <Time>2020-12-05T10:12:46.000Z</Time>
            <Position>
              <LatitudeDegrees>36.8244436942040920257568359375</LatitudeDegrees>
              <LongitudeDegrees>-4.38331852667033672332763671875</LongitudeDegrees>
            </Position>
            <AltitudeMeters>792.20001220703125</AltitudeMeters>
            <DistanceMeters>NAN</DistanceMeters>
          </Trackpoint>
          <Trackpoint>
            <Time>2020-12-05T10:12:47.000Z</Time>
            <Position>
              <LatitudeDegrees>36.824440844357013702392578125</LatitudeDegrees>
              <LongitudeDegrees>-4.38331668265163898468017578125</LongitudeDegrees>
            </Position>
            <AltitudeMeters>792.20001220703125</AltitudeMeters>
            <DistanceMeters>NAN</DistanceMeters>
          </Trackpoint>
          <Trackpoint>
            <Time>2020-12-05T10:12:48.000Z</Time>
            <Position>
              <LatitudeDegrees>36.8244386650621891021728515625</LatitudeDegrees>
              <LongitudeDegrees>-4.38331282697618007659912109375</LongitudeDegrees>
            </Position>
            <AltitudeMeters>792.20001220703125</AltitudeMeters>
            <DistanceMeters>NAN</DistanceMeters>
          </Trackpoint>
          <Trackpoint>
            <Time>2020-12-05T10:12:49.000Z</Time>
            <Position>
              <LatitudeDegrees>36.8244326300919055938720703125</LatitudeDegrees>
              <LongitudeDegrees>-4.38330913893878459930419921875</LongitudeDegrees>
            </Position>
            <AltitudeMeters>792.20001220703125</AltitudeMeters>
            <DistanceMeters>NAN</DistanceMeters>
          </Trackpoint>
          <Trackpoint>
            <Time>2020-12-05T10:12:50.000Z</Time>
            <Position>
              <LatitudeDegrees>36.82442508637905120849609375</LatitudeDegrees>
              <LongitudeDegrees>-4.3833090551197528839111328125</LongitudeDegrees>
            </Position>
            <AltitudeMeters>792.20001220703125</AltitudeMeters>
            <DistanceMeters>NAN</DistanceMeters>
          </Trackpoint>
          <Trackpoint>
            <Time>2020-12-05T10:12:51.000Z</Time>
            <Position>
              <LatitudeDegrees>36.8244185484945774078369140625</LatitudeDegrees>
              <LongitudeDegrees>-4.38331198878586292266845703125</LongitudeDegrees>
            </Position>
            <AltitudeMeters>792.20001220703125</AltitudeMeters>
            <DistanceMeters>NAN</DistanceMeters>
          </Trackpoint>
          <Trackpoint>
            <Time>2020-12-05T10:12:52.000Z</Time>
            <Position>
              <LatitudeDegrees>36.82441444136202335357666015625</LatitudeDegrees>
              <LongitudeDegrees>-4.38331584446132183074951171875</LongitudeDegrees>
            </Position>
            <AltitudeMeters>792.20001220703125</AltitudeMeters>
            <DistanceMeters>NAN</DistanceMeters>
          </Trackpoint>
          <Trackpoint>
            <Time>2020-12-05T10:12:53.000Z</Time>
            <Position>
              <LatitudeDegrees>36.82441209442913532257080078125</LatitudeDegrees>
              <LongitudeDegrees>-4.3833231367170810699462890625</LongitudeDegrees>
            </Position>
            <AltitudeMeters>792.20001220703125</AltitudeMeters>
            <DistanceMeters>NAN</DistanceMeters>
          </Trackpoint>
          <Trackpoint>
            <Time>2020-12-05T10:12:54.000Z</Time>
            <Position>
              <LatitudeDegrees>36.824409663677215576171875</LatitudeDegrees>
              <LongitudeDegrees>-4.383332021534442901611328125</LongitudeDegrees>
            </Position>
            <AltitudeMeters>792.20001220703125</AltitudeMeters>
            <DistanceMeters>NAN</DistanceMeters>
          </Trackpoint>
          <Trackpoint>
            <Time>2020-12-05T10:12:55.000Z</Time>
            <Position>
              <LatitudeDegrees>36.82441226206719875335693359375</LatitudeDegrees>
              <LongitudeDegrees>-4.38335322774946689605712890625</LongitudeDegrees>
            </Position>
            <AltitudeMeters>792.20001220703125</AltitudeMeters>
            <DistanceMeters>NAN</DistanceMeters>
          </Trackpoint>
          <Trackpoint>
            <Time>2020-12-05T10:12:56.000Z</Time>
            <Position>
              <LatitudeDegrees>36.82441972196102142333984375</LatitudeDegrees>
              <LongitudeDegrees>-4.3833858333528041839599609375</LongitudeDegrees>
            </Position>
            <AltitudeMeters>792.20001220703125</AltitudeMeters>
            <DistanceMeters>NAN</DistanceMeters>
          </Trackpoint>
          <Trackpoint>
            <Time>2020-12-05T10:12:57.000Z</Time>
            <Position>
              <LatitudeDegrees>36.82442885823547840118408203125</LatitudeDegrees>
              <LongitudeDegrees>-4.38341693021357059478759765625</LongitudeDegrees>
            </Position>
            <AltitudeMeters>792.20001220703125</AltitudeMeters>
            <DistanceMeters>NAN</DistanceMeters>
          </Trackpoint>
          <Trackpoint>
            <Time>2020-12-05T10:12:58.000Z</Time>
            <Position>
              <LatitudeDegrees>36.8244369886815547943115234375</LatitudeDegrees>
              <LongitudeDegrees>-4.3834445066750049591064453125</LongitudeDegrees>
            </Position>
            <AltitudeMeters>792.20001220703125</AltitudeMeters>
            <DistanceMeters>NAN</DistanceMeters>
          </Trackpoint>
          <Trackpoint>
            <Time>2020-12-05T10:12:59.000Z</Time>
            <Position>
              <LatitudeDegrees>36.82444193400442600250244140625</LatitudeDegrees>
              <LongitudeDegrees>-4.38346336595714092254638671875</LongitudeDegrees>
            </Position>
            <AltitudeMeters>792.20001220703125</AltitudeMeters>
            <DistanceMeters>NAN</DistanceMeters>
          </Trackpoint>
          <Trackpoint>
            <Time>2020-12-05T10:13:00.000Z</Time>
            <Position>
              <LatitudeDegrees>36.82444193400442600250244140625</LatitudeDegrees>
              <LongitudeDegrees>-4.38347308896481990814208984375</LongitudeDegrees>
            </Position>
            <AltitudeMeters>792.20001220703125</AltitudeMeters>
            <DistanceMeters>NAN</DistanceMeters>
          </Trackpoint>
          <Trackpoint>
            <Time>2020-12-05T10:13:01.000Z</Time>
            <Position>
              <LatitudeDegrees>36.82443422265350818634033203125</LatitudeDegrees>
              <LongitudeDegrees>-4.3834719993174076080322265625</LongitudeDegrees>
            </Position>
            <AltitudeMeters>792.20001220703125</AltitudeMeters>
            <DistanceMeters>NAN</DistanceMeters>
          </Trackpoint>
          <Trackpoint>
            <Time>2020-12-05T10:13:02.000Z</Time>
            <Position>
              <LatitudeDegrees>36.82442315854132175445556640625</LatitudeDegrees>
              <LongitudeDegrees>-4.38346906565129756927490234375</LongitudeDegrees>
            </Position>
            <AltitudeMeters>792.20001220703125</AltitudeMeters>
            <DistanceMeters>NAN</DistanceMeters>
          </Trackpoint>
          <Trackpoint>
            <Time>2020-12-05T10:13:03.000Z</Time>
            <Position>
              <LatitudeDegrees>36.82441209442913532257080078125</LatitudeDegrees>
              <LongitudeDegrees>-4.38346152193844318389892578125</LongitudeDegrees>
            </Position>
            <AltitudeMeters>792.20001220703125</AltitudeMeters>
            <DistanceMeters>NAN</DistanceMeters>
          </Trackpoint>
          <Trackpoint>
            <Time>2020-12-05T10:13:04.000Z</Time>
            <Position>
              <LatitudeDegrees>36.8244017846882343292236328125</LatitudeDegrees>
              <LongitudeDegrees>-4.38345649279654026031494140625</LongitudeDegrees>
            </Position>
            <AltitudeMeters>792.20001220703125</AltitudeMeters>
            <DistanceMeters>NAN</DistanceMeters>
          </Trackpoint>
          <Trackpoint>
            <Time>2020-12-05T10:13:05.000Z</Time>
            <Position>
              <LatitudeDegrees>36.8243977613747119903564453125</LatitudeDegrees>
              <LongitudeDegrees>-4.383452050387859344482421875</LongitudeDegrees>
            </Position>
            <AltitudeMeters>792.20001220703125</AltitudeMeters>
            <DistanceMeters>NAN</DistanceMeters>
          </Trackpoint>
          <Trackpoint>
            <Time>2020-12-05T10:13:06.000Z</Time>
            <Position>
              <LatitudeDegrees>36.82439533062279224395751953125</LatitudeDegrees>
              <LongitudeDegrees>-4.38344593159854412078857421875</LongitudeDegrees>
            </Position>
            <AltitudeMeters>792.20001220703125</AltitudeMeters>
            <DistanceMeters>NAN</DistanceMeters>
          </Trackpoint>
          <Trackpoint>
            <Time>2020-12-05T10:13:07.000Z</Time>
            <Position>
              <LatitudeDegrees>36.82439583353698253631591796875</LatitudeDegrees>
              <LongitudeDegrees>-4.3834394775331020355224609375</LongitudeDegrees>
            </Position>
            <AltitudeMeters>792.20001220703125</AltitudeMeters>
            <DistanceMeters>NAN</DistanceMeters>
          </Trackpoint>
          <Trackpoint>
            <Time>2020-12-05T10:13:08.000Z</Time>
            <Position>
              <LatitudeDegrees>36.82439625263214111328125</LatitudeDegrees>
              <LongitudeDegrees>-4.3834324367344379425048828125</LongitudeDegrees>
            </Position>
            <AltitudeMeters>792.20001220703125</AltitudeMeters>
            <DistanceMeters>NAN</DistanceMeters>
          </Trackpoint>
          <Trackpoint>
            <Time>2020-12-05T10:13:09.000Z</Time>
            <Position>
              <LatitudeDegrees>36.8243964202702045440673828125</LatitudeDegrees>
              <LongitudeDegrees>-4.38342598266899585723876953125</LongitudeDegrees>
            </Position>
            <AltitudeMeters>792.20001220703125</AltitudeMeters>
            <DistanceMeters>NAN</DistanceMeters>
          </Trackpoint>
          <Trackpoint>
            <Time>2020-12-05T10:13:10.000Z</Time>
            <Position>
              <LatitudeDegrees>36.82440002448856830596923828125</LatitudeDegrees>
              <LongitudeDegrees>-4.38341894187033176422119140625</LongitudeDegrees>
            </Position>
            <AltitudeMeters>792.20001220703125</AltitudeMeters>
            <DistanceMeters>NAN</DistanceMeters>
          </Trackpoint>
          <Trackpoint>
            <Time>2020-12-05T10:13:11.000Z</Time>
            <Position>
              <LatitudeDegrees>36.8244061432778835296630859375</LatitudeDegrees>
              <LongitudeDegrees>-4.38340988941490650177001953125</LongitudeDegrees>
            </Position>
            <AltitudeMeters>792.20001220703125</AltitudeMeters>
            <DistanceMeters>NAN</DistanceMeters>
          </Trackpoint>
          <Trackpoint>
            <Time>2020-12-05T10:13:12.000Z</Time>
            <Position>
              <LatitudeDegrees>36.82441343553364276885986328125</LatitudeDegrees>
              <LongitudeDegrees>-4.38340075314044952392578125</LongitudeDegrees>
            </Position>
            <AltitudeMeters>792.20001220703125</AltitudeMeters>
            <DistanceMeters>NAN</DistanceMeters>
          </Trackpoint>
          <Trackpoint>
            <Time>2020-12-05T10:13:13.000Z</Time>
            <Position>
              <LatitudeDegrees>36.8244262598454952239990234375</LatitudeDegrees>
              <LongitudeDegrees>-4.38339245505630970001220703125</LongitudeDegrees>
            </Position>
            <AltitudeMeters>792.20001220703125</AltitudeMeters>
            <DistanceMeters>NAN</DistanceMeters>
          </Trackpoint>
          <Trackpoint>
            <Time>2020-12-05T10:13:14.000Z</Time>
            <Position>
              <LatitudeDegrees>36.8244336359202861785888671875</LatitudeDegrees>
              <LongitudeDegrees>-4.38339211978018283843994140625</LongitudeDegrees>
            </Position>
            <AltitudeMeters>792.20001220703125</AltitudeMeters>
            <DistanceMeters>NAN</DistanceMeters>
          </Trackpoint>
          <Trackpoint>
            <Time>2020-12-05T10:13:15.000Z</Time>
            <Position>
              <LatitudeDegrees>36.82444327510893344879150390625</LatitudeDegrees>
              <LongitudeDegrees>-4.383389689028263092041015625</LongitudeDegrees>
            </Position>
            <AltitudeMeters>792.20001220703125</AltitudeMeters>
            <DistanceMeters>NAN</DistanceMeters>
          </Trackpoint>
          <Trackpoint>
            <Time>2020-12-05T10:13:16.000Z</Time>
            <Position>
              <LatitudeDegrees>36.8244537524878978729248046875</LatitudeDegrees>
              <LongitudeDegrees>-4.383388347923755645751953125</LongitudeDegrees>
            </Position>
            <AltitudeMeters>792.20001220703125</AltitudeMeters>
            <DistanceMeters>NAN</DistanceMeters>
          </Trackpoint>
          <Trackpoint>
            <Time>2020-12-05T10:13:17.000Z</Time>
            <Position>
              <LatitudeDegrees>36.82446540333330631256103515625</LatitudeDegrees>
              <LongitudeDegrees>-4.383391030132770538330078125</LongitudeDegrees>
            </Position>
            <AltitudeMeters>792.20001220703125</AltitudeMeters>
            <DistanceMeters>NAN</DistanceMeters>
          </Trackpoint>
          <Trackpoint>
            <Time>2020-12-05T10:13:18.000Z</Time>
            <Position>
              <LatitudeDegrees>36.82447529397904872894287109375</LatitudeDegrees>
              <LongitudeDegrees>-4.38338826410472393035888671875</LongitudeDegrees>
            </Position>
            <AltitudeMeters>792.20001220703125</AltitudeMeters>
            <DistanceMeters>NAN</DistanceMeters>
          </Trackpoint>
          <Trackpoint>
            <Time>2020-12-05T10:13:19.000Z</Time>
            <Position>
              <LatitudeDegrees>36.82448300532996654510498046875</LatitudeDegrees>
              <LongitudeDegrees>-4.38338407315313816070556640625</LongitudeDegrees>
            </Position>
            <AltitudeMeters>792.20001220703125</AltitudeMeters>
            <DistanceMeters>NAN</DistanceMeters>
          </Trackpoint>
          <Trackpoint>
            <Time>2020-12-05T10:13:20.000Z</Time>
            <Position>
              <LatitudeDegrees>36.82449021376669406890869140625</LatitudeDegrees>
              <LongitudeDegrees>-4.38337904401123523712158203125</LongitudeDegrees>
            </Position>
            <AltitudeMeters>792.20001220703125</AltitudeMeters>
            <DistanceMeters>NAN</DistanceMeters>
          </Trackpoint>
          <Trackpoint>
            <Time>2020-12-05T10:13:21.000Z</Time>
            <Position>
              <LatitudeDegrees>36.8245063908398151397705078125</LatitudeDegrees>
              <LongitudeDegrees>-4.38337418250739574432373046875</LongitudeDegrees>
            </Position>
            <AltitudeMeters>792.20001220703125</AltitudeMeters>
            <DistanceMeters>NAN</DistanceMeters>
          </Trackpoint>
          <Trackpoint>
            <Time>2020-12-05T10:13:22.000Z</Time>
            <Position>
              <LatitudeDegrees>36.82452307082712650299072265625</LatitudeDegrees>
              <LongitudeDegrees>-4.38337049447000026702880859375</LongitudeDegrees>
            </Position>
            <AltitudeMeters>792.20001220703125</AltitudeMeters>
            <DistanceMeters>NAN</DistanceMeters>
          </Trackpoint>
          <Trackpoint>
            <Time>2020-12-05T10:13:23.000Z</Time>
            <Position>
              <LatitudeDegrees>36.82453396730124950408935546875</LatitudeDegrees>
              <LongitudeDegrees>-4.3833690695464611053466796875</LongitudeDegrees>
            </Position>
            <AltitudeMeters>792.20001220703125</AltitudeMeters>
            <DistanceMeters>NAN</DistanceMeters>
          </Trackpoint>
          <Trackpoint>
            <Time>2020-12-05T10:13:24.000Z</Time>
            <Position>
              <LatitudeDegrees>36.82454419322311878204345703125</LatitudeDegrees>
              <LongitudeDegrees>-4.3833660520613193511962890625</LongitudeDegrees>
            </Position>
            <AltitudeMeters>792.20001220703125</AltitudeMeters>
            <DistanceMeters>NAN</DistanceMeters>
          </Trackpoint>
          <Trackpoint>
            <Time>2020-12-05T10:13:25.000Z</Time>
            <Position>
              <LatitudeDegrees>36.82455441914498805999755859375</LatitudeDegrees>
              <LongitudeDegrees>-4.38336244784295558929443359375</LongitudeDegrees>
            </Position>
            <AltitudeMeters>792.20001220703125</AltitudeMeters>
            <DistanceMeters>NAN</DistanceMeters>
          </Trackpoint>
          <Trackpoint>
            <Time>2020-12-05T10:13:26.000Z</Time>
            <Position>
              <LatitudeDegrees>36.8245665729045867919921875</LatitudeDegrees>
              <LongitudeDegrees>-4.3833566643297672271728515625</LongitudeDegrees>
            </Position>
            <AltitudeMeters>792.20001220703125</AltitudeMeters>
            <DistanceMeters>NAN</DistanceMeters>
          </Trackpoint>
          <Trackpoint>
            <Time>2020-12-05T10:13:27.000Z</Time>
            <Position>
              <LatitudeDegrees>36.8245741166174411773681640625</LatitudeDegrees>
              <LongitudeDegrees>-4.38334953971207141876220703125</LongitudeDegrees>
            </Position>
            <AltitudeMeters>792.20001220703125</AltitudeMeters>
            <DistanceMeters>NAN</DistanceMeters>
          </Trackpoint>
          <Trackpoint>
            <Time>2020-12-05T10:13:28.000Z</Time>
            <Position>
              <LatitudeDegrees>36.82458937168121337890625</LatitudeDegrees>
              <LongitudeDegrees>-4.38334467820823192596435546875</LongitudeDegrees>
            </Position>
            <AltitudeMeters>792.20001220703125</AltitudeMeters>
            <DistanceMeters>NAN</DistanceMeters>
          </Trackpoint>
          <Trackpoint>
            <Time>2020-12-05T10:13:29.000Z</Time>
            <Position>
              <LatitudeDegrees>36.82460353709757328033447265625</LatitudeDegrees>
              <LongitudeDegrees>-4.38333906233310699462890625</LongitudeDegrees>
            </Position>
            <AltitudeMeters>792.20001220703125</AltitudeMeters>
            <DistanceMeters>NAN</DistanceMeters>
          </Trackpoint>
          <Trackpoint>
            <Time>2020-12-05T10:13:30.000Z</Time>
            <Position>
              <LatitudeDegrees>36.8246197141706943511962890625</LatitudeDegrees>
              <LongitudeDegrees>-4.3833318538963794708251953125</LongitudeDegrees>
            </Position>
            <AltitudeMeters>792.20001220703125</AltitudeMeters>
            <DistanceMeters>NAN</DistanceMeters>
          </Trackpoint>
          <Trackpoint>
            <Time>2020-12-05T10:13:31.000Z</Time>
            <Position>
              <LatitudeDegrees>36.82463287375867366790771484375</LatitudeDegrees>
              <LongitudeDegrees>-4.38332556746900081634521484375</LongitudeDegrees>
            </Position>
            <AltitudeMeters>792.20001220703125</AltitudeMeters>
            <DistanceMeters>NAN</DistanceMeters>
          </Trackpoint>
          <Trackpoint>
            <Time>2020-12-05T10:13:32.000Z</Time>
            <Position>
              <LatitudeDegrees>36.82464527897536754608154296875</LatitudeDegrees>
              <LongitudeDegrees>-4.3833134137094020843505859375</LongitudeDegrees>
            </Position>
            <AltitudeMeters>792</AltitudeMeters>
            <DistanceMeters>NAN</DistanceMeters>
          </Trackpoint>
          <Trackpoint>
            <Time>2020-12-05T10:13:33.000Z</Time>
            <Position>
              <LatitudeDegrees>36.82465441524982452392578125</LatitudeDegrees>
              <LongitudeDegrees>-4.3833013437688350677490234375</LongitudeDegrees>
            </Position>
            <AltitudeMeters>791.5999755859375</AltitudeMeters>
            <DistanceMeters>NAN</DistanceMeters>
          </Trackpoint>
          <Trackpoint>
            <Time>2020-12-05T10:13:34.000Z</Time>
            <Position>
              <LatitudeDegrees>36.82466380298137664794921875</LatitudeDegrees>
              <LongitudeDegrees>-4.38329036347568035125732421875</LongitudeDegrees>
            </Position>
            <AltitudeMeters>791.20001220703125</AltitudeMeters>
            <DistanceMeters>NAN</DistanceMeters>
          </Trackpoint>
          <Trackpoint>
            <Time>2020-12-05T10:13:35.000Z</Time>
            <Position>
              <LatitudeDegrees>36.82467184960842132568359375</LatitudeDegrees>
              <LongitudeDegrees>-4.38327896408736705780029296875</LongitudeDegrees>
            </Position>
            <AltitudeMeters>791</AltitudeMeters>
            <DistanceMeters>NAN</DistanceMeters>
          </Trackpoint>
          <Trackpoint>
            <Time>2020-12-05T10:13:36.000Z</Time>
            <Position>
              <LatitudeDegrees>36.8246790580451488494873046875</LatitudeDegrees>
              <LongitudeDegrees>-4.38326957635581493377685546875</LongitudeDegrees>
            </Position>
            <AltitudeMeters>790.79998779296875</AltitudeMeters>
            <DistanceMeters>NAN</DistanceMeters>
          </Trackpoint>
          <Trackpoint>
            <Time>2020-12-05T10:13:37.000Z</Time>
            <Position>
              <LatitudeDegrees>36.8246847577393054962158203125</LatitudeDegrees>
              <LongitudeDegrees>-4.38325993716716766357421875</LongitudeDegrees>
            </Position>
            <AltitudeMeters>790.79998779296875</AltitudeMeters>
            <DistanceMeters>NAN</DistanceMeters>
          </Trackpoint>
          <Trackpoint>
            <Time>2020-12-05T10:13:38.000Z</Time>
            <Position>
              <LatitudeDegrees>36.82468936778604984283447265625</LatitudeDegrees>
              <LongitudeDegrees>-4.3832537345588207244873046875</LongitudeDegrees>
            </Position>
            <AltitudeMeters>790.5999755859375</AltitudeMeters>
            <DistanceMeters>NAN</DistanceMeters>
          </Trackpoint>
          <Trackpoint>
            <Time>2020-12-05T10:13:39.000Z</Time>
            <Position>
              <LatitudeDegrees>36.824693977832794189453125</LatitudeDegrees>
              <LongitudeDegrees>-4.3832480348646640777587890625</LongitudeDegrees>
            </Position>
            <AltitudeMeters>790.5999755859375</AltitudeMeters>
            <DistanceMeters>NAN</DistanceMeters>
          </Trackpoint>
          <Trackpoint>
            <Time>2020-12-05T10:13:40.000Z</Time>
            <Position>
              <LatitudeDegrees>36.8246991746127605438232421875</LatitudeDegrees>
              <LongitudeDegrees>-4.38324116170406341552734375</LongitudeDegrees>
            </Position>
            <AltitudeMeters>790.4000244140625</AltitudeMeters>
            <DistanceMeters>NAN</DistanceMeters>
          </Trackpoint>
          <Trackpoint>
            <Time>2020-12-05T10:13:41.000Z</Time>
            <Position>
              <LatitudeDegrees>36.82470403611660003662109375</LatitudeDegrees>
              <LongitudeDegrees>-4.3832339532673358917236328125</LongitudeDegrees>
            </Position>
            <AltitudeMeters>790.4000244140625</AltitudeMeters>
            <DistanceMeters>NAN</DistanceMeters>
          </Trackpoint>
          <Trackpoint>
            <Time>2020-12-05T10:13:42.000Z</Time>
            <Position>
              <LatitudeDegrees>36.82470981962978839874267578125</LatitudeDegrees>
              <LongitudeDegrees>-4.38322850503027439117431640625</LongitudeDegrees>
            </Position>
            <AltitudeMeters>790.4000244140625</AltitudeMeters>
            <DistanceMeters>NAN</DistanceMeters>
          </Trackpoint>
          <Trackpoint>
            <Time>2020-12-05T10:13:43.000Z</Time>
            <Position>
              <LatitudeDegrees>36.82471702806651592254638671875</LatitudeDegrees>
              <LongitudeDegrees>-4.38322515226900577545166015625</LongitudeDegrees>
            </Position>
            <AltitudeMeters>790.20001220703125</AltitudeMeters>
            <DistanceMeters>NAN</DistanceMeters>
          </Trackpoint>
          <Trackpoint>
            <Time>2020-12-05T10:13:44.000Z</Time>
            <Position>
              <LatitudeDegrees>36.8247263319790363311767578125</LatitudeDegrees>
              <LongitudeDegrees>-4.3832205422222614288330078125</LongitudeDegrees>
            </Position>
            <AltitudeMeters>790.20001220703125</AltitudeMeters>
            <DistanceMeters>NAN</DistanceMeters>
          </Trackpoint>
          <Trackpoint>
            <Time>2020-12-05T10:13:45.000Z</Time>
            <Position>
              <LatitudeDegrees>36.82473228313028812408447265625</LatitudeDegrees>
              <LongitudeDegrees>-4.38321509398519992828369140625</LongitudeDegrees>
            </Position>
            <AltitudeMeters>790</AltitudeMeters>
            <DistanceMeters>NAN</DistanceMeters>
          </Trackpoint>
          <Trackpoint>
            <Time>2020-12-05T10:13:46.000Z</Time>
            <Position>
              <LatitudeDegrees>36.8247380666434764862060546875</LatitudeDegrees>
              <LongitudeDegrees>-4.38320872373878955841064453125</LongitudeDegrees>
            </Position>
            <AltitudeMeters>790</AltitudeMeters>
            <DistanceMeters>NAN</DistanceMeters>
          </Trackpoint>
          <Trackpoint>
            <Time>2020-12-05T10:13:47.000Z</Time>
            <Position>
              <LatitudeDegrees>36.82474317960441112518310546875</LatitudeDegrees>
              <LongitudeDegrees>-4.3832024373114109039306640625</LongitudeDegrees>
            </Position>
            <AltitudeMeters>789.79998779296875</AltitudeMeters>
            <DistanceMeters>NAN</DistanceMeters>
          </Trackpoint>
          <Trackpoint>
            <Time>2020-12-05T10:13:48.000Z</Time>
            <Position>
              <LatitudeDegrees>36.824751980602741241455078125</LatitudeDegrees>
              <LongitudeDegrees>-4.383195899426937103271484375</LongitudeDegrees>
            </Position>
            <AltitudeMeters>789.79998779296875</AltitudeMeters>
            <DistanceMeters>NAN</DistanceMeters>
          </Trackpoint>
          <Trackpoint>
            <Time>2020-12-05T10:13:49.000Z</Time>
            <Position>
              <LatitudeDegrees>36.824759356677532196044921875</LatitudeDegrees>
              <LongitudeDegrees>-4.3831886909902095794677734375</LongitudeDegrees>
            </Position>
            <AltitudeMeters>789.79998779296875</AltitudeMeters>
            <DistanceMeters>NAN</DistanceMeters>
          </Trackpoint>
          <Trackpoint>
            <Time>2020-12-05T10:13:50.000Z</Time>
            <Position>
              <LatitudeDegrees>36.82477067224681377410888671875</LatitudeDegrees>
              <LongitudeDegrees>-4.38318307511508464813232421875</LongitudeDegrees>
            </Position>
            <AltitudeMeters>789.79998779296875</AltitudeMeters>
            <DistanceMeters>NAN</DistanceMeters>
          </Trackpoint>
          <Trackpoint>
            <Time>2020-12-05T10:13:51.000Z</Time>
            <Position>
              <LatitudeDegrees>36.82478039525449275970458984375</LatitudeDegrees>
              <LongitudeDegrees>-4.3831769563257694244384765625</LongitudeDegrees>
            </Position>
            <AltitudeMeters>789.79998779296875</AltitudeMeters>
            <DistanceMeters>NAN</DistanceMeters>
          </Trackpoint>
          <Trackpoint>
            <Time>2020-12-05T10:13:52.000Z</Time>
            <Position>
              <LatitudeDegrees>36.82479263283312320709228515625</LatitudeDegrees>
              <LongitudeDegrees>-4.3831685744225978851318359375</LongitudeDegrees>
            </Position>
            <AltitudeMeters>789.5999755859375</AltitudeMeters>
            <DistanceMeters>NAN</DistanceMeters>
          </Trackpoint>
          <Trackpoint>
            <Time>2020-12-05T10:13:53.000Z</Time>
            <Position>
              <LatitudeDegrees>36.8248017691075801849365234375</LatitudeDegrees>
              <LongitudeDegrees>-4.38316312618553638458251953125</LongitudeDegrees>
            </Position>
            <AltitudeMeters>789.5999755859375</AltitudeMeters>
            <DistanceMeters>NAN</DistanceMeters>
          </Trackpoint>
          <Trackpoint>
            <Time>2020-12-05T10:13:54.000Z</Time>
            <Position>
              <LatitudeDegrees>36.82480637915432453155517578125</LatitudeDegrees>
              <LongitudeDegrees>-4.38315792940557003021240234375</LongitudeDegrees>
            </Position>
            <AltitudeMeters>789.5999755859375</AltitudeMeters>
            <DistanceMeters>NAN</DistanceMeters>
          </Trackpoint>
          <Trackpoint>
            <Time>2020-12-05T10:13:55.000Z</Time>
            <Position>
              <LatitudeDegrees>36.8248138390481472015380859375</LatitudeDegrees>
              <LongitudeDegrees>-4.38315357081592082977294921875</LongitudeDegrees>
            </Position>
            <AltitudeMeters>789.5999755859375</AltitudeMeters>
            <DistanceMeters>NAN</DistanceMeters>
          </Trackpoint>
          <Trackpoint>
            <Time>2020-12-05T10:13:56.000Z</Time>
            <Position>
              <LatitudeDegrees>36.8248212151229381561279296875</LatitudeDegrees>
              <LongitudeDegrees>-4.38314887695014476776123046875</LongitudeDegrees>
            </Position>
            <AltitudeMeters>789.4000244140625</AltitudeMeters>
            <DistanceMeters>NAN</DistanceMeters>
          </Trackpoint>
          <Trackpoint>
            <Time>2020-12-05T10:13:57.000Z</Time>
            <Position>
              <LatitudeDegrees>36.82482984848320484161376953125</LatitudeDegrees>
              <LongitudeDegrees>-4.38314468599855899810791015625</LongitudeDegrees>
            </Position>
            <AltitudeMeters>789.4000244140625</AltitudeMeters>
            <DistanceMeters>NAN</DistanceMeters>
          </Trackpoint>
          <Trackpoint>
            <Time>2020-12-05T10:13:58.000Z</Time>
            <Position>
              <LatitudeDegrees>36.82483948767185211181640625</LatitudeDegrees>
              <LongitudeDegrees>-4.3831412494182586669921875</LongitudeDegrees>
            </Position>
            <AltitudeMeters>789.4000244140625</AltitudeMeters>
            <DistanceMeters>NAN</DistanceMeters>
          </Trackpoint>
          <Trackpoint>
            <Time>2020-12-05T10:13:59.000Z</Time>
            <Position>
              <LatitudeDegrees>36.82484778575599193572998046875</LatitudeDegrees>
              <LongitudeDegrees>-4.3831380642950534820556640625</LongitudeDegrees>
            </Position>
            <AltitudeMeters>789.4000244140625</AltitudeMeters>
            <DistanceMeters>NAN</DistanceMeters>
          </Trackpoint>
          <Trackpoint>
            <Time>2020-12-05T10:14:00.000Z</Time>
            <Position>
              <LatitudeDegrees>36.82485918514430522918701171875</LatitudeDegrees>
              <LongitudeDegrees>-4.3831343762576580047607421875</LongitudeDegrees>
            </Position>
            <AltitudeMeters>789.20001220703125</AltitudeMeters>
            <DistanceMeters>NAN</DistanceMeters>
          </Trackpoint>
          <Trackpoint>
            <Time>2020-12-05T10:14:01.000Z</Time>
            <Position>
              <LatitudeDegrees>36.824868656694889068603515625</LatitudeDegrees>
              <LongitudeDegrees>-4.383130185306072235107421875</LongitudeDegrees>
            </Position>
            <AltitudeMeters>789.20001220703125</AltitudeMeters>
            <DistanceMeters>NAN</DistanceMeters>
          </Trackpoint>
          <Trackpoint>
            <Time>2020-12-05T10:14:02.000Z</Time>
            <Position>
              <LatitudeDegrees>36.82487905025482177734375</LatitudeDegrees>
              <LongitudeDegrees>-4.38312691636383533477783203125</LongitudeDegrees>
            </Position>
            <AltitudeMeters>789.20001220703125</AltitudeMeters>
            <DistanceMeters>NAN</DistanceMeters>
          </Trackpoint>
          <Trackpoint>
            <Time>2020-12-05T10:14:03.000Z</Time>
            <Position>
              <LatitudeDegrees>36.82489103637635707855224609375</LatitudeDegrees>
              <LongitudeDegrees>-4.3831243179738521575927734375</LongitudeDegrees>
            </Position>
            <AltitudeMeters>789.20001220703125</AltitudeMeters>
            <DistanceMeters>NAN</DistanceMeters>
          </Trackpoint>
          <Trackpoint>
            <Time>2020-12-05T10:14:04.000Z</Time>
            <Position>
              <LatitudeDegrees>36.82490260340273380279541015625</LatitudeDegrees>
              <LongitudeDegrees>-4.3831197917461395263671875</LongitudeDegrees>
            </Position>
            <AltitudeMeters>789.20001220703125</AltitudeMeters>
            <DistanceMeters>NAN</DistanceMeters>
          </Trackpoint>
          <Trackpoint>
            <Time>2020-12-05T10:14:05.000Z</Time>
            <Position>
              <LatitudeDegrees>36.8249127455055713653564453125</LatitudeDegrees>
              <LongitudeDegrees>-4.38311836682260036468505859375</LongitudeDegrees>
            </Position>
            <AltitudeMeters>789</AltitudeMeters>
            <DistanceMeters>NAN</DistanceMeters>
          </Trackpoint>
          <Trackpoint>
            <Time>2020-12-05T10:14:06.000Z</Time>
            <Position>
              <LatitudeDegrees>36.82492473162710666656494140625</LatitudeDegrees>
              <LongitudeDegrees>-4.38311601988971233367919921875</LongitudeDegrees>
            </Position>
            <AltitudeMeters>789</AltitudeMeters>
            <DistanceMeters>NAN</DistanceMeters>
          </Trackpoint>
          <Trackpoint>
            <Time>2020-12-05T10:14:07.000Z</Time>
            <Position>
              <LatitudeDegrees>36.82493738830089569091796875</LatitudeDegrees>
              <LongitudeDegrees>-4.3831085599958896636962890625</LongitudeDegrees>
            </Position>
            <AltitudeMeters>789</AltitudeMeters>
            <DistanceMeters>NAN</DistanceMeters>
          </Trackpoint>
          <Trackpoint>
            <Time>2020-12-05T10:14:08.000Z</Time>
            <Position>
              <LatitudeDegrees>36.8249509669840335845947265625</LatitudeDegrees>
              <LongitudeDegrees>-4.38309967517852783203125</LongitudeDegrees>
            </Position>
            <AltitudeMeters>788.79998779296875</AltitudeMeters>
            <DistanceMeters>NAN</DistanceMeters>
          </Trackpoint>
          <Trackpoint>
            <Time>2020-12-05T10:14:09.000Z</Time>
            <Position>
              <LatitudeDegrees>36.824965216219425201416015625</LatitudeDegrees>
              <LongitudeDegrees>-4.38309104181826114654541015625</LongitudeDegrees>
            </Position>
            <AltitudeMeters>788.79998779296875</AltitudeMeters>
            <DistanceMeters>NAN</DistanceMeters>
          </Trackpoint>
          <Trackpoint>
            <Time>2020-12-05T10:14:10.000Z</Time>
            <Position>
              <LatitudeDegrees>36.8249784596264362335205078125</LatitudeDegrees>
              <LongitudeDegrees>-4.3830849230289459228515625</LongitudeDegrees>
            </Position>
            <AltitudeMeters>788.5999755859375</AltitudeMeters>
            <DistanceMeters>NAN</DistanceMeters>
          </Trackpoint>
          <Trackpoint>
            <Time>2020-12-05T10:14:11.000Z</Time>
            <Position>
              <LatitudeDegrees>36.82498977519571781158447265625</LatitudeDegrees>
              <LongitudeDegrees>-4.383080899715423583984375</LongitudeDegrees>
            </Position>
            <AltitudeMeters>788.5999755859375</AltitudeMeters>
            <DistanceMeters>NAN</DistanceMeters>
          </Trackpoint>
          <Trackpoint>
            <Time>2020-12-05T10:14:12.000Z</Time>
            <Position>
              <LatitudeDegrees>36.82500083930790424346923828125</LatitudeDegrees>
              <LongitudeDegrees>-4.383079223334789276123046875</LongitudeDegrees>
            </Position>
            <AltitudeMeters>788.5999755859375</AltitudeMeters>
            <DistanceMeters>NAN</DistanceMeters>
          </Trackpoint>
          <Trackpoint>
            <Time>2020-12-05T10:14:13.000Z</Time>
            <Position>
              <LatitudeDegrees>36.825012825429439544677734375</LatitudeDegrees>
              <LongitudeDegrees>-4.3830787204205989837646484375</LongitudeDegrees>
            </Position>
            <AltitudeMeters>788.5999755859375</AltitudeMeters>
            <DistanceMeters>NAN</DistanceMeters>
          </Trackpoint>
          <Trackpoint>
            <Time>2020-12-05T10:14:14.000Z</Time>
            <Position>
              <LatitudeDegrees>36.8250217102468013763427734375</LatitudeDegrees>
              <LongitudeDegrees>-4.38307863660156726837158203125</LongitudeDegrees>
            </Position>
            <AltitudeMeters>788.5999755859375</AltitudeMeters>
            <DistanceMeters>NAN</DistanceMeters>
          </Trackpoint>
          <Trackpoint>
            <Time>2020-12-05T10:14:15.000Z</Time>
            <Position>
              <LatitudeDegrees>36.82502925395965576171875</LatitudeDegrees>
              <LongitudeDegrees>-4.38307645730674266815185546875</LongitudeDegrees>
            </Position>
            <AltitudeMeters>788.5999755859375</AltitudeMeters>
            <DistanceMeters>NAN</DistanceMeters>
          </Trackpoint>
          <Trackpoint>
            <Time>2020-12-05T10:14:16.000Z</Time>
            <Position>
              <LatitudeDegrees>36.82504174299538135528564453125</LatitudeDegrees>
              <LongitudeDegrees>-4.3830733560025691986083984375</LongitudeDegrees>
            </Position>
            <AltitudeMeters>788.4000244140625</AltitudeMeters>
            <DistanceMeters>NAN</DistanceMeters>
          </Trackpoint>
          <Trackpoint>
            <Time>2020-12-05T10:14:17.000Z</Time>
            <Position>
              <LatitudeDegrees>36.8250502087175846099853515625</LatitudeDegrees>
              <LongitudeDegrees>-4.38307218253612518310546875</LongitudeDegrees>
            </Position>
            <AltitudeMeters>788.4000244140625</AltitudeMeters>
            <DistanceMeters>NAN</DistanceMeters>
          </Trackpoint>
          <Trackpoint>
            <Time>2020-12-05T10:14:18.000Z</Time>
            <Position>
              <LatitudeDegrees>36.82505808770656585693359375</LatitudeDegrees>
              <LongitudeDegrees>-4.38307159580290317535400390625</LongitudeDegrees>
            </Position>
            <AltitudeMeters>788.4000244140625</AltitudeMeters>
            <DistanceMeters>NAN</DistanceMeters>
          </Trackpoint>
          <Trackpoint>
            <Time>2020-12-05T10:14:19.000Z</Time>
            <Position>
              <LatitudeDegrees>36.8250666372478008270263671875</LatitudeDegrees>
              <LongitudeDegrees>-4.38307126052677631378173828125</LongitudeDegrees>
            </Position>
            <AltitudeMeters>788.20001220703125</AltitudeMeters>
            <DistanceMeters>NAN</DistanceMeters>
          </Trackpoint>
          <Trackpoint>
            <Time>2020-12-05T10:14:20.000Z</Time>
            <Position>
              <LatitudeDegrees>36.825075186789035797119140625</LatitudeDegrees>
              <LongitudeDegrees>-4.38307285308837890625</LongitudeDegrees>
            </Position>
            <AltitudeMeters>788</AltitudeMeters>
            <DistanceMeters>NAN</DistanceMeters>
          </Trackpoint>
          <Trackpoint>
            <Time>2020-12-05T10:14:21.000Z</Time>
            <Position>
              <LatitudeDegrees>36.82508348487317562103271484375</LatitudeDegrees>
              <LongitudeDegrees>-4.383073858916759490966796875</LongitudeDegrees>
            </Position>
            <AltitudeMeters>787.79998779296875</AltitudeMeters>
            <DistanceMeters>NAN</DistanceMeters>
          </Trackpoint>
          <Trackpoint>
            <Time>2020-12-05T10:14:22.000Z</Time>
            <Position>
              <LatitudeDegrees>36.8250901065766811370849609375</LatitudeDegrees>
              <LongitudeDegrees>-4.383075870573520660400390625</LongitudeDegrees>
            </Position>
            <AltitudeMeters>787.5999755859375</AltitudeMeters>
            <DistanceMeters>NAN</DistanceMeters>
          </Trackpoint>
          <Trackpoint>
            <Time>2020-12-05T10:14:23.000Z</Time>
            <Position>
              <LatitudeDegrees>36.82509521953761577606201171875</LatitudeDegrees>
              <LongitudeDegrees>-4.38307930715382099151611328125</LongitudeDegrees>
            </Position>
            <AltitudeMeters>787.4000244140625</AltitudeMeters>
            <DistanceMeters>NAN</DistanceMeters>
          </Trackpoint>
          <Trackpoint>
            <Time>2020-12-05T10:14:24.000Z</Time>
            <Position>
              <LatitudeDegrees>36.8250976502895355224609375</LatitudeDegrees>
              <LongitudeDegrees>-4.38307997770607471466064453125</LongitudeDegrees>
            </Position>
            <AltitudeMeters>787.4000244140625</AltitudeMeters>
            <DistanceMeters>NAN</DistanceMeters>
          </Trackpoint>
          <Trackpoint>
            <Time>2020-12-05T10:14:25.000Z</Time>
            <Position>
              <LatitudeDegrees>36.82509697973728179931640625</LatitudeDegrees>
              <LongitudeDegrees>-4.3830793909728527069091796875</LongitudeDegrees>
            </Position>
            <AltitudeMeters>787.4000244140625</AltitudeMeters>
            <DistanceMeters>NAN</DistanceMeters>
          </Trackpoint>
          <Trackpoint>
            <Time>2020-12-05T10:14:26.000Z</Time>
            <Position>
              <LatitudeDegrees>36.82510008104145526885986328125</LatitudeDegrees>
              <LongitudeDegrees>-4.3830810673534870147705078125</LongitudeDegrees>
            </Position>
            <AltitudeMeters>787.4000244140625</AltitudeMeters>
            <DistanceMeters>NAN</DistanceMeters>
          </Trackpoint>
          <Trackpoint>
            <Time>2020-12-05T10:14:27.000Z</Time>
            <Position>
              <LatitudeDegrees>36.82510460726916790008544921875</LatitudeDegrees>
              <LongitudeDegrees>-4.38308299519121646881103515625</LongitudeDegrees>
            </Position>
            <AltitudeMeters>787.4000244140625</AltitudeMeters>
            <DistanceMeters>NAN</DistanceMeters>
          </Trackpoint>
          <Trackpoint>
            <Time>2020-12-05T10:14:28.000Z</Time>
            <Position>
              <LatitudeDegrees>36.82511013932526111602783203125</LatitudeDegrees>
              <LongitudeDegrees>-4.3830854259431362152099609375</LongitudeDegrees>
            </Position>
            <AltitudeMeters>787.4000244140625</AltitudeMeters>
            <DistanceMeters>NAN</DistanceMeters>
          </Trackpoint>
          <Trackpoint>
            <Time>2020-12-05T10:14:29.000Z</Time>
            <Position>
              <LatitudeDegrees>36.825116761028766632080078125</LatitudeDegrees>
              <LongitudeDegrees>-4.38308986835181713104248046875</LongitudeDegrees>
            </Position>
            <AltitudeMeters>787.4000244140625</AltitudeMeters>
            <DistanceMeters>NAN</DistanceMeters>
          </Trackpoint>
          <Trackpoint>
            <Time>2020-12-05T10:14:30.000Z</Time>
            <Position>
              <LatitudeDegrees>36.82512925006449222564697265625</LatitudeDegrees>
              <LongitudeDegrees>-4.38309841789305210113525390625</LongitudeDegrees>
            </Position>
            <AltitudeMeters>787.5999755859375</AltitudeMeters>
            <DistanceMeters>NAN</DistanceMeters>
          </Trackpoint>
          <Trackpoint>
            <Time>2020-12-05T10:14:31.000Z</Time>
            <Position>
              <LatitudeDegrees>36.8251447565853595733642578125</LatitudeDegrees>
              <LongitudeDegrees>-4.38310679979622364044189453125</LongitudeDegrees>
            </Position>
            <AltitudeMeters>787.5999755859375</AltitudeMeters>
            <DistanceMeters>NAN</DistanceMeters>
          </Trackpoint>
          <Trackpoint>
            <Time>2020-12-05T10:14:32.000Z</Time>
            <Position>
              <LatitudeDegrees>36.82516227476298809051513671875</LatitudeDegrees>
              <LongitudeDegrees>-4.38312205485999584197998046875</LongitudeDegrees>
            </Position>
            <AltitudeMeters>787.4000244140625</AltitudeMeters>
            <DistanceMeters>NAN</DistanceMeters>
          </Trackpoint>
          <Trackpoint>
            <Time>2020-12-05T10:14:33.000Z</Time>
            <Position>
              <LatitudeDegrees>36.825179122388362884521484375</LatitudeDegrees>
              <LongitudeDegrees>-4.38313387334346771240234375</LongitudeDegrees>
            </Position>
            <AltitudeMeters>787.4000244140625</AltitudeMeters>
            <DistanceMeters>NAN</DistanceMeters>
          </Trackpoint>
          <Trackpoint>
            <Time>2020-12-05T10:14:34.000Z</Time>
            <Position>
              <LatitudeDegrees>36.825192868709564208984375</LatitudeDegrees>
              <LongitudeDegrees>-4.38314015977084636688232421875</LongitudeDegrees>
            </Position>
            <AltitudeMeters>787.4000244140625</AltitudeMeters>
            <DistanceMeters>NAN</DistanceMeters>
          </Trackpoint>
          <Trackpoint>
            <Time>2020-12-05T10:14:35.000Z</Time>
            <Position>
              <LatitudeDegrees>36.8252098001539707183837890625</LatitudeDegrees>
              <LongitudeDegrees>-4.3831457756459712982177734375</LongitudeDegrees>
            </Position>
            <AltitudeMeters>787.20001220703125</AltitudeMeters>
            <DistanceMeters>NAN</DistanceMeters>
          </Trackpoint>
          <Trackpoint>
            <Time>2020-12-05T10:14:36.000Z</Time>
            <Position>
              <LatitudeDegrees>36.82522295974195003509521484375</LatitudeDegrees>
              <LongitudeDegrees>-4.3831521458923816680908203125</LongitudeDegrees>
            </Position>
            <AltitudeMeters>787.20001220703125</AltitudeMeters>
            <DistanceMeters>NAN</DistanceMeters>
          </Trackpoint>
          <Trackpoint>
            <Time>2020-12-05T10:14:37.000Z</Time>
            <Position>
              <LatitudeDegrees>36.82523737661540508270263671875</LatitudeDegrees>
              <LongitudeDegrees>-4.38316044397652149200439453125</LongitudeDegrees>
            </Position>
            <AltitudeMeters>787</AltitudeMeters>
            <DistanceMeters>NAN</DistanceMeters>
          </Trackpoint>
          <Trackpoint>
            <Time>2020-12-05T10:14:38.000Z</Time>
            <Position>
              <LatitudeDegrees>36.82525062002241611480712890625</LatitudeDegrees>
              <LongitudeDegrees>-4.383170418441295623779296875</LongitudeDegrees>
            </Position>
            <AltitudeMeters>786.79998779296875</AltitudeMeters>
            <DistanceMeters>NAN</DistanceMeters>
          </Trackpoint>
          <Trackpoint>
            <Time>2020-12-05T10:14:39.000Z</Time>
            <Position>
              <LatitudeDegrees>36.82526461780071258544921875</LatitudeDegrees>
              <LongitudeDegrees>-4.3831739388406276702880859375</LongitudeDegrees>
            </Position>
            <AltitudeMeters>786.79998779296875</AltitudeMeters>
            <DistanceMeters>NAN</DistanceMeters>
          </Trackpoint>
          <Trackpoint>
            <Time>2020-12-05T10:14:40.000Z</Time>
            <Position>
              <LatitudeDegrees>36.8252773582935333251953125</LatitudeDegrees>
              <LongitudeDegrees>-4.3831756152212619781494140625</LongitudeDegrees>
            </Position>
            <AltitudeMeters>786.5999755859375</AltitudeMeters>
            <DistanceMeters>NAN</DistanceMeters>
          </Trackpoint>
          <Trackpoint>
            <Time>2020-12-05T10:14:41.000Z</Time>
            <Position>
              <LatitudeDegrees>36.82528850622475147247314453125</LatitudeDegrees>
              <LongitudeDegrees>-4.383177123963832855224609375</LongitudeDegrees>
            </Position>
            <AltitudeMeters>786.4000244140625</AltitudeMeters>
            <DistanceMeters>NAN</DistanceMeters>
          </Trackpoint>
          <Trackpoint>
            <Time>2020-12-05T10:14:42.000Z</Time>
            <Position>
              <LatitudeDegrees>36.8253006599843502044677734375</LatitudeDegrees>
              <LongitudeDegrees>-4.38317938707768917083740234375</LongitudeDegrees>
            </Position>
            <AltitudeMeters>786.4000244140625</AltitudeMeters>
            <DistanceMeters>NAN</DistanceMeters>
          </Trackpoint>
          <Trackpoint>
            <Time>2020-12-05T10:14:43.000Z</Time>
            <Position>
              <LatitudeDegrees>36.82531566359102725982666015625</LatitudeDegrees>
              <LongitudeDegrees>-4.38318056054413318634033203125</LongitudeDegrees>
            </Position>
            <AltitudeMeters>786.20001220703125</AltitudeMeters>
            <DistanceMeters>NAN</DistanceMeters>
          </Trackpoint>
          <Trackpoint>
            <Time>2020-12-05T10:14:44.000Z</Time>
            <Position>
              <LatitudeDegrees>36.82532907463610172271728515625</LatitudeDegrees>
              <LongitudeDegrees>-4.383183829486370086669921875</LongitudeDegrees>
            </Position>
            <AltitudeMeters>786</AltitudeMeters>
            <DistanceMeters>NAN</DistanceMeters>
          </Trackpoint>
          <Trackpoint>
            <Time>2020-12-05T10:14:45.000Z</Time>
            <Position>
              <LatitudeDegrees>36.82534131221473217010498046875</LatitudeDegrees>
              <LongitudeDegrees>-4.383187852799892425537109375</LongitudeDegrees>
            </Position>
            <AltitudeMeters>786</AltitudeMeters>
            <DistanceMeters>NAN</DistanceMeters>
          </Trackpoint>
          <Trackpoint>
            <Time>2020-12-05T10:14:46.000Z</Time>
            <Position>
              <LatitudeDegrees>36.8253569863736629486083984375</LatitudeDegrees>
              <LongitudeDegrees>-4.38319179229438304901123046875</LongitudeDegrees>
            </Position>
            <AltitudeMeters>786</AltitudeMeters>
            <DistanceMeters>NAN</DistanceMeters>
          </Trackpoint>
          <Trackpoint>
            <Time>2020-12-05T10:14:47.000Z</Time>
            <Position>
              <LatitudeDegrees>36.82537182234227657318115234375</LatitudeDegrees>
              <LongitudeDegrees>-4.38319430686533451080322265625</LongitudeDegrees>
            </Position>
            <AltitudeMeters>786</AltitudeMeters>
            <DistanceMeters>NAN</DistanceMeters>
          </Trackpoint>
          <Trackpoint>
            <Time>2020-12-05T10:14:48.000Z</Time>
            <Position>
              <LatitudeDegrees>36.8253819644451141357421875</LatitudeDegrees>
              <LongitudeDegrees>-4.38319749198853969573974609375</LongitudeDegrees>
            </Position>
            <AltitudeMeters>785.79998779296875</AltitudeMeters>
            <DistanceMeters>NAN</DistanceMeters>
          </Trackpoint>
          <Trackpoint>
            <Time>2020-12-05T10:14:49.000Z</Time>
            <Position>
              <LatitudeDegrees>36.82539177127182483673095703125</LatitudeDegrees>
              <LongitudeDegrees>-4.38320285640656948089599609375</LongitudeDegrees>
            </Position>
            <AltitudeMeters>785.79998779296875</AltitudeMeters>
            <DistanceMeters>NAN</DistanceMeters>
          </Trackpoint>
          <Trackpoint>
            <Time>2020-12-05T10:14:50.000Z</Time>
            <Position>
              <LatitudeDegrees>36.8254015780985355377197265625</LatitudeDegrees>
              <LongitudeDegrees>-4.3832091428339481353759765625</LongitudeDegrees>
            </Position>
            <AltitudeMeters>785.79998779296875</AltitudeMeters>
            <DistanceMeters>NAN</DistanceMeters>
          </Trackpoint>
          <Trackpoint>
            <Time>2020-12-05T10:14:51.000Z</Time>
            <Position>
              <LatitudeDegrees>36.82541021145880222320556640625</LatitudeDegrees>
              <LongitudeDegrees>-4.3832098133862018585205078125</LongitudeDegrees>
            </Position>
            <AltitudeMeters>785.79998779296875</AltitudeMeters>
            <DistanceMeters>NAN</DistanceMeters>
          </Trackpoint>
          <Trackpoint>
            <Time>2020-12-05T10:14:52.000Z</Time>
            <Position>
              <LatitudeDegrees>36.825420856475830078125</LatitudeDegrees>
              <LongitudeDegrees>-4.383206628262996673583984375</LongitudeDegrees>
            </Position>
            <AltitudeMeters>785.5999755859375</AltitudeMeters>
            <DistanceMeters>NAN</DistanceMeters>
          </Trackpoint>
          <Trackpoint>
            <Time>2020-12-05T10:14:53.000Z</Time>
            <Position>
              <LatitudeDegrees>36.8254315853118896484375</LatitudeDegrees>
              <LongitudeDegrees>-4.38320201821625232696533203125</LongitudeDegrees>
            </Position>
            <AltitudeMeters>785.5999755859375</AltitudeMeters>
            <DistanceMeters>NAN</DistanceMeters>
          </Trackpoint>
          <Trackpoint>
            <Time>2020-12-05T10:14:54.000Z</Time>
            <Position>
              <LatitudeDegrees>36.82544298470020294189453125</LatitudeDegrees>
              <LongitudeDegrees>-4.3831975758075714111328125</LongitudeDegrees>
            </Position>
            <AltitudeMeters>785.4000244140625</AltitudeMeters>
            <DistanceMeters>NAN</DistanceMeters>
          </Trackpoint>
          <Trackpoint>
            <Time>2020-12-05T10:14:55.000Z</Time>
            <Position>
              <LatitudeDegrees>36.82545237243175506591796875</LatitudeDegrees>
              <LongitudeDegrees>-4.3831947259604930877685546875</LongitudeDegrees>
            </Position>
            <AltitudeMeters>785.4000244140625</AltitudeMeters>
            <DistanceMeters>NAN</DistanceMeters>
          </Trackpoint>
          <Trackpoint>
            <Time>2020-12-05T10:14:56.000Z</Time>
            <Position>
              <LatitudeDegrees>36.8254632689058780670166015625</LatitudeDegrees>
              <LongitudeDegrees>-4.38319246284663677215576171875</LongitudeDegrees>
            </Position>
            <AltitudeMeters>785.20001220703125</AltitudeMeters>
            <DistanceMeters>NAN</DistanceMeters>
          </Trackpoint>
          <Trackpoint>
            <Time>2020-12-05T10:14:57.000Z</Time>
            <Position>
              <LatitudeDegrees>36.8254783563315868377685546875</LatitudeDegrees>
              <LongitudeDegrees>-4.38319212757050991058349609375</LongitudeDegrees>
            </Position>
            <AltitudeMeters>785</AltitudeMeters>
            <DistanceMeters>NAN</DistanceMeters>
          </Trackpoint>
          <Trackpoint>
            <Time>2020-12-05T10:14:58.000Z</Time>
            <Position>
              <LatitudeDegrees>36.82549604214727878570556640625</LatitudeDegrees>
              <LongitudeDegrees>-4.383193887770175933837890625</LongitudeDegrees>
            </Position>
            <AltitudeMeters>784.79998779296875</AltitudeMeters>
            <DistanceMeters>NAN</DistanceMeters>
          </Trackpoint>
          <Trackpoint>
            <Time>2020-12-05T10:14:59.000Z</Time>
            <Position>
              <LatitudeDegrees>36.82550509460270404815673828125</LatitudeDegrees>
              <LongitudeDegrees>-4.383193552494049072265625</LongitudeDegrees>
            </Position>
            <AltitudeMeters>784.5999755859375</AltitudeMeters>
            <DistanceMeters>NAN</DistanceMeters>
          </Trackpoint>
          <Trackpoint>
            <Time>2020-12-05T10:15:00.000Z</Time>
            <Position>
              <LatitudeDegrees>36.8255165778100490570068359375</LatitudeDegrees>
              <LongitudeDegrees>-4.3831937201321125030517578125</LongitudeDegrees>
            </Position>
            <AltitudeMeters>784.4000244140625</AltitudeMeters>
            <DistanceMeters>NAN</DistanceMeters>
          </Trackpoint>
          <Trackpoint>
            <Time>2020-12-05T10:15:01.000Z</Time>
            <Position>
              <LatitudeDegrees>36.825529150664806365966796875</LatitudeDegrees>
              <LongitudeDegrees>-4.3831948935985565185546875</LongitudeDegrees>
            </Position>
            <AltitudeMeters>784.20001220703125</AltitudeMeters>
            <DistanceMeters>NAN</DistanceMeters>
          </Trackpoint>
          <Trackpoint>
            <Time>2020-12-05T10:15:02.000Z</Time>
            <Position>
              <LatitudeDegrees>36.82554046623408794403076171875</LatitudeDegrees>
              <LongitudeDegrees>-4.3831943906843662261962890625</LongitudeDegrees>
            </Position>
            <AltitudeMeters>784.20001220703125</AltitudeMeters>
            <DistanceMeters>NAN</DistanceMeters>
          </Trackpoint>
          <Trackpoint>
            <Time>2020-12-05T10:15:03.000Z</Time>
            <Position>
              <LatitudeDegrees>36.82555169798433780670166015625</LatitudeDegrees>
              <LongitudeDegrees>-4.38319464214146137237548828125</LongitudeDegrees>
            </Position>
            <AltitudeMeters>784</AltitudeMeters>
            <DistanceMeters>NAN</DistanceMeters>
          </Trackpoint>
          <Trackpoint>
            <Time>2020-12-05T10:15:04.000Z</Time>
            <Position>
              <LatitudeDegrees>36.825563013553619384765625</LatitudeDegrees>
              <LongitudeDegrees>-4.3831975758075714111328125</LongitudeDegrees>
            </Position>
            <AltitudeMeters>783.79998779296875</AltitudeMeters>
            <DistanceMeters>NAN</DistanceMeters>
          </Trackpoint>
          <Trackpoint>
            <Time>2020-12-05T10:15:05.000Z</Time>
            <Position>
              <LatitudeDegrees>36.8255752511322498321533203125</LatitudeDegrees>
              <LongitudeDegrees>-4.38320092856884002685546875</LongitudeDegrees>
            </Position>
            <AltitudeMeters>783.5999755859375</AltitudeMeters>
            <DistanceMeters>NAN</DistanceMeters>
          </Trackpoint>
          <Trackpoint>
            <Time>2020-12-05T10:15:06.000Z</Time>
            <Position>
              <LatitudeDegrees>36.825590841472148895263671875</LatitudeDegrees>
              <LongitudeDegrees>-4.38320185057818889617919921875</LongitudeDegrees>
            </Position>
            <AltitudeMeters>783.5999755859375</AltitudeMeters>
            <DistanceMeters>NAN</DistanceMeters>
          </Trackpoint>
          <Trackpoint>
            <Time>2020-12-05T10:15:07.000Z</Time>
            <Position>
              <LatitudeDegrees>36.825604923069477081298828125</LatitudeDegrees>
              <LongitudeDegrees>-4.38319916836917400360107421875</LongitudeDegrees>
            </Position>
            <AltitudeMeters>783.4000244140625</AltitudeMeters>
            <DistanceMeters>NAN</DistanceMeters>
          </Trackpoint>
          <Trackpoint>
            <Time>2020-12-05T10:15:08.000Z</Time>
            <Position>
              <LatitudeDegrees>36.8256191723048686981201171875</LatitudeDegrees>
              <LongitudeDegrees>-4.3832010962069034576416015625</LongitudeDegrees>
            </Position>
            <AltitudeMeters>783.4000244140625</AltitudeMeters>
            <DistanceMeters>NAN</DistanceMeters>
          </Trackpoint>
          <Trackpoint>
            <Time>2020-12-05T10:15:09.000Z</Time>
            <Position>
              <LatitudeDegrees>36.825633086264133453369140625</LatitudeDegrees>
              <LongitudeDegrees>-4.38320017419755458831787109375</LongitudeDegrees>
            </Position>
            <AltitudeMeters>783</AltitudeMeters>
            <DistanceMeters>NAN</DistanceMeters>
          </Trackpoint>
          <Trackpoint>
            <Time>2020-12-05T10:15:10.000Z</Time>
            <Position>
              <LatitudeDegrees>36.82564775459468364715576171875</LatitudeDegrees>
              <LongitudeDegrees>-4.38319849781692028045654296875</LongitudeDegrees>
            </Position>
            <AltitudeMeters>782.79998779296875</AltitudeMeters>
            <DistanceMeters>NAN</DistanceMeters>
          </Trackpoint>
          <Trackpoint>
            <Time>2020-12-05T10:15:11.000Z</Time>
            <Position>
              <LatitudeDegrees>36.82566233910620212554931640625</LatitudeDegrees>
              <LongitudeDegrees>-4.383198581635951995849609375</LongitudeDegrees>
            </Position>
            <AltitudeMeters>782.79998779296875</AltitudeMeters>
            <DistanceMeters>NAN</DistanceMeters>
          </Trackpoint>
          <Trackpoint>
            <Time>2020-12-05T10:15:12.000Z</Time>
            <Position>
              <LatitudeDegrees>36.825675331056118011474609375</LatitudeDegrees>
              <LongitudeDegrees>-4.383197911083698272705078125</LongitudeDegrees>
            </Position>
            <AltitudeMeters>782.5999755859375</AltitudeMeters>
            <DistanceMeters>NAN</DistanceMeters>
          </Trackpoint>
          <Trackpoint>
            <Time>2020-12-05T10:15:13.000Z</Time>
            <Position>
              <LatitudeDegrees>36.82568681426346302032470703125</LatitudeDegrees>
              <LongitudeDegrees>-4.38319849781692028045654296875</LongitudeDegrees>
            </Position>
            <AltitudeMeters>782.5999755859375</AltitudeMeters>
            <DistanceMeters>NAN</DistanceMeters>
          </Trackpoint>
          <Trackpoint>
            <Time>2020-12-05T10:15:14.000Z</Time>
            <Position>
              <LatitudeDegrees>36.82569620199501514434814453125</LatitudeDegrees>
              <LongitudeDegrees>-4.3831970728933811187744140625</LongitudeDegrees>
            </Position>
            <AltitudeMeters>782.5999755859375</AltitudeMeters>
            <DistanceMeters>NAN</DistanceMeters>
          </Trackpoint>
          <Trackpoint>
            <Time>2020-12-05T10:15:15.000Z</Time>
            <Position>
              <LatitudeDegrees>36.82570240460336208343505859375</LatitudeDegrees>
              <LongitudeDegrees>-4.38319514505565166473388671875</LongitudeDegrees>
            </Position>
            <AltitudeMeters>782.5999755859375</AltitudeMeters>
            <DistanceMeters>NAN</DistanceMeters>
          </Trackpoint>
          <Trackpoint>
            <Time>2020-12-05T10:15:16.000Z</Time>
            <Position>
              <LatitudeDegrees>36.82571112178266048431396484375</LatitudeDegrees>
              <LongitudeDegrees>-4.3831948935985565185546875</LongitudeDegrees>
            </Position>
            <AltitudeMeters>782.79998779296875</AltitudeMeters>
            <DistanceMeters>NAN</DistanceMeters>
          </Trackpoint>
          <Trackpoint>
            <Time>2020-12-05T10:15:17.000Z</Time>
            <Position>
              <LatitudeDegrees>36.825720258057117462158203125</LatitudeDegrees>
              <LongitudeDegrees>-4.38319288194179534912109375</LongitudeDegrees>
            </Position>
            <AltitudeMeters>783</AltitudeMeters>
            <DistanceMeters>NAN</DistanceMeters>
          </Trackpoint>
          <Trackpoint>
            <Time>2020-12-05T10:15:18.000Z</Time>
            <Position>
              <LatitudeDegrees>36.8257321603596210479736328125</LatitudeDegrees>
              <LongitudeDegrees>-4.3831920437514781951904296875</LongitudeDegrees>
            </Position>
            <AltitudeMeters>783.20001220703125</AltitudeMeters>
            <DistanceMeters>NAN</DistanceMeters>
          </Trackpoint>
          <Trackpoint>
            <Time>2020-12-05T10:15:19.000Z</Time>
            <Position>
              <LatitudeDegrees>36.82574280537664890289306640625</LatitudeDegrees>
              <LongitudeDegrees>-4.38319263048470020294189453125</LongitudeDegrees>
            </Position>
            <AltitudeMeters>783.20001220703125</AltitudeMeters>
            <DistanceMeters>NAN</DistanceMeters>
          </Trackpoint>
          <Trackpoint>
            <Time>2020-12-05T10:15:20.000Z</Time>
            <Position>
              <LatitudeDegrees>36.82575277984142303466796875</LatitudeDegrees>
              <LongitudeDegrees>-4.383193887770175933837890625</LongitudeDegrees>
            </Position>
            <AltitudeMeters>783.20001220703125</AltitudeMeters>
            <DistanceMeters>NAN</DistanceMeters>
          </Trackpoint>
          <Trackpoint>
            <Time>2020-12-05T10:15:21.000Z</Time>
            <Position>
              <LatitudeDegrees>36.8257640115916728973388671875</LatitudeDegrees>
              <LongitudeDegrees>-4.383193887770175933837890625</LongitudeDegrees>
            </Position>
            <AltitudeMeters>783.20001220703125</AltitudeMeters>
            <DistanceMeters>NAN</DistanceMeters>
          </Trackpoint>
          <Trackpoint>
            <Time>2020-12-05T10:15:22.000Z</Time>
            <Position>
              <LatitudeDegrees>36.8257764168083667755126953125</LatitudeDegrees>
              <LongitudeDegrees>-4.38319346867501735687255859375</LongitudeDegrees>
            </Position>
            <AltitudeMeters>783.20001220703125</AltitudeMeters>
            <DistanceMeters>NAN</DistanceMeters>
          </Trackpoint>
          <Trackpoint>
            <Time>2020-12-05T10:15:23.000Z</Time>
            <Position>
              <LatitudeDegrees>36.8257881514728069305419921875</LatitudeDegrees>
              <LongitudeDegrees>-4.38319330103695392608642578125</LongitudeDegrees>
            </Position>
            <AltitudeMeters>783.20001220703125</AltitudeMeters>
            <DistanceMeters>NAN</DistanceMeters>
          </Trackpoint>
          <Trackpoint>
            <Time>2020-12-05T10:15:24.000Z</Time>
            <Position>
              <LatitudeDegrees>36.82579913176596164703369140625</LatitudeDegrees>
              <LongitudeDegrees>-4.38319279812276363372802734375</LongitudeDegrees>
            </Position>
            <AltitudeMeters>783.20001220703125</AltitudeMeters>
            <DistanceMeters>NAN</DistanceMeters>
          </Trackpoint>
          <Trackpoint>
            <Time>2020-12-05T10:15:25.000Z</Time>
            <Position>
              <LatitudeDegrees>36.82581053115427494049072265625</LatitudeDegrees>
              <LongitudeDegrees>-4.38319095410406589508056640625</LongitudeDegrees>
            </Position>
            <AltitudeMeters>783.4000244140625</AltitudeMeters>
            <DistanceMeters>NAN</DistanceMeters>
          </Trackpoint>
          <Trackpoint>
            <Time>2020-12-05T10:15:26.000Z</Time>
            <Position>
              <LatitudeDegrees>36.82582193054258823394775390625</LatitudeDegrees>
              <LongitudeDegrees>-4.38318885862827301025390625</LongitudeDegrees>
            </Position>
            <AltitudeMeters>783.4000244140625</AltitudeMeters>
            <DistanceMeters>NAN</DistanceMeters>
          </Trackpoint>
          <Trackpoint>
            <Time>2020-12-05T10:15:27.000Z</Time>
            <Position>
              <LatitudeDegrees>36.8258354254066944122314453125</LatitudeDegrees>
              <LongitudeDegrees>-4.3831839971244335174560546875</LongitudeDegrees>
            </Position>
            <AltitudeMeters>783.4000244140625</AltitudeMeters>
            <DistanceMeters>NAN</DistanceMeters>
          </Trackpoint>
          <Trackpoint>
            <Time>2020-12-05T10:15:28.000Z</Time>
            <Position>
              <LatitudeDegrees>36.825849674642086029052734375</LatitudeDegrees>
              <LongitudeDegrees>-4.383179806172847747802734375</LongitudeDegrees>
            </Position>
            <AltitudeMeters>783.5999755859375</AltitudeMeters>
            <DistanceMeters>NAN</DistanceMeters>
          </Trackpoint>
          <Trackpoint>
            <Time>2020-12-05T10:15:29.000Z</Time>
            <Position>
              <LatitudeDegrees>36.82586350478231906890869140625</LatitudeDegrees>
              <LongitudeDegrees>-4.383177123963832855224609375</LongitudeDegrees>
            </Position>
            <AltitudeMeters>783.5999755859375</AltitudeMeters>
            <DistanceMeters>NAN</DistanceMeters>
          </Trackpoint>
          <Trackpoint>
            <Time>2020-12-05T10:15:30.000Z</Time>
            <Position>
              <LatitudeDegrees>36.825876496732234954833984375</LatitudeDegrees>
              <LongitudeDegrees>-4.38317385502159595489501953125</LongitudeDegrees>
            </Position>
            <AltitudeMeters>783.4000244140625</AltitudeMeters>
            <DistanceMeters>NAN</DistanceMeters>
          </Trackpoint>
          <Trackpoint>
            <Time>2020-12-05T10:15:31.000Z</Time>
            <Position>
              <LatitudeDegrees>36.8258897401392459869384765625</LatitudeDegrees>
              <LongitudeDegrees>-4.383171759545803070068359375</LongitudeDegrees>
            </Position>
            <AltitudeMeters>783.4000244140625</AltitudeMeters>
            <DistanceMeters>NAN</DistanceMeters>
          </Trackpoint>
          <Trackpoint>
            <Time>2020-12-05T10:15:32.000Z</Time>
            <Position>
              <LatitudeDegrees>36.82590298354625701904296875</LatitudeDegrees>
              <LongitudeDegrees>-4.38316874206066131591796875</LongitudeDegrees>
            </Position>
            <AltitudeMeters>783.20001220703125</AltitudeMeters>
            <DistanceMeters>NAN</DistanceMeters>
          </Trackpoint>
          <Trackpoint>
            <Time>2020-12-05T10:15:33.000Z</Time>
            <Position>
              <LatitudeDegrees>36.82591664604842662811279296875</LatitudeDegrees>
              <LongitudeDegrees>-4.38317771069705486297607421875</LongitudeDegrees>
            </Position>
            <AltitudeMeters>783</AltitudeMeters>
            <DistanceMeters>NAN</DistanceMeters>
          </Trackpoint>
          <Trackpoint>
            <Time>2020-12-05T10:15:34.000Z</Time>
            <Position>
              <LatitudeDegrees>36.8259269557893276214599609375</LatitudeDegrees>
              <LongitudeDegrees>-4.383185841143131256103515625</LongitudeDegrees>
            </Position>
            <AltitudeMeters>782.79998779296875</AltitudeMeters>
            <DistanceMeters>NAN</DistanceMeters>
          </Trackpoint>
          <Trackpoint>
            <Time>2020-12-05T10:15:35.000Z</Time>
            <Position>
              <LatitudeDegrees>36.82593517005443572998046875</LatitudeDegrees>
              <LongitudeDegrees>-4.38318911008536815643310546875</LongitudeDegrees>
            </Position>
            <AltitudeMeters>782.5999755859375</AltitudeMeters>
            <DistanceMeters>NAN</DistanceMeters>
          </Trackpoint>
          <Trackpoint>
            <Time>2020-12-05T10:15:36.000Z</Time>
            <Position>
              <LatitudeDegrees>36.825942881405353546142578125</LatitudeDegrees>
              <LongitudeDegrees>-4.3831910379230976104736328125</LongitudeDegrees>
            </Position>
            <AltitudeMeters>782.4000244140625</AltitudeMeters>
            <DistanceMeters>NAN</DistanceMeters>
          </Trackpoint>
          <Trackpoint>
            <Time>2020-12-05T10:15:37.000Z</Time>
            <Position>
              <LatitudeDegrees>36.8259521014988422393798828125</LatitudeDegrees>
              <LongitudeDegrees>-4.3831900320947170257568359375</LongitudeDegrees>
            </Position>
            <AltitudeMeters>782.4000244140625</AltitudeMeters>
            <DistanceMeters>NAN</DistanceMeters>
          </Trackpoint>
          <Trackpoint>
            <Time>2020-12-05T10:15:38.000Z</Time>
            <Position>
              <LatitudeDegrees>36.8259640038013458251953125</LatitudeDegrees>
              <LongitudeDegrees>-4.38318911008536815643310546875</LongitudeDegrees>
            </Position>
            <AltitudeMeters>782.4000244140625</AltitudeMeters>
            <DistanceMeters>NAN</DistanceMeters>
          </Trackpoint>
          <Trackpoint>
            <Time>2020-12-05T10:15:39.000Z</Time>
            <Position>
              <LatitudeDegrees>36.82597716338932514190673828125</LatitudeDegrees>
              <LongitudeDegrees>-4.38318550586700439453125</LongitudeDegrees>
            </Position>
            <AltitudeMeters>782.4000244140625</AltitudeMeters>
            <DistanceMeters>NAN</DistanceMeters>
          </Trackpoint>
          <Trackpoint>
            <Time>2020-12-05T10:15:40.000Z</Time>
            <Position>
              <LatitudeDegrees>36.8259889818727970123291015625</LatitudeDegrees>
              <LongitudeDegrees>-4.3831823207437992095947265625</LongitudeDegrees>
            </Position>
            <AltitudeMeters>782.4000244140625</AltitudeMeters>
            <DistanceMeters>NAN</DistanceMeters>
          </Trackpoint>
          <Trackpoint>
            <Time>2020-12-05T10:15:41.000Z</Time>
            <Position>
              <LatitudeDegrees>36.82600113563239574432373046875</LatitudeDegrees>
              <LongitudeDegrees>-4.38317812979221343994140625</LongitudeDegrees>
            </Position>
            <AltitudeMeters>782.4000244140625</AltitudeMeters>
            <DistanceMeters>NAN</DistanceMeters>
          </Trackpoint>
          <Trackpoint>
            <Time>2020-12-05T10:15:42.000Z</Time>
            <Position>
              <LatitudeDegrees>36.82601253502070903778076171875</LatitudeDegrees>
              <LongitudeDegrees>-4.3831749446690082550048828125</LongitudeDegrees>
            </Position>
            <AltitudeMeters>782.4000244140625</AltitudeMeters>
            <DistanceMeters>NAN</DistanceMeters>
          </Trackpoint>
          <Trackpoint>
            <Time>2020-12-05T10:15:43.000Z</Time>
            <Position>
              <LatitudeDegrees>36.826025359332561492919921875</LatitudeDegrees>
              <LongitudeDegrees>-4.3831722624599933624267578125</LongitudeDegrees>
            </Position>
            <AltitudeMeters>782.4000244140625</AltitudeMeters>
            <DistanceMeters>NAN</DistanceMeters>
          </Trackpoint>
          <Trackpoint>
            <Time>2020-12-05T10:15:44.000Z</Time>
            <Position>
              <LatitudeDegrees>36.8260375969111919403076171875</LatitudeDegrees>
              <LongitudeDegrees>-4.383169077336788177490234375</LongitudeDegrees>
            </Position>
            <AltitudeMeters>782.20001220703125</AltitudeMeters>
            <DistanceMeters>NAN</DistanceMeters>
          </Trackpoint>
          <Trackpoint>
            <Time>2020-12-05T10:15:45.000Z</Time>
            <Position>
              <LatitudeDegrees>36.82604908011853694915771484375</LatitudeDegrees>
              <LongitudeDegrees>-4.383165054023265838623046875</LongitudeDegrees>
            </Position>
            <AltitudeMeters>782</AltitudeMeters>
            <DistanceMeters>NAN</DistanceMeters>
          </Trackpoint>
          <Trackpoint>
            <Time>2020-12-05T10:15:46.000Z</Time>
            <Position>
              <LatitudeDegrees>36.8260603956878185272216796875</LatitudeDegrees>
              <LongitudeDegrees>-4.38316161744296550750732421875</LongitudeDegrees>
            </Position>
            <AltitudeMeters>782</AltitudeMeters>
            <DistanceMeters>NAN</DistanceMeters>
          </Trackpoint>
          <Trackpoint>
            <Time>2020-12-05T10:15:47.000Z</Time>
            <Position>
              <LatitudeDegrees>36.8260721303522586822509765625</LatitudeDegrees>
              <LongitudeDegrees>-4.38316111452877521514892578125</LongitudeDegrees>
            </Position>
            <AltitudeMeters>782</AltitudeMeters>
            <DistanceMeters>NAN</DistanceMeters>
          </Trackpoint>
          <Trackpoint>
            <Time>2020-12-05T10:15:48.000Z</Time>
            <Position>
              <LatitudeDegrees>36.82608311064541339874267578125</LatitudeDegrees>
              <LongitudeDegrees>-4.3831632100045680999755859375</LongitudeDegrees>
            </Position>
            <AltitudeMeters>782</AltitudeMeters>
            <DistanceMeters>NAN</DistanceMeters>
          </Trackpoint>
          <Trackpoint>
            <Time>2020-12-05T10:15:49.000Z</Time>
            <Position>
              <LatitudeDegrees>36.82609769515693187713623046875</LatitudeDegrees>
              <LongitudeDegrees>-4.38316161744296550750732421875</LongitudeDegrees>
            </Position>
            <AltitudeMeters>782</AltitudeMeters>
            <DistanceMeters>NAN</DistanceMeters>
          </Trackpoint>
          <Trackpoint>
            <Time>2020-12-05T10:15:50.000Z</Time>
            <Position>
              <LatitudeDegrees>36.82611177675426006317138671875</LatitudeDegrees>
              <LongitudeDegrees>-4.38316094689071178436279296875</LongitudeDegrees>
            </Position>
            <AltitudeMeters>781.79998779296875</AltitudeMeters>
            <DistanceMeters>NAN</DistanceMeters>
          </Trackpoint>
          <Trackpoint>
            <Time>2020-12-05T10:15:51.000Z</Time>
            <Position>
              <LatitudeDegrees>36.82612787000834941864013671875</LatitudeDegrees>
              <LongitudeDegrees>-4.38315709121525287628173828125</LongitudeDegrees>
            </Position>
            <AltitudeMeters>781.79998779296875</AltitudeMeters>
            <DistanceMeters>NAN</DistanceMeters>
          </Trackpoint>
          <Trackpoint>
            <Time>2020-12-05T10:15:52.000Z</Time>
            <Position>
              <LatitudeDegrees>36.82614128105342388153076171875</LatitudeDegrees>
              <LongitudeDegrees>-4.38315306790173053741455078125</LongitudeDegrees>
            </Position>
            <AltitudeMeters>781.79998779296875</AltitudeMeters>
            <DistanceMeters>NAN</DistanceMeters>
          </Trackpoint>
          <Trackpoint>
            <Time>2020-12-05T10:15:53.000Z</Time>
            <Position>
              <LatitudeDegrees>36.826161481440067291259765625</LatitudeDegrees>
              <LongitudeDegrees>-4.38314887695014476776123046875</LongitudeDegrees>
            </Position>
            <AltitudeMeters>781.5999755859375</AltitudeMeters>
            <DistanceMeters>NAN</DistanceMeters>
          </Trackpoint>
          <Trackpoint>
            <Time>2020-12-05T10:15:54.000Z</Time>
            <Position>
              <LatitudeDegrees>36.826188303530216217041015625</LatitudeDegrees>
              <LongitudeDegrees>-4.38314728438854217529296875</LongitudeDegrees>
            </Position>
            <AltitudeMeters>781.5999755859375</AltitudeMeters>
            <DistanceMeters>NAN</DistanceMeters>
          </Trackpoint>
          <Trackpoint>
            <Time>2020-12-05T10:15:55.000Z</Time>
            <Position>
              <LatitudeDegrees>36.82620179839432239532470703125</LatitudeDegrees>
              <LongitudeDegrees>-4.3831444345414638519287109375</LongitudeDegrees>
            </Position>
            <AltitudeMeters>781.5999755859375</AltitudeMeters>
            <DistanceMeters>NAN</DistanceMeters>
          </Trackpoint>
          <Trackpoint>
            <Time>2020-12-05T10:15:56.000Z</Time>
            <Position>
              <LatitudeDegrees>36.82621621526777744293212890625</LatitudeDegrees>
              <LongitudeDegrees>-4.38313923776149749755859375</LongitudeDegrees>
            </Position>
            <AltitudeMeters>781.5999755859375</AltitudeMeters>
            <DistanceMeters>NAN</DistanceMeters>
          </Trackpoint>
          <Trackpoint>
            <Time>2020-12-05T10:15:57.000Z</Time>
            <Position>
              <LatitudeDegrees>36.82622845284640789031982421875</LatitudeDegrees>
              <LongitudeDegrees>-4.38313714228570461273193359375</LongitudeDegrees>
            </Position>
            <AltitudeMeters>781.5999755859375</AltitudeMeters>
            <DistanceMeters>NAN</DistanceMeters>
          </Trackpoint>
          <Trackpoint>
            <Time>2020-12-05T10:15:58.000Z</Time>
            <Position>
              <LatitudeDegrees>36.8262377567589282989501953125</LatitudeDegrees>
              <LongitudeDegrees>-4.3831337057054042816162109375</LongitudeDegrees>
            </Position>
            <AltitudeMeters>781.5999755859375</AltitudeMeters>
            <DistanceMeters>NAN</DistanceMeters>
          </Trackpoint>
          <Trackpoint>
            <Time>2020-12-05T10:15:59.000Z</Time>
            <Position>
              <LatitudeDegrees>36.82624588720500469207763671875</LatitudeDegrees>
              <LongitudeDegrees>-4.38313127495348453521728515625</LongitudeDegrees>
            </Position>
            <AltitudeMeters>781.79998779296875</AltitudeMeters>
            <DistanceMeters>NAN</DistanceMeters>
          </Trackpoint>
          <Trackpoint>
            <Time>2020-12-05T10:16:00.000Z</Time>
            <Position>
              <LatitudeDegrees>36.82625393383204936981201171875</LatitudeDegrees>
              <LongitudeDegrees>-4.38312725163996219635009765625</LongitudeDegrees>
            </Position>
            <AltitudeMeters>782</AltitudeMeters>
            <DistanceMeters>NAN</DistanceMeters>
          </Trackpoint>
          <Trackpoint>
            <Time>2020-12-05T10:16:01.000Z</Time>
            <Position>
              <LatitudeDegrees>36.8262635730206966400146484375</LatitudeDegrees>
              <LongitudeDegrees>-4.38312222249805927276611328125</LongitudeDegrees>
            </Position>
            <AltitudeMeters>782.20001220703125</AltitudeMeters>
            <DistanceMeters>NAN</DistanceMeters>
          </Trackpoint>
          <Trackpoint>
            <Time>2020-12-05T10:16:02.000Z</Time>
            <Position>
              <LatitudeDegrees>36.8262724578380584716796875</LatitudeDegrees>
              <LongitudeDegrees>-4.383118785917758941650390625</LongitudeDegrees>
            </Position>
            <AltitudeMeters>782.20001220703125</AltitudeMeters>
            <DistanceMeters>NAN</DistanceMeters>
          </Trackpoint>
          <Trackpoint>
            <Time>2020-12-05T10:16:03.000Z</Time>
            <Position>
              <LatitudeDegrees>36.826281845569610595703125</LatitudeDegrees>
              <LongitudeDegrees>-4.38311752863228321075439453125</LongitudeDegrees>
            </Position>
            <AltitudeMeters>782.20001220703125</AltitudeMeters>
            <DistanceMeters>NAN</DistanceMeters>
          </Trackpoint>
          <Trackpoint>
            <Time>2020-12-05T10:16:04.000Z</Time>
            <Position>
              <LatitudeDegrees>36.826289556920528411865234375</LatitudeDegrees>
              <LongitudeDegrees>-4.383118115365505218505859375</LongitudeDegrees>
            </Position>
            <AltitudeMeters>782.20001220703125</AltitudeMeters>
            <DistanceMeters>NAN</DistanceMeters>
          </Trackpoint>
          <Trackpoint>
            <Time>2020-12-05T10:16:05.000Z</Time>
            <Position>
              <LatitudeDegrees>36.826296932995319366455078125</LatitudeDegrees>
              <LongitudeDegrees>-4.3831196241080760955810546875</LongitudeDegrees>
            </Position>
            <AltitudeMeters>782.20001220703125</AltitudeMeters>
            <DistanceMeters>NAN</DistanceMeters>
          </Trackpoint>
          <Trackpoint>
            <Time>2020-12-05T10:16:06.000Z</Time>
            <Position>
              <LatitudeDegrees>36.826303638517856597900390625</LatitudeDegrees>
              <LongitudeDegrees>-4.38311987556517124176025390625</LongitudeDegrees>
            </Position>
            <AltitudeMeters>782.20001220703125</AltitudeMeters>
            <DistanceMeters>NAN</DistanceMeters>
          </Trackpoint>
          <Trackpoint>
            <Time>2020-12-05T10:16:07.000Z</Time>
            <Position>
              <LatitudeDegrees>36.826314032077789306640625</LatitudeDegrees>
              <LongitudeDegrees>-4.38312088139355182647705078125</LongitudeDegrees>
            </Position>
            <AltitudeMeters>782.20001220703125</AltitudeMeters>
            <DistanceMeters>NAN</DistanceMeters>
          </Trackpoint>
          <Trackpoint>
            <Time>2020-12-05T10:16:08.000Z</Time>
            <Position>
              <LatitudeDegrees>36.8263252638280391693115234375</LatitudeDegrees>
              <LongitudeDegrees>-4.38312314450740814208984375</LongitudeDegrees>
            </Position>
            <AltitudeMeters>782</AltitudeMeters>
            <DistanceMeters>NAN</DistanceMeters>
          </Trackpoint>
          <Trackpoint>
            <Time>2020-12-05T10:16:09.000Z</Time>
            <Position>
              <LatitudeDegrees>36.82633758522570133209228515625</LatitudeDegrees>
              <LongitudeDegrees>-4.3831251561641693115234375</LongitudeDegrees>
            </Position>
            <AltitudeMeters>782</AltitudeMeters>
            <DistanceMeters>NAN</DistanceMeters>
          </Trackpoint>
          <Trackpoint>
            <Time>2020-12-05T10:16:10.000Z</Time>
            <Position>
              <LatitudeDegrees>36.82634898461401462554931640625</LatitudeDegrees>
              <LongitudeDegrees>-4.38312708400189876556396484375</LongitudeDegrees>
            </Position>
            <AltitudeMeters>782.20001220703125</AltitudeMeters>
            <DistanceMeters>NAN</DistanceMeters>
          </Trackpoint>
          <Trackpoint>
            <Time>2020-12-05T10:16:11.000Z</Time>
            <Position>
              <LatitudeDegrees>36.826361306011676788330078125</LatitudeDegrees>
              <LongitudeDegrees>-4.38312808983027935028076171875</LongitudeDegrees>
            </Position>
            <AltitudeMeters>782.20001220703125</AltitudeMeters>
            <DistanceMeters>NAN</DistanceMeters>
          </Trackpoint>
          <Trackpoint>
            <Time>2020-12-05T10:16:12.000Z</Time>
            <Position>
              <LatitudeDegrees>36.8263770639896392822265625</LatitudeDegrees>
              <LongitudeDegrees>-4.38312741927802562713623046875</LongitudeDegrees>
            </Position>
            <AltitudeMeters>782.20001220703125</AltitudeMeters>
            <DistanceMeters>NAN</DistanceMeters>
          </Trackpoint>
          <Trackpoint>
            <Time>2020-12-05T10:16:13.000Z</Time>
            <Position>
              <LatitudeDegrees>36.82639374397695064544677734375</LatitudeDegrees>
              <LongitudeDegrees>-4.38312582671642303466796875</LongitudeDegrees>
            </Position>
            <AltitudeMeters>782.20001220703125</AltitudeMeters>
            <DistanceMeters>NAN</DistanceMeters>
          </Trackpoint>
          <Trackpoint>
            <Time>2020-12-05T10:16:14.000Z</Time>
            <Position>
              <LatitudeDegrees>36.82640614919364452362060546875</LatitudeDegrees>
              <LongitudeDegrees>-4.38312523998320102691650390625</LongitudeDegrees>
            </Position>
            <AltitudeMeters>782.4000244140625</AltitudeMeters>
            <DistanceMeters>NAN</DistanceMeters>
          </Trackpoint>
          <Trackpoint>
            <Time>2020-12-05T10:16:15.000Z</Time>
            <Position>
              <LatitudeDegrees>36.82641402818262577056884765625</LatitudeDegrees>
              <LongitudeDegrees>-4.38312708400189876556396484375</LongitudeDegrees>
            </Position>
            <AltitudeMeters>782.4000244140625</AltitudeMeters>
            <DistanceMeters>NAN</DistanceMeters>
          </Trackpoint>
          <Trackpoint>
            <Time>2020-12-05T10:16:16.000Z</Time>
            <Position>
              <LatitudeDegrees>36.826420985162258148193359375</LatitudeDegrees>
              <LongitudeDegrees>-4.38313211314380168914794921875</LongitudeDegrees>
            </Position>
            <AltitudeMeters>782.4000244140625</AltitudeMeters>
            <DistanceMeters>NAN</DistanceMeters>
          </Trackpoint>
          <Trackpoint>
            <Time>2020-12-05T10:16:17.000Z</Time>
            <Position>
              <LatitudeDegrees>36.826430372893810272216796875</LatitudeDegrees>
              <LongitudeDegrees>-4.3831363879144191741943359375</LongitudeDegrees>
            </Position>
            <AltitudeMeters>782.4000244140625</AltitudeMeters>
            <DistanceMeters>NAN</DistanceMeters>
          </Trackpoint>
          <Trackpoint>
            <Time>2020-12-05T10:16:18.000Z</Time>
            <Position>
              <LatitudeDegrees>36.82644587941467761993408203125</LatitudeDegrees>
              <LongitudeDegrees>-4.38313747756183147430419921875</LongitudeDegrees>
            </Position>
            <AltitudeMeters>782.20001220703125</AltitudeMeters>
            <DistanceMeters>NAN</DistanceMeters>
          </Trackpoint>
          <Trackpoint>
            <Time>2020-12-05T10:16:19.000Z</Time>
            <Position>
              <LatitudeDegrees>36.826463900506496429443359375</LatitudeDegrees>
              <LongitudeDegrees>-4.3831380642950534820556640625</LongitudeDegrees>
            </Position>
            <AltitudeMeters>782.20001220703125</AltitudeMeters>
            <DistanceMeters>NAN</DistanceMeters>
          </Trackpoint>
          <Trackpoint>
            <Time>2020-12-05T10:16:20.000Z</Time>
            <Position>
              <LatitudeDegrees>36.82648242451250553131103515625</LatitudeDegrees>
              <LongitudeDegrees>-4.383131526410579681396484375</LongitudeDegrees>
            </Position>
            <AltitudeMeters>782.4000244140625</AltitudeMeters>
            <DistanceMeters>NAN</DistanceMeters>
          </Trackpoint>
          <Trackpoint>
            <Time>2020-12-05T10:16:21.000Z</Time>
            <Position>
              <LatitudeDegrees>36.82649583555757999420166015625</LatitudeDegrees>
              <LongitudeDegrees>-4.3831243179738521575927734375</LongitudeDegrees>
            </Position>
            <AltitudeMeters>782.20001220703125</AltitudeMeters>
            <DistanceMeters>NAN</DistanceMeters>
          </Trackpoint>
          <Trackpoint>
            <Time>2020-12-05T10:16:22.000Z</Time>
            <Position>
              <LatitudeDegrees>36.8265096656978130340576171875</LatitudeDegrees>
              <LongitudeDegrees>-4.3831152655184268951416015625</LongitudeDegrees>
            </Position>
            <AltitudeMeters>782.20001220703125</AltitudeMeters>
            <DistanceMeters>NAN</DistanceMeters>
          </Trackpoint>
          <Trackpoint>
            <Time>2020-12-05T10:16:23.000Z</Time>
            <Position>
              <LatitudeDegrees>36.82652332819998264312744140625</LatitudeDegrees>
              <LongitudeDegrees>-4.38310763798654079437255859375</LongitudeDegrees>
            </Position>
            <AltitudeMeters>782.20001220703125</AltitudeMeters>
            <DistanceMeters>NAN</DistanceMeters>
          </Trackpoint>
          <Trackpoint>
            <Time>2020-12-05T10:16:24.000Z</Time>
            <Position>
              <LatitudeDegrees>36.826536320149898529052734375</LatitudeDegrees>
              <LongitudeDegrees>-4.38309808261692523956298828125</LongitudeDegrees>
            </Position>
            <AltitudeMeters>782.20001220703125</AltitudeMeters>
            <DistanceMeters>NAN</DistanceMeters>
          </Trackpoint>
          <Trackpoint>
            <Time>2020-12-05T10:16:25.000Z</Time>
            <Position>
              <LatitudeDegrees>36.82654939591884613037109375</LatitudeDegrees>
              <LongitudeDegrees>-4.38309070654213428497314453125</LongitudeDegrees>
            </Position>
            <AltitudeMeters>782.20001220703125</AltitudeMeters>
            <DistanceMeters>NAN</DistanceMeters>
          </Trackpoint>
          <Trackpoint>
            <Time>2020-12-05T10:16:26.000Z</Time>
            <Position>
              <LatitudeDegrees>36.826561130583286285400390625</LatitudeDegrees>
              <LongitudeDegrees>-4.383083917200565338134765625</LongitudeDegrees>
            </Position>
            <AltitudeMeters>782</AltitudeMeters>
            <DistanceMeters>NAN</DistanceMeters>
          </Trackpoint>
          <Trackpoint>
            <Time>2020-12-05T10:16:27.000Z</Time>
            <Position>
              <LatitudeDegrees>36.8265730328857898712158203125</LatitudeDegrees>
              <LongitudeDegrees>-4.38307494856417179107666015625</LongitudeDegrees>
            </Position>
            <AltitudeMeters>781.79998779296875</AltitudeMeters>
            <DistanceMeters>NAN</DistanceMeters>
          </Trackpoint>
          <Trackpoint>
            <Time>2020-12-05T10:16:28.000Z</Time>
            <Position>
              <LatitudeDegrees>36.82658149860799312591552734375</LatitudeDegrees>
              <LongitudeDegrees>-4.38306975178420543670654296875</LongitudeDegrees>
            </Position>
            <AltitudeMeters>781.5999755859375</AltitudeMeters>
            <DistanceMeters>NAN</DistanceMeters>
          </Trackpoint>
          <Trackpoint>
            <Time>2020-12-05T10:16:29.000Z</Time>
            <Position>
              <LatitudeDegrees>36.82659323327243328094482421875</LatitudeDegrees>
              <LongitudeDegrees>-4.38306170515716075897216796875</LongitudeDegrees>
            </Position>
            <AltitudeMeters>781.5999755859375</AltitudeMeters>
            <DistanceMeters>NAN</DistanceMeters>
          </Trackpoint>
          <Trackpoint>
            <Time>2020-12-05T10:16:30.000Z</Time>
            <Position>
              <LatitudeDegrees>36.82660438120365142822265625</LatitudeDegrees>
              <LongitudeDegrees>-4.3830589391291141510009765625</LongitudeDegrees>
            </Position>
            <AltitudeMeters>781.5999755859375</AltitudeMeters>
            <DistanceMeters>NAN</DistanceMeters>
          </Trackpoint>
          <Trackpoint>
            <Time>2020-12-05T10:16:31.000Z</Time>
            <Position>
              <LatitudeDegrees>36.82661712169647216796875</LatitudeDegrees>
              <LongitudeDegrees>-4.38305701129138469696044921875</LongitudeDegrees>
            </Position>
            <AltitudeMeters>781.5999755859375</AltitudeMeters>
            <DistanceMeters>NAN</DistanceMeters>
          </Trackpoint>
          <Trackpoint>
            <Time>2020-12-05T10:16:32.000Z</Time>
            <Position>
              <LatitudeDegrees>36.82662709616124629974365234375</LatitudeDegrees>
              <LongitudeDegrees>-4.383059106767177581787109375</LongitudeDegrees>
            </Position>
            <AltitudeMeters>781.5999755859375</AltitudeMeters>
            <DistanceMeters>NAN</DistanceMeters>
          </Trackpoint>
          <Trackpoint>
            <Time>2020-12-05T10:16:33.000Z</Time>
            <Position>
              <LatitudeDegrees>36.8266399204730987548828125</LatitudeDegrees>
              <LongitudeDegrees>-4.3830696679651737213134765625</LongitudeDegrees>
            </Position>
            <AltitudeMeters>781.5999755859375</AltitudeMeters>
            <DistanceMeters>NAN</DistanceMeters>
          </Trackpoint>
          <Trackpoint>
            <Time>2020-12-05T10:16:34.000Z</Time>
            <Position>
              <LatitudeDegrees>36.8266541697084903717041015625</LatitudeDegrees>
              <LongitudeDegrees>-4.38307763077318668365478515625</LongitudeDegrees>
            </Position>
            <AltitudeMeters>781.5999755859375</AltitudeMeters>
            <DistanceMeters>NAN</DistanceMeters>
          </Trackpoint>
          <Trackpoint>
            <Time>2020-12-05T10:16:35.000Z</Time>
            <Position>
              <LatitudeDegrees>36.826665066182613372802734375</LatitudeDegrees>
              <LongitudeDegrees>-4.38308400101959705352783203125</LongitudeDegrees>
            </Position>
            <AltitudeMeters>781.5999755859375</AltitudeMeters>
            <DistanceMeters>NAN</DistanceMeters>
          </Trackpoint>
          <Trackpoint>
            <Time>2020-12-05T10:16:36.000Z</Time>
            <Position>
              <LatitudeDegrees>36.82667554356157779693603515625</LatitudeDegrees>
              <LongitudeDegrees>-4.38308986835181713104248046875</LongitudeDegrees>
            </Position>
            <AltitudeMeters>781.5999755859375</AltitudeMeters>
            <DistanceMeters>NAN</DistanceMeters>
          </Trackpoint>
          <Trackpoint>
            <Time>2020-12-05T10:16:37.000Z</Time>
            <Position>
              <LatitudeDegrees>36.82668350636959075927734375</LatitudeDegrees>
              <LongitudeDegrees>-4.383097998797893524169921875</LongitudeDegrees>
            </Position>
            <AltitudeMeters>781.5999755859375</AltitudeMeters>
            <DistanceMeters>NAN</DistanceMeters>
          </Trackpoint>
          <Trackpoint>
            <Time>2020-12-05T10:16:38.000Z</Time>
            <Position>
              <LatitudeDegrees>36.82669498957693576812744140625</LatitudeDegrees>
              <LongitudeDegrees>-4.38310244120657444000244140625</LongitudeDegrees>
            </Position>
            <AltitudeMeters>781.5999755859375</AltitudeMeters>
            <DistanceMeters>NAN</DistanceMeters>
          </Trackpoint>
          <Trackpoint>
            <Time>2020-12-05T10:16:39.000Z</Time>
            <Position>
              <LatitudeDegrees>36.8267034552991390228271484375</LatitudeDegrees>
              <LongitudeDegrees>-4.3831072188913822174072265625</LongitudeDegrees>
            </Position>
            <AltitudeMeters>781.5999755859375</AltitudeMeters>
            <DistanceMeters>NAN</DistanceMeters>
          </Trackpoint>
          <Trackpoint>
            <Time>2020-12-05T10:16:40.000Z</Time>
            <Position>
              <LatitudeDegrees>36.8267138488590717315673828125</LatitudeDegrees>
              <LongitudeDegrees>-4.3831109069287776947021484375</LongitudeDegrees>
            </Position>
            <AltitudeMeters>781.4000244140625</AltitudeMeters>
            <DistanceMeters>NAN</DistanceMeters>
          </Trackpoint>
          <Trackpoint>
            <Time>2020-12-05T10:16:41.000Z</Time>
            <Position>
              <LatitudeDegrees>36.82672264985740184783935546875</LatitudeDegrees>
              <LongitudeDegrees>-4.38311451114714145660400390625</LongitudeDegrees>
            </Position>
            <AltitudeMeters>781.4000244140625</AltitudeMeters>
            <DistanceMeters>NAN</DistanceMeters>
          </Trackpoint>
          <Trackpoint>
            <Time>2020-12-05T10:16:42.000Z</Time>
            <Position>
              <LatitudeDegrees>36.82673170231282711029052734375</LatitudeDegrees>
              <LongitudeDegrees>-4.383118450641632080078125</LongitudeDegrees>
            </Position>
            <AltitudeMeters>781.20001220703125</AltitudeMeters>
            <DistanceMeters>NAN</DistanceMeters>
          </Trackpoint>
          <Trackpoint>
            <Time>2020-12-05T10:16:43.000Z</Time>
            <Position>
              <LatitudeDegrees>36.82674092240631580352783203125</LatitudeDegrees>
              <LongitudeDegrees>-4.38312113285064697265625</LongitudeDegrees>
            </Position>
            <AltitudeMeters>781.20001220703125</AltitudeMeters>
            <DistanceMeters>NAN</DistanceMeters>
          </Trackpoint>
          <Trackpoint>
            <Time>2020-12-05T10:16:44.000Z</Time>
            <Position>
              <LatitudeDegrees>36.82675148360431194305419921875</LatitudeDegrees>
              <LongitudeDegrees>-4.38312406651675701141357421875</LongitudeDegrees>
            </Position>
            <AltitudeMeters>781.4000244140625</AltitudeMeters>
            <DistanceMeters>NAN</DistanceMeters>
          </Trackpoint>
          <Trackpoint>
            <Time>2020-12-05T10:16:45.000Z</Time>
            <Position>
              <LatitudeDegrees>36.8267644755542278289794921875</LatitudeDegrees>
              <LongitudeDegrees>-4.38312859274446964263916015625</LongitudeDegrees>
            </Position>
            <AltitudeMeters>781.20001220703125</AltitudeMeters>
            <DistanceMeters>NAN</DistanceMeters>
          </Trackpoint>
          <Trackpoint>
            <Time>2020-12-05T10:16:46.000Z</Time>
            <Position>
              <LatitudeDegrees>36.82677629403769969940185546875</LatitudeDegrees>
              <LongitudeDegrees>-4.383133538067340850830078125</LongitudeDegrees>
            </Position>
            <AltitudeMeters>781.20001220703125</AltitudeMeters>
            <DistanceMeters>NAN</DistanceMeters>
          </Trackpoint>
          <Trackpoint>
            <Time>2020-12-05T10:16:47.000Z</Time>
            <Position>
              <LatitudeDegrees>36.826789118349552154541015625</LatitudeDegrees>
              <LongitudeDegrees>-4.38313630409538745880126953125</LongitudeDegrees>
            </Position>
            <AltitudeMeters>781.20001220703125</AltitudeMeters>
            <DistanceMeters>NAN</DistanceMeters>
          </Trackpoint>
          <Trackpoint>
            <Time>2020-12-05T10:16:48.000Z</Time>
            <Position>
              <LatitudeDegrees>36.8268053792417049407958984375</LatitudeDegrees>
              <LongitudeDegrees>-4.38314066268503665924072265625</LongitudeDegrees>
            </Position>
            <AltitudeMeters>781</AltitudeMeters>
            <DistanceMeters>NAN</DistanceMeters>
          </Trackpoint>
          <Trackpoint>
            <Time>2020-12-05T10:16:49.000Z</Time>
            <Position>
              <LatitudeDegrees>36.82681803591549396514892578125</LatitudeDegrees>
              <LongitudeDegrees>-4.383142925798892974853515625</LongitudeDegrees>
            </Position>
            <AltitudeMeters>780.79998779296875</AltitudeMeters>
            <DistanceMeters>NAN</DistanceMeters>
          </Trackpoint>
          <Trackpoint>
            <Time>2020-12-05T10:16:50.000Z</Time>
            <Position>
              <LatitudeDegrees>36.82683094404637813568115234375</LatitudeDegrees>
              <LongitudeDegrees>-4.3831467814743518829345703125</LongitudeDegrees>
            </Position>
            <AltitudeMeters>780.5999755859375</AltitudeMeters>
            <DistanceMeters>NAN</DistanceMeters>
          </Trackpoint>
          <Trackpoint>
            <Time>2020-12-05T10:16:51.000Z</Time>
            <Position>
              <LatitudeDegrees>36.82683262042701244354248046875</LatitudeDegrees>
              <LongitudeDegrees>-4.38315709121525287628173828125</LongitudeDegrees>
            </Position>
            <AltitudeMeters>780.5999755859375</AltitudeMeters>
            <DistanceMeters>NAN</DistanceMeters>
          </Trackpoint>
          <Trackpoint>
            <Time>2020-12-05T10:16:52.000Z</Time>
            <Position>
              <LatitudeDegrees>36.82684301398694515228271484375</LatitudeDegrees>
              <LongitudeDegrees>-4.38316564075648784637451171875</LongitudeDegrees>
            </Position>
            <AltitudeMeters>780.5999755859375</AltitudeMeters>
            <DistanceMeters>NAN</DistanceMeters>
          </Trackpoint>
          <Trackpoint>
            <Time>2020-12-05T10:16:53.000Z</Time>
            <Position>
              <LatitudeDegrees>36.82685156352818012237548828125</LatitudeDegrees>
              <LongitudeDegrees>-4.383175112307071685791015625</LongitudeDegrees>
            </Position>
            <AltitudeMeters>780.5999755859375</AltitudeMeters>
            <DistanceMeters>NAN</DistanceMeters>
          </Trackpoint>
          <Trackpoint>
            <Time>2020-12-05T10:16:54.000Z</Time>
            <Position>
              <LatitudeDegrees>36.8268623761832714080810546875</LatitudeDegrees>
              <LongitudeDegrees>-4.38317335210740566253662109375</LongitudeDegrees>
            </Position>
            <AltitudeMeters>780.5999755859375</AltitudeMeters>
            <DistanceMeters>NAN</DistanceMeters>
          </Trackpoint>
          <Trackpoint>
            <Time>2020-12-05T10:16:55.000Z</Time>
            <Position>
              <LatitudeDegrees>36.82686832733452320098876953125</LatitudeDegrees>
              <LongitudeDegrees>-4.3831796385347843170166015625</LongitudeDegrees>
            </Position>
            <AltitudeMeters>780.5999755859375</AltitudeMeters>
            <DistanceMeters>NAN</DistanceMeters>
          </Trackpoint>
          <Trackpoint>
            <Time>2020-12-05T10:16:56.000Z</Time>
            <Position>
              <LatitudeDegrees>36.8268891982734203338623046875</LatitudeDegrees>
              <LongitudeDegrees>-4.38317268155515193939208984375</LongitudeDegrees>
            </Position>
            <AltitudeMeters>780.5999755859375</AltitudeMeters>
            <DistanceMeters>NAN</DistanceMeters>
          </Trackpoint>
          <Trackpoint>
            <Time>2020-12-05T10:16:57.000Z</Time>
            <Position>
              <LatitudeDegrees>36.82690386660397052764892578125</LatitudeDegrees>
              <LongitudeDegrees>-4.3831803090870380401611328125</LongitudeDegrees>
            </Position>
            <AltitudeMeters>780.5999755859375</AltitudeMeters>
            <DistanceMeters>NAN</DistanceMeters>
          </Trackpoint>
          <Trackpoint>
            <Time>2020-12-05T10:16:58.000Z</Time>
            <Position>
              <LatitudeDegrees>36.82692498899996280670166015625</LatitudeDegrees>
              <LongitudeDegrees>-4.3831813149154186248779296875</LongitudeDegrees>
            </Position>
            <AltitudeMeters>780.5999755859375</AltitudeMeters>
            <DistanceMeters>NAN</DistanceMeters>
          </Trackpoint>
          <Trackpoint>
            <Time>2020-12-05T10:16:59.000Z</Time>
            <Position>
              <LatitudeDegrees>36.8269448541104793548583984375</LatitudeDegrees>
              <LongitudeDegrees>-4.3831853382289409637451171875</LongitudeDegrees>
            </Position>
            <AltitudeMeters>780.5999755859375</AltitudeMeters>
            <DistanceMeters>NAN</DistanceMeters>
          </Trackpoint>
          <Trackpoint>
            <Time>2020-12-05T10:17:00.000Z</Time>
            <Position>
              <LatitudeDegrees>36.8269606120884418487548828125</LatitudeDegrees>
              <LongitudeDegrees>-4.38318542204797267913818359375</LongitudeDegrees>
            </Position>
            <AltitudeMeters>780.4000244140625</AltitudeMeters>
            <DistanceMeters>NAN</DistanceMeters>
          </Trackpoint>
          <Trackpoint>
            <Time>2020-12-05T10:17:01.000Z</Time>
            <Position>
              <LatitudeDegrees>36.82697184383869171142578125</LatitudeDegrees>
              <LongitudeDegrees>-4.38319816254079341888427734375</LongitudeDegrees>
            </Position>
            <AltitudeMeters>780.4000244140625</AltitudeMeters>
            <DistanceMeters>NAN</DistanceMeters>
          </Trackpoint>
          <Trackpoint>
            <Time>2020-12-05T10:17:02.000Z</Time>
            <Position>
              <LatitudeDegrees>36.826987601816654205322265625</LatitudeDegrees>
              <LongitudeDegrees>-4.3832024373114109039306640625</LongitudeDegrees>
            </Position>
            <AltitudeMeters>780.4000244140625</AltitudeMeters>
            <DistanceMeters>NAN</DistanceMeters>
          </Trackpoint>
          <Trackpoint>
            <Time>2020-12-05T10:17:03.000Z</Time>
            <Position>
              <LatitudeDegrees>36.82701920159161090850830078125</LatitudeDegrees>
              <LongitudeDegrees>-4.38317754305899143218994140625</LongitudeDegrees>
            </Position>
            <AltitudeMeters>780.20001220703125</AltitudeMeters>
            <DistanceMeters>NAN</DistanceMeters>
          </Trackpoint>
          <Trackpoint>
            <Time>2020-12-05T10:17:04.000Z</Time>
            <Position>
              <LatitudeDegrees>36.8270303495228290557861328125</LatitudeDegrees>
              <LongitudeDegrees>-4.38315943814814090728759765625</LongitudeDegrees>
            </Position>
            <AltitudeMeters>779.79998779296875</AltitudeMeters>
            <DistanceMeters>NAN</DistanceMeters>
          </Trackpoint>
          <Trackpoint>
            <Time>2020-12-05T10:17:05.000Z</Time>
            <Position>
              <LatitudeDegrees>36.82702523656189441680908203125</LatitudeDegrees>
              <LongitudeDegrees>-4.38315290026366710662841796875</LongitudeDegrees>
            </Position>
            <AltitudeMeters>779.4000244140625</AltitudeMeters>
            <DistanceMeters>NAN</DistanceMeters>
          </Trackpoint>
          <Trackpoint>
            <Time>2020-12-05T10:17:06.000Z</Time>
            <Position>
              <LatitudeDegrees>36.8270373903214931488037109375</LatitudeDegrees>
              <LongitudeDegrees>-4.3831534869968891143798828125</LongitudeDegrees>
            </Position>
            <AltitudeMeters>779</AltitudeMeters>
            <DistanceMeters>NAN</DistanceMeters>
          </Trackpoint>
          <Trackpoint>
            <Time>2020-12-05T10:17:07.000Z</Time>
            <Position>
              <LatitudeDegrees>36.827047280967235565185546875</LatitudeDegrees>
              <LongitudeDegrees>-4.38315357081592082977294921875</LongitudeDegrees>
            </Position>
            <AltitudeMeters>778.79998779296875</AltitudeMeters>
            <DistanceMeters>NAN</DistanceMeters>
          </Trackpoint>
          <Trackpoint>
            <Time>2020-12-05T10:17:08.000Z</Time>
            <Position>
              <LatitudeDegrees>36.8270556628704071044921875</LatitudeDegrees>
              <LongitudeDegrees>-4.38315801322460174560546875</LongitudeDegrees>
            </Position>
            <AltitudeMeters>778.79998779296875</AltitudeMeters>
            <DistanceMeters>NAN</DistanceMeters>
          </Trackpoint>
          <Trackpoint>
            <Time>2020-12-05T10:17:09.000Z</Time>
            <Position>
              <LatitudeDegrees>36.8270642124116420745849609375</LatitudeDegrees>
              <LongitudeDegrees>-4.383161030709743499755859375</LongitudeDegrees>
            </Position>
            <AltitudeMeters>778.5999755859375</AltitudeMeters>
            <DistanceMeters>NAN</DistanceMeters>
          </Trackpoint>
          <Trackpoint>
            <Time>2020-12-05T10:17:10.000Z</Time>
            <Position>
              <LatitudeDegrees>36.8270729295909404754638671875</LatitudeDegrees>
              <LongitudeDegrees>-4.3831615336239337921142578125</LongitudeDegrees>
            </Position>
            <AltitudeMeters>778.4000244140625</AltitudeMeters>
            <DistanceMeters>NAN</DistanceMeters>
          </Trackpoint>
          <Trackpoint>
            <Time>2020-12-05T10:17:11.000Z</Time>
            <Position>
              <LatitudeDegrees>36.82708189822733402252197265625</LatitudeDegrees>
              <LongitudeDegrees>-4.38316161744296550750732421875</LongitudeDegrees>
            </Position>
            <AltitudeMeters>778.4000244140625</AltitudeMeters>
            <DistanceMeters>NAN</DistanceMeters>
          </Trackpoint>
          <Trackpoint>
            <Time>2020-12-05T10:17:12.000Z</Time>
            <Position>
              <LatitudeDegrees>36.8270943872630596160888671875</LatitudeDegrees>
              <LongitudeDegrees>-4.38316212035715579986572265625</LongitudeDegrees>
            </Position>
            <AltitudeMeters>778.4000244140625</AltitudeMeters>
            <DistanceMeters>NAN</DistanceMeters>
          </Trackpoint>
          <Trackpoint>
            <Time>2020-12-05T10:17:13.000Z</Time>
            <Position>
              <LatitudeDegrees>36.827107630670070648193359375</LatitudeDegrees>
              <LongitudeDegrees>-4.38316228799521923065185546875</LongitudeDegrees>
            </Position>
            <AltitudeMeters>778.4000244140625</AltitudeMeters>
            <DistanceMeters>NAN</DistanceMeters>
          </Trackpoint>
          <Trackpoint>
            <Time>2020-12-05T10:17:14.000Z</Time>
            <Position>
              <LatitudeDegrees>36.827122382819652557373046875</LatitudeDegrees>
              <LongitudeDegrees>-4.3831598572432994842529296875</LongitudeDegrees>
            </Position>
            <AltitudeMeters>778.5999755859375</AltitudeMeters>
            <DistanceMeters>NAN</DistanceMeters>
          </Trackpoint>
          <Trackpoint>
            <Time>2020-12-05T10:17:15.000Z</Time>
            <Position>
              <LatitudeDegrees>36.82713738642632961273193359375</LatitudeDegrees>
              <LongitudeDegrees>-4.383153654634952545166015625</LongitudeDegrees>
            </Position>
            <AltitudeMeters>778.79998779296875</AltitudeMeters>
            <DistanceMeters>NAN</DistanceMeters>
          </Trackpoint>
          <Trackpoint>
            <Time>2020-12-05T10:17:16.000Z</Time>
            <Position>
              <LatitudeDegrees>36.827150881290435791015625</LatitudeDegrees>
              <LongitudeDegrees>-4.3831454403698444366455078125</LongitudeDegrees>
            </Position>
            <AltitudeMeters>779</AltitudeMeters>
            <DistanceMeters>NAN</DistanceMeters>
          </Trackpoint>
          <Trackpoint>
            <Time>2020-12-05T10:17:17.000Z</Time>
            <Position>
              <LatitudeDegrees>36.8271641246974468231201171875</LatitudeDegrees>
              <LongitudeDegrees>-4.3831390701234340667724609375</LongitudeDegrees>
            </Position>
            <AltitudeMeters>779.20001220703125</AltitudeMeters>
            <DistanceMeters>NAN</DistanceMeters>
          </Trackpoint>
          <Trackpoint>
            <Time>2020-12-05T10:17:18.000Z</Time>
            <Position>
              <LatitudeDegrees>36.82717879302799701690673828125</LatitudeDegrees>
              <LongitudeDegrees>-4.3831347115337848663330078125</LongitudeDegrees>
            </Position>
            <AltitudeMeters>779.4000244140625</AltitudeMeters>
            <DistanceMeters>NAN</DistanceMeters>
          </Trackpoint>
          <Trackpoint>
            <Time>2020-12-05T10:17:19.000Z</Time>
            <Position>
              <LatitudeDegrees>36.82719404809176921844482421875</LatitudeDegrees>
              <LongitudeDegrees>-4.38313244841992855072021484375</LongitudeDegrees>
            </Position>
            <AltitudeMeters>779.5999755859375</AltitudeMeters>
            <DistanceMeters>NAN</DistanceMeters>
          </Trackpoint>
          <Trackpoint>
            <Time>2020-12-05T10:17:20.000Z</Time>
            <Position>
              <LatitudeDegrees>36.82720762677490711212158203125</LatitudeDegrees>
              <LongitudeDegrees>-4.38313161022961139678955078125</LongitudeDegrees>
            </Position>
            <AltitudeMeters>779.5999755859375</AltitudeMeters>
            <DistanceMeters>NAN</DistanceMeters>
          </Trackpoint>
          <Trackpoint>
            <Time>2020-12-05T10:17:21.000Z</Time>
            <Position>
              <LatitudeDegrees>36.82722128927707672119140625</LatitudeDegrees>
              <LongitudeDegrees>-4.3831316940486431121826171875</LongitudeDegrees>
            </Position>
            <AltitudeMeters>779.5999755859375</AltitudeMeters>
            <DistanceMeters>NAN</DistanceMeters>
          </Trackpoint>
          <Trackpoint>
            <Time>2020-12-05T10:17:22.000Z</Time>
            <Position>
              <LatitudeDegrees>36.8272326886653900146484375</LatitudeDegrees>
              <LongitudeDegrees>-4.3831340409815311431884765625</LongitudeDegrees>
            </Position>
            <AltitudeMeters>779.5999755859375</AltitudeMeters>
            <DistanceMeters>NAN</DistanceMeters>
          </Trackpoint>
          <Trackpoint>
            <Time>2020-12-05T10:17:23.000Z</Time>
            <Position>
              <LatitudeDegrees>36.82724417187273502349853515625</LatitudeDegrees>
              <LongitudeDegrees>-4.38313613645732402801513671875</LongitudeDegrees>
            </Position>
            <AltitudeMeters>779.4000244140625</AltitudeMeters>
            <DistanceMeters>NAN</DistanceMeters>
          </Trackpoint>
          <Trackpoint>
            <Time>2020-12-05T10:17:24.000Z</Time>
            <Position>
              <LatitudeDegrees>36.82725221849977970123291015625</LatitudeDegrees>
              <LongitudeDegrees>-4.38313764519989490509033203125</LongitudeDegrees>
            </Position>
            <AltitudeMeters>779.4000244140625</AltitudeMeters>
            <DistanceMeters>NAN</DistanceMeters>
          </Trackpoint>
          <Trackpoint>
            <Time>2020-12-05T10:17:25.000Z</Time>
            <Position>
              <LatitudeDegrees>36.82726060040295124053955078125</LatitudeDegrees>
              <LongitudeDegrees>-4.3831383995711803436279296875</LongitudeDegrees>
            </Position>
            <AltitudeMeters>779.4000244140625</AltitudeMeters>
            <DistanceMeters>NAN</DistanceMeters>
          </Trackpoint>
          <Trackpoint>
            <Time>2020-12-05T10:17:26.000Z</Time>
            <Position>
              <LatitudeDegrees>36.82726998813450336456298828125</LatitudeDegrees>
              <LongitudeDegrees>-4.38313881866633892059326171875</LongitudeDegrees>
            </Position>
            <AltitudeMeters>779.20001220703125</AltitudeMeters>
            <DistanceMeters>NAN</DistanceMeters>
          </Trackpoint>
          <Trackpoint>
            <Time>2020-12-05T10:17:27.000Z</Time>
            <Position>
              <LatitudeDegrees>36.8272804655134677886962890625</LatitudeDegrees>
              <LongitudeDegrees>-4.38314133323729038238525390625</LongitudeDegrees>
            </Position>
            <AltitudeMeters>779</AltitudeMeters>
            <DistanceMeters>NAN</DistanceMeters>
          </Trackpoint>
          <Trackpoint>
            <Time>2020-12-05T10:17:28.000Z</Time>
            <Position>
              <LatitudeDegrees>36.82728859595954418182373046875</LatitudeDegrees>
              <LongitudeDegrees>-4.383143596351146697998046875</LongitudeDegrees>
            </Position>
            <AltitudeMeters>778.79998779296875</AltitudeMeters>
            <DistanceMeters>NAN</DistanceMeters>
          </Trackpoint>
          <Trackpoint>
            <Time>2020-12-05T10:17:29.000Z</Time>
            <Position>
              <LatitudeDegrees>36.82729697786271572113037109375</LatitudeDegrees>
              <LongitudeDegrees>-4.383145608007907867431640625</LongitudeDegrees>
            </Position>
            <AltitudeMeters>778.5999755859375</AltitudeMeters>
            <DistanceMeters>NAN</DistanceMeters>
          </Trackpoint>
          <Trackpoint>
            <Time>2020-12-05T10:17:30.000Z</Time>
            <Position>
              <LatitudeDegrees>36.8273051083087921142578125</LatitudeDegrees>
              <LongitudeDegrees>-4.3831491284072399139404296875</LongitudeDegrees>
            </Position>
            <AltitudeMeters>778.4000244140625</AltitudeMeters>
            <DistanceMeters>NAN</DistanceMeters>
          </Trackpoint>
          <Trackpoint>
            <Time>2020-12-05T10:17:31.000Z</Time>
            <Position>
              <LatitudeDegrees>36.827314160764217376708984375</LatitudeDegrees>
              <LongitudeDegrees>-4.38315290026366710662841796875</LongitudeDegrees>
            </Position>
            <AltitudeMeters>778.20001220703125</AltitudeMeters>
            <DistanceMeters>NAN</DistanceMeters>
          </Trackpoint>
          <Trackpoint>
            <Time>2020-12-05T10:17:32.000Z</Time>
            <Position>
              <LatitudeDegrees>36.82732279412448406219482421875</LatitudeDegrees>
              <LongitudeDegrees>-4.38315667212009429931640625</LongitudeDegrees>
            </Position>
            <AltitudeMeters>778.20001220703125</AltitudeMeters>
            <DistanceMeters>NAN</DistanceMeters>
          </Trackpoint>
          <Trackpoint>
            <Time>2020-12-05T10:17:33.000Z</Time>
            <Position>
              <LatitudeDegrees>36.82733218185603618621826171875</LatitudeDegrees>
              <LongitudeDegrees>-4.38316228799521923065185546875</LongitudeDegrees>
            </Position>
            <AltitudeMeters>778.20001220703125</AltitudeMeters>
            <DistanceMeters>NAN</DistanceMeters>
          </Trackpoint>
          <Trackpoint>
            <Time>2020-12-05T10:17:34.000Z</Time>
            <Position>
              <LatitudeDegrees>36.82734207250177860260009765625</LatitudeDegrees>
              <LongitudeDegrees>-4.38316782005131244659423828125</LongitudeDegrees>
            </Position>
            <AltitudeMeters>778.20001220703125</AltitudeMeters>
            <DistanceMeters>NAN</DistanceMeters>
          </Trackpoint>
          <Trackpoint>
            <Time>2020-12-05T10:17:35.000Z</Time>
            <Position>
              <LatitudeDegrees>36.82735263369977474212646484375</LatitudeDegrees>
              <LongitudeDegrees>-4.38317184336483478546142578125</LongitudeDegrees>
            </Position>
            <AltitudeMeters>778.20001220703125</AltitudeMeters>
            <DistanceMeters>NAN</DistanceMeters>
          </Trackpoint>
          <Trackpoint>
            <Time>2020-12-05T10:17:36.000Z</Time>
            <Position>
              <LatitudeDegrees>36.8273632787168025970458984375</LatitudeDegrees>
              <LongitudeDegrees>-4.3831756152212619781494140625</LongitudeDegrees>
            </Position>
            <AltitudeMeters>778.4000244140625</AltitudeMeters>
            <DistanceMeters>NAN</DistanceMeters>
          </Trackpoint>
          <Trackpoint>
            <Time>2020-12-05T10:17:37.000Z</Time>
            <Position>
              <LatitudeDegrees>36.82737459428608417510986328125</LatitudeDegrees>
              <LongitudeDegrees>-4.38317670486867427825927734375</LongitudeDegrees>
            </Position>
            <AltitudeMeters>778.4000244140625</AltitudeMeters>
            <DistanceMeters>NAN</DistanceMeters>
          </Trackpoint>
          <Trackpoint>
            <Time>2020-12-05T10:17:38.000Z</Time>
            <Position>
              <LatitudeDegrees>36.82738532312214374542236328125</LatitudeDegrees>
              <LongitudeDegrees>-4.383177123963832855224609375</LongitudeDegrees>
            </Position>
            <AltitudeMeters>778.4000244140625</AltitudeMeters>
            <DistanceMeters>NAN</DistanceMeters>
          </Trackpoint>
          <Trackpoint>
            <Time>2020-12-05T10:17:39.000Z</Time>
            <Position>
              <LatitudeDegrees>36.82739823125302791595458984375</LatitudeDegrees>
              <LongitudeDegrees>-4.38317670486867427825927734375</LongitudeDegrees>
            </Position>
            <AltitudeMeters>778.4000244140625</AltitudeMeters>
            <DistanceMeters>NAN</DistanceMeters>
          </Trackpoint>
          <Trackpoint>
            <Time>2020-12-05T10:17:40.000Z</Time>
            <Position>
              <LatitudeDegrees>36.827411390841007232666015625</LatitudeDegrees>
              <LongitudeDegrees>-4.38317519612610340118408203125</LongitudeDegrees>
            </Position>
            <AltitudeMeters>778.4000244140625</AltitudeMeters>
            <DistanceMeters>NAN</DistanceMeters>
          </Trackpoint>
          <Trackpoint>
            <Time>2020-12-05T10:17:41.000Z</Time>
            <Position>
              <LatitudeDegrees>36.8274236284196376800537109375</LatitudeDegrees>
              <LongitudeDegrees>-4.38317234627902507781982421875</LongitudeDegrees>
            </Position>
            <AltitudeMeters>778.5999755859375</AltitudeMeters>
            <DistanceMeters>NAN</DistanceMeters>
          </Trackpoint>
          <Trackpoint>
            <Time>2020-12-05T10:17:42.000Z</Time>
            <Position>
              <LatitudeDegrees>36.82743326760828495025634765625</LatitudeDegrees>
              <LongitudeDegrees>-4.38316932879388332366943359375</LongitudeDegrees>
            </Position>
            <AltitudeMeters>778.5999755859375</AltitudeMeters>
            <DistanceMeters>NAN</DistanceMeters>
          </Trackpoint>
          <Trackpoint>
            <Time>2020-12-05T10:17:43.000Z</Time>
            <Position>
              <LatitudeDegrees>36.82744148187339305877685546875</LatitudeDegrees>
              <LongitudeDegrees>-4.38316530548036098480224609375</LongitudeDegrees>
            </Position>
            <AltitudeMeters>778.5999755859375</AltitudeMeters>
            <DistanceMeters>NAN</DistanceMeters>
          </Trackpoint>
          <Trackpoint>
            <Time>2020-12-05T10:17:44.000Z</Time>
            <Position>
              <LatitudeDegrees>36.82744986377656459808349609375</LatitudeDegrees>
              <LongitudeDegrees>-4.3831581808626651763916015625</LongitudeDegrees>
            </Position>
            <AltitudeMeters>778.5999755859375</AltitudeMeters>
            <DistanceMeters>NAN</DistanceMeters>
          </Trackpoint>
          <Trackpoint>
            <Time>2020-12-05T10:17:45.000Z</Time>
            <Position>
              <LatitudeDegrees>36.8274588324129581451416015625</LatitudeDegrees>
              <LongitudeDegrees>-4.3831479549407958984375</LongitudeDegrees>
            </Position>
            <AltitudeMeters>778.4000244140625</AltitudeMeters>
            <DistanceMeters>NAN</DistanceMeters>
          </Trackpoint>
          <Trackpoint>
            <Time>2020-12-05T10:17:46.000Z</Time>
            <Position>
              <LatitudeDegrees>36.82746930979192256927490234375</LatitudeDegrees>
              <LongitudeDegrees>-4.3831340409815311431884765625</LongitudeDegrees>
            </Position>
            <AltitudeMeters>778.4000244140625</AltitudeMeters>
            <DistanceMeters>NAN</DistanceMeters>
          </Trackpoint>
          <Trackpoint>
            <Time>2020-12-05T10:17:47.000Z</Time>
            <Position>
              <LatitudeDegrees>36.82747903279960155487060546875</LatitudeDegrees>
              <LongitudeDegrees>-4.3831159360706806182861328125</LongitudeDegrees>
            </Position>
            <AltitudeMeters>778.4000244140625</AltitudeMeters>
            <DistanceMeters>NAN</DistanceMeters>
          </Trackpoint>
          <Trackpoint>
            <Time>2020-12-05T10:17:48.000Z</Time>
            <Position>
              <LatitudeDegrees>36.82748892344534397125244140625</LatitudeDegrees>
              <LongitudeDegrees>-4.38309942372143268585205078125</LongitudeDegrees>
            </Position>
            <AltitudeMeters>778.4000244140625</AltitudeMeters>
            <DistanceMeters>NAN</DistanceMeters>
          </Trackpoint>
          <Trackpoint>
            <Time>2020-12-05T10:17:49.000Z</Time>
            <Position>
              <LatitudeDegrees>36.8274997361004352569580078125</LatitudeDegrees>
              <LongitudeDegrees>-4.3830763734877109527587890625</LongitudeDegrees>
            </Position>
            <AltitudeMeters>778.4000244140625</AltitudeMeters>
            <DistanceMeters>NAN</DistanceMeters>
          </Trackpoint>
          <Trackpoint>
            <Time>2020-12-05T10:17:50.000Z</Time>
            <Position>
              <LatitudeDegrees>36.82750954292714595794677734375</LatitudeDegrees>
              <LongitudeDegrees>-4.38306019641458988189697265625</LongitudeDegrees>
            </Position>
            <AltitudeMeters>778.4000244140625</AltitudeMeters>
            <DistanceMeters>NAN</DistanceMeters>
          </Trackpoint>
          <Trackpoint>
            <Time>2020-12-05T10:17:51.000Z</Time>
            <Position>
              <LatitudeDegrees>36.827518679201602935791015625</LatitudeDegrees>
              <LongitudeDegrees>-4.38304410316050052642822265625</LongitudeDegrees>
            </Position>
            <AltitudeMeters>778.20001220703125</AltitudeMeters>
            <DistanceMeters>NAN</DistanceMeters>
          </Trackpoint>
          <Trackpoint>
            <Time>2020-12-05T10:17:52.000Z</Time>
            <Position>
              <LatitudeDegrees>36.827528066933155059814453125</LatitudeDegrees>
              <LongitudeDegrees>-4.38302926719188690185546875</LongitudeDegrees>
            </Position>
            <AltitudeMeters>778.20001220703125</AltitudeMeters>
            <DistanceMeters>NAN</DistanceMeters>
          </Trackpoint>
          <Trackpoint>
            <Time>2020-12-05T10:17:53.000Z</Time>
            <Position>
              <LatitudeDegrees>36.82753703556954860687255859375</LatitudeDegrees>
              <LongitudeDegrees>-4.38301325775682926177978515625</LongitudeDegrees>
            </Position>
            <AltitudeMeters>778.20001220703125</AltitudeMeters>
            <DistanceMeters>NAN</DistanceMeters>
          </Trackpoint>
          <Trackpoint>
            <Time>2020-12-05T10:17:54.000Z</Time>
            <Position>
              <LatitudeDegrees>36.8275466747581958770751953125</LatitudeDegrees>
              <LongitudeDegrees>-4.38299766741693019866943359375</LongitudeDegrees>
            </Position>
            <AltitudeMeters>778.20001220703125</AltitudeMeters>
            <DistanceMeters>NAN</DistanceMeters>
          </Trackpoint>
          <Trackpoint>
            <Time>2020-12-05T10:17:55.000Z</Time>
            <Position>
              <LatitudeDegrees>36.8275560624897480010986328125</LatitudeDegrees>
              <LongitudeDegrees>-4.38298140652477741241455078125</LongitudeDegrees>
            </Position>
            <AltitudeMeters>778.20001220703125</AltitudeMeters>
            <DistanceMeters>NAN</DistanceMeters>
          </Trackpoint>
          <Trackpoint>
            <Time>2020-12-05T10:17:56.000Z</Time>
            <Position>
              <LatitudeDegrees>36.82756461203098297119140625</LatitudeDegrees>
              <LongitudeDegrees>-4.38296749256551265716552734375</LongitudeDegrees>
            </Position>
            <AltitudeMeters>778.20001220703125</AltitudeMeters>
            <DistanceMeters>NAN</DistanceMeters>
          </Trackpoint>
          <Trackpoint>
            <Time>2020-12-05T10:17:57.000Z</Time>
            <Position>
              <LatitudeDegrees>36.82757358066737651824951171875</LatitudeDegrees>
              <LongitudeDegrees>-4.382954500615596771240234375</LongitudeDegrees>
            </Position>
            <AltitudeMeters>778.20001220703125</AltitudeMeters>
            <DistanceMeters>NAN</DistanceMeters>
          </Trackpoint>
          <Trackpoint>
            <Time>2020-12-05T10:17:58.000Z</Time>
            <Position>
              <LatitudeDegrees>36.82758145965635776519775390625</LatitudeDegrees>
              <LongitudeDegrees>-4.38294234685599803924560546875</LongitudeDegrees>
            </Position>
            <AltitudeMeters>778.20001220703125</AltitudeMeters>
            <DistanceMeters>NAN</DistanceMeters>
          </Trackpoint>
          <Trackpoint>
            <Time>2020-12-05T10:17:59.000Z</Time>
            <Position>
              <LatitudeDegrees>36.8275894224643707275390625</LatitudeDegrees>
              <LongitudeDegrees>-4.3829338811337947845458984375</LongitudeDegrees>
            </Position>
            <AltitudeMeters>778.20001220703125</AltitudeMeters>
            <DistanceMeters>NAN</DistanceMeters>
          </Trackpoint>
          <Trackpoint>
            <Time>2020-12-05T10:18:00.000Z</Time>
            <Position>
              <LatitudeDegrees>36.8276006542146205902099609375</LatitudeDegrees>
              <LongitudeDegrees>-4.382924325764179229736328125</LongitudeDegrees>
            </Position>
            <AltitudeMeters>778.20001220703125</AltitudeMeters>
            <DistanceMeters>NAN</DistanceMeters>
          </Trackpoint>
          <Trackpoint>
            <Time>2020-12-05T10:18:01.000Z</Time>
            <Position>
              <LatitudeDegrees>36.8276107124984264373779296875</LatitudeDegrees>
              <LongitudeDegrees>-4.3829105794429779052734375</LongitudeDegrees>
            </Position>
            <AltitudeMeters>778.20001220703125</AltitudeMeters>
            <DistanceMeters>NAN</DistanceMeters>
          </Trackpoint>
          <Trackpoint>
            <Time>2020-12-05T10:18:02.000Z</Time>
            <Position>
              <LatitudeDegrees>36.8276201002299785614013671875</LatitudeDegrees>
              <LongitudeDegrees>-4.3828993476927280426025390625</LongitudeDegrees>
            </Position>
            <AltitudeMeters>778.20001220703125</AltitudeMeters>
            <DistanceMeters>NAN</DistanceMeters>
          </Trackpoint>
          <Trackpoint>
            <Time>2020-12-05T10:18:03.000Z</Time>
            <Position>
              <LatitudeDegrees>36.82762571610510349273681640625</LatitudeDegrees>
              <LongitudeDegrees>-4.38289088197052478790283203125</LongitudeDegrees>
            </Position>
            <AltitudeMeters>778.20001220703125</AltitudeMeters>
            <DistanceMeters>NAN</DistanceMeters>
          </Trackpoint>
          <Trackpoint>
            <Time>2020-12-05T10:18:04.000Z</Time>
            <Position>
              <LatitudeDegrees>36.827628649771213531494140625</LatitudeDegrees>
              <LongitudeDegrees>-4.38288283534348011016845703125</LongitudeDegrees>
            </Position>
            <AltitudeMeters>778.20001220703125</AltitudeMeters>
            <DistanceMeters>NAN</DistanceMeters>
          </Trackpoint>
          <Trackpoint>
            <Time>2020-12-05T10:18:05.000Z</Time>
            <Position>
              <LatitudeDegrees>36.82763275690376758575439453125</LatitudeDegrees>
              <LongitudeDegrees>-4.3828725256025791168212890625</LongitudeDegrees>
            </Position>
            <AltitudeMeters>778.4000244140625</AltitudeMeters>
            <DistanceMeters>NAN</DistanceMeters>
          </Trackpoint>
          <Trackpoint>
            <Time>2020-12-05T10:18:06.000Z</Time>
            <Position>
              <LatitudeDegrees>36.82763837277889251708984375</LatitudeDegrees>
              <LongitudeDegrees>-4.38285752199590206146240234375</LongitudeDegrees>
            </Position>
            <AltitudeMeters>778.20001220703125</AltitudeMeters>
            <DistanceMeters>NAN</DistanceMeters>
          </Trackpoint>
          <Trackpoint>
            <Time>2020-12-05T10:18:07.000Z</Time>
            <Position>
              <LatitudeDegrees>36.8276417255401611328125</LatitudeDegrees>
              <LongitudeDegrees>-4.3828467093408107757568359375</LongitudeDegrees>
            </Position>
            <AltitudeMeters>778.20001220703125</AltitudeMeters>
            <DistanceMeters>NAN</DistanceMeters>
          </Trackpoint>
          <Trackpoint>
            <Time>2020-12-05T10:18:08.000Z</Time>
            <Position>
              <LatitudeDegrees>36.827648095786571502685546875</LatitudeDegrees>
              <LongitudeDegrees>-4.3828349746763706207275390625</LongitudeDegrees>
            </Position>
            <AltitudeMeters>778</AltitudeMeters>
            <DistanceMeters>NAN</DistanceMeters>
          </Trackpoint>
          <Trackpoint>
            <Time>2020-12-05T10:18:09.000Z</Time>
            <Position>
              <LatitudeDegrees>36.82765421457588672637939453125</LatitudeDegrees>
              <LongitudeDegrees>-4.3828202225267887115478515625</LongitudeDegrees>
            </Position>
            <AltitudeMeters>777.79998779296875</AltitudeMeters>
            <DistanceMeters>NAN</DistanceMeters>
          </Trackpoint>
          <Trackpoint>
            <Time>2020-12-05T10:18:10.000Z</Time>
            <Position>
              <LatitudeDegrees>36.827660501003265380859375</LatitudeDegrees>
              <LongitudeDegrees>-4.38280454836785793304443359375</LongitudeDegrees>
            </Position>
            <AltitudeMeters>777.79998779296875</AltitudeMeters>
            <DistanceMeters>NAN</DistanceMeters>
          </Trackpoint>
          <Trackpoint>
            <Time>2020-12-05T10:18:11.000Z</Time>
            <Position>
              <LatitudeDegrees>36.82766511105000972747802734375</LatitudeDegrees>
              <LongitudeDegrees>-4.382793568074703216552734375</LongitudeDegrees>
            </Position>
            <AltitudeMeters>777.79998779296875</AltitudeMeters>
            <DistanceMeters>NAN</DistanceMeters>
          </Trackpoint>
          <Trackpoint>
            <Time>2020-12-05T10:18:12.000Z</Time>
            <Position>
              <LatitudeDegrees>36.82766863144934177398681640625</LatitudeDegrees>
              <LongitudeDegrees>-4.38278141431510448455810546875</LongitudeDegrees>
            </Position>
            <AltitudeMeters>777.79998779296875</AltitudeMeters>
            <DistanceMeters>NAN</DistanceMeters>
          </Trackpoint>
          <Trackpoint>
            <Time>2020-12-05T10:18:13.000Z</Time>
            <Position>
              <LatitudeDegrees>36.82767349295318126678466796875</LatitudeDegrees>
              <LongitudeDegrees>-4.38276900909841060638427734375</LongitudeDegrees>
            </Position>
            <AltitudeMeters>777.79998779296875</AltitudeMeters>
            <DistanceMeters>NAN</DistanceMeters>
          </Trackpoint>
          <Trackpoint>
            <Time>2020-12-05T10:18:14.000Z</Time>
            <Position>
              <LatitudeDegrees>36.8276807852089405059814453125</LatitudeDegrees>
              <LongitudeDegrees>-4.38275375403463840484619140625</LongitudeDegrees>
            </Position>
            <AltitudeMeters>777.79998779296875</AltitudeMeters>
            <DistanceMeters>NAN</DistanceMeters>
          </Trackpoint>
          <Trackpoint>
            <Time>2020-12-05T10:18:15.000Z</Time>
            <Position>
              <LatitudeDegrees>36.82768623344600200653076171875</LatitudeDegrees>
              <LongitudeDegrees>-4.38273950479924678802490234375</LongitudeDegrees>
            </Position>
            <AltitudeMeters>777.79998779296875</AltitudeMeters>
            <DistanceMeters>NAN</DistanceMeters>
          </Trackpoint>
          <Trackpoint>
            <Time>2020-12-05T10:18:16.000Z</Time>
            <Position>
              <LatitudeDegrees>36.82769210077822208404541015625</LatitudeDegrees>
              <LongitudeDegrees>-4.3827280215919017791748046875</LongitudeDegrees>
            </Position>
            <AltitudeMeters>777.79998779296875</AltitudeMeters>
            <DistanceMeters>NAN</DistanceMeters>
          </Trackpoint>
          <Trackpoint>
            <Time>2020-12-05T10:18:17.000Z</Time>
            <Position>
              <LatitudeDegrees>36.827697046101093292236328125</LatitudeDegrees>
              <LongitudeDegrees>-4.3827196396887302398681640625</LongitudeDegrees>
            </Position>
            <AltitudeMeters>778</AltitudeMeters>
            <DistanceMeters>NAN</DistanceMeters>
          </Trackpoint>
          <Trackpoint>
            <Time>2020-12-05T10:18:18.000Z</Time>
            <Position>
              <LatitudeDegrees>36.827701739966869354248046875</LatitudeDegrees>
              <LongitudeDegrees>-4.3827105872333049774169921875</LongitudeDegrees>
            </Position>
            <AltitudeMeters>778</AltitudeMeters>
            <DistanceMeters>NAN</DistanceMeters>
          </Trackpoint>
          <Trackpoint>
            <Time>2020-12-05T10:18:19.000Z</Time>
            <Position>
              <LatitudeDegrees>36.82770668528974056243896484375</LatitudeDegrees>
              <LongitudeDegrees>-4.38270363025367259979248046875</LongitudeDegrees>
            </Position>
            <AltitudeMeters>778</AltitudeMeters>
            <DistanceMeters>NAN</DistanceMeters>
          </Trackpoint>
          <Trackpoint>
            <Time>2020-12-05T10:18:20.000Z</Time>
            <Position>
              <LatitudeDegrees>36.827711127698421478271484375</LatitudeDegrees>
              <LongitudeDegrees>-4.38269608654081821441650390625</LongitudeDegrees>
            </Position>
            <AltitudeMeters>777.79998779296875</AltitudeMeters>
            <DistanceMeters>NAN</DistanceMeters>
          </Trackpoint>
          <Trackpoint>
            <Time>2020-12-05T10:18:21.000Z</Time>
            <Position>
              <LatitudeDegrees>36.82771456427872180938720703125</LatitudeDegrees>
              <LongitudeDegrees>-4.382689297199249267578125</LongitudeDegrees>
            </Position>
            <AltitudeMeters>777.20001220703125</AltitudeMeters>
            <DistanceMeters>NAN</DistanceMeters>
          </Trackpoint>
          <Trackpoint>
            <Time>2020-12-05T10:18:22.000Z</Time>
            <Position>
              <LatitudeDegrees>36.82772026397287845611572265625</LatitudeDegrees>
              <LongitudeDegrees>-4.3826820887625217437744140625</LongitudeDegrees>
            </Position>
            <AltitudeMeters>777</AltitudeMeters>
            <DistanceMeters>NAN</DistanceMeters>
          </Trackpoint>
          <Trackpoint>
            <Time>2020-12-05T10:18:23.000Z</Time>
            <Position>
              <LatitudeDegrees>36.8277253769338130950927734375</LatitudeDegrees>
              <LongitudeDegrees>-4.38267312012612819671630859375</LongitudeDegrees>
            </Position>
            <AltitudeMeters>776.79998779296875</AltitudeMeters>
            <DistanceMeters>NAN</DistanceMeters>
          </Trackpoint>
          <Trackpoint>
            <Time>2020-12-05T10:18:24.000Z</Time>
            <Position>
              <LatitudeDegrees>36.82773199863731861114501953125</LatitudeDegrees>
              <LongitudeDegrees>-4.3826613016426563262939453125</LongitudeDegrees>
            </Position>
            <AltitudeMeters>776.5999755859375</AltitudeMeters>
            <DistanceMeters>NAN</DistanceMeters>
          </Trackpoint>
          <Trackpoint>
            <Time>2020-12-05T10:18:25.000Z</Time>
            <Position>
              <LatitudeDegrees>36.82774029672145843505859375</LatitudeDegrees>
              <LongitudeDegrees>-4.38264763914048671722412109375</LongitudeDegrees>
            </Position>
            <AltitudeMeters>776.5999755859375</AltitudeMeters>
            <DistanceMeters>NAN</DistanceMeters>
          </Trackpoint>
          <Trackpoint>
            <Time>2020-12-05T10:18:26.000Z</Time>
            <Position>
              <LatitudeDegrees>36.827746666967868804931640625</LatitudeDegrees>
              <LongitudeDegrees>-4.38263858668506145477294921875</LongitudeDegrees>
            </Position>
            <AltitudeMeters>776.5999755859375</AltitudeMeters>
            <DistanceMeters>NAN</DistanceMeters>
          </Trackpoint>
          <Trackpoint>
            <Time>2020-12-05T10:18:27.000Z</Time>
            <Position>
              <LatitudeDegrees>36.82775362394750118255615234375</LatitudeDegrees>
              <LongitudeDegrees>-4.3826294504106044769287109375</LongitudeDegrees>
            </Position>
            <AltitudeMeters>776.79998779296875</AltitudeMeters>
            <DistanceMeters>NAN</DistanceMeters>
          </Trackpoint>
          <Trackpoint>
            <Time>2020-12-05T10:18:28.000Z</Time>
            <Position>
              <LatitudeDegrees>36.827762760221958160400390625</LatitudeDegrees>
              <LongitudeDegrees>-4.38261796720325946807861328125</LongitudeDegrees>
            </Position>
            <AltitudeMeters>776.79998779296875</AltitudeMeters>
            <DistanceMeters>NAN</DistanceMeters>
          </Trackpoint>
          <Trackpoint>
            <Time>2020-12-05T10:18:29.000Z</Time>
            <Position>
              <LatitudeDegrees>36.8277706392109394073486328125</LatitudeDegrees>
              <LongitudeDegrees>-4.382609836757183074951171875</LongitudeDegrees>
            </Position>
            <AltitudeMeters>776.79998779296875</AltitudeMeters>
            <DistanceMeters>NAN</DistanceMeters>
          </Trackpoint>
          <Trackpoint>
            <Time>2020-12-05T10:18:30.000Z</Time>
            <Position>
              <LatitudeDegrees>36.8277780152857303619384765625</LatitudeDegrees>
              <LongitudeDegrees>-4.382601790130138397216796875</LongitudeDegrees>
            </Position>
            <AltitudeMeters>776.79998779296875</AltitudeMeters>
            <DistanceMeters>NAN</DistanceMeters>
          </Trackpoint>
          <Trackpoint>
            <Time>2020-12-05T10:18:31.000Z</Time>
            <Position>
              <LatitudeDegrees>36.82778463698923587799072265625</LatitudeDegrees>
              <LongitudeDegrees>-4.38259030692279338836669921875</LongitudeDegrees>
            </Position>
            <AltitudeMeters>776.79998779296875</AltitudeMeters>
            <DistanceMeters>NAN</DistanceMeters>
          </Trackpoint>
          <Trackpoint>
            <Time>2020-12-05T10:18:32.000Z</Time>
            <Position>
              <LatitudeDegrees>36.82779301889240741729736328125</LatitudeDegrees>
              <LongitudeDegrees>-4.38257873989641666412353515625</LongitudeDegrees>
            </Position>
            <AltitudeMeters>776.79998779296875</AltitudeMeters>
            <DistanceMeters>NAN</DistanceMeters>
          </Trackpoint>
          <Trackpoint>
            <Time>2020-12-05T10:18:33.000Z</Time>
            <Position>
              <LatitudeDegrees>36.82780140079557895660400390625</LatitudeDegrees>
              <LongitudeDegrees>-4.38256767578423023223876953125</LongitudeDegrees>
            </Position>
            <AltitudeMeters>776.5999755859375</AltitudeMeters>
            <DistanceMeters>NAN</DistanceMeters>
          </Trackpoint>
          <Trackpoint>
            <Time>2020-12-05T10:18:34.000Z</Time>
            <Position>
              <LatitudeDegrees>36.82780743576586246490478515625</LatitudeDegrees>
              <LongitudeDegrees>-4.38255845569074153900146484375</LongitudeDegrees>
            </Position>
            <AltitudeMeters>776.4000244140625</AltitudeMeters>
            <DistanceMeters>NAN</DistanceMeters>
          </Trackpoint>
          <Trackpoint>
            <Time>2020-12-05T10:18:35.000Z</Time>
            <Position>
              <LatitudeDegrees>36.82781271636486053466796875</LatitudeDegrees>
              <LongitudeDegrees>-4.3825483135879039764404296875</LongitudeDegrees>
            </Position>
            <AltitudeMeters>776.4000244140625</AltitudeMeters>
            <DistanceMeters>NAN</DistanceMeters>
          </Trackpoint>
          <Trackpoint>
            <Time>2020-12-05T10:18:36.000Z</Time>
            <Position>
              <LatitudeDegrees>36.8278162367641925811767578125</LatitudeDegrees>
              <LongitudeDegrees>-4.382544122636318206787109375</LongitudeDegrees>
            </Position>
            <AltitudeMeters>776.20001220703125</AltitudeMeters>
            <DistanceMeters>NAN</DistanceMeters>
          </Trackpoint>
          <Trackpoint>
            <Time>2020-12-05T10:18:37.000Z</Time>
            <Position>
              <LatitudeDegrees>36.827823109924793243408203125</LatitudeDegrees>
              <LongitudeDegrees>-4.3825412727892398834228515625</LongitudeDegrees>
            </Position>
            <AltitudeMeters>776</AltitudeMeters>
            <DistanceMeters>NAN</DistanceMeters>
          </Trackpoint>
          <Trackpoint>
            <Time>2020-12-05T10:18:38.000Z</Time>
            <Position>
              <LatitudeDegrees>36.82783006690442562103271484375</LatitudeDegrees>
              <LongitudeDegrees>-4.3825382553040981292724609375</LongitudeDegrees>
            </Position>
            <AltitudeMeters>775.79998779296875</AltitudeMeters>
            <DistanceMeters>NAN</DistanceMeters>
          </Trackpoint>
          <Trackpoint>
            <Time>2020-12-05T10:18:39.000Z</Time>
            <Position>
              <LatitudeDegrees>36.82783694006502628326416015625</LatitudeDegrees>
              <LongitudeDegrees>-4.382533393800258636474609375</LongitudeDegrees>
            </Position>
            <AltitudeMeters>775.5999755859375</AltitudeMeters>
            <DistanceMeters>NAN</DistanceMeters>
          </Trackpoint>
          <Trackpoint>
            <Time>2020-12-05T10:18:40.000Z</Time>
            <Position>
              <LatitudeDegrees>36.8278457410633563995361328125</LatitudeDegrees>
              <LongitudeDegrees>-4.38252677209675312042236328125</LongitudeDegrees>
            </Position>
            <AltitudeMeters>775.4000244140625</AltitudeMeters>
            <DistanceMeters>NAN</DistanceMeters>
          </Trackpoint>
          <Trackpoint>
            <Time>2020-12-05T10:18:41.000Z</Time>
            <Position>
              <LatitudeDegrees>36.827856637537479400634765625</LatitudeDegrees>
              <LongitudeDegrees>-4.3825189769268035888671875</LongitudeDegrees>
            </Position>
            <AltitudeMeters>775.20001220703125</AltitudeMeters>
            <DistanceMeters>NAN</DistanceMeters>
          </Trackpoint>
          <Trackpoint>
            <Time>2020-12-05T10:18:42.000Z</Time>
            <Position>
              <LatitudeDegrees>36.8278658576309680938720703125</LatitudeDegrees>
              <LongitudeDegrees>-4.38251369632780551910400390625</LongitudeDegrees>
            </Position>
            <AltitudeMeters>775.20001220703125</AltitudeMeters>
            <DistanceMeters>NAN</DistanceMeters>
          </Trackpoint>
          <Trackpoint>
            <Time>2020-12-05T10:18:43.000Z</Time>
            <Position>
              <LatitudeDegrees>36.827875413000583648681640625</LatitudeDegrees>
              <LongitudeDegrees>-4.38251000829041004180908203125</LongitudeDegrees>
            </Position>
            <AltitudeMeters>775</AltitudeMeters>
            <DistanceMeters>NAN</DistanceMeters>
          </Trackpoint>
          <Trackpoint>
            <Time>2020-12-05T10:18:44.000Z</Time>
            <Position>
              <LatitudeDegrees>36.82788186706602573394775390625</LatitudeDegrees>
              <LongitudeDegrees>-4.3825040571391582489013671875</LongitudeDegrees>
            </Position>
            <AltitudeMeters>774.79998779296875</AltitudeMeters>
            <DistanceMeters>NAN</DistanceMeters>
          </Trackpoint>
          <Trackpoint>
            <Time>2020-12-05T10:18:45.000Z</Time>
            <Position>
              <LatitudeDegrees>36.82788857258856296539306640625</LatitudeDegrees>
              <LongitudeDegrees>-4.3824986927211284637451171875</LongitudeDegrees>
            </Position>
            <AltitudeMeters>774.4000244140625</AltitudeMeters>
            <DistanceMeters>NAN</DistanceMeters>
          </Trackpoint>
          <Trackpoint>
            <Time>2020-12-05T10:18:46.000Z</Time>
            <Position>
              <LatitudeDegrees>36.82789427228271961212158203125</LatitudeDegrees>
              <LongitudeDegrees>-4.3824946694076061248779296875</LongitudeDegrees>
            </Position>
            <AltitudeMeters>774</AltitudeMeters>
            <DistanceMeters>NAN</DistanceMeters>
          </Trackpoint>
          <Trackpoint>
            <Time>2020-12-05T10:18:47.000Z</Time>
            <Position>
              <LatitudeDegrees>36.82789946906268596649169921875</LatitudeDegrees>
              <LongitudeDegrees>-4.382490813732147216796875</LongitudeDegrees>
            </Position>
            <AltitudeMeters>773.79998779296875</AltitudeMeters>
            <DistanceMeters>NAN</DistanceMeters>
          </Trackpoint>
          <Trackpoint>
            <Time>2020-12-05T10:18:48.000Z</Time>
            <Position>
              <LatitudeDegrees>36.8279060907661914825439453125</LatitudeDegrees>
              <LongitudeDegrees>-4.38248922117054462432861328125</LongitudeDegrees>
            </Position>
            <AltitudeMeters>773.5999755859375</AltitudeMeters>
            <DistanceMeters>NAN</DistanceMeters>
          </Trackpoint>
          <Trackpoint>
            <Time>2020-12-05T10:18:49.000Z</Time>
            <Position>
              <LatitudeDegrees>36.82791774161159992218017578125</LatitudeDegrees>
              <LongitudeDegrees>-4.3824882991611957550048828125</LongitudeDegrees>
            </Position>
            <AltitudeMeters>773.4000244140625</AltitudeMeters>
            <DistanceMeters>NAN</DistanceMeters>
          </Trackpoint>
          <Trackpoint>
            <Time>2020-12-05T10:18:50.000Z</Time>
            <Position>
              <LatitudeDegrees>36.82792939245700836181640625</LatitudeDegrees>
              <LongitudeDegrees>-4.38249039463698863983154296875</LongitudeDegrees>
            </Position>
            <AltitudeMeters>773.20001220703125</AltitudeMeters>
            <DistanceMeters>NAN</DistanceMeters>
          </Trackpoint>
          <Trackpoint>
            <Time>2020-12-05T10:18:51.000Z</Time>
            <Position>
              <LatitudeDegrees>36.8279389478266239166259765625</LatitudeDegrees>
              <LongitudeDegrees>-4.3824889697134494781494140625</LongitudeDegrees>
            </Position>
            <AltitudeMeters>772.79998779296875</AltitudeMeters>
            <DistanceMeters>NAN</DistanceMeters>
          </Trackpoint>
          <Trackpoint>
            <Time>2020-12-05T10:18:52.000Z</Time>
            <Position>
              <LatitudeDegrees>36.8279469944536685943603515625</LatitudeDegrees>
              <LongitudeDegrees>-4.3824913166463375091552734375</LongitudeDegrees>
            </Position>
            <AltitudeMeters>772.4000244140625</AltitudeMeters>
            <DistanceMeters>NAN</DistanceMeters>
          </Trackpoint>
          <Trackpoint>
            <Time>2020-12-05T10:18:53.000Z</Time>
            <Position>
              <LatitudeDegrees>36.8279563821852207183837890625</LatitudeDegrees>
              <LongitudeDegrees>-4.3824921548366546630859375</LongitudeDegrees>
            </Position>
            <AltitudeMeters>772.20001220703125</AltitudeMeters>
            <DistanceMeters>NAN</DistanceMeters>
          </Trackpoint>
          <Trackpoint>
            <Time>2020-12-05T10:18:54.000Z</Time>
            <Position>
              <LatitudeDegrees>36.827966272830963134765625</LatitudeDegrees>
              <LongitudeDegrees>-4.382494501769542694091796875</LongitudeDegrees>
            </Position>
            <AltitudeMeters>772</AltitudeMeters>
            <DistanceMeters>NAN</DistanceMeters>
          </Trackpoint>
          <Trackpoint>
            <Time>2020-12-05T10:18:55.000Z</Time>
            <Position>
              <LatitudeDegrees>36.8279758282005786895751953125</LatitudeDegrees>
              <LongitudeDegrees>-4.38249559141695499420166015625</LongitudeDegrees>
            </Position>
            <AltitudeMeters>771.79998779296875</AltitudeMeters>
            <DistanceMeters>NAN</DistanceMeters>
          </Trackpoint>
          <Trackpoint>
            <Time>2020-12-05T10:18:56.000Z</Time>
            <Position>
              <LatitudeDegrees>36.82798764668405055999755859375</LatitudeDegrees>
              <LongitudeDegrees>-4.382495842874050140380859375</LongitudeDegrees>
            </Position>
            <AltitudeMeters>771.5999755859375</AltitudeMeters>
            <DistanceMeters>NAN</DistanceMeters>
          </Trackpoint>
          <Trackpoint>
            <Time>2020-12-05T10:18:57.000Z</Time>
            <Position>
              <LatitudeDegrees>36.8280049972236156463623046875</LatitudeDegrees>
              <LongitudeDegrees>-4.38249894417822360992431640625</LongitudeDegrees>
            </Position>
            <AltitudeMeters>771.5999755859375</AltitudeMeters>
            <DistanceMeters>NAN</DistanceMeters>
          </Trackpoint>
          <Trackpoint>
            <Time>2020-12-05T10:18:58.000Z</Time>
            <Position>
              <LatitudeDegrees>36.82802268303930759429931640625</LatitudeDegrees>
              <LongitudeDegrees>-4.3825030513107776641845703125</LongitudeDegrees>
            </Position>
            <AltitudeMeters>771.4000244140625</AltitudeMeters>
            <DistanceMeters>NAN</DistanceMeters>
          </Trackpoint>
          <Trackpoint>
            <Time>2020-12-05T10:18:59.000Z</Time>
            <Position>
              <LatitudeDegrees>36.8280375190079212188720703125</LatitudeDegrees>
              <LongitudeDegrees>-4.3825082480907440185546875</LongitudeDegrees>
            </Position>
            <AltitudeMeters>771.20001220703125</AltitudeMeters>
            <DistanceMeters>NAN</DistanceMeters>
          </Trackpoint>
          <Trackpoint>
            <Time>2020-12-05T10:19:00.000Z</Time>
            <Position>
              <LatitudeDegrees>36.828043051064014434814453125</LatitudeDegrees>
              <LongitudeDegrees>-4.3825162947177886962890625</LongitudeDegrees>
            </Position>
            <AltitudeMeters>771.20001220703125</AltitudeMeters>
            <DistanceMeters>NAN</DistanceMeters>
          </Trackpoint>
          <Trackpoint>
            <Time>2020-12-05T10:19:01.000Z</Time>
            <Position>
              <LatitudeDegrees>36.8280516006052494049072265625</LatitudeDegrees>
              <LongitudeDegrees>-4.3825174681842327117919921875</LongitudeDegrees>
            </Position>
            <AltitudeMeters>771</AltitudeMeters>
            <DistanceMeters>NAN</DistanceMeters>
          </Trackpoint>
          <Trackpoint>
            <Time>2020-12-05T10:19:02.000Z</Time>
            <Position>
              <LatitudeDegrees>36.82806618511676788330078125</LatitudeDegrees>
              <LongitudeDegrees>-4.3825191445648670196533203125</LongitudeDegrees>
            </Position>
            <AltitudeMeters>771</AltitudeMeters>
            <DistanceMeters>NAN</DistanceMeters>
          </Trackpoint>
          <Trackpoint>
            <Time>2020-12-05T10:19:03.000Z</Time>
            <Position>
              <LatitudeDegrees>36.8280784226953983306884765625</LatitudeDegrees>
              <LongitudeDegrees>-4.38252098858356475830078125</LongitudeDegrees>
            </Position>
            <AltitudeMeters>771</AltitudeMeters>
            <DistanceMeters>NAN</DistanceMeters>
          </Trackpoint>
          <Trackpoint>
            <Time>2020-12-05T10:19:04.000Z</Time>
            <Position>
              <LatitudeDegrees>36.82809074409306049346923828125</LatitudeDegrees>
              <LongitudeDegrees>-4.38252509571611881256103515625</LongitudeDegrees>
            </Position>
            <AltitudeMeters>771</AltitudeMeters>
            <DistanceMeters>NAN</DistanceMeters>
          </Trackpoint>
          <Trackpoint>
            <Time>2020-12-05T10:19:05.000Z</Time>
            <Position>
              <LatitudeDegrees>36.82810239493846893310546875</LatitudeDegrees>
              <LongitudeDegrees>-4.38252643682062625885009765625</LongitudeDegrees>
            </Position>
            <AltitudeMeters>770.79998779296875</AltitudeMeters>
            <DistanceMeters>NAN</DistanceMeters>
          </Trackpoint>
          <Trackpoint>
            <Time>2020-12-05T10:19:06.000Z</Time>
            <Position>
              <LatitudeDegrees>36.82811588980257511138916015625</LatitudeDegrees>
              <LongitudeDegrees>-4.38253037631511688232421875</LongitudeDegrees>
            </Position>
            <AltitudeMeters>770.79998779296875</AltitudeMeters>
            <DistanceMeters>NAN</DistanceMeters>
          </Trackpoint>
          <Trackpoint>
            <Time>2020-12-05T10:19:07.000Z</Time>
            <Position>
              <LatitudeDegrees>36.8281300552189350128173828125</LatitudeDegrees>
              <LongitudeDegrees>-4.3825328908860683441162109375</LongitudeDegrees>
            </Position>
            <AltitudeMeters>770.79998779296875</AltitudeMeters>
            <DistanceMeters>NAN</DistanceMeters>
          </Trackpoint>
          <Trackpoint>
            <Time>2020-12-05T10:19:08.000Z</Time>
            <Position>
              <LatitudeDegrees>36.828148327767848968505859375</LatitudeDegrees>
              <LongitudeDegrees>-4.3825382553040981292724609375</LongitudeDegrees>
            </Position>
            <AltitudeMeters>770.5999755859375</AltitudeMeters>
            <DistanceMeters>NAN</DistanceMeters>
          </Trackpoint>
          <Trackpoint>
            <Time>2020-12-05T10:19:09.000Z</Time>
            <Position>
              <LatitudeDegrees>36.828162409365177154541015625</LatitudeDegrees>
              <LongitudeDegrees>-4.38254336826503276824951171875</LongitudeDegrees>
            </Position>
            <AltitudeMeters>770.5999755859375</AltitudeMeters>
            <DistanceMeters>NAN</DistanceMeters>
          </Trackpoint>
          <Trackpoint>
            <Time>2020-12-05T10:19:10.000Z</Time>
            <Position>
              <LatitudeDegrees>36.8281706236302852630615234375</LatitudeDegrees>
              <LongitudeDegrees>-4.38254705630242824554443359375</LongitudeDegrees>
            </Position>
            <AltitudeMeters>770.4000244140625</AltitudeMeters>
            <DistanceMeters>NAN</DistanceMeters>
          </Trackpoint>
          <Trackpoint>
            <Time>2020-12-05T10:19:11.000Z</Time>
            <Position>
              <LatitudeDegrees>36.82818110100924968719482421875</LatitudeDegrees>
              <LongitudeDegrees>-4.38254923559725284576416015625</LongitudeDegrees>
            </Position>
            <AltitudeMeters>770.20001220703125</AltitudeMeters>
            <DistanceMeters>NAN</DistanceMeters>
          </Trackpoint>
          <Trackpoint>
            <Time>2020-12-05T10:19:12.000Z</Time>
            <Position>
              <LatitudeDegrees>36.8281910754740238189697265625</LatitudeDegrees>
              <LongitudeDegrees>-4.38255208544433116912841796875</LongitudeDegrees>
            </Position>
            <AltitudeMeters>770</AltitudeMeters>
            <DistanceMeters>NAN</DistanceMeters>
          </Trackpoint>
          <Trackpoint>
            <Time>2020-12-05T10:19:13.000Z</Time>
            <Position>
              <LatitudeDegrees>36.82819987647235393524169921875</LatitudeDegrees>
              <LongitudeDegrees>-4.3825536780059337615966796875</LongitudeDegrees>
            </Position>
            <AltitudeMeters>769.79998779296875</AltitudeMeters>
            <DistanceMeters>NAN</DistanceMeters>
          </Trackpoint>
          <Trackpoint>
            <Time>2020-12-05T10:19:14.000Z</Time>
            <Position>
              <LatitudeDegrees>36.82820943184196949005126953125</LatitudeDegrees>
              <LongitudeDegrees>-4.38255560584366321563720703125</LongitudeDegrees>
            </Position>
            <AltitudeMeters>769.5999755859375</AltitudeMeters>
            <DistanceMeters>NAN</DistanceMeters>
          </Trackpoint>
          <Trackpoint>
            <Time>2020-12-05T10:19:15.000Z</Time>
            <Position>
              <LatitudeDegrees>36.82821764610707759857177734375</LatitudeDegrees>
              <LongitudeDegrees>-4.38255761750042438507080078125</LongitudeDegrees>
            </Position>
            <AltitudeMeters>769.4000244140625</AltitudeMeters>
            <DistanceMeters>NAN</DistanceMeters>
          </Trackpoint>
          <Trackpoint>
            <Time>2020-12-05T10:19:16.000Z</Time>
            <Position>
              <LatitudeDegrees>36.82822468690574169158935546875</LatitudeDegrees>
              <LongitudeDegrees>-4.3825593777000904083251953125</LongitudeDegrees>
            </Position>
            <AltitudeMeters>769</AltitudeMeters>
            <DistanceMeters>NAN</DistanceMeters>
          </Trackpoint>
          <Trackpoint>
            <Time>2020-12-05T10:19:17.000Z</Time>
            <Position>
              <LatitudeDegrees>36.82823256589472293853759765625</LatitudeDegrees>
              <LongitudeDegrees>-4.382560551166534423828125</LongitudeDegrees>
            </Position>
            <AltitudeMeters>768.79998779296875</AltitudeMeters>
            <DistanceMeters>NAN</DistanceMeters>
          </Trackpoint>
          <Trackpoint>
            <Time>2020-12-05T10:19:18.000Z</Time>
            <Position>
              <LatitudeDegrees>36.828242875635623931884765625</LatitudeDegrees>
              <LongitudeDegrees>-4.3825618922710418701171875</LongitudeDegrees>
            </Position>
            <AltitudeMeters>768.5999755859375</AltitudeMeters>
            <DistanceMeters>NAN</DistanceMeters>
          </Trackpoint>
          <Trackpoint>
            <Time>2020-12-05T10:19:19.000Z</Time>
            <Position>
              <LatitudeDegrees>36.82825502939522266387939453125</LatitudeDegrees>
              <LongitudeDegrees>-4.38256365247070789337158203125</LongitudeDegrees>
            </Position>
            <AltitudeMeters>768.5999755859375</AltitudeMeters>
            <DistanceMeters>NAN</DistanceMeters>
          </Trackpoint>
          <Trackpoint>
            <Time>2020-12-05T10:19:20.000Z</Time>
            <Position>
              <LatitudeDegrees>36.8282648362219333648681640625</LatitudeDegrees>
              <LongitudeDegrees>-4.3825650773942470550537109375</LongitudeDegrees>
            </Position>
            <AltitudeMeters>768.4000244140625</AltitudeMeters>
            <DistanceMeters>NAN</DistanceMeters>
          </Trackpoint>
          <Trackpoint>
            <Time>2020-12-05T10:19:21.000Z</Time>
            <Position>
              <LatitudeDegrees>36.8282728828489780426025390625</LatitudeDegrees>
              <LongitudeDegrees>-4.38256734050810337066650390625</LongitudeDegrees>
            </Position>
            <AltitudeMeters>768.4000244140625</AltitudeMeters>
            <DistanceMeters>NAN</DistanceMeters>
          </Trackpoint>
          <Trackpoint>
            <Time>2020-12-05T10:19:22.000Z</Time>
            <Position>
              <LatitudeDegrees>36.82827833108603954315185546875</LatitudeDegrees>
              <LongitudeDegrees>-4.3825724534690380096435546875</LongitudeDegrees>
            </Position>
            <AltitudeMeters>768.4000244140625</AltitudeMeters>
            <DistanceMeters>NAN</DistanceMeters>
          </Trackpoint>
          <Trackpoint>
            <Time>2020-12-05T10:19:23.000Z</Time>
            <Position>
              <LatitudeDegrees>36.82828553952276706695556640625</LatitudeDegrees>
              <LongitudeDegrees>-4.38257572241127490997314453125</LongitudeDegrees>
            </Position>
            <AltitudeMeters>768.4000244140625</AltitudeMeters>
            <DistanceMeters>NAN</DistanceMeters>
          </Trackpoint>
          <Trackpoint>
            <Time>2020-12-05T10:19:24.000Z</Time>
            <Position>
              <LatitudeDegrees>36.82829442434012889862060546875</LatitudeDegrees>
              <LongitudeDegrees>-4.38257597386837005615234375</LongitudeDegrees>
            </Position>
            <AltitudeMeters>768.4000244140625</AltitudeMeters>
            <DistanceMeters>NAN</DistanceMeters>
          </Trackpoint>
          <Trackpoint>
            <Time>2020-12-05T10:19:25.000Z</Time>
            <Position>
              <LatitudeDegrees>36.82830733247101306915283203125</LatitudeDegrees>
              <LongitudeDegrees>-4.382576979696750640869140625</LongitudeDegrees>
            </Position>
            <AltitudeMeters>768.5999755859375</AltitudeMeters>
            <DistanceMeters>NAN</DistanceMeters>
          </Trackpoint>
          <Trackpoint>
            <Time>2020-12-05T10:19:26.000Z</Time>
            <Position>
              <LatitudeDegrees>36.82832342572510242462158203125</LatitudeDegrees>
              <LongitudeDegrees>-4.38257857225835323333740234375</LongitudeDegrees>
            </Position>
            <AltitudeMeters>768.5999755859375</AltitudeMeters>
            <DistanceMeters>NAN</DistanceMeters>
          </Trackpoint>
          <Trackpoint>
            <Time>2020-12-05T10:19:27.000Z</Time>
            <Position>
              <LatitudeDegrees>36.8283342383801937103271484375</LatitudeDegrees>
              <LongitudeDegrees>-4.38257974572479724884033203125</LongitudeDegrees>
            </Position>
            <AltitudeMeters>768.4000244140625</AltitudeMeters>
            <DistanceMeters>NAN</DistanceMeters>
          </Trackpoint>
          <Trackpoint>
            <Time>2020-12-05T10:19:28.000Z</Time>
            <Position>
              <LatitudeDegrees>36.82834488339722156524658203125</LatitudeDegrees>
              <LongitudeDegrees>-4.38257999718189239501953125</LongitudeDegrees>
            </Position>
            <AltitudeMeters>768.4000244140625</AltitudeMeters>
            <DistanceMeters>NAN</DistanceMeters>
          </Trackpoint>
          <Trackpoint>
            <Time>2020-12-05T10:19:29.000Z</Time>
            <Position>
              <LatitudeDegrees>36.82835410349071025848388671875</LatitudeDegrees>
              <LongitudeDegrees>-4.38257689587771892547607421875</LongitudeDegrees>
            </Position>
            <AltitudeMeters>768.4000244140625</AltitudeMeters>
            <DistanceMeters>NAN</DistanceMeters>
          </Trackpoint>
          <Trackpoint>
            <Time>2020-12-05T10:19:30.000Z</Time>
            <Position>
              <LatitudeDegrees>36.82836265303194522857666015625</LatitudeDegrees>
              <LongitudeDegrees>-4.3825761415064334869384765625</LongitudeDegrees>
            </Position>
            <AltitudeMeters>768.20001220703125</AltitudeMeters>
            <DistanceMeters>NAN</DistanceMeters>
          </Trackpoint>
          <Trackpoint>
            <Time>2020-12-05T10:19:31.000Z</Time>
            <Position>
              <LatitudeDegrees>36.82837438769638538360595703125</LatitudeDegrees>
              <LongitudeDegrees>-4.38257538713514804840087890625</LongitudeDegrees>
            </Position>
            <AltitudeMeters>768.20001220703125</AltitudeMeters>
            <DistanceMeters>NAN</DistanceMeters>
          </Trackpoint>
          <Trackpoint>
            <Time>2020-12-05T10:19:32.000Z</Time>
            <Position>
              <LatitudeDegrees>36.8283835239708423614501953125</LatitudeDegrees>
              <LongitudeDegrees>-4.3825724534690380096435546875</LongitudeDegrees>
            </Position>
            <AltitudeMeters>768.20001220703125</AltitudeMeters>
            <DistanceMeters>NAN</DistanceMeters>
          </Trackpoint>
          <Trackpoint>
            <Time>2020-12-05T10:19:33.000Z</Time>
            <Position>
              <LatitudeDegrees>36.82839207351207733154296875</LatitudeDegrees>
              <LongitudeDegrees>-4.38256926834583282470703125</LongitudeDegrees>
            </Position>
            <AltitudeMeters>768.20001220703125</AltitudeMeters>
            <DistanceMeters>NAN</DistanceMeters>
          </Trackpoint>
          <Trackpoint>
            <Time>2020-12-05T10:19:34.000Z</Time>
            <Position>
              <LatitudeDegrees>36.82840204797685146331787109375</LatitudeDegrees>
              <LongitudeDegrees>-4.3825660832226276397705078125</LongitudeDegrees>
            </Position>
            <AltitudeMeters>768</AltitudeMeters>
            <DistanceMeters>NAN</DistanceMeters>
          </Trackpoint>
          <Trackpoint>
            <Time>2020-12-05T10:19:35.000Z</Time>
            <Position>
              <LatitudeDegrees>36.82841210626065731048583984375</LatitudeDegrees>
              <LongitudeDegrees>-4.3825650773942470550537109375</LongitudeDegrees>
            </Position>
            <AltitudeMeters>768</AltitudeMeters>
            <DistanceMeters>NAN</DistanceMeters>
          </Trackpoint>
          <Trackpoint>
            <Time>2020-12-05T10:19:36.000Z</Time>
            <Position>
              <LatitudeDegrees>36.8284209072589874267578125</LatitudeDegrees>
              <LongitudeDegrees>-4.38256532885134220123291015625</LongitudeDegrees>
            </Position>
            <AltitudeMeters>767.79998779296875</AltitudeMeters>
            <DistanceMeters>NAN</DistanceMeters>
          </Trackpoint>
          <Trackpoint>
            <Time>2020-12-05T10:19:37.000Z</Time>
            <Position>
              <LatitudeDegrees>36.82843138463795185089111328125</LatitudeDegrees>
              <LongitudeDegrees>-4.38256465829908847808837890625</LongitudeDegrees>
            </Position>
            <AltitudeMeters>767.5999755859375</AltitudeMeters>
            <DistanceMeters>NAN</DistanceMeters>
          </Trackpoint>
          <Trackpoint>
            <Time>2020-12-05T10:19:38.000Z</Time>
            <Position>
              <LatitudeDegrees>36.82844211347401142120361328125</LatitudeDegrees>
              <LongitudeDegrees>-4.382564239203929901123046875</LongitudeDegrees>
            </Position>
            <AltitudeMeters>767.4000244140625</AltitudeMeters>
            <DistanceMeters>NAN</DistanceMeters>
          </Trackpoint>
          <Trackpoint>
            <Time>2020-12-05T10:19:39.000Z</Time>
            <Position>
              <LatitudeDegrees>36.82845217175781726837158203125</LatitudeDegrees>
              <LongitudeDegrees>-4.382564239203929901123046875</LongitudeDegrees>
            </Position>
            <AltitudeMeters>767.20001220703125</AltitudeMeters>
            <DistanceMeters>NAN</DistanceMeters>
          </Trackpoint>
          <Trackpoint>
            <Time>2020-12-05T10:19:40.000Z</Time>
            <Position>
              <LatitudeDegrees>36.8284619785845279693603515625</LatitudeDegrees>
              <LongitudeDegrees>-4.382562227547168731689453125</LongitudeDegrees>
            </Position>
            <AltitudeMeters>766.79998779296875</AltitudeMeters>
            <DistanceMeters>NAN</DistanceMeters>
          </Trackpoint>
          <Trackpoint>
            <Time>2020-12-05T10:19:41.000Z</Time>
            <Position>
              <LatitudeDegrees>36.82847614400088787078857421875</LatitudeDegrees>
              <LongitudeDegrees>-4.38255694694817066192626953125</LongitudeDegrees>
            </Position>
            <AltitudeMeters>766.5999755859375</AltitudeMeters>
            <DistanceMeters>NAN</DistanceMeters>
          </Trackpoint>
          <Trackpoint>
            <Time>2020-12-05T10:19:42.000Z</Time>
            <Position>
              <LatitudeDegrees>36.82848955504596233367919921875</LatitudeDegrees>
              <LongitudeDegrees>-4.382548816502094268798828125</LongitudeDegrees>
            </Position>
            <AltitudeMeters>766.20001220703125</AltitudeMeters>
            <DistanceMeters>NAN</DistanceMeters>
          </Trackpoint>
          <Trackpoint>
            <Time>2020-12-05T10:19:43.000Z</Time>
            <Position>
              <LatitudeDegrees>36.828500367701053619384765625</LatitudeDegrees>
              <LongitudeDegrees>-4.3825395964086055755615234375</LongitudeDegrees>
            </Position>
            <AltitudeMeters>766</AltitudeMeters>
            <DistanceMeters>NAN</DistanceMeters>
          </Trackpoint>
          <Trackpoint>
            <Time>2020-12-05T10:19:44.000Z</Time>
            <Position>
              <LatitudeDegrees>36.82850874960422515869140625</LatitudeDegrees>
              <LongitudeDegrees>-4.3825315497815608978271484375</LongitudeDegrees>
            </Position>
            <AltitudeMeters>765.79998779296875</AltitudeMeters>
            <DistanceMeters>NAN</DistanceMeters>
          </Trackpoint>
          <Trackpoint>
            <Time>2020-12-05T10:19:45.000Z</Time>
            <Position>
              <LatitudeDegrees>36.82851822115480899810791015625</LatitudeDegrees>
              <LongitudeDegrees>-4.38252375461161136627197265625</LongitudeDegrees>
            </Position>
            <AltitudeMeters>765.79998779296875</AltitudeMeters>
            <DistanceMeters>NAN</DistanceMeters>
          </Trackpoint>
          <Trackpoint>
            <Time>2020-12-05T10:19:46.000Z</Time>
            <Position>
              <LatitudeDegrees>36.828527189791202545166015625</LatitudeDegrees>
              <LongitudeDegrees>-4.3825161270797252655029296875</LongitudeDegrees>
            </Position>
            <AltitudeMeters>765.79998779296875</AltitudeMeters>
            <DistanceMeters>NAN</DistanceMeters>
          </Trackpoint>
          <Trackpoint>
            <Time>2020-12-05T10:19:47.000Z</Time>
            <Position>
              <LatitudeDegrees>36.82853682897984981536865234375</LatitudeDegrees>
              <LongitudeDegrees>-4.38251067884266376495361328125</LongitudeDegrees>
            </Position>
            <AltitudeMeters>765.79998779296875</AltitudeMeters>
            <DistanceMeters>NAN</DistanceMeters>
          </Trackpoint>
          <Trackpoint>
            <Time>2020-12-05T10:19:48.000Z</Time>
            <Position>
              <LatitudeDegrees>36.8285461328923702239990234375</LatitudeDegrees>
              <LongitudeDegrees>-4.3825030513107776641845703125</LongitudeDegrees>
            </Position>
            <AltitudeMeters>765.79998779296875</AltitudeMeters>
            <DistanceMeters>NAN</DistanceMeters>
          </Trackpoint>
          <Trackpoint>
            <Time>2020-12-05T10:19:49.000Z</Time>
            <Position>
              <LatitudeDegrees>36.828554682433605194091796875</LatitudeDegrees>
              <LongitudeDegrees>-4.382495842874050140380859375</LongitudeDegrees>
            </Position>
            <AltitudeMeters>765.79998779296875</AltitudeMeters>
            <DistanceMeters>NAN</DistanceMeters>
          </Trackpoint>
          <Trackpoint>
            <Time>2020-12-05T10:19:50.000Z</Time>
            <Position>
              <LatitudeDegrees>36.82856314815580844879150390625</LatitudeDegrees>
              <LongitudeDegrees>-4.38248880207538604736328125</LongitudeDegrees>
            </Position>
            <AltitudeMeters>766</AltitudeMeters>
            <DistanceMeters>NAN</DistanceMeters>
          </Trackpoint>
          <Trackpoint>
            <Time>2020-12-05T10:19:51.000Z</Time>
            <Position>
              <LatitudeDegrees>36.82856985367834568023681640625</LatitudeDegrees>
              <LongitudeDegrees>-4.38248083926737308502197265625</LongitudeDegrees>
            </Position>
            <AltitudeMeters>766</AltitudeMeters>
            <DistanceMeters>NAN</DistanceMeters>
          </Trackpoint>
          <Trackpoint>
            <Time>2020-12-05T10:19:52.000Z</Time>
            <Position>
              <LatitudeDegrees>36.82857873849570751190185546875</LatitudeDegrees>
              <LongitudeDegrees>-4.38246868550777435302734375</LongitudeDegrees>
            </Position>
            <AltitudeMeters>766.20001220703125</AltitudeMeters>
            <DistanceMeters>NAN</DistanceMeters>
          </Trackpoint>
          <Trackpoint>
            <Time>2020-12-05T10:19:53.000Z</Time>
            <Position>
              <LatitudeDegrees>36.82858913205564022064208984375</LatitudeDegrees>
              <LongitudeDegrees>-4.38245787285268306732177734375</LongitudeDegrees>
            </Position>
            <AltitudeMeters>766.20001220703125</AltitudeMeters>
            <DistanceMeters>NAN</DistanceMeters>
          </Trackpoint>
          <Trackpoint>
            <Time>2020-12-05T10:19:54.000Z</Time>
            <Position>
              <LatitudeDegrees>36.82859885506331920623779296875</LatitudeDegrees>
              <LongitudeDegrees>-4.38244747929275035858154296875</LongitudeDegrees>
            </Position>
            <AltitudeMeters>766.20001220703125</AltitudeMeters>
            <DistanceMeters>NAN</DistanceMeters>
          </Trackpoint>
          <Trackpoint>
            <Time>2020-12-05T10:19:55.000Z</Time>
            <Position>
              <LatitudeDegrees>36.82860908098518848419189453125</LatitudeDegrees>
              <LongitudeDegrees>-4.38244295306503772735595703125</LongitudeDegrees>
            </Position>
            <AltitudeMeters>766.20001220703125</AltitudeMeters>
            <DistanceMeters>NAN</DistanceMeters>
          </Trackpoint>
          <Trackpoint>
            <Time>2020-12-05T10:19:56.000Z</Time>
            <Position>
              <LatitudeDegrees>36.82861913926899433135986328125</LatitudeDegrees>
              <LongitudeDegrees>-4.3824333138763904571533203125</LongitudeDegrees>
            </Position>
            <AltitudeMeters>766</AltitudeMeters>
            <DistanceMeters>NAN</DistanceMeters>
          </Trackpoint>
          <Trackpoint>
            <Time>2020-12-05T10:19:57.000Z</Time>
            <Position>
              <LatitudeDegrees>36.82862869463860988616943359375</LatitudeDegrees>
              <LongitudeDegrees>-4.3824205733835697174072265625</LongitudeDegrees>
            </Position>
            <AltitudeMeters>766</AltitudeMeters>
            <DistanceMeters>NAN</DistanceMeters>
          </Trackpoint>
          <Trackpoint>
            <Time>2020-12-05T10:19:58.000Z</Time>
            <Position>
              <LatitudeDegrees>36.82863858528435230255126953125</LatitudeDegrees>
              <LongitudeDegrees>-4.3824090063571929931640625</LongitudeDegrees>
            </Position>
            <AltitudeMeters>765.79998779296875</AltitudeMeters>
            <DistanceMeters>NAN</DistanceMeters>
          </Trackpoint>
          <Trackpoint>
            <Time>2020-12-05T10:19:59.000Z</Time>
            <Position>
              <LatitudeDegrees>36.82864679954946041107177734375</LatitudeDegrees>
              <LongitudeDegrees>-4.382398612797260284423828125</LongitudeDegrees>
            </Position>
            <AltitudeMeters>765.79998779296875</AltitudeMeters>
            <DistanceMeters>NAN</DistanceMeters>
          </Trackpoint>
          <Trackpoint>
            <Time>2020-12-05T10:20:00.000Z</Time>
            <Position>
              <LatitudeDegrees>36.82865350507199764251708984375</LatitudeDegrees>
              <LongitudeDegrees>-4.38238947652280330657958984375</LongitudeDegrees>
            </Position>
            <AltitudeMeters>765.5999755859375</AltitudeMeters>
            <DistanceMeters>NAN</DistanceMeters>
          </Trackpoint>
          <Trackpoint>
            <Time>2020-12-05T10:20:01.000Z</Time>
            <Position>
              <LatitudeDegrees>36.82865970768034458160400390625</LatitudeDegrees>
              <LongitudeDegrees>-4.38238419592380523681640625</LongitudeDegrees>
            </Position>
            <AltitudeMeters>765.5999755859375</AltitudeMeters>
            <DistanceMeters>NAN</DistanceMeters>
          </Trackpoint>
          <Trackpoint>
            <Time>2020-12-05T10:20:02.000Z</Time>
            <Position>
              <LatitudeDegrees>36.8286648206412792205810546875</LatitudeDegrees>
              <LongitudeDegrees>-4.38237606547772884368896484375</LongitudeDegrees>
            </Position>
            <AltitudeMeters>765.4000244140625</AltitudeMeters>
            <DistanceMeters>NAN</DistanceMeters>
          </Trackpoint>
          <Trackpoint>
            <Time>2020-12-05T10:20:03.000Z</Time>
            <Position>
              <LatitudeDegrees>36.82867714203894138336181640625</LatitudeDegrees>
              <LongitudeDegrees>-4.382368437945842742919921875</LongitudeDegrees>
            </Position>
            <AltitudeMeters>765.4000244140625</AltitudeMeters>
            <DistanceMeters>NAN</DistanceMeters>
          </Trackpoint>
          <Trackpoint>
            <Time>2020-12-05T10:20:04.000Z</Time>
            <Position>
              <LatitudeDegrees>36.828686781227588653564453125</LatitudeDegrees>
              <LongitudeDegrees>-4.3823622353374958038330078125</LongitudeDegrees>
            </Position>
            <AltitudeMeters>765.20001220703125</AltitudeMeters>
            <DistanceMeters>NAN</DistanceMeters>
          </Trackpoint>
          <Trackpoint>
            <Time>2020-12-05T10:20:05.000Z</Time>
            <Position>
              <LatitudeDegrees>36.82869977317750453948974609375</LatitudeDegrees>
              <LongitudeDegrees>-4.38235594891011714935302734375</LongitudeDegrees>
            </Position>
            <AltitudeMeters>765</AltitudeMeters>
            <DistanceMeters>NAN</DistanceMeters>
          </Trackpoint>
          <Trackpoint>
            <Time>2020-12-05T10:20:06.000Z</Time>
            <Position>
              <LatitudeDegrees>36.82870999909937381744384765625</LatitudeDegrees>
              <LongitudeDegrees>-4.38235066831111907958984375</LongitudeDegrees>
            </Position>
            <AltitudeMeters>765</AltitudeMeters>
            <DistanceMeters>NAN</DistanceMeters>
          </Trackpoint>
          <Trackpoint>
            <Time>2020-12-05T10:20:07.000Z</Time>
            <Position>
              <LatitudeDegrees>36.82872190140187740325927734375</LatitudeDegrees>
              <LongitudeDegrees>-4.38234320841729640960693359375</LongitudeDegrees>
            </Position>
            <AltitudeMeters>765</AltitudeMeters>
            <DistanceMeters>NAN</DistanceMeters>
          </Trackpoint>
          <Trackpoint>
            <Time>2020-12-05T10:20:08.000Z</Time>
            <Position>
              <LatitudeDegrees>36.82873330079019069671630859375</LatitudeDegrees>
              <LongitudeDegrees>-4.38233382068574428558349609375</LongitudeDegrees>
            </Position>
            <AltitudeMeters>764.79998779296875</AltitudeMeters>
            <DistanceMeters>NAN</DistanceMeters>
          </Trackpoint>
          <Trackpoint>
            <Time>2020-12-05T10:20:09.000Z</Time>
            <Position>
              <LatitudeDegrees>36.828745789825916290283203125</LatitudeDegrees>
              <LongitudeDegrees>-4.3823258578777313232421875</LongitudeDegrees>
            </Position>
            <AltitudeMeters>764.79998779296875</AltitudeMeters>
            <DistanceMeters>NAN</DistanceMeters>
          </Trackpoint>
          <Trackpoint>
            <Time>2020-12-05T10:20:10.000Z</Time>
            <Position>
              <LatitudeDegrees>36.8287603743374347686767578125</LatitudeDegrees>
              <LongitudeDegrees>-4.382321834564208984375</LongitudeDegrees>
            </Position>
            <AltitudeMeters>764.79998779296875</AltitudeMeters>
            <DistanceMeters>NAN</DistanceMeters>
          </Trackpoint>
          <Trackpoint>
            <Time>2020-12-05T10:20:11.000Z</Time>
            <Position>
              <LatitudeDegrees>36.82877562940120697021484375</LatitudeDegrees>
              <LongitudeDegrees>-4.38232158310711383819580078125</LongitudeDegrees>
            </Position>
            <AltitudeMeters>764.5999755859375</AltitudeMeters>
            <DistanceMeters>NAN</DistanceMeters>
          </Trackpoint>
          <Trackpoint>
            <Time>2020-12-05T10:20:12.000Z</Time>
            <Position>
              <LatitudeDegrees>36.82878493331372737884521484375</LatitudeDegrees>
              <LongitudeDegrees>-4.382320828735828399658203125</LongitudeDegrees>
            </Position>
            <AltitudeMeters>764.5999755859375</AltitudeMeters>
            <DistanceMeters>NAN</DistanceMeters>
          </Trackpoint>
          <Trackpoint>
            <Time>2020-12-05T10:20:13.000Z</Time>
            <Position>
              <LatitudeDegrees>36.82879381813108921051025390625</LatitudeDegrees>
              <LongitudeDegrees>-4.3823216669261455535888671875</LongitudeDegrees>
            </Position>
            <AltitudeMeters>764.5999755859375</AltitudeMeters>
            <DistanceMeters>NAN</DistanceMeters>
          </Trackpoint>
          <Trackpoint>
            <Time>2020-12-05T10:20:14.000Z</Time>
            <Position>
              <LatitudeDegrees>36.828802116215229034423828125</LatitudeDegrees>
              <LongitudeDegrees>-4.3823250196874141693115234375</LongitudeDegrees>
            </Position>
            <AltitudeMeters>764.79998779296875</AltitudeMeters>
            <DistanceMeters>NAN</DistanceMeters>
          </Trackpoint>
          <Trackpoint>
            <Time>2020-12-05T10:20:15.000Z</Time>
            <Position>
              <LatitudeDegrees>36.828810162842273712158203125</LatitudeDegrees>
              <LongitudeDegrees>-4.38232912681996822357177734375</LongitudeDegrees>
            </Position>
            <AltitudeMeters>764.5999755859375</AltitudeMeters>
            <DistanceMeters>NAN</DistanceMeters>
          </Trackpoint>
          <Trackpoint>
            <Time>2020-12-05T10:20:16.000Z</Time>
            <Position>
              <LatitudeDegrees>36.82881795801222324371337890625</LatitudeDegrees>
              <LongitudeDegrees>-4.382332898676395416259765625</LongitudeDegrees>
            </Position>
            <AltitudeMeters>764.5999755859375</AltitudeMeters>
            <DistanceMeters>NAN</DistanceMeters>
          </Trackpoint>
          <Trackpoint>
            <Time>2020-12-05T10:20:17.000Z</Time>
            <Position>
              <LatitudeDegrees>36.8288250826299190521240234375</LatitudeDegrees>
              <LongitudeDegrees>-4.38233700580894947052001953125</LongitudeDegrees>
            </Position>
            <AltitudeMeters>764.5999755859375</AltitudeMeters>
            <DistanceMeters>NAN</DistanceMeters>
          </Trackpoint>
          <Trackpoint>
            <Time>2020-12-05T10:20:18.000Z</Time>
            <Position>
              <LatitudeDegrees>36.8288324587047100067138671875</LatitudeDegrees>
              <LongitudeDegrees>-4.3823427893221378326416015625</LongitudeDegrees>
            </Position>
            <AltitudeMeters>764.4000244140625</AltitudeMeters>
            <DistanceMeters>NAN</DistanceMeters>
          </Trackpoint>
          <Trackpoint>
            <Time>2020-12-05T10:20:19.000Z</Time>
            <Position>
              <LatitudeDegrees>36.8288441933691501617431640625</LatitudeDegrees>
              <LongitudeDegrees>-4.382349662482738494873046875</LongitudeDegrees>
            </Position>
            <AltitudeMeters>764.4000244140625</AltitudeMeters>
            <DistanceMeters>NAN</DistanceMeters>
          </Trackpoint>
          <Trackpoint>
            <Time>2020-12-05T10:20:20.000Z</Time>
            <Position>
              <LatitudeDegrees>36.828854419291019439697265625</LatitudeDegrees>
              <LongitudeDegrees>-4.38235829584300518035888671875</LongitudeDegrees>
            </Position>
            <AltitudeMeters>764.4000244140625</AltitudeMeters>
            <DistanceMeters>NAN</DistanceMeters>
          </Trackpoint>
          <Trackpoint>
            <Time>2020-12-05T10:20:21.000Z</Time>
            <Position>
              <LatitudeDegrees>36.8288634717464447021484375</LatitudeDegrees>
              <LongitudeDegrees>-4.3823669292032718658447265625</LongitudeDegrees>
            </Position>
            <AltitudeMeters>764.4000244140625</AltitudeMeters>
            <DistanceMeters>NAN</DistanceMeters>
          </Trackpoint>
          <Trackpoint>
            <Time>2020-12-05T10:20:22.000Z</Time>
            <Position>
              <LatitudeDegrees>36.8288726918399333953857421875</LatitudeDegrees>
              <LongitudeDegrees>-4.3823776580393314361572265625</LongitudeDegrees>
            </Position>
            <AltitudeMeters>764.4000244140625</AltitudeMeters>
            <DistanceMeters>NAN</DistanceMeters>
          </Trackpoint>
          <Trackpoint>
            <Time>2020-12-05T10:20:23.000Z</Time>
            <Position>
              <LatitudeDegrees>36.82888618670403957366943359375</LatitudeDegrees>
              <LongitudeDegrees>-4.38238880597054958343505859375</LongitudeDegrees>
            </Position>
            <AltitudeMeters>764.4000244140625</AltitudeMeters>
            <DistanceMeters>NAN</DistanceMeters>
          </Trackpoint>
          <Trackpoint>
            <Time>2020-12-05T10:20:24.000Z</Time>
            <Position>
              <LatitudeDegrees>36.8288983404636383056640625</LatitudeDegrees>
              <LongitudeDegrees>-4.3823977746069431304931640625</LongitudeDegrees>
            </Position>
            <AltitudeMeters>764.20001220703125</AltitudeMeters>
            <DistanceMeters>NAN</DistanceMeters>
          </Trackpoint>
          <Trackpoint>
            <Time>2020-12-05T10:20:25.000Z</Time>
            <Position>
              <LatitudeDegrees>36.8289068900048732757568359375</LatitudeDegrees>
              <LongitudeDegrees>-4.38240691088140010833740234375</LongitudeDegrees>
            </Position>
            <AltitudeMeters>764.20001220703125</AltitudeMeters>
            <DistanceMeters>NAN</DistanceMeters>
          </Trackpoint>
          <Trackpoint>
            <Time>2020-12-05T10:20:26.000Z</Time>
            <Position>
              <LatitudeDegrees>36.82892222888767719268798828125</LatitudeDegrees>
              <LongitudeDegrees>-4.3824091739952564239501953125</LongitudeDegrees>
            </Position>
            <AltitudeMeters>764.20001220703125</AltitudeMeters>
            <DistanceMeters>NAN</DistanceMeters>
          </Trackpoint>
          <Trackpoint>
            <Time>2020-12-05T10:20:27.000Z</Time>
            <Position>
              <LatitudeDegrees>36.8289347179234027862548828125</LatitudeDegrees>
              <LongitudeDegrees>-4.3824155442416667938232421875</LongitudeDegrees>
            </Position>
            <AltitudeMeters>764</AltitudeMeters>
            <DistanceMeters>NAN</DistanceMeters>
          </Trackpoint>
          <Trackpoint>
            <Time>2020-12-05T10:20:28.000Z</Time>
            <Position>
              <LatitudeDegrees>36.82894863188266754150390625</LatitudeDegrees>
              <LongitudeDegrees>-4.38242040574550628662109375</LongitudeDegrees>
            </Position>
            <AltitudeMeters>763.79998779296875</AltitudeMeters>
            <DistanceMeters>NAN</DistanceMeters>
          </Trackpoint>
          <Trackpoint>
            <Time>2020-12-05T10:20:29.000Z</Time>
            <Position>
              <LatitudeDegrees>36.82895894162356853485107421875</LatitudeDegrees>
              <LongitudeDegrees>-4.38242350704967975616455078125</LongitudeDegrees>
            </Position>
            <AltitudeMeters>763.5999755859375</AltitudeMeters>
            <DistanceMeters>NAN</DistanceMeters>
          </Trackpoint>
          <Trackpoint>
            <Time>2020-12-05T10:20:30.000Z</Time>
            <Position>
              <LatitudeDegrees>36.82897017337381839752197265625</LatitudeDegrees>
              <LongitudeDegrees>-4.38242585398256778717041015625</LongitudeDegrees>
            </Position>
            <AltitudeMeters>763.5999755859375</AltitudeMeters>
            <DistanceMeters>NAN</DistanceMeters>
          </Trackpoint>
          <Trackpoint>
            <Time>2020-12-05T10:20:31.000Z</Time>
            <Position>
              <LatitudeDegrees>36.828985512256622314453125</LatitudeDegrees>
              <LongitudeDegrees>-4.3824256025254726409912109375</LongitudeDegrees>
            </Position>
            <AltitudeMeters>763.5999755859375</AltitudeMeters>
            <DistanceMeters>NAN</DistanceMeters>
          </Trackpoint>
          <Trackpoint>
            <Time>2020-12-05T10:20:32.000Z</Time>
            <Position>
              <LatitudeDegrees>36.82899414561688899993896484375</LatitudeDegrees>
              <LongitudeDegrees>-4.38242870382964611053466796875</LongitudeDegrees>
            </Position>
            <AltitudeMeters>763.5999755859375</AltitudeMeters>
            <DistanceMeters>NAN</DistanceMeters>
          </Trackpoint>
          <Trackpoint>
            <Time>2020-12-05T10:20:33.000Z</Time>
            <Position>
              <LatitudeDegrees>36.82900252752006053924560546875</LatitudeDegrees>
              <LongitudeDegrees>-4.382430799305438995361328125</LongitudeDegrees>
            </Position>
            <AltitudeMeters>763.4000244140625</AltitudeMeters>
            <DistanceMeters>NAN</DistanceMeters>
          </Trackpoint>
          <Trackpoint>
            <Time>2020-12-05T10:20:34.000Z</Time>
            <Position>
              <LatitudeDegrees>36.82901308871805667877197265625</LatitudeDegrees>
              <LongitudeDegrees>-4.3824353255331516265869140625</LongitudeDegrees>
            </Position>
            <AltitudeMeters>763.4000244140625</AltitudeMeters>
            <DistanceMeters>NAN</DistanceMeters>
          </Trackpoint>
          <Trackpoint>
            <Time>2020-12-05T10:20:35.000Z</Time>
            <Position>
              <LatitudeDegrees>36.8290245719254016876220703125</LatitudeDegrees>
              <LongitudeDegrees>-4.38243926502764225006103515625</LongitudeDegrees>
            </Position>
            <AltitudeMeters>763.20001220703125</AltitudeMeters>
            <DistanceMeters>NAN</DistanceMeters>
          </Trackpoint>
          <Trackpoint>
            <Time>2020-12-05T10:20:36.000Z</Time>
            <Position>
              <LatitudeDegrees>36.82903186418116092681884765625</LatitudeDegrees>
              <LongitudeDegrees>-4.3824410252273082733154296875</LongitudeDegrees>
            </Position>
            <AltitudeMeters>763.20001220703125</AltitudeMeters>
            <DistanceMeters>NAN</DistanceMeters>
          </Trackpoint>
          <Trackpoint>
            <Time>2020-12-05T10:20:37.000Z</Time>
            <Position>
              <LatitudeDegrees>36.8290378153324127197265625</LatitudeDegrees>
              <LongitudeDegrees>-4.3824450485408306121826171875</LongitudeDegrees>
            </Position>
            <AltitudeMeters>763</AltitudeMeters>
            <DistanceMeters>NAN</DistanceMeters>
          </Trackpoint>
          <Trackpoint>
            <Time>2020-12-05T10:20:38.000Z</Time>
            <Position>
              <LatitudeDegrees>36.82904343120753765106201171875</LatitudeDegrees>
              <LongitudeDegrees>-4.382448904216289520263671875</LongitudeDegrees>
            </Position>
            <AltitudeMeters>762.79998779296875</AltitudeMeters>
            <DistanceMeters>NAN</DistanceMeters>
          </Trackpoint>
          <Trackpoint>
            <Time>2020-12-05T10:20:39.000Z</Time>
            <Position>
              <LatitudeDegrees>36.829051561653614044189453125</LatitudeDegrees>
              <LongitudeDegrees>-4.382455609738826751708984375</LongitudeDegrees>
            </Position>
            <AltitudeMeters>762.79998779296875</AltitudeMeters>
            <DistanceMeters>NAN</DistanceMeters>
          </Trackpoint>
          <Trackpoint>
            <Time>2020-12-05T10:20:40.000Z</Time>
            <Position>
              <LatitudeDegrees>36.8290637992322444915771484375</LatitudeDegrees>
              <LongitudeDegrees>-4.3824655003845691680908203125</LongitudeDegrees>
            </Position>
            <AltitudeMeters>762.5999755859375</AltitudeMeters>
            <DistanceMeters>NAN</DistanceMeters>
          </Trackpoint>
          <Trackpoint>
            <Time>2020-12-05T10:20:41.000Z</Time>
            <Position>
              <LatitudeDegrees>36.82907511480152606964111328125</LatitudeDegrees>
              <LongitudeDegrees>-4.38247740268707275390625</LongitudeDegrees>
            </Position>
            <AltitudeMeters>762.5999755859375</AltitudeMeters>
            <DistanceMeters>NAN</DistanceMeters>
          </Trackpoint>
          <Trackpoint>
            <Time>2020-12-05T10:20:42.000Z</Time>
            <Position>
              <LatitudeDegrees>36.82908399961888790130615234375</LatitudeDegrees>
              <LongitudeDegrees>-4.38248880207538604736328125</LongitudeDegrees>
            </Position>
            <AltitudeMeters>762.5999755859375</AltitudeMeters>
            <DistanceMeters>NAN</DistanceMeters>
          </Trackpoint>
          <Trackpoint>
            <Time>2020-12-05T10:20:43.000Z</Time>
            <Position>
              <LatitudeDegrees>36.82908098213374614715576171875</LatitudeDegrees>
              <LongitudeDegrees>-4.38250355422496795654296875</LongitudeDegrees>
            </Position>
            <AltitudeMeters>762.4000244140625</AltitudeMeters>
            <DistanceMeters>NAN</DistanceMeters>
          </Trackpoint>
          <Trackpoint>
            <Time>2020-12-05T10:20:44.000Z</Time>
            <Position>
              <LatitudeDegrees>36.8290835805237293243408203125</LatitudeDegrees>
              <LongitudeDegrees>-4.38250833190977573394775390625</LongitudeDegrees>
            </Position>
            <AltitudeMeters>762.4000244140625</AltitudeMeters>
            <DistanceMeters>NAN</DistanceMeters>
          </Trackpoint>
          <Trackpoint>
            <Time>2020-12-05T10:20:45.000Z</Time>
            <Position>
              <LatitudeDegrees>36.82909003458917140960693359375</LatitudeDegrees>
              <LongitudeDegrees>-4.38251051120460033416748046875</LongitudeDegrees>
            </Position>
            <AltitudeMeters>762.20001220703125</AltitudeMeters>
            <DistanceMeters>NAN</DistanceMeters>
          </Trackpoint>
          <Trackpoint>
            <Time>2020-12-05T10:20:46.000Z</Time>
            <Position>
              <LatitudeDegrees>36.82909674011170864105224609375</LatitudeDegrees>
              <LongitudeDegrees>-4.38251302577555179595947265625</LongitudeDegrees>
            </Position>
            <AltitudeMeters>762</AltitudeMeters>
            <DistanceMeters>NAN</DistanceMeters>
          </Trackpoint>
          <Trackpoint>
            <Time>2020-12-05T10:20:47.000Z</Time>
            <Position>
              <LatitudeDegrees>36.829097829759120941162109375</LatitudeDegrees>
              <LongitudeDegrees>-4.38251939602196216583251953125</LongitudeDegrees>
            </Position>
            <AltitudeMeters>761.79998779296875</AltitudeMeters>
            <DistanceMeters>NAN</DistanceMeters>
          </Trackpoint>
          <Trackpoint>
            <Time>2020-12-05T10:20:48.000Z</Time>
            <Position>
              <LatitudeDegrees>36.82910394854843616485595703125</LatitudeDegrees>
              <LongitudeDegrees>-4.3825231678783893585205078125</LongitudeDegrees>
            </Position>
            <AltitudeMeters>761.5999755859375</AltitudeMeters>
            <DistanceMeters>NAN</DistanceMeters>
          </Trackpoint>
          <Trackpoint>
            <Time>2020-12-05T10:20:49.000Z</Time>
            <Position>
              <LatitudeDegrees>36.8291110731661319732666015625</LatitudeDegrees>
              <LongitudeDegrees>-4.3825285322964191436767578125</LongitudeDegrees>
            </Position>
            <AltitudeMeters>761.5999755859375</AltitudeMeters>
            <DistanceMeters>NAN</DistanceMeters>
          </Trackpoint>
          <Trackpoint>
            <Time>2020-12-05T10:20:50.000Z</Time>
            <Position>
              <LatitudeDegrees>36.829118616878986358642578125</LatitudeDegrees>
              <LongitudeDegrees>-4.3825392611324787139892578125</LongitudeDegrees>
            </Position>
            <AltitudeMeters>761.5999755859375</AltitudeMeters>
            <DistanceMeters>NAN</DistanceMeters>
          </Trackpoint>
          <Trackpoint>
            <Time>2020-12-05T10:20:51.000Z</Time>
            <Position>
              <LatitudeDegrees>36.829124987125396728515625</LatitudeDegrees>
              <LongitudeDegrees>-4.38255409710109233856201171875</LongitudeDegrees>
            </Position>
            <AltitudeMeters>761.4000244140625</AltitudeMeters>
            <DistanceMeters>NAN</DistanceMeters>
          </Trackpoint>
          <Trackpoint>
            <Time>2020-12-05T10:20:52.000Z</Time>
            <Position>
              <LatitudeDegrees>36.82913227938115596771240234375</LatitudeDegrees>
              <LongitudeDegrees>-4.38257060945034027099609375</LongitudeDegrees>
            </Position>
            <AltitudeMeters>761.20001220703125</AltitudeMeters>
            <DistanceMeters>NAN</DistanceMeters>
          </Trackpoint>
          <Trackpoint>
            <Time>2020-12-05T10:20:53.000Z</Time>
            <Position>
              <LatitudeDegrees>36.82913797907531261444091796875</LatitudeDegrees>
              <LongitudeDegrees>-4.38258661888539791107177734375</LongitudeDegrees>
            </Position>
            <AltitudeMeters>761</AltitudeMeters>
            <DistanceMeters>NAN</DistanceMeters>
          </Trackpoint>
          <Trackpoint>
            <Time>2020-12-05T10:20:54.000Z</Time>
            <Position>
              <LatitudeDegrees>36.82914351113140583038330078125</LatitudeDegrees>
              <LongitudeDegrees>-4.3825969286262989044189453125</LongitudeDegrees>
            </Position>
            <AltitudeMeters>761</AltitudeMeters>
            <DistanceMeters>NAN</DistanceMeters>
          </Trackpoint>
          <Trackpoint>
            <Time>2020-12-05T10:20:55.000Z</Time>
            <Position>
              <LatitudeDegrees>36.829152144491672515869140625</LatitudeDegrees>
              <LongitudeDegrees>-4.38260681927204132080078125</LongitudeDegrees>
            </Position>
            <AltitudeMeters>760.79998779296875</AltitudeMeters>
            <DistanceMeters>NAN</DistanceMeters>
          </Trackpoint>
          <Trackpoint>
            <Time>2020-12-05T10:20:56.000Z</Time>
            <Position>
              <LatitudeDegrees>36.829159520566463470458984375</LatitudeDegrees>
              <LongitudeDegrees>-4.38261813484132289886474609375</LongitudeDegrees>
            </Position>
            <AltitudeMeters>760.5999755859375</AltitudeMeters>
            <DistanceMeters>NAN</DistanceMeters>
          </Trackpoint>
          <Trackpoint>
            <Time>2020-12-05T10:20:57.000Z</Time>
            <Position>
              <LatitudeDegrees>36.82916630990803241729736328125</LatitudeDegrees>
              <LongitudeDegrees>-4.38262819312512874603271484375</LongitudeDegrees>
            </Position>
            <AltitudeMeters>760.4000244140625</AltitudeMeters>
            <DistanceMeters>NAN</DistanceMeters>
          </Trackpoint>
          <Trackpoint>
            <Time>2020-12-05T10:20:58.000Z</Time>
            <Position>
              <LatitudeDegrees>36.82917234487831592559814453125</LatitudeDegrees>
              <LongitudeDegrees>-4.382637329399585723876953125</LongitudeDegrees>
            </Position>
            <AltitudeMeters>760.20001220703125</AltitudeMeters>
            <DistanceMeters>NAN</DistanceMeters>
          </Trackpoint>
          <Trackpoint>
            <Time>2020-12-05T10:20:59.000Z</Time>
            <Position>
              <LatitudeDegrees>36.82917737402021884918212890625</LatitudeDegrees>
              <LongitudeDegrees>-4.3826488964259624481201171875</LongitudeDegrees>
            </Position>
            <AltitudeMeters>760</AltitudeMeters>
            <DistanceMeters>NAN</DistanceMeters>
          </Trackpoint>
          <Trackpoint>
            <Time>2020-12-05T10:21:00.000Z</Time>
            <Position>
              <LatitudeDegrees>36.82918324135243892669677734375</LatitudeDegrees>
              <LongitudeDegrees>-4.3826599605381488800048828125</LongitudeDegrees>
            </Position>
            <AltitudeMeters>760</AltitudeMeters>
            <DistanceMeters>NAN</DistanceMeters>
          </Trackpoint>
          <Trackpoint>
            <Time>2020-12-05T10:21:01.000Z</Time>
            <Position>
              <LatitudeDegrees>36.82918508537113666534423828125</LatitudeDegrees>
              <LongitudeDegrees>-4.3826747126877307891845703125</LongitudeDegrees>
            </Position>
            <AltitudeMeters>759.79998779296875</AltitudeMeters>
            <DistanceMeters>NAN</DistanceMeters>
          </Trackpoint>
          <Trackpoint>
            <Time>2020-12-05T10:21:02.000Z</Time>
            <Position>
              <LatitudeDegrees>36.8291866779327392578125</LatitudeDegrees>
              <LongitudeDegrees>-4.38268837518990039825439453125</LongitudeDegrees>
            </Position>
            <AltitudeMeters>759.79998779296875</AltitudeMeters>
            <DistanceMeters>NAN</DistanceMeters>
          </Trackpoint>
          <Trackpoint>
            <Time>2020-12-05T10:21:03.000Z</Time>
            <Position>
              <LatitudeDegrees>36.82918659411370754241943359375</LatitudeDegrees>
              <LongitudeDegrees>-4.38270094804465770721435546875</LongitudeDegrees>
            </Position>
            <AltitudeMeters>759.5999755859375</AltitudeMeters>
            <DistanceMeters>NAN</DistanceMeters>
          </Trackpoint>
          <Trackpoint>
            <Time>2020-12-05T10:21:04.000Z</Time>
            <Position>
              <LatitudeDegrees>36.8291895277798175811767578125</LatitudeDegrees>
              <LongitudeDegrees>-4.3827139399945735931396484375</LongitudeDegrees>
            </Position>
            <AltitudeMeters>759.4000244140625</AltitudeMeters>
            <DistanceMeters>NAN</DistanceMeters>
          </Trackpoint>
          <Trackpoint>
            <Time>2020-12-05T10:21:05.000Z</Time>
            <Position>
              <LatitudeDegrees>36.82919346727430820465087890625</LatitudeDegrees>
              <LongitudeDegrees>-4.3827256746590137481689453125</LongitudeDegrees>
            </Position>
            <AltitudeMeters>759.4000244140625</AltitudeMeters>
            <DistanceMeters>NAN</DistanceMeters>
          </Trackpoint>
          <Trackpoint>
            <Time>2020-12-05T10:21:06.000Z</Time>
            <Position>
              <LatitudeDegrees>36.82919832877814769744873046875</LatitudeDegrees>
              <LongitudeDegrees>-4.38273690640926361083984375</LongitudeDegrees>
            </Position>
            <AltitudeMeters>759.20001220703125</AltitudeMeters>
            <DistanceMeters>NAN</DistanceMeters>
          </Trackpoint>
          <Trackpoint>
            <Time>2020-12-05T10:21:07.000Z</Time>
            <Position>
              <LatitudeDegrees>36.82920520193874835968017578125</LatitudeDegrees>
              <LongitudeDegrees>-4.3827478028833866119384765625</LongitudeDegrees>
            </Position>
            <AltitudeMeters>759</AltitudeMeters>
            <DistanceMeters>NAN</DistanceMeters>
          </Trackpoint>
          <Trackpoint>
            <Time>2020-12-05T10:21:08.000Z</Time>
            <Position>
              <LatitudeDegrees>36.82921391911804676055908203125</LatitudeDegrees>
              <LongitudeDegrees>-4.3827550113201141357421875</LongitudeDegrees>
            </Position>
            <AltitudeMeters>759</AltitudeMeters>
            <DistanceMeters>NAN</DistanceMeters>
          </Trackpoint>
          <Trackpoint>
            <Time>2020-12-05T10:21:09.000Z</Time>
            <Position>
              <LatitudeDegrees>36.82922464795410633087158203125</LatitudeDegrees>
              <LongitudeDegrees>-4.3827618844807147979736328125</LongitudeDegrees>
            </Position>
            <AltitudeMeters>758.79998779296875</AltitudeMeters>
            <DistanceMeters>NAN</DistanceMeters>
          </Trackpoint>
          <Trackpoint>
            <Time>2020-12-05T10:21:10.000Z</Time>
            <Position>
              <LatitudeDegrees>36.8292354606091976165771484375</LatitudeDegrees>
              <LongitudeDegrees>-4.38277269713580608367919921875</LongitudeDegrees>
            </Position>
            <AltitudeMeters>758.5999755859375</AltitudeMeters>
            <DistanceMeters>NAN</DistanceMeters>
          </Trackpoint>
          <Trackpoint>
            <Time>2020-12-05T10:21:11.000Z</Time>
            <Position>
              <LatitudeDegrees>36.8292468599975109100341796875</LatitudeDegrees>
              <LongitudeDegrees>-4.38278610818088054656982421875</LongitudeDegrees>
            </Position>
            <AltitudeMeters>758.20001220703125</AltitudeMeters>
            <DistanceMeters>NAN</DistanceMeters>
          </Trackpoint>
          <Trackpoint>
            <Time>2020-12-05T10:21:12.000Z</Time>
            <Position>
              <LatitudeDegrees>36.82925976812839508056640625</LatitudeDegrees>
              <LongitudeDegrees>-4.38279985450208187103271484375</LongitudeDegrees>
            </Position>
            <AltitudeMeters>758.20001220703125</AltitudeMeters>
            <DistanceMeters>NAN</DistanceMeters>
          </Trackpoint>
          <Trackpoint>
            <Time>2020-12-05T10:21:13.000Z</Time>
            <Position>
              <LatitudeDegrees>36.82926756329834461212158203125</LatitudeDegrees>
              <LongitudeDegrees>-4.38281603157520294189453125</LongitudeDegrees>
            </Position>
            <AltitudeMeters>758</AltitudeMeters>
            <DistanceMeters>NAN</DistanceMeters>
          </Trackpoint>
          <Trackpoint>
            <Time>2020-12-05T10:21:14.000Z</Time>
            <Position>
              <LatitudeDegrees>36.829273514449596405029296875</LatitudeDegrees>
              <LongitudeDegrees>-4.3828274309635162353515625</LongitudeDegrees>
            </Position>
            <AltitudeMeters>757.79998779296875</AltitudeMeters>
            <DistanceMeters>NAN</DistanceMeters>
          </Trackpoint>
          <Trackpoint>
            <Time>2020-12-05T10:21:15.000Z</Time>
            <Position>
              <LatitudeDegrees>36.82928147725760936737060546875</LatitudeDegrees>
              <LongitudeDegrees>-4.38283623196184635162353515625</LongitudeDegrees>
            </Position>
            <AltitudeMeters>757.79998779296875</AltitudeMeters>
            <DistanceMeters>NAN</DistanceMeters>
          </Trackpoint>
          <Trackpoint>
            <Time>2020-12-05T10:21:16.000Z</Time>
            <Position>
              <LatitudeDegrees>36.8292897753417491912841796875</LatitudeDegrees>
              <LongitudeDegrees>-4.3828403390944004058837890625</LongitudeDegrees>
            </Position>
            <AltitudeMeters>757.79998779296875</AltitudeMeters>
            <DistanceMeters>NAN</DistanceMeters>
          </Trackpoint>
          <Trackpoint>
            <Time>2020-12-05T10:21:17.000Z</Time>
            <Position>
              <LatitudeDegrees>36.8292974866926670074462890625</LatitudeDegrees>
              <LongitudeDegrees>-4.3828420154750347137451171875</LongitudeDegrees>
            </Position>
            <AltitudeMeters>757.5999755859375</AltitudeMeters>
            <DistanceMeters>NAN</DistanceMeters>
          </Trackpoint>
          <Trackpoint>
            <Time>2020-12-05T10:21:18.000Z</Time>
            <Position>
              <LatitudeDegrees>36.82930343784391880035400390625</LatitudeDegrees>
              <LongitudeDegrees>-4.382843859493732452392578125</LongitudeDegrees>
            </Position>
            <AltitudeMeters>757.5999755859375</AltitudeMeters>
            <DistanceMeters>NAN</DistanceMeters>
          </Trackpoint>
          <Trackpoint>
            <Time>2020-12-05T10:21:19.000Z</Time>
            <Position>
              <LatitudeDegrees>36.82931005954742431640625</LatitudeDegrees>
              <LongitudeDegrees>-4.382843859493732452392578125</LongitudeDegrees>
            </Position>
            <AltitudeMeters>757.5999755859375</AltitudeMeters>
            <DistanceMeters>NAN</DistanceMeters>
          </Trackpoint>
          <Trackpoint>
            <Time>2020-12-05T10:21:20.000Z</Time>
            <Position>
              <LatitudeDegrees>36.8293159268796443939208984375</LatitudeDegrees>
              <LongitudeDegrees>-4.38284528441727161407470703125</LongitudeDegrees>
            </Position>
            <AltitudeMeters>757.4000244140625</AltitudeMeters>
            <DistanceMeters>NAN</DistanceMeters>
          </Trackpoint>
          <Trackpoint>
            <Time>2020-12-05T10:21:21.000Z</Time>
            <Position>
              <LatitudeDegrees>36.8293212912976741790771484375</LatitudeDegrees>
              <LongitudeDegrees>-4.3828480504453182220458984375</LongitudeDegrees>
            </Position>
            <AltitudeMeters>757.20001220703125</AltitudeMeters>
            <DistanceMeters>NAN</DistanceMeters>
          </Trackpoint>
          <Trackpoint>
            <Time>2020-12-05T10:21:22.000Z</Time>
            <Position>
              <LatitudeDegrees>36.82932774536311626434326171875</LatitudeDegrees>
              <LongitudeDegrees>-4.38285048119723796844482421875</LongitudeDegrees>
            </Position>
            <AltitudeMeters>757.20001220703125</AltitudeMeters>
            <DistanceMeters>NAN</DistanceMeters>
          </Trackpoint>
          <Trackpoint>
            <Time>2020-12-05T10:21:23.000Z</Time>
            <Position>
              <LatitudeDegrees>36.82933227159082889556884765625</LatitudeDegrees>
              <LongitudeDegrees>-4.382853917777538299560546875</LongitudeDegrees>
            </Position>
            <AltitudeMeters>757.20001220703125</AltitudeMeters>
            <DistanceMeters>NAN</DistanceMeters>
          </Trackpoint>
          <Trackpoint>
            <Time>2020-12-05T10:21:24.000Z</Time>
            <Position>
              <LatitudeDegrees>36.8293360434472560882568359375</LatitudeDegrees>
              <LongitudeDegrees>-4.3828582763671875</LongitudeDegrees>
            </Position>
            <AltitudeMeters>757</AltitudeMeters>
            <DistanceMeters>NAN</DistanceMeters>
          </Trackpoint>
          <Trackpoint>
            <Time>2020-12-05T10:21:25.000Z</Time>
            <Position>
              <LatitudeDegrees>36.82934400625526905059814453125</LatitudeDegrees>
              <LongitudeDegrees>-4.38286456279456615447998046875</LongitudeDegrees>
            </Position>
            <AltitudeMeters>757</AltitudeMeters>
            <DistanceMeters>NAN</DistanceMeters>
          </Trackpoint>
          <Trackpoint>
            <Time>2020-12-05T10:21:26.000Z</Time>
            <Position>
              <LatitudeDegrees>36.82935104705393314361572265625</LatitudeDegrees>
              <LongitudeDegrees>-4.38286959193646907806396484375</LongitudeDegrees>
            </Position>
            <AltitudeMeters>757</AltitudeMeters>
            <DistanceMeters>NAN</DistanceMeters>
          </Trackpoint>
          <Trackpoint>
            <Time>2020-12-05T10:21:27.000Z</Time>
            <Position>
              <LatitudeDegrees>36.82935926131904125213623046875</LatitudeDegrees>
              <LongitudeDegrees>-4.3828742019832134246826171875</LongitudeDegrees>
            </Position>
            <AltitudeMeters>756.79998779296875</AltitudeMeters>
            <DistanceMeters>NAN</DistanceMeters>
          </Trackpoint>
          <Trackpoint>
            <Time>2020-12-05T10:21:28.000Z</Time>
            <Position>
              <LatitudeDegrees>36.82936965487897396087646484375</LatitudeDegrees>
              <LongitudeDegrees>-4.382879734039306640625</LongitudeDegrees>
            </Position>
            <AltitudeMeters>756.5999755859375</AltitudeMeters>
            <DistanceMeters>NAN</DistanceMeters>
          </Trackpoint>
          <Trackpoint>
            <Time>2020-12-05T10:21:29.000Z</Time>
            <Position>
              <LatitudeDegrees>36.829382143914699554443359375</LatitudeDegrees>
              <LongitudeDegrees>-4.38288434408605098724365234375</LongitudeDegrees>
            </Position>
            <AltitudeMeters>756.5999755859375</AltitudeMeters>
            <DistanceMeters>NAN</DistanceMeters>
          </Trackpoint>
          <Trackpoint>
            <Time>2020-12-05T10:21:30.000Z</Time>
            <Position>
              <LatitudeDegrees>36.8293933756649494171142578125</LatitudeDegrees>
              <LongitudeDegrees>-4.3828866071999073028564453125</LongitudeDegrees>
            </Position>
            <AltitudeMeters>756.5999755859375</AltitudeMeters>
            <DistanceMeters>NAN</DistanceMeters>
          </Trackpoint>
          <Trackpoint>
            <Time>2020-12-05T10:21:31.000Z</Time>
            <Position>
              <LatitudeDegrees>36.8294054456055164337158203125</LatitudeDegrees>
              <LongitudeDegrees>-4.38288845121860504150390625</LongitudeDegrees>
            </Position>
            <AltitudeMeters>756.4000244140625</AltitudeMeters>
            <DistanceMeters>NAN</DistanceMeters>
          </Trackpoint>
          <Trackpoint>
            <Time>2020-12-05T10:21:32.000Z</Time>
            <Position>
              <LatitudeDegrees>36.829418353736400604248046875</LatitudeDegrees>
              <LongitudeDegrees>-4.38289172016084194183349609375</LongitudeDegrees>
            </Position>
            <AltitudeMeters>756.4000244140625</AltitudeMeters>
            <DistanceMeters>NAN</DistanceMeters>
          </Trackpoint>
          <Trackpoint>
            <Time>2020-12-05T10:21:33.000Z</Time>
            <Position>
              <LatitudeDegrees>36.82943033985793590545654296875</LatitudeDegrees>
              <LongitudeDegrees>-4.38289842568337917327880859375</LongitudeDegrees>
            </Position>
            <AltitudeMeters>756.4000244140625</AltitudeMeters>
            <DistanceMeters>NAN</DistanceMeters>
          </Trackpoint>
          <Trackpoint>
            <Time>2020-12-05T10:21:34.000Z</Time>
            <Position>
              <LatitudeDegrees>36.82944794185459613800048828125</LatitudeDegrees>
              <LongitudeDegrees>-4.38290580175817012786865234375</LongitudeDegrees>
            </Position>
            <AltitudeMeters>756.4000244140625</AltitudeMeters>
            <DistanceMeters>NAN</DistanceMeters>
          </Trackpoint>
          <Trackpoint>
            <Time>2020-12-05T10:21:35.000Z</Time>
            <Position>
              <LatitudeDegrees>36.82945967651903629302978515625</LatitudeDegrees>
              <LongitudeDegrees>-4.3829105794429779052734375</LongitudeDegrees>
            </Position>
            <AltitudeMeters>756.5999755859375</AltitudeMeters>
            <DistanceMeters>NAN</DistanceMeters>
          </Trackpoint>
          <Trackpoint>
            <Time>2020-12-05T10:21:36.000Z</Time>
            <Position>
              <LatitudeDegrees>36.82947090826928615570068359375</LatitudeDegrees>
              <LongitudeDegrees>-4.3829177878797054290771484375</LongitudeDegrees>
            </Position>
            <AltitudeMeters>756.5999755859375</AltitudeMeters>
            <DistanceMeters>NAN</DistanceMeters>
          </Trackpoint>
          <Trackpoint>
            <Time>2020-12-05T10:21:37.000Z</Time>
            <Position>
              <LatitudeDegrees>36.82948113419115543365478515625</LatitudeDegrees>
              <LongitudeDegrees>-4.3829254992306232452392578125</LongitudeDegrees>
            </Position>
            <AltitudeMeters>756.79998779296875</AltitudeMeters>
            <DistanceMeters>NAN</DistanceMeters>
          </Trackpoint>
          <Trackpoint>
            <Time>2020-12-05T10:21:38.000Z</Time>
            <Position>
              <LatitudeDegrees>36.8294895999133586883544921875</LatitudeDegrees>
              <LongitudeDegrees>-4.3829318694770336151123046875</LongitudeDegrees>
            </Position>
            <AltitudeMeters>756.79998779296875</AltitudeMeters>
            <DistanceMeters>NAN</DistanceMeters>
          </Trackpoint>
          <Trackpoint>
            <Time>2020-12-05T10:21:39.000Z</Time>
            <Position>
              <LatitudeDegrees>36.82949823327362537384033203125</LatitudeDegrees>
              <LongitudeDegrees>-4.38293631188571453094482421875</LongitudeDegrees>
            </Position>
            <AltitudeMeters>757</AltitudeMeters>
            <DistanceMeters>NAN</DistanceMeters>
          </Trackpoint>
          <Trackpoint>
            <Time>2020-12-05T10:21:40.000Z</Time>
            <Position>
              <LatitudeDegrees>36.829507537186145782470703125</LatitudeDegrees>
              <LongitudeDegrees>-4.38293932937085628509521484375</LongitudeDegrees>
            </Position>
            <AltitudeMeters>757</AltitudeMeters>
            <DistanceMeters>NAN</DistanceMeters>
          </Trackpoint>
          <Trackpoint>
            <Time>2020-12-05T10:21:41.000Z</Time>
            <Position>
              <LatitudeDegrees>36.829521954059600830078125</LatitudeDegrees>
              <LongitudeDegrees>-4.3829405866563320159912109375</LongitudeDegrees>
            </Position>
            <AltitudeMeters>756.79998779296875</AltitudeMeters>
            <DistanceMeters>NAN</DistanceMeters>
          </Trackpoint>
          <Trackpoint>
            <Time>2020-12-05T10:21:42.000Z</Time>
            <Position>
              <LatitudeDegrees>36.8295341916382312774658203125</LatitudeDegrees>
              <LongitudeDegrees>-4.3829412572085857391357421875</LongitudeDegrees>
            </Position>
            <AltitudeMeters>756.79998779296875</AltitudeMeters>
            <DistanceMeters>NAN</DistanceMeters>
          </Trackpoint>
          <Trackpoint>
            <Time>2020-12-05T10:21:43.000Z</Time>
            <Position>
              <LatitudeDegrees>36.82954567484557628631591796875</LatitudeDegrees>
              <LongitudeDegrees>-4.38294318504631519317626953125</LongitudeDegrees>
            </Position>
            <AltitudeMeters>756.79998779296875</AltitudeMeters>
            <DistanceMeters>NAN</DistanceMeters>
          </Trackpoint>
          <Trackpoint>
            <Time>2020-12-05T10:21:44.000Z</Time>
            <Position>
              <LatitudeDegrees>36.82956059463322162628173828125</LatitudeDegrees>
              <LongitudeDegrees>-4.38294486142694950103759765625</LongitudeDegrees>
            </Position>
            <AltitudeMeters>756.5999755859375</AltitudeMeters>
            <DistanceMeters>NAN</DistanceMeters>
          </Trackpoint>
          <Trackpoint>
            <Time>2020-12-05T10:21:45.000Z</Time>
            <Position>
              <LatitudeDegrees>36.82957635261118412017822265625</LatitudeDegrees>
              <LongitudeDegrees>-4.38295039348304271697998046875</LongitudeDegrees>
            </Position>
            <AltitudeMeters>756.5999755859375</AltitudeMeters>
            <DistanceMeters>NAN</DistanceMeters>
          </Trackpoint>
          <Trackpoint>
            <Time>2020-12-05T10:21:46.000Z</Time>
            <Position>
              <LatitudeDegrees>36.8295875005424022674560546875</LatitudeDegrees>
              <LongitudeDegrees>-4.3829441070556640625</LongitudeDegrees>
            </Position>
            <AltitudeMeters>756.4000244140625</AltitudeMeters>
            <DistanceMeters>NAN</DistanceMeters>
          </Trackpoint>
          <Trackpoint>
            <Time>2020-12-05T10:21:47.000Z</Time>
            <Position>
              <LatitudeDegrees>36.8296022526919841766357421875</LatitudeDegrees>
              <LongitudeDegrees>-4.38293631188571453094482421875</LongitudeDegrees>
            </Position>
            <AltitudeMeters>756.20001220703125</AltitudeMeters>
            <DistanceMeters>NAN</DistanceMeters>
          </Trackpoint>
          <Trackpoint>
            <Time>2020-12-05T10:21:48.000Z</Time>
            <Position>
              <LatitudeDegrees>36.82961675338447093963623046875</LatitudeDegrees>
              <LongitudeDegrees>-4.38292625360190868377685546875</LongitudeDegrees>
            </Position>
            <AltitudeMeters>755.79998779296875</AltitudeMeters>
            <DistanceMeters>NAN</DistanceMeters>
          </Trackpoint>
          <Trackpoint>
            <Time>2020-12-05T10:21:49.000Z</Time>
            <Position>
              <LatitudeDegrees>36.82962832041084766387939453125</LatitudeDegrees>
              <LongitudeDegrees>-4.3829137645661830902099609375</LongitudeDegrees>
            </Position>
            <AltitudeMeters>755.4000244140625</AltitudeMeters>
            <DistanceMeters>NAN</DistanceMeters>
          </Trackpoint>
          <Trackpoint>
            <Time>2020-12-05T10:21:50.000Z</Time>
            <Position>
              <LatitudeDegrees>36.82963770814239978790283203125</LatitudeDegrees>
              <LongitudeDegrees>-4.38290395773947238922119140625</LongitudeDegrees>
            </Position>
            <AltitudeMeters>755.20001220703125</AltitudeMeters>
            <DistanceMeters>NAN</DistanceMeters>
          </Trackpoint>
          <Trackpoint>
            <Time>2020-12-05T10:21:51.000Z</Time>
            <Position>
              <LatitudeDegrees>36.82965078391134738922119140625</LatitudeDegrees>
              <LongitudeDegrees>-4.38288887031376361846923828125</LongitudeDegrees>
            </Position>
            <AltitudeMeters>755.20001220703125</AltitudeMeters>
            <DistanceMeters>NAN</DistanceMeters>
          </Trackpoint>
          <Trackpoint>
            <Time>2020-12-05T10:21:52.000Z</Time>
            <Position>
              <LatitudeDegrees>36.8296609260141849517822265625</LatitudeDegrees>
              <LongitudeDegrees>-4.382874704897403717041015625</LongitudeDegrees>
            </Position>
            <AltitudeMeters>755.20001220703125</AltitudeMeters>
            <DistanceMeters>NAN</DistanceMeters>
          </Trackpoint>
          <Trackpoint>
            <Time>2020-12-05T10:21:53.000Z</Time>
            <Position>
              <LatitudeDegrees>36.829672157764434814453125</LatitudeDegrees>
              <LongitudeDegrees>-4.38286188058555126190185546875</LongitudeDegrees>
            </Position>
            <AltitudeMeters>755</AltitudeMeters>
            <DistanceMeters>NAN</DistanceMeters>
          </Trackpoint>
          <Trackpoint>
            <Time>2020-12-05T10:21:54.000Z</Time>
            <Position>
              <LatitudeDegrees>36.8296850658953189849853515625</LatitudeDegrees>
              <LongitudeDegrees>-4.3828487209975719451904296875</LongitudeDegrees>
            </Position>
            <AltitudeMeters>754.79998779296875</AltitudeMeters>
            <DistanceMeters>NAN</DistanceMeters>
          </Trackpoint>
          <Trackpoint>
            <Time>2020-12-05T10:21:55.000Z</Time>
            <Position>
              <LatitudeDegrees>36.8296976387500762939453125</LatitudeDegrees>
              <LongitudeDegrees>-4.38283606432378292083740234375</LongitudeDegrees>
            </Position>
            <AltitudeMeters>754.79998779296875</AltitudeMeters>
            <DistanceMeters>NAN</DistanceMeters>
          </Trackpoint>
          <Trackpoint>
            <Time>2020-12-05T10:21:56.000Z</Time>
            <Position>
              <LatitudeDegrees>36.82971046306192874908447265625</LatitudeDegrees>
              <LongitudeDegrees>-4.38282047398388385772705078125</LongitudeDegrees>
            </Position>
            <AltitudeMeters>754.5999755859375</AltitudeMeters>
            <DistanceMeters>NAN</DistanceMeters>
          </Trackpoint>
          <Trackpoint>
            <Time>2020-12-05T10:21:57.000Z</Time>
            <Position>
              <LatitudeDegrees>36.82972119189798831939697265625</LatitudeDegrees>
              <LongitudeDegrees>-4.3828054703772068023681640625</LongitudeDegrees>
            </Position>
            <AltitudeMeters>754.20001220703125</AltitudeMeters>
            <DistanceMeters>NAN</DistanceMeters>
          </Trackpoint>
          <Trackpoint>
            <Time>2020-12-05T10:21:58.000Z</Time>
            <Position>
              <LatitudeDegrees>36.8297269754111766815185546875</LatitudeDegrees>
              <LongitudeDegrees>-4.38279096968472003936767578125</LongitudeDegrees>
            </Position>
            <AltitudeMeters>753.79998779296875</AltitudeMeters>
            <DistanceMeters>NAN</DistanceMeters>
          </Trackpoint>
          <Trackpoint>
            <Time>2020-12-05T10:21:59.000Z</Time>
            <Position>
              <LatitudeDegrees>36.82972957380115985870361328125</LatitudeDegrees>
              <LongitudeDegrees>-4.382773451507091522216796875</LongitudeDegrees>
            </Position>
            <AltitudeMeters>753.4000244140625</AltitudeMeters>
            <DistanceMeters>NAN</DistanceMeters>
          </Trackpoint>
          <Trackpoint>
            <Time>2020-12-05T10:22:00.000Z</Time>
            <Position>
              <LatitudeDegrees>36.82972840033471584320068359375</LatitudeDegrees>
              <LongitudeDegrees>-4.3827521614730358123779296875</LongitudeDegrees>
            </Position>
            <AltitudeMeters>753</AltitudeMeters>
            <DistanceMeters>NAN</DistanceMeters>
          </Trackpoint>
          <Trackpoint>
            <Time>2020-12-05T10:22:01.000Z</Time>
            <Position>
              <LatitudeDegrees>36.82972915470600128173828125</LatitudeDegrees>
              <LongitudeDegrees>-4.3827308714389801025390625</LongitudeDegrees>
            </Position>
            <AltitudeMeters>752.79998779296875</AltitudeMeters>
            <DistanceMeters>NAN</DistanceMeters>
          </Trackpoint>
          <Trackpoint>
            <Time>2020-12-05T10:22:02.000Z</Time>
            <Position>
              <LatitudeDegrees>36.82973326183855533599853515625</LatitudeDegrees>
              <LongitudeDegrees>-4.38271855004131793975830078125</LongitudeDegrees>
            </Position>
            <AltitudeMeters>752.79998779296875</AltitudeMeters>
            <DistanceMeters>NAN</DistanceMeters>
          </Trackpoint>
          <Trackpoint>
            <Time>2020-12-05T10:22:03.000Z</Time>
            <Position>
              <LatitudeDegrees>36.829740889370441436767578125</LatitudeDegrees>
              <LongitudeDegrees>-4.38270270824432373046875</LongitudeDegrees>
            </Position>
            <AltitudeMeters>752.5999755859375</AltitudeMeters>
            <DistanceMeters>NAN</DistanceMeters>
          </Trackpoint>
          <Trackpoint>
            <Time>2020-12-05T10:22:04.000Z</Time>
            <Position>
              <LatitudeDegrees>36.8297554738819599151611328125</LatitudeDegrees>
              <LongitudeDegrees>-4.38268435187637805938720703125</LongitudeDegrees>
            </Position>
            <AltitudeMeters>752.5999755859375</AltitudeMeters>
            <DistanceMeters>NAN</DistanceMeters>
          </Trackpoint>
          <Trackpoint>
            <Time>2020-12-05T10:22:05.000Z</Time>
            <Position>
              <LatitudeDegrees>36.82976746000349521636962890625</LatitudeDegrees>
              <LongitudeDegrees>-4.3826663307845592498779296875</LongitudeDegrees>
            </Position>
            <AltitudeMeters>752.5999755859375</AltitudeMeters>
            <DistanceMeters>NAN</DistanceMeters>
          </Trackpoint>
          <Trackpoint>
            <Time>2020-12-05T10:22:06.000Z</Time>
            <Position>
              <LatitudeDegrees>36.82978053577244281768798828125</LatitudeDegrees>
              <LongitudeDegrees>-4.38264981843531131744384765625</LongitudeDegrees>
            </Position>
            <AltitudeMeters>752.5999755859375</AltitudeMeters>
            <DistanceMeters>NAN</DistanceMeters>
          </Trackpoint>
          <Trackpoint>
            <Time>2020-12-05T10:22:07.000Z</Time>
            <Position>
              <LatitudeDegrees>36.82979076169431209564208984375</LatitudeDegrees>
              <LongitudeDegrees>-4.382636658847332000732421875</LongitudeDegrees>
            </Position>
            <AltitudeMeters>752.5999755859375</AltitudeMeters>
            <DistanceMeters>NAN</DistanceMeters>
          </Trackpoint>
          <Trackpoint>
            <Time>2020-12-05T10:22:08.000Z</Time>
            <Position>
              <LatitudeDegrees>36.82979713194072246551513671875</LatitudeDegrees>
              <LongitudeDegrees>-4.38262500800192356109619140625</LongitudeDegrees>
            </Position>
            <AltitudeMeters>752.5999755859375</AltitudeMeters>
            <DistanceMeters>NAN</DistanceMeters>
          </Trackpoint>
          <Trackpoint>
            <Time>2020-12-05T10:22:09.000Z</Time>
            <Position>
              <LatitudeDegrees>36.829800903797149658203125</LatitudeDegrees>
              <LongitudeDegrees>-4.38261763192713260650634765625</LongitudeDegrees>
            </Position>
            <AltitudeMeters>752.4000244140625</AltitudeMeters>
            <DistanceMeters>NAN</DistanceMeters>
          </Trackpoint>
          <Trackpoint>
            <Time>2020-12-05T10:22:10.000Z</Time>
            <Position>
              <LatitudeDegrees>36.82980618439614772796630859375</LatitudeDegrees>
              <LongitudeDegrees>-4.38261142931878566741943359375</LongitudeDegrees>
            </Position>
            <AltitudeMeters>752.20001220703125</AltitudeMeters>
            <DistanceMeters>NAN</DistanceMeters>
          </Trackpoint>
          <Trackpoint>
            <Time>2020-12-05T10:22:11.000Z</Time>
            <Position>
              <LatitudeDegrees>36.829812638461589813232421875</LatitudeDegrees>
              <LongitudeDegrees>-4.382603801786899566650390625</LongitudeDegrees>
            </Position>
            <AltitudeMeters>752.20001220703125</AltitudeMeters>
            <DistanceMeters>NAN</DistanceMeters>
          </Trackpoint>
          <Trackpoint>
            <Time>2020-12-05T10:22:12.000Z</Time>
            <Position>
              <LatitudeDegrees>36.82981573976576328277587890625</LatitudeDegrees>
              <LongitudeDegrees>-4.382595755159854888916015625</LongitudeDegrees>
            </Position>
            <AltitudeMeters>752</AltitudeMeters>
            <DistanceMeters>NAN</DistanceMeters>
          </Trackpoint>
          <Trackpoint>
            <Time>2020-12-05T10:22:13.000Z</Time>
            <Position>
              <LatitudeDegrees>36.8298210203647613525390625</LatitudeDegrees>
              <LongitudeDegrees>-4.3825882114470005035400390625</LongitudeDegrees>
            </Position>
            <AltitudeMeters>751.5999755859375</AltitudeMeters>
            <DistanceMeters>NAN</DistanceMeters>
          </Trackpoint>
          <Trackpoint>
            <Time>2020-12-05T10:22:14.000Z</Time>
            <Position>
              <LatitudeDegrees>36.829829402267932891845703125</LatitudeDegrees>
              <LongitudeDegrees>-4.382578991353511810302734375</LongitudeDegrees>
            </Position>
            <AltitudeMeters>751.4000244140625</AltitudeMeters>
            <DistanceMeters>NAN</DistanceMeters>
          </Trackpoint>
          <Trackpoint>
            <Time>2020-12-05T10:22:15.000Z</Time>
            <Position>
              <LatitudeDegrees>36.82984105311334133148193359375</LatitudeDegrees>
              <LongitudeDegrees>-4.3825687654316425323486328125</LongitudeDegrees>
            </Position>
            <AltitudeMeters>751.20001220703125</AltitudeMeters>
            <DistanceMeters>NAN</DistanceMeters>
          </Trackpoint>
          <Trackpoint>
            <Time>2020-12-05T10:22:16.000Z</Time>
            <Position>
              <LatitudeDegrees>36.82985077612102031707763671875</LatitudeDegrees>
              <LongitudeDegrees>-4.3825566954910755157470703125</LongitudeDegrees>
            </Position>
            <AltitudeMeters>751</AltitudeMeters>
            <DistanceMeters>NAN</DistanceMeters>
          </Trackpoint>
          <Trackpoint>
            <Time>2020-12-05T10:22:17.000Z</Time>
            <Position>
              <LatitudeDegrees>36.82985865511000156402587890625</LatitudeDegrees>
              <LongitudeDegrees>-4.38254521228373050689697265625</LongitudeDegrees>
            </Position>
            <AltitudeMeters>751</AltitudeMeters>
            <DistanceMeters>NAN</DistanceMeters>
          </Trackpoint>
          <Trackpoint>
            <Time>2020-12-05T10:22:18.000Z</Time>
            <Position>
              <LatitudeDegrees>36.82986670173704624176025390625</LatitudeDegrees>
              <LongitudeDegrees>-4.3825350701808929443359375</LongitudeDegrees>
            </Position>
            <AltitudeMeters>751</AltitudeMeters>
            <DistanceMeters>NAN</DistanceMeters>
          </Trackpoint>
          <Trackpoint>
            <Time>2020-12-05T10:22:19.000Z</Time>
            <Position>
              <LatitudeDegrees>36.8298758380115032196044921875</LatitudeDegrees>
              <LongitudeDegrees>-4.38252911902964115142822265625</LongitudeDegrees>
            </Position>
            <AltitudeMeters>751</AltitudeMeters>
            <DistanceMeters>NAN</DistanceMeters>
          </Trackpoint>
          <Trackpoint>
            <Time>2020-12-05T10:22:20.000Z</Time>
            <Position>
              <LatitudeDegrees>36.82988497428596019744873046875</LatitudeDegrees>
              <LongitudeDegrees>-4.382520653307437896728515625</LongitudeDegrees>
            </Position>
            <AltitudeMeters>751</AltitudeMeters>
            <DistanceMeters>NAN</DistanceMeters>
          </Trackpoint>
          <Trackpoint>
            <Time>2020-12-05T10:22:21.000Z</Time>
            <Position>
              <LatitudeDegrees>36.8298899196088314056396484375</LatitudeDegrees>
              <LongitudeDegrees>-4.3825137801468372344970703125</LongitudeDegrees>
            </Position>
            <AltitudeMeters>751</AltitudeMeters>
            <DistanceMeters>NAN</DistanceMeters>
          </Trackpoint>
          <Trackpoint>
            <Time>2020-12-05T10:22:22.000Z</Time>
            <Position>
              <LatitudeDegrees>36.82989452965557575225830078125</LatitudeDegrees>
              <LongitudeDegrees>-4.38250950537621974945068359375</LongitudeDegrees>
            </Position>
            <AltitudeMeters>751.20001220703125</AltitudeMeters>
            <DistanceMeters>NAN</DistanceMeters>
          </Trackpoint>
          <Trackpoint>
            <Time>2020-12-05T10:22:23.000Z</Time>
            <Position>
              <LatitudeDegrees>36.82990089990198612213134765625</LatitudeDegrees>
              <LongitudeDegrees>-4.38250564970076084136962890625</LongitudeDegrees>
            </Position>
            <AltitudeMeters>751.4000244140625</AltitudeMeters>
            <DistanceMeters>NAN</DistanceMeters>
          </Trackpoint>
          <Trackpoint>
            <Time>2020-12-05T10:22:24.000Z</Time>
            <Position>
              <LatitudeDegrees>36.82991062290966510772705078125</LatitudeDegrees>
              <LongitudeDegrees>-4.3825003691017627716064453125</LongitudeDegrees>
            </Position>
            <AltitudeMeters>751.4000244140625</AltitudeMeters>
            <DistanceMeters>NAN</DistanceMeters>
          </Trackpoint>
          <Trackpoint>
            <Time>2020-12-05T10:22:25.000Z</Time>
            <Position>
              <LatitudeDegrees>36.82992185465991497039794921875</LatitudeDegrees>
              <LongitudeDegrees>-4.3824906460940837860107421875</LongitudeDegrees>
            </Position>
            <AltitudeMeters>751.4000244140625</AltitudeMeters>
            <DistanceMeters>NAN</DistanceMeters>
          </Trackpoint>
          <Trackpoint>
            <Time>2020-12-05T10:22:26.000Z</Time>
            <Position>
              <LatitudeDegrees>36.82993300259113311767578125</LatitudeDegrees>
              <LongitudeDegrees>-4.382481090724468231201171875</LongitudeDegrees>
            </Position>
            <AltitudeMeters>751.4000244140625</AltitudeMeters>
            <DistanceMeters>NAN</DistanceMeters>
          </Trackpoint>
          <Trackpoint>
            <Time>2020-12-05T10:22:27.000Z</Time>
            <Position>
              <LatitudeDegrees>36.8299432285130023956298828125</LatitudeDegrees>
              <LongitudeDegrees>-4.382470361888408660888671875</LongitudeDegrees>
            </Position>
            <AltitudeMeters>751.20001220703125</AltitudeMeters>
            <DistanceMeters>NAN</DistanceMeters>
          </Trackpoint>
          <Trackpoint>
            <Time>2020-12-05T10:22:28.000Z</Time>
            <Position>
              <LatitudeDegrees>36.82995236478745937347412109375</LatitudeDegrees>
              <LongitudeDegrees>-4.3824587948620319366455078125</LongitudeDegrees>
            </Position>
            <AltitudeMeters>751</AltitudeMeters>
            <DistanceMeters>NAN</DistanceMeters>
          </Trackpoint>
          <Trackpoint>
            <Time>2020-12-05T10:22:29.000Z</Time>
            <Position>
              <LatitudeDegrees>36.82995722629129886627197265625</LatitudeDegrees>
              <LongitudeDegrees>-4.38244328834116458892822265625</LongitudeDegrees>
            </Position>
            <AltitudeMeters>750.5999755859375</AltitudeMeters>
            <DistanceMeters>NAN</DistanceMeters>
          </Trackpoint>
          <Trackpoint>
            <Time>2020-12-05T10:22:30.000Z</Time>
            <Position>
              <LatitudeDegrees>36.829958148300647735595703125</LatitudeDegrees>
              <LongitudeDegrees>-4.382424093782901763916015625</LongitudeDegrees>
            </Position>
            <AltitudeMeters>750.20001220703125</AltitudeMeters>
            <DistanceMeters>NAN</DistanceMeters>
          </Trackpoint>
          <Trackpoint>
            <Time>2020-12-05T10:22:31.000Z</Time>
            <Position>
              <LatitudeDegrees>36.82995705865323543548583984375</LatitudeDegrees>
              <LongitudeDegrees>-4.38240473158657550811767578125</LongitudeDegrees>
            </Position>
            <AltitudeMeters>749.79998779296875</AltitudeMeters>
            <DistanceMeters>NAN</DistanceMeters>
          </Trackpoint>
          <Trackpoint>
            <Time>2020-12-05T10:22:32.000Z</Time>
            <Position>
              <LatitudeDegrees>36.82995689101517200469970703125</LatitudeDegrees>
              <LongitudeDegrees>-4.38238461501896381378173828125</LongitudeDegrees>
            </Position>
            <AltitudeMeters>749.4000244140625</AltitudeMeters>
            <DistanceMeters>NAN</DistanceMeters>
          </Trackpoint>
          <Trackpoint>
            <Time>2020-12-05T10:22:33.000Z</Time>
            <Position>
              <LatitudeDegrees>36.82996158488094806671142578125</LatitudeDegrees>
              <LongitudeDegrees>-4.38236986286938190460205078125</LongitudeDegrees>
            </Position>
            <AltitudeMeters>749</AltitudeMeters>
            <DistanceMeters>NAN</DistanceMeters>
          </Trackpoint>
          <Trackpoint>
            <Time>2020-12-05T10:22:34.000Z</Time>
            <Position>
              <LatitudeDegrees>36.8299720622599124908447265625</LatitudeDegrees>
              <LongitudeDegrees>-4.3823562003672122955322265625</LongitudeDegrees>
            </Position>
            <AltitudeMeters>748.79998779296875</AltitudeMeters>
            <DistanceMeters>NAN</DistanceMeters>
          </Trackpoint>
          <Trackpoint>
            <Time>2020-12-05T10:22:35.000Z</Time>
            <Position>
              <LatitudeDegrees>36.82998530566692352294921875</LatitudeDegrees>
              <LongitudeDegrees>-4.3823414482176303863525390625</LongitudeDegrees>
            </Position>
            <AltitudeMeters>748.5999755859375</AltitudeMeters>
            <DistanceMeters>NAN</DistanceMeters>
          </Trackpoint>
          <Trackpoint>
            <Time>2020-12-05T10:22:36.000Z</Time>
            <Position>
              <LatitudeDegrees>36.82999595068395137786865234375</LatitudeDegrees>
              <LongitudeDegrees>-4.3823300488293170928955078125</LongitudeDegrees>
            </Position>
            <AltitudeMeters>748.5999755859375</AltitudeMeters>
            <DistanceMeters>NAN</DistanceMeters>
          </Trackpoint>
          <Trackpoint>
            <Time>2020-12-05T10:22:37.000Z</Time>
            <Position>
              <LatitudeDegrees>36.83000701479613780975341796875</LatitudeDegrees>
              <LongitudeDegrees>-4.382318817079067230224609375</LongitudeDegrees>
            </Position>
            <AltitudeMeters>748.5999755859375</AltitudeMeters>
            <DistanceMeters>NAN</DistanceMeters>
          </Trackpoint>
          <Trackpoint>
            <Time>2020-12-05T10:22:38.000Z</Time>
            <Position>
              <LatitudeDegrees>36.83001740835607051849365234375</LatitudeDegrees>
              <LongitudeDegrees>-4.382308423519134521484375</LongitudeDegrees>
            </Position>
            <AltitudeMeters>748.5999755859375</AltitudeMeters>
            <DistanceMeters>NAN</DistanceMeters>
          </Trackpoint>
          <Trackpoint>
            <Time>2020-12-05T10:22:39.000Z</Time>
            <Position>
              <LatitudeDegrees>36.83002696372568607330322265625</LatitudeDegrees>
              <LongitudeDegrees>-4.38229727558791637420654296875</LongitudeDegrees>
            </Position>
            <AltitudeMeters>748.79998779296875</AltitudeMeters>
            <DistanceMeters>NAN</DistanceMeters>
          </Trackpoint>
          <Trackpoint>
            <Time>2020-12-05T10:22:40.000Z</Time>
            <Position>
              <LatitudeDegrees>36.83003568090498447418212890625</LatitudeDegrees>
              <LongitudeDegrees>-4.38228554092347621917724609375</LongitudeDegrees>
            </Position>
            <AltitudeMeters>749.20001220703125</AltitudeMeters>
            <DistanceMeters>NAN</DistanceMeters>
          </Trackpoint>
          <Trackpoint>
            <Time>2020-12-05T10:22:41.000Z</Time>
            <Position>
              <LatitudeDegrees>36.830041967332363128662109375</LatitudeDegrees>
              <LongitudeDegrees>-4.38227447681128978729248046875</LongitudeDegrees>
            </Position>
            <AltitudeMeters>749.20001220703125</AltitudeMeters>
            <DistanceMeters>NAN</DistanceMeters>
          </Trackpoint>
          <Trackpoint>
            <Time>2020-12-05T10:22:42.000Z</Time>
            <Position>
              <LatitudeDegrees>36.83004573918879032135009765625</LatitudeDegrees>
              <LongitudeDegrees>-4.3822633288800716400146484375</LongitudeDegrees>
            </Position>
            <AltitudeMeters>749.4000244140625</AltitudeMeters>
            <DistanceMeters>NAN</DistanceMeters>
          </Trackpoint>
          <Trackpoint>
            <Time>2020-12-05T10:22:43.000Z</Time>
            <Position>
              <LatitudeDegrees>36.83004925958812236785888671875</LatitudeDegrees>
              <LongitudeDegrees>-4.382249079644680023193359375</LongitudeDegrees>
            </Position>
            <AltitudeMeters>749.4000244140625</AltitudeMeters>
            <DistanceMeters>NAN</DistanceMeters>
          </Trackpoint>
          <Trackpoint>
            <Time>2020-12-05T10:22:44.000Z</Time>
            <Position>
              <LatitudeDegrees>36.830054707825183868408203125</LatitudeDegrees>
              <LongitudeDegrees>-4.3822358362376689910888671875</LongitudeDegrees>
            </Position>
            <AltitudeMeters>749.4000244140625</AltitudeMeters>
            <DistanceMeters>NAN</DistanceMeters>
          </Trackpoint>
          <Trackpoint>
            <Time>2020-12-05T10:22:45.000Z</Time>
            <Position>
              <LatitudeDegrees>36.8300599046051502227783203125</LatitudeDegrees>
              <LongitudeDegrees>-4.38222535885870456695556640625</LongitudeDegrees>
            </Position>
            <AltitudeMeters>749.20001220703125</AltitudeMeters>
            <DistanceMeters>NAN</DistanceMeters>
          </Trackpoint>
          <Trackpoint>
            <Time>2020-12-05T10:22:46.000Z</Time>
            <Position>
              <LatitudeDegrees>36.83006484992802143096923828125</LatitudeDegrees>
              <LongitudeDegrees>-4.38221664167940616607666015625</LongitudeDegrees>
            </Position>
            <AltitudeMeters>749</AltitudeMeters>
            <DistanceMeters>NAN</DistanceMeters>
          </Trackpoint>
          <Trackpoint>
            <Time>2020-12-05T10:22:47.000Z</Time>
            <Position>
              <LatitudeDegrees>36.83007054962217807769775390625</LatitudeDegrees>
              <LongitudeDegrees>-4.3822059966623783111572265625</LongitudeDegrees>
            </Position>
            <AltitudeMeters>748.79998779296875</AltitudeMeters>
            <DistanceMeters>NAN</DistanceMeters>
          </Trackpoint>
          <Trackpoint>
            <Time>2020-12-05T10:22:48.000Z</Time>
            <Position>
              <LatitudeDegrees>36.83007742278277873992919921875</LatitudeDegrees>
              <LongitudeDegrees>-4.38219451345503330230712890625</LongitudeDegrees>
            </Position>
            <AltitudeMeters>748.79998779296875</AltitudeMeters>
            <DistanceMeters>NAN</DistanceMeters>
          </Trackpoint>
          <Trackpoint>
            <Time>2020-12-05T10:22:49.000Z</Time>
            <Position>
              <LatitudeDegrees>36.83008362539112567901611328125</LatitudeDegrees>
              <LongitudeDegrees>-4.38218210823833942413330078125</LongitudeDegrees>
            </Position>
            <AltitudeMeters>748.79998779296875</AltitudeMeters>
            <DistanceMeters>NAN</DistanceMeters>
          </Trackpoint>
          <Trackpoint>
            <Time>2020-12-05T10:22:50.000Z</Time>
            <Position>
              <LatitudeDegrees>36.8300900794565677642822265625</LatitudeDegrees>
              <LongitudeDegrees>-4.38217020593583583831787109375</LongitudeDegrees>
            </Position>
            <AltitudeMeters>748.5999755859375</AltitudeMeters>
            <DistanceMeters>NAN</DistanceMeters>
          </Trackpoint>
          <Trackpoint>
            <Time>2020-12-05T10:22:51.000Z</Time>
            <Position>
              <LatitudeDegrees>36.83009527623653411865234375</LatitudeDegrees>
              <LongitudeDegrees>-4.382155202329158782958984375</LongitudeDegrees>
            </Position>
            <AltitudeMeters>748.5999755859375</AltitudeMeters>
            <DistanceMeters>NAN</DistanceMeters>
          </Trackpoint>
          <Trackpoint>
            <Time>2020-12-05T10:22:52.000Z</Time>
            <Position>
              <LatitudeDegrees>36.8301011435687541961669921875</LatitudeDegrees>
              <LongitudeDegrees>-4.38214145600795745849609375</LongitudeDegrees>
            </Position>
            <AltitudeMeters>748.5999755859375</AltitudeMeters>
            <DistanceMeters>NAN</DistanceMeters>
          </Trackpoint>
          <Trackpoint>
            <Time>2020-12-05T10:22:53.000Z</Time>
            <Position>
              <LatitudeDegrees>36.830105669796466827392578125</LatitudeDegrees>
              <LongitudeDegrees>-4.38212863169610500335693359375</LongitudeDegrees>
            </Position>
            <AltitudeMeters>748.4000244140625</AltitudeMeters>
            <DistanceMeters>NAN</DistanceMeters>
          </Trackpoint>
          <Trackpoint>
            <Time>2020-12-05T10:22:54.000Z</Time>
            <Position>
              <LatitudeDegrees>36.83011027984321117401123046875</LatitudeDegrees>
              <LongitudeDegrees>-4.38211639411747455596923828125</LongitudeDegrees>
            </Position>
            <AltitudeMeters>748.4000244140625</AltitudeMeters>
            <DistanceMeters>NAN</DistanceMeters>
          </Trackpoint>
          <Trackpoint>
            <Time>2020-12-05T10:22:55.000Z</Time>
            <Position>
              <LatitudeDegrees>36.83011497370898723602294921875</LatitudeDegrees>
              <LongitudeDegrees>-4.382101558148860931396484375</LongitudeDegrees>
            </Position>
            <AltitudeMeters>748.20001220703125</AltitudeMeters>
            <DistanceMeters>NAN</DistanceMeters>
          </Trackpoint>
          <Trackpoint>
            <Time>2020-12-05T10:22:56.000Z</Time>
            <Position>
              <LatitudeDegrees>36.83012000285089015960693359375</LatitudeDegrees>
              <LongitudeDegrees>-4.38208772800862789154052734375</LongitudeDegrees>
            </Position>
            <AltitudeMeters>748</AltitudeMeters>
            <DistanceMeters>NAN</DistanceMeters>
          </Trackpoint>
          <Trackpoint>
            <Time>2020-12-05T10:22:57.000Z</Time>
            <Position>
              <LatitudeDegrees>36.83012234978377819061279296875</LatitudeDegrees>
              <LongitudeDegrees>-4.3820742331445217132568359375</LongitudeDegrees>
            </Position>
            <AltitudeMeters>747.79998779296875</AltitudeMeters>
            <DistanceMeters>NAN</DistanceMeters>
          </Trackpoint>
          <Trackpoint>
            <Time>2020-12-05T10:22:58.000Z</Time>
            <Position>
              <LatitudeDegrees>36.83012553490698337554931640625</LatitudeDegrees>
              <LongitudeDegrees>-4.38206233084201812744140625</LongitudeDegrees>
            </Position>
            <AltitudeMeters>747.5999755859375</AltitudeMeters>
            <DistanceMeters>NAN</DistanceMeters>
          </Trackpoint>
          <Trackpoint>
            <Time>2020-12-05T10:22:59.000Z</Time>
            <Position>
              <LatitudeDegrees>36.83012989349663257598876953125</LatitudeDegrees>
              <LongitudeDegrees>-4.38205235637724399566650390625</LongitudeDegrees>
            </Position>
            <AltitudeMeters>747.20001220703125</AltitudeMeters>
            <DistanceMeters>NAN</DistanceMeters>
          </Trackpoint>
          <Trackpoint>
            <Time>2020-12-05T10:23:00.000Z</Time>
            <Position>
              <LatitudeDegrees>36.83013257570564746856689453125</LatitudeDegrees>
              <LongitudeDegrees>-4.382042549550533294677734375</LongitudeDegrees>
            </Position>
            <AltitudeMeters>747</AltitudeMeters>
            <DistanceMeters>NAN</DistanceMeters>
          </Trackpoint>
          <Trackpoint>
            <Time>2020-12-05T10:23:01.000Z</Time>
            <Position>
              <LatitudeDegrees>36.83013576082885265350341796875</LatitudeDegrees>
              <LongitudeDegrees>-4.3820296414196491241455078125</LongitudeDegrees>
            </Position>
            <AltitudeMeters>746.79998779296875</AltitudeMeters>
            <DistanceMeters>NAN</DistanceMeters>
          </Trackpoint>
          <Trackpoint>
            <Time>2020-12-05T10:23:02.000Z</Time>
            <Position>
              <LatitudeDegrees>36.83013995178043842315673828125</LatitudeDegrees>
              <LongitudeDegrees>-4.3820169009268283843994140625</LongitudeDegrees>
            </Position>
            <AltitudeMeters>746.5999755859375</AltitudeMeters>
            <DistanceMeters>NAN</DistanceMeters>
          </Trackpoint>
          <Trackpoint>
            <Time>2020-12-05T10:23:03.000Z</Time>
            <Position>
              <LatitudeDegrees>36.83014414273202419281005859375</LatitudeDegrees>
              <LongitudeDegrees>-4.3820051662623882293701171875</LongitudeDegrees>
            </Position>
            <AltitudeMeters>746.4000244140625</AltitudeMeters>
            <DistanceMeters>NAN</DistanceMeters>
          </Trackpoint>
          <Trackpoint>
            <Time>2020-12-05T10:23:04.000Z</Time>
            <Position>
              <LatitudeDegrees>36.83014732785522937774658203125</LatitudeDegrees>
              <LongitudeDegrees>-4.38199083320796489715576171875</LongitudeDegrees>
            </Position>
            <AltitudeMeters>746.20001220703125</AltitudeMeters>
            <DistanceMeters>NAN</DistanceMeters>
          </Trackpoint>
          <Trackpoint>
            <Time>2020-12-05T10:23:05.000Z</Time>
            <Position>
              <LatitudeDegrees>36.8301517702639102935791015625</LatitudeDegrees>
              <LongitudeDegrees>-4.38197826035320758819580078125</LongitudeDegrees>
            </Position>
            <AltitudeMeters>746.20001220703125</AltitudeMeters>
            <DistanceMeters>NAN</DistanceMeters>
          </Trackpoint>
          <Trackpoint>
            <Time>2020-12-05T10:23:06.000Z</Time>
            <Position>
              <LatitudeDegrees>36.83015487156808376312255859375</LatitudeDegrees>
              <LongitudeDegrees>-4.38197121955454349517822265625</LongitudeDegrees>
            </Position>
            <AltitudeMeters>745.79998779296875</AltitudeMeters>
            <DistanceMeters>NAN</DistanceMeters>
          </Trackpoint>
          <Trackpoint>
            <Time>2020-12-05T10:23:07.000Z</Time>
            <Position>
              <LatitudeDegrees>36.83016006834805011749267578125</LatitudeDegrees>
              <LongitudeDegrees>-4.38196417875587940216064453125</LongitudeDegrees>
            </Position>
            <AltitudeMeters>745.79998779296875</AltitudeMeters>
            <DistanceMeters>NAN</DistanceMeters>
          </Trackpoint>
          <Trackpoint>
            <Time>2020-12-05T10:23:08.000Z</Time>
            <Position>
              <LatitudeDegrees>36.830166019499301910400390625</LatitudeDegrees>
              <LongitudeDegrees>-4.38195797614753246307373046875</LongitudeDegrees>
            </Position>
            <AltitudeMeters>745.5999755859375</AltitudeMeters>
            <DistanceMeters>NAN</DistanceMeters>
          </Trackpoint>
          <Trackpoint>
            <Time>2020-12-05T10:23:09.000Z</Time>
            <Position>
              <LatitudeDegrees>36.83017582632601261138916015625</LatitudeDegrees>
              <LongitudeDegrees>-4.38194858841598033905029296875</LongitudeDegrees>
            </Position>
            <AltitudeMeters>745.5999755859375</AltitudeMeters>
            <DistanceMeters>NAN</DistanceMeters>
          </Trackpoint>
          <Trackpoint>
            <Time>2020-12-05T10:23:10.000Z</Time>
            <Position>
              <LatitudeDegrees>36.8301849626004695892333984375</LatitudeDegrees>
              <LongitudeDegrees>-4.381937943398952484130859375</LongitudeDegrees>
            </Position>
            <AltitudeMeters>745.4000244140625</AltitudeMeters>
            <DistanceMeters>NAN</DistanceMeters>
          </Trackpoint>
          <Trackpoint>
            <Time>2020-12-05T10:23:11.000Z</Time>
            <Position>
              <LatitudeDegrees>36.8301930092275142669677734375</LatitudeDegrees>
              <LongitudeDegrees>-4.381927214562892913818359375</LongitudeDegrees>
            </Position>
            <AltitudeMeters>745.4000244140625</AltitudeMeters>
            <DistanceMeters>NAN</DistanceMeters>
          </Trackpoint>
          <Trackpoint>
            <Time>2020-12-05T10:23:12.000Z</Time>
            <Position>
              <LatitudeDegrees>36.83019678108394145965576171875</LatitudeDegrees>
              <LongitudeDegrees>-4.38191908411681652069091796875</LongitudeDegrees>
            </Position>
            <AltitudeMeters>745.20001220703125</AltitudeMeters>
            <DistanceMeters>NAN</DistanceMeters>
          </Trackpoint>
          <Trackpoint>
            <Time>2020-12-05T10:23:13.000Z</Time>
            <Position>
              <LatitudeDegrees>36.83019996620714664459228515625</LatitudeDegrees>
              <LongitudeDegrees>-4.38191154040396213531494140625</LongitudeDegrees>
            </Position>
            <AltitudeMeters>745.20001220703125</AltitudeMeters>
            <DistanceMeters>NAN</DistanceMeters>
          </Trackpoint>
          <Trackpoint>
            <Time>2020-12-05T10:23:14.000Z</Time>
            <Position>
              <LatitudeDegrees>36.83020566590130329132080078125</LatitudeDegrees>
              <LongitudeDegrees>-4.38189729116857051849365234375</LongitudeDegrees>
            </Position>
            <AltitudeMeters>745.20001220703125</AltitudeMeters>
            <DistanceMeters>NAN</DistanceMeters>
          </Trackpoint>
          <Trackpoint>
            <Time>2020-12-05T10:23:15.000Z</Time>
            <Position>
              <LatitudeDegrees>36.8302134610712528228759765625</LatitudeDegrees>
              <LongitudeDegrees>-4.3818819522857666015625</LongitudeDegrees>
            </Position>
            <AltitudeMeters>745.20001220703125</AltitudeMeters>
            <DistanceMeters>NAN</DistanceMeters>
          </Trackpoint>
          <Trackpoint>
            <Time>2020-12-05T10:23:16.000Z</Time>
            <Position>
              <LatitudeDegrees>36.83022511191666126251220703125</LatitudeDegrees>
              <LongitudeDegrees>-4.3818645179271697998046875</LongitudeDegrees>
            </Position>
            <AltitudeMeters>745</AltitudeMeters>
            <DistanceMeters>NAN</DistanceMeters>
          </Trackpoint>
          <Trackpoint>
            <Time>2020-12-05T10:23:17.000Z</Time>
            <Position>
              <LatitudeDegrees>36.8302359245717525482177734375</LatitudeDegrees>
              <LongitudeDegrees>-4.38184834085404872894287109375</LongitudeDegrees>
            </Position>
            <AltitudeMeters>745</AltitudeMeters>
            <DistanceMeters>NAN</DistanceMeters>
          </Trackpoint>
          <Trackpoint>
            <Time>2020-12-05T10:23:18.000Z</Time>
            <Position>
              <LatitudeDegrees>36.83024422265589237213134765625</LatitudeDegrees>
              <LongitudeDegrees>-4.38183308579027652740478515625</LongitudeDegrees>
            </Position>
            <AltitudeMeters>744.79998779296875</AltitudeMeters>
            <DistanceMeters>NAN</DistanceMeters>
          </Trackpoint>
          <Trackpoint>
            <Time>2020-12-05T10:23:19.000Z</Time>
            <Position>
              <LatitudeDegrees>36.830252520740032196044921875</LatitudeDegrees>
              <LongitudeDegrees>-4.3818194232881069183349609375</LongitudeDegrees>
            </Position>
            <AltitudeMeters>744.5999755859375</AltitudeMeters>
            <DistanceMeters>NAN</DistanceMeters>
          </Trackpoint>
          <Trackpoint>
            <Time>2020-12-05T10:23:20.000Z</Time>
            <Position>
              <LatitudeDegrees>36.83026048354804515838623046875</LatitudeDegrees>
              <LongitudeDegrees>-4.38180525787174701690673828125</LongitudeDegrees>
            </Position>
            <AltitudeMeters>744.20001220703125</AltitudeMeters>
            <DistanceMeters>NAN</DistanceMeters>
          </Trackpoint>
          <Trackpoint>
            <Time>2020-12-05T10:23:21.000Z</Time>
            <Position>
              <LatitudeDegrees>36.83026635088026523590087890625</LatitudeDegrees>
              <LongitudeDegrees>-4.38179469667375087738037109375</LongitudeDegrees>
            </Position>
            <AltitudeMeters>744</AltitudeMeters>
            <DistanceMeters>NAN</DistanceMeters>
          </Trackpoint>
          <Trackpoint>
            <Time>2020-12-05T10:23:22.000Z</Time>
            <Position>
              <LatitudeDegrees>36.8302748166024684906005859375</LatitudeDegrees>
              <LongitudeDegrees>-4.3817885778844356536865234375</LongitudeDegrees>
            </Position>
            <AltitudeMeters>744</AltitudeMeters>
            <DistanceMeters>NAN</DistanceMeters>
          </Trackpoint>
          <Trackpoint>
            <Time>2020-12-05T10:23:23.000Z</Time>
            <Position>
              <LatitudeDegrees>36.8302821926772594451904296875</LatitudeDegrees>
              <LongitudeDegrees>-4.38178631477057933807373046875</LongitudeDegrees>
            </Position>
            <AltitudeMeters>744</AltitudeMeters>
            <DistanceMeters>NAN</DistanceMeters>
          </Trackpoint>
          <Trackpoint>
            <Time>2020-12-05T10:23:24.000Z</Time>
            <Position>
              <LatitudeDegrees>36.83029149658977985382080078125</LatitudeDegrees>
              <LongitudeDegrees>-4.38178203999996185302734375</LongitudeDegrees>
            </Position>
            <AltitudeMeters>744</AltitudeMeters>
            <DistanceMeters>NAN</DistanceMeters>
          </Trackpoint>
          <Trackpoint>
            <Time>2020-12-05T10:23:25.000Z</Time>
            <Position>
              <LatitudeDegrees>36.83029920794069766998291015625</LatitudeDegrees>
              <LongitudeDegrees>-4.38177240081131458282470703125</LongitudeDegrees>
            </Position>
            <AltitudeMeters>744</AltitudeMeters>
            <DistanceMeters>NAN</DistanceMeters>
          </Trackpoint>
          <Trackpoint>
            <Time>2020-12-05T10:23:26.000Z</Time>
            <Position>
              <LatitudeDegrees>36.83030624873936176300048828125</LatitudeDegrees>
              <LongitudeDegrees>-4.381762258708477020263671875</LongitudeDegrees>
            </Position>
            <AltitudeMeters>744.20001220703125</AltitudeMeters>
            <DistanceMeters>NAN</DistanceMeters>
          </Trackpoint>
          <Trackpoint>
            <Time>2020-12-05T10:23:27.000Z</Time>
            <Position>
              <LatitudeDegrees>36.83031580410897731781005859375</LatitudeDegrees>
              <LongitudeDegrees>-4.38175111077725887298583984375</LongitudeDegrees>
            </Position>
            <AltitudeMeters>744.5999755859375</AltitudeMeters>
            <DistanceMeters>NAN</DistanceMeters>
          </Trackpoint>
          <Trackpoint>
            <Time>2020-12-05T10:23:28.000Z</Time>
            <Position>
              <LatitudeDegrees>36.8303241021931171417236328125</LatitudeDegrees>
              <LongitudeDegrees>-4.381741471588611602783203125</LongitudeDegrees>
            </Position>
            <AltitudeMeters>744.5999755859375</AltitudeMeters>
            <DistanceMeters>NAN</DistanceMeters>
          </Trackpoint>
          <Trackpoint>
            <Time>2020-12-05T10:23:29.000Z</Time>
            <Position>
              <LatitudeDegrees>36.830331981182098388671875</LatitudeDegrees>
              <LongitudeDegrees>-4.38173267059028148651123046875</LongitudeDegrees>
            </Position>
            <AltitudeMeters>744.79998779296875</AltitudeMeters>
            <DistanceMeters>NAN</DistanceMeters>
          </Trackpoint>
          <Trackpoint>
            <Time>2020-12-05T10:23:30.000Z</Time>
            <Position>
              <LatitudeDegrees>36.83034162037074565887451171875</LatitudeDegrees>
              <LongitudeDegrees>-4.38172479160130023956298828125</LongitudeDegrees>
            </Position>
            <AltitudeMeters>744.79998779296875</AltitudeMeters>
            <DistanceMeters>NAN</DistanceMeters>
          </Trackpoint>
          <Trackpoint>
            <Time>2020-12-05T10:23:31.000Z</Time>
            <Position>
              <LatitudeDegrees>36.8303502537310123443603515625</LatitudeDegrees>
              <LongitudeDegrees>-4.381716661155223846435546875</LongitudeDegrees>
            </Position>
            <AltitudeMeters>744.5999755859375</AltitudeMeters>
            <DistanceMeters>NAN</DistanceMeters>
          </Trackpoint>
          <Trackpoint>
            <Time>2020-12-05T10:23:32.000Z</Time>
            <Position>
              <LatitudeDegrees>36.830357126891613006591796875</LatitudeDegrees>
              <LongitudeDegrees>-4.38171054236590862274169921875</LongitudeDegrees>
            </Position>
            <AltitudeMeters>744.4000244140625</AltitudeMeters>
            <DistanceMeters>NAN</DistanceMeters>
          </Trackpoint>
          <Trackpoint>
            <Time>2020-12-05T10:23:33.000Z</Time>
            <Position>
              <LatitudeDegrees>36.83036777190864086151123046875</LatitudeDegrees>
              <LongitudeDegrees>-4.38170559704303741455078125</LongitudeDegrees>
            </Position>
            <AltitudeMeters>743.79998779296875</AltitudeMeters>
            <DistanceMeters>NAN</DistanceMeters>
          </Trackpoint>
          <Trackpoint>
            <Time>2020-12-05T10:23:34.000Z</Time>
            <Position>
              <LatitudeDegrees>36.8303797580301761627197265625</LatitudeDegrees>
              <LongitudeDegrees>-4.38170048408210277557373046875</LongitudeDegrees>
            </Position>
            <AltitudeMeters>743.4000244140625</AltitudeMeters>
            <DistanceMeters>NAN</DistanceMeters>
          </Trackpoint>
          <Trackpoint>
            <Time>2020-12-05T10:23:35.000Z</Time>
            <Position>
              <LatitudeDegrees>36.83039073832333087921142578125</LatitudeDegrees>
              <LongitudeDegrees>-4.3816955387592315673828125</LongitudeDegrees>
            </Position>
            <AltitudeMeters>742.79998779296875</AltitudeMeters>
            <DistanceMeters>NAN</DistanceMeters>
          </Trackpoint>
          <Trackpoint>
            <Time>2020-12-05T10:23:36.000Z</Time>
            <Position>
              <LatitudeDegrees>36.83040238916873931884765625</LatitudeDegrees>
              <LongitudeDegrees>-4.3816900067031383514404296875</LongitudeDegrees>
            </Position>
            <AltitudeMeters>742.5999755859375</AltitudeMeters>
            <DistanceMeters>NAN</DistanceMeters>
          </Trackpoint>
          <Trackpoint>
            <Time>2020-12-05T10:23:37.000Z</Time>
            <Position>
              <LatitudeDegrees>36.830416135489940643310546875</LatitudeDegrees>
              <LongitudeDegrees>-4.38168321736156940460205078125</LongitudeDegrees>
            </Position>
            <AltitudeMeters>742.4000244140625</AltitudeMeters>
            <DistanceMeters>NAN</DistanceMeters>
          </Trackpoint>
          <Trackpoint>
            <Time>2020-12-05T10:23:38.000Z</Time>
            <Position>
              <LatitudeDegrees>36.8304287083446979522705078125</LatitudeDegrees>
              <LongitudeDegrees>-4.38167667947709560394287109375</LongitudeDegrees>
            </Position>
            <AltitudeMeters>742.20001220703125</AltitudeMeters>
            <DistanceMeters>NAN</DistanceMeters>
          </Trackpoint>
          <Trackpoint>
            <Time>2020-12-05T10:23:39.000Z</Time>
            <Position>
              <LatitudeDegrees>36.8304391019046306610107421875</LatitudeDegrees>
              <LongitudeDegrees>-4.3816742487251758575439453125</LongitudeDegrees>
            </Position>
            <AltitudeMeters>742</AltitudeMeters>
            <DistanceMeters>NAN</DistanceMeters>
          </Trackpoint>
          <Trackpoint>
            <Time>2020-12-05T10:23:40.000Z</Time>
            <Position>
              <LatitudeDegrees>36.83044924400746822357177734375</LatitudeDegrees>
              <LongitudeDegrees>-4.3816715665161609649658203125</LongitudeDegrees>
            </Position>
            <AltitudeMeters>741.79998779296875</AltitudeMeters>
            <DistanceMeters>NAN</DistanceMeters>
          </Trackpoint>
          <Trackpoint>
            <Time>2020-12-05T10:23:41.000Z</Time>
            <Position>
              <LatitudeDegrees>36.83046097867190837860107421875</LatitudeDegrees>
              <LongitudeDegrees>-4.38167299143970012664794921875</LongitudeDegrees>
            </Position>
            <AltitudeMeters>741.5999755859375</AltitudeMeters>
            <DistanceMeters>NAN</DistanceMeters>
          </Trackpoint>
          <Trackpoint>
            <Time>2020-12-05T10:23:42.000Z</Time>
            <Position>
              <LatitudeDegrees>36.83047086931765079498291015625</LatitudeDegrees>
              <LongitudeDegrees>-4.38167500309646129608154296875</LongitudeDegrees>
            </Position>
            <AltitudeMeters>741.20001220703125</AltitudeMeters>
            <DistanceMeters>NAN</DistanceMeters>
          </Trackpoint>
          <Trackpoint>
            <Time>2020-12-05T10:23:43.000Z</Time>
            <Position>
              <LatitudeDegrees>36.83047824539244174957275390625</LatitudeDegrees>
              <LongitudeDegrees>-4.381680786609649658203125</LongitudeDegrees>
            </Position>
            <AltitudeMeters>740.79998779296875</AltitudeMeters>
            <DistanceMeters>NAN</DistanceMeters>
          </Trackpoint>
          <Trackpoint>
            <Time>2020-12-05T10:23:44.000Z</Time>
            <Position>
              <LatitudeDegrees>36.8304860405623912811279296875</LatitudeDegrees>
              <LongitudeDegrees>-4.38168346881866455078125</LongitudeDegrees>
            </Position>
            <AltitudeMeters>740.4000244140625</AltitudeMeters>
            <DistanceMeters>NAN</DistanceMeters>
          </Trackpoint>
          <Trackpoint>
            <Time>2020-12-05T10:23:45.000Z</Time>
            <Position>
              <LatitudeDegrees>36.8304964341223239898681640625</LatitudeDegrees>
              <LongitudeDegrees>-4.3816856481134891510009765625</LongitudeDegrees>
            </Position>
            <AltitudeMeters>740</AltitudeMeters>
            <DistanceMeters>NAN</DistanceMeters>
          </Trackpoint>
          <Trackpoint>
            <Time>2020-12-05T10:23:46.000Z</Time>
            <Position>
              <LatitudeDegrees>36.8305085040628910064697265625</LatitudeDegrees>
              <LongitudeDegrees>-4.38168925233185291290283203125</LongitudeDegrees>
            </Position>
            <AltitudeMeters>739.5999755859375</AltitudeMeters>
            <DistanceMeters>NAN</DistanceMeters>
          </Trackpoint>
          <Trackpoint>
            <Time>2020-12-05T10:23:47.000Z</Time>
            <Position>
              <LatitudeDegrees>36.830518729984760284423828125</LatitudeDegrees>
              <LongitudeDegrees>-4.38169428147375583648681640625</LongitudeDegrees>
            </Position>
            <AltitudeMeters>739.20001220703125</AltitudeMeters>
            <DistanceMeters>NAN</DistanceMeters>
          </Trackpoint>
          <Trackpoint>
            <Time>2020-12-05T10:23:48.000Z</Time>
            <Position>
              <LatitudeDegrees>36.830528117716312408447265625</LatitudeDegrees>
              <LongitudeDegrees>-4.38170098699629306793212890625</LongitudeDegrees>
            </Position>
            <AltitudeMeters>739.20001220703125</AltitudeMeters>
            <DistanceMeters>NAN</DistanceMeters>
          </Trackpoint>
          <Trackpoint>
            <Time>2020-12-05T10:23:49.000Z</Time>
            <Position>
              <LatitudeDegrees>36.830536834895610809326171875</LatitudeDegrees>
              <LongitudeDegrees>-4.381709285080432891845703125</LongitudeDegrees>
            </Position>
            <AltitudeMeters>739</AltitudeMeters>
            <DistanceMeters>NAN</DistanceMeters>
          </Trackpoint>
          <Trackpoint>
            <Time>2020-12-05T10:23:50.000Z</Time>
            <Position>
              <LatitudeDegrees>36.830546893179416656494140625</LatitudeDegrees>
              <LongitudeDegrees>-4.38171573914587497711181640625</LongitudeDegrees>
            </Position>
            <AltitudeMeters>738.79998779296875</AltitudeMeters>
            <DistanceMeters>NAN</DistanceMeters>
          </Trackpoint>
          <Trackpoint>
            <Time>2020-12-05T10:23:51.000Z</Time>
            <Position>
              <LatitudeDegrees>36.830558963119983673095703125</LatitudeDegrees>
              <LongitudeDegrees>-4.381723701953887939453125</LongitudeDegrees>
            </Position>
            <AltitudeMeters>738.79998779296875</AltitudeMeters>
            <DistanceMeters>NAN</DistanceMeters>
          </Trackpoint>
          <Trackpoint>
            <Time>2020-12-05T10:23:52.000Z</Time>
            <Position>
              <LatitudeDegrees>36.830571703612804412841796875</LatitudeDegrees>
              <LongitudeDegrees>-4.3817309103906154632568359375</LongitudeDegrees>
            </Position>
            <AltitudeMeters>739.20001220703125</AltitudeMeters>
            <DistanceMeters>NAN</DistanceMeters>
          </Trackpoint>
          <Trackpoint>
            <Time>2020-12-05T10:23:53.000Z</Time>
            <Position>
              <LatitudeDegrees>36.8305842764675617218017578125</LatitudeDegrees>
              <LongitudeDegrees>-4.38173711299896240234375</LongitudeDegrees>
            </Position>
            <AltitudeMeters>739.79998779296875</AltitudeMeters>
            <DistanceMeters>NAN</DistanceMeters>
          </Trackpoint>
          <Trackpoint>
            <Time>2020-12-05T10:23:54.000Z</Time>
            <Position>
              <LatitudeDegrees>36.83059844188392162322998046875</LatitudeDegrees>
              <LongitudeDegrees>-4.38174356706440448760986328125</LongitudeDegrees>
            </Position>
            <AltitudeMeters>740.20001220703125</AltitudeMeters>
            <DistanceMeters>NAN</DistanceMeters>
          </Trackpoint>
          <Trackpoint>
            <Time>2020-12-05T10:23:55.000Z</Time>
            <Position>
              <LatitudeDegrees>36.8306121043860912322998046875</LatitudeDegrees>
              <LongitudeDegrees>-4.3817506916821002960205078125</LongitudeDegrees>
            </Position>
            <AltitudeMeters>740.4000244140625</AltitudeMeters>
            <DistanceMeters>NAN</DistanceMeters>
          </Trackpoint>
          <Trackpoint>
            <Time>2020-12-05T10:23:56.000Z</Time>
            <Position>
              <LatitudeDegrees>36.8306245096027851104736328125</LatitudeDegrees>
              <LongitudeDegrees>-4.38175563700497150421142578125</LongitudeDegrees>
            </Position>
            <AltitudeMeters>740.5999755859375</AltitudeMeters>
            <DistanceMeters>NAN</DistanceMeters>
          </Trackpoint>
          <Trackpoint>
            <Time>2020-12-05T10:23:57.000Z</Time>
            <Position>
              <LatitudeDegrees>36.8306359089910984039306640625</LatitudeDegrees>
              <LongitudeDegrees>-4.381763935089111328125</LongitudeDegrees>
            </Position>
            <AltitudeMeters>740.79998779296875</AltitudeMeters>
            <DistanceMeters>NAN</DistanceMeters>
          </Trackpoint>
          <Trackpoint>
            <Time>2020-12-05T10:23:58.000Z</Time>
            <Position>
              <LatitudeDegrees>36.83064521290361881256103515625</LatitudeDegrees>
              <LongitudeDegrees>-4.3817746639251708984375</LongitudeDegrees>
            </Position>
            <AltitudeMeters>740.79998779296875</AltitudeMeters>
            <DistanceMeters>NAN</DistanceMeters>
          </Trackpoint>
          <Trackpoint>
            <Time>2020-12-05T10:23:59.000Z</Time>
            <Position>
              <LatitudeDegrees>36.83065175078809261322021484375</LatitudeDegrees>
              <LongitudeDegrees>-4.38178765587508678436279296875</LongitudeDegrees>
            </Position>
            <AltitudeMeters>740.79998779296875</AltitudeMeters>
            <DistanceMeters>NAN</DistanceMeters>
          </Trackpoint>
          <Trackpoint>
            <Time>2020-12-05T10:24:00.000Z</Time>
            <Position>
              <LatitudeDegrees>36.83066189289093017578125</LatitudeDegrees>
              <LongitudeDegrees>-4.38179519958794116973876953125</LongitudeDegrees>
            </Position>
            <AltitudeMeters>740.79998779296875</AltitudeMeters>
            <DistanceMeters>NAN</DistanceMeters>
          </Trackpoint>
          <Trackpoint>
            <Time>2020-12-05T10:24:01.000Z</Time>
            <Position>
              <LatitudeDegrees>36.830673627555370330810546875</LatitudeDegrees>
              <LongitudeDegrees>-4.38180408440530300140380859375</LongitudeDegrees>
            </Position>
            <AltitudeMeters>740.5999755859375</AltitudeMeters>
            <DistanceMeters>NAN</DistanceMeters>
          </Trackpoint>
          <Trackpoint>
            <Time>2020-12-05T10:24:02.000Z</Time>
            <Position>
              <LatitudeDegrees>36.83068544603884220123291015625</LatitudeDegrees>
              <LongitudeDegrees>-4.38181146048009395599365234375</LongitudeDegrees>
            </Position>
            <AltitudeMeters>740.20001220703125</AltitudeMeters>
            <DistanceMeters>NAN</DistanceMeters>
          </Trackpoint>
          <Trackpoint>
            <Time>2020-12-05T10:24:03.000Z</Time>
            <Position>
              <LatitudeDegrees>36.83069483377039432525634765625</LatitudeDegrees>
              <LongitudeDegrees>-4.38182034529745578765869140625</LongitudeDegrees>
            </Position>
            <AltitudeMeters>739.79998779296875</AltitudeMeters>
            <DistanceMeters>NAN</DistanceMeters>
          </Trackpoint>
          <Trackpoint>
            <Time>2020-12-05T10:24:04.000Z</Time>
            <Position>
              <LatitudeDegrees>36.83070338331162929534912109375</LatitudeDegrees>
              <LongitudeDegrees>-4.381830655038356781005859375</LongitudeDegrees>
            </Position>
            <AltitudeMeters>739.4000244140625</AltitudeMeters>
            <DistanceMeters>NAN</DistanceMeters>
          </Trackpoint>
          <Trackpoint>
            <Time>2020-12-05T10:24:05.000Z</Time>
            <Position>
              <LatitudeDegrees>36.83071310631930828094482421875</LatitudeDegrees>
              <LongitudeDegrees>-4.3818385340273380279541015625</LongitudeDegrees>
            </Position>
            <AltitudeMeters>739.20001220703125</AltitudeMeters>
            <DistanceMeters>NAN</DistanceMeters>
          </Trackpoint>
          <Trackpoint>
            <Time>2020-12-05T10:24:06.000Z</Time>
            <Position>
              <LatitudeDegrees>36.8307197280228137969970703125</LatitudeDegrees>
              <LongitudeDegrees>-4.3818485923111438751220703125</LongitudeDegrees>
            </Position>
            <AltitudeMeters>739</AltitudeMeters>
            <DistanceMeters>NAN</DistanceMeters>
          </Trackpoint>
          <Trackpoint>
            <Time>2020-12-05T10:24:07.000Z</Time>
            <Position>
              <LatitudeDegrees>36.8307254277169704437255859375</LatitudeDegrees>
              <LongitudeDegrees>-4.38185789622366428375244140625</LongitudeDegrees>
            </Position>
            <AltitudeMeters>739</AltitudeMeters>
            <DistanceMeters>NAN</DistanceMeters>
          </Trackpoint>
          <Trackpoint>
            <Time>2020-12-05T10:24:08.000Z</Time>
            <Position>
              <LatitudeDegrees>36.83073121123015880584716796875</LatitudeDegrees>
              <LongitudeDegrees>-4.3818670324981212615966796875</LongitudeDegrees>
            </Position>
            <AltitudeMeters>739</AltitudeMeters>
            <DistanceMeters>NAN</DistanceMeters>
          </Trackpoint>
          <Trackpoint>
            <Time>2020-12-05T10:24:09.000Z</Time>
            <Position>
              <LatitudeDegrees>36.83073892258107662200927734375</LatitudeDegrees>
              <LongitudeDegrees>-4.38187566585838794708251953125</LongitudeDegrees>
            </Position>
            <AltitudeMeters>739</AltitudeMeters>
            <DistanceMeters>NAN</DistanceMeters>
          </Trackpoint>
          <Trackpoint>
            <Time>2020-12-05T10:24:10.000Z</Time>
            <Position>
              <LatitudeDegrees>36.8307462148368358612060546875</LatitudeDegrees>
              <LongitudeDegrees>-4.3818831257522106170654296875</LongitudeDegrees>
            </Position>
            <AltitudeMeters>739</AltitudeMeters>
            <DistanceMeters>NAN</DistanceMeters>
          </Trackpoint>
          <Trackpoint>
            <Time>2020-12-05T10:24:11.000Z</Time>
            <Position>
              <LatitudeDegrees>36.8307529203593730926513671875</LatitudeDegrees>
              <LongitudeDegrees>-4.38189335167407989501953125</LongitudeDegrees>
            </Position>
            <AltitudeMeters>739</AltitudeMeters>
            <DistanceMeters>NAN</DistanceMeters>
          </Trackpoint>
          <Trackpoint>
            <Time>2020-12-05T10:24:12.000Z</Time>
            <Position>
              <LatitudeDegrees>36.83076205663383007049560546875</LatitudeDegrees>
              <LongitudeDegrees>-4.381905756890773773193359375</LongitudeDegrees>
            </Position>
            <AltitudeMeters>738.79998779296875</AltitudeMeters>
            <DistanceMeters>NAN</DistanceMeters>
          </Trackpoint>
          <Trackpoint>
            <Time>2020-12-05T10:24:13.000Z</Time>
            <Position>
              <LatitudeDegrees>36.8307678401470184326171875</LatitudeDegrees>
              <LongitudeDegrees>-4.38191556371748447418212890625</LongitudeDegrees>
            </Position>
            <AltitudeMeters>738.5999755859375</AltitudeMeters>
            <DistanceMeters>NAN</DistanceMeters>
          </Trackpoint>
          <Trackpoint>
            <Time>2020-12-05T10:24:14.000Z</Time>
            <Position>
              <LatitudeDegrees>36.83077110908925533294677734375</LatitudeDegrees>
              <LongitudeDegrees>-4.38192880712449550628662109375</LongitudeDegrees>
            </Position>
            <AltitudeMeters>738.4000244140625</AltitudeMeters>
            <DistanceMeters>NAN</DistanceMeters>
          </Trackpoint>
          <Trackpoint>
            <Time>2020-12-05T10:24:15.000Z</Time>
            <Position>
              <LatitudeDegrees>36.83077655732631683349609375</LatitudeDegrees>
              <LongitudeDegrees>-4.38193936832249164581298828125</LongitudeDegrees>
            </Position>
            <AltitudeMeters>738.20001220703125</AltitudeMeters>
            <DistanceMeters>NAN</DistanceMeters>
          </Trackpoint>
          <Trackpoint>
            <Time>2020-12-05T10:24:16.000Z</Time>
            <Position>
              <LatitudeDegrees>36.8307800777256488800048828125</LatitudeDegrees>
              <LongitudeDegrees>-4.38195244409143924713134765625</LongitudeDegrees>
            </Position>
            <AltitudeMeters>738</AltitudeMeters>
            <DistanceMeters>NAN</DistanceMeters>
          </Trackpoint>
          <Trackpoint>
            <Time>2020-12-05T10:24:17.000Z</Time>
            <Position>
              <LatitudeDegrees>36.83078368194401264190673828125</LatitudeDegrees>
              <LongitudeDegrees>-4.381966106593608856201171875</LongitudeDegrees>
            </Position>
            <AltitudeMeters>737.5999755859375</AltitudeMeters>
            <DistanceMeters>NAN</DistanceMeters>
          </Trackpoint>
          <Trackpoint>
            <Time>2020-12-05T10:24:18.000Z</Time>
            <Position>
              <LatitudeDegrees>36.83078686706721782684326171875</LatitudeDegrees>
              <LongitudeDegrees>-4.38197918236255645751953125</LongitudeDegrees>
            </Position>
            <AltitudeMeters>737.4000244140625</AltitudeMeters>
            <DistanceMeters>NAN</DistanceMeters>
          </Trackpoint>
          <Trackpoint>
            <Time>2020-12-05T10:24:19.000Z</Time>
            <Position>
              <LatitudeDegrees>36.83079089038074016571044921875</LatitudeDegrees>
              <LongitudeDegrees>-4.3819900788366794586181640625</LongitudeDegrees>
            </Position>
            <AltitudeMeters>737.20001220703125</AltitudeMeters>
            <DistanceMeters>NAN</DistanceMeters>
          </Trackpoint>
          <Trackpoint>
            <Time>2020-12-05T10:24:20.000Z</Time>
            <Position>
              <LatitudeDegrees>36.83079801499843597412109375</LatitudeDegrees>
              <LongitudeDegrees>-4.3820004723966121673583984375</LongitudeDegrees>
            </Position>
            <AltitudeMeters>737</AltitudeMeters>
            <DistanceMeters>NAN</DistanceMeters>
          </Trackpoint>
          <Trackpoint>
            <Time>2020-12-05T10:24:21.000Z</Time>
            <Position>
              <LatitudeDegrees>36.83080648072063922882080078125</LatitudeDegrees>
              <LongitudeDegrees>-4.38201564364135265350341796875</LongitudeDegrees>
            </Position>
            <AltitudeMeters>736.4000244140625</AltitudeMeters>
            <DistanceMeters>NAN</DistanceMeters>
          </Trackpoint>
          <Trackpoint>
            <Time>2020-12-05T10:24:22.000Z</Time>
            <Position>
              <LatitudeDegrees>36.83081653900444507598876953125</LatitudeDegrees>
              <LongitudeDegrees>-4.38202804885804653167724609375</LongitudeDegrees>
            </Position>
            <AltitudeMeters>736.20001220703125</AltitudeMeters>
            <DistanceMeters>NAN</DistanceMeters>
          </Trackpoint>
          <Trackpoint>
            <Time>2020-12-05T10:24:23.000Z</Time>
            <Position>
              <LatitudeDegrees>36.8308246694505214691162109375</LatitudeDegrees>
              <LongitudeDegrees>-4.3820407055318355560302734375</LongitudeDegrees>
            </Position>
            <AltitudeMeters>736</AltitudeMeters>
            <DistanceMeters>NAN</DistanceMeters>
          </Trackpoint>
          <Trackpoint>
            <Time>2020-12-05T10:24:24.000Z</Time>
            <Position>
              <LatitudeDegrees>36.83082944713532924652099609375</LatitudeDegrees>
              <LongitudeDegrees>-4.3820522725582122802734375</LongitudeDegrees>
            </Position>
            <AltitudeMeters>735.79998779296875</AltitudeMeters>
            <DistanceMeters>NAN</DistanceMeters>
          </Trackpoint>
          <Trackpoint>
            <Time>2020-12-05T10:24:25.000Z</Time>
            <Position>
              <LatitudeDegrees>36.830831877887248992919921875</LatitudeDegrees>
              <LongitudeDegrees>-4.3820688687264919281005859375</LongitudeDegrees>
            </Position>
            <AltitudeMeters>735.79998779296875</AltitudeMeters>
            <DistanceMeters>NAN</DistanceMeters>
          </Trackpoint>
          <Trackpoint>
            <Time>2020-12-05T10:24:26.000Z</Time>
            <Position>
              <LatitudeDegrees>36.830832548439502716064453125</LatitudeDegrees>
              <LongitudeDegrees>-4.382080771028995513916015625</LongitudeDegrees>
            </Position>
            <AltitudeMeters>735.79998779296875</AltitudeMeters>
            <DistanceMeters>NAN</DistanceMeters>
          </Trackpoint>
          <Trackpoint>
            <Time>2020-12-05T10:24:27.000Z</Time>
            <Position>
              <LatitudeDegrees>36.83083397336304187774658203125</LatitudeDegrees>
              <LongitudeDegrees>-4.38208571635186672210693359375</LongitudeDegrees>
            </Position>
            <AltitudeMeters>735.79998779296875</AltitudeMeters>
            <DistanceMeters>NAN</DistanceMeters>
          </Trackpoint>
          <Trackpoint>
            <Time>2020-12-05T10:24:28.000Z</Time>
            <Position>
              <LatitudeDegrees>36.83083782903850078582763671875</LatitudeDegrees>
              <LongitudeDegrees>-4.38208647072315216064453125</LongitudeDegrees>
            </Position>
            <AltitudeMeters>735.79998779296875</AltitudeMeters>
            <DistanceMeters>NAN</DistanceMeters>
          </Trackpoint>
          <Trackpoint>
            <Time>2020-12-05T10:24:29.000Z</Time>
            <Position>
              <LatitudeDegrees>36.83084151707589626312255859375</LatitudeDegrees>
              <LongitudeDegrees>-4.3820903263986110687255859375</LongitudeDegrees>
            </Position>
            <AltitudeMeters>735.79998779296875</AltitudeMeters>
            <DistanceMeters>NAN</DistanceMeters>
          </Trackpoint>
          <Trackpoint>
            <Time>2020-12-05T10:24:30.000Z</Time>
            <Position>
              <LatitudeDegrees>36.8308464623987674713134765625</LatitudeDegrees>
              <LongitudeDegrees>-4.3820977024734020233154296875</LongitudeDegrees>
            </Position>
            <AltitudeMeters>736</AltitudeMeters>
            <DistanceMeters>NAN</DistanceMeters>
          </Trackpoint>
          <Trackpoint>
            <Time>2020-12-05T10:24:31.000Z</Time>
            <Position>
              <LatitudeDegrees>36.83085375465452671051025390625</LatitudeDegrees>
              <LongitudeDegrees>-4.3821087665855884552001953125</LongitudeDegrees>
            </Position>
            <AltitudeMeters>736</AltitudeMeters>
            <DistanceMeters>NAN</DistanceMeters>
          </Trackpoint>
          <Trackpoint>
            <Time>2020-12-05T10:24:32.000Z</Time>
            <Position>
              <LatitudeDegrees>36.8308615498244762420654296875</LatitudeDegrees>
              <LongitudeDegrees>-4.382125027477741241455078125</LongitudeDegrees>
            </Position>
            <AltitudeMeters>736</AltitudeMeters>
            <DistanceMeters>NAN</DistanceMeters>
          </Trackpoint>
          <Trackpoint>
            <Time>2020-12-05T10:24:33.000Z</Time>
            <Position>
              <LatitudeDegrees>36.83086817152798175811767578125</LatitudeDegrees>
              <LongitudeDegrees>-4.38214254565536975860595703125</LongitudeDegrees>
            </Position>
            <AltitudeMeters>736.20001220703125</AltitudeMeters>
            <DistanceMeters>NAN</DistanceMeters>
          </Trackpoint>
          <Trackpoint>
            <Time>2020-12-05T10:24:34.000Z</Time>
            <Position>
              <LatitudeDegrees>36.83087320066988468170166015625</LatitudeDegrees>
              <LongitudeDegrees>-4.38216023147106170654296875</LongitudeDegrees>
            </Position>
            <AltitudeMeters>736.20001220703125</AltitudeMeters>
            <DistanceMeters>NAN</DistanceMeters>
          </Trackpoint>
          <Trackpoint>
            <Time>2020-12-05T10:24:35.000Z</Time>
            <Position>
              <LatitudeDegrees>36.83087588287889957427978515625</LatitudeDegrees>
              <LongitudeDegrees>-4.3821783363819122314453125</LongitudeDegrees>
            </Position>
            <AltitudeMeters>736.4000244140625</AltitudeMeters>
            <DistanceMeters>NAN</DistanceMeters>
          </Trackpoint>
          <Trackpoint>
            <Time>2020-12-05T10:24:36.000Z</Time>
            <Position>
              <LatitudeDegrees>36.830878816545009613037109375</LatitudeDegrees>
              <LongitudeDegrees>-4.38219702802598476409912109375</LongitudeDegrees>
            </Position>
            <AltitudeMeters>736.4000244140625</AltitudeMeters>
            <DistanceMeters>NAN</DistanceMeters>
          </Trackpoint>
          <Trackpoint>
            <Time>2020-12-05T10:24:37.000Z</Time>
            <Position>
              <LatitudeDegrees>36.8308823369443416595458984375</LatitudeDegrees>
              <LongitudeDegrees>-4.382214881479740142822265625</LongitudeDegrees>
            </Position>
            <AltitudeMeters>736.4000244140625</AltitudeMeters>
            <DistanceMeters>NAN</DistanceMeters>
          </Trackpoint>
          <Trackpoint>
            <Time>2020-12-05T10:24:38.000Z</Time>
            <Position>
              <LatitudeDegrees>36.83088443242013454437255859375</LatitudeDegrees>
              <LongitudeDegrees>-4.3822314776480197906494140625</LongitudeDegrees>
            </Position>
            <AltitudeMeters>736.4000244140625</AltitudeMeters>
            <DistanceMeters>NAN</DistanceMeters>
          </Trackpoint>
          <Trackpoint>
            <Time>2020-12-05T10:24:39.000Z</Time>
            <Position>
              <LatitudeDegrees>36.8308850191533565521240234375</LatitudeDegrees>
              <LongitudeDegrees>-4.38224581070244312286376953125</LongitudeDegrees>
            </Position>
            <AltitudeMeters>736.5999755859375</AltitudeMeters>
            <DistanceMeters>NAN</DistanceMeters>
          </Trackpoint>
          <Trackpoint>
            <Time>2020-12-05T10:24:40.000Z</Time>
            <Position>
              <LatitudeDegrees>36.83088409714400768280029296875</LatitudeDegrees>
              <LongitudeDegrees>-4.382257126271724700927734375</LongitudeDegrees>
            </Position>
            <AltitudeMeters>736.5999755859375</AltitudeMeters>
            <DistanceMeters>NAN</DistanceMeters>
          </Trackpoint>
          <Trackpoint>
            <Time>2020-12-05T10:24:41.000Z</Time>
            <Position>
              <LatitudeDegrees>36.8308799900114536285400390625</LatitudeDegrees>
              <LongitudeDegrees>-4.38226751983165740966796875</LongitudeDegrees>
            </Position>
            <AltitudeMeters>736.4000244140625</AltitudeMeters>
            <DistanceMeters>NAN</DistanceMeters>
          </Trackpoint>
          <Trackpoint>
            <Time>2020-12-05T10:24:42.000Z</Time>
            <Position>
              <LatitudeDegrees>36.83087336830794811248779296875</LatitudeDegrees>
              <LongitudeDegrees>-4.3822856247425079345703125</LongitudeDegrees>
            </Position>
            <AltitudeMeters>736.4000244140625</AltitudeMeters>
            <DistanceMeters>NAN</DistanceMeters>
          </Trackpoint>
          <Trackpoint>
            <Time>2020-12-05T10:24:43.000Z</Time>
            <Position>
              <LatitudeDegrees>36.83087269775569438934326171875</LatitudeDegrees>
              <LongitudeDegrees>-4.3823045678436756134033203125</LongitudeDegrees>
            </Position>
            <AltitudeMeters>736.20001220703125</AltitudeMeters>
            <DistanceMeters>NAN</DistanceMeters>
          </Trackpoint>
          <Trackpoint>
            <Time>2020-12-05T10:24:44.000Z</Time>
            <Position>
              <LatitudeDegrees>36.830872781574726104736328125</LatitudeDegrees>
              <LongitudeDegrees>-4.3823220022022724151611328125</LongitudeDegrees>
            </Position>
            <AltitudeMeters>736</AltitudeMeters>
            <DistanceMeters>NAN</DistanceMeters>
          </Trackpoint>
          <Trackpoint>
            <Time>2020-12-05T10:24:45.000Z</Time>
            <Position>
              <LatitudeDegrees>36.83087487705051898956298828125</LatitudeDegrees>
              <LongitudeDegrees>-4.3823434598743915557861328125</LongitudeDegrees>
            </Position>
            <AltitudeMeters>735.4000244140625</AltitudeMeters>
            <DistanceMeters>NAN</DistanceMeters>
          </Trackpoint>
          <Trackpoint>
            <Time>2020-12-05T10:24:46.000Z</Time>
            <Position>
              <LatitudeDegrees>36.8308776430785655975341796875</LatitudeDegrees>
              <LongitudeDegrees>-4.38236667774617671966552734375</LongitudeDegrees>
            </Position>
            <AltitudeMeters>734.79998779296875</AltitudeMeters>
            <DistanceMeters>NAN</DistanceMeters>
          </Trackpoint>
          <Trackpoint>
            <Time>2020-12-05T10:24:47.000Z</Time>
            <Position>
              <LatitudeDegrees>36.83088141493499279022216796875</LatitudeDegrees>
              <LongitudeDegrees>-4.3823857046663761138916015625</LongitudeDegrees>
            </Position>
            <AltitudeMeters>734.4000244140625</AltitudeMeters>
            <DistanceMeters>NAN</DistanceMeters>
          </Trackpoint>
          <Trackpoint>
            <Time>2020-12-05T10:24:48.000Z</Time>
            <Position>
              <LatitudeDegrees>36.8308846838772296905517578125</LatitudeDegrees>
              <LongitudeDegrees>-4.38240288756787776947021484375</LongitudeDegrees>
            </Position>
            <AltitudeMeters>734</AltitudeMeters>
            <DistanceMeters>NAN</DistanceMeters>
          </Trackpoint>
          <Trackpoint>
            <Time>2020-12-05T10:24:49.000Z</Time>
            <Position>
              <LatitudeDegrees>36.83088795281946659088134765625</LatitudeDegrees>
              <LongitudeDegrees>-4.382416717708110809326171875</LongitudeDegrees>
            </Position>
            <AltitudeMeters>733.79998779296875</AltitudeMeters>
            <DistanceMeters>NAN</DistanceMeters>
          </Trackpoint>
          <Trackpoint>
            <Time>2020-12-05T10:24:50.000Z</Time>
            <Position>
              <LatitudeDegrees>36.8308910541236400604248046875</LatitudeDegrees>
              <LongitudeDegrees>-4.382428787648677825927734375</LongitudeDegrees>
            </Position>
            <AltitudeMeters>733.5999755859375</AltitudeMeters>
            <DistanceMeters>NAN</DistanceMeters>
          </Trackpoint>
          <Trackpoint>
            <Time>2020-12-05T10:24:51.000Z</Time>
            <Position>
              <LatitudeDegrees>36.83089365251362323760986328125</LatitudeDegrees>
              <LongitudeDegrees>-4.382442869246006011962890625</LongitudeDegrees>
            </Position>
            <AltitudeMeters>733.4000244140625</AltitudeMeters>
            <DistanceMeters>NAN</DistanceMeters>
          </Trackpoint>
          <Trackpoint>
            <Time>2020-12-05T10:24:52.000Z</Time>
            <Position>
              <LatitudeDegrees>36.8308947421610355377197265625</LatitudeDegrees>
              <LongitudeDegrees>-4.38246005214750766754150390625</LongitudeDegrees>
            </Position>
            <AltitudeMeters>733.20001220703125</AltitudeMeters>
            <DistanceMeters>NAN</DistanceMeters>
          </Trackpoint>
          <Trackpoint>
            <Time>2020-12-05T10:24:53.000Z</Time>
            <Position>
              <LatitudeDegrees>36.83089650236070156097412109375</LatitudeDegrees>
              <LongitudeDegrees>-4.38248117454349994659423828125</LongitudeDegrees>
            </Position>
            <AltitudeMeters>733.20001220703125</AltitudeMeters>
            <DistanceMeters>NAN</DistanceMeters>
          </Trackpoint>
          <Trackpoint>
            <Time>2020-12-05T10:24:54.000Z</Time>
            <Position>
              <LatitudeDegrees>36.8308992683887481689453125</LatitudeDegrees>
              <LongitudeDegrees>-4.3825064040720462799072265625</LongitudeDegrees>
            </Position>
            <AltitudeMeters>733.20001220703125</AltitudeMeters>
            <DistanceMeters>NAN</DistanceMeters>
          </Trackpoint>
          <Trackpoint>
            <Time>2020-12-05T10:24:55.000Z</Time>
            <Position>
              <LatitudeDegrees>36.8309017829596996307373046875</LatitudeDegrees>
              <LongitudeDegrees>-4.3825243413448333740234375</LongitudeDegrees>
            </Position>
            <AltitudeMeters>733.20001220703125</AltitudeMeters>
            <DistanceMeters>NAN</DistanceMeters>
          </Trackpoint>
          <Trackpoint>
            <Time>2020-12-05T10:24:56.000Z</Time>
            <Position>
              <LatitudeDegrees>36.8309048004448413848876953125</LatitudeDegrees>
              <LongitudeDegrees>-4.382541440427303314208984375</LongitudeDegrees>
            </Position>
            <AltitudeMeters>733.20001220703125</AltitudeMeters>
            <DistanceMeters>NAN</DistanceMeters>
          </Trackpoint>
          <Trackpoint>
            <Time>2020-12-05T10:24:57.000Z</Time>
            <Position>
              <LatitudeDegrees>36.8309101648628711700439453125</LatitudeDegrees>
              <LongitudeDegrees>-4.382560215890407562255859375</LongitudeDegrees>
            </Position>
            <AltitudeMeters>733.20001220703125</AltitudeMeters>
            <DistanceMeters>NAN</DistanceMeters>
          </Trackpoint>
          <Trackpoint>
            <Time>2020-12-05T10:24:58.000Z</Time>
            <Position>
              <LatitudeDegrees>36.8309155292809009552001953125</LatitudeDegrees>
              <LongitudeDegrees>-4.38257957808673381805419921875</LongitudeDegrees>
            </Position>
            <AltitudeMeters>733.4000244140625</AltitudeMeters>
            <DistanceMeters>NAN</DistanceMeters>
          </Trackpoint>
          <Trackpoint>
            <Time>2020-12-05T10:24:59.000Z</Time>
            <Position>
              <LatitudeDegrees>36.83091863058507442474365234375</LatitudeDegrees>
              <LongitudeDegrees>-4.382595084607601165771484375</LongitudeDegrees>
            </Position>
            <AltitudeMeters>733.4000244140625</AltitudeMeters>
            <DistanceMeters>NAN</DistanceMeters>
          </Trackpoint>
          <Trackpoint>
            <Time>2020-12-05T10:25:00.000Z</Time>
            <Position>
              <LatitudeDegrees>36.830921061336994171142578125</LatitudeDegrees>
              <LongitudeDegrees>-4.3826021254062652587890625</LongitudeDegrees>
            </Position>
            <AltitudeMeters>733.5999755859375</AltitudeMeters>
            <DistanceMeters>NAN</DistanceMeters>
          </Trackpoint>
          <Trackpoint>
            <Time>2020-12-05T10:25:01.000Z</Time>
            <Position>
              <LatitudeDegrees>36.8309249170124530792236328125</LatitudeDegrees>
              <LongitudeDegrees>-4.38260841183364391326904296875</LongitudeDegrees>
            </Position>
            <AltitudeMeters>733.5999755859375</AltitudeMeters>
            <DistanceMeters>NAN</DistanceMeters>
          </Trackpoint>
          <Trackpoint>
            <Time>2020-12-05T10:25:02.000Z</Time>
            <Position>
              <LatitudeDegrees>36.83093153871595859527587890625</LatitudeDegrees>
              <LongitudeDegrees>-4.382613189518451690673828125</LongitudeDegrees>
            </Position>
            <AltitudeMeters>733.5999755859375</AltitudeMeters>
            <DistanceMeters>NAN</DistanceMeters>
          </Trackpoint>
          <Trackpoint>
            <Time>2020-12-05T10:25:03.000Z</Time>
            <Position>
              <LatitudeDegrees>36.830939836800098419189453125</LatitudeDegrees>
              <LongitudeDegrees>-4.3826146982610225677490234375</LongitudeDegrees>
            </Position>
            <AltitudeMeters>733.5999755859375</AltitudeMeters>
            <DistanceMeters>NAN</DistanceMeters>
          </Trackpoint>
          <Trackpoint>
            <Time>2020-12-05T10:25:04.000Z</Time>
            <Position>
              <LatitudeDegrees>36.83094930835068225860595703125</LatitudeDegrees>
              <LongitudeDegrees>-4.38261620700359344482421875</LongitudeDegrees>
            </Position>
            <AltitudeMeters>733.5999755859375</AltitudeMeters>
            <DistanceMeters>NAN</DistanceMeters>
          </Trackpoint>
          <Trackpoint>
            <Time>2020-12-05T10:25:05.000Z</Time>
            <Position>
              <LatitudeDegrees>36.83095819316804409027099609375</LatitudeDegrees>
              <LongitudeDegrees>-4.38261888921260833740234375</LongitudeDegrees>
            </Position>
            <AltitudeMeters>733.4000244140625</AltitudeMeters>
            <DistanceMeters>NAN</DistanceMeters>
          </Trackpoint>
          <Trackpoint>
            <Time>2020-12-05T10:25:06.000Z</Time>
            <Position>
              <LatitudeDegrees>36.830967329442501068115234375</LatitudeDegrees>
              <LongitudeDegrees>-4.38262157142162322998046875</LongitudeDegrees>
            </Position>
            <AltitudeMeters>733.20001220703125</AltitudeMeters>
            <DistanceMeters>NAN</DistanceMeters>
          </Trackpoint>
          <Trackpoint>
            <Time>2020-12-05T10:25:07.000Z</Time>
            <Position>
              <LatitudeDegrees>36.83097847737371921539306640625</LatitudeDegrees>
              <LongitudeDegrees>-4.38262131996452808380126953125</LongitudeDegrees>
            </Position>
            <AltitudeMeters>733</AltitudeMeters>
            <DistanceMeters>NAN</DistanceMeters>
          </Trackpoint>
          <Trackpoint>
            <Time>2020-12-05T10:25:08.000Z</Time>
            <Position>
              <LatitudeDegrees>36.8309919722378253936767578125</LatitudeDegrees>
              <LongitudeDegrees>-4.3826207332313060760498046875</LongitudeDegrees>
            </Position>
            <AltitudeMeters>732.79998779296875</AltitudeMeters>
            <DistanceMeters>NAN</DistanceMeters>
          </Trackpoint>
          <Trackpoint>
            <Time>2020-12-05T10:25:09.000Z</Time>
            <Position>
              <LatitudeDegrees>36.8310063891112804412841796875</LatitudeDegrees>
              <LongitudeDegrees>-4.3826190568506717681884765625</LongitudeDegrees>
            </Position>
            <AltitudeMeters>732.5999755859375</AltitudeMeters>
            <DistanceMeters>NAN</DistanceMeters>
          </Trackpoint>
          <Trackpoint>
            <Time>2020-12-05T10:25:10.000Z</Time>
            <Position>
              <LatitudeDegrees>36.8310231529176235198974609375</LatitudeDegrees>
              <LongitudeDegrees>-4.3826177157461643218994140625</LongitudeDegrees>
            </Position>
            <AltitudeMeters>732.5999755859375</AltitudeMeters>
            <DistanceMeters>NAN</DistanceMeters>
          </Trackpoint>
          <Trackpoint>
            <Time>2020-12-05T10:25:11.000Z</Time>
            <Position>
              <LatitudeDegrees>36.8310387432575225830078125</LatitudeDegrees>
              <LongitudeDegrees>-4.38261461444199085235595703125</LongitudeDegrees>
            </Position>
            <AltitudeMeters>732.5999755859375</AltitudeMeters>
            <DistanceMeters>NAN</DistanceMeters>
          </Trackpoint>
          <Trackpoint>
            <Time>2020-12-05T10:25:12.000Z</Time>
            <Position>
              <LatitudeDegrees>36.8310536630451679229736328125</LatitudeDegrees>
              <LongitudeDegrees>-4.382609166204929351806640625</LongitudeDegrees>
            </Position>
            <AltitudeMeters>732.4000244140625</AltitudeMeters>
            <DistanceMeters>NAN</DistanceMeters>
          </Trackpoint>
          <Trackpoint>
            <Time>2020-12-05T10:25:13.000Z</Time>
            <Position>
              <LatitudeDegrees>36.8310647271573543548583984375</LatitudeDegrees>
              <LongitudeDegrees>-4.38259785063564777374267578125</LongitudeDegrees>
            </Position>
            <AltitudeMeters>732.20001220703125</AltitudeMeters>
            <DistanceMeters>NAN</DistanceMeters>
          </Trackpoint>
          <Trackpoint>
            <Time>2020-12-05T10:25:14.000Z</Time>
            <Position>
              <LatitudeDegrees>36.831075958907604217529296875</LatitudeDegrees>
              <LongitudeDegrees>-4.38258326612412929534912109375</LongitudeDegrees>
            </Position>
            <AltitudeMeters>732</AltitudeMeters>
            <DistanceMeters>NAN</DistanceMeters>
          </Trackpoint>
          <Trackpoint>
            <Time>2020-12-05T10:25:15.000Z</Time>
            <Position>
              <LatitudeDegrees>36.83109029196202754974365234375</LatitudeDegrees>
              <LongitudeDegrees>-4.382566921412944793701171875</LongitudeDegrees>
            </Position>
            <AltitudeMeters>731.79998779296875</AltitudeMeters>
            <DistanceMeters>NAN</DistanceMeters>
          </Trackpoint>
          <Trackpoint>
            <Time>2020-12-05T10:25:16.000Z</Time>
            <Position>
              <LatitudeDegrees>36.83110102079808712005615234375</LatitudeDegrees>
              <LongitudeDegrees>-4.3825540132820606231689453125</LongitudeDegrees>
            </Position>
            <AltitudeMeters>731.79998779296875</AltitudeMeters>
            <DistanceMeters>NAN</DistanceMeters>
          </Trackpoint>
          <Trackpoint>
            <Time>2020-12-05T10:25:17.000Z</Time>
            <Position>
              <LatitudeDegrees>36.831109821796417236328125</LatitudeDegrees>
              <LongitudeDegrees>-4.38254487700760364532470703125</LongitudeDegrees>
            </Position>
            <AltitudeMeters>731.5999755859375</AltitudeMeters>
            <DistanceMeters>NAN</DistanceMeters>
          </Trackpoint>
          <Trackpoint>
            <Time>2020-12-05T10:25:18.000Z</Time>
            <Position>
              <LatitudeDegrees>36.83111443184316158294677734375</LatitudeDegrees>
              <LongitudeDegrees>-4.3825406022369861602783203125</LongitudeDegrees>
            </Position>
            <AltitudeMeters>731.20001220703125</AltitudeMeters>
            <DistanceMeters>NAN</DistanceMeters>
          </Trackpoint>
          <Trackpoint>
            <Time>2020-12-05T10:25:19.000Z</Time>
            <Position>
              <LatitudeDegrees>36.83111661113798618316650390625</LatitudeDegrees>
              <LongitudeDegrees>-4.38253984786570072174072265625</LongitudeDegrees>
            </Position>
            <AltitudeMeters>731</AltitudeMeters>
            <DistanceMeters>NAN</DistanceMeters>
          </Trackpoint>
          <Trackpoint>
            <Time>2020-12-05T10:25:20.000Z</Time>
            <Position>
              <LatitudeDegrees>36.83111527003347873687744140625</LatitudeDegrees>
              <LongitudeDegrees>-4.38253842294216156005859375</LongitudeDegrees>
            </Position>
            <AltitudeMeters>731</AltitudeMeters>
            <DistanceMeters>NAN</DistanceMeters>
          </Trackpoint>
          <Trackpoint>
            <Time>2020-12-05T10:25:21.000Z</Time>
            <Position>
              <LatitudeDegrees>36.831116192042827606201171875</LatitudeDegrees>
              <LongitudeDegrees>-4.38254177570343017578125</LongitudeDegrees>
            </Position>
            <AltitudeMeters>730.79998779296875</AltitudeMeters>
            <DistanceMeters>NAN</DistanceMeters>
          </Trackpoint>
          <Trackpoint>
            <Time>2020-12-05T10:25:22.000Z</Time>
            <Position>
              <LatitudeDegrees>36.83111778460443019866943359375</LatitudeDegrees>
              <LongitudeDegrees>-4.38254320062696933746337890625</LongitudeDegrees>
            </Position>
            <AltitudeMeters>730.79998779296875</AltitudeMeters>
            <DistanceMeters>NAN</DistanceMeters>
          </Trackpoint>
          <Trackpoint>
            <Time>2020-12-05T10:25:23.000Z</Time>
            <Position>
              <LatitudeDegrees>36.83111929334700107574462890625</LatitudeDegrees>
              <LongitudeDegrees>-4.38254605047404766082763671875</LongitudeDegrees>
            </Position>
            <AltitudeMeters>730.79998779296875</AltitudeMeters>
            <DistanceMeters>NAN</DistanceMeters>
          </Trackpoint>
          <Trackpoint>
            <Time>2020-12-05T10:25:24.000Z</Time>
            <Position>
              <LatitudeDegrees>36.83112532831728458404541015625</LatitudeDegrees>
              <LongitudeDegrees>-4.38255510292947292327880859375</LongitudeDegrees>
            </Position>
            <AltitudeMeters>730.79998779296875</AltitudeMeters>
            <DistanceMeters>NAN</DistanceMeters>
          </Trackpoint>
          <Trackpoint>
            <Time>2020-12-05T10:25:25.000Z</Time>
            <Position>
              <LatitudeDegrees>36.83113236911594867706298828125</LatitudeDegrees>
              <LongitudeDegrees>-4.382560886442661285400390625</LongitudeDegrees>
            </Position>
            <AltitudeMeters>730.79998779296875</AltitudeMeters>
            <DistanceMeters>NAN</DistanceMeters>
          </Trackpoint>
          <Trackpoint>
            <Time>2020-12-05T10:25:26.000Z</Time>
            <Position>
              <LatitudeDegrees>36.83114376850426197052001953125</LatitudeDegrees>
              <LongitudeDegrees>-4.3825613893568515777587890625</LongitudeDegrees>
            </Position>
            <AltitudeMeters>730.79998779296875</AltitudeMeters>
            <DistanceMeters>NAN</DistanceMeters>
          </Trackpoint>
          <Trackpoint>
            <Time>2020-12-05T10:25:27.000Z</Time>
            <Position>
              <LatitudeDegrees>36.8311569280922412872314453125</LatitudeDegrees>
              <LongitudeDegrees>-4.3825523369014263153076171875</LongitudeDegrees>
            </Position>
            <AltitudeMeters>730.79998779296875</AltitudeMeters>
            <DistanceMeters>NAN</DistanceMeters>
          </Trackpoint>
          <Trackpoint>
            <Time>2020-12-05T10:25:28.000Z</Time>
            <Position>
              <LatitudeDegrees>36.831169836223125457763671875</LatitudeDegrees>
              <LongitudeDegrees>-4.38254705630242824554443359375</LongitudeDegrees>
            </Position>
            <AltitudeMeters>730.79998779296875</AltitudeMeters>
            <DistanceMeters>NAN</DistanceMeters>
          </Trackpoint>
          <Trackpoint>
            <Time>2020-12-05T10:25:29.000Z</Time>
            <Position>
              <LatitudeDegrees>36.83118282817304134368896484375</LatitudeDegrees>
              <LongitudeDegrees>-4.38254152424633502960205078125</LongitudeDegrees>
            </Position>
            <AltitudeMeters>731</AltitudeMeters>
            <DistanceMeters>NAN</DistanceMeters>
          </Trackpoint>
          <Trackpoint>
            <Time>2020-12-05T10:25:30.000Z</Time>
            <Position>
              <LatitudeDegrees>36.83119573630392551422119140625</LatitudeDegrees>
              <LongitudeDegrees>-4.38253532163798809051513671875</LongitudeDegrees>
            </Position>
            <AltitudeMeters>731</AltitudeMeters>
            <DistanceMeters>NAN</DistanceMeters>
          </Trackpoint>
          <Trackpoint>
            <Time>2020-12-05T10:25:31.000Z</Time>
            <Position>
              <LatitudeDegrees>36.8312085606157779693603515625</LatitudeDegrees>
              <LongitudeDegrees>-4.3825288675725460052490234375</LongitudeDegrees>
            </Position>
            <AltitudeMeters>731</AltitudeMeters>
            <DistanceMeters>NAN</DistanceMeters>
          </Trackpoint>
          <Trackpoint>
            <Time>2020-12-05T10:25:32.000Z</Time>
            <Position>
              <LatitudeDegrees>36.83122121728956699371337890625</LatitudeDegrees>
              <LongitudeDegrees>-4.38252174295485019683837890625</LongitudeDegrees>
            </Position>
            <AltitudeMeters>731</AltitudeMeters>
            <DistanceMeters>NAN</DistanceMeters>
          </Trackpoint>
          <Trackpoint>
            <Time>2020-12-05T10:25:33.000Z</Time>
            <Position>
              <LatitudeDegrees>36.83123110793530941009521484375</LatitudeDegrees>
              <LongitudeDegrees>-4.3825147859752178192138671875</LongitudeDegrees>
            </Position>
            <AltitudeMeters>731.20001220703125</AltitudeMeters>
            <DistanceMeters>NAN</DistanceMeters>
          </Trackpoint>
          <Trackpoint>
            <Time>2020-12-05T10:25:34.000Z</Time>
            <Position>
              <LatitudeDegrees>36.83124192059040069580078125</LatitudeDegrees>
              <LongitudeDegrees>-4.3825094215571880340576171875</LongitudeDegrees>
            </Position>
            <AltitudeMeters>731.20001220703125</AltitudeMeters>
            <DistanceMeters>NAN</DistanceMeters>
          </Trackpoint>
          <Trackpoint>
            <Time>2020-12-05T10:25:35.000Z</Time>
            <Position>
              <LatitudeDegrees>36.8312514759600162506103515625</LatitudeDegrees>
              <LongitudeDegrees>-4.38250196166336536407470703125</LongitudeDegrees>
            </Position>
            <AltitudeMeters>731.20001220703125</AltitudeMeters>
            <DistanceMeters>NAN</DistanceMeters>
          </Trackpoint>
          <Trackpoint>
            <Time>2020-12-05T10:25:36.000Z</Time>
            <Position>
              <LatitudeDegrees>36.8312585167586803436279296875</LatitudeDegrees>
              <LongitudeDegrees>-4.38249022699892520904541015625</LongitudeDegrees>
            </Position>
            <AltitudeMeters>731.20001220703125</AltitudeMeters>
            <DistanceMeters>NAN</DistanceMeters>
          </Trackpoint>
          <Trackpoint>
            <Time>2020-12-05T10:25:37.000Z</Time>
            <Position>
              <LatitudeDegrees>36.83126329444348812103271484375</LatitudeDegrees>
              <LongitudeDegrees>-4.382477737963199615478515625</LongitudeDegrees>
            </Position>
            <AltitudeMeters>731</AltitudeMeters>
            <DistanceMeters>NAN</DistanceMeters>
          </Trackpoint>
          <Trackpoint>
            <Time>2020-12-05T10:25:38.000Z</Time>
            <Position>
              <LatitudeDegrees>36.8312720954418182373046875</LatitudeDegrees>
              <LongitudeDegrees>-4.382469020783901214599609375</LongitudeDegrees>
            </Position>
            <AltitudeMeters>730.79998779296875</AltitudeMeters>
            <DistanceMeters>NAN</DistanceMeters>
          </Trackpoint>
          <Trackpoint>
            <Time>2020-12-05T10:25:39.000Z</Time>
            <Position>
              <LatitudeDegrees>36.8312772922217845916748046875</LatitudeDegrees>
              <LongitudeDegrees>-4.38245921395719051361083984375</LongitudeDegrees>
            </Position>
            <AltitudeMeters>730.79998779296875</AltitudeMeters>
            <DistanceMeters>NAN</DistanceMeters>
          </Trackpoint>
          <Trackpoint>
            <Time>2020-12-05T10:25:40.000Z</Time>
            <Position>
              <LatitudeDegrees>36.83128324337303638458251953125</LatitudeDegrees>
              <LongitudeDegrees>-4.382444880902767181396484375</LongitudeDegrees>
            </Position>
            <AltitudeMeters>730.5999755859375</AltitudeMeters>
            <DistanceMeters>NAN</DistanceMeters>
          </Trackpoint>
          <Trackpoint>
            <Time>2020-12-05T10:25:41.000Z</Time>
            <Position>
              <LatitudeDegrees>36.8312900327146053314208984375</LatitudeDegrees>
              <LongitudeDegrees>-4.3824319727718830108642578125</LongitudeDegrees>
            </Position>
            <AltitudeMeters>730.4000244140625</AltitudeMeters>
            <DistanceMeters>NAN</DistanceMeters>
          </Trackpoint>
          <Trackpoint>
            <Time>2020-12-05T10:25:42.000Z</Time>
            <Position>
              <LatitudeDegrees>36.83129665441811084747314453125</LatitudeDegrees>
              <LongitudeDegrees>-4.38242116011679172515869140625</LongitudeDegrees>
            </Position>
            <AltitudeMeters>730.20001220703125</AltitudeMeters>
            <DistanceMeters>NAN</DistanceMeters>
          </Trackpoint>
          <Trackpoint>
            <Time>2020-12-05T10:25:43.000Z</Time>
            <Position>
              <LatitudeDegrees>36.8313031084835529327392578125</LatitudeDegrees>
              <LongitudeDegrees>-4.382414706051349639892578125</LongitudeDegrees>
            </Position>
            <AltitudeMeters>730</AltitudeMeters>
            <DistanceMeters>NAN</DistanceMeters>
          </Trackpoint>
          <Trackpoint>
            <Time>2020-12-05T10:25:44.000Z</Time>
            <Position>
              <LatitudeDegrees>36.83130738325417041778564453125</LatitudeDegrees>
              <LongitudeDegrees>-4.38240875490009784698486328125</LongitudeDegrees>
            </Position>
            <AltitudeMeters>729.79998779296875</AltitudeMeters>
            <DistanceMeters>NAN</DistanceMeters>
          </Trackpoint>
          <Trackpoint>
            <Time>2020-12-05T10:25:45.000Z</Time>
            <Position>
              <LatitudeDegrees>36.831311322748661041259765625</LatitudeDegrees>
              <LongitudeDegrees>-4.38240288756787776947021484375</LongitudeDegrees>
            </Position>
            <AltitudeMeters>729.5999755859375</AltitudeMeters>
            <DistanceMeters>NAN</DistanceMeters>
          </Trackpoint>
          <Trackpoint>
            <Time>2020-12-05T10:25:46.000Z</Time>
            <Position>
              <LatitudeDegrees>36.83131258003413677215576171875</LatitudeDegrees>
              <LongitudeDegrees>-4.3823982775211334228515625</LongitudeDegrees>
            </Position>
            <AltitudeMeters>729.4000244140625</AltitudeMeters>
            <DistanceMeters>NAN</DistanceMeters>
          </Trackpoint>
          <Trackpoint>
            <Time>2020-12-05T10:25:47.000Z</Time>
            <Position>
              <LatitudeDegrees>36.8313145078718662261962890625</LatitudeDegrees>
              <LongitudeDegrees>-4.3823964335024356842041015625</LongitudeDegrees>
            </Position>
            <AltitudeMeters>729.4000244140625</AltitudeMeters>
            <DistanceMeters>NAN</DistanceMeters>
          </Trackpoint>
          <Trackpoint>
            <Time>2020-12-05T10:25:48.000Z</Time>
            <Position>
              <LatitudeDegrees>36.83131559751927852630615234375</LatitudeDegrees>
              <LongitudeDegrees>-4.38239702023565769195556640625</LongitudeDegrees>
            </Position>
            <AltitudeMeters>729.4000244140625</AltitudeMeters>
            <DistanceMeters>NAN</DistanceMeters>
          </Trackpoint>
          <Trackpoint>
            <Time>2020-12-05T10:25:49.000Z</Time>
            <Position>
              <LatitudeDegrees>36.83131635189056396484375</LatitudeDegrees>
              <LongitudeDegrees>-4.38240070827305316925048828125</LongitudeDegrees>
            </Position>
            <AltitudeMeters>729.4000244140625</AltitudeMeters>
            <DistanceMeters>NAN</DistanceMeters>
          </Trackpoint>
          <Trackpoint>
            <Time>2020-12-05T10:25:50.000Z</Time>
            <Position>
              <LatitudeDegrees>36.831315346062183380126953125</LatitudeDegrees>
              <LongitudeDegrees>-4.3824038095772266387939453125</LongitudeDegrees>
            </Position>
            <AltitudeMeters>729.4000244140625</AltitudeMeters>
            <DistanceMeters>NAN</DistanceMeters>
          </Trackpoint>
          <Trackpoint>
            <Time>2020-12-05T10:25:51.000Z</Time>
            <Position>
              <LatitudeDegrees>36.831314675509929656982421875</LatitudeDegrees>
              <LongitudeDegrees>-4.38240640796720981597900390625</LongitudeDegrees>
            </Position>
            <AltitudeMeters>729.4000244140625</AltitudeMeters>
            <DistanceMeters>NAN</DistanceMeters>
          </Trackpoint>
          <Trackpoint>
            <Time>2020-12-05T10:25:52.000Z</Time>
            <Position>
              <LatitudeDegrees>36.831314675509929656982421875</LatitudeDegrees>
              <LongitudeDegrees>-4.38240640796720981597900390625</LongitudeDegrees>
            </Position>
            <AltitudeMeters>729.4000244140625</AltitudeMeters>
            <DistanceMeters>NAN</DistanceMeters>
          </Trackpoint>
          <Trackpoint>
            <Time>2020-12-05T10:25:53.000Z</Time>
            <Position>
              <LatitudeDegrees>36.83131945319473743438720703125</LatitudeDegrees>
              <LongitudeDegrees>-4.38240238465368747711181640625</LongitudeDegrees>
            </Position>
            <AltitudeMeters>729.4000244140625</AltitudeMeters>
            <DistanceMeters>NAN</DistanceMeters>
          </Trackpoint>
          <Trackpoint>
            <Time>2020-12-05T10:25:54.000Z</Time>
            <Position>
              <LatitudeDegrees>36.8313312716782093048095703125</LatitudeDegrees>
              <LongitudeDegrees>-4.38239601440727710723876953125</LongitudeDegrees>
            </Position>
            <AltitudeMeters>729.4000244140625</AltitudeMeters>
            <DistanceMeters>NAN</DistanceMeters>
          </Trackpoint>
          <Trackpoint>
            <Time>2020-12-05T10:25:55.000Z</Time>
            <Position>
              <LatitudeDegrees>36.831347532570362091064453125</LatitudeDegrees>
              <LongitudeDegrees>-4.3823967687785625457763671875</LongitudeDegrees>
            </Position>
            <AltitudeMeters>729.4000244140625</AltitudeMeters>
            <DistanceMeters>NAN</DistanceMeters>
          </Trackpoint>
          <Trackpoint>
            <Time>2020-12-05T10:25:56.000Z</Time>
            <Position>
              <LatitudeDegrees>36.83136119507253170013427734375</LatitudeDegrees>
              <LongitudeDegrees>-4.3823944218456745147705078125</LongitudeDegrees>
            </Position>
            <AltitudeMeters>729.4000244140625</AltitudeMeters>
            <DistanceMeters>NAN</DistanceMeters>
          </Trackpoint>
          <Trackpoint>
            <Time>2020-12-05T10:25:57.000Z</Time>
            <Position>
              <LatitudeDegrees>36.8313731811940670013427734375</LatitudeDegrees>
              <LongitudeDegrees>-4.38239417038857936859130859375</LongitudeDegrees>
            </Position>
            <AltitudeMeters>729.4000244140625</AltitudeMeters>
            <DistanceMeters>NAN</DistanceMeters>
          </Trackpoint>
          <Trackpoint>
            <Time>2020-12-05T10:25:58.000Z</Time>
            <Position>
              <LatitudeDegrees>36.8313818983733654022216796875</LatitudeDegrees>
              <LongitudeDegrees>-4.38239148817956447601318359375</LongitudeDegrees>
            </Position>
            <AltitudeMeters>729.4000244140625</AltitudeMeters>
            <DistanceMeters>NAN</DistanceMeters>
          </Trackpoint>
          <Trackpoint>
            <Time>2020-12-05T10:25:59.000Z</Time>
            <Position>
              <LatitudeDegrees>36.83138818480074405670166015625</LatitudeDegrees>
              <LongitudeDegrees>-4.38239199109375476837158203125</LongitudeDegrees>
            </Position>
            <AltitudeMeters>729.4000244140625</AltitudeMeters>
            <DistanceMeters>NAN</DistanceMeters>
          </Trackpoint>
          <Trackpoint>
            <Time>2020-12-05T10:26:00.000Z</Time>
            <Position>
              <LatitudeDegrees>36.8313932977616786956787109375</LatitudeDegrees>
              <LongitudeDegrees>-4.382395260035991668701171875</LongitudeDegrees>
            </Position>
            <AltitudeMeters>729.4000244140625</AltitudeMeters>
            <DistanceMeters>NAN</DistanceMeters>
          </Trackpoint>
          <Trackpoint>
            <Time>2020-12-05T10:26:01.000Z</Time>
            <Position>
              <LatitudeDegrees>36.8313993327319622039794921875</LatitudeDegrees>
              <LongitudeDegrees>-4.38240271992981433868408203125</LongitudeDegrees>
            </Position>
            <AltitudeMeters>729.4000244140625</AltitudeMeters>
            <DistanceMeters>NAN</DistanceMeters>
          </Trackpoint>
          <Trackpoint>
            <Time>2020-12-05T10:26:02.000Z</Time>
            <Position>
              <LatitudeDegrees>36.83140821754932403564453125</LatitudeDegrees>
              <LongitudeDegrees>-4.38241378404200077056884765625</LongitudeDegrees>
            </Position>
            <AltitudeMeters>729.4000244140625</AltitudeMeters>
            <DistanceMeters>NAN</DistanceMeters>
          </Trackpoint>
          <Trackpoint>
            <Time>2020-12-05T10:26:03.000Z</Time>
            <Position>
              <LatitudeDegrees>36.831420958042144775390625</LatitudeDegrees>
              <LongitudeDegrees>-4.3824256025254726409912109375</LongitudeDegrees>
            </Position>
            <AltitudeMeters>729.5999755859375</AltitudeMeters>
            <DistanceMeters>NAN</DistanceMeters>
          </Trackpoint>
          <Trackpoint>
            <Time>2020-12-05T10:26:04.000Z</Time>
            <Position>
              <LatitudeDegrees>36.83142992667853832244873046875</LatitudeDegrees>
              <LongitudeDegrees>-4.3824291229248046875</LongitudeDegrees>
            </Position>
            <AltitudeMeters>729.5999755859375</AltitudeMeters>
            <DistanceMeters>NAN</DistanceMeters>
          </Trackpoint>
          <Trackpoint>
            <Time>2020-12-05T10:26:05.000Z</Time>
            <Position>
              <LatitudeDegrees>36.83144182898104190826416015625</LatitudeDegrees>
              <LongitudeDegrees>-4.382434152066707611083984375</LongitudeDegrees>
            </Position>
            <AltitudeMeters>729.5999755859375</AltitudeMeters>
            <DistanceMeters>NAN</DistanceMeters>
          </Trackpoint>
          <Trackpoint>
            <Time>2020-12-05T10:26:06.000Z</Time>
            <Position>
              <LatitudeDegrees>36.8314523063600063323974609375</LatitudeDegrees>
              <LongitudeDegrees>-4.38244395889341831207275390625</LongitudeDegrees>
            </Position>
            <AltitudeMeters>729.5999755859375</AltitudeMeters>
            <DistanceMeters>NAN</DistanceMeters>
          </Trackpoint>
          <Trackpoint>
            <Time>2020-12-05T10:26:07.000Z</Time>
            <Position>
              <LatitudeDegrees>36.831464879214763641357421875</LatitudeDegrees>
              <LongitudeDegrees>-4.38245317898690700531005859375</LongitudeDegrees>
            </Position>
            <AltitudeMeters>729.5999755859375</AltitudeMeters>
            <DistanceMeters>NAN</DistanceMeters>
          </Trackpoint>
          <Trackpoint>
            <Time>2020-12-05T10:26:08.000Z</Time>
            <Position>
              <LatitudeDegrees>36.83147929608821868896484375</LatitudeDegrees>
              <LongitudeDegrees>-4.3824587948620319366455078125</LongitudeDegrees>
            </Position>
            <AltitudeMeters>729.79998779296875</AltitudeMeters>
            <DistanceMeters>NAN</DistanceMeters>
          </Trackpoint>
          <Trackpoint>
            <Time>2020-12-05T10:26:09.000Z</Time>
            <Position>
              <LatitudeDegrees>36.83149480260908603668212890625</LatitudeDegrees>
              <LongitudeDegrees>-4.38246156089007854461669921875</LongitudeDegrees>
            </Position>
            <AltitudeMeters>729.79998779296875</AltitudeMeters>
            <DistanceMeters>NAN</DistanceMeters>
          </Trackpoint>
          <Trackpoint>
            <Time>2020-12-05T10:26:10.000Z</Time>
            <Position>
              <LatitudeDegrees>36.83150888420641422271728515625</LatitudeDegrees>
              <LongitudeDegrees>-4.38246667385101318359375</LongitudeDegrees>
            </Position>
            <AltitudeMeters>729.79998779296875</AltitudeMeters>
            <DistanceMeters>NAN</DistanceMeters>
          </Trackpoint>
          <Trackpoint>
            <Time>2020-12-05T10:26:11.000Z</Time>
            <Position>
              <LatitudeDegrees>36.83152179233729839324951171875</LatitudeDegrees>
              <LongitudeDegrees>-4.382469356060028076171875</LongitudeDegrees>
            </Position>
            <AltitudeMeters>729.5999755859375</AltitudeMeters>
            <DistanceMeters>NAN</DistanceMeters>
          </Trackpoint>
          <Trackpoint>
            <Time>2020-12-05T10:26:12.000Z</Time>
            <Position>
              <LatitudeDegrees>36.8315341137349605560302734375</LatitudeDegrees>
              <LongitudeDegrees>-4.38247128389775753021240234375</LongitudeDegrees>
            </Position>
            <AltitudeMeters>729.4000244140625</AltitudeMeters>
            <DistanceMeters>NAN</DistanceMeters>
          </Trackpoint>
          <Trackpoint>
            <Time>2020-12-05T10:26:13.000Z</Time>
            <Position>
              <LatitudeDegrees>36.831545345485210418701171875</LatitudeDegrees>
              <LongitudeDegrees>-4.38247128389775753021240234375</LongitudeDegrees>
            </Position>
            <AltitudeMeters>729.4000244140625</AltitudeMeters>
            <DistanceMeters>NAN</DistanceMeters>
          </Trackpoint>
          <Trackpoint>
            <Time>2020-12-05T10:26:14.000Z</Time>
            <Position>
              <LatitudeDegrees>36.8315564095973968505859375</LatitudeDegrees>
              <LongitudeDegrees>-4.38246994279325008392333984375</LongitudeDegrees>
            </Position>
            <AltitudeMeters>729.20001220703125</AltitudeMeters>
            <DistanceMeters>NAN</DistanceMeters>
          </Trackpoint>
          <Trackpoint>
            <Time>2020-12-05T10:26:15.000Z</Time>
            <Position>
              <LatitudeDegrees>36.8315669707953929901123046875</LatitudeDegrees>
              <LongitudeDegrees>-4.3824668414890766143798828125</LongitudeDegrees>
            </Position>
            <AltitudeMeters>729.20001220703125</AltitudeMeters>
            <DistanceMeters>NAN</DistanceMeters>
          </Trackpoint>
          <Trackpoint>
            <Time>2020-12-05T10:26:16.000Z</Time>
            <Position>
              <LatitudeDegrees>36.83157845400273799896240234375</LatitudeDegrees>
              <LongitudeDegrees>-4.38246122561395168304443359375</LongitudeDegrees>
            </Position>
            <AltitudeMeters>729</AltitudeMeters>
            <DistanceMeters>NAN</DistanceMeters>
          </Trackpoint>
          <Trackpoint>
            <Time>2020-12-05T10:26:17.000Z</Time>
            <Position>
              <LatitudeDegrees>36.831592284142971038818359375</LatitudeDegrees>
              <LongitudeDegrees>-4.38245502300560474395751953125</LongitudeDegrees>
            </Position>
            <AltitudeMeters>729</AltitudeMeters>
            <DistanceMeters>NAN</DistanceMeters>
          </Trackpoint>
          <Trackpoint>
            <Time>2020-12-05T10:26:18.000Z</Time>
            <Position>
              <LatitudeDegrees>36.83160980232059955596923828125</LatitudeDegrees>
              <LongitudeDegrees>-4.382448904216289520263671875</LongitudeDegrees>
            </Position>
            <AltitudeMeters>728.79998779296875</AltitudeMeters>
            <DistanceMeters>NAN</DistanceMeters>
          </Trackpoint>
          <Trackpoint>
            <Time>2020-12-05T10:26:19.000Z</Time>
            <Position>
              <LatitudeDegrees>36.83162790723145008087158203125</LatitudeDegrees>
              <LongitudeDegrees>-4.382440857589244842529296875</LongitudeDegrees>
            </Position>
            <AltitudeMeters>728.79998779296875</AltitudeMeters>
            <DistanceMeters>NAN</DistanceMeters>
          </Trackpoint>
          <Trackpoint>
            <Time>2020-12-05T10:26:20.000Z</Time>
            <Position>
              <LatitudeDegrees>36.831643916666507720947265625</LatitudeDegrees>
              <LongitudeDegrees>-4.38243255950510501861572265625</LongitudeDegrees>
            </Position>
            <AltitudeMeters>728.79998779296875</AltitudeMeters>
            <DistanceMeters>NAN</DistanceMeters>
          </Trackpoint>
          <Trackpoint>
            <Time>2020-12-05T10:26:21.000Z</Time>
            <Position>
              <LatitudeDegrees>36.83166009373962879180908203125</LatitudeDegrees>
              <LongitudeDegrees>-4.38242501579225063323974609375</LongitudeDegrees>
            </Position>
            <AltitudeMeters>728.5999755859375</AltitudeMeters>
            <DistanceMeters>NAN</DistanceMeters>
          </Trackpoint>
          <Trackpoint>
            <Time>2020-12-05T10:26:22.000Z</Time>
            <Position>
              <LatitudeDegrees>36.8316752649843692779541015625</LatitudeDegrees>
              <LongitudeDegrees>-4.3824178911745548248291015625</LongitudeDegrees>
            </Position>
            <AltitudeMeters>728.4000244140625</AltitudeMeters>
            <DistanceMeters>NAN</DistanceMeters>
          </Trackpoint>
          <Trackpoint>
            <Time>2020-12-05T10:26:23.000Z</Time>
            <Position>
              <LatitudeDegrees>36.83168926276266574859619140625</LatitudeDegrees>
              <LongitudeDegrees>-4.382410347461700439453125</LongitudeDegrees>
            </Position>
            <AltitudeMeters>728.4000244140625</AltitudeMeters>
            <DistanceMeters>NAN</DistanceMeters>
          </Trackpoint>
          <Trackpoint>
            <Time>2020-12-05T10:26:24.000Z</Time>
            <Position>
              <LatitudeDegrees>36.83170150034129619598388671875</LatitudeDegrees>
              <LongitudeDegrees>-4.38240037299692630767822265625</LongitudeDegrees>
            </Position>
            <AltitudeMeters>728.4000244140625</AltitudeMeters>
            <DistanceMeters>NAN</DistanceMeters>
          </Trackpoint>
          <Trackpoint>
            <Time>2020-12-05T10:26:25.000Z</Time>
            <Position>
              <LatitudeDegrees>36.83171289972960948944091796875</LatitudeDegrees>
              <LongitudeDegrees>-4.38239031471312046051025390625</LongitudeDegrees>
            </Position>
            <AltitudeMeters>728.4000244140625</AltitudeMeters>
            <DistanceMeters>NAN</DistanceMeters>
          </Trackpoint>
          <Trackpoint>
            <Time>2020-12-05T10:26:26.000Z</Time>
            <Position>
              <LatitudeDegrees>36.831725053489208221435546875</LatitudeDegrees>
              <LongitudeDegrees>-4.382378160953521728515625</LongitudeDegrees>
            </Position>
            <AltitudeMeters>728.20001220703125</AltitudeMeters>
            <DistanceMeters>NAN</DistanceMeters>
          </Trackpoint>
          <Trackpoint>
            <Time>2020-12-05T10:26:27.000Z</Time>
            <Position>
              <LatitudeDegrees>36.83173888362944126129150390625</LatitudeDegrees>
              <LongitudeDegrees>-4.3823649175465106964111328125</LongitudeDegrees>
            </Position>
            <AltitudeMeters>728.20001220703125</AltitudeMeters>
            <DistanceMeters>NAN</DistanceMeters>
          </Trackpoint>
          <Trackpoint>
            <Time>2020-12-05T10:26:28.000Z</Time>
            <Position>
              <LatitudeDegrees>36.83175313286483287811279296875</LatitudeDegrees>
              <LongitudeDegrees>-4.38234932720661163330078125</LongitudeDegrees>
            </Position>
            <AltitudeMeters>728</AltitudeMeters>
            <DistanceMeters>NAN</DistanceMeters>
          </Trackpoint>
          <Trackpoint>
            <Time>2020-12-05T10:26:29.000Z</Time>
            <Position>
              <LatitudeDegrees>36.83176436461508274078369140625</LatitudeDegrees>
              <LongitudeDegrees>-4.38233264721930027008056640625</LongitudeDegrees>
            </Position>
            <AltitudeMeters>727.79998779296875</AltitudeMeters>
            <DistanceMeters>NAN</DistanceMeters>
          </Trackpoint>
          <Trackpoint>
            <Time>2020-12-05T10:26:30.000Z</Time>
            <Position>
              <LatitudeDegrees>36.831771992146968841552734375</LatitudeDegrees>
              <LongitudeDegrees>-4.3823169730603694915771484375</LongitudeDegrees>
            </Position>
            <AltitudeMeters>727.5999755859375</AltitudeMeters>
            <DistanceMeters>NAN</DistanceMeters>
          </Trackpoint>
          <Trackpoint>
            <Time>2020-12-05T10:26:31.000Z</Time>
            <Position>
              <LatitudeDegrees>36.8317798711359500885009765625</LatitudeDegrees>
              <LongitudeDegrees>-4.38230398111045360565185546875</LongitudeDegrees>
            </Position>
            <AltitudeMeters>727.4000244140625</AltitudeMeters>
            <DistanceMeters>NAN</DistanceMeters>
          </Trackpoint>
          <Trackpoint>
            <Time>2020-12-05T10:26:32.000Z</Time>
            <Position>
              <LatitudeDegrees>36.8317859061062335968017578125</LatitudeDegrees>
              <LongitudeDegrees>-4.38228922896087169647216796875</LongitudeDegrees>
            </Position>
            <AltitudeMeters>727</AltitudeMeters>
            <DistanceMeters>NAN</DistanceMeters>
          </Trackpoint>
          <Trackpoint>
            <Time>2020-12-05T10:26:33.000Z</Time>
            <Position>
              <LatitudeDegrees>36.8317892588675022125244140625</LatitudeDegrees>
              <LongitudeDegrees>-4.3822710402309894561767578125</LongitudeDegrees>
            </Position>
            <AltitudeMeters>726.79998779296875</AltitudeMeters>
            <DistanceMeters>NAN</DistanceMeters>
          </Trackpoint>
          <Trackpoint>
            <Time>2020-12-05T10:26:34.000Z</Time>
            <Position>
              <LatitudeDegrees>36.8317919410765171051025390625</LatitudeDegrees>
              <LongitudeDegrees>-4.38225167803466320037841796875</LongitudeDegrees>
            </Position>
            <AltitudeMeters>726.5999755859375</AltitudeMeters>
            <DistanceMeters>NAN</DistanceMeters>
          </Trackpoint>
          <Trackpoint>
            <Time>2020-12-05T10:26:35.000Z</Time>
            <Position>
              <LatitudeDegrees>36.83179269544780254364013671875</LatitudeDegrees>
              <LongitudeDegrees>-4.38223038800060749053955078125</LongitudeDegrees>
            </Position>
            <AltitudeMeters>726.5999755859375</AltitudeMeters>
            <DistanceMeters>NAN</DistanceMeters>
          </Trackpoint>
          <Trackpoint>
            <Time>2020-12-05T10:26:36.000Z</Time>
            <Position>
              <LatitudeDegrees>36.83179470710456371307373046875</LatitudeDegrees>
              <LongitudeDegrees>-4.38220851123332977294921875</LongitudeDegrees>
            </Position>
            <AltitudeMeters>726.5999755859375</AltitudeMeters>
            <DistanceMeters>NAN</DistanceMeters>
          </Trackpoint>
          <Trackpoint>
            <Time>2020-12-05T10:26:37.000Z</Time>
            <Position>
              <LatitudeDegrees>36.831799484789371490478515625</LatitudeDegrees>
              <LongitudeDegrees>-4.382185377180576324462890625</LongitudeDegrees>
            </Position>
            <AltitudeMeters>726.4000244140625</AltitudeMeters>
            <DistanceMeters>NAN</DistanceMeters>
          </Trackpoint>
          <Trackpoint>
            <Time>2020-12-05T10:26:38.000Z</Time>
            <Position>
              <LatitudeDegrees>36.83180493302643299102783203125</LatitudeDegrees>
              <LongitudeDegrees>-4.38216132111847400665283203125</LongitudeDegrees>
            </Position>
            <AltitudeMeters>726.4000244140625</AltitudeMeters>
            <DistanceMeters>NAN</DistanceMeters>
          </Trackpoint>
          <Trackpoint>
            <Time>2020-12-05T10:26:39.000Z</Time>
            <Position>
              <LatitudeDegrees>36.83180878870189189910888671875</LatitudeDegrees>
              <LongitudeDegrees>-4.382139109075069427490234375</LongitudeDegrees>
            </Position>
            <AltitudeMeters>726.20001220703125</AltitudeMeters>
            <DistanceMeters>NAN</DistanceMeters>
          </Trackpoint>
          <Trackpoint>
            <Time>2020-12-05T10:26:40.000Z</Time>
            <Position>
              <LatitudeDegrees>36.83181851170957088470458984375</LatitudeDegrees>
              <LongitudeDegrees>-4.3821117840707302093505859375</LongitudeDegrees>
            </Position>
            <AltitudeMeters>726</AltitudeMeters>
            <DistanceMeters>NAN</DistanceMeters>
          </Trackpoint>
          <Trackpoint>
            <Time>2020-12-05T10:26:41.000Z</Time>
            <Position>
              <LatitudeDegrees>36.831824295222759246826171875</LatitudeDegrees>
              <LongitudeDegrees>-4.38209141604602336883544921875</LongitudeDegrees>
            </Position>
            <AltitudeMeters>725.5999755859375</AltitudeMeters>
            <DistanceMeters>NAN</DistanceMeters>
          </Trackpoint>
          <Trackpoint>
            <Time>2020-12-05T10:26:42.000Z</Time>
            <Position>
              <LatitudeDegrees>36.83183292858302593231201171875</LatitudeDegrees>
              <LongitudeDegrees>-4.3820752389729022979736328125</LongitudeDegrees>
            </Position>
            <AltitudeMeters>725.4000244140625</AltitudeMeters>
            <DistanceMeters>NAN</DistanceMeters>
          </Trackpoint>
          <Trackpoint>
            <Time>2020-12-05T10:26:43.000Z</Time>
            <Position>
              <LatitudeDegrees>36.831842400133609771728515625</LatitudeDegrees>
              <LongitudeDegrees>-4.38205738551914691925048828125</LongitudeDegrees>
            </Position>
            <AltitudeMeters>725.20001220703125</AltitudeMeters>
            <DistanceMeters>NAN</DistanceMeters>
          </Trackpoint>
          <Trackpoint>
            <Time>2020-12-05T10:26:44.000Z</Time>
            <Position>
              <LatitudeDegrees>36.83184684254229068756103515625</LatitudeDegrees>
              <LongitudeDegrees>-4.38204280100762844085693359375</LongitudeDegrees>
            </Position>
            <AltitudeMeters>725.20001220703125</AltitudeMeters>
            <DistanceMeters>NAN</DistanceMeters>
          </Trackpoint>
          <Trackpoint>
            <Time>2020-12-05T10:26:45.000Z</Time>
            <Position>
              <LatitudeDegrees>36.83185187168419361114501953125</LatitudeDegrees>
              <LongitudeDegrees>-4.38202679157257080078125</LongitudeDegrees>
            </Position>
            <AltitudeMeters>725.20001220703125</AltitudeMeters>
            <DistanceMeters>NAN</DistanceMeters>
          </Trackpoint>
          <Trackpoint>
            <Time>2020-12-05T10:26:46.000Z</Time>
            <Position>
              <LatitudeDegrees>36.83185606263577938079833984375</LatitudeDegrees>
              <LongitudeDegrees>-4.38200927339494228363037109375</LongitudeDegrees>
            </Position>
            <AltitudeMeters>725</AltitudeMeters>
            <DistanceMeters>NAN</DistanceMeters>
          </Trackpoint>
          <Trackpoint>
            <Time>2020-12-05T10:26:47.000Z</Time>
            <Position>
              <LatitudeDegrees>36.83186075650155544281005859375</LatitudeDegrees>
              <LongitudeDegrees>-4.381994940340518951416015625</LongitudeDegrees>
            </Position>
            <AltitudeMeters>725</AltitudeMeters>
            <DistanceMeters>NAN</DistanceMeters>
          </Trackpoint>
          <Trackpoint>
            <Time>2020-12-05T10:26:48.000Z</Time>
            <Position>
              <LatitudeDegrees>36.83186343871057033538818359375</LatitudeDegrees>
              <LongitudeDegrees>-4.3819803558290004730224609375</LongitudeDegrees>
            </Position>
            <AltitudeMeters>724.79998779296875</AltitudeMeters>
            <DistanceMeters>NAN</DistanceMeters>
          </Trackpoint>
          <Trackpoint>
            <Time>2020-12-05T10:26:49.000Z</Time>
            <Position>
              <LatitudeDegrees>36.83186528272926807403564453125</LatitudeDegrees>
              <LongitudeDegrees>-4.38196853734552860260009765625</LongitudeDegrees>
            </Position>
            <AltitudeMeters>724.79998779296875</AltitudeMeters>
            <DistanceMeters>NAN</DistanceMeters>
          </Trackpoint>
          <Trackpoint>
            <Time>2020-12-05T10:26:50.000Z</Time>
            <Position>
              <LatitudeDegrees>36.83186645619571208953857421875</LatitudeDegrees>
              <LongitudeDegrees>-4.38195881433784961700439453125</LongitudeDegrees>
            </Position>
            <AltitudeMeters>724.5999755859375</AltitudeMeters>
            <DistanceMeters>NAN</DistanceMeters>
          </Trackpoint>
          <Trackpoint>
            <Time>2020-12-05T10:26:51.000Z</Time>
            <Position>
              <LatitudeDegrees>36.83186645619571208953857421875</LatitudeDegrees>
              <LongitudeDegrees>-4.381946660578250885009765625</LongitudeDegrees>
            </Position>
            <AltitudeMeters>724.4000244140625</AltitudeMeters>
            <DistanceMeters>NAN</DistanceMeters>
          </Trackpoint>
          <Trackpoint>
            <Time>2020-12-05T10:26:52.000Z</Time>
            <Position>
              <LatitudeDegrees>36.83186494745314121246337890625</LatitudeDegrees>
              <LongitudeDegrees>-4.38193785957992076873779296875</LongitudeDegrees>
            </Position>
            <AltitudeMeters>724.20001220703125</AltitudeMeters>
            <DistanceMeters>NAN</DistanceMeters>
          </Trackpoint>
          <Trackpoint>
            <Time>2020-12-05T10:26:53.000Z</Time>
            <Position>
              <LatitudeDegrees>36.8318670429289340972900390625</LatitudeDegrees>
              <LongitudeDegrees>-4.3819303996860980987548828125</LongitudeDegrees>
            </Position>
            <AltitudeMeters>724.20001220703125</AltitudeMeters>
            <DistanceMeters>NAN</DistanceMeters>
          </Trackpoint>
          <Trackpoint>
            <Time>2020-12-05T10:26:54.000Z</Time>
            <Position>
              <LatitudeDegrees>36.8318720720708370208740234375</LatitudeDegrees>
              <LongitudeDegrees>-4.381922185420989990234375</LongitudeDegrees>
            </Position>
            <AltitudeMeters>724.20001220703125</AltitudeMeters>
            <DistanceMeters>NAN</DistanceMeters>
          </Trackpoint>
          <Trackpoint>
            <Time>2020-12-05T10:26:55.000Z</Time>
            <Position>
              <LatitudeDegrees>36.8318777717649936676025390625</LatitudeDegrees>
              <LongitudeDegrees>-4.3819116242229938507080078125</LongitudeDegrees>
            </Position>
            <AltitudeMeters>724</AltitudeMeters>
            <DistanceMeters>NAN</DistanceMeters>
          </Trackpoint>
          <Trackpoint>
            <Time>2020-12-05T10:26:56.000Z</Time>
            <Position>
              <LatitudeDegrees>36.8318817950785160064697265625</LatitudeDegrees>
              <LongitudeDegrees>-4.38189913518726825714111328125</LongitudeDegrees>
            </Position>
            <AltitudeMeters>723.5999755859375</AltitudeMeters>
            <DistanceMeters>NAN</DistanceMeters>
          </Trackpoint>
          <Trackpoint>
            <Time>2020-12-05T10:26:57.000Z</Time>
            <Position>
              <LatitudeDegrees>36.8318868242204189300537109375</LatitudeDegrees>
              <LongitudeDegrees>-4.38188555650413036346435546875</LongitudeDegrees>
            </Position>
            <AltitudeMeters>723.20001220703125</AltitudeMeters>
            <DistanceMeters>NAN</DistanceMeters>
          </Trackpoint>
          <Trackpoint>
            <Time>2020-12-05T10:26:58.000Z</Time>
            <Position>
              <LatitudeDegrees>36.83189244009554386138916015625</LatitudeDegrees>
              <LongitudeDegrees>-4.381872229278087615966796875</LongitudeDegrees>
            </Position>
            <AltitudeMeters>722.79998779296875</AltitudeMeters>
            <DistanceMeters>NAN</DistanceMeters>
          </Trackpoint>
          <Trackpoint>
            <Time>2020-12-05T10:26:59.000Z</Time>
            <Position>
              <LatitudeDegrees>36.83189964853227138519287109375</LatitudeDegrees>
              <LongitudeDegrees>-4.3818589858710765838623046875</LongitudeDegrees>
            </Position>
            <AltitudeMeters>722.5999755859375</AltitudeMeters>
            <DistanceMeters>NAN</DistanceMeters>
          </Trackpoint>
          <Trackpoint>
            <Time>2020-12-05T10:27:00.000Z</Time>
            <Position>
              <LatitudeDegrees>36.83190803043544292449951171875</LatitudeDegrees>
              <LongitudeDegrees>-4.3818462453782558441162109375</LongitudeDegrees>
            </Position>
            <AltitudeMeters>722.4000244140625</AltitudeMeters>
            <DistanceMeters>NAN</DistanceMeters>
          </Trackpoint>
          <Trackpoint>
            <Time>2020-12-05T10:27:01.000Z</Time>
            <Position>
              <LatitudeDegrees>36.83191859163343906402587890625</LatitudeDegrees>
              <LongitudeDegrees>-4.3818341754376888275146484375</LongitudeDegrees>
            </Position>
            <AltitudeMeters>722.4000244140625</AltitudeMeters>
            <DistanceMeters>NAN</DistanceMeters>
          </Trackpoint>
          <Trackpoint>
            <Time>2020-12-05T10:27:02.000Z</Time>
            <Position>
              <LatitudeDegrees>36.8319307453930377960205078125</LatitudeDegrees>
              <LongitudeDegrees>-4.38182093203067779541015625</LongitudeDegrees>
            </Position>
            <AltitudeMeters>722.20001220703125</AltitudeMeters>
            <DistanceMeters>NAN</DistanceMeters>
          </Trackpoint>
          <Trackpoint>
            <Time>2020-12-05T10:27:03.000Z</Time>
            <Position>
              <LatitudeDegrees>36.83194105513393878936767578125</LatitudeDegrees>
              <LongitudeDegrees>-4.38180877827107906341552734375</LongitudeDegrees>
            </Position>
            <AltitudeMeters>722.20001220703125</AltitudeMeters>
            <DistanceMeters>NAN</DistanceMeters>
          </Trackpoint>
          <Trackpoint>
            <Time>2020-12-05T10:27:04.000Z</Time>
            <Position>
              <LatitudeDegrees>36.8319480121135711669921875</LatitudeDegrees>
              <LongitudeDegrees>-4.38179687596857547760009765625</LongitudeDegrees>
            </Position>
            <AltitudeMeters>722</AltitudeMeters>
            <DistanceMeters>NAN</DistanceMeters>
          </Trackpoint>
          <Trackpoint>
            <Time>2020-12-05T10:27:05.000Z</Time>
            <Position>
              <LatitudeDegrees>36.831954382359981536865234375</LatitudeDegrees>
              <LongitudeDegrees>-4.38178497366607189178466796875</LongitudeDegrees>
            </Position>
            <AltitudeMeters>722</AltitudeMeters>
            <DistanceMeters>NAN</DistanceMeters>
          </Trackpoint>
          <Trackpoint>
            <Time>2020-12-05T10:27:06.000Z</Time>
            <Position>
              <LatitudeDegrees>36.8319605849683284759521484375</LatitudeDegrees>
              <LongitudeDegrees>-4.3817744962871074676513671875</LongitudeDegrees>
            </Position>
            <AltitudeMeters>722</AltitudeMeters>
            <DistanceMeters>NAN</DistanceMeters>
          </Trackpoint>
          <Trackpoint>
            <Time>2020-12-05T10:27:07.000Z</Time>
            <Position>
              <LatitudeDegrees>36.8319676257669925689697265625</LatitudeDegrees>
              <LongitudeDegrees>-4.3817627616226673126220703125</LongitudeDegrees>
            </Position>
            <AltitudeMeters>722</AltitudeMeters>
            <DistanceMeters>NAN</DistanceMeters>
          </Trackpoint>
          <Trackpoint>
            <Time>2020-12-05T10:27:08.000Z</Time>
            <Position>
              <LatitudeDegrees>36.83197642676532268524169921875</LatitudeDegrees>
              <LongitudeDegrees>-4.38174842856824398040771484375</LongitudeDegrees>
            </Position>
            <AltitudeMeters>722</AltitudeMeters>
            <DistanceMeters>NAN</DistanceMeters>
          </Trackpoint>
          <Trackpoint>
            <Time>2020-12-05T10:27:09.000Z</Time>
            <Position>
              <LatitudeDegrees>36.8319828808307647705078125</LatitudeDegrees>
              <LongitudeDegrees>-4.38173401169478893280029296875</LongitudeDegrees>
            </Position>
            <AltitudeMeters>722</AltitudeMeters>
            <DistanceMeters>NAN</DistanceMeters>
          </Trackpoint>
          <Trackpoint>
            <Time>2020-12-05T10:27:10.000Z</Time>
            <Position>
              <LatitudeDegrees>36.83198891580104827880859375</LatitudeDegrees>
              <LongitudeDegrees>-4.381718337535858154296875</LongitudeDegrees>
            </Position>
            <AltitudeMeters>722</AltitudeMeters>
            <DistanceMeters>NAN</DistanceMeters>
          </Trackpoint>
          <Trackpoint>
            <Time>2020-12-05T10:27:11.000Z</Time>
            <Position>
              <LatitudeDegrees>36.8319947831332683563232421875</LatitudeDegrees>
              <LongitudeDegrees>-4.3817000649869441986083984375</LongitudeDegrees>
            </Position>
            <AltitudeMeters>722</AltitudeMeters>
            <DistanceMeters>NAN</DistanceMeters>
          </Trackpoint>
          <Trackpoint>
            <Time>2020-12-05T10:27:12.000Z</Time>
            <Position>
              <LatitudeDegrees>36.83199788443744182586669921875</LatitudeDegrees>
              <LongitudeDegrees>-4.3816794455051422119140625</LongitudeDegrees>
            </Position>
            <AltitudeMeters>721.79998779296875</AltitudeMeters>
            <DistanceMeters>NAN</DistanceMeters>
          </Trackpoint>
          <Trackpoint>
            <Time>2020-12-05T10:27:13.000Z</Time>
            <Position>
              <LatitudeDegrees>36.83199771679937839508056640625</LatitudeDegrees>
              <LongitudeDegrees>-4.3816578201949596405029296875</LongitudeDegrees>
            </Position>
            <AltitudeMeters>721.79998779296875</AltitudeMeters>
            <DistanceMeters>NAN</DistanceMeters>
          </Trackpoint>
          <Trackpoint>
            <Time>2020-12-05T10:27:14.000Z</Time>
            <Position>
              <LatitudeDegrees>36.8319984711706638336181640625</LatitudeDegrees>
              <LongitudeDegrees>-4.38163929618895053863525390625</LongitudeDegrees>
            </Position>
            <AltitudeMeters>721.5999755859375</AltitudeMeters>
            <DistanceMeters>NAN</DistanceMeters>
          </Trackpoint>
          <Trackpoint>
            <Time>2020-12-05T10:27:15.000Z</Time>
            <Position>
              <LatitudeDegrees>36.83200140483677387237548828125</LatitudeDegrees>
              <LongitudeDegrees>-4.38162454403936862945556640625</LongitudeDegrees>
            </Position>
            <AltitudeMeters>721.5999755859375</AltitudeMeters>
            <DistanceMeters>NAN</DistanceMeters>
          </Trackpoint>
          <Trackpoint>
            <Time>2020-12-05T10:27:16.000Z</Time>
            <Position>
              <LatitudeDegrees>36.83200425468385219573974609375</LatitudeDegrees>
              <LongitudeDegrees>-4.38161063008010387420654296875</LongitudeDegrees>
            </Position>
            <AltitudeMeters>721.4000244140625</AltitudeMeters>
            <DistanceMeters>NAN</DistanceMeters>
          </Trackpoint>
          <Trackpoint>
            <Time>2020-12-05T10:27:17.000Z</Time>
            <Position>
              <LatitudeDegrees>36.832007355988025665283203125</LatitudeDegrees>
              <LongitudeDegrees>-4.38159755431115627288818359375</LongitudeDegrees>
            </Position>
            <AltitudeMeters>721.20001220703125</AltitudeMeters>
            <DistanceMeters>NAN</DistanceMeters>
          </Trackpoint>
          <Trackpoint>
            <Time>2020-12-05T10:27:18.000Z</Time>
            <Position>
              <LatitudeDegrees>36.83201037347316741943359375</LatitudeDegrees>
              <LongitudeDegrees>-4.381583891808986663818359375</LongitudeDegrees>
            </Position>
            <AltitudeMeters>721</AltitudeMeters>
            <DistanceMeters>NAN</DistanceMeters>
          </Trackpoint>
          <Trackpoint>
            <Time>2020-12-05T10:27:19.000Z</Time>
            <Position>
              <LatitudeDegrees>36.83201263658702373504638671875</LatitudeDegrees>
              <LongitudeDegrees>-4.38156989403069019317626953125</LongitudeDegrees>
            </Position>
            <AltitudeMeters>720.79998779296875</AltitudeMeters>
            <DistanceMeters>NAN</DistanceMeters>
          </Trackpoint>
          <Trackpoint>
            <Time>2020-12-05T10:27:20.000Z</Time>
            <Position>
              <LatitudeDegrees>36.83201582171022891998291015625</LatitudeDegrees>
              <LongitudeDegrees>-4.381554387509822845458984375</LongitudeDegrees>
            </Position>
            <AltitudeMeters>720.4000244140625</AltitudeMeters>
            <DistanceMeters>NAN</DistanceMeters>
          </Trackpoint>
          <Trackpoint>
            <Time>2020-12-05T10:27:21.000Z</Time>
            <Position>
              <LatitudeDegrees>36.83202152140438556671142578125</LatitudeDegrees>
              <LongitudeDegrees>-4.38153837807476520538330078125</LongitudeDegrees>
            </Position>
            <AltitudeMeters>720.20001220703125</AltitudeMeters>
            <DistanceMeters>NAN</DistanceMeters>
          </Trackpoint>
          <Trackpoint>
            <Time>2020-12-05T10:27:22.000Z</Time>
            <Position>
              <LatitudeDegrees>36.83202638290822505950927734375</LatitudeDegrees>
              <LongitudeDegrees>-4.38152077607810497283935546875</LongitudeDegrees>
            </Position>
            <AltitudeMeters>720</AltitudeMeters>
            <DistanceMeters>NAN</DistanceMeters>
          </Trackpoint>
          <Trackpoint>
            <Time>2020-12-05T10:27:23.000Z</Time>
            <Position>
              <LatitudeDegrees>36.83202923275530338287353515625</LatitudeDegrees>
              <LongitudeDegrees>-4.38150250352919101715087890625</LongitudeDegrees>
            </Position>
            <AltitudeMeters>720</AltitudeMeters>
            <DistanceMeters>NAN</DistanceMeters>
          </Trackpoint>
          <Trackpoint>
            <Time>2020-12-05T10:27:24.000Z</Time>
            <Position>
              <LatitudeDegrees>36.8320319987833499908447265625</LatitudeDegrees>
              <LongitudeDegrees>-4.3814851529896259307861328125</LongitudeDegrees>
            </Position>
            <AltitudeMeters>719.79998779296875</AltitudeMeters>
            <DistanceMeters>NAN</DistanceMeters>
          </Trackpoint>
          <Trackpoint>
            <Time>2020-12-05T10:27:25.000Z</Time>
            <Position>
              <LatitudeDegrees>36.83203610591590404510498046875</LatitudeDegrees>
              <LongitudeDegrees>-4.3814663775265216827392578125</LongitudeDegrees>
            </Position>
            <AltitudeMeters>719.79998779296875</AltitudeMeters>
            <DistanceMeters>NAN</DistanceMeters>
          </Trackpoint>
          <Trackpoint>
            <Time>2020-12-05T10:27:26.000Z</Time>
            <Position>
              <LatitudeDegrees>36.8320393748581409454345703125</LatitudeDegrees>
              <LongitudeDegrees>-4.38144433312118053436279296875</LongitudeDegrees>
            </Position>
            <AltitudeMeters>719.79998779296875</AltitudeMeters>
            <DistanceMeters>NAN</DistanceMeters>
          </Trackpoint>
          <Trackpoint>
            <Time>2020-12-05T10:27:27.000Z</Time>
            <Position>
              <LatitudeDegrees>36.83204096741974353790283203125</LatitudeDegrees>
              <LongitudeDegrees>-4.38141885213553905487060546875</LongitudeDegrees>
            </Position>
            <AltitudeMeters>719.79998779296875</AltitudeMeters>
            <DistanceMeters>NAN</DistanceMeters>
          </Trackpoint>
          <Trackpoint>
            <Time>2020-12-05T10:27:28.000Z</Time>
            <Position>
              <LatitudeDegrees>36.8320420570671558380126953125</LatitudeDegrees>
              <LongitudeDegrees>-4.38139823265373706817626953125</LongitudeDegrees>
            </Position>
            <AltitudeMeters>719.5999755859375</AltitudeMeters>
            <DistanceMeters>NAN</DistanceMeters>
          </Trackpoint>
          <Trackpoint>
            <Time>2020-12-05T10:27:29.000Z</Time>
            <Position>
              <LatitudeDegrees>36.8320403806865215301513671875</LatitudeDegrees>
              <LongitudeDegrees>-4.381379373371601104736328125</LongitudeDegrees>
            </Position>
            <AltitudeMeters>719.4000244140625</AltitudeMeters>
            <DistanceMeters>NAN</DistanceMeters>
          </Trackpoint>
          <Trackpoint>
            <Time>2020-12-05T10:27:30.000Z</Time>
            <Position>
              <LatitudeDegrees>36.8320365250110626220703125</LatitudeDegrees>
              <LongitudeDegrees>-4.3813600949943065643310546875</LongitudeDegrees>
            </Position>
            <AltitudeMeters>719.20001220703125</AltitudeMeters>
            <DistanceMeters>NAN</DistanceMeters>
          </Trackpoint>
          <Trackpoint>
            <Time>2020-12-05T10:27:31.000Z</Time>
            <Position>
              <LatitudeDegrees>36.8320303224027156829833984375</LatitudeDegrees>
              <LongitudeDegrees>-4.3813436664640903472900390625</LongitudeDegrees>
            </Position>
            <AltitudeMeters>719.20001220703125</AltitudeMeters>
            <DistanceMeters>NAN</DistanceMeters>
          </Trackpoint>
          <Trackpoint>
            <Time>2020-12-05T10:27:32.000Z</Time>
            <Position>
              <LatitudeDegrees>36.832027137279510498046875</LatitudeDegrees>
              <LongitudeDegrees>-4.3813215382397174835205078125</LongitudeDegrees>
            </Position>
            <AltitudeMeters>719</AltitudeMeters>
            <DistanceMeters>NAN</DistanceMeters>
          </Trackpoint>
          <Trackpoint>
            <Time>2020-12-05T10:27:33.000Z</Time>
            <Position>
              <LatitudeDegrees>36.8320269696414470672607421875</LatitudeDegrees>
              <LongitudeDegrees>-4.38130217604339122772216796875</LongitudeDegrees>
            </Position>
            <AltitudeMeters>719</AltitudeMeters>
            <DistanceMeters>NAN</DistanceMeters>
          </Trackpoint>
          <Trackpoint>
            <Time>2020-12-05T10:27:34.000Z</Time>
            <Position>
              <LatitudeDegrees>36.83202738873660564422607421875</LatitudeDegrees>
              <LongitudeDegrees>-4.38128289766609668731689453125</LongitudeDegrees>
            </Position>
            <AltitudeMeters>719</AltitudeMeters>
            <DistanceMeters>NAN</DistanceMeters>
          </Trackpoint>
          <Trackpoint>
            <Time>2020-12-05T10:27:35.000Z</Time>
            <Position>
              <LatitudeDegrees>36.83203057385981082916259765625</LatitudeDegrees>
              <LongitudeDegrees>-4.3812685646116733551025390625</LongitudeDegrees>
            </Position>
            <AltitudeMeters>719</AltitudeMeters>
            <DistanceMeters>NAN</DistanceMeters>
          </Trackpoint>
          <Trackpoint>
            <Time>2020-12-05T10:27:36.000Z</Time>
            <Position>
              <LatitudeDegrees>36.83203342370688915252685546875</LatitudeDegrees>
              <LongitudeDegrees>-4.3812538124620914459228515625</LongitudeDegrees>
            </Position>
            <AltitudeMeters>719</AltitudeMeters>
            <DistanceMeters>NAN</DistanceMeters>
          </Trackpoint>
          <Trackpoint>
            <Time>2020-12-05T10:27:37.000Z</Time>
            <Position>
              <LatitudeDegrees>36.83203744702041149139404296875</LatitudeDegrees>
              <LongitudeDegrees>-4.3812387250363826751708984375</LongitudeDegrees>
            </Position>
            <AltitudeMeters>719</AltitudeMeters>
            <DistanceMeters>NAN</DistanceMeters>
          </Trackpoint>
          <Trackpoint>
            <Time>2020-12-05T10:27:38.000Z</Time>
            <Position>
              <LatitudeDegrees>36.83204130269587039947509765625</LatitudeDegrees>
              <LongitudeDegrees>-4.381219111382961273193359375</LongitudeDegrees>
            </Position>
            <AltitudeMeters>719</AltitudeMeters>
            <DistanceMeters>NAN</DistanceMeters>
          </Trackpoint>
          <Trackpoint>
            <Time>2020-12-05T10:27:39.000Z</Time>
            <Position>
              <LatitudeDegrees>36.832046248018741607666015625</LatitudeDegrees>
              <LongitudeDegrees>-4.3812021799385547637939453125</LongitudeDegrees>
            </Position>
            <AltitudeMeters>719</AltitudeMeters>
            <DistanceMeters>NAN</DistanceMeters>
          </Trackpoint>
          <Trackpoint>
            <Time>2020-12-05T10:27:40.000Z</Time>
            <Position>
              <LatitudeDegrees>36.83204951696097850799560546875</LatitudeDegrees>
              <LongitudeDegrees>-4.38118818216025829315185546875</LongitudeDegrees>
            </Position>
            <AltitudeMeters>719</AltitudeMeters>
            <DistanceMeters>NAN</DistanceMeters>
          </Trackpoint>
          <Trackpoint>
            <Time>2020-12-05T10:27:41.000Z</Time>
            <Position>
              <LatitudeDegrees>36.8320507742464542388916015625</LatitudeDegrees>
              <LongitudeDegrees>-4.38117527402937412261962890625</LongitudeDegrees>
            </Position>
            <AltitudeMeters>719</AltitudeMeters>
            <DistanceMeters>NAN</DistanceMeters>
          </Trackpoint>
          <Trackpoint>
            <Time>2020-12-05T10:27:42.000Z</Time>
            <Position>
              <LatitudeDegrees>36.83204926550388336181640625</LatitudeDegrees>
              <LongitudeDegrees>-4.381166137754917144775390625</LongitudeDegrees>
            </Position>
            <AltitudeMeters>719</AltitudeMeters>
            <DistanceMeters>NAN</DistanceMeters>
          </Trackpoint>
          <Trackpoint>
            <Time>2020-12-05T10:27:43.000Z</Time>
            <Position>
              <LatitudeDegrees>36.832046918570995330810546875</LatitudeDegrees>
              <LongitudeDegrees>-4.3811595998704433441162109375</LongitudeDegrees>
            </Position>
            <AltitudeMeters>718.79998779296875</AltitudeMeters>
            <DistanceMeters>NAN</DistanceMeters>
          </Trackpoint>
          <Trackpoint>
            <Time>2020-12-05T10:27:44.000Z</Time>
            <Position>
              <LatitudeDegrees>36.83204532600939273834228515625</LatitudeDegrees>
              <LongitudeDegrees>-4.38115213997662067413330078125</LongitudeDegrees>
            </Position>
            <AltitudeMeters>718.5999755859375</AltitudeMeters>
            <DistanceMeters>NAN</DistanceMeters>
          </Trackpoint>
          <Trackpoint>
            <Time>2020-12-05T10:27:45.000Z</Time>
            <Position>
              <LatitudeDegrees>36.8320427276194095611572265625</LatitudeDegrees>
              <LongitudeDegrees>-4.38114627264440059661865234375</LongitudeDegrees>
            </Position>
            <AltitudeMeters>718.4000244140625</AltitudeMeters>
            <DistanceMeters>NAN</DistanceMeters>
          </Trackpoint>
          <Trackpoint>
            <Time>2020-12-05T10:27:46.000Z</Time>
            <Position>
              <LatitudeDegrees>36.83203878812491893768310546875</LatitudeDegrees>
              <LongitudeDegrees>-4.3811331130564212799072265625</LongitudeDegrees>
            </Position>
            <AltitudeMeters>718</AltitudeMeters>
            <DistanceMeters>NAN</DistanceMeters>
          </Trackpoint>
          <Trackpoint>
            <Time>2020-12-05T10:27:47.000Z</Time>
            <Position>
              <LatitudeDegrees>36.83203241787850856781005859375</LatitudeDegrees>
              <LongitudeDegrees>-4.38111425377428531646728515625</LongitudeDegrees>
            </Position>
            <AltitudeMeters>717.79998779296875</AltitudeMeters>
            <DistanceMeters>NAN</DistanceMeters>
          </Trackpoint>
          <Trackpoint>
            <Time>2020-12-05T10:27:48.000Z</Time>
            <Position>
              <LatitudeDegrees>36.83202956803143024444580078125</LatitudeDegrees>
              <LongitudeDegrees>-4.3810989148914813995361328125</LongitudeDegrees>
            </Position>
            <AltitudeMeters>717.5999755859375</AltitudeMeters>
            <DistanceMeters>NAN</DistanceMeters>
          </Trackpoint>
          <Trackpoint>
            <Time>2020-12-05T10:27:49.000Z</Time>
            <Position>
              <LatitudeDegrees>36.83202914893627166748046875</LatitudeDegrees>
              <LongitudeDegrees>-4.38107988797128200531005859375</LongitudeDegrees>
            </Position>
            <AltitudeMeters>717.4000244140625</AltitudeMeters>
            <DistanceMeters>NAN</DistanceMeters>
          </Trackpoint>
          <Trackpoint>
            <Time>2020-12-05T10:27:50.000Z</Time>
            <Position>
              <LatitudeDegrees>36.83203375898301601409912109375</LatitudeDegrees>
              <LongitudeDegrees>-4.38106446526944637298583984375</LongitudeDegrees>
            </Position>
            <AltitudeMeters>717</AltitudeMeters>
            <DistanceMeters>NAN</DistanceMeters>
          </Trackpoint>
          <Trackpoint>
            <Time>2020-12-05T10:27:51.000Z</Time>
            <Position>
              <LatitudeDegrees>36.83203585445880889892578125</LatitudeDegrees>
              <LongitudeDegrees>-4.38105113804340362548828125</LongitudeDegrees>
            </Position>
            <AltitudeMeters>717</AltitudeMeters>
            <DistanceMeters>NAN</DistanceMeters>
          </Trackpoint>
          <Trackpoint>
            <Time>2020-12-05T10:27:52.000Z</Time>
            <Position>
              <LatitudeDegrees>36.83203811757266521453857421875</LatitudeDegrees>
              <LongitudeDegrees>-4.381040073931217193603515625</LongitudeDegrees>
            </Position>
            <AltitudeMeters>717</AltitudeMeters>
            <DistanceMeters>NAN</DistanceMeters>
          </Trackpoint>
          <Trackpoint>
            <Time>2020-12-05T10:27:53.000Z</Time>
            <Position>
              <LatitudeDegrees>36.83204255998134613037109375</LatitudeDegrees>
              <LongitudeDegrees>-4.381026327610015869140625</LongitudeDegrees>
            </Position>
            <AltitudeMeters>716.79998779296875</AltitudeMeters>
            <DistanceMeters>NAN</DistanceMeters>
          </Trackpoint>
          <Trackpoint>
            <Time>2020-12-05T10:27:54.000Z</Time>
            <Position>
              <LatitudeDegrees>36.832047589123249053955078125</LatitudeDegrees>
              <LongitudeDegrees>-4.38101266510784626007080078125</LongitudeDegrees>
            </Position>
            <AltitudeMeters>716.5999755859375</AltitudeMeters>
            <DistanceMeters>NAN</DistanceMeters>
          </Trackpoint>
          <Trackpoint>
            <Time>2020-12-05T10:27:55.000Z</Time>
            <Position>
              <LatitudeDegrees>36.83205286972224712371826171875</LatitudeDegrees>
              <LongitudeDegrees>-4.3810030259191989898681640625</LongitudeDegrees>
            </Position>
            <AltitudeMeters>716.5999755859375</AltitudeMeters>
            <DistanceMeters>NAN</DistanceMeters>
          </Trackpoint>
          <Trackpoint>
            <Time>2020-12-05T10:27:56.000Z</Time>
            <Position>
              <LatitudeDegrees>36.832063011825084686279296875</LatitudeDegrees>
              <LongitudeDegrees>-4.38100017607212066650390625</LongitudeDegrees>
            </Position>
            <AltitudeMeters>716.5999755859375</AltitudeMeters>
            <DistanceMeters>NAN</DistanceMeters>
          </Trackpoint>
          <Trackpoint>
            <Time>2020-12-05T10:27:57.000Z</Time>
            <Position>
              <LatitudeDegrees>36.8320705555379390716552734375</LatitudeDegrees>
              <LongitudeDegrees>-4.38099841587245464324951171875</LongitudeDegrees>
            </Position>
            <AltitudeMeters>716.5999755859375</AltitudeMeters>
            <DistanceMeters>NAN</DistanceMeters>
          </Trackpoint>
          <Trackpoint>
            <Time>2020-12-05T10:27:58.000Z</Time>
            <Position>
              <LatitudeDegrees>36.83207499794661998748779296875</LatitudeDegrees>
              <LongitudeDegrees>-4.3809929676353931427001953125</LongitudeDegrees>
            </Position>
            <AltitudeMeters>716.5999755859375</AltitudeMeters>
            <DistanceMeters>NAN</DistanceMeters>
          </Trackpoint>
          <Trackpoint>
            <Time>2020-12-05T10:27:59.000Z</Time>
            <Position>
              <LatitudeDegrees>36.83207784779369831085205078125</LatitudeDegrees>
              <LongitudeDegrees>-4.3809788860380649566650390625</LongitudeDegrees>
            </Position>
            <AltitudeMeters>716.4000244140625</AltitudeMeters>
            <DistanceMeters>NAN</DistanceMeters>
          </Trackpoint>
          <Trackpoint>
            <Time>2020-12-05T10:28:00.000Z</Time>
            <Position>
              <LatitudeDegrees>36.83208287693560123443603515625</LatitudeDegrees>
              <LongitudeDegrees>-4.38096128404140472412109375</LongitudeDegrees>
            </Position>
            <AltitudeMeters>716.4000244140625</AltitudeMeters>
            <DistanceMeters>NAN</DistanceMeters>
          </Trackpoint>
          <Trackpoint>
            <Time>2020-12-05T10:28:01.000Z</Time>
            <Position>
              <LatitudeDegrees>36.8320876546204090118408203125</LatitudeDegrees>
              <LongitudeDegrees>-4.3809460289776325225830078125</LongitudeDegrees>
            </Position>
            <AltitudeMeters>716.4000244140625</AltitudeMeters>
            <DistanceMeters>NAN</DistanceMeters>
          </Trackpoint>
          <Trackpoint>
            <Time>2020-12-05T10:28:02.000Z</Time>
            <Position>
              <LatitudeDegrees>36.8320936895906925201416015625</LatitudeDegrees>
              <LongitudeDegrees>-4.38093035481870174407958984375</LongitudeDegrees>
            </Position>
            <AltitudeMeters>716.20001220703125</AltitudeMeters>
            <DistanceMeters>NAN</DistanceMeters>
          </Trackpoint>
          <Trackpoint>
            <Time>2020-12-05T10:28:03.000Z</Time>
            <Position>
              <LatitudeDegrees>36.8321008980274200439453125</LatitudeDegrees>
              <LongitudeDegrees>-4.3809176981449127197265625</LongitudeDegrees>
            </Position>
            <AltitudeMeters>716.20001220703125</AltitudeMeters>
            <DistanceMeters>NAN</DistanceMeters>
          </Trackpoint>
          <Trackpoint>
            <Time>2020-12-05T10:28:04.000Z</Time>
            <Position>
              <LatitudeDegrees>36.8321094475686550140380859375</LatitudeDegrees>
              <LongitudeDegrees>-4.3809098191559314727783203125</LongitudeDegrees>
            </Position>
            <AltitudeMeters>716.20001220703125</AltitudeMeters>
            <DistanceMeters>NAN</DistanceMeters>
          </Trackpoint>
          <Trackpoint>
            <Time>2020-12-05T10:28:05.000Z</Time>
            <Position>
              <LatitudeDegrees>36.83212101459503173828125</LatitudeDegrees>
              <LongitudeDegrees>-4.3809037841856479644775390625</LongitudeDegrees>
            </Position>
            <AltitudeMeters>716</AltitudeMeters>
            <DistanceMeters>NAN</DistanceMeters>
          </Trackpoint>
          <Trackpoint>
            <Time>2020-12-05T10:28:06.000Z</Time>
            <Position>
              <LatitudeDegrees>36.83212981559336185455322265625</LatitudeDegrees>
              <LongitudeDegrees>-4.3809011019766330718994140625</LongitudeDegrees>
            </Position>
            <AltitudeMeters>715.79998779296875</AltitudeMeters>
            <DistanceMeters>NAN</DistanceMeters>
          </Trackpoint>
          <Trackpoint>
            <Time>2020-12-05T10:28:07.000Z</Time>
            <Position>
              <LatitudeDegrees>36.83213937096297740936279296875</LatitudeDegrees>
              <LongitudeDegrees>-4.380898587405681610107421875</LongitudeDegrees>
            </Position>
            <AltitudeMeters>715.79998779296875</AltitudeMeters>
            <DistanceMeters>NAN</DistanceMeters>
          </Trackpoint>
          <Trackpoint>
            <Time>2020-12-05T10:28:08.000Z</Time>
            <Position>
              <LatitudeDegrees>36.832148842513561248779296875</LatitudeDegrees>
              <LongitudeDegrees>-4.3808923847973346710205078125</LongitudeDegrees>
            </Position>
            <AltitudeMeters>715.79998779296875</AltitudeMeters>
            <DistanceMeters>NAN</DistanceMeters>
          </Trackpoint>
          <Trackpoint>
            <Time>2020-12-05T10:28:09.000Z</Time>
            <Position>
              <LatitudeDegrees>36.83216149918735027313232421875</LatitudeDegrees>
              <LongitudeDegrees>-4.380884505808353424072265625</LongitudeDegrees>
            </Position>
            <AltitudeMeters>716</AltitudeMeters>
            <DistanceMeters>NAN</DistanceMeters>
          </Trackpoint>
          <Trackpoint>
            <Time>2020-12-05T10:28:10.000Z</Time>
            <Position>
              <LatitudeDegrees>36.83216728270053863525390625</LatitudeDegrees>
              <LongitudeDegrees>-4.380871094763278961181640625</LongitudeDegrees>
            </Position>
            <AltitudeMeters>716.20001220703125</AltitudeMeters>
            <DistanceMeters>NAN</DistanceMeters>
          </Trackpoint>
          <Trackpoint>
            <Time>2020-12-05T10:28:11.000Z</Time>
            <Position>
              <LatitudeDegrees>36.83217407204210758209228515625</LatitudeDegrees>
              <LongitudeDegrees>-4.380861707031726837158203125</LongitudeDegrees>
            </Position>
            <AltitudeMeters>716.20001220703125</AltitudeMeters>
            <DistanceMeters>NAN</DistanceMeters>
          </Trackpoint>
          <Trackpoint>
            <Time>2020-12-05T10:28:12.000Z</Time>
            <Position>
              <LatitudeDegrees>36.832181699573993682861328125</LatitudeDegrees>
              <LongitudeDegrees>-4.380848295986652374267578125</LongitudeDegrees>
            </Position>
            <AltitudeMeters>716.20001220703125</AltitudeMeters>
            <DistanceMeters>NAN</DistanceMeters>
          </Trackpoint>
          <Trackpoint>
            <Time>2020-12-05T10:28:13.000Z</Time>
            <Position>
              <LatitudeDegrees>36.832187734544277191162109375</LatitudeDegrees>
              <LongitudeDegrees>-4.38083295710384845733642578125</LongitudeDegrees>
            </Position>
            <AltitudeMeters>715.5999755859375</AltitudeMeters>
            <DistanceMeters>NAN</DistanceMeters>
          </Trackpoint>
          <Trackpoint>
            <Time>2020-12-05T10:28:14.000Z</Time>
            <Position>
              <LatitudeDegrees>36.8321946077048778533935546875</LatitudeDegrees>
              <LongitudeDegrees>-4.38081703148782253265380859375</LongitudeDegrees>
            </Position>
            <AltitudeMeters>715</AltitudeMeters>
            <DistanceMeters>NAN</DistanceMeters>
          </Trackpoint>
          <Trackpoint>
            <Time>2020-12-05T10:28:15.000Z</Time>
            <Position>
              <LatitudeDegrees>36.8322026543319225311279296875</LatitudeDegrees>
              <LongitudeDegrees>-4.3808011896908283233642578125</LongitudeDegrees>
            </Position>
            <AltitudeMeters>714.4000244140625</AltitudeMeters>
            <DistanceMeters>NAN</DistanceMeters>
          </Trackpoint>
          <Trackpoint>
            <Time>2020-12-05T10:28:16.000Z</Time>
            <Position>
              <LatitudeDegrees>36.83220625855028629302978515625</LatitudeDegrees>
              <LongitudeDegrees>-4.38078015111386775970458984375</LongitudeDegrees>
            </Position>
            <AltitudeMeters>714.20001220703125</AltitudeMeters>
            <DistanceMeters>NAN</DistanceMeters>
          </Trackpoint>
          <Trackpoint>
            <Time>2020-12-05T10:28:17.000Z</Time>
            <Position>
              <LatitudeDegrees>36.83221212588250637054443359375</LatitudeDegrees>
              <LongitudeDegrees>-4.38075835816562175750732421875</LongitudeDegrees>
            </Position>
            <AltitudeMeters>714</AltitudeMeters>
            <DistanceMeters>NAN</DistanceMeters>
          </Trackpoint>
          <Trackpoint>
            <Time>2020-12-05T10:28:18.000Z</Time>
            <Position>
              <LatitudeDegrees>36.83222017250955104827880859375</LatitudeDegrees>
              <LongitudeDegrees>-4.38074008561670780181884765625</LongitudeDegrees>
            </Position>
            <AltitudeMeters>714</AltitudeMeters>
            <DistanceMeters>NAN</DistanceMeters>
          </Trackpoint>
          <Trackpoint>
            <Time>2020-12-05T10:28:19.000Z</Time>
            <Position>
              <LatitudeDegrees>36.832226626574993133544921875</LatitudeDegrees>
              <LongitudeDegrees>-4.3807260878384113311767578125</LongitudeDegrees>
            </Position>
            <AltitudeMeters>714</AltitudeMeters>
            <DistanceMeters>NAN</DistanceMeters>
          </Trackpoint>
          <Trackpoint>
            <Time>2020-12-05T10:28:20.000Z</Time>
            <Position>
              <LatitudeDegrees>36.832236014306545257568359375</LatitudeDegrees>
              <LongitudeDegrees>-4.38071141950786113739013671875</LongitudeDegrees>
            </Position>
            <AltitudeMeters>714</AltitudeMeters>
            <DistanceMeters>NAN</DistanceMeters>
          </Trackpoint>
          <Trackpoint>
            <Time>2020-12-05T10:28:21.000Z</Time>
            <Position>
              <LatitudeDegrees>36.832247078418731689453125</LatitudeDegrees>
              <LongitudeDegrees>-4.380698762834072113037109375</LongitudeDegrees>
            </Position>
            <AltitudeMeters>714</AltitudeMeters>
            <DistanceMeters>NAN</DistanceMeters>
          </Trackpoint>
          <Trackpoint>
            <Time>2020-12-05T10:28:22.000Z</Time>
            <Position>
              <LatitudeDegrees>36.832257471978664398193359375</LatitudeDegrees>
              <LongitudeDegrees>-4.38068711198866367340087890625</LongitudeDegrees>
            </Position>
            <AltitudeMeters>714</AltitudeMeters>
            <DistanceMeters>NAN</DistanceMeters>
          </Trackpoint>
          <Trackpoint>
            <Time>2020-12-05T10:28:23.000Z</Time>
            <Position>
              <LatitudeDegrees>36.83227146975696086883544921875</LatitudeDegrees>
              <LongitudeDegrees>-4.38067571260035037994384765625</LongitudeDegrees>
            </Position>
            <AltitudeMeters>714</AltitudeMeters>
            <DistanceMeters>NAN</DistanceMeters>
          </Trackpoint>
          <Trackpoint>
            <Time>2020-12-05T10:28:24.000Z</Time>
            <Position>
              <LatitudeDegrees>36.8322797678411006927490234375</LatitudeDegrees>
              <LongitudeDegrees>-4.380675293505191802978515625</LongitudeDegrees>
            </Position>
            <AltitudeMeters>714.20001220703125</AltitudeMeters>
            <DistanceMeters>NAN</DistanceMeters>
          </Trackpoint>
          <Trackpoint>
            <Time>2020-12-05T10:28:25.000Z</Time>
            <Position>
              <LatitudeDegrees>36.83228789828717708587646484375</LatitudeDegrees>
              <LongitudeDegrees>-4.380670599639415740966796875</LongitudeDegrees>
            </Position>
            <AltitudeMeters>714.20001220703125</AltitudeMeters>
            <DistanceMeters>NAN</DistanceMeters>
          </Trackpoint>
          <Trackpoint>
            <Time>2020-12-05T10:28:26.000Z</Time>
            <Position>
              <LatitudeDegrees>36.832296364009380340576171875</LatitudeDegrees>
              <LongitudeDegrees>-4.38066749833524227142333984375</LongitudeDegrees>
            </Position>
            <AltitudeMeters>714.20001220703125</AltitudeMeters>
            <DistanceMeters>NAN</DistanceMeters>
          </Trackpoint>
          <Trackpoint>
            <Time>2020-12-05T10:28:27.000Z</Time>
            <Position>
              <LatitudeDegrees>36.83230365626513957977294921875</LatitudeDegrees>
              <LongitudeDegrees>-4.38066196627914905548095703125</LongitudeDegrees>
            </Position>
            <AltitudeMeters>714.20001220703125</AltitudeMeters>
            <DistanceMeters>NAN</DistanceMeters>
          </Trackpoint>
          <Trackpoint>
            <Time>2020-12-05T10:28:28.000Z</Time>
            <Position>
              <LatitudeDegrees>36.83231237344443798065185546875</LatitudeDegrees>
              <LongitudeDegrees>-4.38065459020435810089111328125</LongitudeDegrees>
            </Position>
            <AltitudeMeters>714.20001220703125</AltitudeMeters>
            <DistanceMeters>NAN</DistanceMeters>
          </Trackpoint>
          <Trackpoint>
            <Time>2020-12-05T10:28:29.000Z</Time>
            <Position>
              <LatitudeDegrees>36.8323223479092121124267578125</LatitudeDegrees>
              <LongitudeDegrees>-4.380647800862789154052734375</LongitudeDegrees>
            </Position>
            <AltitudeMeters>714.20001220703125</AltitudeMeters>
            <DistanceMeters>NAN</DistanceMeters>
          </Trackpoint>
          <Trackpoint>
            <Time>2020-12-05T10:28:30.000Z</Time>
            <Position>
              <LatitudeDegrees>36.83233282528817653656005859375</LatitudeDegrees>
              <LongitudeDegrees>-4.38064000569283962249755859375</LongitudeDegrees>
            </Position>
            <AltitudeMeters>714.20001220703125</AltitudeMeters>
            <DistanceMeters>NAN</DistanceMeters>
          </Trackpoint>
          <Trackpoint>
            <Time>2020-12-05T10:28:31.000Z</Time>
            <Position>
              <LatitudeDegrees>36.83234355412423610687255859375</LatitudeDegrees>
              <LongitudeDegrees>-4.38063380308449268341064453125</LongitudeDegrees>
            </Position>
            <AltitudeMeters>714</AltitudeMeters>
            <DistanceMeters>NAN</DistanceMeters>
          </Trackpoint>
          <Trackpoint>
            <Time>2020-12-05T10:28:32.000Z</Time>
            <Position>
              <LatitudeDegrees>36.832353360950946807861328125</LatitudeDegrees>
              <LongitudeDegrees>-4.38063003122806549072265625</LongitudeDegrees>
            </Position>
            <AltitudeMeters>713.79998779296875</AltitudeMeters>
            <DistanceMeters>NAN</DistanceMeters>
          </Trackpoint>
          <Trackpoint>
            <Time>2020-12-05T10:28:33.000Z</Time>
            <Position>
              <LatitudeDegrees>36.83236216194927692413330078125</LatitudeDegrees>
              <LongitudeDegrees>-4.38062642700970172882080078125</LongitudeDegrees>
            </Position>
            <AltitudeMeters>713.4000244140625</AltitudeMeters>
            <DistanceMeters>NAN</DistanceMeters>
          </Trackpoint>
          <Trackpoint>
            <Time>2020-12-05T10:28:34.000Z</Time>
            <Position>
              <LatitudeDegrees>36.83237154968082904815673828125</LatitudeDegrees>
              <LongitudeDegrees>-4.38062123022973537445068359375</LongitudeDegrees>
            </Position>
            <AltitudeMeters>713.20001220703125</AltitudeMeters>
            <DistanceMeters>NAN</DistanceMeters>
          </Trackpoint>
          <Trackpoint>
            <Time>2020-12-05T10:28:35.000Z</Time>
            <Position>
              <LatitudeDegrees>36.8323820270597934722900390625</LatitudeDegrees>
              <LongitudeDegrees>-4.38061418943107128143310546875</LongitudeDegrees>
            </Position>
            <AltitudeMeters>712.79998779296875</AltitudeMeters>
            <DistanceMeters>NAN</DistanceMeters>
          </Trackpoint>
          <Trackpoint>
            <Time>2020-12-05T10:28:36.000Z</Time>
            <Position>
              <LatitudeDegrees>36.83239401318132877349853515625</LatitudeDegrees>
              <LongitudeDegrees>-4.38060547225177288055419921875</LongitudeDegrees>
            </Position>
            <AltitudeMeters>712.4000244140625</AltitudeMeters>
            <DistanceMeters>NAN</DistanceMeters>
          </Trackpoint>
          <Trackpoint>
            <Time>2020-12-05T10:28:37.000Z</Time>
            <Position>
              <LatitudeDegrees>36.832406334578990936279296875</LatitudeDegrees>
              <LongitudeDegrees>-4.38059356994926929473876953125</LongitudeDegrees>
            </Position>
            <AltitudeMeters>712.20001220703125</AltitudeMeters>
            <DistanceMeters>NAN</DistanceMeters>
          </Trackpoint>
          <Trackpoint>
            <Time>2020-12-05T10:28:38.000Z</Time>
            <Position>
              <LatitudeDegrees>36.83241941034793853759765625</LatitudeDegrees>
              <LongitudeDegrees>-4.380576051771640777587890625</LongitudeDegrees>
            </Position>
            <AltitudeMeters>712</AltitudeMeters>
            <DistanceMeters>NAN</DistanceMeters>
          </Trackpoint>
          <Trackpoint>
            <Time>2020-12-05T10:28:39.000Z</Time>
            <Position>
              <LatitudeDegrees>36.832431145012378692626953125</LatitudeDegrees>
              <LongitudeDegrees>-4.3805628083646297454833984375</LongitudeDegrees>
            </Position>
            <AltitudeMeters>711.79998779296875</AltitudeMeters>
            <DistanceMeters>NAN</DistanceMeters>
          </Trackpoint>
          <Trackpoint>
            <Time>2020-12-05T10:28:40.000Z</Time>
            <Position>
              <LatitudeDegrees>36.83244179002940654754638671875</LatitudeDegrees>
              <LongitudeDegrees>-4.380553252995014190673828125</LongitudeDegrees>
            </Position>
            <AltitudeMeters>711.79998779296875</AltitudeMeters>
            <DistanceMeters>NAN</DistanceMeters>
          </Trackpoint>
          <Trackpoint>
            <Time>2020-12-05T10:28:41.000Z</Time>
            <Position>
              <LatitudeDegrees>36.83245025575160980224609375</LatitudeDegrees>
              <LongitudeDegrees>-4.380547888576984405517578125</LongitudeDegrees>
            </Position>
            <AltitudeMeters>711.5999755859375</AltitudeMeters>
            <DistanceMeters>NAN</DistanceMeters>
          </Trackpoint>
          <Trackpoint>
            <Time>2020-12-05T10:28:42.000Z</Time>
            <Position>
              <LatitudeDegrees>36.8324591405689716339111328125</LatitudeDegrees>
              <LongitudeDegrees>-4.3805413506925106048583984375</LongitudeDegrees>
            </Position>
            <AltitudeMeters>711.4000244140625</AltitudeMeters>
            <DistanceMeters>NAN</DistanceMeters>
          </Trackpoint>
          <Trackpoint>
            <Time>2020-12-05T10:28:43.000Z</Time>
            <Position>
              <LatitudeDegrees>36.8324671871960163116455078125</LatitudeDegrees>
              <LongitudeDegrees>-4.3805339746177196502685546875</LongitudeDegrees>
            </Position>
            <AltitudeMeters>711.20001220703125</AltitudeMeters>
            <DistanceMeters>NAN</DistanceMeters>
          </Trackpoint>
          <Trackpoint>
            <Time>2020-12-05T10:28:44.000Z</Time>
            <Position>
              <LatitudeDegrees>36.83247615583240985870361328125</LatitudeDegrees>
              <LongitudeDegrees>-4.38052701763808727264404296875</LongitudeDegrees>
            </Position>
            <AltitudeMeters>711.20001220703125</AltitudeMeters>
            <DistanceMeters>NAN</DistanceMeters>
          </Trackpoint>
          <Trackpoint>
            <Time>2020-12-05T10:28:45.000Z</Time>
            <Position>
              <LatitudeDegrees>36.83248437009751796722412109375</LatitudeDegrees>
              <LongitudeDegrees>-4.38052031211555004119873046875</LongitudeDegrees>
            </Position>
            <AltitudeMeters>711.20001220703125</AltitudeMeters>
            <DistanceMeters>NAN</DistanceMeters>
          </Trackpoint>
          <Trackpoint>
            <Time>2020-12-05T10:28:46.000Z</Time>
            <Position>
              <LatitudeDegrees>36.832491494715213775634765625</LatitudeDegrees>
              <LongitudeDegrees>-4.380515031516551971435546875</LongitudeDegrees>
            </Position>
            <AltitudeMeters>711.20001220703125</AltitudeMeters>
            <DistanceMeters>NAN</DistanceMeters>
          </Trackpoint>
          <Trackpoint>
            <Time>2020-12-05T10:28:47.000Z</Time>
            <Position>
              <LatitudeDegrees>36.8324990384280681610107421875</LatitudeDegrees>
              <LongitudeDegrees>-4.38050891272723674774169921875</LongitudeDegrees>
            </Position>
            <AltitudeMeters>711.20001220703125</AltitudeMeters>
            <DistanceMeters>NAN</DistanceMeters>
          </Trackpoint>
          <Trackpoint>
            <Time>2020-12-05T10:28:48.000Z</Time>
            <Position>
              <LatitudeDegrees>36.83250800706446170806884765625</LatitudeDegrees>
              <LongitudeDegrees>-4.380503632128238677978515625</LongitudeDegrees>
            </Position>
            <AltitudeMeters>711.20001220703125</AltitudeMeters>
            <DistanceMeters>NAN</DistanceMeters>
          </Trackpoint>
          <Trackpoint>
            <Time>2020-12-05T10:28:49.000Z</Time>
            <Position>
              <LatitudeDegrees>36.8325158022344112396240234375</LatitudeDegrees>
              <LongitudeDegrees>-4.3804970942437648773193359375</LongitudeDegrees>
            </Position>
            <AltitudeMeters>711.20001220703125</AltitudeMeters>
            <DistanceMeters>NAN</DistanceMeters>
          </Trackpoint>
          <Trackpoint>
            <Time>2020-12-05T10:28:50.000Z</Time>
            <Position>
              <LatitudeDegrees>36.83252527378499507904052734375</LatitudeDegrees>
              <LongitudeDegrees>-4.3804893828928470611572265625</LongitudeDegrees>
            </Position>
            <AltitudeMeters>711</AltitudeMeters>
            <DistanceMeters>NAN</DistanceMeters>
          </Trackpoint>
          <Trackpoint>
            <Time>2020-12-05T10:28:51.000Z</Time>
            <Position>
              <LatitudeDegrees>36.83253482915461063385009765625</LatitudeDegrees>
              <LongitudeDegrees>-4.38047940842807292938232421875</LongitudeDegrees>
            </Position>
            <AltitudeMeters>710.79998779296875</AltitudeMeters>
            <DistanceMeters>NAN</DistanceMeters>
          </Trackpoint>
          <Trackpoint>
            <Time>2020-12-05T10:28:52.000Z</Time>
            <Position>
              <LatitudeDegrees>36.8325443007051944732666015625</LatitudeDegrees>
              <LongitudeDegrees>-4.38047035597264766693115234375</LongitudeDegrees>
            </Position>
            <AltitudeMeters>710.79998779296875</AltitudeMeters>
            <DistanceMeters>NAN</DistanceMeters>
          </Trackpoint>
          <Trackpoint>
            <Time>2020-12-05T10:28:53.000Z</Time>
            <Position>
              <LatitudeDegrees>36.83255377225577831268310546875</LatitudeDegrees>
              <LongitudeDegrees>-4.38046105206012725830078125</LongitudeDegrees>
            </Position>
            <AltitudeMeters>710.5999755859375</AltitudeMeters>
            <DistanceMeters>NAN</DistanceMeters>
          </Trackpoint>
          <Trackpoint>
            <Time>2020-12-05T10:28:54.000Z</Time>
            <Position>
              <LatitudeDegrees>36.8325640819966793060302734375</LatitudeDegrees>
              <LongitudeDegrees>-4.38044973649084568023681640625</LongitudeDegrees>
            </Position>
            <AltitudeMeters>710.5999755859375</AltitudeMeters>
            <DistanceMeters>NAN</DistanceMeters>
          </Trackpoint>
          <Trackpoint>
            <Time>2020-12-05T10:28:55.000Z</Time>
            <Position>
              <LatitudeDegrees>36.832571960985660552978515625</LatitudeDegrees>
              <LongitudeDegrees>-4.380436576902866363525390625</LongitudeDegrees>
            </Position>
            <AltitudeMeters>710.4000244140625</AltitudeMeters>
            <DistanceMeters>NAN</DistanceMeters>
          </Trackpoint>
          <Trackpoint>
            <Time>2020-12-05T10:28:56.000Z</Time>
            <Position>
              <LatitudeDegrees>36.8325783312320709228515625</LatitudeDegrees>
              <LongitudeDegrees>-4.38042081892490386962890625</LongitudeDegrees>
            </Position>
            <AltitudeMeters>710.20001220703125</AltitudeMeters>
            <DistanceMeters>NAN</DistanceMeters>
          </Trackpoint>
          <Trackpoint>
            <Time>2020-12-05T10:28:57.000Z</Time>
            <Position>
              <LatitudeDegrees>36.83258445002138614654541015625</LatitudeDegrees>
              <LongitudeDegrees>-4.38040313310921192169189453125</LongitudeDegrees>
            </Position>
            <AltitudeMeters>710</AltitudeMeters>
            <DistanceMeters>NAN</DistanceMeters>
          </Trackpoint>
          <Trackpoint>
            <Time>2020-12-05T10:28:58.000Z</Time>
            <Position>
              <LatitudeDegrees>36.8325878866016864776611328125</LatitudeDegrees>
              <LongitudeDegrees>-4.38038326799869537353515625</LongitudeDegrees>
            </Position>
            <AltitudeMeters>709.5999755859375</AltitudeMeters>
            <DistanceMeters>NAN</DistanceMeters>
          </Trackpoint>
          <Trackpoint>
            <Time>2020-12-05T10:28:59.000Z</Time>
            <Position>
              <LatitudeDegrees>36.83259014971554279327392578125</LatitudeDegrees>
              <LongitudeDegrees>-4.38035912811756134033203125</LongitudeDegrees>
            </Position>
            <AltitudeMeters>709.20001220703125</AltitudeMeters>
            <DistanceMeters>NAN</DistanceMeters>
          </Trackpoint>
          <Trackpoint>
            <Time>2020-12-05T10:29:00.000Z</Time>
            <Position>
              <LatitudeDegrees>36.8325935862958431243896484375</LatitudeDegrees>
              <LongitudeDegrees>-4.3803324736654758453369140625</LongitudeDegrees>
            </Position>
            <AltitudeMeters>709.20001220703125</AltitudeMeters>
            <DistanceMeters>NAN</DistanceMeters>
          </Trackpoint>
          <Trackpoint>
            <Time>2020-12-05T10:29:01.000Z</Time>
            <Position>
              <LatitudeDegrees>36.8325971066951751708984375</LatitudeDegrees>
              <LongitudeDegrees>-4.38030640594661235809326171875</LongitudeDegrees>
            </Position>
            <AltitudeMeters>709</AltitudeMeters>
            <DistanceMeters>NAN</DistanceMeters>
          </Trackpoint>
          <Trackpoint>
            <Time>2020-12-05T10:29:02.000Z</Time>
            <Position>
              <LatitudeDegrees>36.8326009623706340789794921875</LatitudeDegrees>
              <LongitudeDegrees>-4.3802892230451107025146484375</LongitudeDegrees>
            </Position>
            <AltitudeMeters>709</AltitudeMeters>
            <DistanceMeters>NAN</DistanceMeters>
          </Trackpoint>
          <Trackpoint>
            <Time>2020-12-05T10:29:03.000Z</Time>
            <Position>
              <LatitudeDegrees>36.83260205201804637908935546875</LatitudeDegrees>
              <LongitudeDegrees>-4.38027321361005306243896484375</LongitudeDegrees>
            </Position>
            <AltitudeMeters>709</AltitudeMeters>
            <DistanceMeters>NAN</DistanceMeters>
          </Trackpoint>
          <Trackpoint>
            <Time>2020-12-05T10:29:04.000Z</Time>
            <Position>
              <LatitudeDegrees>36.83260255493223667144775390625</LatitudeDegrees>
              <LongitudeDegrees>-4.380253851413726806640625</LongitudeDegrees>
            </Position>
            <AltitudeMeters>708.79998779296875</AltitudeMeters>
            <DistanceMeters>NAN</DistanceMeters>
          </Trackpoint>
          <Trackpoint>
            <Time>2020-12-05T10:29:05.000Z</Time>
            <Position>
              <LatitudeDegrees>36.8326078355312347412109375</LatitudeDegrees>
              <LongitudeDegrees>-4.3802416138350963592529296875</LongitudeDegrees>
            </Position>
            <AltitudeMeters>708.79998779296875</AltitudeMeters>
            <DistanceMeters>NAN</DistanceMeters>
          </Trackpoint>
          <Trackpoint>
            <Time>2020-12-05T10:29:06.000Z</Time>
            <Position>
              <LatitudeDegrees>36.83260942809283733367919921875</LatitudeDegrees>
              <LongitudeDegrees>-4.38022912479937076568603515625</LongitudeDegrees>
            </Position>
            <AltitudeMeters>709</AltitudeMeters>
            <DistanceMeters>NAN</DistanceMeters>
          </Trackpoint>
          <Trackpoint>
            <Time>2020-12-05T10:29:07.000Z</Time>
            <Position>
              <LatitudeDegrees>36.8326083384454250335693359375</LatitudeDegrees>
              <LongitudeDegrees>-4.380215294659137725830078125</LongitudeDegrees>
            </Position>
            <AltitudeMeters>709</AltitudeMeters>
            <DistanceMeters>NAN</DistanceMeters>
          </Trackpoint>
          <Trackpoint>
            <Time>2020-12-05T10:29:08.000Z</Time>
            <Position>
              <LatitudeDegrees>36.83260372839868068695068359375</LatitudeDegrees>
              <LongitudeDegrees>-4.3802007101476192474365234375</LongitudeDegrees>
            </Position>
            <AltitudeMeters>708.79998779296875</AltitudeMeters>
            <DistanceMeters>NAN</DistanceMeters>
          </Trackpoint>
          <Trackpoint>
            <Time>2020-12-05T10:29:09.000Z</Time>
            <Position>
              <LatitudeDegrees>36.832598783075809478759765625</LatitudeDegrees>
              <LongitudeDegrees>-4.380186460912227630615234375</LongitudeDegrees>
            </Position>
            <AltitudeMeters>708.4000244140625</AltitudeMeters>
            <DistanceMeters>NAN</DistanceMeters>
          </Trackpoint>
          <Trackpoint>
            <Time>2020-12-05T10:29:10.000Z</Time>
            <Position>
              <LatitudeDegrees>36.8325972743332386016845703125</LatitudeDegrees>
              <LongitudeDegrees>-4.3801738880574703216552734375</LongitudeDegrees>
            </Position>
            <AltitudeMeters>708.20001220703125</AltitudeMeters>
            <DistanceMeters>NAN</DistanceMeters>
          </Trackpoint>
          <Trackpoint>
            <Time>2020-12-05T10:29:11.000Z</Time>
            <Position>
              <LatitudeDegrees>36.83259953744709491729736328125</LatitudeDegrees>
              <LongitudeDegrees>-4.3801601417362689971923828125</LongitudeDegrees>
            </Position>
            <AltitudeMeters>707.79998779296875</AltitudeMeters>
            <DistanceMeters>NAN</DistanceMeters>
          </Trackpoint>
          <Trackpoint>
            <Time>2020-12-05T10:29:12.000Z</Time>
            <Position>
              <LatitudeDegrees>36.83260423131287097930908203125</LatitudeDegrees>
              <LongitudeDegrees>-4.3801494129002094268798828125</LongitudeDegrees>
            </Position>
            <AltitudeMeters>707.5999755859375</AltitudeMeters>
            <DistanceMeters>NAN</DistanceMeters>
          </Trackpoint>
          <Trackpoint>
            <Time>2020-12-05T10:29:13.000Z</Time>
            <Position>
              <LatitudeDegrees>36.8326076678931713104248046875</LatitudeDegrees>
              <LongitudeDegrees>-4.380142204463481903076171875</LongitudeDegrees>
            </Position>
            <AltitudeMeters>707.4000244140625</AltitudeMeters>
            <DistanceMeters>NAN</DistanceMeters>
          </Trackpoint>
          <Trackpoint>
            <Time>2020-12-05T10:29:14.000Z</Time>
            <Position>
              <LatitudeDegrees>36.832614876329898834228515625</LatitudeDegrees>
              <LongitudeDegrees>-4.38013373874127864837646484375</LongitudeDegrees>
            </Position>
            <AltitudeMeters>707.4000244140625</AltitudeMeters>
            <DistanceMeters>NAN</DistanceMeters>
          </Trackpoint>
          <Trackpoint>
            <Time>2020-12-05T10:29:15.000Z</Time>
            <Position>
              <LatitudeDegrees>36.83262367732822895050048828125</LatitudeDegrees>
              <LongitudeDegrees>-4.38012619502842426300048828125</LongitudeDegrees>
            </Position>
            <AltitudeMeters>707.20001220703125</AltitudeMeters>
            <DistanceMeters>NAN</DistanceMeters>
          </Trackpoint>
          <Trackpoint>
            <Time>2020-12-05T10:29:16.000Z</Time>
            <Position>
              <LatitudeDegrees>36.83263390325009822845458984375</LatitudeDegrees>
              <LongitudeDegrees>-4.38011948950588703155517578125</LongitudeDegrees>
            </Position>
            <AltitudeMeters>706.79998779296875</AltitudeMeters>
            <DistanceMeters>NAN</DistanceMeters>
          </Trackpoint>
          <Trackpoint>
            <Time>2020-12-05T10:29:17.000Z</Time>
            <Position>
              <LatitudeDegrees>36.8326442129909992218017578125</LatitudeDegrees>
              <LongitudeDegrees>-4.38011127524077892303466796875</LongitudeDegrees>
            </Position>
            <AltitudeMeters>706.4000244140625</AltitudeMeters>
            <DistanceMeters>NAN</DistanceMeters>
          </Trackpoint>
          <Trackpoint>
            <Time>2020-12-05T10:29:18.000Z</Time>
            <Position>
              <LatitudeDegrees>36.83265351690351963043212890625</LatitudeDegrees>
              <LongitudeDegrees>-4.38010155223309993743896484375</LongitudeDegrees>
            </Position>
            <AltitudeMeters>706.20001220703125</AltitudeMeters>
            <DistanceMeters>NAN</DistanceMeters>
          </Trackpoint>
          <Trackpoint>
            <Time>2020-12-05T10:29:19.000Z</Time>
            <Position>
              <LatitudeDegrees>36.83266240172088146209716796875</LatitudeDegrees>
              <LongitudeDegrees>-4.38008646480739116668701171875</LongitudeDegrees>
            </Position>
            <AltitudeMeters>706</AltitudeMeters>
            <DistanceMeters>NAN</DistanceMeters>
          </Trackpoint>
          <Trackpoint>
            <Time>2020-12-05T10:29:20.000Z</Time>
            <Position>
              <LatitudeDegrees>36.8326706998050212860107421875</LatitudeDegrees>
              <LongitudeDegrees>-4.38007137738168239593505859375</LongitudeDegrees>
            </Position>
            <AltitudeMeters>705.79998779296875</AltitudeMeters>
            <DistanceMeters>NAN</DistanceMeters>
          </Trackpoint>
          <Trackpoint>
            <Time>2020-12-05T10:29:21.000Z</Time>
            <Position>
              <LatitudeDegrees>36.83267715387046337127685546875</LatitudeDegrees>
              <LongitudeDegrees>-4.380057714879512786865234375</LongitudeDegrees>
            </Position>
            <AltitudeMeters>705.5999755859375</AltitudeMeters>
            <DistanceMeters>NAN</DistanceMeters>
          </Trackpoint>
          <Trackpoint>
            <Time>2020-12-05T10:29:22.000Z</Time>
            <Position>
              <LatitudeDegrees>36.83268335647881031036376953125</LatitudeDegrees>
              <LongitudeDegrees>-4.38004204072058200836181640625</LongitudeDegrees>
            </Position>
            <AltitudeMeters>705.20001220703125</AltitudeMeters>
            <DistanceMeters>NAN</DistanceMeters>
          </Trackpoint>
          <Trackpoint>
            <Time>2020-12-05T10:29:23.000Z</Time>
            <Position>
              <LatitudeDegrees>36.832687966525554656982421875</LatitudeDegrees>
              <LongitudeDegrees>-4.38002561219036579132080078125</LongitudeDegrees>
            </Position>
            <AltitudeMeters>704.79998779296875</AltitudeMeters>
            <DistanceMeters>NAN</DistanceMeters>
          </Trackpoint>
          <Trackpoint>
            <Time>2020-12-05T10:29:24.000Z</Time>
            <Position>
              <LatitudeDegrees>36.8326898105442523956298828125</LatitudeDegrees>
              <LongitudeDegrees>-4.38001303933560848236083984375</LongitudeDegrees>
            </Position>
            <AltitudeMeters>704.79998779296875</AltitudeMeters>
            <DistanceMeters>NAN</DistanceMeters>
          </Trackpoint>
          <Trackpoint>
            <Time>2020-12-05T10:29:25.000Z</Time>
            <Position>
              <LatitudeDegrees>36.83269031345844268798828125</LatitudeDegrees>
              <LongitudeDegrees>-4.3800002150237560272216796875</LongitudeDegrees>
            </Position>
            <AltitudeMeters>704.5999755859375</AltitudeMeters>
            <DistanceMeters>NAN</DistanceMeters>
          </Trackpoint>
          <Trackpoint>
            <Time>2020-12-05T10:29:26.000Z</Time>
            <Position>
              <LatitudeDegrees>36.83268955908715724945068359375</LatitudeDegrees>
              <LongitudeDegrees>-4.37998789362609386444091796875</LongitudeDegrees>
            </Position>
            <AltitudeMeters>704.4000244140625</AltitudeMeters>
            <DistanceMeters>NAN</DistanceMeters>
          </Trackpoint>
          <Trackpoint>
            <Time>2020-12-05T10:29:27.000Z</Time>
            <Position>
              <LatitudeDegrees>36.832689978182315826416015625</LatitudeDegrees>
              <LongitudeDegrees>-4.37997959554195404052734375</LongitudeDegrees>
            </Position>
            <AltitudeMeters>704.4000244140625</AltitudeMeters>
            <DistanceMeters>NAN</DistanceMeters>
          </Trackpoint>
          <Trackpoint>
            <Time>2020-12-05T10:29:28.000Z</Time>
            <Position>
              <LatitudeDegrees>36.832692660391330718994140625</LatitudeDegrees>
              <LongitudeDegrees>-4.3799733929336071014404296875</LongitudeDegrees>
            </Position>
            <AltitudeMeters>704.4000244140625</AltitudeMeters>
            <DistanceMeters>NAN</DistanceMeters>
          </Trackpoint>
          <Trackpoint>
            <Time>2020-12-05T10:29:29.000Z</Time>
            <Position>
              <LatitudeDegrees>36.83269458822906017303466796875</LatitudeDegrees>
              <LongitudeDegrees>-4.379962496459484100341796875</LongitudeDegrees>
            </Position>
            <AltitudeMeters>704.4000244140625</AltitudeMeters>
            <DistanceMeters>NAN</DistanceMeters>
          </Trackpoint>
          <Trackpoint>
            <Time>2020-12-05T10:29:30.000Z</Time>
            <Position>
              <LatitudeDegrees>36.83269777335226535797119140625</LatitudeDegrees>
              <LongitudeDegrees>-4.379950426518917083740234375</LongitudeDegrees>
            </Position>
            <AltitudeMeters>704.4000244140625</AltitudeMeters>
            <DistanceMeters>NAN</DistanceMeters>
          </Trackpoint>
          <Trackpoint>
            <Time>2020-12-05T10:29:31.000Z</Time>
            <Position>
              <LatitudeDegrees>36.83270062319934368133544921875</LatitudeDegrees>
              <LongitudeDegrees>-4.379939027130603790283203125</LongitudeDegrees>
            </Position>
            <AltitudeMeters>704.4000244140625</AltitudeMeters>
            <DistanceMeters>NAN</DistanceMeters>
          </Trackpoint>
          <Trackpoint>
            <Time>2020-12-05T10:29:32.000Z</Time>
            <Position>
              <LatitudeDegrees>36.83270380832254886627197265625</LatitudeDegrees>
              <LongitudeDegrees>-4.3799277953803539276123046875</LongitudeDegrees>
            </Position>
            <AltitudeMeters>704.4000244140625</AltitudeMeters>
            <DistanceMeters>NAN</DistanceMeters>
          </Trackpoint>
          <Trackpoint>
            <Time>2020-12-05T10:29:33.000Z</Time>
            <Position>
              <LatitudeDegrees>36.83270917274057865142822265625</LatitudeDegrees>
              <LongitudeDegrees>-4.37991865910589694976806640625</LongitudeDegrees>
            </Position>
            <AltitudeMeters>704.4000244140625</AltitudeMeters>
            <DistanceMeters>NAN</DistanceMeters>
          </Trackpoint>
          <Trackpoint>
            <Time>2020-12-05T10:29:34.000Z</Time>
            <Position>
              <LatitudeDegrees>36.8327178061008453369140625</LatitudeDegrees>
              <LongitudeDegrees>-4.379910863935947418212890625</LongitudeDegrees>
            </Position>
            <AltitudeMeters>704.4000244140625</AltitudeMeters>
            <DistanceMeters>NAN</DistanceMeters>
          </Trackpoint>
          <Trackpoint>
            <Time>2020-12-05T10:29:35.000Z</Time>
            <Position>
              <LatitudeDegrees>36.83272476308047771453857421875</LatitudeDegrees>
              <LongitudeDegrees>-4.3799038231372833251953125</LongitudeDegrees>
            </Position>
            <AltitudeMeters>704.4000244140625</AltitudeMeters>
            <DistanceMeters>NAN</DistanceMeters>
          </Trackpoint>
          <Trackpoint>
            <Time>2020-12-05T10:29:36.000Z</Time>
            <Position>
              <LatitudeDegrees>36.83272962458431720733642578125</LatitudeDegrees>
              <LongitudeDegrees>-4.37989711761474609375</LongitudeDegrees>
            </Position>
            <AltitudeMeters>704.4000244140625</AltitudeMeters>
            <DistanceMeters>NAN</DistanceMeters>
          </Trackpoint>
          <Trackpoint>
            <Time>2020-12-05T10:29:37.000Z</Time>
            <Position>
              <LatitudeDegrees>36.83273700065910816192626953125</LatitudeDegrees>
              <LongitudeDegrees>-4.3798922561109066009521484375</LongitudeDegrees>
            </Position>
            <AltitudeMeters>704.4000244140625</AltitudeMeters>
            <DistanceMeters>NAN</DistanceMeters>
          </Trackpoint>
          <Trackpoint>
            <Time>2020-12-05T10:29:38.000Z</Time>
            <Position>
              <LatitudeDegrees>36.8327451311051845550537109375</LatitudeDegrees>
              <LongitudeDegrees>-4.37988831661641597747802734375</LongitudeDegrees>
            </Position>
            <AltitudeMeters>704.4000244140625</AltitudeMeters>
            <DistanceMeters>NAN</DistanceMeters>
          </Trackpoint>
          <Trackpoint>
            <Time>2020-12-05T10:29:39.000Z</Time>
            <Position>
              <LatitudeDegrees>36.83275334537029266357421875</LatitudeDegrees>
              <LongitudeDegrees>-4.379883371293544769287109375</LongitudeDegrees>
            </Position>
            <AltitudeMeters>704.20001220703125</AltitudeMeters>
            <DistanceMeters>NAN</DistanceMeters>
          </Trackpoint>
          <Trackpoint>
            <Time>2020-12-05T10:29:40.000Z</Time>
            <Position>
              <LatitudeDegrees>36.832761056721210479736328125</LatitudeDegrees>
              <LongitudeDegrees>-4.37987742014229297637939453125</LongitudeDegrees>
            </Position>
            <AltitudeMeters>704.20001220703125</AltitudeMeters>
            <DistanceMeters>NAN</DistanceMeters>
          </Trackpoint>
          <Trackpoint>
            <Time>2020-12-05T10:29:41.000Z</Time>
            <Position>
              <LatitudeDegrees>36.83276767842471599578857421875</LatitudeDegrees>
              <LongitudeDegrees>-4.3798728100955486297607421875</LongitudeDegrees>
            </Position>
            <AltitudeMeters>704.20001220703125</AltitudeMeters>
            <DistanceMeters>NAN</DistanceMeters>
          </Trackpoint>
          <Trackpoint>
            <Time>2020-12-05T10:29:42.000Z</Time>
            <Position>
              <LatitudeDegrees>36.83277689851820468902587890625</LatitudeDegrees>
              <LongitudeDegrees>-4.3798681162297725677490234375</LongitudeDegrees>
            </Position>
            <AltitudeMeters>704.20001220703125</AltitudeMeters>
            <DistanceMeters>NAN</DistanceMeters>
          </Trackpoint>
          <Trackpoint>
            <Time>2020-12-05T10:29:43.000Z</Time>
            <Position>
              <LatitudeDegrees>36.8327840231359004974365234375</LatitudeDegrees>
              <LongitudeDegrees>-4.3798609077930450439453125</LongitudeDegrees>
            </Position>
            <AltitudeMeters>704.20001220703125</AltitudeMeters>
            <DistanceMeters>NAN</DistanceMeters>
          </Trackpoint>
          <Trackpoint>
            <Time>2020-12-05T10:29:44.000Z</Time>
            <Position>
              <LatitudeDegrees>36.83279064483940601348876953125</LatitudeDegrees>
              <LongitudeDegrees>-4.37985227443277835845947265625</LongitudeDegrees>
            </Position>
            <AltitudeMeters>703.79998779296875</AltitudeMeters>
            <DistanceMeters>NAN</DistanceMeters>
          </Trackpoint>
          <Trackpoint>
            <Time>2020-12-05T10:29:45.000Z</Time>
            <Position>
              <LatitudeDegrees>36.8327982723712921142578125</LatitudeDegrees>
              <LongitudeDegrees>-4.37984473071992397308349609375</LongitudeDegrees>
            </Position>
            <AltitudeMeters>703.5999755859375</AltitudeMeters>
            <DistanceMeters>NAN</DistanceMeters>
          </Trackpoint>
          <Trackpoint>
            <Time>2020-12-05T10:29:46.000Z</Time>
            <Position>
              <LatitudeDegrees>36.83280824683606624603271484375</LatitudeDegrees>
              <LongitudeDegrees>-4.37983886338770389556884765625</LongitudeDegrees>
            </Position>
            <AltitudeMeters>703.20001220703125</AltitudeMeters>
            <DistanceMeters>NAN</DistanceMeters>
          </Trackpoint>
          <Trackpoint>
            <Time>2020-12-05T10:29:47.000Z</Time>
            <Position>
              <LatitudeDegrees>36.83281914331018924713134765625</LatitudeDegrees>
              <LongitudeDegrees>-4.37982536852359771728515625</LongitudeDegrees>
            </Position>
            <AltitudeMeters>703</AltitudeMeters>
            <DistanceMeters>NAN</DistanceMeters>
          </Trackpoint>
          <Trackpoint>
            <Time>2020-12-05T10:29:48.000Z</Time>
            <Position>
              <LatitudeDegrees>36.83282978832721710205078125</LatitudeDegrees>
              <LongitudeDegrees>-4.37981204129755496978759765625</LongitudeDegrees>
            </Position>
            <AltitudeMeters>702.5999755859375</AltitudeMeters>
            <DistanceMeters>NAN</DistanceMeters>
          </Trackpoint>
          <Trackpoint>
            <Time>2020-12-05T10:29:49.000Z</Time>
            <Position>
              <LatitudeDegrees>36.83283875696361064910888671875</LatitudeDegrees>
              <LongitudeDegrees>-4.37980114482343196868896484375</LongitudeDegrees>
            </Position>
            <AltitudeMeters>702.4000244140625</AltitudeMeters>
            <DistanceMeters>NAN</DistanceMeters>
          </Trackpoint>
          <Trackpoint>
            <Time>2020-12-05T10:29:50.000Z</Time>
            <Position>
              <LatitudeDegrees>36.83284948579967021942138671875</LatitudeDegrees>
              <LongitudeDegrees>-4.379790164530277252197265625</LongitudeDegrees>
            </Position>
            <AltitudeMeters>702.20001220703125</AltitudeMeters>
            <DistanceMeters>NAN</DistanceMeters>
          </Trackpoint>
          <Trackpoint>
            <Time>2020-12-05T10:29:51.000Z</Time>
            <Position>
              <LatitudeDegrees>36.8328564427793025970458984375</LatitudeDegrees>
              <LongitudeDegrees>-4.37978513538837432861328125</LongitudeDegrees>
            </Position>
            <AltitudeMeters>702</AltitudeMeters>
            <DistanceMeters>NAN</DistanceMeters>
          </Trackpoint>
          <Trackpoint>
            <Time>2020-12-05T10:29:52.000Z</Time>
            <Position>
              <LatitudeDegrees>36.832864321768283843994140625</LatitudeDegrees>
              <LongitudeDegrees>-4.37977817840874195098876953125</LongitudeDegrees>
            </Position>
            <AltitudeMeters>702</AltitudeMeters>
            <DistanceMeters>NAN</DistanceMeters>
          </Trackpoint>
          <Trackpoint>
            <Time>2020-12-05T10:29:53.000Z</Time>
            <Position>
              <LatitudeDegrees>36.83287563733756542205810546875</LatitudeDegrees>
              <LongitudeDegrees>-4.3797695450484752655029296875</LongitudeDegrees>
            </Position>
            <AltitudeMeters>701.79998779296875</AltitudeMeters>
            <DistanceMeters>NAN</DistanceMeters>
          </Trackpoint>
          <Trackpoint>
            <Time>2020-12-05T10:29:54.000Z</Time>
            <Position>
              <LatitudeDegrees>36.832886449992656707763671875</LatitudeDegrees>
              <LongitudeDegrees>-4.37976191751658916473388671875</LongitudeDegrees>
            </Position>
            <AltitudeMeters>701.4000244140625</AltitudeMeters>
            <DistanceMeters>NAN</DistanceMeters>
          </Trackpoint>
          <Trackpoint>
            <Time>2020-12-05T10:29:55.000Z</Time>
            <Position>
              <LatitudeDegrees>36.83289810083806514739990234375</LatitudeDegrees>
              <LongitudeDegrees>-4.37975537963211536407470703125</LongitudeDegrees>
            </Position>
            <AltitudeMeters>701</AltitudeMeters>
            <DistanceMeters>NAN</DistanceMeters>
          </Trackpoint>
          <Trackpoint>
            <Time>2020-12-05T10:29:56.000Z</Time>
            <Position>
              <LatitudeDegrees>36.8329087458550930023193359375</LatitudeDegrees>
              <LongitudeDegrees>-4.3797511048614978790283203125</LongitudeDegrees>
            </Position>
            <AltitudeMeters>700.79998779296875</AltitudeMeters>
            <DistanceMeters>NAN</DistanceMeters>
          </Trackpoint>
          <Trackpoint>
            <Time>2020-12-05T10:29:57.000Z</Time>
            <Position>
              <LatitudeDegrees>36.83291788212954998016357421875</LatitudeDegrees>
              <LongitudeDegrees>-4.379745908081531524658203125</LongitudeDegrees>
            </Position>
            <AltitudeMeters>700.5999755859375</AltitudeMeters>
            <DistanceMeters>NAN</DistanceMeters>
          </Trackpoint>
          <Trackpoint>
            <Time>2020-12-05T10:29:58.000Z</Time>
            <Position>
              <LatitudeDegrees>36.8329241685569286346435546875</LatitudeDegrees>
              <LongitudeDegrees>-4.37973911873996257781982421875</LongitudeDegrees>
            </Position>
            <AltitudeMeters>700.5999755859375</AltitudeMeters>
            <DistanceMeters>NAN</DistanceMeters>
          </Trackpoint>
          <Trackpoint>
            <Time>2020-12-05T10:29:59.000Z</Time>
            <Position>
              <LatitudeDegrees>36.83293062262237071990966796875</LatitudeDegrees>
              <LongitudeDegrees>-4.3797283060848712921142578125</LongitudeDegrees>
            </Position>
            <AltitudeMeters>700.4000244140625</AltitudeMeters>
            <DistanceMeters>NAN</DistanceMeters>
          </Trackpoint>
          <Trackpoint>
            <Time>2020-12-05T10:30:00.000Z</Time>
            <Position>
              <LatitudeDegrees>36.832938753068447113037109375</LatitudeDegrees>
              <LongitudeDegrees>-4.3797179125249385833740234375</LongitudeDegrees>
            </Position>
            <AltitudeMeters>700.4000244140625</AltitudeMeters>
            <DistanceMeters>NAN</DistanceMeters>
          </Trackpoint>
          <Trackpoint>
            <Time>2020-12-05T10:30:01.000Z</Time>
            <Position>
              <LatitudeDegrees>36.8329473026096820831298828125</LatitudeDegrees>
              <LongitudeDegrees>-4.3797088600695133209228515625</LongitudeDegrees>
            </Position>
            <AltitudeMeters>700.4000244140625</AltitudeMeters>
            <DistanceMeters>NAN</DistanceMeters>
          </Trackpoint>
          <Trackpoint>
            <Time>2020-12-05T10:30:02.000Z</Time>
            <Position>
              <LatitudeDegrees>36.8329565227031707763671875</LatitudeDegrees>
              <LongitudeDegrees>-4.37969938851892948150634765625</LongitudeDegrees>
            </Position>
            <AltitudeMeters>700.20001220703125</AltitudeMeters>
            <DistanceMeters>NAN</DistanceMeters>
          </Trackpoint>
          <Trackpoint>
            <Time>2020-12-05T10:30:03.000Z</Time>
            <Position>
              <LatitudeDegrees>36.8329644016921520233154296875</LatitudeDegrees>
              <LongitudeDegrees>-4.37968765385448932647705078125</LongitudeDegrees>
            </Position>
            <AltitudeMeters>700.20001220703125</AltitudeMeters>
            <DistanceMeters>NAN</DistanceMeters>
          </Trackpoint>
          <Trackpoint>
            <Time>2020-12-05T10:30:04.000Z</Time>
            <Position>
              <LatitudeDegrees>36.8329727835953235626220703125</LatitudeDegrees>
              <LongitudeDegrees>-4.37967625446617603302001953125</LongitudeDegrees>
            </Position>
            <AltitudeMeters>700</AltitudeMeters>
            <DistanceMeters>NAN</DistanceMeters>
          </Trackpoint>
          <Trackpoint>
            <Time>2020-12-05T10:30:05.000Z</Time>
            <Position>
              <LatitudeDegrees>36.83298158459365367889404296875</LatitudeDegrees>
              <LongitudeDegrees>-4.37966753728687763214111328125</LongitudeDegrees>
            </Position>
            <AltitudeMeters>699.5999755859375</AltitudeMeters>
            <DistanceMeters>NAN</DistanceMeters>
          </Trackpoint>
          <Trackpoint>
            <Time>2020-12-05T10:30:06.000Z</Time>
            <Position>
              <LatitudeDegrees>36.83298979885876178741455078125</LatitudeDegrees>
              <LongitudeDegrees>-4.37965571880340576171875</LongitudeDegrees>
            </Position>
            <AltitudeMeters>699.5999755859375</AltitudeMeters>
            <DistanceMeters>NAN</DistanceMeters>
          </Trackpoint>
          <Trackpoint>
            <Time>2020-12-05T10:30:07.000Z</Time>
            <Position>
              <LatitudeDegrees>36.8330002762377262115478515625</LatitudeDegrees>
              <LongitudeDegrees>-4.37964222393929958343505859375</LongitudeDegrees>
            </Position>
            <AltitudeMeters>699.4000244140625</AltitudeMeters>
            <DistanceMeters>NAN</DistanceMeters>
          </Trackpoint>
          <Trackpoint>
            <Time>2020-12-05T10:30:08.000Z</Time>
            <Position>
              <LatitudeDegrees>36.83301058597862720489501953125</LatitudeDegrees>
              <LongitudeDegrees>-4.37962914817035198211669921875</LongitudeDegrees>
            </Position>
            <AltitudeMeters>699.4000244140625</AltitudeMeters>
            <DistanceMeters>NAN</DistanceMeters>
          </Trackpoint>
          <Trackpoint>
            <Time>2020-12-05T10:30:09.000Z</Time>
            <Position>
              <LatitudeDegrees>36.8330187164247035980224609375</LatitudeDegrees>
              <LongitudeDegrees>-4.37961590476334095001220703125</LongitudeDegrees>
            </Position>
            <AltitudeMeters>699.20001220703125</AltitudeMeters>
            <DistanceMeters>NAN</DistanceMeters>
          </Trackpoint>
          <Trackpoint>
            <Time>2020-12-05T10:30:10.000Z</Time>
            <Position>
              <LatitudeDegrees>36.83302584104239940643310546875</LatitudeDegrees>
              <LongitudeDegrees>-4.3796045891940593719482421875</LongitudeDegrees>
            </Position>
            <AltitudeMeters>699.4000244140625</AltitudeMeters>
            <DistanceMeters>NAN</DistanceMeters>
          </Trackpoint>
          <Trackpoint>
            <Time>2020-12-05T10:30:11.000Z</Time>
            <Position>
              <LatitudeDegrees>36.8330348096787929534912109375</LatitudeDegrees>
              <LongitudeDegrees>-4.37959696166217327117919921875</LongitudeDegrees>
            </Position>
            <AltitudeMeters>699.4000244140625</AltitudeMeters>
            <DistanceMeters>NAN</DistanceMeters>
          </Trackpoint>
          <Trackpoint>
            <Time>2020-12-05T10:30:12.000Z</Time>
            <Position>
              <LatitudeDegrees>36.83304511941969394683837890625</LatitudeDegrees>
              <LongitudeDegrees>-4.3795898370444774627685546875</LongitudeDegrees>
            </Position>
            <AltitudeMeters>699.4000244140625</AltitudeMeters>
            <DistanceMeters>NAN</DistanceMeters>
          </Trackpoint>
          <Trackpoint>
            <Time>2020-12-05T10:30:13.000Z</Time>
            <Position>
              <LatitudeDegrees>36.8330557644367218017578125</LatitudeDegrees>
              <LongitudeDegrees>-4.37958262860774993896484375</LongitudeDegrees>
            </Position>
            <AltitudeMeters>699.20001220703125</AltitudeMeters>
            <DistanceMeters>NAN</DistanceMeters>
          </Trackpoint>
          <Trackpoint>
            <Time>2020-12-05T10:30:14.000Z</Time>
            <Position>
              <LatitudeDegrees>36.8330673314630985260009765625</LatitudeDegrees>
              <LongitudeDegrees>-4.379576258361339569091796875</LongitudeDegrees>
            </Position>
            <AltitudeMeters>698.79998779296875</AltitudeMeters>
            <DistanceMeters>NAN</DistanceMeters>
          </Trackpoint>
          <Trackpoint>
            <Time>2020-12-05T10:30:15.000Z</Time>
            <Position>
              <LatitudeDegrees>36.83307445608079433441162109375</LatitudeDegrees>
              <LongitudeDegrees>-4.3795727379620075225830078125</LongitudeDegrees>
            </Position>
            <AltitudeMeters>698.79998779296875</AltitudeMeters>
            <DistanceMeters>NAN</DistanceMeters>
          </Trackpoint>
          <Trackpoint>
            <Time>2020-12-05T10:30:16.000Z</Time>
            <Position>
              <LatitudeDegrees>36.83308501727879047393798828125</LatitudeDegrees>
              <LongitudeDegrees>-4.3795700557529926300048828125</LongitudeDegrees>
            </Position>
            <AltitudeMeters>698.5999755859375</AltitudeMeters>
            <DistanceMeters>NAN</DistanceMeters>
          </Trackpoint>
          <Trackpoint>
            <Time>2020-12-05T10:30:17.000Z</Time>
            <Position>
              <LatitudeDegrees>36.8330961652100086212158203125</LatitudeDegrees>
              <LongitudeDegrees>-4.37956712208688259124755859375</LongitudeDegrees>
            </Position>
            <AltitudeMeters>698.5999755859375</AltitudeMeters>
            <DistanceMeters>NAN</DistanceMeters>
          </Trackpoint>
          <Trackpoint>
            <Time>2020-12-05T10:30:18.000Z</Time>
            <Position>
              <LatitudeDegrees>36.833106391131877899169921875</LatitudeDegrees>
              <LongitudeDegrees>-4.37956192530691623687744140625</LongitudeDegrees>
            </Position>
            <AltitudeMeters>698.5999755859375</AltitudeMeters>
            <DistanceMeters>NAN</DistanceMeters>
          </Trackpoint>
          <Trackpoint>
            <Time>2020-12-05T10:30:19.000Z</Time>
            <Position>
              <LatitudeDegrees>36.833117790520191192626953125</LatitudeDegrees>
              <LongitudeDegrees>-4.37955287285149097442626953125</LongitudeDegrees>
            </Position>
            <AltitudeMeters>698.5999755859375</AltitudeMeters>
            <DistanceMeters>NAN</DistanceMeters>
          </Trackpoint>
          <Trackpoint>
            <Time>2020-12-05T10:30:20.000Z</Time>
            <Position>
              <LatitudeDegrees>36.83312885463237762451171875</LatitudeDegrees>
              <LongitudeDegrees>-4.37954516150057315826416015625</LongitudeDegrees>
            </Position>
            <AltitudeMeters>698.5999755859375</AltitudeMeters>
            <DistanceMeters>NAN</DistanceMeters>
          </Trackpoint>
          <Trackpoint>
            <Time>2020-12-05T10:30:21.000Z</Time>
            <Position>
              <LatitudeDegrees>36.83313916437327861785888671875</LatitudeDegrees>
              <LongitudeDegrees>-4.3795417249202728271484375</LongitudeDegrees>
            </Position>
            <AltitudeMeters>698.79998779296875</AltitudeMeters>
            <DistanceMeters>NAN</DistanceMeters>
          </Trackpoint>
          <Trackpoint>
            <Time>2020-12-05T10:30:22.000Z</Time>
            <Position>
              <LatitudeDegrees>36.8331484682857990264892578125</LatitudeDegrees>
              <LongitudeDegrees>-4.37953962944447994232177734375</LongitudeDegrees>
            </Position>
            <AltitudeMeters>698.79998779296875</AltitudeMeters>
            <DistanceMeters>NAN</DistanceMeters>
          </Trackpoint>
          <Trackpoint>
            <Time>2020-12-05T10:30:23.000Z</Time>
            <Position>
              <LatitudeDegrees>36.8331565149128437042236328125</LatitudeDegrees>
              <LongitudeDegrees>-4.37953703105449676513671875</LongitudeDegrees>
            </Position>
            <AltitudeMeters>699</AltitudeMeters>
            <DistanceMeters>NAN</DistanceMeters>
          </Trackpoint>
          <Trackpoint>
            <Time>2020-12-05T10:30:24.000Z</Time>
            <Position>
              <LatitudeDegrees>36.8331665731966495513916015625</LatitudeDegrees>
              <LongitudeDegrees>-4.37952906824648380279541015625</LongitudeDegrees>
            </Position>
            <AltitudeMeters>698.5999755859375</AltitudeMeters>
            <DistanceMeters>NAN</DistanceMeters>
          </Trackpoint>
          <Trackpoint>
            <Time>2020-12-05T10:30:25.000Z</Time>
            <Position>
              <LatitudeDegrees>36.83317855931818485260009765625</LatitudeDegrees>
              <LongitudeDegrees>-4.3795221112668514251708984375</LongitudeDegrees>
            </Position>
            <AltitudeMeters>699</AltitudeMeters>
            <DistanceMeters>NAN</DistanceMeters>
          </Trackpoint>
          <Trackpoint>
            <Time>2020-12-05T10:30:26.000Z</Time>
            <Position>
              <LatitudeDegrees>36.83319146744906902313232421875</LatitudeDegrees>
              <LongitudeDegrees>-4.37951800413429737091064453125</LongitudeDegrees>
            </Position>
            <AltitudeMeters>699.20001220703125</AltitudeMeters>
            <DistanceMeters>NAN</DistanceMeters>
          </Trackpoint>
          <Trackpoint>
            <Time>2020-12-05T10:30:27.000Z</Time>
            <Position>
              <LatitudeDegrees>36.8332047946751117706298828125</LatitudeDegrees>
              <LongitudeDegrees>-4.37951582483947277069091796875</LongitudeDegrees>
            </Position>
            <AltitudeMeters>699</AltitudeMeters>
            <DistanceMeters>NAN</DistanceMeters>
          </Trackpoint>
          <Trackpoint>
            <Time>2020-12-05T10:30:28.000Z</Time>
            <Position>
              <LatitudeDegrees>36.8332193791866302490234375</LatitudeDegrees>
              <LongitudeDegrees>-4.37951833941042423248291015625</LongitudeDegrees>
            </Position>
            <AltitudeMeters>698.5999755859375</AltitudeMeters>
            <DistanceMeters>NAN</DistanceMeters>
          </Trackpoint>
          <Trackpoint>
            <Time>2020-12-05T10:30:29.000Z</Time>
            <Position>
              <LatitudeDegrees>36.83323572389781475067138671875</LatitudeDegrees>
              <LongitudeDegrees>-4.3795227818191051483154296875</LongitudeDegrees>
            </Position>
            <AltitudeMeters>698</AltitudeMeters>
            <DistanceMeters>NAN</DistanceMeters>
          </Trackpoint>
          <Trackpoint>
            <Time>2020-12-05T10:30:30.000Z</Time>
            <Position>
              <LatitudeDegrees>36.8332510627806186676025390625</LatitudeDegrees>
              <LongitudeDegrees>-4.37952957116067409515380859375</LongitudeDegrees>
            </Position>
            <AltitudeMeters>697.20001220703125</AltitudeMeters>
            <DistanceMeters>NAN</DistanceMeters>
          </Trackpoint>
          <Trackpoint>
            <Time>2020-12-05T10:30:31.000Z</Time>
            <Position>
              <LatitudeDegrees>36.83326673693954944610595703125</LatitudeDegrees>
              <LongitudeDegrees>-4.3795365281403064727783203125</LongitudeDegrees>
            </Position>
            <AltitudeMeters>695.79998779296875</AltitudeMeters>
            <DistanceMeters>NAN</DistanceMeters>
          </Trackpoint>
          <Trackpoint>
            <Time>2020-12-05T10:30:32.000Z</Time>
            <Position>
              <LatitudeDegrees>36.83328299783170223236083984375</LatitudeDegrees>
              <LongitudeDegrees>-4.3795418925583362579345703125</LongitudeDegrees>
            </Position>
            <AltitudeMeters>695</AltitudeMeters>
            <DistanceMeters>NAN</DistanceMeters>
          </Trackpoint>
          <Trackpoint>
            <Time>2020-12-05T10:30:33.000Z</Time>
            <Position>
              <LatitudeDegrees>36.833296827971935272216796875</LatitudeDegrees>
              <LongitudeDegrees>-4.37954910099506378173828125</LongitudeDegrees>
            </Position>
            <AltitudeMeters>695.20001220703125</AltitudeMeters>
            <DistanceMeters>NAN</DistanceMeters>
          </Trackpoint>
          <Trackpoint>
            <Time>2020-12-05T10:30:34.000Z</Time>
            <Position>
              <LatitudeDegrees>36.83330931700766086578369140625</LatitudeDegrees>
              <LongitudeDegrees>-4.37955723144114017486572265625</LongitudeDegrees>
            </Position>
            <AltitudeMeters>695.4000244140625</AltitudeMeters>
            <DistanceMeters>NAN</DistanceMeters>
          </Trackpoint>
          <Trackpoint>
            <Time>2020-12-05T10:30:35.000Z</Time>
            <Position>
              <LatitudeDegrees>36.83332188986241817474365234375</LatitudeDegrees>
              <LongitudeDegrees>-4.3795697204768657684326171875</LongitudeDegrees>
            </Position>
            <AltitudeMeters>695.20001220703125</AltitudeMeters>
            <DistanceMeters>NAN</DistanceMeters>
          </Trackpoint>
          <Trackpoint>
            <Time>2020-12-05T10:30:36.000Z</Time>
            <Position>
              <LatitudeDegrees>36.83333261869847774505615234375</LatitudeDegrees>
              <LongitudeDegrees>-4.3795824609696865081787109375</LongitudeDegrees>
            </Position>
            <AltitudeMeters>695</AltitudeMeters>
            <DistanceMeters>NAN</DistanceMeters>
          </Trackpoint>
          <Trackpoint>
            <Time>2020-12-05T10:30:37.000Z</Time>
            <Position>
              <LatitudeDegrees>36.8333449400961399078369140625</LatitudeDegrees>
              <LongitudeDegrees>-4.3795972131192684173583984375</LongitudeDegrees>
            </Position>
            <AltitudeMeters>695.4000244140625</AltitudeMeters>
            <DistanceMeters>NAN</DistanceMeters>
          </Trackpoint>
          <Trackpoint>
            <Time>2020-12-05T10:30:38.000Z</Time>
            <Position>
              <LatitudeDegrees>36.8333563394844532012939453125</LatitudeDegrees>
              <LongitudeDegrees>-4.37961221672594547271728515625</LongitudeDegrees>
            </Position>
            <AltitudeMeters>695.5999755859375</AltitudeMeters>
            <DistanceMeters>NAN</DistanceMeters>
          </Trackpoint>
          <Trackpoint>
            <Time>2020-12-05T10:30:39.000Z</Time>
            <Position>
              <LatitudeDegrees>36.8333694152534008026123046875</LatitudeDegrees>
              <LongitudeDegrees>-4.37962629832327365875244140625</LongitudeDegrees>
            </Position>
            <AltitudeMeters>695.4000244140625</AltitudeMeters>
            <DistanceMeters>NAN</DistanceMeters>
          </Trackpoint>
          <Trackpoint>
            <Time>2020-12-05T10:30:40.000Z</Time>
            <Position>
              <LatitudeDegrees>36.83338358066976070404052734375</LatitudeDegrees>
              <LongitudeDegrees>-4.37963618896901607513427734375</LongitudeDegrees>
            </Position>
            <AltitudeMeters>695.4000244140625</AltitudeMeters>
            <DistanceMeters>NAN</DistanceMeters>
          </Trackpoint>
          <Trackpoint>
            <Time>2020-12-05T10:30:41.000Z</Time>
            <Position>
              <LatitudeDegrees>36.83339866809546947479248046875</LatitudeDegrees>
              <LongitudeDegrees>-4.379644654691219329833984375</LongitudeDegrees>
            </Position>
            <AltitudeMeters>695.20001220703125</AltitudeMeters>
            <DistanceMeters>NAN</DistanceMeters>
          </Trackpoint>
          <Trackpoint>
            <Time>2020-12-05T10:30:42.000Z</Time>
            <Position>
              <LatitudeDegrees>36.8334140069782733917236328125</LatitudeDegrees>
              <LongitudeDegrees>-4.3796548806130886077880859375</LongitudeDegrees>
            </Position>
            <AltitudeMeters>695</AltitudeMeters>
            <DistanceMeters>NAN</DistanceMeters>
          </Trackpoint>
          <Trackpoint>
            <Time>2020-12-05T10:30:43.000Z</Time>
            <Position>
              <LatitudeDegrees>36.833426244556903839111328125</LatitudeDegrees>
              <LongitudeDegrees>-4.37966669909656047821044921875</LongitudeDegrees>
            </Position>
            <AltitudeMeters>694.79998779296875</AltitudeMeters>
            <DistanceMeters>NAN</DistanceMeters>
          </Trackpoint>
          <Trackpoint>
            <Time>2020-12-05T10:30:44.000Z</Time>
            <Position>
              <LatitudeDegrees>36.83343705721199512481689453125</LatitudeDegrees>
              <LongitudeDegrees>-4.37968052923679351806640625</LongitudeDegrees>
            </Position>
            <AltitudeMeters>694.20001220703125</AltitudeMeters>
            <DistanceMeters>NAN</DistanceMeters>
          </Trackpoint>
          <Trackpoint>
            <Time>2020-12-05T10:30:45.000Z</Time>
            <Position>
              <LatitudeDegrees>36.8334431760013103485107421875</LatitudeDegrees>
              <LongitudeDegrees>-4.37969318591058254241943359375</LongitudeDegrees>
            </Position>
            <AltitudeMeters>693.79998779296875</AltitudeMeters>
            <DistanceMeters>NAN</DistanceMeters>
          </Trackpoint>
          <Trackpoint>
            <Time>2020-12-05T10:30:46.000Z</Time>
            <Position>
              <LatitudeDegrees>36.83344996534287929534912109375</LatitudeDegrees>
              <LongitudeDegrees>-4.37970332801342010498046875</LongitudeDegrees>
            </Position>
            <AltitudeMeters>693.5999755859375</AltitudeMeters>
            <DistanceMeters>NAN</DistanceMeters>
          </Trackpoint>
          <Trackpoint>
            <Time>2020-12-05T10:30:47.000Z</Time>
            <Position>
              <LatitudeDegrees>36.83345449157059192657470703125</LatitudeDegrees>
              <LongitudeDegrees>-4.37971514649689197540283203125</LongitudeDegrees>
            </Position>
            <AltitudeMeters>693.4000244140625</AltitudeMeters>
            <DistanceMeters>NAN</DistanceMeters>
          </Trackpoint>
          <Trackpoint>
            <Time>2020-12-05T10:30:48.000Z</Time>
            <Position>
              <LatitudeDegrees>36.83345616795122623443603515625</LatitudeDegrees>
              <LongitudeDegrees>-4.37973174266517162322998046875</LongitudeDegrees>
            </Position>
            <AltitudeMeters>693</AltitudeMeters>
            <DistanceMeters>NAN</DistanceMeters>
          </Trackpoint>
          <Trackpoint>
            <Time>2020-12-05T10:30:49.000Z</Time>
            <Position>
              <LatitudeDegrees>36.83346069417893886566162109375</LatitudeDegrees>
              <LongitudeDegrees>-4.3797467462718486785888671875</LongitudeDegrees>
            </Position>
            <AltitudeMeters>692.4000244140625</AltitudeMeters>
            <DistanceMeters>NAN</DistanceMeters>
          </Trackpoint>
          <Trackpoint>
            <Time>2020-12-05T10:30:50.000Z</Time>
            <Position>
              <LatitudeDegrees>36.83346723206341266632080078125</LatitudeDegrees>
              <LongitudeDegrees>-4.3797645159065723419189453125</LongitudeDegrees>
            </Position>
            <AltitudeMeters>691.79998779296875</AltitudeMeters>
            <DistanceMeters>NAN</DistanceMeters>
          </Trackpoint>
          <Trackpoint>
            <Time>2020-12-05T10:30:51.000Z</Time>
            <Position>
              <LatitudeDegrees>36.8334756977856159210205078125</LatitudeDegrees>
              <LongitudeDegrees>-4.3797791004180908203125</LongitudeDegrees>
            </Position>
            <AltitudeMeters>691.20001220703125</AltitudeMeters>
            <DistanceMeters>NAN</DistanceMeters>
          </Trackpoint>
          <Trackpoint>
            <Time>2020-12-05T10:30:52.000Z</Time>
            <Position>
              <LatitudeDegrees>36.83348047547042369842529296875</LatitudeDegrees>
              <LongitudeDegrees>-4.37979795970022678375244140625</LongitudeDegrees>
            </Position>
            <AltitudeMeters>690.5999755859375</AltitudeMeters>
            <DistanceMeters>NAN</DistanceMeters>
          </Trackpoint>
          <Trackpoint>
            <Time>2020-12-05T10:30:53.000Z</Time>
            <Position>
              <LatitudeDegrees>36.83348558843135833740234375</LatitudeDegrees>
              <LongitudeDegrees>-4.37981019727885723114013671875</LongitudeDegrees>
            </Position>
            <AltitudeMeters>690.20001220703125</AltitudeMeters>
            <DistanceMeters>NAN</DistanceMeters>
          </Trackpoint>
          <Trackpoint>
            <Time>2020-12-05T10:30:54.000Z</Time>
            <Position>
              <LatitudeDegrees>36.83349229395389556884765625</LatitudeDegrees>
              <LongitudeDegrees>-4.37982092611491680145263671875</LongitudeDegrees>
            </Position>
            <AltitudeMeters>690</AltitudeMeters>
            <DistanceMeters>NAN</DistanceMeters>
          </Trackpoint>
          <Trackpoint>
            <Time>2020-12-05T10:30:55.000Z</Time>
            <Position>
              <LatitudeDegrees>36.83349338360130786895751953125</LatitudeDegrees>
              <LongitudeDegrees>-4.37983299605548381805419921875</LongitudeDegrees>
            </Position>
            <AltitudeMeters>690</AltitudeMeters>
            <DistanceMeters>NAN</DistanceMeters>
          </Trackpoint>
          <Trackpoint>
            <Time>2020-12-05T10:30:56.000Z</Time>
            <Position>
              <LatitudeDegrees>36.83349908329546451568603515625</LatitudeDegrees>
              <LongitudeDegrees>-4.37984473071992397308349609375</LongitudeDegrees>
            </Position>
            <AltitudeMeters>690</AltitudeMeters>
            <DistanceMeters>NAN</DistanceMeters>
          </Trackpoint>
          <Trackpoint>
            <Time>2020-12-05T10:30:57.000Z</Time>
            <Position>
              <LatitudeDegrees>36.83350796811282634735107421875</LatitudeDegrees>
              <LongitudeDegrees>-4.37985613010823726654052734375</LongitudeDegrees>
            </Position>
            <AltitudeMeters>690</AltitudeMeters>
            <DistanceMeters>NAN</DistanceMeters>
          </Trackpoint>
          <Trackpoint>
            <Time>2020-12-05T10:30:58.000Z</Time>
            <Position>
              <LatitudeDegrees>36.83351769112050533294677734375</LatitudeDegrees>
              <LongitudeDegrees>-4.37986962497234344482421875</LongitudeDegrees>
            </Position>
            <AltitudeMeters>690</AltitudeMeters>
            <DistanceMeters>NAN</DistanceMeters>
          </Trackpoint>
          <Trackpoint>
            <Time>2020-12-05T10:30:59.000Z</Time>
            <Position>
              <LatitudeDegrees>36.83352590538561344146728515625</LatitudeDegrees>
              <LongitudeDegrees>-4.37988261692225933074951171875</LongitudeDegrees>
            </Position>
            <AltitudeMeters>690</AltitudeMeters>
            <DistanceMeters>NAN</DistanceMeters>
          </Trackpoint>
          <Trackpoint>
            <Time>2020-12-05T10:31:00.000Z</Time>
            <Position>
              <LatitudeDegrees>36.8335340358316898345947265625</LatitudeDegrees>
              <LongitudeDegrees>-4.37989116646349430084228515625</LongitudeDegrees>
            </Position>
            <AltitudeMeters>690.20001220703125</AltitudeMeters>
            <DistanceMeters>NAN</DistanceMeters>
          </Trackpoint>
          <Trackpoint>
            <Time>2020-12-05T10:31:01.000Z</Time>
            <Position>
              <LatitudeDegrees>36.83354191482067108154296875</LatitudeDegrees>
              <LongitudeDegrees>-4.3798986263573169708251953125</LongitudeDegrees>
            </Position>
            <AltitudeMeters>690.4000244140625</AltitudeMeters>
            <DistanceMeters>NAN</DistanceMeters>
          </Trackpoint>
          <Trackpoint>
            <Time>2020-12-05T10:31:02.000Z</Time>
            <Position>
              <LatitudeDegrees>36.83354853652417659759521484375</LatitudeDegrees>
              <LongitudeDegrees>-4.37990709207952022552490234375</LongitudeDegrees>
            </Position>
            <AltitudeMeters>690.4000244140625</AltitudeMeters>
            <DistanceMeters>NAN</DistanceMeters>
          </Trackpoint>
          <Trackpoint>
            <Time>2020-12-05T10:31:03.000Z</Time>
            <Position>
              <LatitudeDegrees>36.8335551582276821136474609375</LatitudeDegrees>
              <LongitudeDegrees>-4.37991798855364322662353515625</LongitudeDegrees>
            </Position>
            <AltitudeMeters>690.4000244140625</AltitudeMeters>
            <DistanceMeters>NAN</DistanceMeters>
          </Trackpoint>
          <Trackpoint>
            <Time>2020-12-05T10:31:04.000Z</Time>
            <Position>
              <LatitudeDegrees>36.83356094174087047576904296875</LatitudeDegrees>
              <LongitudeDegrees>-4.3799311481416225433349609375</LongitudeDegrees>
            </Position>
            <AltitudeMeters>690.4000244140625</AltitudeMeters>
            <DistanceMeters>NAN</DistanceMeters>
          </Trackpoint>
          <Trackpoint>
            <Time>2020-12-05T10:31:05.000Z</Time>
            <Position>
              <LatitudeDegrees>36.83356731198728084564208984375</LatitudeDegrees>
              <LongitudeDegrees>-4.37994447536766529083251953125</LongitudeDegrees>
            </Position>
            <AltitudeMeters>690.4000244140625</AltitudeMeters>
            <DistanceMeters>NAN</DistanceMeters>
          </Trackpoint>
          <Trackpoint>
            <Time>2020-12-05T10:31:06.000Z</Time>
            <Position>
              <LatitudeDegrees>36.83357435278594493865966796875</LatitudeDegrees>
              <LongitudeDegrees>-4.37995947897434234619140625</LongitudeDegrees>
            </Position>
            <AltitudeMeters>690.20001220703125</AltitudeMeters>
            <DistanceMeters>NAN</DistanceMeters>
          </Trackpoint>
          <Trackpoint>
            <Time>2020-12-05T10:31:07.000Z</Time>
            <Position>
              <LatitudeDegrees>36.83358072303235530853271484375</LatitudeDegrees>
              <LongitudeDegrees>-4.37997758388519287109375</LongitudeDegrees>
            </Position>
            <AltitudeMeters>690</AltitudeMeters>
            <DistanceMeters>NAN</DistanceMeters>
          </Trackpoint>
          <Trackpoint>
            <Time>2020-12-05T10:31:08.000Z</Time>
            <Position>
              <LatitudeDegrees>36.833587847650051116943359375</LatitudeDegrees>
              <LongitudeDegrees>-4.3799931742250919342041015625</LongitudeDegrees>
            </Position>
            <AltitudeMeters>689.5999755859375</AltitudeMeters>
            <DistanceMeters>NAN</DistanceMeters>
          </Trackpoint>
          <Trackpoint>
            <Time>2020-12-05T10:31:09.000Z</Time>
            <Position>
              <LatitudeDegrees>36.83359086513519287109375</LatitudeDegrees>
              <LongitudeDegrees>-4.380012452602386474609375</LongitudeDegrees>
            </Position>
            <AltitudeMeters>689.20001220703125</AltitudeMeters>
            <DistanceMeters>NAN</DistanceMeters>
          </Trackpoint>
          <Trackpoint>
            <Time>2020-12-05T10:31:10.000Z</Time>
            <Position>
              <LatitudeDegrees>36.83359681628644466400146484375</LatitudeDegrees>
              <LongitudeDegrees>-4.3800270371139049530029296875</LongitudeDegrees>
            </Position>
            <AltitudeMeters>688.79998779296875</AltitudeMeters>
            <DistanceMeters>NAN</DistanceMeters>
          </Trackpoint>
          <Trackpoint>
            <Time>2020-12-05T10:31:11.000Z</Time>
            <Position>
              <LatitudeDegrees>36.83360134251415729522705078125</LatitudeDegrees>
              <LongitudeDegrees>-4.38004002906382083892822265625</LongitudeDegrees>
            </Position>
            <AltitudeMeters>688.4000244140625</AltitudeMeters>
            <DistanceMeters>NAN</DistanceMeters>
          </Trackpoint>
          <Trackpoint>
            <Time>2020-12-05T10:31:12.000Z</Time>
            <Position>
              <LatitudeDegrees>36.83360494673252105712890625</LatitudeDegrees>
              <LongitudeDegrees>-4.3800538592040538787841796875</LongitudeDegrees>
            </Position>
            <AltitudeMeters>688</AltitudeMeters>
            <DistanceMeters>NAN</DistanceMeters>
          </Trackpoint>
          <Trackpoint>
            <Time>2020-12-05T10:31:13.000Z</Time>
            <Position>
              <LatitudeDegrees>36.83360897004604339599609375</LatitudeDegrees>
              <LongitudeDegrees>-4.3800676055252552032470703125</LongitudeDegrees>
            </Position>
            <AltitudeMeters>687.79998779296875</AltitudeMeters>
            <DistanceMeters>NAN</DistanceMeters>
          </Trackpoint>
          <Trackpoint>
            <Time>2020-12-05T10:31:14.000Z</Time>
            <Position>
              <LatitudeDegrees>36.83361609466373920440673828125</LatitudeDegrees>
              <LongitudeDegrees>-4.38007657416164875030517578125</LongitudeDegrees>
            </Position>
            <AltitudeMeters>687.5999755859375</AltitudeMeters>
            <DistanceMeters>NAN</DistanceMeters>
          </Trackpoint>
          <Trackpoint>
            <Time>2020-12-05T10:31:15.000Z</Time>
            <Position>
              <LatitudeDegrees>36.8336222134530544281005859375</LatitudeDegrees>
              <LongitudeDegrees>-4.380085207521915435791015625</LongitudeDegrees>
            </Position>
            <AltitudeMeters>687.4000244140625</AltitudeMeters>
            <DistanceMeters>NAN</DistanceMeters>
          </Trackpoint>
          <Trackpoint>
            <Time>2020-12-05T10:31:16.000Z</Time>
            <Position>
              <LatitudeDegrees>36.833627410233020782470703125</LatitudeDegrees>
              <LongitudeDegrees>-4.38009434379637241363525390625</LongitudeDegrees>
            </Position>
            <AltitudeMeters>687.20001220703125</AltitudeMeters>
            <DistanceMeters>NAN</DistanceMeters>
          </Trackpoint>
          <Trackpoint>
            <Time>2020-12-05T10:31:17.000Z</Time>
            <Position>
              <LatitudeDegrees>36.83362933807075023651123046875</LatitudeDegrees>
              <LongitudeDegrees>-4.3801031447947025299072265625</LongitudeDegrees>
            </Position>
            <AltitudeMeters>686.79998779296875</AltitudeMeters>
            <DistanceMeters>NAN</DistanceMeters>
          </Trackpoint>
          <Trackpoint>
            <Time>2020-12-05T10:31:18.000Z</Time>
            <Position>
              <LatitudeDegrees>36.83363470248878002166748046875</LatitudeDegrees>
              <LongitudeDegrees>-4.38011546619236469268798828125</LongitudeDegrees>
            </Position>
            <AltitudeMeters>686.4000244140625</AltitudeMeters>
            <DistanceMeters>NAN</DistanceMeters>
          </Trackpoint>
          <Trackpoint>
            <Time>2020-12-05T10:31:19.000Z</Time>
            <Position>
              <LatitudeDegrees>36.83364115655422210693359375</LatitudeDegrees>
              <LongitudeDegrees>-4.38012686558067798614501953125</LongitudeDegrees>
            </Position>
            <AltitudeMeters>685.79998779296875</AltitudeMeters>
            <DistanceMeters>NAN</DistanceMeters>
          </Trackpoint>
          <Trackpoint>
            <Time>2020-12-05T10:31:20.000Z</Time>
            <Position>
              <LatitudeDegrees>36.83364677242934703826904296875</LatitudeDegrees>
              <LongitudeDegrees>-4.38013843260705471038818359375</LongitudeDegrees>
            </Position>
            <AltitudeMeters>685.4000244140625</AltitudeMeters>
            <DistanceMeters>NAN</DistanceMeters>
          </Trackpoint>
          <Trackpoint>
            <Time>2020-12-05T10:31:21.000Z</Time>
            <Position>
              <LatitudeDegrees>36.83364861644804477691650390625</LatitudeDegrees>
              <LongitudeDegrees>-4.38015117309987545013427734375</LongitudeDegrees>
            </Position>
            <AltitudeMeters>685.20001220703125</AltitudeMeters>
            <DistanceMeters>NAN</DistanceMeters>
          </Trackpoint>
          <Trackpoint>
            <Time>2020-12-05T10:31:22.000Z</Time>
            <Position>
              <LatitudeDegrees>36.8336523883044719696044921875</LatitudeDegrees>
              <LongitudeDegrees>-4.38016760163009166717529296875</LongitudeDegrees>
            </Position>
            <AltitudeMeters>685</AltitudeMeters>
            <DistanceMeters>NAN</DistanceMeters>
          </Trackpoint>
          <Trackpoint>
            <Time>2020-12-05T10:31:23.000Z</Time>
            <Position>
              <LatitudeDegrees>36.8336560763418674468994140625</LatitudeDegrees>
              <LongitudeDegrees>-4.38018067739903926849365234375</LongitudeDegrees>
            </Position>
            <AltitudeMeters>685</AltitudeMeters>
            <DistanceMeters>NAN</DistanceMeters>
          </Trackpoint>
          <Trackpoint>
            <Time>2020-12-05T10:31:24.000Z</Time>
            <Position>
              <LatitudeDegrees>36.83366118930280208587646484375</LatitudeDegrees>
              <LongitudeDegrees>-4.38019417226314544677734375</LongitudeDegrees>
            </Position>
            <AltitudeMeters>685</AltitudeMeters>
            <DistanceMeters>NAN</DistanceMeters>
          </Trackpoint>
          <Trackpoint>
            <Time>2020-12-05T10:31:25.000Z</Time>
            <Position>
              <LatitudeDegrees>36.8336664699018001556396484375</LatitudeDegrees>
              <LongitudeDegrees>-4.380207248032093048095703125</LongitudeDegrees>
            </Position>
            <AltitudeMeters>684.79998779296875</AltitudeMeters>
            <DistanceMeters>NAN</DistanceMeters>
          </Trackpoint>
          <Trackpoint>
            <Time>2020-12-05T10:31:26.000Z</Time>
            <Position>
              <LatitudeDegrees>36.8336731754243373870849609375</LatitudeDegrees>
              <LongitudeDegrees>-4.38021822832524776458740234375</LongitudeDegrees>
            </Position>
            <AltitudeMeters>684.79998779296875</AltitudeMeters>
            <DistanceMeters>NAN</DistanceMeters>
          </Trackpoint>
          <Trackpoint>
            <Time>2020-12-05T10:31:27.000Z</Time>
            <Position>
              <LatitudeDegrees>36.833679378032684326171875</LatitudeDegrees>
              <LongitudeDegrees>-4.380225352942943572998046875</LongitudeDegrees>
            </Position>
            <AltitudeMeters>684.5999755859375</AltitudeMeters>
            <DistanceMeters>NAN</DistanceMeters>
          </Trackpoint>
          <Trackpoint>
            <Time>2020-12-05T10:31:28.000Z</Time>
            <Position>
              <LatitudeDegrees>36.83368667028844356536865234375</LatitudeDegrees>
              <LongitudeDegrees>-4.380230717360973358154296875</LongitudeDegrees>
            </Position>
            <AltitudeMeters>684.4000244140625</AltitudeMeters>
            <DistanceMeters>NAN</DistanceMeters>
          </Trackpoint>
          <Trackpoint>
            <Time>2020-12-05T10:31:29.000Z</Time>
            <Position>
              <LatitudeDegrees>36.833691112697124481201171875</LatitudeDegrees>
              <LongitudeDegrees>-4.38023708760738372802734375</LongitudeDegrees>
            </Position>
            <AltitudeMeters>684.4000244140625</AltitudeMeters>
            <DistanceMeters>NAN</DistanceMeters>
          </Trackpoint>
          <Trackpoint>
            <Time>2020-12-05T10:31:30.000Z</Time>
            <Position>
              <LatitudeDegrees>36.83369622565805912017822265625</LatitudeDegrees>
              <LongitudeDegrees>-4.38024186529219150543212890625</LongitudeDegrees>
            </Position>
            <AltitudeMeters>684.20001220703125</AltitudeMeters>
            <DistanceMeters>NAN</DistanceMeters>
          </Trackpoint>
          <Trackpoint>
            <Time>2020-12-05T10:31:31.000Z</Time>
            <Position>
              <LatitudeDegrees>36.83369857259094715118408203125</LatitudeDegrees>
              <LongitudeDegrees>-4.38024706207215785980224609375</LongitudeDegrees>
            </Position>
            <AltitudeMeters>684.20001220703125</AltitudeMeters>
            <DistanceMeters>NAN</DistanceMeters>
          </Trackpoint>
          <Trackpoint>
            <Time>2020-12-05T10:31:32.000Z</Time>
            <Position>
              <LatitudeDegrees>36.83370175771415233612060546875</LatitudeDegrees>
              <LongitudeDegrees>-4.38025628216564655303955078125</LongitudeDegrees>
            </Position>
            <AltitudeMeters>684</AltitudeMeters>
            <DistanceMeters>NAN</DistanceMeters>
          </Trackpoint>
          <Trackpoint>
            <Time>2020-12-05T10:31:33.000Z</Time>
            <Position>
              <LatitudeDegrees>36.83370762504637241363525390625</LatitudeDegrees>
              <LongitudeDegrees>-4.38026801683008670806884765625</LongitudeDegrees>
            </Position>
            <AltitudeMeters>684</AltitudeMeters>
            <DistanceMeters>NAN</DistanceMeters>
          </Trackpoint>
          <Trackpoint>
            <Time>2020-12-05T10:31:34.000Z</Time>
            <Position>
              <LatitudeDegrees>36.833716593682765960693359375</LatitudeDegrees>
              <LongitudeDegrees>-4.38028042204678058624267578125</LongitudeDegrees>
            </Position>
            <AltitudeMeters>684</AltitudeMeters>
            <DistanceMeters>NAN</DistanceMeters>
          </Trackpoint>
          <Trackpoint>
            <Time>2020-12-05T10:31:35.000Z</Time>
            <Position>
              <LatitudeDegrees>36.833724640309810638427734375</LatitudeDegrees>
              <LongitudeDegrees>-4.38029265962541103363037109375</LongitudeDegrees>
            </Position>
            <AltitudeMeters>684.20001220703125</AltitudeMeters>
            <DistanceMeters>NAN</DistanceMeters>
          </Trackpoint>
          <Trackpoint>
            <Time>2020-12-05T10:31:36.000Z</Time>
            <Position>
              <LatitudeDegrees>36.833732016384601593017578125</LatitudeDegrees>
              <LongitudeDegrees>-4.38030607067048549652099609375</LongitudeDegrees>
            </Position>
            <AltitudeMeters>684.20001220703125</AltitudeMeters>
            <DistanceMeters>NAN</DistanceMeters>
          </Trackpoint>
          <Trackpoint>
            <Time>2020-12-05T10:31:37.000Z</Time>
            <Position>
              <LatitudeDegrees>36.833734028041362762451171875</LatitudeDegrees>
              <LongitudeDegrees>-4.38031696714460849761962890625</LongitudeDegrees>
            </Position>
            <AltitudeMeters>684.20001220703125</AltitudeMeters>
            <DistanceMeters>NAN</DistanceMeters>
          </Trackpoint>
          <Trackpoint>
            <Time>2020-12-05T10:31:38.000Z</Time>
            <Position>
              <LatitudeDegrees>36.83373495005071163177490234375</LatitudeDegrees>
              <LongitudeDegrees>-4.38032903708517551422119140625</LongitudeDegrees>
            </Position>
            <AltitudeMeters>684.20001220703125</AltitudeMeters>
            <DistanceMeters>NAN</DistanceMeters>
          </Trackpoint>
          <Trackpoint>
            <Time>2020-12-05T10:31:39.000Z</Time>
            <Position>
              <LatitudeDegrees>36.83373427949845790863037109375</LatitudeDegrees>
              <LongitudeDegrees>-4.38034093938767910003662109375</LongitudeDegrees>
            </Position>
            <AltitudeMeters>683.79998779296875</AltitudeMeters>
            <DistanceMeters>NAN</DistanceMeters>
          </Trackpoint>
          <Trackpoint>
            <Time>2020-12-05T10:31:40.000Z</Time>
            <Position>
              <LatitudeDegrees>36.83373369276523590087890625</LatitudeDegrees>
              <LongitudeDegrees>-4.38035066239535808563232421875</LongitudeDegrees>
            </Position>
            <AltitudeMeters>683.79998779296875</AltitudeMeters>
            <DistanceMeters>NAN</DistanceMeters>
          </Trackpoint>
          <Trackpoint>
            <Time>2020-12-05T10:31:41.000Z</Time>
            <Position>
              <LatitudeDegrees>36.83373444713652133941650390625</LatitudeDegrees>
              <LongitudeDegrees>-4.3803624808788299560546875</LongitudeDegrees>
            </Position>
            <AltitudeMeters>683.5999755859375</AltitudeMeters>
            <DistanceMeters>NAN</DistanceMeters>
          </Trackpoint>
          <Trackpoint>
            <Time>2020-12-05T10:31:42.000Z</Time>
            <Position>
              <LatitudeDegrees>36.8337343633174896240234375</LatitudeDegrees>
              <LongitudeDegrees>-4.3803713656961917877197265625</LongitudeDegrees>
            </Position>
            <AltitudeMeters>683.5999755859375</AltitudeMeters>
            <DistanceMeters>NAN</DistanceMeters>
          </Trackpoint>
          <Trackpoint>
            <Time>2020-12-05T10:31:43.000Z</Time>
            <Position>
              <LatitudeDegrees>36.83373310603201389312744140625</LatitudeDegrees>
              <LongitudeDegrees>-4.3803804181516170501708984375</LongitudeDegrees>
            </Position>
            <AltitudeMeters>683.79998779296875</AltitudeMeters>
            <DistanceMeters>NAN</DistanceMeters>
          </Trackpoint>
          <Trackpoint>
            <Time>2020-12-05T10:31:44.000Z</Time>
            <Position>
              <LatitudeDegrees>36.83373176492750644683837890625</LatitudeDegrees>
              <LongitudeDegrees>-4.380394332110881805419921875</LongitudeDegrees>
            </Position>
            <AltitudeMeters>683.79998779296875</AltitudeMeters>
            <DistanceMeters>NAN</DistanceMeters>
          </Trackpoint>
          <Trackpoint>
            <Time>2020-12-05T10:31:45.000Z</Time>
            <Position>
              <LatitudeDegrees>36.83373042382299900054931640625</LatitudeDegrees>
              <LongitudeDegrees>-4.3804102577269077301025390625</LongitudeDegrees>
            </Position>
            <AltitudeMeters>684</AltitudeMeters>
            <DistanceMeters>NAN</DistanceMeters>
          </Trackpoint>
          <Trackpoint>
            <Time>2020-12-05T10:31:46.000Z</Time>
            <Position>
              <LatitudeDegrees>36.833734028041362762451171875</LatitudeDegrees>
              <LongitudeDegrees>-4.3804313801229000091552734375</LongitudeDegrees>
            </Position>
            <AltitudeMeters>684</AltitudeMeters>
            <DistanceMeters>NAN</DistanceMeters>
          </Trackpoint>
          <Trackpoint>
            <Time>2020-12-05T10:31:47.000Z</Time>
            <Position>
              <LatitudeDegrees>36.83373813517391681671142578125</LatitudeDegrees>
              <LongitudeDegrees>-4.3804474733769893646240234375</LongitudeDegrees>
            </Position>
            <AltitudeMeters>684</AltitudeMeters>
            <DistanceMeters>NAN</DistanceMeters>
          </Trackpoint>
          <Trackpoint>
            <Time>2020-12-05T10:31:48.000Z</Time>
            <Position>
              <LatitudeDegrees>36.8337442539632320404052734375</LatitudeDegrees>
              <LongitudeDegrees>-4.380463063716888427734375</LongitudeDegrees>
            </Position>
            <AltitudeMeters>684</AltitudeMeters>
            <DistanceMeters>NAN</DistanceMeters>
          </Trackpoint>
          <Trackpoint>
            <Time>2020-12-05T10:31:49.000Z</Time>
            <Position>
              <LatitudeDegrees>36.83375246822834014892578125</LatitudeDegrees>
              <LongitudeDegrees>-4.380476139485836029052734375</LongitudeDegrees>
            </Position>
            <AltitudeMeters>684</AltitudeMeters>
            <DistanceMeters>NAN</DistanceMeters>
          </Trackpoint>
          <Trackpoint>
            <Time>2020-12-05T10:31:50.000Z</Time>
            <Position>
              <LatitudeDegrees>36.83376059867441654205322265625</LatitudeDegrees>
              <LongitudeDegrees>-4.3804913945496082305908203125</LongitudeDegrees>
            </Position>
            <AltitudeMeters>684</AltitudeMeters>
            <DistanceMeters>NAN</DistanceMeters>
          </Trackpoint>
          <Trackpoint>
            <Time>2020-12-05T10:31:51.000Z</Time>
            <Position>
              <LatitudeDegrees>36.83376763947308063507080078125</LatitudeDegrees>
              <LongitudeDegrees>-4.38050933182239532470703125</LongitudeDegrees>
            </Position>
            <AltitudeMeters>683.79998779296875</AltitudeMeters>
            <DistanceMeters>NAN</DistanceMeters>
          </Trackpoint>
          <Trackpoint>
            <Time>2020-12-05T10:31:52.000Z</Time>
            <Position>
              <LatitudeDegrees>36.833773590624332427978515625</LatitudeDegrees>
              <LongitudeDegrees>-4.380527772009372711181640625</LongitudeDegrees>
            </Position>
            <AltitudeMeters>683.5999755859375</AltitudeMeters>
            <DistanceMeters>NAN</DistanceMeters>
          </Trackpoint>
          <Trackpoint>
            <Time>2020-12-05T10:31:53.000Z</Time>
            <Position>
              <LatitudeDegrees>36.83377820067107677459716796875</LatitudeDegrees>
              <LongitudeDegrees>-4.38054093159735202789306640625</LongitudeDegrees>
            </Position>
            <AltitudeMeters>683.20001220703125</AltitudeMeters>
            <DistanceMeters>NAN</DistanceMeters>
          </Trackpoint>
          <Trackpoint>
            <Time>2020-12-05T10:31:54.000Z</Time>
            <Position>
              <LatitudeDegrees>36.833782307803630828857421875</LatitudeDegrees>
              <LongitudeDegrees>-4.380554594099521636962890625</LongitudeDegrees>
            </Position>
            <AltitudeMeters>682.79998779296875</AltitudeMeters>
            <DistanceMeters>NAN</DistanceMeters>
          </Trackpoint>
          <Trackpoint>
            <Time>2020-12-05T10:31:55.000Z</Time>
            <Position>
              <LatitudeDegrees>36.8337831459939479827880859375</LatitudeDegrees>
              <LongitudeDegrees>-4.38056834042072296142578125</LongitudeDegrees>
            </Position>
            <AltitudeMeters>682.20001220703125</AltitudeMeters>
            <DistanceMeters>NAN</DistanceMeters>
          </Trackpoint>
          <Trackpoint>
            <Time>2020-12-05T10:31:56.000Z</Time>
            <Position>
              <LatitudeDegrees>36.83378155343234539031982421875</LatitudeDegrees>
              <LongitudeDegrees>-4.380581080913543701171875</LongitudeDegrees>
            </Position>
            <AltitudeMeters>682</AltitudeMeters>
            <DistanceMeters>NAN</DistanceMeters>
          </Trackpoint>
          <Trackpoint>
            <Time>2020-12-05T10:31:57.000Z</Time>
            <Position>
              <LatitudeDegrees>36.833779625594615936279296875</LatitudeDegrees>
              <LongitudeDegrees>-4.3805904686450958251953125</LongitudeDegrees>
            </Position>
            <AltitudeMeters>681.79998779296875</AltitudeMeters>
            <DistanceMeters>NAN</DistanceMeters>
          </Trackpoint>
          <Trackpoint>
            <Time>2020-12-05T10:31:58.000Z</Time>
            <Position>
              <LatitudeDegrees>36.83377652429044246673583984375</LatitudeDegrees>
              <LongitudeDegrees>-4.3805966712534427642822265625</LongitudeDegrees>
            </Position>
            <AltitudeMeters>681.5999755859375</AltitudeMeters>
            <DistanceMeters>NAN</DistanceMeters>
          </Trackpoint>
          <Trackpoint>
            <Time>2020-12-05T10:31:59.000Z</Time>
            <Position>
              <LatitudeDegrees>36.833770573139190673828125</LatitudeDegrees>
              <LongitudeDegrees>-4.38060723245143890380859375</LongitudeDegrees>
            </Position>
            <AltitudeMeters>681.4000244140625</AltitudeMeters>
            <DistanceMeters>NAN</DistanceMeters>
          </Trackpoint>
          <Trackpoint>
            <Time>2020-12-05T10:32:00.000Z</Time>
            <Position>
              <LatitudeDegrees>36.83376789093017578125</LatitudeDegrees>
              <LongitudeDegrees>-4.38061653636395931243896484375</LongitudeDegrees>
            </Position>
            <AltitudeMeters>681.4000244140625</AltitudeMeters>
            <DistanceMeters>NAN</DistanceMeters>
          </Trackpoint>
          <Trackpoint>
            <Time>2020-12-05T10:32:01.000Z</Time>
            <Position>
              <LatitudeDegrees>36.83376562781631946563720703125</LatitudeDegrees>
              <LongitudeDegrees>-4.38062609173357486724853515625</LongitudeDegrees>
            </Position>
            <AltitudeMeters>681.4000244140625</AltitudeMeters>
            <DistanceMeters>NAN</DistanceMeters>
          </Trackpoint>
          <Trackpoint>
            <Time>2020-12-05T10:32:02.000Z</Time>
            <Position>
              <LatitudeDegrees>36.833762861788272857666015625</LatitudeDegrees>
              <LongitudeDegrees>-4.3806338869035243988037109375</LongitudeDegrees>
            </Position>
            <AltitudeMeters>681.4000244140625</AltitudeMeters>
            <DistanceMeters>NAN</DistanceMeters>
          </Trackpoint>
          <Trackpoint>
            <Time>2020-12-05T10:32:03.000Z</Time>
            <Position>
              <LatitudeDegrees>36.8337580002844333648681640625</LatitudeDegrees>
              <LongitudeDegrees>-4.380643777549266815185546875</LongitudeDegrees>
            </Position>
            <AltitudeMeters>681.20001220703125</AltitudeMeters>
            <DistanceMeters>NAN</DistanceMeters>
          </Trackpoint>
          <Trackpoint>
            <Time>2020-12-05T10:32:04.000Z</Time>
            <Position>
              <LatitudeDegrees>36.833750791847705841064453125</LatitudeDegrees>
              <LongitudeDegrees>-4.38065475784242153167724609375</LongitudeDegrees>
            </Position>
            <AltitudeMeters>680.79998779296875</AltitudeMeters>
            <DistanceMeters>NAN</DistanceMeters>
          </Trackpoint>
          <Trackpoint>
            <Time>2020-12-05T10:32:05.000Z</Time>
            <Position>
              <LatitudeDegrees>36.83374500833451747894287109375</LatitudeDegrees>
              <LongitudeDegrees>-4.38066666014492511749267578125</LongitudeDegrees>
            </Position>
            <AltitudeMeters>680.4000244140625</AltitudeMeters>
            <DistanceMeters>NAN</DistanceMeters>
          </Trackpoint>
          <Trackpoint>
            <Time>2020-12-05T10:32:06.000Z</Time>
            <Position>
              <LatitudeDegrees>36.8337419070303440093994140625</LatitudeDegrees>
              <LongitudeDegrees>-4.3806804902851581573486328125</LongitudeDegrees>
            </Position>
            <AltitudeMeters>680.20001220703125</AltitudeMeters>
            <DistanceMeters>NAN</DistanceMeters>
          </Trackpoint>
          <Trackpoint>
            <Time>2020-12-05T10:32:07.000Z</Time>
            <Position>
              <LatitudeDegrees>36.8337405659258365631103515625</LatitudeDegrees>
              <LongitudeDegrees>-4.38069717027246952056884765625</LongitudeDegrees>
            </Position>
            <AltitudeMeters>680.20001220703125</AltitudeMeters>
            <DistanceMeters>NAN</DistanceMeters>
          </Trackpoint>
          <Trackpoint>
            <Time>2020-12-05T10:32:08.000Z</Time>
            <Position>
              <LatitudeDegrees>36.83373947627842426300048828125</LatitudeDegrees>
              <LongitudeDegrees>-4.3807143531739711761474609375</LongitudeDegrees>
            </Position>
            <AltitudeMeters>680</AltitudeMeters>
            <DistanceMeters>NAN</DistanceMeters>
          </Trackpoint>
          <Trackpoint>
            <Time>2020-12-05T10:32:09.000Z</Time>
            <Position>
              <LatitudeDegrees>36.83373771607875823974609375</LatitudeDegrees>
              <LongitudeDegrees>-4.38073103316128253936767578125</LongitudeDegrees>
            </Position>
            <AltitudeMeters>680.20001220703125</AltitudeMeters>
            <DistanceMeters>NAN</DistanceMeters>
          </Trackpoint>
          <Trackpoint>
            <Time>2020-12-05T10:32:10.000Z</Time>
            <Position>
              <LatitudeDegrees>36.8337321840226650238037109375</LatitudeDegrees>
              <LongitudeDegrees>-4.38074511475861072540283203125</LongitudeDegrees>
            </Position>
            <AltitudeMeters>680.20001220703125</AltitudeMeters>
            <DistanceMeters>NAN</DistanceMeters>
          </Trackpoint>
          <Trackpoint>
            <Time>2020-12-05T10:32:11.000Z</Time>
            <Position>
              <LatitudeDegrees>36.8337236344814300537109375</LatitudeDegrees>
              <LongitudeDegrees>-4.38075819052755832672119140625</LongitudeDegrees>
            </Position>
            <AltitudeMeters>680.4000244140625</AltitudeMeters>
            <DistanceMeters>NAN</DistanceMeters>
          </Trackpoint>
          <Trackpoint>
            <Time>2020-12-05T10:32:12.000Z</Time>
            <Position>
              <LatitudeDegrees>36.8337160907685756683349609375</LatitudeDegrees>
              <LongitudeDegrees>-4.380771182477474212646484375</LongitudeDegrees>
            </Position>
            <AltitudeMeters>680.4000244140625</AltitudeMeters>
            <DistanceMeters>NAN</DistanceMeters>
          </Trackpoint>
          <Trackpoint>
            <Time>2020-12-05T10:32:13.000Z</Time>
            <Position>
              <LatitudeDegrees>36.8337110616266727447509765625</LatitudeDegrees>
              <LongitudeDegrees>-4.380783252418041229248046875</LongitudeDegrees>
            </Position>
            <AltitudeMeters>680.4000244140625</AltitudeMeters>
            <DistanceMeters>NAN</DistanceMeters>
          </Trackpoint>
          <Trackpoint>
            <Time>2020-12-05T10:32:14.000Z</Time>
            <Position>
              <LatitudeDegrees>36.8337083794176578521728515625</LatitudeDegrees>
              <LongitudeDegrees>-4.38079641200602054595947265625</LongitudeDegrees>
            </Position>
            <AltitudeMeters>680.4000244140625</AltitudeMeters>
            <DistanceMeters>NAN</DistanceMeters>
          </Trackpoint>
          <Trackpoint>
            <Time>2020-12-05T10:32:15.000Z</Time>
            <Position>
              <LatitudeDegrees>36.8337083794176578521728515625</LatitudeDegrees>
              <LongitudeDegrees>-4.38080831430852413177490234375</LongitudeDegrees>
            </Position>
            <AltitudeMeters>680.4000244140625</AltitudeMeters>
            <DistanceMeters>NAN</DistanceMeters>
          </Trackpoint>
          <Trackpoint>
            <Time>2020-12-05T10:32:16.000Z</Time>
            <Position>
              <LatitudeDegrees>36.8337043561041355133056640625</LatitudeDegrees>
              <LongitudeDegrees>-4.38082004897296428680419921875</LongitudeDegrees>
            </Position>
            <AltitudeMeters>680.4000244140625</AltitudeMeters>
            <DistanceMeters>NAN</DistanceMeters>
          </Trackpoint>
          <Trackpoint>
            <Time>2020-12-05T10:32:17.000Z</Time>
            <Position>
              <LatitudeDegrees>36.83370016515254974365234375</LatitudeDegrees>
              <LongitudeDegrees>-4.38083522021770477294921875</LongitudeDegrees>
            </Position>
            <AltitudeMeters>680.5999755859375</AltitudeMeters>
            <DistanceMeters>NAN</DistanceMeters>
          </Trackpoint>
          <Trackpoint>
            <Time>2020-12-05T10:32:18.000Z</Time>
            <Position>
              <LatitudeDegrees>36.83369555510580539703369140625</LatitudeDegrees>
              <LongitudeDegrees>-4.3808504752814769744873046875</LongitudeDegrees>
            </Position>
            <AltitudeMeters>680.5999755859375</AltitudeMeters>
            <DistanceMeters>NAN</DistanceMeters>
          </Trackpoint>
          <Trackpoint>
            <Time>2020-12-05T10:32:19.000Z</Time>
            <Position>
              <LatitudeDegrees>36.83369404636323451995849609375</LatitudeDegrees>
              <LongitudeDegrees>-4.3808618746697902679443359375</LongitudeDegrees>
            </Position>
            <AltitudeMeters>680.5999755859375</AltitudeMeters>
            <DistanceMeters>NAN</DistanceMeters>
          </Trackpoint>
          <Trackpoint>
            <Time>2020-12-05T10:32:20.000Z</Time>
            <Position>
              <LatitudeDegrees>36.83369203470647335052490234375</LatitudeDegrees>
              <LongitudeDegrees>-4.38087545335292816162109375</LongitudeDegrees>
            </Position>
            <AltitudeMeters>680.5999755859375</AltitudeMeters>
            <DistanceMeters>NAN</DistanceMeters>
          </Trackpoint>
          <Trackpoint>
            <Time>2020-12-05T10:32:21.000Z</Time>
            <Position>
              <LatitudeDegrees>36.8336879275739192962646484375</LatitudeDegrees>
              <LongitudeDegrees>-4.380889870226383209228515625</LongitudeDegrees>
            </Position>
            <AltitudeMeters>680.79998779296875</AltitudeMeters>
            <DistanceMeters>NAN</DistanceMeters>
          </Trackpoint>
          <Trackpoint>
            <Time>2020-12-05T10:32:22.000Z</Time>
            <Position>
              <LatitudeDegrees>36.83368532918393611907958984375</LatitudeDegrees>
              <LongitudeDegrees>-4.38090185634791851043701171875</LongitudeDegrees>
            </Position>
            <AltitudeMeters>680.5999755859375</AltitudeMeters>
            <DistanceMeters>NAN</DistanceMeters>
          </Trackpoint>
          <Trackpoint>
            <Time>2020-12-05T10:32:23.000Z</Time>
            <Position>
              <LatitudeDegrees>36.83368147350847721099853515625</LatitudeDegrees>
              <LongitudeDegrees>-4.38091325573623180389404296875</LongitudeDegrees>
            </Position>
            <AltitudeMeters>680.5999755859375</AltitudeMeters>
            <DistanceMeters>NAN</DistanceMeters>
          </Trackpoint>
          <Trackpoint>
            <Time>2020-12-05T10:32:24.000Z</Time>
            <Position>
              <LatitudeDegrees>36.83367376215755939483642578125</LatitudeDegrees>
              <LongitudeDegrees>-4.38092649914324283599853515625</LongitudeDegrees>
            </Position>
            <AltitudeMeters>680.5999755859375</AltitudeMeters>
            <DistanceMeters>NAN</DistanceMeters>
          </Trackpoint>
          <Trackpoint>
            <Time>2020-12-05T10:32:25.000Z</Time>
            <Position>
              <LatitudeDegrees>36.8336631171405315399169921875</LatitudeDegrees>
              <LongitudeDegrees>-4.3809416703879833221435546875</LongitudeDegrees>
            </Position>
            <AltitudeMeters>680.4000244140625</AltitudeMeters>
            <DistanceMeters>NAN</DistanceMeters>
          </Trackpoint>
          <Trackpoint>
            <Time>2020-12-05T10:32:26.000Z</Time>
            <Position>
              <LatitudeDegrees>36.83365364558994770050048828125</LatitudeDegrees>
              <LongitudeDegrees>-4.38095835037529468536376953125</LongitudeDegrees>
            </Position>
            <AltitudeMeters>680.20001220703125</AltitudeMeters>
            <DistanceMeters>NAN</DistanceMeters>
          </Trackpoint>
          <Trackpoint>
            <Time>2020-12-05T10:32:27.000Z</Time>
            <Position>
              <LatitudeDegrees>36.8336470238864421844482421875</LatitudeDegrees>
              <LongitudeDegrees>-4.3809718452394008636474609375</LongitudeDegrees>
            </Position>
            <AltitudeMeters>680.20001220703125</AltitudeMeters>
            <DistanceMeters>NAN</DistanceMeters>
          </Trackpoint>
          <Trackpoint>
            <Time>2020-12-05T10:32:28.000Z</Time>
            <Position>
              <LatitudeDegrees>36.8336399830877780914306640625</LatitudeDegrees>
              <LongitudeDegrees>-4.38098668120801448822021484375</LongitudeDegrees>
            </Position>
            <AltitudeMeters>680.20001220703125</AltitudeMeters>
            <DistanceMeters>NAN</DistanceMeters>
          </Trackpoint>
          <Trackpoint>
            <Time>2020-12-05T10:32:29.000Z</Time>
            <Position>
              <LatitudeDegrees>36.83363336138427257537841796875</LatitudeDegrees>
              <LongitudeDegrees>-4.3810006789863109588623046875</LongitudeDegrees>
            </Position>
            <AltitudeMeters>680</AltitudeMeters>
            <DistanceMeters>NAN</DistanceMeters>
          </Trackpoint>
          <Trackpoint>
            <Time>2020-12-05T10:32:30.000Z</Time>
            <Position>
              <LatitudeDegrees>36.83362900279462337493896484375</LatitudeDegrees>
              <LongitudeDegrees>-4.3810114078223705291748046875</LongitudeDegrees>
            </Position>
            <AltitudeMeters>679.79998779296875</AltitudeMeters>
            <DistanceMeters>NAN</DistanceMeters>
          </Trackpoint>
          <Trackpoint>
            <Time>2020-12-05T10:32:31.000Z</Time>
            <Position>
              <LatitudeDegrees>36.83362581767141819000244140625</LatitudeDegrees>
              <LongitudeDegrees>-4.38102188520133495330810546875</LongitudeDegrees>
            </Position>
            <AltitudeMeters>679.5999755859375</AltitudeMeters>
            <DistanceMeters>NAN</DistanceMeters>
          </Trackpoint>
          <Trackpoint>
            <Time>2020-12-05T10:32:32.000Z</Time>
            <Position>
              <LatitudeDegrees>36.83362263254821300506591796875</LatitudeDegrees>
              <LongitudeDegrees>-4.38103462569415569305419921875</LongitudeDegrees>
            </Position>
            <AltitudeMeters>679.4000244140625</AltitudeMeters>
            <DistanceMeters>NAN</DistanceMeters>
          </Trackpoint>
          <Trackpoint>
            <Time>2020-12-05T10:32:33.000Z</Time>
            <Position>
              <LatitudeDegrees>36.833616010844707489013671875</LatitudeDegrees>
              <LongitudeDegrees>-4.38105088658630847930908203125</LongitudeDegrees>
            </Position>
            <AltitudeMeters>679.4000244140625</AltitudeMeters>
            <DistanceMeters>NAN</DistanceMeters>
          </Trackpoint>
          <Trackpoint>
            <Time>2020-12-05T10:32:34.000Z</Time>
            <Position>
              <LatitudeDegrees>36.8336114846169948577880859375</LatitudeDegrees>
              <LongitudeDegrees>-4.38106446526944637298583984375</LongitudeDegrees>
            </Position>
            <AltitudeMeters>679.20001220703125</AltitudeMeters>
            <DistanceMeters>NAN</DistanceMeters>
          </Trackpoint>
          <Trackpoint>
            <Time>2020-12-05T10:32:35.000Z</Time>
            <Position>
              <LatitudeDegrees>36.83360352180898189544677734375</LatitudeDegrees>
              <LongitudeDegrees>-4.3810813128948211669921875</LongitudeDegrees>
            </Position>
            <AltitudeMeters>679.20001220703125</AltitudeMeters>
            <DistanceMeters>NAN</DistanceMeters>
          </Trackpoint>
          <Trackpoint>
            <Time>2020-12-05T10:32:36.000Z</Time>
            <Position>
              <LatitudeDegrees>36.83359916321933269500732421875</LatitudeDegrees>
              <LongitudeDegrees>-4.38109799288213253021240234375</LongitudeDegrees>
            </Position>
            <AltitudeMeters>679.20001220703125</AltitudeMeters>
            <DistanceMeters>NAN</DistanceMeters>
          </Trackpoint>
          <Trackpoint>
            <Time>2020-12-05T10:32:37.000Z</Time>
            <Position>
              <LatitudeDegrees>36.8335975706577301025390625</LatitudeDegrees>
              <LongitudeDegrees>-4.38111609779298305511474609375</LongitudeDegrees>
            </Position>
            <AltitudeMeters>679</AltitudeMeters>
            <DistanceMeters>NAN</DistanceMeters>
          </Trackpoint>
          <Trackpoint>
            <Time>2020-12-05T10:32:38.000Z</Time>
            <Position>
              <LatitudeDegrees>36.8335984088480472564697265625</LatitudeDegrees>
              <LongitudeDegrees>-4.3811344541609287261962890625</LongitudeDegrees>
            </Position>
            <AltitudeMeters>679</AltitudeMeters>
            <DistanceMeters>NAN</DistanceMeters>
          </Trackpoint>
          <Trackpoint>
            <Time>2020-12-05T10:32:39.000Z</Time>
            <Position>
              <LatitudeDegrees>36.83360218070447444915771484375</LatitudeDegrees>
              <LongitudeDegrees>-4.38115398399531841278076171875</LongitudeDegrees>
            </Position>
            <AltitudeMeters>679.20001220703125</AltitudeMeters>
            <DistanceMeters>NAN</DistanceMeters>
          </Trackpoint>
          <Trackpoint>
            <Time>2020-12-05T10:32:40.000Z</Time>
            <Position>
              <LatitudeDegrees>36.833603270351886749267578125</LatitudeDegrees>
              <LongitudeDegrees>-4.3811766989529132843017578125</LongitudeDegrees>
            </Position>
            <AltitudeMeters>679.20001220703125</AltitudeMeters>
            <DistanceMeters>NAN</DistanceMeters>
          </Trackpoint>
          <Trackpoint>
            <Time>2020-12-05T10:32:41.000Z</Time>
            <Position>
              <LatitudeDegrees>36.8336041085422039031982421875</LatitudeDegrees>
              <LongitudeDegrees>-4.38119731843471527099609375</LongitudeDegrees>
            </Position>
            <AltitudeMeters>679.20001220703125</AltitudeMeters>
            <DistanceMeters>NAN</DistanceMeters>
          </Trackpoint>
          <Trackpoint>
            <Time>2020-12-05T10:32:42.000Z</Time>
            <Position>
              <LatitudeDegrees>36.833607293665409088134765625</LatitudeDegrees>
              <LongitudeDegrees>-4.38121651299297809600830078125</LongitudeDegrees>
            </Position>
            <AltitudeMeters>679</AltitudeMeters>
            <DistanceMeters>NAN</DistanceMeters>
          </Trackpoint>
          <Trackpoint>
            <Time>2020-12-05T10:32:43.000Z</Time>
            <Position>
              <LatitudeDegrees>36.83361140079796314239501953125</LatitudeDegrees>
              <LongitudeDegrees>-4.38124031759798526763916015625</LongitudeDegrees>
            </Position>
            <AltitudeMeters>679</AltitudeMeters>
            <DistanceMeters>NAN</DistanceMeters>
          </Trackpoint>
          <Trackpoint>
            <Time>2020-12-05T10:32:44.000Z</Time>
            <Position>
              <LatitudeDegrees>36.83362011797726154327392578125</LatitudeDegrees>
              <LongitudeDegrees>-4.38126831315457820892333984375</LongitudeDegrees>
            </Position>
            <AltitudeMeters>679</AltitudeMeters>
            <DistanceMeters>NAN</DistanceMeters>
          </Trackpoint>
          <Trackpoint>
            <Time>2020-12-05T10:32:45.000Z</Time>
            <Position>
              <LatitudeDegrees>36.83363042771816253662109375</LatitudeDegrees>
              <LongitudeDegrees>-4.38129815272986888885498046875</LongitudeDegrees>
            </Position>
            <AltitudeMeters>679</AltitudeMeters>
            <DistanceMeters>NAN</DistanceMeters>
          </Trackpoint>
          <Trackpoint>
            <Time>2020-12-05T10:32:46.000Z</Time>
            <Position>
              <LatitudeDegrees>36.83364392258226871490478515625</LatitudeDegrees>
              <LongitudeDegrees>-4.381337463855743408203125</LongitudeDegrees>
            </Position>
            <AltitudeMeters>678.79998779296875</AltitudeMeters>
            <DistanceMeters>NAN</DistanceMeters>
          </Trackpoint>
          <Trackpoint>
            <Time>2020-12-05T10:32:47.000Z</Time>
            <Position>
              <LatitudeDegrees>36.8336512148380279541015625</LatitudeDegrees>
              <LongitudeDegrees>-4.381361939013004302978515625</LongitudeDegrees>
            </Position>
            <AltitudeMeters>678.79998779296875</AltitudeMeters>
            <DistanceMeters>NAN</DistanceMeters>
          </Trackpoint>
          <Trackpoint>
            <Time>2020-12-05T10:32:48.000Z</Time>
            <Position>
              <LatitudeDegrees>36.8336592614650726318359375</LatitudeDegrees>
              <LongitudeDegrees>-4.38138700090348720550537109375</LongitudeDegrees>
            </Position>
            <AltitudeMeters>678.79998779296875</AltitudeMeters>
            <DistanceMeters>NAN</DistanceMeters>
          </Trackpoint>
          <Trackpoint>
            <Time>2020-12-05T10:32:49.000Z</Time>
            <Position>
              <LatitudeDegrees>36.83366504497826099395751953125</LatitudeDegrees>
              <LongitudeDegrees>-4.381408877670764923095703125</LongitudeDegrees>
            </Position>
            <AltitudeMeters>678.5999755859375</AltitudeMeters>
            <DistanceMeters>NAN</DistanceMeters>
          </Trackpoint>
          <Trackpoint>
            <Time>2020-12-05T10:32:50.000Z</Time>
            <Position>
              <LatitudeDegrees>36.83367191813886165618896484375</LatitudeDegrees>
              <LongitudeDegrees>-4.38142052851617336273193359375</LongitudeDegrees>
            </Position>
            <AltitudeMeters>678.5999755859375</AltitudeMeters>
            <DistanceMeters>NAN</DistanceMeters>
          </Trackpoint>
          <Trackpoint>
            <Time>2020-12-05T10:32:51.000Z</Time>
            <Position>
              <LatitudeDegrees>36.83367929421365261077880859375</LatitudeDegrees>
              <LongitudeDegrees>-4.38143125735223293304443359375</LongitudeDegrees>
            </Position>
            <AltitudeMeters>678.5999755859375</AltitudeMeters>
            <DistanceMeters>NAN</DistanceMeters>
          </Trackpoint>
          <Trackpoint>
            <Time>2020-12-05T10:32:52.000Z</Time>
            <Position>
              <LatitudeDegrees>36.83369069360196590423583984375</LatitudeDegrees>
              <LongitudeDegrees>-4.381439387798309326171875</LongitudeDegrees>
            </Position>
            <AltitudeMeters>678.4000244140625</AltitudeMeters>
            <DistanceMeters>NAN</DistanceMeters>
          </Trackpoint>
          <Trackpoint>
            <Time>2020-12-05T10:32:53.000Z</Time>
            <Position>
              <LatitudeDegrees>36.833703517913818359375</LatitudeDegrees>
              <LongitudeDegrees>-4.38144282437860965728759765625</LongitudeDegrees>
            </Position>
            <AltitudeMeters>678.20001220703125</AltitudeMeters>
            <DistanceMeters>NAN</DistanceMeters>
          </Trackpoint>
          <Trackpoint>
            <Time>2020-12-05T10:32:54.000Z</Time>
            <Position>
              <LatitudeDegrees>36.83371634222567081451416015625</LatitudeDegrees>
              <LongitudeDegrees>-4.38144181855022907257080078125</LongitudeDegrees>
            </Position>
            <AltitudeMeters>678</AltitudeMeters>
            <DistanceMeters>NAN</DistanceMeters>
          </Trackpoint>
          <Trackpoint>
            <Time>2020-12-05T10:32:55.000Z</Time>
            <Position>
              <LatitudeDegrees>36.83372891508042812347412109375</LatitudeDegrees>
              <LongitudeDegrees>-4.38143779523670673370361328125</LongitudeDegrees>
            </Position>
            <AltitudeMeters>677.79998779296875</AltitudeMeters>
            <DistanceMeters>NAN</DistanceMeters>
          </Trackpoint>
          <Trackpoint>
            <Time>2020-12-05T10:32:56.000Z</Time>
            <Position>
              <LatitudeDegrees>36.8337405659258365631103515625</LatitudeDegrees>
              <LongitudeDegrees>-4.3814331851899623870849609375</LongitudeDegrees>
            </Position>
            <AltitudeMeters>677.5999755859375</AltitudeMeters>
            <DistanceMeters>NAN</DistanceMeters>
          </Trackpoint>
          <Trackpoint>
            <Time>2020-12-05T10:32:57.000Z</Time>
            <Position>
              <LatitudeDegrees>36.83375339023768901824951171875</LatitudeDegrees>
              <LongitudeDegrees>-4.38142790459096431732177734375</LongitudeDegrees>
            </Position>
            <AltitudeMeters>677.4000244140625</AltitudeMeters>
            <DistanceMeters>NAN</DistanceMeters>
          </Trackpoint>
          <Trackpoint>
            <Time>2020-12-05T10:32:58.000Z</Time>
            <Position>
              <LatitudeDegrees>36.8337667174637317657470703125</LatitudeDegrees>
              <LongitudeDegrees>-4.38141952268779277801513671875</LongitudeDegrees>
            </Position>
            <AltitudeMeters>677.20001220703125</AltitudeMeters>
            <DistanceMeters>NAN</DistanceMeters>
          </Trackpoint>
          <Trackpoint>
            <Time>2020-12-05T10:32:59.000Z</Time>
            <Position>
              <LatitudeDegrees>36.833782307803630828857421875</LatitudeDegrees>
              <LongitudeDegrees>-4.38140996731817722320556640625</LongitudeDegrees>
            </Position>
            <AltitudeMeters>677.20001220703125</AltitudeMeters>
            <DistanceMeters>NAN</DistanceMeters>
          </Trackpoint>
          <Trackpoint>
            <Time>2020-12-05T10:33:00.000Z</Time>
            <Position>
              <LatitudeDegrees>36.83379932306706905364990234375</LatitudeDegrees>
              <LongitudeDegrees>-4.38140192069113254547119140625</LongitudeDegrees>
            </Position>
            <AltitudeMeters>677.20001220703125</AltitudeMeters>
            <DistanceMeters>NAN</DistanceMeters>
          </Trackpoint>
          <Trackpoint>
            <Time>2020-12-05T10:33:01.000Z</Time>
            <Position>
              <LatitudeDegrees>36.83381457813084125518798828125</LatitudeDegrees>
              <LongitudeDegrees>-4.3813956342637538909912109375</LongitudeDegrees>
            </Position>
            <AltitudeMeters>677.20001220703125</AltitudeMeters>
            <DistanceMeters>NAN</DistanceMeters>
          </Trackpoint>
          <Trackpoint>
            <Time>2020-12-05T10:33:02.000Z</Time>
            <Position>
              <LatitudeDegrees>36.83382891118526458740234375</LatitudeDegrees>
              <LongitudeDegrees>-4.381387419998645782470703125</LongitudeDegrees>
            </Position>
            <AltitudeMeters>677.20001220703125</AltitudeMeters>
            <DistanceMeters>NAN</DistanceMeters>
          </Trackpoint>
          <Trackpoint>
            <Time>2020-12-05T10:33:03.000Z</Time>
            <Position>
              <LatitudeDegrees>36.83384257368743419647216796875</LatitudeDegrees>
              <LongitudeDegrees>-4.38137811608612537384033203125</LongitudeDegrees>
            </Position>
            <AltitudeMeters>677.4000244140625</AltitudeMeters>
            <DistanceMeters>NAN</DistanceMeters>
          </Trackpoint>
          <Trackpoint>
            <Time>2020-12-05T10:33:04.000Z</Time>
            <Position>
              <LatitudeDegrees>36.8338604271411895751953125</LatitudeDegrees>
              <LongitudeDegrees>-4.38137493096292018890380859375</LongitudeDegrees>
            </Position>
            <AltitudeMeters>677.20001220703125</AltitudeMeters>
            <DistanceMeters>NAN</DistanceMeters>
          </Trackpoint>
          <Trackpoint>
            <Time>2020-12-05T10:33:05.000Z</Time>
            <Position>
              <LatitudeDegrees>36.8338703177869319915771484375</LatitudeDegrees>
              <LongitudeDegrees>-4.38137057237327098846435546875</LongitudeDegrees>
            </Position>
            <AltitudeMeters>677.20001220703125</AltitudeMeters>
            <DistanceMeters>NAN</DistanceMeters>
          </Trackpoint>
          <Trackpoint>
            <Time>2020-12-05T10:33:06.000Z</Time>
            <Position>
              <LatitudeDegrees>36.8338820524513721466064453125</LatitudeDegrees>
              <LongitudeDegrees>-4.381366632878780364990234375</LongitudeDegrees>
            </Position>
            <AltitudeMeters>676.79998779296875</AltitudeMeters>
            <DistanceMeters>NAN</DistanceMeters>
          </Trackpoint>
          <Trackpoint>
            <Time>2020-12-05T10:33:07.000Z</Time>
            <Position>
              <LatitudeDegrees>36.83389730751514434814453125</LatitudeDegrees>
              <LongitudeDegrees>-4.3813624419271945953369140625</LongitudeDegrees>
            </Position>
            <AltitudeMeters>676.5999755859375</AltitudeMeters>
            <DistanceMeters>NAN</DistanceMeters>
          </Trackpoint>
          <Trackpoint>
            <Time>2020-12-05T10:33:08.000Z</Time>
            <Position>
              <LatitudeDegrees>36.8339113891124725341796875</LatitudeDegrees>
              <LongitudeDegrees>-4.3813567422330379486083984375</LongitudeDegrees>
            </Position>
            <AltitudeMeters>676.20001220703125</AltitudeMeters>
            <DistanceMeters>NAN</DistanceMeters>
          </Trackpoint>
          <Trackpoint>
            <Time>2020-12-05T10:33:09.000Z</Time>
            <Position>
              <LatitudeDegrees>36.833925135433673858642578125</LatitudeDegrees>
              <LongitudeDegrees>-4.38135213218629360198974609375</LongitudeDegrees>
            </Position>
            <AltitudeMeters>675.79998779296875</AltitudeMeters>
            <DistanceMeters>NAN</DistanceMeters>
          </Trackpoint>
          <Trackpoint>
            <Time>2020-12-05T10:33:10.000Z</Time>
            <Position>
              <LatitudeDegrees>36.8339397199451923370361328125</LatitudeDegrees>
              <LongitudeDegrees>-4.3813463486731052398681640625</LongitudeDegrees>
            </Position>
            <AltitudeMeters>675.4000244140625</AltitudeMeters>
            <DistanceMeters>NAN</DistanceMeters>
          </Trackpoint>
          <Trackpoint>
            <Time>2020-12-05T10:33:11.000Z</Time>
            <Position>
              <LatitudeDegrees>36.83395438827574253082275390625</LatitudeDegrees>
              <LongitudeDegrees>-4.38134190626442432403564453125</LongitudeDegrees>
            </Position>
            <AltitudeMeters>675.20001220703125</AltitudeMeters>
            <DistanceMeters>NAN</DistanceMeters>
          </Trackpoint>
          <Trackpoint>
            <Time>2020-12-05T10:33:12.000Z</Time>
            <Position>
              <LatitudeDegrees>36.83396972715854644775390625</LatitudeDegrees>
              <LongitudeDegrees>-4.38133972696959972381591796875</LongitudeDegrees>
            </Position>
            <AltitudeMeters>675.20001220703125</AltitudeMeters>
            <DistanceMeters>NAN</DistanceMeters>
          </Trackpoint>
          <Trackpoint>
            <Time>2020-12-05T10:33:13.000Z</Time>
            <Position>
              <LatitudeDegrees>36.83398313820362091064453125</LatitudeDegrees>
              <LongitudeDegrees>-4.38133704476058483123779296875</LongitudeDegrees>
            </Position>
            <AltitudeMeters>675.20001220703125</AltitudeMeters>
            <DistanceMeters>NAN</DistanceMeters>
          </Trackpoint>
          <Trackpoint>
            <Time>2020-12-05T10:33:14.000Z</Time>
            <Position>
              <LatitudeDegrees>36.83399478904902935028076171875</LatitudeDegrees>
              <LongitudeDegrees>-4.38133545219898223876953125</LongitudeDegrees>
            </Position>
            <AltitudeMeters>675.20001220703125</AltitudeMeters>
            <DistanceMeters>NAN</DistanceMeters>
          </Trackpoint>
          <Trackpoint>
            <Time>2020-12-05T10:33:15.000Z</Time>
            <Position>
              <LatitudeDegrees>36.83400736190378665924072265625</LatitudeDegrees>
              <LongitudeDegrees>-4.38133352436125278472900390625</LongitudeDegrees>
            </Position>
            <AltitudeMeters>675.20001220703125</AltitudeMeters>
            <DistanceMeters>NAN</DistanceMeters>
          </Trackpoint>
          <Trackpoint>
            <Time>2020-12-05T10:33:16.000Z</Time>
            <Position>
              <LatitudeDegrees>36.83402060531079769134521484375</LatitudeDegrees>
              <LongitudeDegrees>-4.38133201561868190765380859375</LongitudeDegrees>
            </Position>
            <AltitudeMeters>675.20001220703125</AltitudeMeters>
            <DistanceMeters>NAN</DistanceMeters>
          </Trackpoint>
          <Trackpoint>
            <Time>2020-12-05T10:33:17.000Z</Time>
            <Position>
              <LatitudeDegrees>36.83403401635587215423583984375</LatitudeDegrees>
              <LongitudeDegrees>-4.38132966868579387664794921875</LongitudeDegrees>
            </Position>
            <AltitudeMeters>675.20001220703125</AltitudeMeters>
            <DistanceMeters>NAN</DistanceMeters>
          </Trackpoint>
          <Trackpoint>
            <Time>2020-12-05T10:33:18.000Z</Time>
            <Position>
              <LatitudeDegrees>36.8340473435819149017333984375</LatitudeDegrees>
              <LongitudeDegrees>-4.38132883049547672271728515625</LongitudeDegrees>
            </Position>
            <AltitudeMeters>675.20001220703125</AltitudeMeters>
            <DistanceMeters>NAN</DistanceMeters>
          </Trackpoint>
          <Trackpoint>
            <Time>2020-12-05T10:33:19.000Z</Time>
            <Position>
              <LatitudeDegrees>36.83406150899827480316162109375</LatitudeDegrees>
              <LongitudeDegrees>-4.381330423057079315185546875</LongitudeDegrees>
            </Position>
            <AltitudeMeters>674.79998779296875</AltitudeMeters>
            <DistanceMeters>NAN</DistanceMeters>
          </Trackpoint>
          <Trackpoint>
            <Time>2020-12-05T10:33:20.000Z</Time>
            <Position>
              <LatitudeDegrees>36.83407776989042758941650390625</LatitudeDegrees>
              <LongitudeDegrees>-4.3813336081802845001220703125</LongitudeDegrees>
            </Position>
            <AltitudeMeters>674.4000244140625</AltitudeMeters>
            <DistanceMeters>NAN</DistanceMeters>
          </Trackpoint>
          <Trackpoint>
            <Time>2020-12-05T10:33:21.000Z</Time>
            <Position>
              <LatitudeDegrees>36.83409369550645351409912109375</LatitudeDegrees>
              <LongitudeDegrees>-4.3813339434564113616943359375</LongitudeDegrees>
            </Position>
            <AltitudeMeters>673.79998779296875</AltitudeMeters>
            <DistanceMeters>NAN</DistanceMeters>
          </Trackpoint>
          <Trackpoint>
            <Time>2020-12-05T10:33:22.000Z</Time>
            <Position>
              <LatitudeDegrees>36.8341098725795745849609375</LatitudeDegrees>
              <LongitudeDegrees>-4.381333105266094207763671875</LongitudeDegrees>
            </Position>
            <AltitudeMeters>673.4000244140625</AltitudeMeters>
            <DistanceMeters>NAN</DistanceMeters>
          </Trackpoint>
          <Trackpoint>
            <Time>2020-12-05T10:33:23.000Z</Time>
            <Position>
              <LatitudeDegrees>36.83412529528141021728515625</LatitudeDegrees>
              <LongitudeDegrees>-4.381333105266094207763671875</LongitudeDegrees>
            </Position>
            <AltitudeMeters>673.4000244140625</AltitudeMeters>
            <DistanceMeters>NAN</DistanceMeters>
          </Trackpoint>
          <Trackpoint>
            <Time>2020-12-05T10:33:24.000Z</Time>
            <Position>
              <LatitudeDegrees>36.83414004743099212646484375</LatitudeDegrees>
              <LongitudeDegrees>-4.38133520074188709259033203125</LongitudeDegrees>
            </Position>
            <AltitudeMeters>673.20001220703125</AltitudeMeters>
            <DistanceMeters>NAN</DistanceMeters>
          </Trackpoint>
          <Trackpoint>
            <Time>2020-12-05T10:33:25.000Z</Time>
            <Position>
              <LatitudeDegrees>36.83415270410478115081787109375</LatitudeDegrees>
              <LongitudeDegrees>-4.38133888877928256988525390625</LongitudeDegrees>
            </Position>
            <AltitudeMeters>673</AltitudeMeters>
            <DistanceMeters>NAN</DistanceMeters>
          </Trackpoint>
          <Trackpoint>
            <Time>2020-12-05T10:33:26.000Z</Time>
            <Position>
              <LatitudeDegrees>36.8341648578643798828125</LatitudeDegrees>
              <LongitudeDegrees>-4.38134525902569293975830078125</LongitudeDegrees>
            </Position>
            <AltitudeMeters>672.79998779296875</AltitudeMeters>
            <DistanceMeters>NAN</DistanceMeters>
          </Trackpoint>
          <Trackpoint>
            <Time>2020-12-05T10:33:27.000Z</Time>
            <Position>
              <LatitudeDegrees>36.834177263081073760986328125</LatitudeDegrees>
              <LongitudeDegrees>-4.38135012052953243255615234375</LongitudeDegrees>
            </Position>
            <AltitudeMeters>672.79998779296875</AltitudeMeters>
            <DistanceMeters>NAN</DistanceMeters>
          </Trackpoint>
          <Trackpoint>
            <Time>2020-12-05T10:33:28.000Z</Time>
            <Position>
              <LatitudeDegrees>36.83419075794517993927001953125</LatitudeDegrees>
              <LongitudeDegrees>-4.38135313801467418670654296875</LongitudeDegrees>
            </Position>
            <AltitudeMeters>672.79998779296875</AltitudeMeters>
            <DistanceMeters>NAN</DistanceMeters>
          </Trackpoint>
          <Trackpoint>
            <Time>2020-12-05T10:33:29.000Z</Time>
            <Position>
              <LatitudeDegrees>36.8342052586376667022705078125</LatitudeDegrees>
              <LongitudeDegrees>-4.3813560716807842254638671875</LongitudeDegrees>
            </Position>
            <AltitudeMeters>672.4000244140625</AltitudeMeters>
            <DistanceMeters>NAN</DistanceMeters>
          </Trackpoint>
          <Trackpoint>
            <Time>2020-12-05T10:33:30.000Z</Time>
            <Position>
              <LatitudeDegrees>36.83421791531145572662353515625</LatitudeDegrees>
              <LongitudeDegrees>-4.381355904042720794677734375</LongitudeDegrees>
            </Position>
            <AltitudeMeters>672</AltitudeMeters>
            <DistanceMeters>NAN</DistanceMeters>
          </Trackpoint>
          <Trackpoint>
            <Time>2020-12-05T10:33:31.000Z</Time>
            <Position>
              <LatitudeDegrees>36.83422948233783245086669921875</LatitudeDegrees>
              <LongitudeDegrees>-4.38135297037661075592041015625</LongitudeDegrees>
            </Position>
            <AltitudeMeters>671.5999755859375</AltitudeMeters>
            <DistanceMeters>NAN</DistanceMeters>
          </Trackpoint>
          <Trackpoint>
            <Time>2020-12-05T10:33:32.000Z</Time>
            <Position>
              <LatitudeDegrees>36.83423937298357486724853515625</LatitudeDegrees>
              <LongitudeDegrees>-4.38134827651083469390869140625</LongitudeDegrees>
            </Position>
            <AltitudeMeters>671.4000244140625</AltitudeMeters>
            <DistanceMeters>NAN</DistanceMeters>
          </Trackpoint>
          <Trackpoint>
            <Time>2020-12-05T10:33:33.000Z</Time>
            <Position>
              <LatitudeDegrees>36.834248341619968414306640625</LatitudeDegrees>
              <LongitudeDegrees>-4.3813443370163440704345703125</LongitudeDegrees>
            </Position>
            <AltitudeMeters>671.20001220703125</AltitudeMeters>
            <DistanceMeters>NAN</DistanceMeters>
          </Trackpoint>
          <Trackpoint>
            <Time>2020-12-05T10:33:34.000Z</Time>
            <Position>
              <LatitudeDegrees>36.83425580151379108428955078125</LatitudeDegrees>
              <LongitudeDegrees>-4.38134358264505863189697265625</LongitudeDegrees>
            </Position>
            <AltitudeMeters>671.20001220703125</AltitudeMeters>
            <DistanceMeters>NAN</DistanceMeters>
          </Trackpoint>
          <Trackpoint>
            <Time>2020-12-05T10:33:35.000Z</Time>
            <Position>
              <LatitudeDegrees>36.834263093769550323486328125</LatitudeDegrees>
              <LongitudeDegrees>-4.38134240917861461639404296875</LongitudeDegrees>
            </Position>
            <AltitudeMeters>671.20001220703125</AltitudeMeters>
            <DistanceMeters>NAN</DistanceMeters>
          </Trackpoint>
          <Trackpoint>
            <Time>2020-12-05T10:33:36.000Z</Time>
            <Position>
              <LatitudeDegrees>36.83427038602530956268310546875</LatitudeDegrees>
              <LongitudeDegrees>-4.38134190626442432403564453125</LongitudeDegrees>
            </Position>
            <AltitudeMeters>671.20001220703125</AltitudeMeters>
            <DistanceMeters>NAN</DistanceMeters>
          </Trackpoint>
          <Trackpoint>
            <Time>2020-12-05T10:33:37.000Z</Time>
            <Position>
              <LatitudeDegrees>36.834278516471385955810546875</LatitudeDegrees>
              <LongitudeDegrees>-4.38134073279798030853271484375</LongitudeDegrees>
            </Position>
            <AltitudeMeters>671.20001220703125</AltitudeMeters>
            <DistanceMeters>NAN</DistanceMeters>
          </Trackpoint>
          <Trackpoint>
            <Time>2020-12-05T10:33:38.000Z</Time>
            <Position>
              <LatitudeDegrees>36.83428622782230377197265625</LatitudeDegrees>
              <LongitudeDegrees>-4.3813383020460605621337890625</LongitudeDegrees>
            </Position>
            <AltitudeMeters>671.20001220703125</AltitudeMeters>
            <DistanceMeters>NAN</DistanceMeters>
          </Trackpoint>
          <Trackpoint>
            <Time>2020-12-05T10:33:39.000Z</Time>
            <Position>
              <LatitudeDegrees>36.8342917598783969879150390625</LatitudeDegrees>
              <LongitudeDegrees>-4.381333105266094207763671875</LongitudeDegrees>
            </Position>
            <AltitudeMeters>671.20001220703125</AltitudeMeters>
            <DistanceMeters>NAN</DistanceMeters>
          </Trackpoint>
          <Trackpoint>
            <Time>2020-12-05T10:33:40.000Z</Time>
            <Position>
              <LatitudeDegrees>36.8342981301248073577880859375</LatitudeDegrees>
              <LongitudeDegrees>-4.3813272379338741302490234375</LongitudeDegrees>
            </Position>
            <AltitudeMeters>671.20001220703125</AltitudeMeters>
            <DistanceMeters>NAN</DistanceMeters>
          </Trackpoint>
          <Trackpoint>
            <Time>2020-12-05T10:33:41.000Z</Time>
            <Position>
              <LatitudeDegrees>36.8343075178563594818115234375</LatitudeDegrees>
              <LongitudeDegrees>-4.38132363371551036834716796875</LongitudeDegrees>
            </Position>
            <AltitudeMeters>670.79998779296875</AltitudeMeters>
            <DistanceMeters>NAN</DistanceMeters>
          </Trackpoint>
          <Trackpoint>
            <Time>2020-12-05T10:33:42.000Z</Time>
            <Position>
              <LatitudeDegrees>36.83431564830243587493896484375</LatitudeDegrees>
              <LongitudeDegrees>-4.381318353116512298583984375</LongitudeDegrees>
            </Position>
            <AltitudeMeters>670.20001220703125</AltitudeMeters>
            <DistanceMeters>NAN</DistanceMeters>
          </Trackpoint>
          <Trackpoint>
            <Time>2020-12-05T10:33:43.000Z</Time>
            <Position>
              <LatitudeDegrees>36.83432671241462230682373046875</LatitudeDegrees>
              <LongitudeDegrees>-4.38131533563137054443359375</LongitudeDegrees>
            </Position>
            <AltitudeMeters>669.79998779296875</AltitudeMeters>
            <DistanceMeters>NAN</DistanceMeters>
          </Trackpoint>
          <Trackpoint>
            <Time>2020-12-05T10:33:44.000Z</Time>
            <Position>
              <LatitudeDegrees>36.8343376927077770233154296875</LatitudeDegrees>
              <LongitudeDegrees>-4.38131642527878284454345703125</LongitudeDegrees>
            </Position>
            <AltitudeMeters>669.20001220703125</AltitudeMeters>
            <DistanceMeters>NAN</DistanceMeters>
          </Trackpoint>
          <Trackpoint>
            <Time>2020-12-05T10:33:45.000Z</Time>
            <Position>
              <LatitudeDegrees>36.83435060083866119384765625</LatitudeDegrees>
              <LongitudeDegrees>-4.381318353116512298583984375</LongitudeDegrees>
            </Position>
            <AltitudeMeters>668.79998779296875</AltitudeMeters>
            <DistanceMeters>NAN</DistanceMeters>
          </Trackpoint>
          <Trackpoint>
            <Time>2020-12-05T10:33:46.000Z</Time>
            <Position>
              <LatitudeDegrees>36.83436669409275054931640625</LatitudeDegrees>
              <LongitudeDegrees>-4.3813245557248592376708984375</LongitudeDegrees>
            </Position>
            <AltitudeMeters>668.5999755859375</AltitudeMeters>
            <DistanceMeters>NAN</DistanceMeters>
          </Trackpoint>
          <Trackpoint>
            <Time>2020-12-05T10:33:47.000Z</Time>
            <Position>
              <LatitudeDegrees>36.83438220061361789703369140625</LatitudeDegrees>
              <LongitudeDegrees>-4.38133084215223789215087890625</LongitudeDegrees>
            </Position>
            <AltitudeMeters>668.5999755859375</AltitudeMeters>
            <DistanceMeters>NAN</DistanceMeters>
          </Trackpoint>
          <Trackpoint>
            <Time>2020-12-05T10:33:48.000Z</Time>
            <Position>
              <LatitudeDegrees>36.83439913205802440643310546875</LatitudeDegrees>
              <LongitudeDegrees>-4.38133620657026767730712890625</LongitudeDegrees>
            </Position>
            <AltitudeMeters>668.5999755859375</AltitudeMeters>
            <DistanceMeters>NAN</DistanceMeters>
          </Trackpoint>
          <Trackpoint>
            <Time>2020-12-05T10:33:49.000Z</Time>
            <Position>
              <LatitudeDegrees>36.834414638578891754150390625</LatitudeDegrees>
              <LongitudeDegrees>-4.38133821822702884674072265625</LongitudeDegrees>
            </Position>
            <AltitudeMeters>668.4000244140625</AltitudeMeters>
            <DistanceMeters>NAN</DistanceMeters>
          </Trackpoint>
          <Trackpoint>
            <Time>2020-12-05T10:33:50.000Z</Time>
            <Position>
              <LatitudeDegrees>36.834430731832981109619140625</LatitudeDegrees>
              <LongitudeDegrees>-4.381339140236377716064453125</LongitudeDegrees>
            </Position>
            <AltitudeMeters>668.20001220703125</AltitudeMeters>
            <DistanceMeters>NAN</DistanceMeters>
          </Trackpoint>
          <Trackpoint>
            <Time>2020-12-05T10:33:51.000Z</Time>
            <Position>
              <LatitudeDegrees>36.8344473280012607574462890625</LatitudeDegrees>
              <LongitudeDegrees>-4.38133905641734600067138671875</LongitudeDegrees>
            </Position>
            <AltitudeMeters>668.20001220703125</AltitudeMeters>
            <DistanceMeters>NAN</DistanceMeters>
          </Trackpoint>
          <Trackpoint>
            <Time>2020-12-05T10:33:52.000Z</Time>
            <Position>
              <LatitudeDegrees>36.8344647623598575592041015625</LatitudeDegrees>
              <LongitudeDegrees>-4.38133872114121913909912109375</LongitudeDegrees>
            </Position>
            <AltitudeMeters>668</AltitudeMeters>
            <DistanceMeters>NAN</DistanceMeters>
          </Trackpoint>
          <Trackpoint>
            <Time>2020-12-05T10:33:53.000Z</Time>
            <Position>
              <LatitudeDegrees>36.83448135852813720703125</LatitudeDegrees>
              <LongitudeDegrees>-4.3813409842550754547119140625</LongitudeDegrees>
            </Position>
            <AltitudeMeters>667.79998779296875</AltitudeMeters>
            <DistanceMeters>NAN</DistanceMeters>
          </Trackpoint>
          <Trackpoint>
            <Time>2020-12-05T10:33:54.000Z</Time>
            <Position>
              <LatitudeDegrees>36.8344986252486705780029296875</LatitudeDegrees>
              <LongitudeDegrees>-4.38134081661701202392578125</LongitudeDegrees>
            </Position>
            <AltitudeMeters>667.5999755859375</AltitudeMeters>
            <DistanceMeters>NAN</DistanceMeters>
          </Trackpoint>
          <Trackpoint>
            <Time>2020-12-05T10:33:55.000Z</Time>
            <Position>
              <LatitudeDegrees>36.83451580815017223358154296875</LatitudeDegrees>
              <LongitudeDegrees>-4.381342492997646331787109375</LongitudeDegrees>
            </Position>
            <AltitudeMeters>667.5999755859375</AltitudeMeters>
            <DistanceMeters>NAN</DistanceMeters>
          </Trackpoint>
          <Trackpoint>
            <Time>2020-12-05T10:33:56.000Z</Time>
            <Position>
              <LatitudeDegrees>36.83453072793781757354736328125</LatitudeDegrees>
              <LongitudeDegrees>-4.3813466839492321014404296875</LongitudeDegrees>
            </Position>
            <AltitudeMeters>667.4000244140625</AltitudeMeters>
            <DistanceMeters>NAN</DistanceMeters>
          </Trackpoint>
          <Trackpoint>
            <Time>2020-12-05T10:33:57.000Z</Time>
            <Position>
              <LatitudeDegrees>36.83454179205000400543212890625</LatitudeDegrees>
              <LongitudeDegrees>-4.38135146163403987884521484375</LongitudeDegrees>
            </Position>
            <AltitudeMeters>667.4000244140625</AltitudeMeters>
            <DistanceMeters>NAN</DistanceMeters>
          </Trackpoint>
          <Trackpoint>
            <Time>2020-12-05T10:33:58.000Z</Time>
            <Position>
              <LatitudeDegrees>36.8345499224960803985595703125</LatitudeDegrees>
              <LongitudeDegrees>-4.38135883770883083343505859375</LongitudeDegrees>
            </Position>
            <AltitudeMeters>667.4000244140625</AltitudeMeters>
            <DistanceMeters>NAN</DistanceMeters>
          </Trackpoint>
          <Trackpoint>
            <Time>2020-12-05T10:33:59.000Z</Time>
            <Position>
              <LatitudeDegrees>36.8345603160560131072998046875</LatitudeDegrees>
              <LongitudeDegrees>-4.38136688433587551116943359375</LongitudeDegrees>
            </Position>
            <AltitudeMeters>667.4000244140625</AltitudeMeters>
            <DistanceMeters>NAN</DistanceMeters>
          </Trackpoint>
          <Trackpoint>
            <Time>2020-12-05T10:34:00.000Z</Time>
            <Position>
              <LatitudeDegrees>36.83457322418689727783203125</LatitudeDegrees>
              <LongitudeDegrees>-4.38137308694422245025634765625</LongitudeDegrees>
            </Position>
            <AltitudeMeters>667.4000244140625</AltitudeMeters>
            <DistanceMeters>NAN</DistanceMeters>
          </Trackpoint>
          <Trackpoint>
            <Time>2020-12-05T10:34:01.000Z</Time>
            <Position>
              <LatitudeDegrees>36.83458370156586170196533203125</LatitudeDegrees>
              <LongitudeDegrees>-4.38137694261968135833740234375</LongitudeDegrees>
            </Position>
            <AltitudeMeters>667.4000244140625</AltitudeMeters>
            <DistanceMeters>NAN</DistanceMeters>
          </Trackpoint>
          <Trackpoint>
            <Time>2020-12-05T10:34:02.000Z</Time>
            <Position>
              <LatitudeDegrees>36.834594346582889556884765625</LatitudeDegrees>
              <LongitudeDegrees>-4.38138063065707683563232421875</LongitudeDegrees>
            </Position>
            <AltitudeMeters>667.4000244140625</AltitudeMeters>
            <DistanceMeters>NAN</DistanceMeters>
          </Trackpoint>
          <Trackpoint>
            <Time>2020-12-05T10:34:03.000Z</Time>
            <Position>
              <LatitudeDegrees>36.83460365049540996551513671875</LatitudeDegrees>
              <LongitudeDegrees>-4.38138498924672603607177734375</LongitudeDegrees>
            </Position>
            <AltitudeMeters>667.4000244140625</AltitudeMeters>
            <DistanceMeters>NAN</DistanceMeters>
          </Trackpoint>
          <Trackpoint>
            <Time>2020-12-05T10:34:04.000Z</Time>
            <Position>
              <LatitudeDegrees>36.8346154689788818359375</LatitudeDegrees>
              <LongitudeDegrees>-4.3813909403979778289794921875</LongitudeDegrees>
            </Position>
            <AltitudeMeters>667.4000244140625</AltitudeMeters>
            <DistanceMeters>NAN</DistanceMeters>
          </Trackpoint>
          <Trackpoint>
            <Time>2020-12-05T10:34:05.000Z</Time>
            <Position>
              <LatitudeDegrees>36.83462611399590969085693359375</LatitudeDegrees>
              <LongitudeDegrees>-4.3813986517488956451416015625</LongitudeDegrees>
            </Position>
            <AltitudeMeters>667.4000244140625</AltitudeMeters>
            <DistanceMeters>NAN</DistanceMeters>
          </Trackpoint>
          <Trackpoint>
            <Time>2020-12-05T10:34:06.000Z</Time>
            <Position>
              <LatitudeDegrees>36.8346330709755420684814453125</LatitudeDegrees>
              <LongitudeDegrees>-4.3814073689281940460205078125</LongitudeDegrees>
            </Position>
            <AltitudeMeters>667.20001220703125</AltitudeMeters>
            <DistanceMeters>NAN</DistanceMeters>
          </Trackpoint>
          <Trackpoint>
            <Time>2020-12-05T10:34:07.000Z</Time>
            <Position>
              <LatitudeDegrees>36.8346369266510009765625</LatitudeDegrees>
              <LongitudeDegrees>-4.38141885213553905487060546875</LongitudeDegrees>
            </Position>
            <AltitudeMeters>667.20001220703125</AltitudeMeters>
            <DistanceMeters>NAN</DistanceMeters>
          </Trackpoint>
          <Trackpoint>
            <Time>2020-12-05T10:34:08.000Z</Time>
            <Position>
              <LatitudeDegrees>36.83464220724999904632568359375</LatitudeDegrees>
              <LongitudeDegrees>-4.38143393956124782562255859375</LongitudeDegrees>
            </Position>
            <AltitudeMeters>667.20001220703125</AltitudeMeters>
            <DistanceMeters>NAN</DistanceMeters>
          </Trackpoint>
          <Trackpoint>
            <Time>2020-12-05T10:34:09.000Z</Time>
            <Position>
              <LatitudeDegrees>36.83464488945901393890380859375</LatitudeDegrees>
              <LongitudeDegrees>-4.38144802115857601165771484375</LongitudeDegrees>
            </Position>
            <AltitudeMeters>667</AltitudeMeters>
            <DistanceMeters>NAN</DistanceMeters>
          </Trackpoint>
          <Trackpoint>
            <Time>2020-12-05T10:34:10.000Z</Time>
            <Position>
              <LatitudeDegrees>36.83464773930609226226806640625</LatitudeDegrees>
              <LongitudeDegrees>-4.38145724125206470489501953125</LongitudeDegrees>
            </Position>
            <AltitudeMeters>666.79998779296875</AltitudeMeters>
            <DistanceMeters>NAN</DistanceMeters>
          </Trackpoint>
          <Trackpoint>
            <Time>2020-12-05T10:34:11.000Z</Time>
            <Position>
              <LatitudeDegrees>36.8346448056399822235107421875</LatitudeDegrees>
              <LongitudeDegrees>-4.381469897925853729248046875</LongitudeDegrees>
            </Position>
            <AltitudeMeters>666.5999755859375</AltitudeMeters>
            <DistanceMeters>NAN</DistanceMeters>
          </Trackpoint>
          <Trackpoint>
            <Time>2020-12-05T10:34:12.000Z</Time>
            <Position>
              <LatitudeDegrees>36.8346451409161090850830078125</LatitudeDegrees>
              <LongitudeDegrees>-4.38147853128612041473388671875</LongitudeDegrees>
            </Position>
            <AltitudeMeters>666.20001220703125</AltitudeMeters>
            <DistanceMeters>NAN</DistanceMeters>
          </Trackpoint>
          <Trackpoint>
            <Time>2020-12-05T10:34:13.000Z</Time>
            <Position>
              <LatitudeDegrees>36.83464706875383853912353515625</LatitudeDegrees>
              <LongitudeDegrees>-4.38148037530481815338134765625</LongitudeDegrees>
            </Position>
            <AltitudeMeters>665.5999755859375</AltitudeMeters>
            <DistanceMeters>NAN</DistanceMeters>
          </Trackpoint>
          <Trackpoint>
            <Time>2020-12-05T10:34:14.000Z</Time>
            <Position>
              <LatitudeDegrees>36.83464639820158481597900390625</LatitudeDegrees>
              <LongitudeDegrees>-4.38148071058094501495361328125</LongitudeDegrees>
            </Position>
            <AltitudeMeters>665.20001220703125</AltitudeMeters>
            <DistanceMeters>NAN</DistanceMeters>
          </Trackpoint>
          <Trackpoint>
            <Time>2020-12-05T10:34:15.000Z</Time>
            <Position>
              <LatitudeDegrees>36.83465226553380489349365234375</LatitudeDegrees>
              <LongitudeDegrees>-4.38146662898361682891845703125</LongitudeDegrees>
            </Position>
            <AltitudeMeters>664.79998779296875</AltitudeMeters>
            <DistanceMeters>NAN</DistanceMeters>
          </Trackpoint>
          <Trackpoint>
            <Time>2020-12-05T10:34:16.000Z</Time>
            <Position>
              <LatitudeDegrees>36.83465695939958095550537109375</LatitudeDegrees>
              <LongitudeDegrees>-4.38145539723336696624755859375</LongitudeDegrees>
            </Position>
            <AltitudeMeters>664.4000244140625</AltitudeMeters>
            <DistanceMeters>NAN</DistanceMeters>
          </Trackpoint>
          <Trackpoint>
            <Time>2020-12-05T10:34:17.000Z</Time>
            <Position>
              <LatitudeDegrees>36.83466282673180103302001953125</LatitudeDegrees>
              <LongitudeDegrees>-4.38145405612885951995849609375</LongitudeDegrees>
            </Position>
            <AltitudeMeters>664.20001220703125</AltitudeMeters>
            <DistanceMeters>NAN</DistanceMeters>
          </Trackpoint>
          <Trackpoint>
            <Time>2020-12-05T10:34:18.000Z</Time>
            <Position>
              <LatitudeDegrees>36.83466768823564052581787109375</LatitudeDegrees>
              <LongitudeDegrees>-4.3814514577388763427734375</LongitudeDegrees>
            </Position>
            <AltitudeMeters>663.79998779296875</AltitudeMeters>
            <DistanceMeters>NAN</DistanceMeters>
          </Trackpoint>
          <Trackpoint>
            <Time>2020-12-05T10:34:19.000Z</Time>
            <Position>
              <LatitudeDegrees>36.834671460092067718505859375</LatitudeDegrees>
              <LongitudeDegrees>-4.38145137391984462738037109375</LongitudeDegrees>
            </Position>
            <AltitudeMeters>663.5999755859375</AltitudeMeters>
            <DistanceMeters>NAN</DistanceMeters>
          </Trackpoint>
          <Trackpoint>
            <Time>2020-12-05T10:34:20.000Z</Time>
            <Position>
              <LatitudeDegrees>36.83467380702495574951171875</LatitudeDegrees>
              <LongitudeDegrees>-4.38145070336759090423583984375</LongitudeDegrees>
            </Position>
            <AltitudeMeters>663.5999755859375</AltitudeMeters>
            <DistanceMeters>NAN</DistanceMeters>
          </Trackpoint>
          <Trackpoint>
            <Time>2020-12-05T10:34:21.000Z</Time>
            <Position>
              <LatitudeDegrees>36.8346758186817169189453125</LatitudeDegrees>
              <LongitudeDegrees>-4.38145003281533718109130859375</LongitudeDegrees>
            </Position>
            <AltitudeMeters>663.4000244140625</AltitudeMeters>
            <DistanceMeters>NAN</DistanceMeters>
          </Trackpoint>
          <Trackpoint>
            <Time>2020-12-05T10:34:22.000Z</Time>
            <Position>
              <LatitudeDegrees>36.83467891998589038848876953125</LatitudeDegrees>
              <LongitudeDegrees>-4.38145053572952747344970703125</LongitudeDegrees>
            </Position>
            <AltitudeMeters>663.4000244140625</AltitudeMeters>
            <DistanceMeters>NAN</DistanceMeters>
          </Trackpoint>
          <Trackpoint>
            <Time>2020-12-05T10:34:23.000Z</Time>
            <Position>
              <LatitudeDegrees>36.8346811830997467041015625</LatitudeDegrees>
              <LongitudeDegrees>-4.381452463567256927490234375</LongitudeDegrees>
            </Position>
            <AltitudeMeters>663.20001220703125</AltitudeMeters>
            <DistanceMeters>NAN</DistanceMeters>
          </Trackpoint>
          <Trackpoint>
            <Time>2020-12-05T10:34:24.000Z</Time>
            <Position>
              <LatitudeDegrees>36.8346836976706981658935546875</LatitudeDegrees>
              <LongitudeDegrees>-4.3814583308994770050048828125</LongitudeDegrees>
            </Position>
            <AltitudeMeters>663.20001220703125</AltitudeMeters>
            <DistanceMeters>NAN</DistanceMeters>
          </Trackpoint>
          <Trackpoint>
            <Time>2020-12-05T10:34:25.000Z</Time>
            <Position>
              <LatitudeDegrees>36.8346863798797130584716796875</LatitudeDegrees>
              <LongitudeDegrees>-4.38146143220365047454833984375</LongitudeDegrees>
            </Position>
            <AltitudeMeters>663.20001220703125</AltitudeMeters>
            <DistanceMeters>NAN</DistanceMeters>
          </Trackpoint>
          <Trackpoint>
            <Time>2020-12-05T10:34:26.000Z</Time>
            <Position>
              <LatitudeDegrees>36.83468713425099849700927734375</LatitudeDegrees>
              <LongitudeDegrees>-4.38146227039396762847900390625</LongitudeDegrees>
            </Position>
            <AltitudeMeters>663.4000244140625</AltitudeMeters>
            <DistanceMeters>NAN</DistanceMeters>
          </Trackpoint>
          <Trackpoint>
            <Time>2020-12-05T10:34:27.000Z</Time>
            <Position>
              <LatitudeDegrees>36.8346877209842205047607421875</LatitudeDegrees>
              <LongitudeDegrees>-4.38146227039396762847900390625</LongitudeDegrees>
            </Position>
            <AltitudeMeters>663.20001220703125</AltitudeMeters>
            <DistanceMeters>NAN</DistanceMeters>
          </Trackpoint>
          <Trackpoint>
            <Time>2020-12-05T10:34:28.000Z</Time>
            <Position>
              <LatitudeDegrees>36.83468663133680820465087890625</LatitudeDegrees>
              <LongitudeDegrees>-4.381464533507823944091796875</LongitudeDegrees>
            </Position>
            <AltitudeMeters>663.4000244140625</AltitudeMeters>
            <DistanceMeters>NAN</DistanceMeters>
          </Trackpoint>
          <Trackpoint>
            <Time>2020-12-05T10:34:29.000Z</Time>
            <Position>
              <LatitudeDegrees>36.83468545787036418914794921875</LatitudeDegrees>
              <LongitudeDegrees>-4.38146763481199741363525390625</LongitudeDegrees>
            </Position>
            <AltitudeMeters>663.79998779296875</AltitudeMeters>
            <DistanceMeters>NAN</DistanceMeters>
          </Trackpoint>
          <Trackpoint>
            <Time>2020-12-05T10:34:30.000Z</Time>
            <Position>
              <LatitudeDegrees>36.83468411676585674285888671875</LatitudeDegrees>
              <LongitudeDegrees>-4.3814724124968051910400390625</LongitudeDegrees>
            </Position>
            <AltitudeMeters>664.4000244140625</AltitudeMeters>
            <DistanceMeters>NAN</DistanceMeters>
          </Trackpoint>
          <Trackpoint>
            <Time>2020-12-05T10:34:31.000Z</Time>
            <Position>
              <LatitudeDegrees>36.83467707596719264984130859375</LatitudeDegrees>
              <LongitudeDegrees>-4.3814811296761035919189453125</LongitudeDegrees>
            </Position>
            <AltitudeMeters>664.5999755859375</AltitudeMeters>
            <DistanceMeters>NAN</DistanceMeters>
          </Trackpoint>
          <Trackpoint>
            <Time>2020-12-05T10:34:32.000Z</Time>
            <Position>
              <LatitudeDegrees>36.834673471748828887939453125</LatitudeDegrees>
              <LongitudeDegrees>-4.38149345107376575469970703125</LongitudeDegrees>
            </Position>
            <AltitudeMeters>664.5999755859375</AltitudeMeters>
            <DistanceMeters>NAN</DistanceMeters>
          </Trackpoint>
          <Trackpoint>
            <Time>2020-12-05T10:34:33.000Z</Time>
            <Position>
              <LatitudeDegrees>36.8346756510436534881591796875</LatitudeDegrees>
              <LongitudeDegrees>-4.38150568865239620208740234375</LongitudeDegrees>
            </Position>
            <AltitudeMeters>665</AltitudeMeters>
            <DistanceMeters>NAN</DistanceMeters>
          </Trackpoint>
          <Trackpoint>
            <Time>2020-12-05T10:34:34.000Z</Time>
            <Position>
              <LatitudeDegrees>36.83467707596719264984130859375</LatitudeDegrees>
              <LongitudeDegrees>-4.38152228482067584991455078125</LongitudeDegrees>
            </Position>
            <AltitudeMeters>665.20001220703125</AltitudeMeters>
            <DistanceMeters>NAN</DistanceMeters>
          </Trackpoint>
          <Trackpoint>
            <Time>2020-12-05T10:34:35.000Z</Time>
            <Position>
              <LatitudeDegrees>36.8346798419952392578125</LatitudeDegrees>
              <LongitudeDegrees>-4.38153670169413089752197265625</LongitudeDegrees>
            </Position>
            <AltitudeMeters>664.79998779296875</AltitudeMeters>
            <DistanceMeters>NAN</DistanceMeters>
          </Trackpoint>
          <Trackpoint>
            <Time>2020-12-05T10:34:36.000Z</Time>
            <Position>
              <LatitudeDegrees>36.83468277566134929656982421875</LatitudeDegrees>
              <LongitudeDegrees>-4.381551034748554229736328125</LongitudeDegrees>
            </Position>
            <AltitudeMeters>664.5999755859375</AltitudeMeters>
            <DistanceMeters>NAN</DistanceMeters>
          </Trackpoint>
          <Trackpoint>
            <Time>2020-12-05T10:34:37.000Z</Time>
            <Position>
              <LatitudeDegrees>36.83468294329941272735595703125</LatitudeDegrees>
              <LongitudeDegrees>-4.38156620599329471588134765625</LongitudeDegrees>
            </Position>
            <AltitudeMeters>664.4000244140625</AltitudeMeters>
            <DistanceMeters>NAN</DistanceMeters>
          </Trackpoint>
          <Trackpoint>
            <Time>2020-12-05T10:34:38.000Z</Time>
            <Position>
              <LatitudeDegrees>36.8346811830997467041015625</LatitudeDegrees>
              <LongitudeDegrees>-4.38158087432384490966796875</LongitudeDegrees>
            </Position>
            <AltitudeMeters>664.4000244140625</AltitudeMeters>
            <DistanceMeters>NAN</DistanceMeters>
          </Trackpoint>
          <Trackpoint>
            <Time>2020-12-05T10:34:39.000Z</Time>
            <Position>
              <LatitudeDegrees>36.83468093164265155792236328125</LatitudeDegrees>
              <LongitudeDegrees>-4.381593950092792510986328125</LongitudeDegrees>
            </Position>
            <AltitudeMeters>664</AltitudeMeters>
            <DistanceMeters>NAN</DistanceMeters>
          </Trackpoint>
          <Trackpoint>
            <Time>2020-12-05T10:34:40.000Z</Time>
            <Position>
              <LatitudeDegrees>36.8346813507378101348876953125</LatitudeDegrees>
              <LongitudeDegrees>-4.38160627149045467376708984375</LongitudeDegrees>
            </Position>
            <AltitudeMeters>663.4000244140625</AltitudeMeters>
            <DistanceMeters>NAN</DistanceMeters>
          </Trackpoint>
          <Trackpoint>
            <Time>2020-12-05T10:34:41.000Z</Time>
            <Position>
              <LatitudeDegrees>36.83468051254749298095703125</LatitudeDegrees>
              <LongitudeDegrees>-4.38161917962133884429931640625</LongitudeDegrees>
            </Position>
            <AltitudeMeters>662.79998779296875</AltitudeMeters>
            <DistanceMeters>NAN</DistanceMeters>
          </Trackpoint>
          <Trackpoint>
            <Time>2020-12-05T10:34:42.000Z</Time>
            <Position>
              <LatitudeDegrees>36.83467741124331951141357421875</LatitudeDegrees>
              <LongitudeDegrees>-4.38163342885673046112060546875</LongitudeDegrees>
            </Position>
            <AltitudeMeters>662.4000244140625</AltitudeMeters>
            <DistanceMeters>NAN</DistanceMeters>
          </Trackpoint>
          <Trackpoint>
            <Time>2020-12-05T10:34:43.000Z</Time>
            <Position>
              <LatitudeDegrees>36.8346712924540042877197265625</LatitudeDegrees>
              <LongitudeDegrees>-4.38165195286273956298828125</LongitudeDegrees>
            </Position>
            <AltitudeMeters>662.20001220703125</AltitudeMeters>
            <DistanceMeters>NAN</DistanceMeters>
          </Trackpoint>
          <Trackpoint>
            <Time>2020-12-05T10:34:44.000Z</Time>
            <Position>
              <LatitudeDegrees>36.83467037044465541839599609375</LatitudeDegrees>
              <LongitudeDegrees>-4.38166460953652858734130859375</LongitudeDegrees>
            </Position>
            <AltitudeMeters>662</AltitudeMeters>
            <DistanceMeters>NAN</DistanceMeters>
          </Trackpoint>
          <Trackpoint>
            <Time>2020-12-05T10:34:45.000Z</Time>
            <Position>
              <LatitudeDegrees>36.83466718532145023345947265625</LatitudeDegrees>
              <LongitudeDegrees>-4.3816749192774295806884765625</LongitudeDegrees>
            </Position>
            <AltitudeMeters>662</AltitudeMeters>
            <DistanceMeters>NAN</DistanceMeters>
          </Trackpoint>
          <Trackpoint>
            <Time>2020-12-05T10:34:46.000Z</Time>
            <Position>
              <LatitudeDegrees>36.83466047979891300201416015625</LatitudeDegrees>
              <LongitudeDegrees>-4.38168908469378948211669921875</LongitudeDegrees>
            </Position>
            <AltitudeMeters>662</AltitudeMeters>
            <DistanceMeters>NAN</DistanceMeters>
          </Trackpoint>
          <Trackpoint>
            <Time>2020-12-05T10:34:47.000Z</Time>
            <Position>
              <LatitudeDegrees>36.834654696285724639892578125</LatitudeDegrees>
              <LongitudeDegrees>-4.38170014880597591400146484375</LongitudeDegrees>
            </Position>
            <AltitudeMeters>662</AltitudeMeters>
            <DistanceMeters>NAN</DistanceMeters>
          </Trackpoint>
          <Trackpoint>
            <Time>2020-12-05T10:34:48.000Z</Time>
            <Position>
              <LatitudeDegrees>36.83464757166802883148193359375</LatitudeDegrees>
              <LongitudeDegrees>-4.38171171583235263824462890625</LongitudeDegrees>
            </Position>
            <AltitudeMeters>662</AltitudeMeters>
            <DistanceMeters>NAN</DistanceMeters>
          </Trackpoint>
          <Trackpoint>
            <Time>2020-12-05T10:34:49.000Z</Time>
            <Position>
              <LatitudeDegrees>36.83463969267904758453369140625</LatitudeDegrees>
              <LongitudeDegrees>-4.38172294758260250091552734375</LongitudeDegrees>
            </Position>
            <AltitudeMeters>662</AltitudeMeters>
            <DistanceMeters>NAN</DistanceMeters>
          </Trackpoint>
          <Trackpoint>
            <Time>2020-12-05T10:34:50.000Z</Time>
            <Position>
              <LatitudeDegrees>36.83462418615818023681640625</LatitudeDegrees>
              <LongitudeDegrees>-4.3817322514951229095458984375</LongitudeDegrees>
            </Position>
            <AltitudeMeters>662.20001220703125</AltitudeMeters>
            <DistanceMeters>NAN</DistanceMeters>
          </Trackpoint>
          <Trackpoint>
            <Time>2020-12-05T10:34:51.000Z</Time>
            <Position>
              <LatitudeDegrees>36.83460901491343975067138671875</LatitudeDegrees>
              <LongitudeDegrees>-4.38174490816891193389892578125</LongitudeDegrees>
            </Position>
            <AltitudeMeters>662.20001220703125</AltitudeMeters>
            <DistanceMeters>NAN</DistanceMeters>
          </Trackpoint>
          <Trackpoint>
            <Time>2020-12-05T10:34:52.000Z</Time>
            <Position>
              <LatitudeDegrees>36.83459937572479248046875</LatitudeDegrees>
              <LongitudeDegrees>-4.3817532062530517578125</LongitudeDegrees>
            </Position>
            <AltitudeMeters>662.4000244140625</AltitudeMeters>
            <DistanceMeters>NAN</DistanceMeters>
          </Trackpoint>
          <Trackpoint>
            <Time>2020-12-05T10:34:53.000Z</Time>
            <Position>
              <LatitudeDegrees>36.83459174819290637969970703125</LatitudeDegrees>
              <LongitudeDegrees>-4.381762258708477020263671875</LongitudeDegrees>
            </Position>
            <AltitudeMeters>662.5999755859375</AltitudeMeters>
            <DistanceMeters>NAN</DistanceMeters>
          </Trackpoint>
          <Trackpoint>
            <Time>2020-12-05T10:34:54.000Z</Time>
            <Position>
              <LatitudeDegrees>36.8345861323177814483642578125</LatitudeDegrees>
              <LongitudeDegrees>-4.38177307136356830596923828125</LongitudeDegrees>
            </Position>
            <AltitudeMeters>662.5999755859375</AltitudeMeters>
            <DistanceMeters>NAN</DistanceMeters>
          </Trackpoint>
          <Trackpoint>
            <Time>2020-12-05T10:34:55.000Z</Time>
            <Position>
              <LatitudeDegrees>36.8345817737281322479248046875</LatitudeDegrees>
              <LongitudeDegrees>-4.38178514130413532257080078125</LongitudeDegrees>
            </Position>
            <AltitudeMeters>662.79998779296875</AltitudeMeters>
            <DistanceMeters>NAN</DistanceMeters>
          </Trackpoint>
          <Trackpoint>
            <Time>2020-12-05T10:34:56.000Z</Time>
            <Position>
              <LatitudeDegrees>36.83457716368138790130615234375</LatitudeDegrees>
              <LongitudeDegrees>-4.3817947804927825927734375</LongitudeDegrees>
            </Position>
            <AltitudeMeters>662.79998779296875</AltitudeMeters>
            <DistanceMeters>NAN</DistanceMeters>
          </Trackpoint>
          <Trackpoint>
            <Time>2020-12-05T10:34:57.000Z</Time>
            <Position>
              <LatitudeDegrees>36.83457280509173870086669921875</LatitudeDegrees>
              <LongitudeDegrees>-4.381807185709476470947265625</LongitudeDegrees>
            </Position>
            <AltitudeMeters>662.79998779296875</AltitudeMeters>
            <DistanceMeters>NAN</DistanceMeters>
          </Trackpoint>
          <Trackpoint>
            <Time>2020-12-05T10:34:58.000Z</Time>
            <Position>
              <LatitudeDegrees>36.834568865597248077392578125</LatitudeDegrees>
              <LongitudeDegrees>-4.38181917183101177215576171875</LongitudeDegrees>
            </Position>
            <AltitudeMeters>662.5999755859375</AltitudeMeters>
            <DistanceMeters>NAN</DistanceMeters>
          </Trackpoint>
          <Trackpoint>
            <Time>2020-12-05T10:34:59.000Z</Time>
            <Position>
              <LatitudeDegrees>36.83456609956920146942138671875</LatitudeDegrees>
              <LongitudeDegrees>-4.38183124177157878875732421875</LongitudeDegrees>
            </Position>
            <AltitudeMeters>662.4000244140625</AltitudeMeters>
            <DistanceMeters>NAN</DistanceMeters>
          </Trackpoint>
          <Trackpoint>
            <Time>2020-12-05T10:35:00.000Z</Time>
            <Position>
              <LatitudeDegrees>36.834561824798583984375</LatitudeDegrees>
              <LongitudeDegrees>-4.38184180296957492828369140625</LongitudeDegrees>
            </Position>
            <AltitudeMeters>662</AltitudeMeters>
            <DistanceMeters>NAN</DistanceMeters>
          </Trackpoint>
          <Trackpoint>
            <Time>2020-12-05T10:35:01.000Z</Time>
            <Position>
              <LatitudeDegrees>36.834557466208934783935546875</LatitudeDegrees>
              <LongitudeDegrees>-4.38185303471982479095458984375</LongitudeDegrees>
            </Position>
            <AltitudeMeters>661.79998779296875</AltitudeMeters>
            <DistanceMeters>NAN</DistanceMeters>
          </Trackpoint>
          <Trackpoint>
            <Time>2020-12-05T10:35:02.000Z</Time>
            <Position>
              <LatitudeDegrees>36.83455419726669788360595703125</LatitudeDegrees>
              <LongitudeDegrees>-4.38186652958393096923828125</LongitudeDegrees>
            </Position>
            <AltitudeMeters>661.5999755859375</AltitudeMeters>
            <DistanceMeters>NAN</DistanceMeters>
          </Trackpoint>
          <Trackpoint>
            <Time>2020-12-05T10:35:03.000Z</Time>
            <Position>
              <LatitudeDegrees>36.8345515988767147064208984375</LatitudeDegrees>
              <LongitudeDegrees>-4.38188262283802032470703125</LongitudeDegrees>
            </Position>
            <AltitudeMeters>661.4000244140625</AltitudeMeters>
            <DistanceMeters>NAN</DistanceMeters>
          </Trackpoint>
          <Trackpoint>
            <Time>2020-12-05T10:35:04.000Z</Time>
            <Position>
              <LatitudeDegrees>36.834549419581890106201171875</LatitudeDegrees>
              <LongitudeDegrees>-4.381900392472743988037109375</LongitudeDegrees>
            </Position>
            <AltitudeMeters>661.20001220703125</AltitudeMeters>
            <DistanceMeters>NAN</DistanceMeters>
          </Trackpoint>
          <Trackpoint>
            <Time>2020-12-05T10:35:05.000Z</Time>
            <Position>
              <LatitudeDegrees>36.8345458991825580596923828125</LatitudeDegrees>
              <LongitudeDegrees>-4.381916485726833343505859375</LongitudeDegrees>
            </Position>
            <AltitudeMeters>661</AltitudeMeters>
            <DistanceMeters>NAN</DistanceMeters>
          </Trackpoint>
          <Trackpoint>
            <Time>2020-12-05T10:35:06.000Z</Time>
            <Position>
              <LatitudeDegrees>36.834540702402591705322265625</LatitudeDegrees>
              <LongitudeDegrees>-4.38192964531481266021728515625</LongitudeDegrees>
            </Position>
            <AltitudeMeters>660.79998779296875</AltitudeMeters>
            <DistanceMeters>NAN</DistanceMeters>
          </Trackpoint>
          <Trackpoint>
            <Time>2020-12-05T10:35:07.000Z</Time>
            <Position>
              <LatitudeDegrees>36.83453625999391078948974609375</LatitudeDegrees>
              <LongitudeDegrees>-4.38194288872182369232177734375</LongitudeDegrees>
            </Position>
            <AltitudeMeters>660.79998779296875</AltitudeMeters>
            <DistanceMeters>NAN</DistanceMeters>
          </Trackpoint>
          <Trackpoint>
            <Time>2020-12-05T10:35:08.000Z</Time>
            <Position>
              <LatitudeDegrees>36.83453240431845188140869140625</LatitudeDegrees>
              <LongitudeDegrees>-4.38195646740496158599853515625</LongitudeDegrees>
            </Position>
            <AltitudeMeters>660.5999755859375</AltitudeMeters>
            <DistanceMeters>NAN</DistanceMeters>
          </Trackpoint>
          <Trackpoint>
            <Time>2020-12-05T10:35:09.000Z</Time>
            <Position>
              <LatitudeDegrees>36.8345281295478343963623046875</LatitudeDegrees>
              <LongitudeDegrees>-4.38197038136422634124755859375</LongitudeDegrees>
            </Position>
            <AltitudeMeters>660.5999755859375</AltitudeMeters>
            <DistanceMeters>NAN</DistanceMeters>
          </Trackpoint>
          <Trackpoint>
            <Time>2020-12-05T10:35:10.000Z</Time>
            <Position>
              <LatitudeDegrees>36.83452536351978778839111328125</LatitudeDegrees>
              <LongitudeDegrees>-4.38198530115187168121337890625</LongitudeDegrees>
            </Position>
            <AltitudeMeters>660.5999755859375</AltitudeMeters>
            <DistanceMeters>NAN</DistanceMeters>
          </Trackpoint>
          <Trackpoint>
            <Time>2020-12-05T10:35:11.000Z</Time>
            <Position>
              <LatitudeDegrees>36.834523938596248626708984375</LatitudeDegrees>
              <LongitudeDegrees>-4.3819998018443584442138671875</LongitudeDegrees>
            </Position>
            <AltitudeMeters>660.4000244140625</AltitudeMeters>
            <DistanceMeters>NAN</DistanceMeters>
          </Trackpoint>
          <Trackpoint>
            <Time>2020-12-05T10:35:12.000Z</Time>
            <Position>
              <LatitudeDegrees>36.83452100493013858795166015625</LatitudeDegrees>
              <LongitudeDegrees>-4.38201296143233776092529296875</LongitudeDegrees>
            </Position>
            <AltitudeMeters>660.4000244140625</AltitudeMeters>
            <DistanceMeters>NAN</DistanceMeters>
          </Trackpoint>
          <Trackpoint>
            <Time>2020-12-05T10:35:13.000Z</Time>
            <Position>
              <LatitudeDegrees>36.83451631106436252593994140625</LatitudeDegrees>
              <LongitudeDegrees>-4.38202670775353908538818359375</LongitudeDegrees>
            </Position>
            <AltitudeMeters>660.4000244140625</AltitudeMeters>
            <DistanceMeters>NAN</DistanceMeters>
          </Trackpoint>
          <Trackpoint>
            <Time>2020-12-05T10:35:14.000Z</Time>
            <Position>
              <LatitudeDegrees>36.834511198103427886962890625</LatitudeDegrees>
              <LongitudeDegrees>-4.382045231759548187255859375</LongitudeDegrees>
            </Position>
            <AltitudeMeters>660.4000244140625</AltitudeMeters>
            <DistanceMeters>NAN</DistanceMeters>
          </Trackpoint>
          <Trackpoint>
            <Time>2020-12-05T10:35:15.000Z</Time>
            <Position>
              <LatitudeDegrees>36.83450281620025634765625</LatitudeDegrees>
              <LongitudeDegrees>-4.38206761144101619720458984375</LongitudeDegrees>
            </Position>
            <AltitudeMeters>660.4000244140625</AltitudeMeters>
            <DistanceMeters>NAN</DistanceMeters>
          </Trackpoint>
          <Trackpoint>
            <Time>2020-12-05T10:35:16.000Z</Time>
            <Position>
              <LatitudeDegrees>36.834497787058353424072265625</LatitudeDegrees>
              <LongitudeDegrees>-4.3820866383612155914306640625</LongitudeDegrees>
            </Position>
            <AltitudeMeters>660.4000244140625</AltitudeMeters>
            <DistanceMeters>NAN</DistanceMeters>
          </Trackpoint>
          <Trackpoint>
            <Time>2020-12-05T10:35:17.000Z</Time>
            <Position>
              <LatitudeDegrees>36.8344935961067676544189453125</LatitudeDegrees>
              <LongitudeDegrees>-4.38210432417690753936767578125</LongitudeDegrees>
            </Position>
            <AltitudeMeters>660.4000244140625</AltitudeMeters>
            <DistanceMeters>NAN</DistanceMeters>
          </Trackpoint>
          <Trackpoint>
            <Time>2020-12-05T10:35:18.000Z</Time>
            <Position>
              <LatitudeDegrees>36.83449141681194305419921875</LatitudeDegrees>
              <LongitudeDegrees>-4.38212024979293346405029296875</LongitudeDegrees>
            </Position>
            <AltitudeMeters>660.4000244140625</AltitudeMeters>
            <DistanceMeters>NAN</DistanceMeters>
          </Trackpoint>
          <Trackpoint>
            <Time>2020-12-05T10:35:19.000Z</Time>
            <Position>
              <LatitudeDegrees>36.8344882316887378692626953125</LatitudeDegrees>
              <LongitudeDegrees>-4.3821288831532001495361328125</LongitudeDegrees>
            </Position>
            <AltitudeMeters>660.20001220703125</AltitudeMeters>
            <DistanceMeters>NAN</DistanceMeters>
          </Trackpoint>
          <Trackpoint>
            <Time>2020-12-05T10:35:20.000Z</Time>
            <Position>
              <LatitudeDegrees>36.83448596857488155364990234375</LatitudeDegrees>
              <LongitudeDegrees>-4.3821359239518642425537109375</LongitudeDegrees>
            </Position>
            <AltitudeMeters>660.4000244140625</AltitudeMeters>
            <DistanceMeters>NAN</DistanceMeters>
          </Trackpoint>
          <Trackpoint>
            <Time>2020-12-05T10:35:21.000Z</Time>
            <Position>
              <LatitudeDegrees>36.83448211289942264556884765625</LatitudeDegrees>
              <LongitudeDegrees>-4.38214271329343318939208984375</LongitudeDegrees>
            </Position>
            <AltitudeMeters>660.4000244140625</AltitudeMeters>
            <DistanceMeters>NAN</DistanceMeters>
          </Trackpoint>
          <Trackpoint>
            <Time>2020-12-05T10:35:22.000Z</Time>
            <Position>
              <LatitudeDegrees>36.83447624556720256805419921875</LatitudeDegrees>
              <LongitudeDegrees>-4.38214992173016071319580078125</LongitudeDegrees>
            </Position>
            <AltitudeMeters>660.20001220703125</AltitudeMeters>
            <DistanceMeters>NAN</DistanceMeters>
          </Trackpoint>
          <Trackpoint>
            <Time>2020-12-05T10:35:23.000Z</Time>
            <Position>
              <LatitudeDegrees>36.8344701267778873443603515625</LatitudeDegrees>
              <LongitudeDegrees>-4.38215930946171283721923828125</LongitudeDegrees>
            </Position>
            <AltitudeMeters>660</AltitudeMeters>
            <DistanceMeters>NAN</DistanceMeters>
          </Trackpoint>
          <Trackpoint>
            <Time>2020-12-05T10:35:24.000Z</Time>
            <Position>
              <LatitudeDegrees>36.83446300216019153594970703125</LatitudeDegrees>
              <LongitudeDegrees>-4.38217070885002613067626953125</LongitudeDegrees>
            </Position>
            <AltitudeMeters>660</AltitudeMeters>
            <DistanceMeters>NAN</DistanceMeters>
          </Trackpoint>
          <Trackpoint>
            <Time>2020-12-05T10:35:25.000Z</Time>
            <Position>
              <LatitudeDegrees>36.8344526924192905426025390625</LatitudeDegrees>
              <LongitudeDegrees>-4.38218411989510059356689453125</LongitudeDegrees>
            </Position>
            <AltitudeMeters>659.79998779296875</AltitudeMeters>
            <DistanceMeters>NAN</DistanceMeters>
          </Trackpoint>
          <Trackpoint>
            <Time>2020-12-05T10:35:26.000Z</Time>
            <Position>
              <LatitudeDegrees>36.83444179594516754150390625</LatitudeDegrees>
              <LongitudeDegrees>-4.38219769857823848724365234375</LongitudeDegrees>
            </Position>
            <AltitudeMeters>659.5999755859375</AltitudeMeters>
            <DistanceMeters>NAN</DistanceMeters>
          </Trackpoint>
          <Trackpoint>
            <Time>2020-12-05T10:35:27.000Z</Time>
            <Position>
              <LatitudeDegrees>36.83443165384232997894287109375</LatitudeDegrees>
              <LongitudeDegrees>-4.38221043907105922698974609375</LongitudeDegrees>
            </Position>
            <AltitudeMeters>659.20001220703125</AltitudeMeters>
            <DistanceMeters>NAN</DistanceMeters>
          </Trackpoint>
          <Trackpoint>
            <Time>2020-12-05T10:35:28.000Z</Time>
            <Position>
              <LatitudeDegrees>36.83442260138690471649169921875</LatitudeDegrees>
              <LongitudeDegrees>-4.38222460448741912841796875</LongitudeDegrees>
            </Position>
            <AltitudeMeters>658.79998779296875</AltitudeMeters>
            <DistanceMeters>NAN</DistanceMeters>
          </Trackpoint>
          <Trackpoint>
            <Time>2020-12-05T10:35:29.000Z</Time>
            <Position>
              <LatitudeDegrees>36.83441321365535259246826171875</LatitudeDegrees>
              <LongitudeDegrees>-4.38223893754184246063232421875</LongitudeDegrees>
            </Position>
            <AltitudeMeters>658.5999755859375</AltitudeMeters>
            <DistanceMeters>NAN</DistanceMeters>
          </Trackpoint>
          <Trackpoint>
            <Time>2020-12-05T10:35:30.000Z</Time>
            <Position>
              <LatitudeDegrees>36.83440617285668849945068359375</LatitudeDegrees>
              <LongitudeDegrees>-4.3822532705962657928466796875</LongitudeDegrees>
            </Position>
            <AltitudeMeters>658.20001220703125</AltitudeMeters>
            <DistanceMeters>NAN</DistanceMeters>
          </Trackpoint>
          <Trackpoint>
            <Time>2020-12-05T10:35:31.000Z</Time>
            <Position>
              <LatitudeDegrees>36.83439997024834156036376953125</LatitudeDegrees>
              <LongitudeDegrees>-4.38226860947906970977783203125</LongitudeDegrees>
            </Position>
            <AltitudeMeters>658</AltitudeMeters>
            <DistanceMeters>NAN</DistanceMeters>
          </Trackpoint>
          <Trackpoint>
            <Time>2020-12-05T10:35:32.000Z</Time>
            <Position>
              <LatitudeDegrees>36.83439644984900951385498046875</LatitudeDegrees>
              <LongitudeDegrees>-4.38228537328541278839111328125</LongitudeDegrees>
            </Position>
            <AltitudeMeters>657.79998779296875</AltitudeMeters>
            <DistanceMeters>NAN</DistanceMeters>
          </Trackpoint>
          <Trackpoint>
            <Time>2020-12-05T10:35:33.000Z</Time>
            <Position>
              <LatitudeDegrees>36.8343915045261383056640625</LatitudeDegrees>
              <LongitudeDegrees>-4.38230146653950214385986328125</LongitudeDegrees>
            </Position>
            <AltitudeMeters>657.5999755859375</AltitudeMeters>
            <DistanceMeters>NAN</DistanceMeters>
          </Trackpoint>
          <Trackpoint>
            <Time>2020-12-05T10:35:34.000Z</Time>
            <Position>
              <LatitudeDegrees>36.8343893252313137054443359375</LatitudeDegrees>
              <LongitudeDegrees>-4.3823220022022724151611328125</LongitudeDegrees>
            </Position>
            <AltitudeMeters>657.4000244140625</AltitudeMeters>
            <DistanceMeters>NAN</DistanceMeters>
          </Trackpoint>
          <Trackpoint>
            <Time>2020-12-05T10:35:35.000Z</Time>
            <Position>
              <LatitudeDegrees>36.83438479900360107421875</LatitudeDegrees>
              <LongitudeDegrees>-4.38234035857021808624267578125</LongitudeDegrees>
            </Position>
            <AltitudeMeters>657.4000244140625</AltitudeMeters>
            <DistanceMeters>NAN</DistanceMeters>
          </Trackpoint>
          <Trackpoint>
            <Time>2020-12-05T10:35:36.000Z</Time>
            <Position>
              <LatitudeDegrees>36.83438169769942760467529296875</LatitudeDegrees>
              <LongitudeDegrees>-4.38235980458557605743408203125</LongitudeDegrees>
            </Position>
            <AltitudeMeters>657.20001220703125</AltitudeMeters>
            <DistanceMeters>NAN</DistanceMeters>
          </Trackpoint>
          <Trackpoint>
            <Time>2020-12-05T10:35:37.000Z</Time>
            <Position>
              <LatitudeDegrees>36.83437767438590526580810546875</LatitudeDegrees>
              <LongitudeDegrees>-4.38238092698156833648681640625</LongitudeDegrees>
            </Position>
            <AltitudeMeters>657.20001220703125</AltitudeMeters>
            <DistanceMeters>NAN</DistanceMeters>
          </Trackpoint>
          <Trackpoint>
            <Time>2020-12-05T10:35:38.000Z</Time>
            <Position>
              <LatitudeDegrees>36.834371052682399749755859375</LatitudeDegrees>
              <LongitudeDegrees>-4.38240137882530689239501953125</LongitudeDegrees>
            </Position>
            <AltitudeMeters>657.20001220703125</AltitudeMeters>
            <DistanceMeters>NAN</DistanceMeters>
          </Trackpoint>
          <Trackpoint>
            <Time>2020-12-05T10:35:39.000Z</Time>
            <Position>
              <LatitudeDegrees>36.83436627499759197235107421875</LatitudeDegrees>
              <LongitudeDegrees>-4.38242099247872829437255859375</LongitudeDegrees>
            </Position>
            <AltitudeMeters>657.20001220703125</AltitudeMeters>
            <DistanceMeters>NAN</DistanceMeters>
          </Trackpoint>
          <Trackpoint>
            <Time>2020-12-05T10:35:40.000Z</Time>
            <Position>
              <LatitudeDegrees>36.83435873128473758697509765625</LatitudeDegrees>
              <LongitudeDegrees>-4.38243440352380275726318359375</LongitudeDegrees>
            </Position>
            <AltitudeMeters>657.20001220703125</AltitudeMeters>
            <DistanceMeters>NAN</DistanceMeters>
          </Trackpoint>
          <Trackpoint>
            <Time>2020-12-05T10:35:41.000Z</Time>
            <Position>
              <LatitudeDegrees>36.8343554623425006866455078125</LatitudeDegrees>
              <LongitudeDegrees>-4.38244991004467010498046875</LongitudeDegrees>
            </Position>
            <AltitudeMeters>657.20001220703125</AltitudeMeters>
            <DistanceMeters>NAN</DistanceMeters>
          </Trackpoint>
          <Trackpoint>
            <Time>2020-12-05T10:35:42.000Z</Time>
            <Position>
              <LatitudeDegrees>36.83435588143765926361083984375</LatitudeDegrees>
              <LongitudeDegrees>-4.3824680149555206298828125</LongitudeDegrees>
            </Position>
            <AltitudeMeters>657.4000244140625</AltitudeMeters>
            <DistanceMeters>NAN</DistanceMeters>
          </Trackpoint>
          <Trackpoint>
            <Time>2020-12-05T10:35:43.000Z</Time>
            <Position>
              <LatitudeDegrees>36.834357641637325286865234375</LatitudeDegrees>
              <LongitudeDegrees>-4.38249005936086177825927734375</LongitudeDegrees>
            </Position>
            <AltitudeMeters>657.4000244140625</AltitudeMeters>
            <DistanceMeters>NAN</DistanceMeters>
          </Trackpoint>
          <Trackpoint>
            <Time>2020-12-05T10:35:44.000Z</Time>
            <Position>
              <LatitudeDegrees>36.8343579769134521484375</LatitudeDegrees>
              <LongitudeDegrees>-4.38251294195652008056640625</LongitudeDegrees>
            </Position>
            <AltitudeMeters>657.4000244140625</AltitudeMeters>
            <DistanceMeters>NAN</DistanceMeters>
          </Trackpoint>
          <Trackpoint>
            <Time>2020-12-05T10:35:45.000Z</Time>
            <Position>
              <LatitudeDegrees>36.8343604914844036102294921875</LatitudeDegrees>
              <LongitudeDegrees>-4.38254001550376415252685546875</LongitudeDegrees>
            </Position>
            <AltitudeMeters>657.4000244140625</AltitudeMeters>
            <DistanceMeters>NAN</DistanceMeters>
          </Trackpoint>
          <Trackpoint>
            <Time>2020-12-05T10:35:46.000Z</Time>
            <Position>
              <LatitudeDegrees>36.8343648500740528106689453125</LatitudeDegrees>
              <LongitudeDegrees>-4.3825667537748813629150390625</LongitudeDegrees>
            </Position>
            <AltitudeMeters>657.20001220703125</AltitudeMeters>
            <DistanceMeters>NAN</DistanceMeters>
          </Trackpoint>
          <Trackpoint>
            <Time>2020-12-05T10:35:47.000Z</Time>
            <Position>
              <LatitudeDegrees>36.83437029831111431121826171875</LatitudeDegrees>
              <LongitudeDegrees>-4.38258460722863674163818359375</LongitudeDegrees>
            </Position>
            <AltitudeMeters>657.20001220703125</AltitudeMeters>
            <DistanceMeters>NAN</DistanceMeters>
          </Trackpoint>
          <Trackpoint>
            <Time>2020-12-05T10:35:48.000Z</Time>
            <Position>
              <LatitudeDegrees>36.8343752436339855194091796875</LatitudeDegrees>
              <LongitudeDegrees>-4.38261159695684909820556640625</LongitudeDegrees>
            </Position>
            <AltitudeMeters>657</AltitudeMeters>
            <DistanceMeters>NAN</DistanceMeters>
          </Trackpoint>
          <Trackpoint>
            <Time>2020-12-05T10:35:49.000Z</Time>
            <Position>
              <LatitudeDegrees>36.83437951840460300445556640625</LatitudeDegrees>
              <LongitudeDegrees>-4.3826351501047611236572265625</LongitudeDegrees>
            </Position>
            <AltitudeMeters>656.79998779296875</AltitudeMeters>
            <DistanceMeters>NAN</DistanceMeters>
          </Trackpoint>
          <Trackpoint>
            <Time>2020-12-05T10:35:50.000Z</Time>
            <Position>
              <LatitudeDegrees>36.8343896605074405670166015625</LatitudeDegrees>
              <LongitudeDegrees>-4.3826544284820556640625</LongitudeDegrees>
            </Position>
            <AltitudeMeters>656.79998779296875</AltitudeMeters>
            <DistanceMeters>NAN</DistanceMeters>
          </Trackpoint>
          <Trackpoint>
            <Time>2020-12-05T10:35:51.000Z</Time>
            <Position>
              <LatitudeDegrees>36.8343987129628658294677734375</LatitudeDegrees>
              <LongitudeDegrees>-4.38266876153647899627685546875</LongitudeDegrees>
            </Position>
            <AltitudeMeters>656.79998779296875</AltitudeMeters>
            <DistanceMeters>NAN</DistanceMeters>
          </Trackpoint>
          <Trackpoint>
            <Time>2020-12-05T10:35:52.000Z</Time>
            <Position>
              <LatitudeDegrees>36.8344075977802276611328125</LatitudeDegrees>
              <LongitudeDegrees>-4.38268016092479228973388671875</LongitudeDegrees>
            </Position>
            <AltitudeMeters>657</AltitudeMeters>
            <DistanceMeters>NAN</DistanceMeters>
          </Trackpoint>
          <Trackpoint>
            <Time>2020-12-05T10:35:53.000Z</Time>
            <Position>
              <LatitudeDegrees>36.83441438712179660797119140625</LatitudeDegrees>
              <LongitudeDegrees>-4.38268686644732952117919921875</LongitudeDegrees>
            </Position>
            <AltitudeMeters>657</AltitudeMeters>
            <DistanceMeters>NAN</DistanceMeters>
          </Trackpoint>
          <Trackpoint>
            <Time>2020-12-05T10:35:54.000Z</Time>
            <Position>
              <LatitudeDegrees>36.83442176319658756256103515625</LatitudeDegrees>
              <LongitudeDegrees>-4.3826911412179470062255859375</LongitudeDegrees>
            </Position>
            <AltitudeMeters>657</AltitudeMeters>
            <DistanceMeters>NAN</DistanceMeters>
          </Trackpoint>
          <Trackpoint>
            <Time>2020-12-05T10:35:55.000Z</Time>
            <Position>
              <LatitudeDegrees>36.834426708519458770751953125</LatitudeDegrees>
              <LongitudeDegrees>-4.3826958350837230682373046875</LongitudeDegrees>
            </Position>
            <AltitudeMeters>657</AltitudeMeters>
            <DistanceMeters>NAN</DistanceMeters>
          </Trackpoint>
          <Trackpoint>
            <Time>2020-12-05T10:35:56.000Z</Time>
            <Position>
              <LatitudeDegrees>36.8344355933368206024169921875</LatitudeDegrees>
              <LongitudeDegrees>-4.38269809819757938385009765625</LongitudeDegrees>
            </Position>
            <AltitudeMeters>656.79998779296875</AltitudeMeters>
            <DistanceMeters>NAN</DistanceMeters>
          </Trackpoint>
          <Trackpoint>
            <Time>2020-12-05T10:35:57.000Z</Time>
            <Position>
              <LatitudeDegrees>36.83444255031645298004150390625</LatitudeDegrees>
              <LongitudeDegrees>-4.38270178623497486114501953125</LongitudeDegrees>
            </Position>
            <AltitudeMeters>656.5999755859375</AltitudeMeters>
            <DistanceMeters>NAN</DistanceMeters>
          </Trackpoint>
          <Trackpoint>
            <Time>2020-12-05T10:35:58.000Z</Time>
            <Position>
              <LatitudeDegrees>36.834452189505100250244140625</LatitudeDegrees>
              <LongitudeDegrees>-4.38270413316786289215087890625</LongitudeDegrees>
            </Position>
            <AltitudeMeters>656.4000244140625</AltitudeMeters>
            <DistanceMeters>NAN</DistanceMeters>
          </Trackpoint>
          <Trackpoint>
            <Time>2020-12-05T10:35:59.000Z</Time>
            <Position>
              <LatitudeDegrees>36.8344630859792232513427734375</LatitudeDegrees>
              <LongitudeDegrees>-4.38270513899624347686767578125</LongitudeDegrees>
            </Position>
            <AltitudeMeters>656.4000244140625</AltitudeMeters>
            <DistanceMeters>NAN</DistanceMeters>
          </Trackpoint>
          <Trackpoint>
            <Time>2020-12-05T10:36:00.000Z</Time>
            <Position>
              <LatitudeDegrees>36.8344764970242977142333984375</LatitudeDegrees>
              <LongitudeDegrees>-4.38270530663430690765380859375</LongitudeDegrees>
            </Position>
            <AltitudeMeters>656.4000244140625</AltitudeMeters>
            <DistanceMeters>NAN</DistanceMeters>
          </Trackpoint>
          <Trackpoint>
            <Time>2020-12-05T10:36:01.000Z</Time>
            <Position>
              <LatitudeDegrees>36.83449099771678447723388671875</LatitudeDegrees>
              <LongitudeDegrees>-4.382701031863689422607421875</LongitudeDegrees>
            </Position>
            <AltitudeMeters>656.4000244140625</AltitudeMeters>
            <DistanceMeters>NAN</DistanceMeters>
          </Trackpoint>
          <Trackpoint>
            <Time>2020-12-05T10:36:02.000Z</Time>
            <Position>
              <LatitudeDegrees>36.83450675569474697113037109375</LatitudeDegrees>
              <LongitudeDegrees>-4.3826904706656932830810546875</LongitudeDegrees>
            </Position>
            <AltitudeMeters>656.4000244140625</AltitudeMeters>
            <DistanceMeters>NAN</DistanceMeters>
          </Trackpoint>
          <Trackpoint>
            <Time>2020-12-05T10:36:03.000Z</Time>
            <Position>
              <LatitudeDegrees>36.83452033437788486480712890625</LatitudeDegrees>
              <LongitudeDegrees>-4.38268384896218776702880859375</LongitudeDegrees>
            </Position>
            <AltitudeMeters>656.20001220703125</AltitudeMeters>
            <DistanceMeters>NAN</DistanceMeters>
          </Trackpoint>
          <Trackpoint>
            <Time>2020-12-05T10:36:04.000Z</Time>
            <Position>
              <LatitudeDegrees>36.8345311470329761505126953125</LatitudeDegrees>
              <LongitudeDegrees>-4.38267714343965053558349609375</LongitudeDegrees>
            </Position>
            <AltitudeMeters>656</AltitudeMeters>
            <DistanceMeters>NAN</DistanceMeters>
          </Trackpoint>
          <Trackpoint>
            <Time>2020-12-05T10:36:05.000Z</Time>
            <Position>
              <LatitudeDegrees>36.83454128913581371307373046875</LatitudeDegrees>
              <LongitudeDegrees>-4.3826716952025890350341796875</LongitudeDegrees>
            </Position>
            <AltitudeMeters>656</AltitudeMeters>
            <DistanceMeters>NAN</DistanceMeters>
          </Trackpoint>
          <Trackpoint>
            <Time>2020-12-05T10:36:06.000Z</Time>
            <Position>
              <LatitudeDegrees>36.83455084450542926788330078125</LatitudeDegrees>
              <LongitudeDegrees>-4.38266691751778125762939453125</LongitudeDegrees>
            </Position>
            <AltitudeMeters>655.79998779296875</AltitudeMeters>
            <DistanceMeters>NAN</DistanceMeters>
          </Trackpoint>
          <Trackpoint>
            <Time>2020-12-05T10:36:07.000Z</Time>
            <Position>
              <LatitudeDegrees>36.8345599807798862457275390625</LatitudeDegrees>
              <LongitudeDegrees>-4.38266339711844921112060546875</LongitudeDegrees>
            </Position>
            <AltitudeMeters>655.79998779296875</AltitudeMeters>
            <DistanceMeters>NAN</DistanceMeters>
          </Trackpoint>
          <Trackpoint>
            <Time>2020-12-05T10:36:08.000Z</Time>
            <Position>
              <LatitudeDegrees>36.834569536149501800537109375</LatitudeDegrees>
              <LongitudeDegrees>-4.38265979290008544921875</LongitudeDegrees>
            </Position>
            <AltitudeMeters>655.79998779296875</AltitudeMeters>
            <DistanceMeters>NAN</DistanceMeters>
          </Trackpoint>
          <Trackpoint>
            <Time>2020-12-05T10:36:09.000Z</Time>
            <Position>
              <LatitudeDegrees>36.8345787562429904937744140625</LatitudeDegrees>
              <LongitudeDegrees>-4.3826557695865631103515625</LongitudeDegrees>
            </Position>
            <AltitudeMeters>655.79998779296875</AltitudeMeters>
            <DistanceMeters>NAN</DistanceMeters>
          </Trackpoint>
          <Trackpoint>
            <Time>2020-12-05T10:36:10.000Z</Time>
            <Position>
              <LatitudeDegrees>36.8345901556313037872314453125</LatitudeDegrees>
              <LongitudeDegrees>-4.38265149481594562530517578125</LongitudeDegrees>
            </Position>
            <AltitudeMeters>655.5999755859375</AltitudeMeters>
            <DistanceMeters>NAN</DistanceMeters>
          </Trackpoint>
          <Trackpoint>
            <Time>2020-12-05T10:36:11.000Z</Time>
            <Position>
              <LatitudeDegrees>36.8346025608479976654052734375</LatitudeDegrees>
              <LongitudeDegrees>-4.38264830969274044036865234375</LongitudeDegrees>
            </Position>
            <AltitudeMeters>655.4000244140625</AltitudeMeters>
            <DistanceMeters>NAN</DistanceMeters>
          </Trackpoint>
          <Trackpoint>
            <Time>2020-12-05T10:36:12.000Z</Time>
            <Position>
              <LatitudeDegrees>36.834618151187896728515625</LatitudeDegrees>
              <LongitudeDegrees>-4.38264277763664722442626953125</LongitudeDegrees>
            </Position>
            <AltitudeMeters>655.20001220703125</AltitudeMeters>
            <DistanceMeters>NAN</DistanceMeters>
          </Trackpoint>
          <Trackpoint>
            <Time>2020-12-05T10:36:13.000Z</Time>
            <Position>
              <LatitudeDegrees>36.83463214896619319915771484375</LatitudeDegrees>
              <LongitudeDegrees>-4.3826396763324737548828125</LongitudeDegrees>
            </Position>
            <AltitudeMeters>655</AltitudeMeters>
            <DistanceMeters>NAN</DistanceMeters>
          </Trackpoint>
          <Trackpoint>
            <Time>2020-12-05T10:36:14.000Z</Time>
            <Position>
              <LatitudeDegrees>36.834647320210933685302734375</LatitudeDegrees>
              <LongitudeDegrees>-4.3826348148286342620849609375</LongitudeDegrees>
            </Position>
            <AltitudeMeters>655</AltitudeMeters>
            <DistanceMeters>NAN</DistanceMeters>
          </Trackpoint>
          <Trackpoint>
            <Time>2020-12-05T10:36:15.000Z</Time>
            <Position>
              <LatitudeDegrees>36.8346598930656909942626953125</LatitudeDegrees>
              <LongitudeDegrees>-4.38262685202062129974365234375</LongitudeDegrees>
            </Position>
            <AltitudeMeters>655</AltitudeMeters>
            <DistanceMeters>NAN</DistanceMeters>
          </Trackpoint>
          <Trackpoint>
            <Time>2020-12-05T10:36:16.000Z</Time>
            <Position>
              <LatitudeDegrees>36.83467254973948001861572265625</LatitudeDegrees>
              <LongitudeDegrees>-4.38261779956519603729248046875</LongitudeDegrees>
            </Position>
            <AltitudeMeters>655</AltitudeMeters>
            <DistanceMeters>NAN</DistanceMeters>
          </Trackpoint>
          <Trackpoint>
            <Time>2020-12-05T10:36:17.000Z</Time>
            <Position>
              <LatitudeDegrees>36.83468461968004703521728515625</LatitudeDegrees>
              <LongitudeDegrees>-4.38260807655751705169677734375</LongitudeDegrees>
            </Position>
            <AltitudeMeters>654.79998779296875</AltitudeMeters>
            <DistanceMeters>NAN</DistanceMeters>
          </Trackpoint>
          <Trackpoint>
            <Time>2020-12-05T10:36:18.000Z</Time>
            <Position>
              <LatitudeDegrees>36.8346967734396457672119140625</LatitudeDegrees>
              <LongitudeDegrees>-4.38259835354983806610107421875</LongitudeDegrees>
            </Position>
            <AltitudeMeters>654.79998779296875</AltitudeMeters>
            <DistanceMeters>NAN</DistanceMeters>
          </Trackpoint>
          <Trackpoint>
            <Time>2020-12-05T10:36:19.000Z</Time>
            <Position>
              <LatitudeDegrees>36.8347085081040859222412109375</LatitudeDegrees>
              <LongitudeDegrees>-4.3825833499431610107421875</LongitudeDegrees>
            </Position>
            <AltitudeMeters>654.79998779296875</AltitudeMeters>
            <DistanceMeters>NAN</DistanceMeters>
          </Trackpoint>
          <Trackpoint>
            <Time>2020-12-05T10:36:20.000Z</Time>
            <Position>
              <LatitudeDegrees>36.834719069302082061767578125</LatitudeDegrees>
              <LongitudeDegrees>-4.3825717829167842864990234375</LongitudeDegrees>
            </Position>
            <AltitudeMeters>655</AltitudeMeters>
            <DistanceMeters>NAN</DistanceMeters>
          </Trackpoint>
          <Trackpoint>
            <Time>2020-12-05T10:36:21.000Z</Time>
            <Position>
              <LatitudeDegrees>36.83472803793847560882568359375</LatitudeDegrees>
              <LongitudeDegrees>-4.3825592100620269775390625</LongitudeDegrees>
            </Position>
            <AltitudeMeters>655</AltitudeMeters>
            <DistanceMeters>NAN</DistanceMeters>
          </Trackpoint>
          <Trackpoint>
            <Time>2020-12-05T10:36:22.000Z</Time>
            <Position>
              <LatitudeDegrees>36.834736168384552001953125</LatitudeDegrees>
              <LongitudeDegrees>-4.3825496546924114227294921875</LongitudeDegrees>
            </Position>
            <AltitudeMeters>655.20001220703125</AltitudeMeters>
            <DistanceMeters>NAN</DistanceMeters>
          </Trackpoint>
          <Trackpoint>
            <Time>2020-12-05T10:36:23.000Z</Time>
            <Position>
              <LatitudeDegrees>36.83474446646869182586669921875</LatitudeDegrees>
              <LongitudeDegrees>-4.382540769875049591064453125</LongitudeDegrees>
            </Position>
            <AltitudeMeters>655.20001220703125</AltitudeMeters>
            <DistanceMeters>NAN</DistanceMeters>
          </Trackpoint>
          <Trackpoint>
            <Time>2020-12-05T10:36:24.000Z</Time>
            <Position>
              <LatitudeDegrees>36.83475402183830738067626953125</LatitudeDegrees>
              <LongitudeDegrees>-4.382530711591243743896484375</LongitudeDegrees>
            </Position>
            <AltitudeMeters>655.4000244140625</AltitudeMeters>
            <DistanceMeters>NAN</DistanceMeters>
          </Trackpoint>
          <Trackpoint>
            <Time>2020-12-05T10:36:25.000Z</Time>
            <Position>
              <LatitudeDegrees>36.83476240374147891998291015625</LatitudeDegrees>
              <LongitudeDegrees>-4.382523335516452789306640625</LongitudeDegrees>
            </Position>
            <AltitudeMeters>655.5999755859375</AltitudeMeters>
            <DistanceMeters>NAN</DistanceMeters>
          </Trackpoint>
          <Trackpoint>
            <Time>2020-12-05T10:36:26.000Z</Time>
            <Position>
              <LatitudeDegrees>36.8347701989114284515380859375</LatitudeDegrees>
              <LongitudeDegrees>-4.38251721672713756561279296875</LongitudeDegrees>
            </Position>
            <AltitudeMeters>655.5999755859375</AltitudeMeters>
            <DistanceMeters>NAN</DistanceMeters>
          </Trackpoint>
          <Trackpoint>
            <Time>2020-12-05T10:36:27.000Z</Time>
            <Position>
              <LatitudeDegrees>36.8347789160907268524169921875</LatitudeDegrees>
              <LongitudeDegrees>-4.38251160085201263427734375</LongitudeDegrees>
            </Position>
            <AltitudeMeters>655.5999755859375</AltitudeMeters>
            <DistanceMeters>NAN</DistanceMeters>
          </Trackpoint>
          <Trackpoint>
            <Time>2020-12-05T10:36:28.000Z</Time>
            <Position>
              <LatitudeDegrees>36.83478738181293010711669921875</LatitudeDegrees>
              <LongitudeDegrees>-4.382504560053348541259765625</LongitudeDegrees>
            </Position>
            <AltitudeMeters>655.4000244140625</AltitudeMeters>
            <DistanceMeters>NAN</DistanceMeters>
          </Trackpoint>
          <Trackpoint>
            <Time>2020-12-05T10:36:29.000Z</Time>
            <Position>
              <LatitudeDegrees>36.83479492552578449249267578125</LatitudeDegrees>
              <LongitudeDegrees>-4.382500536739826202392578125</LongitudeDegrees>
            </Position>
            <AltitudeMeters>655</AltitudeMeters>
            <DistanceMeters>NAN</DistanceMeters>
          </Trackpoint>
          <Trackpoint>
            <Time>2020-12-05T10:36:30.000Z</Time>
            <Position>
              <LatitudeDegrees>36.83480313979089260101318359375</LatitudeDegrees>
              <LongitudeDegrees>-4.38249886035919189453125</LongitudeDegrees>
            </Position>
            <AltitudeMeters>654.5999755859375</AltitudeMeters>
            <DistanceMeters>NAN</DistanceMeters>
          </Trackpoint>
          <Trackpoint>
            <Time>2020-12-05T10:36:31.000Z</Time>
            <Position>
              <LatitudeDegrees>36.8348144553601741790771484375</LatitudeDegrees>
              <LongitudeDegrees>-4.3824960105121135711669921875</LongitudeDegrees>
            </Position>
            <AltitudeMeters>654.4000244140625</AltitudeMeters>
            <DistanceMeters>NAN</DistanceMeters>
          </Trackpoint>
          <Trackpoint>
            <Time>2020-12-05T10:36:32.000Z</Time>
            <Position>
              <LatitudeDegrees>36.8348292075097560882568359375</LatitudeDegrees>
              <LongitudeDegrees>-4.382493160665035247802734375</LongitudeDegrees>
            </Position>
            <AltitudeMeters>654.20001220703125</AltitudeMeters>
            <DistanceMeters>NAN</DistanceMeters>
          </Trackpoint>
          <Trackpoint>
            <Time>2020-12-05T10:36:33.000Z</Time>
            <Position>
              <LatitudeDegrees>36.83484538458287715911865234375</LatitudeDegrees>
              <LongitudeDegrees>-4.382490478456020355224609375</LongitudeDegrees>
            </Position>
            <AltitudeMeters>654</AltitudeMeters>
            <DistanceMeters>NAN</DistanceMeters>
          </Trackpoint>
          <Trackpoint>
            <Time>2020-12-05T10:36:34.000Z</Time>
            <Position>
              <LatitudeDegrees>36.8348603881895542144775390625</LatitudeDegrees>
              <LongitudeDegrees>-4.38248452730476856231689453125</LongitudeDegrees>
            </Position>
            <AltitudeMeters>653.79998779296875</AltitudeMeters>
            <DistanceMeters>NAN</DistanceMeters>
          </Trackpoint>
          <Trackpoint>
            <Time>2020-12-05T10:36:35.000Z</Time>
            <Position>
              <LatitudeDegrees>36.83487472124397754669189453125</LatitudeDegrees>
              <LongitudeDegrees>-4.38247849233448505401611328125</LongitudeDegrees>
            </Position>
            <AltitudeMeters>653.4000244140625</AltitudeMeters>
            <DistanceMeters>NAN</DistanceMeters>
          </Trackpoint>
          <Trackpoint>
            <Time>2020-12-05T10:36:36.000Z</Time>
            <Position>
              <LatitudeDegrees>36.8348877131938934326171875</LatitudeDegrees>
              <LongitudeDegrees>-4.38247178681194782257080078125</LongitudeDegrees>
            </Position>
            <AltitudeMeters>653.20001220703125</AltitudeMeters>
            <DistanceMeters>NAN</DistanceMeters>
          </Trackpoint>
          <Trackpoint>
            <Time>2020-12-05T10:36:37.000Z</Time>
            <Position>
              <LatitudeDegrees>36.8348986096680164337158203125</LatitudeDegrees>
              <LongitudeDegrees>-4.38246734440326690673828125</LongitudeDegrees>
            </Position>
            <AltitudeMeters>653</AltitudeMeters>
            <DistanceMeters>NAN</DistanceMeters>
          </Trackpoint>
          <Trackpoint>
            <Time>2020-12-05T10:36:38.000Z</Time>
            <Position>
              <LatitudeDegrees>36.8349120207130908966064453125</LatitudeDegrees>
              <LongitudeDegrees>-4.3824621476233005523681640625</LongitudeDegrees>
            </Position>
            <AltitudeMeters>652.79998779296875</AltitudeMeters>
            <DistanceMeters>NAN</DistanceMeters>
          </Trackpoint>
          <Trackpoint>
            <Time>2020-12-05T10:36:39.000Z</Time>
            <Position>
              <LatitudeDegrees>36.83492182753980159759521484375</LatitudeDegrees>
              <LongitudeDegrees>-4.3824564479291439056396484375</LongitudeDegrees>
            </Position>
            <AltitudeMeters>652.5999755859375</AltitudeMeters>
            <DistanceMeters>NAN</DistanceMeters>
          </Trackpoint>
          <Trackpoint>
            <Time>2020-12-05T10:36:40.000Z</Time>
            <Position>
              <LatitudeDegrees>36.8349318020045757293701171875</LatitudeDegrees>
              <LongitudeDegrees>-4.38244991004467010498046875</LongitudeDegrees>
            </Position>
            <AltitudeMeters>652.5999755859375</AltitudeMeters>
            <DistanceMeters>NAN</DistanceMeters>
          </Trackpoint>
          <Trackpoint>
            <Time>2020-12-05T10:36:41.000Z</Time>
            <Position>
              <LatitudeDegrees>36.83494194410741329193115234375</LatitudeDegrees>
              <LongitudeDegrees>-4.38244320452213287353515625</LongitudeDegrees>
            </Position>
            <AltitudeMeters>652.5999755859375</AltitudeMeters>
            <DistanceMeters>NAN</DistanceMeters>
          </Trackpoint>
          <Trackpoint>
            <Time>2020-12-05T10:36:42.000Z</Time>
            <Position>
              <LatitudeDegrees>36.83495133183896541595458984375</LatitudeDegrees>
              <LongitudeDegrees>-4.38243792392313480377197265625</LongitudeDegrees>
            </Position>
            <AltitudeMeters>652.5999755859375</AltitudeMeters>
            <DistanceMeters>NAN</DistanceMeters>
          </Trackpoint>
          <Trackpoint>
            <Time>2020-12-05T10:36:43.000Z</Time>
            <Position>
              <LatitudeDegrees>36.83496004901826381683349609375</LatitudeDegrees>
              <LongitudeDegrees>-4.38243649899959564208984375</LongitudeDegrees>
            </Position>
            <AltitudeMeters>652.4000244140625</AltitudeMeters>
            <DistanceMeters>NAN</DistanceMeters>
          </Trackpoint>
          <Trackpoint>
            <Time>2020-12-05T10:36:44.000Z</Time>
            <Position>
              <LatitudeDegrees>36.83497312478721141815185546875</LatitudeDegrees>
              <LongitudeDegrees>-4.3824410252273082733154296875</LongitudeDegrees>
            </Position>
            <AltitudeMeters>652.5999755859375</AltitudeMeters>
            <DistanceMeters>NAN</DistanceMeters>
          </Trackpoint>
          <Trackpoint>
            <Time>2020-12-05T10:36:45.000Z</Time>
            <Position>
              <LatitudeDegrees>36.8349837698042392730712890625</LatitudeDegrees>
              <LongitudeDegrees>-4.38244177959859371185302734375</LongitudeDegrees>
            </Position>
            <AltitudeMeters>652.5999755859375</AltitudeMeters>
            <DistanceMeters>NAN</DistanceMeters>
          </Trackpoint>
          <Trackpoint>
            <Time>2020-12-05T10:36:46.000Z</Time>
            <Position>
              <LatitudeDegrees>36.83499424718320369720458984375</LatitudeDegrees>
              <LongitudeDegrees>-4.382436163723468780517578125</LongitudeDegrees>
            </Position>
            <AltitudeMeters>652.4000244140625</AltitudeMeters>
            <DistanceMeters>NAN</DistanceMeters>
          </Trackpoint>
          <Trackpoint>
            <Time>2020-12-05T10:36:47.000Z</Time>
            <Position>
              <LatitudeDegrees>36.83500346727669239044189453125</LatitudeDegrees>
              <LongitudeDegrees>-4.38242702744901180267333984375</LongitudeDegrees>
            </Position>
            <AltitudeMeters>652.4000244140625</AltitudeMeters>
            <DistanceMeters>NAN</DistanceMeters>
          </Trackpoint>
          <Trackpoint>
            <Time>2020-12-05T10:36:48.000Z</Time>
            <Position>
              <LatitudeDegrees>36.83501486666500568389892578125</LatitudeDegrees>
              <LongitudeDegrees>-4.38241948373615741729736328125</LongitudeDegrees>
            </Position>
            <AltitudeMeters>652.20001220703125</AltitudeMeters>
            <DistanceMeters>NAN</DistanceMeters>
          </Trackpoint>
          <Trackpoint>
            <Time>2020-12-05T10:36:49.000Z</Time>
            <Position>
              <LatitudeDegrees>36.83502383530139923095703125</LatitudeDegrees>
              <LongitudeDegrees>-4.382411353290081024169921875</LongitudeDegrees>
            </Position>
            <AltitudeMeters>652.20001220703125</AltitudeMeters>
            <DistanceMeters>NAN</DistanceMeters>
          </Trackpoint>
          <Trackpoint>
            <Time>2020-12-05T10:36:50.000Z</Time>
            <Position>
              <LatitudeDegrees>36.8350330553948879241943359375</LatitudeDegrees>
              <LongitudeDegrees>-4.38240322284400463104248046875</LongitudeDegrees>
            </Position>
            <AltitudeMeters>652.20001220703125</AltitudeMeters>
            <DistanceMeters>NAN</DistanceMeters>
          </Trackpoint>
          <Trackpoint>
            <Time>2020-12-05T10:36:51.000Z</Time>
            <Position>
              <LatitudeDegrees>36.83504286222159862518310546875</LatitudeDegrees>
              <LongitudeDegrees>-4.38239199109375476837158203125</LongitudeDegrees>
            </Position>
            <AltitudeMeters>652.20001220703125</AltitudeMeters>
            <DistanceMeters>NAN</DistanceMeters>
          </Trackpoint>
          <Trackpoint>
            <Time>2020-12-05T10:36:52.000Z</Time>
            <Position>
              <LatitudeDegrees>36.8350525014102458953857421875</LatitudeDegrees>
              <LongitudeDegrees>-4.38238059170544147491455078125</LongitudeDegrees>
            </Position>
            <AltitudeMeters>652</AltitudeMeters>
            <DistanceMeters>NAN</DistanceMeters>
          </Trackpoint>
          <Trackpoint>
            <Time>2020-12-05T10:36:53.000Z</Time>
            <Position>
              <LatitudeDegrees>36.835061721503734588623046875</LatitudeDegrees>
              <LongitudeDegrees>-4.382372461259365081787109375</LongitudeDegrees>
            </Position>
            <AltitudeMeters>651.79998779296875</AltitudeMeters>
            <DistanceMeters>NAN</DistanceMeters>
          </Trackpoint>
          <Trackpoint>
            <Time>2020-12-05T10:36:54.000Z</Time>
            <Position>
              <LatitudeDegrees>36.8350729532539844512939453125</LatitudeDegrees>
              <LongitudeDegrees>-4.38236298970878124237060546875</LongitudeDegrees>
            </Position>
            <AltitudeMeters>651.79998779296875</AltitudeMeters>
            <DistanceMeters>NAN</DistanceMeters>
          </Trackpoint>
          <Trackpoint>
            <Time>2020-12-05T10:36:55.000Z</Time>
            <Position>
              <LatitudeDegrees>36.8350877054035663604736328125</LatitudeDegrees>
              <LongitudeDegrees>-4.3823565356433391571044921875</LongitudeDegrees>
            </Position>
            <AltitudeMeters>651.5999755859375</AltitudeMeters>
            <DistanceMeters>NAN</DistanceMeters>
          </Trackpoint>
          <Trackpoint>
            <Time>2020-12-05T10:36:56.000Z</Time>
            <Position>
              <LatitudeDegrees>36.83510069735348224639892578125</LatitudeDegrees>
              <LongitudeDegrees>-4.38234890811145305633544921875</LongitudeDegrees>
            </Position>
            <AltitudeMeters>651.4000244140625</AltitudeMeters>
            <DistanceMeters>NAN</DistanceMeters>
          </Trackpoint>
          <Trackpoint>
            <Time>2020-12-05T10:36:57.000Z</Time>
            <Position>
              <LatitudeDegrees>36.835111342370510101318359375</LatitudeDegrees>
              <LongitudeDegrees>-4.3823437951505184173583984375</LongitudeDegrees>
            </Position>
            <AltitudeMeters>651.4000244140625</AltitudeMeters>
            <DistanceMeters>NAN</DistanceMeters>
          </Trackpoint>
          <Trackpoint>
            <Time>2020-12-05T10:36:58.000Z</Time>
            <Position>
              <LatitudeDegrees>36.835120730102062225341796875</LatitudeDegrees>
              <LongitudeDegrees>-4.38233792781829833984375</LongitudeDegrees>
            </Position>
            <AltitudeMeters>651.4000244140625</AltitudeMeters>
            <DistanceMeters>NAN</DistanceMeters>
          </Trackpoint>
          <Trackpoint>
            <Time>2020-12-05T10:36:59.000Z</Time>
            <Position>
              <LatitudeDegrees>36.83513137511909008026123046875</LatitudeDegrees>
              <LongitudeDegrees>-4.382331557571887969970703125</LongitudeDegrees>
            </Position>
            <AltitudeMeters>651.20001220703125</AltitudeMeters>
            <DistanceMeters>NAN</DistanceMeters>
          </Trackpoint>
          <Trackpoint>
            <Time>2020-12-05T10:37:00.000Z</Time>
            <Position>
              <LatitudeDegrees>36.835140176117420196533203125</LatitudeDegrees>
              <LongitudeDegrees>-4.38232384622097015380859375</LongitudeDegrees>
            </Position>
            <AltitudeMeters>650.79998779296875</AltitudeMeters>
            <DistanceMeters>NAN</DistanceMeters>
          </Trackpoint>
          <Trackpoint>
            <Time>2020-12-05T10:37:01.000Z</Time>
            <Position>
              <LatitudeDegrees>36.8351480551064014434814453125</LatitudeDegrees>
              <LongitudeDegrees>-4.3823152966797351837158203125</LongitudeDegrees>
            </Position>
            <AltitudeMeters>650.4000244140625</AltitudeMeters>
            <DistanceMeters>NAN</DistanceMeters>
          </Trackpoint>
          <Trackpoint>
            <Time>2020-12-05T10:37:02.000Z</Time>
            <Position>
              <LatitudeDegrees>36.835157610476016998291015625</LatitudeDegrees>
              <LongitudeDegrees>-4.38230850733816623687744140625</LongitudeDegrees>
            </Position>
            <AltitudeMeters>650</AltitudeMeters>
            <DistanceMeters>NAN</DistanceMeters>
          </Trackpoint>
          <Trackpoint>
            <Time>2020-12-05T10:37:03.000Z</Time>
            <Position>
              <LatitudeDegrees>36.83516708202660083770751953125</LatitudeDegrees>
              <LongitudeDegrees>-4.38229928724467754364013671875</LongitudeDegrees>
            </Position>
            <AltitudeMeters>649.5999755859375</AltitudeMeters>
            <DistanceMeters>NAN</DistanceMeters>
          </Trackpoint>
          <Trackpoint>
            <Time>2020-12-05T10:37:04.000Z</Time>
            <Position>
              <LatitudeDegrees>36.8351785652339458465576171875</LatitudeDegrees>
              <LongitudeDegrees>-4.382285289466381072998046875</LongitudeDegrees>
            </Position>
            <AltitudeMeters>649.4000244140625</AltitudeMeters>
            <DistanceMeters>NAN</DistanceMeters>
          </Trackpoint>
          <Trackpoint>
            <Time>2020-12-05T10:37:05.000Z</Time>
            <Position>
              <LatitudeDegrees>36.83518820442259311676025390625</LatitudeDegrees>
              <LongitudeDegrees>-4.3822764046490192413330078125</LongitudeDegrees>
            </Position>
            <AltitudeMeters>649.4000244140625</AltitudeMeters>
            <DistanceMeters>NAN</DistanceMeters>
          </Trackpoint>
          <Trackpoint>
            <Time>2020-12-05T10:37:06.000Z</Time>
            <Position>
              <LatitudeDegrees>36.83519658632576465606689453125</LatitudeDegrees>
              <LongitudeDegrees>-4.38227062113583087921142578125</LongitudeDegrees>
            </Position>
            <AltitudeMeters>649.20001220703125</AltitudeMeters>
            <DistanceMeters>NAN</DistanceMeters>
          </Trackpoint>
          <Trackpoint>
            <Time>2020-12-05T10:37:07.000Z</Time>
            <Position>
              <LatitudeDegrees>36.8352053873240947723388671875</LatitudeDegrees>
              <LongitudeDegrees>-4.382263831794261932373046875</LongitudeDegrees>
            </Position>
            <AltitudeMeters>649.20001220703125</AltitudeMeters>
            <DistanceMeters>NAN</DistanceMeters>
          </Trackpoint>
          <Trackpoint>
            <Time>2020-12-05T10:37:08.000Z</Time>
            <Position>
              <LatitudeDegrees>36.8352147750556468963623046875</LatitudeDegrees>
              <LongitudeDegrees>-4.3822572939097881317138671875</LongitudeDegrees>
            </Position>
            <AltitudeMeters>649</AltitudeMeters>
            <DistanceMeters>NAN</DistanceMeters>
          </Trackpoint>
          <Trackpoint>
            <Time>2020-12-05T10:37:09.000Z</Time>
            <Position>
              <LatitudeDegrees>36.8352229893207550048828125</LatitudeDegrees>
              <LongitudeDegrees>-4.3822529353201389312744140625</LongitudeDegrees>
            </Position>
            <AltitudeMeters>649</AltitudeMeters>
            <DistanceMeters>NAN</DistanceMeters>
          </Trackpoint>
          <Trackpoint>
            <Time>2020-12-05T10:37:10.000Z</Time>
            <Position>
              <LatitudeDegrees>36.8352310359477996826171875</LatitudeDegrees>
              <LongitudeDegrees>-4.38224966637790203094482421875</LongitudeDegrees>
            </Position>
            <AltitudeMeters>648.79998779296875</AltitudeMeters>
            <DistanceMeters>NAN</DistanceMeters>
          </Trackpoint>
          <Trackpoint>
            <Time>2020-12-05T10:37:11.000Z</Time>
            <Position>
              <LatitudeDegrees>36.83523832820355892181396484375</LatitudeDegrees>
              <LongitudeDegrees>-4.3822465650737285614013671875</LongitudeDegrees>
            </Position>
            <AltitudeMeters>648.5999755859375</AltitudeMeters>
            <DistanceMeters>NAN</DistanceMeters>
          </Trackpoint>
          <Trackpoint>
            <Time>2020-12-05T10:37:12.000Z</Time>
            <Position>
              <LatitudeDegrees>36.83524587191641330718994140625</LatitudeDegrees>
              <LongitudeDegrees>-4.38224061392247676849365234375</LongitudeDegrees>
            </Position>
            <AltitudeMeters>648.4000244140625</AltitudeMeters>
            <DistanceMeters>NAN</DistanceMeters>
          </Trackpoint>
          <Trackpoint>
            <Time>2020-12-05T10:37:13.000Z</Time>
            <Position>
              <LatitudeDegrees>36.83525425381958484649658203125</LatitudeDegrees>
              <LongitudeDegrees>-4.38223172910511493682861328125</LongitudeDegrees>
            </Position>
            <AltitudeMeters>648.4000244140625</AltitudeMeters>
            <DistanceMeters>NAN</DistanceMeters>
          </Trackpoint>
          <Trackpoint>
            <Time>2020-12-05T10:37:14.000Z</Time>
            <Position>
              <LatitudeDegrees>36.83526255190372467041015625</LatitudeDegrees>
              <LongitudeDegrees>-4.382224939763545989990234375</LongitudeDegrees>
            </Position>
            <AltitudeMeters>648.5999755859375</AltitudeMeters>
            <DistanceMeters>NAN</DistanceMeters>
          </Trackpoint>
          <Trackpoint>
            <Time>2020-12-05T10:37:15.000Z</Time>
            <Position>
              <LatitudeDegrees>36.83526950888335704803466796875</LatitudeDegrees>
              <LongitudeDegrees>-4.38221664167940616607666015625</LongitudeDegrees>
            </Position>
            <AltitudeMeters>648.79998779296875</AltitudeMeters>
            <DistanceMeters>NAN</DistanceMeters>
          </Trackpoint>
          <Trackpoint>
            <Time>2020-12-05T10:37:16.000Z</Time>
            <Position>
              <LatitudeDegrees>36.835272610187530517578125</LatitudeDegrees>
              <LongitudeDegrees>-4.3822105228900909423828125</LongitudeDegrees>
            </Position>
            <AltitudeMeters>648.79998779296875</AltitudeMeters>
            <DistanceMeters>NAN</DistanceMeters>
          </Trackpoint>
          <Trackpoint>
            <Time>2020-12-05T10:37:17.000Z</Time>
            <Position>
              <LatitudeDegrees>36.83527621440589427947998046875</LatitudeDegrees>
              <LongitudeDegrees>-4.38220582902431488037109375</LongitudeDegrees>
            </Position>
            <AltitudeMeters>648.79998779296875</AltitudeMeters>
            <DistanceMeters>NAN</DistanceMeters>
          </Trackpoint>
          <Trackpoint>
            <Time>2020-12-05T10:37:18.000Z</Time>
            <Position>
              <LatitudeDegrees>36.835282333195209503173828125</LatitudeDegrees>
              <LongitudeDegrees>-4.382202140986919403076171875</LongitudeDegrees>
            </Position>
            <AltitudeMeters>649</AltitudeMeters>
            <DistanceMeters>NAN</DistanceMeters>
          </Trackpoint>
          <Trackpoint>
            <Time>2020-12-05T10:37:19.000Z</Time>
            <Position>
              <LatitudeDegrees>36.835289709270000457763671875</LatitudeDegrees>
              <LongitudeDegrees>-4.382201135158538818359375</LongitudeDegrees>
            </Position>
            <AltitudeMeters>649</AltitudeMeters>
            <DistanceMeters>NAN</DistanceMeters>
          </Trackpoint>
          <Trackpoint>
            <Time>2020-12-05T10:37:20.000Z</Time>
            <Position>
              <LatitudeDegrees>36.83529951609671115875244140625</LatitudeDegrees>
              <LongitudeDegrees>-4.38220088370144367218017578125</LongitudeDegrees>
            </Position>
            <AltitudeMeters>649.20001220703125</AltitudeMeters>
            <DistanceMeters>NAN</DistanceMeters>
          </Trackpoint>
          <Trackpoint>
            <Time>2020-12-05T10:37:21.000Z</Time>
            <Position>
              <LatitudeDegrees>36.8353093229234218597412109375</LatitudeDegrees>
              <LongitudeDegrees>-4.3821996264159679412841796875</LongitudeDegrees>
            </Position>
            <AltitudeMeters>649</AltitudeMeters>
            <DistanceMeters>NAN</DistanceMeters>
          </Trackpoint>
          <Trackpoint>
            <Time>2020-12-05T10:37:22.000Z</Time>
            <Position>
              <LatitudeDegrees>36.8353190459311008453369140625</LatitudeDegrees>
              <LongitudeDegrees>-4.38219635747373104095458984375</LongitudeDegrees>
            </Position>
            <AltitudeMeters>649</AltitudeMeters>
            <DistanceMeters>NAN</DistanceMeters>
          </Trackpoint>
          <Trackpoint>
            <Time>2020-12-05T10:37:23.000Z</Time>
            <Position>
              <LatitudeDegrees>36.83533187024295330047607421875</LatitudeDegrees>
              <LongitudeDegrees>-4.38219132833182811737060546875</LongitudeDegrees>
            </Position>
            <AltitudeMeters>648.79998779296875</AltitudeMeters>
            <DistanceMeters>NAN</DistanceMeters>
          </Trackpoint>
          <Trackpoint>
            <Time>2020-12-05T10:37:24.000Z</Time>
            <Position>
              <LatitudeDegrees>36.83534896932542324066162109375</LatitudeDegrees>
              <LongitudeDegrees>-4.382189400494098663330078125</LongitudeDegrees>
            </Position>
            <AltitudeMeters>648.5999755859375</AltitudeMeters>
            <DistanceMeters>NAN</DistanceMeters>
          </Trackpoint>
          <Trackpoint>
            <Time>2020-12-05T10:37:25.000Z</Time>
            <Position>
              <LatitudeDegrees>36.835363470017910003662109375</LatitudeDegrees>
              <LongitudeDegrees>-4.382186718285083770751953125</LongitudeDegrees>
            </Position>
            <AltitudeMeters>648.4000244140625</AltitudeMeters>
            <DistanceMeters>NAN</DistanceMeters>
          </Trackpoint>
          <Trackpoint>
            <Time>2020-12-05T10:37:26.000Z</Time>
            <Position>
              <LatitudeDegrees>36.83537780307233333587646484375</LatitudeDegrees>
              <LongitudeDegrees>-4.38218127004802227020263671875</LongitudeDegrees>
            </Position>
            <AltitudeMeters>648.4000244140625</AltitudeMeters>
            <DistanceMeters>NAN</DistanceMeters>
          </Trackpoint>
          <Trackpoint>
            <Time>2020-12-05T10:37:27.000Z</Time>
            <Position>
              <LatitudeDegrees>36.83539037592709064483642578125</LatitudeDegrees>
              <LongitudeDegrees>-4.3821728043258190155029296875</LongitudeDegrees>
            </Position>
            <AltitudeMeters>648.20001220703125</AltitudeMeters>
            <DistanceMeters>NAN</DistanceMeters>
          </Trackpoint>
          <Trackpoint>
            <Time>2020-12-05T10:37:28.000Z</Time>
            <Position>
              <LatitudeDegrees>36.83540244586765766143798828125</LatitudeDegrees>
              <LongitudeDegrees>-4.382164590060710906982421875</LongitudeDegrees>
            </Position>
            <AltitudeMeters>648.4000244140625</AltitudeMeters>
            <DistanceMeters>NAN</DistanceMeters>
          </Trackpoint>
          <Trackpoint>
            <Time>2020-12-05T10:37:29.000Z</Time>
            <Position>
              <LatitudeDegrees>36.83541434817016124725341796875</LatitudeDegrees>
              <LongitudeDegrees>-4.3821520172059535980224609375</LongitudeDegrees>
            </Position>
            <AltitudeMeters>648.20001220703125</AltitudeMeters>
            <DistanceMeters>NAN</DistanceMeters>
          </Trackpoint>
          <Trackpoint>
            <Time>2020-12-05T10:37:30.000Z</Time>
            <Position>
              <LatitudeDegrees>36.835424490272998809814453125</LatitudeDegrees>
              <LongitudeDegrees>-4.38214371912181377410888671875</LongitudeDegrees>
            </Position>
            <AltitudeMeters>648.20001220703125</AltitudeMeters>
            <DistanceMeters>NAN</DistanceMeters>
          </Trackpoint>
          <Trackpoint>
            <Time>2020-12-05T10:37:31.000Z</Time>
            <Position>
              <LatitudeDegrees>36.83543278835713863372802734375</LatitudeDegrees>
              <LongitudeDegrees>-4.38213684596121311187744140625</LongitudeDegrees>
            </Position>
            <AltitudeMeters>648.20001220703125</AltitudeMeters>
            <DistanceMeters>NAN</DistanceMeters>
          </Trackpoint>
          <Trackpoint>
            <Time>2020-12-05T10:37:32.000Z</Time>
            <Position>
              <LatitudeDegrees>36.83544251136481761932373046875</LatitudeDegrees>
              <LongitudeDegrees>-4.38212980516254901885986328125</LongitudeDegrees>
            </Position>
            <AltitudeMeters>648</AltitudeMeters>
            <DistanceMeters>NAN</DistanceMeters>
          </Trackpoint>
          <Trackpoint>
            <Time>2020-12-05T10:37:33.000Z</Time>
            <Position>
              <LatitudeDegrees>36.83545391075313091278076171875</LatitudeDegrees>
              <LongitudeDegrees>-4.382120668888092041015625</LongitudeDegrees>
            </Position>
            <AltitudeMeters>647.79998779296875</AltitudeMeters>
            <DistanceMeters>NAN</DistanceMeters>
          </Trackpoint>
          <Trackpoint>
            <Time>2020-12-05T10:37:34.000Z</Time>
            <Position>
              <LatitudeDegrees>36.8354635499417781829833984375</LatitudeDegrees>
              <LongitudeDegrees>-4.3821124546229839324951171875</LongitudeDegrees>
            </Position>
            <AltitudeMeters>647.5999755859375</AltitudeMeters>
            <DistanceMeters>NAN</DistanceMeters>
          </Trackpoint>
          <Trackpoint>
            <Time>2020-12-05T10:37:35.000Z</Time>
            <Position>
              <LatitudeDegrees>36.83547310531139373779296875</LatitudeDegrees>
              <LongitudeDegrees>-4.3821067549288272857666015625</LongitudeDegrees>
            </Position>
            <AltitudeMeters>647.5999755859375</AltitudeMeters>
            <DistanceMeters>NAN</DistanceMeters>
          </Trackpoint>
          <Trackpoint>
            <Time>2020-12-05T10:37:36.000Z</Time>
            <Position>
              <LatitudeDegrees>36.8354836665093898773193359375</LatitudeDegrees>
              <LongitudeDegrees>-4.38210264779627323150634765625</LongitudeDegrees>
            </Position>
            <AltitudeMeters>647.5999755859375</AltitudeMeters>
            <DistanceMeters>NAN</DistanceMeters>
          </Trackpoint>
          <Trackpoint>
            <Time>2020-12-05T10:37:37.000Z</Time>
            <Position>
              <LatitudeDegrees>36.8354938924312591552734375</LatitudeDegrees>
              <LongitudeDegrees>-4.38210063613951206207275390625</LongitudeDegrees>
            </Position>
            <AltitudeMeters>647.5999755859375</AltitudeMeters>
            <DistanceMeters>NAN</DistanceMeters>
          </Trackpoint>
          <Trackpoint>
            <Time>2020-12-05T10:37:38.000Z</Time>
            <Position>
              <LatitudeDegrees>36.83550353161990642547607421875</LatitudeDegrees>
              <LongitudeDegrees>-4.3820977024734020233154296875</LongitudeDegrees>
            </Position>
            <AltitudeMeters>647.5999755859375</AltitudeMeters>
            <DistanceMeters>NAN</DistanceMeters>
          </Trackpoint>
          <Trackpoint>
            <Time>2020-12-05T10:37:39.000Z</Time>
            <Position>
              <LatitudeDegrees>36.83551291935145854949951171875</LatitudeDegrees>
              <LongitudeDegrees>-4.38209225423634052276611328125</LongitudeDegrees>
            </Position>
            <AltitudeMeters>647.5999755859375</AltitudeMeters>
            <DistanceMeters>NAN</DistanceMeters>
          </Trackpoint>
          <Trackpoint>
            <Time>2020-12-05T10:37:40.000Z</Time>
            <Position>
              <LatitudeDegrees>36.835521720349788665771484375</LatitudeDegrees>
              <LongitudeDegrees>-4.38208722509443759918212890625</LongitudeDegrees>
            </Position>
            <AltitudeMeters>647.5999755859375</AltitudeMeters>
            <DistanceMeters>NAN</DistanceMeters>
          </Trackpoint>
          <Trackpoint>
            <Time>2020-12-05T10:37:41.000Z</Time>
            <Position>
              <LatitudeDegrees>36.8355299346148967742919921875</LatitudeDegrees>
              <LongitudeDegrees>-4.38208244740962982177734375</LongitudeDegrees>
            </Position>
            <AltitudeMeters>647.5999755859375</AltitudeMeters>
            <DistanceMeters>NAN</DistanceMeters>
          </Trackpoint>
          <Trackpoint>
            <Time>2020-12-05T10:37:42.000Z</Time>
            <Position>
              <LatitudeDegrees>36.83553806506097316741943359375</LatitudeDegrees>
              <LongitudeDegrees>-4.382077418267726898193359375</LongitudeDegrees>
            </Position>
            <AltitudeMeters>647.4000244140625</AltitudeMeters>
            <DistanceMeters>NAN</DistanceMeters>
          </Trackpoint>
          <Trackpoint>
            <Time>2020-12-05T10:37:43.000Z</Time>
            <Position>
              <LatitudeDegrees>36.8355466984212398529052734375</LatitudeDegrees>
              <LongitudeDegrees>-4.38207012601196765899658203125</LongitudeDegrees>
            </Position>
            <AltitudeMeters>647.20001220703125</AltitudeMeters>
            <DistanceMeters>NAN</DistanceMeters>
          </Trackpoint>
          <Trackpoint>
            <Time>2020-12-05T10:37:44.000Z</Time>
            <Position>
              <LatitudeDegrees>36.8355550803244113922119140625</LatitudeDegrees>
              <LongitudeDegrees>-4.38206224702298641204833984375</LongitudeDegrees>
            </Position>
            <AltitudeMeters>647</AltitudeMeters>
            <DistanceMeters>NAN</DistanceMeters>
          </Trackpoint>
          <Trackpoint>
            <Time>2020-12-05T10:37:45.000Z</Time>
            <Position>
              <LatitudeDegrees>36.83556471951305866241455078125</LatitudeDegrees>
              <LongitudeDegrees>-4.38205554150044918060302734375</LongitudeDegrees>
            </Position>
            <AltitudeMeters>646.79998779296875</AltitudeMeters>
            <DistanceMeters>NAN</DistanceMeters>
          </Trackpoint>
          <Trackpoint>
            <Time>2020-12-05T10:37:46.000Z</Time>
            <Position>
              <LatitudeDegrees>36.8355745263397693634033203125</LatitudeDegrees>
              <LongitudeDegrees>-4.3820500932633876800537109375</LongitudeDegrees>
            </Position>
            <AltitudeMeters>646.20001220703125</AltitudeMeters>
            <DistanceMeters>NAN</DistanceMeters>
          </Trackpoint>
          <Trackpoint>
            <Time>2020-12-05T10:37:47.000Z</Time>
            <Position>
              <LatitudeDegrees>36.835584752261638641357421875</LatitudeDegrees>
              <LongitudeDegrees>-4.38204414211213588714599609375</LongitudeDegrees>
            </Position>
            <AltitudeMeters>646</AltitudeMeters>
            <DistanceMeters>NAN</DistanceMeters>
          </Trackpoint>
          <Trackpoint>
            <Time>2020-12-05T10:37:48.000Z</Time>
            <Position>
              <LatitudeDegrees>36.83559841476380825042724609375</LatitudeDegrees>
              <LongitudeDegrees>-4.3820386938750743865966796875</LongitudeDegrees>
            </Position>
            <AltitudeMeters>645.79998779296875</AltitudeMeters>
            <DistanceMeters>NAN</DistanceMeters>
          </Trackpoint>
          <Trackpoint>
            <Time>2020-12-05T10:37:49.000Z</Time>
            <Position>
              <LatitudeDegrees>36.83561098761856555938720703125</LatitudeDegrees>
              <LongitudeDegrees>-4.38203609548509120941162109375</LongitudeDegrees>
            </Position>
            <AltitudeMeters>645.5999755859375</AltitudeMeters>
            <DistanceMeters>NAN</DistanceMeters>
          </Trackpoint>
          <Trackpoint>
            <Time>2020-12-05T10:37:50.000Z</Time>
            <Position>
              <LatitudeDegrees>36.8356231413781642913818359375</LatitudeDegrees>
              <LongitudeDegrees>-4.382034838199615478515625</LongitudeDegrees>
            </Position>
            <AltitudeMeters>645.5999755859375</AltitudeMeters>
            <DistanceMeters>NAN</DistanceMeters>
          </Trackpoint>
          <Trackpoint>
            <Time>2020-12-05T10:37:51.000Z</Time>
            <Position>
              <LatitudeDegrees>36.835636384785175323486328125</LatitudeDegrees>
              <LongitudeDegrees>-4.3820319883525371551513671875</LongitudeDegrees>
            </Position>
            <AltitudeMeters>645.5999755859375</AltitudeMeters>
            <DistanceMeters>NAN</DistanceMeters>
          </Trackpoint>
          <Trackpoint>
            <Time>2020-12-05T10:37:52.000Z</Time>
            <Position>
              <LatitudeDegrees>36.83564954437315464019775390625</LatitudeDegrees>
              <LongitudeDegrees>-4.38203014433383941650390625</LongitudeDegrees>
            </Position>
            <AltitudeMeters>645.5999755859375</AltitudeMeters>
            <DistanceMeters>NAN</DistanceMeters>
          </Trackpoint>
          <Trackpoint>
            <Time>2020-12-05T10:37:53.000Z</Time>
            <Position>
              <LatitudeDegrees>36.83566161431372165679931640625</LatitudeDegrees>
              <LongitudeDegrees>-4.38202888704836368560791015625</LongitudeDegrees>
            </Position>
            <AltitudeMeters>645.5999755859375</AltitudeMeters>
            <DistanceMeters>NAN</DistanceMeters>
          </Trackpoint>
          <Trackpoint>
            <Time>2020-12-05T10:37:54.000Z</Time>
            <Position>
              <LatitudeDegrees>36.8356717564165592193603515625</LatitudeDegrees>
              <LongitudeDegrees>-4.38202855177223682403564453125</LongitudeDegrees>
            </Position>
            <AltitudeMeters>645.4000244140625</AltitudeMeters>
            <DistanceMeters>NAN</DistanceMeters>
          </Trackpoint>
          <Trackpoint>
            <Time>2020-12-05T10:37:55.000Z</Time>
            <Position>
              <LatitudeDegrees>36.8356814794242382049560546875</LatitudeDegrees>
              <LongitudeDegrees>-4.38202938996255397796630859375</LongitudeDegrees>
            </Position>
            <AltitudeMeters>645.4000244140625</AltitudeMeters>
            <DistanceMeters>NAN</DistanceMeters>
          </Trackpoint>
          <Trackpoint>
            <Time>2020-12-05T10:37:56.000Z</Time>
            <Position>
              <LatitudeDegrees>36.83569111861288547515869140625</LatitudeDegrees>
              <LongitudeDegrees>-4.38203006051480770111083984375</LongitudeDegrees>
            </Position>
            <AltitudeMeters>645.4000244140625</AltitudeMeters>
            <DistanceMeters>NAN</DistanceMeters>
          </Trackpoint>
          <Trackpoint>
            <Time>2020-12-05T10:37:57.000Z</Time>
            <Position>
              <LatitudeDegrees>36.83569983579218387603759765625</LatitudeDegrees>
              <LongitudeDegrees>-4.38203207217156887054443359375</LongitudeDegrees>
            </Position>
            <AltitudeMeters>645.20001220703125</AltitudeMeters>
            <DistanceMeters>NAN</DistanceMeters>
          </Trackpoint>
          <Trackpoint>
            <Time>2020-12-05T10:37:58.000Z</Time>
            <Position>
              <LatitudeDegrees>36.8357084691524505615234375</LatitudeDegrees>
              <LongitudeDegrees>-4.38203659839928150177001953125</LongitudeDegrees>
            </Position>
            <AltitudeMeters>645.20001220703125</AltitudeMeters>
            <DistanceMeters>NAN</DistanceMeters>
          </Trackpoint>
          <Trackpoint>
            <Time>2020-12-05T10:37:59.000Z</Time>
            <Position>
              <LatitudeDegrees>36.83571710251271724700927734375</LatitudeDegrees>
              <LongitudeDegrees>-4.38204162754118442535400390625</LongitudeDegrees>
            </Position>
            <AltitudeMeters>645.20001220703125</AltitudeMeters>
            <DistanceMeters>NAN</DistanceMeters>
          </Trackpoint>
          <Trackpoint>
            <Time>2020-12-05T10:38:00.000Z</Time>
            <Position>
              <LatitudeDegrees>36.8357247300446033477783203125</LatitudeDegrees>
              <LongitudeDegrees>-4.38204757869243621826171875</LongitudeDegrees>
            </Position>
            <AltitudeMeters>645.20001220703125</AltitudeMeters>
            <DistanceMeters>NAN</DistanceMeters>
          </Trackpoint>
          <Trackpoint>
            <Time>2020-12-05T10:38:01.000Z</Time>
            <Position>
              <LatitudeDegrees>36.8357304297387599945068359375</LatitudeDegrees>
              <LongitudeDegrees>-4.38205428421497344970703125</LongitudeDegrees>
            </Position>
            <AltitudeMeters>645</AltitudeMeters>
            <DistanceMeters>NAN</DistanceMeters>
          </Trackpoint>
          <Trackpoint>
            <Time>2020-12-05T10:38:02.000Z</Time>
            <Position>
              <LatitudeDegrees>36.8357388116419315338134765625</LatitudeDegrees>
              <LongitudeDegrees>-4.38206023536622524261474609375</LongitudeDegrees>
            </Position>
            <AltitudeMeters>644.5999755859375</AltitudeMeters>
            <DistanceMeters>NAN</DistanceMeters>
          </Trackpoint>
          <Trackpoint>
            <Time>2020-12-05T10:38:03.000Z</Time>
            <Position>
              <LatitudeDegrees>36.83574828319251537322998046875</LatitudeDegrees>
              <LongitudeDegrees>-4.38206543214619159698486328125</LongitudeDegrees>
            </Position>
            <AltitudeMeters>644.4000244140625</AltitudeMeters>
            <DistanceMeters>NAN</DistanceMeters>
          </Trackpoint>
          <Trackpoint>
            <Time>2020-12-05T10:38:04.000Z</Time>
            <Position>
              <LatitudeDegrees>36.83575767092406749725341796875</LatitudeDegrees>
              <LongitudeDegrees>-4.3820705451071262359619140625</LongitudeDegrees>
            </Position>
            <AltitudeMeters>644.4000244140625</AltitudeMeters>
            <DistanceMeters>NAN</DistanceMeters>
          </Trackpoint>
          <Trackpoint>
            <Time>2020-12-05T10:38:05.000Z</Time>
            <Position>
              <LatitudeDegrees>36.835765801370143890380859375</LatitudeDegrees>
              <LongitudeDegrees>-4.38207565806806087493896484375</LongitudeDegrees>
            </Position>
            <AltitudeMeters>644.20001220703125</AltitudeMeters>
            <DistanceMeters>NAN</DistanceMeters>
          </Trackpoint>
          <Trackpoint>
            <Time>2020-12-05T10:38:06.000Z</Time>
            <Position>
              <LatitudeDegrees>36.83577460236847400665283203125</LatitudeDegrees>
              <LongitudeDegrees>-4.3820829503238201141357421875</LongitudeDegrees>
            </Position>
            <AltitudeMeters>644</AltitudeMeters>
            <DistanceMeters>NAN</DistanceMeters>
          </Trackpoint>
          <Trackpoint>
            <Time>2020-12-05T10:38:07.000Z</Time>
            <Position>
              <LatitudeDegrees>36.8357867561280727386474609375</LatitudeDegrees>
              <LongitudeDegrees>-4.38209728337824344635009765625</LongitudeDegrees>
            </Position>
            <AltitudeMeters>644</AltitudeMeters>
            <DistanceMeters>NAN</DistanceMeters>
          </Trackpoint>
          <Trackpoint>
            <Time>2020-12-05T10:38:08.000Z</Time>
            <Position>
              <LatitudeDegrees>36.8357971496880054473876953125</LatitudeDegrees>
              <LongitudeDegrees>-4.38211220316588878631591796875</LongitudeDegrees>
            </Position>
            <AltitudeMeters>643.79998779296875</AltitudeMeters>
            <DistanceMeters>NAN</DistanceMeters>
          </Trackpoint>
          <Trackpoint>
            <Time>2020-12-05T10:38:09.000Z</Time>
            <Position>
              <LatitudeDegrees>36.83580678887665271759033203125</LatitudeDegrees>
              <LongitudeDegrees>-4.38212335109710693359375</LongitudeDegrees>
            </Position>
            <AltitudeMeters>643.5999755859375</AltitudeMeters>
            <DistanceMeters>NAN</DistanceMeters>
          </Trackpoint>
          <Trackpoint>
            <Time>2020-12-05T10:38:10.000Z</Time>
            <Position>
              <LatitudeDegrees>36.8358159251511096954345703125</LatitudeDegrees>
              <LongitudeDegrees>-4.3821308948099613189697265625</LongitudeDegrees>
            </Position>
            <AltitudeMeters>643.5999755859375</AltitudeMeters>
            <DistanceMeters>NAN</DistanceMeters>
          </Trackpoint>
          <Trackpoint>
            <Time>2020-12-05T10:38:11.000Z</Time>
            <Position>
              <LatitudeDegrees>36.835823468863964080810546875</LatitudeDegrees>
              <LongitudeDegrees>-4.3821412883698940277099609375</LongitudeDegrees>
            </Position>
            <AltitudeMeters>643.4000244140625</AltitudeMeters>
            <DistanceMeters>NAN</DistanceMeters>
          </Trackpoint>
          <Trackpoint>
            <Time>2020-12-05T10:38:12.000Z</Time>
            <Position>
              <LatitudeDegrees>36.835828833281993865966796875</LatitudeDegrees>
              <LongitudeDegrees>-4.38215411268174648284912109375</LongitudeDegrees>
            </Position>
            <AltitudeMeters>643.20001220703125</AltitudeMeters>
            <DistanceMeters>NAN</DistanceMeters>
          </Trackpoint>
          <Trackpoint>
            <Time>2020-12-05T10:38:13.000Z</Time>
            <Position>
              <LatitudeDegrees>36.83583411388099193572998046875</LatitudeDegrees>
              <LongitudeDegrees>-4.382163584232330322265625</LongitudeDegrees>
            </Position>
            <AltitudeMeters>643.20001220703125</AltitudeMeters>
            <DistanceMeters>NAN</DistanceMeters>
          </Trackpoint>
          <Trackpoint>
            <Time>2020-12-05T10:38:14.000Z</Time>
            <Position>
              <LatitudeDegrees>36.83584098704159259796142578125</LatitudeDegrees>
              <LongitudeDegrees>-4.38217389397323131561279296875</LongitudeDegrees>
            </Position>
            <AltitudeMeters>643.20001220703125</AltitudeMeters>
            <DistanceMeters>NAN</DistanceMeters>
          </Trackpoint>
          <Trackpoint>
            <Time>2020-12-05T10:38:15.000Z</Time>
            <Position>
              <LatitudeDegrees>36.83584769256412982940673828125</LatitudeDegrees>
              <LongitudeDegrees>-4.382185041904449462890625</LongitudeDegrees>
            </Position>
            <AltitudeMeters>643.20001220703125</AltitudeMeters>
            <DistanceMeters>NAN</DistanceMeters>
          </Trackpoint>
          <Trackpoint>
            <Time>2020-12-05T10:38:16.000Z</Time>
            <Position>
              <LatitudeDegrees>36.83585573919117450714111328125</LatitudeDegrees>
              <LongitudeDegrees>-4.38219753094017505645751953125</LongitudeDegrees>
            </Position>
            <AltitudeMeters>643</AltitudeMeters>
            <DistanceMeters>NAN</DistanceMeters>
          </Trackpoint>
          <Trackpoint>
            <Time>2020-12-05T10:38:17.000Z</Time>
            <Position>
              <LatitudeDegrees>36.835862696170806884765625</LatitudeDegrees>
              <LongitudeDegrees>-4.3822051584720611572265625</LongitudeDegrees>
            </Position>
            <AltitudeMeters>642.79998779296875</AltitudeMeters>
            <DistanceMeters>NAN</DistanceMeters>
          </Trackpoint>
          <Trackpoint>
            <Time>2020-12-05T10:38:18.000Z</Time>
            <Position>
              <LatitudeDegrees>36.83587116189301013946533203125</LatitudeDegrees>
              <LongitudeDegrees>-4.3822103552520275115966796875</LongitudeDegrees>
            </Position>
            <AltitudeMeters>642.79998779296875</AltitudeMeters>
            <DistanceMeters>NAN</DistanceMeters>
          </Trackpoint>
          <Trackpoint>
            <Time>2020-12-05T10:38:19.000Z</Time>
            <Position>
              <LatitudeDegrees>36.8358809687197208404541015625</LatitudeDegrees>
              <LongitudeDegrees>-4.382218234241008758544921875</LongitudeDegrees>
            </Position>
            <AltitudeMeters>642.5999755859375</AltitudeMeters>
            <DistanceMeters>NAN</DistanceMeters>
          </Trackpoint>
          <Trackpoint>
            <Time>2020-12-05T10:38:20.000Z</Time>
            <Position>
              <LatitudeDegrees>36.83589144609868526458740234375</LatitudeDegrees>
              <LongitudeDegrees>-4.3822224251925945281982421875</LongitudeDegrees>
            </Position>
            <AltitudeMeters>642.5999755859375</AltitudeMeters>
            <DistanceMeters>NAN</DistanceMeters>
          </Trackpoint>
          <Trackpoint>
            <Time>2020-12-05T10:38:21.000Z</Time>
            <Position>
              <LatitudeDegrees>36.835899241268634796142578125</LatitudeDegrees>
              <LongitudeDegrees>-4.38222770579159259796142578125</LongitudeDegrees>
            </Position>
            <AltitudeMeters>642.4000244140625</AltitudeMeters>
            <DistanceMeters>NAN</DistanceMeters>
          </Trackpoint>
          <Trackpoint>
            <Time>2020-12-05T10:38:22.000Z</Time>
            <Position>
              <LatitudeDegrees>36.83590401895344257354736328125</LatitudeDegrees>
              <LongitudeDegrees>-4.38223759643733501434326171875</LongitudeDegrees>
            </Position>
            <AltitudeMeters>642.20001220703125</AltitudeMeters>
            <DistanceMeters>NAN</DistanceMeters>
          </Trackpoint>
          <Trackpoint>
            <Time>2020-12-05T10:38:23.000Z</Time>
            <Position>
              <LatitudeDegrees>36.83591030538082122802734375</LatitudeDegrees>
              <LongitudeDegrees>-4.3822479061782360076904296875</LongitudeDegrees>
            </Position>
            <AltitudeMeters>642</AltitudeMeters>
            <DistanceMeters>NAN</DistanceMeters>
          </Trackpoint>
          <Trackpoint>
            <Time>2020-12-05T10:38:24.000Z</Time>
            <Position>
              <LatitudeDegrees>36.83591893874108791351318359375</LatitudeDegrees>
              <LongitudeDegrees>-4.38225838355720043182373046875</LongitudeDegrees>
            </Position>
            <AltitudeMeters>641.5999755859375</AltitudeMeters>
            <DistanceMeters>NAN</DistanceMeters>
          </Trackpoint>
          <Trackpoint>
            <Time>2020-12-05T10:38:25.000Z</Time>
            <Position>
              <LatitudeDegrees>36.83592916466295719146728515625</LatitudeDegrees>
              <LongitudeDegrees>-4.3822713755071163177490234375</LongitudeDegrees>
            </Position>
            <AltitudeMeters>641.20001220703125</AltitudeMeters>
            <DistanceMeters>NAN</DistanceMeters>
          </Trackpoint>
          <Trackpoint>
            <Time>2020-12-05T10:38:26.000Z</Time>
            <Position>
              <LatitudeDegrees>36.83594140224158763885498046875</LatitudeDegrees>
              <LongitudeDegrees>-4.3822896480560302734375</LongitudeDegrees>
            </Position>
            <AltitudeMeters>641</AltitudeMeters>
            <DistanceMeters>NAN</DistanceMeters>
          </Trackpoint>
          <Trackpoint>
            <Time>2020-12-05T10:38:27.000Z</Time>
            <Position>
              <LatitudeDegrees>36.8359530530869960784912109375</LatitudeDegrees>
              <LongitudeDegrees>-4.38230733387172222137451171875</LongitudeDegrees>
            </Position>
            <AltitudeMeters>640.5999755859375</AltitudeMeters>
            <DistanceMeters>NAN</DistanceMeters>
          </Trackpoint>
          <Trackpoint>
            <Time>2020-12-05T10:38:28.000Z</Time>
            <Position>
              <LatitudeDegrees>36.83596185408532619476318359375</LatitudeDegrees>
              <LongitudeDegrees>-4.3823240138590335845947265625</LongitudeDegrees>
            </Position>
            <AltitudeMeters>640.5999755859375</AltitudeMeters>
            <DistanceMeters>NAN</DistanceMeters>
          </Trackpoint>
          <Trackpoint>
            <Time>2020-12-05T10:38:29.000Z</Time>
            <Position>
              <LatitudeDegrees>36.83597191236913204193115234375</LatitudeDegrees>
              <LongitudeDegrees>-4.38234798610210418701171875</LongitudeDegrees>
            </Position>
            <AltitudeMeters>640.5999755859375</AltitudeMeters>
            <DistanceMeters>NAN</DistanceMeters>
          </Trackpoint>
          <Trackpoint>
            <Time>2020-12-05T10:38:30.000Z</Time>
            <Position>
              <LatitudeDegrees>36.8359785340726375579833984375</LatitudeDegrees>
              <LongitudeDegrees>-4.38235980458557605743408203125</LongitudeDegrees>
            </Position>
            <AltitudeMeters>640.5999755859375</AltitudeMeters>
            <DistanceMeters>NAN</DistanceMeters>
          </Trackpoint>
          <Trackpoint>
            <Time>2020-12-05T10:38:31.000Z</Time>
            <Position>
              <LatitudeDegrees>36.8359845690429210662841796875</LatitudeDegrees>
              <LongitudeDegrees>-4.3823763169348239898681640625</LongitudeDegrees>
            </Position>
            <AltitudeMeters>640.5999755859375</AltitudeMeters>
            <DistanceMeters>NAN</DistanceMeters>
          </Trackpoint>
          <Trackpoint>
            <Time>2020-12-05T10:38:32.000Z</Time>
            <Position>
              <LatitudeDegrees>36.835989095270633697509765625</LatitudeDegrees>
              <LongitudeDegrees>-4.382393918931484222412109375</LongitudeDegrees>
            </Position>
            <AltitudeMeters>640.79998779296875</AltitudeMeters>
            <DistanceMeters>NAN</DistanceMeters>
          </Trackpoint>
          <Trackpoint>
            <Time>2020-12-05T10:38:33.000Z</Time>
            <Position>
              <LatitudeDegrees>36.83599219657480716705322265625</LatitudeDegrees>
              <LongitudeDegrees>-4.3824111856520175933837890625</LongitudeDegrees>
            </Position>
            <AltitudeMeters>641</AltitudeMeters>
            <DistanceMeters>NAN</DistanceMeters>
          </Trackpoint>
          <Trackpoint>
            <Time>2020-12-05T10:38:34.000Z</Time>
            <Position>
              <LatitudeDegrees>36.83599370531737804412841796875</LatitudeDegrees>
              <LongitudeDegrees>-4.3824245966970920562744140625</LongitudeDegrees>
            </Position>
            <AltitudeMeters>641.20001220703125</AltitudeMeters>
            <DistanceMeters>NAN</DistanceMeters>
          </Trackpoint>
          <Trackpoint>
            <Time>2020-12-05T10:38:35.000Z</Time>
            <Position>
              <LatitudeDegrees>36.835995130240917205810546875</LatitudeDegrees>
              <LongitudeDegrees>-4.3824403546750545501708984375</LongitudeDegrees>
            </Position>
            <AltitudeMeters>641.20001220703125</AltitudeMeters>
            <DistanceMeters>NAN</DistanceMeters>
          </Trackpoint>
          <Trackpoint>
            <Time>2020-12-05T10:38:36.000Z</Time>
            <Position>
              <LatitudeDegrees>36.8359952978789806365966796875</LatitudeDegrees>
              <LongitudeDegrees>-4.38245435245335102081298828125</LongitudeDegrees>
            </Position>
            <AltitudeMeters>641.20001220703125</AltitudeMeters>
            <DistanceMeters>NAN</DistanceMeters>
          </Trackpoint>
          <Trackpoint>
            <Time>2020-12-05T10:38:37.000Z</Time>
            <Position>
              <LatitudeDegrees>36.83599747717380523681640625</LatitudeDegrees>
              <LongitudeDegrees>-4.38246642239391803741455078125</LongitudeDegrees>
            </Position>
            <AltitudeMeters>641.4000244140625</AltitudeMeters>
            <DistanceMeters>NAN</DistanceMeters>
          </Trackpoint>
          <Trackpoint>
            <Time>2020-12-05T10:38:38.000Z</Time>
            <Position>
              <LatitudeDegrees>36.83600091375410556793212890625</LatitudeDegrees>
              <LongitudeDegrees>-4.38247731886804103851318359375</LongitudeDegrees>
            </Position>
            <AltitudeMeters>641.4000244140625</AltitudeMeters>
            <DistanceMeters>NAN</DistanceMeters>
          </Trackpoint>
          <Trackpoint>
            <Time>2020-12-05T10:38:39.000Z</Time>
            <Position>
              <LatitudeDegrees>36.8360043503344058990478515625</LatitudeDegrees>
              <LongitudeDegrees>-4.382492490112781524658203125</LongitudeDegrees>
            </Position>
            <AltitudeMeters>641.20001220703125</AltitudeMeters>
            <DistanceMeters>NAN</DistanceMeters>
          </Trackpoint>
          <Trackpoint>
            <Time>2020-12-05T10:38:40.000Z</Time>
            <Position>
              <LatitudeDegrees>36.83600879274308681488037109375</LatitudeDegrees>
              <LongitudeDegrees>-4.38250464387238025665283203125</LongitudeDegrees>
            </Position>
            <AltitudeMeters>641.20001220703125</AltitudeMeters>
            <DistanceMeters>NAN</DistanceMeters>
          </Trackpoint>
          <Trackpoint>
            <Time>2020-12-05T10:38:41.000Z</Time>
            <Position>
              <LatitudeDegrees>36.83601214550435543060302734375</LatitudeDegrees>
              <LongitudeDegrees>-4.38251604326069355010986328125</LongitudeDegrees>
            </Position>
            <AltitudeMeters>641</AltitudeMeters>
            <DistanceMeters>NAN</DistanceMeters>
          </Trackpoint>
          <Trackpoint>
            <Time>2020-12-05T10:38:42.000Z</Time>
            <Position>
              <LatitudeDegrees>36.83602002449333667755126953125</LatitudeDegrees>
              <LongitudeDegrees>-4.38252626918256282806396484375</LongitudeDegrees>
            </Position>
            <AltitudeMeters>641</AltitudeMeters>
            <DistanceMeters>NAN</DistanceMeters>
          </Trackpoint>
          <Trackpoint>
            <Time>2020-12-05T10:38:43.000Z</Time>
            <Position>
              <LatitudeDegrees>36.83602890931069850921630859375</LatitudeDegrees>
              <LongitudeDegrees>-4.3825392611324787139892578125</LongitudeDegrees>
            </Position>
            <AltitudeMeters>641</AltitudeMeters>
            <DistanceMeters>NAN</DistanceMeters>
          </Trackpoint>
          <Trackpoint>
            <Time>2020-12-05T10:38:44.000Z</Time>
            <Position>
              <LatitudeDegrees>36.8360331840813159942626953125</LatitudeDegrees>
              <LongitudeDegrees>-4.38255317509174346923828125</LongitudeDegrees>
            </Position>
            <AltitudeMeters>641</AltitudeMeters>
            <DistanceMeters>NAN</DistanceMeters>
          </Trackpoint>
          <Trackpoint>
            <Time>2020-12-05T10:38:45.000Z</Time>
            <Position>
              <LatitudeDegrees>36.83603913523256778717041015625</LatitudeDegrees>
              <LongitudeDegrees>-4.3825645744800567626953125</LongitudeDegrees>
            </Position>
            <AltitudeMeters>640.79998779296875</AltitudeMeters>
            <DistanceMeters>NAN</DistanceMeters>
          </Trackpoint>
          <Trackpoint>
            <Time>2020-12-05T10:38:46.000Z</Time>
            <Position>
              <LatitudeDegrees>36.8360462598502635955810546875</LatitudeDegrees>
              <LongitudeDegrees>-4.38257404603064060211181640625</LongitudeDegrees>
            </Position>
            <AltitudeMeters>640.79998779296875</AltitudeMeters>
            <DistanceMeters>NAN</DistanceMeters>
          </Trackpoint>
          <Trackpoint>
            <Time>2020-12-05T10:38:47.000Z</Time>
            <Position>
              <LatitudeDegrees>36.8360543064773082733154296875</LatitudeDegrees>
              <LongitudeDegrees>-4.3825838528573513031005859375</LongitudeDegrees>
            </Position>
            <AltitudeMeters>640.79998779296875</AltitudeMeters>
            <DistanceMeters>NAN</DistanceMeters>
          </Trackpoint>
          <Trackpoint>
            <Time>2020-12-05T10:38:48.000Z</Time>
            <Position>
              <LatitudeDegrees>36.83606293983757495880126953125</LatitudeDegrees>
              <LongitudeDegrees>-4.38259181566536426544189453125</LongitudeDegrees>
            </Position>
            <AltitudeMeters>640.5999755859375</AltitudeMeters>
            <DistanceMeters>NAN</DistanceMeters>
          </Trackpoint>
          <Trackpoint>
            <Time>2020-12-05T10:38:49.000Z</Time>
            <Position>
              <LatitudeDegrees>36.83606863953173160552978515625</LatitudeDegrees>
              <LongitudeDegrees>-4.38260279595851898193359375</LongitudeDegrees>
            </Position>
            <AltitudeMeters>640.4000244140625</AltitudeMeters>
            <DistanceMeters>NAN</DistanceMeters>
          </Trackpoint>
          <Trackpoint>
            <Time>2020-12-05T10:38:50.000Z</Time>
            <Position>
              <LatitudeDegrees>36.83607718907296657562255859375</LatitudeDegrees>
              <LongitudeDegrees>-4.382613860070705413818359375</LongitudeDegrees>
            </Position>
            <AltitudeMeters>640</AltitudeMeters>
            <DistanceMeters>NAN</DistanceMeters>
          </Trackpoint>
          <Trackpoint>
            <Time>2020-12-05T10:38:51.000Z</Time>
            <Position>
              <LatitudeDegrees>36.836084984242916107177734375</LatitudeDegrees>
              <LongitudeDegrees>-4.3826244212687015533447265625</LongitudeDegrees>
            </Position>
            <AltitudeMeters>639.79998779296875</AltitudeMeters>
            <DistanceMeters>NAN</DistanceMeters>
          </Trackpoint>
          <Trackpoint>
            <Time>2020-12-05T10:38:52.000Z</Time>
            <Position>
              <LatitudeDegrees>36.83609160594642162322998046875</LatitudeDegrees>
              <LongitudeDegrees>-4.38263523392379283905029296875</LongitudeDegrees>
            </Position>
            <AltitudeMeters>639.5999755859375</AltitudeMeters>
            <DistanceMeters>NAN</DistanceMeters>
          </Trackpoint>
          <Trackpoint>
            <Time>2020-12-05T10:38:53.000Z</Time>
            <Position>
              <LatitudeDegrees>36.83609512634575366973876953125</LatitudeDegrees>
              <LongitudeDegrees>-4.3826458789408206939697265625</LongitudeDegrees>
            </Position>
            <AltitudeMeters>639.20001220703125</AltitudeMeters>
            <DistanceMeters>NAN</DistanceMeters>
          </Trackpoint>
          <Trackpoint>
            <Time>2020-12-05T10:38:54.000Z</Time>
            <Position>
              <LatitudeDegrees>36.83609780855476856231689453125</LatitudeDegrees>
              <LongitudeDegrees>-4.3826544284820556640625</LongitudeDegrees>
            </Position>
            <AltitudeMeters>639</AltitudeMeters>
            <DistanceMeters>NAN</DistanceMeters>
          </Trackpoint>
          <Trackpoint>
            <Time>2020-12-05T10:38:55.000Z</Time>
            <Position>
              <LatitudeDegrees>36.836098395287990570068359375</LatitudeDegrees>
              <LongitudeDegrees>-4.38266188837587833404541015625</LongitudeDegrees>
            </Position>
            <AltitudeMeters>638.79998779296875</AltitudeMeters>
            <DistanceMeters>NAN</DistanceMeters>
          </Trackpoint>
          <Trackpoint>
            <Time>2020-12-05T10:38:56.000Z</Time>
            <Position>
              <LatitudeDegrees>36.836098730564117431640625</LatitudeDegrees>
              <LongitudeDegrees>-4.382668174803256988525390625</LongitudeDegrees>
            </Position>
            <AltitudeMeters>638.5999755859375</AltitudeMeters>
            <DistanceMeters>NAN</DistanceMeters>
          </Trackpoint>
          <Trackpoint>
            <Time>2020-12-05T10:38:57.000Z</Time>
            <Position>
              <LatitudeDegrees>36.8360988982021808624267578125</LatitudeDegrees>
              <LongitudeDegrees>-4.3826753832399845123291015625</LongitudeDegrees>
            </Position>
            <AltitudeMeters>638.5999755859375</AltitudeMeters>
            <DistanceMeters>NAN</DistanceMeters>
          </Trackpoint>
          <Trackpoint>
            <Time>2020-12-05T10:38:58.000Z</Time>
            <Position>
              <LatitudeDegrees>36.836098395287990570068359375</LatitudeDegrees>
              <LongitudeDegrees>-4.38268619589507579803466796875</LongitudeDegrees>
            </Position>
            <AltitudeMeters>638.5999755859375</AltitudeMeters>
            <DistanceMeters>NAN</DistanceMeters>
          </Trackpoint>
          <Trackpoint>
            <Time>2020-12-05T10:38:59.000Z</Time>
            <Position>
              <LatitudeDegrees>36.8360955454409122467041015625</LatitudeDegrees>
              <LongitudeDegrees>-4.3826998583972454071044921875</LongitudeDegrees>
            </Position>
            <AltitudeMeters>638.5999755859375</AltitudeMeters>
            <DistanceMeters>NAN</DistanceMeters>
          </Trackpoint>
          <Trackpoint>
            <Time>2020-12-05T10:39:00.000Z</Time>
            <Position>
              <LatitudeDegrees>36.8360988982021808624267578125</LatitudeDegrees>
              <LongitudeDegrees>-4.38270731829106807708740234375</LongitudeDegrees>
            </Position>
            <AltitudeMeters>638.5999755859375</AltitudeMeters>
            <DistanceMeters>NAN</DistanceMeters>
          </Trackpoint>
          <Trackpoint>
            <Time>2020-12-05T10:39:01.000Z</Time>
            <Position>
              <LatitudeDegrees>36.83610401116311550140380859375</LatitudeDegrees>
              <LongitudeDegrees>-4.38271452672779560089111328125</LongitudeDegrees>
            </Position>
            <AltitudeMeters>638.5999755859375</AltitudeMeters>
            <DistanceMeters>NAN</DistanceMeters>
          </Trackpoint>
          <Trackpoint>
            <Time>2020-12-05T10:39:02.000Z</Time>
            <Position>
              <LatitudeDegrees>36.83610954321920871734619140625</LatitudeDegrees>
              <LongitudeDegrees>-4.3827243335545063018798828125</LongitudeDegrees>
            </Position>
            <AltitudeMeters>638.5999755859375</AltitudeMeters>
            <DistanceMeters>NAN</DistanceMeters>
          </Trackpoint>
          <Trackpoint>
            <Time>2020-12-05T10:39:03.000Z</Time>
            <Position>
              <LatitudeDegrees>36.83611675165593624114990234375</LatitudeDegrees>
              <LongitudeDegrees>-4.3827337212860584259033203125</LongitudeDegrees>
            </Position>
            <AltitudeMeters>638.4000244140625</AltitudeMeters>
            <DistanceMeters>NAN</DistanceMeters>
          </Trackpoint>
          <Trackpoint>
            <Time>2020-12-05T10:39:04.000Z</Time>
            <Position>
              <LatitudeDegrees>36.83612965978682041168212890625</LatitudeDegrees>
              <LongitudeDegrees>-4.38275056891143321990966796875</LongitudeDegrees>
            </Position>
            <AltitudeMeters>638.4000244140625</AltitudeMeters>
            <DistanceMeters>NAN</DistanceMeters>
          </Trackpoint>
          <Trackpoint>
            <Time>2020-12-05T10:39:05.000Z</Time>
            <Position>
              <LatitudeDegrees>36.83613971807062625885009765625</LatitudeDegrees>
              <LongitudeDegrees>-4.38276682980358600616455078125</LongitudeDegrees>
            </Position>
            <AltitudeMeters>638.20001220703125</AltitudeMeters>
            <DistanceMeters>NAN</DistanceMeters>
          </Trackpoint>
          <Trackpoint>
            <Time>2020-12-05T10:39:06.000Z</Time>
            <Position>
              <LatitudeDegrees>36.8361481837928295135498046875</LatitudeDegrees>
              <LongitudeDegrees>-4.38278091140091419219970703125</LongitudeDegrees>
            </Position>
            <AltitudeMeters>638</AltitudeMeters>
            <DistanceMeters>NAN</DistanceMeters>
          </Trackpoint>
          <Trackpoint>
            <Time>2020-12-05T10:39:07.000Z</Time>
            <Position>
              <LatitudeDegrees>36.83615840971469879150390625</LatitudeDegrees>
              <LongitudeDegrees>-4.38279365189373493194580078125</LongitudeDegrees>
            </Position>
            <AltitudeMeters>637.79998779296875</AltitudeMeters>
            <DistanceMeters>NAN</DistanceMeters>
          </Trackpoint>
          <Trackpoint>
            <Time>2020-12-05T10:39:08.000Z</Time>
            <Position>
              <LatitudeDegrees>36.83616855181753635406494140625</LatitudeDegrees>
              <LongitudeDegrees>-4.38280706293880939483642578125</LongitudeDegrees>
            </Position>
            <AltitudeMeters>637.5999755859375</AltitudeMeters>
            <DistanceMeters>NAN</DistanceMeters>
          </Trackpoint>
          <Trackpoint>
            <Time>2020-12-05T10:39:09.000Z</Time>
            <Position>
              <LatitudeDegrees>36.83617525734007358551025390625</LatitudeDegrees>
              <LongitudeDegrees>-4.382820390164852142333984375</LongitudeDegrees>
            </Position>
            <AltitudeMeters>637.20001220703125</AltitudeMeters>
            <DistanceMeters>NAN</DistanceMeters>
          </Trackpoint>
          <Trackpoint>
            <Time>2020-12-05T10:39:10.000Z</Time>
            <Position>
              <LatitudeDegrees>36.836182884871959686279296875</LatitudeDegrees>
              <LongitudeDegrees>-4.382839165627956390380859375</LongitudeDegrees>
            </Position>
            <AltitudeMeters>637</AltitudeMeters>
            <DistanceMeters>NAN</DistanceMeters>
          </Trackpoint>
          <Trackpoint>
            <Time>2020-12-05T10:39:11.000Z</Time>
            <Position>
              <LatitudeDegrees>36.83619252406060695648193359375</LatitudeDegrees>
              <LongitudeDegrees>-4.38285836018621921539306640625</LongitudeDegrees>
            </Position>
            <AltitudeMeters>636.79998779296875</AltitudeMeters>
            <DistanceMeters>NAN</DistanceMeters>
          </Trackpoint>
          <Trackpoint>
            <Time>2020-12-05T10:39:12.000Z</Time>
            <Position>
              <LatitudeDegrees>36.83620174415409564971923828125</LatitudeDegrees>
              <LongitudeDegrees>-4.3828731961548328399658203125</LongitudeDegrees>
            </Position>
            <AltitudeMeters>636.5999755859375</AltitudeMeters>
            <DistanceMeters>NAN</DistanceMeters>
          </Trackpoint>
          <Trackpoint>
            <Time>2020-12-05T10:39:13.000Z</Time>
            <Position>
              <LatitudeDegrees>36.83620979078114032745361328125</LatitudeDegrees>
              <LongitudeDegrees>-4.38288417644798755645751953125</LongitudeDegrees>
            </Position>
            <AltitudeMeters>636.4000244140625</AltitudeMeters>
            <DistanceMeters>NAN</DistanceMeters>
          </Trackpoint>
          <Trackpoint>
            <Time>2020-12-05T10:39:14.000Z</Time>
            <Position>
              <LatitudeDegrees>36.83621942996978759765625</LatitudeDegrees>
              <LongitudeDegrees>-4.3828918039798736572265625</LongitudeDegrees>
            </Position>
            <AltitudeMeters>636.4000244140625</AltitudeMeters>
            <DistanceMeters>NAN</DistanceMeters>
          </Trackpoint>
          <Trackpoint>
            <Time>2020-12-05T10:39:15.000Z</Time>
            <Position>
              <LatitudeDegrees>36.83622823096811771392822265625</LatitudeDegrees>
              <LongitudeDegrees>-4.38289641402661800384521484375</LongitudeDegrees>
            </Position>
            <AltitudeMeters>636.4000244140625</AltitudeMeters>
            <DistanceMeters>NAN</DistanceMeters>
          </Trackpoint>
          <Trackpoint>
            <Time>2020-12-05T10:39:16.000Z</Time>
            <Position>
              <LatitudeDegrees>36.83623862452805042266845703125</LatitudeDegrees>
              <LongitudeDegrees>-4.382898509502410888671875</LongitudeDegrees>
            </Position>
            <AltitudeMeters>636.4000244140625</AltitudeMeters>
            <DistanceMeters>NAN</DistanceMeters>
          </Trackpoint>
          <Trackpoint>
            <Time>2020-12-05T10:39:17.000Z</Time>
            <Position>
              <LatitudeDegrees>36.836254633963108062744140625</LatitudeDegrees>
              <LongitudeDegrees>-4.38289649784564971923828125</LongitudeDegrees>
            </Position>
            <AltitudeMeters>636.4000244140625</AltitudeMeters>
            <DistanceMeters>NAN</DistanceMeters>
          </Trackpoint>
          <Trackpoint>
            <Time>2020-12-05T10:39:18.000Z</Time>
            <Position>
              <LatitudeDegrees>36.8362742476165294647216796875</LatitudeDegrees>
              <LongitudeDegrees>-4.38289775513112545013427734375</LongitudeDegrees>
            </Position>
            <AltitudeMeters>636.4000244140625</AltitudeMeters>
            <DistanceMeters>NAN</DistanceMeters>
          </Trackpoint>
          <Trackpoint>
            <Time>2020-12-05T10:39:19.000Z</Time>
            <Position>
              <LatitudeDegrees>36.83629662729799747467041015625</LatitudeDegrees>
              <LongitudeDegrees>-4.38289775513112545013427734375</LongitudeDegrees>
            </Position>
            <AltitudeMeters>636.20001220703125</AltitudeMeters>
            <DistanceMeters>NAN</DistanceMeters>
          </Trackpoint>
          <Trackpoint>
            <Time>2020-12-05T10:39:20.000Z</Time>
            <Position>
              <LatitudeDegrees>36.83632026426494121551513671875</LatitudeDegrees>
              <LongitudeDegrees>-4.38289373181760311126708984375</LongitudeDegrees>
            </Position>
            <AltitudeMeters>636.20001220703125</AltitudeMeters>
            <DistanceMeters>NAN</DistanceMeters>
          </Trackpoint>
          <Trackpoint>
            <Time>2020-12-05T10:39:21.000Z</Time>
            <Position>
              <LatitudeDegrees>36.83633635751903057098388671875</LatitudeDegrees>
              <LongitudeDegrees>-4.3828864395618438720703125</LongitudeDegrees>
            </Position>
            <AltitudeMeters>636.20001220703125</AltitudeMeters>
            <DistanceMeters>NAN</DistanceMeters>
          </Trackpoint>
          <Trackpoint>
            <Time>2020-12-05T10:39:22.000Z</Time>
            <Position>
              <LatitudeDegrees>36.8363473378121852874755859375</LatitudeDegrees>
              <LongitudeDegrees>-4.38287780620157718658447265625</LongitudeDegrees>
            </Position>
            <AltitudeMeters>636.20001220703125</AltitudeMeters>
            <DistanceMeters>NAN</DistanceMeters>
          </Trackpoint>
          <Trackpoint>
            <Time>2020-12-05T10:39:23.000Z</Time>
            <Position>
              <LatitudeDegrees>36.83635848574340343475341796875</LatitudeDegrees>
              <LongitudeDegrees>-4.38286623917520046234130859375</LongitudeDegrees>
            </Position>
            <AltitudeMeters>636.20001220703125</AltitudeMeters>
            <DistanceMeters>NAN</DistanceMeters>
          </Trackpoint>
          <Trackpoint>
            <Time>2020-12-05T10:39:24.000Z</Time>
            <Position>
              <LatitudeDegrees>36.83636988513171672821044921875</LatitudeDegrees>
              <LongitudeDegrees>-4.382852576673030853271484375</LongitudeDegrees>
            </Position>
            <AltitudeMeters>636</AltitudeMeters>
            <DistanceMeters>NAN</DistanceMeters>
          </Trackpoint>
          <Trackpoint>
            <Time>2020-12-05T10:39:25.000Z</Time>
            <Position>
              <LatitudeDegrees>36.83637960813939571380615234375</LatitudeDegrees>
              <LongitudeDegrees>-4.38284159637987613677978515625</LongitudeDegrees>
            </Position>
            <AltitudeMeters>636</AltitudeMeters>
            <DistanceMeters>NAN</DistanceMeters>
          </Trackpoint>
          <Trackpoint>
            <Time>2020-12-05T10:39:26.000Z</Time>
            <Position>
              <LatitudeDegrees>36.8363875709474086761474609375</LatitudeDegrees>
              <LongitudeDegrees>-4.38282986171543598175048828125</LongitudeDegrees>
            </Position>
            <AltitudeMeters>636.20001220703125</AltitudeMeters>
            <DistanceMeters>NAN</DistanceMeters>
          </Trackpoint>
          <Trackpoint>
            <Time>2020-12-05T10:39:27.000Z</Time>
            <Position>
              <LatitudeDegrees>36.83639503084123134613037109375</LatitudeDegrees>
              <LongitudeDegrees>-4.38281737267971038818359375</LongitudeDegrees>
            </Position>
            <AltitudeMeters>636.20001220703125</AltitudeMeters>
            <DistanceMeters>NAN</DistanceMeters>
          </Trackpoint>
          <Trackpoint>
            <Time>2020-12-05T10:39:28.000Z</Time>
            <Position>
              <LatitudeDegrees>36.83639980852603912353515625</LatitudeDegrees>
              <LongitudeDegrees>-4.3828021176159381866455078125</LongitudeDegrees>
            </Position>
            <AltitudeMeters>636</AltitudeMeters>
            <DistanceMeters>NAN</DistanceMeters>
          </Trackpoint>
          <Trackpoint>
            <Time>2020-12-05T10:39:29.000Z</Time>
            <Position>
              <LatitudeDegrees>36.83640039525926113128662109375</LatitudeDegrees>
              <LongitudeDegrees>-4.38278661109507083892822265625</LongitudeDegrees>
            </Position>
            <AltitudeMeters>636</AltitudeMeters>
            <DistanceMeters>NAN</DistanceMeters>
          </Trackpoint>
          <Trackpoint>
            <Time>2020-12-05T10:39:30.000Z</Time>
            <Position>
              <LatitudeDegrees>36.83639888651669025421142578125</LatitudeDegrees>
              <LongitudeDegrees>-4.38277236185967922210693359375</LongitudeDegrees>
            </Position>
            <AltitudeMeters>635.79998779296875</AltitudeMeters>
            <DistanceMeters>NAN</DistanceMeters>
          </Trackpoint>
          <Trackpoint>
            <Time>2020-12-05T10:39:31.000Z</Time>
            <Position>
              <LatitudeDegrees>36.836398132145404815673828125</LatitudeDegrees>
              <LongitudeDegrees>-4.38275509513914585113525390625</LongitudeDegrees>
            </Position>
            <AltitudeMeters>635.5999755859375</AltitudeMeters>
            <DistanceMeters>NAN</DistanceMeters>
          </Trackpoint>
          <Trackpoint>
            <Time>2020-12-05T10:39:32.000Z</Time>
            <Position>
              <LatitudeDegrees>36.8363952822983264923095703125</LatitudeDegrees>
              <LongitudeDegrees>-4.38273648731410503387451171875</LongitudeDegrees>
            </Position>
            <AltitudeMeters>635.4000244140625</AltitudeMeters>
            <DistanceMeters>NAN</DistanceMeters>
          </Trackpoint>
          <Trackpoint>
            <Time>2020-12-05T10:39:33.000Z</Time>
            <Position>
              <LatitudeDegrees>36.8363905884325504302978515625</LatitudeDegrees>
              <LongitudeDegrees>-4.38271653838455677032470703125</LongitudeDegrees>
            </Position>
            <AltitudeMeters>635.4000244140625</AltitudeMeters>
            <DistanceMeters>NAN</DistanceMeters>
          </Trackpoint>
          <Trackpoint>
            <Time>2020-12-05T10:39:34.000Z</Time>
            <Position>
              <LatitudeDegrees>36.83638648129999637603759765625</LatitudeDegrees>
              <LongitudeDegrees>-4.382694661617279052734375</LongitudeDegrees>
            </Position>
            <AltitudeMeters>635.4000244140625</AltitudeMeters>
            <DistanceMeters>NAN</DistanceMeters>
          </Trackpoint>
          <Trackpoint>
            <Time>2020-12-05T10:39:35.000Z</Time>
            <Position>
              <LatitudeDegrees>36.836385391652584075927734375</LatitudeDegrees>
              <LongitudeDegrees>-4.38267747871577739715576171875</LongitudeDegrees>
            </Position>
            <AltitudeMeters>635.5999755859375</AltitudeMeters>
            <DistanceMeters>NAN</DistanceMeters>
          </Trackpoint>
          <Trackpoint>
            <Time>2020-12-05T10:39:36.000Z</Time>
            <Position>
              <LatitudeDegrees>36.83638279326260089874267578125</LatitudeDegrees>
              <LongitudeDegrees>-4.38266172073781490325927734375</LongitudeDegrees>
            </Position>
            <AltitudeMeters>636</AltitudeMeters>
            <DistanceMeters>NAN</DistanceMeters>
          </Trackpoint>
          <Trackpoint>
            <Time>2020-12-05T10:39:37.000Z</Time>
            <Position>
              <LatitudeDegrees>36.83637843467295169830322265625</LatitudeDegrees>
              <LongitudeDegrees>-4.38264445401728153228759765625</LongitudeDegrees>
            </Position>
            <AltitudeMeters>636</AltitudeMeters>
            <DistanceMeters>NAN</DistanceMeters>
          </Trackpoint>
          <Trackpoint>
            <Time>2020-12-05T10:39:38.000Z</Time>
            <Position>
              <LatitudeDegrees>36.8363744951784610748291015625</LatitudeDegrees>
              <LongitudeDegrees>-4.3826291151344776153564453125</LongitudeDegrees>
            </Position>
            <AltitudeMeters>636.20001220703125</AltitudeMeters>
            <DistanceMeters>NAN</DistanceMeters>
          </Trackpoint>
          <Trackpoint>
            <Time>2020-12-05T10:39:39.000Z</Time>
            <Position>
              <LatitudeDegrees>36.83637089096009731292724609375</LatitudeDegrees>
              <LongitudeDegrees>-4.38261411152780055999755859375</LongitudeDegrees>
            </Position>
            <AltitudeMeters>636.20001220703125</AltitudeMeters>
            <DistanceMeters>NAN</DistanceMeters>
          </Trackpoint>
          <Trackpoint>
            <Time>2020-12-05T10:39:40.000Z</Time>
            <Position>
              <LatitudeDegrees>36.83636602945625782012939453125</LatitudeDegrees>
              <LongitudeDegrees>-4.38259801827371120452880859375</LongitudeDegrees>
            </Position>
            <AltitudeMeters>636.20001220703125</AltitudeMeters>
            <DistanceMeters>NAN</DistanceMeters>
          </Trackpoint>
          <Trackpoint>
            <Time>2020-12-05T10:39:41.000Z</Time>
            <Position>
              <LatitudeDegrees>36.8363617546856403350830078125</LatitudeDegrees>
              <LongitudeDegrees>-4.3825811706483364105224609375</LongitudeDegrees>
            </Position>
            <AltitudeMeters>636.20001220703125</AltitudeMeters>
            <DistanceMeters>NAN</DistanceMeters>
          </Trackpoint>
          <Trackpoint>
            <Time>2020-12-05T10:39:42.000Z</Time>
            <Position>
              <LatitudeDegrees>36.836359910666942596435546875</LatitudeDegrees>
              <LongitudeDegrees>-4.38256516121327877044677734375</LongitudeDegrees>
            </Position>
            <AltitudeMeters>636</AltitudeMeters>
            <DistanceMeters>NAN</DistanceMeters>
          </Trackpoint>
          <Trackpoint>
            <Time>2020-12-05T10:39:43.000Z</Time>
            <Position>
              <LatitudeDegrees>36.83635999448597431182861328125</LatitudeDegrees>
              <LongitudeDegrees>-4.3825503252446651458740234375</LongitudeDegrees>
            </Position>
            <AltitudeMeters>635.79998779296875</AltitudeMeters>
            <DistanceMeters>NAN</DistanceMeters>
          </Trackpoint>
          <Trackpoint>
            <Time>2020-12-05T10:39:44.000Z</Time>
            <Position>
              <LatitudeDegrees>36.8363624252378940582275390625</LatitudeDegrees>
              <LongitudeDegrees>-4.3825352378189563751220703125</LongitudeDegrees>
            </Position>
            <AltitudeMeters>635.79998779296875</AltitudeMeters>
            <DistanceMeters>NAN</DistanceMeters>
          </Trackpoint>
          <Trackpoint>
            <Time>2020-12-05T10:39:45.000Z</Time>
            <Position>
              <LatitudeDegrees>36.8363651074469089508056640625</LatitudeDegrees>
              <LongitudeDegrees>-4.38252073712646961212158203125</LongitudeDegrees>
            </Position>
            <AltitudeMeters>635.79998779296875</AltitudeMeters>
            <DistanceMeters>NAN</DistanceMeters>
          </Trackpoint>
          <Trackpoint>
            <Time>2020-12-05T10:39:46.000Z</Time>
            <Position>
              <LatitudeDegrees>36.836366616189479827880859375</LatitudeDegrees>
              <LongitudeDegrees>-4.38250682316720485687255859375</LongitudeDegrees>
            </Position>
            <AltitudeMeters>635.79998779296875</AltitudeMeters>
            <DistanceMeters>NAN</DistanceMeters>
          </Trackpoint>
          <Trackpoint>
            <Time>2020-12-05T10:39:47.000Z</Time>
            <Position>
              <LatitudeDegrees>36.8363681249320507049560546875</LatitudeDegrees>
              <LongitudeDegrees>-4.38249357976019382476806640625</LongitudeDegrees>
            </Position>
            <AltitudeMeters>635.79998779296875</AltitudeMeters>
            <DistanceMeters>NAN</DistanceMeters>
          </Trackpoint>
          <Trackpoint>
            <Time>2020-12-05T10:39:48.000Z</Time>
            <Position>
              <LatitudeDegrees>36.8363691307604312896728515625</LatitudeDegrees>
              <LongitudeDegrees>-4.38247949816286563873291015625</LongitudeDegrees>
            </Position>
            <AltitudeMeters>636</AltitudeMeters>
            <DistanceMeters>NAN</DistanceMeters>
          </Trackpoint>
          <Trackpoint>
            <Time>2020-12-05T10:39:49.000Z</Time>
            <Position>
              <LatitudeDegrees>36.83637022040784358978271484375</LatitudeDegrees>
              <LongitudeDegrees>-4.3824631534516811370849609375</LongitudeDegrees>
            </Position>
            <AltitudeMeters>636</AltitudeMeters>
            <DistanceMeters>NAN</DistanceMeters>
          </Trackpoint>
          <Trackpoint>
            <Time>2020-12-05T10:39:50.000Z</Time>
            <Position>
              <LatitudeDegrees>36.8363708071410655975341796875</LatitudeDegrees>
              <LongitudeDegrees>-4.3824477307498455047607421875</LongitudeDegrees>
            </Position>
            <AltitudeMeters>636.20001220703125</AltitudeMeters>
            <DistanceMeters>NAN</DistanceMeters>
          </Trackpoint>
          <Trackpoint>
            <Time>2020-12-05T10:39:51.000Z</Time>
            <Position>
              <LatitudeDegrees>36.8363698013126850128173828125</LatitudeDegrees>
              <LongitudeDegrees>-4.38243121840059757232666015625</LongitudeDegrees>
            </Position>
            <AltitudeMeters>636.20001220703125</AltitudeMeters>
            <DistanceMeters>NAN</DistanceMeters>
          </Trackpoint>
          <Trackpoint>
            <Time>2020-12-05T10:39:52.000Z</Time>
            <Position>
              <LatitudeDegrees>36.83637005276978015899658203125</LatitudeDegrees>
              <LongitudeDegrees>-4.3824168853461742401123046875</LongitudeDegrees>
            </Position>
            <AltitudeMeters>636.20001220703125</AltitudeMeters>
            <DistanceMeters>NAN</DistanceMeters>
          </Trackpoint>
          <Trackpoint>
            <Time>2020-12-05T10:39:53.000Z</Time>
            <Position>
              <LatitudeDegrees>36.8363711424171924591064453125</LatitudeDegrees>
              <LongitudeDegrees>-4.38240339048206806182861328125</LongitudeDegrees>
            </Position>
            <AltitudeMeters>636</AltitudeMeters>
            <DistanceMeters>NAN</DistanceMeters>
          </Trackpoint>
          <Trackpoint>
            <Time>2020-12-05T10:39:54.000Z</Time>
            <Position>
              <LatitudeDegrees>36.83637374080717563629150390625</LatitudeDegrees>
              <LongitudeDegrees>-4.38239199109375476837158203125</LongitudeDegrees>
            </Position>
            <AltitudeMeters>635.79998779296875</AltitudeMeters>
            <DistanceMeters>NAN</DistanceMeters>
          </Trackpoint>
          <Trackpoint>
            <Time>2020-12-05T10:39:55.000Z</Time>
            <Position>
              <LatitudeDegrees>36.83637424372136592864990234375</LatitudeDegrees>
              <LongitudeDegrees>-4.38237573020160198211669921875</LongitudeDegrees>
            </Position>
            <AltitudeMeters>635.79998779296875</AltitudeMeters>
            <DistanceMeters>NAN</DistanceMeters>
          </Trackpoint>
          <Trackpoint>
            <Time>2020-12-05T10:39:56.000Z</Time>
            <Position>
              <LatitudeDegrees>36.836370639503002166748046875</LatitudeDegrees>
              <LongitudeDegrees>-4.3823578767478466033935546875</LongitudeDegrees>
            </Position>
            <AltitudeMeters>635.79998779296875</AltitudeMeters>
            <DistanceMeters>NAN</DistanceMeters>
          </Trackpoint>
          <Trackpoint>
            <Time>2020-12-05T10:39:57.000Z</Time>
            <Position>
              <LatitudeDegrees>36.83636770583689212799072265625</LatitudeDegrees>
              <LongitudeDegrees>-4.38234237022697925567626953125</LongitudeDegrees>
            </Position>
            <AltitudeMeters>635.5999755859375</AltitudeMeters>
            <DistanceMeters>NAN</DistanceMeters>
          </Trackpoint>
          <Trackpoint>
            <Time>2020-12-05T10:39:58.000Z</Time>
            <Position>
              <LatitudeDegrees>36.83636493980884552001953125</LatitudeDegrees>
              <LongitudeDegrees>-4.38232786953449249267578125</LongitudeDegrees>
            </Position>
            <AltitudeMeters>635.5999755859375</AltitudeMeters>
            <DistanceMeters>NAN</DistanceMeters>
          </Trackpoint>
          <Trackpoint>
            <Time>2020-12-05T10:39:59.000Z</Time>
            <Position>
              <LatitudeDegrees>36.83636150322854518890380859375</LatitudeDegrees>
              <LongitudeDegrees>-4.38231236301362514495849609375</LongitudeDegrees>
            </Position>
            <AltitudeMeters>635.5999755859375</AltitudeMeters>
            <DistanceMeters>NAN</DistanceMeters>
          </Trackpoint>
          <Trackpoint>
            <Time>2020-12-05T10:40:00.000Z</Time>
            <Position>
              <LatitudeDegrees>36.8363597430288791656494140625</LatitudeDegrees>
              <LongitudeDegrees>-4.38229434192180633544921875</LongitudeDegrees>
            </Position>
            <AltitudeMeters>635.5999755859375</AltitudeMeters>
            <DistanceMeters>NAN</DistanceMeters>
          </Trackpoint>
          <Trackpoint>
            <Time>2020-12-05T10:40:01.000Z</Time>
            <Position>
              <LatitudeDegrees>36.83635865338146686553955078125</LatitudeDegrees>
              <LongitudeDegrees>-4.3822700344026088714599609375</LongitudeDegrees>
            </Position>
            <AltitudeMeters>635.5999755859375</AltitudeMeters>
            <DistanceMeters>NAN</DistanceMeters>
          </Trackpoint>
          <Trackpoint>
            <Time>2020-12-05T10:40:02.000Z</Time>
            <Position>
              <LatitudeDegrees>36.83635848574340343475341796875</LatitudeDegrees>
              <LongitudeDegrees>-4.38224564306437969207763671875</LongitudeDegrees>
            </Position>
            <AltitudeMeters>635.79998779296875</AltitudeMeters>
            <DistanceMeters>NAN</DistanceMeters>
          </Trackpoint>
          <Trackpoint>
            <Time>2020-12-05T10:40:03.000Z</Time>
            <Position>
              <LatitudeDegrees>36.83635546825826168060302734375</LatitudeDegrees>
              <LongitudeDegrees>-4.38222301192581653594970703125</LongitudeDegrees>
            </Position>
            <AltitudeMeters>635.79998779296875</AltitudeMeters>
            <DistanceMeters>NAN</DistanceMeters>
          </Trackpoint>
          <Trackpoint>
            <Time>2020-12-05T10:40:04.000Z</Time>
            <Position>
              <LatitudeDegrees>36.836351193487644195556640625</LatitudeDegrees>
              <LongitudeDegrees>-4.38220272772014141082763671875</LongitudeDegrees>
            </Position>
            <AltitudeMeters>635.79998779296875</AltitudeMeters>
            <DistanceMeters>NAN</DistanceMeters>
          </Trackpoint>
          <Trackpoint>
            <Time>2020-12-05T10:40:05.000Z</Time>
            <Position>
              <LatitudeDegrees>36.83634708635509014129638671875</LatitudeDegrees>
              <LongitudeDegrees>-4.38218277879059314727783203125</LongitudeDegrees>
            </Position>
            <AltitudeMeters>635.79998779296875</AltitudeMeters>
            <DistanceMeters>NAN</DistanceMeters>
          </Trackpoint>
          <Trackpoint>
            <Time>2020-12-05T10:40:06.000Z</Time>
            <Position>
              <LatitudeDegrees>36.83634758926928043365478515625</LatitudeDegrees>
              <LongitudeDegrees>-4.38216769136488437652587890625</LongitudeDegrees>
            </Position>
            <AltitudeMeters>635.79998779296875</AltitudeMeters>
            <DistanceMeters>NAN</DistanceMeters>
          </Trackpoint>
          <Trackpoint>
            <Time>2020-12-05T10:40:07.000Z</Time>
            <Position>
              <LatitudeDegrees>36.83634708635509014129638671875</LatitudeDegrees>
              <LongitudeDegrees>-4.38215310685336589813232421875</LongitudeDegrees>
            </Position>
            <AltitudeMeters>635.79998779296875</AltitudeMeters>
            <DistanceMeters>NAN</DistanceMeters>
          </Trackpoint>
          <Trackpoint>
            <Time>2020-12-05T10:40:08.000Z</Time>
            <Position>
              <LatitudeDegrees>36.83634993620216846466064453125</LatitudeDegrees>
              <LongitudeDegrees>-4.38214338384568691253662109375</LongitudeDegrees>
            </Position>
            <AltitudeMeters>635.79998779296875</AltitudeMeters>
            <DistanceMeters>NAN</DistanceMeters>
          </Trackpoint>
          <Trackpoint>
            <Time>2020-12-05T10:40:09.000Z</Time>
            <Position>
              <LatitudeDegrees>36.836353875696659088134765625</LatitudeDegrees>
              <LongitudeDegrees>-4.38213265500962734222412109375</LongitudeDegrees>
            </Position>
            <AltitudeMeters>635.79998779296875</AltitudeMeters>
            <DistanceMeters>NAN</DistanceMeters>
          </Trackpoint>
          <Trackpoint>
            <Time>2020-12-05T10:40:10.000Z</Time>
            <Position>
              <LatitudeDegrees>36.83636167086660861968994140625</LatitudeDegrees>
              <LongitudeDegrees>-4.3821107782423496246337890625</LongitudeDegrees>
            </Position>
            <AltitudeMeters>635.79998779296875</AltitudeMeters>
            <DistanceMeters>NAN</DistanceMeters>
          </Trackpoint>
          <Trackpoint>
            <Time>2020-12-05T10:40:11.000Z</Time>
            <Position>
              <LatitudeDegrees>36.83636493980884552001953125</LatitudeDegrees>
              <LongitudeDegrees>-4.3820963613688945770263671875</LongitudeDegrees>
            </Position>
            <AltitudeMeters>635.79998779296875</AltitudeMeters>
            <DistanceMeters>NAN</DistanceMeters>
          </Trackpoint>
          <Trackpoint>
            <Time>2020-12-05T10:40:12.000Z</Time>
            <Position>
              <LatitudeDegrees>36.83636871166527271270751953125</LatitudeDegrees>
              <LongitudeDegrees>-4.38207917846739292144775390625</LongitudeDegrees>
            </Position>
            <AltitudeMeters>635.79998779296875</AltitudeMeters>
            <DistanceMeters>NAN</DistanceMeters>
          </Trackpoint>
          <Trackpoint>
            <Time>2020-12-05T10:40:13.000Z</Time>
            <Position>
              <LatitudeDegrees>36.83637307025492191314697265625</LatitudeDegrees>
              <LongitudeDegrees>-4.38205118291079998016357421875</LongitudeDegrees>
            </Position>
            <AltitudeMeters>636</AltitudeMeters>
            <DistanceMeters>NAN</DistanceMeters>
          </Trackpoint>
          <Trackpoint>
            <Time>2020-12-05T10:40:14.000Z</Time>
            <Position>
              <LatitudeDegrees>36.83637432754039764404296875</LatitudeDegrees>
              <LongitudeDegrees>-4.3820313178002834320068359375</LongitudeDegrees>
            </Position>
            <AltitudeMeters>636</AltitudeMeters>
            <DistanceMeters>NAN</DistanceMeters>
          </Trackpoint>
          <Trackpoint>
            <Time>2020-12-05T10:40:15.000Z</Time>
            <Position>
              <LatitudeDegrees>36.836374662816524505615234375</LatitudeDegrees>
              <LongitudeDegrees>-4.38201581127941608428955078125</LongitudeDegrees>
            </Position>
            <AltitudeMeters>636.20001220703125</AltitudeMeters>
            <DistanceMeters>NAN</DistanceMeters>
          </Trackpoint>
          <Trackpoint>
            <Time>2020-12-05T10:40:16.000Z</Time>
            <Position>
              <LatitudeDegrees>36.8363731540739536285400390625</LatitudeDegrees>
              <LongitudeDegrees>-4.3820038251578807830810546875</LongitudeDegrees>
            </Position>
            <AltitudeMeters>636.4000244140625</AltitudeMeters>
            <DistanceMeters>NAN</DistanceMeters>
          </Trackpoint>
          <Trackpoint>
            <Time>2020-12-05T10:40:17.000Z</Time>
            <Position>
              <LatitudeDegrees>36.836371980607509613037109375</LatitudeDegrees>
              <LongitudeDegrees>-4.38199284486472606658935546875</LongitudeDegrees>
            </Position>
            <AltitudeMeters>636.4000244140625</AltitudeMeters>
            <DistanceMeters>NAN</DistanceMeters>
          </Trackpoint>
          <Trackpoint>
            <Time>2020-12-05T10:40:18.000Z</Time>
            <Position>
              <LatitudeDegrees>36.83636988513171672821044921875</LatitudeDegrees>
              <LongitudeDegrees>-4.38197909854352474212646484375</LongitudeDegrees>
            </Position>
            <AltitudeMeters>636.5999755859375</AltitudeMeters>
            <DistanceMeters>NAN</DistanceMeters>
          </Trackpoint>
          <Trackpoint>
            <Time>2020-12-05T10:40:19.000Z</Time>
            <Position>
              <LatitudeDegrees>36.8363654427230358123779296875</LatitudeDegrees>
              <LongitudeDegrees>-4.38195705413818359375</LongitudeDegrees>
            </Position>
            <AltitudeMeters>636.5999755859375</AltitudeMeters>
            <DistanceMeters>NAN</DistanceMeters>
          </Trackpoint>
          <Trackpoint>
            <Time>2020-12-05T10:40:20.000Z</Time>
            <Position>
              <LatitudeDegrees>36.83636368252336978912353515625</LatitudeDegrees>
              <LongitudeDegrees>-4.38193760812282562255859375</LongitudeDegrees>
            </Position>
            <AltitudeMeters>636.4000244140625</AltitudeMeters>
            <DistanceMeters>NAN</DistanceMeters>
          </Trackpoint>
          <Trackpoint>
            <Time>2020-12-05T10:40:21.000Z</Time>
            <Position>
              <LatitudeDegrees>36.836361251771450042724609375</LatitudeDegrees>
              <LongitudeDegrees>-4.38191724009811878204345703125</LongitudeDegrees>
            </Position>
            <AltitudeMeters>636.20001220703125</AltitudeMeters>
            <DistanceMeters>NAN</DistanceMeters>
          </Trackpoint>
          <Trackpoint>
            <Time>2020-12-05T10:40:22.000Z</Time>
            <Position>
              <LatitudeDegrees>36.8363600783050060272216796875</LatitudeDegrees>
              <LongitudeDegrees>-4.38189963810145854949951171875</LongitudeDegrees>
            </Position>
            <AltitudeMeters>636</AltitudeMeters>
            <DistanceMeters>NAN</DistanceMeters>
          </Trackpoint>
          <Trackpoint>
            <Time>2020-12-05T10:40:23.000Z</Time>
            <Position>
              <LatitudeDegrees>36.836360581219196319580078125</LatitudeDegrees>
              <LongitudeDegrees>-4.38188664615154266357421875</LongitudeDegrees>
            </Position>
            <AltitudeMeters>636</AltitudeMeters>
            <DistanceMeters>NAN</DistanceMeters>
          </Trackpoint>
          <Trackpoint>
            <Time>2020-12-05T10:40:24.000Z</Time>
            <Position>
              <LatitudeDegrees>36.83636116795241832733154296875</LatitudeDegrees>
              <LongitudeDegrees>-4.38187499530613422393798828125</LongitudeDegrees>
            </Position>
            <AltitudeMeters>635.79998779296875</AltitudeMeters>
            <DistanceMeters>NAN</DistanceMeters>
          </Trackpoint>
          <Trackpoint>
            <Time>2020-12-05T10:40:25.000Z</Time>
            <Position>
              <LatitudeDegrees>36.836360581219196319580078125</LatitudeDegrees>
              <LongitudeDegrees>-4.381862170994281768798828125</LongitudeDegrees>
            </Position>
            <AltitudeMeters>635.79998779296875</AltitudeMeters>
            <DistanceMeters>NAN</DistanceMeters>
          </Trackpoint>
          <Trackpoint>
            <Time>2020-12-05T10:40:26.000Z</Time>
            <Position>
              <LatitudeDegrees>36.83636083267629146575927734375</LatitudeDegrees>
              <LongitudeDegrees>-4.3818502686917781829833984375</LongitudeDegrees>
            </Position>
            <AltitudeMeters>635.79998779296875</AltitudeMeters>
            <DistanceMeters>NAN</DistanceMeters>
          </Trackpoint>
          <Trackpoint>
            <Time>2020-12-05T10:40:27.000Z</Time>
            <Position>
              <LatitudeDegrees>36.83636150322854518890380859375</LatitudeDegrees>
              <LongitudeDegrees>-4.3818385340273380279541015625</LongitudeDegrees>
            </Position>
            <AltitudeMeters>635.5999755859375</AltitudeMeters>
            <DistanceMeters>NAN</DistanceMeters>
          </Trackpoint>
          <Trackpoint>
            <Time>2020-12-05T10:40:28.000Z</Time>
            <Position>
              <LatitudeDegrees>36.836365945637226104736328125</LatitudeDegrees>
              <LongitudeDegrees>-4.3818200938403606414794921875</LongitudeDegrees>
            </Position>
            <AltitudeMeters>635.5999755859375</AltitudeMeters>
            <DistanceMeters>NAN</DistanceMeters>
          </Trackpoint>
          <Trackpoint>
            <Time>2020-12-05T10:40:29.000Z</Time>
            <Position>
              <LatitudeDegrees>36.83636854402720928192138671875</LatitudeDegrees>
              <LongitudeDegrees>-4.3818083591759204864501953125</LongitudeDegrees>
            </Position>
            <AltitudeMeters>635.5999755859375</AltitudeMeters>
            <DistanceMeters>NAN</DistanceMeters>
          </Trackpoint>
          <Trackpoint>
            <Time>2020-12-05T10:40:30.000Z</Time>
            <Position>
              <LatitudeDegrees>36.83636686764657497406005859375</LatitudeDegrees>
              <LongitudeDegrees>-4.38180123455822467803955078125</LongitudeDegrees>
            </Position>
            <AltitudeMeters>635.5999755859375</AltitudeMeters>
            <DistanceMeters>NAN</DistanceMeters>
          </Trackpoint>
          <Trackpoint>
            <Time>2020-12-05T10:40:31.000Z</Time>
            <Position>
              <LatitudeDegrees>36.8363656103610992431640625</LatitudeDegrees>
              <LongitudeDegrees>-4.3817993067204952239990234375</LongitudeDegrees>
            </Position>
            <AltitudeMeters>635.5999755859375</AltitudeMeters>
            <DistanceMeters>NAN</DistanceMeters>
          </Trackpoint>
          <Trackpoint>
            <Time>2020-12-05T10:40:32.000Z</Time>
            <Position>
              <LatitudeDegrees>36.836363263428211212158203125</LatitudeDegrees>
              <LongitudeDegrees>-4.3818053416907787322998046875</LongitudeDegrees>
            </Position>
            <AltitudeMeters>635.5999755859375</AltitudeMeters>
            <DistanceMeters>NAN</DistanceMeters>
          </Trackpoint>
          <Trackpoint>
            <Time>2020-12-05T10:40:33.000Z</Time>
            <Position>
              <LatitudeDegrees>36.83635152876377105712890625</LatitudeDegrees>
              <LongitudeDegrees>-4.3818194232881069183349609375</LongitudeDegrees>
            </Position>
            <AltitudeMeters>635.5999755859375</AltitudeMeters>
            <DistanceMeters>NAN</DistanceMeters>
          </Trackpoint>
          <Trackpoint>
            <Time>2020-12-05T10:40:34.000Z</Time>
            <Position>
              <LatitudeDegrees>36.8363476730883121490478515625</LatitudeDegrees>
              <LongitudeDegrees>-4.38181833364069461822509765625</LongitudeDegrees>
            </Position>
            <AltitudeMeters>635.5999755859375</AltitudeMeters>
            <DistanceMeters>NAN</DistanceMeters>
          </Trackpoint>
          <Trackpoint>
            <Time>2020-12-05T10:40:35.000Z</Time>
            <Position>
              <LatitudeDegrees>36.83634691871702671051025390625</LatitudeDegrees>
              <LongitudeDegrees>-4.38181783072650432586669921875</LongitudeDegrees>
            </Position>
            <AltitudeMeters>635.4000244140625</AltitudeMeters>
            <DistanceMeters>NAN</DistanceMeters>
          </Trackpoint>
          <Trackpoint>
            <Time>2020-12-05T10:40:36.000Z</Time>
            <Position>
              <LatitudeDegrees>36.8363456614315509796142578125</LatitudeDegrees>
              <LongitudeDegrees>-4.38181959092617034912109375</LongitudeDegrees>
            </Position>
            <AltitudeMeters>635.4000244140625</AltitudeMeters>
            <DistanceMeters>NAN</DistanceMeters>
          </Trackpoint>
          <Trackpoint>
            <Time>2020-12-05T10:40:37.000Z</Time>
            <Position>
              <LatitudeDegrees>36.83634323067963123321533203125</LatitudeDegrees>
              <LongitudeDegrees>-4.381821267306804656982421875</LongitudeDegrees>
            </Position>
            <AltitudeMeters>635.4000244140625</AltitudeMeters>
            <DistanceMeters>NAN</DistanceMeters>
          </Trackpoint>
          <Trackpoint>
            <Time>2020-12-05T10:40:38.000Z</Time>
            <Position>
              <LatitudeDegrees>36.836337111890316009521484375</LatitudeDegrees>
              <LongitudeDegrees>-4.381817243993282318115234375</LongitudeDegrees>
            </Position>
            <AltitudeMeters>635.4000244140625</AltitudeMeters>
            <DistanceMeters>NAN</DistanceMeters>
          </Trackpoint>
          <Trackpoint>
            <Time>2020-12-05T10:40:39.000Z</Time>
            <Position>
              <LatitudeDegrees>36.83633409440517425537109375</LatitudeDegrees>
              <LongitudeDegrees>-4.3818153999745845794677734375</LongitudeDegrees>
            </Position>
            <AltitudeMeters>635.4000244140625</AltitudeMeters>
            <DistanceMeters>NAN</DistanceMeters>
          </Trackpoint>
          <Trackpoint>
            <Time>2020-12-05T10:40:40.000Z</Time>
            <Position>
              <LatitudeDegrees>36.8363295681774616241455078125</LatitudeDegrees>
              <LongitudeDegrees>-4.3818123824894428253173828125</LongitudeDegrees>
            </Position>
            <AltitudeMeters>635.4000244140625</AltitudeMeters>
            <DistanceMeters>NAN</DistanceMeters>
          </Trackpoint>
          <Trackpoint>
            <Time>2020-12-05T10:40:41.000Z</Time>
            <Position>
              <LatitudeDegrees>36.83632328175008296966552734375</LatitudeDegrees>
              <LongitudeDegrees>-4.38180844299495220184326171875</LongitudeDegrees>
            </Position>
            <AltitudeMeters>635.20001220703125</AltitudeMeters>
            <DistanceMeters>NAN</DistanceMeters>
          </Trackpoint>
          <Trackpoint>
            <Time>2020-12-05T10:40:42.000Z</Time>
            <Position>
              <LatitudeDegrees>36.83631573803722858428955078125</LatitudeDegrees>
              <LongitudeDegrees>-4.3818143941462039947509765625</LongitudeDegrees>
            </Position>
            <AltitudeMeters>635.4000244140625</AltitudeMeters>
            <DistanceMeters>NAN</DistanceMeters>
          </Trackpoint>
          <Trackpoint>
            <Time>2020-12-05T10:40:43.000Z</Time>
            <Position>
              <LatitudeDegrees>36.8363174982368946075439453125</LatitudeDegrees>
              <LongitudeDegrees>-4.38179813325405120849609375</LongitudeDegrees>
            </Position>
            <AltitudeMeters>635.20001220703125</AltitudeMeters>
            <DistanceMeters>NAN</DistanceMeters>
          </Trackpoint>
          <Trackpoint>
            <Time>2020-12-05T10:40:44.000Z</Time>
            <Position>
              <LatitudeDegrees>36.8363164924085140228271484375</LatitudeDegrees>
              <LongitudeDegrees>-4.381782375276088714599609375</LongitudeDegrees>
            </Position>
            <AltitudeMeters>635.20001220703125</AltitudeMeters>
            <DistanceMeters>NAN</DistanceMeters>
          </Trackpoint>
          <Trackpoint>
            <Time>2020-12-05T10:40:45.000Z</Time>
            <Position>
              <LatitudeDegrees>36.83631666004657745361328125</LatitudeDegrees>
              <LongitudeDegrees>-4.3817734904587268829345703125</LongitudeDegrees>
            </Position>
            <AltitudeMeters>635.4000244140625</AltitudeMeters>
            <DistanceMeters>NAN</DistanceMeters>
          </Trackpoint>
          <Trackpoint>
            <Time>2020-12-05T10:40:46.000Z</Time>
            <Position>
              <LatitudeDegrees>36.8363117985427379608154296875</LatitudeDegrees>
              <LongitudeDegrees>-4.381764270365238189697265625</LongitudeDegrees>
            </Position>
            <AltitudeMeters>635.4000244140625</AltitudeMeters>
            <DistanceMeters>NAN</DistanceMeters>
          </Trackpoint>
          <Trackpoint>
            <Time>2020-12-05T10:40:47.000Z</Time>
            <Position>
              <LatitudeDegrees>36.83630366809666156768798828125</LatitudeDegrees>
              <LongitudeDegrees>-4.38175982795655727386474609375</LongitudeDegrees>
            </Position>
            <AltitudeMeters>635.4000244140625</AltitudeMeters>
            <DistanceMeters>NAN</DistanceMeters>
          </Trackpoint>
          <Trackpoint>
            <Time>2020-12-05T10:40:48.000Z</Time>
            <Position>
              <LatitudeDegrees>36.83630048297345638275146484375</LatitudeDegrees>
              <LongitudeDegrees>-4.38175982795655727386474609375</LongitudeDegrees>
            </Position>
            <AltitudeMeters>635.4000244140625</AltitudeMeters>
            <DistanceMeters>NAN</DistanceMeters>
          </Trackpoint>
          <Trackpoint>
            <Time>2020-12-05T10:40:49.000Z</Time>
            <Position>
              <LatitudeDegrees>36.83630056679248809814453125</LatitudeDegrees>
              <LongitudeDegrees>-4.3817567266523838043212890625</LongitudeDegrees>
            </Position>
            <AltitudeMeters>635.4000244140625</AltitudeMeters>
            <DistanceMeters>NAN</DistanceMeters>
          </Trackpoint>
          <Trackpoint>
            <Time>2020-12-05T10:40:50.000Z</Time>
            <Position>
              <LatitudeDegrees>36.83630132116377353668212890625</LatitudeDegrees>
              <LongitudeDegrees>-4.38175898976624011993408203125</LongitudeDegrees>
            </Position>
            <AltitudeMeters>635.4000244140625</AltitudeMeters>
            <DistanceMeters>NAN</DistanceMeters>
          </Trackpoint>
          <Trackpoint>
            <Time>2020-12-05T10:40:51.000Z</Time>
            <Position>
              <LatitudeDegrees>36.83630048297345638275146484375</LatitudeDegrees>
              <LongitudeDegrees>-4.381768293678760528564453125</LongitudeDegrees>
            </Position>
            <AltitudeMeters>635.5999755859375</AltitudeMeters>
            <DistanceMeters>NAN</DistanceMeters>
          </Trackpoint>
          <Trackpoint>
            <Time>2020-12-05T10:40:52.000Z</Time>
            <Position>
              <LatitudeDegrees>36.8362983874976634979248046875</LatitudeDegrees>
              <LongitudeDegrees>-4.38177608884871006011962890625</LongitudeDegrees>
            </Position>
            <AltitudeMeters>635.5999755859375</AltitudeMeters>
            <DistanceMeters>NAN</DistanceMeters>
          </Trackpoint>
          <Trackpoint>
            <Time>2020-12-05T10:40:53.000Z</Time>
            <Position>
              <LatitudeDegrees>36.83629813604056835174560546875</LatitudeDegrees>
              <LongitudeDegrees>-4.38178279437124729156494140625</LongitudeDegrees>
            </Position>
            <AltitudeMeters>635.5999755859375</AltitudeMeters>
            <DistanceMeters>NAN</DistanceMeters>
          </Trackpoint>
          <Trackpoint>
            <Time>2020-12-05T10:40:54.000Z</Time>
            <Position>
              <LatitudeDegrees>36.83630031533539295196533203125</LatitudeDegrees>
              <LongitudeDegrees>-4.38178614713251590728759765625</LongitudeDegrees>
            </Position>
            <AltitudeMeters>635.5999755859375</AltitudeMeters>
            <DistanceMeters>NAN</DistanceMeters>
          </Trackpoint>
          <Trackpoint>
            <Time>2020-12-05T10:40:55.000Z</Time>
            <Position>
              <LatitudeDegrees>36.83630190789699554443359375</LatitudeDegrees>
              <LongitudeDegrees>-4.3817912600934505462646484375</LongitudeDegrees>
            </Position>
            <AltitudeMeters>635.5999755859375</AltitudeMeters>
            <DistanceMeters>NAN</DistanceMeters>
          </Trackpoint>
          <Trackpoint>
            <Time>2020-12-05T10:40:56.000Z</Time>
            <Position>
              <LatitudeDegrees>36.83630852960050106048583984375</LatitudeDegrees>
              <LongitudeDegrees>-4.381811879575252532958984375</LongitudeDegrees>
            </Position>
            <AltitudeMeters>635.5999755859375</AltitudeMeters>
            <DistanceMeters>NAN</DistanceMeters>
          </Trackpoint>
          <Trackpoint>
            <Time>2020-12-05T10:40:57.000Z</Time>
            <Position>
              <LatitudeDegrees>36.83631934225559234619140625</LatitudeDegrees>
              <LongitudeDegrees>-4.3818281404674053192138671875</LongitudeDegrees>
            </Position>
            <AltitudeMeters>635.4000244140625</AltitudeMeters>
            <DistanceMeters>NAN</DistanceMeters>
          </Trackpoint>
          <Trackpoint>
            <Time>2020-12-05T10:40:58.000Z</Time>
            <Position>
              <LatitudeDegrees>36.836326383054256439208984375</LatitudeDegrees>
              <LongitudeDegrees>-4.3818323314189910888671875</LongitudeDegrees>
            </Position>
            <AltitudeMeters>635.20001220703125</AltitudeMeters>
            <DistanceMeters>NAN</DistanceMeters>
          </Trackpoint>
          <Trackpoint>
            <Time>2020-12-05T10:40:59.000Z</Time>
            <Position>
              <LatitudeDegrees>36.836330406367778778076171875</LatitudeDegrees>
              <LongitudeDegrees>-4.3818324990570545196533203125</LongitudeDegrees>
            </Position>
            <AltitudeMeters>635</AltitudeMeters>
            <DistanceMeters>NAN</DistanceMeters>
          </Trackpoint>
          <Trackpoint>
            <Time>2020-12-05T10:41:00.000Z</Time>
            <Position>
              <LatitudeDegrees>36.83633518405258655548095703125</LatitudeDegrees>
              <LongitudeDegrees>-4.38183157704770565032958984375</LongitudeDegrees>
            </Position>
            <AltitudeMeters>635</AltitudeMeters>
            <DistanceMeters>NAN</DistanceMeters>
          </Trackpoint>
          <Trackpoint>
            <Time>2020-12-05T10:41:01.000Z</Time>
            <Position>
              <LatitudeDegrees>36.83634088374674320220947265625</LatitudeDegrees>
              <LongitudeDegrees>-4.38183023594319820404052734375</LongitudeDegrees>
            </Position>
            <AltitudeMeters>635</AltitudeMeters>
            <DistanceMeters>NAN</DistanceMeters>
          </Trackpoint>
          <Trackpoint>
            <Time>2020-12-05T10:41:02.000Z</Time>
            <Position>
              <LatitudeDegrees>36.83634557761251926422119140625</LatitudeDegrees>
              <LongitudeDegrees>-4.38183300197124481201171875</LongitudeDegrees>
            </Position>
            <AltitudeMeters>634.79998779296875</AltitudeMeters>
            <DistanceMeters>NAN</DistanceMeters>
          </Trackpoint>
          <Trackpoint>
            <Time>2020-12-05T10:41:03.000Z</Time>
            <Position>
              <LatitudeDegrees>36.83635194785892963409423828125</LatitudeDegrees>
              <LongitudeDegrees>-4.38183677382767200469970703125</LongitudeDegrees>
            </Position>
            <AltitudeMeters>635</AltitudeMeters>
            <DistanceMeters>NAN</DistanceMeters>
          </Trackpoint>
          <Trackpoint>
            <Time>2020-12-05T10:41:04.000Z</Time>
            <Position>
              <LatitudeDegrees>36.8363600783050060272216796875</LatitudeDegrees>
              <LongitudeDegrees>-4.3818323314189910888671875</LongitudeDegrees>
            </Position>
            <AltitudeMeters>635</AltitudeMeters>
            <DistanceMeters>NAN</DistanceMeters>
          </Trackpoint>
          <Trackpoint>
            <Time>2020-12-05T10:41:05.000Z</Time>
            <Position>
              <LatitudeDegrees>36.836366951465606689453125</LatitudeDegrees>
              <LongitudeDegrees>-4.3818234466016292572021484375</LongitudeDegrees>
            </Position>
            <AltitudeMeters>635</AltitudeMeters>
            <DistanceMeters>NAN</DistanceMeters>
          </Trackpoint>
          <Trackpoint>
            <Time>2020-12-05T10:41:06.000Z</Time>
            <Position>
              <LatitudeDegrees>36.836374662816524505615234375</LatitudeDegrees>
              <LongitudeDegrees>-4.38181347213685512542724609375</LongitudeDegrees>
            </Position>
            <AltitudeMeters>635</AltitudeMeters>
            <DistanceMeters>NAN</DistanceMeters>
          </Trackpoint>
          <Trackpoint>
            <Time>2020-12-05T10:41:07.000Z</Time>
            <Position>
              <LatitudeDegrees>36.83638279326260089874267578125</LatitudeDegrees>
              <LongitudeDegrees>-4.38180458731949329376220703125</LongitudeDegrees>
            </Position>
            <AltitudeMeters>635</AltitudeMeters>
            <DistanceMeters>NAN</DistanceMeters>
          </Trackpoint>
          <Trackpoint>
            <Time>2020-12-05T10:41:08.000Z</Time>
            <Position>
              <LatitudeDegrees>36.83638799004256725311279296875</LatitudeDegrees>
              <LongitudeDegrees>-4.3817974627017974853515625</LongitudeDegrees>
            </Position>
            <AltitudeMeters>635</AltitudeMeters>
            <DistanceMeters>NAN</DistanceMeters>
          </Trackpoint>
          <Trackpoint>
            <Time>2020-12-05T10:41:09.000Z</Time>
            <Position>
              <LatitudeDegrees>36.83639469556510448455810546875</LatitudeDegrees>
              <LongitudeDegrees>-4.38179276883602142333984375</LongitudeDegrees>
            </Position>
            <AltitudeMeters>635</AltitudeMeters>
            <DistanceMeters>NAN</DistanceMeters>
          </Trackpoint>
          <Trackpoint>
            <Time>2020-12-05T10:41:10.000Z</Time>
            <Position>
              <LatitudeDegrees>36.836400814354419708251953125</LatitudeDegrees>
              <LongitudeDegrees>-4.38179385848343372344970703125</LongitudeDegrees>
            </Position>
            <AltitudeMeters>634.79998779296875</AltitudeMeters>
            <DistanceMeters>NAN</DistanceMeters>
          </Trackpoint>
          <Trackpoint>
            <Time>2020-12-05T10:41:11.000Z</Time>
            <Position>
              <LatitudeDegrees>36.8364058434963226318359375</LatitudeDegrees>
              <LongitudeDegrees>-4.38179436139762401580810546875</LongitudeDegrees>
            </Position>
            <AltitudeMeters>634.79998779296875</AltitudeMeters>
            <DistanceMeters>NAN</DistanceMeters>
          </Trackpoint>
          <Trackpoint>
            <Time>2020-12-05T10:41:12.000Z</Time>
            <Position>
              <LatitudeDegrees>36.836412213742733001708984375</LatitudeDegrees>
              <LongitudeDegrees>-4.3817915953695774078369140625</LongitudeDegrees>
            </Position>
            <AltitudeMeters>634.79998779296875</AltitudeMeters>
            <DistanceMeters>NAN</DistanceMeters>
          </Trackpoint>
          <Trackpoint>
            <Time>2020-12-05T10:41:13.000Z</Time>
            <Position>
              <LatitudeDegrees>36.836417578160762786865234375</LatitudeDegrees>
              <LongitudeDegrees>-4.38178178854286670684814453125</LongitudeDegrees>
            </Position>
            <AltitudeMeters>634.5999755859375</AltitudeMeters>
            <DistanceMeters>NAN</DistanceMeters>
          </Trackpoint>
          <Trackpoint>
            <Time>2020-12-05T10:41:14.000Z</Time>
            <Position>
              <LatitudeDegrees>36.83642000891268253326416015625</LatitudeDegrees>
              <LongitudeDegrees>-4.38176971860229969024658203125</LongitudeDegrees>
            </Position>
            <AltitudeMeters>634.5999755859375</AltitudeMeters>
            <DistanceMeters>NAN</DistanceMeters>
          </Trackpoint>
          <Trackpoint>
            <Time>2020-12-05T10:41:15.000Z</Time>
            <Position>
              <LatitudeDegrees>36.83642302639782428741455078125</LatitudeDegrees>
              <LongitudeDegrees>-4.3817652761936187744140625</LongitudeDegrees>
            </Position>
            <AltitudeMeters>634.4000244140625</AltitudeMeters>
            <DistanceMeters>NAN</DistanceMeters>
          </Trackpoint>
          <Trackpoint>
            <Time>2020-12-05T10:41:16.000Z</Time>
            <Position>
              <LatitudeDegrees>36.8364241160452365875244140625</LatitudeDegrees>
              <LongitudeDegrees>-4.3817620910704135894775390625</LongitudeDegrees>
            </Position>
            <AltitudeMeters>634.4000244140625</AltitudeMeters>
            <DistanceMeters>NAN</DistanceMeters>
          </Trackpoint>
          <Trackpoint>
            <Time>2020-12-05T10:41:17.000Z</Time>
            <Position>
              <LatitudeDegrees>36.836424283683300018310546875</LatitudeDegrees>
              <LongitudeDegrees>-4.38175857067108154296875</LongitudeDegrees>
            </Position>
            <AltitudeMeters>634.4000244140625</AltitudeMeters>
            <DistanceMeters>NAN</DistanceMeters>
          </Trackpoint>
          <Trackpoint>
            <Time>2020-12-05T10:41:18.000Z</Time>
            <Position>
              <LatitudeDegrees>36.83642336167395114898681640625</LatitudeDegrees>
              <LongitudeDegrees>-4.3817545473575592041015625</LongitudeDegrees>
            </Position>
            <AltitudeMeters>634.4000244140625</AltitudeMeters>
            <DistanceMeters>NAN</DistanceMeters>
          </Trackpoint>
          <Trackpoint>
            <Time>2020-12-05T10:41:19.000Z</Time>
            <Position>
              <LatitudeDegrees>36.8364227749407291412353515625</LatitudeDegrees>
              <LongitudeDegrees>-4.381748847663402557373046875</LongitudeDegrees>
            </Position>
            <AltitudeMeters>634.20001220703125</AltitudeMeters>
            <DistanceMeters>NAN</DistanceMeters>
          </Trackpoint>
          <Trackpoint>
            <Time>2020-12-05T10:41:20.000Z</Time>
            <Position>
              <LatitudeDegrees>36.83642302639782428741455078125</LatitudeDegrees>
              <LongitudeDegrees>-4.3817416392266750335693359375</LongitudeDegrees>
            </Position>
            <AltitudeMeters>634.20001220703125</AltitudeMeters>
            <DistanceMeters>NAN</DistanceMeters>
          </Trackpoint>
          <Trackpoint>
            <Time>2020-12-05T10:41:21.000Z</Time>
            <Position>
              <LatitudeDegrees>36.8364288099110126495361328125</LatitudeDegrees>
              <LongitudeDegrees>-4.3817345984280109405517578125</LongitudeDegrees>
            </Position>
            <AltitudeMeters>634</AltitudeMeters>
            <DistanceMeters>NAN</DistanceMeters>
          </Trackpoint>
          <Trackpoint>
            <Time>2020-12-05T10:41:22.000Z</Time>
            <Position>
              <LatitudeDegrees>36.83643777854740619659423828125</LatitudeDegrees>
              <LongitudeDegrees>-4.3817304074764251708984375</LongitudeDegrees>
            </Position>
            <AltitudeMeters>634</AltitudeMeters>
            <DistanceMeters>NAN</DistanceMeters>
          </Trackpoint>
          <Trackpoint>
            <Time>2020-12-05T10:41:23.000Z</Time>
            <Position>
              <LatitudeDegrees>36.8364455737173557281494140625</LatitudeDegrees>
              <LongitudeDegrees>-4.38172713853418827056884765625</LongitudeDegrees>
            </Position>
            <AltitudeMeters>633.79998779296875</AltitudeMeters>
            <DistanceMeters>NAN</DistanceMeters>
          </Trackpoint>
          <Trackpoint>
            <Time>2020-12-05T10:41:24.000Z</Time>
            <Position>
              <LatitudeDegrees>36.83645387180149555206298828125</LatitudeDegrees>
              <LongitudeDegrees>-4.3817292340099811553955078125</LongitudeDegrees>
            </Position>
            <AltitudeMeters>633.79998779296875</AltitudeMeters>
            <DistanceMeters>NAN</DistanceMeters>
          </Trackpoint>
          <Trackpoint>
            <Time>2020-12-05T10:41:25.000Z</Time>
            <Position>
              <LatitudeDegrees>36.83646149933338165283203125</LatitudeDegrees>
              <LongitudeDegrees>-4.381728060543537139892578125</LongitudeDegrees>
            </Position>
            <AltitudeMeters>633.79998779296875</AltitudeMeters>
            <DistanceMeters>NAN</DistanceMeters>
          </Trackpoint>
          <Trackpoint>
            <Time>2020-12-05T10:41:26.000Z</Time>
            <Position>
              <LatitudeDegrees>36.8364707194268703460693359375</LatitudeDegrees>
              <LongitudeDegrees>-4.381728731095790863037109375</LongitudeDegrees>
            </Position>
            <AltitudeMeters>633.5999755859375</AltitudeMeters>
            <DistanceMeters>NAN</DistanceMeters>
          </Trackpoint>
          <Trackpoint>
            <Time>2020-12-05T10:41:27.000Z</Time>
            <Position>
              <LatitudeDegrees>36.83648035861551761627197265625</LatitudeDegrees>
              <LongitudeDegrees>-4.38172697089612483978271484375</LongitudeDegrees>
            </Position>
            <AltitudeMeters>633.5999755859375</AltitudeMeters>
            <DistanceMeters>NAN</DistanceMeters>
          </Trackpoint>
          <Trackpoint>
            <Time>2020-12-05T10:41:28.000Z</Time>
            <Position>
              <LatitudeDegrees>36.83649234473705291748046875</LatitudeDegrees>
              <LongitudeDegrees>-4.381725378334522247314453125</LongitudeDegrees>
            </Position>
            <AltitudeMeters>633.5999755859375</AltitudeMeters>
            <DistanceMeters>NAN</DistanceMeters>
          </Trackpoint>
          <Trackpoint>
            <Time>2020-12-05T10:41:29.000Z</Time>
            <Position>
              <LatitudeDegrees>36.83650449849665164947509765625</LatitudeDegrees>
              <LongitudeDegrees>-4.38172378577291965484619140625</LongitudeDegrees>
            </Position>
            <AltitudeMeters>633.5999755859375</AltitudeMeters>
            <DistanceMeters>NAN</DistanceMeters>
          </Trackpoint>
          <Trackpoint>
            <Time>2020-12-05T10:41:30.000Z</Time>
            <Position>
              <LatitudeDegrees>36.836517490446567535400390625</LatitudeDegrees>
              <LongitudeDegrees>-4.3817248754203319549560546875</LongitudeDegrees>
            </Position>
            <AltitudeMeters>633.5999755859375</AltitudeMeters>
            <DistanceMeters>NAN</DistanceMeters>
          </Trackpoint>
          <Trackpoint>
            <Time>2020-12-05T10:41:31.000Z</Time>
            <Position>
              <LatitudeDegrees>36.8365257047116756439208984375</LatitudeDegrees>
              <LongitudeDegrees>-4.38172194175422191619873046875</LongitudeDegrees>
            </Position>
            <AltitudeMeters>633.4000244140625</AltitudeMeters>
            <DistanceMeters>NAN</DistanceMeters>
          </Trackpoint>
          <Trackpoint>
            <Time>2020-12-05T10:41:32.000Z</Time>
            <Position>
              <LatitudeDegrees>36.83653400279581546783447265625</LatitudeDegrees>
              <LongitudeDegrees>-4.3817168287932872772216796875</LongitudeDegrees>
            </Position>
            <AltitudeMeters>633.4000244140625</AltitudeMeters>
            <DistanceMeters>NAN</DistanceMeters>
          </Trackpoint>
          <Trackpoint>
            <Time>2020-12-05T10:41:33.000Z</Time>
            <Position>
              <LatitudeDegrees>36.83654129505157470703125</LatitudeDegrees>
              <LongitudeDegrees>-4.38171096146106719970703125</LongitudeDegrees>
            </Position>
            <AltitudeMeters>633.20001220703125</AltitudeMeters>
            <DistanceMeters>NAN</DistanceMeters>
          </Trackpoint>
          <Trackpoint>
            <Time>2020-12-05T10:41:34.000Z</Time>
            <Position>
              <LatitudeDegrees>36.8365480005741119384765625</LatitudeDegrees>
              <LongitudeDegrees>-4.381703250110149383544921875</LongitudeDegrees>
            </Position>
            <AltitudeMeters>633.20001220703125</AltitudeMeters>
            <DistanceMeters>NAN</DistanceMeters>
          </Trackpoint>
          <Trackpoint>
            <Time>2020-12-05T10:41:35.000Z</Time>
            <Position>
              <LatitudeDegrees>36.83655311353504657745361328125</LatitudeDegrees>
              <LongitudeDegrees>-4.381693191826343536376953125</LongitudeDegrees>
            </Position>
            <AltitudeMeters>633</AltitudeMeters>
            <DistanceMeters>NAN</DistanceMeters>
          </Trackpoint>
          <Trackpoint>
            <Time>2020-12-05T10:41:36.000Z</Time>
            <Position>
              <LatitudeDegrees>36.83655847795307636260986328125</LatitudeDegrees>
              <LongitudeDegrees>-4.3816812895238399505615234375</LongitudeDegrees>
            </Position>
            <AltitudeMeters>633</AltitudeMeters>
            <DistanceMeters>NAN</DistanceMeters>
          </Trackpoint>
          <Trackpoint>
            <Time>2020-12-05T10:41:37.000Z</Time>
            <Position>
              <LatitudeDegrees>36.8365632556378841400146484375</LatitudeDegrees>
              <LongitudeDegrees>-4.38166938722133636474609375</LongitudeDegrees>
            </Position>
            <AltitudeMeters>633</AltitudeMeters>
            <DistanceMeters>NAN</DistanceMeters>
          </Trackpoint>
          <Trackpoint>
            <Time>2020-12-05T10:41:38.000Z</Time>
            <Position>
              <LatitudeDegrees>36.8365672789514064788818359375</LatitudeDegrees>
              <LongitudeDegrees>-4.38165756873786449432373046875</LongitudeDegrees>
            </Position>
            <AltitudeMeters>632.79998779296875</AltitudeMeters>
            <DistanceMeters>NAN</DistanceMeters>
          </Trackpoint>
          <Trackpoint>
            <Time>2020-12-05T10:41:39.000Z</Time>
            <Position>
              <LatitudeDegrees>36.836570799350738525390625</LatitudeDegrees>
              <LongitudeDegrees>-4.3816460855305194854736328125</LongitudeDegrees>
            </Position>
            <AltitudeMeters>632.79998779296875</AltitudeMeters>
            <DistanceMeters>NAN</DistanceMeters>
          </Trackpoint>
          <Trackpoint>
            <Time>2020-12-05T10:41:40.000Z</Time>
            <Position>
              <LatitudeDegrees>36.83657415211200714111328125</LatitudeDegrees>
              <LongitudeDegrees>-4.38163426704704761505126953125</LongitudeDegrees>
            </Position>
            <AltitudeMeters>632.5999755859375</AltitudeMeters>
            <DistanceMeters>NAN</DistanceMeters>
          </Trackpoint>
          <Trackpoint>
            <Time>2020-12-05T10:41:41.000Z</Time>
            <Position>
              <LatitudeDegrees>36.836578845977783203125</LatitudeDegrees>
              <LongitudeDegrees>-4.38162110745906829833984375</LongitudeDegrees>
            </Position>
            <AltitudeMeters>632.5999755859375</AltitudeMeters>
            <DistanceMeters>NAN</DistanceMeters>
          </Trackpoint>
          <Trackpoint>
            <Time>2020-12-05T10:41:42.000Z</Time>
            <Position>
              <LatitudeDegrees>36.83658546768128871917724609375</LatitudeDegrees>
              <LongitudeDegrees>-4.38160878606140613555908203125</LongitudeDegrees>
            </Position>
            <AltitudeMeters>632.4000244140625</AltitudeMeters>
            <DistanceMeters>NAN</DistanceMeters>
          </Trackpoint>
          <Trackpoint>
            <Time>2020-12-05T10:41:43.000Z</Time>
            <Position>
              <LatitudeDegrees>36.83659493923187255859375</LatitudeDegrees>
              <LongitudeDegrees>-4.381597302854061126708984375</LongitudeDegrees>
            </Position>
            <AltitudeMeters>632.4000244140625</AltitudeMeters>
            <DistanceMeters>NAN</DistanceMeters>
          </Trackpoint>
          <Trackpoint>
            <Time>2020-12-05T10:41:44.000Z</Time>
            <Position>
              <LatitudeDegrees>36.83660625480115413665771484375</LatitudeDegrees>
              <LongitudeDegrees>-4.381587244570255279541015625</LongitudeDegrees>
            </Position>
            <AltitudeMeters>632.4000244140625</AltitudeMeters>
            <DistanceMeters>NAN</DistanceMeters>
          </Trackpoint>
          <Trackpoint>
            <Time>2020-12-05T10:41:45.000Z</Time>
            <Position>
              <LatitudeDegrees>36.83661765418946743011474609375</LatitudeDegrees>
              <LongitudeDegrees>-4.3815783597528934478759765625</LongitudeDegrees>
            </Position>
            <AltitudeMeters>632.5999755859375</AltitudeMeters>
            <DistanceMeters>NAN</DistanceMeters>
          </Trackpoint>
          <Trackpoint>
            <Time>2020-12-05T10:41:46.000Z</Time>
            <Position>
              <LatitudeDegrees>36.8366309814155101776123046875</LatitudeDegrees>
              <LongitudeDegrees>-4.38157022930681705474853515625</LongitudeDegrees>
            </Position>
            <AltitudeMeters>632.5999755859375</AltitudeMeters>
            <DistanceMeters>NAN</DistanceMeters>
          </Trackpoint>
          <Trackpoint>
            <Time>2020-12-05T10:41:47.000Z</Time>
            <Position>
              <LatitudeDegrees>36.83664665557444095611572265625</LatitudeDegrees>
              <LongitudeDegrees>-4.381561093032360076904296875</LongitudeDegrees>
            </Position>
            <AltitudeMeters>632.5999755859375</AltitudeMeters>
            <DistanceMeters>NAN</DistanceMeters>
          </Trackpoint>
          <Trackpoint>
            <Time>2020-12-05T10:41:48.000Z</Time>
            <Position>
              <LatitudeDegrees>36.83666191063821315765380859375</LatitudeDegrees>
              <LongitudeDegrees>-4.3815518729388713836669921875</LongitudeDegrees>
            </Position>
            <AltitudeMeters>632.5999755859375</AltitudeMeters>
            <DistanceMeters>NAN</DistanceMeters>
          </Trackpoint>
          <Trackpoint>
            <Time>2020-12-05T10:41:49.000Z</Time>
            <Position>
              <LatitudeDegrees>36.83667766861617565155029296875</LatitudeDegrees>
              <LongitudeDegrees>-4.38154189847409725189208984375</LongitudeDegrees>
            </Position>
            <AltitudeMeters>632.4000244140625</AltitudeMeters>
            <DistanceMeters>NAN</DistanceMeters>
          </Trackpoint>
          <Trackpoint>
            <Time>2020-12-05T10:41:50.000Z</Time>
            <Position>
              <LatitudeDegrees>36.836689822375774383544921875</LatitudeDegrees>
              <LongitudeDegrees>-4.38153200782835483551025390625</LongitudeDegrees>
            </Position>
            <AltitudeMeters>632.4000244140625</AltitudeMeters>
            <DistanceMeters>NAN</DistanceMeters>
          </Trackpoint>
          <Trackpoint>
            <Time>2020-12-05T10:41:51.000Z</Time>
            <Position>
              <LatitudeDegrees>36.8366977013647556304931640625</LatitudeDegrees>
              <LongitudeDegrees>-4.3815233744680881500244140625</LongitudeDegrees>
            </Position>
            <AltitudeMeters>632.20001220703125</AltitudeMeters>
            <DistanceMeters>NAN</DistanceMeters>
          </Trackpoint>
          <Trackpoint>
            <Time>2020-12-05T10:41:52.000Z</Time>
            <Position>
              <LatitudeDegrees>36.83670247904956340789794921875</LatitudeDegrees>
              <LongitudeDegrees>-4.3815186806023120880126953125</LongitudeDegrees>
            </Position>
            <AltitudeMeters>632</AltitudeMeters>
            <DistanceMeters>NAN</DistanceMeters>
          </Trackpoint>
          <Trackpoint>
            <Time>2020-12-05T10:41:53.000Z</Time>
            <Position>
              <LatitudeDegrees>36.83670834638178348541259765625</LatitudeDegrees>
              <LongitudeDegrees>-4.38151373527944087982177734375</LongitudeDegrees>
            </Position>
            <AltitudeMeters>631.5999755859375</AltitudeMeters>
            <DistanceMeters>NAN</DistanceMeters>
          </Trackpoint>
          <Trackpoint>
            <Time>2020-12-05T10:41:54.000Z</Time>
            <Position>
              <LatitudeDegrees>36.83671354316174983978271484375</LatitudeDegrees>
              <LongitudeDegrees>-4.38151071779429912567138671875</LongitudeDegrees>
            </Position>
            <AltitudeMeters>631.20001220703125</AltitudeMeters>
            <DistanceMeters>NAN</DistanceMeters>
          </Trackpoint>
          <Trackpoint>
            <Time>2020-12-05T10:41:55.000Z</Time>
            <Position>
              <LatitudeDegrees>36.8367198295891284942626953125</LatitudeDegrees>
              <LongitudeDegrees>-4.38150577247142791748046875</LongitudeDegrees>
            </Position>
            <AltitudeMeters>631</AltitudeMeters>
            <DistanceMeters>NAN</DistanceMeters>
          </Trackpoint>
          <Trackpoint>
            <Time>2020-12-05T10:41:56.000Z</Time>
            <Position>
              <LatitudeDegrees>36.8367268703877925872802734375</LatitudeDegrees>
              <LongitudeDegrees>-4.38149982132017612457275390625</LongitudeDegrees>
            </Position>
            <AltitudeMeters>630.79998779296875</AltitudeMeters>
            <DistanceMeters>NAN</DistanceMeters>
          </Trackpoint>
          <Trackpoint>
            <Time>2020-12-05T10:41:57.000Z</Time>
            <Position>
              <LatitudeDegrees>36.8367362581193447113037109375</LatitudeDegrees>
              <LongitudeDegrees>-4.38149236142635345458984375</LongitudeDegrees>
            </Position>
            <AltitudeMeters>630.5999755859375</AltitudeMeters>
            <DistanceMeters>NAN</DistanceMeters>
          </Trackpoint>
          <Trackpoint>
            <Time>2020-12-05T10:41:58.000Z</Time>
            <Position>
              <LatitudeDegrees>36.8367466516792774200439453125</LatitudeDegrees>
              <LongitudeDegrees>-4.38148439861834049224853515625</LongitudeDegrees>
            </Position>
            <AltitudeMeters>630.5999755859375</AltitudeMeters>
            <DistanceMeters>NAN</DistanceMeters>
          </Trackpoint>
          <Trackpoint>
            <Time>2020-12-05T10:41:59.000Z</Time>
            <Position>
              <LatitudeDegrees>36.83675897307693958282470703125</LatitudeDegrees>
              <LongitudeDegrees>-4.3814747594296932220458984375</LongitudeDegrees>
            </Position>
            <AltitudeMeters>630.4000244140625</AltitudeMeters>
            <DistanceMeters>NAN</DistanceMeters>
          </Trackpoint>
          <Trackpoint>
            <Time>2020-12-05T10:42:00.000Z</Time>
            <Position>
              <LatitudeDegrees>36.836770959198474884033203125</LatitudeDegrees>
              <LongitudeDegrees>-4.3814650364220142364501953125</LongitudeDegrees>
            </Position>
            <AltitudeMeters>630.4000244140625</AltitudeMeters>
            <DistanceMeters>NAN</DistanceMeters>
          </Trackpoint>
          <Trackpoint>
            <Time>2020-12-05T10:42:01.000Z</Time>
            <Position>
              <LatitudeDegrees>36.83678244240581989288330078125</LatitudeDegrees>
              <LongitudeDegrees>-4.381455481052398681640625</LongitudeDegrees>
            </Position>
            <AltitudeMeters>630.4000244140625</AltitudeMeters>
            <DistanceMeters>NAN</DistanceMeters>
          </Trackpoint>
          <Trackpoint>
            <Time>2020-12-05T10:42:02.000Z</Time>
            <Position>
              <LatitudeDegrees>36.83679166249930858612060546875</LatitudeDegrees>
              <LongitudeDegrees>-4.38144634477794170379638671875</LongitudeDegrees>
            </Position>
            <AltitudeMeters>630.4000244140625</AltitudeMeters>
            <DistanceMeters>NAN</DistanceMeters>
          </Trackpoint>
          <Trackpoint>
            <Time>2020-12-05T10:42:03.000Z</Time>
            <Position>
              <LatitudeDegrees>36.8368019722402095794677734375</LatitudeDegrees>
              <LongitudeDegrees>-4.3814375437796115875244140625</LongitudeDegrees>
            </Position>
            <AltitudeMeters>630.4000244140625</AltitudeMeters>
            <DistanceMeters>NAN</DistanceMeters>
          </Trackpoint>
          <Trackpoint>
            <Time>2020-12-05T10:42:04.000Z</Time>
            <Position>
              <LatitudeDegrees>36.83681446127593517303466796875</LatitudeDegrees>
              <LongitudeDegrees>-4.38142907805740833282470703125</LongitudeDegrees>
            </Position>
            <AltitudeMeters>630</AltitudeMeters>
            <DistanceMeters>NAN</DistanceMeters>
          </Trackpoint>
          <Trackpoint>
            <Time>2020-12-05T10:42:05.000Z</Time>
            <Position>
              <LatitudeDegrees>36.8368277885019779205322265625</LatitudeDegrees>
              <LongitudeDegrees>-4.3814194388687610626220703125</LongitudeDegrees>
            </Position>
            <AltitudeMeters>629.5999755859375</AltitudeMeters>
            <DistanceMeters>NAN</DistanceMeters>
          </Trackpoint>
          <Trackpoint>
            <Time>2020-12-05T10:42:06.000Z</Time>
            <Position>
              <LatitudeDegrees>36.836842037737369537353515625</LatitudeDegrees>
              <LongitudeDegrees>-4.38140527345240116119384765625</LongitudeDegrees>
            </Position>
            <AltitudeMeters>629.20001220703125</AltitudeMeters>
            <DistanceMeters>NAN</DistanceMeters>
          </Trackpoint>
          <Trackpoint>
            <Time>2020-12-05T10:42:07.000Z</Time>
            <Position>
              <LatitudeDegrees>36.83685603551566600799560546875</LatitudeDegrees>
              <LongitudeDegrees>-4.3813929520547389984130859375</LongitudeDegrees>
            </Position>
            <AltitudeMeters>628.79998779296875</AltitudeMeters>
            <DistanceMeters>NAN</DistanceMeters>
          </Trackpoint>
          <Trackpoint>
            <Time>2020-12-05T10:42:08.000Z</Time>
            <Position>
              <LatitudeDegrees>36.83687053620815277099609375</LatitudeDegrees>
              <LongitudeDegrees>-4.38138239085674285888671875</LongitudeDegrees>
            </Position>
            <AltitudeMeters>628.5999755859375</AltitudeMeters>
            <DistanceMeters>NAN</DistanceMeters>
          </Trackpoint>
          <Trackpoint>
            <Time>2020-12-05T10:42:09.000Z</Time>
            <Position>
              <LatitudeDegrees>36.83688453398644924163818359375</LatitudeDegrees>
              <LongitudeDegrees>-4.38137258403003215789794921875</LongitudeDegrees>
            </Position>
            <AltitudeMeters>628.4000244140625</AltitudeMeters>
            <DistanceMeters>NAN</DistanceMeters>
          </Trackpoint>
          <Trackpoint>
            <Time>2020-12-05T10:42:10.000Z</Time>
            <Position>
              <LatitudeDegrees>36.83689844794571399688720703125</LatitudeDegrees>
              <LongitudeDegrees>-4.38136101700365543365478515625</LongitudeDegrees>
            </Position>
            <AltitudeMeters>628.20001220703125</AltitudeMeters>
            <DistanceMeters>NAN</DistanceMeters>
          </Trackpoint>
          <Trackpoint>
            <Time>2020-12-05T10:42:11.000Z</Time>
            <Position>
              <LatitudeDegrees>36.83691135607659816741943359375</LatitudeDegrees>
              <LongitudeDegrees>-4.38134944997727870941162109375</LongitudeDegrees>
            </Position>
            <AltitudeMeters>628</AltitudeMeters>
            <DistanceMeters>NAN</DistanceMeters>
          </Trackpoint>
          <Trackpoint>
            <Time>2020-12-05T10:42:12.000Z</Time>
            <Position>
              <LatitudeDegrees>36.83692443184554576873779296875</LatitudeDegrees>
              <LongitudeDegrees>-4.381334781646728515625</LongitudeDegrees>
            </Position>
            <AltitudeMeters>628</AltitudeMeters>
            <DistanceMeters>NAN</DistanceMeters>
          </Trackpoint>
          <Trackpoint>
            <Time>2020-12-05T10:42:13.000Z</Time>
            <Position>
              <LatitudeDegrees>36.8369357474148273468017578125</LatitudeDegrees>
              <LongitudeDegrees>-4.38132162205874919891357421875</LongitudeDegrees>
            </Position>
            <AltitudeMeters>627.79998779296875</AltitudeMeters>
            <DistanceMeters>NAN</DistanceMeters>
          </Trackpoint>
          <Trackpoint>
            <Time>2020-12-05T10:42:14.000Z</Time>
            <Position>
              <LatitudeDegrees>36.83694563806056976318359375</LatitudeDegrees>
              <LongitudeDegrees>-4.38130670227110385894775390625</LongitudeDegrees>
            </Position>
            <AltitudeMeters>627.79998779296875</AltitudeMeters>
            <DistanceMeters>NAN</DistanceMeters>
          </Trackpoint>
          <Trackpoint>
            <Time>2020-12-05T10:42:15.000Z</Time>
            <Position>
              <LatitudeDegrees>36.8369555287063121795654296875</LatitudeDegrees>
              <LongitudeDegrees>-4.381294883787631988525390625</LongitudeDegrees>
            </Position>
            <AltitudeMeters>627.79998779296875</AltitudeMeters>
            <DistanceMeters>NAN</DistanceMeters>
          </Trackpoint>
          <Trackpoint>
            <Time>2020-12-05T10:42:16.000Z</Time>
            <Position>
              <LatitudeDegrees>36.8369632400572299957275390625</LatitudeDegrees>
              <LongitudeDegrees>-4.38128390349447727203369140625</LongitudeDegrees>
            </Position>
            <AltitudeMeters>627.79998779296875</AltitudeMeters>
            <DistanceMeters>NAN</DistanceMeters>
          </Trackpoint>
          <Trackpoint>
            <Time>2020-12-05T10:42:17.000Z</Time>
            <Position>
              <LatitudeDegrees>36.83697220869362354278564453125</LatitudeDegrees>
              <LongitudeDegrees>-4.38127166591584682464599609375</LongitudeDegrees>
            </Position>
            <AltitudeMeters>627.5999755859375</AltitudeMeters>
            <DistanceMeters>NAN</DistanceMeters>
          </Trackpoint>
          <Trackpoint>
            <Time>2020-12-05T10:42:18.000Z</Time>
            <Position>
              <LatitudeDegrees>36.83698126114904880523681640625</LatitudeDegrees>
              <LongitudeDegrees>-4.38125791959464550018310546875</LongitudeDegrees>
            </Position>
            <AltitudeMeters>627.79998779296875</AltitudeMeters>
            <DistanceMeters>NAN</DistanceMeters>
          </Trackpoint>
          <Trackpoint>
            <Time>2020-12-05T10:42:19.000Z</Time>
            <Position>
              <LatitudeDegrees>36.83698813430964946746826171875</LatitudeDegrees>
              <LongitudeDegrees>-4.3812434189021587371826171875</LongitudeDegrees>
            </Position>
            <AltitudeMeters>627.79998779296875</AltitudeMeters>
            <DistanceMeters>NAN</DistanceMeters>
          </Trackpoint>
          <Trackpoint>
            <Time>2020-12-05T10:42:20.000Z</Time>
            <Position>
              <LatitudeDegrees>36.836994588375091552734375</LatitudeDegrees>
              <LongitudeDegrees>-4.38122414052486419677734375</LongitudeDegrees>
            </Position>
            <AltitudeMeters>627.79998779296875</AltitudeMeters>
            <DistanceMeters>NAN</DistanceMeters>
          </Trackpoint>
          <Trackpoint>
            <Time>2020-12-05T10:42:21.000Z</Time>
            <Position>
              <LatitudeDegrees>36.8369940854609012603759765625</LatitudeDegrees>
              <LongitudeDegrees>-4.3812046945095062255859375</LongitudeDegrees>
            </Position>
            <AltitudeMeters>627.79998779296875</AltitudeMeters>
            <DistanceMeters>NAN</DistanceMeters>
          </Trackpoint>
          <Trackpoint>
            <Time>2020-12-05T10:42:22.000Z</Time>
            <Position>
              <LatitudeDegrees>36.836988218128681182861328125</LatitudeDegrees>
              <LongitudeDegrees>-4.38118734396994113922119140625</LongitudeDegrees>
            </Position>
            <AltitudeMeters>627.79998779296875</AltitudeMeters>
            <DistanceMeters>NAN</DistanceMeters>
          </Trackpoint>
          <Trackpoint>
            <Time>2020-12-05T10:42:23.000Z</Time>
            <Position>
              <LatitudeDegrees>36.8369769863784313201904296875</LatitudeDegrees>
              <LongitudeDegrees>-4.3811663053929805755615234375</LongitudeDegrees>
            </Position>
            <AltitudeMeters>627.79998779296875</AltitudeMeters>
            <DistanceMeters>NAN</DistanceMeters>
          </Trackpoint>
          <Trackpoint>
            <Time>2020-12-05T10:42:24.000Z</Time>
            <Position>
              <LatitudeDegrees>36.8369615636765956878662109375</LatitudeDegrees>
              <LongitudeDegrees>-4.38115012831985950469970703125</LongitudeDegrees>
            </Position>
            <AltitudeMeters>627.5999755859375</AltitudeMeters>
            <DistanceMeters>NAN</DistanceMeters>
          </Trackpoint>
          <Trackpoint>
            <Time>2020-12-05T10:42:25.000Z</Time>
            <Position>
              <LatitudeDegrees>36.83694488368928432464599609375</LatitudeDegrees>
              <LongitudeDegrees>-4.381143338978290557861328125</LongitudeDegrees>
            </Position>
            <AltitudeMeters>627.5999755859375</AltitudeMeters>
            <DistanceMeters>NAN</DistanceMeters>
          </Trackpoint>
          <Trackpoint>
            <Time>2020-12-05T10:42:26.000Z</Time>
            <Position>
              <LatitudeDegrees>36.836927197873592376708984375</LatitudeDegrees>
              <LongitudeDegrees>-4.3811391480267047882080078125</LongitudeDegrees>
            </Position>
            <AltitudeMeters>627.20001220703125</AltitudeMeters>
            <DistanceMeters>NAN</DistanceMeters>
          </Trackpoint>
          <Trackpoint>
            <Time>2020-12-05T10:42:27.000Z</Time>
            <Position>
              <LatitudeDegrees>36.83691219426691532135009765625</LatitudeDegrees>
              <LongitudeDegrees>-4.3811394833028316497802734375</LongitudeDegrees>
            </Position>
            <AltitudeMeters>627</AltitudeMeters>
            <DistanceMeters>NAN</DistanceMeters>
          </Trackpoint>
          <Trackpoint>
            <Time>2020-12-05T10:42:28.000Z</Time>
            <Position>
              <LatitudeDegrees>36.83689626865088939666748046875</LatitudeDegrees>
              <LongitudeDegrees>-4.38114375807344913482666015625</LongitudeDegrees>
            </Position>
            <AltitudeMeters>626.5999755859375</AltitudeMeters>
            <DistanceMeters>NAN</DistanceMeters>
          </Trackpoint>
          <Trackpoint>
            <Time>2020-12-05T10:42:29.000Z</Time>
            <Position>
              <LatitudeDegrees>36.83687916956841945648193359375</LatitudeDegrees>
              <LongitudeDegrees>-4.38115113414824008941650390625</LongitudeDegrees>
            </Position>
            <AltitudeMeters>626.4000244140625</AltitudeMeters>
            <DistanceMeters>NAN</DistanceMeters>
          </Trackpoint>
          <Trackpoint>
            <Time>2020-12-05T10:42:30.000Z</Time>
            <Position>
              <LatitudeDegrees>36.836862824857234954833984375</LatitudeDegrees>
              <LongitudeDegrees>-4.3811582587659358978271484375</LongitudeDegrees>
            </Position>
            <AltitudeMeters>626.20001220703125</AltitudeMeters>
            <DistanceMeters>NAN</DistanceMeters>
          </Trackpoint>
          <Trackpoint>
            <Time>2020-12-05T10:42:31.000Z</Time>
            <Position>
              <LatitudeDegrees>36.83684731833636760711669921875</LatitudeDegrees>
              <LongitudeDegrees>-4.3811652995645999908447265625</LongitudeDegrees>
            </Position>
            <AltitudeMeters>626.20001220703125</AltitudeMeters>
            <DistanceMeters>NAN</DistanceMeters>
          </Trackpoint>
          <Trackpoint>
            <Time>2020-12-05T10:42:32.000Z</Time>
            <Position>
              <LatitudeDegrees>36.83682938106358051300048828125</LatitudeDegrees>
              <LongitudeDegrees>-4.38117376528680324554443359375</LongitudeDegrees>
            </Position>
            <AltitudeMeters>626.20001220703125</AltitudeMeters>
            <DistanceMeters>NAN</DistanceMeters>
          </Trackpoint>
          <Trackpoint>
            <Time>2020-12-05T10:42:33.000Z</Time>
            <Position>
              <LatitudeDegrees>36.8368113599717617034912109375</LatitudeDegrees>
              <LongitudeDegrees>-4.3811832368373870849609375</LongitudeDegrees>
            </Position>
            <AltitudeMeters>626.4000244140625</AltitudeMeters>
            <DistanceMeters>NAN</DistanceMeters>
          </Trackpoint>
          <Trackpoint>
            <Time>2020-12-05T10:42:34.000Z</Time>
            <Position>
              <LatitudeDegrees>36.83679853565990924835205078125</LatitudeDegrees>
              <LongitudeDegrees>-4.38118927180767059326171875</LongitudeDegrees>
            </Position>
            <AltitudeMeters>626.4000244140625</AltitudeMeters>
            <DistanceMeters>NAN</DistanceMeters>
          </Trackpoint>
          <Trackpoint>
            <Time>2020-12-05T10:42:35.000Z</Time>
            <Position>
              <LatitudeDegrees>36.83678730390965938568115234375</LatitudeDegrees>
              <LongitudeDegrees>-4.3811931274831295013427734375</LongitudeDegrees>
            </Position>
            <AltitudeMeters>626.5999755859375</AltitudeMeters>
            <DistanceMeters>NAN</DistanceMeters>
          </Trackpoint>
          <Trackpoint>
            <Time>2020-12-05T10:42:36.000Z</Time>
            <Position>
              <LatitudeDegrees>36.8367748148739337921142578125</LatitudeDegrees>
              <LongitudeDegrees>-4.38119472004473209381103515625</LongitudeDegrees>
            </Position>
            <AltitudeMeters>626.79998779296875</AltitudeMeters>
            <DistanceMeters>NAN</DistanceMeters>
          </Trackpoint>
          <Trackpoint>
            <Time>2020-12-05T10:42:37.000Z</Time>
            <Position>
              <LatitudeDegrees>36.83676199056208133697509765625</LatitudeDegrees>
              <LongitudeDegrees>-4.38120067119598388671875</LongitudeDegrees>
            </Position>
            <AltitudeMeters>626.79998779296875</AltitudeMeters>
            <DistanceMeters>NAN</DistanceMeters>
          </Trackpoint>
          <Trackpoint>
            <Time>2020-12-05T10:42:38.000Z</Time>
            <Position>
              <LatitudeDegrees>36.83674975298345088958740234375</LatitudeDegrees>
              <LongitudeDegrees>-4.38120813108980655670166015625</LongitudeDegrees>
            </Position>
            <AltitudeMeters>626.79998779296875</AltitudeMeters>
            <DistanceMeters>NAN</DistanceMeters>
          </Trackpoint>
          <Trackpoint>
            <Time>2020-12-05T10:42:39.000Z</Time>
            <Position>
              <LatitudeDegrees>36.83673441410064697265625</LatitudeDegrees>
              <LongitudeDegrees>-4.38121634535491466522216796875</LongitudeDegrees>
            </Position>
            <AltitudeMeters>626.5999755859375</AltitudeMeters>
            <DistanceMeters>NAN</DistanceMeters>
          </Trackpoint>
          <Trackpoint>
            <Time>2020-12-05T10:42:40.000Z</Time>
            <Position>
              <LatitudeDegrees>36.83671790175139904022216796875</LatitudeDegrees>
              <LongitudeDegrees>-4.381223805248737335205078125</LongitudeDegrees>
            </Position>
            <AltitudeMeters>626.5999755859375</AltitudeMeters>
            <DistanceMeters>NAN</DistanceMeters>
          </Trackpoint>
          <Trackpoint>
            <Time>2020-12-05T10:42:41.000Z</Time>
            <Position>
              <LatitudeDegrees>36.83670382015407085418701171875</LatitudeDegrees>
              <LongitudeDegrees>-4.38123176805675029754638671875</LongitudeDegrees>
            </Position>
            <AltitudeMeters>626.5999755859375</AltitudeMeters>
            <DistanceMeters>NAN</DistanceMeters>
          </Trackpoint>
          <Trackpoint>
            <Time>2020-12-05T10:42:42.000Z</Time>
            <Position>
              <LatitudeDegrees>36.83669007383286952972412109375</LatitudeDegrees>
              <LongitudeDegrees>-4.38123713247478008270263671875</LongitudeDegrees>
            </Position>
            <AltitudeMeters>626.5999755859375</AltitudeMeters>
            <DistanceMeters>NAN</DistanceMeters>
          </Trackpoint>
          <Trackpoint>
            <Time>2020-12-05T10:42:43.000Z</Time>
            <Position>
              <LatitudeDegrees>36.83667951263487339019775390625</LatitudeDegrees>
              <LongitudeDegrees>-4.38124249689280986785888671875</LongitudeDegrees>
            </Position>
            <AltitudeMeters>626.5999755859375</AltitudeMeters>
            <DistanceMeters>NAN</DistanceMeters>
          </Trackpoint>
          <Trackpoint>
            <Time>2020-12-05T10:42:44.000Z</Time>
            <Position>
              <LatitudeDegrees>36.83666828088462352752685546875</LatitudeDegrees>
              <LongitudeDegrees>-4.381248615682125091552734375</LongitudeDegrees>
            </Position>
            <AltitudeMeters>626.5999755859375</AltitudeMeters>
            <DistanceMeters>NAN</DistanceMeters>
          </Trackpoint>
          <Trackpoint>
            <Time>2020-12-05T10:42:45.000Z</Time>
            <Position>
              <LatitudeDegrees>36.8366557918488979339599609375</LatitudeDegrees>
              <LongitudeDegrees>-4.38125498592853546142578125</LongitudeDegrees>
            </Position>
            <AltitudeMeters>626.5999755859375</AltitudeMeters>
            <DistanceMeters>NAN</DistanceMeters>
          </Trackpoint>
          <Trackpoint>
            <Time>2020-12-05T10:42:46.000Z</Time>
            <Position>
              <LatitudeDegrees>36.83664447627961635589599609375</LatitudeDegrees>
              <LongitudeDegrees>-4.3812615238130092620849609375</LongitudeDegrees>
            </Position>
            <AltitudeMeters>626.5999755859375</AltitudeMeters>
            <DistanceMeters>NAN</DistanceMeters>
          </Trackpoint>
          <Trackpoint>
            <Time>2020-12-05T10:42:47.000Z</Time>
            <Position>
              <LatitudeDegrees>36.83663307689130306243896484375</LatitudeDegrees>
              <LongitudeDegrees>-4.3812695704400539398193359375</LongitudeDegrees>
            </Position>
            <AltitudeMeters>626.5999755859375</AltitudeMeters>
            <DistanceMeters>NAN</DistanceMeters>
          </Trackpoint>
          <Trackpoint>
            <Time>2020-12-05T10:42:48.000Z</Time>
            <Position>
              <LatitudeDegrees>36.8366202525794506072998046875</LatitudeDegrees>
              <LongitudeDegrees>-4.38127904199063777923583984375</LongitudeDegrees>
            </Position>
            <AltitudeMeters>626.5999755859375</AltitudeMeters>
            <DistanceMeters>NAN</DistanceMeters>
          </Trackpoint>
          <Trackpoint>
            <Time>2020-12-05T10:42:49.000Z</Time>
            <Position>
              <LatitudeDegrees>36.836609356105327606201171875</LatitudeDegrees>
              <LongitudeDegrees>-4.3812883459031581878662109375</LongitudeDegrees>
            </Position>
            <AltitudeMeters>626.5999755859375</AltitudeMeters>
            <DistanceMeters>NAN</DistanceMeters>
          </Trackpoint>
          <Trackpoint>
            <Time>2020-12-05T10:42:50.000Z</Time>
            <Position>
              <LatitudeDegrees>36.8365994654595851898193359375</LatitudeDegrees>
              <LongitudeDegrees>-4.38129647634923458099365234375</LongitudeDegrees>
            </Position>
            <AltitudeMeters>626.4000244140625</AltitudeMeters>
            <DistanceMeters>NAN</DistanceMeters>
          </Trackpoint>
          <Trackpoint>
            <Time>2020-12-05T10:42:51.000Z</Time>
            <Position>
              <LatitudeDegrees>36.8365910835564136505126953125</LatitudeDegrees>
              <LongitudeDegrees>-4.38130402006208896636962890625</LongitudeDegrees>
            </Position>
            <AltitudeMeters>626.4000244140625</AltitudeMeters>
            <DistanceMeters>NAN</DistanceMeters>
          </Trackpoint>
          <Trackpoint>
            <Time>2020-12-05T10:42:52.000Z</Time>
            <Position>
              <LatitudeDegrees>36.8365827016532421112060546875</LatitudeDegrees>
              <LongitudeDegrees>-4.38131055794656276702880859375</LongitudeDegrees>
            </Position>
            <AltitudeMeters>626.4000244140625</AltitudeMeters>
            <DistanceMeters>NAN</DistanceMeters>
          </Trackpoint>
          <Trackpoint>
            <Time>2020-12-05T10:42:53.000Z</Time>
            <Position>
              <LatitudeDegrees>36.83657306246459484100341796875</LatitudeDegrees>
              <LongitudeDegrees>-4.38131726346909999847412109375</LongitudeDegrees>
            </Position>
            <AltitudeMeters>626.4000244140625</AltitudeMeters>
            <DistanceMeters>NAN</DistanceMeters>
          </Trackpoint>
          <Trackpoint>
            <Time>2020-12-05T10:42:54.000Z</Time>
            <Position>
              <LatitudeDegrees>36.83656166307628154754638671875</LatitudeDegrees>
              <LongitudeDegrees>-4.38132246024906635284423828125</LongitudeDegrees>
            </Position>
            <AltitudeMeters>626.4000244140625</AltitudeMeters>
            <DistanceMeters>NAN</DistanceMeters>
          </Trackpoint>
          <Trackpoint>
            <Time>2020-12-05T10:42:55.000Z</Time>
            <Position>
              <LatitudeDegrees>36.83655177243053913116455078125</LatitudeDegrees>
              <LongitudeDegrees>-4.381326399743556976318359375</LongitudeDegrees>
            </Position>
            <AltitudeMeters>626.4000244140625</AltitudeMeters>
            <DistanceMeters>NAN</DistanceMeters>
          </Trackpoint>
          <Trackpoint>
            <Time>2020-12-05T10:42:56.000Z</Time>
            <Position>
              <LatitudeDegrees>36.836540959775447845458984375</LatitudeDegrees>
              <LongitudeDegrees>-4.38133134506642818450927734375</LongitudeDegrees>
            </Position>
            <AltitudeMeters>626.20001220703125</AltitudeMeters>
            <DistanceMeters>NAN</DistanceMeters>
          </Trackpoint>
          <Trackpoint>
            <Time>2020-12-05T10:42:57.000Z</Time>
            <Position>
              <LatitudeDegrees>36.83652989566326141357421875</LatitudeDegrees>
              <LongitudeDegrees>-4.38133721239864826202392578125</LongitudeDegrees>
            </Position>
            <AltitudeMeters>626</AltitudeMeters>
            <DistanceMeters>NAN</DistanceMeters>
          </Trackpoint>
          <Trackpoint>
            <Time>2020-12-05T10:42:58.000Z</Time>
            <Position>
              <LatitudeDegrees>36.83651874773204326629638671875</LatitudeDegrees>
              <LongitudeDegrees>-4.38134257681667804718017578125</LongitudeDegrees>
            </Position>
            <AltitudeMeters>626</AltitudeMeters>
            <DistanceMeters>NAN</DistanceMeters>
          </Trackpoint>
          <Trackpoint>
            <Time>2020-12-05T10:42:59.000Z</Time>
            <Position>
              <LatitudeDegrees>36.83650634251534938812255859375</LatitudeDegrees>
              <LongitudeDegrees>-4.38135213218629360198974609375</LongitudeDegrees>
            </Position>
            <AltitudeMeters>625.79998779296875</AltitudeMeters>
            <DistanceMeters>NAN</DistanceMeters>
          </Trackpoint>
          <Trackpoint>
            <Time>2020-12-05T10:43:00.000Z</Time>
            <Position>
              <LatitudeDegrees>36.83649376966059207916259765625</LatitudeDegrees>
              <LongitudeDegrees>-4.38136093318462371826171875</LongitudeDegrees>
            </Position>
            <AltitudeMeters>625.5999755859375</AltitudeMeters>
            <DistanceMeters>NAN</DistanceMeters>
          </Trackpoint>
          <Trackpoint>
            <Time>2020-12-05T10:43:01.000Z</Time>
            <Position>
              <LatitudeDegrees>36.83648153208196163177490234375</LatitudeDegrees>
              <LongitudeDegrees>-4.3813683092594146728515625</LongitudeDegrees>
            </Position>
            <AltitudeMeters>625.4000244140625</AltitudeMeters>
            <DistanceMeters>NAN</DistanceMeters>
          </Trackpoint>
          <Trackpoint>
            <Time>2020-12-05T10:43:02.000Z</Time>
            <Position>
              <LatitudeDegrees>36.8364693783223628997802734375</LatitudeDegrees>
              <LongitudeDegrees>-4.381374679505825042724609375</LongitudeDegrees>
            </Position>
            <AltitudeMeters>625.4000244140625</AltitudeMeters>
            <DistanceMeters>NAN</DistanceMeters>
          </Trackpoint>
          <Trackpoint>
            <Time>2020-12-05T10:43:03.000Z</Time>
            <Position>
              <LatitudeDegrees>36.8364569731056690216064453125</LatitudeDegrees>
              <LongitudeDegrees>-4.38138096593320369720458984375</LongitudeDegrees>
            </Position>
            <AltitudeMeters>625.4000244140625</AltitudeMeters>
            <DistanceMeters>NAN</DistanceMeters>
          </Trackpoint>
          <Trackpoint>
            <Time>2020-12-05T10:43:04.000Z</Time>
            <Position>
              <LatitudeDegrees>36.83644649572670459747314453125</LatitudeDegrees>
              <LongitudeDegrees>-4.3813859112560749053955078125</LongitudeDegrees>
            </Position>
            <AltitudeMeters>625.20001220703125</AltitudeMeters>
            <DistanceMeters>NAN</DistanceMeters>
          </Trackpoint>
          <Trackpoint>
            <Time>2020-12-05T10:43:05.000Z</Time>
            <Position>
              <LatitudeDegrees>36.8364341743290424346923828125</LatitudeDegrees>
              <LongitudeDegrees>-4.38139353878796100616455078125</LongitudeDegrees>
            </Position>
            <AltitudeMeters>625</AltitudeMeters>
            <DistanceMeters>NAN</DistanceMeters>
          </Trackpoint>
          <Trackpoint>
            <Time>2020-12-05T10:43:06.000Z</Time>
            <Position>
              <LatitudeDegrees>36.8364210985600948333740234375</LatitudeDegrees>
              <LongitudeDegrees>-4.38140175305306911468505859375</LongitudeDegrees>
            </Position>
            <AltitudeMeters>625</AltitudeMeters>
            <DistanceMeters>NAN</DistanceMeters>
          </Trackpoint>
          <Trackpoint>
            <Time>2020-12-05T10:43:07.000Z</Time>
            <Position>
              <LatitudeDegrees>36.83640827424824237823486328125</LatitudeDegrees>
              <LongitudeDegrees>-4.38140611164271831512451171875</LongitudeDegrees>
            </Position>
            <AltitudeMeters>625</AltitudeMeters>
            <DistanceMeters>NAN</DistanceMeters>
          </Trackpoint>
          <Trackpoint>
            <Time>2020-12-05T10:43:08.000Z</Time>
            <Position>
              <LatitudeDegrees>36.8363939411938190460205078125</LatitudeDegrees>
              <LongitudeDegrees>-4.38141013495624065399169921875</LongitudeDegrees>
            </Position>
            <AltitudeMeters>625</AltitudeMeters>
            <DistanceMeters>NAN</DistanceMeters>
          </Trackpoint>
          <Trackpoint>
            <Time>2020-12-05T10:43:09.000Z</Time>
            <Position>
              <LatitudeDegrees>36.8363812007009983062744140625</LatitudeDegrees>
              <LongitudeDegrees>-4.38141432590782642364501953125</LongitudeDegrees>
            </Position>
            <AltitudeMeters>625.20001220703125</AltitudeMeters>
            <DistanceMeters>NAN</DistanceMeters>
          </Trackpoint>
          <Trackpoint>
            <Time>2020-12-05T10:43:10.000Z</Time>
            <Position>
              <LatitudeDegrees>36.83636921457946300506591796875</LatitudeDegrees>
              <LongitudeDegrees>-4.38141918741166591644287109375</LongitudeDegrees>
            </Position>
            <AltitudeMeters>625.5999755859375</AltitudeMeters>
            <DistanceMeters>NAN</DistanceMeters>
          </Trackpoint>
          <Trackpoint>
            <Time>2020-12-05T10:43:11.000Z</Time>
            <Position>
              <LatitudeDegrees>36.83635597117245197296142578125</LatitudeDegrees>
              <LongitudeDegrees>-4.38142019324004650115966796875</LongitudeDegrees>
            </Position>
            <AltitudeMeters>626</AltitudeMeters>
            <DistanceMeters>NAN</DistanceMeters>
          </Trackpoint>
          <Trackpoint>
            <Time>2020-12-05T10:43:12.000Z</Time>
            <Position>
              <LatitudeDegrees>36.83634348213672637939453125</LatitudeDegrees>
              <LongitudeDegrees>-4.3814204446971416473388671875</LongitudeDegrees>
            </Position>
            <AltitudeMeters>626.20001220703125</AltitudeMeters>
            <DistanceMeters>NAN</DistanceMeters>
          </Trackpoint>
          <Trackpoint>
            <Time>2020-12-05T10:43:13.000Z</Time>
            <Position>
              <LatitudeDegrees>36.8363335914909839630126953125</LatitudeDegrees>
              <LongitudeDegrees>-4.381420947611331939697265625</LongitudeDegrees>
            </Position>
            <AltitudeMeters>626.20001220703125</AltitudeMeters>
            <DistanceMeters>NAN</DistanceMeters>
          </Trackpoint>
          <Trackpoint>
            <Time>2020-12-05T10:43:14.000Z</Time>
            <Position>
              <LatitudeDegrees>36.836322359740734100341796875</LatitudeDegrees>
              <LongitudeDegrees>-4.381422288715839385986328125</LongitudeDegrees>
            </Position>
            <AltitudeMeters>626.20001220703125</AltitudeMeters>
            <DistanceMeters>NAN</DistanceMeters>
          </Trackpoint>
          <Trackpoint>
            <Time>2020-12-05T10:43:15.000Z</Time>
            <Position>
              <LatitudeDegrees>36.8363121338188648223876953125</LatitudeDegrees>
              <LongitudeDegrees>-4.38142321072518825531005859375</LongitudeDegrees>
            </Position>
            <AltitudeMeters>626</AltitudeMeters>
            <DistanceMeters>NAN</DistanceMeters>
          </Trackpoint>
          <Trackpoint>
            <Time>2020-12-05T10:43:16.000Z</Time>
            <Position>
              <LatitudeDegrees>36.8363007344305515289306640625</LatitudeDegrees>
              <LongitudeDegrees>-4.3814244680106639862060546875</LongitudeDegrees>
            </Position>
            <AltitudeMeters>625.5999755859375</AltitudeMeters>
            <DistanceMeters>NAN</DistanceMeters>
          </Trackpoint>
          <Trackpoint>
            <Time>2020-12-05T10:43:17.000Z</Time>
            <Position>
              <LatitudeDegrees>36.8362878262996673583984375</LatitudeDegrees>
              <LongitudeDegrees>-4.38143293373286724090576171875</LongitudeDegrees>
            </Position>
            <AltitudeMeters>625.4000244140625</AltitudeMeters>
            <DistanceMeters>NAN</DistanceMeters>
          </Trackpoint>
          <Trackpoint>
            <Time>2020-12-05T10:43:18.000Z</Time>
            <Position>
              <LatitudeDegrees>36.83627449907362461090087890625</LatitudeDegrees>
              <LongitudeDegrees>-4.38144332729279994964599609375</LongitudeDegrees>
            </Position>
            <AltitudeMeters>625.20001220703125</AltitudeMeters>
            <DistanceMeters>NAN</DistanceMeters>
          </Trackpoint>
          <Trackpoint>
            <Time>2020-12-05T10:43:19.000Z</Time>
            <Position>
              <LatitudeDegrees>36.83626175858080387115478515625</LatitudeDegrees>
              <LongitudeDegrees>-4.3814541399478912353515625</LongitudeDegrees>
            </Position>
            <AltitudeMeters>625</AltitudeMeters>
            <DistanceMeters>NAN</DistanceMeters>
          </Trackpoint>
          <Trackpoint>
            <Time>2020-12-05T10:43:20.000Z</Time>
            <Position>
              <LatitudeDegrees>36.83624851517379283905029296875</LatitudeDegrees>
              <LongitudeDegrees>-4.381463192403316497802734375</LongitudeDegrees>
            </Position>
            <AltitudeMeters>624.79998779296875</AltitudeMeters>
            <DistanceMeters>NAN</DistanceMeters>
          </Trackpoint>
          <Trackpoint>
            <Time>2020-12-05T10:43:21.000Z</Time>
            <Position>
              <LatitudeDegrees>36.836238205432891845703125</LatitudeDegrees>
              <LongitudeDegrees>-4.38147115521132946014404296875</LongitudeDegrees>
            </Position>
            <AltitudeMeters>624.5999755859375</AltitudeMeters>
            <DistanceMeters>NAN</DistanceMeters>
          </Trackpoint>
          <Trackpoint>
            <Time>2020-12-05T10:43:22.000Z</Time>
            <Position>
              <LatitudeDegrees>36.83622973971068859100341796875</LatitudeDegrees>
              <LongitudeDegrees>-4.381479956209659576416015625</LongitudeDegrees>
            </Position>
            <AltitudeMeters>624.4000244140625</AltitudeMeters>
            <DistanceMeters>NAN</DistanceMeters>
          </Trackpoint>
          <Trackpoint>
            <Time>2020-12-05T10:43:23.000Z</Time>
            <Position>
              <LatitudeDegrees>36.8362195976078510284423828125</LatitudeDegrees>
              <LongitudeDegrees>-4.38148791901767253875732421875</LongitudeDegrees>
            </Position>
            <AltitudeMeters>624.4000244140625</AltitudeMeters>
            <DistanceMeters>NAN</DistanceMeters>
          </Trackpoint>
          <Trackpoint>
            <Time>2020-12-05T10:43:24.000Z</Time>
            <Position>
              <LatitudeDegrees>36.83620710857212543487548828125</LatitudeDegrees>
              <LongitudeDegrees>-4.38149529509246349334716796875</LongitudeDegrees>
            </Position>
            <AltitudeMeters>624.20001220703125</AltitudeMeters>
            <DistanceMeters>NAN</DistanceMeters>
          </Trackpoint>
          <Trackpoint>
            <Time>2020-12-05T10:43:25.000Z</Time>
            <Position>
              <LatitudeDegrees>36.83619420044124126434326171875</LatitudeDegrees>
              <LongitudeDegrees>-4.38150334171950817108154296875</LongitudeDegrees>
            </Position>
            <AltitudeMeters>624.20001220703125</AltitudeMeters>
            <DistanceMeters>NAN</DistanceMeters>
          </Trackpoint>
          <Trackpoint>
            <Time>2020-12-05T10:43:26.000Z</Time>
            <Position>
              <LatitudeDegrees>36.83618112467229366302490234375</LatitudeDegrees>
              <LongitudeDegrees>-4.3815102986991405487060546875</LongitudeDegrees>
            </Position>
            <AltitudeMeters>624.20001220703125</AltitudeMeters>
            <DistanceMeters>NAN</DistanceMeters>
          </Trackpoint>
          <Trackpoint>
            <Time>2020-12-05T10:43:27.000Z</Time>
            <Position>
              <LatitudeDegrees>36.83616922236979007720947265625</LatitudeDegrees>
              <LongitudeDegrees>-4.38151524402201175689697265625</LongitudeDegrees>
            </Position>
            <AltitudeMeters>624</AltitudeMeters>
            <DistanceMeters>NAN</DistanceMeters>
          </Trackpoint>
          <Trackpoint>
            <Time>2020-12-05T10:43:28.000Z</Time>
            <Position>
              <LatitudeDegrees>36.83615732006728649139404296875</LatitudeDegrees>
              <LongitudeDegrees>-4.38151608221232891082763671875</LongitudeDegrees>
            </Position>
            <AltitudeMeters>623.79998779296875</AltitudeMeters>
            <DistanceMeters>NAN</DistanceMeters>
          </Trackpoint>
          <Trackpoint>
            <Time>2020-12-05T10:43:29.000Z</Time>
            <Position>
              <LatitudeDegrees>36.8361455015838146209716796875</LatitudeDegrees>
              <LongitudeDegrees>-4.38151541166007518768310546875</LongitudeDegrees>
            </Position>
            <AltitudeMeters>623.4000244140625</AltitudeMeters>
            <DistanceMeters>NAN</DistanceMeters>
          </Trackpoint>
          <Trackpoint>
            <Time>2020-12-05T10:43:30.000Z</Time>
            <Position>
              <LatitudeDegrees>36.8361349403858184814453125</LatitudeDegrees>
              <LongitudeDegrees>-4.38151381909847259521484375</LongitudeDegrees>
            </Position>
            <AltitudeMeters>623</AltitudeMeters>
            <DistanceMeters>NAN</DistanceMeters>
          </Trackpoint>
          <Trackpoint>
            <Time>2020-12-05T10:43:31.000Z</Time>
            <Position>
              <LatitudeDegrees>36.836122535169124603271484375</LatitudeDegrees>
              <LongitudeDegrees>-4.3815113045275211334228515625</LongitudeDegrees>
            </Position>
            <AltitudeMeters>622.79998779296875</AltitudeMeters>
            <DistanceMeters>NAN</DistanceMeters>
          </Trackpoint>
          <Trackpoint>
            <Time>2020-12-05T10:43:32.000Z</Time>
            <Position>
              <LatitudeDegrees>36.83610803447663784027099609375</LatitudeDegrees>
              <LongitudeDegrees>-4.38151105307042598724365234375</LongitudeDegrees>
            </Position>
            <AltitudeMeters>622.79998779296875</AltitudeMeters>
            <DistanceMeters>NAN</DistanceMeters>
          </Trackpoint>
          <Trackpoint>
            <Time>2020-12-05T10:43:33.000Z</Time>
            <Position>
              <LatitudeDegrees>36.83609445579349994659423828125</LatitudeDegrees>
              <LongitudeDegrees>-4.38150987960398197174072265625</LongitudeDegrees>
            </Position>
            <AltitudeMeters>622.5999755859375</AltitudeMeters>
            <DistanceMeters>NAN</DistanceMeters>
          </Trackpoint>
          <Trackpoint>
            <Time>2020-12-05T10:43:34.000Z</Time>
            <Position>
              <LatitudeDegrees>36.83608255349099636077880859375</LatitudeDegrees>
              <LongitudeDegrees>-4.38150711357593536376953125</LongitudeDegrees>
            </Position>
            <AltitudeMeters>622.5999755859375</AltitudeMeters>
            <DistanceMeters>NAN</DistanceMeters>
          </Trackpoint>
          <Trackpoint>
            <Time>2020-12-05T10:43:35.000Z</Time>
            <Position>
              <LatitudeDegrees>36.8360705673694610595703125</LatitudeDegrees>
              <LongitudeDegrees>-4.38150082714855670928955078125</LongitudeDegrees>
            </Position>
            <AltitudeMeters>622.5999755859375</AltitudeMeters>
            <DistanceMeters>NAN</DistanceMeters>
          </Trackpoint>
          <Trackpoint>
            <Time>2020-12-05T10:43:36.000Z</Time>
            <Position>
              <LatitudeDegrees>36.836059503257274627685546875</LatitudeDegrees>
              <LongitudeDegrees>-4.381501413881778717041015625</LongitudeDegrees>
            </Position>
            <AltitudeMeters>622.79998779296875</AltitudeMeters>
            <DistanceMeters>NAN</DistanceMeters>
          </Trackpoint>
          <Trackpoint>
            <Time>2020-12-05T10:43:37.000Z</Time>
            <Position>
              <LatitudeDegrees>36.8360472656786441802978515625</LatitudeDegrees>
              <LongitudeDegrees>-4.3815012462437152862548828125</LongitudeDegrees>
            </Position>
            <AltitudeMeters>622.79998779296875</AltitudeMeters>
            <DistanceMeters>NAN</DistanceMeters>
          </Trackpoint>
          <Trackpoint>
            <Time>2020-12-05T10:43:38.000Z</Time>
            <Position>
              <LatitudeDegrees>36.836038716137409210205078125</LatitudeDegrees>
              <LongitudeDegrees>-4.3814999051392078399658203125</LongitudeDegrees>
            </Position>
            <AltitudeMeters>622.5999755859375</AltitudeMeters>
            <DistanceMeters>NAN</DistanceMeters>
          </Trackpoint>
          <Trackpoint>
            <Time>2020-12-05T10:43:39.000Z</Time>
            <Position>
              <LatitudeDegrees>36.8360301665961742401123046875</LatitudeDegrees>
              <LongitudeDegrees>-4.38149328343570232391357421875</LongitudeDegrees>
            </Position>
            <AltitudeMeters>622.5999755859375</AltitudeMeters>
            <DistanceMeters>NAN</DistanceMeters>
          </Trackpoint>
          <Trackpoint>
            <Time>2020-12-05T10:43:40.000Z</Time>
            <Position>
              <LatitudeDegrees>36.83602287434041500091552734375</LatitudeDegrees>
              <LongitudeDegrees>-4.3814828060567378997802734375</LongitudeDegrees>
            </Position>
            <AltitudeMeters>622.5999755859375</AltitudeMeters>
            <DistanceMeters>NAN</DistanceMeters>
          </Trackpoint>
          <Trackpoint>
            <Time>2020-12-05T10:43:41.000Z</Time>
            <Position>
              <LatitudeDegrees>36.83601968921720981597900390625</LatitudeDegrees>
              <LongitudeDegrees>-4.38147601671516895294189453125</LongitudeDegrees>
            </Position>
            <AltitudeMeters>622.5999755859375</AltitudeMeters>
            <DistanceMeters>NAN</DistanceMeters>
          </Trackpoint>
          <Trackpoint>
            <Time>2020-12-05T10:43:42.000Z</Time>
            <Position>
              <LatitudeDegrees>36.83601030148565769195556640625</LatitudeDegrees>
              <LongitudeDegrees>-4.38147081993520259857177734375</LongitudeDegrees>
            </Position>
            <AltitudeMeters>622.79998779296875</AltitudeMeters>
            <DistanceMeters>NAN</DistanceMeters>
          </Trackpoint>
          <Trackpoint>
            <Time>2020-12-05T10:43:43.000Z</Time>
            <Position>
              <LatitudeDegrees>36.835997812449932098388671875</LatitudeDegrees>
              <LongitudeDegrees>-4.38146956264972686767578125</LongitudeDegrees>
            </Position>
            <AltitudeMeters>622.79998779296875</AltitudeMeters>
            <DistanceMeters>NAN</DistanceMeters>
          </Trackpoint>
          <Trackpoint>
            <Time>2020-12-05T10:43:44.000Z</Time>
            <Position>
              <LatitudeDegrees>36.8359865806996822357177734375</LatitudeDegrees>
              <LongitudeDegrees>-4.38147199340164661407470703125</LongitudeDegrees>
            </Position>
            <AltitudeMeters>622.79998779296875</AltitudeMeters>
            <DistanceMeters>NAN</DistanceMeters>
          </Trackpoint>
          <Trackpoint>
            <Time>2020-12-05T10:43:45.000Z</Time>
            <Position>
              <LatitudeDegrees>36.83597643859684467315673828125</LatitudeDegrees>
              <LongitudeDegrees>-4.38147501088678836822509765625</LongitudeDegrees>
            </Position>
            <AltitudeMeters>622.79998779296875</AltitudeMeters>
            <DistanceMeters>NAN</DistanceMeters>
          </Trackpoint>
          <Trackpoint>
            <Time>2020-12-05T10:43:46.000Z</Time>
            <Position>
              <LatitudeDegrees>36.83597157709300518035888671875</LatitudeDegrees>
              <LongitudeDegrees>-4.38147618435323238372802734375</LongitudeDegrees>
            </Position>
            <AltitudeMeters>622.5999755859375</AltitudeMeters>
            <DistanceMeters>NAN</DistanceMeters>
          </Trackpoint>
          <Trackpoint>
            <Time>2020-12-05T10:43:47.000Z</Time>
            <Position>
              <LatitudeDegrees>36.83596688322722911834716796875</LatitudeDegrees>
              <LongitudeDegrees>-4.38147534616291522979736328125</LongitudeDegrees>
            </Position>
            <AltitudeMeters>622.4000244140625</AltitudeMeters>
            <DistanceMeters>NAN</DistanceMeters>
          </Trackpoint>
          <Trackpoint>
            <Time>2020-12-05T10:43:48.000Z</Time>
            <Position>
              <LatitudeDegrees>36.83596269227564334869384765625</LatitudeDegrees>
              <LongitudeDegrees>-4.38147224485874176025390625</LongitudeDegrees>
            </Position>
            <AltitudeMeters>622.20001220703125</AltitudeMeters>
            <DistanceMeters>NAN</DistanceMeters>
          </Trackpoint>
          <Trackpoint>
            <Time>2020-12-05T10:43:49.000Z</Time>
            <Position>
              <LatitudeDegrees>36.8359587527811527252197265625</LatitudeDegrees>
              <LongitudeDegrees>-4.3814700655639171600341796875</LongitudeDegrees>
            </Position>
            <AltitudeMeters>622</AltitudeMeters>
            <DistanceMeters>NAN</DistanceMeters>
          </Trackpoint>
          <Trackpoint>
            <Time>2020-12-05T10:43:50.000Z</Time>
            <Position>
              <LatitudeDegrees>36.8359543941915035247802734375</LatitudeDegrees>
              <LongitudeDegrees>-4.381460510194301605224609375</LongitudeDegrees>
            </Position>
            <AltitudeMeters>622</AltitudeMeters>
            <DistanceMeters>NAN</DistanceMeters>
          </Trackpoint>
          <Trackpoint>
            <Time>2020-12-05T10:43:51.000Z</Time>
            <Position>
              <LatitudeDegrees>36.83594877831637859344482421875</LatitudeDegrees>
              <LongitudeDegrees>-4.3814459256827831268310546875</LongitudeDegrees>
            </Position>
            <AltitudeMeters>622.4000244140625</AltitudeMeters>
            <DistanceMeters>NAN</DistanceMeters>
          </Trackpoint>
          <Trackpoint>
            <Time>2020-12-05T10:43:52.000Z</Time>
            <Position>
              <LatitudeDegrees>36.83594358153641223907470703125</LatitudeDegrees>
              <LongitudeDegrees>-4.381435029208660125732421875</LongitudeDegrees>
            </Position>
            <AltitudeMeters>622.5999755859375</AltitudeMeters>
            <DistanceMeters>NAN</DistanceMeters>
          </Trackpoint>
          <Trackpoint>
            <Time>2020-12-05T10:43:53.000Z</Time>
            <Position>
              <LatitudeDegrees>36.83593872003257274627685546875</LatitudeDegrees>
              <LongitudeDegrees>-4.38142823986709117889404296875</LongitudeDegrees>
            </Position>
            <AltitudeMeters>623</AltitudeMeters>
            <DistanceMeters>NAN</DistanceMeters>
          </Trackpoint>
          <Trackpoint>
            <Time>2020-12-05T10:43:54.000Z</Time>
            <Position>
              <LatitudeDegrees>36.83593176305294036865234375</LatitudeDegrees>
              <LongitudeDegrees>-4.38141901977360248565673828125</LongitudeDegrees>
            </Position>
            <AltitudeMeters>623.20001220703125</AltitudeMeters>
            <DistanceMeters>NAN</DistanceMeters>
          </Trackpoint>
          <Trackpoint>
            <Time>2020-12-05T10:43:55.000Z</Time>
            <Position>
              <LatitudeDegrees>36.83592145331203937530517578125</LatitudeDegrees>
              <LongitudeDegrees>-4.381409548223018646240234375</LongitudeDegrees>
            </Position>
            <AltitudeMeters>623.5999755859375</AltitudeMeters>
            <DistanceMeters>NAN</DistanceMeters>
          </Trackpoint>
          <Trackpoint>
            <Time>2020-12-05T10:43:56.000Z</Time>
            <Position>
              <LatitudeDegrees>36.83591072447597980499267578125</LatitudeDegrees>
              <LongitudeDegrees>-4.38139923848211765289306640625</LongitudeDegrees>
            </Position>
            <AltitudeMeters>623.5999755859375</AltitudeMeters>
            <DistanceMeters>NAN</DistanceMeters>
          </Trackpoint>
          <Trackpoint>
            <Time>2020-12-05T10:43:57.000Z</Time>
            <Position>
              <LatitudeDegrees>36.83589630760252475738525390625</LatitudeDegrees>
              <LongitudeDegrees>-4.381390772759914398193359375</LongitudeDegrees>
            </Position>
            <AltitudeMeters>623.79998779296875</AltitudeMeters>
            <DistanceMeters>NAN</DistanceMeters>
          </Trackpoint>
          <Trackpoint>
            <Time>2020-12-05T10:43:58.000Z</Time>
            <Position>
              <LatitudeDegrees>36.835881136357784271240234375</LatitudeDegrees>
              <LongitudeDegrees>-4.38138582743704319000244140625</LongitudeDegrees>
            </Position>
            <AltitudeMeters>623.79998779296875</AltitudeMeters>
            <DistanceMeters>NAN</DistanceMeters>
          </Trackpoint>
          <Trackpoint>
            <Time>2020-12-05T10:43:59.000Z</Time>
            <Position>
              <LatitudeDegrees>36.83586747385561466217041015625</LatitudeDegrees>
              <LongitudeDegrees>-4.3813808821141719818115234375</LongitudeDegrees>
            </Position>
            <AltitudeMeters>623.79998779296875</AltitudeMeters>
            <DistanceMeters>NAN</DistanceMeters>
          </Trackpoint>
          <Trackpoint>
            <Time>2020-12-05T10:44:00.000Z</Time>
            <Position>
              <LatitudeDegrees>36.8358581699430942535400390625</LatitudeDegrees>
              <LongitudeDegrees>-4.38137744553387165069580078125</LongitudeDegrees>
            </Position>
            <AltitudeMeters>623.79998779296875</AltitudeMeters>
            <DistanceMeters>NAN</DistanceMeters>
          </Trackpoint>
          <Trackpoint>
            <Time>2020-12-05T10:44:01.000Z</Time>
            <Position>
              <LatitudeDegrees>36.83585255406796932220458984375</LatitudeDegrees>
              <LongitudeDegrees>-4.38137643970549106597900390625</LongitudeDegrees>
            </Position>
            <AltitudeMeters>623.4000244140625</AltitudeMeters>
            <DistanceMeters>NAN</DistanceMeters>
          </Trackpoint>
          <Trackpoint>
            <Time>2020-12-05T10:44:02.000Z</Time>
            <Position>
              <LatitudeDegrees>36.8358452618122100830078125</LatitudeDegrees>
              <LongitudeDegrees>-4.3813708238303661346435546875</LongitudeDegrees>
            </Position>
            <AltitudeMeters>623</AltitudeMeters>
            <DistanceMeters>NAN</DistanceMeters>
          </Trackpoint>
          <Trackpoint>
            <Time>2020-12-05T10:44:03.000Z</Time>
            <Position>
              <LatitudeDegrees>36.8358377180993556976318359375</LatitudeDegrees>
              <LongitudeDegrees>-4.38137023709714412689208984375</LongitudeDegrees>
            </Position>
            <AltitudeMeters>622.79998779296875</AltitudeMeters>
            <DistanceMeters>NAN</DistanceMeters>
          </Trackpoint>
          <Trackpoint>
            <Time>2020-12-05T10:44:04.000Z</Time>
            <Position>
              <LatitudeDegrees>36.8358283303678035736083984375</LatitudeDegrees>
              <LongitudeDegrees>-4.38136889599263668060302734375</LongitudeDegrees>
            </Position>
            <AltitudeMeters>622.5999755859375</AltitudeMeters>
            <DistanceMeters>NAN</DistanceMeters>
          </Trackpoint>
          <Trackpoint>
            <Time>2020-12-05T10:44:05.000Z</Time>
            <Position>
              <LatitudeDegrees>36.83581684716045856475830078125</LatitudeDegrees>
              <LongitudeDegrees>-4.381366632878780364990234375</LongitudeDegrees>
            </Position>
            <AltitudeMeters>622.5999755859375</AltitudeMeters>
            <DistanceMeters>NAN</DistanceMeters>
          </Trackpoint>
          <Trackpoint>
            <Time>2020-12-05T10:44:06.000Z</Time>
            <Position>
              <LatitudeDegrees>36.83580578304827213287353515625</LatitudeDegrees>
              <LongitudeDegrees>-4.381361268460750579833984375</LongitudeDegrees>
            </Position>
            <AltitudeMeters>622.5999755859375</AltitudeMeters>
            <DistanceMeters>NAN</DistanceMeters>
          </Trackpoint>
          <Trackpoint>
            <Time>2020-12-05T10:44:07.000Z</Time>
            <Position>
              <LatitudeDegrees>36.8357948027551174163818359375</LatitudeDegrees>
              <LongitudeDegrees>-4.3813533894717693328857421875</LongitudeDegrees>
            </Position>
            <AltitudeMeters>622.5999755859375</AltitudeMeters>
            <DistanceMeters>NAN</DistanceMeters>
          </Trackpoint>
          <Trackpoint>
            <Time>2020-12-05T10:44:08.000Z</Time>
            <Position>
              <LatitudeDegrees>36.83578399010002613067626953125</LatitudeDegrees>
              <LongitudeDegrees>-4.38134341500699520111083984375</LongitudeDegrees>
            </Position>
            <AltitudeMeters>622.4000244140625</AltitudeMeters>
            <DistanceMeters>NAN</DistanceMeters>
          </Trackpoint>
          <Trackpoint>
            <Time>2020-12-05T10:44:09.000Z</Time>
            <Position>
              <LatitudeDegrees>36.83577141724526882171630859375</LatitudeDegrees>
              <LongitudeDegrees>-4.38133520074188709259033203125</LongitudeDegrees>
            </Position>
            <AltitudeMeters>622.20001220703125</AltitudeMeters>
            <DistanceMeters>NAN</DistanceMeters>
          </Trackpoint>
          <Trackpoint>
            <Time>2020-12-05T10:44:10.000Z</Time>
            <Position>
              <LatitudeDegrees>36.835756413638591766357421875</LatitudeDegrees>
              <LongitudeDegrees>-4.381321705877780914306640625</LongitudeDegrees>
            </Position>
            <AltitudeMeters>622</AltitudeMeters>
            <DistanceMeters>NAN</DistanceMeters>
          </Trackpoint>
          <Trackpoint>
            <Time>2020-12-05T10:44:11.000Z</Time>
            <Position>
              <LatitudeDegrees>36.83574191294610500335693359375</LatitudeDegrees>
              <LongitudeDegrees>-4.38130536116659641265869140625</LongitudeDegrees>
            </Position>
            <AltitudeMeters>621.79998779296875</AltitudeMeters>
            <DistanceMeters>NAN</DistanceMeters>
          </Trackpoint>
          <Trackpoint>
            <Time>2020-12-05T10:44:12.000Z</Time>
            <Position>
              <LatitudeDegrees>36.83572816662490367889404296875</LatitudeDegrees>
              <LongitudeDegrees>-4.38128851354122161865234375</LongitudeDegrees>
            </Position>
            <AltitudeMeters>621.5999755859375</AltitudeMeters>
            <DistanceMeters>NAN</DistanceMeters>
          </Trackpoint>
          <Trackpoint>
            <Time>2020-12-05T10:44:13.000Z</Time>
            <Position>
              <LatitudeDegrees>36.83571542613208293914794921875</LatitudeDegrees>
              <LongitudeDegrees>-4.3812769465148448944091796875</LongitudeDegrees>
            </Position>
            <AltitudeMeters>621.5999755859375</AltitudeMeters>
            <DistanceMeters>NAN</DistanceMeters>
          </Trackpoint>
          <Trackpoint>
            <Time>2020-12-05T10:44:14.000Z</Time>
            <Position>
              <LatitudeDegrees>36.83570251800119876861572265625</LatitudeDegrees>
              <LongitudeDegrees>-4.38126898370683193206787109375</LongitudeDegrees>
            </Position>
            <AltitudeMeters>621.5999755859375</AltitudeMeters>
            <DistanceMeters>NAN</DistanceMeters>
          </Trackpoint>
          <Trackpoint>
            <Time>2020-12-05T10:44:15.000Z</Time>
            <Position>
              <LatitudeDegrees>36.83569044806063175201416015625</LatitudeDegrees>
              <LongitudeDegrees>-4.38126345165073871612548828125</LongitudeDegrees>
            </Position>
            <AltitudeMeters>621.4000244140625</AltitudeMeters>
            <DistanceMeters>NAN</DistanceMeters>
          </Trackpoint>
          <Trackpoint>
            <Time>2020-12-05T10:44:16.000Z</Time>
            <Position>
              <LatitudeDegrees>36.8356791324913501739501953125</LatitudeDegrees>
              <LongitudeDegrees>-4.38125976361334323883056640625</LongitudeDegrees>
            </Position>
            <AltitudeMeters>621.4000244140625</AltitudeMeters>
            <DistanceMeters>NAN</DistanceMeters>
          </Trackpoint>
          <Trackpoint>
            <Time>2020-12-05T10:44:17.000Z</Time>
            <Position>
              <LatitudeDegrees>36.8356700800359249114990234375</LatitudeDegrees>
              <LongitudeDegrees>-4.3812544830143451690673828125</LongitudeDegrees>
            </Position>
            <AltitudeMeters>621.4000244140625</AltitudeMeters>
            <DistanceMeters>NAN</DistanceMeters>
          </Trackpoint>
          <Trackpoint>
            <Time>2020-12-05T10:44:18.000Z</Time>
            <Position>
              <LatitudeDegrees>36.83566178195178508758544921875</LatitudeDegrees>
              <LongitudeDegrees>-4.38124819658696651458740234375</LongitudeDegrees>
            </Position>
            <AltitudeMeters>621.5999755859375</AltitudeMeters>
            <DistanceMeters>NAN</DistanceMeters>
          </Trackpoint>
          <Trackpoint>
            <Time>2020-12-05T10:44:19.000Z</Time>
            <Position>
              <LatitudeDegrees>36.83565541170537471771240234375</LatitudeDegrees>
              <LongitudeDegrees>-4.38124165870249271392822265625</LongitudeDegrees>
            </Position>
            <AltitudeMeters>621.5999755859375</AltitudeMeters>
            <DistanceMeters>NAN</DistanceMeters>
          </Trackpoint>
          <Trackpoint>
            <Time>2020-12-05T10:44:20.000Z</Time>
            <Position>
              <LatitudeDegrees>36.835649125277996063232421875</LatitudeDegrees>
              <LongitudeDegrees>-4.38123260624706745147705078125</LongitudeDegrees>
            </Position>
            <AltitudeMeters>621.79998779296875</AltitudeMeters>
            <DistanceMeters>NAN</DistanceMeters>
          </Trackpoint>
          <Trackpoint>
            <Time>2020-12-05T10:44:21.000Z</Time>
            <Position>
              <LatitudeDegrees>36.8356442637741565704345703125</LatitudeDegrees>
              <LongitudeDegrees>-4.38122238032519817352294921875</LongitudeDegrees>
            </Position>
            <AltitudeMeters>622</AltitudeMeters>
            <DistanceMeters>NAN</DistanceMeters>
          </Trackpoint>
          <Trackpoint>
            <Time>2020-12-05T10:44:22.000Z</Time>
            <Position>
              <LatitudeDegrees>36.83563965372741222381591796875</LatitudeDegrees>
              <LongitudeDegrees>-4.38120779581367969512939453125</LongitudeDegrees>
            </Position>
            <AltitudeMeters>622</AltitudeMeters>
            <DistanceMeters>NAN</DistanceMeters>
          </Trackpoint>
          <Trackpoint>
            <Time>2020-12-05T10:44:23.000Z</Time>
            <Position>
              <LatitudeDegrees>36.8356342054903507232666015625</LatitudeDegrees>
              <LongitudeDegrees>-4.38118994235992431640625</LongitudeDegrees>
            </Position>
            <AltitudeMeters>622.20001220703125</AltitudeMeters>
            <DistanceMeters>NAN</DistanceMeters>
          </Trackpoint>
          <Trackpoint>
            <Time>2020-12-05T10:44:24.000Z</Time>
            <Position>
              <LatitudeDegrees>36.835628338158130645751953125</LatitudeDegrees>
              <LongitudeDegrees>-4.38117309473454952239990234375</LongitudeDegrees>
            </Position>
            <AltitudeMeters>622.4000244140625</AltitudeMeters>
            <DistanceMeters>NAN</DistanceMeters>
          </Trackpoint>
          <Trackpoint>
            <Time>2020-12-05T10:44:25.000Z</Time>
            <Position>
              <LatitudeDegrees>36.8356228061020374298095703125</LatitudeDegrees>
              <LongitudeDegrees>-4.381158091127872467041015625</LongitudeDegrees>
            </Position>
            <AltitudeMeters>622.79998779296875</AltitudeMeters>
            <DistanceMeters>NAN</DistanceMeters>
          </Trackpoint>
          <Trackpoint>
            <Time>2020-12-05T10:44:26.000Z</Time>
            <Position>
              <LatitudeDegrees>36.8356221355497837066650390625</LatitudeDegrees>
              <LongitudeDegrees>-4.38114359043538570404052734375</LongitudeDegrees>
            </Position>
            <AltitudeMeters>623</AltitudeMeters>
            <DistanceMeters>NAN</DistanceMeters>
          </Trackpoint>
          <Trackpoint>
            <Time>2020-12-05T10:44:27.000Z</Time>
            <Position>
              <LatitudeDegrees>36.83561953715980052947998046875</LatitudeDegrees>
              <LongitudeDegrees>-4.3811269104480743408203125</LongitudeDegrees>
            </Position>
            <AltitudeMeters>623.4000244140625</AltitudeMeters>
            <DistanceMeters>NAN</DistanceMeters>
          </Trackpoint>
          <Trackpoint>
            <Time>2020-12-05T10:44:28.000Z</Time>
            <Position>
              <LatitudeDegrees>36.83561568148434162139892578125</LatitudeDegrees>
              <LongitudeDegrees>-4.38111559487879276275634765625</LongitudeDegrees>
            </Position>
            <AltitudeMeters>623.5999755859375</AltitudeMeters>
            <DistanceMeters>NAN</DistanceMeters>
          </Trackpoint>
          <Trackpoint>
            <Time>2020-12-05T10:44:29.000Z</Time>
            <Position>
              <LatitudeDegrees>36.83561258018016815185546875</LatitudeDegrees>
              <LongitudeDegrees>-4.3811056204140186309814453125</LongitudeDegrees>
            </Position>
            <AltitudeMeters>623.79998779296875</AltitudeMeters>
            <DistanceMeters>NAN</DistanceMeters>
          </Trackpoint>
          <Trackpoint>
            <Time>2020-12-05T10:44:30.000Z</Time>
            <Position>
              <LatitudeDegrees>36.83560528792440891265869140625</LatitudeDegrees>
              <LongitudeDegrees>-4.3810958974063396453857421875</LongitudeDegrees>
            </Position>
            <AltitudeMeters>624</AltitudeMeters>
            <DistanceMeters>NAN</DistanceMeters>
          </Trackpoint>
          <Trackpoint>
            <Time>2020-12-05T10:44:31.000Z</Time>
            <Position>
              <LatitudeDegrees>36.83559305034577846527099609375</LatitudeDegrees>
              <LongitudeDegrees>-4.3810855038464069366455078125</LongitudeDegrees>
            </Position>
            <AltitudeMeters>624</AltitudeMeters>
            <DistanceMeters>NAN</DistanceMeters>
          </Trackpoint>
          <Trackpoint>
            <Time>2020-12-05T10:44:32.000Z</Time>
            <Position>
              <LatitudeDegrees>36.8355788849294185638427734375</LatitudeDegrees>
              <LongitudeDegrees>-4.3810751102864742279052734375</LongitudeDegrees>
            </Position>
            <AltitudeMeters>624</AltitudeMeters>
            <DistanceMeters>NAN</DistanceMeters>
          </Trackpoint>
          <Trackpoint>
            <Time>2020-12-05T10:44:33.000Z</Time>
            <Position>
              <LatitudeDegrees>36.835566647350788116455078125</LatitudeDegrees>
              <LongitudeDegrees>-4.38106052577495574951171875</LongitudeDegrees>
            </Position>
            <AltitudeMeters>624.20001220703125</AltitudeMeters>
            <DistanceMeters>NAN</DistanceMeters>
          </Trackpoint>
          <Trackpoint>
            <Time>2020-12-05T10:44:34.000Z</Time>
            <Position>
              <LatitudeDegrees>36.83555818162858486175537109375</LatitudeDegrees>
              <LongitudeDegrees>-4.3810462765395641326904296875</LongitudeDegrees>
            </Position>
            <AltitudeMeters>624.20001220703125</AltitudeMeters>
            <DistanceMeters>NAN</DistanceMeters>
          </Trackpoint>
          <Trackpoint>
            <Time>2020-12-05T10:44:35.000Z</Time>
            <Position>
              <LatitudeDegrees>36.83555013500154018402099609375</LatitudeDegrees>
              <LongitudeDegrees>-4.38103194348514080047607421875</LongitudeDegrees>
            </Position>
            <AltitudeMeters>624.20001220703125</AltitudeMeters>
            <DistanceMeters>NAN</DistanceMeters>
          </Trackpoint>
          <Trackpoint>
            <Time>2020-12-05T10:44:36.000Z</Time>
            <Position>
              <LatitudeDegrees>36.83554275892674922943115234375</LatitudeDegrees>
              <LongitudeDegrees>-4.38101970590651035308837890625</LongitudeDegrees>
            </Position>
            <AltitudeMeters>624.20001220703125</AltitudeMeters>
            <DistanceMeters>NAN</DistanceMeters>
          </Trackpoint>
          <Trackpoint>
            <Time>2020-12-05T10:44:37.000Z</Time>
            <Position>
              <LatitudeDegrees>36.835535131394863128662109375</LatitudeDegrees>
              <LongitudeDegrees>-4.3810087256133556365966796875</LongitudeDegrees>
            </Position>
            <AltitudeMeters>624.20001220703125</AltitudeMeters>
            <DistanceMeters>NAN</DistanceMeters>
          </Trackpoint>
          <Trackpoint>
            <Time>2020-12-05T10:44:38.000Z</Time>
            <Position>
              <LatitudeDegrees>36.8355259113013744354248046875</LatitudeDegrees>
              <LongitudeDegrees>-4.38099489547312259674072265625</LongitudeDegrees>
            </Position>
            <AltitudeMeters>624.4000244140625</AltitudeMeters>
            <DistanceMeters>NAN</DistanceMeters>
          </Trackpoint>
          <Trackpoint>
            <Time>2020-12-05T10:44:39.000Z</Time>
            <Position>
              <LatitudeDegrees>36.8355148471891880035400390625</LatitudeDegrees>
              <LongitudeDegrees>-4.38098534010350704193115234375</LongitudeDegrees>
            </Position>
            <AltitudeMeters>624.4000244140625</AltitudeMeters>
            <DistanceMeters>NAN</DistanceMeters>
          </Trackpoint>
          <Trackpoint>
            <Time>2020-12-05T10:44:40.000Z</Time>
            <Position>
              <LatitudeDegrees>36.8355068005621433258056640625</LatitudeDegrees>
              <LongitudeDegrees>-4.38097896985709667205810546875</LongitudeDegrees>
            </Position>
            <AltitudeMeters>624.4000244140625</AltitudeMeters>
            <DistanceMeters>NAN</DistanceMeters>
          </Trackpoint>
          <Trackpoint>
            <Time>2020-12-05T10:44:41.000Z</Time>
            <Position>
              <LatitudeDegrees>36.8354970775544643402099609375</LatitudeDegrees>
              <LongitudeDegrees>-4.38096807338297367095947265625</LongitudeDegrees>
            </Position>
            <AltitudeMeters>624.4000244140625</AltitudeMeters>
            <DistanceMeters>NAN</DistanceMeters>
          </Trackpoint>
          <Trackpoint>
            <Time>2020-12-05T10:44:42.000Z</Time>
            <Position>
              <LatitudeDegrees>36.8354863487184047698974609375</LatitudeDegrees>
              <LongitudeDegrees>-4.3809587694704532623291015625</LongitudeDegrees>
            </Position>
            <AltitudeMeters>624.4000244140625</AltitudeMeters>
            <DistanceMeters>NAN</DistanceMeters>
          </Trackpoint>
          <Trackpoint>
            <Time>2020-12-05T10:44:43.000Z</Time>
            <Position>
              <LatitudeDegrees>36.83547578752040863037109375</LatitudeDegrees>
              <LongitudeDegrees>-4.38094896264374256134033203125</LongitudeDegrees>
            </Position>
            <AltitudeMeters>624.5999755859375</AltitudeMeters>
            <DistanceMeters>NAN</DistanceMeters>
          </Trackpoint>
          <Trackpoint>
            <Time>2020-12-05T10:44:44.000Z</Time>
            <Position>
              <LatitudeDegrees>36.83546363376080989837646484375</LatitudeDegrees>
              <LongitudeDegrees>-4.38093848526477813720703125</LongitudeDegrees>
            </Position>
            <AltitudeMeters>624.79998779296875</AltitudeMeters>
            <DistanceMeters>NAN</DistanceMeters>
          </Trackpoint>
          <Trackpoint>
            <Time>2020-12-05T10:44:45.000Z</Time>
            <Position>
              <LatitudeDegrees>36.83545391075313091278076171875</LatitudeDegrees>
              <LongitudeDegrees>-4.38092817552387714385986328125</LongitudeDegrees>
            </Position>
            <AltitudeMeters>625</AltitudeMeters>
            <DistanceMeters>NAN</DistanceMeters>
          </Trackpoint>
          <Trackpoint>
            <Time>2020-12-05T10:44:46.000Z</Time>
            <Position>
              <LatitudeDegrees>36.835443265736103057861328125</LatitudeDegrees>
              <LongitudeDegrees>-4.38091979362070560455322265625</LongitudeDegrees>
            </Position>
            <AltitudeMeters>625.20001220703125</AltitudeMeters>
            <DistanceMeters>NAN</DistanceMeters>
          </Trackpoint>
          <Trackpoint>
            <Time>2020-12-05T10:44:47.000Z</Time>
            <Position>
              <LatitudeDegrees>36.83543421328067779541015625</LatitudeDegrees>
              <LongitudeDegrees>-4.38091258518397808074951171875</LongitudeDegrees>
            </Position>
            <AltitudeMeters>625.4000244140625</AltitudeMeters>
            <DistanceMeters>NAN</DistanceMeters>
          </Trackpoint>
          <Trackpoint>
            <Time>2020-12-05T10:44:48.000Z</Time>
            <Position>
              <LatitudeDegrees>36.83542775921523571014404296875</LatitudeDegrees>
              <LongitudeDegrees>-4.38090571202337741851806640625</LongitudeDegrees>
            </Position>
            <AltitudeMeters>625.4000244140625</AltitudeMeters>
            <DistanceMeters>NAN</DistanceMeters>
          </Trackpoint>
          <Trackpoint>
            <Time>2020-12-05T10:44:49.000Z</Time>
            <Position>
              <LatitudeDegrees>36.83542273007333278656005859375</LatitudeDegrees>
              <LongitudeDegrees>-4.38089716248214244842529296875</LongitudeDegrees>
            </Position>
            <AltitudeMeters>625.4000244140625</AltitudeMeters>
            <DistanceMeters>NAN</DistanceMeters>
          </Trackpoint>
          <Trackpoint>
            <Time>2020-12-05T10:44:50.000Z</Time>
            <Position>
              <LatitudeDegrees>36.83541904203593730926513671875</LatitudeDegrees>
              <LongitudeDegrees>-4.3808881938457489013671875</LongitudeDegrees>
            </Position>
            <AltitudeMeters>625.4000244140625</AltitudeMeters>
            <DistanceMeters>NAN</DistanceMeters>
          </Trackpoint>
          <Trackpoint>
            <Time>2020-12-05T10:44:51.000Z</Time>
            <Position>
              <LatitudeDegrees>36.8354169465601444244384765625</LatitudeDegrees>
              <LongitudeDegrees>-4.38087436370551586151123046875</LongitudeDegrees>
            </Position>
            <AltitudeMeters>625.4000244140625</AltitudeMeters>
            <DistanceMeters>NAN</DistanceMeters>
          </Trackpoint>
          <Trackpoint>
            <Time>2020-12-05T10:44:52.000Z</Time>
            <Position>
              <LatitudeDegrees>36.8354139290750026702880859375</LatitudeDegrees>
              <LongitudeDegrees>-4.38085994683206081390380859375</LongitudeDegrees>
            </Position>
            <AltitudeMeters>625.4000244140625</AltitudeMeters>
            <DistanceMeters>NAN</DistanceMeters>
          </Trackpoint>
          <Trackpoint>
            <Time>2020-12-05T10:44:53.000Z</Time>
            <Position>
              <LatitudeDegrees>36.835406385362148284912109375</LatitudeDegrees>
              <LongitudeDegrees>-4.38084620051085948944091796875</LongitudeDegrees>
            </Position>
            <AltitudeMeters>625.4000244140625</AltitudeMeters>
            <DistanceMeters>NAN</DistanceMeters>
          </Trackpoint>
          <Trackpoint>
            <Time>2020-12-05T10:44:54.000Z</Time>
            <Position>
              <LatitudeDegrees>36.8353968299925327301025390625</LatitudeDegrees>
              <LongitudeDegrees>-4.3808316998183727264404296875</LongitudeDegrees>
            </Position>
            <AltitudeMeters>625.4000244140625</AltitudeMeters>
            <DistanceMeters>NAN</DistanceMeters>
          </Trackpoint>
          <Trackpoint>
            <Time>2020-12-05T10:44:55.000Z</Time>
            <Position>
              <LatitudeDegrees>36.83538735844194889068603515625</LatitudeDegrees>
              <LongitudeDegrees>-4.38081954605877399444580078125</LongitudeDegrees>
            </Position>
            <AltitudeMeters>625.20001220703125</AltitudeMeters>
            <DistanceMeters>NAN</DistanceMeters>
          </Trackpoint>
          <Trackpoint>
            <Time>2020-12-05T10:44:56.000Z</Time>
            <Position>
              <LatitudeDegrees>36.83537813834846019744873046875</LatitudeDegrees>
              <LongitudeDegrees>-4.38080714084208011627197265625</LongitudeDegrees>
            </Position>
            <AltitudeMeters>625.20001220703125</AltitudeMeters>
            <DistanceMeters>NAN</DistanceMeters>
          </Trackpoint>
          <Trackpoint>
            <Time>2020-12-05T10:44:57.000Z</Time>
            <Position>
              <LatitudeDegrees>36.83537059463560581207275390625</LatitudeDegrees>
              <LongitudeDegrees>-4.38079775311052799224853515625</LongitudeDegrees>
            </Position>
            <AltitudeMeters>625.20001220703125</AltitudeMeters>
            <DistanceMeters>NAN</DistanceMeters>
          </Trackpoint>
          <Trackpoint>
            <Time>2020-12-05T10:44:58.000Z</Time>
            <Position>
              <LatitudeDegrees>36.835361458361148834228515625</LatitudeDegrees>
              <LongitudeDegrees>-4.380790293216705322265625</LongitudeDegrees>
            </Position>
            <AltitudeMeters>625.20001220703125</AltitudeMeters>
            <DistanceMeters>NAN</DistanceMeters>
          </Trackpoint>
          <Trackpoint>
            <Time>2020-12-05T10:44:59.000Z</Time>
            <Position>
              <LatitudeDegrees>36.8353539146482944488525390625</LatitudeDegrees>
              <LongitudeDegrees>-4.3807810731232166290283203125</LongitudeDegrees>
            </Position>
            <AltitudeMeters>625.20001220703125</AltitudeMeters>
            <DistanceMeters>NAN</DistanceMeters>
          </Trackpoint>
          <Trackpoint>
            <Time>2020-12-05T10:45:00.000Z</Time>
            <Position>
              <LatitudeDegrees>36.83534695766866207122802734375</LatitudeDegrees>
              <LongitudeDegrees>-4.380771853029727935791015625</LongitudeDegrees>
            </Position>
            <AltitudeMeters>625.20001220703125</AltitudeMeters>
            <DistanceMeters>NAN</DistanceMeters>
          </Trackpoint>
          <Trackpoint>
            <Time>2020-12-05T10:45:01.000Z</Time>
            <Position>
              <LatitudeDegrees>36.83534008450806140899658203125</LatitudeDegrees>
              <LongitudeDegrees>-4.3807602860033512115478515625</LongitudeDegrees>
            </Position>
            <AltitudeMeters>625.4000244140625</AltitudeMeters>
            <DistanceMeters>NAN</DistanceMeters>
          </Trackpoint>
          <Trackpoint>
            <Time>2020-12-05T10:45:02.000Z</Time>
            <Position>
              <LatitudeDegrees>36.8353324569761753082275390625</LatitudeDegrees>
              <LongitudeDegrees>-4.38074863515794277191162109375</LongitudeDegrees>
            </Position>
            <AltitudeMeters>625.4000244140625</AltitudeMeters>
            <DistanceMeters>NAN</DistanceMeters>
          </Trackpoint>
          <Trackpoint>
            <Time>2020-12-05T10:45:03.000Z</Time>
            <Position>
              <LatitudeDegrees>36.8353213928639888763427734375</LatitudeDegrees>
              <LongitudeDegrees>-4.3807361461222171783447265625</LongitudeDegrees>
            </Position>
            <AltitudeMeters>625.4000244140625</AltitudeMeters>
            <DistanceMeters>NAN</DistanceMeters>
          </Trackpoint>
          <Trackpoint>
            <Time>2020-12-05T10:45:04.000Z</Time>
            <Position>
              <LatitudeDegrees>36.8353063054382801055908203125</LatitudeDegrees>
              <LongitudeDegrees>-4.38072516582906246185302734375</LongitudeDegrees>
            </Position>
            <AltitudeMeters>625.4000244140625</AltitudeMeters>
            <DistanceMeters>NAN</DistanceMeters>
          </Trackpoint>
          <Trackpoint>
            <Time>2020-12-05T10:45:05.000Z</Time>
            <Position>
              <LatitudeDegrees>36.83528962545096874237060546875</LatitudeDegrees>
              <LongitudeDegrees>-4.38071577809751033782958984375</LongitudeDegrees>
            </Position>
            <AltitudeMeters>625.5999755859375</AltitudeMeters>
            <DistanceMeters>NAN</DistanceMeters>
          </Trackpoint>
          <Trackpoint>
            <Time>2020-12-05T10:45:06.000Z</Time>
            <Position>
              <LatitudeDegrees>36.835274957120418548583984375</LatitudeDegrees>
              <LongitudeDegrees>-4.38070706091821193695068359375</LongitudeDegrees>
            </Position>
            <AltitudeMeters>625.79998779296875</AltitudeMeters>
            <DistanceMeters>NAN</DistanceMeters>
          </Trackpoint>
          <Trackpoint>
            <Time>2020-12-05T10:45:07.000Z</Time>
            <Position>
              <LatitudeDegrees>36.8352637253701686859130859375</LatitudeDegrees>
              <LongitudeDegrees>-4.38069817610085010528564453125</LongitudeDegrees>
            </Position>
            <AltitudeMeters>625.79998779296875</AltitudeMeters>
            <DistanceMeters>NAN</DistanceMeters>
          </Trackpoint>
          <Trackpoint>
            <Time>2020-12-05T10:45:08.000Z</Time>
            <Position>
              <LatitudeDegrees>36.83525316417217254638671875</LatitudeDegrees>
              <LongitudeDegrees>-4.38068560324609279632568359375</LongitudeDegrees>
            </Position>
            <AltitudeMeters>626</AltitudeMeters>
            <DistanceMeters>NAN</DistanceMeters>
          </Trackpoint>
          <Trackpoint>
            <Time>2020-12-05T10:45:09.000Z</Time>
            <Position>
              <LatitudeDegrees>36.83524101041257381439208984375</LatitudeDegrees>
              <LongitudeDegrees>-4.3806724436581134796142578125</LongitudeDegrees>
            </Position>
            <AltitudeMeters>626</AltitudeMeters>
            <DistanceMeters>NAN</DistanceMeters>
          </Trackpoint>
          <Trackpoint>
            <Time>2020-12-05T10:45:10.000Z</Time>
            <Position>
              <LatitudeDegrees>36.83522994630038738250732421875</LatitudeDegrees>
              <LongitudeDegrees>-4.38066112808883190155029296875</LongitudeDegrees>
            </Position>
            <AltitudeMeters>626</AltitudeMeters>
            <DistanceMeters>NAN</DistanceMeters>
          </Trackpoint>
          <Trackpoint>
            <Time>2020-12-05T10:45:11.000Z</Time>
            <Position>
              <LatitudeDegrees>36.8352171219885349273681640625</LatitudeDegrees>
              <LongitudeDegrees>-4.38065039925277233123779296875</LongitudeDegrees>
            </Position>
            <AltitudeMeters>626</AltitudeMeters>
            <DistanceMeters>NAN</DistanceMeters>
          </Trackpoint>
          <Trackpoint>
            <Time>2020-12-05T10:45:12.000Z</Time>
            <Position>
              <LatitudeDegrees>36.83520396240055561065673828125</LatitudeDegrees>
              <LongitudeDegrees>-4.38063983805477619171142578125</LongitudeDegrees>
            </Position>
            <AltitudeMeters>626.20001220703125</AltitudeMeters>
            <DistanceMeters>NAN</DistanceMeters>
          </Trackpoint>
          <Trackpoint>
            <Time>2020-12-05T10:45:13.000Z</Time>
            <Position>
              <LatitudeDegrees>36.8351939879357814788818359375</LatitudeDegrees>
              <LongitudeDegrees>-4.38063296489417552947998046875</LongitudeDegrees>
            </Position>
            <AltitudeMeters>626.4000244140625</AltitudeMeters>
            <DistanceMeters>NAN</DistanceMeters>
          </Trackpoint>
          <Trackpoint>
            <Time>2020-12-05T10:45:14.000Z</Time>
            <Position>
              <LatitudeDegrees>36.8351829238235950469970703125</LatitudeDegrees>
              <LongitudeDegrees>-4.380623996257781982421875</LongitudeDegrees>
            </Position>
            <AltitudeMeters>626.5999755859375</AltitudeMeters>
            <DistanceMeters>NAN</DistanceMeters>
          </Trackpoint>
          <Trackpoint>
            <Time>2020-12-05T10:45:15.000Z</Time>
            <Position>
              <LatitudeDegrees>36.8351732008159160614013671875</LatitudeDegrees>
              <LongitudeDegrees>-4.3806157819926738739013671875</LongitudeDegrees>
            </Position>
            <AltitudeMeters>626.5999755859375</AltitudeMeters>
            <DistanceMeters>NAN</DistanceMeters>
          </Trackpoint>
          <Trackpoint>
            <Time>2020-12-05T10:45:16.000Z</Time>
            <Position>
              <LatitudeDegrees>36.835165321826934814453125</LatitudeDegrees>
              <LongitudeDegrees>-4.38060698099434375762939453125</LongitudeDegrees>
            </Position>
            <AltitudeMeters>626.79998779296875</AltitudeMeters>
            <DistanceMeters>NAN</DistanceMeters>
          </Trackpoint>
          <Trackpoint>
            <Time>2020-12-05T10:45:17.000Z</Time>
            <Position>
              <LatitudeDegrees>36.83515727519989013671875</LatitudeDegrees>
              <LongitudeDegrees>-4.38059784471988677978515625</LongitudeDegrees>
            </Position>
            <AltitudeMeters>626.79998779296875</AltitudeMeters>
            <DistanceMeters>NAN</DistanceMeters>
          </Trackpoint>
          <Trackpoint>
            <Time>2020-12-05T10:45:18.000Z</Time>
            <Position>
              <LatitudeDegrees>36.83514629490673542022705078125</LatitudeDegrees>
              <LongitudeDegrees>-4.38058770261704921722412109375</LongitudeDegrees>
            </Position>
            <AltitudeMeters>626.79998779296875</AltitudeMeters>
            <DistanceMeters>NAN</DistanceMeters>
          </Trackpoint>
          <Trackpoint>
            <Time>2020-12-05T10:45:19.000Z</Time>
            <Position>
              <LatitudeDegrees>36.83513456024229526519775390625</LatitudeDegrees>
              <LongitudeDegrees>-4.3805797398090362548828125</LongitudeDegrees>
            </Position>
            <AltitudeMeters>627</AltitudeMeters>
            <DistanceMeters>NAN</DistanceMeters>
          </Trackpoint>
          <Trackpoint>
            <Time>2020-12-05T10:45:20.000Z</Time>
            <Position>
              <LatitudeDegrees>36.83512181974947452545166015625</LatitudeDegrees>
              <LongitudeDegrees>-4.3805728666484355926513671875</LongitudeDegrees>
            </Position>
            <AltitudeMeters>627</AltitudeMeters>
            <DistanceMeters>NAN</DistanceMeters>
          </Trackpoint>
          <Trackpoint>
            <Time>2020-12-05T10:45:21.000Z</Time>
            <Position>
              <LatitudeDegrees>36.835106313228607177734375</LatitudeDegrees>
              <LongitudeDegrees>-4.38056590966880321502685546875</LongitudeDegrees>
            </Position>
            <AltitudeMeters>627.20001220703125</AltitudeMeters>
            <DistanceMeters>NAN</DistanceMeters>
          </Trackpoint>
          <Trackpoint>
            <Time>2020-12-05T10:45:22.000Z</Time>
            <Position>
              <LatitudeDegrees>36.8350947462022304534912109375</LatitudeDegrees>
              <LongitudeDegrees>-4.38056029379367828369140625</LongitudeDegrees>
            </Position>
            <AltitudeMeters>627.20001220703125</AltitudeMeters>
            <DistanceMeters>NAN</DistanceMeters>
          </Trackpoint>
          <Trackpoint>
            <Time>2020-12-05T10:45:23.000Z</Time>
            <Position>
              <LatitudeDegrees>36.83508678339421749114990234375</LatitudeDegrees>
              <LongitudeDegrees>-4.3805530853569507598876953125</LongitudeDegrees>
            </Position>
            <AltitudeMeters>627.4000244140625</AltitudeMeters>
            <DistanceMeters>NAN</DistanceMeters>
          </Trackpoint>
          <Trackpoint>
            <Time>2020-12-05T10:45:24.000Z</Time>
            <Position>
              <LatitudeDegrees>36.8350789882242679595947265625</LatitudeDegrees>
              <LongitudeDegrees>-4.38054428435862064361572265625</LongitudeDegrees>
            </Position>
            <AltitudeMeters>627.4000244140625</AltitudeMeters>
            <DistanceMeters>NAN</DistanceMeters>
          </Trackpoint>
          <Trackpoint>
            <Time>2020-12-05T10:45:25.000Z</Time>
            <Position>
              <LatitudeDegrees>36.83507320471107959747314453125</LatitudeDegrees>
              <LongitudeDegrees>-4.38053347170352935791015625</LongitudeDegrees>
            </Position>
            <AltitudeMeters>627.4000244140625</AltitudeMeters>
            <DistanceMeters>NAN</DistanceMeters>
          </Trackpoint>
          <Trackpoint>
            <Time>2020-12-05T10:45:26.000Z</Time>
            <Position>
              <LatitudeDegrees>36.835066415369510650634765625</LatitudeDegrees>
              <LongitudeDegrees>-4.3805192224681377410888671875</LongitudeDegrees>
            </Position>
            <AltitudeMeters>627.4000244140625</AltitudeMeters>
            <DistanceMeters>NAN</DistanceMeters>
          </Trackpoint>
          <Trackpoint>
            <Time>2020-12-05T10:45:27.000Z</Time>
            <Position>
              <LatitudeDegrees>36.8350566923618316650390625</LatitudeDegrees>
              <LongitudeDegrees>-4.38050136901438236236572265625</LongitudeDegrees>
            </Position>
            <AltitudeMeters>627.4000244140625</AltitudeMeters>
            <DistanceMeters>NAN</DistanceMeters>
          </Trackpoint>
          <Trackpoint>
            <Time>2020-12-05T10:45:28.000Z</Time>
            <Position>
              <LatitudeDegrees>36.83504789136350154876708984375</LatitudeDegrees>
              <LongitudeDegrees>-4.380488209426403045654296875</LongitudeDegrees>
            </Position>
            <AltitudeMeters>627.4000244140625</AltitudeMeters>
            <DistanceMeters>NAN</DistanceMeters>
          </Trackpoint>
          <Trackpoint>
            <Time>2020-12-05T10:45:29.000Z</Time>
            <Position>
              <LatitudeDegrees>36.8350367434322834014892578125</LatitudeDegrees>
              <LongitudeDegrees>-4.38047085888683795928955078125</LongitudeDegrees>
            </Position>
            <AltitudeMeters>627.4000244140625</AltitudeMeters>
            <DistanceMeters>NAN</DistanceMeters>
          </Trackpoint>
          <Trackpoint>
            <Time>2020-12-05T10:45:30.000Z</Time>
            <Position>
              <LatitudeDegrees>36.8350270204246044158935546875</LatitudeDegrees>
              <LongitudeDegrees>-4.3804541788995265960693359375</LongitudeDegrees>
            </Position>
            <AltitudeMeters>627.4000244140625</AltitudeMeters>
            <DistanceMeters>NAN</DistanceMeters>
          </Trackpoint>
          <Trackpoint>
            <Time>2020-12-05T10:45:31.000Z</Time>
            <Position>
              <LatitudeDegrees>36.83501821942627429962158203125</LatitudeDegrees>
              <LongitudeDegrees>-4.380439929664134979248046875</LongitudeDegrees>
            </Position>
            <AltitudeMeters>627.4000244140625</AltitudeMeters>
            <DistanceMeters>NAN</DistanceMeters>
          </Trackpoint>
          <Trackpoint>
            <Time>2020-12-05T10:45:32.000Z</Time>
            <Position>
              <LatitudeDegrees>36.83500774204730987548828125</LatitudeDegrees>
              <LongitudeDegrees>-4.3804266862571239471435546875</LongitudeDegrees>
            </Position>
            <AltitudeMeters>627.4000244140625</AltitudeMeters>
            <DistanceMeters>NAN</DistanceMeters>
          </Trackpoint>
          <Trackpoint>
            <Time>2020-12-05T10:45:33.000Z</Time>
            <Position>
              <LatitudeDegrees>36.83499575592577457427978515625</LatitudeDegrees>
              <LongitudeDegrees>-4.38041319139301776885986328125</LongitudeDegrees>
            </Position>
            <AltitudeMeters>627.5999755859375</AltitudeMeters>
            <DistanceMeters>NAN</DistanceMeters>
          </Trackpoint>
          <Trackpoint>
            <Time>2020-12-05T10:45:34.000Z</Time>
            <Position>
              <LatitudeDegrees>36.83498553000390529632568359375</LatitudeDegrees>
              <LongitudeDegrees>-4.3804015405476093292236328125</LongitudeDegrees>
            </Position>
            <AltitudeMeters>628</AltitudeMeters>
            <DistanceMeters>NAN</DistanceMeters>
          </Trackpoint>
          <Trackpoint>
            <Time>2020-12-05T10:45:35.000Z</Time>
            <Position>
              <LatitudeDegrees>36.83497262187302112579345703125</LatitudeDegrees>
              <LongitudeDegrees>-4.38038997352123260498046875</LongitudeDegrees>
            </Position>
            <AltitudeMeters>628.4000244140625</AltitudeMeters>
            <DistanceMeters>NAN</DistanceMeters>
          </Trackpoint>
          <Trackpoint>
            <Time>2020-12-05T10:45:36.000Z</Time>
            <Position>
              <LatitudeDegrees>36.8349589593708515167236328125</LatitudeDegrees>
              <LongitudeDegrees>-4.38037765212357044219970703125</LongitudeDegrees>
            </Position>
            <AltitudeMeters>628.79998779296875</AltitudeMeters>
            <DistanceMeters>NAN</DistanceMeters>
          </Trackpoint>
          <Trackpoint>
            <Time>2020-12-05T10:45:37.000Z</Time>
            <Position>
              <LatitudeDegrees>36.834945045411586761474609375</LatitudeDegrees>
              <LongitudeDegrees>-4.3803656660020351409912109375</LongitudeDegrees>
            </Position>
            <AltitudeMeters>629</AltitudeMeters>
            <DistanceMeters>NAN</DistanceMeters>
          </Trackpoint>
          <Trackpoint>
            <Time>2020-12-05T10:45:38.000Z</Time>
            <Position>
              <LatitudeDegrees>36.83493196964263916015625</LatitudeDegrees>
              <LongitudeDegrees>-4.38035309314727783203125</LongitudeDegrees>
            </Position>
            <AltitudeMeters>629</AltitudeMeters>
            <DistanceMeters>NAN</DistanceMeters>
          </Trackpoint>
          <Trackpoint>
            <Time>2020-12-05T10:45:39.000Z</Time>
            <Position>
              <LatitudeDegrees>36.8349210731685161590576171875</LatitudeDegrees>
              <LongitudeDegrees>-4.38034043647348880767822265625</LongitudeDegrees>
            </Position>
            <AltitudeMeters>629.20001220703125</AltitudeMeters>
            <DistanceMeters>NAN</DistanceMeters>
          </Trackpoint>
          <Trackpoint>
            <Time>2020-12-05T10:45:40.000Z</Time>
            <Position>
              <LatitudeDegrees>36.834912188351154327392578125</LatitudeDegrees>
              <LongitudeDegrees>-4.38032618723809719085693359375</LongitudeDegrees>
            </Position>
            <AltitudeMeters>629.20001220703125</AltitudeMeters>
            <DistanceMeters>NAN</DistanceMeters>
          </Trackpoint>
          <Trackpoint>
            <Time>2020-12-05T10:45:41.000Z</Time>
            <Position>
              <LatitudeDegrees>36.83490456081926822662353515625</LatitudeDegrees>
              <LongitudeDegrees>-4.38031579367816448211669921875</LongitudeDegrees>
            </Position>
            <AltitudeMeters>629.4000244140625</AltitudeMeters>
            <DistanceMeters>NAN</DistanceMeters>
          </Trackpoint>
          <Trackpoint>
            <Time>2020-12-05T10:45:42.000Z</Time>
            <Position>
              <LatitudeDegrees>36.83489643037319183349609375</LatitudeDegrees>
              <LongitudeDegrees>-4.38030271790921688079833984375</LongitudeDegrees>
            </Position>
            <AltitudeMeters>629.5999755859375</AltitudeMeters>
            <DistanceMeters>NAN</DistanceMeters>
          </Trackpoint>
          <Trackpoint>
            <Time>2020-12-05T10:45:43.000Z</Time>
            <Position>
              <LatitudeDegrees>36.834890060126781463623046875</LatitudeDegrees>
              <LongitudeDegrees>-4.38029450364410877227783203125</LongitudeDegrees>
            </Position>
            <AltitudeMeters>629.79998779296875</AltitudeMeters>
            <DistanceMeters>NAN</DistanceMeters>
          </Trackpoint>
          <Trackpoint>
            <Time>2020-12-05T10:45:44.000Z</Time>
            <Position>
              <LatitudeDegrees>36.83488343842327594757080078125</LatitudeDegrees>
              <LongitudeDegrees>-4.38028511591255664825439453125</LongitudeDegrees>
            </Position>
            <AltitudeMeters>630</AltitudeMeters>
            <DistanceMeters>NAN</DistanceMeters>
          </Trackpoint>
          <Trackpoint>
            <Time>2020-12-05T10:45:45.000Z</Time>
            <Position>
              <LatitudeDegrees>36.83487824164330959320068359375</LatitudeDegrees>
              <LongitudeDegrees>-4.380274973809719085693359375</LongitudeDegrees>
            </Position>
            <AltitudeMeters>630.20001220703125</AltitudeMeters>
            <DistanceMeters>NAN</DistanceMeters>
          </Trackpoint>
          <Trackpoint>
            <Time>2020-12-05T10:45:46.000Z</Time>
            <Position>
              <LatitudeDegrees>36.83487103320658206939697265625</LatitudeDegrees>
              <LongitudeDegrees>-4.3802654184401035308837890625</LongitudeDegrees>
            </Position>
            <AltitudeMeters>630.20001220703125</AltitudeMeters>
            <DistanceMeters>NAN</DistanceMeters>
          </Trackpoint>
          <Trackpoint>
            <Time>2020-12-05T10:45:47.000Z</Time>
            <Position>
              <LatitudeDegrees>36.83486290276050567626953125</LatitudeDegrees>
              <LongitudeDegrees>-4.38025359995663166046142578125</LongitudeDegrees>
            </Position>
            <AltitudeMeters>630.20001220703125</AltitudeMeters>
            <DistanceMeters>NAN</DistanceMeters>
          </Trackpoint>
          <Trackpoint>
            <Time>2020-12-05T10:45:48.000Z</Time>
            <Position>
              <LatitudeDegrees>36.83485527522861957550048828125</LatitudeDegrees>
              <LongitudeDegrees>-4.38024245202541351318359375</LongitudeDegrees>
            </Position>
            <AltitudeMeters>630</AltitudeMeters>
            <DistanceMeters>NAN</DistanceMeters>
          </Trackpoint>
          <Trackpoint>
            <Time>2020-12-05T10:45:49.000Z</Time>
            <Position>
              <LatitudeDegrees>36.83484873734414577484130859375</LatitudeDegrees>
              <LongitudeDegrees>-4.38023096881806850433349609375</LongitudeDegrees>
            </Position>
            <AltitudeMeters>629.79998779296875</AltitudeMeters>
            <DistanceMeters>NAN</DistanceMeters>
          </Trackpoint>
          <Trackpoint>
            <Time>2020-12-05T10:45:50.000Z</Time>
            <Position>
              <LatitudeDegrees>36.83484303764998912811279296875</LatitudeDegrees>
              <LongitudeDegrees>-4.3802194856107234954833984375</LongitudeDegrees>
            </Position>
            <AltitudeMeters>629.5999755859375</AltitudeMeters>
            <DistanceMeters>NAN</DistanceMeters>
          </Trackpoint>
          <Trackpoint>
            <Time>2020-12-05T10:45:51.000Z</Time>
            <Position>
              <LatitudeDegrees>36.8348379246890544891357421875</LatitudeDegrees>
              <LongitudeDegrees>-4.38020682893693447113037109375</LongitudeDegrees>
            </Position>
            <AltitudeMeters>629.4000244140625</AltitudeMeters>
            <DistanceMeters>NAN</DistanceMeters>
          </Trackpoint>
          <Trackpoint>
            <Time>2020-12-05T10:45:52.000Z</Time>
            <Position>
              <LatitudeDegrees>36.8348308838903903961181640625</LatitudeDegrees>
              <LongitudeDegrees>-4.38019710592925548553466796875</LongitudeDegrees>
            </Position>
            <AltitudeMeters>629.4000244140625</AltitudeMeters>
            <DistanceMeters>NAN</DistanceMeters>
          </Trackpoint>
          <Trackpoint>
            <Time>2020-12-05T10:45:53.000Z</Time>
            <Position>
              <LatitudeDegrees>36.83482510037720203399658203125</LatitudeDegrees>
              <LongitudeDegrees>-4.38018470071256160736083984375</LongitudeDegrees>
            </Position>
            <AltitudeMeters>629.20001220703125</AltitudeMeters>
            <DistanceMeters>NAN</DistanceMeters>
          </Trackpoint>
          <Trackpoint>
            <Time>2020-12-05T10:45:54.000Z</Time>
            <Position>
              <LatitudeDegrees>36.83481738902628421783447265625</LatitudeDegrees>
              <LongitudeDegrees>-4.3801742233335971832275390625</LongitudeDegrees>
            </Position>
            <AltitudeMeters>629</AltitudeMeters>
            <DistanceMeters>NAN</DistanceMeters>
          </Trackpoint>
          <Trackpoint>
            <Time>2020-12-05T10:45:55.000Z</Time>
            <Position>
              <LatitudeDegrees>36.83481235988438129425048828125</LatitudeDegrees>
              <LongitudeDegrees>-4.38016575761139392852783203125</LongitudeDegrees>
            </Position>
            <AltitudeMeters>629</AltitudeMeters>
            <DistanceMeters>NAN</DistanceMeters>
          </Trackpoint>
          <Trackpoint>
            <Time>2020-12-05T10:45:56.000Z</Time>
            <Position>
              <LatitudeDegrees>36.834807582199573516845703125</LatitudeDegrees>
              <LongitudeDegrees>-4.38015905208885669708251953125</LongitudeDegrees>
            </Position>
            <AltitudeMeters>629</AltitudeMeters>
            <DistanceMeters>NAN</DistanceMeters>
          </Trackpoint>
          <Trackpoint>
            <Time>2020-12-05T10:45:57.000Z</Time>
            <Position>
              <LatitudeDegrees>36.8347997032105922698974609375</LatitudeDegrees>
              <LongitudeDegrees>-4.380155615508556365966796875</LongitudeDegrees>
            </Position>
            <AltitudeMeters>629</AltitudeMeters>
            <DistanceMeters>NAN</DistanceMeters>
          </Trackpoint>
          <Trackpoint>
            <Time>2020-12-05T10:45:58.000Z</Time>
            <Position>
              <LatitudeDegrees>36.834788136184215545654296875</LatitudeDegrees>
              <LongitudeDegrees>-4.3801537714898586273193359375</LongitudeDegrees>
            </Position>
            <AltitudeMeters>629</AltitudeMeters>
            <DistanceMeters>NAN</DistanceMeters>
          </Trackpoint>
          <Trackpoint>
            <Time>2020-12-05T10:45:59.000Z</Time>
            <Position>
              <LatitudeDegrees>36.834778077900409698486328125</LatitudeDegrees>
              <LongitudeDegrees>-4.38015167601406574249267578125</LongitudeDegrees>
            </Position>
            <AltitudeMeters>629.20001220703125</AltitudeMeters>
            <DistanceMeters>NAN</DistanceMeters>
          </Trackpoint>
          <Trackpoint>
            <Time>2020-12-05T10:46:00.000Z</Time>
            <Position>
              <LatitudeDegrees>36.834768354892730712890625</LatitudeDegrees>
              <LongitudeDegrees>-4.38014723360538482666015625</LongitudeDegrees>
            </Position>
            <AltitudeMeters>629.20001220703125</AltitudeMeters>
            <DistanceMeters>NAN</DistanceMeters>
          </Trackpoint>
          <Trackpoint>
            <Time>2020-12-05T10:46:01.000Z</Time>
            <Position>
              <LatitudeDegrees>36.83475963771343231201171875</LatitudeDegrees>
              <LongitudeDegrees>-4.38014061190187931060791015625</LongitudeDegrees>
            </Position>
            <AltitudeMeters>629.4000244140625</AltitudeMeters>
            <DistanceMeters>NAN</DistanceMeters>
          </Trackpoint>
          <Trackpoint>
            <Time>2020-12-05T10:46:02.000Z</Time>
            <Position>
              <LatitudeDegrees>36.8347510881721973419189453125</LatitudeDegrees>
              <LongitudeDegrees>-4.38013114035129547119140625</LongitudeDegrees>
            </Position>
            <AltitudeMeters>629.5999755859375</AltitudeMeters>
            <DistanceMeters>NAN</DistanceMeters>
          </Trackpoint>
          <Trackpoint>
            <Time>2020-12-05T10:46:03.000Z</Time>
            <Position>
              <LatitudeDegrees>36.83473859913647174835205078125</LatitudeDegrees>
              <LongitudeDegrees>-4.38012175261974334716796875</LongitudeDegrees>
            </Position>
            <AltitudeMeters>629.5999755859375</AltitudeMeters>
            <DistanceMeters>NAN</DistanceMeters>
          </Trackpoint>
          <Trackpoint>
            <Time>2020-12-05T10:46:04.000Z</Time>
            <Position>
              <LatitudeDegrees>36.83472518809139728546142578125</LatitudeDegrees>
              <LongitudeDegrees>-4.38011513091623783111572265625</LongitudeDegrees>
            </Position>
            <AltitudeMeters>629.79998779296875</AltitudeMeters>
            <DistanceMeters>NAN</DistanceMeters>
          </Trackpoint>
          <Trackpoint>
            <Time>2020-12-05T10:46:05.000Z</Time>
            <Position>
              <LatitudeDegrees>36.8347111903131008148193359375</LatitudeDegrees>
              <LongitudeDegrees>-4.38010809011757373809814453125</LongitudeDegrees>
            </Position>
            <AltitudeMeters>630.20001220703125</AltitudeMeters>
            <DistanceMeters>NAN</DistanceMeters>
          </Trackpoint>
          <Trackpoint>
            <Time>2020-12-05T10:46:06.000Z</Time>
            <Position>
              <LatitudeDegrees>36.8347034789621829986572265625</LatitudeDegrees>
              <LongitudeDegrees>-4.38009954057633876800537109375</LongitudeDegrees>
            </Position>
            <AltitudeMeters>630.4000244140625</AltitudeMeters>
            <DistanceMeters>NAN</DistanceMeters>
          </Trackpoint>
          <Trackpoint>
            <Time>2020-12-05T10:46:07.000Z</Time>
            <Position>
              <LatitudeDegrees>36.83469702489674091339111328125</LatitudeDegrees>
              <LongitudeDegrees>-4.3800888955593109130859375</LongitudeDegrees>
            </Position>
            <AltitudeMeters>630.5999755859375</AltitudeMeters>
            <DistanceMeters>NAN</DistanceMeters>
          </Trackpoint>
          <Trackpoint>
            <Time>2020-12-05T10:46:08.000Z</Time>
            <Position>
              <LatitudeDegrees>36.83469031937420368194580078125</LatitudeDegrees>
              <LongitudeDegrees>-4.3800756521522998809814453125</LongitudeDegrees>
            </Position>
            <AltitudeMeters>630.5999755859375</AltitudeMeters>
            <DistanceMeters>NAN</DistanceMeters>
          </Trackpoint>
          <Trackpoint>
            <Time>2020-12-05T10:46:09.000Z</Time>
            <Position>
              <LatitudeDegrees>36.83468411676585674285888671875</LatitudeDegrees>
              <LongitudeDegrees>-4.3800598941743373870849609375</LongitudeDegrees>
            </Position>
            <AltitudeMeters>630.79998779296875</AltitudeMeters>
            <DistanceMeters>NAN</DistanceMeters>
          </Trackpoint>
          <Trackpoint>
            <Time>2020-12-05T10:46:10.000Z</Time>
            <Position>
              <LatitudeDegrees>36.83468009345233440399169921875</LatitudeDegrees>
              <LongitudeDegrees>-4.38004539348185062408447265625</LongitudeDegrees>
            </Position>
            <AltitudeMeters>631</AltitudeMeters>
            <DistanceMeters>NAN</DistanceMeters>
          </Trackpoint>
          <Trackpoint>
            <Time>2020-12-05T10:46:11.000Z</Time>
            <Position>
              <LatitudeDegrees>36.83467422612011432647705078125</LatitudeDegrees>
              <LongitudeDegrees>-4.3800297193229198455810546875</LongitudeDegrees>
            </Position>
            <AltitudeMeters>631.20001220703125</AltitudeMeters>
            <DistanceMeters>NAN</DistanceMeters>
          </Trackpoint>
          <Trackpoint>
            <Time>2020-12-05T10:46:12.000Z</Time>
            <Position>
              <LatitudeDegrees>36.83466668240725994110107421875</LatitudeDegrees>
              <LongitudeDegrees>-4.3800122849643230438232421875</LongitudeDegrees>
            </Position>
            <AltitudeMeters>631.20001220703125</AltitudeMeters>
            <DistanceMeters>NAN</DistanceMeters>
          </Trackpoint>
          <Trackpoint>
            <Time>2020-12-05T10:46:13.000Z</Time>
            <Position>
              <LatitudeDegrees>36.83465897105634212493896484375</LatitudeDegrees>
              <LongitudeDegrees>-4.37999577261507511138916015625</LongitudeDegrees>
            </Position>
            <AltitudeMeters>631.20001220703125</AltitudeMeters>
            <DistanceMeters>NAN</DistanceMeters>
          </Trackpoint>
          <Trackpoint>
            <Time>2020-12-05T10:46:14.000Z</Time>
            <Position>
              <LatitudeDegrees>36.834650337696075439453125</LatitudeDegrees>
              <LongitudeDegrees>-4.37997691333293914794921875</LongitudeDegrees>
            </Position>
            <AltitudeMeters>631.4000244140625</AltitudeMeters>
            <DistanceMeters>NAN</DistanceMeters>
          </Trackpoint>
          <Trackpoint>
            <Time>2020-12-05T10:46:15.000Z</Time>
            <Position>
              <LatitudeDegrees>36.83464187197387218475341796875</LatitudeDegrees>
              <LongitudeDegrees>-4.3799613229930400848388671875</LongitudeDegrees>
            </Position>
            <AltitudeMeters>631.5999755859375</AltitudeMeters>
            <DistanceMeters>NAN</DistanceMeters>
          </Trackpoint>
          <Trackpoint>
            <Time>2020-12-05T10:46:16.000Z</Time>
            <Position>
              <LatitudeDegrees>36.8346327356994152069091796875</LatitudeDegrees>
              <LongitudeDegrees>-4.37994732521474361419677734375</LongitudeDegrees>
            </Position>
            <AltitudeMeters>631.5999755859375</AltitudeMeters>
            <DistanceMeters>NAN</DistanceMeters>
          </Trackpoint>
          <Trackpoint>
            <Time>2020-12-05T10:46:17.000Z</Time>
            <Position>
              <LatitudeDegrees>36.83462418615818023681640625</LatitudeDegrees>
              <LongitudeDegrees>-4.3799361772835254669189453125</LongitudeDegrees>
            </Position>
            <AltitudeMeters>631.79998779296875</AltitudeMeters>
            <DistanceMeters>NAN</DistanceMeters>
          </Trackpoint>
          <Trackpoint>
            <Time>2020-12-05T10:46:18.000Z</Time>
            <Position>
              <LatitudeDegrees>36.83461454696953296661376953125</LatitudeDegrees>
              <LongitudeDegrees>-4.379924945533275604248046875</LongitudeDegrees>
            </Position>
            <AltitudeMeters>632</AltitudeMeters>
            <DistanceMeters>NAN</DistanceMeters>
          </Trackpoint>
          <Trackpoint>
            <Time>2020-12-05T10:46:19.000Z</Time>
            <Position>
              <LatitudeDegrees>36.8346062488853931427001953125</LatitudeDegrees>
              <LongitudeDegrees>-4.37991388142108917236328125</LongitudeDegrees>
            </Position>
            <AltitudeMeters>632.20001220703125</AltitudeMeters>
            <DistanceMeters>NAN</DistanceMeters>
          </Trackpoint>
          <Trackpoint>
            <Time>2020-12-05T10:46:20.000Z</Time>
            <Position>
              <LatitudeDegrees>36.83459795080125331878662109375</LatitudeDegrees>
              <LongitudeDegrees>-4.37990055419504642486572265625</LongitudeDegrees>
            </Position>
            <AltitudeMeters>632.20001220703125</AltitudeMeters>
            <DistanceMeters>NAN</DistanceMeters>
          </Trackpoint>
          <Trackpoint>
            <Time>2020-12-05T10:46:21.000Z</Time>
            <Position>
              <LatitudeDegrees>36.8345871381461620330810546875</LatitudeDegrees>
              <LongitudeDegrees>-4.379886724054813385009765625</LongitudeDegrees>
            </Position>
            <AltitudeMeters>632.4000244140625</AltitudeMeters>
            <DistanceMeters>NAN</DistanceMeters>
          </Trackpoint>
          <Trackpoint>
            <Time>2020-12-05T10:46:22.000Z</Time>
            <Position>
              <LatitudeDegrees>36.83457498438656330108642578125</LatitudeDegrees>
              <LongitudeDegrees>-4.3798728100955486297607421875</LongitudeDegrees>
            </Position>
            <AltitudeMeters>632.5999755859375</AltitudeMeters>
            <DistanceMeters>NAN</DistanceMeters>
          </Trackpoint>
          <Trackpoint>
            <Time>2020-12-05T10:46:23.000Z</Time>
            <Position>
              <LatitudeDegrees>36.834564842283725738525390625</LatitudeDegrees>
              <LongitudeDegrees>-4.3798587284982204437255859375</LongitudeDegrees>
            </Position>
            <AltitudeMeters>632.5999755859375</AltitudeMeters>
            <DistanceMeters>NAN</DistanceMeters>
          </Trackpoint>
          <Trackpoint>
            <Time>2020-12-05T10:46:24.000Z</Time>
            <Position>
              <LatitudeDegrees>36.834556795656681060791015625</LatitudeDegrees>
              <LongitudeDegrees>-4.3798463232815265655517578125</LongitudeDegrees>
            </Position>
            <AltitudeMeters>632.79998779296875</AltitudeMeters>
            <DistanceMeters>NAN</DistanceMeters>
          </Trackpoint>
          <Trackpoint>
            <Time>2020-12-05T10:46:25.000Z</Time>
            <Position>
              <LatitudeDegrees>36.8345470726490020751953125</LatitudeDegrees>
              <LongitudeDegrees>-4.3798366002738475799560546875</LongitudeDegrees>
            </Position>
            <AltitudeMeters>633</AltitudeMeters>
            <DistanceMeters>NAN</DistanceMeters>
          </Trackpoint>
          <Trackpoint>
            <Time>2020-12-05T10:46:26.000Z</Time>
            <Position>
              <LatitudeDegrees>36.83453491888940334320068359375</LatitudeDegrees>
              <LongitudeDegrees>-4.37982830218970775604248046875</LongitudeDegrees>
            </Position>
            <AltitudeMeters>633</AltitudeMeters>
            <DistanceMeters>NAN</DistanceMeters>
          </Trackpoint>
          <Trackpoint>
            <Time>2020-12-05T10:46:27.000Z</Time>
            <Position>
              <LatitudeDegrees>36.834522597491741180419921875</LatitudeDegrees>
              <LongitudeDegrees>-4.37981866300106048583984375</LongitudeDegrees>
            </Position>
            <AltitudeMeters>633.20001220703125</AltitudeMeters>
            <DistanceMeters>NAN</DistanceMeters>
          </Trackpoint>
          <Trackpoint>
            <Time>2020-12-05T10:46:28.000Z</Time>
            <Position>
              <LatitudeDegrees>36.8345106951892375946044921875</LatitudeDegrees>
              <LongitudeDegrees>-4.3798077665269374847412109375</LongitudeDegrees>
            </Position>
            <AltitudeMeters>633.20001220703125</AltitudeMeters>
            <DistanceMeters>NAN</DistanceMeters>
          </Trackpoint>
          <Trackpoint>
            <Time>2020-12-05T10:46:29.000Z</Time>
            <Position>
              <LatitudeDegrees>36.8344999663531780242919921875</LatitudeDegrees>
              <LongitudeDegrees>-4.37979795970022678375244140625</LongitudeDegrees>
            </Position>
            <AltitudeMeters>633.20001220703125</AltitudeMeters>
            <DistanceMeters>NAN</DistanceMeters>
          </Trackpoint>
          <Trackpoint>
            <Time>2020-12-05T10:46:30.000Z</Time>
            <Position>
              <LatitudeDegrees>36.83448873460292816162109375</LatitudeDegrees>
              <LongitudeDegrees>-4.37978957779705524444580078125</LongitudeDegrees>
            </Position>
            <AltitudeMeters>633.4000244140625</AltitudeMeters>
            <DistanceMeters>NAN</DistanceMeters>
          </Trackpoint>
          <Trackpoint>
            <Time>2020-12-05T10:46:31.000Z</Time>
            <Position>
              <LatitudeDegrees>36.83447943069040775299072265625</LatitudeDegrees>
              <LongitudeDegrees>-4.379780776798725128173828125</LongitudeDegrees>
            </Position>
            <AltitudeMeters>633.5999755859375</AltitudeMeters>
            <DistanceMeters>NAN</DistanceMeters>
          </Trackpoint>
          <Trackpoint>
            <Time>2020-12-05T10:46:32.000Z</Time>
            <Position>
              <LatitudeDegrees>36.83446970768272876739501953125</LatitudeDegrees>
              <LongitudeDegrees>-4.37976845540106296539306640625</LongitudeDegrees>
            </Position>
            <AltitudeMeters>633.5999755859375</AltitudeMeters>
            <DistanceMeters>NAN</DistanceMeters>
          </Trackpoint>
          <Trackpoint>
            <Time>2020-12-05T10:46:33.000Z</Time>
            <Position>
              <LatitudeDegrees>36.83446333743631839752197265625</LatitudeDegrees>
              <LongitudeDegrees>-4.3797581456601619720458984375</LongitudeDegrees>
            </Position>
            <AltitudeMeters>633.79998779296875</AltitudeMeters>
            <DistanceMeters>NAN</DistanceMeters>
          </Trackpoint>
          <Trackpoint>
            <Time>2020-12-05T10:46:34.000Z</Time>
            <Position>
              <LatitudeDegrees>36.8344563804566860198974609375</LatitudeDegrees>
              <LongitudeDegrees>-4.3797504343092441558837890625</LongitudeDegrees>
            </Position>
            <AltitudeMeters>633.79998779296875</AltitudeMeters>
            <DistanceMeters>NAN</DistanceMeters>
          </Trackpoint>
          <Trackpoint>
            <Time>2020-12-05T10:46:35.000Z</Time>
            <Position>
              <LatitudeDegrees>36.8344503454864025115966796875</LatitudeDegrees>
              <LongitudeDegrees>-4.37974280677735805511474609375</LongitudeDegrees>
            </Position>
            <AltitudeMeters>633.79998779296875</AltitudeMeters>
            <DistanceMeters>NAN</DistanceMeters>
          </Trackpoint>
          <Trackpoint>
            <Time>2020-12-05T10:46:36.000Z</Time>
            <Position>
              <LatitudeDegrees>36.8344466574490070343017578125</LatitudeDegrees>
              <LongitudeDegrees>-4.379732497036457061767578125</LongitudeDegrees>
            </Position>
            <AltitudeMeters>633.79998779296875</AltitudeMeters>
            <DistanceMeters>NAN</DistanceMeters>
          </Trackpoint>
          <Trackpoint>
            <Time>2020-12-05T10:46:37.000Z</Time>
            <Position>
              <LatitudeDegrees>36.8344439752399921417236328125</LatitudeDegrees>
              <LongitudeDegrees>-4.37972051091492176055908203125</LongitudeDegrees>
            </Position>
            <AltitudeMeters>633.79998779296875</AltitudeMeters>
            <DistanceMeters>NAN</DistanceMeters>
          </Trackpoint>
          <Trackpoint>
            <Time>2020-12-05T10:46:38.000Z</Time>
            <Position>
              <LatitudeDegrees>36.834440119564533233642578125</LatitudeDegrees>
              <LongitudeDegrees>-4.3797108717262744903564453125</LongitudeDegrees>
            </Position>
            <AltitudeMeters>633.79998779296875</AltitudeMeters>
            <DistanceMeters>NAN</DistanceMeters>
          </Trackpoint>
          <Trackpoint>
            <Time>2020-12-05T10:46:39.000Z</Time>
            <Position>
              <LatitudeDegrees>36.8344345875084400177001953125</LatitudeDegrees>
              <LongitudeDegrees>-4.379702322185039520263671875</LongitudeDegrees>
            </Position>
            <AltitudeMeters>633.79998779296875</AltitudeMeters>
            <DistanceMeters>NAN</DistanceMeters>
          </Trackpoint>
          <Trackpoint>
            <Time>2020-12-05T10:46:40.000Z</Time>
            <Position>
              <LatitudeDegrees>36.8344298936426639556884765625</LatitudeDegrees>
              <LongitudeDegrees>-4.379690252244472503662109375</LongitudeDegrees>
            </Position>
            <AltitudeMeters>633.79998779296875</AltitudeMeters>
            <DistanceMeters>NAN</DistanceMeters>
          </Trackpoint>
          <Trackpoint>
            <Time>2020-12-05T10:46:41.000Z</Time>
            <Position>
              <LatitudeDegrees>36.8344221822917461395263671875</LatitudeDegrees>
              <LongitudeDegrees>-4.37968145124614238739013671875</LongitudeDegrees>
            </Position>
            <AltitudeMeters>633.79998779296875</AltitudeMeters>
            <DistanceMeters>NAN</DistanceMeters>
          </Trackpoint>
          <Trackpoint>
            <Time>2020-12-05T10:46:42.000Z</Time>
            <Position>
              <LatitudeDegrees>36.8344148062169551849365234375</LatitudeDegrees>
              <LongitudeDegrees>-4.37967139296233654022216796875</LongitudeDegrees>
            </Position>
            <AltitudeMeters>634</AltitudeMeters>
            <DistanceMeters>NAN</DistanceMeters>
          </Trackpoint>
          <Trackpoint>
            <Time>2020-12-05T10:46:43.000Z</Time>
            <Position>
              <LatitudeDegrees>36.8344049155712127685546875</LatitudeDegrees>
              <LongitudeDegrees>-4.3796585686504840850830078125</LongitudeDegrees>
            </Position>
            <AltitudeMeters>634</AltitudeMeters>
            <DistanceMeters>NAN</DistanceMeters>
          </Trackpoint>
          <Trackpoint>
            <Time>2020-12-05T10:46:44.000Z</Time>
            <Position>
              <LatitudeDegrees>36.83439753949642181396484375</LatitudeDegrees>
              <LongitudeDegrees>-4.37964834272861480712890625</LongitudeDegrees>
            </Position>
            <AltitudeMeters>634.20001220703125</AltitudeMeters>
            <DistanceMeters>NAN</DistanceMeters>
          </Trackpoint>
          <Trackpoint>
            <Time>2020-12-05T10:46:45.000Z</Time>
            <Position>
              <LatitudeDegrees>36.834397204220294952392578125</LatitudeDegrees>
              <LongitudeDegrees>-4.37963903881609439849853515625</LongitudeDegrees>
            </Position>
            <AltitudeMeters>634.4000244140625</AltitudeMeters>
            <DistanceMeters>NAN</DistanceMeters>
          </Trackpoint>
          <Trackpoint>
            <Time>2020-12-05T10:46:46.000Z</Time>
            <Position>
              <LatitudeDegrees>36.83439175598323345184326171875</LatitudeDegrees>
              <LongitudeDegrees>-4.37963367439806461334228515625</LongitudeDegrees>
            </Position>
            <AltitudeMeters>634.5999755859375</AltitudeMeters>
            <DistanceMeters>NAN</DistanceMeters>
          </Trackpoint>
          <Trackpoint>
            <Time>2020-12-05T10:46:47.000Z</Time>
            <Position>
              <LatitudeDegrees>36.83438815176486968994140625</LatitudeDegrees>
              <LongitudeDegrees>-4.3796290643513202667236328125</LongitudeDegrees>
            </Position>
            <AltitudeMeters>634.5999755859375</AltitudeMeters>
            <DistanceMeters>NAN</DistanceMeters>
          </Trackpoint>
          <Trackpoint>
            <Time>2020-12-05T10:46:48.000Z</Time>
            <Position>
              <LatitudeDegrees>36.83438546955585479736328125</LatitudeDegrees>
              <LongitudeDegrees>-4.37961892224848270416259765625</LongitudeDegrees>
            </Position>
            <AltitudeMeters>634.5999755859375</AltitudeMeters>
            <DistanceMeters>NAN</DistanceMeters>
          </Trackpoint>
          <Trackpoint>
            <Time>2020-12-05T10:46:49.000Z</Time>
            <Position>
              <LatitudeDegrees>36.834385134279727935791015625</LatitudeDegrees>
              <LongitudeDegrees>-4.37960400246083736419677734375</LongitudeDegrees>
            </Position>
            <AltitudeMeters>634.4000244140625</AltitudeMeters>
            <DistanceMeters>NAN</DistanceMeters>
          </Trackpoint>
          <Trackpoint>
            <Time>2020-12-05T10:46:50.000Z</Time>
            <Position>
              <LatitudeDegrees>36.83438546955585479736328125</LatitudeDegrees>
              <LongitudeDegrees>-4.37958606518805027008056640625</LongitudeDegrees>
            </Position>
            <AltitudeMeters>634.5999755859375</AltitudeMeters>
            <DistanceMeters>NAN</DistanceMeters>
          </Trackpoint>
          <Trackpoint>
            <Time>2020-12-05T10:46:51.000Z</Time>
            <Position>
              <LatitudeDegrees>36.8343842960894107818603515625</LatitudeDegrees>
              <LongitudeDegrees>-4.3795687146484851837158203125</LongitudeDegrees>
            </Position>
            <AltitudeMeters>634.5999755859375</AltitudeMeters>
            <DistanceMeters>NAN</DistanceMeters>
          </Trackpoint>
          <Trackpoint>
            <Time>2020-12-05T10:46:52.000Z</Time>
            <Position>
              <LatitudeDegrees>36.83438220061361789703369140625</LatitudeDegrees>
              <LongitudeDegrees>-4.3795536272227764129638671875</LongitudeDegrees>
            </Position>
            <AltitudeMeters>634.79998779296875</AltitudeMeters>
            <DistanceMeters>NAN</DistanceMeters>
          </Trackpoint>
          <Trackpoint>
            <Time>2020-12-05T10:46:53.000Z</Time>
            <Position>
              <LatitudeDegrees>36.834381781518459320068359375</LatitudeDegrees>
              <LongitudeDegrees>-4.37953694723546504974365234375</LongitudeDegrees>
            </Position>
            <AltitudeMeters>635</AltitudeMeters>
            <DistanceMeters>NAN</DistanceMeters>
          </Trackpoint>
          <Trackpoint>
            <Time>2020-12-05T10:46:54.000Z</Time>
            <Position>
              <LatitudeDegrees>36.83438018895685672760009765625</LatitudeDegrees>
              <LongitudeDegrees>-4.37951884232461452484130859375</LongitudeDegrees>
            </Position>
            <AltitudeMeters>635</AltitudeMeters>
            <DistanceMeters>NAN</DistanceMeters>
          </Trackpoint>
          <Trackpoint>
            <Time>2020-12-05T10:46:55.000Z</Time>
            <Position>
              <LatitudeDegrees>36.83437935076653957366943359375</LatitudeDegrees>
              <LongitudeDegrees>-4.37949872575700283050537109375</LongitudeDegrees>
            </Position>
            <AltitudeMeters>635</AltitudeMeters>
            <DistanceMeters>NAN</DistanceMeters>
          </Trackpoint>
          <Trackpoint>
            <Time>2020-12-05T10:46:56.000Z</Time>
            <Position>
              <LatitudeDegrees>36.83438136242330074310302734375</LatitudeDegrees>
              <LongitudeDegrees>-4.37947793863713741302490234375</LongitudeDegrees>
            </Position>
            <AltitudeMeters>635</AltitudeMeters>
            <DistanceMeters>NAN</DistanceMeters>
          </Trackpoint>
          <Trackpoint>
            <Time>2020-12-05T10:46:57.000Z</Time>
            <Position>
              <LatitudeDegrees>36.83437800966203212738037109375</LatitudeDegrees>
              <LongitudeDegrees>-4.37946218065917491912841796875</LongitudeDegrees>
            </Position>
            <AltitudeMeters>634.79998779296875</AltitudeMeters>
            <DistanceMeters>NAN</DistanceMeters>
          </Trackpoint>
          <Trackpoint>
            <Time>2020-12-05T10:46:58.000Z</Time>
            <Position>
              <LatitudeDegrees>36.83437474071979522705078125</LatitudeDegrees>
              <LongitudeDegrees>-4.37944692559540271759033203125</LongitudeDegrees>
            </Position>
            <AltitudeMeters>634.79998779296875</AltitudeMeters>
            <DistanceMeters>NAN</DistanceMeters>
          </Trackpoint>
          <Trackpoint>
            <Time>2020-12-05T10:46:59.000Z</Time>
            <Position>
              <LatitudeDegrees>36.83437784202396869659423828125</LatitudeDegrees>
              <LongitudeDegrees>-4.379434771835803985595703125</LongitudeDegrees>
            </Position>
            <AltitudeMeters>634.4000244140625</AltitudeMeters>
            <DistanceMeters>NAN</DistanceMeters>
          </Trackpoint>
          <Trackpoint>
            <Time>2020-12-05T10:47:00.000Z</Time>
            <Position>
              <LatitudeDegrees>36.83438052423298358917236328125</LatitudeDegrees>
              <LongitudeDegrees>-4.37942496500909328460693359375</LongitudeDegrees>
            </Position>
            <AltitudeMeters>634.4000244140625</AltitudeMeters>
            <DistanceMeters>NAN</DistanceMeters>
          </Trackpoint>
          <Trackpoint>
            <Time>2020-12-05T10:47:01.000Z</Time>
            <Position>
              <LatitudeDegrees>36.83437868021428585052490234375</LatitudeDegrees>
              <LongitudeDegrees>-4.37941205687820911407470703125</LongitudeDegrees>
            </Position>
            <AltitudeMeters>634.20001220703125</AltitudeMeters>
            <DistanceMeters>NAN</DistanceMeters>
          </Trackpoint>
          <Trackpoint>
            <Time>2020-12-05T10:47:02.000Z</Time>
            <Position>
              <LatitudeDegrees>36.83438052423298358917236328125</LatitudeDegrees>
              <LongitudeDegrees>-4.3793987296521663665771484375</LongitudeDegrees>
            </Position>
            <AltitudeMeters>634.20001220703125</AltitudeMeters>
            <DistanceMeters>NAN</DistanceMeters>
          </Trackpoint>
          <Trackpoint>
            <Time>2020-12-05T10:47:03.000Z</Time>
            <Position>
              <LatitudeDegrees>36.83438471518456935882568359375</LatitudeDegrees>
              <LongitudeDegrees>-4.3793819658458232879638671875</LongitudeDegrees>
            </Position>
            <AltitudeMeters>634.4000244140625</AltitudeMeters>
            <DistanceMeters>NAN</DistanceMeters>
          </Trackpoint>
          <Trackpoint>
            <Time>2020-12-05T10:47:04.000Z</Time>
            <Position>
              <LatitudeDegrees>36.83438672684133052825927734375</LatitudeDegrees>
              <LongitudeDegrees>-4.37936327420175075531005859375</LongitudeDegrees>
            </Position>
            <AltitudeMeters>634.4000244140625</AltitudeMeters>
            <DistanceMeters>NAN</DistanceMeters>
          </Trackpoint>
          <Trackpoint>
            <Time>2020-12-05T10:47:05.000Z</Time>
            <Position>
              <LatitudeDegrees>36.83438815176486968994140625</LatitudeDegrees>
              <LongitudeDegrees>-4.37934801913797855377197265625</LongitudeDegrees>
            </Position>
            <AltitudeMeters>634.5999755859375</AltitudeMeters>
            <DistanceMeters>NAN</DistanceMeters>
          </Trackpoint>
          <Trackpoint>
            <Time>2020-12-05T10:47:06.000Z</Time>
            <Position>
              <LatitudeDegrees>36.834390498697757720947265625</LatitudeDegrees>
              <LongitudeDegrees>-4.379334188997745513916015625</LongitudeDegrees>
            </Position>
            <AltitudeMeters>634.79998779296875</AltitudeMeters>
            <DistanceMeters>NAN</DistanceMeters>
          </Trackpoint>
          <Trackpoint>
            <Time>2020-12-05T10:47:07.000Z</Time>
            <Position>
              <LatitudeDegrees>36.8343967013061046600341796875</LatitudeDegrees>
              <LongitudeDegrees>-4.37932253815233707427978515625</LongitudeDegrees>
            </Position>
            <AltitudeMeters>634.79998779296875</AltitudeMeters>
            <DistanceMeters>NAN</DistanceMeters>
          </Trackpoint>
          <Trackpoint>
            <Time>2020-12-05T10:47:08.000Z</Time>
            <Position>
              <LatitudeDegrees>36.8344007246196269989013671875</LatitudeDegrees>
              <LongitudeDegrees>-4.37931331805884838104248046875</LongitudeDegrees>
            </Position>
            <AltitudeMeters>635.20001220703125</AltitudeMeters>
            <DistanceMeters>NAN</DistanceMeters>
          </Trackpoint>
          <Trackpoint>
            <Time>2020-12-05T10:47:09.000Z</Time>
            <Position>
              <LatitudeDegrees>36.83440692722797393798828125</LatitudeDegrees>
              <LongitudeDegrees>-4.37930342741310596466064453125</LongitudeDegrees>
            </Position>
            <AltitudeMeters>635.4000244140625</AltitudeMeters>
            <DistanceMeters>NAN</DistanceMeters>
          </Trackpoint>
          <Trackpoint>
            <Time>2020-12-05T10:47:10.000Z</Time>
            <Position>
              <LatitudeDegrees>36.8344129621982574462890625</LatitudeDegrees>
              <LongitudeDegrees>-4.3792901001870632171630859375</LongitudeDegrees>
            </Position>
            <AltitudeMeters>635.79998779296875</AltitudeMeters>
            <DistanceMeters>NAN</DistanceMeters>
          </Trackpoint>
          <Trackpoint>
            <Time>2020-12-05T10:47:11.000Z</Time>
            <Position>
              <LatitudeDegrees>36.8344184942543506622314453125</LatitudeDegrees>
              <LongitudeDegrees>-4.3792756833136081695556640625</LongitudeDegrees>
            </Position>
            <AltitudeMeters>636</AltitudeMeters>
            <DistanceMeters>NAN</DistanceMeters>
          </Trackpoint>
          <Trackpoint>
            <Time>2020-12-05T10:47:12.000Z</Time>
            <Position>
              <LatitudeDegrees>36.83442109264433383941650390625</LatitudeDegrees>
              <LongitudeDegrees>-4.379259087145328521728515625</LongitudeDegrees>
            </Position>
            <AltitudeMeters>636.4000244140625</AltitudeMeters>
            <DistanceMeters>NAN</DistanceMeters>
          </Trackpoint>
          <Trackpoint>
            <Time>2020-12-05T10:47:13.000Z</Time>
            <Position>
              <LatitudeDegrees>36.83442243374884128570556640625</LatitudeDegrees>
              <LongitudeDegrees>-4.37924156896770000457763671875</LongitudeDegrees>
            </Position>
            <AltitudeMeters>636.5999755859375</AltitudeMeters>
            <DistanceMeters>NAN</DistanceMeters>
          </Trackpoint>
          <Trackpoint>
            <Time>2020-12-05T10:47:14.000Z</Time>
            <Position>
              <LatitudeDegrees>36.83442494831979274749755859375</LatitudeDegrees>
              <LongitudeDegrees>-4.379226230084896087646484375</LongitudeDegrees>
            </Position>
            <AltitudeMeters>636.5999755859375</AltitudeMeters>
            <DistanceMeters>NAN</DistanceMeters>
          </Trackpoint>
          <Trackpoint>
            <Time>2020-12-05T10:47:15.000Z</Time>
            <Position>
              <LatitudeDegrees>36.83442662470042705535888671875</LatitudeDegrees>
              <LongitudeDegrees>-4.379211477935314178466796875</LongitudeDegrees>
            </Position>
            <AltitudeMeters>636.79998779296875</AltitudeMeters>
            <DistanceMeters>NAN</DistanceMeters>
          </Trackpoint>
          <Trackpoint>
            <Time>2020-12-05T10:47:16.000Z</Time>
            <Position>
              <LatitudeDegrees>36.8344298936426639556884765625</LatitudeDegrees>
              <LongitudeDegrees>-4.37919379211962223052978515625</LongitudeDegrees>
            </Position>
            <AltitudeMeters>637</AltitudeMeters>
            <DistanceMeters>NAN</DistanceMeters>
          </Trackpoint>
          <Trackpoint>
            <Time>2020-12-05T10:47:17.000Z</Time>
            <Position>
              <LatitudeDegrees>36.8344349227845668792724609375</LatitudeDegrees>
              <LongitudeDegrees>-4.3791782855987548828125</LongitudeDegrees>
            </Position>
            <AltitudeMeters>637</AltitudeMeters>
            <DistanceMeters>NAN</DistanceMeters>
          </Trackpoint>
          <Trackpoint>
            <Time>2020-12-05T10:47:18.000Z</Time>
            <Position>
              <LatitudeDegrees>36.834440119564533233642578125</LatitudeDegrees>
              <LongitudeDegrees>-4.37916328199207782745361328125</LongitudeDegrees>
            </Position>
            <AltitudeMeters>637.20001220703125</AltitudeMeters>
            <DistanceMeters>NAN</DistanceMeters>
          </Trackpoint>
          <Trackpoint>
            <Time>2020-12-05T10:47:19.000Z</Time>
            <Position>
              <LatitudeDegrees>36.83444389142096042633056640625</LatitudeDegrees>
              <LongitudeDegrees>-4.379146434366703033447265625</LongitudeDegrees>
            </Position>
            <AltitudeMeters>637.4000244140625</AltitudeMeters>
            <DistanceMeters>NAN</DistanceMeters>
          </Trackpoint>
          <Trackpoint>
            <Time>2020-12-05T10:47:20.000Z</Time>
            <Position>
              <LatitudeDegrees>36.8344459868967533111572265625</LatitudeDegrees>
              <LongitudeDegrees>-4.37912740744650363922119140625</LongitudeDegrees>
            </Position>
            <AltitudeMeters>637.5999755859375</AltitudeMeters>
            <DistanceMeters>NAN</DistanceMeters>
          </Trackpoint>
          <Trackpoint>
            <Time>2020-12-05T10:47:21.000Z</Time>
            <Position>
              <LatitudeDegrees>36.83444757945835590362548828125</LatitudeDegrees>
              <LongitudeDegrees>-4.3791063688695430755615234375</LongitudeDegrees>
            </Position>
            <AltitudeMeters>637.79998779296875</AltitudeMeters>
            <DistanceMeters>NAN</DistanceMeters>
          </Trackpoint>
          <Trackpoint>
            <Time>2020-12-05T10:47:22.000Z</Time>
            <Position>
              <LatitudeDegrees>36.8344466574490070343017578125</LatitudeDegrees>
              <LongitudeDegrees>-4.37908767722547054290771484375</LongitudeDegrees>
            </Position>
            <AltitudeMeters>638</AltitudeMeters>
            <DistanceMeters>NAN</DistanceMeters>
          </Trackpoint>
          <Trackpoint>
            <Time>2020-12-05T10:47:23.000Z</Time>
            <Position>
              <LatitudeDegrees>36.83444447815418243408203125</LatitudeDegrees>
              <LongitudeDegrees>-4.379071332514286041259765625</LongitudeDegrees>
            </Position>
            <AltitudeMeters>638</AltitudeMeters>
            <DistanceMeters>NAN</DistanceMeters>
          </Trackpoint>
          <Trackpoint>
            <Time>2020-12-05T10:47:24.000Z</Time>
            <Position>
              <LatitudeDegrees>36.83444020338356494903564453125</LatitudeDegrees>
              <LongitudeDegrees>-4.37905582599341869354248046875</LongitudeDegrees>
            </Position>
            <AltitudeMeters>638</AltitudeMeters>
            <DistanceMeters>NAN</DistanceMeters>
          </Trackpoint>
          <Trackpoint>
            <Time>2020-12-05T10:47:25.000Z</Time>
            <Position>
              <LatitudeDegrees>36.83443299494683742523193359375</LatitudeDegrees>
              <LongitudeDegrees>-4.37904006801545619964599609375</LongitudeDegrees>
            </Position>
            <AltitudeMeters>638</AltitudeMeters>
            <DistanceMeters>NAN</DistanceMeters>
          </Trackpoint>
          <Trackpoint>
            <Time>2020-12-05T10:47:26.000Z</Time>
            <Position>
              <LatitudeDegrees>36.83442796580493450164794921875</LatitudeDegrees>
              <LongitudeDegrees>-4.3790272437036037445068359375</LongitudeDegrees>
            </Position>
            <AltitudeMeters>638</AltitudeMeters>
            <DistanceMeters>NAN</DistanceMeters>
          </Trackpoint>
          <Trackpoint>
            <Time>2020-12-05T10:47:27.000Z</Time>
            <Position>
              <LatitudeDegrees>36.83442695997655391693115234375</LatitudeDegrees>
              <LongitudeDegrees>-4.3790134973824024200439453125</LongitudeDegrees>
            </Position>
            <AltitudeMeters>638</AltitudeMeters>
            <DistanceMeters>NAN</DistanceMeters>
          </Trackpoint>
          <Trackpoint>
            <Time>2020-12-05T10:47:28.000Z</Time>
            <Position>
              <LatitudeDegrees>36.83442830108106136322021484375</LatitudeDegrees>
              <LongitudeDegrees>-4.37900419346988201141357421875</LongitudeDegrees>
            </Position>
            <AltitudeMeters>637.79998779296875</AltitudeMeters>
            <DistanceMeters>NAN</DistanceMeters>
          </Trackpoint>
          <Trackpoint>
            <Time>2020-12-05T10:47:29.000Z</Time>
            <Position>
              <LatitudeDegrees>36.83443131856620311737060546875</LatitudeDegrees>
              <LongitudeDegrees>-4.37899312935769557952880859375</LongitudeDegrees>
            </Position>
            <AltitudeMeters>637.79998779296875</AltitudeMeters>
            <DistanceMeters>NAN</DistanceMeters>
          </Trackpoint>
          <Trackpoint>
            <Time>2020-12-05T10:47:30.000Z</Time>
            <Position>
              <LatitudeDegrees>36.834435425698757171630859375</LatitudeDegrees>
              <LongitudeDegrees>-4.3789816461503505706787109375</LongitudeDegrees>
            </Position>
            <AltitudeMeters>638</AltitudeMeters>
            <DistanceMeters>NAN</DistanceMeters>
          </Trackpoint>
          <Trackpoint>
            <Time>2020-12-05T10:47:31.000Z</Time>
            <Position>
              <LatitudeDegrees>36.83443777263164520263671875</LatitudeDegrees>
              <LongitudeDegrees>-4.3789722584187984466552734375</LongitudeDegrees>
            </Position>
            <AltitudeMeters>638.20001220703125</AltitudeMeters>
            <DistanceMeters>NAN</DistanceMeters>
          </Trackpoint>
          <Trackpoint>
            <Time>2020-12-05T10:47:32.000Z</Time>
            <Position>
              <LatitudeDegrees>36.83443835936486721038818359375</LatitudeDegrees>
              <LongitudeDegrees>-4.37896060757339000701904296875</LongitudeDegrees>
            </Position>
            <AltitudeMeters>638.20001220703125</AltitudeMeters>
            <DistanceMeters>NAN</DistanceMeters>
          </Trackpoint>
          <Trackpoint>
            <Time>2020-12-05T10:47:33.000Z</Time>
            <Position>
              <LatitudeDegrees>36.834438778460025787353515625</LatitudeDegrees>
              <LongitudeDegrees>-4.37894426286220550537109375</LongitudeDegrees>
            </Position>
            <AltitudeMeters>638.4000244140625</AltitudeMeters>
            <DistanceMeters>NAN</DistanceMeters>
          </Trackpoint>
          <Trackpoint>
            <Time>2020-12-05T10:47:34.000Z</Time>
            <Position>
              <LatitudeDegrees>36.83443819172680377960205078125</LatitudeDegrees>
              <LongitudeDegrees>-4.378925152122974395751953125</LongitudeDegrees>
            </Position>
            <AltitudeMeters>638.4000244140625</AltitudeMeters>
            <DistanceMeters>NAN</DistanceMeters>
          </Trackpoint>
          <Trackpoint>
            <Time>2020-12-05T10:47:35.000Z</Time>
            <Position>
              <LatitudeDegrees>36.834438778460025787353515625</LatitudeDegrees>
              <LongitudeDegrees>-4.37890981324017047882080078125</LongitudeDegrees>
            </Position>
            <AltitudeMeters>638.4000244140625</AltitudeMeters>
            <DistanceMeters>NAN</DistanceMeters>
          </Trackpoint>
          <Trackpoint>
            <Time>2020-12-05T10:47:36.000Z</Time>
            <Position>
              <LatitudeDegrees>36.8344406224787235260009765625</LatitudeDegrees>
              <LongitudeDegrees>-4.3788927979767322540283203125</LongitudeDegrees>
            </Position>
            <AltitudeMeters>638.5999755859375</AltitudeMeters>
            <DistanceMeters>NAN</DistanceMeters>
          </Trackpoint>
          <Trackpoint>
            <Time>2020-12-05T10:47:37.000Z</Time>
            <Position>
              <LatitudeDegrees>36.83444238267838954925537109375</LatitudeDegrees>
              <LongitudeDegrees>-4.37887863256037235260009765625</LongitudeDegrees>
            </Position>
            <AltitudeMeters>638.5999755859375</AltitudeMeters>
            <DistanceMeters>NAN</DistanceMeters>
          </Trackpoint>
          <Trackpoint>
            <Time>2020-12-05T10:47:38.000Z</Time>
            <Position>
              <LatitudeDegrees>36.8344439752399921417236328125</LatitudeDegrees>
              <LongitudeDegrees>-4.37886438332498073577880859375</LongitudeDegrees>
            </Position>
            <AltitudeMeters>638.5999755859375</AltitudeMeters>
            <DistanceMeters>NAN</DistanceMeters>
          </Trackpoint>
          <Trackpoint>
            <Time>2020-12-05T10:47:39.000Z</Time>
            <Position>
              <LatitudeDegrees>36.8344459868967533111572265625</LatitudeDegrees>
              <LongitudeDegrees>-4.37884770333766937255859375</LongitudeDegrees>
            </Position>
            <AltitudeMeters>638.79998779296875</AltitudeMeters>
            <DistanceMeters>NAN</DistanceMeters>
          </Trackpoint>
          <Trackpoint>
            <Time>2020-12-05T10:47:40.000Z</Time>
            <Position>
              <LatitudeDegrees>36.83444808237254619598388671875</LatitudeDegrees>
              <LongitudeDegrees>-4.37882934696972370147705078125</LongitudeDegrees>
            </Position>
            <AltitudeMeters>639.4000244140625</AltitudeMeters>
            <DistanceMeters>NAN</DistanceMeters>
          </Trackpoint>
          <Trackpoint>
            <Time>2020-12-05T10:47:41.000Z</Time>
            <Position>
              <LatitudeDegrees>36.83445026166737079620361328125</LatitudeDegrees>
              <LongitudeDegrees>-4.37881325371563434600830078125</LongitudeDegrees>
            </Position>
            <AltitudeMeters>639.79998779296875</AltitudeMeters>
            <DistanceMeters>NAN</DistanceMeters>
          </Trackpoint>
          <Trackpoint>
            <Time>2020-12-05T10:47:42.000Z</Time>
            <Position>
              <LatitudeDegrees>36.83445260860025882720947265625</LatitudeDegrees>
              <LongitudeDegrees>-4.378794729709625244140625</LongitudeDegrees>
            </Position>
            <AltitudeMeters>640</AltitudeMeters>
            <DistanceMeters>NAN</DistanceMeters>
          </Trackpoint>
          <Trackpoint>
            <Time>2020-12-05T10:47:43.000Z</Time>
            <Position>
              <LatitudeDegrees>36.83445696718990802764892578125</LatitudeDegrees>
              <LongitudeDegrees>-4.3787777982652187347412109375</LongitudeDegrees>
            </Position>
            <AltitudeMeters>640</AltitudeMeters>
            <DistanceMeters>NAN</DistanceMeters>
          </Trackpoint>
          <Trackpoint>
            <Time>2020-12-05T10:47:44.000Z</Time>
            <Position>
              <LatitudeDegrees>36.83446384035050868988037109375</LatitudeDegrees>
              <LongitudeDegrees>-4.3787576816976070404052734375</LongitudeDegrees>
            </Position>
            <AltitudeMeters>640</AltitudeMeters>
            <DistanceMeters>NAN</DistanceMeters>
          </Trackpoint>
          <Trackpoint>
            <Time>2020-12-05T10:47:45.000Z</Time>
            <Position>
              <LatitudeDegrees>36.83447155170142650604248046875</LatitudeDegrees>
              <LongitudeDegrees>-4.37873647548258304595947265625</LongitudeDegrees>
            </Position>
            <AltitudeMeters>639.79998779296875</AltitudeMeters>
            <DistanceMeters>NAN</DistanceMeters>
          </Trackpoint>
          <Trackpoint>
            <Time>2020-12-05T10:47:46.000Z</Time>
            <Position>
              <LatitudeDegrees>36.834480352699756622314453125</LatitudeDegrees>
              <LongitudeDegrees>-4.37871786765754222869873046875</LongitudeDegrees>
            </Position>
            <AltitudeMeters>639.5999755859375</AltitudeMeters>
            <DistanceMeters>NAN</DistanceMeters>
          </Trackpoint>
          <Trackpoint>
            <Time>2020-12-05T10:47:47.000Z</Time>
            <Position>
              <LatitudeDegrees>36.83448714204132556915283203125</LatitudeDegrees>
              <LongitudeDegrees>-4.3787033669650554656982421875</LongitudeDegrees>
            </Position>
            <AltitudeMeters>639.5999755859375</AltitudeMeters>
            <DistanceMeters>NAN</DistanceMeters>
          </Trackpoint>
          <Trackpoint>
            <Time>2020-12-05T10:47:48.000Z</Time>
            <Position>
              <LatitudeDegrees>36.83449183590710163116455078125</LatitudeDegrees>
              <LongitudeDegrees>-4.37868853099644184112548828125</LongitudeDegrees>
            </Position>
            <AltitudeMeters>639.5999755859375</AltitudeMeters>
            <DistanceMeters>NAN</DistanceMeters>
          </Trackpoint>
          <Trackpoint>
            <Time>2020-12-05T10:47:49.000Z</Time>
            <Position>
              <LatitudeDegrees>36.83450407348573207855224609375</LatitudeDegrees>
              <LongitudeDegrees>-4.378674365580081939697265625</LongitudeDegrees>
            </Position>
            <AltitudeMeters>639.79998779296875</AltitudeMeters>
            <DistanceMeters>NAN</DistanceMeters>
          </Trackpoint>
          <Trackpoint>
            <Time>2020-12-05T10:47:50.000Z</Time>
            <Position>
              <LatitudeDegrees>36.83450843207538127899169921875</LatitudeDegrees>
              <LongitudeDegrees>-4.37865751795470714569091796875</LongitudeDegrees>
            </Position>
            <AltitudeMeters>639.79998779296875</AltitudeMeters>
            <DistanceMeters>NAN</DistanceMeters>
          </Trackpoint>
          <Trackpoint>
            <Time>2020-12-05T10:47:51.000Z</Time>
            <Position>
              <LatitudeDegrees>36.83451413176953792572021484375</LatitudeDegrees>
              <LongitudeDegrees>-4.37864175997674465179443359375</LongitudeDegrees>
            </Position>
            <AltitudeMeters>640</AltitudeMeters>
            <DistanceMeters>NAN</DistanceMeters>
          </Trackpoint>
          <Trackpoint>
            <Time>2020-12-05T10:47:52.000Z</Time>
            <Position>
              <LatitudeDegrees>36.83452100493013858795166015625</LatitudeDegrees>
              <LongitudeDegrees>-4.37862642109394073486328125</LongitudeDegrees>
            </Position>
            <AltitudeMeters>639.79998779296875</AltitudeMeters>
            <DistanceMeters>NAN</DistanceMeters>
          </Trackpoint>
          <Trackpoint>
            <Time>2020-12-05T10:47:53.000Z</Time>
            <Position>
              <LatitudeDegrees>36.83452318422496318817138671875</LatitudeDegrees>
              <LongitudeDegrees>-4.37861158512532711029052734375</LongitudeDegrees>
            </Position>
            <AltitudeMeters>639.5999755859375</AltitudeMeters>
            <DistanceMeters>NAN</DistanceMeters>
          </Trackpoint>
          <Trackpoint>
            <Time>2020-12-05T10:47:54.000Z</Time>
            <Position>
              <LatitudeDegrees>36.83452150784432888031005859375</LatitudeDegrees>
              <LongitudeDegrees>-4.3785987608134746551513671875</LongitudeDegrees>
            </Position>
            <AltitudeMeters>639.5999755859375</AltitudeMeters>
            <DistanceMeters>NAN</DistanceMeters>
          </Trackpoint>
          <Trackpoint>
            <Time>2020-12-05T10:47:55.000Z</Time>
            <Position>
              <LatitudeDegrees>36.8345202505588531494140625</LatitudeDegrees>
              <LongitudeDegrees>-4.37858610413968563079833984375</LongitudeDegrees>
            </Position>
            <AltitudeMeters>639.5999755859375</AltitudeMeters>
            <DistanceMeters>NAN</DistanceMeters>
          </Trackpoint>
          <Trackpoint>
            <Time>2020-12-05T10:47:56.000Z</Time>
            <Position>
              <LatitudeDegrees>36.8345194123685359954833984375</LatitudeDegrees>
              <LongitudeDegrees>-4.378573782742023468017578125</LongitudeDegrees>
            </Position>
            <AltitudeMeters>639.5999755859375</AltitudeMeters>
            <DistanceMeters>NAN</DistanceMeters>
          </Trackpoint>
          <Trackpoint>
            <Time>2020-12-05T10:47:57.000Z</Time>
            <Position>
              <LatitudeDegrees>36.8345200829207897186279296875</LatitudeDegrees>
              <LongitudeDegrees>-4.3785595335066318511962890625</LongitudeDegrees>
            </Position>
            <AltitudeMeters>639.4000244140625</AltitudeMeters>
            <DistanceMeters>NAN</DistanceMeters>
          </Trackpoint>
          <Trackpoint>
            <Time>2020-12-05T10:47:58.000Z</Time>
            <Position>
              <LatitudeDegrees>36.83452100493013858795166015625</LatitudeDegrees>
              <LongitudeDegrees>-4.37854134477674961090087890625</LongitudeDegrees>
            </Position>
            <AltitudeMeters>639.4000244140625</AltitudeMeters>
            <DistanceMeters>NAN</DistanceMeters>
          </Trackpoint>
          <Trackpoint>
            <Time>2020-12-05T10:47:59.000Z</Time>
            <Position>
              <LatitudeDegrees>36.8345229327678680419921875</LatitudeDegrees>
              <LongitudeDegrees>-4.37852181494235992431640625</LongitudeDegrees>
            </Position>
            <AltitudeMeters>639.4000244140625</AltitudeMeters>
            <DistanceMeters>NAN</DistanceMeters>
          </Trackpoint>
          <Trackpoint>
            <Time>2020-12-05T10:48:00.000Z</Time>
            <Position>
              <LatitudeDegrees>36.83452553115785121917724609375</LatitudeDegrees>
              <LongitudeDegrees>-4.37849901616573333740234375</LongitudeDegrees>
            </Position>
            <AltitudeMeters>639.5999755859375</AltitudeMeters>
            <DistanceMeters>NAN</DistanceMeters>
          </Trackpoint>
          <Trackpoint>
            <Time>2020-12-05T10:48:01.000Z</Time>
            <Position>
              <LatitudeDegrees>36.834526956081390380859375</LatitudeDegrees>
              <LongitudeDegrees>-4.3784810788929462432861328125</LongitudeDegrees>
            </Position>
            <AltitudeMeters>639.5999755859375</AltitudeMeters>
            <DistanceMeters>NAN</DistanceMeters>
          </Trackpoint>
          <Trackpoint>
            <Time>2020-12-05T10:48:02.000Z</Time>
            <Position>
              <LatitudeDegrees>36.83452804572880268096923828125</LatitudeDegrees>
              <LongitudeDegrees>-4.37846188433468341827392578125</LongitudeDegrees>
            </Position>
            <AltitudeMeters>639.5999755859375</AltitudeMeters>
            <DistanceMeters>NAN</DistanceMeters>
          </Trackpoint>
          <Trackpoint>
            <Time>2020-12-05T10:48:03.000Z</Time>
            <Position>
              <LatitudeDegrees>36.834527291357517242431640625</LatitudeDegrees>
              <LongitudeDegrees>-4.37844478525221347808837890625</LongitudeDegrees>
            </Position>
            <AltitudeMeters>639.5999755859375</AltitudeMeters>
            <DistanceMeters>NAN</DistanceMeters>
          </Trackpoint>
          <Trackpoint>
            <Time>2020-12-05T10:48:04.000Z</Time>
            <Position>
              <LatitudeDegrees>36.8345254473388195037841796875</LatitudeDegrees>
              <LongitudeDegrees>-4.37842668034136295318603515625</LongitudeDegrees>
            </Position>
            <AltitudeMeters>639.5999755859375</AltitudeMeters>
            <DistanceMeters>NAN</DistanceMeters>
          </Trackpoint>
          <Trackpoint>
            <Time>2020-12-05T10:48:05.000Z</Time>
            <Position>
              <LatitudeDegrees>36.83452427387237548828125</LatitudeDegrees>
              <LongitudeDegrees>-4.37841109000146389007568359375</LongitudeDegrees>
            </Position>
            <AltitudeMeters>639.5999755859375</AltitudeMeters>
            <DistanceMeters>NAN</DistanceMeters>
          </Trackpoint>
          <Trackpoint>
            <Time>2020-12-05T10:48:06.000Z</Time>
            <Position>
              <LatitudeDegrees>36.83452351950109004974365234375</LatitudeDegrees>
              <LongitudeDegrees>-4.37839684076607227325439453125</LongitudeDegrees>
            </Position>
            <AltitudeMeters>639.79998779296875</AltitudeMeters>
            <DistanceMeters>NAN</DistanceMeters>
          </Trackpoint>
          <Trackpoint>
            <Time>2020-12-05T10:48:07.000Z</Time>
            <Position>
              <LatitudeDegrees>36.83452318422496318817138671875</LatitudeDegrees>
              <LongitudeDegrees>-4.37838192097842693328857421875</LongitudeDegrees>
            </Position>
            <AltitudeMeters>639.79998779296875</AltitudeMeters>
            <DistanceMeters>NAN</DistanceMeters>
          </Trackpoint>
          <Trackpoint>
            <Time>2020-12-05T10:48:08.000Z</Time>
            <Position>
              <LatitudeDegrees>36.8345251120626926422119140625</LatitudeDegrees>
              <LongitudeDegrees>-4.37836624681949615478515625</LongitudeDegrees>
            </Position>
            <AltitudeMeters>639.79998779296875</AltitudeMeters>
            <DistanceMeters>NAN</DistanceMeters>
          </Trackpoint>
          <Trackpoint>
            <Time>2020-12-05T10:48:09.000Z</Time>
            <Position>
              <LatitudeDegrees>36.834525950253009796142578125</LatitudeDegrees>
              <LongitudeDegrees>-4.378349147737026214599609375</LongitudeDegrees>
            </Position>
            <AltitudeMeters>639.79998779296875</AltitudeMeters>
            <DistanceMeters>NAN</DistanceMeters>
          </Trackpoint>
          <Trackpoint>
            <Time>2020-12-05T10:48:10.000Z</Time>
            <Position>
              <LatitudeDegrees>36.83452804572880268096923828125</LatitudeDegrees>
              <LongitudeDegrees>-4.378330372273921966552734375</LongitudeDegrees>
            </Position>
            <AltitudeMeters>640</AltitudeMeters>
            <DistanceMeters>NAN</DistanceMeters>
          </Trackpoint>
          <Trackpoint>
            <Time>2020-12-05T10:48:11.000Z</Time>
            <Position>
              <LatitudeDegrees>36.83453005738556385040283203125</LatitudeDegrees>
              <LongitudeDegrees>-4.3783131055533885955810546875</LongitudeDegrees>
            </Position>
            <AltitudeMeters>640</AltitudeMeters>
            <DistanceMeters>NAN</DistanceMeters>
          </Trackpoint>
          <Trackpoint>
            <Time>2020-12-05T10:48:12.000Z</Time>
            <Position>
              <LatitudeDegrees>36.83453072793781757354736328125</LatitudeDegrees>
              <LongitudeDegrees>-4.37829575501382350921630859375</LongitudeDegrees>
            </Position>
            <AltitudeMeters>640</AltitudeMeters>
            <DistanceMeters>NAN</DistanceMeters>
          </Trackpoint>
          <Trackpoint>
            <Time>2020-12-05T10:48:13.000Z</Time>
            <Position>
              <LatitudeDegrees>36.83453341014683246612548828125</LatitudeDegrees>
              <LongitudeDegrees>-4.37828041613101959228515625</LongitudeDegrees>
            </Position>
            <AltitudeMeters>640</AltitudeMeters>
            <DistanceMeters>NAN</DistanceMeters>
          </Trackpoint>
          <Trackpoint>
            <Time>2020-12-05T10:48:14.000Z</Time>
            <Position>
              <LatitudeDegrees>36.83453500270843505859375</LatitudeDegrees>
              <LongitudeDegrees>-4.3782678432762622833251953125</LongitudeDegrees>
            </Position>
            <AltitudeMeters>640.20001220703125</AltitudeMeters>
            <DistanceMeters>NAN</DistanceMeters>
          </Trackpoint>
          <Trackpoint>
            <Time>2020-12-05T10:48:15.000Z</Time>
            <Position>
              <LatitudeDegrees>36.83453491888940334320068359375</LatitudeDegrees>
              <LongitudeDegrees>-4.37825703062117099761962890625</LongitudeDegrees>
            </Position>
            <AltitudeMeters>640.20001220703125</AltitudeMeters>
            <DistanceMeters>NAN</DistanceMeters>
          </Trackpoint>
          <Trackpoint>
            <Time>2020-12-05T10:48:16.000Z</Time>
            <Position>
              <LatitudeDegrees>36.834534667432308197021484375</LatitudeDegrees>
              <LongitudeDegrees>-4.378244876861572265625</LongitudeDegrees>
            </Position>
            <AltitudeMeters>640.20001220703125</AltitudeMeters>
            <DistanceMeters>NAN</DistanceMeters>
          </Trackpoint>
          <Trackpoint>
            <Time>2020-12-05T10:48:17.000Z</Time>
            <Position>
              <LatitudeDegrees>36.834534667432308197021484375</LatitudeDegrees>
              <LongitudeDegrees>-4.37823188491165637969970703125</LongitudeDegrees>
            </Position>
            <AltitudeMeters>640.20001220703125</AltitudeMeters>
            <DistanceMeters>NAN</DistanceMeters>
          </Trackpoint>
          <Trackpoint>
            <Time>2020-12-05T10:48:18.000Z</Time>
            <Position>
              <LatitudeDegrees>36.83453391306102275848388671875</LatitudeDegrees>
              <LongitudeDegrees>-4.3782165460288524627685546875</LongitudeDegrees>
            </Position>
            <AltitudeMeters>640.4000244140625</AltitudeMeters>
            <DistanceMeters>NAN</DistanceMeters>
          </Trackpoint>
          <Trackpoint>
            <Time>2020-12-05T10:48:19.000Z</Time>
            <Position>
              <LatitudeDegrees>36.8345328234136104583740234375</LatitudeDegrees>
              <LongitudeDegrees>-4.3782024644315242767333984375</LongitudeDegrees>
            </Position>
            <AltitudeMeters>640.4000244140625</AltitudeMeters>
            <DistanceMeters>NAN</DistanceMeters>
          </Trackpoint>
          <Trackpoint>
            <Time>2020-12-05T10:48:20.000Z</Time>
            <Position>
              <LatitudeDegrees>36.83453056029975414276123046875</LatitudeDegrees>
              <LongitudeDegrees>-4.3781898915767669677734375</LongitudeDegrees>
            </Position>
            <AltitudeMeters>640.5999755859375</AltitudeMeters>
            <DistanceMeters>NAN</DistanceMeters>
          </Trackpoint>
          <Trackpoint>
            <Time>2020-12-05T10:48:21.000Z</Time>
            <Position>
              <LatitudeDegrees>36.834525950253009796142578125</LatitudeDegrees>
              <LongitudeDegrees>-4.37817539088428020477294921875</LongitudeDegrees>
            </Position>
            <AltitudeMeters>640.5999755859375</AltitudeMeters>
            <DistanceMeters>NAN</DistanceMeters>
          </Trackpoint>
          <Trackpoint>
            <Time>2020-12-05T10:48:22.000Z</Time>
            <Position>
              <LatitudeDegrees>36.8345204181969165802001953125</LatitudeDegrees>
              <LongitudeDegrees>-4.3781577050685882568359375</LongitudeDegrees>
            </Position>
            <AltitudeMeters>640.4000244140625</AltitudeMeters>
            <DistanceMeters>NAN</DistanceMeters>
          </Trackpoint>
          <Trackpoint>
            <Time>2020-12-05T10:48:23.000Z</Time>
            <Position>
              <LatitudeDegrees>36.834515891969203948974609375</LatitudeDegrees>
              <LongitudeDegrees>-4.3781404383480548858642578125</LongitudeDegrees>
            </Position>
            <AltitudeMeters>640.4000244140625</AltitudeMeters>
            <DistanceMeters>NAN</DistanceMeters>
          </Trackpoint>
          <Trackpoint>
            <Time>2020-12-05T10:48:24.000Z</Time>
            <Position>
              <LatitudeDegrees>36.8345130421221256256103515625</LatitudeDegrees>
              <LongitudeDegrees>-4.37812350690364837646484375</LongitudeDegrees>
            </Position>
            <AltitudeMeters>640.4000244140625</AltitudeMeters>
            <DistanceMeters>NAN</DistanceMeters>
          </Trackpoint>
          <Trackpoint>
            <Time>2020-12-05T10:48:25.000Z</Time>
            <Position>
              <LatitudeDegrees>36.83450893498957157135009765625</LatitudeDegrees>
              <LongitudeDegrees>-4.3781062401831150054931640625</LongitudeDegrees>
            </Position>
            <AltitudeMeters>640.4000244140625</AltitudeMeters>
            <DistanceMeters>NAN</DistanceMeters>
          </Trackpoint>
          <Trackpoint>
            <Time>2020-12-05T10:48:26.000Z</Time>
            <Position>
              <LatitudeDegrees>36.83450482785701751708984375</LatitudeDegrees>
              <LongitudeDegrees>-4.378083609044551849365234375</LongitudeDegrees>
            </Position>
            <AltitudeMeters>640.4000244140625</AltitudeMeters>
            <DistanceMeters>NAN</DistanceMeters>
          </Trackpoint>
          <Trackpoint>
            <Time>2020-12-05T10:48:27.000Z</Time>
            <Position>
              <LatitudeDegrees>36.834500469267368316650390625</LatitudeDegrees>
              <LongitudeDegrees>-4.3780653364956378936767578125</LongitudeDegrees>
            </Position>
            <AltitudeMeters>640.20001220703125</AltitudeMeters>
            <DistanceMeters>NAN</DistanceMeters>
          </Trackpoint>
          <Trackpoint>
            <Time>2020-12-05T10:48:28.000Z</Time>
            <Position>
              <LatitudeDegrees>36.83449770323932170867919921875</LatitudeDegrees>
              <LongitudeDegrees>-4.37805050052702426910400390625</LongitudeDegrees>
            </Position>
            <AltitudeMeters>640.20001220703125</AltitudeMeters>
            <DistanceMeters>NAN</DistanceMeters>
          </Trackpoint>
          <Trackpoint>
            <Time>2020-12-05T10:48:29.000Z</Time>
            <Position>
              <LatitudeDegrees>36.8344942666590213775634765625</LatitudeDegrees>
              <LongitudeDegrees>-4.3780361674726009368896484375</LongitudeDegrees>
            </Position>
            <AltitudeMeters>640</AltitudeMeters>
            <DistanceMeters>NAN</DistanceMeters>
          </Trackpoint>
          <Trackpoint>
            <Time>2020-12-05T10:48:30.000Z</Time>
            <Position>
              <LatitudeDegrees>36.8344919197261333465576171875</LatitudeDegrees>
              <LongitudeDegrees>-4.37802384607493877410888671875</LongitudeDegrees>
            </Position>
            <AltitudeMeters>640</AltitudeMeters>
            <DistanceMeters>NAN</DistanceMeters>
          </Trackpoint>
          <Trackpoint>
            <Time>2020-12-05T10:48:31.000Z</Time>
            <Position>
              <LatitudeDegrees>36.8344899080693721771240234375</LatitudeDegrees>
              <LongitudeDegrees>-4.37801294960081577301025390625</LongitudeDegrees>
            </Position>
            <AltitudeMeters>640</AltitudeMeters>
            <DistanceMeters>NAN</DistanceMeters>
          </Trackpoint>
          <Trackpoint>
            <Time>2020-12-05T10:48:32.000Z</Time>
            <Position>
              <LatitudeDegrees>36.8344868905842304229736328125</LatitudeDegrees>
              <LongitudeDegrees>-4.3780006282031536102294921875</LongitudeDegrees>
            </Position>
            <AltitudeMeters>640</AltitudeMeters>
            <DistanceMeters>NAN</DistanceMeters>
          </Trackpoint>
          <Trackpoint>
            <Time>2020-12-05T10:48:33.000Z</Time>
            <Position>
              <LatitudeDegrees>36.8344858847558498382568359375</LatitudeDegrees>
              <LongitudeDegrees>-4.3779868818819522857666015625</LongitudeDegrees>
            </Position>
            <AltitudeMeters>640.20001220703125</AltitudeMeters>
            <DistanceMeters>NAN</DistanceMeters>
          </Trackpoint>
          <Trackpoint>
            <Time>2020-12-05T10:48:34.000Z</Time>
            <Position>
              <LatitudeDegrees>36.8344858847558498382568359375</LatitudeDegrees>
              <LongitudeDegrees>-4.37797204591333866119384765625</LongitudeDegrees>
            </Position>
            <AltitudeMeters>640.20001220703125</AltitudeMeters>
            <DistanceMeters>NAN</DistanceMeters>
          </Trackpoint>
          <Trackpoint>
            <Time>2020-12-05T10:48:35.000Z</Time>
            <Position>
              <LatitudeDegrees>36.83448546566069126129150390625</LatitudeDegrees>
              <LongitudeDegrees>-4.37795712612569332122802734375</LongitudeDegrees>
            </Position>
            <AltitudeMeters>640.20001220703125</AltitudeMeters>
            <DistanceMeters>NAN</DistanceMeters>
          </Trackpoint>
          <Trackpoint>
            <Time>2020-12-05T10:48:36.000Z</Time>
            <Position>
              <LatitudeDegrees>36.83448873460292816162109375</LatitudeDegrees>
              <LongitudeDegrees>-4.3779567070305347442626953125</LongitudeDegrees>
            </Position>
            <AltitudeMeters>640.20001220703125</AltitudeMeters>
            <DistanceMeters>NAN</DistanceMeters>
          </Trackpoint>
          <Trackpoint>
            <Time>2020-12-05T10:48:37.000Z</Time>
            <Position>
              <LatitudeDegrees>36.83449217118322849273681640625</LatitudeDegrees>
              <LongitudeDegrees>-4.3779530189931392669677734375</LongitudeDegrees>
            </Position>
            <AltitudeMeters>640.20001220703125</AltitudeMeters>
            <DistanceMeters>NAN</DistanceMeters>
          </Trackpoint>
          <Trackpoint>
            <Time>2020-12-05T10:48:38.000Z</Time>
            <Position>
              <LatitudeDegrees>36.83449284173548221588134765625</LatitudeDegrees>
              <LongitudeDegrees>-4.37794455327093601226806640625</LongitudeDegrees>
            </Position>
            <AltitudeMeters>640.20001220703125</AltitudeMeters>
            <DistanceMeters>NAN</DistanceMeters>
          </Trackpoint>
          <Trackpoint>
            <Time>2020-12-05T10:48:39.000Z</Time>
            <Position>
              <LatitudeDegrees>36.8344905786216259002685546875</LatitudeDegrees>
              <LongitudeDegrees>-4.3779308907687664031982421875</LongitudeDegrees>
            </Position>
            <AltitudeMeters>640</AltitudeMeters>
            <DistanceMeters>NAN</DistanceMeters>
          </Trackpoint>
          <Trackpoint>
            <Time>2020-12-05T10:48:40.000Z</Time>
            <Position>
              <LatitudeDegrees>36.83448865078389644622802734375</LatitudeDegrees>
              <LongitudeDegrees>-4.37791421078145503997802734375</LongitudeDegrees>
            </Position>
            <AltitudeMeters>640</AltitudeMeters>
            <DistanceMeters>NAN</DistanceMeters>
          </Trackpoint>
          <Trackpoint>
            <Time>2020-12-05T10:48:41.000Z</Time>
            <Position>
              <LatitudeDegrees>36.834491081535816192626953125</LatitudeDegrees>
              <LongitudeDegrees>-4.37789727933704853057861328125</LongitudeDegrees>
            </Position>
            <AltitudeMeters>640</AltitudeMeters>
            <DistanceMeters>NAN</DistanceMeters>
          </Trackpoint>
          <Trackpoint>
            <Time>2020-12-05T10:48:42.000Z</Time>
            <Position>
              <LatitudeDegrees>36.83449250645935535430908203125</LatitudeDegrees>
              <LongitudeDegrees>-4.377879090607166290283203125</LongitudeDegrees>
            </Position>
            <AltitudeMeters>640</AltitudeMeters>
            <DistanceMeters>NAN</DistanceMeters>
          </Trackpoint>
          <Trackpoint>
            <Time>2020-12-05T10:48:43.000Z</Time>
            <Position>
              <LatitudeDegrees>36.834494769573211669921875</LatitudeDegrees>
              <LongitudeDegrees>-4.37785620801150798797607421875</LongitudeDegrees>
            </Position>
            <AltitudeMeters>640</AltitudeMeters>
            <DistanceMeters>NAN</DistanceMeters>
          </Trackpoint>
          <Trackpoint>
            <Time>2020-12-05T10:48:44.000Z</Time>
            <Position>
              <LatitudeDegrees>36.83450080454349517822265625</LatitudeDegrees>
              <LongitudeDegrees>-4.37783860601484775543212890625</LongitudeDegrees>
            </Position>
            <AltitudeMeters>640</AltitudeMeters>
            <DistanceMeters>NAN</DistanceMeters>
          </Trackpoint>
          <Trackpoint>
            <Time>2020-12-05T10:48:45.000Z</Time>
            <Position>
              <LatitudeDegrees>36.8345046602189540863037109375</LatitudeDegrees>
              <LongitudeDegrees>-4.377823434770107269287109375</LongitudeDegrees>
            </Position>
            <AltitudeMeters>640.20001220703125</AltitudeMeters>
            <DistanceMeters>NAN</DistanceMeters>
          </Trackpoint>
          <Trackpoint>
            <Time>2020-12-05T10:48:46.000Z</Time>
            <Position>
              <LatitudeDegrees>36.83450440876185894012451171875</LatitudeDegrees>
              <LongitudeDegrees>-4.3778061680495738983154296875</LongitudeDegrees>
            </Position>
            <AltitudeMeters>640.20001220703125</AltitudeMeters>
            <DistanceMeters>NAN</DistanceMeters>
          </Trackpoint>
          <Trackpoint>
            <Time>2020-12-05T10:48:47.000Z</Time>
            <Position>
              <LatitudeDegrees>36.83450256474316120147705078125</LatitudeDegrees>
              <LongitudeDegrees>-4.3777863867580890655517578125</LongitudeDegrees>
            </Position>
            <AltitudeMeters>640.20001220703125</AltitudeMeters>
            <DistanceMeters>NAN</DistanceMeters>
          </Trackpoint>
          <Trackpoint>
            <Time>2020-12-05T10:48:48.000Z</Time>
            <Position>
              <LatitudeDegrees>36.83450122363865375518798828125</LatitudeDegrees>
              <LongitudeDegrees>-4.37777188606560230255126953125</LongitudeDegrees>
            </Position>
            <AltitudeMeters>640.20001220703125</AltitudeMeters>
            <DistanceMeters>NAN</DistanceMeters>
          </Trackpoint>
          <Trackpoint>
            <Time>2020-12-05T10:48:49.000Z</Time>
            <Position>
              <LatitudeDegrees>36.83449753560125827789306640625</LatitudeDegrees>
              <LongitudeDegrees>-4.37775813974440097808837890625</LongitudeDegrees>
            </Position>
            <AltitudeMeters>640.4000244140625</AltitudeMeters>
            <DistanceMeters>NAN</DistanceMeters>
          </Trackpoint>
          <Trackpoint>
            <Time>2020-12-05T10:48:50.000Z</Time>
            <Position>
              <LatitudeDegrees>36.8344939313828945159912109375</LatitudeDegrees>
              <LongitudeDegrees>-4.37774372287094593048095703125</LongitudeDegrees>
            </Position>
            <AltitudeMeters>640.5999755859375</AltitudeMeters>
            <DistanceMeters>NAN</DistanceMeters>
          </Trackpoint>
          <Trackpoint>
            <Time>2020-12-05T10:48:51.000Z</Time>
            <Position>
              <LatitudeDegrees>36.83448647148907184600830078125</LatitudeDegrees>
              <LongitudeDegrees>-4.37772578559815883636474609375</LongitudeDegrees>
            </Position>
            <AltitudeMeters>640.5999755859375</AltitudeMeters>
            <DistanceMeters>NAN</DistanceMeters>
          </Trackpoint>
          <Trackpoint>
            <Time>2020-12-05T10:48:52.000Z</Time>
            <Position>
              <LatitudeDegrees>36.83447892777621746063232421875</LatitudeDegrees>
              <LongitudeDegrees>-4.3777079321444034576416015625</LongitudeDegrees>
            </Position>
            <AltitudeMeters>640.5999755859375</AltitudeMeters>
            <DistanceMeters>NAN</DistanceMeters>
          </Trackpoint>
          <Trackpoint>
            <Time>2020-12-05T10:48:53.000Z</Time>
            <Position>
              <LatitudeDegrees>36.83447188697755336761474609375</LatitudeDegrees>
              <LongitudeDegrees>-4.3776931799948215484619140625</LongitudeDegrees>
            </Position>
            <AltitudeMeters>640.5999755859375</AltitudeMeters>
            <DistanceMeters>NAN</DistanceMeters>
          </Trackpoint>
          <Trackpoint>
            <Time>2020-12-05T10:48:54.000Z</Time>
            <Position>
              <LatitudeDegrees>36.83446585200726985931396484375</LatitudeDegrees>
              <LongitudeDegrees>-4.37767800875008106231689453125</LongitudeDegrees>
            </Position>
            <AltitudeMeters>640.5999755859375</AltitudeMeters>
            <DistanceMeters>NAN</DistanceMeters>
          </Trackpoint>
          <Trackpoint>
            <Time>2020-12-05T10:48:55.000Z</Time>
            <Position>
              <LatitudeDegrees>36.83445897884666919708251953125</LatitudeDegrees>
              <LongitudeDegrees>-4.37765873037278652191162109375</LongitudeDegrees>
            </Position>
            <AltitudeMeters>640.5999755859375</AltitudeMeters>
            <DistanceMeters>NAN</DistanceMeters>
          </Trackpoint>
          <Trackpoint>
            <Time>2020-12-05T10:48:56.000Z</Time>
            <Position>
              <LatitudeDegrees>36.8344516865909099578857421875</LatitudeDegrees>
              <LongitudeDegrees>-4.37763978727161884307861328125</LongitudeDegrees>
            </Position>
            <AltitudeMeters>640.79998779296875</AltitudeMeters>
            <DistanceMeters>NAN</DistanceMeters>
          </Trackpoint>
          <Trackpoint>
            <Time>2020-12-05T10:48:57.000Z</Time>
            <Position>
              <LatitudeDegrees>36.834441460669040679931640625</LatitudeDegrees>
              <LongitudeDegrees>-4.37762352637946605682373046875</LongitudeDegrees>
            </Position>
            <AltitudeMeters>640.79998779296875</AltitudeMeters>
            <DistanceMeters>NAN</DistanceMeters>
          </Trackpoint>
          <Trackpoint>
            <Time>2020-12-05T10:48:58.000Z</Time>
            <Position>
              <LatitudeDegrees>36.8344255350530147552490234375</LatitudeDegrees>
              <LongitudeDegrees>-4.377600140869617462158203125</LongitudeDegrees>
            </Position>
            <AltitudeMeters>640.79998779296875</AltitudeMeters>
            <DistanceMeters>NAN</DistanceMeters>
          </Trackpoint>
          <Trackpoint>
            <Time>2020-12-05T10:48:59.000Z</Time>
            <Position>
              <LatitudeDegrees>36.83441941626369953155517578125</LatitudeDegrees>
              <LongitudeDegrees>-4.37758706510066986083984375</LongitudeDegrees>
            </Position>
            <AltitudeMeters>640.79998779296875</AltitudeMeters>
            <DistanceMeters>NAN</DistanceMeters>
          </Trackpoint>
          <Trackpoint>
            <Time>2020-12-05T10:49:00.000Z</Time>
            <Position>
              <LatitudeDegrees>36.834415979683399200439453125</LatitudeDegrees>
              <LongitudeDegrees>-4.3775754980742931365966796875</LongitudeDegrees>
            </Position>
            <AltitudeMeters>640.79998779296875</AltitudeMeters>
            <DistanceMeters>NAN</DistanceMeters>
          </Trackpoint>
          <Trackpoint>
            <Time>2020-12-05T10:49:01.000Z</Time>
            <Position>
              <LatitudeDegrees>36.83441271074116230010986328125</LatitudeDegrees>
              <LongitudeDegrees>-4.37756736762821674346923828125</LongitudeDegrees>
            </Position>
            <AltitudeMeters>640.79998779296875</AltitudeMeters>
            <DistanceMeters>NAN</DistanceMeters>
          </Trackpoint>
          <Trackpoint>
            <Time>2020-12-05T10:49:02.000Z</Time>
            <Position>
              <LatitudeDegrees>36.83441069908440113067626953125</LatitudeDegrees>
              <LongitudeDegrees>-4.377559237182140350341796875</LongitudeDegrees>
            </Position>
            <AltitudeMeters>641</AltitudeMeters>
            <DistanceMeters>NAN</DistanceMeters>
          </Trackpoint>
          <Trackpoint>
            <Time>2020-12-05T10:49:03.000Z</Time>
            <Position>
              <LatitudeDegrees>36.83440634049475193023681640625</LatitudeDegrees>
              <LongitudeDegrees>-4.37755127437412738800048828125</LongitudeDegrees>
            </Position>
            <AltitudeMeters>641</AltitudeMeters>
            <DistanceMeters>NAN</DistanceMeters>
          </Trackpoint>
          <Trackpoint>
            <Time>2020-12-05T10:49:04.000Z</Time>
            <Position>
              <LatitudeDegrees>36.8343993835151195526123046875</LatitudeDegrees>
              <LongitudeDegrees>-4.37754289247095584869384765625</LongitudeDegrees>
            </Position>
            <AltitudeMeters>641</AltitudeMeters>
            <DistanceMeters>NAN</DistanceMeters>
          </Trackpoint>
          <Trackpoint>
            <Time>2020-12-05T10:49:05.000Z</Time>
            <Position>
              <LatitudeDegrees>36.8343889899551868438720703125</LatitudeDegrees>
              <LongitudeDegrees>-4.37753233127295970916748046875</LongitudeDegrees>
            </Position>
            <AltitudeMeters>641</AltitudeMeters>
            <DistanceMeters>NAN</DistanceMeters>
          </Trackpoint>
          <Trackpoint>
            <Time>2020-12-05T10:49:06.000Z</Time>
            <Position>
              <LatitudeDegrees>36.83437868021428585052490234375</LatitudeDegrees>
              <LongitudeDegrees>-4.3775211833417415618896484375</LongitudeDegrees>
            </Position>
            <AltitudeMeters>641</AltitudeMeters>
            <DistanceMeters>NAN</DistanceMeters>
          </Trackpoint>
          <Trackpoint>
            <Time>2020-12-05T10:49:07.000Z</Time>
            <Position>
              <LatitudeDegrees>36.8343658559024333953857421875</LatitudeDegrees>
              <LongitudeDegrees>-4.3775091134011745452880859375</LongitudeDegrees>
            </Position>
            <AltitudeMeters>641.20001220703125</AltitudeMeters>
            <DistanceMeters>NAN</DistanceMeters>
          </Trackpoint>
          <Trackpoint>
            <Time>2020-12-05T10:49:08.000Z</Time>
            <Position>
              <LatitudeDegrees>36.83435194194316864013671875</LatitudeDegrees>
              <LongitudeDegrees>-4.3774960376322269439697265625</LongitudeDegrees>
            </Position>
            <AltitudeMeters>641.20001220703125</AltitudeMeters>
            <DistanceMeters>NAN</DistanceMeters>
          </Trackpoint>
          <Trackpoint>
            <Time>2020-12-05T10:49:09.000Z</Time>
            <Position>
              <LatitudeDegrees>36.83433928526937961578369140625</LatitudeDegrees>
              <LongitudeDegrees>-4.37748271040618419647216796875</LongitudeDegrees>
            </Position>
            <AltitudeMeters>641.20001220703125</AltitudeMeters>
            <DistanceMeters>NAN</DistanceMeters>
          </Trackpoint>
          <Trackpoint>
            <Time>2020-12-05T10:49:10.000Z</Time>
            <Position>
              <LatitudeDegrees>36.83432822115719318389892578125</LatitudeDegrees>
              <LongitudeDegrees>-4.37746896408498287200927734375</LongitudeDegrees>
            </Position>
            <AltitudeMeters>641.20001220703125</AltitudeMeters>
            <DistanceMeters>NAN</DistanceMeters>
          </Trackpoint>
          <Trackpoint>
            <Time>2020-12-05T10:49:11.000Z</Time>
            <Position>
              <LatitudeDegrees>36.83432042598724365234375</LatitudeDegrees>
              <LongitudeDegrees>-4.37745706178247928619384765625</LongitudeDegrees>
            </Position>
            <AltitudeMeters>641.20001220703125</AltitudeMeters>
            <DistanceMeters>NAN</DistanceMeters>
          </Trackpoint>
          <Trackpoint>
            <Time>2020-12-05T10:49:12.000Z</Time>
            <Position>
              <LatitudeDegrees>36.83431078679859638214111328125</LatitudeDegrees>
              <LongitudeDegrees>-4.37744281254708766937255859375</LongitudeDegrees>
            </Position>
            <AltitudeMeters>641.4000244140625</AltitudeMeters>
            <DistanceMeters>NAN</DistanceMeters>
          </Trackpoint>
          <Trackpoint>
            <Time>2020-12-05T10:49:13.000Z</Time>
            <Position>
              <LatitudeDegrees>36.834301985800266265869140625</LatitudeDegrees>
              <LongitudeDegrees>-4.3774273060262203216552734375</LongitudeDegrees>
            </Position>
            <AltitudeMeters>641.4000244140625</AltitudeMeters>
            <DistanceMeters>NAN</DistanceMeters>
          </Trackpoint>
          <Trackpoint>
            <Time>2020-12-05T10:49:14.000Z</Time>
            <Position>
              <LatitudeDegrees>36.8342941068112850189208984375</LatitudeDegrees>
              <LongitudeDegrees>-4.3774122186005115509033203125</LongitudeDegrees>
            </Position>
            <AltitudeMeters>641.5999755859375</AltitudeMeters>
            <DistanceMeters>NAN</DistanceMeters>
          </Trackpoint>
          <Trackpoint>
            <Time>2020-12-05T10:49:15.000Z</Time>
            <Position>
              <LatitudeDegrees>36.83428815566003322601318359375</LatitudeDegrees>
              <LongitudeDegrees>-4.3773986399173736572265625</LongitudeDegrees>
            </Position>
            <AltitudeMeters>641.79998779296875</AltitudeMeters>
            <DistanceMeters>NAN</DistanceMeters>
          </Trackpoint>
          <Trackpoint>
            <Time>2020-12-05T10:49:16.000Z</Time>
            <Position>
              <LatitudeDegrees>36.83428220450878143310546875</LatitudeDegrees>
              <LongitudeDegrees>-4.3773870728909969329833984375</LongitudeDegrees>
            </Position>
            <AltitudeMeters>641.79998779296875</AltitudeMeters>
            <DistanceMeters>NAN</DistanceMeters>
          </Trackpoint>
          <Trackpoint>
            <Time>2020-12-05T10:49:17.000Z</Time>
            <Position>
              <LatitudeDegrees>36.8342749960720539093017578125</LatitudeDegrees>
              <LongitudeDegrees>-4.3773750029504299163818359375</LongitudeDegrees>
            </Position>
            <AltitudeMeters>642</AltitudeMeters>
            <DistanceMeters>NAN</DistanceMeters>
          </Trackpoint>
          <Trackpoint>
            <Time>2020-12-05T10:49:18.000Z</Time>
            <Position>
              <LatitudeDegrees>36.83426611125469207763671875</LatitudeDegrees>
              <LongitudeDegrees>-4.37736150808632373809814453125</LongitudeDegrees>
            </Position>
            <AltitudeMeters>642</AltitudeMeters>
            <DistanceMeters>NAN</DistanceMeters>
          </Trackpoint>
          <Trackpoint>
            <Time>2020-12-05T10:49:19.000Z</Time>
            <Position>
              <LatitudeDegrees>36.8342573940753936767578125</LatitudeDegrees>
              <LongitudeDegrees>-4.37734491191804409027099609375</LongitudeDegrees>
            </Position>
            <AltitudeMeters>642</AltitudeMeters>
            <DistanceMeters>NAN</DistanceMeters>
          </Trackpoint>
          <Trackpoint>
            <Time>2020-12-05T10:49:20.000Z</Time>
            <Position>
              <LatitudeDegrees>36.83425043709576129913330078125</LatitudeDegrees>
              <LongitudeDegrees>-4.37732756137847900390625</LongitudeDegrees>
            </Position>
            <AltitudeMeters>642.20001220703125</AltitudeMeters>
            <DistanceMeters>NAN</DistanceMeters>
          </Trackpoint>
          <Trackpoint>
            <Time>2020-12-05T10:49:21.000Z</Time>
            <Position>
              <LatitudeDegrees>36.83424456976354122161865234375</LatitudeDegrees>
              <LongitudeDegrees>-4.3773119710385799407958984375</LongitudeDegrees>
            </Position>
            <AltitudeMeters>642</AltitudeMeters>
            <DistanceMeters>NAN</DistanceMeters>
          </Trackpoint>
          <Trackpoint>
            <Time>2020-12-05T10:49:22.000Z</Time>
            <Position>
              <LatitudeDegrees>36.8342381156980991363525390625</LatitudeDegrees>
              <LongitudeDegrees>-4.377299062907695770263671875</LongitudeDegrees>
            </Position>
            <AltitudeMeters>642</AltitudeMeters>
            <DistanceMeters>NAN</DistanceMeters>
          </Trackpoint>
          <Trackpoint>
            <Time>2020-12-05T10:49:23.000Z</Time>
            <Position>
              <LatitudeDegrees>36.83423233218491077423095703125</LatitudeDegrees>
              <LongitudeDegrees>-4.37729068100452423095703125</LongitudeDegrees>
            </Position>
            <AltitudeMeters>641.79998779296875</AltitudeMeters>
            <DistanceMeters>NAN</DistanceMeters>
          </Trackpoint>
          <Trackpoint>
            <Time>2020-12-05T10:49:24.000Z</Time>
            <Position>
              <LatitudeDegrees>36.834226883947849273681640625</LatitudeDegrees>
              <LongitudeDegrees>-4.37728188000619411468505859375</LongitudeDegrees>
            </Position>
            <AltitudeMeters>641.5999755859375</AltitudeMeters>
            <DistanceMeters>NAN</DistanceMeters>
          </Trackpoint>
          <Trackpoint>
            <Time>2020-12-05T10:49:25.000Z</Time>
            <Position>
              <LatitudeDegrees>36.834220178425312042236328125</LatitudeDegrees>
              <LongitudeDegrees>-4.37727299518883228302001953125</LongitudeDegrees>
            </Position>
            <AltitudeMeters>641.5999755859375</AltitudeMeters>
            <DistanceMeters>NAN</DistanceMeters>
          </Trackpoint>
          <Trackpoint>
            <Time>2020-12-05T10:49:26.000Z</Time>
            <Position>
              <LatitudeDegrees>36.83421204797923564910888671875</LatitudeDegrees>
              <LongitudeDegrees>-4.37726293690502643585205078125</LongitudeDegrees>
            </Position>
            <AltitudeMeters>641.5999755859375</AltitudeMeters>
            <DistanceMeters>NAN</DistanceMeters>
          </Trackpoint>
          <Trackpoint>
            <Time>2020-12-05T10:49:27.000Z</Time>
            <Position>
              <LatitudeDegrees>36.83420349843800067901611328125</LatitudeDegrees>
              <LongitudeDegrees>-4.37725036405026912689208984375</LongitudeDegrees>
            </Position>
            <AltitudeMeters>641.5999755859375</AltitudeMeters>
            <DistanceMeters>NAN</DistanceMeters>
          </Trackpoint>
          <Trackpoint>
            <Time>2020-12-05T10:49:28.000Z</Time>
            <Position>
              <LatitudeDegrees>36.83419679291546344757080078125</LatitudeDegrees>
              <LongitudeDegrees>-4.3772351928055286407470703125</LongitudeDegrees>
            </Position>
            <AltitudeMeters>641.5999755859375</AltitudeMeters>
            <DistanceMeters>NAN</DistanceMeters>
          </Trackpoint>
          <Trackpoint>
            <Time>2020-12-05T10:49:29.000Z</Time>
            <Position>
              <LatitudeDegrees>36.83419008739292621612548828125</LatitudeDegrees>
              <LongitudeDegrees>-4.37722454778850078582763671875</LongitudeDegrees>
            </Position>
            <AltitudeMeters>642</AltitudeMeters>
            <DistanceMeters>NAN</DistanceMeters>
          </Trackpoint>
          <Trackpoint>
            <Time>2020-12-05T10:49:30.000Z</Time>
            <Position>
              <LatitudeDegrees>36.834183298051357269287109375</LatitudeDegrees>
              <LongitudeDegrees>-4.37721633352339267730712890625</LongitudeDegrees>
            </Position>
            <AltitudeMeters>642.20001220703125</AltitudeMeters>
            <DistanceMeters>NAN</DistanceMeters>
          </Trackpoint>
          <Trackpoint>
            <Time>2020-12-05T10:49:31.000Z</Time>
            <Position>
              <LatitudeDegrees>36.834175586700439453125</LatitudeDegrees>
              <LongitudeDegrees>-4.37720895744860172271728515625</LongitudeDegrees>
            </Position>
            <AltitudeMeters>642.4000244140625</AltitudeMeters>
            <DistanceMeters>NAN</DistanceMeters>
          </Trackpoint>
          <Trackpoint>
            <Time>2020-12-05T10:49:32.000Z</Time>
            <Position>
              <LatitudeDegrees>36.83416661806404590606689453125</LatitudeDegrees>
              <LongitudeDegrees>-4.37720057554543018341064453125</LongitudeDegrees>
            </Position>
            <AltitudeMeters>642.5999755859375</AltitudeMeters>
            <DistanceMeters>NAN</DistanceMeters>
          </Trackpoint>
          <Trackpoint>
            <Time>2020-12-05T10:49:33.000Z</Time>
            <Position>
              <LatitudeDegrees>36.83415706269443035125732421875</LatitudeDegrees>
              <LongitudeDegrees>-4.3771906010806560516357421875</LongitudeDegrees>
            </Position>
            <AltitudeMeters>642.79998779296875</AltitudeMeters>
            <DistanceMeters>NAN</DistanceMeters>
          </Trackpoint>
          <Trackpoint>
            <Time>2020-12-05T10:49:34.000Z</Time>
            <Position>
              <LatitudeDegrees>36.8341469205915927886962890625</LatitudeDegrees>
              <LongitudeDegrees>-4.3771778605878353118896484375</LongitudeDegrees>
            </Position>
            <AltitudeMeters>643</AltitudeMeters>
            <DistanceMeters>NAN</DistanceMeters>
          </Trackpoint>
          <Trackpoint>
            <Time>2020-12-05T10:49:35.000Z</Time>
            <Position>
              <LatitudeDegrees>36.83413627557456493377685546875</LatitudeDegrees>
              <LongitudeDegrees>-4.37716553919017314910888671875</LongitudeDegrees>
            </Position>
            <AltitudeMeters>643</AltitudeMeters>
            <DistanceMeters>NAN</DistanceMeters>
          </Trackpoint>
          <Trackpoint>
            <Time>2020-12-05T10:49:36.000Z</Time>
            <Position>
              <LatitudeDegrees>36.83412806130945682525634765625</LatitudeDegrees>
              <LongitudeDegrees>-4.3771533854305744171142578125</LongitudeDegrees>
            </Position>
            <AltitudeMeters>643.20001220703125</AltitudeMeters>
            <DistanceMeters>NAN</DistanceMeters>
          </Trackpoint>
          <Trackpoint>
            <Time>2020-12-05T10:49:37.000Z</Time>
            <Position>
              <LatitudeDegrees>36.8341219425201416015625</LatitudeDegrees>
              <LongitudeDegrees>-4.37714206986129283905029296875</LongitudeDegrees>
            </Position>
            <AltitudeMeters>643.20001220703125</AltitudeMeters>
            <DistanceMeters>NAN</DistanceMeters>
          </Trackpoint>
          <Trackpoint>
            <Time>2020-12-05T10:49:38.000Z</Time>
            <Position>
              <LatitudeDegrees>36.83411582373082637786865234375</LatitudeDegrees>
              <LongitudeDegrees>-4.377130754292011260986328125</LongitudeDegrees>
            </Position>
            <AltitudeMeters>643.20001220703125</AltitudeMeters>
            <DistanceMeters>NAN</DistanceMeters>
          </Trackpoint>
          <Trackpoint>
            <Time>2020-12-05T10:49:39.000Z</Time>
            <Position>
              <LatitudeDegrees>36.8341073580086231231689453125</LatitudeDegrees>
              <LongitudeDegrees>-4.37712362967431545257568359375</LongitudeDegrees>
            </Position>
            <AltitudeMeters>643.4000244140625</AltitudeMeters>
            <DistanceMeters>NAN</DistanceMeters>
          </Trackpoint>
          <Trackpoint>
            <Time>2020-12-05T10:49:40.000Z</Time>
            <Position>
              <LatitudeDegrees>36.83409771881997585296630859375</LatitudeDegrees>
              <LongitudeDegrees>-4.37711625359952449798583984375</LongitudeDegrees>
            </Position>
            <AltitudeMeters>643.4000244140625</AltitudeMeters>
            <DistanceMeters>NAN</DistanceMeters>
          </Trackpoint>
          <Trackpoint>
            <Time>2020-12-05T10:49:41.000Z</Time>
            <Position>
              <LatitudeDegrees>36.83408430777490139007568359375</LatitudeDegrees>
              <LongitudeDegrees>-4.377108626067638397216796875</LongitudeDegrees>
            </Position>
            <AltitudeMeters>643.5999755859375</AltitudeMeters>
            <DistanceMeters>NAN</DistanceMeters>
          </Trackpoint>
          <Trackpoint>
            <Time>2020-12-05T10:49:42.000Z</Time>
            <Position>
              <LatitudeDegrees>36.83407190255820751190185546875</LatitudeDegrees>
              <LongitudeDegrees>-4.37709982506930828094482421875</LongitudeDegrees>
            </Position>
            <AltitudeMeters>643.5999755859375</AltitudeMeters>
            <DistanceMeters>NAN</DistanceMeters>
          </Trackpoint>
          <Trackpoint>
            <Time>2020-12-05T10:49:43.000Z</Time>
            <Position>
              <LatitudeDegrees>36.8340575695037841796875</LatitudeDegrees>
              <LongitudeDegrees>-4.3770906887948513031005859375</LongitudeDegrees>
            </Position>
            <AltitudeMeters>643.79998779296875</AltitudeMeters>
            <DistanceMeters>NAN</DistanceMeters>
          </Trackpoint>
          <Trackpoint>
            <Time>2020-12-05T10:49:44.000Z</Time>
            <Position>
              <LatitudeDegrees>36.83404306881129741668701171875</LatitudeDegrees>
              <LongitudeDegrees>-4.3770833127200603485107421875</LongitudeDegrees>
            </Position>
            <AltitudeMeters>643.79998779296875</AltitudeMeters>
            <DistanceMeters>NAN</DistanceMeters>
          </Trackpoint>
          <Trackpoint>
            <Time>2020-12-05T10:49:45.000Z</Time>
            <Position>
              <LatitudeDegrees>36.83403150178492069244384765625</LatitudeDegrees>
              <LongitudeDegrees>-4.37707719393074512481689453125</LongitudeDegrees>
            </Position>
            <AltitudeMeters>644</AltitudeMeters>
            <DistanceMeters>NAN</DistanceMeters>
          </Trackpoint>
          <Trackpoint>
            <Time>2020-12-05T10:49:46.000Z</Time>
            <Position>
              <LatitudeDegrees>36.83402094058692455291748046875</LatitudeDegrees>
              <LongitudeDegrees>-4.37706998549401760101318359375</LongitudeDegrees>
            </Position>
            <AltitudeMeters>644</AltitudeMeters>
            <DistanceMeters>NAN</DistanceMeters>
          </Trackpoint>
          <Trackpoint>
            <Time>2020-12-05T10:49:47.000Z</Time>
            <Position>
              <LatitudeDegrees>36.8340079486370086669921875</LatitudeDegrees>
              <LongitudeDegrees>-4.3770605139434337615966796875</LongitudeDegrees>
            </Position>
            <AltitudeMeters>644</AltitudeMeters>
            <DistanceMeters>NAN</DistanceMeters>
          </Trackpoint>
          <Trackpoint>
            <Time>2020-12-05T10:49:48.000Z</Time>
            <Position>
              <LatitudeDegrees>36.83399428613483905792236328125</LatitudeDegrees>
              <LongitudeDegrees>-4.3770494498312473297119140625</LongitudeDegrees>
            </Position>
            <AltitudeMeters>644</AltitudeMeters>
            <DistanceMeters>NAN</DistanceMeters>
          </Trackpoint>
          <Trackpoint>
            <Time>2020-12-05T10:49:49.000Z</Time>
            <Position>
              <LatitudeDegrees>36.83397911489009857177734375</LatitudeDegrees>
              <LongitudeDegrees>-4.377037547528743743896484375</LongitudeDegrees>
            </Position>
            <AltitudeMeters>644</AltitudeMeters>
            <DistanceMeters>NAN</DistanceMeters>
          </Trackpoint>
          <Trackpoint>
            <Time>2020-12-05T10:49:50.000Z</Time>
            <Position>
              <LatitudeDegrees>36.83396545238792896270751953125</LatitudeDegrees>
              <LongitudeDegrees>-4.37702774070203304290771484375</LongitudeDegrees>
            </Position>
            <AltitudeMeters>644.20001220703125</AltitudeMeters>
            <DistanceMeters>NAN</DistanceMeters>
          </Trackpoint>
          <Trackpoint>
            <Time>2020-12-05T10:49:51.000Z</Time>
            <Position>
              <LatitudeDegrees>36.83395472355186939239501953125</LatitudeDegrees>
              <LongitudeDegrees>-4.3770175985991954803466796875</LongitudeDegrees>
            </Position>
            <AltitudeMeters>644.20001220703125</AltitudeMeters>
            <DistanceMeters>NAN</DistanceMeters>
          </Trackpoint>
          <Trackpoint>
            <Time>2020-12-05T10:49:52.000Z</Time>
            <Position>
              <LatitudeDegrees>36.83394365943968296051025390625</LatitudeDegrees>
              <LongitudeDegrees>-4.3770072050392627716064453125</LongitudeDegrees>
            </Position>
            <AltitudeMeters>644.20001220703125</AltitudeMeters>
            <DistanceMeters>NAN</DistanceMeters>
          </Trackpoint>
          <Trackpoint>
            <Time>2020-12-05T10:49:53.000Z</Time>
            <Position>
              <LatitudeDegrees>36.83393192477524280548095703125</LatitudeDegrees>
              <LongitudeDegrees>-4.37699723057448863983154296875</LongitudeDegrees>
            </Position>
            <AltitudeMeters>644.20001220703125</AltitudeMeters>
            <DistanceMeters>NAN</DistanceMeters>
          </Trackpoint>
          <Trackpoint>
            <Time>2020-12-05T10:49:54.000Z</Time>
            <Position>
              <LatitudeDegrees>36.83392052538692951202392578125</LatitudeDegrees>
              <LongitudeDegrees>-4.3769870884716510772705078125</LongitudeDegrees>
            </Position>
            <AltitudeMeters>644.4000244140625</AltitudeMeters>
            <DistanceMeters>NAN</DistanceMeters>
          </Trackpoint>
          <Trackpoint>
            <Time>2020-12-05T10:49:55.000Z</Time>
            <Position>
              <LatitudeDegrees>36.8339065276086330413818359375</LatitudeDegrees>
              <LongitudeDegrees>-4.37697644345462322235107421875</LongitudeDegrees>
            </Position>
            <AltitudeMeters>644.4000244140625</AltitudeMeters>
            <DistanceMeters>NAN</DistanceMeters>
          </Trackpoint>
          <Trackpoint>
            <Time>2020-12-05T10:49:56.000Z</Time>
            <Position>
              <LatitudeDegrees>36.8338921107351779937744140625</LatitudeDegrees>
              <LongitudeDegrees>-4.3769679777324199676513671875</LongitudeDegrees>
            </Position>
            <AltitudeMeters>644.20001220703125</AltitudeMeters>
            <DistanceMeters>NAN</DistanceMeters>
          </Trackpoint>
          <Trackpoint>
            <Time>2020-12-05T10:49:57.000Z</Time>
            <Position>
              <LatitudeDegrees>36.83387316763401031494140625</LatitudeDegrees>
              <LongitudeDegrees>-4.37695196829736232757568359375</LongitudeDegrees>
            </Position>
            <AltitudeMeters>643.79998779296875</AltitudeMeters>
            <DistanceMeters>NAN</DistanceMeters>
          </Trackpoint>
          <Trackpoint>
            <Time>2020-12-05T10:49:58.000Z</Time>
            <Position>
              <LatitudeDegrees>36.83385967276990413665771484375</LatitudeDegrees>
              <LongitudeDegrees>-4.37694735825061798095703125</LongitudeDegrees>
            </Position>
            <AltitudeMeters>643.4000244140625</AltitudeMeters>
            <DistanceMeters>NAN</DistanceMeters>
          </Trackpoint>
          <Trackpoint>
            <Time>2020-12-05T10:49:59.000Z</Time>
            <Position>
              <LatitudeDegrees>36.83385036885738372802734375</LatitudeDegrees>
              <LongitudeDegrees>-4.37694333493709564208984375</LongitudeDegrees>
            </Position>
            <AltitudeMeters>643</AltitudeMeters>
            <DistanceMeters>NAN</DistanceMeters>
          </Trackpoint>
          <Trackpoint>
            <Time>2020-12-05T10:50:00.000Z</Time>
            <Position>
              <LatitudeDegrees>36.8338411487638950347900390625</LatitudeDegrees>
              <LongitudeDegrees>-4.3769364617764949798583984375</LongitudeDegrees>
            </Position>
            <AltitudeMeters>642.79998779296875</AltitudeMeters>
            <DistanceMeters>NAN</DistanceMeters>
          </Trackpoint>
          <Trackpoint>
            <Time>2020-12-05T10:50:01.000Z</Time>
            <Position>
              <LatitudeDegrees>36.833833269774913787841796875</LatitudeDegrees>
              <LongitudeDegrees>-4.37692732550203800201416015625</LongitudeDegrees>
            </Position>
            <AltitudeMeters>642.5999755859375</AltitudeMeters>
            <DistanceMeters>NAN</DistanceMeters>
          </Trackpoint>
          <Trackpoint>
            <Time>2020-12-05T10:50:02.000Z</Time>
            <Position>
              <LatitudeDegrees>36.83382564224302768707275390625</LatitudeDegrees>
              <LongitudeDegrees>-4.376918189227581024169921875</LongitudeDegrees>
            </Position>
            <AltitudeMeters>642.4000244140625</AltitudeMeters>
            <DistanceMeters>NAN</DistanceMeters>
          </Trackpoint>
          <Trackpoint>
            <Time>2020-12-05T10:50:03.000Z</Time>
            <Position>
              <LatitudeDegrees>36.8338149972259998321533203125</LatitudeDegrees>
              <LongitudeDegrees>-4.3769086338579654693603515625</LongitudeDegrees>
            </Position>
            <AltitudeMeters>642.5999755859375</AltitudeMeters>
            <DistanceMeters>NAN</DistanceMeters>
          </Trackpoint>
          <Trackpoint>
            <Time>2020-12-05T10:50:04.000Z</Time>
            <Position>
              <LatitudeDegrees>36.83380083180963993072509765625</LatitudeDegrees>
              <LongitudeDegrees>-4.3768932111561298370361328125</LongitudeDegrees>
            </Position>
            <AltitudeMeters>642.5999755859375</AltitudeMeters>
            <DistanceMeters>NAN</DistanceMeters>
          </Trackpoint>
          <Trackpoint>
            <Time>2020-12-05T10:50:05.000Z</Time>
            <Position>
              <LatitudeDegrees>36.83379077352583408355712890625</LatitudeDegrees>
              <LongitudeDegrees>-4.376887343823909759521484375</LongitudeDegrees>
            </Position>
            <AltitudeMeters>642.5999755859375</AltitudeMeters>
            <DistanceMeters>NAN</DistanceMeters>
          </Trackpoint>
          <Trackpoint>
            <Time>2020-12-05T10:50:06.000Z</Time>
            <Position>
              <LatitudeDegrees>36.8337747640907764434814453125</LatitudeDegrees>
              <LongitudeDegrees>-4.37687334604561328887939453125</LongitudeDegrees>
            </Position>
            <AltitudeMeters>642.5999755859375</AltitudeMeters>
            <DistanceMeters>NAN</DistanceMeters>
          </Trackpoint>
          <Trackpoint>
            <Time>2020-12-05T10:50:07.000Z</Time>
            <Position>
              <LatitudeDegrees>36.83375875465571880340576171875</LatitudeDegrees>
              <LongitudeDegrees>-4.37686731107532978057861328125</LongitudeDegrees>
            </Position>
            <AltitudeMeters>642.79998779296875</AltitudeMeters>
            <DistanceMeters>NAN</DistanceMeters>
          </Trackpoint>
          <Trackpoint>
            <Time>2020-12-05T10:50:08.000Z</Time>
            <Position>
              <LatitudeDegrees>36.83374316431581974029541015625</LatitudeDegrees>
              <LongitudeDegrees>-4.37686529941856861114501953125</LongitudeDegrees>
            </Position>
            <AltitudeMeters>643</AltitudeMeters>
            <DistanceMeters>NAN</DistanceMeters>
          </Trackpoint>
          <Trackpoint>
            <Time>2020-12-05T10:50:09.000Z</Time>
            <Position>
              <LatitudeDegrees>36.83372941799461841583251953125</LatitudeDegrees>
              <LongitudeDegrees>-4.37685540877282619476318359375</LongitudeDegrees>
            </Position>
            <AltitudeMeters>643</AltitudeMeters>
            <DistanceMeters>NAN</DistanceMeters>
          </Trackpoint>
          <Trackpoint>
            <Time>2020-12-05T10:50:10.000Z</Time>
            <Position>
              <LatitudeDegrees>36.833716928958892822265625</LatitudeDegrees>
              <LongitudeDegrees>-4.37684602104127407073974609375</LongitudeDegrees>
            </Position>
            <AltitudeMeters>643.20001220703125</AltitudeMeters>
            <DistanceMeters>NAN</DistanceMeters>
          </Trackpoint>
          <Trackpoint>
            <Time>2020-12-05T10:50:11.000Z</Time>
            <Position>
              <LatitudeDegrees>36.8337016738951206207275390625</LatitudeDegrees>
              <LongitudeDegrees>-4.37683713622391223907470703125</LongitudeDegrees>
            </Position>
            <AltitudeMeters>643.20001220703125</AltitudeMeters>
            <DistanceMeters>NAN</DistanceMeters>
          </Trackpoint>
          <Trackpoint>
            <Time>2020-12-05T10:50:12.000Z</Time>
            <Position>
              <LatitudeDegrees>36.8336855806410312652587890625</LatitudeDegrees>
              <LongitudeDegrees>-4.37682590447366237640380859375</LongitudeDegrees>
            </Position>
            <AltitudeMeters>643.20001220703125</AltitudeMeters>
            <DistanceMeters>NAN</DistanceMeters>
          </Trackpoint>
          <Trackpoint>
            <Time>2020-12-05T10:50:13.000Z</Time>
            <Position>
              <LatitudeDegrees>36.833668649196624755859375</LatitudeDegrees>
              <LongitudeDegrees>-4.376815259456634521484375</LongitudeDegrees>
            </Position>
            <AltitudeMeters>643.20001220703125</AltitudeMeters>
            <DistanceMeters>NAN</DistanceMeters>
          </Trackpoint>
          <Trackpoint>
            <Time>2020-12-05T10:50:14.000Z</Time>
            <Position>
              <LatitudeDegrees>36.83365750126540660858154296875</LatitudeDegrees>
              <LongitudeDegrees>-4.37680779956281185150146484375</LongitudeDegrees>
            </Position>
            <AltitudeMeters>643.20001220703125</AltitudeMeters>
            <DistanceMeters>NAN</DistanceMeters>
          </Trackpoint>
          <Trackpoint>
            <Time>2020-12-05T10:50:15.000Z</Time>
            <Position>
              <LatitudeDegrees>36.8336483649909496307373046875</LatitudeDegrees>
              <LongitudeDegrees>-4.3768006749451160430908203125</LongitudeDegrees>
            </Position>
            <AltitudeMeters>643.4000244140625</AltitudeMeters>
            <DistanceMeters>NAN</DistanceMeters>
          </Trackpoint>
          <Trackpoint>
            <Time>2020-12-05T10:50:16.000Z</Time>
            <Position>
              <LatitudeDegrees>36.8336399830877780914306640625</LatitudeDegrees>
              <LongitudeDegrees>-4.37679455615580081939697265625</LongitudeDegrees>
            </Position>
            <AltitudeMeters>643.5999755859375</AltitudeMeters>
            <DistanceMeters>NAN</DistanceMeters>
          </Trackpoint>
          <Trackpoint>
            <Time>2020-12-05T10:50:17.000Z</Time>
            <Position>
              <LatitudeDegrees>36.83363151736557483673095703125</LatitudeDegrees>
              <LongitudeDegrees>-4.37678902409970760345458984375</LongitudeDegrees>
            </Position>
            <AltitudeMeters>644</AltitudeMeters>
            <DistanceMeters>NAN</DistanceMeters>
          </Trackpoint>
          <Trackpoint>
            <Time>2020-12-05T10:50:18.000Z</Time>
            <Position>
              <LatitudeDegrees>36.8336245603859424591064453125</LatitudeDegrees>
              <LongitudeDegrees>-4.376785419881343841552734375</LongitudeDegrees>
            </Position>
            <AltitudeMeters>644.4000244140625</AltitudeMeters>
            <DistanceMeters>NAN</DistanceMeters>
          </Trackpoint>
          <Trackpoint>
            <Time>2020-12-05T10:50:19.000Z</Time>
            <Position>
              <LatitudeDegrees>36.833616681396961212158203125</LatitudeDegrees>
              <LongitudeDegrees>-4.37678399495780467987060546875</LongitudeDegrees>
            </Position>
            <AltitudeMeters>644.5999755859375</AltitudeMeters>
            <DistanceMeters>NAN</DistanceMeters>
          </Trackpoint>
          <Trackpoint>
            <Time>2020-12-05T10:50:20.000Z</Time>
            <Position>
              <LatitudeDegrees>36.83361106552183628082275390625</LatitudeDegrees>
              <LongitudeDegrees>-4.376781396567821502685546875</LongitudeDegrees>
            </Position>
            <AltitudeMeters>644.79998779296875</AltitudeMeters>
            <DistanceMeters>NAN</DistanceMeters>
          </Trackpoint>
          <Trackpoint>
            <Time>2020-12-05T10:50:21.000Z</Time>
            <Position>
              <LatitudeDegrees>36.83360494673252105712890625</LatitudeDegrees>
              <LongitudeDegrees>-4.37677762471139430999755859375</LongitudeDegrees>
            </Position>
            <AltitudeMeters>645</AltitudeMeters>
            <DistanceMeters>NAN</DistanceMeters>
          </Trackpoint>
          <Trackpoint>
            <Time>2020-12-05T10:50:22.000Z</Time>
            <Position>
              <LatitudeDegrees>36.83359849266707897186279296875</LatitudeDegrees>
              <LongitudeDegrees>-4.37677435576915740966796875</LongitudeDegrees>
            </Position>
            <AltitudeMeters>645</AltitudeMeters>
            <DistanceMeters>NAN</DistanceMeters>
          </Trackpoint>
          <Trackpoint>
            <Time>2020-12-05T10:50:23.000Z</Time>
            <Position>
              <LatitudeDegrees>36.83359019458293914794921875</LatitudeDegrees>
              <LongitudeDegrees>-4.37677158974111080169677734375</LongitudeDegrees>
            </Position>
            <AltitudeMeters>644.79998779296875</AltitudeMeters>
            <DistanceMeters>NAN</DistanceMeters>
          </Trackpoint>
          <Trackpoint>
            <Time>2020-12-05T10:50:24.000Z</Time>
            <Position>
              <LatitudeDegrees>36.83358105830848217010498046875</LatitudeDegrees>
              <LongitudeDegrees>-4.376766644418239593505859375</LongitudeDegrees>
            </Position>
            <AltitudeMeters>644.79998779296875</AltitudeMeters>
            <DistanceMeters>NAN</DistanceMeters>
          </Trackpoint>
          <Trackpoint>
            <Time>2020-12-05T10:50:25.000Z</Time>
            <Position>
              <LatitudeDegrees>36.83357284404337406158447265625</LatitudeDegrees>
              <LongitudeDegrees>-4.3767574243247509002685546875</LongitudeDegrees>
            </Position>
            <AltitudeMeters>645</AltitudeMeters>
            <DistanceMeters>NAN</DistanceMeters>
          </Trackpoint>
          <Trackpoint>
            <Time>2020-12-05T10:50:26.000Z</Time>
            <Position>
              <LatitudeDegrees>36.83356898836791515350341796875</LatitudeDegrees>
              <LongitudeDegrees>-4.37675080262124538421630859375</LongitudeDegrees>
            </Position>
            <AltitudeMeters>645.20001220703125</AltitudeMeters>
            <DistanceMeters>NAN</DistanceMeters>
          </Trackpoint>
          <Trackpoint>
            <Time>2020-12-05T10:50:27.000Z</Time>
            <Position>
              <LatitudeDegrees>36.83356429450213909149169921875</LatitudeDegrees>
              <LongitudeDegrees>-4.37673973850905895233154296875</LongitudeDegrees>
            </Position>
            <AltitudeMeters>645.20001220703125</AltitudeMeters>
            <DistanceMeters>NAN</DistanceMeters>
          </Trackpoint>
          <Trackpoint>
            <Time>2020-12-05T10:50:28.000Z</Time>
            <Position>
              <LatitudeDegrees>36.83355800807476043701171875</LatitudeDegrees>
              <LongitudeDegrees>-4.37672817148268222808837890625</LongitudeDegrees>
            </Position>
            <AltitudeMeters>645</AltitudeMeters>
            <DistanceMeters>NAN</DistanceMeters>
          </Trackpoint>
          <Trackpoint>
            <Time>2020-12-05T10:50:29.000Z</Time>
            <Position>
              <LatitudeDegrees>36.83355004526674747467041015625</LatitudeDegrees>
              <LongitudeDegrees>-4.37671727500855922698974609375</LongitudeDegrees>
            </Position>
            <AltitudeMeters>645</AltitudeMeters>
            <DistanceMeters>NAN</DistanceMeters>
          </Trackpoint>
          <Trackpoint>
            <Time>2020-12-05T10:50:30.000Z</Time>
            <Position>
              <LatitudeDegrees>36.83354132808744907379150390625</LatitudeDegrees>
              <LongitudeDegrees>-4.37670872546732425689697265625</LongitudeDegrees>
            </Position>
            <AltitudeMeters>645</AltitudeMeters>
            <DistanceMeters>NAN</DistanceMeters>
          </Trackpoint>
          <Trackpoint>
            <Time>2020-12-05T10:50:31.000Z</Time>
            <Position>
              <LatitudeDegrees>36.833534203469753265380859375</LatitudeDegrees>
              <LongitudeDegrees>-4.37670118175446987152099609375</LongitudeDegrees>
            </Position>
            <AltitudeMeters>644.79998779296875</AltitudeMeters>
            <DistanceMeters>NAN</DistanceMeters>
          </Trackpoint>
          <Trackpoint>
            <Time>2020-12-05T10:50:32.000Z</Time>
            <Position>
              <LatitudeDegrees>36.8335276655852794647216796875</LatitudeDegrees>
              <LongitudeDegrees>-4.37669179402291774749755859375</LongitudeDegrees>
            </Position>
            <AltitudeMeters>644.5999755859375</AltitudeMeters>
            <DistanceMeters>NAN</DistanceMeters>
          </Trackpoint>
          <Trackpoint>
            <Time>2020-12-05T10:50:33.000Z</Time>
            <Position>
              <LatitudeDegrees>36.8335212953388690948486328125</LatitudeDegrees>
              <LongitudeDegrees>-4.37668156810104846954345703125</LongitudeDegrees>
            </Position>
            <AltitudeMeters>644.4000244140625</AltitudeMeters>
            <DistanceMeters>NAN</DistanceMeters>
          </Trackpoint>
          <Trackpoint>
            <Time>2020-12-05T10:50:34.000Z</Time>
            <Position>
              <LatitudeDegrees>36.8335144221782684326171875</LatitudeDegrees>
              <LongitudeDegrees>-4.37667318619787693023681640625</LongitudeDegrees>
            </Position>
            <AltitudeMeters>644.4000244140625</AltitudeMeters>
            <DistanceMeters>NAN</DistanceMeters>
          </Trackpoint>
          <Trackpoint>
            <Time>2020-12-05T10:50:35.000Z</Time>
            <Position>
              <LatitudeDegrees>36.83350595645606517791748046875</LatitudeDegrees>
              <LongitudeDegrees>-4.3766648881137371063232421875</LongitudeDegrees>
            </Position>
            <AltitudeMeters>644.4000244140625</AltitudeMeters>
            <DistanceMeters>NAN</DistanceMeters>
          </Trackpoint>
          <Trackpoint>
            <Time>2020-12-05T10:50:36.000Z</Time>
            <Position>
              <LatitudeDegrees>36.833496652543544769287109375</LatitudeDegrees>
              <LongitudeDegrees>-4.37665541656315326690673828125</LongitudeDegrees>
            </Position>
            <AltitudeMeters>644.4000244140625</AltitudeMeters>
            <DistanceMeters>NAN</DistanceMeters>
          </Trackpoint>
          <Trackpoint>
            <Time>2020-12-05T10:50:37.000Z</Time>
            <Position>
              <LatitudeDegrees>36.83348852209746837615966796875</LatitudeDegrees>
              <LongitudeDegrees>-4.37664753757417201995849609375</LongitudeDegrees>
            </Position>
            <AltitudeMeters>644.5999755859375</AltitudeMeters>
            <DistanceMeters>NAN</DistanceMeters>
          </Trackpoint>
          <Trackpoint>
            <Time>2020-12-05T10:50:38.000Z</Time>
            <Position>
              <LatitudeDegrees>36.83347913436591625213623046875</LatitudeDegrees>
              <LongitudeDegrees>-4.37663949094712734222412109375</LongitudeDegrees>
            </Position>
            <AltitudeMeters>644.5999755859375</AltitudeMeters>
            <DistanceMeters>NAN</DistanceMeters>
          </Trackpoint>
          <Trackpoint>
            <Time>2020-12-05T10:50:39.000Z</Time>
            <Position>
              <LatitudeDegrees>36.83347175829112529754638671875</LatitudeDegrees>
              <LongitudeDegrees>-4.3766293488442897796630859375</LongitudeDegrees>
            </Position>
            <AltitudeMeters>644.5999755859375</AltitudeMeters>
            <DistanceMeters>NAN</DistanceMeters>
          </Trackpoint>
          <Trackpoint>
            <Time>2020-12-05T10:50:40.000Z</Time>
            <Position>
              <LatitudeDegrees>36.8334642983973026275634765625</LatitudeDegrees>
              <LongitudeDegrees>-4.3766172789037227630615234375</LongitudeDegrees>
            </Position>
            <AltitudeMeters>644.5999755859375</AltitudeMeters>
            <DistanceMeters>NAN</DistanceMeters>
          </Trackpoint>
          <Trackpoint>
            <Time>2020-12-05T10:50:41.000Z</Time>
            <Position>
              <LatitudeDegrees>36.8334580957889556884765625</LatitudeDegrees>
              <LongitudeDegrees>-4.3766042031347751617431640625</LongitudeDegrees>
            </Position>
            <AltitudeMeters>644.79998779296875</AltitudeMeters>
            <DistanceMeters>NAN</DistanceMeters>
          </Trackpoint>
          <Trackpoint>
            <Time>2020-12-05T10:50:42.000Z</Time>
            <Position>
              <LatitudeDegrees>36.83345113880932331085205078125</LatitudeDegrees>
              <LongitudeDegrees>-4.3765931390225887298583984375</LongitudeDegrees>
            </Position>
            <AltitudeMeters>644.79998779296875</AltitudeMeters>
            <DistanceMeters>NAN</DistanceMeters>
          </Trackpoint>
          <Trackpoint>
            <Time>2020-12-05T10:50:43.000Z</Time>
            <Position>
              <LatitudeDegrees>36.8334418348968029022216796875</LatitudeDegrees>
              <LongitudeDegrees>-4.37658526003360748291015625</LongitudeDegrees>
            </Position>
            <AltitudeMeters>644.79998779296875</AltitudeMeters>
            <DistanceMeters>NAN</DistanceMeters>
          </Trackpoint>
          <Trackpoint>
            <Time>2020-12-05T10:50:44.000Z</Time>
            <Position>
              <LatitudeDegrees>36.83343286626040935516357421875</LatitudeDegrees>
              <LongitudeDegrees>-4.37657662667334079742431640625</LongitudeDegrees>
            </Position>
            <AltitudeMeters>644.79998779296875</AltitudeMeters>
            <DistanceMeters>NAN</DistanceMeters>
          </Trackpoint>
          <Trackpoint>
            <Time>2020-12-05T10:50:45.000Z</Time>
            <Position>
              <LatitudeDegrees>36.83342264033854007720947265625</LatitudeDegrees>
              <LongitudeDegrees>-4.37657008878886699676513671875</LongitudeDegrees>
            </Position>
            <AltitudeMeters>645</AltitudeMeters>
            <DistanceMeters>NAN</DistanceMeters>
          </Trackpoint>
          <Trackpoint>
            <Time>2020-12-05T10:50:46.000Z</Time>
            <Position>
              <LatitudeDegrees>36.833414845168590545654296875</LatitudeDegrees>
              <LongitudeDegrees>-4.37656304799020290374755859375</LongitudeDegrees>
            </Position>
            <AltitudeMeters>645.20001220703125</AltitudeMeters>
            <DistanceMeters>NAN</DistanceMeters>
          </Trackpoint>
          <Trackpoint>
            <Time>2020-12-05T10:50:47.000Z</Time>
            <Position>
              <LatitudeDegrees>36.833408139646053314208984375</LatitudeDegrees>
              <LongitudeDegrees>-4.37655307352542877197265625</LongitudeDegrees>
            </Position>
            <AltitudeMeters>645.4000244140625</AltitudeMeters>
            <DistanceMeters>NAN</DistanceMeters>
          </Trackpoint>
          <Trackpoint>
            <Time>2020-12-05T10:50:48.000Z</Time>
            <Position>
              <LatitudeDegrees>36.83340109884738922119140625</LatitudeDegrees>
              <LongitudeDegrees>-4.37654293142259120941162109375</LongitudeDegrees>
            </Position>
            <AltitudeMeters>645.5999755859375</AltitudeMeters>
            <DistanceMeters>NAN</DistanceMeters>
          </Trackpoint>
          <Trackpoint>
            <Time>2020-12-05T10:50:49.000Z</Time>
            <Position>
              <LatitudeDegrees>36.833394058048725128173828125</LatitudeDegrees>
              <LongitudeDegrees>-4.37653019092977046966552734375</LongitudeDegrees>
            </Position>
            <AltitudeMeters>645.79998779296875</AltitudeMeters>
            <DistanceMeters>NAN</DistanceMeters>
          </Trackpoint>
          <Trackpoint>
            <Time>2020-12-05T10:50:50.000Z</Time>
            <Position>
              <LatitudeDegrees>36.833382658660411834716796875</LatitudeDegrees>
              <LongitudeDegrees>-4.3765156902372837066650390625</LongitudeDegrees>
            </Position>
            <AltitudeMeters>646</AltitudeMeters>
            <DistanceMeters>NAN</DistanceMeters>
          </Trackpoint>
          <Trackpoint>
            <Time>2020-12-05T10:50:51.000Z</Time>
            <Position>
              <LatitudeDegrees>36.83337184600532054901123046875</LatitudeDegrees>
              <LongitudeDegrees>-4.376504458487033843994140625</LongitudeDegrees>
            </Position>
            <AltitudeMeters>646.20001220703125</AltitudeMeters>
            <DistanceMeters>NAN</DistanceMeters>
          </Trackpoint>
          <Trackpoint>
            <Time>2020-12-05T10:50:52.000Z</Time>
            <Position>
              <LatitudeDegrees>36.8333583511412143707275390625</LatitudeDegrees>
              <LongitudeDegrees>-4.37648962251842021942138671875</LongitudeDegrees>
            </Position>
            <AltitudeMeters>646.20001220703125</AltitudeMeters>
            <DistanceMeters>NAN</DistanceMeters>
          </Trackpoint>
          <Trackpoint>
            <Time>2020-12-05T10:50:53.000Z</Time>
            <Position>
              <LatitudeDegrees>36.83334535919129848480224609375</LatitudeDegrees>
              <LongitudeDegrees>-4.37648107297718524932861328125</LongitudeDegrees>
            </Position>
            <AltitudeMeters>646.4000244140625</AltitudeMeters>
            <DistanceMeters>NAN</DistanceMeters>
          </Trackpoint>
          <Trackpoint>
            <Time>2020-12-05T10:50:54.000Z</Time>
            <Position>
              <LatitudeDegrees>36.83333446271717548370361328125</LatitudeDegrees>
              <LongitudeDegrees>-4.37647101469337940216064453125</LongitudeDegrees>
            </Position>
            <AltitudeMeters>646.4000244140625</AltitudeMeters>
            <DistanceMeters>NAN</DistanceMeters>
          </Trackpoint>
          <Trackpoint>
            <Time>2020-12-05T10:50:55.000Z</Time>
            <Position>
              <LatitudeDegrees>36.833325661718845367431640625</LatitudeDegrees>
              <LongitudeDegrees>-4.376462213695049285888671875</LongitudeDegrees>
            </Position>
            <AltitudeMeters>646.4000244140625</AltitudeMeters>
            <DistanceMeters>NAN</DistanceMeters>
          </Trackpoint>
          <Trackpoint>
            <Time>2020-12-05T10:50:56.000Z</Time>
            <Position>
              <LatitudeDegrees>36.8333164416253566741943359375</LatitudeDegrees>
              <LongitudeDegrees>-4.37645609490573406219482421875</LongitudeDegrees>
            </Position>
            <AltitudeMeters>646.5999755859375</AltitudeMeters>
            <DistanceMeters>NAN</DistanceMeters>
          </Trackpoint>
          <Trackpoint>
            <Time>2020-12-05T10:50:57.000Z</Time>
            <Position>
              <LatitudeDegrees>36.833308227360248565673828125</LatitudeDegrees>
              <LongitudeDegrees>-4.376451484858989715576171875</LongitudeDegrees>
            </Position>
            <AltitudeMeters>646.5999755859375</AltitudeMeters>
            <DistanceMeters>NAN</DistanceMeters>
          </Trackpoint>
          <Trackpoint>
            <Time>2020-12-05T10:50:58.000Z</Time>
            <Position>
              <LatitudeDegrees>36.8333026953041553497314453125</LatitudeDegrees>
              <LongitudeDegrees>-4.37644486315548419952392578125</LongitudeDegrees>
            </Position>
            <AltitudeMeters>646.5999755859375</AltitudeMeters>
            <DistanceMeters>NAN</DistanceMeters>
          </Trackpoint>
          <Trackpoint>
            <Time>2020-12-05T10:50:59.000Z</Time>
            <Position>
              <LatitudeDegrees>36.83329649269580841064453125</LatitudeDegrees>
              <LongitudeDegrees>-4.37643782235682010650634765625</LongitudeDegrees>
            </Position>
            <AltitudeMeters>646.79998779296875</AltitudeMeters>
            <DistanceMeters>NAN</DistanceMeters>
          </Trackpoint>
          <Trackpoint>
            <Time>2020-12-05T10:51:00.000Z</Time>
            <Position>
              <LatitudeDegrees>36.83329070918262004852294921875</LatitudeDegrees>
              <LongitudeDegrees>-4.37643111683428287506103515625</LongitudeDegrees>
            </Position>
            <AltitudeMeters>646.79998779296875</AltitudeMeters>
            <DistanceMeters>NAN</DistanceMeters>
          </Trackpoint>
          <Trackpoint>
            <Time>2020-12-05T10:51:01.000Z</Time>
            <Position>
              <LatitudeDegrees>36.83328467421233654022216796875</LatitudeDegrees>
              <LongitudeDegrees>-4.376423656940460205078125</LongitudeDegrees>
            </Position>
            <AltitudeMeters>646.79998779296875</AltitudeMeters>
            <DistanceMeters>NAN</DistanceMeters>
          </Trackpoint>
          <Trackpoint>
            <Time>2020-12-05T10:51:02.000Z</Time>
            <Position>
              <LatitudeDegrees>36.83327947743237018585205078125</LatitudeDegrees>
              <LongitudeDegrees>-4.37641628086566925048828125</LongitudeDegrees>
            </Position>
            <AltitudeMeters>646.79998779296875</AltitudeMeters>
            <DistanceMeters>NAN</DistanceMeters>
          </Trackpoint>
          <Trackpoint>
            <Time>2020-12-05T10:51:03.000Z</Time>
            <Position>
              <LatitudeDegrees>36.8332725204527378082275390625</LatitudeDegrees>
              <LongitudeDegrees>-4.376407898962497711181640625</LongitudeDegrees>
            </Position>
            <AltitudeMeters>647</AltitudeMeters>
            <DistanceMeters>NAN</DistanceMeters>
          </Trackpoint>
          <Trackpoint>
            <Time>2020-12-05T10:51:04.000Z</Time>
            <Position>
              <LatitudeDegrees>36.83326254598796367645263671875</LatitudeDegrees>
              <LongitudeDegrees>-4.37639809213578701019287109375</LongitudeDegrees>
            </Position>
            <AltitudeMeters>647</AltitudeMeters>
            <DistanceMeters>NAN</DistanceMeters>
          </Trackpoint>
          <Trackpoint>
            <Time>2020-12-05T10:51:05.000Z</Time>
            <Position>
              <LatitudeDegrees>36.8332517333328723907470703125</LatitudeDegrees>
              <LongitudeDegrees>-4.37638677656650543212890625</LongitudeDegrees>
            </Position>
            <AltitudeMeters>647</AltitudeMeters>
            <DistanceMeters>NAN</DistanceMeters>
          </Trackpoint>
          <Trackpoint>
            <Time>2020-12-05T10:51:06.000Z</Time>
            <Position>
              <LatitudeDegrees>36.8332396633923053741455078125</LatitudeDegrees>
              <LongitudeDegrees>-4.3763745389878749847412109375</LongitudeDegrees>
            </Position>
            <AltitudeMeters>647</AltitudeMeters>
            <DistanceMeters>NAN</DistanceMeters>
          </Trackpoint>
          <Trackpoint>
            <Time>2020-12-05T10:51:07.000Z</Time>
            <Position>
              <LatitudeDegrees>36.8332279287278652191162109375</LatitudeDegrees>
              <LongitudeDegrees>-4.376363642513751983642578125</LongitudeDegrees>
            </Position>
            <AltitudeMeters>647.20001220703125</AltitudeMeters>
            <DistanceMeters>NAN</DistanceMeters>
          </Trackpoint>
          <Trackpoint>
            <Time>2020-12-05T10:51:08.000Z</Time>
            <Position>
              <LatitudeDegrees>36.83322004973888397216796875</LatitudeDegrees>
              <LongitudeDegrees>-4.3763527460396289825439453125</LongitudeDegrees>
            </Position>
            <AltitudeMeters>647.4000244140625</AltitudeMeters>
            <DistanceMeters>NAN</DistanceMeters>
          </Trackpoint>
          <Trackpoint>
            <Time>2020-12-05T10:51:09.000Z</Time>
            <Position>
              <LatitudeDegrees>36.83321309275925159454345703125</LatitudeDegrees>
              <LongitudeDegrees>-4.3763416819274425506591796875</LongitudeDegrees>
            </Position>
            <AltitudeMeters>647.4000244140625</AltitudeMeters>
            <DistanceMeters>NAN</DistanceMeters>
          </Trackpoint>
          <Trackpoint>
            <Time>2020-12-05T10:51:10.000Z</Time>
            <Position>
              <LatitudeDegrees>36.8332051299512386322021484375</LatitudeDegrees>
              <LongitudeDegrees>-4.3763302825391292572021484375</LongitudeDegrees>
            </Position>
            <AltitudeMeters>647.5999755859375</AltitudeMeters>
            <DistanceMeters>NAN</DistanceMeters>
          </Trackpoint>
          <Trackpoint>
            <Time>2020-12-05T10:51:11.000Z</Time>
            <Position>
              <LatitudeDegrees>36.83319750241935253143310546875</LatitudeDegrees>
              <LongitudeDegrees>-4.37632164917886257171630859375</LongitudeDegrees>
            </Position>
            <AltitudeMeters>647.5999755859375</AltitudeMeters>
            <DistanceMeters>NAN</DistanceMeters>
          </Trackpoint>
          <Trackpoint>
            <Time>2020-12-05T10:51:12.000Z</Time>
            <Position>
              <LatitudeDegrees>36.833188533782958984375</LatitudeDegrees>
              <LongitudeDegrees>-4.376312009990215301513671875</LongitudeDegrees>
            </Position>
            <AltitudeMeters>647.79998779296875</AltitudeMeters>
            <DistanceMeters>NAN</DistanceMeters>
          </Trackpoint>
          <Trackpoint>
            <Time>2020-12-05T10:51:13.000Z</Time>
            <Position>
              <LatitudeDegrees>36.83317688293755054473876953125</LatitudeDegrees>
              <LongitudeDegrees>-4.37630471773445606231689453125</LongitudeDegrees>
            </Position>
            <AltitudeMeters>647.79998779296875</AltitudeMeters>
            <DistanceMeters>NAN</DistanceMeters>
          </Trackpoint>
          <Trackpoint>
            <Time>2020-12-05T10:51:14.000Z</Time>
            <Position>
              <LatitudeDegrees>36.833168081939220428466796875</LatitudeDegrees>
              <LongitudeDegrees>-4.3762997724115848541259765625</LongitudeDegrees>
            </Position>
            <AltitudeMeters>647.79998779296875</AltitudeMeters>
            <DistanceMeters>NAN</DistanceMeters>
          </Trackpoint>
          <Trackpoint>
            <Time>2020-12-05T10:51:15.000Z</Time>
            <Position>
              <LatitudeDegrees>36.83315978385508060455322265625</LatitudeDegrees>
              <LongitudeDegrees>-4.37629717402160167694091796875</LongitudeDegrees>
            </Position>
            <AltitudeMeters>647.79998779296875</AltitudeMeters>
            <DistanceMeters>NAN</DistanceMeters>
          </Trackpoint>
          <Trackpoint>
            <Time>2020-12-05T10:51:16.000Z</Time>
            <Position>
              <LatitudeDegrees>36.8331498093903064727783203125</LatitudeDegrees>
              <LongitudeDegrees>-4.37629700638353824615478515625</LongitudeDegrees>
            </Position>
            <AltitudeMeters>648.20001220703125</AltitudeMeters>
            <DistanceMeters>NAN</DistanceMeters>
          </Trackpoint>
          <Trackpoint>
            <Time>2020-12-05T10:51:17.000Z</Time>
            <Position>
              <LatitudeDegrees>36.83313698507845401763916015625</LatitudeDegrees>
              <LongitudeDegrees>-4.376296587288379669189453125</LongitudeDegrees>
            </Position>
            <AltitudeMeters>648.20001220703125</AltitudeMeters>
            <DistanceMeters>NAN</DistanceMeters>
          </Trackpoint>
          <Trackpoint>
            <Time>2020-12-05T10:51:18.000Z</Time>
            <Position>
              <LatitudeDegrees>36.83312307111918926239013671875</LatitudeDegrees>
              <LongitudeDegrees>-4.3762890435755252838134765625</LongitudeDegrees>
            </Position>
            <AltitudeMeters>648.4000244140625</AltitudeMeters>
            <DistanceMeters>NAN</DistanceMeters>
          </Trackpoint>
          <Trackpoint>
            <Time>2020-12-05T10:51:19.000Z</Time>
            <Position>
              <LatitudeDegrees>36.83310882188379764556884765625</LatitudeDegrees>
              <LongitudeDegrees>-4.3762823380529880523681640625</LongitudeDegrees>
            </Position>
            <AltitudeMeters>648.5999755859375</AltitudeMeters>
            <DistanceMeters>NAN</DistanceMeters>
          </Trackpoint>
          <Trackpoint>
            <Time>2020-12-05T10:51:20.000Z</Time>
            <Position>
              <LatitudeDegrees>36.833098344504833221435546875</LatitudeDegrees>
              <LongitudeDegrees>-4.3762739561498165130615234375</LongitudeDegrees>
            </Position>
            <AltitudeMeters>648.79998779296875</AltitudeMeters>
            <DistanceMeters>NAN</DistanceMeters>
          </Trackpoint>
          <Trackpoint>
            <Time>2020-12-05T10:51:21.000Z</Time>
            <Position>
              <LatitudeDegrees>36.83308987878262996673583984375</LatitudeDegrees>
              <LongitudeDegrees>-4.3762652389705181121826171875</LongitudeDegrees>
            </Position>
            <AltitudeMeters>648.79998779296875</AltitudeMeters>
            <DistanceMeters>NAN</DistanceMeters>
          </Trackpoint>
          <Trackpoint>
            <Time>2020-12-05T10:51:22.000Z</Time>
            <Position>
              <LatitudeDegrees>36.8330837599933147430419921875</LatitudeDegrees>
              <LongitudeDegrees>-4.37625509686768054962158203125</LongitudeDegrees>
            </Position>
            <AltitudeMeters>648.79998779296875</AltitudeMeters>
            <DistanceMeters>NAN</DistanceMeters>
          </Trackpoint>
          <Trackpoint>
            <Time>2020-12-05T10:51:23.000Z</Time>
            <Position>
              <LatitudeDegrees>36.83307898230850696563720703125</LatitudeDegrees>
              <LongitudeDegrees>-4.3762461282312870025634765625</LongitudeDegrees>
            </Position>
            <AltitudeMeters>648.79998779296875</AltitudeMeters>
            <DistanceMeters>NAN</DistanceMeters>
          </Trackpoint>
          <Trackpoint>
            <Time>2020-12-05T10:51:24.000Z</Time>
            <Position>
              <LatitudeDegrees>36.833074204623699188232421875</LatitudeDegrees>
              <LongitudeDegrees>-4.376236237585544586181640625</LongitudeDegrees>
            </Position>
            <AltitudeMeters>648.79998779296875</AltitudeMeters>
            <DistanceMeters>NAN</DistanceMeters>
          </Trackpoint>
          <Trackpoint>
            <Time>2020-12-05T10:51:25.000Z</Time>
            <Position>
              <LatitudeDegrees>36.83306858874857425689697265625</LatitudeDegrees>
              <LongitudeDegrees>-4.3762256763875484466552734375</LongitudeDegrees>
            </Position>
            <AltitudeMeters>648.79998779296875</AltitudeMeters>
            <DistanceMeters>NAN</DistanceMeters>
          </Trackpoint>
          <Trackpoint>
            <Time>2020-12-05T10:51:26.000Z</Time>
            <Position>
              <LatitudeDegrees>36.83306045830249786376953125</LatitudeDegrees>
              <LongitudeDegrees>-4.3762162886559963226318359375</LongitudeDegrees>
            </Position>
            <AltitudeMeters>648.79998779296875</AltitudeMeters>
            <DistanceMeters>NAN</DistanceMeters>
          </Trackpoint>
          <Trackpoint>
            <Time>2020-12-05T10:51:27.000Z</Time>
            <Position>
              <LatitudeDegrees>36.83305618353188037872314453125</LatitudeDegrees>
              <LongitudeDegrees>-4.3762055598199367523193359375</LongitudeDegrees>
            </Position>
            <AltitudeMeters>648.79998779296875</AltitudeMeters>
            <DistanceMeters>NAN</DistanceMeters>
          </Trackpoint>
          <Trackpoint>
            <Time>2020-12-05T10:51:28.000Z</Time>
            <Position>
              <LatitudeDegrees>36.833052076399326324462890625</LatitudeDegrees>
              <LongitudeDegrees>-4.37619742937386035919189453125</LongitudeDegrees>
            </Position>
            <AltitudeMeters>648.5999755859375</AltitudeMeters>
            <DistanceMeters>NAN</DistanceMeters>
          </Trackpoint>
          <Trackpoint>
            <Time>2020-12-05T10:51:29.000Z</Time>
            <Position>
              <LatitudeDegrees>36.83304478414356708526611328125</LatitudeDegrees>
              <LongitudeDegrees>-4.3761911429464817047119140625</LongitudeDegrees>
            </Position>
            <AltitudeMeters>648.79998779296875</AltitudeMeters>
            <DistanceMeters>NAN</DistanceMeters>
          </Trackpoint>
          <Trackpoint>
            <Time>2020-12-05T10:51:30.000Z</Time>
            <Position>
              <LatitudeDegrees>36.83303900063037872314453125</LatitudeDegrees>
              <LongitudeDegrees>-4.37619499862194061279296875</LongitudeDegrees>
            </Position>
            <AltitudeMeters>649</AltitudeMeters>
            <DistanceMeters>NAN</DistanceMeters>
          </Trackpoint>
          <Trackpoint>
            <Time>2020-12-05T10:51:31.000Z</Time>
            <Position>
              <LatitudeDegrees>36.83302852325141429901123046875</LatitudeDegrees>
              <LongitudeDegrees>-4.37618971802294254302978515625</LongitudeDegrees>
            </Position>
            <AltitudeMeters>649.20001220703125</AltitudeMeters>
            <DistanceMeters>NAN</DistanceMeters>
          </Trackpoint>
          <Trackpoint>
            <Time>2020-12-05T10:51:32.000Z</Time>
            <Position>
              <LatitudeDegrees>36.83302081190049648284912109375</LatitudeDegrees>
              <LongitudeDegrees>-4.3761804141104221343994140625</LongitudeDegrees>
            </Position>
            <AltitudeMeters>649.4000244140625</AltitudeMeters>
            <DistanceMeters>NAN</DistanceMeters>
          </Trackpoint>
          <Trackpoint>
            <Time>2020-12-05T10:51:33.000Z</Time>
            <Position>
              <LatitudeDegrees>36.83301310054957866668701171875</LatitudeDegrees>
              <LongitudeDegrees>-4.37616742216050624847412109375</LongitudeDegrees>
            </Position>
            <AltitudeMeters>649.4000244140625</AltitudeMeters>
            <DistanceMeters>NAN</DistanceMeters>
          </Trackpoint>
          <Trackpoint>
            <Time>2020-12-05T10:51:34.000Z</Time>
            <Position>
              <LatitudeDegrees>36.8330061435699462890625</LatitudeDegrees>
              <LongitudeDegrees>-4.37615367583930492401123046875</LongitudeDegrees>
            </Position>
            <AltitudeMeters>649.4000244140625</AltitudeMeters>
            <DistanceMeters>NAN</DistanceMeters>
          </Trackpoint>
          <Trackpoint>
            <Time>2020-12-05T10:51:35.000Z</Time>
            <Position>
              <LatitudeDegrees>36.8330019526183605194091796875</LatitudeDegrees>
              <LongitudeDegrees>-4.37614001333713531494140625</LongitudeDegrees>
            </Position>
            <AltitudeMeters>649.4000244140625</AltitudeMeters>
            <DistanceMeters>NAN</DistanceMeters>
          </Trackpoint>
          <Trackpoint>
            <Time>2020-12-05T10:51:36.000Z</Time>
            <Position>
              <LatitudeDegrees>36.83299767784774303436279296875</LatitudeDegrees>
              <LongitudeDegrees>-4.37612668611109256744384765625</LongitudeDegrees>
            </Position>
            <AltitudeMeters>649.4000244140625</AltitudeMeters>
            <DistanceMeters>NAN</DistanceMeters>
          </Trackpoint>
          <Trackpoint>
            <Time>2020-12-05T10:51:37.000Z</Time>
            <Position>
              <LatitudeDegrees>36.8329922296106815338134765625</LatitudeDegrees>
              <LongitudeDegrees>-4.37611411325633525848388671875</LongitudeDegrees>
            </Position>
            <AltitudeMeters>649.4000244140625</AltitudeMeters>
            <DistanceMeters>NAN</DistanceMeters>
          </Trackpoint>
          <Trackpoint>
            <Time>2020-12-05T10:51:38.000Z</Time>
            <Position>
              <LatitudeDegrees>36.83298644609749317169189453125</LatitudeDegrees>
              <LongitudeDegrees>-4.3761036358773708343505859375</LongitudeDegrees>
            </Position>
            <AltitudeMeters>649.4000244140625</AltitudeMeters>
            <DistanceMeters>NAN</DistanceMeters>
          </Trackpoint>
          <Trackpoint>
            <Time>2020-12-05T10:51:39.000Z</Time>
            <Position>
              <LatitudeDegrees>36.83298208750784397125244140625</LatitudeDegrees>
              <LongitudeDegrees>-4.37609349377453327178955078125</LongitudeDegrees>
            </Position>
            <AltitudeMeters>649.4000244140625</AltitudeMeters>
            <DistanceMeters>NAN</DistanceMeters>
          </Trackpoint>
          <Trackpoint>
            <Time>2020-12-05T10:51:40.000Z</Time>
            <Position>
              <LatitudeDegrees>36.8329779803752899169921875</LatitudeDegrees>
              <LongitudeDegrees>-4.37608393840491771697998046875</LongitudeDegrees>
            </Position>
            <AltitudeMeters>649.4000244140625</AltitudeMeters>
            <DistanceMeters>NAN</DistanceMeters>
          </Trackpoint>
          <Trackpoint>
            <Time>2020-12-05T10:51:41.000Z</Time>
            <Position>
              <LatitudeDegrees>36.83297538198530673980712890625</LatitudeDegrees>
              <LongitudeDegrees>-4.3760761432349681854248046875</LongitudeDegrees>
            </Position>
            <AltitudeMeters>649.4000244140625</AltitudeMeters>
            <DistanceMeters>NAN</DistanceMeters>
          </Trackpoint>
          <Trackpoint>
            <Time>2020-12-05T10:51:42.000Z</Time>
            <Position>
              <LatitudeDegrees>36.83297052048146724700927734375</LatitudeDegrees>
              <LongitudeDegrees>-4.37606625258922576904296875</LongitudeDegrees>
            </Position>
            <AltitudeMeters>649.4000244140625</AltitudeMeters>
            <DistanceMeters>NAN</DistanceMeters>
          </Trackpoint>
          <Trackpoint>
            <Time>2020-12-05T10:51:43.000Z</Time>
            <Position>
              <LatitudeDegrees>36.83296482078731060028076171875</LatitudeDegrees>
              <LongitudeDegrees>-4.37605543993413448333740234375</LongitudeDegrees>
            </Position>
            <AltitudeMeters>649.4000244140625</AltitudeMeters>
            <DistanceMeters>NAN</DistanceMeters>
          </Trackpoint>
          <Trackpoint>
            <Time>2020-12-05T10:51:44.000Z</Time>
            <Position>
              <LatitudeDegrees>36.8329592049121856689453125</LatitudeDegrees>
              <LongitudeDegrees>-4.376043118536472320556640625</LongitudeDegrees>
            </Position>
            <AltitudeMeters>649.4000244140625</AltitudeMeters>
            <DistanceMeters>NAN</DistanceMeters>
          </Trackpoint>
          <Trackpoint>
            <Time>2020-12-05T10:51:45.000Z</Time>
            <Position>
              <LatitudeDegrees>36.83295342139899730682373046875</LatitudeDegrees>
              <LongitudeDegrees>-4.3760295398533344268798828125</LongitudeDegrees>
            </Position>
            <AltitudeMeters>649.4000244140625</AltitudeMeters>
            <DistanceMeters>NAN</DistanceMeters>
          </Trackpoint>
          <Trackpoint>
            <Time>2020-12-05T10:51:46.000Z</Time>
            <Position>
              <LatitudeDegrees>36.83294923044741153717041015625</LatitudeDegrees>
              <LongitudeDegrees>-4.3760178051888942718505859375</LongitudeDegrees>
            </Position>
            <AltitudeMeters>649.4000244140625</AltitudeMeters>
            <DistanceMeters>NAN</DistanceMeters>
          </Trackpoint>
          <Trackpoint>
            <Time>2020-12-05T10:51:47.000Z</Time>
            <Position>
              <LatitudeDegrees>36.8329469673335552215576171875</LatitudeDegrees>
              <LongitudeDegrees>-4.37600724399089813232421875</LongitudeDegrees>
            </Position>
            <AltitudeMeters>649.4000244140625</AltitudeMeters>
            <DistanceMeters>NAN</DistanceMeters>
          </Trackpoint>
          <Trackpoint>
            <Time>2020-12-05T10:51:48.000Z</Time>
            <Position>
              <LatitudeDegrees>36.83294520713388919830322265625</LatitudeDegrees>
              <LongitudeDegrees>-4.37599609605967998504638671875</LongitudeDegrees>
            </Position>
            <AltitudeMeters>649.4000244140625</AltitudeMeters>
            <DistanceMeters>NAN</DistanceMeters>
          </Trackpoint>
          <Trackpoint>
            <Time>2020-12-05T10:51:49.000Z</Time>
            <Position>
              <LatitudeDegrees>36.83294587768614292144775390625</LatitudeDegrees>
              <LongitudeDegrees>-4.37598536722362041473388671875</LongitudeDegrees>
            </Position>
            <AltitudeMeters>649.20001220703125</AltitudeMeters>
            <DistanceMeters>NAN</DistanceMeters>
          </Trackpoint>
          <Trackpoint>
            <Time>2020-12-05T10:51:50.000Z</Time>
            <Position>
              <LatitudeDegrees>36.8329452909529209136962890625</LatitudeDegrees>
              <LongitudeDegrees>-4.37597329728305339813232421875</LongitudeDegrees>
            </Position>
            <AltitudeMeters>649.20001220703125</AltitudeMeters>
            <DistanceMeters>NAN</DistanceMeters>
          </Trackpoint>
          <Trackpoint>
            <Time>2020-12-05T10:51:51.000Z</Time>
            <Position>
              <LatitudeDegrees>36.83294621296226978302001953125</LatitudeDegrees>
              <LongitudeDegrees>-4.37596022151410579681396484375</LongitudeDegrees>
            </Position>
            <AltitudeMeters>649.20001220703125</AltitudeMeters>
            <DistanceMeters>NAN</DistanceMeters>
          </Trackpoint>
          <Trackpoint>
            <Time>2020-12-05T10:51:52.000Z</Time>
            <Position>
              <LatitudeDegrees>36.83294956572353839874267578125</LatitudeDegrees>
              <LongitudeDegrees>-4.37594446353614330291748046875</LongitudeDegrees>
            </Position>
            <AltitudeMeters>649.20001220703125</AltitudeMeters>
            <DistanceMeters>NAN</DistanceMeters>
          </Trackpoint>
          <Trackpoint>
            <Time>2020-12-05T10:51:53.000Z</Time>
            <Position>
              <LatitudeDegrees>36.83294755406677722930908203125</LatitudeDegrees>
              <LongitudeDegrees>-4.375927448272705078125</LongitudeDegrees>
            </Position>
            <AltitudeMeters>649.20001220703125</AltitudeMeters>
            <DistanceMeters>NAN</DistanceMeters>
          </Trackpoint>
          <Trackpoint>
            <Time>2020-12-05T10:51:54.000Z</Time>
            <Position>
              <LatitudeDegrees>36.8329429440200328826904296875</LatitudeDegrees>
              <LongitudeDegrees>-4.3759126961231231689453125</LongitudeDegrees>
            </Position>
            <AltitudeMeters>649.20001220703125</AltitudeMeters>
            <DistanceMeters>NAN</DistanceMeters>
          </Trackpoint>
          <Trackpoint>
            <Time>2020-12-05T10:51:55.000Z</Time>
            <Position>
              <LatitudeDegrees>36.83293866924941539764404296875</LatitudeDegrees>
              <LongitudeDegrees>-4.37589886598289012908935546875</LongitudeDegrees>
            </Position>
            <AltitudeMeters>649.20001220703125</AltitudeMeters>
            <DistanceMeters>NAN</DistanceMeters>
          </Trackpoint>
          <Trackpoint>
            <Time>2020-12-05T10:51:56.000Z</Time>
            <Position>
              <LatitudeDegrees>36.832935400307178497314453125</LatitudeDegrees>
              <LongitudeDegrees>-4.37588243745267391204833984375</LongitudeDegrees>
            </Position>
            <AltitudeMeters>649.20001220703125</AltitudeMeters>
            <DistanceMeters>NAN</DistanceMeters>
          </Trackpoint>
          <Trackpoint>
            <Time>2020-12-05T10:51:57.000Z</Time>
            <Position>
              <LatitudeDegrees>36.8329338915646076202392578125</LatitudeDegrees>
              <LongitudeDegrees>-4.37586248852312564849853515625</LongitudeDegrees>
            </Position>
            <AltitudeMeters>649.20001220703125</AltitudeMeters>
            <DistanceMeters>NAN</DistanceMeters>
          </Trackpoint>
          <Trackpoint>
            <Time>2020-12-05T10:51:58.000Z</Time>
            <Position>
              <LatitudeDegrees>36.83293045498430728912353515625</LatitudeDegrees>
              <LongitudeDegrees>-4.37584404833614826202392578125</LongitudeDegrees>
            </Position>
            <AltitudeMeters>649.4000244140625</AltitudeMeters>
            <DistanceMeters>NAN</DistanceMeters>
          </Trackpoint>
          <Trackpoint>
            <Time>2020-12-05T10:51:59.000Z</Time>
            <Position>
              <LatitudeDegrees>36.832925342023372650146484375</LatitudeDegrees>
              <LongitudeDegrees>-4.37582443468272686004638671875</LongitudeDegrees>
            </Position>
            <AltitudeMeters>649.5999755859375</AltitudeMeters>
            <DistanceMeters>NAN</DistanceMeters>
          </Trackpoint>
          <Trackpoint>
            <Time>2020-12-05T10:52:00.000Z</Time>
            <Position>
              <LatitudeDegrees>36.83292073197662830352783203125</LatitudeDegrees>
              <LongitudeDegrees>-4.37581479549407958984375</LongitudeDegrees>
            </Position>
            <AltitudeMeters>649.5999755859375</AltitudeMeters>
            <DistanceMeters>NAN</DistanceMeters>
          </Trackpoint>
          <Trackpoint>
            <Time>2020-12-05T10:52:01.000Z</Time>
            <Position>
              <LatitudeDegrees>36.83291469700634479522705078125</LatitudeDegrees>
              <LongitudeDegrees>-4.37580901198089122772216796875</LongitudeDegrees>
            </Position>
            <AltitudeMeters>649.79998779296875</AltitudeMeters>
            <DistanceMeters>NAN</DistanceMeters>
          </Trackpoint>
          <Trackpoint>
            <Time>2020-12-05T10:52:02.000Z</Time>
            <Position>
              <LatitudeDegrees>36.83290891349315643310546875</LatitudeDegrees>
              <LongitudeDegrees>-4.37580096535384654998779296875</LongitudeDegrees>
            </Position>
            <AltitudeMeters>650</AltitudeMeters>
            <DistanceMeters>NAN</DistanceMeters>
          </Trackpoint>
          <Trackpoint>
            <Time>2020-12-05T10:52:03.000Z</Time>
            <Position>
              <LatitudeDegrees>36.832900531589984893798828125</LatitudeDegrees>
              <LongitudeDegrees>-4.3757891468703746795654296875</LongitudeDegrees>
            </Position>
            <AltitudeMeters>650</AltitudeMeters>
            <DistanceMeters>NAN</DistanceMeters>
          </Trackpoint>
          <Trackpoint>
            <Time>2020-12-05T10:52:04.000Z</Time>
            <Position>
              <LatitudeDegrees>36.83289273642003536224365234375</LatitudeDegrees>
              <LongitudeDegrees>-4.37577213160693645477294921875</LongitudeDegrees>
            </Position>
            <AltitudeMeters>650.20001220703125</AltitudeMeters>
            <DistanceMeters>NAN</DistanceMeters>
          </Trackpoint>
          <Trackpoint>
            <Time>2020-12-05T10:52:05.000Z</Time>
            <Position>
              <LatitudeDegrees>36.83288485743105411529541015625</LatitudeDegrees>
              <LongitudeDegrees>-4.37575913965702056884765625</LongitudeDegrees>
            </Position>
            <AltitudeMeters>650.4000244140625</AltitudeMeters>
            <DistanceMeters>NAN</DistanceMeters>
          </Trackpoint>
          <Trackpoint>
            <Time>2020-12-05T10:52:06.000Z</Time>
            <Position>
              <LatitudeDegrees>36.832880079746246337890625</LatitudeDegrees>
              <LongitudeDegrees>-4.3757482431828975677490234375</LongitudeDegrees>
            </Position>
            <AltitudeMeters>650.4000244140625</AltitudeMeters>
            <DistanceMeters>NAN</DistanceMeters>
          </Trackpoint>
          <Trackpoint>
            <Time>2020-12-05T10:52:07.000Z</Time>
            <Position>
              <LatitudeDegrees>36.83287446387112140655517578125</LatitudeDegrees>
              <LongitudeDegrees>-4.375738017261028289794921875</LongitudeDegrees>
            </Position>
            <AltitudeMeters>650.5999755859375</AltitudeMeters>
            <DistanceMeters>NAN</DistanceMeters>
          </Trackpoint>
          <Trackpoint>
            <Time>2020-12-05T10:52:08.000Z</Time>
            <Position>
              <LatitudeDegrees>36.832868345081806182861328125</LatitudeDegrees>
              <LongitudeDegrees>-4.3757284618914127349853515625</LongitudeDegrees>
            </Position>
            <AltitudeMeters>650.79998779296875</AltitudeMeters>
            <DistanceMeters>NAN</DistanceMeters>
          </Trackpoint>
          <Trackpoint>
            <Time>2020-12-05T10:52:09.000Z</Time>
            <Position>
              <LatitudeDegrees>36.83286239393055438995361328125</LatitudeDegrees>
              <LongitudeDegrees>-4.3757184036076068878173828125</LongitudeDegrees>
            </Position>
            <AltitudeMeters>650.79998779296875</AltitudeMeters>
            <DistanceMeters>NAN</DistanceMeters>
          </Trackpoint>
          <Trackpoint>
            <Time>2020-12-05T10:52:10.000Z</Time>
            <Position>
              <LatitudeDegrees>36.83285786770284175872802734375</LatitudeDegrees>
              <LongitudeDegrees>-4.37570750713348388671875</LongitudeDegrees>
            </Position>
            <AltitudeMeters>650.79998779296875</AltitudeMeters>
            <DistanceMeters>NAN</DistanceMeters>
          </Trackpoint>
          <Trackpoint>
            <Time>2020-12-05T10:52:11.000Z</Time>
            <Position>
              <LatitudeDegrees>36.832852922379970550537109375</LatitudeDegrees>
              <LongitudeDegrees>-4.3756972812116146087646484375</LongitudeDegrees>
            </Position>
            <AltitudeMeters>651</AltitudeMeters>
            <DistanceMeters>NAN</DistanceMeters>
          </Trackpoint>
          <Trackpoint>
            <Time>2020-12-05T10:52:12.000Z</Time>
            <Position>
              <LatitudeDegrees>36.83284713886678218841552734375</LatitudeDegrees>
              <LongitudeDegrees>-4.37568730674684047698974609375</LongitudeDegrees>
            </Position>
            <AltitudeMeters>651.20001220703125</AltitudeMeters>
            <DistanceMeters>NAN</DistanceMeters>
          </Trackpoint>
          <Trackpoint>
            <Time>2020-12-05T10:52:13.000Z</Time>
            <Position>
              <LatitudeDegrees>36.83284160681068897247314453125</LatitudeDegrees>
              <LongitudeDegrees>-4.37567691318690776824951171875</LongitudeDegrees>
            </Position>
            <AltitudeMeters>651.4000244140625</AltitudeMeters>
            <DistanceMeters>NAN</DistanceMeters>
          </Trackpoint>
          <Trackpoint>
            <Time>2020-12-05T10:52:14.000Z</Time>
            <Position>
              <LatitudeDegrees>36.832834817469120025634765625</LatitudeDegrees>
              <LongitudeDegrees>-4.3756686151027679443359375</LongitudeDegrees>
            </Position>
            <AltitudeMeters>651.5999755859375</AltitudeMeters>
            <DistanceMeters>NAN</DistanceMeters>
          </Trackpoint>
          <Trackpoint>
            <Time>2020-12-05T10:52:15.000Z</Time>
            <Position>
              <LatitudeDegrees>36.83282668702304363250732421875</LatitudeDegrees>
              <LongitudeDegrees>-4.37565914355218410491943359375</LongitudeDegrees>
            </Position>
            <AltitudeMeters>651.79998779296875</AltitudeMeters>
            <DistanceMeters>NAN</DistanceMeters>
          </Trackpoint>
          <Trackpoint>
            <Time>2020-12-05T10:52:16.000Z</Time>
            <Position>
              <LatitudeDegrees>36.8328212387859821319580078125</LatitudeDegrees>
              <LongitudeDegrees>-4.375645481050014495849609375</LongitudeDegrees>
            </Position>
            <AltitudeMeters>651.79998779296875</AltitudeMeters>
            <DistanceMeters>NAN</DistanceMeters>
          </Trackpoint>
          <Trackpoint>
            <Time>2020-12-05T10:52:17.000Z</Time>
            <Position>
              <LatitudeDegrees>36.83281763456761837005615234375</LatitudeDegrees>
              <LongitudeDegrees>-4.37563064508140087127685546875</LongitudeDegrees>
            </Position>
            <AltitudeMeters>652</AltitudeMeters>
            <DistanceMeters>NAN</DistanceMeters>
          </Trackpoint>
          <Trackpoint>
            <Time>2020-12-05T10:52:18.000Z</Time>
            <Position>
              <LatitudeDegrees>36.83281461708247661590576171875</LatitudeDegrees>
              <LongitudeDegrees>-4.37561589293181896209716796875</LongitudeDegrees>
            </Position>
            <AltitudeMeters>652.20001220703125</AltitudeMeters>
            <DistanceMeters>NAN</DistanceMeters>
          </Trackpoint>
          <Trackpoint>
            <Time>2020-12-05T10:52:19.000Z</Time>
            <Position>
              <LatitudeDegrees>36.8328101746737957000732421875</LatitudeDegrees>
              <LongitudeDegrees>-4.37559845857322216033935546875</LongitudeDegrees>
            </Position>
            <AltitudeMeters>652.4000244140625</AltitudeMeters>
            <DistanceMeters>NAN</DistanceMeters>
          </Trackpoint>
          <Trackpoint>
            <Time>2020-12-05T10:52:20.000Z</Time>
            <Position>
              <LatitudeDegrees>36.83280757628381252288818359375</LatitudeDegrees>
              <LongitudeDegrees>-4.37558186240494251251220703125</LongitudeDegrees>
            </Position>
            <AltitudeMeters>652.4000244140625</AltitudeMeters>
            <DistanceMeters>NAN</DistanceMeters>
          </Trackpoint>
          <Trackpoint>
            <Time>2020-12-05T10:52:21.000Z</Time>
            <Position>
              <LatitudeDegrees>36.8328115157783031463623046875</LatitudeDegrees>
              <LongitudeDegrees>-4.37556199729442596435546875</LongitudeDegrees>
            </Position>
            <AltitudeMeters>652.4000244140625</AltitudeMeters>
            <DistanceMeters>NAN</DistanceMeters>
          </Trackpoint>
          <Trackpoint>
            <Time>2020-12-05T10:52:22.000Z</Time>
            <Position>
              <LatitudeDegrees>36.83280975557863712310791015625</LatitudeDegrees>
              <LongitudeDegrees>-4.37554615549743175506591796875</LongitudeDegrees>
            </Position>
            <AltitudeMeters>652.4000244140625</AltitudeMeters>
            <DistanceMeters>NAN</DistanceMeters>
          </Trackpoint>
          <Trackpoint>
            <Time>2020-12-05T10:52:23.000Z</Time>
            <Position>
              <LatitudeDegrees>36.83280841447412967681884765625</LatitudeDegrees>
              <LongitudeDegrees>-4.375532828271389007568359375</LongitudeDegrees>
            </Position>
            <AltitudeMeters>652.4000244140625</AltitudeMeters>
            <DistanceMeters>NAN</DistanceMeters>
          </Trackpoint>
          <Trackpoint>
            <Time>2020-12-05T10:52:24.000Z</Time>
            <Position>
              <LatitudeDegrees>36.8328090012073516845703125</LatitudeDegrees>
              <LongitudeDegrees>-4.37551849521696567535400390625</LongitudeDegrees>
            </Position>
            <AltitudeMeters>652.4000244140625</AltitudeMeters>
            <DistanceMeters>NAN</DistanceMeters>
          </Trackpoint>
          <Trackpoint>
            <Time>2020-12-05T10:52:25.000Z</Time>
            <Position>
              <LatitudeDegrees>36.83281009085476398468017578125</LatitudeDegrees>
              <LongitudeDegrees>-4.37550491653382778167724609375</LongitudeDegrees>
            </Position>
            <AltitudeMeters>652.20001220703125</AltitudeMeters>
            <DistanceMeters>NAN</DistanceMeters>
          </Trackpoint>
          <Trackpoint>
            <Time>2020-12-05T10:52:26.000Z</Time>
            <Position>
              <LatitudeDegrees>36.83280891738831996917724609375</LatitudeDegrees>
              <LongitudeDegrees>-4.37549494206905364990234375</LongitudeDegrees>
            </Position>
            <AltitudeMeters>652.20001220703125</AltitudeMeters>
            <DistanceMeters>NAN</DistanceMeters>
          </Trackpoint>
          <Trackpoint>
            <Time>2020-12-05T10:52:27.000Z</Time>
            <Position>
              <LatitudeDegrees>36.83280824683606624603271484375</LatitudeDegrees>
              <LongitudeDegrees>-4.3754860572516918182373046875</LongitudeDegrees>
            </Position>
            <AltitudeMeters>652.20001220703125</AltitudeMeters>
            <DistanceMeters>NAN</DistanceMeters>
          </Trackpoint>
          <Trackpoint>
            <Time>2020-12-05T10:52:28.000Z</Time>
            <Position>
              <LatitudeDegrees>36.8328058160841464996337890625</LatitudeDegrees>
              <LongitudeDegrees>-4.37547675333917140960693359375</LongitudeDegrees>
            </Position>
            <AltitudeMeters>652</AltitudeMeters>
            <DistanceMeters>NAN</DistanceMeters>
          </Trackpoint>
          <Trackpoint>
            <Time>2020-12-05T10:52:29.000Z</Time>
            <Position>
              <LatitudeDegrees>36.8328034691512584686279296875</LatitudeDegrees>
              <LongitudeDegrees>-4.3754682876169681549072265625</LongitudeDegrees>
            </Position>
            <AltitudeMeters>652</AltitudeMeters>
            <DistanceMeters>NAN</DistanceMeters>
          </Trackpoint>
          <Trackpoint>
            <Time>2020-12-05T10:52:30.000Z</Time>
            <Position>
              <LatitudeDegrees>36.83279785327613353729248046875</LatitudeDegrees>
              <LongitudeDegrees>-4.3754585646092891693115234375</LongitudeDegrees>
            </Position>
            <AltitudeMeters>652</AltitudeMeters>
            <DistanceMeters>NAN</DistanceMeters>
          </Trackpoint>
          <Trackpoint>
            <Time>2020-12-05T10:52:31.000Z</Time>
            <Position>
              <LatitudeDegrees>36.8327934108674526214599609375</LatitudeDegrees>
              <LongitudeDegrees>-4.375451691448688507080078125</LongitudeDegrees>
            </Position>
            <AltitudeMeters>651.79998779296875</AltitudeMeters>
            <DistanceMeters>NAN</DistanceMeters>
          </Trackpoint>
          <Trackpoint>
            <Time>2020-12-05T10:52:32.000Z</Time>
            <Position>
              <LatitudeDegrees>36.8327887170016765594482421875</LatitudeDegrees>
              <LongitudeDegrees>-4.37544439919292926788330078125</LongitudeDegrees>
            </Position>
            <AltitudeMeters>651.79998779296875</AltitudeMeters>
            <DistanceMeters>NAN</DistanceMeters>
          </Trackpoint>
          <Trackpoint>
            <Time>2020-12-05T10:52:33.000Z</Time>
            <Position>
              <LatitudeDegrees>36.832785196602344512939453125</LatitudeDegrees>
              <LongitudeDegrees>-4.37543459236621856689453125</LongitudeDegrees>
            </Position>
            <AltitudeMeters>652</AltitudeMeters>
            <DistanceMeters>NAN</DistanceMeters>
          </Trackpoint>
          <Trackpoint>
            <Time>2020-12-05T10:52:34.000Z</Time>
            <Position>
              <LatitudeDegrees>36.8327816762030124664306640625</LatitudeDegrees>
              <LongitudeDegrees>-4.37542118132114410400390625</LongitudeDegrees>
            </Position>
            <AltitudeMeters>651.79998779296875</AltitudeMeters>
            <DistanceMeters>NAN</DistanceMeters>
          </Trackpoint>
          <Trackpoint>
            <Time>2020-12-05T10:52:35.000Z</Time>
            <Position>
              <LatitudeDegrees>36.83278108946979045867919921875</LatitudeDegrees>
              <LongitudeDegrees>-4.3754089437425136566162109375</LongitudeDegrees>
            </Position>
            <AltitudeMeters>651.79998779296875</AltitudeMeters>
            <DistanceMeters>NAN</DistanceMeters>
          </Trackpoint>
          <Trackpoint>
            <Time>2020-12-05T10:52:36.000Z</Time>
            <Position>
              <LatitudeDegrees>36.83278025127947330474853515625</LatitudeDegrees>
              <LongitudeDegrees>-4.37539461068809032440185546875</LongitudeDegrees>
            </Position>
            <AltitudeMeters>651.79998779296875</AltitudeMeters>
            <DistanceMeters>NAN</DistanceMeters>
          </Trackpoint>
          <Trackpoint>
            <Time>2020-12-05T10:52:37.000Z</Time>
            <Position>
              <LatitudeDegrees>36.832781173288822174072265625</LatitudeDegrees>
              <LongitudeDegrees>-4.37538136728107929229736328125</LongitudeDegrees>
            </Position>
            <AltitudeMeters>651.79998779296875</AltitudeMeters>
            <DistanceMeters>NAN</DistanceMeters>
          </Trackpoint>
          <Trackpoint>
            <Time>2020-12-05T10:52:38.000Z</Time>
            <Position>
              <LatitudeDegrees>36.8327833525836467742919921875</LatitudeDegrees>
              <LongitudeDegrees>-4.37536812387406826019287109375</LongitudeDegrees>
            </Position>
            <AltitudeMeters>651.79998779296875</AltitudeMeters>
            <DistanceMeters>NAN</DistanceMeters>
          </Trackpoint>
          <Trackpoint>
            <Time>2020-12-05T10:52:39.000Z</Time>
            <Position>
              <LatitudeDegrees>36.832783855497837066650390625</LatitudeDegrees>
              <LongitudeDegrees>-4.3753532879054546356201171875</LongitudeDegrees>
            </Position>
            <AltitudeMeters>651.79998779296875</AltitudeMeters>
            <DistanceMeters>NAN</DistanceMeters>
          </Trackpoint>
          <Trackpoint>
            <Time>2020-12-05T10:52:40.000Z</Time>
            <Position>
              <LatitudeDegrees>36.83278745971620082855224609375</LatitudeDegrees>
              <LongitudeDegrees>-4.37534281052649021148681640625</LongitudeDegrees>
            </Position>
            <AltitudeMeters>651.79998779296875</AltitudeMeters>
            <DistanceMeters>NAN</DistanceMeters>
          </Trackpoint>
          <Trackpoint>
            <Time>2020-12-05T10:52:41.000Z</Time>
            <Position>
              <LatitudeDegrees>36.8327947519719600677490234375</LatitudeDegrees>
              <LongitudeDegrees>-4.37533191405236721038818359375</LongitudeDegrees>
            </Position>
            <AltitudeMeters>651.79998779296875</AltitudeMeters>
            <DistanceMeters>NAN</DistanceMeters>
          </Trackpoint>
          <Trackpoint>
            <Time>2020-12-05T10:52:42.000Z</Time>
            <Position>
              <LatitudeDegrees>36.8327964283525943756103515625</LatitudeDegrees>
              <LongitudeDegrees>-4.37531850300729274749755859375</LongitudeDegrees>
            </Position>
            <AltitudeMeters>651.5999755859375</AltitudeMeters>
            <DistanceMeters>NAN</DistanceMeters>
          </Trackpoint>
          <Trackpoint>
            <Time>2020-12-05T10:52:43.000Z</Time>
            <Position>
              <LatitudeDegrees>36.83279600925743579864501953125</LatitudeDegrees>
              <LongitudeDegrees>-4.37530324794352054595947265625</LongitudeDegrees>
            </Position>
            <AltitudeMeters>651.5999755859375</AltitudeMeters>
            <DistanceMeters>NAN</DistanceMeters>
          </Trackpoint>
          <Trackpoint>
            <Time>2020-12-05T10:52:44.000Z</Time>
            <Position>
              <LatitudeDegrees>36.832794584333896636962890625</LatitudeDegrees>
              <LongitudeDegrees>-4.37528899870812892913818359375</LongitudeDegrees>
            </Position>
            <AltitudeMeters>651.5999755859375</AltitudeMeters>
            <DistanceMeters>NAN</DistanceMeters>
          </Trackpoint>
          <Trackpoint>
            <Time>2020-12-05T10:52:45.000Z</Time>
            <Position>
              <LatitudeDegrees>36.832793243229389190673828125</LatitudeDegrees>
              <LongitudeDegrees>-4.3752748332917690277099609375</LongitudeDegrees>
            </Position>
            <AltitudeMeters>651.5999755859375</AltitudeMeters>
            <DistanceMeters>NAN</DistanceMeters>
          </Trackpoint>
          <Trackpoint>
            <Time>2020-12-05T10:52:46.000Z</Time>
            <Position>
              <LatitudeDegrees>36.8327929079532623291015625</LatitudeDegrees>
              <LongitudeDegrees>-4.37526619993150234222412109375</LongitudeDegrees>
            </Position>
            <AltitudeMeters>651.5999755859375</AltitudeMeters>
            <DistanceMeters>NAN</DistanceMeters>
          </Trackpoint>
          <Trackpoint>
            <Time>2020-12-05T10:52:47.000Z</Time>
            <Position>
              <LatitudeDegrees>36.83279282413423061370849609375</LatitudeDegrees>
              <LongitudeDegrees>-4.3752560578286647796630859375</LongitudeDegrees>
            </Position>
            <AltitudeMeters>651.5999755859375</AltitudeMeters>
            <DistanceMeters>NAN</DistanceMeters>
          </Trackpoint>
          <Trackpoint>
            <Time>2020-12-05T10:52:48.000Z</Time>
            <Position>
              <LatitudeDegrees>36.83279634453356266021728515625</LatitudeDegrees>
              <LongitudeDegrees>-4.37524474225938320159912109375</LongitudeDegrees>
            </Position>
            <AltitudeMeters>651.79998779296875</AltitudeMeters>
            <DistanceMeters>NAN</DistanceMeters>
          </Trackpoint>
          <Trackpoint>
            <Time>2020-12-05T10:52:49.000Z</Time>
            <Position>
              <LatitudeDegrees>36.83280305005609989166259765625</LatitudeDegrees>
              <LongitudeDegrees>-4.3752292357385158538818359375</LongitudeDegrees>
            </Position>
            <AltitudeMeters>651.79998779296875</AltitudeMeters>
            <DistanceMeters>NAN</DistanceMeters>
          </Trackpoint>
          <Trackpoint>
            <Time>2020-12-05T10:52:50.000Z</Time>
            <Position>
              <LatitudeDegrees>36.83281444944441318511962890625</LatitudeDegrees>
              <LongitudeDegrees>-4.37521171756088733673095703125</LongitudeDegrees>
            </Position>
            <AltitudeMeters>652</AltitudeMeters>
            <DistanceMeters>NAN</DistanceMeters>
          </Trackpoint>
          <Trackpoint>
            <Time>2020-12-05T10:52:51.000Z</Time>
            <Position>
              <LatitudeDegrees>36.832817383110523223876953125</LatitudeDegrees>
              <LongitudeDegrees>-4.3751950375735759735107421875</LongitudeDegrees>
            </Position>
            <AltitudeMeters>652.20001220703125</AltitudeMeters>
            <DistanceMeters>NAN</DistanceMeters>
          </Trackpoint>
          <Trackpoint>
            <Time>2020-12-05T10:52:52.000Z</Time>
            <Position>
              <LatitudeDegrees>36.83282098732888698577880859375</LatitudeDegrees>
              <LongitudeDegrees>-4.375184141099452972412109375</LongitudeDegrees>
            </Position>
            <AltitudeMeters>652.4000244140625</AltitudeMeters>
            <DistanceMeters>NAN</DistanceMeters>
          </Trackpoint>
          <Trackpoint>
            <Time>2020-12-05T10:52:53.000Z</Time>
            <Position>
              <LatitudeDegrees>36.8328259326517581939697265625</LatitudeDegrees>
              <LongitudeDegrees>-4.375174753367900848388671875</LongitudeDegrees>
            </Position>
            <AltitudeMeters>652.5999755859375</AltitudeMeters>
            <DistanceMeters>NAN</DistanceMeters>
          </Trackpoint>
          <Trackpoint>
            <Time>2020-12-05T10:52:54.000Z</Time>
            <Position>
              <LatitudeDegrees>36.83283121325075626373291015625</LatitudeDegrees>
              <LongitudeDegrees>-4.37516444362699985504150390625</LongitudeDegrees>
            </Position>
            <AltitudeMeters>652.5999755859375</AltitudeMeters>
            <DistanceMeters>NAN</DistanceMeters>
          </Trackpoint>
          <Trackpoint>
            <Time>2020-12-05T10:52:55.000Z</Time>
            <Position>
              <LatitudeDegrees>36.832835488021373748779296875</LatitudeDegrees>
              <LongitudeDegrees>-4.37515220604836940765380859375</LongitudeDegrees>
            </Position>
            <AltitudeMeters>652.79998779296875</AltitudeMeters>
            <DistanceMeters>NAN</DistanceMeters>
          </Trackpoint>
          <Trackpoint>
            <Time>2020-12-05T10:52:56.000Z</Time>
            <Position>
              <LatitudeDegrees>36.8328400142490863800048828125</LatitudeDegrees>
              <LongitudeDegrees>-4.375136531889438629150390625</LongitudeDegrees>
            </Position>
            <AltitudeMeters>652.79998779296875</AltitudeMeters>
            <DistanceMeters>NAN</DistanceMeters>
          </Trackpoint>
          <Trackpoint>
            <Time>2020-12-05T10:52:57.000Z</Time>
            <Position>
              <LatitudeDegrees>36.8328447081148624420166015625</LatitudeDegrees>
              <LongitudeDegrees>-4.375120103359222412109375</LongitudeDegrees>
            </Position>
            <AltitudeMeters>653</AltitudeMeters>
            <DistanceMeters>NAN</DistanceMeters>
          </Trackpoint>
          <Trackpoint>
            <Time>2020-12-05T10:52:58.000Z</Time>
            <Position>
              <LatitudeDegrees>36.8328500725328922271728515625</LatitudeDegrees>
              <LongitudeDegrees>-4.37510292045772075653076171875</LongitudeDegrees>
            </Position>
            <AltitudeMeters>653</AltitudeMeters>
            <DistanceMeters>NAN</DistanceMeters>
          </Trackpoint>
          <Trackpoint>
            <Time>2020-12-05T10:52:59.000Z</Time>
            <Position>
              <LatitudeDegrees>36.83285468257963657379150390625</LatitudeDegrees>
              <LongitudeDegrees>-4.3750874139368534088134765625</LongitudeDegrees>
            </Position>
            <AltitudeMeters>653.20001220703125</AltitudeMeters>
            <DistanceMeters>NAN</DistanceMeters>
          </Trackpoint>
          <Trackpoint>
            <Time>2020-12-05T10:53:00.000Z</Time>
            <Position>
              <LatitudeDegrees>36.83285585604608058929443359375</LatitudeDegrees>
              <LongitudeDegrees>-4.37507274560630321502685546875</LongitudeDegrees>
            </Position>
            <AltitudeMeters>653.20001220703125</AltitudeMeters>
            <DistanceMeters>NAN</DistanceMeters>
          </Trackpoint>
          <Trackpoint>
            <Time>2020-12-05T10:53:01.000Z</Time>
            <Position>
              <LatitudeDegrees>36.8328581191599369049072265625</LatitudeDegrees>
              <LongitudeDegrees>-4.3750599212944507598876953125</LongitudeDegrees>
            </Position>
            <AltitudeMeters>653.20001220703125</AltitudeMeters>
            <DistanceMeters>NAN</DistanceMeters>
          </Trackpoint>
          <Trackpoint>
            <Time>2020-12-05T10:53:02.000Z</Time>
            <Position>
              <LatitudeDegrees>36.83285929262638092041015625</LatitudeDegrees>
              <LongitudeDegrees>-4.37505246140062808990478515625</LongitudeDegrees>
            </Position>
            <AltitudeMeters>653.20001220703125</AltitudeMeters>
            <DistanceMeters>NAN</DistanceMeters>
          </Trackpoint>
          <Trackpoint>
            <Time>2020-12-05T10:53:03.000Z</Time>
            <Position>
              <LatitudeDegrees>36.832861639559268951416015625</LatitudeDegrees>
              <LongitudeDegrees>-4.3750411458313465118408203125</LongitudeDegrees>
            </Position>
            <AltitudeMeters>653.4000244140625</AltitudeMeters>
            <DistanceMeters>NAN</DistanceMeters>
          </Trackpoint>
          <Trackpoint>
            <Time>2020-12-05T10:53:04.000Z</Time>
            <Position>
              <LatitudeDegrees>36.8328638188540935516357421875</LatitudeDegrees>
              <LongitudeDegrees>-4.3750304169952869415283203125</LongitudeDegrees>
            </Position>
            <AltitudeMeters>653.5999755859375</AltitudeMeters>
            <DistanceMeters>NAN</DistanceMeters>
          </Trackpoint>
          <Trackpoint>
            <Time>2020-12-05T10:53:05.000Z</Time>
            <Position>
              <LatitudeDegrees>36.83286599814891815185546875</LatitudeDegrees>
              <LongitudeDegrees>-4.37501910142600536346435546875</LongitudeDegrees>
            </Position>
            <AltitudeMeters>654</AltitudeMeters>
            <DistanceMeters>NAN</DistanceMeters>
          </Trackpoint>
          <Trackpoint>
            <Time>2020-12-05T10:53:06.000Z</Time>
            <Position>
              <LatitudeDegrees>36.83287010528147220611572265625</LatitudeDegrees>
              <LongitudeDegrees>-4.375007450580596923828125</LongitudeDegrees>
            </Position>
            <AltitudeMeters>654.20001220703125</AltitudeMeters>
            <DistanceMeters>NAN</DistanceMeters>
          </Trackpoint>
          <Trackpoint>
            <Time>2020-12-05T10:53:07.000Z</Time>
            <Position>
              <LatitudeDegrees>36.832874715328216552734375</LatitudeDegrees>
              <LongitudeDegrees>-4.3749942071735858917236328125</LongitudeDegrees>
            </Position>
            <AltitudeMeters>654.4000244140625</AltitudeMeters>
            <DistanceMeters>NAN</DistanceMeters>
          </Trackpoint>
          <Trackpoint>
            <Time>2020-12-05T10:53:08.000Z</Time>
            <Position>
              <LatitudeDegrees>36.83287915773689746856689453125</LatitudeDegrees>
              <LongitudeDegrees>-4.37497685663402080535888671875</LongitudeDegrees>
            </Position>
            <AltitudeMeters>654.5999755859375</AltitudeMeters>
            <DistanceMeters>NAN</DistanceMeters>
          </Trackpoint>
          <Trackpoint>
            <Time>2020-12-05T10:53:09.000Z</Time>
            <Position>
              <LatitudeDegrees>36.83288267813622951507568359375</LatitudeDegrees>
              <LongitudeDegrees>-4.3749613501131534576416015625</LongitudeDegrees>
            </Position>
            <AltitudeMeters>654.79998779296875</AltitudeMeters>
            <DistanceMeters>NAN</DistanceMeters>
          </Trackpoint>
          <Trackpoint>
            <Time>2020-12-05T10:53:10.000Z</Time>
            <Position>
              <LatitudeDegrees>36.83288653381168842315673828125</LatitudeDegrees>
              <LongitudeDegrees>-4.3749511241912841796875</LongitudeDegrees>
            </Position>
            <AltitudeMeters>655.20001220703125</AltitudeMeters>
            <DistanceMeters>NAN</DistanceMeters>
          </Trackpoint>
          <Trackpoint>
            <Time>2020-12-05T10:53:11.000Z</Time>
            <Position>
              <LatitudeDegrees>36.83289139531552791595458984375</LatitudeDegrees>
              <LongitudeDegrees>-4.37494106590747833251953125</LongitudeDegrees>
            </Position>
            <AltitudeMeters>655.5999755859375</AltitudeMeters>
            <DistanceMeters>NAN</DistanceMeters>
          </Trackpoint>
          <Trackpoint>
            <Time>2020-12-05T10:53:12.000Z</Time>
            <Position>
              <LatitudeDegrees>36.8329003639519214630126953125</LatitudeDegrees>
              <LongitudeDegrees>-4.37492639757692813873291015625</LongitudeDegrees>
            </Position>
            <AltitudeMeters>656</AltitudeMeters>
            <DistanceMeters>NAN</DistanceMeters>
          </Trackpoint>
          <Trackpoint>
            <Time>2020-12-05T10:53:13.000Z</Time>
            <Position>
              <LatitudeDegrees>36.8329104222357273101806640625</LatitudeDegrees>
              <LongitudeDegrees>-4.37490812502801418304443359375</LongitudeDegrees>
            </Position>
            <AltitudeMeters>656.20001220703125</AltitudeMeters>
            <DistanceMeters>NAN</DistanceMeters>
          </Trackpoint>
          <Trackpoint>
            <Time>2020-12-05T10:53:14.000Z</Time>
            <Position>
              <LatitudeDegrees>36.8329144455492496490478515625</LatitudeDegrees>
              <LongitudeDegrees>-4.37489412724971771240234375</LongitudeDegrees>
            </Position>
            <AltitudeMeters>656.4000244140625</AltitudeMeters>
            <DistanceMeters>NAN</DistanceMeters>
          </Trackpoint>
          <Trackpoint>
            <Time>2020-12-05T10:53:15.000Z</Time>
            <Position>
              <LatitudeDegrees>36.83291654102504253387451171875</LatitudeDegrees>
              <LongitudeDegrees>-4.37487694434821605682373046875</LongitudeDegrees>
            </Position>
            <AltitudeMeters>656.79998779296875</AltitudeMeters>
            <DistanceMeters>NAN</DistanceMeters>
          </Trackpoint>
          <Trackpoint>
            <Time>2020-12-05T10:53:16.000Z</Time>
            <Position>
              <LatitudeDegrees>36.8329194746911525726318359375</LatitudeDegrees>
              <LongitudeDegrees>-4.3748607672750949859619140625</LongitudeDegrees>
            </Position>
            <AltitudeMeters>656.79998779296875</AltitudeMeters>
            <DistanceMeters>NAN</DistanceMeters>
          </Trackpoint>
          <Trackpoint>
            <Time>2020-12-05T10:53:17.000Z</Time>
            <Position>
              <LatitudeDegrees>36.8329204805195331573486328125</LatitudeDegrees>
              <LongitudeDegrees>-4.37484341673552989959716796875</LongitudeDegrees>
            </Position>
            <AltitudeMeters>656.79998779296875</AltitudeMeters>
            <DistanceMeters>NAN</DistanceMeters>
          </Trackpoint>
          <Trackpoint>
            <Time>2020-12-05T10:53:18.000Z</Time>
            <Position>
              <LatitudeDegrees>36.832919307053089141845703125</LatitudeDegrees>
              <LongitudeDegrees>-4.3748275749385356903076171875</LongitudeDegrees>
            </Position>
            <AltitudeMeters>656.79998779296875</AltitudeMeters>
            <DistanceMeters>NAN</DistanceMeters>
          </Trackpoint>
          <Trackpoint>
            <Time>2020-12-05T10:53:19.000Z</Time>
            <Position>
              <LatitudeDegrees>36.8329198099672794342041015625</LatitudeDegrees>
              <LongitudeDegrees>-4.37481240369379520416259765625</LongitudeDegrees>
            </Position>
            <AltitudeMeters>656.79998779296875</AltitudeMeters>
            <DistanceMeters>NAN</DistanceMeters>
          </Trackpoint>
          <Trackpoint>
            <Time>2020-12-05T10:53:20.000Z</Time>
            <Position>
              <LatitudeDegrees>36.83292257599532604217529296875</LatitudeDegrees>
              <LongitudeDegrees>-4.37479597516357898712158203125</LongitudeDegrees>
            </Position>
            <AltitudeMeters>656.79998779296875</AltitudeMeters>
            <DistanceMeters>NAN</DistanceMeters>
          </Trackpoint>
          <Trackpoint>
            <Time>2020-12-05T10:53:21.000Z</Time>
            <Position>
              <LatitudeDegrees>36.83292366564273834228515625</LatitudeDegrees>
              <LongitudeDegrees>-4.3747799657285213470458984375</LongitudeDegrees>
            </Position>
            <AltitudeMeters>656.5999755859375</AltitudeMeters>
            <DistanceMeters>NAN</DistanceMeters>
          </Trackpoint>
          <Trackpoint>
            <Time>2020-12-05T10:53:22.000Z</Time>
            <Position>
              <LatitudeDegrees>36.83292509056627750396728515625</LatitudeDegrees>
              <LongitudeDegrees>-4.3747647106647491455078125</LongitudeDegrees>
            </Position>
            <AltitudeMeters>656.4000244140625</AltitudeMeters>
            <DistanceMeters>NAN</DistanceMeters>
          </Trackpoint>
          <Trackpoint>
            <Time>2020-12-05T10:53:23.000Z</Time>
            <Position>
              <LatitudeDegrees>36.83292844332754611968994140625</LatitudeDegrees>
              <LongitudeDegrees>-4.37475062906742095947265625</LongitudeDegrees>
            </Position>
            <AltitudeMeters>656.4000244140625</AltitudeMeters>
            <DistanceMeters>NAN</DistanceMeters>
          </Trackpoint>
          <Trackpoint>
            <Time>2020-12-05T10:53:24.000Z</Time>
            <Position>
              <LatitudeDegrees>36.8329335562884807586669921875</LatitudeDegrees>
              <LongitudeDegrees>-4.37473855912685394287109375</LongitudeDegrees>
            </Position>
            <AltitudeMeters>656.4000244140625</AltitudeMeters>
            <DistanceMeters>NAN</DistanceMeters>
          </Trackpoint>
          <Trackpoint>
            <Time>2020-12-05T10:53:25.000Z</Time>
            <Position>
              <LatitudeDegrees>36.83294034563004970550537109375</LatitudeDegrees>
              <LongitudeDegrees>-4.37472523190081119537353515625</LongitudeDegrees>
            </Position>
            <AltitudeMeters>656.4000244140625</AltitudeMeters>
            <DistanceMeters>NAN</DistanceMeters>
          </Trackpoint>
          <Trackpoint>
            <Time>2020-12-05T10:53:26.000Z</Time>
            <Position>
              <LatitudeDegrees>36.8329483084380626678466796875</LatitudeDegrees>
              <LongitudeDegrees>-4.3747122399508953094482421875</LongitudeDegrees>
            </Position>
            <AltitudeMeters>656.4000244140625</AltitudeMeters>
            <DistanceMeters>NAN</DistanceMeters>
          </Trackpoint>
          <Trackpoint>
            <Time>2020-12-05T10:53:27.000Z</Time>
            <Position>
              <LatitudeDegrees>36.83295275084674358367919921875</LatitudeDegrees>
              <LongitudeDegrees>-4.3747008405625820159912109375</LongitudeDegrees>
            </Position>
            <AltitudeMeters>656.4000244140625</AltitudeMeters>
            <DistanceMeters>NAN</DistanceMeters>
          </Trackpoint>
          <Trackpoint>
            <Time>2020-12-05T10:53:28.000Z</Time>
            <Position>
              <LatitudeDegrees>36.8329560197889804840087890625</LatitudeDegrees>
              <LongitudeDegrees>-4.37468952499330043792724609375</LongitudeDegrees>
            </Position>
            <AltitudeMeters>656.4000244140625</AltitudeMeters>
            <DistanceMeters>NAN</DistanceMeters>
          </Trackpoint>
          <Trackpoint>
            <Time>2020-12-05T10:53:29.000Z</Time>
            <Position>
              <LatitudeDegrees>36.83295945636928081512451171875</LatitudeDegrees>
              <LongitudeDegrees>-4.3746743537485599517822265625</LongitudeDegrees>
            </Position>
            <AltitudeMeters>656.4000244140625</AltitudeMeters>
            <DistanceMeters>NAN</DistanceMeters>
          </Trackpoint>
          <Trackpoint>
            <Time>2020-12-05T10:53:30.000Z</Time>
            <Position>
              <LatitudeDegrees>36.83296792209148406982421875</LatitudeDegrees>
              <LongitudeDegrees>-4.3746562488377094268798828125</LongitudeDegrees>
            </Position>
            <AltitudeMeters>656.20001220703125</AltitudeMeters>
            <DistanceMeters>NAN</DistanceMeters>
          </Trackpoint>
          <Trackpoint>
            <Time>2020-12-05T10:53:31.000Z</Time>
            <Position>
              <LatitudeDegrees>36.832973957061767578125</LatitudeDegrees>
              <LongitudeDegrees>-4.37463806010782718658447265625</LongitudeDegrees>
            </Position>
            <AltitudeMeters>656</AltitudeMeters>
            <DistanceMeters>NAN</DistanceMeters>
          </Trackpoint>
          <Trackpoint>
            <Time>2020-12-05T10:53:32.000Z</Time>
            <Position>
              <LatitudeDegrees>36.83297865092754364013671875</LatitudeDegrees>
              <LongitudeDegrees>-4.37462347559630870819091796875</LongitudeDegrees>
            </Position>
            <AltitudeMeters>656</AltitudeMeters>
            <DistanceMeters>NAN</DistanceMeters>
          </Trackpoint>
          <Trackpoint>
            <Time>2020-12-05T10:53:33.000Z</Time>
            <Position>
              <LatitudeDegrees>36.83298091404139995574951171875</LatitudeDegrees>
              <LongitudeDegrees>-4.3746118247509002685546875</LongitudeDegrees>
            </Position>
            <AltitudeMeters>656</AltitudeMeters>
            <DistanceMeters>NAN</DistanceMeters>
          </Trackpoint>
          <Trackpoint>
            <Time>2020-12-05T10:53:34.000Z</Time>
            <Position>
              <LatitudeDegrees>36.832981668412685394287109375</LatitudeDegrees>
              <LongitudeDegrees>-4.37460117973387241363525390625</LongitudeDegrees>
            </Position>
            <AltitudeMeters>656</AltitudeMeters>
            <DistanceMeters>NAN</DistanceMeters>
          </Trackpoint>
          <Trackpoint>
            <Time>2020-12-05T10:53:35.000Z</Time>
            <Position>
              <LatitudeDegrees>36.83298208750784397125244140625</LatitudeDegrees>
              <LongitudeDegrees>-4.37459128908812999725341796875</LongitudeDegrees>
            </Position>
            <AltitudeMeters>656</AltitudeMeters>
            <DistanceMeters>NAN</DistanceMeters>
          </Trackpoint>
          <Trackpoint>
            <Time>2020-12-05T10:53:36.000Z</Time>
            <Position>
              <LatitudeDegrees>36.83298024348914623260498046875</LatitudeDegrees>
              <LongitudeDegrees>-4.3745774589478969573974609375</LongitudeDegrees>
            </Position>
            <AltitudeMeters>656</AltitudeMeters>
            <DistanceMeters>NAN</DistanceMeters>
          </Trackpoint>
          <Trackpoint>
            <Time>2020-12-05T10:53:37.000Z</Time>
            <Position>
              <LatitudeDegrees>36.83297772891819477081298828125</LatitudeDegrees>
              <LongitudeDegrees>-4.37455843202769756317138671875</LongitudeDegrees>
            </Position>
            <AltitudeMeters>656.20001220703125</AltitudeMeters>
            <DistanceMeters>NAN</DistanceMeters>
          </Trackpoint>
          <Trackpoint>
            <Time>2020-12-05T10:53:38.000Z</Time>
            <Position>
              <LatitudeDegrees>36.83297873474657535552978515625</LatitudeDegrees>
              <LongitudeDegrees>-4.37454300932586193084716796875</LongitudeDegrees>
            </Position>
            <AltitudeMeters>656.20001220703125</AltitudeMeters>
            <DistanceMeters>NAN</DistanceMeters>
          </Trackpoint>
          <Trackpoint>
            <Time>2020-12-05T10:53:39.000Z</Time>
            <Position>
              <LatitudeDegrees>36.83297672308981418609619140625</LatitudeDegrees>
              <LongitudeDegrees>-4.3745301850140094757080078125</LongitudeDegrees>
            </Position>
            <AltitudeMeters>656.20001220703125</AltitudeMeters>
            <DistanceMeters>NAN</DistanceMeters>
          </Trackpoint>
          <Trackpoint>
            <Time>2020-12-05T10:53:40.000Z</Time>
            <Position>
              <LatitudeDegrees>36.83297487907111644744873046875</LatitudeDegrees>
              <LongitudeDegrees>-4.37451618723571300506591796875</LongitudeDegrees>
            </Position>
            <AltitudeMeters>656.20001220703125</AltitudeMeters>
            <DistanceMeters>NAN</DistanceMeters>
          </Trackpoint>
          <Trackpoint>
            <Time>2020-12-05T10:53:41.000Z</Time>
            <Position>
              <LatitudeDegrees>36.83297085575759410858154296875</LatitudeDegrees>
              <LongitudeDegrees>-4.3745010159909725189208984375</LongitudeDegrees>
            </Position>
            <AltitudeMeters>656.20001220703125</AltitudeMeters>
            <DistanceMeters>NAN</DistanceMeters>
          </Trackpoint>
          <Trackpoint>
            <Time>2020-12-05T10:53:42.000Z</Time>
            <Position>
              <LatitudeDegrees>36.8329640664160251617431640625</LatitudeDegrees>
              <LongitudeDegrees>-4.3744835816323757171630859375</LongitudeDegrees>
            </Position>
            <AltitudeMeters>656.4000244140625</AltitudeMeters>
            <DistanceMeters>NAN</DistanceMeters>
          </Trackpoint>
          <Trackpoint>
            <Time>2020-12-05T10:53:43.000Z</Time>
            <Position>
              <LatitudeDegrees>36.832960546016693115234375</LatitudeDegrees>
              <LongitudeDegrees>-4.37447293661534786224365234375</LongitudeDegrees>
            </Position>
            <AltitudeMeters>656.5999755859375</AltitudeMeters>
            <DistanceMeters>NAN</DistanceMeters>
          </Trackpoint>
          <Trackpoint>
            <Time>2020-12-05T10:53:44.000Z</Time>
            <Position>
              <LatitudeDegrees>36.83295853435993194580078125</LatitudeDegrees>
              <LongitudeDegrees>-4.37446204014122486114501953125</LongitudeDegrees>
            </Position>
            <AltitudeMeters>656.5999755859375</AltitudeMeters>
            <DistanceMeters>NAN</DistanceMeters>
          </Trackpoint>
          <Trackpoint>
            <Time>2020-12-05T10:53:45.000Z</Time>
            <Position>
              <LatitudeDegrees>36.83295719325542449951171875</LatitudeDegrees>
              <LongitudeDegrees>-4.3744493834674358367919921875</LongitudeDegrees>
            </Position>
            <AltitudeMeters>656.5999755859375</AltitudeMeters>
            <DistanceMeters>NAN</DistanceMeters>
          </Trackpoint>
          <Trackpoint>
            <Time>2020-12-05T10:53:46.000Z</Time>
            <Position>
              <LatitudeDegrees>36.832957528531551361083984375</LatitudeDegrees>
              <LongitudeDegrees>-4.3744329549372196197509765625</LongitudeDegrees>
            </Position>
            <AltitudeMeters>656.79998779296875</AltitudeMeters>
            <DistanceMeters>NAN</DistanceMeters>
          </Trackpoint>
          <Trackpoint>
            <Time>2020-12-05T10:53:47.000Z</Time>
            <Position>
              <LatitudeDegrees>36.83295476250350475311279296875</LatitudeDegrees>
              <LongitudeDegrees>-4.37441929243505001068115234375</LongitudeDegrees>
            </Position>
            <AltitudeMeters>656.79998779296875</AltitudeMeters>
            <DistanceMeters>NAN</DistanceMeters>
          </Trackpoint>
          <Trackpoint>
            <Time>2020-12-05T10:53:48.000Z</Time>
            <Position>
              <LatitudeDegrees>36.832954175770282745361328125</LatitudeDegrees>
              <LongitudeDegrees>-4.37440621666610240936279296875</LongitudeDegrees>
            </Position>
            <AltitudeMeters>656.79998779296875</AltitudeMeters>
            <DistanceMeters>NAN</DistanceMeters>
          </Trackpoint>
          <Trackpoint>
            <Time>2020-12-05T10:53:49.000Z</Time>
            <Position>
              <LatitudeDegrees>36.8329565227031707763671875</LatitudeDegrees>
              <LongitudeDegrees>-4.37438945285975933074951171875</LongitudeDegrees>
            </Position>
            <AltitudeMeters>656.79998779296875</AltitudeMeters>
            <DistanceMeters>NAN</DistanceMeters>
          </Trackpoint>
          <Trackpoint>
            <Time>2020-12-05T10:53:50.000Z</Time>
            <Position>
              <LatitudeDegrees>36.83295719325542449951171875</LatitudeDegrees>
              <LongitudeDegrees>-4.3743717670440673828125</LongitudeDegrees>
            </Position>
            <AltitudeMeters>656.79998779296875</AltitudeMeters>
            <DistanceMeters>NAN</DistanceMeters>
          </Trackpoint>
          <Trackpoint>
            <Time>2020-12-05T10:53:51.000Z</Time>
            <Position>
              <LatitudeDegrees>36.83295576833188533782958984375</LatitudeDegrees>
              <LongitudeDegrees>-4.3743538297712802886962890625</LongitudeDegrees>
            </Position>
            <AltitudeMeters>656.79998779296875</AltitudeMeters>
            <DistanceMeters>NAN</DistanceMeters>
          </Trackpoint>
          <Trackpoint>
            <Time>2020-12-05T10:53:52.000Z</Time>
            <Position>
              <LatitudeDegrees>36.8329538404941558837890625</LatitudeDegrees>
              <LongitudeDegrees>-4.37433429993689060211181640625</LongitudeDegrees>
            </Position>
            <AltitudeMeters>656.79998779296875</AltitudeMeters>
            <DistanceMeters>NAN</DistanceMeters>
          </Trackpoint>
          <Trackpoint>
            <Time>2020-12-05T10:53:53.000Z</Time>
            <Position>
              <LatitudeDegrees>36.83295140974223613739013671875</LatitudeDegrees>
              <LongitudeDegrees>-4.3743167817592620849609375</LongitudeDegrees>
            </Position>
            <AltitudeMeters>656.79998779296875</AltitudeMeters>
            <DistanceMeters>NAN</DistanceMeters>
          </Trackpoint>
          <Trackpoint>
            <Time>2020-12-05T10:53:54.000Z</Time>
            <Position>
              <LatitudeDegrees>36.8329486437141895294189453125</LatitudeDegrees>
              <LongitudeDegrees>-4.37430244870483875274658203125</LongitudeDegrees>
            </Position>
            <AltitudeMeters>656.79998779296875</AltitudeMeters>
            <DistanceMeters>NAN</DistanceMeters>
          </Trackpoint>
          <Trackpoint>
            <Time>2020-12-05T10:53:55.000Z</Time>
            <Position>
              <LatitudeDegrees>36.83294721879065036773681640625</LatitudeDegrees>
              <LongitudeDegrees>-4.37428928911685943603515625</LongitudeDegrees>
            </Position>
            <AltitudeMeters>656.79998779296875</AltitudeMeters>
            <DistanceMeters>NAN</DistanceMeters>
          </Trackpoint>
          <Trackpoint>
            <Time>2020-12-05T10:53:56.000Z</Time>
            <Position>
              <LatitudeDegrees>36.8329449556767940521240234375</LatitudeDegrees>
              <LongitudeDegrees>-4.3742757104337215423583984375</LongitudeDegrees>
            </Position>
            <AltitudeMeters>656.79998779296875</AltitudeMeters>
            <DistanceMeters>NAN</DistanceMeters>
          </Trackpoint>
          <Trackpoint>
            <Time>2020-12-05T10:53:57.000Z</Time>
            <Position>
              <LatitudeDegrees>36.83294252492487430572509765625</LatitudeDegrees>
              <LongitudeDegrees>-4.374264143407344818115234375</LongitudeDegrees>
            </Position>
            <AltitudeMeters>656.79998779296875</AltitudeMeters>
            <DistanceMeters>NAN</DistanceMeters>
          </Trackpoint>
          <Trackpoint>
            <Time>2020-12-05T10:53:58.000Z</Time>
            <Position>
              <LatitudeDegrees>36.83293950743973255157470703125</LatitudeDegrees>
              <LongitudeDegrees>-4.37425249256193637847900390625</LongitudeDegrees>
            </Position>
            <AltitudeMeters>656.79998779296875</AltitudeMeters>
            <DistanceMeters>NAN</DistanceMeters>
          </Trackpoint>
          <Trackpoint>
            <Time>2020-12-05T10:53:59.000Z</Time>
            <Position>
              <LatitudeDegrees>36.832936070859432220458984375</LatitudeDegrees>
              <LongitudeDegrees>-4.37424109317362308502197265625</LongitudeDegrees>
            </Position>
            <AltitudeMeters>656.79998779296875</AltitudeMeters>
            <DistanceMeters>NAN</DistanceMeters>
          </Trackpoint>
          <Trackpoint>
            <Time>2020-12-05T10:54:00.000Z</Time>
            <Position>
              <LatitudeDegrees>36.83293162845075130462646484375</LatitudeDegrees>
              <LongitudeDegrees>-4.37422835268080234527587890625</LongitudeDegrees>
            </Position>
            <AltitudeMeters>657</AltitudeMeters>
            <DistanceMeters>NAN</DistanceMeters>
          </Trackpoint>
          <Trackpoint>
            <Time>2020-12-05T10:54:01.000Z</Time>
            <Position>
              <LatitudeDegrees>36.8329278565943241119384765625</LatitudeDegrees>
              <LongitudeDegrees>-4.374217875301837921142578125</LongitudeDegrees>
            </Position>
            <AltitudeMeters>657</AltitudeMeters>
            <DistanceMeters>NAN</DistanceMeters>
          </Trackpoint>
          <Trackpoint>
            <Time>2020-12-05T10:54:02.000Z</Time>
            <Position>
              <LatitudeDegrees>36.832921318709850311279296875</LatitudeDegrees>
              <LongitudeDegrees>-4.37420404516160488128662109375</LongitudeDegrees>
            </Position>
            <AltitudeMeters>657.20001220703125</AltitudeMeters>
            <DistanceMeters>NAN</DistanceMeters>
          </Trackpoint>
          <Trackpoint>
            <Time>2020-12-05T10:54:03.000Z</Time>
            <Position>
              <LatitudeDegrees>36.832915283739566802978515625</LatitudeDegrees>
              <LongitudeDegrees>-4.37419029884040355682373046875</LongitudeDegrees>
            </Position>
            <AltitudeMeters>657.4000244140625</AltitudeMeters>
            <DistanceMeters>NAN</DistanceMeters>
          </Trackpoint>
          <Trackpoint>
            <Time>2020-12-05T10:54:04.000Z</Time>
            <Position>
              <LatitudeDegrees>36.83290799148380756378173828125</LatitudeDegrees>
              <LongitudeDegrees>-4.37417873181402683258056640625</LongitudeDegrees>
            </Position>
            <AltitudeMeters>657.4000244140625</AltitudeMeters>
            <DistanceMeters>NAN</DistanceMeters>
          </Trackpoint>
          <Trackpoint>
            <Time>2020-12-05T10:54:05.000Z</Time>
            <Position>
              <LatitudeDegrees>36.8328996933996677398681640625</LatitudeDegrees>
              <LongitudeDegrees>-4.37416783533990383148193359375</LongitudeDegrees>
            </Position>
            <AltitudeMeters>657.5999755859375</AltitudeMeters>
            <DistanceMeters>NAN</DistanceMeters>
          </Trackpoint>
          <Trackpoint>
            <Time>2020-12-05T10:54:06.000Z</Time>
            <Position>
              <LatitudeDegrees>36.83289340697228908538818359375</LatitudeDegrees>
              <LongitudeDegrees>-4.37415651977062225341796875</LongitudeDegrees>
            </Position>
            <AltitudeMeters>657.5999755859375</AltitudeMeters>
            <DistanceMeters>NAN</DistanceMeters>
          </Trackpoint>
          <Trackpoint>
            <Time>2020-12-05T10:54:07.000Z</Time>
            <Position>
              <LatitudeDegrees>36.83288745582103729248046875</LatitudeDegrees>
              <LongitudeDegrees>-4.3741486407816410064697265625</LongitudeDegrees>
            </Position>
            <AltitudeMeters>657.5999755859375</AltitudeMeters>
            <DistanceMeters>NAN</DistanceMeters>
          </Trackpoint>
          <Trackpoint>
            <Time>2020-12-05T10:54:08.000Z</Time>
            <Position>
              <LatitudeDegrees>36.83287940919399261474609375</LatitudeDegrees>
              <LongitudeDegrees>-4.3741375766694545745849609375</LongitudeDegrees>
            </Position>
            <AltitudeMeters>657.5999755859375</AltitudeMeters>
            <DistanceMeters>NAN</DistanceMeters>
          </Trackpoint>
          <Trackpoint>
            <Time>2020-12-05T10:54:09.000Z</Time>
            <Position>
              <LatitudeDegrees>36.83287329040467739105224609375</LatitudeDegrees>
              <LongitudeDegrees>-4.37412978149950504302978515625</LongitudeDegrees>
            </Position>
            <AltitudeMeters>657.5999755859375</AltitudeMeters>
            <DistanceMeters>NAN</DistanceMeters>
          </Trackpoint>
          <Trackpoint>
            <Time>2020-12-05T10:54:10.000Z</Time>
            <Position>
              <LatitudeDegrees>36.83286557905375957489013671875</LatitudeDegrees>
              <LongitudeDegrees>-4.374118633568286895751953125</LongitudeDegrees>
            </Position>
            <AltitudeMeters>657.5999755859375</AltitudeMeters>
            <DistanceMeters>NAN</DistanceMeters>
          </Trackpoint>
          <Trackpoint>
            <Time>2020-12-05T10:54:11.000Z</Time>
            <Position>
              <LatitudeDegrees>36.832856945693492889404296875</LatitudeDegrees>
              <LongitudeDegrees>-4.3741084076464176177978515625</LongitudeDegrees>
            </Position>
            <AltitudeMeters>657.5999755859375</AltitudeMeters>
            <DistanceMeters>NAN</DistanceMeters>
          </Trackpoint>
          <Trackpoint>
            <Time>2020-12-05T10:54:12.000Z</Time>
            <Position>
              <LatitudeDegrees>36.83284881524741649627685546875</LatitudeDegrees>
              <LongitudeDegrees>-4.374100863933563232421875</LongitudeDegrees>
            </Position>
            <AltitudeMeters>657.4000244140625</AltitudeMeters>
            <DistanceMeters>NAN</DistanceMeters>
          </Trackpoint>
          <Trackpoint>
            <Time>2020-12-05T10:54:13.000Z</Time>
            <Position>
              <LatitudeDegrees>36.83284244500100612640380859375</LatitudeDegrees>
              <LongitudeDegrees>-4.3740903027355670928955078125</LongitudeDegrees>
            </Position>
            <AltitudeMeters>657.4000244140625</AltitudeMeters>
            <DistanceMeters>NAN</DistanceMeters>
          </Trackpoint>
          <Trackpoint>
            <Time>2020-12-05T10:54:14.000Z</Time>
            <Position>
              <LatitudeDegrees>36.83283272199332714080810546875</LatitudeDegrees>
              <LongitudeDegrees>-4.37407613731920719146728515625</LongitudeDegrees>
            </Position>
            <AltitudeMeters>657.5999755859375</AltitudeMeters>
            <DistanceMeters>NAN</DistanceMeters>
          </Trackpoint>
          <Trackpoint>
            <Time>2020-12-05T10:54:15.000Z</Time>
            <Position>
              <LatitudeDegrees>36.8328212387859821319580078125</LatitudeDegrees>
              <LongitudeDegrees>-4.3740574456751346588134765625</LongitudeDegrees>
            </Position>
            <AltitudeMeters>657.5999755859375</AltitudeMeters>
            <DistanceMeters>NAN</DistanceMeters>
          </Trackpoint>
          <Trackpoint>
            <Time>2020-12-05T10:54:16.000Z</Time>
            <Position>
              <LatitudeDegrees>36.8328155390918254852294921875</LatitudeDegrees>
              <LongitudeDegrees>-4.374044872820377349853515625</LongitudeDegrees>
            </Position>
            <AltitudeMeters>657.5999755859375</AltitudeMeters>
            <DistanceMeters>NAN</DistanceMeters>
          </Trackpoint>
          <Trackpoint>
            <Time>2020-12-05T10:54:17.000Z</Time>
            <Position>
              <LatitudeDegrees>36.8328081630170345306396484375</LatitudeDegrees>
              <LongitudeDegrees>-4.374026097357273101806640625</LongitudeDegrees>
            </Position>
            <AltitudeMeters>657.5999755859375</AltitudeMeters>
            <DistanceMeters>NAN</DistanceMeters>
          </Trackpoint>
          <Trackpoint>
            <Time>2020-12-05T10:54:18.000Z</Time>
            <Position>
              <LatitudeDegrees>36.83280120603740215301513671875</LatitudeDegrees>
              <LongitudeDegrees>-4.3740118481218814849853515625</LongitudeDegrees>
            </Position>
            <AltitudeMeters>657.5999755859375</AltitudeMeters>
            <DistanceMeters>NAN</DistanceMeters>
          </Trackpoint>
          <Trackpoint>
            <Time>2020-12-05T10:54:19.000Z</Time>
            <Position>
              <LatitudeDegrees>36.8327893875539302825927734375</LatitudeDegrees>
              <LongitudeDegrees>-4.373995922505855560302734375</LongitudeDegrees>
            </Position>
            <AltitudeMeters>657.5999755859375</AltitudeMeters>
            <DistanceMeters>NAN</DistanceMeters>
          </Trackpoint>
          <Trackpoint>
            <Time>2020-12-05T10:54:20.000Z</Time>
            <Position>
              <LatitudeDegrees>36.83277748525142669677734375</LatitudeDegrees>
              <LongitudeDegrees>-4.373980499804019927978515625</LongitudeDegrees>
            </Position>
            <AltitudeMeters>657.79998779296875</AltitudeMeters>
            <DistanceMeters>NAN</DistanceMeters>
          </Trackpoint>
          <Trackpoint>
            <Time>2020-12-05T10:54:21.000Z</Time>
            <Position>
              <LatitudeDegrees>36.83276734314858913421630859375</LatitudeDegrees>
              <LongitudeDegrees>-4.3739659152925014495849609375</LongitudeDegrees>
            </Position>
            <AltitudeMeters>657.79998779296875</AltitudeMeters>
            <DistanceMeters>NAN</DistanceMeters>
          </Trackpoint>
          <Trackpoint>
            <Time>2020-12-05T10:54:22.000Z</Time>
            <Position>
              <LatitudeDegrees>36.8327580392360687255859375</LatitudeDegrees>
              <LongitudeDegrees>-4.37395426444709300994873046875</LongitudeDegrees>
            </Position>
            <AltitudeMeters>657.79998779296875</AltitudeMeters>
            <DistanceMeters>NAN</DistanceMeters>
          </Trackpoint>
          <Trackpoint>
            <Time>2020-12-05T10:54:23.000Z</Time>
            <Position>
              <LatitudeDegrees>36.83274756185710430145263671875</LatitudeDegrees>
              <LongitudeDegrees>-4.37394403852522373199462890625</LongitudeDegrees>
            </Position>
            <AltitudeMeters>657.79998779296875</AltitudeMeters>
            <DistanceMeters>NAN</DistanceMeters>
          </Trackpoint>
          <Trackpoint>
            <Time>2020-12-05T10:54:24.000Z</Time>
            <Position>
              <LatitudeDegrees>36.83273733593523502349853515625</LatitudeDegrees>
              <LongitudeDegrees>-4.37393163330852985382080078125</LongitudeDegrees>
            </Position>
            <AltitudeMeters>658</AltitudeMeters>
            <DistanceMeters>NAN</DistanceMeters>
          </Trackpoint>
          <Trackpoint>
            <Time>2020-12-05T10:54:25.000Z</Time>
            <Position>
              <LatitudeDegrees>36.83272811584174633026123046875</LatitudeDegrees>
              <LongitudeDegrees>-4.37392073683440685272216796875</LongitudeDegrees>
            </Position>
            <AltitudeMeters>658</AltitudeMeters>
            <DistanceMeters>NAN</DistanceMeters>
          </Trackpoint>
          <Trackpoint>
            <Time>2020-12-05T10:54:26.000Z</Time>
            <Position>
              <LatitudeDegrees>36.8327196501195430755615234375</LatitudeDegrees>
              <LongitudeDegrees>-4.3739102594554424285888671875</LongitudeDegrees>
            </Position>
            <AltitudeMeters>658</AltitudeMeters>
            <DistanceMeters>NAN</DistanceMeters>
          </Trackpoint>
          <Trackpoint>
            <Time>2020-12-05T10:54:27.000Z</Time>
            <Position>
              <LatitudeDegrees>36.83271319605410099029541015625</LatitudeDegrees>
              <LongitudeDegrees>-4.3739064037799835205078125</LongitudeDegrees>
            </Position>
            <AltitudeMeters>657.79998779296875</AltitudeMeters>
            <DistanceMeters>NAN</DistanceMeters>
          </Trackpoint>
          <Trackpoint>
            <Time>2020-12-05T10:54:28.000Z</Time>
            <Position>
              <LatitudeDegrees>36.8327042274177074432373046875</LatitudeDegrees>
              <LongitudeDegrees>-4.37390129081904888153076171875</LongitudeDegrees>
            </Position>
            <AltitudeMeters>657.79998779296875</AltitudeMeters>
            <DistanceMeters>NAN</DistanceMeters>
          </Trackpoint>
          <Trackpoint>
            <Time>2020-12-05T10:54:29.000Z</Time>
            <Position>
              <LatitudeDegrees>36.83269375003874301910400390625</LatitudeDegrees>
              <LongitudeDegrees>-4.37389542348682880401611328125</LongitudeDegrees>
            </Position>
            <AltitudeMeters>657.79998779296875</AltitudeMeters>
            <DistanceMeters>NAN</DistanceMeters>
          </Trackpoint>
          <Trackpoint>
            <Time>2020-12-05T10:54:30.000Z</Time>
            <Position>
              <LatitudeDegrees>36.83268553577363491058349609375</LatitudeDegrees>
              <LongitudeDegrees>-4.37389140017330646514892578125</LongitudeDegrees>
            </Position>
            <AltitudeMeters>657.79998779296875</AltitudeMeters>
            <DistanceMeters>NAN</DistanceMeters>
          </Trackpoint>
          <Trackpoint>
            <Time>2020-12-05T10:54:31.000Z</Time>
            <Position>
              <LatitudeDegrees>36.832677237689495086669921875</LatitudeDegrees>
              <LongitudeDegrees>-4.373883940279483795166015625</LongitudeDegrees>
            </Position>
            <AltitudeMeters>657.79998779296875</AltitudeMeters>
            <DistanceMeters>NAN</DistanceMeters>
          </Trackpoint>
          <Trackpoint>
            <Time>2020-12-05T10:54:32.000Z</Time>
            <Position>
              <LatitudeDegrees>36.83266055770218372344970703125</LatitudeDegrees>
              <LongitudeDegrees>-4.37385921366512775421142578125</LongitudeDegrees>
            </Position>
            <AltitudeMeters>657.79998779296875</AltitudeMeters>
            <DistanceMeters>NAN</DistanceMeters>
          </Trackpoint>
          <Trackpoint>
            <Time>2020-12-05T10:54:33.000Z</Time>
            <Position>
              <LatitudeDegrees>36.83264605700969696044921875</LatitudeDegrees>
              <LongitudeDegrees>-4.373843036592006683349609375</LongitudeDegrees>
            </Position>
            <AltitudeMeters>657.79998779296875</AltitudeMeters>
            <DistanceMeters>NAN</DistanceMeters>
          </Trackpoint>
          <Trackpoint>
            <Time>2020-12-05T10:54:34.000Z</Time>
            <Position>
              <LatitudeDegrees>36.832638680934906005859375</LatitudeDegrees>
              <LongitudeDegrees>-4.3738438747823238372802734375</LongitudeDegrees>
            </Position>
            <AltitudeMeters>657.79998779296875</AltitudeMeters>
            <DistanceMeters>NAN</DistanceMeters>
          </Trackpoint>
          <Trackpoint>
            <Time>2020-12-05T10:54:35.000Z</Time>
            <Position>
              <LatitudeDegrees>36.83263574726879596710205078125</LatitudeDegrees>
              <LongitudeDegrees>-4.37384161166846752166748046875</LongitudeDegrees>
            </Position>
            <AltitudeMeters>658</AltitudeMeters>
            <DistanceMeters>NAN</DistanceMeters>
          </Trackpoint>
          <Trackpoint>
            <Time>2020-12-05T10:54:36.000Z</Time>
            <Position>
              <LatitudeDegrees>36.83263088576495647430419921875</LatitudeDegrees>
              <LongitudeDegrees>-4.37383825890719890594482421875</LongitudeDegrees>
            </Position>
            <AltitudeMeters>658</AltitudeMeters>
            <DistanceMeters>NAN</DistanceMeters>
          </Trackpoint>
          <Trackpoint>
            <Time>2020-12-05T10:54:37.000Z</Time>
            <Position>
              <LatitudeDegrees>36.83262853883206844329833984375</LatitudeDegrees>
              <LongitudeDegrees>-4.37383675016462802886962890625</LongitudeDegrees>
            </Position>
            <AltitudeMeters>658</AltitudeMeters>
            <DistanceMeters>NAN</DistanceMeters>
          </Trackpoint>
          <Trackpoint>
            <Time>2020-12-05T10:54:38.000Z</Time>
            <Position>
              <LatitudeDegrees>36.832627952098846435546875</LatitudeDegrees>
              <LongitudeDegrees>-4.37383356504142284393310546875</LongitudeDegrees>
            </Position>
            <AltitudeMeters>657.79998779296875</AltitudeMeters>
            <DistanceMeters>NAN</DistanceMeters>
          </Trackpoint>
          <Trackpoint>
            <Time>2020-12-05T10:54:39.000Z</Time>
            <Position>
              <LatitudeDegrees>36.832626946270465850830078125</LatitudeDegrees>
              <LongitudeDegrees>-4.37382970936596393585205078125</LongitudeDegrees>
            </Position>
            <AltitudeMeters>657.5999755859375</AltitudeMeters>
            <DistanceMeters>NAN</DistanceMeters>
          </Trackpoint>
          <Trackpoint>
            <Time>2020-12-05T10:54:40.000Z</Time>
            <Position>
              <LatitudeDegrees>36.83262820355594158172607421875</LatitudeDegrees>
              <LongitudeDegrees>-4.37382618896663188934326171875</LongitudeDegrees>
            </Position>
            <AltitudeMeters>657.5999755859375</AltitudeMeters>
            <DistanceMeters>NAN</DistanceMeters>
          </Trackpoint>
          <Trackpoint>
            <Time>2020-12-05T10:54:41.000Z</Time>
            <Position>
              <LatitudeDegrees>36.832629628479480743408203125</LatitudeDegrees>
              <LongitudeDegrees>-4.3738220818340778350830078125</LongitudeDegrees>
            </Position>
            <AltitudeMeters>657.5999755859375</AltitudeMeters>
            <DistanceMeters>NAN</DistanceMeters>
          </Trackpoint>
          <Trackpoint>
            <Time>2020-12-05T10:54:42.000Z</Time>
            <Position>
              <LatitudeDegrees>36.83263222686946392059326171875</LatitudeDegrees>
              <LongitudeDegrees>-4.373818226158618927001953125</LongitudeDegrees>
            </Position>
            <AltitudeMeters>657.4000244140625</AltitudeMeters>
            <DistanceMeters>NAN</DistanceMeters>
          </Trackpoint>
          <Trackpoint>
            <Time>2020-12-05T10:54:43.000Z</Time>
            <Position>
              <LatitudeDegrees>36.83263264596462249755859375</LatitudeDegrees>
              <LongitudeDegrees>-4.37380841933190822601318359375</LongitudeDegrees>
            </Position>
            <AltitudeMeters>657.4000244140625</AltitudeMeters>
            <DistanceMeters>NAN</DistanceMeters>
          </Trackpoint>
          <Trackpoint>
            <Time>2020-12-05T10:54:44.000Z</Time>
            <Position>
              <LatitudeDegrees>36.832631640136241912841796875</LatitudeDegrees>
              <LongitudeDegrees>-4.3737919069826602935791015625</LongitudeDegrees>
            </Position>
            <AltitudeMeters>657.4000244140625</AltitudeMeters>
            <DistanceMeters>NAN</DistanceMeters>
          </Trackpoint>
          <Trackpoint>
            <Time>2020-12-05T10:54:45.000Z</Time>
            <Position>
              <LatitudeDegrees>36.83263122104108333587646484375</LatitudeDegrees>
              <LongitudeDegrees>-4.37377539463341236114501953125</LongitudeDegrees>
            </Position>
            <AltitudeMeters>657.4000244140625</AltitudeMeters>
            <DistanceMeters>NAN</DistanceMeters>
          </Trackpoint>
          <Trackpoint>
            <Time>2020-12-05T10:54:46.000Z</Time>
            <Position>
              <LatitudeDegrees>36.83262837119400501251220703125</LatitudeDegrees>
              <LongitudeDegrees>-4.37376282177865505218505859375</LongitudeDegrees>
            </Position>
            <AltitudeMeters>657.4000244140625</AltitudeMeters>
            <DistanceMeters>NAN</DistanceMeters>
          </Trackpoint>
          <Trackpoint>
            <Time>2020-12-05T10:54:47.000Z</Time>
            <Position>
              <LatitudeDegrees>36.8326251022517681121826171875</LatitudeDegrees>
              <LongitudeDegrees>-4.3737493269145488739013671875</LongitudeDegrees>
            </Position>
            <AltitudeMeters>657.4000244140625</AltitudeMeters>
            <DistanceMeters>NAN</DistanceMeters>
          </Trackpoint>
          <Trackpoint>
            <Time>2020-12-05T10:54:48.000Z</Time>
            <Position>
              <LatitudeDegrees>36.83262216858565807342529296875</LatitudeDegrees>
              <LongitudeDegrees>-4.3737325631082057952880859375</LongitudeDegrees>
            </Position>
            <AltitudeMeters>657.4000244140625</AltitudeMeters>
            <DistanceMeters>NAN</DistanceMeters>
          </Trackpoint>
          <Trackpoint>
            <Time>2020-12-05T10:54:49.000Z</Time>
            <Position>
              <LatitudeDegrees>36.83261764235794544219970703125</LatitudeDegrees>
              <LongitudeDegrees>-4.3737137876451015472412109375</LongitudeDegrees>
            </Position>
            <AltitudeMeters>657.4000244140625</AltitudeMeters>
            <DistanceMeters>NAN</DistanceMeters>
          </Trackpoint>
          <Trackpoint>
            <Time>2020-12-05T10:54:50.000Z</Time>
            <Position>
              <LatitudeDegrees>36.83260984718799591064453125</LatitudeDegrees>
              <LongitudeDegrees>-4.37369375489652156829833984375</LongitudeDegrees>
            </Position>
            <AltitudeMeters>657.4000244140625</AltitudeMeters>
            <DistanceMeters>NAN</DistanceMeters>
          </Trackpoint>
          <Trackpoint>
            <Time>2020-12-05T10:54:51.000Z</Time>
            <Position>
              <LatitudeDegrees>36.83259970508515834808349609375</LatitudeDegrees>
              <LongitudeDegrees>-4.37367246486246585845947265625</LongitudeDegrees>
            </Position>
            <AltitudeMeters>657.4000244140625</AltitudeMeters>
            <DistanceMeters>NAN</DistanceMeters>
          </Trackpoint>
          <Trackpoint>
            <Time>2020-12-05T10:54:52.000Z</Time>
            <Position>
              <LatitudeDegrees>36.832592077553272247314453125</LatitudeDegrees>
              <LongitudeDegrees>-4.37365955673158168792724609375</LongitudeDegrees>
            </Position>
            <AltitudeMeters>657.4000244140625</AltitudeMeters>
            <DistanceMeters>NAN</DistanceMeters>
          </Trackpoint>
          <Trackpoint>
            <Time>2020-12-05T10:54:53.000Z</Time>
            <Position>
              <LatitudeDegrees>36.83258914388716220855712890625</LatitudeDegrees>
              <LongitudeDegrees>-4.37364715151488780975341796875</LongitudeDegrees>
            </Position>
            <AltitudeMeters>657.5999755859375</AltitudeMeters>
            <DistanceMeters>NAN</DistanceMeters>
          </Trackpoint>
          <Trackpoint>
            <Time>2020-12-05T10:54:54.000Z</Time>
            <Position>
              <LatitudeDegrees>36.832584030926227569580078125</LatitudeDegrees>
              <LongitudeDegrees>-4.37363407574594020843505859375</LongitudeDegrees>
            </Position>
            <AltitudeMeters>657.5999755859375</AltitudeMeters>
            <DistanceMeters>NAN</DistanceMeters>
          </Trackpoint>
          <Trackpoint>
            <Time>2020-12-05T10:54:55.000Z</Time>
            <Position>
              <LatitudeDegrees>36.832582019269466400146484375</LatitudeDegrees>
              <LongitudeDegrees>-4.3736195750534534454345703125</LongitudeDegrees>
            </Position>
            <AltitudeMeters>657.79998779296875</AltitudeMeters>
            <DistanceMeters>NAN</DistanceMeters>
          </Trackpoint>
          <Trackpoint>
            <Time>2020-12-05T10:54:56.000Z</Time>
            <Position>
              <LatitudeDegrees>36.83257757686078548431396484375</LatitudeDegrees>
              <LongitudeDegrees>-4.37360465526580810546875</LongitudeDegrees>
            </Position>
            <AltitudeMeters>658</AltitudeMeters>
            <DistanceMeters>NAN</DistanceMeters>
          </Trackpoint>
          <Trackpoint>
            <Time>2020-12-05T10:54:57.000Z</Time>
            <Position>
              <LatitudeDegrees>36.83257238008081912994384765625</LatitudeDegrees>
              <LongitudeDegrees>-4.3735899031162261962890625</LongitudeDegrees>
            </Position>
            <AltitudeMeters>658</AltitudeMeters>
            <DistanceMeters>NAN</DistanceMeters>
          </Trackpoint>
          <Trackpoint>
            <Time>2020-12-05T10:54:58.000Z</Time>
            <Position>
              <LatitudeDegrees>36.83256550692021846771240234375</LatitudeDegrees>
              <LongitudeDegrees>-4.37357154674828052520751953125</LongitudeDegrees>
            </Position>
            <AltitudeMeters>658.20001220703125</AltitudeMeters>
            <DistanceMeters>NAN</DistanceMeters>
          </Trackpoint>
          <Trackpoint>
            <Time>2020-12-05T10:54:59.000Z</Time>
            <Position>
              <LatitudeDegrees>36.83256248943507671356201171875</LatitudeDegrees>
              <LongitudeDegrees>-4.3735575489699840545654296875</LongitudeDegrees>
            </Position>
            <AltitudeMeters>658.4000244140625</AltitudeMeters>
            <DistanceMeters>NAN</DistanceMeters>
          </Trackpoint>
          <Trackpoint>
            <Time>2020-12-05T10:55:00.000Z</Time>
            <Position>
              <LatitudeDegrees>36.83255662210285663604736328125</LatitudeDegrees>
              <LongitudeDegrees>-4.37354371882975101470947265625</LongitudeDegrees>
            </Position>
            <AltitudeMeters>658.5999755859375</AltitudeMeters>
            <DistanceMeters>NAN</DistanceMeters>
          </Trackpoint>
          <Trackpoint>
            <Time>2020-12-05T10:55:01.000Z</Time>
            <Position>
              <LatitudeDegrees>36.83255326934158802032470703125</LatitudeDegrees>
              <LongitudeDegrees>-4.3735282123088836669921875</LongitudeDegrees>
            </Position>
            <AltitudeMeters>658.79998779296875</AltitudeMeters>
            <DistanceMeters>NAN</DistanceMeters>
          </Trackpoint>
          <Trackpoint>
            <Time>2020-12-05T10:55:02.000Z</Time>
            <Position>
              <LatitudeDegrees>36.8325489945709705352783203125</LatitudeDegrees>
              <LongitudeDegrees>-4.37351086176931858062744140625</LongitudeDegrees>
            </Position>
            <AltitudeMeters>659</AltitudeMeters>
            <DistanceMeters>NAN</DistanceMeters>
          </Trackpoint>
          <Trackpoint>
            <Time>2020-12-05T10:55:03.000Z</Time>
            <Position>
              <LatitudeDegrees>36.83254572562873363494873046875</LatitudeDegrees>
              <LongitudeDegrees>-4.3734935112297534942626953125</LongitudeDegrees>
            </Position>
            <AltitudeMeters>659.20001220703125</AltitudeMeters>
            <DistanceMeters>NAN</DistanceMeters>
          </Trackpoint>
          <Trackpoint>
            <Time>2020-12-05T10:55:04.000Z</Time>
            <Position>
              <LatitudeDegrees>36.83254153467714786529541015625</LatitudeDegrees>
              <LongitudeDegrees>-4.37347431667149066925048828125</LongitudeDegrees>
            </Position>
            <AltitudeMeters>659.4000244140625</AltitudeMeters>
            <DistanceMeters>NAN</DistanceMeters>
          </Trackpoint>
          <Trackpoint>
            <Time>2020-12-05T10:55:05.000Z</Time>
            <Position>
              <LatitudeDegrees>36.8325392715632915496826171875</LatitudeDegrees>
              <LongitudeDegrees>-4.3734573014080524444580078125</LongitudeDegrees>
            </Position>
            <AltitudeMeters>659.4000244140625</AltitudeMeters>
            <DistanceMeters>NAN</DistanceMeters>
          </Trackpoint>
          <Trackpoint>
            <Time>2020-12-05T10:55:06.000Z</Time>
            <Position>
              <LatitudeDegrees>36.832539103925228118896484375</LatitudeDegrees>
              <LongitudeDegrees>-4.37343928031623363494873046875</LongitudeDegrees>
            </Position>
            <AltitudeMeters>659.4000244140625</AltitudeMeters>
            <DistanceMeters>NAN</DistanceMeters>
          </Trackpoint>
          <Trackpoint>
            <Time>2020-12-05T10:55:07.000Z</Time>
            <Position>
              <LatitudeDegrees>36.83253868483006954193115234375</LatitudeDegrees>
              <LongitudeDegrees>-4.37342293560504913330078125</LongitudeDegrees>
            </Position>
            <AltitudeMeters>659.5999755859375</AltitudeMeters>
            <DistanceMeters>NAN</DistanceMeters>
          </Trackpoint>
          <Trackpoint>
            <Time>2020-12-05T10:55:08.000Z</Time>
            <Position>
              <LatitudeDegrees>36.83253767900168895721435546875</LatitudeDegrees>
              <LongitudeDegrees>-4.3734130449593067169189453125</LongitudeDegrees>
            </Position>
            <AltitudeMeters>659.5999755859375</AltitudeMeters>
            <DistanceMeters>NAN</DistanceMeters>
          </Trackpoint>
          <Trackpoint>
            <Time>2020-12-05T10:55:09.000Z</Time>
            <Position>
              <LatitudeDegrees>36.832541115581989288330078125</LatitudeDegrees>
              <LongitudeDegrees>-4.3734029866755008697509765625</LongitudeDegrees>
            </Position>
            <AltitudeMeters>659.5999755859375</AltitudeMeters>
            <DistanceMeters>NAN</DistanceMeters>
          </Trackpoint>
          <Trackpoint>
            <Time>2020-12-05T10:55:10.000Z</Time>
            <Position>
              <LatitudeDegrees>36.83254522271454334259033203125</LatitudeDegrees>
              <LongitudeDegrees>-4.3733902461826801300048828125</LongitudeDegrees>
            </Position>
            <AltitudeMeters>659.5999755859375</AltitudeMeters>
            <DistanceMeters>NAN</DistanceMeters>
          </Trackpoint>
          <Trackpoint>
            <Time>2020-12-05T10:55:11.000Z</Time>
            <Position>
              <LatitudeDegrees>36.83255016803741455078125</LatitudeDegrees>
              <LongitudeDegrees>-4.3733780086040496826171875</LongitudeDegrees>
            </Position>
            <AltitudeMeters>659.5999755859375</AltitudeMeters>
            <DistanceMeters>NAN</DistanceMeters>
          </Trackpoint>
          <Trackpoint>
            <Time>2020-12-05T10:55:12.000Z</Time>
            <Position>
              <LatitudeDegrees>36.83255695737898349761962890625</LatitudeDegrees>
              <LongitudeDegrees>-4.3733647651970386505126953125</LongitudeDegrees>
            </Position>
            <AltitudeMeters>659.79998779296875</AltitudeMeters>
            <DistanceMeters>NAN</DistanceMeters>
          </Trackpoint>
          <Trackpoint>
            <Time>2020-12-05T10:55:13.000Z</Time>
            <Position>
              <LatitudeDegrees>36.8325649201869964599609375</LatitudeDegrees>
              <LongitudeDegrees>-4.373351521790027618408203125</LongitudeDegrees>
            </Position>
            <AltitudeMeters>659.79998779296875</AltitudeMeters>
            <DistanceMeters>NAN</DistanceMeters>
          </Trackpoint>
          <Trackpoint>
            <Time>2020-12-05T10:55:14.000Z</Time>
            <Position>
              <LatitudeDegrees>36.83257497847080230712890625</LatitudeDegrees>
              <LongitudeDegrees>-4.37333852984011173248291015625</LongitudeDegrees>
            </Position>
            <AltitudeMeters>659.79998779296875</AltitudeMeters>
            <DistanceMeters>NAN</DistanceMeters>
          </Trackpoint>
          <Trackpoint>
            <Time>2020-12-05T10:55:15.000Z</Time>
            <Position>
              <LatitudeDegrees>36.83258595876395702362060546875</LatitudeDegrees>
              <LongitudeDegrees>-4.37332277186214923858642578125</LongitudeDegrees>
            </Position>
            <AltitudeMeters>660</AltitudeMeters>
            <DistanceMeters>NAN</DistanceMeters>
          </Trackpoint>
          <Trackpoint>
            <Time>2020-12-05T10:55:16.000Z</Time>
            <Position>
              <LatitudeDegrees>36.83259266428649425506591796875</LatitudeDegrees>
              <LongitudeDegrees>-4.37330424785614013671875</LongitudeDegrees>
            </Position>
            <AltitudeMeters>660.20001220703125</AltitudeMeters>
            <DistanceMeters>NAN</DistanceMeters>
          </Trackpoint>
          <Trackpoint>
            <Time>2020-12-05T10:55:17.000Z</Time>
            <Position>
              <LatitudeDegrees>36.83259802870452404022216796875</LatitudeDegrees>
              <LongitudeDegrees>-4.37329025007784366607666015625</LongitudeDegrees>
            </Position>
            <AltitudeMeters>660.20001220703125</AltitudeMeters>
            <DistanceMeters>NAN</DistanceMeters>
          </Trackpoint>
          <Trackpoint>
            <Time>2020-12-05T10:55:18.000Z</Time>
            <Position>
              <LatitudeDegrees>36.832603476941585540771484375</LatitudeDegrees>
              <LongitudeDegrees>-4.373277090489864349365234375</LongitudeDegrees>
            </Position>
            <AltitudeMeters>660.4000244140625</AltitudeMeters>
            <DistanceMeters>NAN</DistanceMeters>
          </Trackpoint>
          <Trackpoint>
            <Time>2020-12-05T10:55:19.000Z</Time>
            <Position>
              <LatitudeDegrees>36.83260724879801273345947265625</LatitudeDegrees>
              <LongitudeDegrees>-4.373266361653804779052734375</LongitudeDegrees>
            </Position>
            <AltitudeMeters>660.4000244140625</AltitudeMeters>
            <DistanceMeters>NAN</DistanceMeters>
          </Trackpoint>
          <Trackpoint>
            <Time>2020-12-05T10:55:20.000Z</Time>
            <Position>
              <LatitudeDegrees>36.83260993100702762603759765625</LatitudeDegrees>
              <LongitudeDegrees>-4.373257644474506378173828125</LongitudeDegrees>
            </Position>
            <AltitudeMeters>660.5999755859375</AltitudeMeters>
            <DistanceMeters>NAN</DistanceMeters>
          </Trackpoint>
          <Trackpoint>
            <Time>2020-12-05T10:55:21.000Z</Time>
            <Position>
              <LatitudeDegrees>36.83261428959667682647705078125</LatitudeDegrees>
              <LongitudeDegrees>-4.3732492625713348388671875</LongitudeDegrees>
            </Position>
            <AltitudeMeters>660.5999755859375</AltitudeMeters>
            <DistanceMeters>NAN</DistanceMeters>
          </Trackpoint>
          <Trackpoint>
            <Time>2020-12-05T10:55:22.000Z</Time>
            <Position>
              <LatitudeDegrees>36.83261814527213573455810546875</LatitudeDegrees>
              <LongitudeDegrees>-4.373236857354640960693359375</LongitudeDegrees>
            </Position>
            <AltitudeMeters>660.5999755859375</AltitudeMeters>
            <DistanceMeters>NAN</DistanceMeters>
          </Trackpoint>
          <Trackpoint>
            <Time>2020-12-05T10:55:23.000Z</Time>
            <Position>
              <LatitudeDegrees>36.83262526988983154296875</LatitudeDegrees>
              <LongitudeDegrees>-4.37322420068085193634033203125</LongitudeDegrees>
            </Position>
            <AltitudeMeters>660.5999755859375</AltitudeMeters>
            <DistanceMeters>NAN</DistanceMeters>
          </Trackpoint>
          <Trackpoint>
            <Time>2020-12-05T10:55:24.000Z</Time>
            <Position>
              <LatitudeDegrees>36.83263289742171764373779296875</LatitudeDegrees>
              <LongitudeDegrees>-4.37321112491190433502197265625</LongitudeDegrees>
            </Position>
            <AltitudeMeters>660.79998779296875</AltitudeMeters>
            <DistanceMeters>NAN</DistanceMeters>
          </Trackpoint>
          <Trackpoint>
            <Time>2020-12-05T10:55:25.000Z</Time>
            <Position>
              <LatitudeDegrees>36.8326408602297306060791015625</LatitudeDegrees>
              <LongitudeDegrees>-4.37319469638168811798095703125</LongitudeDegrees>
            </Position>
            <AltitudeMeters>660.79998779296875</AltitudeMeters>
            <DistanceMeters>NAN</DistanceMeters>
          </Trackpoint>
          <Trackpoint>
            <Time>2020-12-05T10:55:26.000Z</Time>
            <Position>
              <LatitudeDegrees>36.83264949358999729156494140625</LatitudeDegrees>
              <LongitudeDegrees>-4.37317659147083759307861328125</LongitudeDegrees>
            </Position>
            <AltitudeMeters>660.79998779296875</AltitudeMeters>
            <DistanceMeters>NAN</DistanceMeters>
          </Trackpoint>
          <Trackpoint>
            <Time>2020-12-05T10:55:27.000Z</Time>
            <Position>
              <LatitudeDegrees>36.8326596356928348541259765625</LatitudeDegrees>
              <LongitudeDegrees>-4.37315781600773334503173828125</LongitudeDegrees>
            </Position>
            <AltitudeMeters>660.79998779296875</AltitudeMeters>
            <DistanceMeters>NAN</DistanceMeters>
          </Trackpoint>
          <Trackpoint>
            <Time>2020-12-05T10:55:28.000Z</Time>
            <Position>
              <LatitudeDegrees>36.83266642503440380096435546875</LatitudeDegrees>
              <LongitudeDegrees>-4.3731419742107391357421875</LongitudeDegrees>
            </Position>
            <AltitudeMeters>660.79998779296875</AltitudeMeters>
            <DistanceMeters>NAN</DistanceMeters>
          </Trackpoint>
          <Trackpoint>
            <Time>2020-12-05T10:55:29.000Z</Time>
            <Position>
              <LatitudeDegrees>36.8326740525662899017333984375</LatitudeDegrees>
              <LongitudeDegrees>-4.37312814407050609588623046875</LongitudeDegrees>
            </Position>
            <AltitudeMeters>661</AltitudeMeters>
            <DistanceMeters>NAN</DistanceMeters>
          </Trackpoint>
          <Trackpoint>
            <Time>2020-12-05T10:55:30.000Z</Time>
            <Position>
              <LatitudeDegrees>36.83268352411687374114990234375</LatitudeDegrees>
              <LongitudeDegrees>-4.3731112964451313018798828125</LongitudeDegrees>
            </Position>
            <AltitudeMeters>661</AltitudeMeters>
            <DistanceMeters>NAN</DistanceMeters>
          </Trackpoint>
          <Trackpoint>
            <Time>2020-12-05T10:55:31.000Z</Time>
            <Position>
              <LatitudeDegrees>36.8326914869248867034912109375</LatitudeDegrees>
              <LongitudeDegrees>-4.37309646047651767730712890625</LongitudeDegrees>
            </Position>
            <AltitudeMeters>661.20001220703125</AltitudeMeters>
            <DistanceMeters>NAN</DistanceMeters>
          </Trackpoint>
          <Trackpoint>
            <Time>2020-12-05T10:55:32.000Z</Time>
            <Position>
              <LatitudeDegrees>36.8326978571712970733642578125</LatitudeDegrees>
              <LongitudeDegrees>-4.37308271415531635284423828125</LongitudeDegrees>
            </Position>
            <AltitudeMeters>661.20001220703125</AltitudeMeters>
            <DistanceMeters>NAN</DistanceMeters>
          </Trackpoint>
          <Trackpoint>
            <Time>2020-12-05T10:55:33.000Z</Time>
            <Position>
              <LatitudeDegrees>36.83270506560802459716796875</LatitudeDegrees>
              <LongitudeDegrees>-4.37306779436767101287841796875</LongitudeDegrees>
            </Position>
            <AltitudeMeters>661.20001220703125</AltitudeMeters>
            <DistanceMeters>NAN</DistanceMeters>
          </Trackpoint>
          <Trackpoint>
            <Time>2020-12-05T10:55:34.000Z</Time>
            <Position>
              <LatitudeDegrees>36.8327119387686252593994140625</LatitudeDegrees>
              <LongitudeDegrees>-4.37305153347551822662353515625</LongitudeDegrees>
            </Position>
            <AltitudeMeters>661.20001220703125</AltitudeMeters>
            <DistanceMeters>NAN</DistanceMeters>
          </Trackpoint>
          <Trackpoint>
            <Time>2020-12-05T10:55:35.000Z</Time>
            <Position>
              <LatitudeDegrees>36.83271889574825763702392578125</LatitudeDegrees>
              <LongitudeDegrees>-4.37303510494530200958251953125</LongitudeDegrees>
            </Position>
            <AltitudeMeters>661.20001220703125</AltitudeMeters>
            <DistanceMeters>NAN</DistanceMeters>
          </Trackpoint>
          <Trackpoint>
            <Time>2020-12-05T10:55:36.000Z</Time>
            <Position>
              <LatitudeDegrees>36.8327213265001773834228515625</LatitudeDegrees>
              <LongitudeDegrees>-4.37301850877702236175537109375</LongitudeDegrees>
            </Position>
            <AltitudeMeters>661.20001220703125</AltitudeMeters>
            <DistanceMeters>NAN</DistanceMeters>
          </Trackpoint>
          <Trackpoint>
            <Time>2020-12-05T10:55:37.000Z</Time>
            <Position>
              <LatitudeDegrees>36.8327226676046848297119140625</LatitudeDegrees>
              <LongitudeDegrees>-4.37300777994096279144287109375</LongitudeDegrees>
            </Position>
            <AltitudeMeters>661</AltitudeMeters>
            <DistanceMeters>NAN</DistanceMeters>
          </Trackpoint>
          <Trackpoint>
            <Time>2020-12-05T10:55:38.000Z</Time>
            <Position>
              <LatitudeDegrees>36.83272560127079486846923828125</LatitudeDegrees>
              <LongitudeDegrees>-4.373002834618091583251953125</LongitudeDegrees>
            </Position>
            <AltitudeMeters>661</AltitudeMeters>
            <DistanceMeters>NAN</DistanceMeters>
          </Trackpoint>
          <Trackpoint>
            <Time>2020-12-05T10:55:39.000Z</Time>
            <Position>
              <LatitudeDegrees>36.832729540765285491943359375</LatitudeDegrees>
              <LongitudeDegrees>-4.37299755401909351348876953125</LongitudeDegrees>
            </Position>
            <AltitudeMeters>661</AltitudeMeters>
            <DistanceMeters>NAN</DistanceMeters>
          </Trackpoint>
          <Trackpoint>
            <Time>2020-12-05T10:55:40.000Z</Time>
            <Position>
              <LatitudeDegrees>36.832734234631061553955078125</LatitudeDegrees>
              <LongitudeDegrees>-4.372990094125270843505859375</LongitudeDegrees>
            </Position>
            <AltitudeMeters>661</AltitudeMeters>
            <DistanceMeters>NAN</DistanceMeters>
          </Trackpoint>
          <Trackpoint>
            <Time>2020-12-05T10:55:41.000Z</Time>
            <Position>
              <LatitudeDegrees>36.8327380903065204620361328125</LatitudeDegrees>
              <LongitudeDegrees>-4.37298380769789218902587890625</LongitudeDegrees>
            </Position>
            <AltitudeMeters>661</AltitudeMeters>
            <DistanceMeters>NAN</DistanceMeters>
          </Trackpoint>
          <Trackpoint>
            <Time>2020-12-05T10:55:42.000Z</Time>
            <Position>
              <LatitudeDegrees>36.83274337090551853179931640625</LatitudeDegrees>
              <LongitudeDegrees>-4.3729783594608306884765625</LongitudeDegrees>
            </Position>
            <AltitudeMeters>661</AltitudeMeters>
            <DistanceMeters>NAN</DistanceMeters>
          </Trackpoint>
          <Trackpoint>
            <Time>2020-12-05T10:55:43.000Z</Time>
            <Position>
              <LatitudeDegrees>36.83274923823773860931396484375</LatitudeDegrees>
              <LongitudeDegrees>-4.37297224067151546478271484375</LongitudeDegrees>
            </Position>
            <AltitudeMeters>661</AltitudeMeters>
            <DistanceMeters>NAN</DistanceMeters>
          </Trackpoint>
          <Trackpoint>
            <Time>2020-12-05T10:55:44.000Z</Time>
            <Position>
              <LatitudeDegrees>36.83275468647480010986328125</LatitudeDegrees>
              <LongitudeDegrees>-4.372963942587375640869140625</LongitudeDegrees>
            </Position>
            <AltitudeMeters>661.20001220703125</AltitudeMeters>
            <DistanceMeters>NAN</DistanceMeters>
          </Trackpoint>
          <Trackpoint>
            <Time>2020-12-05T10:55:45.000Z</Time>
            <Position>
              <LatitudeDegrees>36.83276114054024219512939453125</LatitudeDegrees>
              <LongitudeDegrees>-4.372955225408077239990234375</LongitudeDegrees>
            </Position>
            <AltitudeMeters>661.20001220703125</AltitudeMeters>
            <DistanceMeters>NAN</DistanceMeters>
          </Trackpoint>
          <Trackpoint>
            <Time>2020-12-05T10:55:46.000Z</Time>
            <Position>
              <LatitudeDegrees>36.832767091691493988037109375</LatitudeDegrees>
              <LongitudeDegrees>-4.37293921597301959991455078125</LongitudeDegrees>
            </Position>
            <AltitudeMeters>661.20001220703125</AltitudeMeters>
            <DistanceMeters>NAN</DistanceMeters>
          </Trackpoint>
          <Trackpoint>
            <Time>2020-12-05T10:55:47.000Z</Time>
            <Position>
              <LatitudeDegrees>36.83277212083339691162109375</LatitudeDegrees>
              <LongitudeDegrees>-4.37292580492794513702392578125</LongitudeDegrees>
            </Position>
            <AltitudeMeters>661.4000244140625</AltitudeMeters>
            <DistanceMeters>NAN</DistanceMeters>
          </Trackpoint>
          <Trackpoint>
            <Time>2020-12-05T10:55:48.000Z</Time>
            <Position>
              <LatitudeDegrees>36.83277974836528301239013671875</LatitudeDegrees>
              <LongitudeDegrees>-4.37291205860674381256103515625</LongitudeDegrees>
            </Position>
            <AltitudeMeters>661.4000244140625</AltitudeMeters>
            <DistanceMeters>NAN</DistanceMeters>
          </Trackpoint>
          <Trackpoint>
            <Time>2020-12-05T10:55:49.000Z</Time>
            <Position>
              <LatitudeDegrees>36.83278645388782024383544921875</LatitudeDegrees>
              <LongitudeDegrees>-4.3728990666568279266357421875</LongitudeDegrees>
            </Position>
            <AltitudeMeters>661.5999755859375</AltitudeMeters>
            <DistanceMeters>NAN</DistanceMeters>
          </Trackpoint>
          <Trackpoint>
            <Time>2020-12-05T10:55:50.000Z</Time>
            <Position>
              <LatitudeDegrees>36.83279265649616718292236328125</LatitudeDegrees>
              <LongitudeDegrees>-4.372888170182704925537109375</LongitudeDegrees>
            </Position>
            <AltitudeMeters>661.79998779296875</AltitudeMeters>
            <DistanceMeters>NAN</DistanceMeters>
          </Trackpoint>
          <Trackpoint>
            <Time>2020-12-05T10:55:51.000Z</Time>
            <Position>
              <LatitudeDegrees>36.8328007869422435760498046875</LatitudeDegrees>
              <LongitudeDegrees>-4.3728786148130893707275390625</LongitudeDegrees>
            </Position>
            <AltitudeMeters>662</AltitudeMeters>
            <DistanceMeters>NAN</DistanceMeters>
          </Trackpoint>
          <Trackpoint>
            <Time>2020-12-05T10:55:52.000Z</Time>
            <Position>
              <LatitudeDegrees>36.83280833065509796142578125</LatitudeDegrees>
              <LongitudeDegrees>-4.372866041958332061767578125</LongitudeDegrees>
            </Position>
            <AltitudeMeters>662.20001220703125</AltitudeMeters>
            <DistanceMeters>NAN</DistanceMeters>
          </Trackpoint>
          <Trackpoint>
            <Time>2020-12-05T10:55:53.000Z</Time>
            <Position>
              <LatitudeDegrees>36.83281461708247661590576171875</LatitudeDegrees>
              <LongitudeDegrees>-4.37285254709422588348388671875</LongitudeDegrees>
            </Position>
            <AltitudeMeters>662.5999755859375</AltitudeMeters>
            <DistanceMeters>NAN</DistanceMeters>
          </Trackpoint>
          <Trackpoint>
            <Time>2020-12-05T10:55:54.000Z</Time>
            <Position>
              <LatitudeDegrees>36.8328197300434112548828125</LatitudeDegrees>
              <LongitudeDegrees>-4.37283687293529510498046875</LongitudeDegrees>
            </Position>
            <AltitudeMeters>662.79998779296875</AltitudeMeters>
            <DistanceMeters>NAN</DistanceMeters>
          </Trackpoint>
          <Trackpoint>
            <Time>2020-12-05T10:55:55.000Z</Time>
            <Position>
              <LatitudeDegrees>36.832824088633060455322265625</LatitudeDegrees>
              <LongitudeDegrees>-4.372818432748317718505859375</LongitudeDegrees>
            </Position>
            <AltitudeMeters>662.79998779296875</AltitudeMeters>
            <DistanceMeters>NAN</DistanceMeters>
          </Trackpoint>
          <Trackpoint>
            <Time>2020-12-05T10:55:56.000Z</Time>
            <Position>
              <LatitudeDegrees>36.8328279443085193634033203125</LatitudeDegrees>
              <LongitudeDegrees>-4.37280225567519664764404296875</LongitudeDegrees>
            </Position>
            <AltitudeMeters>663</AltitudeMeters>
            <DistanceMeters>NAN</DistanceMeters>
          </Trackpoint>
          <Trackpoint>
            <Time>2020-12-05T10:55:57.000Z</Time>
            <Position>
              <LatitudeDegrees>36.83283590711653232574462890625</LatitudeDegrees>
              <LongitudeDegrees>-4.37278800643980503082275390625</LongitudeDegrees>
            </Position>
            <AltitudeMeters>663</AltitudeMeters>
            <DistanceMeters>NAN</DistanceMeters>
          </Trackpoint>
          <Trackpoint>
            <Time>2020-12-05T10:55:58.000Z</Time>
            <Position>
              <LatitudeDegrees>36.83284378610551357269287109375</LatitudeDegrees>
              <LongitudeDegrees>-4.3727743439376354217529296875</LongitudeDegrees>
            </Position>
            <AltitudeMeters>663</AltitudeMeters>
            <DistanceMeters>NAN</DistanceMeters>
          </Trackpoint>
          <Trackpoint>
            <Time>2020-12-05T10:55:59.000Z</Time>
            <Position>
              <LatitudeDegrees>36.83285216800868511199951171875</LatitudeDegrees>
              <LongitudeDegrees>-4.37275984324514865875244140625</LongitudeDegrees>
            </Position>
            <AltitudeMeters>663.20001220703125</AltitudeMeters>
            <DistanceMeters>NAN</DistanceMeters>
          </Trackpoint>
          <Trackpoint>
            <Time>2020-12-05T10:56:00.000Z</Time>
            <Position>
              <LatitudeDegrees>36.83286021463572978973388671875</LatitudeDegrees>
              <LongitudeDegrees>-4.37274743802845478057861328125</LongitudeDegrees>
            </Position>
            <AltitudeMeters>663.20001220703125</AltitudeMeters>
            <DistanceMeters>NAN</DistanceMeters>
          </Trackpoint>
          <Trackpoint>
            <Time>2020-12-05T10:56:01.000Z</Time>
            <Position>
              <LatitudeDegrees>36.83287111110985279083251953125</LatitudeDegrees>
              <LongitudeDegrees>-4.372738637030124664306640625</LongitudeDegrees>
            </Position>
            <AltitudeMeters>663.4000244140625</AltitudeMeters>
            <DistanceMeters>NAN</DistanceMeters>
          </Trackpoint>
          <Trackpoint>
            <Time>2020-12-05T10:56:02.000Z</Time>
            <Position>
              <LatitudeDegrees>36.832877732813358306884765625</LatitudeDegrees>
              <LongitudeDegrees>-4.3727270700037479400634765625</LongitudeDegrees>
            </Position>
            <AltitudeMeters>663.4000244140625</AltitudeMeters>
            <DistanceMeters>NAN</DistanceMeters>
          </Trackpoint>
          <Trackpoint>
            <Time>2020-12-05T10:56:03.000Z</Time>
            <Position>
              <LatitudeDegrees>36.8328849412500858306884765625</LatitudeDegrees>
              <LongitudeDegrees>-4.372715167701244354248046875</LongitudeDegrees>
            </Position>
            <AltitudeMeters>663.5999755859375</AltitudeMeters>
            <DistanceMeters>NAN</DistanceMeters>
          </Trackpoint>
          <Trackpoint>
            <Time>2020-12-05T10:56:04.000Z</Time>
            <Position>
              <LatitudeDegrees>36.83289147913455963134765625</LatitudeDegrees>
              <LongitudeDegrees>-4.372700415551662445068359375</LongitudeDegrees>
            </Position>
            <AltitudeMeters>663.79998779296875</AltitudeMeters>
            <DistanceMeters>NAN</DistanceMeters>
          </Trackpoint>
          <Trackpoint>
            <Time>2020-12-05T10:56:05.000Z</Time>
            <Position>
              <LatitudeDegrees>36.83289776556193828582763671875</LatitudeDegrees>
              <LongitudeDegrees>-4.37268440611660480499267578125</LongitudeDegrees>
            </Position>
            <AltitudeMeters>663.79998779296875</AltitudeMeters>
            <DistanceMeters>NAN</DistanceMeters>
          </Trackpoint>
          <Trackpoint>
            <Time>2020-12-05T10:56:06.000Z</Time>
            <Position>
              <LatitudeDegrees>36.83290497399866580963134765625</LatitudeDegrees>
              <LongitudeDegrees>-4.37266713939607143402099609375</LongitudeDegrees>
            </Position>
            <AltitudeMeters>664</AltitudeMeters>
            <DistanceMeters>NAN</DistanceMeters>
          </Trackpoint>
          <Trackpoint>
            <Time>2020-12-05T10:56:07.000Z</Time>
            <Position>
              <LatitudeDegrees>36.83291302062571048736572265625</LatitudeDegrees>
              <LongitudeDegrees>-4.37265104614198207855224609375</LongitudeDegrees>
            </Position>
            <AltitudeMeters>664.20001220703125</AltitudeMeters>
            <DistanceMeters>NAN</DistanceMeters>
          </Trackpoint>
          <Trackpoint>
            <Time>2020-12-05T10:56:08.000Z</Time>
            <Position>
              <LatitudeDegrees>36.8329214863479137420654296875</LatitudeDegrees>
              <LongitudeDegrees>-4.37263797037303447723388671875</LongitudeDegrees>
            </Position>
            <AltitudeMeters>664.5999755859375</AltitudeMeters>
            <DistanceMeters>NAN</DistanceMeters>
          </Trackpoint>
          <Trackpoint>
            <Time>2020-12-05T10:56:09.000Z</Time>
            <Position>
              <LatitudeDegrees>36.8329271860420703887939453125</LatitudeDegrees>
              <LongitudeDegrees>-4.37262724153697490692138671875</LongitudeDegrees>
            </Position>
            <AltitudeMeters>665</AltitudeMeters>
            <DistanceMeters>NAN</DistanceMeters>
          </Trackpoint>
          <Trackpoint>
            <Time>2020-12-05T10:56:10.000Z</Time>
            <Position>
              <LatitudeDegrees>36.83293079026043415069580078125</LatitudeDegrees>
              <LongitudeDegrees>-4.372615925967693328857421875</LongitudeDegrees>
            </Position>
            <AltitudeMeters>665.4000244140625</AltitudeMeters>
            <DistanceMeters>NAN</DistanceMeters>
          </Trackpoint>
          <Trackpoint>
            <Time>2020-12-05T10:56:11.000Z</Time>
            <Position>
              <LatitudeDegrees>36.83293414302170276641845703125</LatitudeDegrees>
              <LongitudeDegrees>-4.372602514922618865966796875</LongitudeDegrees>
            </Position>
            <AltitudeMeters>665.5999755859375</AltitudeMeters>
            <DistanceMeters>NAN</DistanceMeters>
          </Trackpoint>
          <Trackpoint>
            <Time>2020-12-05T10:56:12.000Z</Time>
            <Position>
              <LatitudeDegrees>36.83293749578297138214111328125</LatitudeDegrees>
              <LongitudeDegrees>-4.37258902005851268768310546875</LongitudeDegrees>
            </Position>
            <AltitudeMeters>665.4000244140625</AltitudeMeters>
            <DistanceMeters>NAN</DistanceMeters>
          </Trackpoint>
          <Trackpoint>
            <Time>2020-12-05T10:56:13.000Z</Time>
            <Position>
              <LatitudeDegrees>36.8329422734677791595458984375</LatitudeDegrees>
              <LongitudeDegrees>-4.3725758604705333709716796875</LongitudeDegrees>
            </Position>
            <AltitudeMeters>665.4000244140625</AltitudeMeters>
            <DistanceMeters>NAN</DistanceMeters>
          </Trackpoint>
          <Trackpoint>
            <Time>2020-12-05T10:56:14.000Z</Time>
            <Position>
              <LatitudeDegrees>36.83294621296226978302001953125</LatitudeDegrees>
              <LongitudeDegrees>-4.3725634552538394927978515625</LongitudeDegrees>
            </Position>
            <AltitudeMeters>665.20001220703125</AltitudeMeters>
            <DistanceMeters>NAN</DistanceMeters>
          </Trackpoint>
          <Trackpoint>
            <Time>2020-12-05T10:56:15.000Z</Time>
            <Position>
              <LatitudeDegrees>36.832954175770282745361328125</LatitudeDegrees>
              <LongitudeDegrees>-4.37255230732262134552001953125</LongitudeDegrees>
            </Position>
            <AltitudeMeters>664.79998779296875</AltitudeMeters>
            <DistanceMeters>NAN</DistanceMeters>
          </Trackpoint>
          <Trackpoint>
            <Time>2020-12-05T10:56:16.000Z</Time>
            <Position>
              <LatitudeDegrees>36.83296121656894683837890625</LatitudeDegrees>
              <LongitudeDegrees>-4.37254023738205432891845703125</LongitudeDegrees>
            </Position>
            <AltitudeMeters>664.4000244140625</AltitudeMeters>
            <DistanceMeters>NAN</DistanceMeters>
          </Trackpoint>
          <Trackpoint>
            <Time>2020-12-05T10:56:17.000Z</Time>
            <Position>
              <LatitudeDegrees>36.83296817354857921600341796875</LatitudeDegrees>
              <LongitudeDegrees>-4.37252514995634555816650390625</LongitudeDegrees>
            </Position>
            <AltitudeMeters>664.20001220703125</AltitudeMeters>
            <DistanceMeters>NAN</DistanceMeters>
          </Trackpoint>
          <Trackpoint>
            <Time>2020-12-05T10:56:18.000Z</Time>
            <Position>
              <LatitudeDegrees>36.83297655545175075531005859375</LatitudeDegrees>
              <LongitudeDegrees>-4.372511319816112518310546875</LongitudeDegrees>
            </Position>
            <AltitudeMeters>664</AltitudeMeters>
            <DistanceMeters>NAN</DistanceMeters>
          </Trackpoint>
          <Trackpoint>
            <Time>2020-12-05T10:56:19.000Z</Time>
            <Position>
              <LatitudeDegrees>36.8329825066030025482177734375</LatitudeDegrees>
              <LongitudeDegrees>-4.3725004233419895172119140625</LongitudeDegrees>
            </Position>
            <AltitudeMeters>663.79998779296875</AltitudeMeters>
            <DistanceMeters>NAN</DistanceMeters>
          </Trackpoint>
          <Trackpoint>
            <Time>2020-12-05T10:56:20.000Z</Time>
            <Position>
              <LatitudeDegrees>36.83299046941101551055908203125</LatitudeDegrees>
              <LongitudeDegrees>-4.37248818576335906982421875</LongitudeDegrees>
            </Position>
            <AltitudeMeters>663.79998779296875</AltitudeMeters>
            <DistanceMeters>NAN</DistanceMeters>
          </Trackpoint>
          <Trackpoint>
            <Time>2020-12-05T10:56:21.000Z</Time>
            <Position>
              <LatitudeDegrees>36.83299767784774303436279296875</LatitudeDegrees>
              <LongitudeDegrees>-4.37247502617537975311279296875</LongitudeDegrees>
            </Position>
            <AltitudeMeters>663.79998779296875</AltitudeMeters>
            <DistanceMeters>NAN</DistanceMeters>
          </Trackpoint>
          <Trackpoint>
            <Time>2020-12-05T10:56:22.000Z</Time>
            <Position>
              <LatitudeDegrees>36.83300589211285114288330078125</LatitudeDegrees>
              <LongitudeDegrees>-4.3724620342254638671875</LongitudeDegrees>
            </Position>
            <AltitudeMeters>663.79998779296875</AltitudeMeters>
            <DistanceMeters>NAN</DistanceMeters>
          </Trackpoint>
          <Trackpoint>
            <Time>2020-12-05T10:56:23.000Z</Time>
            <Position>
              <LatitudeDegrees>36.833015866577625274658203125</LatitudeDegrees>
              <LongitudeDegrees>-4.372446946799755096435546875</LongitudeDegrees>
            </Position>
            <AltitudeMeters>663.79998779296875</AltitudeMeters>
            <DistanceMeters>NAN</DistanceMeters>
          </Trackpoint>
          <Trackpoint>
            <Time>2020-12-05T10:56:24.000Z</Time>
            <Position>
              <LatitudeDegrees>36.8330237455666065216064453125</LatitudeDegrees>
              <LongitudeDegrees>-4.372432529926300048828125</LongitudeDegrees>
            </Position>
            <AltitudeMeters>664</AltitudeMeters>
            <DistanceMeters>NAN</DistanceMeters>
          </Trackpoint>
          <Trackpoint>
            <Time>2020-12-05T10:56:25.000Z</Time>
            <Position>
              <LatitudeDegrees>36.8330307863652706146240234375</LatitudeDegrees>
              <LongitudeDegrees>-4.37241710722446441650390625</LongitudeDegrees>
            </Position>
            <AltitudeMeters>664.20001220703125</AltitudeMeters>
            <DistanceMeters>NAN</DistanceMeters>
          </Trackpoint>
          <Trackpoint>
            <Time>2020-12-05T10:56:26.000Z</Time>
            <Position>
              <LatitudeDegrees>36.83303824625909328460693359375</LatitudeDegrees>
              <LongitudeDegrees>-4.37239942140877246856689453125</LongitudeDegrees>
            </Position>
            <AltitudeMeters>664.20001220703125</AltitudeMeters>
            <DistanceMeters>NAN</DistanceMeters>
          </Trackpoint>
          <Trackpoint>
            <Time>2020-12-05T10:56:27.000Z</Time>
            <Position>
              <LatitudeDegrees>36.833043359220027923583984375</LatitudeDegrees>
              <LongitudeDegrees>-4.37238349579274654388427734375</LongitudeDegrees>
            </Position>
            <AltitudeMeters>664.4000244140625</AltitudeMeters>
            <DistanceMeters>NAN</DistanceMeters>
          </Trackpoint>
          <Trackpoint>
            <Time>2020-12-05T10:56:28.000Z</Time>
            <Position>
              <LatitudeDegrees>36.8330478854477405548095703125</LatitudeDegrees>
              <LongitudeDegrees>-4.37236824072897434234619140625</LongitudeDegrees>
            </Position>
            <AltitudeMeters>664.5999755859375</AltitudeMeters>
            <DistanceMeters>NAN</DistanceMeters>
          </Trackpoint>
          <Trackpoint>
            <Time>2020-12-05T10:56:29.000Z</Time>
            <Position>
              <LatitudeDegrees>36.83305249549448490142822265625</LatitudeDegrees>
              <LongitudeDegrees>-4.37235449440777301788330078125</LongitudeDegrees>
            </Position>
            <AltitudeMeters>664.79998779296875</AltitudeMeters>
            <DistanceMeters>NAN</DistanceMeters>
          </Trackpoint>
          <Trackpoint>
            <Time>2020-12-05T10:56:30.000Z</Time>
            <Position>
              <LatitudeDegrees>36.8330579437315464019775390625</LatitudeDegrees>
              <LongitudeDegrees>-4.37234007753431797027587890625</LongitudeDegrees>
            </Position>
            <AltitudeMeters>665</AltitudeMeters>
            <DistanceMeters>NAN</DistanceMeters>
          </Trackpoint>
          <Trackpoint>
            <Time>2020-12-05T10:56:31.000Z</Time>
            <Position>
              <LatitudeDegrees>36.83306322433054447174072265625</LatitudeDegrees>
              <LongitudeDegrees>-4.37232348136603832244873046875</LongitudeDegrees>
            </Position>
            <AltitudeMeters>665</AltitudeMeters>
            <DistanceMeters>NAN</DistanceMeters>
          </Trackpoint>
          <Trackpoint>
            <Time>2020-12-05T10:56:32.000Z</Time>
            <Position>
              <LatitudeDegrees>36.83306724764406681060791015625</LatitudeDegrees>
              <LongitudeDegrees>-4.372304119169712066650390625</LongitudeDegrees>
            </Position>
            <AltitudeMeters>665</AltitudeMeters>
            <DistanceMeters>NAN</DistanceMeters>
          </Trackpoint>
          <Trackpoint>
            <Time>2020-12-05T10:56:33.000Z</Time>
            <Position>
              <LatitudeDegrees>36.83307345025241374969482421875</LatitudeDegrees>
              <LongitudeDegrees>-4.37228911556303501129150390625</LongitudeDegrees>
            </Position>
            <AltitudeMeters>665.20001220703125</AltitudeMeters>
            <DistanceMeters>NAN</DistanceMeters>
          </Trackpoint>
          <Trackpoint>
            <Time>2020-12-05T10:56:34.000Z</Time>
            <Position>
              <LatitudeDegrees>36.83307789266109466552734375</LatitudeDegrees>
              <LongitudeDegrees>-4.37227453105151653289794921875</LongitudeDegrees>
            </Position>
            <AltitudeMeters>665.4000244140625</AltitudeMeters>
            <DistanceMeters>NAN</DistanceMeters>
          </Trackpoint>
          <Trackpoint>
            <Time>2020-12-05T10:56:35.000Z</Time>
            <Position>
              <LatitudeDegrees>36.8330804072320461273193359375</LatitudeDegrees>
              <LongitudeDegrees>-4.37225927598774433135986328125</LongitudeDegrees>
            </Position>
            <AltitudeMeters>665.4000244140625</AltitudeMeters>
            <DistanceMeters>NAN</DistanceMeters>
          </Trackpoint>
          <Trackpoint>
            <Time>2020-12-05T10:56:36.000Z</Time>
            <Position>
              <LatitudeDegrees>36.8330847658216953277587890625</LatitudeDegrees>
              <LongitudeDegrees>-4.37224276363849639892578125</LongitudeDegrees>
            </Position>
            <AltitudeMeters>665.5999755859375</AltitudeMeters>
            <DistanceMeters>NAN</DistanceMeters>
          </Trackpoint>
          <Trackpoint>
            <Time>2020-12-05T10:56:37.000Z</Time>
            <Position>
              <LatitudeDegrees>36.83308593928813934326171875</LatitudeDegrees>
              <LongitudeDegrees>-4.372227676212787628173828125</LongitudeDegrees>
            </Position>
            <AltitudeMeters>666</AltitudeMeters>
            <DistanceMeters>NAN</DistanceMeters>
          </Trackpoint>
          <Trackpoint>
            <Time>2020-12-05T10:56:38.000Z</Time>
            <Position>
              <LatitudeDegrees>36.83308853767812252044677734375</LatitudeDegrees>
              <LongitudeDegrees>-4.37221133150160312652587890625</LongitudeDegrees>
            </Position>
            <AltitudeMeters>666.20001220703125</AltitudeMeters>
            <DistanceMeters>NAN</DistanceMeters>
          </Trackpoint>
          <Trackpoint>
            <Time>2020-12-05T10:56:39.000Z</Time>
            <Position>
              <LatitudeDegrees>36.83308837004005908966064453125</LatitudeDegrees>
              <LongitudeDegrees>-4.3721939809620380401611328125</LongitudeDegrees>
            </Position>
            <AltitudeMeters>666.20001220703125</AltitudeMeters>
            <DistanceMeters>NAN</DistanceMeters>
          </Trackpoint>
          <Trackpoint>
            <Time>2020-12-05T10:56:40.000Z</Time>
            <Position>
              <LatitudeDegrees>36.83309105224907398223876953125</LatitudeDegrees>
              <LongitudeDegrees>-4.37217579223215579986572265625</LongitudeDegrees>
            </Position>
            <AltitudeMeters>666.4000244140625</AltitudeMeters>
            <DistanceMeters>NAN</DistanceMeters>
          </Trackpoint>
          <Trackpoint>
            <Time>2020-12-05T10:56:41.000Z</Time>
            <Position>
              <LatitudeDegrees>36.83309406973421573638916015625</LatitudeDegrees>
              <LongitudeDegrees>-4.3721597827970981597900390625</LongitudeDegrees>
            </Position>
            <AltitudeMeters>666.4000244140625</AltitudeMeters>
            <DistanceMeters>NAN</DistanceMeters>
          </Trackpoint>
          <Trackpoint>
            <Time>2020-12-05T10:56:42.000Z</Time>
            <Position>
              <LatitudeDegrees>36.8330954946577548980712890625</LatitudeDegrees>
              <LongitudeDegrees>-4.37214553356170654296875</LongitudeDegrees>
            </Position>
            <AltitudeMeters>666.4000244140625</AltitudeMeters>
            <DistanceMeters>NAN</DistanceMeters>
          </Trackpoint>
          <Trackpoint>
            <Time>2020-12-05T10:56:43.000Z</Time>
            <Position>
              <LatitudeDegrees>36.8330988474190235137939453125</LatitudeDegrees>
              <LongitudeDegrees>-4.37213270924985408782958984375</LongitudeDegrees>
            </Position>
            <AltitudeMeters>666.4000244140625</AltitudeMeters>
            <DistanceMeters>NAN</DistanceMeters>
          </Trackpoint>
          <Trackpoint>
            <Time>2020-12-05T10:56:44.000Z</Time>
            <Position>
              <LatitudeDegrees>36.83310278691351413726806640625</LatitudeDegrees>
              <LongitudeDegrees>-4.3721188791096210479736328125</LongitudeDegrees>
            </Position>
            <AltitudeMeters>666.4000244140625</AltitudeMeters>
            <DistanceMeters>NAN</DistanceMeters>
          </Trackpoint>
          <Trackpoint>
            <Time>2020-12-05T10:56:45.000Z</Time>
            <Position>
              <LatitudeDegrees>36.8331068940460681915283203125</LatitudeDegrees>
              <LongitudeDegrees>-4.37210605479776859283447265625</LongitudeDegrees>
            </Position>
            <AltitudeMeters>666.4000244140625</AltitudeMeters>
            <DistanceMeters>NAN</DistanceMeters>
          </Trackpoint>
          <Trackpoint>
            <Time>2020-12-05T10:56:46.000Z</Time>
            <Position>
              <LatitudeDegrees>36.833112426102161407470703125</LatitudeDegrees>
              <LongitudeDegrees>-4.37209532596170902252197265625</LongitudeDegrees>
            </Position>
            <AltitudeMeters>666.4000244140625</AltitudeMeters>
            <DistanceMeters>NAN</DistanceMeters>
          </Trackpoint>
          <Trackpoint>
            <Time>2020-12-05T10:56:47.000Z</Time>
            <Position>
              <LatitudeDegrees>36.83311502449214458465576171875</LatitudeDegrees>
              <LongitudeDegrees>-4.372082836925983428955078125</LongitudeDegrees>
            </Position>
            <AltitudeMeters>666.4000244140625</AltitudeMeters>
            <DistanceMeters>NAN</DistanceMeters>
          </Trackpoint>
          <Trackpoint>
            <Time>2020-12-05T10:56:48.000Z</Time>
            <Position>
              <LatitudeDegrees>36.83311804197728633880615234375</LatitudeDegrees>
              <LongitudeDegrees>-4.37207252718508243560791015625</LongitudeDegrees>
            </Position>
            <AltitudeMeters>666.4000244140625</AltitudeMeters>
            <DistanceMeters>NAN</DistanceMeters>
          </Trackpoint>
          <Trackpoint>
            <Time>2020-12-05T10:56:49.000Z</Time>
            <Position>
              <LatitudeDegrees>36.83311921544373035430908203125</LatitudeDegrees>
              <LongitudeDegrees>-4.372062385082244873046875</LongitudeDegrees>
            </Position>
            <AltitudeMeters>666.4000244140625</AltitudeMeters>
            <DistanceMeters>NAN</DistanceMeters>
          </Trackpoint>
          <Trackpoint>
            <Time>2020-12-05T10:56:50.000Z</Time>
            <Position>
              <LatitudeDegrees>36.83311837725341320037841796875</LatitudeDegrees>
              <LongitudeDegrees>-4.37205106951296329498291015625</LongitudeDegrees>
            </Position>
            <AltitudeMeters>666.20001220703125</AltitudeMeters>
            <DistanceMeters>NAN</DistanceMeters>
          </Trackpoint>
          <Trackpoint>
            <Time>2020-12-05T10:56:51.000Z</Time>
            <Position>
              <LatitudeDegrees>36.83311653323471546173095703125</LatitudeDegrees>
              <LongitudeDegrees>-4.3720353953540325164794921875</LongitudeDegrees>
            </Position>
            <AltitudeMeters>666.20001220703125</AltitudeMeters>
            <DistanceMeters>NAN</DistanceMeters>
          </Trackpoint>
          <Trackpoint>
            <Time>2020-12-05T10:56:52.000Z</Time>
            <Position>
              <LatitudeDegrees>36.83311368338763713836669921875</LatitudeDegrees>
              <LongitudeDegrees>-4.3720206432044506072998046875</LongitudeDegrees>
            </Position>
            <AltitudeMeters>666.20001220703125</AltitudeMeters>
            <DistanceMeters>NAN</DistanceMeters>
          </Trackpoint>
          <Trackpoint>
            <Time>2020-12-05T10:56:53.000Z</Time>
            <Position>
              <LatitudeDegrees>36.8331099115312099456787109375</LatitudeDegrees>
              <LongitudeDegrees>-4.37200429849326610565185546875</LongitudeDegrees>
            </Position>
            <AltitudeMeters>666.20001220703125</AltitudeMeters>
            <DistanceMeters>NAN</DistanceMeters>
          </Trackpoint>
          <Trackpoint>
            <Time>2020-12-05T10:56:54.000Z</Time>
            <Position>
              <LatitudeDegrees>36.833105050027370452880859375</LatitudeDegrees>
              <LongitudeDegrees>-4.37198669649660587310791015625</LongitudeDegrees>
            </Position>
            <AltitudeMeters>666.4000244140625</AltitudeMeters>
            <DistanceMeters>NAN</DistanceMeters>
          </Trackpoint>
          <Trackpoint>
            <Time>2020-12-05T10:56:55.000Z</Time>
            <Position>
              <LatitudeDegrees>36.833106391131877899169921875</LatitudeDegrees>
              <LongitudeDegrees>-4.3719730339944362640380859375</LongitudeDegrees>
            </Position>
            <AltitudeMeters>666.5999755859375</AltitudeMeters>
            <DistanceMeters>NAN</DistanceMeters>
          </Trackpoint>
          <Trackpoint>
            <Time>2020-12-05T10:56:56.000Z</Time>
            <Position>
              <LatitudeDegrees>36.83310873806476593017578125</LatitudeDegrees>
              <LongitudeDegrees>-4.3719586171209812164306640625</LongitudeDegrees>
            </Position>
            <AltitudeMeters>666.79998779296875</AltitudeMeters>
            <DistanceMeters>NAN</DistanceMeters>
          </Trackpoint>
          <Trackpoint>
            <Time>2020-12-05T10:56:57.000Z</Time>
            <Position>
              <LatitudeDegrees>36.83311100117862224578857421875</LatitudeDegrees>
              <LongitudeDegrees>-4.3719478882849216461181640625</LongitudeDegrees>
            </Position>
            <AltitudeMeters>667</AltitudeMeters>
            <DistanceMeters>NAN</DistanceMeters>
          </Trackpoint>
          <Trackpoint>
            <Time>2020-12-05T10:56:58.000Z</Time>
            <Position>
              <LatitudeDegrees>36.83311535976827144622802734375</LatitudeDegrees>
              <LongitudeDegrees>-4.37193439342081546783447265625</LongitudeDegrees>
            </Position>
            <AltitudeMeters>667.20001220703125</AltitudeMeters>
            <DistanceMeters>NAN</DistanceMeters>
          </Trackpoint>
          <Trackpoint>
            <Time>2020-12-05T10:56:59.000Z</Time>
            <Position>
              <LatitudeDegrees>36.833119131624698638916015625</LatitudeDegrees>
              <LongitudeDegrees>-4.371919222176074981689453125</LongitudeDegrees>
            </Position>
            <AltitudeMeters>667.20001220703125</AltitudeMeters>
            <DistanceMeters>NAN</DistanceMeters>
          </Trackpoint>
          <Trackpoint>
            <Time>2020-12-05T10:57:00.000Z</Time>
            <Position>
              <LatitudeDegrees>36.83312080800533294677734375</LatitudeDegrees>
              <LongitudeDegrees>-4.3719029612839221954345703125</LongitudeDegrees>
            </Position>
            <AltitudeMeters>667.4000244140625</AltitudeMeters>
            <DistanceMeters>NAN</DistanceMeters>
          </Trackpoint>
          <Trackpoint>
            <Time>2020-12-05T10:57:01.000Z</Time>
            <Position>
              <LatitudeDegrees>36.83312022127211093902587890625</LatitudeDegrees>
              <LongitudeDegrees>-4.37188745476305484771728515625</LongitudeDegrees>
            </Position>
            <AltitudeMeters>667.4000244140625</AltitudeMeters>
            <DistanceMeters>NAN</DistanceMeters>
          </Trackpoint>
          <Trackpoint>
            <Time>2020-12-05T10:57:02.000Z</Time>
            <Position>
              <LatitudeDegrees>36.8331174552440643310546875</LatitudeDegrees>
              <LongitudeDegrees>-4.37187119387090206146240234375</LongitudeDegrees>
            </Position>
            <AltitudeMeters>667.5999755859375</AltitudeMeters>
            <DistanceMeters>NAN</DistanceMeters>
          </Trackpoint>
          <Trackpoint>
            <Time>2020-12-05T10:57:03.000Z</Time>
            <Position>
              <LatitudeDegrees>36.83311569504439830780029296875</LatitudeDegrees>
              <LongitudeDegrees>-4.371854849159717559814453125</LongitudeDegrees>
            </Position>
            <AltitudeMeters>667.4000244140625</AltitudeMeters>
            <DistanceMeters>NAN</DistanceMeters>
          </Trackpoint>
          <Trackpoint>
            <Time>2020-12-05T10:57:04.000Z</Time>
            <Position>
              <LatitudeDegrees>36.833114437758922576904296875</LatitudeDegrees>
              <LongitudeDegrees>-4.37183934263885021209716796875</LongitudeDegrees>
            </Position>
            <AltitudeMeters>667.4000244140625</AltitudeMeters>
            <DistanceMeters>NAN</DistanceMeters>
          </Trackpoint>
          <Trackpoint>
            <Time>2020-12-05T10:57:05.000Z</Time>
            <Position>
              <LatitudeDegrees>36.83311234228312969207763671875</LatitudeDegrees>
              <LongitudeDegrees>-4.37182291410863399505615234375</LongitudeDegrees>
            </Position>
            <AltitudeMeters>667.4000244140625</AltitudeMeters>
            <DistanceMeters>NAN</DistanceMeters>
          </Trackpoint>
          <Trackpoint>
            <Time>2020-12-05T10:57:06.000Z</Time>
            <Position>
              <LatitudeDegrees>36.8331112526357173919677734375</LatitudeDegrees>
              <LongitudeDegrees>-4.37180715613067150115966796875</LongitudeDegrees>
            </Position>
            <AltitudeMeters>667.4000244140625</AltitudeMeters>
            <DistanceMeters>NAN</DistanceMeters>
          </Trackpoint>
          <Trackpoint>
            <Time>2020-12-05T10:57:07.000Z</Time>
            <Position>
              <LatitudeDegrees>36.8331146053969860076904296875</LatitudeDegrees>
              <LongitudeDegrees>-4.3717896379530429840087890625</LongitudeDegrees>
            </Position>
            <AltitudeMeters>667.4000244140625</AltitudeMeters>
            <DistanceMeters>NAN</DistanceMeters>
          </Trackpoint>
          <Trackpoint>
            <Time>2020-12-05T10:57:08.000Z</Time>
            <Position>
              <LatitudeDegrees>36.833114437758922576904296875</LatitudeDegrees>
              <LongitudeDegrees>-4.3717722035944461822509765625</LongitudeDegrees>
            </Position>
            <AltitudeMeters>667.4000244140625</AltitudeMeters>
            <DistanceMeters>NAN</DistanceMeters>
          </Trackpoint>
          <Trackpoint>
            <Time>2020-12-05T10:57:09.000Z</Time>
            <Position>
              <LatitudeDegrees>36.83311385102570056915283203125</LatitudeDegrees>
              <LongitudeDegrees>-4.3717579543590545654296875</LongitudeDegrees>
            </Position>
            <AltitudeMeters>667.20001220703125</AltitudeMeters>
            <DistanceMeters>NAN</DistanceMeters>
          </Trackpoint>
          <Trackpoint>
            <Time>2020-12-05T10:57:10.000Z</Time>
            <Position>
              <LatitudeDegrees>36.83311410248279571533203125</LatitudeDegrees>
              <LongitudeDegrees>-4.371740184724330902099609375</LongitudeDegrees>
            </Position>
            <AltitudeMeters>667.20001220703125</AltitudeMeters>
            <DistanceMeters>NAN</DistanceMeters>
          </Trackpoint>
          <Trackpoint>
            <Time>2020-12-05T10:57:11.000Z</Time>
            <Position>
              <LatitudeDegrees>36.8331134319305419921875</LatitudeDegrees>
              <LongitudeDegrees>-4.371724091470241546630859375</LongitudeDegrees>
            </Position>
            <AltitudeMeters>667.4000244140625</AltitudeMeters>
            <DistanceMeters>NAN</DistanceMeters>
          </Trackpoint>
          <Trackpoint>
            <Time>2020-12-05T10:57:12.000Z</Time>
            <Position>
              <LatitudeDegrees>36.83311301283538341522216796875</LatitudeDegrees>
              <LongitudeDegrees>-4.37171076424419879913330078125</LongitudeDegrees>
            </Position>
            <AltitudeMeters>667.4000244140625</AltitudeMeters>
            <DistanceMeters>NAN</DistanceMeters>
          </Trackpoint>
          <Trackpoint>
            <Time>2020-12-05T10:57:13.000Z</Time>
            <Position>
              <LatitudeDegrees>36.8331119231879711151123046875</LatitudeDegrees>
              <LongitudeDegrees>-4.37169735319912433624267578125</LongitudeDegrees>
            </Position>
            <AltitudeMeters>667.4000244140625</AltitudeMeters>
            <DistanceMeters>NAN</DistanceMeters>
          </Trackpoint>
          <Trackpoint>
            <Time>2020-12-05T10:57:14.000Z</Time>
            <Position>
              <LatitudeDegrees>36.83311049826443195343017578125</LatitudeDegrees>
              <LongitudeDegrees>-4.37168427743017673492431640625</LongitudeDegrees>
            </Position>
            <AltitudeMeters>667.5999755859375</AltitudeMeters>
            <DistanceMeters>NAN</DistanceMeters>
          </Trackpoint>
          <Trackpoint>
            <Time>2020-12-05T10:57:15.000Z</Time>
            <Position>
              <LatitudeDegrees>36.83311007916927337646484375</LatitudeDegrees>
              <LongitudeDegrees>-4.37167371623218059539794921875</LongitudeDegrees>
            </Position>
            <AltitudeMeters>667.79998779296875</AltitudeMeters>
            <DistanceMeters>NAN</DistanceMeters>
          </Trackpoint>
          <Trackpoint>
            <Time>2020-12-05T10:57:16.000Z</Time>
            <Position>
              <LatitudeDegrees>36.83310932479798793792724609375</LatitudeDegrees>
              <LongitudeDegrees>-4.37166533432900905609130859375</LongitudeDegrees>
            </Position>
            <AltitudeMeters>667.79998779296875</AltitudeMeters>
            <DistanceMeters>NAN</DistanceMeters>
          </Trackpoint>
          <Trackpoint>
            <Time>2020-12-05T10:57:17.000Z</Time>
            <Position>
              <LatitudeDegrees>36.83310605585575103759765625</LatitudeDegrees>
              <LongitudeDegrees>-4.371654689311981201171875</LongitudeDegrees>
            </Position>
            <AltitudeMeters>667.79998779296875</AltitudeMeters>
            <DistanceMeters>NAN</DistanceMeters>
          </Trackpoint>
          <Trackpoint>
            <Time>2020-12-05T10:57:18.000Z</Time>
            <Position>
              <LatitudeDegrees>36.833102367818355560302734375</LatitudeDegrees>
              <LongitudeDegrees>-4.37163884751498699188232421875</LongitudeDegrees>
            </Position>
            <AltitudeMeters>667.79998779296875</AltitudeMeters>
            <DistanceMeters>NAN</DistanceMeters>
          </Trackpoint>
          <Trackpoint>
            <Time>2020-12-05T10:57:19.000Z</Time>
            <Position>
              <LatitudeDegrees>36.83310194872319698333740234375</LatitudeDegrees>
              <LongitudeDegrees>-4.3716211616992950439453125</LongitudeDegrees>
            </Position>
            <AltitudeMeters>667.79998779296875</AltitudeMeters>
            <DistanceMeters>NAN</DistanceMeters>
          </Trackpoint>
          <Trackpoint>
            <Time>2020-12-05T10:57:20.000Z</Time>
            <Position>
              <LatitudeDegrees>36.8331025354564189910888671875</LatitudeDegrees>
              <LongitudeDegrees>-4.3716055713593959808349609375</LongitudeDegrees>
            </Position>
            <AltitudeMeters>667.79998779296875</AltitudeMeters>
            <DistanceMeters>NAN</DistanceMeters>
          </Trackpoint>
          <Trackpoint>
            <Time>2020-12-05T10:57:21.000Z</Time>
            <Position>
              <LatitudeDegrees>36.83310328982770442962646484375</LatitudeDegrees>
              <LongitudeDegrees>-4.3715914897620677947998046875</LongitudeDegrees>
            </Position>
            <AltitudeMeters>668</AltitudeMeters>
            <DistanceMeters>NAN</DistanceMeters>
          </Trackpoint>
          <Trackpoint>
            <Time>2020-12-05T10:57:22.000Z</Time>
            <Position>
              <LatitudeDegrees>36.8331028707325458526611328125</LatitudeDegrees>
              <LongitudeDegrees>-4.37157447449862957000732421875</LongitudeDegrees>
            </Position>
            <AltitudeMeters>668</AltitudeMeters>
            <DistanceMeters>NAN</DistanceMeters>
          </Trackpoint>
          <Trackpoint>
            <Time>2020-12-05T10:57:23.000Z</Time>
            <Position>
              <LatitudeDegrees>36.83310127817094326019287109375</LatitudeDegrees>
              <LongitudeDegrees>-4.371558129787445068359375</LongitudeDegrees>
            </Position>
            <AltitudeMeters>668</AltitudeMeters>
            <DistanceMeters>NAN</DistanceMeters>
          </Trackpoint>
          <Trackpoint>
            <Time>2020-12-05T10:57:24.000Z</Time>
            <Position>
              <LatitudeDegrees>36.8330985121428966522216796875</LatitudeDegrees>
              <LongitudeDegrees>-4.37154564075171947479248046875</LongitudeDegrees>
            </Position>
            <AltitudeMeters>668</AltitudeMeters>
            <DistanceMeters>NAN</DistanceMeters>
          </Trackpoint>
          <Trackpoint>
            <Time>2020-12-05T10:57:25.000Z</Time>
            <Position>
              <LatitudeDegrees>36.83309826068580150604248046875</LatitudeDegrees>
              <LongitudeDegrees>-4.37153734266757965087890625</LongitudeDegrees>
            </Position>
            <AltitudeMeters>668</AltitudeMeters>
            <DistanceMeters>NAN</DistanceMeters>
          </Trackpoint>
          <Trackpoint>
            <Time>2020-12-05T10:57:26.000Z</Time>
            <Position>
              <LatitudeDegrees>36.83309574611485004425048828125</LatitudeDegrees>
              <LongitudeDegrees>-4.371527619659900665283203125</LongitudeDegrees>
            </Position>
            <AltitudeMeters>668.20001220703125</AltitudeMeters>
            <DistanceMeters>NAN</DistanceMeters>
          </Trackpoint>
          <Trackpoint>
            <Time>2020-12-05T10:57:27.000Z</Time>
            <Position>
              <LatitudeDegrees>36.83309557847678661346435546875</LatitudeDegrees>
              <LongitudeDegrees>-4.37151580117642879486083984375</LongitudeDegrees>
            </Position>
            <AltitudeMeters>668.20001220703125</AltitudeMeters>
            <DistanceMeters>NAN</DistanceMeters>
          </Trackpoint>
          <Trackpoint>
            <Time>2020-12-05T10:57:28.000Z</Time>
            <Position>
              <LatitudeDegrees>36.83309239335358142852783203125</LatitudeDegrees>
              <LongitudeDegrees>-4.37150205485522747039794921875</LongitudeDegrees>
            </Position>
            <AltitudeMeters>668.20001220703125</AltitudeMeters>
            <DistanceMeters>NAN</DistanceMeters>
          </Trackpoint>
          <Trackpoint>
            <Time>2020-12-05T10:57:29.000Z</Time>
            <Position>
              <LatitudeDegrees>36.83308786712586879730224609375</LatitudeDegrees>
              <LongitudeDegrees>-4.37149040400981903076171875</LongitudeDegrees>
            </Position>
            <AltitudeMeters>668.20001220703125</AltitudeMeters>
            <DistanceMeters>NAN</DistanceMeters>
          </Trackpoint>
          <Trackpoint>
            <Time>2020-12-05T10:57:30.000Z</Time>
            <Position>
              <LatitudeDegrees>36.83308619074523448944091796875</LatitudeDegrees>
              <LongitudeDegrees>-4.37147741205990314483642578125</LongitudeDegrees>
            </Position>
            <AltitudeMeters>668.4000244140625</AltitudeMeters>
            <DistanceMeters>NAN</DistanceMeters>
          </Trackpoint>
          <Trackpoint>
            <Time>2020-12-05T10:57:31.000Z</Time>
            <Position>
              <LatitudeDegrees>36.83308468200266361236572265625</LatitudeDegrees>
              <LongitudeDegrees>-4.371463917195796966552734375</LongitudeDegrees>
            </Position>
            <AltitudeMeters>668.4000244140625</AltitudeMeters>
            <DistanceMeters>NAN</DistanceMeters>
          </Trackpoint>
          <Trackpoint>
            <Time>2020-12-05T10:57:32.000Z</Time>
            <Position>
              <LatitudeDegrees>36.8330867774784564971923828125</LatitudeDegrees>
              <LongitudeDegrees>-4.37145058996975421905517578125</LongitudeDegrees>
            </Position>
            <AltitudeMeters>668.4000244140625</AltitudeMeters>
            <DistanceMeters>NAN</DistanceMeters>
          </Trackpoint>
          <Trackpoint>
            <Time>2020-12-05T10:57:33.000Z</Time>
            <Position>
              <LatitudeDegrees>36.83309130370616912841796875</LatitudeDegrees>
              <LongitudeDegrees>-4.37143583782017230987548828125</LongitudeDegrees>
            </Position>
            <AltitudeMeters>668.4000244140625</AltitudeMeters>
            <DistanceMeters>NAN</DistanceMeters>
          </Trackpoint>
          <Trackpoint>
            <Time>2020-12-05T10:57:34.000Z</Time>
            <Position>
              <LatitudeDegrees>36.833092980086803436279296875</LatitudeDegrees>
              <LongitudeDegrees>-4.37141555361449718475341796875</LongitudeDegrees>
            </Position>
            <AltitudeMeters>668.4000244140625</AltitudeMeters>
            <DistanceMeters>NAN</DistanceMeters>
          </Trackpoint>
          <Trackpoint>
            <Time>2020-12-05T10:57:35.000Z</Time>
            <Position>
              <LatitudeDegrees>36.83309172280132770538330078125</LatitudeDegrees>
              <LongitudeDegrees>-4.37139577232301235198974609375</LongitudeDegrees>
            </Position>
            <AltitudeMeters>668.4000244140625</AltitudeMeters>
            <DistanceMeters>NAN</DistanceMeters>
          </Trackpoint>
          <Trackpoint>
            <Time>2020-12-05T10:57:36.000Z</Time>
            <Position>
              <LatitudeDegrees>36.8330931477248668670654296875</LatitudeDegrees>
              <LongitudeDegrees>-4.37137716449797153472900390625</LongitudeDegrees>
            </Position>
            <AltitudeMeters>668.5999755859375</AltitudeMeters>
            <DistanceMeters>NAN</DistanceMeters>
          </Trackpoint>
          <Trackpoint>
            <Time>2020-12-05T10:57:37.000Z</Time>
            <Position>
              <LatitudeDegrees>36.83309222571551799774169921875</LatitudeDegrees>
              <LongitudeDegrees>-4.37136031687259674072265625</LongitudeDegrees>
            </Position>
            <AltitudeMeters>668.5999755859375</AltitudeMeters>
            <DistanceMeters>NAN</DistanceMeters>
          </Trackpoint>
          <Trackpoint>
            <Time>2020-12-05T10:57:38.000Z</Time>
            <Position>
              <LatitudeDegrees>36.8330897949635982513427734375</LatitudeDegrees>
              <LongitudeDegrees>-4.3713433854281902313232421875</LongitudeDegrees>
            </Position>
            <AltitudeMeters>668.5999755859375</AltitudeMeters>
            <DistanceMeters>NAN</DistanceMeters>
          </Trackpoint>
          <Trackpoint>
            <Time>2020-12-05T10:57:39.000Z</Time>
            <Position>
              <LatitudeDegrees>36.83309054933488368988037109375</LatitudeDegrees>
              <LongitudeDegrees>-4.37132804654538631439208984375</LongitudeDegrees>
            </Position>
            <AltitudeMeters>668.79998779296875</AltitudeMeters>
            <DistanceMeters>NAN</DistanceMeters>
          </Trackpoint>
          <Trackpoint>
            <Time>2020-12-05T10:57:40.000Z</Time>
            <Position>
              <LatitudeDegrees>36.8330918066203594207763671875</LatitudeDegrees>
              <LongitudeDegrees>-4.37131312675774097442626953125</LongitudeDegrees>
            </Position>
            <AltitudeMeters>669</AltitudeMeters>
            <DistanceMeters>NAN</DistanceMeters>
          </Trackpoint>
          <Trackpoint>
            <Time>2020-12-05T10:57:41.000Z</Time>
            <Position>
              <LatitudeDegrees>36.83309373445808887481689453125</LatitudeDegrees>
              <LongitudeDegrees>-4.37129619531333446502685546875</LongitudeDegrees>
            </Position>
            <AltitudeMeters>669</AltitudeMeters>
            <DistanceMeters>NAN</DistanceMeters>
          </Trackpoint>
          <Trackpoint>
            <Time>2020-12-05T10:57:42.000Z</Time>
            <Position>
              <LatitudeDegrees>36.83309490792453289031982421875</LatitudeDegrees>
              <LongitudeDegrees>-4.37128177843987941741943359375</LongitudeDegrees>
            </Position>
            <AltitudeMeters>669</AltitudeMeters>
            <DistanceMeters>NAN</DistanceMeters>
          </Trackpoint>
          <Trackpoint>
            <Time>2020-12-05T10:57:43.000Z</Time>
            <Position>
              <LatitudeDegrees>36.83309356682002544403076171875</LatitudeDegrees>
              <LongitudeDegrees>-4.3712679482996463775634765625</LongitudeDegrees>
            </Position>
            <AltitudeMeters>669</AltitudeMeters>
            <DistanceMeters>NAN</DistanceMeters>
          </Trackpoint>
          <Trackpoint>
            <Time>2020-12-05T10:57:44.000Z</Time>
            <Position>
              <LatitudeDegrees>36.83309038169682025909423828125</LatitudeDegrees>
              <LongitudeDegrees>-4.37125344760715961456298828125</LongitudeDegrees>
            </Position>
            <AltitudeMeters>669.20001220703125</AltitudeMeters>
            <DistanceMeters>NAN</DistanceMeters>
          </Trackpoint>
          <Trackpoint>
            <Time>2020-12-05T10:57:45.000Z</Time>
            <Position>
              <LatitudeDegrees>36.8330894596874713897705078125</LatitudeDegrees>
              <LongitudeDegrees>-4.3712424673140048980712890625</LongitudeDegrees>
            </Position>
            <AltitudeMeters>669.4000244140625</AltitudeMeters>
            <DistanceMeters>NAN</DistanceMeters>
          </Trackpoint>
          <Trackpoint>
            <Time>2020-12-05T10:57:46.000Z</Time>
            <Position>
              <LatitudeDegrees>36.83309038169682025909423828125</LatitudeDegrees>
              <LongitudeDegrees>-4.3712310679256916046142578125</LongitudeDegrees>
            </Position>
            <AltitudeMeters>669.5999755859375</AltitudeMeters>
            <DistanceMeters>NAN</DistanceMeters>
          </Trackpoint>
          <Trackpoint>
            <Time>2020-12-05T10:57:47.000Z</Time>
            <Position>
              <LatitudeDegrees>36.8330881185829639434814453125</LatitudeDegrees>
              <LongitudeDegrees>-4.3712179921567440032958984375</LongitudeDegrees>
            </Position>
            <AltitudeMeters>669.5999755859375</AltitudeMeters>
            <DistanceMeters>NAN</DistanceMeters>
          </Trackpoint>
          <Trackpoint>
            <Time>2020-12-05T10:57:48.000Z</Time>
            <Position>
              <LatitudeDegrees>36.83308719657361507415771484375</LatitudeDegrees>
              <LongitudeDegrees>-4.3712025694549083709716796875</LongitudeDegrees>
            </Position>
            <AltitudeMeters>669.79998779296875</AltitudeMeters>
            <DistanceMeters>NAN</DistanceMeters>
          </Trackpoint>
          <Trackpoint>
            <Time>2020-12-05T10:57:49.000Z</Time>
            <Position>
              <LatitudeDegrees>36.8330864422023296356201171875</LatitudeDegrees>
              <LongitudeDegrees>-4.37118706293404102325439453125</LongitudeDegrees>
            </Position>
            <AltitudeMeters>669.79998779296875</AltitudeMeters>
            <DistanceMeters>NAN</DistanceMeters>
          </Trackpoint>
          <Trackpoint>
            <Time>2020-12-05T10:57:50.000Z</Time>
            <Position>
              <LatitudeDegrees>36.833086945116519927978515625</LatitudeDegrees>
              <LongitudeDegrees>-4.3711713887751102447509765625</LongitudeDegrees>
            </Position>
            <AltitudeMeters>669.79998779296875</AltitudeMeters>
            <DistanceMeters>NAN</DistanceMeters>
          </Trackpoint>
          <Trackpoint>
            <Time>2020-12-05T10:57:51.000Z</Time>
            <Position>
              <LatitudeDegrees>36.83308660984039306640625</LatitudeDegrees>
              <LongitudeDegrees>-4.37115571461617946624755859375</LongitudeDegrees>
            </Position>
            <AltitudeMeters>669.79998779296875</AltitudeMeters>
            <DistanceMeters>NAN</DistanceMeters>
          </Trackpoint>
          <Trackpoint>
            <Time>2020-12-05T10:57:52.000Z</Time>
            <Position>
              <LatitudeDegrees>36.83308451436460018157958984375</LatitudeDegrees>
              <LongitudeDegrees>-4.37114146538078784942626953125</LongitudeDegrees>
            </Position>
            <AltitudeMeters>669.79998779296875</AltitudeMeters>
            <DistanceMeters>NAN</DistanceMeters>
          </Trackpoint>
          <Trackpoint>
            <Time>2020-12-05T10:57:53.000Z</Time>
            <Position>
              <LatitudeDegrees>36.8330834247171878814697265625</LatitudeDegrees>
              <LongitudeDegrees>-4.3711288087069988250732421875</LongitudeDegrees>
            </Position>
            <AltitudeMeters>669.79998779296875</AltitudeMeters>
            <DistanceMeters>NAN</DistanceMeters>
          </Trackpoint>
          <Trackpoint>
            <Time>2020-12-05T10:57:54.000Z</Time>
            <Position>
              <LatitudeDegrees>36.83308132924139499664306640625</LatitudeDegrees>
              <LongitudeDegrees>-4.37111833132803440093994140625</LongitudeDegrees>
            </Position>
            <AltitudeMeters>669.79998779296875</AltitudeMeters>
            <DistanceMeters>NAN</DistanceMeters>
          </Trackpoint>
          <Trackpoint>
            <Time>2020-12-05T10:57:55.000Z</Time>
            <Position>
              <LatitudeDegrees>36.833076886832714080810546875</LatitudeDegrees>
              <LongitudeDegrees>-4.37110894359648227691650390625</LongitudeDegrees>
            </Position>
            <AltitudeMeters>670</AltitudeMeters>
            <DistanceMeters>NAN</DistanceMeters>
          </Trackpoint>
          <Trackpoint>
            <Time>2020-12-05T10:57:56.000Z</Time>
            <Position>
              <LatitudeDegrees>36.8330733664333820343017578125</LatitudeDegrees>
              <LongitudeDegrees>-4.3710976280272006988525390625</LongitudeDegrees>
            </Position>
            <AltitudeMeters>670</AltitudeMeters>
            <DistanceMeters>NAN</DistanceMeters>
          </Trackpoint>
          <Trackpoint>
            <Time>2020-12-05T10:57:57.000Z</Time>
            <Position>
              <LatitudeDegrees>36.8330686725676059722900390625</LatitudeDegrees>
              <LongitudeDegrees>-4.37108279205858707427978515625</LongitudeDegrees>
            </Position>
            <AltitudeMeters>670.20001220703125</AltitudeMeters>
            <DistanceMeters>NAN</DistanceMeters>
          </Trackpoint>
          <Trackpoint>
            <Time>2020-12-05T10:57:58.000Z</Time>
            <Position>
              <LatitudeDegrees>36.83306138031184673309326171875</LatitudeDegrees>
              <LongitudeDegrees>-4.3710654415190219879150390625</LongitudeDegrees>
            </Position>
            <AltitudeMeters>670.20001220703125</AltitudeMeters>
            <DistanceMeters>NAN</DistanceMeters>
          </Trackpoint>
          <Trackpoint>
            <Time>2020-12-05T10:57:59.000Z</Time>
            <Position>
              <LatitudeDegrees>36.83305375277996063232421875</LatitudeDegrees>
              <LongitudeDegrees>-4.371043480932712554931640625</LongitudeDegrees>
            </Position>
            <AltitudeMeters>670</AltitudeMeters>
            <DistanceMeters>NAN</DistanceMeters>
          </Trackpoint>
          <Trackpoint>
            <Time>2020-12-05T10:58:00.000Z</Time>
            <Position>
              <LatitudeDegrees>36.83304578997194766998291015625</LatitudeDegrees>
              <LongitudeDegrees>-4.3710231967270374298095703125</LongitudeDegrees>
            </Position>
            <AltitudeMeters>670</AltitudeMeters>
            <DistanceMeters>NAN</DistanceMeters>
          </Trackpoint>
          <Trackpoint>
            <Time>2020-12-05T10:58:01.000Z</Time>
            <Position>
              <LatitudeDegrees>36.8330358155071735382080078125</LatitudeDegrees>
              <LongitudeDegrees>-4.371001906692981719970703125</LongitudeDegrees>
            </Position>
            <AltitudeMeters>670</AltitudeMeters>
            <DistanceMeters>NAN</DistanceMeters>
          </Trackpoint>
          <Trackpoint>
            <Time>2020-12-05T10:58:02.000Z</Time>
            <Position>
              <LatitudeDegrees>36.83302818797528743743896484375</LatitudeDegrees>
              <LongitudeDegrees>-4.37098304741084575653076171875</LongitudeDegrees>
            </Position>
            <AltitudeMeters>670</AltitudeMeters>
            <DistanceMeters>NAN</DistanceMeters>
          </Trackpoint>
          <Trackpoint>
            <Time>2020-12-05T10:58:03.000Z</Time>
            <Position>
              <LatitudeDegrees>36.83302399702370166778564453125</LatitudeDegrees>
              <LongitudeDegrees>-4.37096511013805866241455078125</LongitudeDegrees>
            </Position>
            <AltitudeMeters>670</AltitudeMeters>
            <DistanceMeters>NAN</DistanceMeters>
          </Trackpoint>
          <Trackpoint>
            <Time>2020-12-05T10:58:04.000Z</Time>
            <Position>
              <LatitudeDegrees>36.83301888406276702880859375</LatitudeDegrees>
              <LongitudeDegrees>-4.3709474243223667144775390625</LongitudeDegrees>
            </Position>
            <AltitudeMeters>670.20001220703125</AltitudeMeters>
            <DistanceMeters>NAN</DistanceMeters>
          </Trackpoint>
          <Trackpoint>
            <Time>2020-12-05T10:58:05.000Z</Time>
            <Position>
              <LatitudeDegrees>36.83301343582570552825927734375</LatitudeDegrees>
              <LongitudeDegrees>-4.37092848122119903564453125</LongitudeDegrees>
            </Position>
            <AltitudeMeters>670.20001220703125</AltitudeMeters>
            <DistanceMeters>NAN</DistanceMeters>
          </Trackpoint>
          <Trackpoint>
            <Time>2020-12-05T10:58:06.000Z</Time>
            <Position>
              <LatitudeDegrees>36.83301025070250034332275390625</LatitudeDegrees>
              <LongitudeDegrees>-4.3709125556051731109619140625</LongitudeDegrees>
            </Position>
            <AltitudeMeters>670.20001220703125</AltitudeMeters>
            <DistanceMeters>NAN</DistanceMeters>
          </Trackpoint>
          <Trackpoint>
            <Time>2020-12-05T10:58:07.000Z</Time>
            <Position>
              <LatitudeDegrees>36.83300756849348545074462890625</LatitudeDegrees>
              <LongitudeDegrees>-4.370899982750415802001953125</LongitudeDegrees>
            </Position>
            <AltitudeMeters>670.4000244140625</AltitudeMeters>
            <DistanceMeters>NAN</DistanceMeters>
          </Trackpoint>
          <Trackpoint>
            <Time>2020-12-05T10:58:08.000Z</Time>
            <Position>
              <LatitudeDegrees>36.83300237171351909637451171875</LatitudeDegrees>
              <LongitudeDegrees>-4.37088824808597564697265625</LongitudeDegrees>
            </Position>
            <AltitudeMeters>670.4000244140625</AltitudeMeters>
            <DistanceMeters>NAN</DistanceMeters>
          </Trackpoint>
          <Trackpoint>
            <Time>2020-12-05T10:58:09.000Z</Time>
            <Position>
              <LatitudeDegrees>36.83299616910517215728759765625</LatitudeDegrees>
              <LongitudeDegrees>-4.370876513421535491943359375</LongitudeDegrees>
            </Position>
            <AltitudeMeters>670.4000244140625</AltitudeMeters>
            <DistanceMeters>NAN</DistanceMeters>
          </Trackpoint>
          <Trackpoint>
            <Time>2020-12-05T10:58:10.000Z</Time>
            <Position>
              <LatitudeDegrees>36.83298929594457149505615234375</LatitudeDegrees>
              <LongitudeDegrees>-4.370861090719699859619140625</LongitudeDegrees>
            </Position>
            <AltitudeMeters>670.4000244140625</AltitudeMeters>
            <DistanceMeters>NAN</DistanceMeters>
          </Trackpoint>
          <Trackpoint>
            <Time>2020-12-05T10:58:11.000Z</Time>
            <Position>
              <LatitudeDegrees>36.8329851888120174407958984375</LatitudeDegrees>
              <LongitudeDegrees>-4.3708451651036739349365234375</LongitudeDegrees>
            </Position>
            <AltitudeMeters>670.5999755859375</AltitudeMeters>
            <DistanceMeters>NAN</DistanceMeters>
          </Trackpoint>
          <Trackpoint>
            <Time>2020-12-05T10:58:12.000Z</Time>
            <Position>
              <LatitudeDegrees>36.83298074640333652496337890625</LatitudeDegrees>
              <LongitudeDegrees>-4.37082664109766483306884765625</LongitudeDegrees>
            </Position>
            <AltitudeMeters>670.5999755859375</AltitudeMeters>
            <DistanceMeters>NAN</DistanceMeters>
          </Trackpoint>
          <Trackpoint>
            <Time>2020-12-05T10:58:13.000Z</Time>
            <Position>
              <LatitudeDegrees>36.83297839947044849395751953125</LatitudeDegrees>
              <LongitudeDegrees>-4.37081105075776576995849609375</LongitudeDegrees>
            </Position>
            <AltitudeMeters>670.79998779296875</AltitudeMeters>
            <DistanceMeters>NAN</DistanceMeters>
          </Trackpoint>
          <Trackpoint>
            <Time>2020-12-05T10:58:14.000Z</Time>
            <Position>
              <LatitudeDegrees>36.832976974546909332275390625</LatitudeDegrees>
              <LongitudeDegrees>-4.37079663388431072235107421875</LongitudeDegrees>
            </Position>
            <AltitudeMeters>670.79998779296875</AltitudeMeters>
            <DistanceMeters>NAN</DistanceMeters>
          </Trackpoint>
          <Trackpoint>
            <Time>2020-12-05T10:58:15.000Z</Time>
            <Position>
              <LatitudeDegrees>36.83297865092754364013671875</LatitudeDegrees>
              <LongitudeDegrees>-4.37078422866761684417724609375</LongitudeDegrees>
            </Position>
            <AltitudeMeters>670.79998779296875</AltitudeMeters>
            <DistanceMeters>NAN</DistanceMeters>
          </Trackpoint>
          <Trackpoint>
            <Time>2020-12-05T10:58:16.000Z</Time>
            <Position>
              <LatitudeDegrees>36.83298342861235141754150390625</LatitudeDegrees>
              <LongitudeDegrees>-4.3707724101841449737548828125</LongitudeDegrees>
            </Position>
            <AltitudeMeters>671</AltitudeMeters>
            <DistanceMeters>NAN</DistanceMeters>
          </Trackpoint>
          <Trackpoint>
            <Time>2020-12-05T10:58:17.000Z</Time>
            <Position>
              <LatitudeDegrees>36.83298778720200061798095703125</LatitudeDegrees>
              <LongitudeDegrees>-4.3707596696913242340087890625</LongitudeDegrees>
            </Position>
            <AltitudeMeters>671</AltitudeMeters>
            <DistanceMeters>NAN</DistanceMeters>
          </Trackpoint>
          <Trackpoint>
            <Time>2020-12-05T10:58:18.000Z</Time>
            <Position>
              <LatitudeDegrees>36.83299097232520580291748046875</LatitudeDegrees>
              <LongitudeDegrees>-4.37074634246528148651123046875</LongitudeDegrees>
            </Position>
            <AltitudeMeters>671</AltitudeMeters>
            <DistanceMeters>NAN</DistanceMeters>
          </Trackpoint>
          <Trackpoint>
            <Time>2020-12-05T10:58:19.000Z</Time>
            <Position>
              <LatitudeDegrees>36.832992732524871826171875</LatitudeDegrees>
              <LongitudeDegrees>-4.37073159031569957733154296875</LongitudeDegrees>
            </Position>
            <AltitudeMeters>671</AltitudeMeters>
            <DistanceMeters>NAN</DistanceMeters>
          </Trackpoint>
          <Trackpoint>
            <Time>2020-12-05T10:58:20.000Z</Time>
            <Position>
              <LatitudeDegrees>36.832987368106842041015625</LatitudeDegrees>
              <LongitudeDegrees>-4.3707118928432464599609375</LongitudeDegrees>
            </Position>
            <AltitudeMeters>671</AltitudeMeters>
            <DistanceMeters>NAN</DistanceMeters>
          </Trackpoint>
          <Trackpoint>
            <Time>2020-12-05T10:58:21.000Z</Time>
            <Position>
              <LatitudeDegrees>36.8329804949462413787841796875</LatitudeDegrees>
              <LongitudeDegrees>-4.37069236300885677337646484375</LongitudeDegrees>
            </Position>
            <AltitudeMeters>671</AltitudeMeters>
            <DistanceMeters>NAN</DistanceMeters>
          </Trackpoint>
          <Trackpoint>
            <Time>2020-12-05T10:58:22.000Z</Time>
            <Position>
              <LatitudeDegrees>36.83297739364206790924072265625</LatitudeDegrees>
              <LongitudeDegrees>-4.3706785328686237335205078125</LongitudeDegrees>
            </Position>
            <AltitudeMeters>671.20001220703125</AltitudeMeters>
            <DistanceMeters>NAN</DistanceMeters>
          </Trackpoint>
          <Trackpoint>
            <Time>2020-12-05T10:58:23.000Z</Time>
            <Position>
              <LatitudeDegrees>36.832973621785640716552734375</LatitudeDegrees>
              <LongitudeDegrees>-4.3706634454429149627685546875</LongitudeDegrees>
            </Position>
            <AltitudeMeters>671.20001220703125</AltitudeMeters>
            <DistanceMeters>NAN</DistanceMeters>
          </Trackpoint>
          <Trackpoint>
            <Time>2020-12-05T10:58:24.000Z</Time>
            <Position>
              <LatitudeDegrees>36.8329711072146892547607421875</LatitudeDegrees>
              <LongitudeDegrees>-4.37064911238849163055419921875</LongitudeDegrees>
            </Position>
            <AltitudeMeters>671.20001220703125</AltitudeMeters>
            <DistanceMeters>NAN</DistanceMeters>
          </Trackpoint>
          <Trackpoint>
            <Time>2020-12-05T10:58:25.000Z</Time>
            <Position>
              <LatitudeDegrees>36.83296859264373779296875</LatitudeDegrees>
              <LongitudeDegrees>-4.3706356175243854522705078125</LongitudeDegrees>
            </Position>
            <AltitudeMeters>671.20001220703125</AltitudeMeters>
            <DistanceMeters>NAN</DistanceMeters>
          </Trackpoint>
          <Trackpoint>
            <Time>2020-12-05T10:58:26.000Z</Time>
            <Position>
              <LatitudeDegrees>36.83296658098697662353515625</LatitudeDegrees>
              <LongitudeDegrees>-4.37061927281320095062255859375</LongitudeDegrees>
            </Position>
            <AltitudeMeters>671.20001220703125</AltitudeMeters>
            <DistanceMeters>NAN</DistanceMeters>
          </Trackpoint>
          <Trackpoint>
            <Time>2020-12-05T10:58:27.000Z</Time>
            <Position>
              <LatitudeDegrees>36.8329645693302154541015625</LatitudeDegrees>
              <LongitudeDegrees>-4.37060368247330188751220703125</LongitudeDegrees>
            </Position>
            <AltitudeMeters>671.4000244140625</AltitudeMeters>
            <DistanceMeters>NAN</DistanceMeters>
          </Trackpoint>
          <Trackpoint>
            <Time>2020-12-05T10:58:28.000Z</Time>
            <Position>
              <LatitudeDegrees>36.83296415023505687713623046875</LatitudeDegrees>
              <LongitudeDegrees>-4.37058985233306884765625</LongitudeDegrees>
            </Position>
            <AltitudeMeters>671.4000244140625</AltitudeMeters>
            <DistanceMeters>NAN</DistanceMeters>
          </Trackpoint>
          <Trackpoint>
            <Time>2020-12-05T10:58:29.000Z</Time>
            <Position>
              <LatitudeDegrees>36.832962222397327423095703125</LatitudeDegrees>
              <LongitudeDegrees>-4.37057417817413806915283203125</LongitudeDegrees>
            </Position>
            <AltitudeMeters>671.4000244140625</AltitudeMeters>
            <DistanceMeters>NAN</DistanceMeters>
          </Trackpoint>
          <Trackpoint>
            <Time>2020-12-05T10:58:30.000Z</Time>
            <Position>
              <LatitudeDegrees>36.83295987546443939208984375</LatitudeDegrees>
              <LongitudeDegrees>-4.370560348033905029296875</LongitudeDegrees>
            </Position>
            <AltitudeMeters>671.4000244140625</AltitudeMeters>
            <DistanceMeters>NAN</DistanceMeters>
          </Trackpoint>
          <Trackpoint>
            <Time>2020-12-05T10:58:31.000Z</Time>
            <Position>
              <LatitudeDegrees>36.83295585215091705322265625</LatitudeDegrees>
              <LongitudeDegrees>-4.37054718844592571258544921875</LongitudeDegrees>
            </Position>
            <AltitudeMeters>671.4000244140625</AltitudeMeters>
            <DistanceMeters>NAN</DistanceMeters>
          </Trackpoint>
          <Trackpoint>
            <Time>2020-12-05T10:58:32.000Z</Time>
            <Position>
              <LatitudeDegrees>36.832950823009014129638671875</LatitudeDegrees>
              <LongitudeDegrees>-4.370533190667629241943359375</LongitudeDegrees>
            </Position>
            <AltitudeMeters>671.4000244140625</AltitudeMeters>
            <DistanceMeters>NAN</DistanceMeters>
          </Trackpoint>
          <Trackpoint>
            <Time>2020-12-05T10:58:33.000Z</Time>
            <Position>
              <LatitudeDegrees>36.8329462967813014984130859375</LatitudeDegrees>
              <LongitudeDegrees>-4.3705165944993495941162109375</LongitudeDegrees>
            </Position>
            <AltitudeMeters>671.4000244140625</AltitudeMeters>
            <DistanceMeters>NAN</DistanceMeters>
          </Trackpoint>
          <Trackpoint>
            <Time>2020-12-05T10:58:34.000Z</Time>
            <Position>
              <LatitudeDegrees>36.8329382501542568206787109375</LatitudeDegrees>
              <LongitudeDegrees>-4.37050159089267253875732421875</LongitudeDegrees>
            </Position>
            <AltitudeMeters>671.4000244140625</AltitudeMeters>
            <DistanceMeters>NAN</DistanceMeters>
          </Trackpoint>
          <Trackpoint>
            <Time>2020-12-05T10:58:35.000Z</Time>
            <Position>
              <LatitudeDegrees>36.83293079026043415069580078125</LatitudeDegrees>
              <LongitudeDegrees>-4.37048700638115406036376953125</LongitudeDegrees>
            </Position>
            <AltitudeMeters>671.4000244140625</AltitudeMeters>
            <DistanceMeters>NAN</DistanceMeters>
          </Trackpoint>
          <Trackpoint>
            <Time>2020-12-05T10:58:36.000Z</Time>
            <Position>
              <LatitudeDegrees>36.83292324654757976531982421875</LatitudeDegrees>
              <LongitudeDegrees>-4.37047124840319156646728515625</LongitudeDegrees>
            </Position>
            <AltitudeMeters>671.4000244140625</AltitudeMeters>
            <DistanceMeters>NAN</DistanceMeters>
          </Trackpoint>
          <Trackpoint>
            <Time>2020-12-05T10:58:37.000Z</Time>
            <Position>
              <LatitudeDegrees>36.8329162895679473876953125</LatitudeDegrees>
              <LongitudeDegrees>-4.37045297585427761077880859375</LongitudeDegrees>
            </Position>
            <AltitudeMeters>671.4000244140625</AltitudeMeters>
            <DistanceMeters>NAN</DistanceMeters>
          </Trackpoint>
          <Trackpoint>
            <Time>2020-12-05T10:58:38.000Z</Time>
            <Position>
              <LatitudeDegrees>36.83291050605475902557373046875</LatitudeDegrees>
              <LongitudeDegrees>-4.37043235637247562408447265625</LongitudeDegrees>
            </Position>
            <AltitudeMeters>671.5999755859375</AltitudeMeters>
            <DistanceMeters>NAN</DistanceMeters>
          </Trackpoint>
          <Trackpoint>
            <Time>2020-12-05T10:58:39.000Z</Time>
            <Position>
              <LatitudeDegrees>36.83290396817028522491455078125</LatitudeDegrees>
              <LongitudeDegrees>-4.37041081488132476806640625</LongitudeDegrees>
            </Position>
            <AltitudeMeters>671.5999755859375</AltitudeMeters>
            <DistanceMeters>NAN</DistanceMeters>
          </Trackpoint>
          <Trackpoint>
            <Time>2020-12-05T10:58:40.000Z</Time>
            <Position>
              <LatitudeDegrees>36.8328990228474140167236328125</LatitudeDegrees>
              <LongitudeDegrees>-4.37039338052272796630859375</LongitudeDegrees>
            </Position>
            <AltitudeMeters>671.5999755859375</AltitudeMeters>
            <DistanceMeters>NAN</DistanceMeters>
          </Trackpoint>
          <Trackpoint>
            <Time>2020-12-05T10:58:41.000Z</Time>
            <Position>
              <LatitudeDegrees>36.832889802753925323486328125</LatitudeDegrees>
              <LongitudeDegrees>-4.370378293097019195556640625</LongitudeDegrees>
            </Position>
            <AltitudeMeters>671.79998779296875</AltitudeMeters>
            <DistanceMeters>NAN</DistanceMeters>
          </Trackpoint>
          <Trackpoint>
            <Time>2020-12-05T10:58:42.000Z</Time>
            <Position>
              <LatitudeDegrees>36.83288066647946834564208984375</LatitudeDegrees>
              <LongitudeDegrees>-4.370364211499691009521484375</LongitudeDegrees>
            </Position>
            <AltitudeMeters>671.79998779296875</AltitudeMeters>
            <DistanceMeters>NAN</DistanceMeters>
          </Trackpoint>
          <Trackpoint>
            <Time>2020-12-05T10:58:43.000Z</Time>
            <Position>
              <LatitudeDegrees>36.83286809362471103668212890625</LatitudeDegrees>
              <LongitudeDegrees>-4.370352141559123992919921875</LongitudeDegrees>
            </Position>
            <AltitudeMeters>672</AltitudeMeters>
            <DistanceMeters>NAN</DistanceMeters>
          </Trackpoint>
          <Trackpoint>
            <Time>2020-12-05T10:58:44.000Z</Time>
            <Position>
              <LatitudeDegrees>36.83285392820835113525390625</LatitudeDegrees>
              <LongitudeDegrees>-4.37034132890403270721435546875</LongitudeDegrees>
            </Position>
            <AltitudeMeters>672.20001220703125</AltitudeMeters>
            <DistanceMeters>NAN</DistanceMeters>
          </Trackpoint>
          <Trackpoint>
            <Time>2020-12-05T10:58:45.000Z</Time>
            <Position>
              <LatitudeDegrees>36.8328356556594371795654296875</LatitudeDegrees>
              <LongitudeDegrees>-4.3703375570476055145263671875</LongitudeDegrees>
            </Position>
            <AltitudeMeters>672.4000244140625</AltitudeMeters>
            <DistanceMeters>NAN</DistanceMeters>
          </Trackpoint>
          <Trackpoint>
            <Time>2020-12-05T10:58:46.000Z</Time>
            <Position>
              <LatitudeDegrees>36.83282031677663326263427734375</LatitudeDegrees>
              <LongitudeDegrees>-4.3703311868011951446533203125</LongitudeDegrees>
            </Position>
            <AltitudeMeters>672.5999755859375</AltitudeMeters>
            <DistanceMeters>NAN</DistanceMeters>
          </Trackpoint>
          <Trackpoint>
            <Time>2020-12-05T10:58:47.000Z</Time>
            <Position>
              <LatitudeDegrees>36.8328051455318927764892578125</LatitudeDegrees>
              <LongitudeDegrees>-4.370325319468975067138671875</LongitudeDegrees>
            </Position>
            <AltitudeMeters>672.5999755859375</AltitudeMeters>
            <DistanceMeters>NAN</DistanceMeters>
          </Trackpoint>
          <Trackpoint>
            <Time>2020-12-05T10:58:48.000Z</Time>
            <Position>
              <LatitudeDegrees>36.83278997428715229034423828125</LatitudeDegrees>
              <LongitudeDegrees>-4.3703191168606281280517578125</LongitudeDegrees>
            </Position>
            <AltitudeMeters>673</AltitudeMeters>
            <DistanceMeters>NAN</DistanceMeters>
          </Trackpoint>
          <Trackpoint>
            <Time>2020-12-05T10:58:49.000Z</Time>
            <Position>
              <LatitudeDegrees>36.83277270756661891937255859375</LatitudeDegrees>
              <LongitudeDegrees>-4.370312578976154327392578125</LongitudeDegrees>
            </Position>
            <AltitudeMeters>673.20001220703125</AltitudeMeters>
            <DistanceMeters>NAN</DistanceMeters>
          </Trackpoint>
          <Trackpoint>
            <Time>2020-12-05T10:58:50.000Z</Time>
            <Position>
              <LatitudeDegrees>36.83275292627513408660888671875</LatitudeDegrees>
              <LongitudeDegrees>-4.37030696310102939605712890625</LongitudeDegrees>
            </Position>
            <AltitudeMeters>673.4000244140625</AltitudeMeters>
            <DistanceMeters>NAN</DistanceMeters>
          </Trackpoint>
          <Trackpoint>
            <Time>2020-12-05T10:58:51.000Z</Time>
            <Position>
              <LatitudeDegrees>36.83273456990718841552734375</LatitudeDegrees>
              <LongitudeDegrees>-4.37030226923525333404541015625</LongitudeDegrees>
            </Position>
            <AltitudeMeters>673.5999755859375</AltitudeMeters>
            <DistanceMeters>NAN</DistanceMeters>
          </Trackpoint>
          <Trackpoint>
            <Time>2020-12-05T10:58:52.000Z</Time>
            <Position>
              <LatitudeDegrees>36.8327189795672893524169921875</LatitudeDegrees>
              <LongitudeDegrees>-4.37029623426496982574462890625</LongitudeDegrees>
            </Position>
            <AltitudeMeters>673.5999755859375</AltitudeMeters>
            <DistanceMeters>NAN</DistanceMeters>
          </Trackpoint>
          <Trackpoint>
            <Time>2020-12-05T10:58:53.000Z</Time>
            <Position>
              <LatitudeDegrees>36.8327059037983417510986328125</LatitudeDegrees>
              <LongitudeDegrees>-4.3702907860279083251953125</LongitudeDegrees>
            </Position>
            <AltitudeMeters>673.79998779296875</AltitudeMeters>
            <DistanceMeters>NAN</DistanceMeters>
          </Trackpoint>
          <Trackpoint>
            <Time>2020-12-05T10:58:54.000Z</Time>
            <Position>
              <LatitudeDegrees>36.83269157074391841888427734375</LatitudeDegrees>
              <LongitudeDegrees>-4.37028718180954456329345703125</LongitudeDegrees>
            </Position>
            <AltitudeMeters>673.79998779296875</AltitudeMeters>
            <DistanceMeters>NAN</DistanceMeters>
          </Trackpoint>
          <Trackpoint>
            <Time>2020-12-05T10:58:55.000Z</Time>
            <Position>
              <LatitudeDegrees>36.83267690241336822509765625</LatitudeDegrees>
              <LongitudeDegrees>-4.37028382904827594757080078125</LongitudeDegrees>
            </Position>
            <AltitudeMeters>673.5999755859375</AltitudeMeters>
            <DistanceMeters>NAN</DistanceMeters>
          </Trackpoint>
          <Trackpoint>
            <Time>2020-12-05T10:58:56.000Z</Time>
            <Position>
              <LatitudeDegrees>36.83266173116862773895263671875</LatitudeDegrees>
              <LongitudeDegrees>-4.37028349377214908599853515625</LongitudeDegrees>
            </Position>
            <AltitudeMeters>673.5999755859375</AltitudeMeters>
            <DistanceMeters>NAN</DistanceMeters>
          </Trackpoint>
          <Trackpoint>
            <Time>2020-12-05T10:58:57.000Z</Time>
            <Position>
              <LatitudeDegrees>36.83264597319066524505615234375</LatitudeDegrees>
              <LongitudeDegrees>-4.3702835775911808013916015625</LongitudeDegrees>
            </Position>
            <AltitudeMeters>673.5999755859375</AltitudeMeters>
            <DistanceMeters>NAN</DistanceMeters>
          </Trackpoint>
          <Trackpoint>
            <Time>2020-12-05T10:58:58.000Z</Time>
            <Position>
              <LatitudeDegrees>36.83263138867914676666259765625</LatitudeDegrees>
              <LongitudeDegrees>-4.37028097920119762420654296875</LongitudeDegrees>
            </Position>
            <AltitudeMeters>673.5999755859375</AltitudeMeters>
            <DistanceMeters>NAN</DistanceMeters>
          </Trackpoint>
          <Trackpoint>
            <Time>2020-12-05T10:58:59.000Z</Time>
            <Position>
              <LatitudeDegrees>36.8326185643672943115234375</LatitudeDegrees>
              <LongitudeDegrees>-4.37028030864894390106201171875</LongitudeDegrees>
            </Position>
            <AltitudeMeters>673.5999755859375</AltitudeMeters>
            <DistanceMeters>NAN</DistanceMeters>
          </Trackpoint>
          <Trackpoint>
            <Time>2020-12-05T10:59:00.000Z</Time>
            <Position>
              <LatitudeDegrees>36.83260381221771240234375</LatitudeDegrees>
              <LongitudeDegrees>-4.370281733572483062744140625</LongitudeDegrees>
            </Position>
            <AltitudeMeters>673.5999755859375</AltitudeMeters>
            <DistanceMeters>NAN</DistanceMeters>
          </Trackpoint>
          <Trackpoint>
            <Time>2020-12-05T10:59:01.000Z</Time>
            <Position>
              <LatitudeDegrees>36.83258679695427417755126953125</LatitudeDegrees>
              <LongitudeDegrees>-4.37028349377214908599853515625</LongitudeDegrees>
            </Position>
            <AltitudeMeters>673.5999755859375</AltitudeMeters>
            <DistanceMeters>NAN</DistanceMeters>
          </Trackpoint>
          <Trackpoint>
            <Time>2020-12-05T10:59:02.000Z</Time>
            <Position>
              <LatitudeDegrees>36.83256827294826507568359375</LatitudeDegrees>
              <LongitudeDegrees>-4.3702802248299121856689453125</LongitudeDegrees>
            </Position>
            <AltitudeMeters>673.79998779296875</AltitudeMeters>
            <DistanceMeters>NAN</DistanceMeters>
          </Trackpoint>
          <Trackpoint>
            <Time>2020-12-05T10:59:03.000Z</Time>
            <Position>
              <LatitudeDegrees>36.83255259878933429718017578125</LatitudeDegrees>
              <LongitudeDegrees>-4.37027913518249988555908203125</LongitudeDegrees>
            </Position>
            <AltitudeMeters>673.79998779296875</AltitudeMeters>
            <DistanceMeters>NAN</DistanceMeters>
          </Trackpoint>
          <Trackpoint>
            <Time>2020-12-05T10:59:04.000Z</Time>
            <Position>
              <LatitudeDegrees>36.83253784663975238800048828125</LatitudeDegrees>
              <LongitudeDegrees>-4.37027578242123126983642578125</LongitudeDegrees>
            </Position>
            <AltitudeMeters>674</AltitudeMeters>
            <DistanceMeters>NAN</DistanceMeters>
          </Trackpoint>
          <Trackpoint>
            <Time>2020-12-05T10:59:05.000Z</Time>
            <Position>
              <LatitudeDegrees>36.83252326212823390960693359375</LatitudeDegrees>
              <LongitudeDegrees>-4.37027343548834323883056640625</LongitudeDegrees>
            </Position>
            <AltitudeMeters>674</AltitudeMeters>
            <DistanceMeters>NAN</DistanceMeters>
          </Trackpoint>
          <Trackpoint>
            <Time>2020-12-05T10:59:06.000Z</Time>
            <Position>
              <LatitudeDegrees>36.8325087614357471466064453125</LatitudeDegrees>
              <LongitudeDegrees>-4.37027259729802608489990234375</LongitudeDegrees>
            </Position>
            <AltitudeMeters>674</AltitudeMeters>
            <DistanceMeters>NAN</DistanceMeters>
          </Trackpoint>
          <Trackpoint>
            <Time>2020-12-05T10:59:07.000Z</Time>
            <Position>
              <LatitudeDegrees>36.832493506371974945068359375</LatitudeDegrees>
              <LongitudeDegrees>-4.37026957981288433074951171875</LongitudeDegrees>
            </Position>
            <AltitudeMeters>674.20001220703125</AltitudeMeters>
            <DistanceMeters>NAN</DistanceMeters>
          </Trackpoint>
          <Trackpoint>
            <Time>2020-12-05T10:59:08.000Z</Time>
            <Position>
              <LatitudeDegrees>36.832477748394012451171875</LatitudeDegrees>
              <LongitudeDegrees>-4.37026505358517169952392578125</LongitudeDegrees>
            </Position>
            <AltitudeMeters>674.20001220703125</AltitudeMeters>
            <DistanceMeters>NAN</DistanceMeters>
          </Trackpoint>
          <Trackpoint>
            <Time>2020-12-05T10:59:09.000Z</Time>
            <Position>
              <LatitudeDegrees>36.83246433734893798828125</LatitudeDegrees>
              <LongitudeDegrees>-4.3702639639377593994140625</LongitudeDegrees>
            </Position>
            <AltitudeMeters>674.20001220703125</AltitudeMeters>
            <DistanceMeters>NAN</DistanceMeters>
          </Trackpoint>
          <Trackpoint>
            <Time>2020-12-05T10:59:10.000Z</Time>
            <Position>
              <LatitudeDegrees>36.83245251886546611785888671875</LatitudeDegrees>
              <LongitudeDegrees>-4.37026471830904483795166015625</LongitudeDegrees>
            </Position>
            <AltitudeMeters>674.4000244140625</AltitudeMeters>
            <DistanceMeters>NAN</DistanceMeters>
          </Trackpoint>
          <Trackpoint>
            <Time>2020-12-05T10:59:11.000Z</Time>
            <Position>
              <LatitudeDegrees>36.8324400298297405242919921875</LatitudeDegrees>
              <LongitudeDegrees>-4.37026488594710826873779296875</LongitudeDegrees>
            </Position>
            <AltitudeMeters>674.4000244140625</AltitudeMeters>
            <DistanceMeters>NAN</DistanceMeters>
          </Trackpoint>
          <Trackpoint>
            <Time>2020-12-05T10:59:12.000Z</Time>
            <Position>
              <LatitudeDegrees>36.83242552913725376129150390625</LatitudeDegrees>
              <LongitudeDegrees>-4.37026371248066425323486328125</LongitudeDegrees>
            </Position>
            <AltitudeMeters>674.5999755859375</AltitudeMeters>
            <DistanceMeters>NAN</DistanceMeters>
          </Trackpoint>
          <Trackpoint>
            <Time>2020-12-05T10:59:13.000Z</Time>
            <Position>
              <LatitudeDegrees>36.83241379447281360626220703125</LatitudeDegrees>
              <LongitudeDegrees>-4.370264299213886260986328125</LongitudeDegrees>
            </Position>
            <AltitudeMeters>674.5999755859375</AltitudeMeters>
            <DistanceMeters>NAN</DistanceMeters>
          </Trackpoint>
          <Trackpoint>
            <Time>2020-12-05T10:59:14.000Z</Time>
            <Position>
              <LatitudeDegrees>36.83240055106580257415771484375</LatitudeDegrees>
              <LongitudeDegrees>-4.370266310870647430419921875</LongitudeDegrees>
            </Position>
            <AltitudeMeters>674.5999755859375</AltitudeMeters>
            <DistanceMeters>NAN</DistanceMeters>
          </Trackpoint>
          <Trackpoint>
            <Time>2020-12-05T10:59:15.000Z</Time>
            <Position>
              <LatitudeDegrees>36.83238764293491840362548828125</LatitudeDegrees>
              <LongitudeDegrees>-4.37026639468967914581298828125</LongitudeDegrees>
            </Position>
            <AltitudeMeters>674.5999755859375</AltitudeMeters>
            <DistanceMeters>NAN</DistanceMeters>
          </Trackpoint>
          <Trackpoint>
            <Time>2020-12-05T10:59:16.000Z</Time>
            <Position>
              <LatitudeDegrees>36.832375489175319671630859375</LatitudeDegrees>
              <LongitudeDegrees>-4.37026639468967914581298828125</LongitudeDegrees>
            </Position>
            <AltitudeMeters>674.79998779296875</AltitudeMeters>
            <DistanceMeters>NAN</DistanceMeters>
          </Trackpoint>
          <Trackpoint>
            <Time>2020-12-05T10:59:17.000Z</Time>
            <Position>
              <LatitudeDegrees>36.83236769400537014007568359375</LatitudeDegrees>
              <LongitudeDegrees>-4.37026773579418659210205078125</LongitudeDegrees>
            </Position>
            <AltitudeMeters>674.5999755859375</AltitudeMeters>
            <DistanceMeters>NAN</DistanceMeters>
          </Trackpoint>
          <Trackpoint>
            <Time>2020-12-05T10:59:18.000Z</Time>
            <Position>
              <LatitudeDegrees>36.83235830627381801605224609375</LatitudeDegrees>
              <LongitudeDegrees>-4.3702728487551212310791015625</LongitudeDegrees>
            </Position>
            <AltitudeMeters>674.5999755859375</AltitudeMeters>
            <DistanceMeters>NAN</DistanceMeters>
          </Trackpoint>
          <Trackpoint>
            <Time>2020-12-05T10:59:19.000Z</Time>
            <Position>
              <LatitudeDegrees>36.83234740979969501495361328125</LatitudeDegrees>
              <LongitudeDegrees>-4.3702748604118824005126953125</LongitudeDegrees>
            </Position>
            <AltitudeMeters>674.5999755859375</AltitudeMeters>
            <DistanceMeters>NAN</DistanceMeters>
          </Trackpoint>
          <Trackpoint>
            <Time>2020-12-05T10:59:20.000Z</Time>
            <Position>
              <LatitudeDegrees>36.8323401175439357757568359375</LatitudeDegrees>
              <LongitudeDegrees>-4.3702745251357555389404296875</LongitudeDegrees>
            </Position>
            <AltitudeMeters>674.5999755859375</AltitudeMeters>
            <DistanceMeters>NAN</DistanceMeters>
          </Trackpoint>
          <Trackpoint>
            <Time>2020-12-05T10:59:21.000Z</Time>
            <Position>
              <LatitudeDegrees>36.8323314003646373748779296875</LatitudeDegrees>
              <LongitudeDegrees>-4.37027511186897754669189453125</LongitudeDegrees>
            </Position>
            <AltitudeMeters>674.5999755859375</AltitudeMeters>
            <DistanceMeters>NAN</DistanceMeters>
          </Trackpoint>
          <Trackpoint>
            <Time>2020-12-05T10:59:22.000Z</Time>
            <Position>
              <LatitudeDegrees>36.8323223479092121124267578125</LatitudeDegrees>
              <LongitudeDegrees>-4.370270334184169769287109375</LongitudeDegrees>
            </Position>
            <AltitudeMeters>674.5999755859375</AltitudeMeters>
            <DistanceMeters>NAN</DistanceMeters>
          </Trackpoint>
          <Trackpoint>
            <Time>2020-12-05T10:59:23.000Z</Time>
            <Position>
              <LatitudeDegrees>36.83231773786246776580810546875</LatitudeDegrees>
              <LongitudeDegrees>-4.3702668137848377227783203125</LongitudeDegrees>
            </Position>
            <AltitudeMeters>674.5999755859375</AltitudeMeters>
            <DistanceMeters>NAN</DistanceMeters>
          </Trackpoint>
          <Trackpoint>
            <Time>2020-12-05T10:59:24.000Z</Time>
            <Position>
              <LatitudeDegrees>36.83231974951922893524169921875</LatitudeDegrees>
              <LongitudeDegrees>-4.37025725841522216796875</LongitudeDegrees>
            </Position>
            <AltitudeMeters>674.4000244140625</AltitudeMeters>
            <DistanceMeters>NAN</DistanceMeters>
          </Trackpoint>
          <Trackpoint>
            <Time>2020-12-05T10:59:25.000Z</Time>
            <Position>
              <LatitudeDegrees>36.83231740258634090423583984375</LatitudeDegrees>
              <LongitudeDegrees>-4.37024963088333606719970703125</LongitudeDegrees>
            </Position>
            <AltitudeMeters>674.4000244140625</AltitudeMeters>
            <DistanceMeters>NAN</DistanceMeters>
          </Trackpoint>
          <Trackpoint>
            <Time>2020-12-05T10:59:26.000Z</Time>
            <Position>
              <LatitudeDegrees>36.83231404982507228851318359375</LatitudeDegrees>
              <LongitudeDegrees>-4.37023957259953022003173828125</LongitudeDegrees>
            </Position>
            <AltitudeMeters>674.4000244140625</AltitudeMeters>
            <DistanceMeters>NAN</DistanceMeters>
          </Trackpoint>
          <Trackpoint>
            <Time>2020-12-05T10:59:27.000Z</Time>
            <Position>
              <LatitudeDegrees>36.8323132954537868499755859375</LatitudeDegrees>
              <LongitudeDegrees>-4.37023923732340335845947265625</LongitudeDegrees>
            </Position>
            <AltitudeMeters>674.4000244140625</AltitudeMeters>
            <DistanceMeters>NAN</DistanceMeters>
          </Trackpoint>
          <Trackpoint>
            <Time>2020-12-05T10:59:28.000Z</Time>
            <Position>
              <LatitudeDegrees>36.83231220580637454986572265625</LatitudeDegrees>
              <LongitudeDegrees>-4.37024460174143314361572265625</LongitudeDegrees>
            </Position>
            <AltitudeMeters>674.4000244140625</AltitudeMeters>
            <DistanceMeters>NAN</DistanceMeters>
          </Trackpoint>
          <Trackpoint>
            <Time>2020-12-05T10:59:29.000Z</Time>
            <Position>
              <LatitudeDegrees>36.83231086470186710357666015625</LatitudeDegrees>
              <LongitudeDegrees>-4.3702490441501140594482421875</LongitudeDegrees>
            </Position>
            <AltitudeMeters>674.4000244140625</AltitudeMeters>
            <DistanceMeters>NAN</DistanceMeters>
          </Trackpoint>
          <Trackpoint>
            <Time>2020-12-05T10:59:30.000Z</Time>
            <Position>
              <LatitudeDegrees>36.83231203816831111907958984375</LatitudeDegrees>
              <LongitudeDegrees>-4.37025717459619045257568359375</LongitudeDegrees>
            </Position>
            <AltitudeMeters>674.4000244140625</AltitudeMeters>
            <DistanceMeters>NAN</DistanceMeters>
          </Trackpoint>
          <Trackpoint>
            <Time>2020-12-05T10:59:31.000Z</Time>
            <Position>
              <LatitudeDegrees>36.83231438510119915008544921875</LatitudeDegrees>
              <LongitudeDegrees>-4.370267651975154876708984375</LongitudeDegrees>
            </Position>
            <AltitudeMeters>674.5999755859375</AltitudeMeters>
            <DistanceMeters>NAN</DistanceMeters>
          </Trackpoint>
          <Trackpoint>
            <Time>2020-12-05T10:59:32.000Z</Time>
            <Position>
              <LatitudeDegrees>36.83231522329151630401611328125</LatitudeDegrees>
              <LongitudeDegrees>-4.3702721782028675079345703125</LongitudeDegrees>
            </Position>
            <AltitudeMeters>674.5999755859375</AltitudeMeters>
            <DistanceMeters>NAN</DistanceMeters>
          </Trackpoint>
          <Trackpoint>
            <Time>2020-12-05T10:59:33.000Z</Time>
            <Position>
              <LatitudeDegrees>36.8323153071105480194091796875</LatitudeDegrees>
              <LongitudeDegrees>-4.37027511186897754669189453125</LongitudeDegrees>
            </Position>
            <AltitudeMeters>674.79998779296875</AltitudeMeters>
            <DistanceMeters>NAN</DistanceMeters>
          </Trackpoint>
          <Trackpoint>
            <Time>2020-12-05T10:59:34.000Z</Time>
            <Position>
              <LatitudeDegrees>36.8323139660060405731201171875</LatitudeDegrees>
              <LongitudeDegrees>-4.37027695588767528533935546875</LongitudeDegrees>
            </Position>
            <AltitudeMeters>674.79998779296875</AltitudeMeters>
            <DistanceMeters>NAN</DistanceMeters>
          </Trackpoint>
          <Trackpoint>
            <Time>2020-12-05T10:59:35.000Z</Time>
            <Position>
              <LatitudeDegrees>36.83230943977832794189453125</LatitudeDegrees>
              <LongitudeDegrees>-4.37027511186897754669189453125</LongitudeDegrees>
            </Position>
            <AltitudeMeters>675</AltitudeMeters>
            <DistanceMeters>NAN</DistanceMeters>
          </Trackpoint>
          <Trackpoint>
            <Time>2020-12-05T10:59:36.000Z</Time>
            <Position>
              <LatitudeDegrees>36.8323022313416004180908203125</LatitudeDegrees>
              <LongitudeDegrees>-4.3702651374042034149169921875</LongitudeDegrees>
            </Position>
            <AltitudeMeters>675</AltitudeMeters>
            <DistanceMeters>NAN</DistanceMeters>
          </Trackpoint>
          <Trackpoint>
            <Time>2020-12-05T10:59:37.000Z</Time>
            <Position>
              <LatitudeDegrees>36.83229477144777774810791015625</LatitudeDegrees>
              <LongitudeDegrees>-4.370256923139095306396484375</LongitudeDegrees>
            </Position>
            <AltitudeMeters>675</AltitudeMeters>
            <DistanceMeters>NAN</DistanceMeters>
          </Trackpoint>
          <Trackpoint>
            <Time>2020-12-05T10:59:38.000Z</Time>
            <Position>
              <LatitudeDegrees>36.83228395879268646240234375</LatitudeDegrees>
              <LongitudeDegrees>-4.37025164254009723663330078125</LongitudeDegrees>
            </Position>
            <AltitudeMeters>675</AltitudeMeters>
            <DistanceMeters>NAN</DistanceMeters>
          </Trackpoint>
          <Trackpoint>
            <Time>2020-12-05T10:59:39.000Z</Time>
            <Position>
              <LatitudeDegrees>36.83227096684277057647705078125</LatitudeDegrees>
              <LongitudeDegrees>-4.37024854123592376708984375</LongitudeDegrees>
            </Position>
            <AltitudeMeters>675</AltitudeMeters>
            <DistanceMeters>NAN</DistanceMeters>
          </Trackpoint>
          <Trackpoint>
            <Time>2020-12-05T10:59:40.000Z</Time>
            <Position>
              <LatitudeDegrees>36.832260154187679290771484375</LatitudeDegrees>
              <LongitudeDegrees>-4.3702446855604648590087890625</LongitudeDegrees>
            </Position>
            <AltitudeMeters>675.20001220703125</AltitudeMeters>
            <DistanceMeters>NAN</DistanceMeters>
          </Trackpoint>
          <Trackpoint>
            <Time>2020-12-05T10:59:41.000Z</Time>
            <Position>
              <LatitudeDegrees>36.8322484195232391357421875</LatitudeDegrees>
              <LongitudeDegrees>-4.37024108134210109710693359375</LongitudeDegrees>
            </Position>
            <AltitudeMeters>675.20001220703125</AltitudeMeters>
            <DistanceMeters>NAN</DistanceMeters>
          </Trackpoint>
          <Trackpoint>
            <Time>2020-12-05T10:59:42.000Z</Time>
            <Position>
              <LatitudeDegrees>36.83223903179168701171875</LatitudeDegrees>
              <LongitudeDegrees>-4.37023655511438846588134765625</LongitudeDegrees>
            </Position>
            <AltitudeMeters>675.4000244140625</AltitudeMeters>
            <DistanceMeters>NAN</DistanceMeters>
          </Trackpoint>
          <Trackpoint>
            <Time>2020-12-05T10:59:43.000Z</Time>
            <Position>
              <LatitudeDegrees>36.83222855441272258758544921875</LatitudeDegrees>
              <LongitudeDegrees>-4.3702319450676441192626953125</LongitudeDegrees>
            </Position>
            <AltitudeMeters>675.5999755859375</AltitudeMeters>
            <DistanceMeters>NAN</DistanceMeters>
          </Trackpoint>
          <Trackpoint>
            <Time>2020-12-05T10:59:44.000Z</Time>
            <Position>
              <LatitudeDegrees>36.83222000487148761749267578125</LatitudeDegrees>
              <LongitudeDegrees>-4.3702259100973606109619140625</LongitudeDegrees>
            </Position>
            <AltitudeMeters>675.5999755859375</AltitudeMeters>
            <DistanceMeters>NAN</DistanceMeters>
          </Trackpoint>
          <Trackpoint>
            <Time>2020-12-05T10:59:45.000Z</Time>
            <Position>
              <LatitudeDegrees>36.83221195824444293975830078125</LatitudeDegrees>
              <LongitudeDegrees>-4.37021811492741107940673828125</LongitudeDegrees>
            </Position>
            <AltitudeMeters>675.79998779296875</AltitudeMeters>
            <DistanceMeters>NAN</DistanceMeters>
          </Trackpoint>
          <Trackpoint>
            <Time>2020-12-05T10:59:46.000Z</Time>
            <Position>
              <LatitudeDegrees>36.83219905011355876922607421875</LatitudeDegrees>
              <LongitudeDegrees>-4.37020638026297092437744140625</LongitudeDegrees>
            </Position>
            <AltitudeMeters>675.79998779296875</AltitudeMeters>
            <DistanceMeters>NAN</DistanceMeters>
          </Trackpoint>
          <Trackpoint>
            <Time>2020-12-05T10:59:47.000Z</Time>
            <Position>
              <LatitudeDegrees>36.83218547143042087554931640625</LatitudeDegrees>
              <LongitudeDegrees>-4.3701927177608013153076171875</LongitudeDegrees>
            </Position>
            <AltitudeMeters>676</AltitudeMeters>
            <DistanceMeters>NAN</DistanceMeters>
          </Trackpoint>
          <Trackpoint>
            <Time>2020-12-05T10:59:48.000Z</Time>
            <Position>
              <LatitudeDegrees>36.83217558078467845916748046875</LatitudeDegrees>
              <LongitudeDegrees>-4.3701873533427715301513671875</LongitudeDegrees>
            </Position>
            <AltitudeMeters>676.20001220703125</AltitudeMeters>
            <DistanceMeters>NAN</DistanceMeters>
          </Trackpoint>
          <Trackpoint>
            <Time>2020-12-05T10:59:49.000Z</Time>
            <Position>
              <LatitudeDegrees>36.83216501958668231964111328125</LatitudeDegrees>
              <LongitudeDegrees>-4.3701819889247417449951171875</LongitudeDegrees>
            </Position>
            <AltitudeMeters>676.4000244140625</AltitudeMeters>
            <DistanceMeters>NAN</DistanceMeters>
          </Trackpoint>
          <Trackpoint>
            <Time>2020-12-05T10:59:50.000Z</Time>
            <Position>
              <LatitudeDegrees>36.83215680532157421112060546875</LatitudeDegrees>
              <LongitudeDegrees>-4.370171763002872467041015625</LongitudeDegrees>
            </Position>
            <AltitudeMeters>676.5999755859375</AltitudeMeters>
            <DistanceMeters>NAN</DistanceMeters>
          </Trackpoint>
          <Trackpoint>
            <Time>2020-12-05T10:59:51.000Z</Time>
            <Position>
              <LatitudeDegrees>36.83214926160871982574462890625</LatitudeDegrees>
              <LongitudeDegrees>-4.37016061507165431976318359375</LongitudeDegrees>
            </Position>
            <AltitudeMeters>676.5999755859375</AltitudeMeters>
            <DistanceMeters>NAN</DistanceMeters>
          </Trackpoint>
          <Trackpoint>
            <Time>2020-12-05T10:59:52.000Z</Time>
            <Position>
              <LatitudeDegrees>36.83214071206748485565185546875</LatitudeDegrees>
              <LongitudeDegrees>-4.370148964226245880126953125</LongitudeDegrees>
            </Position>
            <AltitudeMeters>676.79998779296875</AltitudeMeters>
            <DistanceMeters>NAN</DistanceMeters>
          </Trackpoint>
          <Trackpoint>
            <Time>2020-12-05T10:59:53.000Z</Time>
            <Position>
              <LatitudeDegrees>36.83213501237332820892333984375</LatitudeDegrees>
              <LongitudeDegrees>-4.37013748101890087127685546875</LongitudeDegrees>
            </Position>
            <AltitudeMeters>676.79998779296875</AltitudeMeters>
            <DistanceMeters>NAN</DistanceMeters>
          </Trackpoint>
          <Trackpoint>
            <Time>2020-12-05T10:59:54.000Z</Time>
            <Position>
              <LatitudeDegrees>36.83212830685079097747802734375</LatitudeDegrees>
              <LongitudeDegrees>-4.37012658454477787017822265625</LongitudeDegrees>
            </Position>
            <AltitudeMeters>677.20001220703125</AltitudeMeters>
            <DistanceMeters>NAN</DistanceMeters>
          </Trackpoint>
          <Trackpoint>
            <Time>2020-12-05T10:59:55.000Z</Time>
            <Position>
              <LatitudeDegrees>36.8321195058524608612060546875</LatitudeDegrees>
              <LongitudeDegrees>-4.37011719681322574615478515625</LongitudeDegrees>
            </Position>
            <AltitudeMeters>677.5999755859375</AltitudeMeters>
            <DistanceMeters>NAN</DistanceMeters>
          </Trackpoint>
          <Trackpoint>
            <Time>2020-12-05T10:59:56.000Z</Time>
            <Position>
              <LatitudeDegrees>36.83211087249219417572021484375</LatitudeDegrees>
              <LongitudeDegrees>-4.3701028637588024139404296875</LongitudeDegrees>
            </Position>
            <AltitudeMeters>678</AltitudeMeters>
            <DistanceMeters>NAN</DistanceMeters>
          </Trackpoint>
          <Trackpoint>
            <Time>2020-12-05T10:59:57.000Z</Time>
            <Position>
              <LatitudeDegrees>36.832105927169322967529296875</LatitudeDegrees>
              <LongitudeDegrees>-4.3700924701988697052001953125</LongitudeDegrees>
            </Position>
            <AltitudeMeters>678.20001220703125</AltitudeMeters>
            <DistanceMeters>NAN</DistanceMeters>
          </Trackpoint>
          <Trackpoint>
            <Time>2020-12-05T10:59:58.000Z</Time>
            <Position>
              <LatitudeDegrees>36.8320987187325954437255859375</LatitudeDegrees>
              <LongitudeDegrees>-4.37008199281990528106689453125</LongitudeDegrees>
            </Position>
            <AltitudeMeters>678.20001220703125</AltitudeMeters>
            <DistanceMeters>NAN</DistanceMeters>
          </Trackpoint>
          <Trackpoint>
            <Time>2020-12-05T10:59:59.000Z</Time>
            <Position>
              <LatitudeDegrees>36.83209561742842197418212890625</LatitudeDegrees>
              <LongitudeDegrees>-4.3700710125267505645751953125</LongitudeDegrees>
            </Position>
            <AltitudeMeters>678.20001220703125</AltitudeMeters>
            <DistanceMeters>NAN</DistanceMeters>
          </Trackpoint>
          <Trackpoint>
            <Time>2020-12-05T11:00:00.000Z</Time>
            <Position>
              <LatitudeDegrees>36.8320963717997074127197265625</LatitudeDegrees>
              <LongitudeDegrees>-4.37006103806197643280029296875</LongitudeDegrees>
            </Position>
            <AltitudeMeters>678.20001220703125</AltitudeMeters>
            <DistanceMeters>NAN</DistanceMeters>
          </Trackpoint>
          <Trackpoint>
            <Time>2020-12-05T11:00:01.000Z</Time>
            <Position>
              <LatitudeDegrees>36.8320940248668193817138671875</LatitudeDegrees>
              <LongitudeDegrees>-4.370047710835933685302734375</LongitudeDegrees>
            </Position>
            <AltitudeMeters>678</AltitudeMeters>
            <DistanceMeters>NAN</DistanceMeters>
          </Trackpoint>
          <Trackpoint>
            <Time>2020-12-05T11:00:02.000Z</Time>
            <Position>
              <LatitudeDegrees>36.83209125883877277374267578125</LatitudeDegrees>
              <LongitudeDegrees>-4.3700358085334300994873046875</LongitudeDegrees>
            </Position>
            <AltitudeMeters>678</AltitudeMeters>
            <DistanceMeters>NAN</DistanceMeters>
          </Trackpoint>
          <Trackpoint>
            <Time>2020-12-05T11:00:03.000Z</Time>
            <Position>
              <LatitudeDegrees>36.83208815753459930419921875</LatitudeDegrees>
              <LongitudeDegrees>-4.37002181075513362884521484375</LongitudeDegrees>
            </Position>
            <AltitudeMeters>677.79998779296875</AltitudeMeters>
            <DistanceMeters>NAN</DistanceMeters>
          </Trackpoint>
          <Trackpoint>
            <Time>2020-12-05T11:00:04.000Z</Time>
            <Position>
              <LatitudeDegrees>36.8320848047733306884765625</LatitudeDegrees>
              <LongitudeDegrees>-4.3700052984058856964111328125</LongitudeDegrees>
            </Position>
            <AltitudeMeters>677.79998779296875</AltitudeMeters>
            <DistanceMeters>NAN</DistanceMeters>
          </Trackpoint>
          <Trackpoint>
            <Time>2020-12-05T11:00:05.000Z</Time>
            <Position>
              <LatitudeDegrees>36.83207985945045948028564453125</LatitudeDegrees>
              <LongitudeDegrees>-4.369984678924083709716796875</LongitudeDegrees>
            </Position>
            <AltitudeMeters>677.5999755859375</AltitudeMeters>
            <DistanceMeters>NAN</DistanceMeters>
          </Trackpoint>
          <Trackpoint>
            <Time>2020-12-05T11:00:06.000Z</Time>
            <Position>
              <LatitudeDegrees>36.83207516558468341827392578125</LatitudeDegrees>
              <LongitudeDegrees>-4.36996825039386749267578125</LongitudeDegrees>
            </Position>
            <AltitudeMeters>677.5999755859375</AltitudeMeters>
            <DistanceMeters>NAN</DistanceMeters>
          </Trackpoint>
          <Trackpoint>
            <Time>2020-12-05T11:00:07.000Z</Time>
            <Position>
              <LatitudeDegrees>36.832070052623748779296875</LatitudeDegrees>
              <LongitudeDegrees>-4.36995525844395160675048828125</LongitudeDegrees>
            </Position>
            <AltitudeMeters>677.20001220703125</AltitudeMeters>
            <DistanceMeters>NAN</DistanceMeters>
          </Trackpoint>
          <Trackpoint>
            <Time>2020-12-05T11:00:08.000Z</Time>
            <Position>
              <LatitudeDegrees>36.8320618383586406707763671875</LatitudeDegrees>
              <LongitudeDegrees>-4.36994402669370174407958984375</LongitudeDegrees>
            </Position>
            <AltitudeMeters>677</AltitudeMeters>
            <DistanceMeters>NAN</DistanceMeters>
          </Trackpoint>
          <Trackpoint>
            <Time>2020-12-05T11:00:09.000Z</Time>
            <Position>
              <LatitudeDegrees>36.83205488137900829315185546875</LatitudeDegrees>
              <LongitudeDegrees>-4.369932711124420166015625</LongitudeDegrees>
            </Position>
            <AltitudeMeters>676.5999755859375</AltitudeMeters>
            <DistanceMeters>NAN</DistanceMeters>
          </Trackpoint>
          <Trackpoint>
            <Time>2020-12-05T11:00:10.000Z</Time>
            <Position>
              <LatitudeDegrees>36.8320497684180736541748046875</LatitudeDegrees>
              <LongitudeDegrees>-4.36992038972675800323486328125</LongitudeDegrees>
            </Position>
            <AltitudeMeters>676.5999755859375</AltitudeMeters>
            <DistanceMeters>NAN</DistanceMeters>
          </Trackpoint>
          <Trackpoint>
            <Time>2020-12-05T11:00:11.000Z</Time>
            <Position>
              <LatitudeDegrees>36.83204566128551959991455078125</LatitudeDegrees>
              <LongitudeDegrees>-4.3699107505381107330322265625</LongitudeDegrees>
            </Position>
            <AltitudeMeters>676.5999755859375</AltitudeMeters>
            <DistanceMeters>NAN</DistanceMeters>
          </Trackpoint>
          <Trackpoint>
            <Time>2020-12-05T11:00:12.000Z</Time>
            <Position>
              <LatitudeDegrees>36.83204591274261474609375</LatitudeDegrees>
              <LongitudeDegrees>-4.36990178190171718597412109375</LongitudeDegrees>
            </Position>
            <AltitudeMeters>676.5999755859375</AltitudeMeters>
            <DistanceMeters>NAN</DistanceMeters>
          </Trackpoint>
          <Trackpoint>
            <Time>2020-12-05T11:00:13.000Z</Time>
            <Position>
              <LatitudeDegrees>36.83204214088618755340576171875</LatitudeDegrees>
              <LongitudeDegrees>-4.36989256180822849273681640625</LongitudeDegrees>
            </Position>
            <AltitudeMeters>676.5999755859375</AltitudeMeters>
            <DistanceMeters>NAN</DistanceMeters>
          </Trackpoint>
          <Trackpoint>
            <Time>2020-12-05T11:00:14.000Z</Time>
            <Position>
              <LatitudeDegrees>36.83204046450555324554443359375</LatitudeDegrees>
              <LongitudeDegrees>-4.3698832578957080841064453125</LongitudeDegrees>
            </Position>
            <AltitudeMeters>676.5999755859375</AltitudeMeters>
            <DistanceMeters>NAN</DistanceMeters>
          </Trackpoint>
          <Trackpoint>
            <Time>2020-12-05T11:00:15.000Z</Time>
            <Position>
              <LatitudeDegrees>36.832037866115570068359375</LatitudeDegrees>
              <LongitudeDegrees>-4.369873367249965667724609375</LongitudeDegrees>
            </Position>
            <AltitudeMeters>676.79998779296875</AltitudeMeters>
            <DistanceMeters>NAN</DistanceMeters>
          </Trackpoint>
          <Trackpoint>
            <Time>2020-12-05T11:00:16.000Z</Time>
            <Position>
              <LatitudeDegrees>36.83203342370688915252685546875</LatitudeDegrees>
              <LongitudeDegrees>-4.36986255459487438201904296875</LongitudeDegrees>
            </Position>
            <AltitudeMeters>677</AltitudeMeters>
            <DistanceMeters>NAN</DistanceMeters>
          </Trackpoint>
          <Trackpoint>
            <Time>2020-12-05T11:00:17.000Z</Time>
            <Position>
              <LatitudeDegrees>36.8320284783840179443359375</LatitudeDegrees>
              <LongitudeDegrees>-4.36985031701624393463134765625</LongitudeDegrees>
            </Position>
            <AltitudeMeters>677</AltitudeMeters>
            <DistanceMeters>NAN</DistanceMeters>
          </Trackpoint>
          <Trackpoint>
            <Time>2020-12-05T11:00:18.000Z</Time>
            <Position>
              <LatitudeDegrees>36.83202319778501987457275390625</LatitudeDegrees>
              <LongitudeDegrees>-4.36983724124729633331298828125</LongitudeDegrees>
            </Position>
            <AltitudeMeters>677.20001220703125</AltitudeMeters>
            <DistanceMeters>NAN</DistanceMeters>
          </Trackpoint>
          <Trackpoint>
            <Time>2020-12-05T11:00:19.000Z</Time>
            <Position>
              <LatitudeDegrees>36.83201967738568782806396484375</LatitudeDegrees>
              <LongitudeDegrees>-4.3698215670883655548095703125</LongitudeDegrees>
            </Position>
            <AltitudeMeters>677.20001220703125</AltitudeMeters>
            <DistanceMeters>NAN</DistanceMeters>
          </Trackpoint>
          <Trackpoint>
            <Time>2020-12-05T11:00:20.000Z</Time>
            <Position>
              <LatitudeDegrees>36.83201800100505352020263671875</LatitudeDegrees>
              <LongitudeDegrees>-4.3698051385581493377685546875</LongitudeDegrees>
            </Position>
            <AltitudeMeters>677.4000244140625</AltitudeMeters>
            <DistanceMeters>NAN</DistanceMeters>
          </Trackpoint>
          <Trackpoint>
            <Time>2020-12-05T11:00:21.000Z</Time>
            <Position>
              <LatitudeDegrees>36.832018755376338958740234375</LatitudeDegrees>
              <LongitudeDegrees>-4.36978661455214023590087890625</LongitudeDegrees>
            </Position>
            <AltitudeMeters>677.4000244140625</AltitudeMeters>
            <DistanceMeters>NAN</DistanceMeters>
          </Trackpoint>
          <Trackpoint>
            <Time>2020-12-05T11:00:22.000Z</Time>
            <Position>
              <LatitudeDegrees>36.83201833628118038177490234375</LatitudeDegrees>
              <LongitudeDegrees>-4.3697706051170825958251953125</LongitudeDegrees>
            </Position>
            <AltitudeMeters>677.4000244140625</AltitudeMeters>
            <DistanceMeters>NAN</DistanceMeters>
          </Trackpoint>
          <Trackpoint>
            <Time>2020-12-05T11:00:23.000Z</Time>
            <Position>
              <LatitudeDegrees>36.83201615698635578155517578125</LatitudeDegrees>
              <LongitudeDegrees>-4.36975409276783466339111328125</LongitudeDegrees>
            </Position>
            <AltitudeMeters>677.4000244140625</AltitudeMeters>
            <DistanceMeters>NAN</DistanceMeters>
          </Trackpoint>
          <Trackpoint>
            <Time>2020-12-05T11:00:24.000Z</Time>
            <Position>
              <LatitudeDegrees>36.8320138938724994659423828125</LatitudeDegrees>
              <LongitudeDegrees>-4.369739592075347900390625</LongitudeDegrees>
            </Position>
            <AltitudeMeters>677.4000244140625</AltitudeMeters>
            <DistanceMeters>NAN</DistanceMeters>
          </Trackpoint>
          <Trackpoint>
            <Time>2020-12-05T11:00:25.000Z</Time>
            <Position>
              <LatitudeDegrees>36.8320125527679920196533203125</LatitudeDegrees>
              <LongitudeDegrees>-4.369728527963161468505859375</LongitudeDegrees>
            </Position>
            <AltitudeMeters>677.5999755859375</AltitudeMeters>
            <DistanceMeters>NAN</DistanceMeters>
          </Trackpoint>
          <Trackpoint>
            <Time>2020-12-05T11:00:26.000Z</Time>
            <Position>
              <LatitudeDegrees>36.832010708749294281005859375</LatitudeDegrees>
              <LongitudeDegrees>-4.36971855349838733673095703125</LongitudeDegrees>
            </Position>
            <AltitudeMeters>677.5999755859375</AltitudeMeters>
            <DistanceMeters>NAN</DistanceMeters>
          </Trackpoint>
          <Trackpoint>
            <Time>2020-12-05T11:00:27.000Z</Time>
            <Position>
              <LatitudeDegrees>36.8320068530738353729248046875</LatitudeDegrees>
              <LongitudeDegrees>-4.36970799230039119720458984375</LongitudeDegrees>
            </Position>
            <AltitudeMeters>677.5999755859375</AltitudeMeters>
            <DistanceMeters>NAN</DistanceMeters>
          </Trackpoint>
          <Trackpoint>
            <Time>2020-12-05T11:00:28.000Z</Time>
            <Position>
              <LatitudeDegrees>36.83200291357934474945068359375</LatitudeDegrees>
              <LongitudeDegrees>-4.3696975149214267730712890625</LongitudeDegrees>
            </Position>
            <AltitudeMeters>677.79998779296875</AltitudeMeters>
            <DistanceMeters>NAN</DistanceMeters>
          </Trackpoint>
          <Trackpoint>
            <Time>2020-12-05T11:00:29.000Z</Time>
            <Position>
              <LatitudeDegrees>36.83200023137032985687255859375</LatitudeDegrees>
              <LongitudeDegrees>-4.369684271514415740966796875</LongitudeDegrees>
            </Position>
            <AltitudeMeters>677.79998779296875</AltitudeMeters>
            <DistanceMeters>NAN</DistanceMeters>
          </Trackpoint>
          <Trackpoint>
            <Time>2020-12-05T11:00:30.000Z</Time>
            <Position>
              <LatitudeDegrees>36.831997297704219818115234375</LatitudeDegrees>
              <LongitudeDegrees>-4.3696686811745166778564453125</LongitudeDegrees>
            </Position>
            <AltitudeMeters>678</AltitudeMeters>
            <DistanceMeters>NAN</DistanceMeters>
          </Trackpoint>
          <Trackpoint>
            <Time>2020-12-05T11:00:31.000Z</Time>
            <Position>
              <LatitudeDegrees>36.83199386112391948699951171875</LatitudeDegrees>
              <LongitudeDegrees>-4.36965049244463443756103515625</LongitudeDegrees>
            </Position>
            <AltitudeMeters>678.4000244140625</AltitudeMeters>
            <DistanceMeters>NAN</DistanceMeters>
          </Trackpoint>
          <Trackpoint>
            <Time>2020-12-05T11:00:32.000Z</Time>
            <Position>
              <LatitudeDegrees>36.83199067600071430206298828125</LatitudeDegrees>
              <LongitudeDegrees>-4.3696334771811962127685546875</LongitudeDegrees>
            </Position>
            <AltitudeMeters>678.4000244140625</AltitudeMeters>
            <DistanceMeters>NAN</DistanceMeters>
          </Trackpoint>
          <Trackpoint>
            <Time>2020-12-05T11:00:33.000Z</Time>
            <Position>
              <LatitudeDegrees>36.83198732323944568634033203125</LatitudeDegrees>
              <LongitudeDegrees>-4.369618892669677734375</LongitudeDegrees>
            </Position>
            <AltitudeMeters>678.5999755859375</AltitudeMeters>
            <DistanceMeters>NAN</DistanceMeters>
          </Trackpoint>
          <Trackpoint>
            <Time>2020-12-05T11:00:34.000Z</Time>
            <Position>
              <LatitudeDegrees>36.8319853954017162322998046875</LatitudeDegrees>
              <LongitudeDegrees>-4.369606487452983856201171875</LongitudeDegrees>
            </Position>
            <AltitudeMeters>678.5999755859375</AltitudeMeters>
            <DistanceMeters>NAN</DistanceMeters>
          </Trackpoint>
          <Trackpoint>
            <Time>2020-12-05T11:00:35.000Z</Time>
            <Position>
              <LatitudeDegrees>36.8319817073643207550048828125</LatitudeDegrees>
              <LongitudeDegrees>-4.36959466896951198577880859375</LongitudeDegrees>
            </Position>
            <AltitudeMeters>678.79998779296875</AltitudeMeters>
            <DistanceMeters>NAN</DistanceMeters>
          </Trackpoint>
          <Trackpoint>
            <Time>2020-12-05T11:00:36.000Z</Time>
            <Position>
              <LatitudeDegrees>36.83197726495563983917236328125</LatitudeDegrees>
              <LongitudeDegrees>-4.36958276666700839996337890625</LongitudeDegrees>
            </Position>
            <AltitudeMeters>678.79998779296875</AltitudeMeters>
            <DistanceMeters>NAN</DistanceMeters>
          </Trackpoint>
          <Trackpoint>
            <Time>2020-12-05T11:00:37.000Z</Time>
            <Position>
              <LatitudeDegrees>36.8319733254611492156982421875</LatitudeDegrees>
              <LongitudeDegrees>-4.369567595422267913818359375</LongitudeDegrees>
            </Position>
            <AltitudeMeters>678.5999755859375</AltitudeMeters>
            <DistanceMeters>NAN</DistanceMeters>
          </Trackpoint>
          <Trackpoint>
            <Time>2020-12-05T11:00:38.000Z</Time>
            <Position>
              <LatitudeDegrees>36.83196888305246829986572265625</LatitudeDegrees>
              <LongitudeDegrees>-4.36955292709171772003173828125</LongitudeDegrees>
            </Position>
            <AltitudeMeters>678.4000244140625</AltitudeMeters>
            <DistanceMeters>NAN</DistanceMeters>
          </Trackpoint>
          <Trackpoint>
            <Time>2020-12-05T11:00:39.000Z</Time>
            <Position>
              <LatitudeDegrees>36.8319641053676605224609375</LatitudeDegrees>
              <LongitudeDegrees>-4.36953884549438953399658203125</LongitudeDegrees>
            </Position>
            <AltitudeMeters>678.4000244140625</AltitudeMeters>
            <DistanceMeters>NAN</DistanceMeters>
          </Trackpoint>
          <Trackpoint>
            <Time>2020-12-05T11:00:40.000Z</Time>
            <Position>
              <LatitudeDegrees>36.8319595791399478912353515625</LatitudeDegrees>
              <LongitudeDegrees>-4.36952166259288787841796875</LongitudeDegrees>
            </Position>
            <AltitudeMeters>678.4000244140625</AltitudeMeters>
            <DistanceMeters>NAN</DistanceMeters>
          </Trackpoint>
          <Trackpoint>
            <Time>2020-12-05T11:00:41.000Z</Time>
            <Position>
              <LatitudeDegrees>36.83195647783577442169189453125</LatitudeDegrees>
              <LongitudeDegrees>-4.36949961818754673004150390625</LongitudeDegrees>
            </Position>
            <AltitudeMeters>678.4000244140625</AltitudeMeters>
            <DistanceMeters>NAN</DistanceMeters>
          </Trackpoint>
          <Trackpoint>
            <Time>2020-12-05T11:00:42.000Z</Time>
            <Position>
              <LatitudeDegrees>36.8319545499980449676513671875</LatitudeDegrees>
              <LongitudeDegrees>-4.36948411166667938232421875</LongitudeDegrees>
            </Position>
            <AltitudeMeters>678</AltitudeMeters>
            <DistanceMeters>NAN</DistanceMeters>
          </Trackpoint>
          <Trackpoint>
            <Time>2020-12-05T11:00:43.000Z</Time>
            <Position>
              <LatitudeDegrees>36.83195245452225208282470703125</LatitudeDegrees>
              <LongitudeDegrees>-4.36946801841259002685546875</LongitudeDegrees>
            </Position>
            <AltitudeMeters>677.5999755859375</AltitudeMeters>
            <DistanceMeters>NAN</DistanceMeters>
          </Trackpoint>
          <Trackpoint>
            <Time>2020-12-05T11:00:44.000Z</Time>
            <Position>
              <LatitudeDegrees>36.8319495208561420440673828125</LatitudeDegrees>
              <LongitudeDegrees>-4.36945259571075439453125</LongitudeDegrees>
            </Position>
            <AltitudeMeters>677.4000244140625</AltitudeMeters>
            <DistanceMeters>NAN</DistanceMeters>
          </Trackpoint>
          <Trackpoint>
            <Time>2020-12-05T11:00:45.000Z</Time>
            <Position>
              <LatitudeDegrees>36.8319458328187465667724609375</LatitudeDegrees>
              <LongitudeDegrees>-4.3694378435611724853515625</LongitudeDegrees>
            </Position>
            <AltitudeMeters>677.20001220703125</AltitudeMeters>
            <DistanceMeters>NAN</DistanceMeters>
          </Trackpoint>
          <Trackpoint>
            <Time>2020-12-05T11:00:46.000Z</Time>
            <Position>
              <LatitudeDegrees>36.8319426476955413818359375</LatitudeDegrees>
              <LongitudeDegrees>-4.36942367814481258392333984375</LongitudeDegrees>
            </Position>
            <AltitudeMeters>677</AltitudeMeters>
            <DistanceMeters>NAN</DistanceMeters>
          </Trackpoint>
          <Trackpoint>
            <Time>2020-12-05T11:00:47.000Z</Time>
            <Position>
              <LatitudeDegrees>36.83194197714328765869140625</LatitudeDegrees>
              <LongitudeDegrees>-4.36941194348037242889404296875</LongitudeDegrees>
            </Position>
            <AltitudeMeters>676.79998779296875</AltitudeMeters>
            <DistanceMeters>NAN</DistanceMeters>
          </Trackpoint>
          <Trackpoint>
            <Time>2020-12-05T11:00:48.000Z</Time>
            <Position>
              <LatitudeDegrees>36.83194189332425594329833984375</LatitudeDegrees>
              <LongitudeDegrees>-4.36939920298755168914794921875</LongitudeDegrees>
            </Position>
            <AltitudeMeters>676.79998779296875</AltitudeMeters>
            <DistanceMeters>NAN</DistanceMeters>
          </Trackpoint>
          <Trackpoint>
            <Time>2020-12-05T11:00:49.000Z</Time>
            <Position>
              <LatitudeDegrees>36.83194273151457309722900390625</LatitudeDegrees>
              <LongitudeDegrees>-4.36938352882862091064453125</LongitudeDegrees>
            </Position>
            <AltitudeMeters>676.79998779296875</AltitudeMeters>
            <DistanceMeters>NAN</DistanceMeters>
          </Trackpoint>
          <Trackpoint>
            <Time>2020-12-05T11:00:50.000Z</Time>
            <Position>
              <LatitudeDegrees>36.8319399654865264892578125</LatitudeDegrees>
              <LongitudeDegrees>-4.36936785466969013214111328125</LongitudeDegrees>
            </Position>
            <AltitudeMeters>676.79998779296875</AltitudeMeters>
            <DistanceMeters>NAN</DistanceMeters>
          </Trackpoint>
          <Trackpoint>
            <Time>2020-12-05T11:00:51.000Z</Time>
            <Position>
              <LatitudeDegrees>36.83193753473460674285888671875</LatitudeDegrees>
              <LongitudeDegrees>-4.36935461126267910003662109375</LongitudeDegrees>
            </Position>
            <AltitudeMeters>677</AltitudeMeters>
            <DistanceMeters>NAN</DistanceMeters>
          </Trackpoint>
          <Trackpoint>
            <Time>2020-12-05T11:00:52.000Z</Time>
            <Position>
              <LatitudeDegrees>36.83193753473460674285888671875</LatitudeDegrees>
              <LongitudeDegrees>-4.36934170313179492950439453125</LongitudeDegrees>
            </Position>
            <AltitudeMeters>677.20001220703125</AltitudeMeters>
            <DistanceMeters>NAN</DistanceMeters>
          </Trackpoint>
          <Trackpoint>
            <Time>2020-12-05T11:00:53.000Z</Time>
            <Position>
              <LatitudeDegrees>36.83193451724946498870849609375</LatitudeDegrees>
              <LongitudeDegrees>-4.36932896263897418975830078125</LongitudeDegrees>
            </Position>
            <AltitudeMeters>677.20001220703125</AltitudeMeters>
            <DistanceMeters>NAN</DistanceMeters>
          </Trackpoint>
          <Trackpoint>
            <Time>2020-12-05T11:00:54.000Z</Time>
            <Position>
              <LatitudeDegrees>36.83193485252559185028076171875</LatitudeDegrees>
              <LongitudeDegrees>-4.36931856907904148101806640625</LongitudeDegrees>
            </Position>
            <AltitudeMeters>677.5999755859375</AltitudeMeters>
            <DistanceMeters>NAN</DistanceMeters>
          </Trackpoint>
          <Trackpoint>
            <Time>2020-12-05T11:00:55.000Z</Time>
            <Position>
              <LatitudeDegrees>36.83193652890622615814208984375</LatitudeDegrees>
              <LongitudeDegrees>-4.36930708587169647216796875</LongitudeDegrees>
            </Position>
            <AltitudeMeters>677.79998779296875</AltitudeMeters>
            <DistanceMeters>NAN</DistanceMeters>
          </Trackpoint>
          <Trackpoint>
            <Time>2020-12-05T11:00:56.000Z</Time>
            <Position>
              <LatitudeDegrees>36.831937618553638458251953125</LatitudeDegrees>
              <LongitudeDegrees>-4.36929694376885890960693359375</LongitudeDegrees>
            </Position>
            <AltitudeMeters>678</AltitudeMeters>
            <DistanceMeters>NAN</DistanceMeters>
          </Trackpoint>
          <Trackpoint>
            <Time>2020-12-05T11:00:57.000Z</Time>
            <Position>
              <LatitudeDegrees>36.8319381214678287506103515625</LatitudeDegrees>
              <LongitudeDegrees>-4.3692854605615139007568359375</LongitudeDegrees>
            </Position>
            <AltitudeMeters>678</AltitudeMeters>
            <DistanceMeters>NAN</DistanceMeters>
          </Trackpoint>
          <Trackpoint>
            <Time>2020-12-05T11:00:58.000Z</Time>
            <Position>
              <LatitudeDegrees>36.83193971402943134307861328125</LatitudeDegrees>
              <LongitudeDegrees>-4.36927355825901031494140625</LongitudeDegrees>
            </Position>
            <AltitudeMeters>678.20001220703125</AltitudeMeters>
            <DistanceMeters>NAN</DistanceMeters>
          </Trackpoint>
          <Trackpoint>
            <Time>2020-12-05T11:00:59.000Z</Time>
            <Position>
              <LatitudeDegrees>36.83194122277200222015380859375</LatitudeDegrees>
              <LongitudeDegrees>-4.3692616559565067291259765625</LongitudeDegrees>
            </Position>
            <AltitudeMeters>678.20001220703125</AltitudeMeters>
            <DistanceMeters>NAN</DistanceMeters>
          </Trackpoint>
          <Trackpoint>
            <Time>2020-12-05T11:01:00.000Z</Time>
            <Position>
              <LatitudeDegrees>36.8319434858858585357666015625</LatitudeDegrees>
              <LongitudeDegrees>-4.369247741997241973876953125</LongitudeDegrees>
            </Position>
            <AltitudeMeters>678.20001220703125</AltitudeMeters>
            <DistanceMeters>NAN</DistanceMeters>
          </Trackpoint>
          <Trackpoint>
            <Time>2020-12-05T11:01:01.000Z</Time>
            <Position>
              <LatitudeDegrees>36.83194424025714397430419921875</LatitudeDegrees>
              <LongitudeDegrees>-4.36923173256218433380126953125</LongitudeDegrees>
            </Position>
            <AltitudeMeters>678.20001220703125</AltitudeMeters>
            <DistanceMeters>NAN</DistanceMeters>
          </Trackpoint>
          <Trackpoint>
            <Time>2020-12-05T11:01:02.000Z</Time>
            <Position>
              <LatitudeDegrees>36.83194507844746112823486328125</LatitudeDegrees>
              <LongitudeDegrees>-4.36921630986034870147705078125</LongitudeDegrees>
            </Position>
            <AltitudeMeters>678.20001220703125</AltitudeMeters>
            <DistanceMeters>NAN</DistanceMeters>
          </Trackpoint>
          <Trackpoint>
            <Time>2020-12-05T11:01:03.000Z</Time>
            <Position>
              <LatitudeDegrees>36.83194331824779510498046875</LatitudeDegrees>
              <LongitudeDegrees>-4.36920139007270336151123046875</LongitudeDegrees>
            </Position>
            <AltitudeMeters>678.4000244140625</AltitudeMeters>
            <DistanceMeters>NAN</DistanceMeters>
          </Trackpoint>
          <Trackpoint>
            <Time>2020-12-05T11:01:04.000Z</Time>
            <Position>
              <LatitudeDegrees>36.83194038458168506622314453125</LatitudeDegrees>
              <LongitudeDegrees>-4.3691830337047576904296875</LongitudeDegrees>
            </Position>
            <AltitudeMeters>678.5999755859375</AltitudeMeters>
            <DistanceMeters>NAN</DistanceMeters>
          </Trackpoint>
          <Trackpoint>
            <Time>2020-12-05T11:01:05.000Z</Time>
            <Position>
              <LatitudeDegrees>36.83193661272525787353515625</LatitudeDegrees>
              <LongitudeDegrees>-4.36916518025100231170654296875</LongitudeDegrees>
            </Position>
            <AltitudeMeters>678.79998779296875</AltitudeMeters>
            <DistanceMeters>NAN</DistanceMeters>
          </Trackpoint>
          <Trackpoint>
            <Time>2020-12-05T11:01:06.000Z</Time>
            <Position>
              <LatitudeDegrees>36.83193267323076725006103515625</LatitudeDegrees>
              <LongitudeDegrees>-4.3691483326256275177001953125</LongitudeDegrees>
            </Position>
            <AltitudeMeters>679</AltitudeMeters>
            <DistanceMeters>NAN</DistanceMeters>
          </Trackpoint>
          <Trackpoint>
            <Time>2020-12-05T11:01:07.000Z</Time>
            <Position>
              <LatitudeDegrees>36.831927560269832611083984375</LatitudeDegrees>
              <LongitudeDegrees>-4.3691319040954113006591796875</LongitudeDegrees>
            </Position>
            <AltitudeMeters>679.20001220703125</AltitudeMeters>
            <DistanceMeters>NAN</DistanceMeters>
          </Trackpoint>
          <Trackpoint>
            <Time>2020-12-05T11:01:08.000Z</Time>
            <Position>
              <LatitudeDegrees>36.83192295022308826446533203125</LatitudeDegrees>
              <LongitudeDegrees>-4.3691168166697025299072265625</LongitudeDegrees>
            </Position>
            <AltitudeMeters>679.20001220703125</AltitudeMeters>
            <DistanceMeters>NAN</DistanceMeters>
          </Trackpoint>
          <Trackpoint>
            <Time>2020-12-05T11:01:09.000Z</Time>
            <Position>
              <LatitudeDegrees>36.83191716670989990234375</LatitudeDegrees>
              <LongitudeDegrees>-4.3690993823111057281494140625</LongitudeDegrees>
            </Position>
            <AltitudeMeters>679.4000244140625</AltitudeMeters>
            <DistanceMeters>NAN</DistanceMeters>
          </Trackpoint>
          <Trackpoint>
            <Time>2020-12-05T11:01:10.000Z</Time>
            <Position>
              <LatitudeDegrees>36.831913478672504425048828125</LatitudeDegrees>
              <LongitudeDegrees>-4.3690832890570163726806640625</LongitudeDegrees>
            </Position>
            <AltitudeMeters>679.4000244140625</AltitudeMeters>
            <DistanceMeters>NAN</DistanceMeters>
          </Trackpoint>
          <Trackpoint>
            <Time>2020-12-05T11:01:11.000Z</Time>
            <Position>
              <LatitudeDegrees>36.83191255666315555572509765625</LatitudeDegrees>
              <LongitudeDegrees>-4.36906711198389530181884765625</LongitudeDegrees>
            </Position>
            <AltitudeMeters>679.4000244140625</AltitudeMeters>
            <DistanceMeters>NAN</DistanceMeters>
          </Trackpoint>
          <Trackpoint>
            <Time>2020-12-05T11:01:12.000Z</Time>
            <Position>
              <LatitudeDegrees>36.83191171847283840179443359375</LatitudeDegrees>
              <LongitudeDegrees>-4.3690489232540130615234375</LongitudeDegrees>
            </Position>
            <AltitudeMeters>679.20001220703125</AltitudeMeters>
            <DistanceMeters>NAN</DistanceMeters>
          </Trackpoint>
          <Trackpoint>
            <Time>2020-12-05T11:01:13.000Z</Time>
            <Position>
              <LatitudeDegrees>36.831910125911235809326171875</LatitudeDegrees>
              <LongitudeDegrees>-4.36902939341962337493896484375</LongitudeDegrees>
            </Position>
            <AltitudeMeters>679</AltitudeMeters>
            <DistanceMeters>NAN</DistanceMeters>
          </Trackpoint>
          <Trackpoint>
            <Time>2020-12-05T11:01:14.000Z</Time>
            <Position>
              <LatitudeDegrees>36.83190534822642803192138671875</LatitudeDegrees>
              <LongitudeDegrees>-4.36901179142296314239501953125</LongitudeDegrees>
            </Position>
            <AltitudeMeters>679</AltitudeMeters>
            <DistanceMeters>NAN</DistanceMeters>
          </Trackpoint>
          <Trackpoint>
            <Time>2020-12-05T11:01:15.000Z</Time>
            <Position>
              <LatitudeDegrees>36.83189830742776393890380859375</LatitudeDegrees>
              <LongitudeDegrees>-4.36899594962596893310546875</LongitudeDegrees>
            </Position>
            <AltitudeMeters>679</AltitudeMeters>
            <DistanceMeters>NAN</DistanceMeters>
          </Trackpoint>
          <Trackpoint>
            <Time>2020-12-05T11:01:16.000Z</Time>
            <Position>
              <LatitudeDegrees>36.8318901769816875457763671875</LatitudeDegrees>
              <LongitudeDegrees>-4.36898228712379932403564453125</LongitudeDegrees>
            </Position>
            <AltitudeMeters>679</AltitudeMeters>
            <DistanceMeters>NAN</DistanceMeters>
          </Trackpoint>
          <Trackpoint>
            <Time>2020-12-05T11:01:17.000Z</Time>
            <Position>
              <LatitudeDegrees>36.8318809568881988525390625</LatitudeDegrees>
              <LongitudeDegrees>-4.36896787025034427642822265625</LongitudeDegrees>
            </Position>
            <AltitudeMeters>678.79998779296875</AltitudeMeters>
            <DistanceMeters>NAN</DistanceMeters>
          </Trackpoint>
          <Trackpoint>
            <Time>2020-12-05T11:01:18.000Z</Time>
            <Position>
              <LatitudeDegrees>36.83187098242342472076416015625</LatitudeDegrees>
              <LongitudeDegrees>-4.36895571649074554443359375</LongitudeDegrees>
            </Position>
            <AltitudeMeters>678.79998779296875</AltitudeMeters>
            <DistanceMeters>NAN</DistanceMeters>
          </Trackpoint>
          <Trackpoint>
            <Time>2020-12-05T11:01:19.000Z</Time>
            <Position>
              <LatitudeDegrees>36.831863187253475189208984375</LatitudeDegrees>
              <LongitudeDegrees>-4.36894088052213191986083984375</LongitudeDegrees>
            </Position>
            <AltitudeMeters>678.79998779296875</AltitudeMeters>
            <DistanceMeters>NAN</DistanceMeters>
          </Trackpoint>
          <Trackpoint>
            <Time>2020-12-05T11:01:20.000Z</Time>
            <Position>
              <LatitudeDegrees>36.83185690082609653472900390625</LatitudeDegrees>
              <LongitudeDegrees>-4.3689263798296451568603515625</LongitudeDegrees>
            </Position>
            <AltitudeMeters>678.79998779296875</AltitudeMeters>
            <DistanceMeters>NAN</DistanceMeters>
          </Trackpoint>
          <Trackpoint>
            <Time>2020-12-05T11:01:21.000Z</Time>
            <Position>
              <LatitudeDegrees>36.83184684254229068756103515625</LatitudeDegrees>
              <LongitudeDegrees>-4.36891456134617328643798828125</LongitudeDegrees>
            </Position>
            <AltitudeMeters>678.79998779296875</AltitudeMeters>
            <DistanceMeters>NAN</DistanceMeters>
          </Trackpoint>
          <Trackpoint>
            <Time>2020-12-05T11:01:22.000Z</Time>
            <Position>
              <LatitudeDegrees>36.8318365328013896942138671875</LatitudeDegrees>
              <LongitudeDegrees>-4.36890115030109882354736328125</LongitudeDegrees>
            </Position>
            <AltitudeMeters>678.79998779296875</AltitudeMeters>
            <DistanceMeters>NAN</DistanceMeters>
          </Trackpoint>
          <Trackpoint>
            <Time>2020-12-05T11:01:23.000Z</Time>
            <Position>
              <LatitudeDegrees>36.83182823471724987030029296875</LatitudeDegrees>
              <LongitudeDegrees>-4.3688879907131195068359375</LongitudeDegrees>
            </Position>
            <AltitudeMeters>678.79998779296875</AltitudeMeters>
            <DistanceMeters>NAN</DistanceMeters>
          </Trackpoint>
          <Trackpoint>
            <Time>2020-12-05T11:01:24.000Z</Time>
            <Position>
              <LatitudeDegrees>36.83182018809020519256591796875</LatitudeDegrees>
              <LongitudeDegrees>-4.36887449584901332855224609375</LongitudeDegrees>
            </Position>
            <AltitudeMeters>678.79998779296875</AltitudeMeters>
            <DistanceMeters>NAN</DistanceMeters>
          </Trackpoint>
          <Trackpoint>
            <Time>2020-12-05T11:01:25.000Z</Time>
            <Position>
              <LatitudeDegrees>36.83181297965347766876220703125</LatitudeDegrees>
              <LongitudeDegrees>-4.36886091716587543487548828125</LongitudeDegrees>
            </Position>
            <AltitudeMeters>678.79998779296875</AltitudeMeters>
            <DistanceMeters>NAN</DistanceMeters>
          </Trackpoint>
          <Trackpoint>
            <Time>2020-12-05T11:01:26.000Z</Time>
            <Position>
              <LatitudeDegrees>36.83180510066449642181396484375</LatitudeDegrees>
              <LongitudeDegrees>-4.3688504397869110107421875</LongitudeDegrees>
            </Position>
            <AltitudeMeters>678.5999755859375</AltitudeMeters>
            <DistanceMeters>NAN</DistanceMeters>
          </Trackpoint>
          <Trackpoint>
            <Time>2020-12-05T11:01:27.000Z</Time>
            <Position>
              <LatitudeDegrees>36.8317956291139125823974609375</LatitudeDegrees>
              <LongitudeDegrees>-4.3688388727605342864990234375</LongitudeDegrees>
            </Position>
            <AltitudeMeters>678.5999755859375</AltitudeMeters>
            <DistanceMeters>NAN</DistanceMeters>
          </Trackpoint>
          <Trackpoint>
            <Time>2020-12-05T11:01:28.000Z</Time>
            <Position>
              <LatitudeDegrees>36.831788085401058197021484375</LatitudeDegrees>
              <LongitudeDegrees>-4.36882688663899898529052734375</LongitudeDegrees>
            </Position>
            <AltitudeMeters>678.4000244140625</AltitudeMeters>
            <DistanceMeters>NAN</DistanceMeters>
          </Trackpoint>
          <Trackpoint>
            <Time>2020-12-05T11:01:29.000Z</Time>
            <Position>
              <LatitudeDegrees>36.83178096078336238861083984375</LatitudeDegrees>
              <LongitudeDegrees>-4.3688155710697174072265625</LongitudeDegrees>
            </Position>
            <AltitudeMeters>678.4000244140625</AltitudeMeters>
            <DistanceMeters>NAN</DistanceMeters>
          </Trackpoint>
          <Trackpoint>
            <Time>2020-12-05T11:01:30.000Z</Time>
            <Position>
              <LatitudeDegrees>36.8317728303372859954833984375</LatitudeDegrees>
              <LongitudeDegrees>-4.36880324967205524444580078125</LongitudeDegrees>
            </Position>
            <AltitudeMeters>678.20001220703125</AltitudeMeters>
            <DistanceMeters>NAN</DistanceMeters>
          </Trackpoint>
          <Trackpoint>
            <Time>2020-12-05T11:01:31.000Z</Time>
            <Position>
              <LatitudeDegrees>36.8317671306431293487548828125</LatitudeDegrees>
              <LongitudeDegrees>-4.368787743151187896728515625</LongitudeDegrees>
            </Position>
            <AltitudeMeters>678.20001220703125</AltitudeMeters>
            <DistanceMeters>NAN</DistanceMeters>
          </Trackpoint>
          <Trackpoint>
            <Time>2020-12-05T11:01:32.000Z</Time>
            <Position>
              <LatitudeDegrees>36.8317604251205921173095703125</LatitudeDegrees>
              <LongitudeDegrees>-4.36877357773482799530029296875</LongitudeDegrees>
            </Position>
            <AltitudeMeters>678</AltitudeMeters>
            <DistanceMeters>NAN</DistanceMeters>
          </Trackpoint>
          <Trackpoint>
            <Time>2020-12-05T11:01:33.000Z</Time>
            <Position>
              <LatitudeDegrees>36.83175346814095973968505859375</LatitudeDegrees>
              <LongitudeDegrees>-4.36876050196588039398193359375</LongitudeDegrees>
            </Position>
            <AltitudeMeters>678</AltitudeMeters>
            <DistanceMeters>NAN</DistanceMeters>
          </Trackpoint>
          <Trackpoint>
            <Time>2020-12-05T11:01:34.000Z</Time>
            <Position>
              <LatitudeDegrees>36.83174709789454936981201171875</LatitudeDegrees>
              <LongitudeDegrees>-4.368746168911457061767578125</LongitudeDegrees>
            </Position>
            <AltitudeMeters>678</AltitudeMeters>
            <DistanceMeters>NAN</DistanceMeters>
          </Trackpoint>
          <Trackpoint>
            <Time>2020-12-05T11:01:35.000Z</Time>
            <Position>
              <LatitudeDegrees>36.8317413143813610076904296875</LatitudeDegrees>
              <LongitudeDegrees>-4.368732087314128875732421875</LongitudeDegrees>
            </Position>
            <AltitudeMeters>678</AltitudeMeters>
            <DistanceMeters>NAN</DistanceMeters>
          </Trackpoint>
          <Trackpoint>
            <Time>2020-12-05T11:01:36.000Z</Time>
            <Position>
              <LatitudeDegrees>36.8317361176013946533203125</LatitudeDegrees>
              <LongitudeDegrees>-4.368720352649688720703125</LongitudeDegrees>
            </Position>
            <AltitudeMeters>678.20001220703125</AltitudeMeters>
            <DistanceMeters>NAN</DistanceMeters>
          </Trackpoint>
          <Trackpoint>
            <Time>2020-12-05T11:01:37.000Z</Time>
            <Position>
              <LatitudeDegrees>36.83173033408820629119873046875</LatitudeDegrees>
              <LongitudeDegrees>-4.36871029436588287353515625</LongitudeDegrees>
            </Position>
            <AltitudeMeters>678.20001220703125</AltitudeMeters>
            <DistanceMeters>NAN</DistanceMeters>
          </Trackpoint>
          <Trackpoint>
            <Time>2020-12-05T11:01:38.000Z</Time>
            <Position>
              <LatitudeDegrees>36.8317222036421298980712890625</LatitudeDegrees>
              <LongitudeDegrees>-4.3687010742723941802978515625</LongitudeDegrees>
            </Position>
            <AltitudeMeters>678.20001220703125</AltitudeMeters>
            <DistanceMeters>NAN</DistanceMeters>
          </Trackpoint>
          <Trackpoint>
            <Time>2020-12-05T11:01:39.000Z</Time>
            <Position>
              <LatitudeDegrees>36.83171130716800689697265625</LatitudeDegrees>
              <LongitudeDegrees>-4.36869394965469837188720703125</LongitudeDegrees>
            </Position>
            <AltitudeMeters>678.4000244140625</AltitudeMeters>
            <DistanceMeters>NAN</DistanceMeters>
          </Trackpoint>
          <Trackpoint>
            <Time>2020-12-05T11:01:40.000Z</Time>
            <Position>
              <LatitudeDegrees>36.83170300908386707305908203125</LatitudeDegrees>
              <LongitudeDegrees>-4.3686895072460174560546875</LongitudeDegrees>
            </Position>
            <AltitudeMeters>678.20001220703125</AltitudeMeters>
            <DistanceMeters>NAN</DistanceMeters>
          </Trackpoint>
          <Trackpoint>
            <Time>2020-12-05T11:01:41.000Z</Time>
            <Position>
              <LatitudeDegrees>36.83169814758002758026123046875</LatitudeDegrees>
              <LongitudeDegrees>-4.368685819208621978759765625</LongitudeDegrees>
            </Position>
            <AltitudeMeters>678.20001220703125</AltitudeMeters>
            <DistanceMeters>NAN</DistanceMeters>
          </Trackpoint>
          <Trackpoint>
            <Time>2020-12-05T11:01:42.000Z</Time>
            <Position>
              <LatitudeDegrees>36.831699907779693603515625</LatitudeDegrees>
              <LongitudeDegrees>-4.36868120916187763214111328125</LongitudeDegrees>
            </Position>
            <AltitudeMeters>678.4000244140625</AltitudeMeters>
            <DistanceMeters>NAN</DistanceMeters>
          </Trackpoint>
          <Trackpoint>
            <Time>2020-12-05T11:01:43.000Z</Time>
            <Position>
              <LatitudeDegrees>36.83170267380774021148681640625</LatitudeDegrees>
              <LongitudeDegrees>-4.36867265962064266204833984375</LongitudeDegrees>
            </Position>
            <AltitudeMeters>678.4000244140625</AltitudeMeters>
            <DistanceMeters>NAN</DistanceMeters>
          </Trackpoint>
          <Trackpoint>
            <Time>2020-12-05T11:01:44.000Z</Time>
            <Position>
              <LatitudeDegrees>36.83170552365481853485107421875</LatitudeDegrees>
              <LongitudeDegrees>-4.36866528354585170745849609375</LongitudeDegrees>
            </Position>
            <AltitudeMeters>678.4000244140625</AltitudeMeters>
            <DistanceMeters>NAN</DistanceMeters>
          </Trackpoint>
          <Trackpoint>
            <Time>2020-12-05T11:01:45.000Z</Time>
            <Position>
              <LatitudeDegrees>36.83170988224446773529052734375</LatitudeDegrees>
              <LongitudeDegrees>-4.36865807510912418365478515625</LongitudeDegrees>
            </Position>
            <AltitudeMeters>678.4000244140625</AltitudeMeters>
            <DistanceMeters>NAN</DistanceMeters>
          </Trackpoint>
          <Trackpoint>
            <Time>2020-12-05T11:01:46.000Z</Time>
            <Position>
              <LatitudeDegrees>36.8317128159105777740478515625</LatitudeDegrees>
              <LongitudeDegrees>-4.3686460889875888824462890625</LongitudeDegrees>
            </Position>
            <AltitudeMeters>678.5999755859375</AltitudeMeters>
            <DistanceMeters>NAN</DistanceMeters>
          </Trackpoint>
          <Trackpoint>
            <Time>2020-12-05T11:01:47.000Z</Time>
            <Position>
              <LatitudeDegrees>36.83171574957668781280517578125</LatitudeDegrees>
              <LongitudeDegrees>-4.3686316721141338348388671875</LongitudeDegrees>
            </Position>
            <AltitudeMeters>678.79998779296875</AltitudeMeters>
            <DistanceMeters>NAN</DistanceMeters>
          </Trackpoint>
          <Trackpoint>
            <Time>2020-12-05T11:01:48.000Z</Time>
            <Position>
              <LatitudeDegrees>36.83171541430056095123291015625</LatitudeDegrees>
              <LongitudeDegrees>-4.36861616559326648712158203125</LongitudeDegrees>
            </Position>
            <AltitudeMeters>679</AltitudeMeters>
            <DistanceMeters>NAN</DistanceMeters>
          </Trackpoint>
          <Trackpoint>
            <Time>2020-12-05T11:01:49.000Z</Time>
            <Position>
              <LatitudeDegrees>36.8317134864628314971923828125</LatitudeDegrees>
              <LongitudeDegrees>-4.3686021678149700164794921875</LongitudeDegrees>
            </Position>
            <AltitudeMeters>679</AltitudeMeters>
            <DistanceMeters>NAN</DistanceMeters>
          </Trackpoint>
          <Trackpoint>
            <Time>2020-12-05T11:01:50.000Z</Time>
            <Position>
              <LatitudeDegrees>36.83171055279672145843505859375</LatitudeDegrees>
              <LongitudeDegrees>-4.36858867295086383819580078125</LongitudeDegrees>
            </Position>
            <AltitudeMeters>679.20001220703125</AltitudeMeters>
            <DistanceMeters>NAN</DistanceMeters>
          </Trackpoint>
          <Trackpoint>
            <Time>2020-12-05T11:01:51.000Z</Time>
            <Position>
              <LatitudeDegrees>36.8317054398357868194580078125</LatitudeDegrees>
              <LongitudeDegrees>-4.3685768544673919677734375</LongitudeDegrees>
            </Position>
            <AltitudeMeters>679.20001220703125</AltitudeMeters>
            <DistanceMeters>NAN</DistanceMeters>
          </Trackpoint>
          <Trackpoint>
            <Time>2020-12-05T11:01:52.000Z</Time>
            <Position>
              <LatitudeDegrees>36.83170166797935962677001953125</LatitudeDegrees>
              <LongitudeDegrees>-4.368564449250698089599609375</LongitudeDegrees>
            </Position>
            <AltitudeMeters>679.4000244140625</AltitudeMeters>
            <DistanceMeters>NAN</DistanceMeters>
          </Trackpoint>
          <Trackpoint>
            <Time>2020-12-05T11:01:53.000Z</Time>
            <Position>
              <LatitudeDegrees>36.83169789612293243408203125</LatitudeDegrees>
              <LongitudeDegrees>-4.36855481006205081939697265625</LongitudeDegrees>
            </Position>
            <AltitudeMeters>679.5999755859375</AltitudeMeters>
            <DistanceMeters>NAN</DistanceMeters>
          </Trackpoint>
          <Trackpoint>
            <Time>2020-12-05T11:01:54.000Z</Time>
            <Position>
              <LatitudeDegrees>36.83169445954263210296630859375</LatitudeDegrees>
              <LongitudeDegrees>-4.3685455061495304107666015625</LongitudeDegrees>
            </Position>
            <AltitudeMeters>679.79998779296875</AltitudeMeters>
            <DistanceMeters>NAN</DistanceMeters>
          </Trackpoint>
          <Trackpoint>
            <Time>2020-12-05T11:01:55.000Z</Time>
            <Position>
              <LatitudeDegrees>36.831691525876522064208984375</LatitudeDegrees>
              <LongitudeDegrees>-4.36853553168475627899169921875</LongitudeDegrees>
            </Position>
            <AltitudeMeters>679.79998779296875</AltitudeMeters>
            <DistanceMeters>NAN</DistanceMeters>
          </Trackpoint>
          <Trackpoint>
            <Time>2020-12-05T11:01:56.000Z</Time>
            <Position>
              <LatitudeDegrees>36.83168842457234859466552734375</LatitudeDegrees>
              <LongitudeDegrees>-4.36852597631514072418212890625</LongitudeDegrees>
            </Position>
            <AltitudeMeters>679.79998779296875</AltitudeMeters>
            <DistanceMeters>NAN</DistanceMeters>
          </Trackpoint>
          <Trackpoint>
            <Time>2020-12-05T11:01:57.000Z</Time>
            <Position>
              <LatitudeDegrees>36.831686832010746002197265625</LatitudeDegrees>
              <LongitudeDegrees>-4.36851843260228633880615234375</LongitudeDegrees>
            </Position>
            <AltitudeMeters>679.79998779296875</AltitudeMeters>
            <DistanceMeters>NAN</DistanceMeters>
          </Trackpoint>
          <Trackpoint>
            <Time>2020-12-05T11:01:58.000Z</Time>
            <Position>
              <LatitudeDegrees>36.83168389834463596343994140625</LatitudeDegrees>
              <LongitudeDegrees>-4.368511475622653961181640625</LongitudeDegrees>
            </Position>
            <AltitudeMeters>679.79998779296875</AltitudeMeters>
            <DistanceMeters>NAN</DistanceMeters>
          </Trackpoint>
          <Trackpoint>
            <Time>2020-12-05T11:01:59.000Z</Time>
            <Position>
              <LatitudeDegrees>36.83168389834463596343994140625</LatitudeDegrees>
              <LongitudeDegrees>-4.3685044348239898681640625</LongitudeDegrees>
            </Position>
            <AltitudeMeters>679.79998779296875</AltitudeMeters>
            <DistanceMeters>NAN</DistanceMeters>
          </Trackpoint>
          <Trackpoint>
            <Time>2020-12-05T11:02:00.000Z</Time>
            <Position>
              <LatitudeDegrees>36.83168306015431880950927734375</LatitudeDegrees>
              <LongitudeDegrees>-4.36849697493016719818115234375</LongitudeDegrees>
            </Position>
            <AltitudeMeters>679.79998779296875</AltitudeMeters>
            <DistanceMeters>NAN</DistanceMeters>
          </Trackpoint>
          <Trackpoint>
            <Time>2020-12-05T11:02:01.000Z</Time>
            <Position>
              <LatitudeDegrees>36.83168071322143077850341796875</LatitudeDegrees>
              <LongitudeDegrees>-4.36848423443734645843505859375</LongitudeDegrees>
            </Position>
            <AltitudeMeters>679.79998779296875</AltitudeMeters>
            <DistanceMeters>NAN</DistanceMeters>
          </Trackpoint>
          <Trackpoint>
            <Time>2020-12-05T11:02:02.000Z</Time>
            <Position>
              <LatitudeDegrees>36.831678450107574462890625</LatitudeDegrees>
              <LongitudeDegrees>-4.36847132630646228790283203125</LongitudeDegrees>
            </Position>
            <AltitudeMeters>680</AltitudeMeters>
            <DistanceMeters>NAN</DistanceMeters>
          </Trackpoint>
          <Trackpoint>
            <Time>2020-12-05T11:02:03.000Z</Time>
            <Position>
              <LatitudeDegrees>36.83167618699371814727783203125</LatitudeDegrees>
              <LongitudeDegrees>-4.36845825053751468658447265625</LongitudeDegrees>
            </Position>
            <AltitudeMeters>680</AltitudeMeters>
            <DistanceMeters>NAN</DistanceMeters>
          </Trackpoint>
          <Trackpoint>
            <Time>2020-12-05T11:02:04.000Z</Time>
            <Position>
              <LatitudeDegrees>36.831678114831447601318359375</LatitudeDegrees>
              <LongitudeDegrees>-4.36844584532082080841064453125</LongitudeDegrees>
            </Position>
            <AltitudeMeters>680.20001220703125</AltitudeMeters>
            <DistanceMeters>NAN</DistanceMeters>
          </Trackpoint>
          <Trackpoint>
            <Time>2020-12-05T11:02:05.000Z</Time>
            <Position>
              <LatitudeDegrees>36.83168423362076282501220703125</LatitudeDegrees>
              <LongitudeDegrees>-4.36843176372349262237548828125</LongitudeDegrees>
            </Position>
            <AltitudeMeters>680.4000244140625</AltitudeMeters>
            <DistanceMeters>NAN</DistanceMeters>
          </Trackpoint>
          <Trackpoint>
            <Time>2020-12-05T11:02:06.000Z</Time>
            <Position>
              <LatitudeDegrees>36.83169119060039520263671875</LatitudeDegrees>
              <LongitudeDegrees>-4.36841600574553012847900390625</LongitudeDegrees>
            </Position>
            <AltitudeMeters>680.4000244140625</AltitudeMeters>
            <DistanceMeters>NAN</DistanceMeters>
          </Trackpoint>
          <Trackpoint>
            <Time>2020-12-05T11:02:07.000Z</Time>
            <Position>
              <LatitudeDegrees>36.831696890294551849365234375</LatitudeDegrees>
              <LongitudeDegrees>-4.3683971464633941650390625</LongitudeDegrees>
            </Position>
            <AltitudeMeters>680.5999755859375</AltitudeMeters>
            <DistanceMeters>NAN</DistanceMeters>
          </Trackpoint>
          <Trackpoint>
            <Time>2020-12-05T11:02:08.000Z</Time>
            <Position>
              <LatitudeDegrees>36.83170116506516933441162109375</LatitudeDegrees>
              <LongitudeDegrees>-4.36837694607675075531005859375</LongitudeDegrees>
            </Position>
            <AltitudeMeters>680.5999755859375</AltitudeMeters>
            <DistanceMeters>NAN</DistanceMeters>
          </Trackpoint>
          <Trackpoint>
            <Time>2020-12-05T11:02:09.000Z</Time>
            <Position>
              <LatitudeDegrees>36.83170317672193050384521484375</LatitudeDegrees>
              <LongitudeDegrees>-4.36835766769945621490478515625</LongitudeDegrees>
            </Position>
            <AltitudeMeters>680.79998779296875</AltitudeMeters>
            <DistanceMeters>NAN</DistanceMeters>
          </Trackpoint>
          <Trackpoint>
            <Time>2020-12-05T11:02:10.000Z</Time>
            <Position>
              <LatitudeDegrees>36.83170166797935962677001953125</LatitudeDegrees>
              <LongitudeDegrees>-4.36834107153117656707763671875</LongitudeDegrees>
            </Position>
            <AltitudeMeters>680.79998779296875</AltitudeMeters>
            <DistanceMeters>NAN</DistanceMeters>
          </Trackpoint>
          <Trackpoint>
            <Time>2020-12-05T11:02:11.000Z</Time>
            <Position>
              <LatitudeDegrees>36.83170451782643795013427734375</LatitudeDegrees>
              <LongitudeDegrees>-4.36832782812416553497314453125</LongitudeDegrees>
            </Position>
            <AltitudeMeters>680.79998779296875</AltitudeMeters>
            <DistanceMeters>NAN</DistanceMeters>
          </Trackpoint>
          <Trackpoint>
            <Time>2020-12-05T11:02:12.000Z</Time>
            <Position>
              <LatitudeDegrees>36.83170367963612079620361328125</LatitudeDegrees>
              <LongitudeDegrees>-4.3683191947638988494873046875</LongitudeDegrees>
            </Position>
            <AltitudeMeters>680.79998779296875</AltitudeMeters>
            <DistanceMeters>NAN</DistanceMeters>
          </Trackpoint>
          <Trackpoint>
            <Time>2020-12-05T11:02:13.000Z</Time>
            <Position>
              <LatitudeDegrees>36.83170351199805736541748046875</LatitudeDegrees>
              <LongitudeDegrees>-4.3683088012039661407470703125</LongitudeDegrees>
            </Position>
            <AltitudeMeters>681</AltitudeMeters>
            <DistanceMeters>NAN</DistanceMeters>
          </Trackpoint>
          <Trackpoint>
            <Time>2020-12-05T11:02:14.000Z</Time>
            <Position>
              <LatitudeDegrees>36.8317017517983913421630859375</LatitudeDegrees>
              <LongitudeDegrees>-4.36829681508243083953857421875</LongitudeDegrees>
            </Position>
            <AltitudeMeters>681.20001220703125</AltitudeMeters>
            <DistanceMeters>NAN</DistanceMeters>
          </Trackpoint>
          <Trackpoint>
            <Time>2020-12-05T11:02:15.000Z</Time>
            <Position>
              <LatitudeDegrees>36.83170066215097904205322265625</LatitudeDegrees>
              <LongitudeDegrees>-4.3682826496660709381103515625</LongitudeDegrees>
            </Position>
            <AltitudeMeters>681.4000244140625</AltitudeMeters>
            <DistanceMeters>NAN</DistanceMeters>
          </Trackpoint>
          <Trackpoint>
            <Time>2020-12-05T11:02:16.000Z</Time>
            <Position>
              <LatitudeDegrees>36.8316977284848690032958984375</LatitudeDegrees>
              <LongitudeDegrees>-4.36826664023101329803466796875</LongitudeDegrees>
            </Position>
            <AltitudeMeters>681.4000244140625</AltitudeMeters>
            <DistanceMeters>NAN</DistanceMeters>
          </Trackpoint>
          <Trackpoint>
            <Time>2020-12-05T11:02:17.000Z</Time>
            <Position>
              <LatitudeDegrees>36.83169580064713954925537109375</LatitudeDegrees>
              <LongitudeDegrees>-4.3682511337101459503173828125</LongitudeDegrees>
            </Position>
            <AltitudeMeters>681.5999755859375</AltitudeMeters>
            <DistanceMeters>NAN</DistanceMeters>
          </Trackpoint>
          <Trackpoint>
            <Time>2020-12-05T11:02:18.000Z</Time>
            <Position>
              <LatitudeDegrees>36.8316950462758541107177734375</LatitudeDegrees>
              <LongitudeDegrees>-4.3682343699038028717041015625</LongitudeDegrees>
            </Position>
            <AltitudeMeters>681.79998779296875</AltitudeMeters>
            <DistanceMeters>NAN</DistanceMeters>
          </Trackpoint>
          <Trackpoint>
            <Time>2020-12-05T11:02:19.000Z</Time>
            <Position>
              <LatitudeDegrees>36.83169613592326641082763671875</LatitudeDegrees>
              <LongitudeDegrees>-4.36821886338293552398681640625</LongitudeDegrees>
            </Position>
            <AltitudeMeters>681.79998779296875</AltitudeMeters>
            <DistanceMeters>NAN</DistanceMeters>
          </Trackpoint>
          <Trackpoint>
            <Time>2020-12-05T11:02:20.000Z</Time>
            <Position>
              <LatitudeDegrees>36.83169697411358356475830078125</LatitudeDegrees>
              <LongitudeDegrees>-4.3682028539478778839111328125</LongitudeDegrees>
            </Position>
            <AltitudeMeters>682</AltitudeMeters>
            <DistanceMeters>NAN</DistanceMeters>
          </Trackpoint>
          <Trackpoint>
            <Time>2020-12-05T11:02:21.000Z</Time>
            <Position>
              <LatitudeDegrees>36.83169647119939327239990234375</LatitudeDegrees>
              <LongitudeDegrees>-4.3681891076266765594482421875</LongitudeDegrees>
            </Position>
            <AltitudeMeters>682</AltitudeMeters>
            <DistanceMeters>NAN</DistanceMeters>
          </Trackpoint>
          <Trackpoint>
            <Time>2020-12-05T11:02:22.000Z</Time>
            <Position>
              <LatitudeDegrees>36.8316953815519809722900390625</LatitudeDegrees>
              <LongitudeDegrees>-4.3681723438203334808349609375</LongitudeDegrees>
            </Position>
            <AltitudeMeters>682.20001220703125</AltitudeMeters>
            <DistanceMeters>NAN</DistanceMeters>
          </Trackpoint>
          <Trackpoint>
            <Time>2020-12-05T11:02:23.000Z</Time>
            <Position>
              <LatitudeDegrees>36.83169496245682239532470703125</LatitudeDegrees>
              <LongitudeDegrees>-4.36815717257559299468994140625</LongitudeDegrees>
            </Position>
            <AltitudeMeters>682.20001220703125</AltitudeMeters>
            <DistanceMeters>NAN</DistanceMeters>
          </Trackpoint>
          <Trackpoint>
            <Time>2020-12-05T11:02:24.000Z</Time>
            <Position>
              <LatitudeDegrees>36.83169412426650524139404296875</LatitudeDegrees>
              <LongitudeDegrees>-4.36814258806407451629638671875</LongitudeDegrees>
            </Position>
            <AltitudeMeters>682.20001220703125</AltitudeMeters>
            <DistanceMeters>NAN</DistanceMeters>
          </Trackpoint>
          <Trackpoint>
            <Time>2020-12-05T11:02:25.000Z</Time>
            <Position>
              <LatitudeDegrees>36.83169295080006122589111328125</LatitudeDegrees>
              <LongitudeDegrees>-4.36812817119061946868896484375</LongitudeDegrees>
            </Position>
            <AltitudeMeters>682.4000244140625</AltitudeMeters>
            <DistanceMeters>NAN</DistanceMeters>
          </Trackpoint>
          <Trackpoint>
            <Time>2020-12-05T11:02:26.000Z</Time>
            <Position>
              <LatitudeDegrees>36.83169194497168064117431640625</LatitudeDegrees>
              <LongitudeDegrees>-4.36811660416424274444580078125</LongitudeDegrees>
            </Position>
            <AltitudeMeters>682.5999755859375</AltitudeMeters>
            <DistanceMeters>NAN</DistanceMeters>
          </Trackpoint>
          <Trackpoint>
            <Time>2020-12-05T11:02:27.000Z</Time>
            <Position>
              <LatitudeDegrees>36.83169093914330005645751953125</LatitudeDegrees>
              <LongitudeDegrees>-4.36810470186173915863037109375</LongitudeDegrees>
            </Position>
            <AltitudeMeters>682.5999755859375</AltitudeMeters>
            <DistanceMeters>NAN</DistanceMeters>
          </Trackpoint>
          <Trackpoint>
            <Time>2020-12-05T11:02:28.000Z</Time>
            <Position>
              <LatitudeDegrees>36.8316893465816974639892578125</LatitudeDegrees>
              <LongitudeDegrees>-4.36809338629245758056640625</LongitudeDegrees>
            </Position>
            <AltitudeMeters>682.5999755859375</AltitudeMeters>
            <DistanceMeters>NAN</DistanceMeters>
          </Trackpoint>
          <Trackpoint>
            <Time>2020-12-05T11:02:29.000Z</Time>
            <Position>
              <LatitudeDegrees>36.83168993331491947174072265625</LatitudeDegrees>
              <LongitudeDegrees>-4.36807938851416110992431640625</LongitudeDegrees>
            </Position>
            <AltitudeMeters>682.79998779296875</AltitudeMeters>
            <DistanceMeters>NAN</DistanceMeters>
          </Trackpoint>
          <Trackpoint>
            <Time>2020-12-05T11:02:30.000Z</Time>
            <Position>
              <LatitudeDegrees>36.8316886760294437408447265625</LatitudeDegrees>
              <LongitudeDegrees>-4.368065558373928070068359375</LongitudeDegrees>
            </Position>
            <AltitudeMeters>682.5999755859375</AltitudeMeters>
            <DistanceMeters>NAN</DistanceMeters>
          </Trackpoint>
          <Trackpoint>
            <Time>2020-12-05T11:02:31.000Z</Time>
            <Position>
              <LatitudeDegrees>36.83168574236333370208740234375</LatitudeDegrees>
              <LongitudeDegrees>-4.36805139295756816864013671875</LongitudeDegrees>
            </Position>
            <AltitudeMeters>682.79998779296875</AltitudeMeters>
            <DistanceMeters>NAN</DistanceMeters>
          </Trackpoint>
          <Trackpoint>
            <Time>2020-12-05T11:02:32.000Z</Time>
            <Position>
              <LatitudeDegrees>36.83168222196400165557861328125</LatitudeDegrees>
              <LongitudeDegrees>-4.36803630553185939788818359375</LongitudeDegrees>
            </Position>
            <AltitudeMeters>683</AltitudeMeters>
            <DistanceMeters>NAN</DistanceMeters>
          </Trackpoint>
          <Trackpoint>
            <Time>2020-12-05T11:02:33.000Z</Time>
            <Position>
              <LatitudeDegrees>36.831681467592716217041015625</LatitudeDegrees>
              <LongitudeDegrees>-4.3680189549922943115234375</LongitudeDegrees>
            </Position>
            <AltitudeMeters>683.20001220703125</AltitudeMeters>
            <DistanceMeters>NAN</DistanceMeters>
          </Trackpoint>
          <Trackpoint>
            <Time>2020-12-05T11:02:34.000Z</Time>
            <Position>
              <LatitudeDegrees>36.83168021030724048614501953125</LatitudeDegrees>
              <LongitudeDegrees>-4.36800311319530010223388671875</LongitudeDegrees>
            </Position>
            <AltitudeMeters>683.20001220703125</AltitudeMeters>
            <DistanceMeters>NAN</DistanceMeters>
          </Trackpoint>
          <Trackpoint>
            <Time>2020-12-05T11:02:35.000Z</Time>
            <Position>
              <LatitudeDegrees>36.83167903684079647064208984375</LatitudeDegrees>
              <LongitudeDegrees>-4.36798970215022563934326171875</LongitudeDegrees>
            </Position>
            <AltitudeMeters>683.20001220703125</AltitudeMeters>
            <DistanceMeters>NAN</DistanceMeters>
          </Trackpoint>
          <Trackpoint>
            <Time>2020-12-05T11:02:36.000Z</Time>
            <Position>
              <LatitudeDegrees>36.83167736046016216278076171875</LatitudeDegrees>
              <LongitudeDegrees>-4.36797779984772205352783203125</LongitudeDegrees>
            </Position>
            <AltitudeMeters>683.4000244140625</AltitudeMeters>
            <DistanceMeters>NAN</DistanceMeters>
          </Trackpoint>
          <Trackpoint>
            <Time>2020-12-05T11:02:37.000Z</Time>
            <Position>
              <LatitudeDegrees>36.831674762070178985595703125</LatitudeDegrees>
              <LongitudeDegrees>-4.36796455644071102142333984375</LongitudeDegrees>
            </Position>
            <AltitudeMeters>683.5999755859375</AltitudeMeters>
            <DistanceMeters>NAN</DistanceMeters>
          </Trackpoint>
          <Trackpoint>
            <Time>2020-12-05T11:02:38.000Z</Time>
            <Position>
              <LatitudeDegrees>36.831670738756656646728515625</LatitudeDegrees>
              <LongitudeDegrees>-4.36795064248144626617431640625</LongitudeDegrees>
            </Position>
            <AltitudeMeters>683.5999755859375</AltitudeMeters>
            <DistanceMeters>NAN</DistanceMeters>
          </Trackpoint>
          <Trackpoint>
            <Time>2020-12-05T11:02:39.000Z</Time>
            <Position>
              <LatitudeDegrees>36.83166814036667346954345703125</LatitudeDegrees>
              <LongitudeDegrees>-4.3679369799792766571044921875</LongitudeDegrees>
            </Position>
            <AltitudeMeters>683.79998779296875</AltitudeMeters>
            <DistanceMeters>NAN</DistanceMeters>
          </Trackpoint>
          <Trackpoint>
            <Time>2020-12-05T11:02:40.000Z</Time>
            <Position>
              <LatitudeDegrees>36.8316638655960559844970703125</LatitudeDegrees>
              <LongitudeDegrees>-4.36791912652552127838134765625</LongitudeDegrees>
            </Position>
            <AltitudeMeters>683.79998779296875</AltitudeMeters>
            <DistanceMeters>NAN</DistanceMeters>
          </Trackpoint>
          <Trackpoint>
            <Time>2020-12-05T11:02:41.000Z</Time>
            <Position>
              <LatitudeDegrees>36.83166177012026309967041015625</LatitudeDegrees>
              <LongitudeDegrees>-4.36790118925273418426513671875</LongitudeDegrees>
            </Position>
            <AltitudeMeters>683.79998779296875</AltitudeMeters>
            <DistanceMeters>NAN</DistanceMeters>
          </Trackpoint>
          <Trackpoint>
            <Time>2020-12-05T11:02:42.000Z</Time>
            <Position>
              <LatitudeDegrees>36.83165967464447021484375</LatitudeDegrees>
              <LongitudeDegrees>-4.3678846769034862518310546875</LongitudeDegrees>
            </Position>
            <AltitudeMeters>684</AltitudeMeters>
            <DistanceMeters>NAN</DistanceMeters>
          </Trackpoint>
          <Trackpoint>
            <Time>2020-12-05T11:02:43.000Z</Time>
            <Position>
              <LatitudeDegrees>36.83165632188320159912109375</LatitudeDegrees>
              <LongitudeDegrees>-4.36786715872585773468017578125</LongitudeDegrees>
            </Position>
            <AltitudeMeters>684</AltitudeMeters>
            <DistanceMeters>NAN</DistanceMeters>
          </Trackpoint>
          <Trackpoint>
            <Time>2020-12-05T11:02:44.000Z</Time>
            <Position>
              <LatitudeDegrees>36.83165405876934528350830078125</LatitudeDegrees>
              <LongitudeDegrees>-4.36785274185240268707275390625</LongitudeDegrees>
            </Position>
            <AltitudeMeters>684</AltitudeMeters>
            <DistanceMeters>NAN</DistanceMeters>
          </Trackpoint>
          <Trackpoint>
            <Time>2020-12-05T11:02:45.000Z</Time>
            <Position>
              <LatitudeDegrees>36.831651628017425537109375</LatitudeDegrees>
              <LongitudeDegrees>-4.36783798970282077789306640625</LongitudeDegrees>
            </Position>
            <AltitudeMeters>684.20001220703125</AltitudeMeters>
            <DistanceMeters>NAN</DistanceMeters>
          </Trackpoint>
          <Trackpoint>
            <Time>2020-12-05T11:02:46.000Z</Time>
            <Position>
              <LatitudeDegrees>36.83164902962744235992431640625</LatitudeDegrees>
              <LongitudeDegrees>-4.36782374046742916107177734375</LongitudeDegrees>
            </Position>
            <AltitudeMeters>684.20001220703125</AltitudeMeters>
            <DistanceMeters>NAN</DistanceMeters>
          </Trackpoint>
          <Trackpoint>
            <Time>2020-12-05T11:02:47.000Z</Time>
            <Position>
              <LatitudeDegrees>36.83164634741842746734619140625</LatitudeDegrees>
              <LongitudeDegrees>-4.3678078986704349517822265625</LongitudeDegrees>
            </Position>
            <AltitudeMeters>684.4000244140625</AltitudeMeters>
            <DistanceMeters>NAN</DistanceMeters>
          </Trackpoint>
          <Trackpoint>
            <Time>2020-12-05T11:02:48.000Z</Time>
            <Position>
              <LatitudeDegrees>36.83164232410490512847900390625</LatitudeDegrees>
              <LongitudeDegrees>-4.36779029667377471923828125</LongitudeDegrees>
            </Position>
            <AltitudeMeters>684.4000244140625</AltitudeMeters>
            <DistanceMeters>NAN</DistanceMeters>
          </Trackpoint>
          <Trackpoint>
            <Time>2020-12-05T11:02:49.000Z</Time>
            <Position>
              <LatitudeDegrees>36.83163796551525592803955078125</LatitudeDegrees>
              <LongitudeDegrees>-4.36776976101100444793701171875</LongitudeDegrees>
            </Position>
            <AltitudeMeters>684.4000244140625</AltitudeMeters>
            <DistanceMeters>NAN</DistanceMeters>
          </Trackpoint>
          <Trackpoint>
            <Time>2020-12-05T11:02:50.000Z</Time>
            <Position>
              <LatitudeDegrees>36.83163595385849475860595703125</LatitudeDegrees>
              <LongitudeDegrees>-4.3677525781095027923583984375</LongitudeDegrees>
            </Position>
            <AltitudeMeters>684.4000244140625</AltitudeMeters>
            <DistanceMeters>NAN</DistanceMeters>
          </Trackpoint>
          <Trackpoint>
            <Time>2020-12-05T11:02:51.000Z</Time>
            <Position>
              <LatitudeDegrees>36.83163260109722614288330078125</LatitudeDegrees>
              <LongitudeDegrees>-4.36773690395057201385498046875</LongitudeDegrees>
            </Position>
            <AltitudeMeters>684.5999755859375</AltitudeMeters>
            <DistanceMeters>NAN</DistanceMeters>
          </Trackpoint>
          <Trackpoint>
            <Time>2020-12-05T11:02:52.000Z</Time>
            <Position>
              <LatitudeDegrees>36.83162623085081577301025390625</LatitudeDegrees>
              <LongitudeDegrees>-4.36772315762937068939208984375</LongitudeDegrees>
            </Position>
            <AltitudeMeters>684.5999755859375</AltitudeMeters>
            <DistanceMeters>NAN</DistanceMeters>
          </Trackpoint>
          <Trackpoint>
            <Time>2020-12-05T11:02:53.000Z</Time>
            <Position>
              <LatitudeDegrees>36.8316207826137542724609375</LatitudeDegrees>
              <LongitudeDegrees>-4.367711842060089111328125</LongitudeDegrees>
            </Position>
            <AltitudeMeters>684.5999755859375</AltitudeMeters>
            <DistanceMeters>NAN</DistanceMeters>
          </Trackpoint>
          <Trackpoint>
            <Time>2020-12-05T11:02:54.000Z</Time>
            <Position>
              <LatitudeDegrees>36.8316132389008998870849609375</LatitudeDegrees>
              <LongitudeDegrees>-4.36769817955791950225830078125</LongitudeDegrees>
            </Position>
            <AltitudeMeters>684.5999755859375</AltitudeMeters>
            <DistanceMeters>NAN</DistanceMeters>
          </Trackpoint>
          <Trackpoint>
            <Time>2020-12-05T11:02:55.000Z</Time>
            <Position>
              <LatitudeDegrees>36.83160108514130115509033203125</LatitudeDegrees>
              <LongitudeDegrees>-4.36768460087478160858154296875</LongitudeDegrees>
            </Position>
            <AltitudeMeters>684.5999755859375</AltitudeMeters>
            <DistanceMeters>NAN</DistanceMeters>
          </Trackpoint>
          <Trackpoint>
            <Time>2020-12-05T11:02:56.000Z</Time>
            <Position>
              <LatitudeDegrees>36.8315899372100830078125</LatitudeDegrees>
              <LongitudeDegrees>-4.3676734529435634613037109375</LongitudeDegrees>
            </Position>
            <AltitudeMeters>684.79998779296875</AltitudeMeters>
            <DistanceMeters>NAN</DistanceMeters>
          </Trackpoint>
          <Trackpoint>
            <Time>2020-12-05T11:02:57.000Z</Time>
            <Position>
              <LatitudeDegrees>36.8315778672695159912109375</LatitudeDegrees>
              <LongitudeDegrees>-4.367665909230709075927734375</LongitudeDegrees>
            </Position>
            <AltitudeMeters>684.79998779296875</AltitudeMeters>
            <DistanceMeters>NAN</DistanceMeters>
          </Trackpoint>
          <Trackpoint>
            <Time>2020-12-05T11:02:58.000Z</Time>
            <Position>
              <LatitudeDegrees>36.83156655170023441314697265625</LatitudeDegrees>
              <LongitudeDegrees>-4.36765526421368122100830078125</LongitudeDegrees>
            </Position>
            <AltitudeMeters>685</AltitudeMeters>
            <DistanceMeters>NAN</DistanceMeters>
          </Trackpoint>
          <Trackpoint>
            <Time>2020-12-05T11:02:59.000Z</Time>
            <Position>
              <LatitudeDegrees>36.83155900798738002777099609375</LatitudeDegrees>
              <LongitudeDegrees>-4.36764537356793880462646484375</LongitudeDegrees>
            </Position>
            <AltitudeMeters>685.20001220703125</AltitudeMeters>
            <DistanceMeters>NAN</DistanceMeters>
          </Trackpoint>
          <Trackpoint>
            <Time>2020-12-05T11:03:00.000Z</Time>
            <Position>
              <LatitudeDegrees>36.83155213482677936553955078125</LatitudeDegrees>
              <LongitudeDegrees>-4.36763799749314785003662109375</LongitudeDegrees>
            </Position>
            <AltitudeMeters>685.20001220703125</AltitudeMeters>
            <DistanceMeters>NAN</DistanceMeters>
          </Trackpoint>
          <Trackpoint>
            <Time>2020-12-05T11:03:01.000Z</Time>
            <Position>
              <LatitudeDegrees>36.83154442347586154937744140625</LatitudeDegrees>
              <LongitudeDegrees>-4.36762911267578601837158203125</LongitudeDegrees>
            </Position>
            <AltitudeMeters>685.4000244140625</AltitudeMeters>
            <DistanceMeters>NAN</DistanceMeters>
          </Trackpoint>
          <Trackpoint>
            <Time>2020-12-05T11:03:02.000Z</Time>
            <Position>
              <LatitudeDegrees>36.8315347842872142791748046875</LatitudeDegrees>
              <LongitudeDegrees>-4.367615282535552978515625</LongitudeDegrees>
            </Position>
            <AltitudeMeters>685.4000244140625</AltitudeMeters>
            <DistanceMeters>NAN</DistanceMeters>
          </Trackpoint>
          <Trackpoint>
            <Time>2020-12-05T11:03:03.000Z</Time>
            <Position>
              <LatitudeDegrees>36.83152212761342525482177734375</LatitudeDegrees>
              <LongitudeDegrees>-4.36759223230183124542236328125</LongitudeDegrees>
            </Position>
            <AltitudeMeters>685.4000244140625</AltitudeMeters>
            <DistanceMeters>NAN</DistanceMeters>
          </Trackpoint>
          <Trackpoint>
            <Time>2020-12-05T11:03:04.000Z</Time>
            <Position>
              <LatitudeDegrees>36.8315134942531585693359375</LatitudeDegrees>
              <LongitudeDegrees>-4.36757965944707393646240234375</LongitudeDegrees>
            </Position>
            <AltitudeMeters>685.4000244140625</AltitudeMeters>
            <DistanceMeters>NAN</DistanceMeters>
          </Trackpoint>
          <Trackpoint>
            <Time>2020-12-05T11:03:05.000Z</Time>
            <Position>
              <LatitudeDegrees>36.831505782902240753173828125</LatitudeDegrees>
              <LongitudeDegrees>-4.3675678409636020660400390625</LongitudeDegrees>
            </Position>
            <AltitudeMeters>685.4000244140625</AltitudeMeters>
            <DistanceMeters>NAN</DistanceMeters>
          </Trackpoint>
          <Trackpoint>
            <Time>2020-12-05T11:03:06.000Z</Time>
            <Position>
              <LatitudeDegrees>36.831495724618434906005859375</LatitudeDegrees>
              <LongitudeDegrees>-4.36755049042403697967529296875</LongitudeDegrees>
            </Position>
            <AltitudeMeters>685.4000244140625</AltitudeMeters>
            <DistanceMeters>NAN</DistanceMeters>
          </Trackpoint>
          <Trackpoint>
            <Time>2020-12-05T11:03:07.000Z</Time>
            <Position>
              <LatitudeDegrees>36.8314858339726924896240234375</LatitudeDegrees>
              <LongitudeDegrees>-4.36753682792186737060546875</LongitudeDegrees>
            </Position>
            <AltitudeMeters>685.5999755859375</AltitudeMeters>
            <DistanceMeters>NAN</DistanceMeters>
          </Trackpoint>
          <Trackpoint>
            <Time>2020-12-05T11:03:08.000Z</Time>
            <Position>
              <LatitudeDegrees>36.831477619707584381103515625</LatitudeDegrees>
              <LongitudeDegrees>-4.367531128227710723876953125</LongitudeDegrees>
            </Position>
            <AltitudeMeters>685.5999755859375</AltitudeMeters>
            <DistanceMeters>NAN</DistanceMeters>
          </Trackpoint>
          <Trackpoint>
            <Time>2020-12-05T11:03:09.000Z</Time>
            <Position>
              <LatitudeDegrees>36.831467561423778533935546875</LatitudeDegrees>
              <LongitudeDegrees>-4.367518723011016845703125</LongitudeDegrees>
            </Position>
            <AltitudeMeters>685.5999755859375</AltitudeMeters>
            <DistanceMeters>NAN</DistanceMeters>
          </Trackpoint>
          <Trackpoint>
            <Time>2020-12-05T11:03:10.000Z</Time>
            <Position>
              <LatitudeDegrees>36.8314586766064167022705078125</LatitudeDegrees>
              <LongitudeDegrees>-4.36751377768814563751220703125</LongitudeDegrees>
            </Position>
            <AltitudeMeters>685.5999755859375</AltitudeMeters>
            <DistanceMeters>NAN</DistanceMeters>
          </Trackpoint>
          <Trackpoint>
            <Time>2020-12-05T11:03:11.000Z</Time>
            <Position>
              <LatitudeDegrees>36.8314479477703571319580078125</LatitudeDegrees>
              <LongitudeDegrees>-4.36750573106110095977783203125</LongitudeDegrees>
            </Position>
            <AltitudeMeters>685.5999755859375</AltitudeMeters>
            <DistanceMeters>NAN</DistanceMeters>
          </Trackpoint>
          <Trackpoint>
            <Time>2020-12-05T11:03:12.000Z</Time>
            <Position>
              <LatitudeDegrees>36.8314342014491558074951171875</LatitudeDegrees>
              <LongitudeDegrees>-4.36749148182570934295654296875</LongitudeDegrees>
            </Position>
            <AltitudeMeters>685.5999755859375</AltitudeMeters>
            <DistanceMeters>NAN</DistanceMeters>
          </Trackpoint>
          <Trackpoint>
            <Time>2020-12-05T11:03:13.000Z</Time>
            <Position>
              <LatitudeDegrees>36.83141869492828845977783203125</LatitudeDegrees>
              <LongitudeDegrees>-4.367478154599666595458984375</LongitudeDegrees>
            </Position>
            <AltitudeMeters>685.5999755859375</AltitudeMeters>
            <DistanceMeters>NAN</DistanceMeters>
          </Trackpoint>
          <Trackpoint>
            <Time>2020-12-05T11:03:14.000Z</Time>
            <Position>
              <LatitudeDegrees>36.831402517855167388916015625</LatitudeDegrees>
              <LongitudeDegrees>-4.3674649111926555633544921875</LongitudeDegrees>
            </Position>
            <AltitudeMeters>685.79998779296875</AltitudeMeters>
            <DistanceMeters>NAN</DistanceMeters>
          </Trackpoint>
          <Trackpoint>
            <Time>2020-12-05T11:03:15.000Z</Time>
            <Position>
              <LatitudeDegrees>36.83138919062912464141845703125</LatitudeDegrees>
              <LongitudeDegrees>-4.367454349994659423828125</LongitudeDegrees>
            </Position>
            <AltitudeMeters>685.79998779296875</AltitudeMeters>
            <DistanceMeters>NAN</DistanceMeters>
          </Trackpoint>
          <Trackpoint>
            <Time>2020-12-05T11:03:16.000Z</Time>
            <Position>
              <LatitudeDegrees>36.83137494139373302459716796875</LatitudeDegrees>
              <LongitudeDegrees>-4.36744772829115390777587890625</LongitudeDegrees>
            </Position>
            <AltitudeMeters>686</AltitudeMeters>
            <DistanceMeters>NAN</DistanceMeters>
          </Trackpoint>
          <Trackpoint>
            <Time>2020-12-05T11:03:17.000Z</Time>
            <Position>
              <LatitudeDegrees>36.8313597701489925384521484375</LatitudeDegrees>
              <LongitudeDegrees>-4.36744253151118755340576171875</LongitudeDegrees>
            </Position>
            <AltitudeMeters>686</AltitudeMeters>
            <DistanceMeters>NAN</DistanceMeters>
          </Trackpoint>
          <Trackpoint>
            <Time>2020-12-05T11:03:18.000Z</Time>
            <Position>
              <LatitudeDegrees>36.83134459890425205230712890625</LatitudeDegrees>
              <LongitudeDegrees>-4.36743917874991893768310546875</LongitudeDegrees>
            </Position>
            <AltitudeMeters>686</AltitudeMeters>
            <DistanceMeters>NAN</DistanceMeters>
          </Trackpoint>
          <Trackpoint>
            <Time>2020-12-05T11:03:19.000Z</Time>
            <Position>
              <LatitudeDegrees>36.831327416002750396728515625</LatitudeDegrees>
              <LongitudeDegrees>-4.36743817292153835296630859375</LongitudeDegrees>
            </Position>
            <AltitudeMeters>686.20001220703125</AltitudeMeters>
            <DistanceMeters>NAN</DistanceMeters>
          </Trackpoint>
          <Trackpoint>
            <Time>2020-12-05T11:03:20.000Z</Time>
            <Position>
              <LatitudeDegrees>36.8313109874725341796875</LatitudeDegrees>
              <LongitudeDegrees>-4.36743767000734806060791015625</LongitudeDegrees>
            </Position>
            <AltitudeMeters>686.20001220703125</AltitudeMeters>
            <DistanceMeters>NAN</DistanceMeters>
          </Trackpoint>
          <Trackpoint>
            <Time>2020-12-05T11:03:21.000Z</Time>
            <Position>
              <LatitudeDegrees>36.8312962353229522705078125</LatitudeDegrees>
              <LongitudeDegrees>-4.36743247322738170623779296875</LongitudeDegrees>
            </Position>
            <AltitudeMeters>686.20001220703125</AltitudeMeters>
            <DistanceMeters>NAN</DistanceMeters>
          </Trackpoint>
          <Trackpoint>
            <Time>2020-12-05T11:03:22.000Z</Time>
            <Position>
              <LatitudeDegrees>36.83128123171627521514892578125</LatitudeDegrees>
              <LongitudeDegrees>-4.36742710880935192108154296875</LongitudeDegrees>
            </Position>
            <AltitudeMeters>686.4000244140625</AltitudeMeters>
            <DistanceMeters>NAN</DistanceMeters>
          </Trackpoint>
          <Trackpoint>
            <Time>2020-12-05T11:03:23.000Z</Time>
            <Position>
              <LatitudeDegrees>36.83126631192862987518310546875</LatitudeDegrees>
              <LongitudeDegrees>-4.36742392368614673614501953125</LongitudeDegrees>
            </Position>
            <AltitudeMeters>686.4000244140625</AltitudeMeters>
            <DistanceMeters>NAN</DistanceMeters>
          </Trackpoint>
          <Trackpoint>
            <Time>2020-12-05T11:03:24.000Z</Time>
            <Position>
              <LatitudeDegrees>36.83124803937971591949462890625</LatitudeDegrees>
              <LongitudeDegrees>-4.367419146001338958740234375</LongitudeDegrees>
            </Position>
            <AltitudeMeters>686.5999755859375</AltitudeMeters>
            <DistanceMeters>NAN</DistanceMeters>
          </Trackpoint>
          <Trackpoint>
            <Time>2020-12-05T11:03:25.000Z</Time>
            <Position>
              <LatitudeDegrees>36.8312306888401508331298828125</LatitudeDegrees>
              <LongitudeDegrees>-4.36741872690618038177490234375</LongitudeDegrees>
            </Position>
            <AltitudeMeters>686.79998779296875</AltitudeMeters>
            <DistanceMeters>NAN</DistanceMeters>
          </Trackpoint>
          <Trackpoint>
            <Time>2020-12-05T11:03:26.000Z</Time>
            <Position>
              <LatitudeDegrees>36.8312092311680316925048828125</LatitudeDegrees>
              <LongitudeDegrees>-4.3674099259078502655029296875</LongitudeDegrees>
            </Position>
            <AltitudeMeters>686.79998779296875</AltitudeMeters>
            <DistanceMeters>NAN</DistanceMeters>
          </Trackpoint>
          <Trackpoint>
            <Time>2020-12-05T11:03:27.000Z</Time>
            <Position>
              <LatitudeDegrees>36.8311894498765468597412109375</LatitudeDegrees>
              <LongitudeDegrees>-4.36740799807012081146240234375</LongitudeDegrees>
            </Position>
            <AltitudeMeters>687</AltitudeMeters>
            <DistanceMeters>NAN</DistanceMeters>
          </Trackpoint>
          <Trackpoint>
            <Time>2020-12-05T11:03:28.000Z</Time>
            <Position>
              <LatitudeDegrees>36.83117243461310863494873046875</LatitudeDegrees>
              <LongitudeDegrees>-4.36740749515593051910400390625</LongitudeDegrees>
            </Position>
            <AltitudeMeters>687</AltitudeMeters>
            <DistanceMeters>NAN</DistanceMeters>
          </Trackpoint>
          <Trackpoint>
            <Time>2020-12-05T11:03:29.000Z</Time>
            <Position>
              <LatitudeDegrees>36.83116036467254161834716796875</LatitudeDegrees>
              <LongitudeDegrees>-4.367405064404010772705078125</LongitudeDegrees>
            </Position>
            <AltitudeMeters>687</AltitudeMeters>
            <DistanceMeters>NAN</DistanceMeters>
          </Trackpoint>
          <Trackpoint>
            <Time>2020-12-05T11:03:30.000Z</Time>
            <Position>
              <LatitudeDegrees>36.831151060760021209716796875</LatitudeDegrees>
              <LongitudeDegrees>-4.367407076060771942138671875</LongitudeDegrees>
            </Position>
            <AltitudeMeters>687</AltitudeMeters>
            <DistanceMeters>NAN</DistanceMeters>
          </Trackpoint>
          <Trackpoint>
            <Time>2020-12-05T11:03:31.000Z</Time>
            <Position>
              <LatitudeDegrees>36.83114075101912021636962890625</LatitudeDegrees>
              <LongitudeDegrees>-4.36740808188915252685546875</LongitudeDegrees>
            </Position>
            <AltitudeMeters>687</AltitudeMeters>
            <DistanceMeters>NAN</DistanceMeters>
          </Trackpoint>
          <Trackpoint>
            <Time>2020-12-05T11:03:32.000Z</Time>
            <Position>
              <LatitudeDegrees>36.831129603087902069091796875</LatitudeDegrees>
              <LongitudeDegrees>-4.367409087717533111572265625</LongitudeDegrees>
            </Position>
            <AltitudeMeters>687</AltitudeMeters>
            <DistanceMeters>NAN</DistanceMeters>
          </Trackpoint>
          <Trackpoint>
            <Time>2020-12-05T11:03:33.000Z</Time>
            <Position>
              <LatitudeDegrees>36.83111317455768585205078125</LatitudeDegrees>
              <LongitudeDegrees>-4.36740699224174022674560546875</LongitudeDegrees>
            </Position>
            <AltitudeMeters>687</AltitudeMeters>
            <DistanceMeters>NAN</DistanceMeters>
          </Trackpoint>
          <Trackpoint>
            <Time>2020-12-05T11:03:34.000Z</Time>
            <Position>
              <LatitudeDegrees>36.83109850622713565826416015625</LatitudeDegrees>
              <LongitudeDegrees>-4.36740875244140625</LongitudeDegrees>
            </Position>
            <AltitudeMeters>687</AltitudeMeters>
            <DistanceMeters>NAN</DistanceMeters>
          </Trackpoint>
          <Trackpoint>
            <Time>2020-12-05T11:03:35.000Z</Time>
            <Position>
              <LatitudeDegrees>36.83108375407755374908447265625</LatitudeDegrees>
              <LongitudeDegrees>-4.3674048967659473419189453125</LongitudeDegrees>
            </Position>
            <AltitudeMeters>687.20001220703125</AltitudeMeters>
            <DistanceMeters>NAN</DistanceMeters>
          </Trackpoint>
          <Trackpoint>
            <Time>2020-12-05T11:03:36.000Z</Time>
            <Position>
              <LatitudeDegrees>36.8310736119747161865234375</LatitudeDegrees>
              <LongitudeDegrees>-4.36740699224174022674560546875</LongitudeDegrees>
            </Position>
            <AltitudeMeters>687.4000244140625</AltitudeMeters>
            <DistanceMeters>NAN</DistanceMeters>
          </Trackpoint>
          <Trackpoint>
            <Time>2020-12-05T11:03:37.000Z</Time>
            <Position>
              <LatitudeDegrees>36.83105961419641971588134765625</LatitudeDegrees>
              <LongitudeDegrees>-4.3674099259078502655029296875</LongitudeDegrees>
            </Position>
            <AltitudeMeters>687.5999755859375</AltitudeMeters>
            <DistanceMeters>NAN</DistanceMeters>
          </Trackpoint>
          <Trackpoint>
            <Time>2020-12-05T11:03:38.000Z</Time>
            <Position>
              <LatitudeDegrees>36.8310476280748844146728515625</LatitudeDegrees>
              <LongitudeDegrees>-4.367411099374294281005859375</LongitudeDegrees>
            </Position>
            <AltitudeMeters>687.5999755859375</AltitudeMeters>
            <DistanceMeters>NAN</DistanceMeters>
          </Trackpoint>
          <Trackpoint>
            <Time>2020-12-05T11:03:39.000Z</Time>
            <Position>
              <LatitudeDegrees>36.8310325406491756439208984375</LatitudeDegrees>
              <LongitudeDegrees>-4.3674109317362308502197265625</LongitudeDegrees>
            </Position>
            <AltitudeMeters>687.79998779296875</AltitudeMeters>
            <DistanceMeters>NAN</DistanceMeters>
          </Trackpoint>
          <Trackpoint>
            <Time>2020-12-05T11:03:40.000Z</Time>
            <Position>
              <LatitudeDegrees>36.8310199677944183349609375</LatitudeDegrees>
              <LongitudeDegrees>-4.36741210520267486572265625</LongitudeDegrees>
            </Position>
            <AltitudeMeters>687.79998779296875</AltitudeMeters>
            <DistanceMeters>NAN</DistanceMeters>
          </Trackpoint>
          <Trackpoint>
            <Time>2020-12-05T11:03:41.000Z</Time>
            <Position>
              <LatitudeDegrees>36.83100697584450244903564453125</LatitudeDegrees>
              <LongitudeDegrees>-4.36741185374557971954345703125</LongitudeDegrees>
            </Position>
            <AltitudeMeters>688</AltitudeMeters>
            <DistanceMeters>NAN</DistanceMeters>
          </Trackpoint>
          <Trackpoint>
            <Time>2020-12-05T11:03:42.000Z</Time>
            <Position>
              <LatitudeDegrees>36.83099356479942798614501953125</LatitudeDegrees>
              <LongitudeDegrees>-4.36741000972688198089599609375</LongitudeDegrees>
            </Position>
            <AltitudeMeters>688</AltitudeMeters>
            <DistanceMeters>NAN</DistanceMeters>
          </Trackpoint>
          <Trackpoint>
            <Time>2020-12-05T11:03:43.000Z</Time>
            <Position>
              <LatitudeDegrees>36.83097965084016323089599609375</LatitudeDegrees>
              <LongitudeDegrees>-4.36740875244140625</LongitudeDegrees>
            </Position>
            <AltitudeMeters>688.20001220703125</AltitudeMeters>
            <DistanceMeters>NAN</DistanceMeters>
          </Trackpoint>
          <Trackpoint>
            <Time>2020-12-05T11:03:44.000Z</Time>
            <Position>
              <LatitudeDegrees>36.83096925728023052215576171875</LatitudeDegrees>
              <LongitudeDegrees>-4.36740732751786708831787109375</LongitudeDegrees>
            </Position>
            <AltitudeMeters>688.4000244140625</AltitudeMeters>
            <DistanceMeters>NAN</DistanceMeters>
          </Trackpoint>
          <Trackpoint>
            <Time>2020-12-05T11:03:45.000Z</Time>
            <Position>
              <LatitudeDegrees>36.8309628032147884368896484375</LatitudeDegrees>
              <LongitudeDegrees>-4.3673995323479175567626953125</LongitudeDegrees>
            </Position>
            <AltitudeMeters>688.5999755859375</AltitudeMeters>
            <DistanceMeters>NAN</DistanceMeters>
          </Trackpoint>
          <Trackpoint>
            <Time>2020-12-05T11:03:46.000Z</Time>
            <Position>
              <LatitudeDegrees>36.83095215819776058197021484375</LatitudeDegrees>
              <LongitudeDegrees>-4.36739467084407806396484375</LongitudeDegrees>
            </Position>
            <AltitudeMeters>688.5999755859375</AltitudeMeters>
            <DistanceMeters>NAN</DistanceMeters>
          </Trackpoint>
          <Trackpoint>
            <Time>2020-12-05T11:03:47.000Z</Time>
            <Position>
              <LatitudeDegrees>36.8309410102665424346923828125</LatitudeDegrees>
              <LongitudeDegrees>-4.3673864565789699554443359375</LongitudeDegrees>
            </Position>
            <AltitudeMeters>688.5999755859375</AltitudeMeters>
            <DistanceMeters>NAN</DistanceMeters>
          </Trackpoint>
          <Trackpoint>
            <Time>2020-12-05T11:03:48.000Z</Time>
            <Position>
              <LatitudeDegrees>36.83093204163014888763427734375</LatitudeDegrees>
              <LongitudeDegrees>-4.3673857860267162322998046875</LongitudeDegrees>
            </Position>
            <AltitudeMeters>688.5999755859375</AltitudeMeters>
            <DistanceMeters>NAN</DistanceMeters>
          </Trackpoint>
          <Trackpoint>
            <Time>2020-12-05T11:03:49.000Z</Time>
            <Position>
              <LatitudeDegrees>36.83092282153666019439697265625</LatitudeDegrees>
              <LongitudeDegrees>-4.36738553456962108612060546875</LongitudeDegrees>
            </Position>
            <AltitudeMeters>688.5999755859375</AltitudeMeters>
            <DistanceMeters>NAN</DistanceMeters>
          </Trackpoint>
          <Trackpoint>
            <Time>2020-12-05T11:03:50.000Z</Time>
            <Position>
              <LatitudeDegrees>36.8309098295867443084716796875</LatitudeDegrees>
              <LongitudeDegrees>-4.3673867918550968170166015625</LongitudeDegrees>
            </Position>
            <AltitudeMeters>688.5999755859375</AltitudeMeters>
            <DistanceMeters>NAN</DistanceMeters>
          </Trackpoint>
          <Trackpoint>
            <Time>2020-12-05T11:03:51.000Z</Time>
            <Position>
              <LatitudeDegrees>36.83089817874133586883544921875</LatitudeDegrees>
              <LongitudeDegrees>-4.3673884682357311248779296875</LongitudeDegrees>
            </Position>
            <AltitudeMeters>688.5999755859375</AltitudeMeters>
            <DistanceMeters>NAN</DistanceMeters>
          </Trackpoint>
          <Trackpoint>
            <Time>2020-12-05T11:03:52.000Z</Time>
            <Position>
              <LatitudeDegrees>36.830885522067546844482421875</LatitudeDegrees>
              <LongitudeDegrees>-4.367385618388652801513671875</LongitudeDegrees>
            </Position>
            <AltitudeMeters>688.4000244140625</AltitudeMeters>
            <DistanceMeters>NAN</DistanceMeters>
          </Trackpoint>
          <Trackpoint>
            <Time>2020-12-05T11:03:53.000Z</Time>
            <Position>
              <LatitudeDegrees>36.83086884208023548126220703125</LatitudeDegrees>
              <LongitudeDegrees>-4.36737748794257640838623046875</LongitudeDegrees>
            </Position>
            <AltitudeMeters>688.4000244140625</AltitudeMeters>
            <DistanceMeters>NAN</DistanceMeters>
          </Trackpoint>
          <Trackpoint>
            <Time>2020-12-05T11:03:54.000Z</Time>
            <Position>
              <LatitudeDegrees>36.830855347216129302978515625</LatitudeDegrees>
              <LongitudeDegrees>-4.36737933196127414703369140625</LongitudeDegrees>
            </Position>
            <AltitudeMeters>688.20001220703125</AltitudeMeters>
            <DistanceMeters>NAN</DistanceMeters>
          </Trackpoint>
          <Trackpoint>
            <Time>2020-12-05T11:03:55.000Z</Time>
            <Position>
              <LatitudeDegrees>36.830841265618801116943359375</LatitudeDegrees>
              <LongitudeDegrees>-4.367382265627384185791015625</LongitudeDegrees>
            </Position>
            <AltitudeMeters>688.4000244140625</AltitudeMeters>
            <DistanceMeters>NAN</DistanceMeters>
          </Trackpoint>
          <Trackpoint>
            <Time>2020-12-05T11:03:56.000Z</Time>
            <Position>
              <LatitudeDegrees>36.8308286927640438079833984375</LatitudeDegrees>
              <LongitudeDegrees>-4.36738939024507999420166015625</LongitudeDegrees>
            </Position>
            <AltitudeMeters>688.4000244140625</AltitudeMeters>
            <DistanceMeters>NAN</DistanceMeters>
          </Trackpoint>
          <Trackpoint>
            <Time>2020-12-05T11:03:57.000Z</Time>
            <Position>
              <LatitudeDegrees>36.8308169580996036529541015625</LatitudeDegrees>
              <LongitudeDegrees>-4.36739844270050525665283203125</LongitudeDegrees>
            </Position>
            <AltitudeMeters>688.5999755859375</AltitudeMeters>
            <DistanceMeters>NAN</DistanceMeters>
          </Trackpoint>
          <Trackpoint>
            <Time>2020-12-05T11:03:58.000Z</Time>
            <Position>
              <LatitudeDegrees>36.830805055797100067138671875</LatitudeDegrees>
              <LongitudeDegrees>-4.36740715987980365753173828125</LongitudeDegrees>
            </Position>
            <AltitudeMeters>688.79998779296875</AltitudeMeters>
            <DistanceMeters>NAN</DistanceMeters>
          </Trackpoint>
          <Trackpoint>
            <Time>2020-12-05T11:03:59.000Z</Time>
            <Position>
              <LatitudeDegrees>36.83079642243683338165283203125</LatitudeDegrees>
              <LongitudeDegrees>-4.367414452135562896728515625</LongitudeDegrees>
            </Position>
            <AltitudeMeters>689</AltitudeMeters>
            <DistanceMeters>NAN</DistanceMeters>
          </Trackpoint>
          <Trackpoint>
            <Time>2020-12-05T11:04:00.000Z</Time>
            <Position>
              <LatitudeDegrees>36.8307881243526935577392578125</LatitudeDegrees>
              <LongitudeDegrees>-4.36742174439132213592529296875</LongitudeDegrees>
            </Position>
            <AltitudeMeters>689.20001220703125</AltitudeMeters>
            <DistanceMeters>NAN</DistanceMeters>
          </Trackpoint>
          <Trackpoint>
            <Time>2020-12-05T11:04:01.000Z</Time>
            <Position>
              <LatitudeDegrees>36.83077882044017314910888671875</LatitudeDegrees>
              <LongitudeDegrees>-4.367427527904510498046875</LongitudeDegrees>
            </Position>
            <AltitudeMeters>689.4000244140625</AltitudeMeters>
            <DistanceMeters>NAN</DistanceMeters>
          </Trackpoint>
          <Trackpoint>
            <Time>2020-12-05T11:04:02.000Z</Time>
            <Position>
              <LatitudeDegrees>36.830771528184413909912109375</LatitudeDegrees>
              <LongitudeDegrees>-4.3674384243786334991455078125</LongitudeDegrees>
            </Position>
            <AltitudeMeters>689.5999755859375</AltitudeMeters>
            <DistanceMeters>NAN</DistanceMeters>
          </Trackpoint>
          <Trackpoint>
            <Time>2020-12-05T11:04:03.000Z</Time>
            <Position>
              <LatitudeDegrees>36.8307619728147983551025390625</LatitudeDegrees>
              <LongitudeDegrees>-4.36744588427245616912841796875</LongitudeDegrees>
            </Position>
            <AltitudeMeters>689.5999755859375</AltitudeMeters>
            <DistanceMeters>NAN</DistanceMeters>
          </Trackpoint>
          <Trackpoint>
            <Time>2020-12-05T11:04:04.000Z</Time>
            <Position>
              <LatitudeDegrees>36.83074973523616790771484375</LatitudeDegrees>
              <LongitudeDegrees>-4.36745426617562770843505859375</LongitudeDegrees>
            </Position>
            <AltitudeMeters>689.5999755859375</AltitudeMeters>
            <DistanceMeters>NAN</DistanceMeters>
          </Trackpoint>
          <Trackpoint>
            <Time>2020-12-05T11:04:05.000Z</Time>
            <Position>
              <LatitudeDegrees>36.83073221705853939056396484375</LatitudeDegrees>
              <LongitudeDegrees>-4.3674642406404018402099609375</LongitudeDegrees>
            </Position>
            <AltitudeMeters>689.5999755859375</AltitudeMeters>
            <DistanceMeters>NAN</DistanceMeters>
          </Trackpoint>
          <Trackpoint>
            <Time>2020-12-05T11:04:06.000Z</Time>
            <Position>
              <LatitudeDegrees>36.8307126872241497039794921875</LatitudeDegrees>
              <LongitudeDegrees>-4.36747086234390735626220703125</LongitudeDegrees>
            </Position>
            <AltitudeMeters>689.5999755859375</AltitudeMeters>
            <DistanceMeters>NAN</DistanceMeters>
          </Trackpoint>
          <Trackpoint>
            <Time>2020-12-05T11:04:07.000Z</Time>
            <Position>
              <LatitudeDegrees>36.8306952528655529022216796875</LatitudeDegrees>
              <LongitudeDegrees>-4.36748050153255462646484375</LongitudeDegrees>
            </Position>
            <AltitudeMeters>689.5999755859375</AltitudeMeters>
            <DistanceMeters>NAN</DistanceMeters>
          </Trackpoint>
          <Trackpoint>
            <Time>2020-12-05T11:04:08.000Z</Time>
            <Position>
              <LatitudeDegrees>36.83068058453500270843505859375</LatitudeDegrees>
              <LongitudeDegrees>-4.367488883435726165771484375</LongitudeDegrees>
            </Position>
            <AltitudeMeters>689.5999755859375</AltitudeMeters>
            <DistanceMeters>NAN</DistanceMeters>
          </Trackpoint>
          <Trackpoint>
            <Time>2020-12-05T11:04:09.000Z</Time>
            <Position>
              <LatitudeDegrees>36.83066600002348423004150390625</LatitudeDegrees>
              <LongitudeDegrees>-4.367497600615024566650390625</LongitudeDegrees>
            </Position>
            <AltitudeMeters>689.4000244140625</AltitudeMeters>
            <DistanceMeters>NAN</DistanceMeters>
          </Trackpoint>
          <Trackpoint>
            <Time>2020-12-05T11:04:10.000Z</Time>
            <Position>
              <LatitudeDegrees>36.830650828778743743896484375</LatitudeDegrees>
              <LongitudeDegrees>-4.36750506050884723663330078125</LongitudeDegrees>
            </Position>
            <AltitudeMeters>689.5999755859375</AltitudeMeters>
            <DistanceMeters>NAN</DistanceMeters>
          </Trackpoint>
          <Trackpoint>
            <Time>2020-12-05T11:04:11.000Z</Time>
            <Position>
              <LatitudeDegrees>36.8306342326104640960693359375</LatitudeDegrees>
              <LongitudeDegrees>-4.367508329451084136962890625</LongitudeDegrees>
            </Position>
            <AltitudeMeters>689.5999755859375</AltitudeMeters>
            <DistanceMeters>NAN</DistanceMeters>
          </Trackpoint>
          <Trackpoint>
            <Time>2020-12-05T11:04:12.000Z</Time>
            <Position>
              <LatitudeDegrees>36.83061964809894561767578125</LatitudeDegrees>
              <LongitudeDegrees>-4.36751126311719417572021484375</LongitudeDegrees>
            </Position>
            <AltitudeMeters>689.79998779296875</AltitudeMeters>
            <DistanceMeters>NAN</DistanceMeters>
          </Trackpoint>
          <Trackpoint>
            <Time>2020-12-05T11:04:13.000Z</Time>
            <Position>
              <LatitudeDegrees>36.830608583986759185791015625</LatitudeDegrees>
              <LongitudeDegrees>-4.36751763336360454559326171875</LongitudeDegrees>
            </Position>
            <AltitudeMeters>689.79998779296875</AltitudeMeters>
            <DistanceMeters>NAN</DistanceMeters>
          </Trackpoint>
          <Trackpoint>
            <Time>2020-12-05T11:04:14.000Z</Time>
            <Position>
              <LatitudeDegrees>36.83059944771230220794677734375</LatitudeDegrees>
              <LongitudeDegrees>-4.36752081848680973052978515625</LongitudeDegrees>
            </Position>
            <AltitudeMeters>689.79998779296875</AltitudeMeters>
            <DistanceMeters>NAN</DistanceMeters>
          </Trackpoint>
          <Trackpoint>
            <Time>2020-12-05T11:04:15.000Z</Time>
            <Position>
              <LatitudeDegrees>36.830591820180416107177734375</LatitudeDegrees>
              <LongitudeDegrees>-4.36752132140100002288818359375</LongitudeDegrees>
            </Position>
            <AltitudeMeters>690</AltitudeMeters>
            <DistanceMeters>NAN</DistanceMeters>
          </Trackpoint>
          <Trackpoint>
            <Time>2020-12-05T11:04:16.000Z</Time>
            <Position>
              <LatitudeDegrees>36.8305800855159759521484375</LatitudeDegrees>
              <LongitudeDegrees>-4.3675162084400653839111328125</LongitudeDegrees>
            </Position>
            <AltitudeMeters>690</AltitudeMeters>
            <DistanceMeters>NAN</DistanceMeters>
          </Trackpoint>
          <Trackpoint>
            <Time>2020-12-05T11:04:17.000Z</Time>
            <Position>
              <LatitudeDegrees>36.83056960813701152801513671875</LatitudeDegrees>
              <LongitudeDegrees>-4.36751344241201877593994140625</LongitudeDegrees>
            </Position>
            <AltitudeMeters>690</AltitudeMeters>
            <DistanceMeters>NAN</DistanceMeters>
          </Trackpoint>
          <Trackpoint>
            <Time>2020-12-05T11:04:18.000Z</Time>
            <Position>
              <LatitudeDegrees>36.8305559456348419189453125</LatitudeDegrees>
              <LongitudeDegrees>-4.3675064854323863983154296875</LongitudeDegrees>
            </Position>
            <AltitudeMeters>690.20001220703125</AltitudeMeters>
            <DistanceMeters>NAN</DistanceMeters>
          </Trackpoint>
          <Trackpoint>
            <Time>2020-12-05T11:04:19.000Z</Time>
            <Position>
              <LatitudeDegrees>36.83054395951330661773681640625</LatitudeDegrees>
              <LongitudeDegrees>-4.36750455759465694427490234375</LongitudeDegrees>
            </Position>
            <AltitudeMeters>690.20001220703125</AltitudeMeters>
            <DistanceMeters>NAN</DistanceMeters>
          </Trackpoint>
          <Trackpoint>
            <Time>2020-12-05T11:04:20.000Z</Time>
            <Position>
              <LatitudeDegrees>36.8305313028395175933837890625</LatitudeDegrees>
              <LongitudeDegrees>-4.36750539578497409820556640625</LongitudeDegrees>
            </Position>
            <AltitudeMeters>690.4000244140625</AltitudeMeters>
            <DistanceMeters>NAN</DistanceMeters>
          </Trackpoint>
          <Trackpoint>
            <Time>2020-12-05T11:04:21.000Z</Time>
            <Position>
              <LatitudeDegrees>36.83051965199410915374755859375</LatitudeDegrees>
              <LongitudeDegrees>-4.3675115145742893218994140625</LongitudeDegrees>
            </Position>
            <AltitudeMeters>690.5999755859375</AltitudeMeters>
            <DistanceMeters>NAN</DistanceMeters>
          </Trackpoint>
          <Trackpoint>
            <Time>2020-12-05T11:04:22.000Z</Time>
            <Position>
              <LatitudeDegrees>36.83050791732966899871826171875</LatitudeDegrees>
              <LongitudeDegrees>-4.367513358592987060546875</LongitudeDegrees>
            </Position>
            <AltitudeMeters>690.79998779296875</AltitudeMeters>
            <DistanceMeters>NAN</DistanceMeters>
          </Trackpoint>
          <Trackpoint>
            <Time>2020-12-05T11:04:23.000Z</Time>
            <Position>
              <LatitudeDegrees>36.83049702085554599761962890625</LatitudeDegrees>
              <LongitudeDegrees>-4.36751645989716053009033203125</LongitudeDegrees>
            </Position>
            <AltitudeMeters>691</AltitudeMeters>
            <DistanceMeters>NAN</DistanceMeters>
          </Trackpoint>
          <Trackpoint>
            <Time>2020-12-05T11:04:24.000Z</Time>
            <Position>
              <LatitudeDegrees>36.83048461563885211944580078125</LatitudeDegrees>
              <LongitudeDegrees>-4.36752140522003173828125</LongitudeDegrees>
            </Position>
            <AltitudeMeters>691</AltitudeMeters>
            <DistanceMeters>NAN</DistanceMeters>
          </Trackpoint>
          <Trackpoint>
            <Time>2020-12-05T11:04:25.000Z</Time>
            <Position>
              <LatitudeDegrees>36.83047405444085597991943359375</LatitudeDegrees>
              <LongitudeDegrees>-4.36752433888614177703857421875</LongitudeDegrees>
            </Position>
            <AltitudeMeters>691</AltitudeMeters>
            <DistanceMeters>NAN</DistanceMeters>
          </Trackpoint>
          <Trackpoint>
            <Time>2020-12-05T11:04:26.000Z</Time>
            <Position>
              <LatitudeDegrees>36.83046332560479640960693359375</LatitudeDegrees>
              <LongitudeDegrees>-4.36752115376293659210205078125</LongitudeDegrees>
            </Position>
            <AltitudeMeters>691</AltitudeMeters>
            <DistanceMeters>NAN</DistanceMeters>
          </Trackpoint>
          <Trackpoint>
            <Time>2020-12-05T11:04:27.000Z</Time>
            <Position>
              <LatitudeDegrees>36.8304531835019588470458984375</LatitudeDegrees>
              <LongitudeDegrees>-4.3675158731639385223388671875</LongitudeDegrees>
            </Position>
            <AltitudeMeters>691.20001220703125</AltitudeMeters>
            <DistanceMeters>NAN</DistanceMeters>
          </Trackpoint>
          <Trackpoint>
            <Time>2020-12-05T11:04:28.000Z</Time>
            <Position>
              <LatitudeDegrees>36.83044320903718471527099609375</LatitudeDegrees>
              <LongitudeDegrees>-4.36751562170684337615966796875</LongitudeDegrees>
            </Position>
            <AltitudeMeters>691.20001220703125</AltitudeMeters>
            <DistanceMeters>NAN</DistanceMeters>
          </Trackpoint>
          <Trackpoint>
            <Time>2020-12-05T11:04:29.000Z</Time>
            <Position>
              <LatitudeDegrees>36.830431558191776275634765625</LatitudeDegrees>
              <LongitudeDegrees>-4.36751947738230228424072265625</LongitudeDegrees>
            </Position>
            <AltitudeMeters>691.20001220703125</AltitudeMeters>
            <DistanceMeters>NAN</DistanceMeters>
          </Trackpoint>
          <Trackpoint>
            <Time>2020-12-05T11:04:30.000Z</Time>
            <Position>
              <LatitudeDegrees>36.8304199911653995513916015625</LatitudeDegrees>
              <LongitudeDegrees>-4.3675219081342220306396484375</LongitudeDegrees>
            </Position>
            <AltitudeMeters>691.20001220703125</AltitudeMeters>
            <DistanceMeters>NAN</DistanceMeters>
          </Trackpoint>
          <Trackpoint>
            <Time>2020-12-05T11:04:31.000Z</Time>
            <Position>
              <LatitudeDegrees>36.8304079212248325347900390625</LatitudeDegrees>
              <LongitudeDegrees>-4.36752132140100002288818359375</LongitudeDegrees>
            </Position>
            <AltitudeMeters>691.20001220703125</AltitudeMeters>
            <DistanceMeters>NAN</DistanceMeters>
          </Trackpoint>
          <Trackpoint>
            <Time>2020-12-05T11:04:32.000Z</Time>
            <Position>
              <LatitudeDegrees>36.83039476163685321807861328125</LatitudeDegrees>
              <LongitudeDegrees>-4.3675195612013339996337890625</LongitudeDegrees>
            </Position>
            <AltitudeMeters>691.20001220703125</AltitudeMeters>
            <DistanceMeters>NAN</DistanceMeters>
          </Trackpoint>
          <Trackpoint>
            <Time>2020-12-05T11:04:33.000Z</Time>
            <Position>
              <LatitudeDegrees>36.83038369752466678619384765625</LatitudeDegrees>
              <LongitudeDegrees>-4.36752366833388805389404296875</LongitudeDegrees>
            </Position>
            <AltitudeMeters>691.20001220703125</AltitudeMeters>
            <DistanceMeters>NAN</DistanceMeters>
          </Trackpoint>
          <Trackpoint>
            <Time>2020-12-05T11:04:34.000Z</Time>
            <Position>
              <LatitudeDegrees>36.8303717114031314849853515625</LatitudeDegrees>
              <LongitudeDegrees>-4.3675254285335540771484375</LongitudeDegrees>
            </Position>
            <AltitudeMeters>691.20001220703125</AltitudeMeters>
            <DistanceMeters>NAN</DistanceMeters>
          </Trackpoint>
          <Trackpoint>
            <Time>2020-12-05T11:04:35.000Z</Time>
            <Position>
              <LatitudeDegrees>36.83036022819578647613525390625</LatitudeDegrees>
              <LongitudeDegrees>-4.36752903275191783905029296875</LongitudeDegrees>
            </Position>
            <AltitudeMeters>691.4000244140625</AltitudeMeters>
            <DistanceMeters>NAN</DistanceMeters>
          </Trackpoint>
          <Trackpoint>
            <Time>2020-12-05T11:04:36.000Z</Time>
            <Position>
              <LatitudeDegrees>36.8303475715219974517822265625</LatitudeDegrees>
              <LongitudeDegrees>-4.367534480988979339599609375</LongitudeDegrees>
            </Position>
            <AltitudeMeters>691.4000244140625</AltitudeMeters>
            <DistanceMeters>NAN</DistanceMeters>
          </Trackpoint>
          <Trackpoint>
            <Time>2020-12-05T11:04:37.000Z</Time>
            <Position>
              <LatitudeDegrees>36.83033466339111328125</LatitudeDegrees>
              <LongitudeDegrees>-4.36753372661769390106201171875</LongitudeDegrees>
            </Position>
            <AltitudeMeters>691.4000244140625</AltitudeMeters>
            <DistanceMeters>NAN</DistanceMeters>
          </Trackpoint>
          <Trackpoint>
            <Time>2020-12-05T11:04:38.000Z</Time>
            <Position>
              <LatitudeDegrees>36.83032535947859287261962890625</LatitudeDegrees>
              <LongitudeDegrees>-4.36753557063639163970947265625</LongitudeDegrees>
            </Position>
            <AltitudeMeters>691.4000244140625</AltitudeMeters>
            <DistanceMeters>NAN</DistanceMeters>
          </Trackpoint>
          <Trackpoint>
            <Time>2020-12-05T11:04:39.000Z</Time>
            <Position>
              <LatitudeDegrees>36.8303153850138187408447265625</LatitudeDegrees>
              <LongitudeDegrees>-4.3675359897315502166748046875</LongitudeDegrees>
            </Position>
            <AltitudeMeters>691.4000244140625</AltitudeMeters>
            <DistanceMeters>NAN</DistanceMeters>
          </Trackpoint>
          <Trackpoint>
            <Time>2020-12-05T11:04:40.000Z</Time>
            <Position>
              <LatitudeDegrees>36.83030189014971256256103515625</LatitudeDegrees>
              <LongitudeDegrees>-4.367533139884471893310546875</LongitudeDegrees>
            </Position>
            <AltitudeMeters>691.4000244140625</AltitudeMeters>
            <DistanceMeters>NAN</DistanceMeters>
          </Trackpoint>
          <Trackpoint>
            <Time>2020-12-05T11:04:41.000Z</Time>
            <Position>
              <LatitudeDegrees>36.83028797619044780731201171875</LatitudeDegrees>
              <LongitudeDegrees>-4.3675286136567592620849609375</LongitudeDegrees>
            </Position>
            <AltitudeMeters>691.5999755859375</AltitudeMeters>
            <DistanceMeters>NAN</DistanceMeters>
          </Trackpoint>
          <Trackpoint>
            <Time>2020-12-05T11:04:42.000Z</Time>
            <Position>
              <LatitudeDegrees>36.8302734754979610443115234375</LatitudeDegrees>
              <LongitudeDegrees>-4.3675259314477443695068359375</LongitudeDegrees>
            </Position>
            <AltitudeMeters>691.5999755859375</AltitudeMeters>
            <DistanceMeters>NAN</DistanceMeters>
          </Trackpoint>
          <Trackpoint>
            <Time>2020-12-05T11:04:43.000Z</Time>
            <Position>
              <LatitudeDegrees>36.83026048354804515838623046875</LatitudeDegrees>
              <LongitudeDegrees>-4.36752903275191783905029296875</LongitudeDegrees>
            </Position>
            <AltitudeMeters>691.79998779296875</AltitudeMeters>
            <DistanceMeters>NAN</DistanceMeters>
          </Trackpoint>
          <Trackpoint>
            <Time>2020-12-05T11:04:44.000Z</Time>
            <Position>
              <LatitudeDegrees>36.83024371974170207977294921875</LatitudeDegrees>
              <LongitudeDegrees>-4.36753012239933013916015625</LongitudeDegrees>
            </Position>
            <AltitudeMeters>692</AltitudeMeters>
            <DistanceMeters>NAN</DistanceMeters>
          </Trackpoint>
          <Trackpoint>
            <Time>2020-12-05T11:04:45.000Z</Time>
            <Position>
              <LatitudeDegrees>36.83023131452500820159912109375</LatitudeDegrees>
              <LongitudeDegrees>-4.36753414571285247802734375</LongitudeDegrees>
            </Position>
            <AltitudeMeters>692</AltitudeMeters>
            <DistanceMeters>NAN</DistanceMeters>
          </Trackpoint>
          <Trackpoint>
            <Time>2020-12-05T11:04:46.000Z</Time>
            <Position>
              <LatitudeDegrees>36.83022041805088520050048828125</LatitudeDegrees>
              <LongitudeDegrees>-4.36753682792186737060546875</LongitudeDegrees>
            </Position>
            <AltitudeMeters>692.20001220703125</AltitudeMeters>
            <DistanceMeters>NAN</DistanceMeters>
          </Trackpoint>
          <Trackpoint>
            <Time>2020-12-05T11:04:47.000Z</Time>
            <Position>
              <LatitudeDegrees>36.830209605395793914794921875</LatitudeDegrees>
              <LongitudeDegrees>-4.367540515959262847900390625</LongitudeDegrees>
            </Position>
            <AltitudeMeters>692.20001220703125</AltitudeMeters>
            <DistanceMeters>NAN</DistanceMeters>
          </Trackpoint>
          <Trackpoint>
            <Time>2020-12-05T11:04:48.000Z</Time>
            <Position>
              <LatitudeDegrees>36.83020281605422496795654296875</LatitudeDegrees>
              <LongitudeDegrees>-4.36754160560667514801025390625</LongitudeDegrees>
            </Position>
            <AltitudeMeters>692.20001220703125</AltitudeMeters>
            <DistanceMeters>NAN</DistanceMeters>
          </Trackpoint>
          <Trackpoint>
            <Time>2020-12-05T11:04:49.000Z</Time>
            <Position>
              <LatitudeDegrees>36.83019611053168773651123046875</LatitudeDegrees>
              <LongitudeDegrees>-4.36754361726343631744384765625</LongitudeDegrees>
            </Position>
            <AltitudeMeters>692.4000244140625</AltitudeMeters>
            <DistanceMeters>NAN</DistanceMeters>
          </Trackpoint>
          <Trackpoint>
            <Time>2020-12-05T11:04:50.000Z</Time>
            <Position>
              <LatitudeDegrees>36.83018915355205535888671875</LatitudeDegrees>
              <LongitudeDegrees>-4.36754294671118259429931640625</LongitudeDegrees>
            </Position>
            <AltitudeMeters>692.4000244140625</AltitudeMeters>
            <DistanceMeters>NAN</DistanceMeters>
          </Trackpoint>
          <Trackpoint>
            <Time>2020-12-05T11:04:51.000Z</Time>
            <Position>
              <LatitudeDegrees>36.8301792629063129425048828125</LatitudeDegrees>
              <LongitudeDegrees>-4.36754127033054828643798828125</LongitudeDegrees>
            </Position>
            <AltitudeMeters>692.4000244140625</AltitudeMeters>
            <DistanceMeters>NAN</DistanceMeters>
          </Trackpoint>
          <Trackpoint>
            <Time>2020-12-05T11:04:52.000Z</Time>
            <Position>
              <LatitudeDegrees>36.8301697075366973876953125</LatitudeDegrees>
              <LongitudeDegrees>-4.367540515959262847900390625</LongitudeDegrees>
            </Position>
            <AltitudeMeters>692.5999755859375</AltitudeMeters>
            <DistanceMeters>NAN</DistanceMeters>
          </Trackpoint>
          <Trackpoint>
            <Time>2020-12-05T11:04:53.000Z</Time>
            <Position>
              <LatitudeDegrees>36.83015964925289154052734375</LatitudeDegrees>
              <LongitudeDegrees>-4.3675383366644382476806640625</LongitudeDegrees>
            </Position>
            <AltitudeMeters>692.79998779296875</AltitudeMeters>
            <DistanceMeters>NAN</DistanceMeters>
          </Trackpoint>
          <Trackpoint>
            <Time>2020-12-05T11:04:54.000Z</Time>
            <Position>
              <LatitudeDegrees>36.83014917187392711639404296875</LatitudeDegrees>
              <LongitudeDegrees>-4.36753909103572368621826171875</LongitudeDegrees>
            </Position>
            <AltitudeMeters>693</AltitudeMeters>
            <DistanceMeters>NAN</DistanceMeters>
          </Trackpoint>
          <Trackpoint>
            <Time>2020-12-05T11:04:55.000Z</Time>
            <Position>
              <LatitudeDegrees>36.83013978414237499237060546875</LatitudeDegrees>
              <LongitudeDegrees>-4.36753490008413791656494140625</LongitudeDegrees>
            </Position>
            <AltitudeMeters>693.20001220703125</AltitudeMeters>
            <DistanceMeters>NAN</DistanceMeters>
          </Trackpoint>
          <Trackpoint>
            <Time>2020-12-05T11:04:56.000Z</Time>
            <Position>
              <LatitudeDegrees>36.8301286362111568450927734375</LatitudeDegrees>
              <LongitudeDegrees>-4.3675323016941547393798828125</LongitudeDegrees>
            </Position>
            <AltitudeMeters>693.20001220703125</AltitudeMeters>
            <DistanceMeters>NAN</DistanceMeters>
          </Trackpoint>
          <Trackpoint>
            <Time>2020-12-05T11:04:57.000Z</Time>
            <Position>
              <LatitudeDegrees>36.830117739737033843994140625</LatitudeDegrees>
              <LongitudeDegrees>-4.36753087677061557769775390625</LongitudeDegrees>
            </Position>
            <AltitudeMeters>693.20001220703125</AltitudeMeters>
            <DistanceMeters>NAN</DistanceMeters>
          </Trackpoint>
          <Trackpoint>
            <Time>2020-12-05T11:04:58.000Z</Time>
            <Position>
              <LatitudeDegrees>36.8300974555313587188720703125</LatitudeDegrees>
              <LongitudeDegrees>-4.3675269372761249542236328125</LongitudeDegrees>
            </Position>
            <AltitudeMeters>693.4000244140625</AltitudeMeters>
            <DistanceMeters>NAN</DistanceMeters>
          </Trackpoint>
          <Trackpoint>
            <Time>2020-12-05T11:04:59.000Z</Time>
            <Position>
              <LatitudeDegrees>36.8300790153443813323974609375</LatitudeDegrees>
              <LongitudeDegrees>-4.36752299778163433074951171875</LongitudeDegrees>
            </Position>
            <AltitudeMeters>693.4000244140625</AltitudeMeters>
            <DistanceMeters>NAN</DistanceMeters>
          </Trackpoint>
          <Trackpoint>
            <Time>2020-12-05T11:05:00.000Z</Time>
            <Position>
              <LatitudeDegrees>36.8300669454038143157958984375</LatitudeDegrees>
              <LongitudeDegrees>-4.36752182431519031524658203125</LongitudeDegrees>
            </Position>
            <AltitudeMeters>693.4000244140625</AltitudeMeters>
            <DistanceMeters>NAN</DistanceMeters>
          </Trackpoint>
          <Trackpoint>
            <Time>2020-12-05T11:05:01.000Z</Time>
            <Position>
              <LatitudeDegrees>36.8300548754632472991943359375</LatitudeDegrees>
              <LongitudeDegrees>-4.367515034973621368408203125</LongitudeDegrees>
            </Position>
            <AltitudeMeters>693.20001220703125</AltitudeMeters>
            <DistanceMeters>NAN</DistanceMeters>
          </Trackpoint>
          <Trackpoint>
            <Time>2020-12-05T11:05:02.000Z</Time>
            <Position>
              <LatitudeDegrees>36.83004540391266345977783203125</LatitudeDegrees>
              <LongitudeDegrees>-4.36750723980367183685302734375</LongitudeDegrees>
            </Position>
            <AltitudeMeters>693.20001220703125</AltitudeMeters>
            <DistanceMeters>NAN</DistanceMeters>
          </Trackpoint>
          <Trackpoint>
            <Time>2020-12-05T11:05:03.000Z</Time>
            <Position>
              <LatitudeDegrees>36.8300397880375385284423828125</LatitudeDegrees>
              <LongitudeDegrees>-4.36750237829983234405517578125</LongitudeDegrees>
            </Position>
            <AltitudeMeters>693.20001220703125</AltitudeMeters>
            <DistanceMeters>NAN</DistanceMeters>
          </Trackpoint>
          <Trackpoint>
            <Time>2020-12-05T11:05:04.000Z</Time>
            <Position>
              <LatitudeDegrees>36.8300304003059864044189453125</LatitudeDegrees>
              <LongitudeDegrees>-4.36750019900500774383544921875</LongitudeDegrees>
            </Position>
            <AltitudeMeters>693</AltitudeMeters>
            <DistanceMeters>NAN</DistanceMeters>
          </Trackpoint>
          <Trackpoint>
            <Time>2020-12-05T11:05:05.000Z</Time>
            <Position>
              <LatitudeDegrees>36.8300220184028148651123046875</LatitudeDegrees>
              <LongitudeDegrees>-4.36749952845275402069091796875</LongitudeDegrees>
            </Position>
            <AltitudeMeters>692.79998779296875</AltitudeMeters>
            <DistanceMeters>NAN</DistanceMeters>
          </Trackpoint>
          <Trackpoint>
            <Time>2020-12-05T11:05:06.000Z</Time>
            <Position>
              <LatitudeDegrees>36.830017156898975372314453125</LatitudeDegrees>
              <LongitudeDegrees>-4.36749600805342197418212890625</LongitudeDegrees>
            </Position>
            <AltitudeMeters>692.79998779296875</AltitudeMeters>
            <DistanceMeters>NAN</DistanceMeters>
          </Trackpoint>
          <Trackpoint>
            <Time>2020-12-05T11:05:07.000Z</Time>
            <Position>
              <LatitudeDegrees>36.830002404749393463134765625</LatitudeDegrees>
              <LongitudeDegrees>-4.36748318374156951904296875</LongitudeDegrees>
            </Position>
            <AltitudeMeters>692.79998779296875</AltitudeMeters>
            <DistanceMeters>NAN</DistanceMeters>
          </Trackpoint>
          <Trackpoint>
            <Time>2020-12-05T11:05:08.000Z</Time>
            <Position>
              <LatitudeDegrees>36.8299925141036510467529296875</LatitudeDegrees>
              <LongitudeDegrees>-4.36747857369482517242431640625</LongitudeDegrees>
            </Position>
            <AltitudeMeters>693</AltitudeMeters>
            <DistanceMeters>NAN</DistanceMeters>
          </Trackpoint>
          <Trackpoint>
            <Time>2020-12-05T11:05:09.000Z</Time>
            <Position>
              <LatitudeDegrees>36.8299811147153377532958984375</LatitudeDegrees>
              <LongitudeDegrees>-4.36747136525809764862060546875</LongitudeDegrees>
            </Position>
            <AltitudeMeters>692.79998779296875</AltitudeMeters>
            <DistanceMeters>NAN</DistanceMeters>
          </Trackpoint>
          <Trackpoint>
            <Time>2020-12-05T11:05:10.000Z</Time>
            <Position>
              <LatitudeDegrees>36.8299703858792781829833984375</LatitudeDegrees>
              <LongitudeDegrees>-4.36746482737362384796142578125</LongitudeDegrees>
            </Position>
            <AltitudeMeters>692.79998779296875</AltitudeMeters>
            <DistanceMeters>NAN</DistanceMeters>
          </Trackpoint>
          <Trackpoint>
            <Time>2020-12-05T11:05:11.000Z</Time>
            <Position>
              <LatitudeDegrees>36.8299606628715991973876953125</LatitudeDegrees>
              <LongitudeDegrees>-4.3674585409462451934814453125</LongitudeDegrees>
            </Position>
            <AltitudeMeters>693</AltitudeMeters>
            <DistanceMeters>NAN</DistanceMeters>
          </Trackpoint>
          <Trackpoint>
            <Time>2020-12-05T11:05:12.000Z</Time>
            <Position>
              <LatitudeDegrees>36.82995311915874481201171875</LatitudeDegrees>
              <LongitudeDegrees>-4.36745661310851573944091796875</LongitudeDegrees>
            </Position>
            <AltitudeMeters>693</AltitudeMeters>
            <DistanceMeters>NAN</DistanceMeters>
          </Trackpoint>
          <Trackpoint>
            <Time>2020-12-05T11:05:13.000Z</Time>
            <Position>
              <LatitudeDegrees>36.829945743083953857421875</LatitudeDegrees>
              <LongitudeDegrees>-4.3674518354237079620361328125</LongitudeDegrees>
            </Position>
            <AltitudeMeters>693</AltitudeMeters>
            <DistanceMeters>NAN</DistanceMeters>
          </Trackpoint>
          <Trackpoint>
            <Time>2020-12-05T11:05:14.000Z</Time>
            <Position>
              <LatitudeDegrees>36.8299395404756069183349609375</LatitudeDegrees>
              <LongitudeDegrees>-4.36745007522404193878173828125</LongitudeDegrees>
            </Position>
            <AltitudeMeters>693</AltitudeMeters>
            <DistanceMeters>NAN</DistanceMeters>
          </Trackpoint>
          <Trackpoint>
            <Time>2020-12-05T11:05:15.000Z</Time>
            <Position>
              <LatitudeDegrees>36.82993174530565738677978515625</LatitudeDegrees>
              <LongitudeDegrees>-4.3674501590430736541748046875</LongitudeDegrees>
            </Position>
            <AltitudeMeters>693</AltitudeMeters>
            <DistanceMeters>NAN</DistanceMeters>
          </Trackpoint>
          <Trackpoint>
            <Time>2020-12-05T11:05:16.000Z</Time>
            <Position>
              <LatitudeDegrees>36.82991934008896350860595703125</LatitudeDegrees>
              <LongitudeDegrees>-4.367445968091487884521484375</LongitudeDegrees>
            </Position>
            <AltitudeMeters>693.20001220703125</AltitudeMeters>
            <DistanceMeters>NAN</DistanceMeters>
          </Trackpoint>
          <Trackpoint>
            <Time>2020-12-05T11:05:17.000Z</Time>
            <Position>
              <LatitudeDegrees>36.82990777306258678436279296875</LatitudeDegrees>
              <LongitudeDegrees>-4.3674431182444095611572265625</LongitudeDegrees>
            </Position>
            <AltitudeMeters>693.20001220703125</AltitudeMeters>
            <DistanceMeters>NAN</DistanceMeters>
          </Trackpoint>
          <Trackpoint>
            <Time>2020-12-05T11:05:18.000Z</Time>
            <Position>
              <LatitudeDegrees>36.8298962898552417755126953125</LatitudeDegrees>
              <LongitudeDegrees>-4.36743934638798236846923828125</LongitudeDegrees>
            </Position>
            <AltitudeMeters>693.20001220703125</AltitudeMeters>
            <DistanceMeters>NAN</DistanceMeters>
          </Trackpoint>
          <Trackpoint>
            <Time>2020-12-05T11:05:19.000Z</Time>
            <Position>
              <LatitudeDegrees>36.82988748885691165924072265625</LatitudeDegrees>
              <LongitudeDegrees>-4.36743817292153835296630859375</LongitudeDegrees>
            </Position>
            <AltitudeMeters>693.4000244140625</AltitudeMeters>
            <DistanceMeters>NAN</DistanceMeters>
          </Trackpoint>
          <Trackpoint>
            <Time>2020-12-05T11:05:20.000Z</Time>
            <Position>
              <LatitudeDegrees>36.82988044805824756622314453125</LatitudeDegrees>
              <LongitudeDegrees>-4.3674394302070140838623046875</LongitudeDegrees>
            </Position>
            <AltitudeMeters>693.5999755859375</AltitudeMeters>
            <DistanceMeters>NAN</DistanceMeters>
          </Trackpoint>
          <Trackpoint>
            <Time>2020-12-05T11:05:21.000Z</Time>
            <Position>
              <LatitudeDegrees>36.82987307198345661163330078125</LatitudeDegrees>
              <LongitudeDegrees>-4.36743867583572864532470703125</LongitudeDegrees>
            </Position>
            <AltitudeMeters>693.79998779296875</AltitudeMeters>
            <DistanceMeters>NAN</DistanceMeters>
          </Trackpoint>
          <Trackpoint>
            <Time>2020-12-05T11:05:22.000Z</Time>
            <Position>
              <LatitudeDegrees>36.82986862957477569580078125</LatitudeDegrees>
              <LongitudeDegrees>-4.3674370832741260528564453125</LongitudeDegrees>
            </Position>
            <AltitudeMeters>694</AltitudeMeters>
            <DistanceMeters>NAN</DistanceMeters>
          </Trackpoint>
          <Trackpoint>
            <Time>2020-12-05T11:05:23.000Z</Time>
            <Position>
              <LatitudeDegrees>36.8298644386231899261474609375</LatitudeDegrees>
              <LongitudeDegrees>-4.36743649654090404510498046875</LongitudeDegrees>
            </Position>
            <AltitudeMeters>694</AltitudeMeters>
            <DistanceMeters>NAN</DistanceMeters>
          </Trackpoint>
          <Trackpoint>
            <Time>2020-12-05T11:05:24.000Z</Time>
            <Position>
              <LatitudeDegrees>36.8298585712909698486328125</LatitudeDegrees>
              <LongitudeDegrees>-4.367437250912189483642578125</LongitudeDegrees>
            </Position>
            <AltitudeMeters>694</AltitudeMeters>
            <DistanceMeters>NAN</DistanceMeters>
          </Trackpoint>
          <Trackpoint>
            <Time>2020-12-05T11:05:25.000Z</Time>
            <Position>
              <LatitudeDegrees>36.82985077612102031707763671875</LatitudeDegrees>
              <LongitudeDegrees>-4.367432557046413421630859375</LongitudeDegrees>
            </Position>
            <AltitudeMeters>694</AltitudeMeters>
            <DistanceMeters>NAN</DistanceMeters>
          </Trackpoint>
          <Trackpoint>
            <Time>2020-12-05T11:05:26.000Z</Time>
            <Position>
              <LatitudeDegrees>36.82984155602753162384033203125</LatitudeDegrees>
              <LongitudeDegrees>-4.367433227598667144775390625</LongitudeDegrees>
            </Position>
            <AltitudeMeters>694</AltitudeMeters>
            <DistanceMeters>NAN</DistanceMeters>
          </Trackpoint>
          <Trackpoint>
            <Time>2020-12-05T11:05:27.000Z</Time>
            <Position>
              <LatitudeDegrees>36.829836778342723846435546875</LatitudeDegrees>
              <LongitudeDegrees>-4.36743599362671375274658203125</LongitudeDegrees>
            </Position>
            <AltitudeMeters>694.20001220703125</AltitudeMeters>
            <DistanceMeters>NAN</DistanceMeters>
          </Trackpoint>
          <Trackpoint>
            <Time>2020-12-05T11:05:28.000Z</Time>
            <Position>
              <LatitudeDegrees>36.82982982136309146881103515625</LatitudeDegrees>
              <LongitudeDegrees>-4.3674360774457454681396484375</LongitudeDegrees>
            </Position>
            <AltitudeMeters>694.4000244140625</AltitudeMeters>
            <DistanceMeters>NAN</DistanceMeters>
          </Trackpoint>
          <Trackpoint>
            <Time>2020-12-05T11:05:29.000Z</Time>
            <Position>
              <LatitudeDegrees>36.8298235349357128143310546875</LatitudeDegrees>
              <LongitudeDegrees>-4.3674357421696186065673828125</LongitudeDegrees>
            </Position>
            <AltitudeMeters>694.4000244140625</AltitudeMeters>
            <DistanceMeters>NAN</DistanceMeters>
          </Trackpoint>
          <Trackpoint>
            <Time>2020-12-05T11:05:30.000Z</Time>
            <Position>
              <LatitudeDegrees>36.82981691323220729827880859375</LatitudeDegrees>
              <LongitudeDegrees>-4.36742953956127166748046875</LongitudeDegrees>
            </Position>
            <AltitudeMeters>694.5999755859375</AltitudeMeters>
            <DistanceMeters>NAN</DistanceMeters>
          </Trackpoint>
          <Trackpoint>
            <Time>2020-12-05T11:05:31.000Z</Time>
            <Position>
              <LatitudeDegrees>36.8298071064054965972900390625</LatitudeDegrees>
              <LongitudeDegrees>-4.36741922982037067413330078125</LongitudeDegrees>
            </Position>
            <AltitudeMeters>694.79998779296875</AltitudeMeters>
            <DistanceMeters>NAN</DistanceMeters>
          </Trackpoint>
          <Trackpoint>
            <Time>2020-12-05T11:05:32.000Z</Time>
            <Position>
              <LatitudeDegrees>36.82980132289230823516845703125</LatitudeDegrees>
              <LongitudeDegrees>-4.36741420067846775054931640625</LongitudeDegrees>
            </Position>
            <AltitudeMeters>694.79998779296875</AltitudeMeters>
            <DistanceMeters>NAN</DistanceMeters>
          </Trackpoint>
          <Trackpoint>
            <Time>2020-12-05T11:05:33.000Z</Time>
            <Position>
              <LatitudeDegrees>36.82979662902653217315673828125</LatitudeDegrees>
              <LongitudeDegrees>-4.3674085848033428192138671875</LongitudeDegrees>
            </Position>
            <AltitudeMeters>694.79998779296875</AltitudeMeters>
            <DistanceMeters>NAN</DistanceMeters>
          </Trackpoint>
          <Trackpoint>
            <Time>2020-12-05T11:05:34.000Z</Time>
            <Position>
              <LatitudeDegrees>36.82979042641818523406982421875</LatitudeDegrees>
              <LongitudeDegrees>-4.3674022145569324493408203125</LongitudeDegrees>
            </Position>
            <AltitudeMeters>694.79998779296875</AltitudeMeters>
            <DistanceMeters>NAN</DistanceMeters>
          </Trackpoint>
          <Trackpoint>
            <Time>2020-12-05T11:05:35.000Z</Time>
            <Position>
              <LatitudeDegrees>36.82978288270533084869384765625</LatitudeDegrees>
              <LongitudeDegrees>-4.3673988617956638336181640625</LongitudeDegrees>
            </Position>
            <AltitudeMeters>694.79998779296875</AltitudeMeters>
            <DistanceMeters>NAN</DistanceMeters>
          </Trackpoint>
          <Trackpoint>
            <Time>2020-12-05T11:05:36.000Z</Time>
            <Position>
              <LatitudeDegrees>36.8297755904495716094970703125</LatitudeDegrees>
              <LongitudeDegrees>-4.36739307828247547149658203125</LongitudeDegrees>
            </Position>
            <AltitudeMeters>694.79998779296875</AltitudeMeters>
            <DistanceMeters>NAN</DistanceMeters>
          </Trackpoint>
          <Trackpoint>
            <Time>2020-12-05T11:05:37.000Z</Time>
            <Position>
              <LatitudeDegrees>36.829770393669605255126953125</LatitudeDegrees>
              <LongitudeDegrees>-4.36738519929349422454833984375</LongitudeDegrees>
            </Position>
            <AltitudeMeters>695</AltitudeMeters>
            <DistanceMeters>NAN</DistanceMeters>
          </Trackpoint>
          <Trackpoint>
            <Time>2020-12-05T11:05:38.000Z</Time>
            <Position>
              <LatitudeDegrees>36.8297685496509075164794921875</LatitudeDegrees>
              <LongitudeDegrees>-4.36737547628581523895263671875</LongitudeDegrees>
            </Position>
            <AltitudeMeters>695.20001220703125</AltitudeMeters>
            <DistanceMeters>NAN</DistanceMeters>
          </Trackpoint>
          <Trackpoint>
            <Time>2020-12-05T11:05:39.000Z</Time>
            <Position>
              <LatitudeDegrees>36.82976477779448032379150390625</LatitudeDegrees>
              <LongitudeDegrees>-4.3673670105636119842529296875</LongitudeDegrees>
            </Position>
            <AltitudeMeters>695.20001220703125</AltitudeMeters>
            <DistanceMeters>NAN</DistanceMeters>
          </Trackpoint>
          <Trackpoint>
            <Time>2020-12-05T11:05:40.000Z</Time>
            <Position>
              <LatitudeDegrees>36.82975907810032367706298828125</LatitudeDegrees>
              <LongitudeDegrees>-4.36735711991786956787109375</LongitudeDegrees>
            </Position>
            <AltitudeMeters>695.20001220703125</AltitudeMeters>
            <DistanceMeters>NAN</DistanceMeters>
          </Trackpoint>
          <Trackpoint>
            <Time>2020-12-05T11:05:41.000Z</Time>
            <Position>
              <LatitudeDegrees>36.82975287549197673797607421875</LatitudeDegrees>
              <LongitudeDegrees>-4.3673485703766345977783203125</LongitudeDegrees>
            </Position>
            <AltitudeMeters>695.4000244140625</AltitudeMeters>
            <DistanceMeters>NAN</DistanceMeters>
          </Trackpoint>
          <Trackpoint>
            <Time>2020-12-05T11:05:42.000Z</Time>
            <Position>
              <LatitudeDegrees>36.82974851690232753753662109375</LatitudeDegrees>
              <LongitudeDegrees>-4.36734479852020740509033203125</LongitudeDegrees>
            </Position>
            <AltitudeMeters>695.4000244140625</AltitudeMeters>
            <DistanceMeters>NAN</DistanceMeters>
          </Trackpoint>
          <Trackpoint>
            <Time>2020-12-05T11:05:43.000Z</Time>
            <Position>
              <LatitudeDegrees>36.82974348776042461395263671875</LatitudeDegrees>
              <LongitudeDegrees>-4.367336668074131011962890625</LongitudeDegrees>
            </Position>
            <AltitudeMeters>695.20001220703125</AltitudeMeters>
            <DistanceMeters>NAN</DistanceMeters>
          </Trackpoint>
          <Trackpoint>
            <Time>2020-12-05T11:05:44.000Z</Time>
            <Position>
              <LatitudeDegrees>36.82973946444690227508544921875</LatitudeDegrees>
              <LongitudeDegrees>-4.36733390204608440399169921875</LongitudeDegrees>
            </Position>
            <AltitudeMeters>695.20001220703125</AltitudeMeters>
            <DistanceMeters>NAN</DistanceMeters>
          </Trackpoint>
          <Trackpoint>
            <Time>2020-12-05T11:05:45.000Z</Time>
            <Position>
              <LatitudeDegrees>36.82973342947661876678466796875</LatitudeDegrees>
              <LongitudeDegrees>-4.3673296272754669189453125</LongitudeDegrees>
            </Position>
            <AltitudeMeters>695</AltitudeMeters>
            <DistanceMeters>NAN</DistanceMeters>
          </Trackpoint>
          <Trackpoint>
            <Time>2020-12-05T11:05:46.000Z</Time>
            <Position>
              <LatitudeDegrees>36.82972555048763751983642578125</LatitudeDegrees>
              <LongitudeDegrees>-4.3673277832567691802978515625</LongitudeDegrees>
            </Position>
            <AltitudeMeters>695</AltitudeMeters>
            <DistanceMeters>NAN</DistanceMeters>
          </Trackpoint>
          <Trackpoint>
            <Time>2020-12-05T11:05:47.000Z</Time>
            <Position>
              <LatitudeDegrees>36.8297192640602588653564453125</LatitudeDegrees>
              <LongitudeDegrees>-4.36732384376227855682373046875</LongitudeDegrees>
            </Position>
            <AltitudeMeters>695</AltitudeMeters>
            <DistanceMeters>NAN</DistanceMeters>
          </Trackpoint>
          <Trackpoint>
            <Time>2020-12-05T11:05:48.000Z</Time>
            <Position>
              <LatitudeDegrees>36.829712726175785064697265625</LatitudeDegrees>
              <LongitudeDegrees>-4.36732065863907337188720703125</LongitudeDegrees>
            </Position>
            <AltitudeMeters>695</AltitudeMeters>
            <DistanceMeters>NAN</DistanceMeters>
          </Trackpoint>
          <Trackpoint>
            <Time>2020-12-05T11:05:49.000Z</Time>
            <Position>
              <LatitudeDegrees>36.82970442809164524078369140625</LatitudeDegrees>
              <LongitudeDegrees>-4.36731864698231220245361328125</LongitudeDegrees>
            </Position>
            <AltitudeMeters>695.20001220703125</AltitudeMeters>
            <DistanceMeters>NAN</DistanceMeters>
          </Trackpoint>
          <Trackpoint>
            <Time>2020-12-05T11:05:50.000Z</Time>
            <Position>
              <LatitudeDegrees>36.8296964652836322784423828125</LatitudeDegrees>
              <LongitudeDegrees>-4.367315210402011871337890625</LongitudeDegrees>
            </Position>
            <AltitudeMeters>695.4000244140625</AltitudeMeters>
            <DistanceMeters>NAN</DistanceMeters>
          </Trackpoint>
          <Trackpoint>
            <Time>2020-12-05T11:05:51.000Z</Time>
            <Position>
              <LatitudeDegrees>36.8296897597610950469970703125</LatitudeDegrees>
              <LongitudeDegrees>-4.36730590648949146270751953125</LongitudeDegrees>
            </Position>
            <AltitudeMeters>695.5999755859375</AltitudeMeters>
            <DistanceMeters>NAN</DistanceMeters>
          </Trackpoint>
          <Trackpoint>
            <Time>2020-12-05T11:05:52.000Z</Time>
            <Position>
              <LatitudeDegrees>36.829683892428874969482421875</LatitudeDegrees>
              <LongitudeDegrees>-4.36729148961603641510009765625</LongitudeDegrees>
            </Position>
            <AltitudeMeters>695.79998779296875</AltitudeMeters>
            <DistanceMeters>NAN</DistanceMeters>
          </Trackpoint>
          <Trackpoint>
            <Time>2020-12-05T11:05:53.000Z</Time>
            <Position>
              <LatitudeDegrees>36.82967861182987689971923828125</LatitudeDegrees>
              <LongitudeDegrees>-4.36727506108582019805908203125</LongitudeDegrees>
            </Position>
            <AltitudeMeters>696</AltitudeMeters>
            <DistanceMeters>NAN</DistanceMeters>
          </Trackpoint>
          <Trackpoint>
            <Time>2020-12-05T11:05:54.000Z</Time>
            <Position>
              <LatitudeDegrees>36.82967140339314937591552734375</LatitudeDegrees>
              <LongitudeDegrees>-4.367255866527557373046875</LongitudeDegrees>
            </Position>
            <AltitudeMeters>696</AltitudeMeters>
            <DistanceMeters>NAN</DistanceMeters>
          </Trackpoint>
          <Trackpoint>
            <Time>2020-12-05T11:05:55.000Z</Time>
            <Position>
              <LatitudeDegrees>36.82966587133705615997314453125</LatitudeDegrees>
              <LongitudeDegrees>-4.367238096892833709716796875</LongitudeDegrees>
            </Position>
            <AltitudeMeters>696.20001220703125</AltitudeMeters>
            <DistanceMeters>NAN</DistanceMeters>
          </Trackpoint>
          <Trackpoint>
            <Time>2020-12-05T11:05:56.000Z</Time>
            <Position>
              <LatitudeDegrees>36.8296585790812969207763671875</LatitudeDegrees>
              <LongitudeDegrees>-4.36722560785710811614990234375</LongitudeDegrees>
            </Position>
            <AltitudeMeters>696.20001220703125</AltitudeMeters>
            <DistanceMeters>NAN</DistanceMeters>
          </Trackpoint>
          <Trackpoint>
            <Time>2020-12-05T11:05:57.000Z</Time>
            <Position>
              <LatitudeDegrees>36.82965229265391826629638671875</LatitudeDegrees>
              <LongitudeDegrees>-4.367213957011699676513671875</LongitudeDegrees>
            </Position>
            <AltitudeMeters>696.20001220703125</AltitudeMeters>
            <DistanceMeters>NAN</DistanceMeters>
          </Trackpoint>
          <Trackpoint>
            <Time>2020-12-05T11:05:58.000Z</Time>
            <Position>
              <LatitudeDegrees>36.82964357547461986541748046875</LatitudeDegrees>
              <LongitudeDegrees>-4.3672044016420841217041015625</LongitudeDegrees>
            </Position>
            <AltitudeMeters>696.4000244140625</AltitudeMeters>
            <DistanceMeters>NAN</DistanceMeters>
          </Trackpoint>
          <Trackpoint>
            <Time>2020-12-05T11:05:59.000Z</Time>
            <Position>
              <LatitudeDegrees>36.8296371214091777801513671875</LatitudeDegrees>
              <LongitudeDegrees>-4.3671980313956737518310546875</LongitudeDegrees>
            </Position>
            <AltitudeMeters>696.4000244140625</AltitudeMeters>
            <DistanceMeters>NAN</DistanceMeters>
          </Trackpoint>
          <Trackpoint>
            <Time>2020-12-05T11:06:00.000Z</Time>
            <Position>
              <LatitudeDegrees>36.829629577696323394775390625</LatitudeDegrees>
              <LongitudeDegrees>-4.367193169891834259033203125</LongitudeDegrees>
            </Position>
            <AltitudeMeters>696.4000244140625</AltitudeMeters>
            <DistanceMeters>NAN</DistanceMeters>
          </Trackpoint>
          <Trackpoint>
            <Time>2020-12-05T11:06:01.000Z</Time>
            <Position>
              <LatitudeDegrees>36.8296216987073421478271484375</LatitudeDegrees>
              <LongitudeDegrees>-4.3671919964253902435302734375</LongitudeDegrees>
            </Position>
            <AltitudeMeters>696.5999755859375</AltitudeMeters>
            <DistanceMeters>NAN</DistanceMeters>
          </Trackpoint>
          <Trackpoint>
            <Time>2020-12-05T11:06:02.000Z</Time>
            <Position>
              <LatitudeDegrees>36.82961256243288516998291015625</LatitudeDegrees>
              <LongitudeDegrees>-4.3671913258731365203857421875</LongitudeDegrees>
            </Position>
            <AltitudeMeters>696.79998779296875</AltitudeMeters>
            <DistanceMeters>NAN</DistanceMeters>
          </Trackpoint>
          <Trackpoint>
            <Time>2020-12-05T11:06:03.000Z</Time>
            <Position>
              <LatitudeDegrees>36.82960719801485538482666015625</LatitudeDegrees>
              <LongitudeDegrees>-4.3671889789402484893798828125</LongitudeDegrees>
            </Position>
            <AltitudeMeters>697</AltitudeMeters>
            <DistanceMeters>NAN</DistanceMeters>
          </Trackpoint>
          <Trackpoint>
            <Time>2020-12-05T11:06:04.000Z</Time>
            <Position>
              <LatitudeDegrees>36.82960032485425472259521484375</LatitudeDegrees>
              <LongitudeDegrees>-4.3671893142163753509521484375</LongitudeDegrees>
            </Position>
            <AltitudeMeters>697</AltitudeMeters>
            <DistanceMeters>NAN</DistanceMeters>
          </Trackpoint>
          <Trackpoint>
            <Time>2020-12-05T11:06:05.000Z</Time>
            <Position>
              <LatitudeDegrees>36.8295955471694469451904296875</LatitudeDegrees>
              <LongitudeDegrees>-4.36719090677797794342041015625</LongitudeDegrees>
            </Position>
            <AltitudeMeters>697</AltitudeMeters>
            <DistanceMeters>NAN</DistanceMeters>
          </Trackpoint>
          <Trackpoint>
            <Time>2020-12-05T11:06:06.000Z</Time>
            <Position>
              <LatitudeDegrees>36.829588674008846282958984375</LatitudeDegrees>
              <LongitudeDegrees>-4.3671906553208827972412109375</LongitudeDegrees>
            </Position>
            <AltitudeMeters>697</AltitudeMeters>
            <DistanceMeters>NAN</DistanceMeters>
          </Trackpoint>
          <Trackpoint>
            <Time>2020-12-05T11:06:07.000Z</Time>
            <Position>
              <LatitudeDegrees>36.82958029210567474365234375</LatitudeDegrees>
              <LongitudeDegrees>-4.36718604527413845062255859375</LongitudeDegrees>
            </Position>
            <AltitudeMeters>697.20001220703125</AltitudeMeters>
            <DistanceMeters>NAN</DistanceMeters>
          </Trackpoint>
          <Trackpoint>
            <Time>2020-12-05T11:06:08.000Z</Time>
            <Position>
              <LatitudeDegrees>36.8295734189450740814208984375</LatitudeDegrees>
              <LongitudeDegrees>-4.367174394428730010986328125</LongitudeDegrees>
            </Position>
            <AltitudeMeters>697.4000244140625</AltitudeMeters>
            <DistanceMeters>NAN</DistanceMeters>
          </Trackpoint>
          <Trackpoint>
            <Time>2020-12-05T11:06:09.000Z</Time>
            <Position>
              <LatitudeDegrees>36.8295670486986637115478515625</LatitudeDegrees>
              <LongitudeDegrees>-4.36715989373624324798583984375</LongitudeDegrees>
            </Position>
            <AltitudeMeters>697.5999755859375</AltitudeMeters>
            <DistanceMeters>NAN</DistanceMeters>
          </Trackpoint>
          <Trackpoint>
            <Time>2020-12-05T11:06:10.000Z</Time>
            <Position>
              <LatitudeDegrees>36.82955891825258731842041015625</LatitudeDegrees>
              <LongitudeDegrees>-4.36714681796729564666748046875</LongitudeDegrees>
            </Position>
            <AltitudeMeters>698</AltitudeMeters>
            <DistanceMeters>NAN</DistanceMeters>
          </Trackpoint>
          <Trackpoint>
            <Time>2020-12-05T11:06:11.000Z</Time>
            <Position>
              <LatitudeDegrees>36.8295482732355594635009765625</LatitudeDegrees>
              <LongitudeDegrees>-4.367134161293506622314453125</LongitudeDegrees>
            </Position>
            <AltitudeMeters>698.20001220703125</AltitudeMeters>
            <DistanceMeters>NAN</DistanceMeters>
          </Trackpoint>
          <Trackpoint>
            <Time>2020-12-05T11:06:12.000Z</Time>
            <Position>
              <LatitudeDegrees>36.82954098097980022430419921875</LatitudeDegrees>
              <LongitudeDegrees>-4.367124103009700775146484375</LongitudeDegrees>
            </Position>
            <AltitudeMeters>698.4000244140625</AltitudeMeters>
            <DistanceMeters>NAN</DistanceMeters>
          </Trackpoint>
          <Trackpoint>
            <Time>2020-12-05T11:06:13.000Z</Time>
            <Position>
              <LatitudeDegrees>36.82953494600951671600341796875</LatitudeDegrees>
              <LongitudeDegrees>-4.36711597256362438201904296875</LongitudeDegrees>
            </Position>
            <AltitudeMeters>698.5999755859375</AltitudeMeters>
            <DistanceMeters>NAN</DistanceMeters>
          </Trackpoint>
          <Trackpoint>
            <Time>2020-12-05T11:06:14.000Z</Time>
            <Position>
              <LatitudeDegrees>36.82952874340116977691650390625</LatitudeDegrees>
              <LongitudeDegrees>-4.3671096861362457275390625</LongitudeDegrees>
            </Position>
            <AltitudeMeters>698.79998779296875</AltitudeMeters>
            <DistanceMeters>NAN</DistanceMeters>
          </Trackpoint>
          <Trackpoint>
            <Time>2020-12-05T11:06:15.000Z</Time>
            <Position>
              <LatitudeDegrees>36.82952019385993480682373046875</LatitudeDegrees>
              <LongitudeDegrees>-4.3671016395092010498046875</LongitudeDegrees>
            </Position>
            <AltitudeMeters>698.79998779296875</AltitudeMeters>
            <DistanceMeters>NAN</DistanceMeters>
          </Trackpoint>
          <Trackpoint>
            <Time>2020-12-05T11:06:16.000Z</Time>
            <Position>
              <LatitudeDegrees>36.82950921356678009033203125</LatitudeDegrees>
              <LongitudeDegrees>-4.36709149740636348724365234375</LongitudeDegrees>
            </Position>
            <AltitudeMeters>699</AltitudeMeters>
            <DistanceMeters>NAN</DistanceMeters>
          </Trackpoint>
          <Trackpoint>
            <Time>2020-12-05T11:06:17.000Z</Time>
            <Position>
              <LatitudeDegrees>36.82949655689299106597900390625</LatitudeDegrees>
              <LongitudeDegrees>-4.367081187665462493896484375</LongitudeDegrees>
            </Position>
            <AltitudeMeters>699.20001220703125</AltitudeMeters>
            <DistanceMeters>NAN</DistanceMeters>
          </Trackpoint>
          <Trackpoint>
            <Time>2020-12-05T11:06:18.000Z</Time>
            <Position>
              <LatitudeDegrees>36.82948431931436061859130859375</LatitudeDegrees>
              <LongitudeDegrees>-4.3670699559152126312255859375</LongitudeDegrees>
            </Position>
            <AltitudeMeters>699.20001220703125</AltitudeMeters>
            <DistanceMeters>NAN</DistanceMeters>
          </Trackpoint>
          <Trackpoint>
            <Time>2020-12-05T11:06:19.000Z</Time>
            <Position>
              <LatitudeDegrees>36.82947794906795024871826171875</LatitudeDegrees>
              <LongitudeDegrees>-4.3670587241649627685546875</LongitudeDegrees>
            </Position>
            <AltitudeMeters>699.4000244140625</AltitudeMeters>
            <DistanceMeters>NAN</DistanceMeters>
          </Trackpoint>
          <Trackpoint>
            <Time>2020-12-05T11:06:20.000Z</Time>
            <Position>
              <LatitudeDegrees>36.82946939952671527862548828125</LatitudeDegrees>
              <LongitudeDegrees>-4.3670464865863323211669921875</LongitudeDegrees>
            </Position>
            <AltitudeMeters>699.5999755859375</AltitudeMeters>
            <DistanceMeters>NAN</DistanceMeters>
          </Trackpoint>
          <Trackpoint>
            <Time>2020-12-05T11:06:21.000Z</Time>
            <Position>
              <LatitudeDegrees>36.8294611014425754547119140625</LatitudeDegrees>
              <LongitudeDegrees>-4.36703416518867015838623046875</LongitudeDegrees>
            </Position>
            <AltitudeMeters>699.5999755859375</AltitudeMeters>
            <DistanceMeters>NAN</DistanceMeters>
          </Trackpoint>
          <Trackpoint>
            <Time>2020-12-05T11:06:22.000Z</Time>
            <Position>
              <LatitudeDegrees>36.8294513784348964691162109375</LatitudeDegrees>
              <LongitudeDegrees>-4.36701941303908824920654296875</LongitudeDegrees>
            </Position>
            <AltitudeMeters>699.5999755859375</AltitudeMeters>
            <DistanceMeters>NAN</DistanceMeters>
          </Trackpoint>
          <Trackpoint>
            <Time>2020-12-05T11:06:23.000Z</Time>
            <Position>
              <LatitudeDegrees>36.82944358326494693756103515625</LatitudeDegrees>
              <LongitudeDegrees>-4.3670049123466014862060546875</LongitudeDegrees>
            </Position>
            <AltitudeMeters>699.4000244140625</AltitudeMeters>
            <DistanceMeters>NAN</DistanceMeters>
          </Trackpoint>
          <Trackpoint>
            <Time>2020-12-05T11:06:24.000Z</Time>
            <Position>
              <LatitudeDegrees>36.829433105885982513427734375</LatitudeDegrees>
              <LongitudeDegrees>-4.366990663111209869384765625</LongitudeDegrees>
            </Position>
            <AltitudeMeters>699.20001220703125</AltitudeMeters>
            <DistanceMeters>NAN</DistanceMeters>
          </Trackpoint>
          <Trackpoint>
            <Time>2020-12-05T11:06:25.000Z</Time>
            <Position>
              <LatitudeDegrees>36.82942631654441356658935546875</LatitudeDegrees>
              <LongitudeDegrees>-4.36697884462773799896240234375</LongitudeDegrees>
            </Position>
            <AltitudeMeters>699.20001220703125</AltitudeMeters>
            <DistanceMeters>NAN</DistanceMeters>
          </Trackpoint>
          <Trackpoint>
            <Time>2020-12-05T11:06:26.000Z</Time>
            <Position>
              <LatitudeDegrees>36.82942011393606662750244140625</LatitudeDegrees>
              <LongitudeDegrees>-4.366965182125568389892578125</LongitudeDegrees>
            </Position>
            <AltitudeMeters>699</AltitudeMeters>
            <DistanceMeters>NAN</DistanceMeters>
          </Trackpoint>
          <Trackpoint>
            <Time>2020-12-05T11:06:27.000Z</Time>
            <Position>
              <LatitudeDegrees>36.82941374368965625762939453125</LatitudeDegrees>
              <LongitudeDegrees>-4.3669516034424304962158203125</LongitudeDegrees>
            </Position>
            <AltitudeMeters>699</AltitudeMeters>
            <DistanceMeters>NAN</DistanceMeters>
          </Trackpoint>
          <Trackpoint>
            <Time>2020-12-05T11:06:28.000Z</Time>
            <Position>
              <LatitudeDegrees>36.82940519414842128753662109375</LatitudeDegrees>
              <LongitudeDegrees>-4.36693861149251461029052734375</LongitudeDegrees>
            </Position>
            <AltitudeMeters>699</AltitudeMeters>
            <DistanceMeters>NAN</DistanceMeters>
          </Trackpoint>
          <Trackpoint>
            <Time>2020-12-05T11:06:29.000Z</Time>
            <Position>
              <LatitudeDegrees>36.82939597405493259429931640625</LatitudeDegrees>
              <LongitudeDegrees>-4.36692654155194759368896484375</LongitudeDegrees>
            </Position>
            <AltitudeMeters>699</AltitudeMeters>
            <DistanceMeters>NAN</DistanceMeters>
          </Trackpoint>
          <Trackpoint>
            <Time>2020-12-05T11:06:30.000Z</Time>
            <Position>
              <LatitudeDegrees>36.82938541285693645477294921875</LatitudeDegrees>
              <LongitudeDegrees>-4.3669163994491100311279296875</LongitudeDegrees>
            </Position>
            <AltitudeMeters>699</AltitudeMeters>
            <DistanceMeters>NAN</DistanceMeters>
          </Trackpoint>
          <Trackpoint>
            <Time>2020-12-05T11:06:31.000Z</Time>
            <Position>
              <LatitudeDegrees>36.8293746002018451690673828125</LatitudeDegrees>
              <LongitudeDegrees>-4.36691011302173137664794921875</LongitudeDegrees>
            </Position>
            <AltitudeMeters>699</AltitudeMeters>
            <DistanceMeters>NAN</DistanceMeters>
          </Trackpoint>
          <Trackpoint>
            <Time>2020-12-05T11:06:32.000Z</Time>
            <Position>
              <LatitudeDegrees>36.82936311699450016021728515625</LatitudeDegrees>
              <LongitudeDegrees>-4.366904161870479583740234375</LongitudeDegrees>
            </Position>
            <AltitudeMeters>699.20001220703125</AltitudeMeters>
            <DistanceMeters>NAN</DistanceMeters>
          </Trackpoint>
          <Trackpoint>
            <Time>2020-12-05T11:06:33.000Z</Time>
            <Position>
              <LatitudeDegrees>36.82935473509132862091064453125</LatitudeDegrees>
              <LongitudeDegrees>-4.366899468004703521728515625</LongitudeDegrees>
            </Position>
            <AltitudeMeters>699.20001220703125</AltitudeMeters>
            <DistanceMeters>NAN</DistanceMeters>
          </Trackpoint>
          <Trackpoint>
            <Time>2020-12-05T11:06:34.000Z</Time>
            <Position>
              <LatitudeDegrees>36.8293457664549350738525390625</LatitudeDegrees>
              <LongitudeDegrees>-4.36689368449151515960693359375</LongitudeDegrees>
            </Position>
            <AltitudeMeters>699.20001220703125</AltitudeMeters>
            <DistanceMeters>NAN</DistanceMeters>
          </Trackpoint>
          <Trackpoint>
            <Time>2020-12-05T11:06:35.000Z</Time>
            <Position>
              <LatitudeDegrees>36.8293343670666217803955078125</LatitudeDegrees>
              <LongitudeDegrees>-4.36689066700637340545654296875</LongitudeDegrees>
            </Position>
            <AltitudeMeters>699.20001220703125</AltitudeMeters>
            <DistanceMeters>NAN</DistanceMeters>
          </Trackpoint>
          <Trackpoint>
            <Time>2020-12-05T11:06:36.000Z</Time>
            <Position>
              <LatitudeDegrees>36.8293219618499279022216796875</LatitudeDegrees>
              <LongitudeDegrees>-4.366884045302867889404296875</LongitudeDegrees>
            </Position>
            <AltitudeMeters>699.4000244140625</AltitudeMeters>
            <DistanceMeters>NAN</DistanceMeters>
          </Trackpoint>
          <Trackpoint>
            <Time>2020-12-05T11:06:37.000Z</Time>
            <Position>
              <LatitudeDegrees>36.82931265793740749359130859375</LatitudeDegrees>
              <LongitudeDegrees>-4.36687440611422061920166015625</LongitudeDegrees>
            </Position>
            <AltitudeMeters>699.5999755859375</AltitudeMeters>
            <DistanceMeters>NAN</DistanceMeters>
          </Trackpoint>
          <Trackpoint>
            <Time>2020-12-05T11:06:38.000Z</Time>
            <Position>
              <LatitudeDegrees>36.82930327020585536956787109375</LatitudeDegrees>
              <LongitudeDegrees>-4.366863258183002471923828125</LongitudeDegrees>
            </Position>
            <AltitudeMeters>699.79998779296875</AltitudeMeters>
            <DistanceMeters>NAN</DistanceMeters>
          </Trackpoint>
          <Trackpoint>
            <Time>2020-12-05T11:06:39.000Z</Time>
            <Position>
              <LatitudeDegrees>36.82929597795009613037109375</LatitudeDegrees>
              <LongitudeDegrees>-4.36685311608016490936279296875</LongitudeDegrees>
            </Position>
            <AltitudeMeters>700</AltitudeMeters>
            <DistanceMeters>NAN</DistanceMeters>
          </Trackpoint>
          <Trackpoint>
            <Time>2020-12-05T11:06:40.000Z</Time>
            <Position>
              <LatitudeDegrees>36.8292891047894954681396484375</LatitudeDegrees>
              <LongitudeDegrees>-4.36684305779635906219482421875</LongitudeDegrees>
            </Position>
            <AltitudeMeters>700</AltitudeMeters>
            <DistanceMeters>NAN</DistanceMeters>
          </Trackpoint>
          <Trackpoint>
            <Time>2020-12-05T11:06:41.000Z</Time>
            <Position>
              <LatitudeDegrees>36.8292800523340702056884765625</LatitudeDegrees>
              <LongitudeDegrees>-4.3668345920741558074951171875</LongitudeDegrees>
            </Position>
            <AltitudeMeters>700</AltitudeMeters>
            <DistanceMeters>NAN</DistanceMeters>
          </Trackpoint>
          <Trackpoint>
            <Time>2020-12-05T11:06:42.000Z</Time>
            <Position>
              <LatitudeDegrees>36.82927192188799381256103515625</LatitudeDegrees>
              <LongitudeDegrees>-4.3668258748948574066162109375</LongitudeDegrees>
            </Position>
            <AltitudeMeters>700</AltitudeMeters>
            <DistanceMeters>NAN</DistanceMeters>
          </Trackpoint>
          <Trackpoint>
            <Time>2020-12-05T11:06:43.000Z</Time>
            <Position>
              <LatitudeDegrees>36.82926337234675884246826171875</LatitudeDegrees>
              <LongitudeDegrees>-4.36681933701038360595703125</LongitudeDegrees>
            </Position>
            <AltitudeMeters>700</AltitudeMeters>
            <DistanceMeters>NAN</DistanceMeters>
          </Trackpoint>
          <Trackpoint>
            <Time>2020-12-05T11:06:44.000Z</Time>
            <Position>
              <LatitudeDegrees>36.8292549066245555877685546875</LatitudeDegrees>
              <LongitudeDegrees>-4.36680902726948261260986328125</LongitudeDegrees>
            </Position>
            <AltitudeMeters>699.79998779296875</AltitudeMeters>
            <DistanceMeters>NAN</DistanceMeters>
          </Trackpoint>
          <Trackpoint>
            <Time>2020-12-05T11:06:45.000Z</Time>
            <Position>
              <LatitudeDegrees>36.82924476452171802520751953125</LatitudeDegrees>
              <LongitudeDegrees>-4.366798885166645050048828125</LongitudeDegrees>
            </Position>
            <AltitudeMeters>699.79998779296875</AltitudeMeters>
            <DistanceMeters>NAN</DistanceMeters>
          </Trackpoint>
          <Trackpoint>
            <Time>2020-12-05T11:06:46.000Z</Time>
            <Position>
              <LatitudeDegrees>36.82923370040953159332275390625</LatitudeDegrees>
              <LongitudeDegrees>-4.36678857542574405670166015625</LongitudeDegrees>
            </Position>
            <AltitudeMeters>699.79998779296875</AltitudeMeters>
            <DistanceMeters>NAN</DistanceMeters>
          </Trackpoint>
          <Trackpoint>
            <Time>2020-12-05T11:06:47.000Z</Time>
            <Position>
              <LatitudeDegrees>36.82922280393540859222412109375</LatitudeDegrees>
              <LongitudeDegrees>-4.366776756942272186279296875</LongitudeDegrees>
            </Position>
            <AltitudeMeters>699.79998779296875</AltitudeMeters>
            <DistanceMeters>NAN</DistanceMeters>
          </Trackpoint>
          <Trackpoint>
            <Time>2020-12-05T11:06:48.000Z</Time>
            <Position>
              <LatitudeDegrees>36.8292123265564441680908203125</LatitudeDegrees>
              <LongitudeDegrees>-4.3667663633823394775390625</LongitudeDegrees>
            </Position>
            <AltitudeMeters>699.79998779296875</AltitudeMeters>
            <DistanceMeters>NAN</DistanceMeters>
          </Trackpoint>
          <Trackpoint>
            <Time>2020-12-05T11:06:49.000Z</Time>
            <Position>
              <LatitudeDegrees>36.829199753701686859130859375</LatitudeDegrees>
              <LongitudeDegrees>-4.36675571836531162261962890625</LongitudeDegrees>
            </Position>
            <AltitudeMeters>699.79998779296875</AltitudeMeters>
            <DistanceMeters>NAN</DistanceMeters>
          </Trackpoint>
          <Trackpoint>
            <Time>2020-12-05T11:06:50.000Z</Time>
            <Position>
              <LatitudeDegrees>36.82918944396078586578369140625</LatitudeDegrees>
              <LongitudeDegrees>-4.36674633063375949859619140625</LongitudeDegrees>
            </Position>
            <AltitudeMeters>699.79998779296875</AltitudeMeters>
            <DistanceMeters>NAN</DistanceMeters>
          </Trackpoint>
          <Trackpoint>
            <Time>2020-12-05T11:06:51.000Z</Time>
            <Position>
              <LatitudeDegrees>36.82917871512472629547119140625</LatitudeDegrees>
              <LongitudeDegrees>-4.36673342250287532806396484375</LongitudeDegrees>
            </Position>
            <AltitudeMeters>699.79998779296875</AltitudeMeters>
            <DistanceMeters>NAN</DistanceMeters>
          </Trackpoint>
          <Trackpoint>
            <Time>2020-12-05T11:06:52.000Z</Time>
            <Position>
              <LatitudeDegrees>36.82916832156479358673095703125</LatitudeDegrees>
              <LongitudeDegrees>-4.366720430552959442138671875</LongitudeDegrees>
            </Position>
            <AltitudeMeters>700</AltitudeMeters>
            <DistanceMeters>NAN</DistanceMeters>
          </Trackpoint>
          <Trackpoint>
            <Time>2020-12-05T11:06:53.000Z</Time>
            <Position>
              <LatitudeDegrees>36.8291606940329074859619140625</LatitudeDegrees>
              <LongitudeDegrees>-4.36671297065913677215576171875</LongitudeDegrees>
            </Position>
            <AltitudeMeters>700</AltitudeMeters>
            <DistanceMeters>NAN</DistanceMeters>
          </Trackpoint>
          <Trackpoint>
            <Time>2020-12-05T11:06:54.000Z</Time>
            <Position>
              <LatitudeDegrees>36.82915356941521167755126953125</LatitudeDegrees>
              <LongitudeDegrees>-4.36670609749853610992431640625</LongitudeDegrees>
            </Position>
            <AltitudeMeters>700</AltitudeMeters>
            <DistanceMeters>NAN</DistanceMeters>
          </Trackpoint>
          <Trackpoint>
            <Time>2020-12-05T11:06:55.000Z</Time>
            <Position>
              <LatitudeDegrees>36.8291479535400867462158203125</LatitudeDegrees>
              <LongitudeDegrees>-4.36669738031923770904541015625</LongitudeDegrees>
            </Position>
            <AltitudeMeters>700.20001220703125</AltitudeMeters>
            <DistanceMeters>NAN</DistanceMeters>
          </Trackpoint>
          <Trackpoint>
            <Time>2020-12-05T11:06:56.000Z</Time>
            <Position>
              <LatitudeDegrees>36.82914384640753269195556640625</LatitudeDegrees>
              <LongitudeDegrees>-4.36668950133025646209716796875</LongitudeDegrees>
            </Position>
            <AltitudeMeters>700.4000244140625</AltitudeMeters>
            <DistanceMeters>NAN</DistanceMeters>
          </Trackpoint>
          <Trackpoint>
            <Time>2020-12-05T11:06:57.000Z</Time>
            <Position>
              <LatitudeDegrees>36.8291419185698032379150390625</LatitudeDegrees>
              <LongitudeDegrees>-4.3666793592274188995361328125</LongitudeDegrees>
            </Position>
            <AltitudeMeters>700.5999755859375</AltitudeMeters>
            <DistanceMeters>NAN</DistanceMeters>
          </Trackpoint>
          <Trackpoint>
            <Time>2020-12-05T11:06:58.000Z</Time>
            <Position>
              <LatitudeDegrees>36.8291439302265644073486328125</LatitudeDegrees>
              <LongitudeDegrees>-4.3666676245629787445068359375</LongitudeDegrees>
            </Position>
            <AltitudeMeters>700.79998779296875</AltitudeMeters>
            <DistanceMeters>NAN</DistanceMeters>
          </Trackpoint>
          <Trackpoint>
            <Time>2020-12-05T11:06:59.000Z</Time>
            <Position>
              <LatitudeDegrees>36.82914384640753269195556640625</LatitudeDegrees>
              <LongitudeDegrees>-4.36665312387049198150634765625</LongitudeDegrees>
            </Position>
            <AltitudeMeters>700.79998779296875</AltitudeMeters>
            <DistanceMeters>NAN</DistanceMeters>
          </Trackpoint>
          <Trackpoint>
            <Time>2020-12-05T11:07:00.000Z</Time>
            <Position>
              <LatitudeDegrees>36.82914468459784984588623046875</LatitudeDegrees>
              <LongitudeDegrees>-4.366637952625751495361328125</LongitudeDegrees>
            </Position>
            <AltitudeMeters>700.79998779296875</AltitudeMeters>
            <DistanceMeters>NAN</DistanceMeters>
          </Trackpoint>
          <Trackpoint>
            <Time>2020-12-05T11:07:01.000Z</Time>
            <Position>
              <LatitudeDegrees>36.829146444797515869140625</LatitudeDegrees>
              <LongitudeDegrees>-4.3666215240955352783203125</LongitudeDegrees>
            </Position>
            <AltitudeMeters>700.79998779296875</AltitudeMeters>
            <DistanceMeters>NAN</DistanceMeters>
          </Trackpoint>
          <Trackpoint>
            <Time>2020-12-05T11:07:02.000Z</Time>
            <Position>
              <LatitudeDegrees>36.82914803735911846160888671875</LatitudeDegrees>
              <LongitudeDegrees>-4.36660551466047763824462890625</LongitudeDegrees>
            </Position>
            <AltitudeMeters>701</AltitudeMeters>
            <DistanceMeters>NAN</DistanceMeters>
          </Trackpoint>
          <Trackpoint>
            <Time>2020-12-05T11:07:03.000Z</Time>
            <Position>
              <LatitudeDegrees>36.82915139012038707733154296875</LatitudeDegrees>
              <LongitudeDegrees>-4.36659109778702259063720703125</LongitudeDegrees>
            </Position>
            <AltitudeMeters>701</AltitudeMeters>
            <DistanceMeters>NAN</DistanceMeters>
          </Trackpoint>
          <Trackpoint>
            <Time>2020-12-05T11:07:04.000Z</Time>
            <Position>
              <LatitudeDegrees>36.82915491051971912384033203125</LatitudeDegrees>
              <LongitudeDegrees>-4.36657533980906009674072265625</LongitudeDegrees>
            </Position>
            <AltitudeMeters>701</AltitudeMeters>
            <DistanceMeters>NAN</DistanceMeters>
          </Trackpoint>
          <Trackpoint>
            <Time>2020-12-05T11:07:05.000Z</Time>
            <Position>
              <LatitudeDegrees>36.829157173633575439453125</LatitudeDegrees>
              <LongitudeDegrees>-4.3665593303740024566650390625</LongitudeDegrees>
            </Position>
            <AltitudeMeters>701.20001220703125</AltitudeMeters>
            <DistanceMeters>NAN</DistanceMeters>
          </Trackpoint>
          <Trackpoint>
            <Time>2020-12-05T11:07:06.000Z</Time>
            <Position>
              <LatitudeDegrees>36.8291593529284000396728515625</LatitudeDegrees>
              <LongitudeDegrees>-4.36654566787183284759521484375</LongitudeDegrees>
            </Position>
            <AltitudeMeters>701.5999755859375</AltitudeMeters>
            <DistanceMeters>NAN</DistanceMeters>
          </Trackpoint>
          <Trackpoint>
            <Time>2020-12-05T11:07:07.000Z</Time>
            <Position>
              <LatitudeDegrees>36.82916144840419292449951171875</LatitudeDegrees>
              <LongitudeDegrees>-4.3665368668735027313232421875</LongitudeDegrees>
            </Position>
            <AltitudeMeters>701.79998779296875</AltitudeMeters>
            <DistanceMeters>NAN</DistanceMeters>
          </Trackpoint>
          <Trackpoint>
            <Time>2020-12-05T11:07:08.000Z</Time>
            <Position>
              <LatitudeDegrees>36.82916061021387577056884765625</LatitudeDegrees>
              <LongitudeDegrees>-4.36652638949453830718994140625</LongitudeDegrees>
            </Position>
            <AltitudeMeters>701.79998779296875</AltitudeMeters>
            <DistanceMeters>NAN</DistanceMeters>
          </Trackpoint>
          <Trackpoint>
            <Time>2020-12-05T11:07:09.000Z</Time>
            <Position>
              <LatitudeDegrees>36.82915910147130489349365234375</LatitudeDegrees>
              <LongitudeDegrees>-4.3665160797536373138427734375</LongitudeDegrees>
            </Position>
            <AltitudeMeters>702</AltitudeMeters>
            <DistanceMeters>NAN</DistanceMeters>
          </Trackpoint>
          <Trackpoint>
            <Time>2020-12-05T11:07:10.000Z</Time>
            <Position>
              <LatitudeDegrees>36.8291585147380828857421875</LatitudeDegrees>
              <LongitudeDegrees>-4.3665030039846897125244140625</LongitudeDegrees>
            </Position>
            <AltitudeMeters>702</AltitudeMeters>
            <DistanceMeters>NAN</DistanceMeters>
          </Trackpoint>
          <Trackpoint>
            <Time>2020-12-05T11:07:11.000Z</Time>
            <Position>
              <LatitudeDegrees>36.82915675453841686248779296875</LatitudeDegrees>
              <LongitudeDegrees>-4.366490431129932403564453125</LongitudeDegrees>
            </Position>
            <AltitudeMeters>702</AltitudeMeters>
            <DistanceMeters>NAN</DistanceMeters>
          </Trackpoint>
          <Trackpoint>
            <Time>2020-12-05T11:07:12.000Z</Time>
            <Position>
              <LatitudeDegrees>36.8291539885103702545166015625</LatitudeDegrees>
              <LongitudeDegrees>-4.36647492460906505584716796875</LongitudeDegrees>
            </Position>
            <AltitudeMeters>702</AltitudeMeters>
            <DistanceMeters>NAN</DistanceMeters>
          </Trackpoint>
          <Trackpoint>
            <Time>2020-12-05T11:07:13.000Z</Time>
            <Position>
              <LatitudeDegrees>36.82914937846362590789794921875</LatitudeDegrees>
              <LongitudeDegrees>-4.3664584122598171234130859375</LongitudeDegrees>
            </Position>
            <AltitudeMeters>702</AltitudeMeters>
            <DistanceMeters>NAN</DistanceMeters>
          </Trackpoint>
          <Trackpoint>
            <Time>2020-12-05T11:07:14.000Z</Time>
            <Position>
              <LatitudeDegrees>36.82914518751204013824462890625</LatitudeDegrees>
              <LongitudeDegrees>-4.36644474975764751434326171875</LongitudeDegrees>
            </Position>
            <AltitudeMeters>702</AltitudeMeters>
            <DistanceMeters>NAN</DistanceMeters>
          </Trackpoint>
          <Trackpoint>
            <Time>2020-12-05T11:07:15.000Z</Time>
            <Position>
              <LatitudeDegrees>36.82914032600820064544677734375</LatitudeDegrees>
              <LongitudeDegrees>-4.36643854714930057525634765625</LongitudeDegrees>
            </Position>
            <AltitudeMeters>702</AltitudeMeters>
            <DistanceMeters>NAN</DistanceMeters>
          </Trackpoint>
          <Trackpoint>
            <Time>2020-12-05T11:07:16.000Z</Time>
            <Position>
              <LatitudeDegrees>36.829137392342090606689453125</LatitudeDegrees>
              <LongitudeDegrees>-4.36643368564546108245849609375</LongitudeDegrees>
            </Position>
            <AltitudeMeters>702</AltitudeMeters>
            <DistanceMeters>NAN</DistanceMeters>
          </Trackpoint>
          <Trackpoint>
            <Time>2020-12-05T11:07:17.000Z</Time>
            <Position>
              <LatitudeDegrees>36.829134710133075714111328125</LatitudeDegrees>
              <LongitudeDegrees>-4.36643100343644618988037109375</LongitudeDegrees>
            </Position>
            <AltitudeMeters>702</AltitudeMeters>
            <DistanceMeters>NAN</DistanceMeters>
          </Trackpoint>
          <Trackpoint>
            <Time>2020-12-05T11:07:18.000Z</Time>
            <Position>
              <LatitudeDegrees>36.829135380685329437255859375</LatitudeDegrees>
              <LongitudeDegrees>-4.3664238788187503814697265625</LongitudeDegrees>
            </Position>
            <AltitudeMeters>702.20001220703125</AltitudeMeters>
            <DistanceMeters>NAN</DistanceMeters>
          </Trackpoint>
          <Trackpoint>
            <Time>2020-12-05T11:07:19.000Z</Time>
            <Position>
              <LatitudeDegrees>36.82913462631404399871826171875</LatitudeDegrees>
              <LongitudeDegrees>-4.36641524545848369598388671875</LongitudeDegrees>
            </Position>
            <AltitudeMeters>702.4000244140625</AltitudeMeters>
            <DistanceMeters>NAN</DistanceMeters>
          </Trackpoint>
          <Trackpoint>
            <Time>2020-12-05T11:07:20.000Z</Time>
            <Position>
              <LatitudeDegrees>36.82913579978048801422119140625</LatitudeDegrees>
              <LongitudeDegrees>-4.36640351079404354095458984375</LongitudeDegrees>
            </Position>
            <AltitudeMeters>702.5999755859375</AltitudeMeters>
            <DistanceMeters>NAN</DistanceMeters>
          </Trackpoint>
          <Trackpoint>
            <Time>2020-12-05T11:07:21.000Z</Time>
            <Position>
              <LatitudeDegrees>36.8291352130472660064697265625</LatitudeDegrees>
              <LongitudeDegrees>-4.36638875864446163177490234375</LongitudeDegrees>
            </Position>
            <AltitudeMeters>702.79998779296875</AltitudeMeters>
            <DistanceMeters>NAN</DistanceMeters>
          </Trackpoint>
          <Trackpoint>
            <Time>2020-12-05T11:07:22.000Z</Time>
            <Position>
              <LatitudeDegrees>36.8291343748569488525390625</LatitudeDegrees>
              <LongitudeDegrees>-4.3663712404668331146240234375</LongitudeDegrees>
            </Position>
            <AltitudeMeters>702.79998779296875</AltitudeMeters>
            <DistanceMeters>NAN</DistanceMeters>
          </Trackpoint>
          <Trackpoint>
            <Time>2020-12-05T11:07:23.000Z</Time>
            <Position>
              <LatitudeDegrees>36.8291338719427585601806640625</LatitudeDegrees>
              <LongitudeDegrees>-4.36635657213628292083740234375</LongitudeDegrees>
            </Position>
            <AltitudeMeters>703</AltitudeMeters>
            <DistanceMeters>NAN</DistanceMeters>
          </Trackpoint>
          <Trackpoint>
            <Time>2020-12-05T11:07:24.000Z</Time>
            <Position>
              <LatitudeDegrees>36.82913278229534626007080078125</LatitudeDegrees>
              <LongitudeDegrees>-4.3663424067199230194091796875</LongitudeDegrees>
            </Position>
            <AltitudeMeters>703</AltitudeMeters>
            <DistanceMeters>NAN</DistanceMeters>
          </Trackpoint>
          <Trackpoint>
            <Time>2020-12-05T11:07:25.000Z</Time>
            <Position>
              <LatitudeDegrees>36.8291305191814899444580078125</LatitudeDegrees>
              <LongitudeDegrees>-4.36633058823645114898681640625</LongitudeDegrees>
            </Position>
            <AltitudeMeters>703.4000244140625</AltitudeMeters>
            <DistanceMeters>NAN</DistanceMeters>
          </Trackpoint>
          <Trackpoint>
            <Time>2020-12-05T11:07:26.000Z</Time>
            <Position>
              <LatitudeDegrees>36.82912792079150676727294921875</LatitudeDegrees>
              <LongitudeDegrees>-4.36631851829588413238525390625</LongitudeDegrees>
            </Position>
            <AltitudeMeters>703.4000244140625</AltitudeMeters>
            <DistanceMeters>NAN</DistanceMeters>
          </Trackpoint>
          <Trackpoint>
            <Time>2020-12-05T11:07:27.000Z</Time>
            <Position>
              <LatitudeDegrees>36.82912624441087245941162109375</LatitudeDegrees>
              <LongitudeDegrees>-4.36630544252693653106689453125</LongitudeDegrees>
            </Position>
            <AltitudeMeters>703.4000244140625</AltitudeMeters>
            <DistanceMeters>NAN</DistanceMeters>
          </Trackpoint>
          <Trackpoint>
            <Time>2020-12-05T11:07:28.000Z</Time>
            <Position>
              <LatitudeDegrees>36.8291234783828258514404296875</LatitudeDegrees>
              <LongitudeDegrees>-4.3662887625396251678466796875</LongitudeDegrees>
            </Position>
            <AltitudeMeters>703.5999755859375</AltitudeMeters>
            <DistanceMeters>NAN</DistanceMeters>
          </Trackpoint>
          <Trackpoint>
            <Time>2020-12-05T11:07:29.000Z</Time>
            <Position>
              <LatitudeDegrees>36.82912255637347698211669921875</LatitudeDegrees>
              <LongitudeDegrees>-4.36627409420907497406005859375</LongitudeDegrees>
            </Position>
            <AltitudeMeters>703.5999755859375</AltitudeMeters>
            <DistanceMeters>NAN</DistanceMeters>
          </Trackpoint>
          <Trackpoint>
            <Time>2020-12-05T11:07:30.000Z</Time>
            <Position>
              <LatitudeDegrees>36.8291221372783184051513671875</LatitudeDegrees>
              <LongitudeDegrees>-4.36626101844012737274169921875</LongitudeDegrees>
            </Position>
            <AltitudeMeters>703.79998779296875</AltitudeMeters>
            <DistanceMeters>NAN</DistanceMeters>
          </Trackpoint>
          <Trackpoint>
            <Time>2020-12-05T11:07:31.000Z</Time>
            <Position>
              <LatitudeDegrees>36.829121299088001251220703125</LatitudeDegrees>
              <LongitudeDegrees>-4.36625163070857524871826171875</LongitudeDegrees>
            </Position>
            <AltitudeMeters>704</AltitudeMeters>
            <DistanceMeters>NAN</DistanceMeters>
          </Trackpoint>
          <Trackpoint>
            <Time>2020-12-05T11:07:32.000Z</Time>
            <Position>
              <LatitudeDegrees>36.8291187845170497894287109375</LatitudeDegrees>
              <LongitudeDegrees>-4.36624073423445224761962890625</LongitudeDegrees>
            </Position>
            <AltitudeMeters>704.4000244140625</AltitudeMeters>
            <DistanceMeters>NAN</DistanceMeters>
          </Trackpoint>
          <Trackpoint>
            <Time>2020-12-05T11:07:33.000Z</Time>
            <Position>
              <LatitudeDegrees>36.82911518029868602752685546875</LatitudeDegrees>
              <LongitudeDegrees>-4.3662280775606632232666015625</LongitudeDegrees>
            </Position>
            <AltitudeMeters>704.5999755859375</AltitudeMeters>
            <DistanceMeters>NAN</DistanceMeters>
          </Trackpoint>
          <Trackpoint>
            <Time>2020-12-05T11:07:34.000Z</Time>
            <Position>
              <LatitudeDegrees>36.82911266572773456573486328125</LatitudeDegrees>
              <LongitudeDegrees>-4.36621315777301788330078125</LongitudeDegrees>
            </Position>
            <AltitudeMeters>705</AltitudeMeters>
            <DistanceMeters>NAN</DistanceMeters>
          </Trackpoint>
          <Trackpoint>
            <Time>2020-12-05T11:07:35.000Z</Time>
            <Position>
              <LatitudeDegrees>36.82911350391805171966552734375</LatitudeDegrees>
              <LongitudeDegrees>-4.3661958910524845123291015625</LongitudeDegrees>
            </Position>
            <AltitudeMeters>705.20001220703125</AltitudeMeters>
            <DistanceMeters>NAN</DistanceMeters>
          </Trackpoint>
          <Trackpoint>
            <Time>2020-12-05T11:07:36.000Z</Time>
            <Position>
              <LatitudeDegrees>36.8291144259274005889892578125</LatitudeDegrees>
              <LongitudeDegrees>-4.36618088744580745697021484375</LongitudeDegrees>
            </Position>
            <AltitudeMeters>705.5999755859375</AltitudeMeters>
            <DistanceMeters>NAN</DistanceMeters>
          </Trackpoint>
          <Trackpoint>
            <Time>2020-12-05T11:07:37.000Z</Time>
            <Position>
              <LatitudeDegrees>36.82911618612706661224365234375</LatitudeDegrees>
              <LongitudeDegrees>-4.3661704100668430328369140625</LongitudeDegrees>
            </Position>
            <AltitudeMeters>705.79998779296875</AltitudeMeters>
            <DistanceMeters>NAN</DistanceMeters>
          </Trackpoint>
          <Trackpoint>
            <Time>2020-12-05T11:07:38.000Z</Time>
            <Position>
              <LatitudeDegrees>36.82911417447030544281005859375</LatitudeDegrees>
              <LongitudeDegrees>-4.3661593459546566009521484375</LongitudeDegrees>
            </Position>
            <AltitudeMeters>706.20001220703125</AltitudeMeters>
            <DistanceMeters>NAN</DistanceMeters>
          </Trackpoint>
          <Trackpoint>
            <Time>2020-12-05T11:07:39.000Z</Time>
            <Position>
              <LatitudeDegrees>36.82911015115678310394287109375</LatitudeDegrees>
              <LongitudeDegrees>-4.3661455996334552764892578125</LongitudeDegrees>
            </Position>
            <AltitudeMeters>706.4000244140625</AltitudeMeters>
            <DistanceMeters>NAN</DistanceMeters>
          </Trackpoint>
          <Trackpoint>
            <Time>2020-12-05T11:07:40.000Z</Time>
            <Position>
              <LatitudeDegrees>36.82910420000553131103515625</LatitudeDegrees>
              <LongitudeDegrees>-4.36613109894096851348876953125</LongitudeDegrees>
            </Position>
            <AltitudeMeters>706.79998779296875</AltitudeMeters>
            <DistanceMeters>NAN</DistanceMeters>
          </Trackpoint>
          <Trackpoint>
            <Time>2020-12-05T11:07:41.000Z</Time>
            <Position>
              <LatitudeDegrees>36.82909707538783550262451171875</LatitudeDegrees>
              <LongitudeDegrees>-4.36611752025783061981201171875</LongitudeDegrees>
            </Position>
            <AltitudeMeters>707</AltitudeMeters>
            <DistanceMeters>NAN</DistanceMeters>
          </Trackpoint>
          <Trackpoint>
            <Time>2020-12-05T11:07:42.000Z</Time>
            <Position>
              <LatitudeDegrees>36.829089112579822540283203125</LatitudeDegrees>
              <LongitudeDegrees>-4.36610494740307331085205078125</LongitudeDegrees>
            </Position>
            <AltitudeMeters>707.20001220703125</AltitudeMeters>
            <DistanceMeters>NAN</DistanceMeters>
          </Trackpoint>
          <Trackpoint>
            <Time>2020-12-05T11:07:43.000Z</Time>
            <Position>
              <LatitudeDegrees>36.82908399961888790130615234375</LatitudeDegrees>
              <LongitudeDegrees>-4.36609321273863315582275390625</LongitudeDegrees>
            </Position>
            <AltitudeMeters>707.4000244140625</AltitudeMeters>
            <DistanceMeters>NAN</DistanceMeters>
          </Trackpoint>
          <Trackpoint>
            <Time>2020-12-05T11:07:44.000Z</Time>
            <Position>
              <LatitudeDegrees>36.82907930575311183929443359375</LatitudeDegrees>
              <LongitudeDegrees>-4.36608080752193927764892578125</LongitudeDegrees>
            </Position>
            <AltitudeMeters>707.79998779296875</AltitudeMeters>
            <DistanceMeters>NAN</DistanceMeters>
          </Trackpoint>
          <Trackpoint>
            <Time>2020-12-05T11:07:45.000Z</Time>
            <Position>
              <LatitudeDegrees>36.82907444424927234649658203125</LatitudeDegrees>
              <LongitudeDegrees>-4.3660701625049114227294921875</LongitudeDegrees>
            </Position>
            <AltitudeMeters>707.79998779296875</AltitudeMeters>
            <DistanceMeters>NAN</DistanceMeters>
          </Trackpoint>
          <Trackpoint>
            <Time>2020-12-05T11:07:46.000Z</Time>
            <Position>
              <LatitudeDegrees>36.8290691636502742767333984375</LatitudeDegrees>
              <LongitudeDegrees>-4.36605893075466156005859375</LongitudeDegrees>
            </Position>
            <AltitudeMeters>707.79998779296875</AltitudeMeters>
            <DistanceMeters>NAN</DistanceMeters>
          </Trackpoint>
          <Trackpoint>
            <Time>2020-12-05T11:07:47.000Z</Time>
            <Position>
              <LatitudeDegrees>36.82906287722289562225341796875</LatitudeDegrees>
              <LongitudeDegrees>-4.36604845337569713592529296875</LongitudeDegrees>
            </Position>
            <AltitudeMeters>708</AltitudeMeters>
            <DistanceMeters>NAN</DistanceMeters>
          </Trackpoint>
          <Trackpoint>
            <Time>2020-12-05T11:07:48.000Z</Time>
            <Position>
              <LatitudeDegrees>36.82905667461454868316650390625</LatitudeDegrees>
              <LongitudeDegrees>-4.36603881418704986572265625</LongitudeDegrees>
            </Position>
            <AltitudeMeters>708</AltitudeMeters>
            <DistanceMeters>NAN</DistanceMeters>
          </Trackpoint>
          <Trackpoint>
            <Time>2020-12-05T11:07:49.000Z</Time>
            <Position>
              <LatitudeDegrees>36.82905181311070919036865234375</LatitudeDegrees>
              <LongitudeDegrees>-4.36602674424648284912109375</LongitudeDegrees>
            </Position>
            <AltitudeMeters>708</AltitudeMeters>
            <DistanceMeters>NAN</DistanceMeters>
          </Trackpoint>
          <Trackpoint>
            <Time>2020-12-05T11:07:50.000Z</Time>
            <Position>
              <LatitudeDegrees>36.8290477059781551361083984375</LatitudeDegrees>
              <LongitudeDegrees>-4.3660118244588375091552734375</LongitudeDegrees>
            </Position>
            <AltitudeMeters>708.20001220703125</AltitudeMeters>
            <DistanceMeters>NAN</DistanceMeters>
          </Trackpoint>
          <Trackpoint>
            <Time>2020-12-05T11:07:51.000Z</Time>
            <Position>
              <LatitudeDegrees>36.82904309593141078948974609375</LatitudeDegrees>
              <LongitudeDegrees>-4.365996234118938446044921875</LongitudeDegrees>
            </Position>
            <AltitudeMeters>708.20001220703125</AltitudeMeters>
            <DistanceMeters>NAN</DistanceMeters>
          </Trackpoint>
          <Trackpoint>
            <Time>2020-12-05T11:07:52.000Z</Time>
            <Position>
              <LatitudeDegrees>36.82903907261788845062255859375</LatitudeDegrees>
              <LongitudeDegrees>-4.36598307453095912933349609375</LongitudeDegrees>
            </Position>
            <AltitudeMeters>708.20001220703125</AltitudeMeters>
            <DistanceMeters>NAN</DistanceMeters>
          </Trackpoint>
          <Trackpoint>
            <Time>2020-12-05T11:07:53.000Z</Time>
            <Position>
              <LatitudeDegrees>36.8290349654853343963623046875</LatitudeDegrees>
              <LongitudeDegrees>-4.36597201041877269744873046875</LongitudeDegrees>
            </Position>
            <AltitudeMeters>708.20001220703125</AltitudeMeters>
            <DistanceMeters>NAN</DistanceMeters>
          </Trackpoint>
          <Trackpoint>
            <Time>2020-12-05T11:07:54.000Z</Time>
            <Position>
              <LatitudeDegrees>36.8290270864963531494140625</LatitudeDegrees>
              <LongitudeDegrees>-4.365960024297237396240234375</LongitudeDegrees>
            </Position>
            <AltitudeMeters>708.20001220703125</AltitudeMeters>
            <DistanceMeters>NAN</DistanceMeters>
          </Trackpoint>
          <Trackpoint>
            <Time>2020-12-05T11:07:55.000Z</Time>
            <Position>
              <LatitudeDegrees>36.82901845313608646392822265625</LatitudeDegrees>
              <LongitudeDegrees>-4.365946948528289794921875</LongitudeDegrees>
            </Position>
            <AltitudeMeters>708.4000244140625</AltitudeMeters>
            <DistanceMeters>NAN</DistanceMeters>
          </Trackpoint>
          <Trackpoint>
            <Time>2020-12-05T11:07:56.000Z</Time>
            <Position>
              <LatitudeDegrees>36.82900940068066120147705078125</LatitudeDegrees>
              <LongitudeDegrees>-4.36593496240675449371337890625</LongitudeDegrees>
            </Position>
            <AltitudeMeters>708.5999755859375</AltitudeMeters>
            <DistanceMeters>NAN</DistanceMeters>
          </Trackpoint>
          <Trackpoint>
            <Time>2020-12-05T11:07:57.000Z</Time>
            <Position>
              <LatitudeDegrees>36.82900018058717250823974609375</LatitudeDegrees>
              <LongitudeDegrees>-4.3659249879419803619384765625</LongitudeDegrees>
            </Position>
            <AltitudeMeters>708.5999755859375</AltitudeMeters>
            <DistanceMeters>NAN</DistanceMeters>
          </Trackpoint>
          <Trackpoint>
            <Time>2020-12-05T11:07:58.000Z</Time>
            <Position>
              <LatitudeDegrees>36.82899062521755695343017578125</LatitudeDegrees>
              <LongitudeDegrees>-4.3659145943820476531982421875</LongitudeDegrees>
            </Position>
            <AltitudeMeters>708.79998779296875</AltitudeMeters>
            <DistanceMeters>NAN</DistanceMeters>
          </Trackpoint>
          <Trackpoint>
            <Time>2020-12-05T11:07:59.000Z</Time>
            <Position>
              <LatitudeDegrees>36.82897788472473621368408203125</LatitudeDegrees>
              <LongitudeDegrees>-4.365902356803417205810546875</LongitudeDegrees>
            </Position>
            <AltitudeMeters>709</AltitudeMeters>
            <DistanceMeters>NAN</DistanceMeters>
          </Trackpoint>
          <Trackpoint>
            <Time>2020-12-05T11:08:00.000Z</Time>
            <Position>
              <LatitudeDegrees>36.82896497659385204315185546875</LatitudeDegrees>
              <LongitudeDegrees>-4.3658934719860553741455078125</LongitudeDegrees>
            </Position>
            <AltitudeMeters>709.20001220703125</AltitudeMeters>
            <DistanceMeters>NAN</DistanceMeters>
          </Trackpoint>
          <Trackpoint>
            <Time>2020-12-05T11:08:01.000Z</Time>
            <Position>
              <LatitudeDegrees>36.828952990472316741943359375</LatitudeDegrees>
              <LongitudeDegrees>-4.36588349752128124237060546875</LongitudeDegrees>
            </Position>
            <AltitudeMeters>709.4000244140625</AltitudeMeters>
            <DistanceMeters>NAN</DistanceMeters>
          </Trackpoint>
          <Trackpoint>
            <Time>2020-12-05T11:08:02.000Z</Time>
            <Position>
              <LatitudeDegrees>36.82894033379852771759033203125</LatitudeDegrees>
              <LongitudeDegrees>-4.365874193608760833740234375</LongitudeDegrees>
            </Position>
            <AltitudeMeters>709.4000244140625</AltitudeMeters>
            <DistanceMeters>NAN</DistanceMeters>
          </Trackpoint>
          <Trackpoint>
            <Time>2020-12-05T11:08:03.000Z</Time>
            <Position>
              <LatitudeDegrees>36.82892792858183383941650390625</LatitudeDegrees>
              <LongitudeDegrees>-4.3658646382391452789306640625</LongitudeDegrees>
            </Position>
            <AltitudeMeters>709.4000244140625</AltitudeMeters>
            <DistanceMeters>NAN</DistanceMeters>
          </Trackpoint>
          <Trackpoint>
            <Time>2020-12-05T11:08:04.000Z</Time>
            <Position>
              <LatitudeDegrees>36.82891619391739368438720703125</LatitudeDegrees>
              <LongitudeDegrees>-4.365858100354671478271484375</LongitudeDegrees>
            </Position>
            <AltitudeMeters>709.4000244140625</AltitudeMeters>
            <DistanceMeters>NAN</DistanceMeters>
          </Trackpoint>
          <Trackpoint>
            <Time>2020-12-05T11:08:05.000Z</Time>
            <Position>
              <LatitudeDegrees>36.82890546508133411407470703125</LatitudeDegrees>
              <LongitudeDegrees>-4.36584996990859508514404296875</LongitudeDegrees>
            </Position>
            <AltitudeMeters>709.5999755859375</AltitudeMeters>
            <DistanceMeters>NAN</DistanceMeters>
          </Trackpoint>
          <Trackpoint>
            <Time>2020-12-05T11:08:06.000Z</Time>
            <Position>
              <LatitudeDegrees>36.82889305986464023590087890625</LatitudeDegrees>
              <LongitudeDegrees>-4.36584309674799442291259765625</LongitudeDegrees>
            </Position>
            <AltitudeMeters>709.5999755859375</AltitudeMeters>
            <DistanceMeters>NAN</DistanceMeters>
          </Trackpoint>
          <Trackpoint>
            <Time>2020-12-05T11:08:07.000Z</Time>
            <Position>
              <LatitudeDegrees>36.82887931354343891143798828125</LatitudeDegrees>
              <LongitudeDegrees>-4.36583697795867919921875</LongitudeDegrees>
            </Position>
            <AltitudeMeters>710</AltitudeMeters>
            <DistanceMeters>NAN</DistanceMeters>
          </Trackpoint>
          <Trackpoint>
            <Time>2020-12-05T11:08:08.000Z</Time>
            <Position>
              <LatitudeDegrees>36.82886456139385700225830078125</LatitudeDegrees>
              <LongitudeDegrees>-4.36582851223647594451904296875</LongitudeDegrees>
            </Position>
            <AltitudeMeters>710</AltitudeMeters>
            <DistanceMeters>NAN</DistanceMeters>
          </Trackpoint>
          <Trackpoint>
            <Time>2020-12-05T11:08:09.000Z</Time>
            <Position>
              <LatitudeDegrees>36.828851066529750823974609375</LatitudeDegrees>
              <LongitudeDegrees>-4.36581996269524097442626953125</LongitudeDegrees>
            </Position>
            <AltitudeMeters>710.20001220703125</AltitudeMeters>
            <DistanceMeters>NAN</DistanceMeters>
          </Trackpoint>
          <Trackpoint>
            <Time>2020-12-05T11:08:10.000Z</Time>
            <Position>
              <LatitudeDegrees>36.828838326036930084228515625</LatitudeDegrees>
              <LongitudeDegrees>-4.36580906622111797332763671875</LongitudeDegrees>
            </Position>
            <AltitudeMeters>710.4000244140625</AltitudeMeters>
            <DistanceMeters>NAN</DistanceMeters>
          </Trackpoint>
          <Trackpoint>
            <Time>2020-12-05T11:08:11.000Z</Time>
            <Position>
              <LatitudeDegrees>36.8288250826299190521240234375</LatitudeDegrees>
              <LongitudeDegrees>-4.365799762308597564697265625</LongitudeDegrees>
            </Position>
            <AltitudeMeters>710.4000244140625</AltitudeMeters>
            <DistanceMeters>NAN</DistanceMeters>
          </Trackpoint>
          <Trackpoint>
            <Time>2020-12-05T11:08:12.000Z</Time>
            <Position>
              <LatitudeDegrees>36.82881192304193973541259765625</LatitudeDegrees>
              <LongitudeDegrees>-4.36579213477671146392822265625</LongitudeDegrees>
            </Position>
            <AltitudeMeters>710.20001220703125</AltitudeMeters>
            <DistanceMeters>NAN</DistanceMeters>
          </Trackpoint>
          <Trackpoint>
            <Time>2020-12-05T11:08:13.000Z</Time>
            <Position>
              <LatitudeDegrees>36.82880119420588016510009765625</LatitudeDegrees>
              <LongitudeDegrees>-4.36578995548188686370849609375</LongitudeDegrees>
            </Position>
            <AltitudeMeters>710</AltitudeMeters>
            <DistanceMeters>NAN</DistanceMeters>
          </Trackpoint>
          <Trackpoint>
            <Time>2020-12-05T11:08:14.000Z</Time>
            <Position>
              <LatitudeDegrees>36.82879230938851833343505859375</LatitudeDegrees>
              <LongitudeDegrees>-4.3657871894538402557373046875</LongitudeDegrees>
            </Position>
            <AltitudeMeters>709.79998779296875</AltitudeMeters>
            <DistanceMeters>NAN</DistanceMeters>
          </Trackpoint>
          <Trackpoint>
            <Time>2020-12-05T11:08:15.000Z</Time>
            <Position>
              <LatitudeDegrees>36.82878443039953708648681640625</LatitudeDegrees>
              <LongitudeDegrees>-4.3657838366925716400146484375</LongitudeDegrees>
            </Position>
            <AltitudeMeters>710</AltitudeMeters>
            <DistanceMeters>NAN</DistanceMeters>
          </Trackpoint>
          <Trackpoint>
            <Time>2020-12-05T11:08:16.000Z</Time>
            <Position>
              <LatitudeDegrees>36.82877521030604839324951171875</LatitudeDegrees>
              <LongitudeDegrees>-4.3657781369984149932861328125</LongitudeDegrees>
            </Position>
            <AltitudeMeters>710.4000244140625</AltitudeMeters>
            <DistanceMeters>NAN</DistanceMeters>
          </Trackpoint>
          <Trackpoint>
            <Time>2020-12-05T11:08:17.000Z</Time>
            <Position>
              <LatitudeDegrees>36.828765906393527984619140625</LatitudeDegrees>
              <LongitudeDegrees>-4.365769587457180023193359375</LongitudeDegrees>
            </Position>
            <AltitudeMeters>710.79998779296875</AltitudeMeters>
            <DistanceMeters>NAN</DistanceMeters>
          </Trackpoint>
          <Trackpoint>
            <Time>2020-12-05T11:08:18.000Z</Time>
            <Position>
              <LatitudeDegrees>36.8287550099194049835205078125</LatitudeDegrees>
              <LongitudeDegrees>-4.3657617084681987762451171875</LongitudeDegrees>
            </Position>
            <AltitudeMeters>711.4000244140625</AltitudeMeters>
            <DistanceMeters>NAN</DistanceMeters>
          </Trackpoint>
          <Trackpoint>
            <Time>2020-12-05T11:08:19.000Z</Time>
            <Position>
              <LatitudeDegrees>36.828743778169155120849609375</LatitudeDegrees>
              <LongitudeDegrees>-4.3657543323934078216552734375</LongitudeDegrees>
            </Position>
            <AltitudeMeters>712</AltitudeMeters>
            <DistanceMeters>NAN</DistanceMeters>
          </Trackpoint>
          <Trackpoint>
            <Time>2020-12-05T11:08:20.000Z</Time>
            <Position>
              <LatitudeDegrees>36.82873195968568325042724609375</LatitudeDegrees>
              <LongitudeDegrees>-4.3657471239566802978515625</LongitudeDegrees>
            </Position>
            <AltitudeMeters>712.4000244140625</AltitudeMeters>
            <DistanceMeters>NAN</DistanceMeters>
          </Trackpoint>
          <Trackpoint>
            <Time>2020-12-05T11:08:21.000Z</Time>
            <Position>
              <LatitudeDegrees>36.82871988974511623382568359375</LatitudeDegrees>
              <LongitudeDegrees>-4.36573974788188934326171875</LongitudeDegrees>
            </Position>
            <AltitudeMeters>712.5999755859375</AltitudeMeters>
            <DistanceMeters>NAN</DistanceMeters>
          </Trackpoint>
          <Trackpoint>
            <Time>2020-12-05T11:08:22.000Z</Time>
            <Position>
              <LatitudeDegrees>36.82870815508067607879638671875</LatitudeDegrees>
              <LongitudeDegrees>-4.36573228798806667327880859375</LongitudeDegrees>
            </Position>
            <AltitudeMeters>712.79998779296875</AltitudeMeters>
            <DistanceMeters>NAN</DistanceMeters>
          </Trackpoint>
          <Trackpoint>
            <Time>2020-12-05T11:08:23.000Z</Time>
            <Position>
              <LatitudeDegrees>36.82869574986398220062255859375</LatitudeDegrees>
              <LongitudeDegrees>-4.3657229840755462646484375</LongitudeDegrees>
            </Position>
            <AltitudeMeters>713</AltitudeMeters>
            <DistanceMeters>NAN</DistanceMeters>
          </Trackpoint>
          <Trackpoint>
            <Time>2020-12-05T11:08:24.000Z</Time>
            <Position>
              <LatitudeDegrees>36.82868451811373233795166015625</LatitudeDegrees>
              <LongitudeDegrees>-4.36571502126753330230712890625</LongitudeDegrees>
            </Position>
            <AltitudeMeters>713</AltitudeMeters>
            <DistanceMeters>NAN</DistanceMeters>
          </Trackpoint>
          <Trackpoint>
            <Time>2020-12-05T11:08:25.000Z</Time>
            <Position>
              <LatitudeDegrees>36.82867445982992649078369140625</LatitudeDegrees>
              <LongitudeDegrees>-4.36570890247821807861328125</LongitudeDegrees>
            </Position>
            <AltitudeMeters>713</AltitudeMeters>
            <DistanceMeters>NAN</DistanceMeters>
          </Trackpoint>
          <Trackpoint>
            <Time>2020-12-05T11:08:26.000Z</Time>
            <Position>
              <LatitudeDegrees>36.82866632938385009765625</LatitudeDegrees>
              <LongitudeDegrees>-4.3657028675079345703125</LongitudeDegrees>
            </Position>
            <AltitudeMeters>713</AltitudeMeters>
            <DistanceMeters>NAN</DistanceMeters>
          </Trackpoint>
          <Trackpoint>
            <Time>2020-12-05T11:08:27.000Z</Time>
            <Position>
              <LatitudeDegrees>36.82865736074745655059814453125</LatitudeDegrees>
              <LongitudeDegrees>-4.36569876037538051605224609375</LongitudeDegrees>
            </Position>
            <AltitudeMeters>712.79998779296875</AltitudeMeters>
            <DistanceMeters>NAN</DistanceMeters>
          </Trackpoint>
          <Trackpoint>
            <Time>2020-12-05T11:08:28.000Z</Time>
            <Position>
              <LatitudeDegrees>36.82864545844495296478271484375</LatitudeDegrees>
              <LongitudeDegrees>-4.36568954028189182281494140625</LongitudeDegrees>
            </Position>
            <AltitudeMeters>712.79998779296875</AltitudeMeters>
            <DistanceMeters>NAN</DistanceMeters>
          </Trackpoint>
          <Trackpoint>
            <Time>2020-12-05T11:08:29.000Z</Time>
            <Position>
              <LatitudeDegrees>36.82863305322825908660888671875</LatitudeDegrees>
              <LongitudeDegrees>-4.36567629687488079071044921875</LongitudeDegrees>
            </Position>
            <AltitudeMeters>712.79998779296875</AltitudeMeters>
            <DistanceMeters>NAN</DistanceMeters>
          </Trackpoint>
          <Trackpoint>
            <Time>2020-12-05T11:08:30.000Z</Time>
            <Position>
              <LatitudeDegrees>36.82862483896315097808837890625</LatitudeDegrees>
              <LongitudeDegrees>-4.36566732823848724365234375</LongitudeDegrees>
            </Position>
            <AltitudeMeters>712.79998779296875</AltitudeMeters>
            <DistanceMeters>NAN</DistanceMeters>
          </Trackpoint>
          <Trackpoint>
            <Time>2020-12-05T11:08:31.000Z</Time>
            <Position>
              <LatitudeDegrees>36.8286185525357723236083984375</LatitudeDegrees>
              <LongitudeDegrees>-4.3656577728688716888427734375</LongitudeDegrees>
            </Position>
            <AltitudeMeters>713</AltitudeMeters>
            <DistanceMeters>NAN</DistanceMeters>
          </Trackpoint>
          <Trackpoint>
            <Time>2020-12-05T11:08:32.000Z</Time>
            <Position>
              <LatitudeDegrees>36.82861159555613994598388671875</LatitudeDegrees>
              <LongitudeDegrees>-4.36565081588923931121826171875</LongitudeDegrees>
            </Position>
            <AltitudeMeters>713.20001220703125</AltitudeMeters>
            <DistanceMeters>NAN</DistanceMeters>
          </Trackpoint>
          <Trackpoint>
            <Time>2020-12-05T11:08:33.000Z</Time>
            <Position>
              <LatitudeDegrees>36.82860665023326873779296875</LatitudeDegrees>
              <LongitudeDegrees>-4.3656425178050994873046875</LongitudeDegrees>
            </Position>
            <AltitudeMeters>713.4000244140625</AltitudeMeters>
            <DistanceMeters>NAN</DistanceMeters>
          </Trackpoint>
          <Trackpoint>
            <Time>2020-12-05T11:08:34.000Z</Time>
            <Position>
              <LatitudeDegrees>36.82860254310071468353271484375</LatitudeDegrees>
              <LongitudeDegrees>-4.3656339682638645172119140625</LongitudeDegrees>
            </Position>
            <AltitudeMeters>713.4000244140625</AltitudeMeters>
            <DistanceMeters>NAN</DistanceMeters>
          </Trackpoint>
          <Trackpoint>
            <Time>2020-12-05T11:08:35.000Z</Time>
            <Position>
              <LatitudeDegrees>36.828598268330097198486328125</LatitudeDegrees>
              <LongitudeDegrees>-4.36562164686620235443115234375</LongitudeDegrees>
            </Position>
            <AltitudeMeters>713.5999755859375</AltitudeMeters>
            <DistanceMeters>NAN</DistanceMeters>
          </Trackpoint>
          <Trackpoint>
            <Time>2020-12-05T11:08:36.000Z</Time>
            <Position>
              <LatitudeDegrees>36.8285927362740039825439453125</LatitudeDegrees>
              <LongitudeDegrees>-4.36560773290693759918212890625</LongitudeDegrees>
            </Position>
            <AltitudeMeters>713.5999755859375</AltitudeMeters>
            <DistanceMeters>NAN</DistanceMeters>
          </Trackpoint>
          <Trackpoint>
            <Time>2020-12-05T11:08:37.000Z</Time>
            <Position>
              <LatitudeDegrees>36.8285853601992130279541015625</LatitudeDegrees>
              <LongitudeDegrees>-4.365595243871212005615234375</LongitudeDegrees>
            </Position>
            <AltitudeMeters>713.5999755859375</AltitudeMeters>
            <DistanceMeters>NAN</DistanceMeters>
          </Trackpoint>
          <Trackpoint>
            <Time>2020-12-05T11:08:38.000Z</Time>
            <Position>
              <LatitudeDegrees>36.82858007960021495819091796875</LatitudeDegrees>
              <LongitudeDegrees>-4.36558493413031101226806640625</LongitudeDegrees>
            </Position>
            <AltitudeMeters>713.79998779296875</AltitudeMeters>
            <DistanceMeters>NAN</DistanceMeters>
          </Trackpoint>
          <Trackpoint>
            <Time>2020-12-05T11:08:39.000Z</Time>
            <Position>
              <LatitudeDegrees>36.82857253588736057281494140625</LatitudeDegrees>
              <LongitudeDegrees>-4.365577138960361480712890625</LongitudeDegrees>
            </Position>
            <AltitudeMeters>713.79998779296875</AltitudeMeters>
            <DistanceMeters>NAN</DistanceMeters>
          </Trackpoint>
          <Trackpoint>
            <Time>2020-12-05T11:08:40.000Z</Time>
            <Position>
              <LatitudeDegrees>36.82856331579387187957763671875</LatitudeDegrees>
              <LongitudeDegrees>-4.36557076871395111083984375</LongitudeDegrees>
            </Position>
            <AltitudeMeters>714</AltitudeMeters>
            <DistanceMeters>NAN</DistanceMeters>
          </Trackpoint>
          <Trackpoint>
            <Time>2020-12-05T11:08:41.000Z</Time>
            <Position>
              <LatitudeDegrees>36.82855459861457347869873046875</LatitudeDegrees>
              <LongitudeDegrees>-4.36556565575301647186279296875</LongitudeDegrees>
            </Position>
            <AltitudeMeters>714</AltitudeMeters>
            <DistanceMeters>NAN</DistanceMeters>
          </Trackpoint>
          <Trackpoint>
            <Time>2020-12-05T11:08:42.000Z</Time>
            <Position>
              <LatitudeDegrees>36.82854722253978252410888671875</LatitudeDegrees>
              <LongitudeDegrees>-4.36555794440209865570068359375</LongitudeDegrees>
            </Position>
            <AltitudeMeters>714.20001220703125</AltitudeMeters>
            <DistanceMeters>NAN</DistanceMeters>
          </Trackpoint>
          <Trackpoint>
            <Time>2020-12-05T11:08:43.000Z</Time>
            <Position>
              <LatitudeDegrees>36.82854336686432361602783203125</LatitudeDegrees>
              <LongitudeDegrees>-4.36554805375635623931884765625</LongitudeDegrees>
            </Position>
            <AltitudeMeters>714.20001220703125</AltitudeMeters>
            <DistanceMeters>NAN</DistanceMeters>
          </Trackpoint>
          <Trackpoint>
            <Time>2020-12-05T11:08:44.000Z</Time>
            <Position>
              <LatitudeDegrees>36.828540265560150146484375</LatitudeDegrees>
              <LongitudeDegrees>-4.36553497798740863800048828125</LongitudeDegrees>
            </Position>
            <AltitudeMeters>714.4000244140625</AltitudeMeters>
            <DistanceMeters>NAN</DistanceMeters>
          </Trackpoint>
          <Trackpoint>
            <Time>2020-12-05T11:08:45.000Z</Time>
            <Position>
              <LatitudeDegrees>36.8285364098846912384033203125</LatitudeDegrees>
              <LongitudeDegrees>-4.365521483123302459716796875</LongitudeDegrees>
            </Position>
            <AltitudeMeters>714.4000244140625</AltitudeMeters>
            <DistanceMeters>NAN</DistanceMeters>
          </Trackpoint>
          <Trackpoint>
            <Time>2020-12-05T11:08:46.000Z</Time>
            <Position>
              <LatitudeDegrees>36.82852886617183685302734375</LatitudeDegrees>
              <LongitudeDegrees>-4.36551335267722606658935546875</LongitudeDegrees>
            </Position>
            <AltitudeMeters>714.5999755859375</AltitudeMeters>
            <DistanceMeters>NAN</DistanceMeters>
          </Trackpoint>
          <Trackpoint>
            <Time>2020-12-05T11:08:47.000Z</Time>
            <Position>
              <LatitudeDegrees>36.8285214900970458984375</LatitudeDegrees>
              <LongitudeDegrees>-4.36550639569759368896484375</LongitudeDegrees>
            </Position>
            <AltitudeMeters>715</AltitudeMeters>
            <DistanceMeters>NAN</DistanceMeters>
          </Trackpoint>
          <Trackpoint>
            <Time>2020-12-05T11:08:48.000Z</Time>
            <Position>
              <LatitudeDegrees>36.8285132758319377899169921875</LatitudeDegrees>
              <LongitudeDegrees>-4.36549876816570758819580078125</LongitudeDegrees>
            </Position>
            <AltitudeMeters>715.5999755859375</AltitudeMeters>
            <DistanceMeters>NAN</DistanceMeters>
          </Trackpoint>
          <Trackpoint>
            <Time>2020-12-05T11:08:49.000Z</Time>
            <Position>
              <LatitudeDegrees>36.8285058997571468353271484375</LatitudeDegrees>
              <LongitudeDegrees>-4.365491308271884918212890625</LongitudeDegrees>
            </Position>
            <AltitudeMeters>716</AltitudeMeters>
            <DistanceMeters>NAN</DistanceMeters>
          </Trackpoint>
          <Trackpoint>
            <Time>2020-12-05T11:08:50.000Z</Time>
            <Position>
              <LatitudeDegrees>36.8284968473017215728759765625</LatitudeDegrees>
              <LongitudeDegrees>-4.36548451893031597137451171875</LongitudeDegrees>
            </Position>
            <AltitudeMeters>716.4000244140625</AltitudeMeters>
            <DistanceMeters>NAN</DistanceMeters>
          </Trackpoint>
          <Trackpoint>
            <Time>2020-12-05T11:08:51.000Z</Time>
            <Position>
              <LatitudeDegrees>36.82848729193210601806640625</LatitudeDegrees>
              <LongitudeDegrees>-4.36547379009425640106201171875</LongitudeDegrees>
            </Position>
            <AltitudeMeters>716.5999755859375</AltitudeMeters>
            <DistanceMeters>NAN</DistanceMeters>
          </Trackpoint>
          <Trackpoint>
            <Time>2020-12-05T11:08:52.000Z</Time>
            <Position>
              <LatitudeDegrees>36.82847815565764904022216796875</LatitudeDegrees>
              <LongitudeDegrees>-4.36545736156404018402099609375</LongitudeDegrees>
            </Position>
            <AltitudeMeters>716.79998779296875</AltitudeMeters>
            <DistanceMeters>NAN</DistanceMeters>
          </Trackpoint>
          <Trackpoint>
            <Time>2020-12-05T11:08:53.000Z</Time>
            <Position>
              <LatitudeDegrees>36.82846809737384319305419921875</LatitudeDegrees>
              <LongitudeDegrees>-4.3654413521289825439453125</LongitudeDegrees>
            </Position>
            <AltitudeMeters>717</AltitudeMeters>
            <DistanceMeters>NAN</DistanceMeters>
          </Trackpoint>
          <Trackpoint>
            <Time>2020-12-05T11:08:54.000Z</Time>
            <Position>
              <LatitudeDegrees>36.82845753617584705352783203125</LatitudeDegrees>
              <LongitudeDegrees>-4.365423582494258880615234375</LongitudeDegrees>
            </Position>
            <AltitudeMeters>717</AltitudeMeters>
            <DistanceMeters>NAN</DistanceMeters>
          </Trackpoint>
          <Trackpoint>
            <Time>2020-12-05T11:08:55.000Z</Time>
            <Position>
              <LatitudeDegrees>36.8284475617110729217529296875</LatitudeDegrees>
              <LongitudeDegrees>-4.3654079921543598175048828125</LongitudeDegrees>
            </Position>
            <AltitudeMeters>717.20001220703125</AltitudeMeters>
            <DistanceMeters>NAN</DistanceMeters>
          </Trackpoint>
          <Trackpoint>
            <Time>2020-12-05T11:08:56.000Z</Time>
            <Position>
              <LatitudeDegrees>36.82843624614179134368896484375</LatitudeDegrees>
              <LongitudeDegrees>-4.36539768241345882415771484375</LongitudeDegrees>
            </Position>
            <AltitudeMeters>717.20001220703125</AltitudeMeters>
            <DistanceMeters>NAN</DistanceMeters>
          </Trackpoint>
          <Trackpoint>
            <Time>2020-12-05T11:08:57.000Z</Time>
            <Position>
              <LatitudeDegrees>36.82842484675347805023193359375</LatitudeDegrees>
              <LongitudeDegrees>-4.3653872050344944000244140625</LongitudeDegrees>
            </Position>
            <AltitudeMeters>717.20001220703125</AltitudeMeters>
            <DistanceMeters>NAN</DistanceMeters>
          </Trackpoint>
          <Trackpoint>
            <Time>2020-12-05T11:08:58.000Z</Time>
            <Position>
              <LatitudeDegrees>36.82841311208903789520263671875</LatitudeDegrees>
              <LongitudeDegrees>-4.36537756584584712982177734375</LongitudeDegrees>
            </Position>
            <AltitudeMeters>717.4000244140625</AltitudeMeters>
            <DistanceMeters>NAN</DistanceMeters>
          </Trackpoint>
          <Trackpoint>
            <Time>2020-12-05T11:08:59.000Z</Time>
            <Position>
              <LatitudeDegrees>36.8284033052623271942138671875</LatitudeDegrees>
              <LongitudeDegrees>-4.36536767520010471343994140625</LongitudeDegrees>
            </Position>
            <AltitudeMeters>717.4000244140625</AltitudeMeters>
            <DistanceMeters>NAN</DistanceMeters>
          </Trackpoint>
          <Trackpoint>
            <Time>2020-12-05T11:09:00.000Z</Time>
            <Position>
              <LatitudeDegrees>36.82839165441691875457763671875</LatitudeDegrees>
              <LongitudeDegrees>-4.36535845510661602020263671875</LongitudeDegrees>
            </Position>
            <AltitudeMeters>717.4000244140625</AltitudeMeters>
            <DistanceMeters>NAN</DistanceMeters>
          </Trackpoint>
          <Trackpoint>
            <Time>2020-12-05T11:09:01.000Z</Time>
            <Position>
              <LatitudeDegrees>36.82838092558085918426513671875</LatitudeDegrees>
              <LongitudeDegrees>-4.365350492298603057861328125</LongitudeDegrees>
            </Position>
            <AltitudeMeters>717.5999755859375</AltitudeMeters>
            <DistanceMeters>NAN</DistanceMeters>
          </Trackpoint>
          <Trackpoint>
            <Time>2020-12-05T11:09:02.000Z</Time>
            <Position>
              <LatitudeDegrees>36.82837120257318019866943359375</LatitudeDegrees>
              <LongitudeDegrees>-4.3653409369289875030517578125</LongitudeDegrees>
            </Position>
            <AltitudeMeters>717.79998779296875</AltitudeMeters>
            <DistanceMeters>NAN</DistanceMeters>
          </Trackpoint>
          <Trackpoint>
            <Time>2020-12-05T11:09:03.000Z</Time>
            <Position>
              <LatitudeDegrees>36.8283613957464694976806640625</LatitudeDegrees>
              <LongitudeDegrees>-4.3653332255780696868896484375</LongitudeDegrees>
            </Position>
            <AltitudeMeters>717.79998779296875</AltitudeMeters>
            <DistanceMeters>NAN</DistanceMeters>
          </Trackpoint>
          <Trackpoint>
            <Time>2020-12-05T11:09:04.000Z</Time>
            <Position>
              <LatitudeDegrees>36.82835343293845653533935546875</LatitudeDegrees>
              <LongitudeDegrees>-4.3653251789510250091552734375</LongitudeDegrees>
            </Position>
            <AltitudeMeters>717.79998779296875</AltitudeMeters>
            <DistanceMeters>NAN</DistanceMeters>
          </Trackpoint>
          <Trackpoint>
            <Time>2020-12-05T11:09:05.000Z</Time>
            <Position>
              <LatitudeDegrees>36.8283458054065704345703125</LatitudeDegrees>
              <LongitudeDegrees>-4.3653174676001071929931640625</LongitudeDegrees>
            </Position>
            <AltitudeMeters>718</AltitudeMeters>
            <DistanceMeters>NAN</DistanceMeters>
          </Trackpoint>
          <Trackpoint>
            <Time>2020-12-05T11:09:06.000Z</Time>
            <Position>
              <LatitudeDegrees>36.8283412791788578033447265625</LatitudeDegrees>
              <LongitudeDegrees>-4.3653080798685550689697265625</LongitudeDegrees>
            </Position>
            <AltitudeMeters>718</AltitudeMeters>
            <DistanceMeters>NAN</DistanceMeters>
          </Trackpoint>
          <Trackpoint>
            <Time>2020-12-05T11:09:07.000Z</Time>
            <Position>
              <LatitudeDegrees>36.82833314873278141021728515625</LatitudeDegrees>
              <LongitudeDegrees>-4.36529978178441524505615234375</LongitudeDegrees>
            </Position>
            <AltitudeMeters>718.20001220703125</AltitudeMeters>
            <DistanceMeters>NAN</DistanceMeters>
          </Trackpoint>
          <Trackpoint>
            <Time>2020-12-05T11:09:08.000Z</Time>
            <Position>
              <LatitudeDegrees>36.82832493446767330169677734375</LatitudeDegrees>
              <LongitudeDegrees>-4.3652926571667194366455078125</LongitudeDegrees>
            </Position>
            <AltitudeMeters>718.4000244140625</AltitudeMeters>
            <DistanceMeters>NAN</DistanceMeters>
          </Trackpoint>
          <Trackpoint>
            <Time>2020-12-05T11:09:09.000Z</Time>
            <Position>
              <LatitudeDegrees>36.8283144570887088775634765625</LatitudeDegrees>
              <LongitudeDegrees>-4.36528486199676990509033203125</LongitudeDegrees>
            </Position>
            <AltitudeMeters>718.5999755859375</AltitudeMeters>
            <DistanceMeters>NAN</DistanceMeters>
          </Trackpoint>
          <Trackpoint>
            <Time>2020-12-05T11:09:10.000Z</Time>
            <Position>
              <LatitudeDegrees>36.8283030577003955841064453125</LatitudeDegrees>
              <LongitudeDegrees>-4.365276396274566650390625</LongitudeDegrees>
            </Position>
            <AltitudeMeters>718.79998779296875</AltitudeMeters>
            <DistanceMeters>NAN</DistanceMeters>
          </Trackpoint>
          <Trackpoint>
            <Time>2020-12-05T11:09:11.000Z</Time>
            <Position>
              <LatitudeDegrees>36.82829123921692371368408203125</LatitudeDegrees>
              <LongitudeDegrees>-4.365271031856536865234375</LongitudeDegrees>
            </Position>
            <AltitudeMeters>718.79998779296875</AltitudeMeters>
            <DistanceMeters>NAN</DistanceMeters>
          </Trackpoint>
          <Trackpoint>
            <Time>2020-12-05T11:09:12.000Z</Time>
            <Position>
              <LatitudeDegrees>36.82827766053378582000732421875</LatitudeDegrees>
              <LongitudeDegrees>-4.36526541598141193389892578125</LongitudeDegrees>
            </Position>
            <AltitudeMeters>719</AltitudeMeters>
            <DistanceMeters>NAN</DistanceMeters>
          </Trackpoint>
          <Trackpoint>
            <Time>2020-12-05T11:09:13.000Z</Time>
            <Position>
              <LatitudeDegrees>36.8282641656696796417236328125</LatitudeDegrees>
              <LongitudeDegrees>-4.36525820754468441009521484375</LongitudeDegrees>
            </Position>
            <AltitudeMeters>719</AltitudeMeters>
            <DistanceMeters>NAN</DistanceMeters>
          </Trackpoint>
          <Trackpoint>
            <Time>2020-12-05T11:09:14.000Z</Time>
            <Position>
              <LatitudeDegrees>36.82825201191008090972900390625</LatitudeDegrees>
              <LongitudeDegrees>-4.3652500770986080169677734375</LongitudeDegrees>
            </Position>
            <AltitudeMeters>719</AltitudeMeters>
            <DistanceMeters>NAN</DistanceMeters>
          </Trackpoint>
          <Trackpoint>
            <Time>2020-12-05T11:09:15.000Z</Time>
            <Position>
              <LatitudeDegrees>36.8282410316169261932373046875</LatitudeDegrees>
              <LongitudeDegrees>-4.36524161137640476226806640625</LongitudeDegrees>
            </Position>
            <AltitudeMeters>719.20001220703125</AltitudeMeters>
            <DistanceMeters>NAN</DistanceMeters>
          </Trackpoint>
          <Trackpoint>
            <Time>2020-12-05T11:09:16.000Z</Time>
            <Position>
              <LatitudeDegrees>36.8282304704189300537109375</LatitudeDegrees>
              <LongitudeDegrees>-4.36523440293967723846435546875</LongitudeDegrees>
            </Position>
            <AltitudeMeters>719.20001220703125</AltitudeMeters>
            <DistanceMeters>NAN</DistanceMeters>
          </Trackpoint>
          <Trackpoint>
            <Time>2020-12-05T11:09:17.000Z</Time>
            <Position>
              <LatitudeDegrees>36.8282192386686801910400390625</LatitudeDegrees>
              <LongitudeDegrees>-4.36522736214101314544677734375</LongitudeDegrees>
            </Position>
            <AltitudeMeters>719</AltitudeMeters>
            <DistanceMeters>NAN</DistanceMeters>
          </Trackpoint>
          <Trackpoint>
            <Time>2020-12-05T11:09:18.000Z</Time>
            <Position>
              <LatitudeDegrees>36.8282061628997325897216796875</LatitudeDegrees>
              <LongitudeDegrees>-4.36521646566689014434814453125</LongitudeDegrees>
            </Position>
            <AltitudeMeters>719</AltitudeMeters>
            <DistanceMeters>NAN</DistanceMeters>
          </Trackpoint>
          <Trackpoint>
            <Time>2020-12-05T11:09:19.000Z</Time>
            <Position>
              <LatitudeDegrees>36.82819266803562641143798828125</LatitudeDegrees>
              <LongitudeDegrees>-4.36520867049694061279296875</LongitudeDegrees>
            </Position>
            <AltitudeMeters>719.20001220703125</AltitudeMeters>
            <DistanceMeters>NAN</DistanceMeters>
          </Trackpoint>
          <Trackpoint>
            <Time>2020-12-05T11:09:20.000Z</Time>
            <Position>
              <LatitudeDegrees>36.82817875407636165618896484375</LatitudeDegrees>
              <LongitudeDegrees>-4.36520070768892765045166015625</LongitudeDegrees>
            </Position>
            <AltitudeMeters>719.20001220703125</AltitudeMeters>
            <DistanceMeters>NAN</DistanceMeters>
          </Trackpoint>
          <Trackpoint>
            <Time>2020-12-05T11:09:21.000Z</Time>
            <Position>
              <LatitudeDegrees>36.8281602300703525543212890625</LatitudeDegrees>
              <LongitudeDegrees>-4.36519584618508815765380859375</LongitudeDegrees>
            </Position>
            <AltitudeMeters>719.4000244140625</AltitudeMeters>
            <DistanceMeters>NAN</DistanceMeters>
          </Trackpoint>
          <Trackpoint>
            <Time>2020-12-05T11:09:22.000Z</Time>
            <Position>
              <LatitudeDegrees>36.8281404487788677215576171875</LatitudeDegrees>
              <LongitudeDegrees>-4.365191571414470672607421875</LongitudeDegrees>
            </Position>
            <AltitudeMeters>719.5999755859375</AltitudeMeters>
            <DistanceMeters>NAN</DistanceMeters>
          </Trackpoint>
          <Trackpoint>
            <Time>2020-12-05T11:09:23.000Z</Time>
            <Position>
              <LatitudeDegrees>36.82811957783997058868408203125</LatitudeDegrees>
              <LongitudeDegrees>-4.36518729664385318756103515625</LongitudeDegrees>
            </Position>
            <AltitudeMeters>719.5999755859375</AltitudeMeters>
            <DistanceMeters>NAN</DistanceMeters>
          </Trackpoint>
          <Trackpoint>
            <Time>2020-12-05T11:09:24.000Z</Time>
            <Position>
              <LatitudeDegrees>36.8280965276062488555908203125</LatitudeDegrees>
              <LongitudeDegrees>-4.36518184840679168701171875</LongitudeDegrees>
            </Position>
            <AltitudeMeters>719.5999755859375</AltitudeMeters>
            <DistanceMeters>NAN</DistanceMeters>
          </Trackpoint>
          <Trackpoint>
            <Time>2020-12-05T11:09:25.000Z</Time>
            <Position>
              <LatitudeDegrees>36.82807314209640026092529296875</LatitudeDegrees>
              <LongitudeDegrees>-4.3651749752461910247802734375</LongitudeDegrees>
            </Position>
            <AltitudeMeters>719.79998779296875</AltitudeMeters>
            <DistanceMeters>NAN</DistanceMeters>
          </Trackpoint>
          <Trackpoint>
            <Time>2020-12-05T11:09:26.000Z</Time>
            <Position>
              <LatitudeDegrees>36.828051097691059112548828125</LatitudeDegrees>
              <LongitudeDegrees>-4.36517120338976383209228515625</LongitudeDegrees>
            </Position>
            <AltitudeMeters>719.79998779296875</AltitudeMeters>
            <DistanceMeters>NAN</DistanceMeters>
          </Trackpoint>
          <Trackpoint>
            <Time>2020-12-05T11:09:27.000Z</Time>
            <Position>
              <LatitudeDegrees>36.82802997529506683349609375</LatitudeDegrees>
              <LongitudeDegrees>-4.3651686049997806549072265625</LongitudeDegrees>
            </Position>
            <AltitudeMeters>719.79998779296875</AltitudeMeters>
            <DistanceMeters>NAN</DistanceMeters>
          </Trackpoint>
          <Trackpoint>
            <Time>2020-12-05T11:09:28.000Z</Time>
            <Position>
              <LatitudeDegrees>36.8280120380222797393798828125</LatitudeDegrees>
              <LongitudeDegrees>-4.365161396563053131103515625</LongitudeDegrees>
            </Position>
            <AltitudeMeters>719.79998779296875</AltitudeMeters>
            <DistanceMeters>NAN</DistanceMeters>
          </Trackpoint>
          <Trackpoint>
            <Time>2020-12-05T11:09:29.000Z</Time>
            <Position>
              <LatitudeDegrees>36.82800021953880786895751953125</LatitudeDegrees>
              <LongitudeDegrees>-4.3651578761637210845947265625</LongitudeDegrees>
            </Position>
            <AltitudeMeters>719.79998779296875</AltitudeMeters>
            <DistanceMeters>NAN</DistanceMeters>
          </Trackpoint>
          <Trackpoint>
            <Time>2020-12-05T11:09:30.000Z</Time>
            <Position>
              <LatitudeDegrees>36.82798705995082855224609375</LatitudeDegrees>
              <LongitudeDegrees>-4.36515209265053272247314453125</LongitudeDegrees>
            </Position>
            <AltitudeMeters>719.79998779296875</AltitudeMeters>
            <DistanceMeters>NAN</DistanceMeters>
          </Trackpoint>
          <Trackpoint>
            <Time>2020-12-05T11:09:31.000Z</Time>
            <Position>
              <LatitudeDegrees>36.82797574438154697418212890625</LatitudeDegrees>
              <LongitudeDegrees>-4.3651463091373443603515625</LongitudeDegrees>
            </Position>
            <AltitudeMeters>719.79998779296875</AltitudeMeters>
            <DistanceMeters>NAN</DistanceMeters>
          </Trackpoint>
          <Trackpoint>
            <Time>2020-12-05T11:09:32.000Z</Time>
            <Position>
              <LatitudeDegrees>36.8279654346406459808349609375</LatitudeDegrees>
              <LongitudeDegrees>-4.36513935215771198272705078125</LongitudeDegrees>
            </Position>
            <AltitudeMeters>719.79998779296875</AltitudeMeters>
            <DistanceMeters>NAN</DistanceMeters>
          </Trackpoint>
          <Trackpoint>
            <Time>2020-12-05T11:09:33.000Z</Time>
            <Position>
              <LatitudeDegrees>36.827956549823284149169921875</LatitudeDegrees>
              <LongitudeDegrees>-4.36513264663517475128173828125</LongitudeDegrees>
            </Position>
            <AltitudeMeters>720</AltitudeMeters>
            <DistanceMeters>NAN</DistanceMeters>
          </Trackpoint>
          <Trackpoint>
            <Time>2020-12-05T11:09:34.000Z</Time>
            <Position>
              <LatitudeDegrees>36.827946491539478302001953125</LatitudeDegrees>
              <LongitudeDegrees>-4.36512812040746212005615234375</LongitudeDegrees>
            </Position>
            <AltitudeMeters>720</AltitudeMeters>
            <DistanceMeters>NAN</DistanceMeters>
          </Trackpoint>
          <Trackpoint>
            <Time>2020-12-05T11:09:35.000Z</Time>
            <Position>
              <LatitudeDegrees>36.827934421598911285400390625</LatitudeDegrees>
              <LongitudeDegrees>-4.3651260249316692352294921875</LongitudeDegrees>
            </Position>
            <AltitudeMeters>720.4000244140625</AltitudeMeters>
            <DistanceMeters>NAN</DistanceMeters>
          </Trackpoint>
          <Trackpoint>
            <Time>2020-12-05T11:09:36.000Z</Time>
            <Position>
              <LatitudeDegrees>36.8279228545725345611572265625</LatitudeDegrees>
              <LongitudeDegrees>-4.36512594111263751983642578125</LongitudeDegrees>
            </Position>
            <AltitudeMeters>720.4000244140625</AltitudeMeters>
            <DistanceMeters>NAN</DistanceMeters>
          </Trackpoint>
          <Trackpoint>
            <Time>2020-12-05T11:09:37.000Z</Time>
            <Position>
              <LatitudeDegrees>36.8279114551842212677001953125</LatitudeDegrees>
              <LongitudeDegrees>-4.3651209957897663116455078125</LongitudeDegrees>
            </Position>
            <AltitudeMeters>720.79998779296875</AltitudeMeters>
            <DistanceMeters>NAN</DistanceMeters>
          </Trackpoint>
          <Trackpoint>
            <Time>2020-12-05T11:09:38.000Z</Time>
            <Position>
              <LatitudeDegrees>36.82789854705333709716796875</LatitudeDegrees>
              <LongitudeDegrees>-4.365119151771068572998046875</LongitudeDegrees>
            </Position>
            <AltitudeMeters>720.79998779296875</AltitudeMeters>
            <DistanceMeters>NAN</DistanceMeters>
          </Trackpoint>
          <Trackpoint>
            <Time>2020-12-05T11:09:39.000Z</Time>
            <Position>
              <LatitudeDegrees>36.82788169942796230316162109375</LatitudeDegrees>
              <LongitudeDegrees>-4.36511403881013393402099609375</LongitudeDegrees>
            </Position>
            <AltitudeMeters>721</AltitudeMeters>
            <DistanceMeters>NAN</DistanceMeters>
          </Trackpoint>
          <Trackpoint>
            <Time>2020-12-05T11:09:40.000Z</Time>
            <Position>
              <LatitudeDegrees>36.82786325924098491668701171875</LatitudeDegrees>
              <LongitudeDegrees>-4.36510917730629444122314453125</LongitudeDegrees>
            </Position>
            <AltitudeMeters>721.20001220703125</AltitudeMeters>
            <DistanceMeters>NAN</DistanceMeters>
          </Trackpoint>
          <Trackpoint>
            <Time>2020-12-05T11:09:41.000Z</Time>
            <Position>
              <LatitudeDegrees>36.827847920358180999755859375</LatitudeDegrees>
              <LongitudeDegrees>-4.36510984785854816436767578125</LongitudeDegrees>
            </Position>
            <AltitudeMeters>721.20001220703125</AltitudeMeters>
            <DistanceMeters>NAN</DistanceMeters>
          </Trackpoint>
          <Trackpoint>
            <Time>2020-12-05T11:09:42.000Z</Time>
            <Position>
              <LatitudeDegrees>36.82783358730375766754150390625</LatitudeDegrees>
              <LongitudeDegrees>-4.36510783620178699493408203125</LongitudeDegrees>
            </Position>
            <AltitudeMeters>721.20001220703125</AltitudeMeters>
            <DistanceMeters>NAN</DistanceMeters>
          </Trackpoint>
          <Trackpoint>
            <Time>2020-12-05T11:09:43.000Z</Time>
            <Position>
              <LatitudeDegrees>36.827819086611270904541015625</LatitudeDegrees>
              <LongitudeDegrees>-4.365106411278247833251953125</LongitudeDegrees>
            </Position>
            <AltitudeMeters>721.4000244140625</AltitudeMeters>
            <DistanceMeters>NAN</DistanceMeters>
          </Trackpoint>
          <Trackpoint>
            <Time>2020-12-05T11:09:44.000Z</Time>
            <Position>
              <LatitudeDegrees>36.82780391536653041839599609375</LatitudeDegrees>
              <LongitudeDegrees>-4.36509677208960056304931640625</LongitudeDegrees>
            </Position>
            <AltitudeMeters>721.4000244140625</AltitudeMeters>
            <DistanceMeters>NAN</DistanceMeters>
          </Trackpoint>
          <Trackpoint>
            <Time>2020-12-05T11:09:45.000Z</Time>
            <Position>
              <LatitudeDegrees>36.8277879059314727783203125</LatitudeDegrees>
              <LongitudeDegrees>-4.3650953471660614013671875</LongitudeDegrees>
            </Position>
            <AltitudeMeters>721.4000244140625</AltitudeMeters>
            <DistanceMeters>NAN</DistanceMeters>
          </Trackpoint>
          <Trackpoint>
            <Time>2020-12-05T11:09:46.000Z</Time>
            <Position>
              <LatitudeDegrees>36.827773153781890869140625</LatitudeDegrees>
              <LongitudeDegrees>-4.3650913238525390625</LongitudeDegrees>
            </Position>
            <AltitudeMeters>721.4000244140625</AltitudeMeters>
            <DistanceMeters>NAN</DistanceMeters>
          </Trackpoint>
          <Trackpoint>
            <Time>2020-12-05T11:09:47.000Z</Time>
            <Position>
              <LatitudeDegrees>36.82776066474616527557373046875</LatitudeDegrees>
              <LongitudeDegrees>-4.36509140767157077789306640625</LongitudeDegrees>
            </Position>
            <AltitudeMeters>721.5999755859375</AltitudeMeters>
            <DistanceMeters>NAN</DistanceMeters>
          </Trackpoint>
          <Trackpoint>
            <Time>2020-12-05T11:09:48.000Z</Time>
            <Position>
              <LatitudeDegrees>36.82774859480559825897216796875</LatitudeDegrees>
              <LongitudeDegrees>-4.36509140767157077789306640625</LongitudeDegrees>
            </Position>
            <AltitudeMeters>721.5999755859375</AltitudeMeters>
            <DistanceMeters>NAN</DistanceMeters>
          </Trackpoint>
          <Trackpoint>
            <Time>2020-12-05T11:09:49.000Z</Time>
            <Position>
              <LatitudeDegrees>36.82773895561695098876953125</LatitudeDegrees>
              <LongitudeDegrees>-4.3650899827480316162109375</LongitudeDegrees>
            </Position>
            <AltitudeMeters>721.79998779296875</AltitudeMeters>
            <DistanceMeters>NAN</DistanceMeters>
          </Trackpoint>
          <Trackpoint>
            <Time>2020-12-05T11:09:50.000Z</Time>
            <Position>
              <LatitudeDegrees>36.82772764004766941070556640625</LatitudeDegrees>
              <LongitudeDegrees>-4.36508738435804843902587890625</LongitudeDegrees>
            </Position>
            <AltitudeMeters>721.79998779296875</AltitudeMeters>
            <DistanceMeters>NAN</DistanceMeters>
          </Trackpoint>
          <Trackpoint>
            <Time>2020-12-05T11:09:51.000Z</Time>
            <Position>
              <LatitudeDegrees>36.82771607302129268646240234375</LatitudeDegrees>
              <LongitudeDegrees>-4.36508637852966785430908203125</LongitudeDegrees>
            </Position>
            <AltitudeMeters>722</AltitudeMeters>
            <DistanceMeters>NAN</DistanceMeters>
          </Trackpoint>
          <Trackpoint>
            <Time>2020-12-05T11:09:52.000Z</Time>
            <Position>
              <LatitudeDegrees>36.82770408689975738525390625</LatitudeDegrees>
              <LongitudeDegrees>-4.3650894798338413238525390625</LongitudeDegrees>
            </Position>
            <AltitudeMeters>722</AltitudeMeters>
            <DistanceMeters>NAN</DistanceMeters>
          </Trackpoint>
          <Trackpoint>
            <Time>2020-12-05T11:09:53.000Z</Time>
            <Position>
              <LatitudeDegrees>36.827691011130809783935546875</LatitudeDegrees>
              <LongitudeDegrees>-4.3650941736996173858642578125</LongitudeDegrees>
            </Position>
            <AltitudeMeters>722.20001220703125</AltitudeMeters>
            <DistanceMeters>NAN</DistanceMeters>
          </Trackpoint>
          <Trackpoint>
            <Time>2020-12-05T11:09:54.000Z</Time>
            <Position>
              <LatitudeDegrees>36.82767718099057674407958984375</LatitudeDegrees>
              <LongitudeDegrees>-4.36509735882282257080078125</LongitudeDegrees>
            </Position>
            <AltitudeMeters>722.20001220703125</AltitudeMeters>
            <DistanceMeters>NAN</DistanceMeters>
          </Trackpoint>
          <Trackpoint>
            <Time>2020-12-05T11:09:55.000Z</Time>
            <Position>
              <LatitudeDegrees>36.8276673741638660430908203125</LatitudeDegrees>
              <LongitudeDegrees>-4.3651022203266620635986328125</LongitudeDegrees>
            </Position>
            <AltitudeMeters>722.20001220703125</AltitudeMeters>
            <DistanceMeters>NAN</DistanceMeters>
          </Trackpoint>
          <Trackpoint>
            <Time>2020-12-05T11:09:56.000Z</Time>
            <Position>
              <LatitudeDegrees>36.82765756733715534210205078125</LatitudeDegrees>
              <LongitudeDegrees>-4.36510297469794750213623046875</LongitudeDegrees>
            </Position>
            <AltitudeMeters>722</AltitudeMeters>
            <DistanceMeters>NAN</DistanceMeters>
          </Trackpoint>
          <Trackpoint>
            <Time>2020-12-05T11:09:57.000Z</Time>
            <Position>
              <LatitudeDegrees>36.8276472575962543487548828125</LatitudeDegrees>
              <LongitudeDegrees>-4.3650975264608860015869140625</LongitudeDegrees>
            </Position>
            <AltitudeMeters>722</AltitudeMeters>
            <DistanceMeters>NAN</DistanceMeters>
          </Trackpoint>
          <Trackpoint>
            <Time>2020-12-05T11:09:58.000Z</Time>
            <Position>
              <LatitudeDegrees>36.827641390264034271240234375</LatitudeDegrees>
              <LongitudeDegrees>-4.365094006061553955078125</LongitudeDegrees>
            </Position>
            <AltitudeMeters>722.20001220703125</AltitudeMeters>
            <DistanceMeters>NAN</DistanceMeters>
          </Trackpoint>
          <Trackpoint>
            <Time>2020-12-05T11:09:59.000Z</Time>
            <Position>
              <LatitudeDegrees>36.82764013297855854034423828125</LatitudeDegrees>
              <LongitudeDegrees>-4.36508554033935070037841796875</LongitudeDegrees>
            </Position>
            <AltitudeMeters>722.20001220703125</AltitudeMeters>
            <DistanceMeters>NAN</DistanceMeters>
          </Trackpoint>
          <Trackpoint>
            <Time>2020-12-05T11:10:00.000Z</Time>
            <Position>
              <LatitudeDegrees>36.827630661427974700927734375</LatitudeDegrees>
              <LongitudeDegrees>-4.36507095582783222198486328125</LongitudeDegrees>
            </Position>
            <AltitudeMeters>722.20001220703125</AltitudeMeters>
            <DistanceMeters>NAN</DistanceMeters>
          </Trackpoint>
          <Trackpoint>
            <Time>2020-12-05T11:10:01.000Z</Time>
            <Position>
              <LatitudeDegrees>36.827619932591915130615234375</LatitudeDegrees>
              <LongitudeDegrees>-4.3650576286017894744873046875</LongitudeDegrees>
            </Position>
            <AltitudeMeters>722.4000244140625</AltitudeMeters>
            <DistanceMeters>NAN</DistanceMeters>
          </Trackpoint>
          <Trackpoint>
            <Time>2020-12-05T11:10:02.000Z</Time>
            <Position>
              <LatitudeDegrees>36.82761029340326786041259765625</LatitudeDegrees>
              <LongitudeDegrees>-4.36504949815571308135986328125</LongitudeDegrees>
            </Position>
            <AltitudeMeters>722.5999755859375</AltitudeMeters>
            <DistanceMeters>NAN</DistanceMeters>
          </Trackpoint>
          <Trackpoint>
            <Time>2020-12-05T11:10:03.000Z</Time>
            <Position>
              <LatitudeDegrees>36.82760191150009632110595703125</LatitudeDegrees>
              <LongitudeDegrees>-4.36504329554736614227294921875</LongitudeDegrees>
            </Position>
            <AltitudeMeters>722.5999755859375</AltitudeMeters>
            <DistanceMeters>NAN</DistanceMeters>
          </Trackpoint>
          <Trackpoint>
            <Time>2020-12-05T11:10:04.000Z</Time>
            <Position>
              <LatitudeDegrees>36.82759067974984645843505859375</LatitudeDegrees>
              <LongitudeDegrees>-4.3650344945490360260009765625</LongitudeDegrees>
            </Position>
            <AltitudeMeters>722.79998779296875</AltitudeMeters>
            <DistanceMeters>NAN</DistanceMeters>
          </Trackpoint>
          <Trackpoint>
            <Time>2020-12-05T11:10:05.000Z</Time>
            <Position>
              <LatitudeDegrees>36.82757492177188396453857421875</LatitudeDegrees>
              <LongitudeDegrees>-4.365019910037517547607421875</LongitudeDegrees>
            </Position>
            <AltitudeMeters>722.79998779296875</AltitudeMeters>
            <DistanceMeters>NAN</DistanceMeters>
          </Trackpoint>
          <Trackpoint>
            <Time>2020-12-05T11:10:06.000Z</Time>
            <Position>
              <LatitudeDegrees>36.82756369002163410186767578125</LatitudeDegrees>
              <LongitudeDegrees>-4.3650090135633945465087890625</LongitudeDegrees>
            </Position>
            <AltitudeMeters>723</AltitudeMeters>
            <DistanceMeters>NAN</DistanceMeters>
          </Trackpoint>
          <Trackpoint>
            <Time>2020-12-05T11:10:07.000Z</Time>
            <Position>
              <LatitudeDegrees>36.82755388319492340087890625</LatitudeDegrees>
              <LongitudeDegrees>-4.36500339768826961517333984375</LongitudeDegrees>
            </Position>
            <AltitudeMeters>723</AltitudeMeters>
            <DistanceMeters>NAN</DistanceMeters>
          </Trackpoint>
          <Trackpoint>
            <Time>2020-12-05T11:10:08.000Z</Time>
            <Position>
              <LatitudeDegrees>36.827544160187244415283203125</LatitudeDegrees>
              <LongitudeDegrees>-4.36499602161347866058349609375</LongitudeDegrees>
            </Position>
            <AltitudeMeters>723.20001220703125</AltitudeMeters>
            <DistanceMeters>NAN</DistanceMeters>
          </Trackpoint>
          <Trackpoint>
            <Time>2020-12-05T11:10:09.000Z</Time>
            <Position>
              <LatitudeDegrees>36.82753636501729488372802734375</LatitudeDegrees>
              <LongitudeDegrees>-4.36498747207224369049072265625</LongitudeDegrees>
            </Position>
            <AltitudeMeters>723.4000244140625</AltitudeMeters>
            <DistanceMeters>NAN</DistanceMeters>
          </Trackpoint>
          <Trackpoint>
            <Time>2020-12-05T11:10:10.000Z</Time>
            <Position>
              <LatitudeDegrees>36.827527396380901336669921875</LatitudeDegrees>
              <LongitudeDegrees>-4.3649808503687381744384765625</LongitudeDegrees>
            </Position>
            <AltitudeMeters>723.4000244140625</AltitudeMeters>
            <DistanceMeters>NAN</DistanceMeters>
          </Trackpoint>
          <Trackpoint>
            <Time>2020-12-05T11:10:11.000Z</Time>
            <Position>
              <LatitudeDegrees>36.827520020306110382080078125</LatitudeDegrees>
              <LongitudeDegrees>-4.364975988864898681640625</LongitudeDegrees>
            </Position>
            <AltitudeMeters>723.4000244140625</AltitudeMeters>
            <DistanceMeters>NAN</DistanceMeters>
          </Trackpoint>
          <Trackpoint>
            <Time>2020-12-05T11:10:12.000Z</Time>
            <Position>
              <LatitudeDegrees>36.82751038111746311187744140625</LatitudeDegrees>
              <LongitudeDegrees>-4.36497204937040805816650390625</LongitudeDegrees>
            </Position>
            <AltitudeMeters>723.4000244140625</AltitudeMeters>
            <DistanceMeters>NAN</DistanceMeters>
          </Trackpoint>
          <Trackpoint>
            <Time>2020-12-05T11:10:13.000Z</Time>
            <Position>
              <LatitudeDegrees>36.82750283740460872650146484375</LatitudeDegrees>
              <LongitudeDegrees>-4.36496400274336338043212890625</LongitudeDegrees>
            </Position>
            <AltitudeMeters>723.4000244140625</AltitudeMeters>
            <DistanceMeters>NAN</DistanceMeters>
          </Trackpoint>
          <Trackpoint>
            <Time>2020-12-05T11:10:14.000Z</Time>
            <Position>
              <LatitudeDegrees>36.8274923600256443023681640625</LatitudeDegrees>
              <LongitudeDegrees>-4.36495386064052581787109375</LongitudeDegrees>
            </Position>
            <AltitudeMeters>723.4000244140625</AltitudeMeters>
            <DistanceMeters>NAN</DistanceMeters>
          </Trackpoint>
          <Trackpoint>
            <Time>2020-12-05T11:10:15.000Z</Time>
            <Position>
              <LatitudeDegrees>36.82748389430344104766845703125</LatitudeDegrees>
              <LongitudeDegrees>-4.364944137632846832275390625</LongitudeDegrees>
            </Position>
            <AltitudeMeters>723.5999755859375</AltitudeMeters>
            <DistanceMeters>NAN</DistanceMeters>
          </Trackpoint>
          <Trackpoint>
            <Time>2020-12-05T11:10:16.000Z</Time>
            <Position>
              <LatitudeDegrees>36.82747350074350833892822265625</LatitudeDegrees>
              <LongitudeDegrees>-4.3649369291961193084716796875</LongitudeDegrees>
            </Position>
            <AltitudeMeters>723.5999755859375</AltitudeMeters>
            <DistanceMeters>NAN</DistanceMeters>
          </Trackpoint>
          <Trackpoint>
            <Time>2020-12-05T11:10:17.000Z</Time>
            <Position>
              <LatitudeDegrees>36.82746210135519504547119140625</LatitudeDegrees>
              <LongitudeDegrees>-4.36493030749261379241943359375</LongitudeDegrees>
            </Position>
            <AltitudeMeters>723.5999755859375</AltitudeMeters>
            <DistanceMeters>NAN</DistanceMeters>
          </Trackpoint>
          <Trackpoint>
            <Time>2020-12-05T11:10:18.000Z</Time>
            <Position>
              <LatitudeDegrees>36.82745170779526233673095703125</LatitudeDegrees>
              <LongitudeDegrees>-4.36492435634136199951171875</LongitudeDegrees>
            </Position>
            <AltitudeMeters>723.5999755859375</AltitudeMeters>
            <DistanceMeters>NAN</DistanceMeters>
          </Trackpoint>
          <Trackpoint>
            <Time>2020-12-05T11:10:19.000Z</Time>
            <Position>
              <LatitudeDegrees>36.82744164951145648956298828125</LatitudeDegrees>
              <LongitudeDegrees>-4.36491890810430049896240234375</LongitudeDegrees>
            </Position>
            <AltitudeMeters>723.5999755859375</AltitudeMeters>
            <DistanceMeters>NAN</DistanceMeters>
          </Trackpoint>
          <Trackpoint>
            <Time>2020-12-05T11:10:20.000Z</Time>
            <Position>
              <LatitudeDegrees>36.82743125595152378082275390625</LatitudeDegrees>
              <LongitudeDegrees>-4.3649154715240001678466796875</LongitudeDegrees>
            </Position>
            <AltitudeMeters>723.5999755859375</AltitudeMeters>
            <DistanceMeters>NAN</DistanceMeters>
          </Trackpoint>
          <Trackpoint>
            <Time>2020-12-05T11:10:21.000Z</Time>
            <Position>
              <LatitudeDegrees>36.82742220349609851837158203125</LatitudeDegrees>
              <LongitudeDegrees>-4.36491270549595355987548828125</LongitudeDegrees>
            </Position>
            <AltitudeMeters>723.5999755859375</AltitudeMeters>
            <DistanceMeters>NAN</DistanceMeters>
          </Trackpoint>
          <Trackpoint>
            <Time>2020-12-05T11:10:22.000Z</Time>
            <Position>
              <LatitudeDegrees>36.8274102173745632171630859375</LatitudeDegrees>
              <LongitudeDegrees>-4.36491102911531925201416015625</LongitudeDegrees>
            </Position>
            <AltitudeMeters>723.4000244140625</AltitudeMeters>
            <DistanceMeters>NAN</DistanceMeters>
          </Trackpoint>
          <Trackpoint>
            <Time>2020-12-05T11:10:23.000Z</Time>
            <Position>
              <LatitudeDegrees>36.8273978121578693389892578125</LatitudeDegrees>
              <LongitudeDegrees>-4.3649107776582241058349609375</LongitudeDegrees>
            </Position>
            <AltitudeMeters>723.4000244140625</AltitudeMeters>
            <DistanceMeters>NAN</DistanceMeters>
          </Trackpoint>
          <Trackpoint>
            <Time>2020-12-05T11:10:24.000Z</Time>
            <Position>
              <LatitudeDegrees>36.82738482020795345306396484375</LatitudeDegrees>
              <LongitudeDegrees>-4.36490918509662151336669921875</LongitudeDegrees>
            </Position>
            <AltitudeMeters>723.4000244140625</AltitudeMeters>
            <DistanceMeters>NAN</DistanceMeters>
          </Trackpoint>
          <Trackpoint>
            <Time>2020-12-05T11:10:25.000Z</Time>
            <Position>
              <LatitudeDegrees>36.8273730017244815826416015625</LatitudeDegrees>
              <LongitudeDegrees>-4.364905916154384613037109375</LongitudeDegrees>
            </Position>
            <AltitudeMeters>723.4000244140625</AltitudeMeters>
            <DistanceMeters>NAN</DistanceMeters>
          </Trackpoint>
          <Trackpoint>
            <Time>2020-12-05T11:10:26.000Z</Time>
            <Position>
              <LatitudeDegrees>36.8273599259555339813232421875</LatitudeDegrees>
              <LongitudeDegrees>-4.3649027310311794281005859375</LongitudeDegrees>
            </Position>
            <AltitudeMeters>723.5999755859375</AltitudeMeters>
            <DistanceMeters>NAN</DistanceMeters>
          </Trackpoint>
          <Trackpoint>
            <Time>2020-12-05T11:10:27.000Z</Time>
            <Position>
              <LatitudeDegrees>36.827346347272396087646484375</LatitudeDegrees>
              <LongitudeDegrees>-4.36490080319344997406005859375</LongitudeDegrees>
            </Position>
            <AltitudeMeters>723.5999755859375</AltitudeMeters>
            <DistanceMeters>NAN</DistanceMeters>
          </Trackpoint>
          <Trackpoint>
            <Time>2020-12-05T11:10:28.000Z</Time>
            <Position>
              <LatitudeDegrees>36.82733125984668731689453125</LatitudeDegrees>
              <LongitudeDegrees>-4.3648990429937839508056640625</LongitudeDegrees>
            </Position>
            <AltitudeMeters>723.79998779296875</AltitudeMeters>
            <DistanceMeters>NAN</DistanceMeters>
          </Trackpoint>
          <Trackpoint>
            <Time>2020-12-05T11:10:29.000Z</Time>
            <Position>
              <LatitudeDegrees>36.8273136578500270843505859375</LatitudeDegrees>
              <LongitudeDegrees>-4.36489979736506938934326171875</LongitudeDegrees>
            </Position>
            <AltitudeMeters>724</AltitudeMeters>
            <DistanceMeters>NAN</DistanceMeters>
          </Trackpoint>
          <Trackpoint>
            <Time>2020-12-05T11:10:30.000Z</Time>
            <Position>
              <LatitudeDegrees>36.82729932479560375213623046875</LatitudeDegrees>
              <LongitudeDegrees>-4.36489895917475223541259765625</LongitudeDegrees>
            </Position>
            <AltitudeMeters>724.20001220703125</AltitudeMeters>
            <DistanceMeters>NAN</DistanceMeters>
          </Trackpoint>
          <Trackpoint>
            <Time>2020-12-05T11:10:31.000Z</Time>
            <Position>
              <LatitudeDegrees>36.82728675194084644317626953125</LatitudeDegrees>
              <LongitudeDegrees>-4.36489845626056194305419921875</LongitudeDegrees>
            </Position>
            <AltitudeMeters>724.20001220703125</AltitudeMeters>
            <DistanceMeters>NAN</DistanceMeters>
          </Trackpoint>
          <Trackpoint>
            <Time>2020-12-05T11:10:32.000Z</Time>
            <Position>
              <LatitudeDegrees>36.82727334089577198028564453125</LatitudeDegrees>
              <LongitudeDegrees>-4.36489627696573734283447265625</LongitudeDegrees>
            </Position>
            <AltitudeMeters>724.4000244140625</AltitudeMeters>
            <DistanceMeters>NAN</DistanceMeters>
          </Trackpoint>
          <Trackpoint>
            <Time>2020-12-05T11:10:33.000Z</Time>
            <Position>
              <LatitudeDegrees>36.8272620253264904022216796875</LatitudeDegrees>
              <LongitudeDegrees>-4.3648946844041347503662109375</LongitudeDegrees>
            </Position>
            <AltitudeMeters>724.4000244140625</AltitudeMeters>
            <DistanceMeters>NAN</DistanceMeters>
          </Trackpoint>
          <Trackpoint>
            <Time>2020-12-05T11:10:34.000Z</Time>
            <Position>
              <LatitudeDegrees>36.82725079357624053955078125</LatitudeDegrees>
              <LongitudeDegrees>-4.3648926727473735809326171875</LongitudeDegrees>
            </Position>
            <AltitudeMeters>724.4000244140625</AltitudeMeters>
            <DistanceMeters>NAN</DistanceMeters>
          </Trackpoint>
          <Trackpoint>
            <Time>2020-12-05T11:10:35.000Z</Time>
            <Position>
              <LatitudeDegrees>36.8272405676543712615966796875</LatitudeDegrees>
              <LongitudeDegrees>-4.36489325948059558868408203125</LongitudeDegrees>
            </Position>
            <AltitudeMeters>724.4000244140625</AltitudeMeters>
            <DistanceMeters>NAN</DistanceMeters>
          </Trackpoint>
          <Trackpoint>
            <Time>2020-12-05T11:10:36.000Z</Time>
            <Position>
              <LatitudeDegrees>36.827231347560882568359375</LatitudeDegrees>
              <LongitudeDegrees>-4.364896528422832489013671875</LongitudeDegrees>
            </Position>
            <AltitudeMeters>724.4000244140625</AltitudeMeters>
            <DistanceMeters>NAN</DistanceMeters>
          </Trackpoint>
          <Trackpoint>
            <Time>2020-12-05T11:10:37.000Z</Time>
            <Position>
              <LatitudeDegrees>36.82722204364836215972900390625</LatitudeDegrees>
              <LongitudeDegrees>-4.3649007193744182586669921875</LongitudeDegrees>
            </Position>
            <AltitudeMeters>724.4000244140625</AltitudeMeters>
            <DistanceMeters>NAN</DistanceMeters>
          </Trackpoint>
          <Trackpoint>
            <Time>2020-12-05T11:10:38.000Z</Time>
            <Position>
              <LatitudeDegrees>36.82721382938325405120849609375</LatitudeDegrees>
              <LongitudeDegrees>-4.36490516178309917449951171875</LongitudeDegrees>
            </Position>
            <AltitudeMeters>724.4000244140625</AltitudeMeters>
            <DistanceMeters>NAN</DistanceMeters>
          </Trackpoint>
          <Trackpoint>
            <Time>2020-12-05T11:10:39.000Z</Time>
            <Position>
              <LatitudeDegrees>36.82720561511814594268798828125</LatitudeDegrees>
              <LongitudeDegrees>-4.3649127893149852752685546875</LongitudeDegrees>
            </Position>
            <AltitudeMeters>724.4000244140625</AltitudeMeters>
            <DistanceMeters>NAN</DistanceMeters>
          </Trackpoint>
          <Trackpoint>
            <Time>2020-12-05T11:10:40.000Z</Time>
            <Position>
              <LatitudeDegrees>36.82719446718692779541015625</LatitudeDegrees>
              <LongitudeDegrees>-4.36491890810430049896240234375</LongitudeDegrees>
            </Position>
            <AltitudeMeters>724.5999755859375</AltitudeMeters>
            <DistanceMeters>NAN</DistanceMeters>
          </Trackpoint>
          <Trackpoint>
            <Time>2020-12-05T11:10:41.000Z</Time>
            <Position>
              <LatitudeDegrees>36.82718281634151935577392578125</LatitudeDegrees>
              <LongitudeDegrees>-4.364926032721996307373046875</LongitudeDegrees>
            </Position>
            <AltitudeMeters>724.5999755859375</AltitudeMeters>
            <DistanceMeters>NAN</DistanceMeters>
          </Trackpoint>
          <Trackpoint>
            <Time>2020-12-05T11:10:42.000Z</Time>
            <Position>
              <LatitudeDegrees>36.827166974544525146484375</LatitudeDegrees>
              <LongitudeDegrees>-4.36492980457842350006103515625</LongitudeDegrees>
            </Position>
            <AltitudeMeters>724.79998779296875</AltitudeMeters>
            <DistanceMeters>NAN</DistanceMeters>
          </Trackpoint>
          <Trackpoint>
            <Time>2020-12-05T11:10:43.000Z</Time>
            <Position>
              <LatitudeDegrees>36.82715062983334064483642578125</LatitudeDegrees>
              <LongitudeDegrees>-4.364926703274250030517578125</LongitudeDegrees>
            </Position>
            <AltitudeMeters>724.79998779296875</AltitudeMeters>
            <DistanceMeters>NAN</DistanceMeters>
          </Trackpoint>
          <Trackpoint>
            <Time>2020-12-05T11:10:44.000Z</Time>
            <Position>
              <LatitudeDegrees>36.82713721878826618194580078125</LatitudeDegrees>
              <LongitudeDegrees>-4.364929385483264923095703125</LongitudeDegrees>
            </Position>
            <AltitudeMeters>725</AltitudeMeters>
            <DistanceMeters>NAN</DistanceMeters>
          </Trackpoint>
          <Trackpoint>
            <Time>2020-12-05T11:10:45.000Z</Time>
            <Position>
              <LatitudeDegrees>36.82712397538125514984130859375</LatitudeDegrees>
              <LongitudeDegrees>-4.36492863111197948455810546875</LongitudeDegrees>
            </Position>
            <AltitudeMeters>725</AltitudeMeters>
            <DistanceMeters>NAN</DistanceMeters>
          </Trackpoint>
          <Trackpoint>
            <Time>2020-12-05T11:10:46.000Z</Time>
            <Position>
              <LatitudeDegrees>36.82711073197424411773681640625</LatitudeDegrees>
              <LongitudeDegrees>-4.36492946930229663848876953125</LongitudeDegrees>
            </Position>
            <AltitudeMeters>725.20001220703125</AltitudeMeters>
            <DistanceMeters>NAN</DistanceMeters>
          </Trackpoint>
          <Trackpoint>
            <Time>2020-12-05T11:10:47.000Z</Time>
            <Position>
              <LatitudeDegrees>36.82709899730980396270751953125</LatitudeDegrees>
              <LongitudeDegrees>-4.36492946930229663848876953125</LongitudeDegrees>
            </Position>
            <AltitudeMeters>725.4000244140625</AltitudeMeters>
            <DistanceMeters>NAN</DistanceMeters>
          </Trackpoint>
          <Trackpoint>
            <Time>2020-12-05T11:10:48.000Z</Time>
            <Position>
              <LatitudeDegrees>36.8270856700837612152099609375</LatitudeDegrees>
              <LongitudeDegrees>-4.364927373826503753662109375</LongitudeDegrees>
            </Position>
            <AltitudeMeters>725.4000244140625</AltitudeMeters>
            <DistanceMeters>NAN</DistanceMeters>
          </Trackpoint>
          <Trackpoint>
            <Time>2020-12-05T11:10:49.000Z</Time>
            <Position>
              <LatitudeDegrees>36.82707301340997219085693359375</LatitudeDegrees>
              <LongitudeDegrees>-4.364926032721996307373046875</LongitudeDegrees>
            </Position>
            <AltitudeMeters>725.5999755859375</AltitudeMeters>
            <DistanceMeters>NAN</DistanceMeters>
          </Trackpoint>
          <Trackpoint>
            <Time>2020-12-05T11:10:50.000Z</Time>
            <Position>
              <LatitudeDegrees>36.82705960236489772796630859375</LatitudeDegrees>
              <LongitudeDegrees>-4.364934749901294708251953125</LongitudeDegrees>
            </Position>
            <AltitudeMeters>725.5999755859375</AltitudeMeters>
            <DistanceMeters>NAN</DistanceMeters>
          </Trackpoint>
          <Trackpoint>
            <Time>2020-12-05T11:10:51.000Z</Time>
            <Position>
              <LatitudeDegrees>36.827045939862728118896484375</LatitudeDegrees>
              <LongitudeDegrees>-4.3649365939199924468994140625</LongitudeDegrees>
            </Position>
            <AltitudeMeters>725.5999755859375</AltitudeMeters>
            <DistanceMeters>NAN</DistanceMeters>
          </Trackpoint>
          <Trackpoint>
            <Time>2020-12-05T11:10:52.000Z</Time>
            <Position>
              <LatitudeDegrees>36.8270350433886051177978515625</LatitudeDegrees>
              <LongitudeDegrees>-4.3649322353303432464599609375</LongitudeDegrees>
            </Position>
            <AltitudeMeters>725.5999755859375</AltitudeMeters>
            <DistanceMeters>NAN</DistanceMeters>
          </Trackpoint>
          <Trackpoint>
            <Time>2020-12-05T11:10:53.000Z</Time>
            <Position>
              <LatitudeDegrees>36.82702691294252872467041015625</LatitudeDegrees>
              <LongitudeDegrees>-4.36493298970162868499755859375</LongitudeDegrees>
            </Position>
            <AltitudeMeters>725.5999755859375</AltitudeMeters>
            <DistanceMeters>NAN</DistanceMeters>
          </Trackpoint>
          <Trackpoint>
            <Time>2020-12-05T11:10:54.000Z</Time>
            <Position>
              <LatitudeDegrees>36.8270192854106426239013671875</LatitudeDegrees>
              <LongitudeDegrees>-4.3649303913116455078125</LongitudeDegrees>
            </Position>
            <AltitudeMeters>725.5999755859375</AltitudeMeters>
            <DistanceMeters>NAN</DistanceMeters>
          </Trackpoint>
          <Trackpoint>
            <Time>2020-12-05T11:10:55.000Z</Time>
            <Position>
              <LatitudeDegrees>36.82701467536389827728271484375</LatitudeDegrees>
              <LongitudeDegrees>-4.3649282120168209075927734375</LongitudeDegrees>
            </Position>
            <AltitudeMeters>725.5999755859375</AltitudeMeters>
            <DistanceMeters>NAN</DistanceMeters>
          </Trackpoint>
          <Trackpoint>
            <Time>2020-12-05T11:10:56.000Z</Time>
            <Position>
              <LatitudeDegrees>36.82701333425939083099365234375</LatitudeDegrees>
              <LongitudeDegrees>-4.36492494307458400726318359375</LongitudeDegrees>
            </Position>
            <AltitudeMeters>725.79998779296875</AltitudeMeters>
            <DistanceMeters>NAN</DistanceMeters>
          </Trackpoint>
          <Trackpoint>
            <Time>2020-12-05T11:10:57.000Z</Time>
            <Position>
              <LatitudeDegrees>36.827008388936519622802734375</LatitudeDegrees>
              <LongitudeDegrees>-4.3649205006659030914306640625</LongitudeDegrees>
            </Position>
            <AltitudeMeters>725.5999755859375</AltitudeMeters>
            <DistanceMeters>NAN</DistanceMeters>
          </Trackpoint>
          <Trackpoint>
            <Time>2020-12-05T11:10:58.000Z</Time>
            <Position>
              <LatitudeDegrees>36.82700294069945812225341796875</LatitudeDegrees>
              <LongitudeDegrees>-4.36491924338042736053466796875</LongitudeDegrees>
            </Position>
            <AltitudeMeters>725.5999755859375</AltitudeMeters>
            <DistanceMeters>NAN</DistanceMeters>
          </Trackpoint>
          <Trackpoint>
            <Time>2020-12-05T11:10:59.000Z</Time>
            <Position>
              <LatitudeDegrees>36.82699598371982574462890625</LatitudeDegrees>
              <LongitudeDegrees>-4.36491723172366619110107421875</LongitudeDegrees>
            </Position>
            <AltitudeMeters>725.5999755859375</AltitudeMeters>
            <DistanceMeters>NAN</DistanceMeters>
          </Trackpoint>
          <Trackpoint>
            <Time>2020-12-05T11:11:00.000Z</Time>
            <Position>
              <LatitudeDegrees>36.82699053548276424407958984375</LatitudeDegrees>
              <LongitudeDegrees>-4.36491656117141246795654296875</LongitudeDegrees>
            </Position>
            <AltitudeMeters>725.79998779296875</AltitudeMeters>
            <DistanceMeters>NAN</DistanceMeters>
          </Trackpoint>
          <Trackpoint>
            <Time>2020-12-05T11:11:01.000Z</Time>
            <Position>
              <LatitudeDegrees>36.82698450051248073577880859375</LatitudeDegrees>
              <LongitudeDegrees>-4.364917986094951629638671875</LongitudeDegrees>
            </Position>
            <AltitudeMeters>725.79998779296875</AltitudeMeters>
            <DistanceMeters>NAN</DistanceMeters>
          </Trackpoint>
          <Trackpoint>
            <Time>2020-12-05T11:11:02.000Z</Time>
            <Position>
              <LatitudeDegrees>36.8269773758947849273681640625</LatitudeDegrees>
              <LongitudeDegrees>-4.36491790227591991424560546875</LongitudeDegrees>
            </Position>
            <AltitudeMeters>725.79998779296875</AltitudeMeters>
            <DistanceMeters>NAN</DistanceMeters>
          </Trackpoint>
          <Trackpoint>
            <Time>2020-12-05T11:11:03.000Z</Time>
            <Position>
              <LatitudeDegrees>36.82697075419127941131591796875</LatitudeDegrees>
              <LongitudeDegrees>-4.3649183213710784912109375</LongitudeDegrees>
            </Position>
            <AltitudeMeters>725.79998779296875</AltitudeMeters>
            <DistanceMeters>NAN</DistanceMeters>
          </Trackpoint>
          <Trackpoint>
            <Time>2020-12-05T11:11:04.000Z</Time>
            <Position>
              <LatitudeDegrees>36.8269617855548858642578125</LatitudeDegrees>
              <LongitudeDegrees>-4.3649144656956195831298828125</LongitudeDegrees>
            </Position>
            <AltitudeMeters>726</AltitudeMeters>
            <DistanceMeters>NAN</DistanceMeters>
          </Trackpoint>
          <Trackpoint>
            <Time>2020-12-05T11:11:05.000Z</Time>
            <Position>
              <LatitudeDegrees>36.8269535712897777557373046875</LatitudeDegrees>
              <LongitudeDegrees>-4.36491002328693866729736328125</LongitudeDegrees>
            </Position>
            <AltitudeMeters>726.20001220703125</AltitudeMeters>
            <DistanceMeters>NAN</DistanceMeters>
          </Trackpoint>
          <Trackpoint>
            <Time>2020-12-05T11:11:06.000Z</Time>
            <Position>
              <LatitudeDegrees>36.8269445188343524932861328125</LatitudeDegrees>
              <LongitudeDegrees>-4.36490465886890888214111328125</LongitudeDegrees>
            </Position>
            <AltitudeMeters>726.4000244140625</AltitudeMeters>
            <DistanceMeters>NAN</DistanceMeters>
          </Trackpoint>
          <Trackpoint>
            <Time>2020-12-05T11:11:07.000Z</Time>
            <Position>
              <LatitudeDegrees>36.82693454436957836151123046875</LatitudeDegrees>
              <LongitudeDegrees>-4.3648987077176570892333984375</LongitudeDegrees>
            </Position>
            <AltitudeMeters>726.5999755859375</AltitudeMeters>
            <DistanceMeters>NAN</DistanceMeters>
          </Trackpoint>
          <Trackpoint>
            <Time>2020-12-05T11:11:08.000Z</Time>
            <Position>
              <LatitudeDegrees>36.82692222297191619873046875</LatitudeDegrees>
              <LongitudeDegrees>-4.36489141546189785003662109375</LongitudeDegrees>
            </Position>
            <AltitudeMeters>726.79998779296875</AltitudeMeters>
            <DistanceMeters>NAN</DistanceMeters>
          </Trackpoint>
          <Trackpoint>
            <Time>2020-12-05T11:11:09.000Z</Time>
            <Position>
              <LatitudeDegrees>36.826908476650714874267578125</LatitudeDegrees>
              <LongitudeDegrees>-4.36488186009228229522705078125</LongitudeDegrees>
            </Position>
            <AltitudeMeters>726.79998779296875</AltitudeMeters>
            <DistanceMeters>NAN</DistanceMeters>
          </Trackpoint>
          <Trackpoint>
            <Time>2020-12-05T11:11:10.000Z</Time>
            <Position>
              <LatitudeDegrees>36.82689565233886241912841796875</LatitudeDegrees>
              <LongitudeDegrees>-4.36487632803618907928466796875</LongitudeDegrees>
            </Position>
            <AltitudeMeters>727</AltitudeMeters>
            <DistanceMeters>NAN</DistanceMeters>
          </Trackpoint>
          <Trackpoint>
            <Time>2020-12-05T11:11:11.000Z</Time>
            <Position>
              <LatitudeDegrees>36.8268838338553905487060546875</LatitudeDegrees>
              <LongitudeDegrees>-4.36486777849495410919189453125</LongitudeDegrees>
            </Position>
            <AltitudeMeters>727.20001220703125</AltitudeMeters>
            <DistanceMeters>NAN</DistanceMeters>
          </Trackpoint>
          <Trackpoint>
            <Time>2020-12-05T11:11:12.000Z</Time>
            <Position>
              <LatitudeDegrees>36.8268724344670772552490234375</LatitudeDegrees>
              <LongitudeDegrees>-4.364859648048877716064453125</LongitudeDegrees>
            </Position>
            <AltitudeMeters>727.4000244140625</AltitudeMeters>
            <DistanceMeters>NAN</DistanceMeters>
          </Trackpoint>
          <Trackpoint>
            <Time>2020-12-05T11:11:13.000Z</Time>
            <Position>
              <LatitudeDegrees>36.8268627114593982696533203125</LatitudeDegrees>
              <LongitudeDegrees>-4.364855624735355377197265625</LongitudeDegrees>
            </Position>
            <AltitudeMeters>727.5999755859375</AltitudeMeters>
            <DistanceMeters>NAN</DistanceMeters>
          </Trackpoint>
          <Trackpoint>
            <Time>2020-12-05T11:11:14.000Z</Time>
            <Position>
              <LatitudeDegrees>36.82685307227075099945068359375</LatitudeDegrees>
              <LongitudeDegrees>-4.36485218815505504608154296875</LongitudeDegrees>
            </Position>
            <AltitudeMeters>727.5999755859375</AltitudeMeters>
            <DistanceMeters>NAN</DistanceMeters>
          </Trackpoint>
          <Trackpoint>
            <Time>2020-12-05T11:11:15.000Z</Time>
            <Position>
              <LatitudeDegrees>36.82684309780597686767578125</LatitudeDegrees>
              <LongitudeDegrees>-4.36484749428927898406982421875</LongitudeDegrees>
            </Position>
            <AltitudeMeters>727.79998779296875</AltitudeMeters>
            <DistanceMeters>NAN</DistanceMeters>
          </Trackpoint>
          <Trackpoint>
            <Time>2020-12-05T11:11:16.000Z</Time>
            <Position>
              <LatitudeDegrees>36.8268332071602344512939453125</LatitudeDegrees>
              <LongitudeDegrees>-4.36484212987124919891357421875</LongitudeDegrees>
            </Position>
            <AltitudeMeters>728</AltitudeMeters>
            <DistanceMeters>NAN</DistanceMeters>
          </Trackpoint>
          <Trackpoint>
            <Time>2020-12-05T11:11:17.000Z</Time>
            <Position>
              <LatitudeDegrees>36.82682289741933345794677734375</LatitudeDegrees>
              <LongitudeDegrees>-4.36483643017709255218505859375</LongitudeDegrees>
            </Position>
            <AltitudeMeters>728</AltitudeMeters>
            <DistanceMeters>NAN</DistanceMeters>
          </Trackpoint>
          <Trackpoint>
            <Time>2020-12-05T11:11:18.000Z</Time>
            <Position>
              <LatitudeDegrees>36.82681317441165447235107421875</LatitudeDegrees>
              <LongitudeDegrees>-4.36482788063585758209228515625</LongitudeDegrees>
            </Position>
            <AltitudeMeters>728</AltitudeMeters>
            <DistanceMeters>NAN</DistanceMeters>
          </Trackpoint>
          <Trackpoint>
            <Time>2020-12-05T11:11:19.000Z</Time>
            <Position>
              <LatitudeDegrees>36.8268026970326900482177734375</LatitudeDegrees>
              <LongitudeDegrees>-4.3648205883800983428955078125</LongitudeDegrees>
            </Position>
            <AltitudeMeters>728.20001220703125</AltitudeMeters>
            <DistanceMeters>NAN</DistanceMeters>
          </Trackpoint>
          <Trackpoint>
            <Time>2020-12-05T11:11:20.000Z</Time>
            <Position>
              <LatitudeDegrees>36.826791800558567047119140625</LatitudeDegrees>
              <LongitudeDegrees>-4.36481262557208538055419921875</LongitudeDegrees>
            </Position>
            <AltitudeMeters>728.20001220703125</AltitudeMeters>
            <DistanceMeters>NAN</DistanceMeters>
          </Trackpoint>
          <Trackpoint>
            <Time>2020-12-05T11:11:21.000Z</Time>
            <Position>
              <LatitudeDegrees>36.82678014971315860748291015625</LatitudeDegrees>
              <LongitudeDegrees>-4.3648041598498821258544921875</LongitudeDegrees>
            </Position>
            <AltitudeMeters>728.4000244140625</AltitudeMeters>
            <DistanceMeters>NAN</DistanceMeters>
          </Trackpoint>
          <Trackpoint>
            <Time>2020-12-05T11:11:22.000Z</Time>
            <Position>
              <LatitudeDegrees>36.8267686665058135986328125</LatitudeDegrees>
              <LongitudeDegrees>-4.36479502357542514801025390625</LongitudeDegrees>
            </Position>
            <AltitudeMeters>728.4000244140625</AltitudeMeters>
            <DistanceMeters>NAN</DistanceMeters>
          </Trackpoint>
          <Trackpoint>
            <Time>2020-12-05T11:11:23.000Z</Time>
            <Position>
              <LatitudeDegrees>36.826758943498134613037109375</LatitudeDegrees>
              <LongitudeDegrees>-4.36478613875806331634521484375</LongitudeDegrees>
            </Position>
            <AltitudeMeters>728.4000244140625</AltitudeMeters>
            <DistanceMeters>NAN</DistanceMeters>
          </Trackpoint>
          <Trackpoint>
            <Time>2020-12-05T11:11:24.000Z</Time>
            <Position>
              <LatitudeDegrees>36.8267477117478847503662109375</LatitudeDegrees>
              <LongitudeDegrees>-4.36478110961616039276123046875</LongitudeDegrees>
            </Position>
            <AltitudeMeters>728.4000244140625</AltitudeMeters>
            <DistanceMeters>NAN</DistanceMeters>
          </Trackpoint>
          <Trackpoint>
            <Time>2020-12-05T11:11:25.000Z</Time>
            <Position>
              <LatitudeDegrees>36.82673388160765171051025390625</LatitudeDegrees>
              <LongitudeDegrees>-4.36477708630263805389404296875</LongitudeDegrees>
            </Position>
            <AltitudeMeters>728.4000244140625</AltitudeMeters>
            <DistanceMeters>NAN</DistanceMeters>
          </Trackpoint>
          <Trackpoint>
            <Time>2020-12-05T11:11:26.000Z</Time>
            <Position>
              <LatitudeDegrees>36.82672399096190929412841796875</LatitudeDegrees>
              <LongitudeDegrees>-4.3647733144462108612060546875</LongitudeDegrees>
            </Position>
            <AltitudeMeters>728.4000244140625</AltitudeMeters>
            <DistanceMeters>NAN</DistanceMeters>
          </Trackpoint>
          <Trackpoint>
            <Time>2020-12-05T11:11:27.000Z</Time>
            <Position>
              <LatitudeDegrees>36.8267182074487209320068359375</LatitudeDegrees>
              <LongitudeDegrees>-4.36476903967559337615966796875</LongitudeDegrees>
            </Position>
            <AltitudeMeters>728.4000244140625</AltitudeMeters>
            <DistanceMeters>NAN</DistanceMeters>
          </Trackpoint>
          <Trackpoint>
            <Time>2020-12-05T11:11:28.000Z</Time>
            <Position>
              <LatitudeDegrees>36.82671041227877140045166015625</LatitudeDegrees>
              <LongitudeDegrees>-4.36476501636207103729248046875</LongitudeDegrees>
            </Position>
            <AltitudeMeters>728.5999755859375</AltitudeMeters>
            <DistanceMeters>NAN</DistanceMeters>
          </Trackpoint>
          <Trackpoint>
            <Time>2020-12-05T11:11:29.000Z</Time>
            <Position>
              <LatitudeDegrees>36.82669825851917266845703125</LatitudeDegrees>
              <LongitudeDegrees>-4.36475998722016811370849609375</LongitudeDegrees>
            </Position>
            <AltitudeMeters>728.79998779296875</AltitudeMeters>
            <DistanceMeters>NAN</DistanceMeters>
          </Trackpoint>
          <Trackpoint>
            <Time>2020-12-05T11:11:30.000Z</Time>
            <Position>
              <LatitudeDegrees>36.826686859130859375</LatitudeDegrees>
              <LongitudeDegrees>-4.36475479044020175933837890625</LongitudeDegrees>
            </Position>
            <AltitudeMeters>729</AltitudeMeters>
            <DistanceMeters>NAN</DistanceMeters>
          </Trackpoint>
          <Trackpoint>
            <Time>2020-12-05T11:11:31.000Z</Time>
            <Position>
              <LatitudeDegrees>36.82667319662868976593017578125</LatitudeDegrees>
              <LongitudeDegrees>-4.3647493422031402587890625</LongitudeDegrees>
            </Position>
            <AltitudeMeters>729.20001220703125</AltitudeMeters>
            <DistanceMeters>NAN</DistanceMeters>
          </Trackpoint>
          <Trackpoint>
            <Time>2020-12-05T11:11:32.000Z</Time>
            <Position>
              <LatitudeDegrees>36.82666330598294734954833984375</LatitudeDegrees>
              <LongitudeDegrees>-4.364745318889617919921875</LongitudeDegrees>
            </Position>
            <AltitudeMeters>729.20001220703125</AltitudeMeters>
            <DistanceMeters>NAN</DistanceMeters>
          </Trackpoint>
          <Trackpoint>
            <Time>2020-12-05T11:11:33.000Z</Time>
            <Position>
              <LatitudeDegrees>36.82665408588945865631103515625</LatitudeDegrees>
              <LongitudeDegrees>-4.36473920010030269622802734375</LongitudeDegrees>
            </Position>
            <AltitudeMeters>729.4000244140625</AltitudeMeters>
            <DistanceMeters>NAN</DistanceMeters>
          </Trackpoint>
          <Trackpoint>
            <Time>2020-12-05T11:11:34.000Z</Time>
            <Position>
              <LatitudeDegrees>36.8266491405665874481201171875</LatitudeDegrees>
              <LongitudeDegrees>-4.36473433859646320343017578125</LongitudeDegrees>
            </Position>
            <AltitudeMeters>729.5999755859375</AltitudeMeters>
            <DistanceMeters>NAN</DistanceMeters>
          </Trackpoint>
          <Trackpoint>
            <Time>2020-12-05T11:11:35.000Z</Time>
            <Position>
              <LatitudeDegrees>36.826644279062747955322265625</LatitudeDegrees>
              <LongitudeDegrees>-4.3647277168929576873779296875</LongitudeDegrees>
            </Position>
            <AltitudeMeters>729.5999755859375</AltitudeMeters>
            <DistanceMeters>NAN</DistanceMeters>
          </Trackpoint>
          <Trackpoint>
            <Time>2020-12-05T11:11:36.000Z</Time>
            <Position>
              <LatitudeDegrees>36.82663899846374988555908203125</LatitudeDegrees>
              <LongitudeDegrees>-4.364720173180103302001953125</LongitudeDegrees>
            </Position>
            <AltitudeMeters>729.79998779296875</AltitudeMeters>
            <DistanceMeters>NAN</DistanceMeters>
          </Trackpoint>
          <Trackpoint>
            <Time>2020-12-05T11:11:37.000Z</Time>
            <Position>
              <LatitudeDegrees>36.8266337178647518157958984375</LatitudeDegrees>
              <LongitudeDegrees>-4.36471723951399326324462890625</LongitudeDegrees>
            </Position>
            <AltitudeMeters>729.79998779296875</AltitudeMeters>
            <DistanceMeters>NAN</DistanceMeters>
          </Trackpoint>
          <Trackpoint>
            <Time>2020-12-05T11:11:38.000Z</Time>
            <Position>
              <LatitudeDegrees>36.82662508450448513031005859375</LatitudeDegrees>
              <LongitudeDegrees>-4.36471380293369293212890625</LongitudeDegrees>
            </Position>
            <AltitudeMeters>729.79998779296875</AltitudeMeters>
            <DistanceMeters>NAN</DistanceMeters>
          </Trackpoint>
          <Trackpoint>
            <Time>2020-12-05T11:11:39.000Z</Time>
            <Position>
              <LatitudeDegrees>36.826614439487457275390625</LatitudeDegrees>
              <LongitudeDegrees>-4.36470977962017059326171875</LongitudeDegrees>
            </Position>
            <AltitudeMeters>730</AltitudeMeters>
            <DistanceMeters>NAN</DistanceMeters>
          </Trackpoint>
          <Trackpoint>
            <Time>2020-12-05T11:11:40.000Z</Time>
            <Position>
              <LatitudeDegrees>36.82660211808979511260986328125</LatitudeDegrees>
              <LongitudeDegrees>-4.364705421030521392822265625</LongitudeDegrees>
            </Position>
            <AltitudeMeters>730</AltitudeMeters>
            <DistanceMeters>NAN</DistanceMeters>
          </Trackpoint>
          <Trackpoint>
            <Time>2020-12-05T11:11:41.000Z</Time>
            <Position>
              <LatitudeDegrees>36.82659155689179897308349609375</LatitudeDegrees>
              <LongitudeDegrees>-4.36469745822250843048095703125</LongitudeDegrees>
            </Position>
            <AltitudeMeters>730</AltitudeMeters>
            <DistanceMeters>NAN</DistanceMeters>
          </Trackpoint>
          <Trackpoint>
            <Time>2020-12-05T11:11:42.000Z</Time>
            <Position>
              <LatitudeDegrees>36.82658250443637371063232421875</LatitudeDegrees>
              <LongitudeDegrees>-4.3646898306906223297119140625</LongitudeDegrees>
            </Position>
            <AltitudeMeters>730</AltitudeMeters>
            <DistanceMeters>NAN</DistanceMeters>
          </Trackpoint>
          <Trackpoint>
            <Time>2020-12-05T11:11:43.000Z</Time>
            <Position>
              <LatitudeDegrees>36.82657412253320217132568359375</LatitudeDegrees>
              <LongitudeDegrees>-4.3646824546158313751220703125</LongitudeDegrees>
            </Position>
            <AltitudeMeters>730</AltitudeMeters>
            <DistanceMeters>NAN</DistanceMeters>
          </Trackpoint>
          <Trackpoint>
            <Time>2020-12-05T11:11:44.000Z</Time>
            <Position>
              <LatitudeDegrees>36.826564483344554901123046875</LatitudeDegrees>
              <LongitudeDegrees>-4.36467499472200870513916015625</LongitudeDegrees>
            </Position>
            <AltitudeMeters>730</AltitudeMeters>
            <DistanceMeters>NAN</DistanceMeters>
          </Trackpoint>
          <Trackpoint>
            <Time>2020-12-05T11:11:45.000Z</Time>
            <Position>
              <LatitudeDegrees>36.82655450887978076934814453125</LatitudeDegrees>
              <LongitudeDegrees>-4.36466686427593231201171875</LongitudeDegrees>
            </Position>
            <AltitudeMeters>730.20001220703125</AltitudeMeters>
            <DistanceMeters>NAN</DistanceMeters>
          </Trackpoint>
          <Trackpoint>
            <Time>2020-12-05T11:11:46.000Z</Time>
            <Position>
              <LatitudeDegrees>36.8265428580343723297119140625</LatitudeDegrees>
              <LongitudeDegrees>-4.36465906910598278045654296875</LongitudeDegrees>
            </Position>
            <AltitudeMeters>730.20001220703125</AltitudeMeters>
            <DistanceMeters>NAN</DistanceMeters>
          </Trackpoint>
          <Trackpoint>
            <Time>2020-12-05T11:11:47.000Z</Time>
            <Position>
              <LatitudeDegrees>36.82653120718896389007568359375</LatitudeDegrees>
              <LongitudeDegrees>-4.3646526150405406951904296875</LongitudeDegrees>
            </Position>
            <AltitudeMeters>730.20001220703125</AltitudeMeters>
            <DistanceMeters>NAN</DistanceMeters>
          </Trackpoint>
          <Trackpoint>
            <Time>2020-12-05T11:11:48.000Z</Time>
            <Position>
              <LatitudeDegrees>36.826517879962921142578125</LatitudeDegrees>
              <LongitudeDegrees>-4.3646462447941303253173828125</LongitudeDegrees>
            </Position>
            <AltitudeMeters>730.20001220703125</AltitudeMeters>
            <DistanceMeters>NAN</DistanceMeters>
          </Trackpoint>
          <Trackpoint>
            <Time>2020-12-05T11:11:49.000Z</Time>
            <Position>
              <LatitudeDegrees>36.82650539092719554901123046875</LatitudeDegrees>
              <LongitudeDegrees>-4.3646365217864513397216796875</LongitudeDegrees>
            </Position>
            <AltitudeMeters>730.20001220703125</AltitudeMeters>
            <DistanceMeters>NAN</DistanceMeters>
          </Trackpoint>
          <Trackpoint>
            <Time>2020-12-05T11:11:50.000Z</Time>
            <Position>
              <LatitudeDegrees>36.8264955841004848480224609375</LatitudeDegrees>
              <LongitudeDegrees>-4.36462755315005779266357421875</LongitudeDegrees>
            </Position>
            <AltitudeMeters>730.20001220703125</AltitudeMeters>
            <DistanceMeters>NAN</DistanceMeters>
          </Trackpoint>
          <Trackpoint>
            <Time>2020-12-05T11:11:51.000Z</Time>
            <Position>
              <LatitudeDegrees>36.826488710939884185791015625</LatitudeDegrees>
              <LongitudeDegrees>-4.3646150641143321990966796875</LongitudeDegrees>
            </Position>
            <AltitudeMeters>730.4000244140625</AltitudeMeters>
            <DistanceMeters>NAN</DistanceMeters>
          </Trackpoint>
          <Trackpoint>
            <Time>2020-12-05T11:11:52.000Z</Time>
            <Position>
              <LatitudeDegrees>36.82648410089313983917236328125</LatitudeDegrees>
              <LongitudeDegrees>-4.36460257507860660552978515625</LongitudeDegrees>
            </Position>
            <AltitudeMeters>730.4000244140625</AltitudeMeters>
            <DistanceMeters>NAN</DistanceMeters>
          </Trackpoint>
          <Trackpoint>
            <Time>2020-12-05T11:11:53.000Z</Time>
            <Position>
              <LatitudeDegrees>36.826484017074108123779296875</LatitudeDegrees>
              <LongitudeDegrees>-4.364589415490627288818359375</LongitudeDegrees>
            </Position>
            <AltitudeMeters>730.79998779296875</AltitudeMeters>
            <DistanceMeters>NAN</DistanceMeters>
          </Trackpoint>
          <Trackpoint>
            <Time>2020-12-05T11:11:54.000Z</Time>
            <Position>
              <LatitudeDegrees>36.82648091576993465423583984375</LatitudeDegrees>
              <LongitudeDegrees>-4.36457927338778972625732421875</LongitudeDegrees>
            </Position>
            <AltitudeMeters>731</AltitudeMeters>
            <DistanceMeters>NAN</DistanceMeters>
          </Trackpoint>
          <Trackpoint>
            <Time>2020-12-05T11:11:55.000Z</Time>
            <Position>
              <LatitudeDegrees>36.82647756300866603851318359375</LatitudeDegrees>
              <LongitudeDegrees>-4.36456468887627124786376953125</LongitudeDegrees>
            </Position>
            <AltitudeMeters>731.20001220703125</AltitudeMeters>
            <DistanceMeters>NAN</DistanceMeters>
          </Trackpoint>
          <Trackpoint>
            <Time>2020-12-05T11:11:56.000Z</Time>
            <Position>
              <LatitudeDegrees>36.8264717794954776763916015625</LatitudeDegrees>
              <LongitudeDegrees>-4.36454742215573787689208984375</LongitudeDegrees>
            </Position>
            <AltitudeMeters>731.4000244140625</AltitudeMeters>
            <DistanceMeters>NAN</DistanceMeters>
          </Trackpoint>
          <Trackpoint>
            <Time>2020-12-05T11:11:57.000Z</Time>
            <Position>
              <LatitudeDegrees>36.82646482251584529876708984375</LatitudeDegrees>
              <LongitudeDegrees>-4.3645302392542362213134765625</LongitudeDegrees>
            </Position>
            <AltitudeMeters>731.5999755859375</AltitudeMeters>
            <DistanceMeters>NAN</DistanceMeters>
          </Trackpoint>
          <Trackpoint>
            <Time>2020-12-05T11:11:58.000Z</Time>
            <Position>
              <LatitudeDegrees>36.8264576978981494903564453125</LatitudeDegrees>
              <LongitudeDegrees>-4.36451674439013004302978515625</LongitudeDegrees>
            </Position>
            <AltitudeMeters>731.79998779296875</AltitudeMeters>
            <DistanceMeters>NAN</DistanceMeters>
          </Trackpoint>
          <Trackpoint>
            <Time>2020-12-05T11:11:59.000Z</Time>
            <Position>
              <LatitudeDegrees>36.826450489461421966552734375</LatitudeDegrees>
              <LongitudeDegrees>-4.36450635083019733428955078125</LongitudeDegrees>
            </Position>
            <AltitudeMeters>732.20001220703125</AltitudeMeters>
            <DistanceMeters>NAN</DistanceMeters>
          </Trackpoint>
          <Trackpoint>
            <Time>2020-12-05T11:12:00.000Z</Time>
            <Position>
              <LatitudeDegrees>36.82644386775791645050048828125</LatitudeDegrees>
              <LongitudeDegrees>-4.364498220384120941162109375</LongitudeDegrees>
            </Position>
            <AltitudeMeters>732.4000244140625</AltitudeMeters>
            <DistanceMeters>NAN</DistanceMeters>
          </Trackpoint>
          <Trackpoint>
            <Time>2020-12-05T11:12:01.000Z</Time>
            <Position>
              <LatitudeDegrees>36.82643481530249118804931640625</LatitudeDegrees>
              <LongitudeDegrees>-4.3644903413951396942138671875</LongitudeDegrees>
            </Position>
            <AltitudeMeters>732.5999755859375</AltitudeMeters>
            <DistanceMeters>NAN</DistanceMeters>
          </Trackpoint>
          <Trackpoint>
            <Time>2020-12-05T11:12:02.000Z</Time>
            <Position>
              <LatitudeDegrees>36.8264221586287021636962890625</LatitudeDegrees>
              <LongitudeDegrees>-4.36448422260582447052001953125</LongitudeDegrees>
            </Position>
            <AltitudeMeters>732.5999755859375</AltitudeMeters>
            <DistanceMeters>NAN</DistanceMeters>
          </Trackpoint>
          <Trackpoint>
            <Time>2020-12-05T11:12:03.000Z</Time>
            <Position>
              <LatitudeDegrees>36.82641067542135715484619140625</LatitudeDegrees>
              <LongitudeDegrees>-4.36447910964488983154296875</LongitudeDegrees>
            </Position>
            <AltitudeMeters>732.5999755859375</AltitudeMeters>
            <DistanceMeters>NAN</DistanceMeters>
          </Trackpoint>
          <Trackpoint>
            <Time>2020-12-05T11:12:04.000Z</Time>
            <Position>
              <LatitudeDegrees>36.82640179060399532318115234375</LatitudeDegrees>
              <LongitudeDegrees>-4.3644719012081623077392578125</LongitudeDegrees>
            </Position>
            <AltitudeMeters>732.79998779296875</AltitudeMeters>
            <DistanceMeters>NAN</DistanceMeters>
          </Trackpoint>
          <Trackpoint>
            <Time>2020-12-05T11:12:05.000Z</Time>
            <Position>
              <LatitudeDegrees>36.82639290578663349151611328125</LatitudeDegrees>
              <LongitudeDegrees>-4.36446192674338817596435546875</LongitudeDegrees>
            </Position>
            <AltitudeMeters>732.79998779296875</AltitudeMeters>
            <DistanceMeters>NAN</DistanceMeters>
          </Trackpoint>
          <Trackpoint>
            <Time>2020-12-05T11:12:06.000Z</Time>
            <Position>
              <LatitudeDegrees>36.8263825960457324981689453125</LatitudeDegrees>
              <LongitudeDegrees>-4.36445253901183605194091796875</LongitudeDegrees>
            </Position>
            <AltitudeMeters>732.5999755859375</AltitudeMeters>
            <DistanceMeters>NAN</DistanceMeters>
          </Trackpoint>
          <Trackpoint>
            <Time>2020-12-05T11:12:07.000Z</Time>
            <Position>
              <LatitudeDegrees>36.8263725377619266510009765625</LatitudeDegrees>
              <LongitudeDegrees>-4.3644423969089984893798828125</LongitudeDegrees>
            </Position>
            <AltitudeMeters>732.5999755859375</AltitudeMeters>
            <DistanceMeters>NAN</DistanceMeters>
          </Trackpoint>
          <Trackpoint>
            <Time>2020-12-05T11:12:08.000Z</Time>
            <Position>
              <LatitudeDegrees>36.82636298239231109619140625</LatitudeDegrees>
              <LongitudeDegrees>-4.36443141661584377288818359375</LongitudeDegrees>
            </Position>
            <AltitudeMeters>732.4000244140625</AltitudeMeters>
            <DistanceMeters>NAN</DistanceMeters>
          </Trackpoint>
          <Trackpoint>
            <Time>2020-12-05T11:12:09.000Z</Time>
            <Position>
              <LatitudeDegrees>36.82635359466075897216796875</LatitudeDegrees>
              <LongitudeDegrees>-4.364423118531703948974609375</LongitudeDegrees>
            </Position>
            <AltitudeMeters>732.4000244140625</AltitudeMeters>
            <DistanceMeters>NAN</DistanceMeters>
          </Trackpoint>
          <Trackpoint>
            <Time>2020-12-05T11:12:10.000Z</Time>
            <Position>
              <LatitudeDegrees>36.82634378783404827117919921875</LatitudeDegrees>
              <LongitudeDegrees>-4.3644162453711032867431640625</LongitudeDegrees>
            </Position>
            <AltitudeMeters>732.5999755859375</AltitudeMeters>
            <DistanceMeters>NAN</DistanceMeters>
          </Trackpoint>
          <Trackpoint>
            <Time>2020-12-05T11:12:11.000Z</Time>
            <Position>
              <LatitudeDegrees>36.8263343162834644317626953125</LatitudeDegrees>
              <LongitudeDegrees>-4.364407360553741455078125</LongitudeDegrees>
            </Position>
            <AltitudeMeters>732.4000244140625</AltitudeMeters>
            <DistanceMeters>NAN</DistanceMeters>
          </Trackpoint>
          <Trackpoint>
            <Time>2020-12-05T11:12:12.000Z</Time>
            <Position>
              <LatitudeDegrees>36.826325766742229461669921875</LatitudeDegrees>
              <LongitudeDegrees>-4.3643971346318721771240234375</LongitudeDegrees>
            </Position>
            <AltitudeMeters>732.4000244140625</AltitudeMeters>
            <DistanceMeters>NAN</DistanceMeters>
          </Trackpoint>
          <Trackpoint>
            <Time>2020-12-05T11:12:13.000Z</Time>
            <Position>
              <LatitudeDegrees>36.8263155408203601837158203125</LatitudeDegrees>
              <LongitudeDegrees>-4.36438514851033687591552734375</LongitudeDegrees>
            </Position>
            <AltitudeMeters>732.5999755859375</AltitudeMeters>
            <DistanceMeters>NAN</DistanceMeters>
          </Trackpoint>
          <Trackpoint>
            <Time>2020-12-05T11:12:14.000Z</Time>
            <Position>
              <LatitudeDegrees>36.82630556635558605194091796875</LatitudeDegrees>
              <LongitudeDegrees>-4.36437391676008701324462890625</LongitudeDegrees>
            </Position>
            <AltitudeMeters>732.79998779296875</AltitudeMeters>
            <DistanceMeters>NAN</DistanceMeters>
          </Trackpoint>
          <Trackpoint>
            <Time>2020-12-05T11:12:15.000Z</Time>
            <Position>
              <LatitudeDegrees>36.826296262443065643310546875</LatitudeDegrees>
              <LongitudeDegrees>-4.364364780485630035400390625</LongitudeDegrees>
            </Position>
            <AltitudeMeters>733</AltitudeMeters>
            <DistanceMeters>NAN</DistanceMeters>
          </Trackpoint>
          <Trackpoint>
            <Time>2020-12-05T11:12:16.000Z</Time>
            <Position>
              <LatitudeDegrees>36.8262870423495769500732421875</LatitudeDegrees>
              <LongitudeDegrees>-4.3643575720489025115966796875</LongitudeDegrees>
            </Position>
            <AltitudeMeters>733</AltitudeMeters>
            <DistanceMeters>NAN</DistanceMeters>
          </Trackpoint>
          <Trackpoint>
            <Time>2020-12-05T11:12:17.000Z</Time>
            <Position>
              <LatitudeDegrees>36.82627924717962741851806640625</LatitudeDegrees>
              <LongitudeDegrees>-4.36435296200215816497802734375</LongitudeDegrees>
            </Position>
            <AltitudeMeters>733</AltitudeMeters>
            <DistanceMeters>NAN</DistanceMeters>
          </Trackpoint>
          <Trackpoint>
            <Time>2020-12-05T11:12:18.000Z</Time>
            <Position>
              <LatitudeDegrees>36.82627203874289989471435546875</LatitudeDegrees>
              <LongitudeDegrees>-4.36434508301317691802978515625</LongitudeDegrees>
            </Position>
            <AltitudeMeters>733</AltitudeMeters>
            <DistanceMeters>NAN</DistanceMeters>
          </Trackpoint>
          <Trackpoint>
            <Time>2020-12-05T11:12:19.000Z</Time>
            <Position>
              <LatitudeDegrees>36.826265752315521240234375</LatitudeDegrees>
              <LongitudeDegrees>-4.3643361143767833709716796875</LongitudeDegrees>
            </Position>
            <AltitudeMeters>733</AltitudeMeters>
            <DistanceMeters>NAN</DistanceMeters>
          </Trackpoint>
          <Trackpoint>
            <Time>2020-12-05T11:12:20.000Z</Time>
            <Position>
              <LatitudeDegrees>36.8262592144310474395751953125</LatitudeDegrees>
              <LongitudeDegrees>-4.36432890594005584716796875</LongitudeDegrees>
            </Position>
            <AltitudeMeters>732.79998779296875</AltitudeMeters>
            <DistanceMeters>NAN</DistanceMeters>
          </Trackpoint>
          <Trackpoint>
            <Time>2020-12-05T11:12:21.000Z</Time>
            <Position>
              <LatitudeDegrees>36.826252676546573638916015625</LatitudeDegrees>
              <LongitudeDegrees>-4.36432429589331150054931640625</LongitudeDegrees>
            </Position>
            <AltitudeMeters>732.79998779296875</AltitudeMeters>
            <DistanceMeters>NAN</DistanceMeters>
          </Trackpoint>
          <Trackpoint>
            <Time>2020-12-05T11:12:22.000Z</Time>
            <Position>
              <LatitudeDegrees>36.8262458033859729766845703125</LatitudeDegrees>
              <LongitudeDegrees>-4.36431926675140857696533203125</LongitudeDegrees>
            </Position>
            <AltitudeMeters>732.79998779296875</AltitudeMeters>
            <DistanceMeters>NAN</DistanceMeters>
          </Trackpoint>
          <Trackpoint>
            <Time>2020-12-05T11:12:23.000Z</Time>
            <Position>
              <LatitudeDegrees>36.82623750530183315277099609375</LatitudeDegrees>
              <LongitudeDegrees>-4.36431155540049076080322265625</LongitudeDegrees>
            </Position>
            <AltitudeMeters>732.79998779296875</AltitudeMeters>
            <DistanceMeters>NAN</DistanceMeters>
          </Trackpoint>
          <Trackpoint>
            <Time>2020-12-05T11:12:24.000Z</Time>
            <Position>
              <LatitudeDegrees>36.82622644118964672088623046875</LatitudeDegrees>
              <LongitudeDegrees>-4.36430568806827068328857421875</LongitudeDegrees>
            </Position>
            <AltitudeMeters>732.79998779296875</AltitudeMeters>
            <DistanceMeters>NAN</DistanceMeters>
          </Trackpoint>
          <Trackpoint>
            <Time>2020-12-05T11:12:25.000Z</Time>
            <Position>
              <LatitudeDegrees>36.826216466724872589111328125</LatitudeDegrees>
              <LongitudeDegrees>-4.36429847963154315948486328125</LongitudeDegrees>
            </Position>
            <AltitudeMeters>732.79998779296875</AltitudeMeters>
            <DistanceMeters>NAN</DistanceMeters>
          </Trackpoint>
          <Trackpoint>
            <Time>2020-12-05T11:12:26.000Z</Time>
            <Position>
              <LatitudeDegrees>36.8262065760791301727294921875</LatitudeDegrees>
              <LongitudeDegrees>-4.364291690289974212646484375</LongitudeDegrees>
            </Position>
            <AltitudeMeters>733</AltitudeMeters>
            <DistanceMeters>NAN</DistanceMeters>
          </Trackpoint>
          <Trackpoint>
            <Time>2020-12-05T11:12:27.000Z</Time>
            <Position>
              <LatitudeDegrees>36.82619693689048290252685546875</LatitudeDegrees>
              <LongitudeDegrees>-4.3642848171293735504150390625</LongitudeDegrees>
            </Position>
            <AltitudeMeters>733</AltitudeMeters>
            <DistanceMeters>NAN</DistanceMeters>
          </Trackpoint>
          <Trackpoint>
            <Time>2020-12-05T11:12:28.000Z</Time>
            <Position>
              <LatitudeDegrees>36.82618821971118450164794921875</LatitudeDegrees>
              <LongitudeDegrees>-4.36427936889231204986572265625</LongitudeDegrees>
            </Position>
            <AltitudeMeters>733</AltitudeMeters>
            <DistanceMeters>NAN</DistanceMeters>
          </Trackpoint>
          <Trackpoint>
            <Time>2020-12-05T11:12:29.000Z</Time>
            <Position>
              <LatitudeDegrees>36.82617983780801296234130859375</LatitudeDegrees>
              <LongitudeDegrees>-4.36427366919815540313720703125</LongitudeDegrees>
            </Position>
            <AltitudeMeters>733.20001220703125</AltitudeMeters>
            <DistanceMeters>NAN</DistanceMeters>
          </Trackpoint>
          <Trackpoint>
            <Time>2020-12-05T11:12:30.000Z</Time>
            <Position>
              <LatitudeDegrees>36.82617195881903171539306640625</LatitudeDegrees>
              <LongitudeDegrees>-4.364270232617855072021484375</LongitudeDegrees>
            </Position>
            <AltitudeMeters>733.20001220703125</AltitudeMeters>
            <DistanceMeters>NAN</DistanceMeters>
          </Trackpoint>
          <Trackpoint>
            <Time>2020-12-05T11:12:31.000Z</Time>
            <Position>
              <LatitudeDegrees>36.82616491802036762237548828125</LatitudeDegrees>
              <LongitudeDegrees>-4.364266209304332733154296875</LongitudeDegrees>
            </Position>
            <AltitudeMeters>733.4000244140625</AltitudeMeters>
            <DistanceMeters>NAN</DistanceMeters>
          </Trackpoint>
          <Trackpoint>
            <Time>2020-12-05T11:12:32.000Z</Time>
            <Position>
              <LatitudeDegrees>36.82615888305008411407470703125</LatitudeDegrees>
              <LongitudeDegrees>-4.3642616830766201019287109375</LongitudeDegrees>
            </Position>
            <AltitudeMeters>733.4000244140625</AltitudeMeters>
            <DistanceMeters>NAN</DistanceMeters>
          </Trackpoint>
          <Trackpoint>
            <Time>2020-12-05T11:12:33.000Z</Time>
            <Position>
              <LatitudeDegrees>36.82615402154624462127685546875</LatitudeDegrees>
              <LongitudeDegrees>-4.3642586655914783477783203125</LongitudeDegrees>
            </Position>
            <AltitudeMeters>733.4000244140625</AltitudeMeters>
            <DistanceMeters>NAN</DistanceMeters>
          </Trackpoint>
          <Trackpoint>
            <Time>2020-12-05T11:12:34.000Z</Time>
            <Position>
              <LatitudeDegrees>36.8261517584323883056640625</LatitudeDegrees>
              <LongitudeDegrees>-4.3642584979534149169921875</LongitudeDegrees>
            </Position>
            <AltitudeMeters>733.4000244140625</AltitudeMeters>
            <DistanceMeters>NAN</DistanceMeters>
          </Trackpoint>
          <Trackpoint>
            <Time>2020-12-05T11:12:35.000Z</Time>
            <Position>
              <LatitudeDegrees>36.82615117169916629791259765625</LatitudeDegrees>
              <LongitudeDegrees>-4.3642546422779560089111328125</LongitudeDegrees>
            </Position>
            <AltitudeMeters>733.4000244140625</AltitudeMeters>
            <DistanceMeters>NAN</DistanceMeters>
          </Trackpoint>
          <Trackpoint>
            <Time>2020-12-05T11:12:36.000Z</Time>
            <Position>
              <LatitudeDegrees>36.82614832185208797454833984375</LatitudeDegrees>
              <LongitudeDegrees>-4.364248774945735931396484375</LongitudeDegrees>
            </Position>
            <AltitudeMeters>733.4000244140625</AltitudeMeters>
            <DistanceMeters>NAN</DistanceMeters>
          </Trackpoint>
          <Trackpoint>
            <Time>2020-12-05T11:12:37.000Z</Time>
            <Position>
              <LatitudeDegrees>36.826145388185977935791015625</LatitudeDegrees>
              <LongitudeDegrees>-4.36423729173839092254638671875</LongitudeDegrees>
            </Position>
            <AltitudeMeters>733.4000244140625</AltitudeMeters>
            <DistanceMeters>NAN</DistanceMeters>
          </Trackpoint>
          <Trackpoint>
            <Time>2020-12-05T11:12:38.000Z</Time>
            <Position>
              <LatitudeDegrees>36.82613910175859928131103515625</LatitudeDegrees>
              <LongitudeDegrees>-4.36422438360750675201416015625</LongitudeDegrees>
            </Position>
            <AltitudeMeters>733.5999755859375</AltitudeMeters>
            <DistanceMeters>NAN</DistanceMeters>
          </Trackpoint>
          <Trackpoint>
            <Time>2020-12-05T11:12:39.000Z</Time>
            <Position>
              <LatitudeDegrees>36.82613289915025234222412109375</LatitudeDegrees>
              <LongitudeDegrees>-4.36421331949532032012939453125</LongitudeDegrees>
            </Position>
            <AltitudeMeters>733.4000244140625</AltitudeMeters>
            <DistanceMeters>NAN</DistanceMeters>
          </Trackpoint>
          <Trackpoint>
            <Time>2020-12-05T11:12:40.000Z</Time>
            <Position>
              <LatitudeDegrees>36.8261257745325565338134765625</LatitudeDegrees>
              <LongitudeDegrees>-4.3642030097544193267822265625</LongitudeDegrees>
            </Position>
            <AltitudeMeters>733.4000244140625</AltitudeMeters>
            <DistanceMeters>NAN</DistanceMeters>
          </Trackpoint>
          <Trackpoint>
            <Time>2020-12-05T11:12:41.000Z</Time>
            <Position>
              <LatitudeDegrees>36.82611881755292415618896484375</LatitudeDegrees>
              <LongitudeDegrees>-4.36419035308063030242919921875</LongitudeDegrees>
            </Position>
            <AltitudeMeters>733.4000244140625</AltitudeMeters>
            <DistanceMeters>NAN</DistanceMeters>
          </Trackpoint>
          <Trackpoint>
            <Time>2020-12-05T11:12:42.000Z</Time>
            <Position>
              <LatitudeDegrees>36.8261126987636089324951171875</LatitudeDegrees>
              <LongitudeDegrees>-4.36417828314006328582763671875</LongitudeDegrees>
            </Position>
            <AltitudeMeters>733.4000244140625</AltitudeMeters>
            <DistanceMeters>NAN</DistanceMeters>
          </Trackpoint>
          <Trackpoint>
            <Time>2020-12-05T11:12:43.000Z</Time>
            <Position>
              <LatitudeDegrees>36.82610859163105487823486328125</LatitudeDegrees>
              <LongitudeDegrees>-4.36416755430400371551513671875</LongitudeDegrees>
            </Position>
            <AltitudeMeters>733.5999755859375</AltitudeMeters>
            <DistanceMeters>NAN</DistanceMeters>
          </Trackpoint>
          <Trackpoint>
            <Time>2020-12-05T11:12:44.000Z</Time>
            <Position>
              <LatitudeDegrees>36.826104819774627685546875</LatitudeDegrees>
              <LongitudeDegrees>-4.36415724456310272216796875</LongitudeDegrees>
            </Position>
            <AltitudeMeters>733.5999755859375</AltitudeMeters>
            <DistanceMeters>NAN</DistanceMeters>
          </Trackpoint>
          <Trackpoint>
            <Time>2020-12-05T11:12:45.000Z</Time>
            <Position>
              <LatitudeDegrees>36.8261009640991687774658203125</LatitudeDegrees>
              <LongitudeDegrees>-4.36414861120283603668212890625</LongitudeDegrees>
            </Position>
            <AltitudeMeters>733.4000244140625</AltitudeMeters>
            <DistanceMeters>NAN</DistanceMeters>
          </Trackpoint>
          <Trackpoint>
            <Time>2020-12-05T11:12:46.000Z</Time>
            <Position>
              <LatitudeDegrees>36.826099120080471038818359375</LatitudeDegrees>
              <LongitudeDegrees>-4.36413771472871303558349609375</LongitudeDegrees>
            </Position>
            <AltitudeMeters>733.4000244140625</AltitudeMeters>
            <DistanceMeters>NAN</DistanceMeters>
          </Trackpoint>
          <Trackpoint>
            <Time>2020-12-05T11:12:47.000Z</Time>
            <Position>
              <LatitudeDegrees>36.826098449528217315673828125</LatitudeDegrees>
              <LongitudeDegrees>-4.3641270697116851806640625</LongitudeDegrees>
            </Position>
            <AltitudeMeters>733.20001220703125</AltitudeMeters>
            <DistanceMeters>NAN</DistanceMeters>
          </Trackpoint>
          <Trackpoint>
            <Time>2020-12-05T11:12:48.000Z</Time>
            <Position>
              <LatitudeDegrees>36.82609652169048786163330078125</LatitudeDegrees>
              <LongitudeDegrees>-4.36411675997078418731689453125</LongitudeDegrees>
            </Position>
            <AltitudeMeters>733</AltitudeMeters>
            <DistanceMeters>NAN</DistanceMeters>
          </Trackpoint>
          <Trackpoint>
            <Time>2020-12-05T11:12:49.000Z</Time>
            <Position>
              <LatitudeDegrees>36.8260954320430755615234375</LatitudeDegrees>
              <LongitudeDegrees>-4.3641084618866443634033203125</LongitudeDegrees>
            </Position>
            <AltitudeMeters>732.79998779296875</AltitudeMeters>
            <DistanceMeters>NAN</DistanceMeters>
          </Trackpoint>
          <Trackpoint>
            <Time>2020-12-05T11:12:50.000Z</Time>
            <Position>
              <LatitudeDegrees>36.82609417475759983062744140625</LatitudeDegrees>
              <LongitudeDegrees>-4.364103265106678009033203125</LongitudeDegrees>
            </Position>
            <AltitudeMeters>732.5999755859375</AltitudeMeters>
            <DistanceMeters>NAN</DistanceMeters>
          </Trackpoint>
          <Trackpoint>
            <Time>2020-12-05T11:12:51.000Z</Time>
            <Position>
              <LatitudeDegrees>36.8260966055095195770263671875</LatitudeDegrees>
              <LongitudeDegrees>-4.36410091817378997802734375</LongitudeDegrees>
            </Position>
            <AltitudeMeters>732.4000244140625</AltitudeMeters>
            <DistanceMeters>NAN</DistanceMeters>
          </Trackpoint>
          <Trackpoint>
            <Time>2020-12-05T11:12:52.000Z</Time>
            <Position>
              <LatitudeDegrees>36.82610356248915195465087890625</LatitudeDegrees>
              <LongitudeDegrees>-4.3640997447073459625244140625</LongitudeDegrees>
            </Position>
            <AltitudeMeters>732.20001220703125</AltitudeMeters>
            <DistanceMeters>NAN</DistanceMeters>
          </Trackpoint>
          <Trackpoint>
            <Time>2020-12-05T11:12:53.000Z</Time>
            <Position>
              <LatitudeDegrees>36.82611462660133838653564453125</LatitudeDegrees>
              <LongitudeDegrees>-4.36410628259181976318359375</LongitudeDegrees>
            </Position>
            <AltitudeMeters>732.20001220703125</AltitudeMeters>
            <DistanceMeters>NAN</DistanceMeters>
          </Trackpoint>
          <Trackpoint>
            <Time>2020-12-05T11:12:54.000Z</Time>
            <Position>
              <LatitudeDegrees>36.82612133212387561798095703125</LatitudeDegrees>
              <LongitudeDegrees>-4.36410720460116863250732421875</LongitudeDegrees>
            </Position>
            <AltitudeMeters>732.20001220703125</AltitudeMeters>
            <DistanceMeters>NAN</DistanceMeters>
          </Trackpoint>
          <Trackpoint>
            <Time>2020-12-05T11:12:55.000Z</Time>
            <Position>
              <LatitudeDegrees>36.82613021694123744964599609375</LatitudeDegrees>
              <LongitudeDegrees>-4.36411005444824695587158203125</LongitudeDegrees>
            </Position>
            <AltitudeMeters>732</AltitudeMeters>
            <DistanceMeters>NAN</DistanceMeters>
          </Trackpoint>
          <Trackpoint>
            <Time>2020-12-05T11:12:56.000Z</Time>
            <Position>
              <LatitudeDegrees>36.82613977231085300445556640625</LatitudeDegrees>
              <LongitudeDegrees>-4.3641098029911518096923828125</LongitudeDegrees>
            </Position>
            <AltitudeMeters>731.79998779296875</AltitudeMeters>
            <DistanceMeters>NAN</DistanceMeters>
          </Trackpoint>
          <Trackpoint>
            <Time>2020-12-05T11:12:57.000Z</Time>
            <Position>
              <LatitudeDegrees>36.82614840567111968994140625</LatitudeDegrees>
              <LongitudeDegrees>-4.36411139555275440216064453125</LongitudeDegrees>
            </Position>
            <AltitudeMeters>731.4000244140625</AltitudeMeters>
            <DistanceMeters>NAN</DistanceMeters>
          </Trackpoint>
          <Trackpoint>
            <Time>2020-12-05T11:12:58.000Z</Time>
            <Position>
              <LatitudeDegrees>36.826158799231052398681640625</LatitudeDegrees>
              <LongitudeDegrees>-4.36411156319081783294677734375</LongitudeDegrees>
            </Position>
            <AltitudeMeters>731.4000244140625</AltitudeMeters>
            <DistanceMeters>NAN</DistanceMeters>
          </Trackpoint>
          <Trackpoint>
            <Time>2020-12-05T11:12:59.000Z</Time>
            <Position>
              <LatitudeDegrees>36.82616743259131908416748046875</LatitudeDegrees>
              <LongitudeDegrees>-4.36411038972437381744384765625</LongitudeDegrees>
            </Position>
            <AltitudeMeters>731.4000244140625</AltitudeMeters>
            <DistanceMeters>NAN</DistanceMeters>
          </Trackpoint>
          <Trackpoint>
            <Time>2020-12-05T11:13:00.000Z</Time>
            <Position>
              <LatitudeDegrees>36.82617866434156894683837890625</LatitudeDegrees>
              <LongitudeDegrees>-4.36410955153405666351318359375</LongitudeDegrees>
            </Position>
            <AltitudeMeters>731.4000244140625</AltitudeMeters>
            <DistanceMeters>NAN</DistanceMeters>
          </Trackpoint>
          <Trackpoint>
            <Time>2020-12-05T11:13:01.000Z</Time>
            <Position>
              <LatitudeDegrees>36.8261866271495819091796875</LatitudeDegrees>
              <LongitudeDegrees>-4.36410686932504177093505859375</LongitudeDegrees>
            </Position>
            <AltitudeMeters>731.4000244140625</AltitudeMeters>
            <DistanceMeters>NAN</DistanceMeters>
          </Trackpoint>
          <Trackpoint>
            <Time>2020-12-05T11:13:02.000Z</Time>
            <Position>
              <LatitudeDegrees>36.82619274593889713287353515625</LatitudeDegrees>
              <LongitudeDegrees>-4.36410494148731231689453125</LongitudeDegrees>
            </Position>
            <AltitudeMeters>731.4000244140625</AltitudeMeters>
            <DistanceMeters>NAN</DistanceMeters>
          </Trackpoint>
          <Trackpoint>
            <Time>2020-12-05T11:13:03.000Z</Time>
            <Position>
              <LatitudeDegrees>36.82619727216660976409912109375</LatitudeDegrees>
              <LongitudeDegrees>-4.36410184018313884735107421875</LongitudeDegrees>
            </Position>
            <AltitudeMeters>731.4000244140625</AltitudeMeters>
            <DistanceMeters>NAN</DistanceMeters>
          </Trackpoint>
          <Trackpoint>
            <Time>2020-12-05T11:13:04.000Z</Time>
            <Position>
              <LatitudeDegrees>36.8261854536831378936767578125</LatitudeDegrees>
              <LongitudeDegrees>-4.36407543718814849853515625</LongitudeDegrees>
            </Position>
            <AltitudeMeters>731.4000244140625</AltitudeMeters>
            <DistanceMeters>NAN</DistanceMeters>
          </Trackpoint>
          <Trackpoint>
            <Time>2020-12-05T11:13:05.000Z</Time>
            <Position>
              <LatitudeDegrees>36.82617732323706150054931640625</LatitudeDegrees>
              <LongitudeDegrees>-4.36406127177178859710693359375</LongitudeDegrees>
            </Position>
            <AltitudeMeters>731.4000244140625</AltitudeMeters>
            <DistanceMeters>NAN</DistanceMeters>
          </Trackpoint>
          <Trackpoint>
            <Time>2020-12-05T11:13:06.000Z</Time>
            <Position>
              <LatitudeDegrees>36.8261710368096828460693359375</LatitudeDegrees>
              <LongitudeDegrees>-4.36404861509799957275390625</LongitudeDegrees>
            </Position>
            <AltitudeMeters>731.20001220703125</AltitudeMeters>
            <DistanceMeters>NAN</DistanceMeters>
          </Trackpoint>
          <Trackpoint>
            <Time>2020-12-05T11:13:07.000Z</Time>
            <Position>
              <LatitudeDegrees>36.8261710368096828460693359375</LatitudeDegrees>
              <LongitudeDegrees>-4.3640464358031749725341796875</LongitudeDegrees>
            </Position>
            <AltitudeMeters>731.20001220703125</AltitudeMeters>
            <DistanceMeters>NAN</DistanceMeters>
          </Trackpoint>
          <Trackpoint>
            <Time>2020-12-05T11:13:08.000Z</Time>
            <Position>
              <LatitudeDegrees>36.8261700309813022613525390625</LatitudeDegrees>
              <LongitudeDegrees>-4.3640467710793018341064453125</LongitudeDegrees>
            </Position>
            <AltitudeMeters>731</AltitudeMeters>
            <DistanceMeters>NAN</DistanceMeters>
          </Trackpoint>
          <Trackpoint>
            <Time>2020-12-05T11:13:09.000Z</Time>
            <Position>
              <LatitudeDegrees>36.826168857514858245849609375</LatitudeDegrees>
              <LongitudeDegrees>-4.36405305750668048858642578125</LongitudeDegrees>
            </Position>
            <AltitudeMeters>731</AltitudeMeters>
            <DistanceMeters>NAN</DistanceMeters>
          </Trackpoint>
          <Trackpoint>
            <Time>2020-12-05T11:13:10.000Z</Time>
            <Position>
              <LatitudeDegrees>36.8261678516864776611328125</LatitudeDegrees>
              <LongitudeDegrees>-4.364055655896663665771484375</LongitudeDegrees>
            </Position>
            <AltitudeMeters>730.79998779296875</AltitudeMeters>
            <DistanceMeters>NAN</DistanceMeters>
          </Trackpoint>
          <Trackpoint>
            <Time>2020-12-05T11:13:11.000Z</Time>
            <Position>
              <LatitudeDegrees>36.82616877369582653045654296875</LatitudeDegrees>
              <LongitudeDegrees>-4.36405875720083713531494140625</LongitudeDegrees>
            </Position>
            <AltitudeMeters>730.5999755859375</AltitudeMeters>
            <DistanceMeters>NAN</DistanceMeters>
          </Trackpoint>
          <Trackpoint>
            <Time>2020-12-05T11:13:12.000Z</Time>
            <Position>
              <LatitudeDegrees>36.82616827078163623809814453125</LatitudeDegrees>
              <LongitudeDegrees>-4.3640600144863128662109375</LongitudeDegrees>
            </Position>
            <AltitudeMeters>730.5999755859375</AltitudeMeters>
            <DistanceMeters>NAN</DistanceMeters>
          </Trackpoint>
          <Trackpoint>
            <Time>2020-12-05T11:13:13.000Z</Time>
            <Position>
              <LatitudeDegrees>36.82616659440100193023681640625</LatitudeDegrees>
              <LongitudeDegrees>-4.36406093649566173553466796875</LongitudeDegrees>
            </Position>
            <AltitudeMeters>730.4000244140625</AltitudeMeters>
            <DistanceMeters>NAN</DistanceMeters>
          </Trackpoint>
          <Trackpoint>
            <Time>2020-12-05T11:13:14.000Z</Time>
            <Position>
              <LatitudeDegrees>36.82616592384874820709228515625</LatitudeDegrees>
              <LongitudeDegrees>-4.364060349762439727783203125</LongitudeDegrees>
            </Position>
            <AltitudeMeters>730.4000244140625</AltitudeMeters>
            <DistanceMeters>NAN</DistanceMeters>
          </Trackpoint>
          <Trackpoint>
            <Time>2020-12-05T11:13:15.000Z</Time>
            <Position>
              <LatitudeDegrees>36.8261660076677799224853515625</LatitudeDegrees>
              <LongitudeDegrees>-4.364063031971454620361328125</LongitudeDegrees>
            </Position>
            <AltitudeMeters>730.4000244140625</AltitudeMeters>
            <DistanceMeters>NAN</DistanceMeters>
          </Trackpoint>
          <Trackpoint>
            <Time>2020-12-05T11:13:16.000Z</Time>
            <Position>
              <LatitudeDegrees>36.8261653371155261993408203125</LatitudeDegrees>
              <LongitudeDegrees>-4.3640653789043426513671875</LongitudeDegrees>
            </Position>
            <AltitudeMeters>730.4000244140625</AltitudeMeters>
            <DistanceMeters>NAN</DistanceMeters>
          </Trackpoint>
          <Trackpoint>
            <Time>2020-12-05T11:13:17.000Z</Time>
            <Position>
              <LatitudeDegrees>36.82616449892520904541015625</LatitudeDegrees>
              <LongitudeDegrees>-4.36406881548464298248291015625</LongitudeDegrees>
            </Position>
            <AltitudeMeters>730.4000244140625</AltitudeMeters>
            <DistanceMeters>NAN</DistanceMeters>
          </Trackpoint>
          <Trackpoint>
            <Time>2020-12-05T11:13:18.000Z</Time>
            <Position>
              <LatitudeDegrees>36.826148740947246551513671875</LatitudeDegrees>
              <LongitudeDegrees>-4.36403662897646427154541015625</LongitudeDegrees>
            </Position>
            <AltitudeMeters>730.4000244140625</AltitudeMeters>
            <DistanceMeters>NAN</DistanceMeters>
          </Trackpoint>
          <Trackpoint>
            <Time>2020-12-05T11:13:19.000Z</Time>
            <Position>
              <LatitudeDegrees>36.82614128105342388153076171875</LatitudeDegrees>
              <LongitudeDegrees>-4.3640197813510894775390625</LongitudeDegrees>
            </Position>
            <AltitudeMeters>730.4000244140625</AltitudeMeters>
            <DistanceMeters>NAN</DistanceMeters>
          </Trackpoint>
          <Trackpoint>
            <Time>2020-12-05T11:13:20.000Z</Time>
            <Position>
              <LatitudeDegrees>36.82613993994891643524169921875</LatitudeDegrees>
              <LongitudeDegrees>-4.36401433311402797698974609375</LongitudeDegrees>
            </Position>
            <AltitudeMeters>730.4000244140625</AltitudeMeters>
            <DistanceMeters>NAN</DistanceMeters>
          </Trackpoint>
          <Trackpoint>
            <Time>2020-12-05T11:13:21.000Z</Time>
            <Position>
              <LatitudeDegrees>36.8261405266821384429931640625</LatitudeDegrees>
              <LongitudeDegrees>-4.36401165090501308441162109375</LongitudeDegrees>
            </Position>
            <AltitudeMeters>730.4000244140625</AltitudeMeters>
            <DistanceMeters>NAN</DistanceMeters>
          </Trackpoint>
          <Trackpoint>
            <Time>2020-12-05T11:13:22.000Z</Time>
            <Position>
              <LatitudeDegrees>36.8261410295963287353515625</LatitudeDegrees>
              <LongitudeDegrees>-4.36400863341987133026123046875</LongitudeDegrees>
            </Position>
            <AltitudeMeters>730.4000244140625</AltitudeMeters>
            <DistanceMeters>NAN</DistanceMeters>
          </Trackpoint>
          <Trackpoint>
            <Time>2020-12-05T11:13:23.000Z</Time>
            <Position>
              <LatitudeDegrees>36.82614304125308990478515625</LatitudeDegrees>
              <LongitudeDegrees>-4.36400695703923702239990234375</LongitudeDegrees>
            </Position>
            <AltitudeMeters>730.4000244140625</AltitudeMeters>
            <DistanceMeters>NAN</DistanceMeters>
          </Trackpoint>
          <Trackpoint>
            <Time>2020-12-05T11:13:24.000Z</Time>
            <Position>
              <LatitudeDegrees>36.82614438235759735107421875</LatitudeDegrees>
              <LongitudeDegrees>-4.36400477774441242218017578125</LongitudeDegrees>
            </Position>
            <AltitudeMeters>730.20001220703125</AltitudeMeters>
            <DistanceMeters>NAN</DistanceMeters>
          </Trackpoint>
          <Trackpoint>
            <Time>2020-12-05T11:13:25.000Z</Time>
            <Position>
              <LatitudeDegrees>36.8261462263762950897216796875</LatitudeDegrees>
              <LongitudeDegrees>-4.36400494538247585296630859375</LongitudeDegrees>
            </Position>
            <AltitudeMeters>730.20001220703125</AltitudeMeters>
            <DistanceMeters>NAN</DistanceMeters>
          </Trackpoint>
          <Trackpoint>
            <Time>2020-12-05T11:13:26.000Z</Time>
            <Position>
              <LatitudeDegrees>36.82614438235759735107421875</LatitudeDegrees>
              <LongitudeDegrees>-4.364006705582141876220703125</LongitudeDegrees>
            </Position>
            <AltitudeMeters>730.20001220703125</AltitudeMeters>
            <DistanceMeters>NAN</DistanceMeters>
          </Trackpoint>
          <Trackpoint>
            <Time>2020-12-05T11:13:27.000Z</Time>
            <Position>
              <LatitudeDegrees>36.826136671006679534912109375</LatitudeDegrees>
              <LongitudeDegrees>-4.36401374638080596923828125</LongitudeDegrees>
            </Position>
            <AltitudeMeters>730.20001220703125</AltitudeMeters>
            <DistanceMeters>NAN</DistanceMeters>
          </Trackpoint>
          <Trackpoint>
            <Time>2020-12-05T11:13:28.000Z</Time>
            <Position>
              <LatitudeDegrees>36.8261318095028400421142578125</LatitudeDegrees>
              <LongitudeDegrees>-4.36401802115142345428466796875</LongitudeDegrees>
            </Position>
            <AltitudeMeters>730.20001220703125</AltitudeMeters>
            <DistanceMeters>NAN</DistanceMeters>
          </Trackpoint>
          <Trackpoint>
            <Time>2020-12-05T11:13:29.000Z</Time>
            <Position>
              <LatitudeDegrees>36.82612552307546138763427734375</LatitudeDegrees>
              <LongitudeDegrees>-4.36402271501719951629638671875</LongitudeDegrees>
            </Position>
            <AltitudeMeters>730.4000244140625</AltitudeMeters>
            <DistanceMeters>NAN</DistanceMeters>
          </Trackpoint>
          <Trackpoint>
            <Time>2020-12-05T11:13:30.000Z</Time>
            <Position>
              <LatitudeDegrees>36.8261194042861461639404296875</LatitudeDegrees>
              <LongitudeDegrees>-4.36402774415910243988037109375</LongitudeDegrees>
            </Position>
            <AltitudeMeters>730.5999755859375</AltitudeMeters>
            <DistanceMeters>NAN</DistanceMeters>
          </Trackpoint>
          <Trackpoint>
            <Time>2020-12-05T11:13:31.000Z</Time>
            <Position>
              <LatitudeDegrees>36.8261143751442432403564453125</LatitudeDegrees>
              <LongitudeDegrees>-4.36402975581586360931396484375</LongitudeDegrees>
            </Position>
            <AltitudeMeters>730.79998779296875</AltitudeMeters>
            <DistanceMeters>NAN</DistanceMeters>
          </Trackpoint>
          <Trackpoint>
            <Time>2020-12-05T11:13:32.000Z</Time>
            <Position>
              <LatitudeDegrees>36.8261123634874820709228515625</LatitudeDegrees>
              <LongitudeDegrees>-4.3640350364148616790771484375</LongitudeDegrees>
            </Position>
            <AltitudeMeters>731</AltitudeMeters>
            <DistanceMeters>NAN</DistanceMeters>
          </Trackpoint>
          <Trackpoint>
            <Time>2020-12-05T11:13:33.000Z</Time>
            <Position>
              <LatitudeDegrees>36.8261073343455791473388671875</LatitudeDegrees>
              <LongitudeDegrees>-4.36403788626194000244140625</LongitudeDegrees>
            </Position>
            <AltitudeMeters>731</AltitudeMeters>
            <DistanceMeters>NAN</DistanceMeters>
          </Trackpoint>
          <Trackpoint>
            <Time>2020-12-05T11:13:34.000Z</Time>
            <Position>
              <LatitudeDegrees>36.82610373012721538543701171875</LatitudeDegrees>
              <LongitudeDegrees>-4.36404132284224033355712890625</LongitudeDegrees>
            </Position>
            <AltitudeMeters>731</AltitudeMeters>
            <DistanceMeters>NAN</DistanceMeters>
          </Trackpoint>
          <Trackpoint>
            <Time>2020-12-05T11:13:35.000Z</Time>
            <Position>
              <LatitudeDegrees>36.82610012590885162353515625</LatitudeDegrees>
              <LongitudeDegrees>-4.364042580127716064453125</LongitudeDegrees>
            </Position>
            <AltitudeMeters>731.20001220703125</AltitudeMeters>
            <DistanceMeters>NAN</DistanceMeters>
          </Trackpoint>
          <Trackpoint>
            <Time>2020-12-05T11:13:36.000Z</Time>
            <Position>
              <LatitudeDegrees>36.826099455356597900390625</LatitudeDegrees>
              <LongitudeDegrees>-4.3640414066612720489501953125</LongitudeDegrees>
            </Position>
            <AltitudeMeters>731.20001220703125</AltitudeMeters>
            <DistanceMeters>NAN</DistanceMeters>
          </Trackpoint>
          <Trackpoint>
            <Time>2020-12-05T11:13:37.000Z</Time>
            <Position>
              <LatitudeDegrees>36.82609903626143932342529296875</LatitudeDegrees>
              <LongitudeDegrees>-4.36404165811836719512939453125</LongitudeDegrees>
            </Position>
            <AltitudeMeters>731.20001220703125</AltitudeMeters>
            <DistanceMeters>NAN</DistanceMeters>
          </Trackpoint>
          <Trackpoint>
            <Time>2020-12-05T11:13:38.000Z</Time>
            <Position>
              <LatitudeDegrees>36.82610054500401020050048828125</LatitudeDegrees>
              <LongitudeDegrees>-4.364040903747081756591796875</LongitudeDegrees>
            </Position>
            <AltitudeMeters>731.20001220703125</AltitudeMeters>
            <DistanceMeters>NAN</DistanceMeters>
          </Trackpoint>
          <Trackpoint>
            <Time>2020-12-05T11:13:39.000Z</Time>
            <Position>
              <LatitudeDegrees>36.82610414922237396240234375</LatitudeDegrees>
              <LongitudeDegrees>-4.36404149048030376434326171875</LongitudeDegrees>
            </Position>
            <AltitudeMeters>731</AltitudeMeters>
            <DistanceMeters>NAN</DistanceMeters>
          </Trackpoint>
          <Trackpoint>
            <Time>2020-12-05T11:13:40.000Z</Time>
            <Position>
              <LatitudeDegrees>36.82610641233623027801513671875</LatitudeDegrees>
              <LongitudeDegrees>-4.36404249630868434906005859375</LongitudeDegrees>
            </Position>
            <AltitudeMeters>731</AltitudeMeters>
            <DistanceMeters>NAN</DistanceMeters>
          </Trackpoint>
          <Trackpoint>
            <Time>2020-12-05T11:13:41.000Z</Time>
            <Position>
              <LatitudeDegrees>36.8261073343455791473388671875</LatitudeDegrees>
              <LongitudeDegrees>-4.3640434183180332183837890625</LongitudeDegrees>
            </Position>
            <AltitudeMeters>731</AltitudeMeters>
            <DistanceMeters>NAN</DistanceMeters>
          </Trackpoint>
          <Trackpoint>
            <Time>2020-12-05T11:13:42.000Z</Time>
            <Position>
              <LatitudeDegrees>36.82610859163105487823486328125</LatitudeDegrees>
              <LongitudeDegrees>-4.364044256508350372314453125</LongitudeDegrees>
            </Position>
            <AltitudeMeters>730.79998779296875</AltitudeMeters>
            <DistanceMeters>NAN</DistanceMeters>
          </Trackpoint>
          <Trackpoint>
            <Time>2020-12-05T11:13:43.000Z</Time>
            <Position>
              <LatitudeDegrees>36.8261080048978328704833984375</LatitudeDegrees>
              <LongitudeDegrees>-4.36404299922287464141845703125</LongitudeDegrees>
            </Position>
            <AltitudeMeters>730.79998779296875</AltitudeMeters>
            <DistanceMeters>NAN</DistanceMeters>
          </Trackpoint>
          <Trackpoint>
            <Time>2020-12-05T11:13:44.000Z</Time>
            <Position>
              <LatitudeDegrees>36.82610792107880115509033203125</LatitudeDegrees>
              <LongitudeDegrees>-4.36404299922287464141845703125</LongitudeDegrees>
            </Position>
            <AltitudeMeters>730.79998779296875</AltitudeMeters>
            <DistanceMeters>NAN</DistanceMeters>
          </Trackpoint>
          <Trackpoint>
            <Time>2020-12-05T11:13:45.000Z</Time>
            <Position>
              <LatitudeDegrees>36.82610859163105487823486328125</LatitudeDegrees>
              <LongitudeDegrees>-4.36404249630868434906005859375</LongitudeDegrees>
            </Position>
            <AltitudeMeters>730.5999755859375</AltitudeMeters>
            <DistanceMeters>NAN</DistanceMeters>
          </Trackpoint>
          <Trackpoint>
            <Time>2020-12-05T11:13:46.000Z</Time>
            <Position>
              <LatitudeDegrees>36.826109178364276885986328125</LatitudeDegrees>
              <LongitudeDegrees>-4.36404190957546234130859375</LongitudeDegrees>
            </Position>
            <AltitudeMeters>730.5999755859375</AltitudeMeters>
            <DistanceMeters>NAN</DistanceMeters>
          </Trackpoint>
          <Trackpoint>
            <Time>2020-12-05T11:13:47.000Z</Time>
            <Position>
              <LatitudeDegrees>36.82610892690718173980712890625</LatitudeDegrees>
              <LongitudeDegrees>-4.3640434183180332183837890625</LongitudeDegrees>
            </Position>
            <AltitudeMeters>730.79998779296875</AltitudeMeters>
            <DistanceMeters>NAN</DistanceMeters>
          </Trackpoint>
          <Trackpoint>
            <Time>2020-12-05T11:13:48.000Z</Time>
            <Position>
              <LatitudeDegrees>36.8261093460023403167724609375</LatitudeDegrees>
              <LongitudeDegrees>-4.36404635198414325714111328125</LongitudeDegrees>
            </Position>
            <AltitudeMeters>730.79998779296875</AltitudeMeters>
            <DistanceMeters>NAN</DistanceMeters>
          </Trackpoint>
          <Trackpoint>
            <Time>2020-12-05T11:13:49.000Z</Time>
            <Position>
              <LatitudeDegrees>36.82610926218330860137939453125</LatitudeDegrees>
              <LongitudeDegrees>-4.3640477769076824188232421875</LongitudeDegrees>
            </Position>
            <AltitudeMeters>731</AltitudeMeters>
            <DistanceMeters>NAN</DistanceMeters>
          </Trackpoint>
          <Trackpoint>
            <Time>2020-12-05T11:13:50.000Z</Time>
            <Position>
              <LatitudeDegrees>36.82610683143138885498046875</LatitudeDegrees>
              <LongitudeDegrees>-4.36404601670801639556884765625</LongitudeDegrees>
            </Position>
            <AltitudeMeters>731.20001220703125</AltitudeMeters>
            <DistanceMeters>NAN</DistanceMeters>
          </Trackpoint>
          <Trackpoint>
            <Time>2020-12-05T11:13:51.000Z</Time>
            <Position>
              <LatitudeDegrees>36.826103813946247100830078125</LatitudeDegrees>
              <LongitudeDegrees>-4.36404534615576267242431640625</LongitudeDegrees>
            </Position>
            <AltitudeMeters>731.20001220703125</AltitudeMeters>
            <DistanceMeters>NAN</DistanceMeters>
          </Trackpoint>
          <Trackpoint>
            <Time>2020-12-05T11:13:52.000Z</Time>
            <Position>
              <LatitudeDegrees>36.82610121555626392364501953125</LatitudeDegrees>
              <LongitudeDegrees>-4.36404534615576267242431640625</LongitudeDegrees>
            </Position>
            <AltitudeMeters>731.4000244140625</AltitudeMeters>
            <DistanceMeters>NAN</DistanceMeters>
          </Trackpoint>
          <Trackpoint>
            <Time>2020-12-05T11:13:53.000Z</Time>
            <Position>
              <LatitudeDegrees>36.826098449528217315673828125</LatitudeDegrees>
              <LongitudeDegrees>-4.364046938717365264892578125</LongitudeDegrees>
            </Position>
            <AltitudeMeters>731.4000244140625</AltitudeMeters>
            <DistanceMeters>NAN</DistanceMeters>
          </Trackpoint>
          <Trackpoint>
            <Time>2020-12-05T11:14:54.000Z</Time>
            <Position>
              <LatitudeDegrees>36.8262196518480777740478515625</LatitudeDegrees>
              <LongitudeDegrees>-4.3640903569757938385009765625</LongitudeDegrees>
            </Position>
            <AltitudeMeters>730.4000244140625</AltitudeMeters>
            <DistanceMeters>NAN</DistanceMeters>
          </Trackpoint>
          <Trackpoint>
            <Time>2020-12-05T11:14:55.000Z</Time>
            <Position>
              <LatitudeDegrees>36.826228536665439605712890625</LatitudeDegrees>
              <LongitudeDegrees>-4.3640967272222042083740234375</LongitudeDegrees>
            </Position>
            <AltitudeMeters>730.4000244140625</AltitudeMeters>
            <DistanceMeters>NAN</DistanceMeters>
          </Trackpoint>
          <Trackpoint>
            <Time>2020-12-05T11:14:56.000Z</Time>
            <Position>
              <LatitudeDegrees>36.8262360803782939910888671875</LatitudeDegrees>
              <LongitudeDegrees>-4.3640933744609355926513671875</LongitudeDegrees>
            </Position>
            <AltitudeMeters>730.5999755859375</AltitudeMeters>
            <DistanceMeters>NAN</DistanceMeters>
          </Trackpoint>
          <Trackpoint>
            <Time>2020-12-05T11:14:57.000Z</Time>
            <Position>
              <LatitudeDegrees>36.8262444622814655303955078125</LatitudeDegrees>
              <LongitudeDegrees>-4.3640895187854766845703125</LongitudeDegrees>
            </Position>
            <AltitudeMeters>730.5999755859375</AltitudeMeters>
            <DistanceMeters>NAN</DistanceMeters>
          </Trackpoint>
          <Trackpoint>
            <Time>2020-12-05T11:14:58.000Z</Time>
            <Position>
              <LatitudeDegrees>36.82625259272754192352294921875</LatitudeDegrees>
              <LongitudeDegrees>-4.36408624984323978424072265625</LongitudeDegrees>
            </Position>
            <AltitudeMeters>730.79998779296875</AltitudeMeters>
            <DistanceMeters>NAN</DistanceMeters>
          </Trackpoint>
          <Trackpoint>
            <Time>2020-12-05T11:14:59.000Z</Time>
            <Position>
              <LatitudeDegrees>36.82626784779131412506103515625</LatitudeDegrees>
              <LongitudeDegrees>-4.36408641748130321502685546875</LongitudeDegrees>
            </Position>
            <AltitudeMeters>730.79998779296875</AltitudeMeters>
            <DistanceMeters>NAN</DistanceMeters>
          </Trackpoint>
          <Trackpoint>
            <Time>2020-12-05T11:15:00.000Z</Time>
            <Position>
              <LatitudeDegrees>36.82627849280834197998046875</LatitudeDegrees>
              <LongitudeDegrees>-4.36408474110066890716552734375</LongitudeDegrees>
            </Position>
            <AltitudeMeters>731</AltitudeMeters>
            <DistanceMeters>NAN</DistanceMeters>
          </Trackpoint>
          <Trackpoint>
            <Time>2020-12-05T11:15:01.000Z</Time>
            <Position>
              <LatitudeDegrees>36.82628259994089603424072265625</LatitudeDegrees>
              <LongitudeDegrees>-4.36408205889165401458740234375</LongitudeDegrees>
            </Position>
            <AltitudeMeters>731</AltitudeMeters>
            <DistanceMeters>NAN</DistanceMeters>
          </Trackpoint>
          <Trackpoint>
            <Time>2020-12-05T11:15:02.000Z</Time>
            <Position>
              <LatitudeDegrees>36.82628628797829151153564453125</LatitudeDegrees>
              <LongitudeDegrees>-4.3640792928636074066162109375</LongitudeDegrees>
            </Position>
            <AltitudeMeters>731</AltitudeMeters>
            <DistanceMeters>NAN</DistanceMeters>
          </Trackpoint>
          <Trackpoint>
            <Time>2020-12-05T11:15:03.000Z</Time>
            <Position>
              <LatitudeDegrees>36.82628846727311611175537109375</LatitudeDegrees>
              <LongitudeDegrees>-4.36407753266394138336181640625</LongitudeDegrees>
            </Position>
            <AltitudeMeters>731</AltitudeMeters>
            <DistanceMeters>NAN</DistanceMeters>
          </Trackpoint>
          <Trackpoint>
            <Time>2020-12-05T11:15:04.000Z</Time>
            <Position>
              <LatitudeDegrees>36.8262900598347187042236328125</LatitudeDegrees>
              <LongitudeDegrees>-4.3640752695500850677490234375</LongitudeDegrees>
            </Position>
            <AltitudeMeters>731</AltitudeMeters>
            <DistanceMeters>NAN</DistanceMeters>
          </Trackpoint>
          <Trackpoint>
            <Time>2020-12-05T11:15:05.000Z</Time>
            <Position>
              <LatitudeDegrees>36.82629324495792388916015625</LatitudeDegrees>
              <LongitudeDegrees>-4.36407384462654590606689453125</LongitudeDegrees>
            </Position>
            <AltitudeMeters>730.79998779296875</AltitudeMeters>
            <DistanceMeters>NAN</DistanceMeters>
          </Trackpoint>
          <Trackpoint>
            <Time>2020-12-05T11:15:06.000Z</Time>
            <Position>
              <LatitudeDegrees>36.8262954242527484893798828125</LatitudeDegrees>
              <LongitudeDegrees>-4.364073090255260467529296875</LongitudeDegrees>
            </Position>
            <AltitudeMeters>730.5999755859375</AltitudeMeters>
            <DistanceMeters>NAN</DistanceMeters>
          </Trackpoint>
          <Trackpoint>
            <Time>2020-12-05T11:15:07.000Z</Time>
            <Position>
              <LatitudeDegrees>36.82629668153822422027587890625</LatitudeDegrees>
              <LongitudeDegrees>-4.36407082714140415191650390625</LongitudeDegrees>
            </Position>
            <AltitudeMeters>730.5999755859375</AltitudeMeters>
            <DistanceMeters>NAN</DistanceMeters>
          </Trackpoint>
          <Trackpoint>
            <Time>2020-12-05T11:15:08.000Z</Time>
            <Position>
              <LatitudeDegrees>36.8262984417378902435302734375</LatitudeDegrees>
              <LongitudeDegrees>-4.3640709109604358673095703125</LongitudeDegrees>
            </Position>
            <AltitudeMeters>730.4000244140625</AltitudeMeters>
            <DistanceMeters>NAN</DistanceMeters>
          </Trackpoint>
          <Trackpoint>
            <Time>2020-12-05T11:15:09.000Z</Time>
            <Position>
              <LatitudeDegrees>36.82629869319498538970947265625</LatitudeDegrees>
              <LongitudeDegrees>-4.3640725873410701751708984375</LongitudeDegrees>
            </Position>
            <AltitudeMeters>730.4000244140625</AltitudeMeters>
            <DistanceMeters>NAN</DistanceMeters>
          </Trackpoint>
          <Trackpoint>
            <Time>2020-12-05T11:15:10.000Z</Time>
            <Position>
              <LatitudeDegrees>36.8262997828423976898193359375</LatitudeDegrees>
              <LongitudeDegrees>-4.36407099477946758270263671875</LongitudeDegrees>
            </Position>
            <AltitudeMeters>730.4000244140625</AltitudeMeters>
            <DistanceMeters>NAN</DistanceMeters>
          </Trackpoint>
          <Trackpoint>
            <Time>2020-12-05T11:15:11.000Z</Time>
            <Position>
              <LatitudeDegrees>36.826299615204334259033203125</LatitudeDegrees>
              <LongitudeDegrees>-4.36407015658915042877197265625</LongitudeDegrees>
            </Position>
            <AltitudeMeters>730.4000244140625</AltitudeMeters>
            <DistanceMeters>NAN</DistanceMeters>
          </Trackpoint>
          <Trackpoint>
            <Time>2020-12-05T11:15:12.000Z</Time>
            <Position>
              <LatitudeDegrees>36.826300285756587982177734375</LatitudeDegrees>
              <LongitudeDegrees>-4.3640678934752941131591796875</LongitudeDegrees>
            </Position>
            <AltitudeMeters>730.4000244140625</AltitudeMeters>
            <DistanceMeters>NAN</DistanceMeters>
          </Trackpoint>
          <Trackpoint>
            <Time>2020-12-05T11:15:13.000Z</Time>
            <Position>
              <LatitudeDegrees>36.8262991122901439666748046875</LatitudeDegrees>
              <LongitudeDegrees>-4.36406261287629604339599609375</LongitudeDegrees>
            </Position>
            <AltitudeMeters>730.4000244140625</AltitudeMeters>
            <DistanceMeters>NAN</DistanceMeters>
          </Trackpoint>
          <Trackpoint>
            <Time>2020-12-05T11:15:14.000Z</Time>
            <Position>
              <LatitudeDegrees>36.82629860937595367431640625</LatitudeDegrees>
              <LongitudeDegrees>-4.364062361419200897216796875</LongitudeDegrees>
            </Position>
            <AltitudeMeters>730.20001220703125</AltitudeMeters>
            <DistanceMeters>NAN</DistanceMeters>
          </Trackpoint>
          <Trackpoint>
            <Time>2020-12-05T11:15:15.000Z</Time>
            <Position>
              <LatitudeDegrees>36.82630824856460094451904296875</LatitudeDegrees>
              <LongitudeDegrees>-4.364074766635894775390625</LongitudeDegrees>
            </Position>
            <AltitudeMeters>730.20001220703125</AltitudeMeters>
            <DistanceMeters>NAN</DistanceMeters>
          </Trackpoint>
          <Trackpoint>
            <Time>2020-12-05T11:15:16.000Z</Time>
            <Position>
              <LatitudeDegrees>36.8263138644397258758544921875</LatitudeDegrees>
              <LongitudeDegrees>-4.36408021487295627593994140625</LongitudeDegrees>
            </Position>
            <AltitudeMeters>730</AltitudeMeters>
            <DistanceMeters>NAN</DistanceMeters>
          </Trackpoint>
          <Trackpoint>
            <Time>2020-12-05T11:15:17.000Z</Time>
            <Position>
              <LatitudeDegrees>36.82631512172520160675048828125</LatitudeDegrees>
              <LongitudeDegrees>-4.36408172361552715301513671875</LongitudeDegrees>
            </Position>
            <AltitudeMeters>730</AltitudeMeters>
            <DistanceMeters>NAN</DistanceMeters>
          </Trackpoint>
          <Trackpoint>
            <Time>2020-12-05T11:15:18.000Z</Time>
            <Position>
              <LatitudeDegrees>36.826315037906169891357421875</LatitudeDegrees>
              <LongitudeDegrees>-4.36407954432070255279541015625</LongitudeDegrees>
            </Position>
            <AltitudeMeters>730</AltitudeMeters>
            <DistanceMeters>NAN</DistanceMeters>
          </Trackpoint>
          <Trackpoint>
            <Time>2020-12-05T11:15:19.000Z</Time>
            <Position>
              <LatitudeDegrees>36.82631646282970905303955078125</LatitudeDegrees>
              <LongitudeDegrees>-4.364079795777797698974609375</LongitudeDegrees>
            </Position>
            <AltitudeMeters>730.20001220703125</AltitudeMeters>
            <DistanceMeters>NAN</DistanceMeters>
          </Trackpoint>
          <Trackpoint>
            <Time>2020-12-05T11:15:20.000Z</Time>
            <Position>
              <LatitudeDegrees>36.8263182230293750762939453125</LatitudeDegrees>
              <LongitudeDegrees>-4.36408021487295627593994140625</LongitudeDegrees>
            </Position>
            <AltitudeMeters>730.20001220703125</AltitudeMeters>
            <DistanceMeters>NAN</DistanceMeters>
          </Trackpoint>
          <Trackpoint>
            <Time>2020-12-05T11:15:21.000Z</Time>
            <Position>
              <LatitudeDegrees>36.82631780393421649932861328125</LatitudeDegrees>
              <LongitudeDegrees>-4.36408172361552715301513671875</LongitudeDegrees>
            </Position>
            <AltitudeMeters>730.20001220703125</AltitudeMeters>
            <DistanceMeters>NAN</DistanceMeters>
          </Trackpoint>
          <Trackpoint>
            <Time>2020-12-05T11:15:22.000Z</Time>
            <Position>
              <LatitudeDegrees>36.82631696574389934539794921875</LatitudeDegrees>
              <LongitudeDegrees>-4.36408289708197116851806640625</LongitudeDegrees>
            </Position>
            <AltitudeMeters>730.20001220703125</AltitudeMeters>
            <DistanceMeters>NAN</DistanceMeters>
          </Trackpoint>
          <Trackpoint>
            <Time>2020-12-05T11:15:23.000Z</Time>
            <Position>
              <LatitudeDegrees>36.82631780393421649932861328125</LatitudeDegrees>
              <LongitudeDegrees>-4.36408474110066890716552734375</LongitudeDegrees>
            </Position>
            <AltitudeMeters>730.20001220703125</AltitudeMeters>
            <DistanceMeters>NAN</DistanceMeters>
          </Trackpoint>
          <Trackpoint>
            <Time>2020-12-05T11:15:27.000Z</Time>
            <Position>
              <LatitudeDegrees>36.8263172172009944915771484375</LatitudeDegrees>
              <LongitudeDegrees>-4.36405238695442676544189453125</LongitudeDegrees>
            </Position>
            <AltitudeMeters>730.79998779296875</AltitudeMeters>
            <DistanceMeters>NAN</DistanceMeters>
          </Trackpoint>
          <Trackpoint>
            <Time>2020-12-05T11:15:28.000Z</Time>
            <Position>
              <LatitudeDegrees>36.82631696574389934539794921875</LatitudeDegrees>
              <LongitudeDegrees>-4.364046268165111541748046875</LongitudeDegrees>
            </Position>
            <AltitudeMeters>731</AltitudeMeters>
            <DistanceMeters>NAN</DistanceMeters>
          </Trackpoint>
          <Trackpoint>
            <Time>2020-12-05T11:15:29.000Z</Time>
            <Position>
              <LatitudeDegrees>36.82631797157227993011474609375</LatitudeDegrees>
              <LongitudeDegrees>-4.36404115520417690277099609375</LongitudeDegrees>
            </Position>
            <AltitudeMeters>731</AltitudeMeters>
            <DistanceMeters>NAN</DistanceMeters>
          </Trackpoint>
          <Trackpoint>
            <Time>2020-12-05T11:15:39.000Z</Time>
            <Position>
              <LatitudeDegrees>36.826317049562931060791015625</LatitudeDegrees>
              <LongitudeDegrees>-4.36406278051435947418212890625</LongitudeDegrees>
            </Position>
            <AltitudeMeters>731.5999755859375</AltitudeMeters>
            <DistanceMeters>NAN</DistanceMeters>
          </Trackpoint>
          <Trackpoint>
            <Time>2020-12-05T11:15:40.000Z</Time>
            <Position>
              <LatitudeDegrees>36.8263168819248676300048828125</LatitudeDegrees>
              <LongitudeDegrees>-4.36406143940985202789306640625</LongitudeDegrees>
            </Position>
            <AltitudeMeters>731.79998779296875</AltitudeMeters>
            <DistanceMeters>NAN</DistanceMeters>
          </Trackpoint>
          <Trackpoint>
            <Time>2020-12-05T11:15:43.000Z</Time>
            <Position>
              <LatitudeDegrees>36.82632233016192913055419921875</LatitudeDegrees>
              <LongitudeDegrees>-4.3640756048262119293212890625</LongitudeDegrees>
            </Position>
            <AltitudeMeters>732</AltitudeMeters>
            <DistanceMeters>NAN</DistanceMeters>
          </Trackpoint>
          <Trackpoint>
            <Time>2020-12-05T11:15:44.000Z</Time>
            <Position>
              <LatitudeDegrees>36.8263266049325466156005859375</LatitudeDegrees>
              <LongitudeDegrees>-4.3640873394906520843505859375</LongitudeDegrees>
            </Position>
            <AltitudeMeters>732</AltitudeMeters>
            <DistanceMeters>NAN</DistanceMeters>
          </Trackpoint>
          <Trackpoint>
            <Time>2020-12-05T11:15:45.000Z</Time>
            <Position>
              <LatitudeDegrees>36.8263279460370540618896484375</LatitudeDegrees>
              <LongitudeDegrees>-4.36409144662320613861083984375</LongitudeDegrees>
            </Position>
            <AltitudeMeters>732</AltitudeMeters>
            <DistanceMeters>NAN</DistanceMeters>
          </Trackpoint>
          <Trackpoint>
            <Time>2020-12-05T11:15:46.000Z</Time>
            <Position>
              <LatitudeDegrees>36.8263302929699420928955078125</LatitudeDegrees>
              <LongitudeDegrees>-4.3640910275280475616455078125</LongitudeDegrees>
            </Position>
            <AltitudeMeters>731.79998779296875</AltitudeMeters>
            <DistanceMeters>NAN</DistanceMeters>
          </Trackpoint>
          <Trackpoint>
            <Time>2020-12-05T11:15:47.000Z</Time>
            <Position>
              <LatitudeDegrees>36.82633138261735439300537109375</LatitudeDegrees>
              <LongitudeDegrees>-4.3640900216996669769287109375</LongitudeDegrees>
            </Position>
            <AltitudeMeters>731.79998779296875</AltitudeMeters>
            <DistanceMeters>NAN</DistanceMeters>
          </Trackpoint>
          <Trackpoint>
            <Time>2020-12-05T11:15:48.000Z</Time>
            <Position>
              <LatitudeDegrees>36.826331801712512969970703125</LatitudeDegrees>
              <LongitudeDegrees>-4.3640893511474132537841796875</LongitudeDegrees>
            </Position>
            <AltitudeMeters>731.5999755859375</AltitudeMeters>
            <DistanceMeters>NAN</DistanceMeters>
          </Trackpoint>
          <Trackpoint>
            <Time>2020-12-05T11:15:49.000Z</Time>
            <Position>
              <LatitudeDegrees>36.8263314664363861083984375</LatitudeDegrees>
              <LongitudeDegrees>-4.36408876441419124603271484375</LongitudeDegrees>
            </Position>
            <AltitudeMeters>731.5999755859375</AltitudeMeters>
            <DistanceMeters>NAN</DistanceMeters>
          </Trackpoint>
          <Trackpoint>
            <Time>2020-12-05T11:15:50.000Z</Time>
            <Position>
              <LatitudeDegrees>36.826331131160259246826171875</LatitudeDegrees>
              <LongitudeDegrees>-4.3640873394906520843505859375</LongitudeDegrees>
            </Position>
            <AltitudeMeters>731.5999755859375</AltitudeMeters>
            <DistanceMeters>NAN</DistanceMeters>
          </Trackpoint>
          <Trackpoint>
            <Time>2020-12-05T11:15:51.000Z</Time>
            <Position>
              <LatitudeDegrees>36.82632953859865665435791015625</LatitudeDegrees>
              <LongitudeDegrees>-4.36408591456711292266845703125</LongitudeDegrees>
            </Position>
            <AltitudeMeters>731.79998779296875</AltitudeMeters>
            <DistanceMeters>NAN</DistanceMeters>
          </Trackpoint>
          <Trackpoint>
            <Time>2020-12-05T11:15:52.000Z</Time>
            <Position>
              <LatitudeDegrees>36.8262300454080104827880859375</LatitudeDegrees>
              <LongitudeDegrees>-4.36405288986861705780029296875</LongitudeDegrees>
            </Position>
            <AltitudeMeters>731.79998779296875</AltitudeMeters>
            <DistanceMeters>NAN</DistanceMeters>
          </Trackpoint>
          <Trackpoint>
            <Time>2020-12-05T11:15:53.000Z</Time>
            <Position>
              <LatitudeDegrees>36.82623867876827716827392578125</LatitudeDegrees>
              <LongitudeDegrees>-4.3640246428549289703369140625</LongitudeDegrees>
            </Position>
            <AltitudeMeters>732</AltitudeMeters>
            <DistanceMeters>NAN</DistanceMeters>
          </Trackpoint>
          <Trackpoint>
            <Time>2020-12-05T11:15:54.000Z</Time>
            <Position>
              <LatitudeDegrees>36.8262243457138538360595703125</LatitudeDegrees>
              <LongitudeDegrees>-4.3640236370265483856201171875</LongitudeDegrees>
            </Position>
            <AltitudeMeters>732</AltitudeMeters>
            <DistanceMeters>NAN</DistanceMeters>
          </Trackpoint>
          <Trackpoint>
            <Time>2020-12-05T11:15:55.000Z</Time>
            <Position>
              <LatitudeDegrees>36.82624521665275096893310546875</LatitudeDegrees>
              <LongitudeDegrees>-4.364031516015529632568359375</LongitudeDegrees>
            </Position>
            <AltitudeMeters>732</AltitudeMeters>
            <DistanceMeters>NAN</DistanceMeters>
          </Trackpoint>
          <Trackpoint>
            <Time>2020-12-05T11:15:56.000Z</Time>
            <Position>
              <LatitudeDegrees>36.82626097463071346282958984375</LatitudeDegrees>
              <LongitudeDegrees>-4.36404132284224033355712890625</LongitudeDegrees>
            </Position>
            <AltitudeMeters>732</AltitudeMeters>
            <DistanceMeters>NAN</DistanceMeters>
          </Trackpoint>
          <Trackpoint>
            <Time>2020-12-05T11:15:57.000Z</Time>
            <Position>
              <LatitudeDegrees>36.82628142647445201873779296875</LatitudeDegrees>
              <LongitudeDegrees>-4.36404668726027011871337890625</LongitudeDegrees>
            </Position>
            <AltitudeMeters>732</AltitudeMeters>
            <DistanceMeters>NAN</DistanceMeters>
          </Trackpoint>
          <Trackpoint>
            <Time>2020-12-05T11:15:58.000Z</Time>
            <Position>
              <LatitudeDegrees>36.8262927420437335968017578125</LatitudeDegrees>
              <LongitudeDegrees>-4.36405641026794910430908203125</LongitudeDegrees>
            </Position>
            <AltitudeMeters>732</AltitudeMeters>
            <DistanceMeters>NAN</DistanceMeters>
          </Trackpoint>
          <Trackpoint>
            <Time>2020-12-05T11:15:59.000Z</Time>
            <Position>
              <LatitudeDegrees>36.826302297413349151611328125</LatitudeDegrees>
              <LongitudeDegrees>-4.36406428925693035125732421875</LongitudeDegrees>
            </Position>
            <AltitudeMeters>732</AltitudeMeters>
            <DistanceMeters>NAN</DistanceMeters>
          </Trackpoint>
          <Trackpoint>
            <Time>2020-12-05T11:16:03.000Z</Time>
            <Position>
              <LatitudeDegrees>36.82627622969448566436767578125</LatitudeDegrees>
              <LongitudeDegrees>-4.3640749342739582061767578125</LongitudeDegrees>
            </Position>
            <AltitudeMeters>731.5999755859375</AltitudeMeters>
            <DistanceMeters>NAN</DistanceMeters>
          </Trackpoint>
          <Trackpoint>
            <Time>2020-12-05T11:16:04.000Z</Time>
            <Position>
              <LatitudeDegrees>36.82627874426543712615966796875</LatitudeDegrees>
              <LongitudeDegrees>-4.36405389569699764251708984375</LongitudeDegrees>
            </Position>
            <AltitudeMeters>731.5999755859375</AltitudeMeters>
            <DistanceMeters>NAN</DistanceMeters>
          </Trackpoint>
          <Trackpoint>
            <Time>2020-12-05T11:16:05.000Z</Time>
            <Position>
              <LatitudeDegrees>36.826282851397991180419921875</LatitudeDegrees>
              <LongitudeDegrees>-4.36405842192471027374267578125</LongitudeDegrees>
            </Position>
            <AltitudeMeters>731.5999755859375</AltitudeMeters>
            <DistanceMeters>NAN</DistanceMeters>
          </Trackpoint>
          <Trackpoint>
            <Time>2020-12-05T11:16:06.000Z</Time>
            <Position>
              <LatitudeDegrees>36.82627589441835880279541015625</LatitudeDegrees>
              <LongitudeDegrees>-4.36403243802487850189208984375</LongitudeDegrees>
            </Position>
            <AltitudeMeters>731.4000244140625</AltitudeMeters>
            <DistanceMeters>NAN</DistanceMeters>
          </Trackpoint>
          <Trackpoint>
            <Time>2020-12-05T11:16:07.000Z</Time>
            <Position>
              <LatitudeDegrees>36.82626935653388500213623046875</LatitudeDegrees>
              <LongitudeDegrees>-4.36404501087963581085205078125</LongitudeDegrees>
            </Position>
            <AltitudeMeters>731.4000244140625</AltitudeMeters>
            <DistanceMeters>NAN</DistanceMeters>
          </Trackpoint>
          <Trackpoint>
            <Time>2020-12-05T11:16:08.000Z</Time>
            <Position>
              <LatitudeDegrees>36.82627924717962741851806640625</LatitudeDegrees>
              <LongitudeDegrees>-4.3640514649450778961181640625</LongitudeDegrees>
            </Position>
            <AltitudeMeters>731.4000244140625</AltitudeMeters>
            <DistanceMeters>NAN</DistanceMeters>
          </Trackpoint>
          <Trackpoint>
            <Time>2020-12-05T11:16:09.000Z</Time>
            <Position>
              <LatitudeDegrees>36.82629458606243133544921875</LatitudeDegrees>
              <LongitudeDegrees>-4.36404056847095489501953125</LongitudeDegrees>
            </Position>
            <AltitudeMeters>731.20001220703125</AltitudeMeters>
            <DistanceMeters>NAN</DistanceMeters>
          </Trackpoint>
          <Trackpoint>
            <Time>2020-12-05T11:16:13.000Z</Time>
            <Position>
              <LatitudeDegrees>36.826341859996318817138671875</LatitudeDegrees>
              <LongitudeDegrees>-4.36404249630868434906005859375</LongitudeDegrees>
            </Position>
            <AltitudeMeters>731</AltitudeMeters>
            <DistanceMeters>NAN</DistanceMeters>
          </Trackpoint>
          <Trackpoint>
            <Time>2020-12-05T11:16:14.000Z</Time>
            <Position>
              <LatitudeDegrees>36.82635803706943988800048828125</LatitudeDegrees>
              <LongitudeDegrees>-4.36403646133840084075927734375</LongitudeDegrees>
            </Position>
            <AltitudeMeters>731.20001220703125</AltitudeMeters>
            <DistanceMeters>NAN</DistanceMeters>
          </Trackpoint>
          <Trackpoint>
            <Time>2020-12-05T11:16:15.000Z</Time>
            <Position>
              <LatitudeDegrees>36.82636524550616741180419921875</LatitudeDegrees>
              <LongitudeDegrees>-4.3640457652509212493896484375</LongitudeDegrees>
            </Position>
            <AltitudeMeters>731.20001220703125</AltitudeMeters>
            <DistanceMeters>NAN</DistanceMeters>
          </Trackpoint>
          <Trackpoint>
            <Time>2020-12-05T11:16:16.000Z</Time>
            <Position>
              <LatitudeDegrees>36.82636155746877193450927734375</LatitudeDegrees>
              <LongitudeDegrees>-4.36404668726027011871337890625</LongitudeDegrees>
            </Position>
            <AltitudeMeters>731.4000244140625</AltitudeMeters>
            <DistanceMeters>NAN</DistanceMeters>
          </Trackpoint>
          <Trackpoint>
            <Time>2020-12-05T11:16:17.000Z</Time>
            <Position>
              <LatitudeDegrees>36.8263577856123447418212890625</LatitudeDegrees>
              <LongitudeDegrees>-4.36404618434607982635498046875</LongitudeDegrees>
            </Position>
            <AltitudeMeters>731.4000244140625</AltitudeMeters>
            <DistanceMeters>NAN</DistanceMeters>
          </Trackpoint>
          <Trackpoint>
            <Time>2020-12-05T11:16:18.000Z</Time>
            <Position>
              <LatitudeDegrees>36.82635225355625152587890625</LatitudeDegrees>
              <LongitudeDegrees>-4.3640598468482494354248046875</LongitudeDegrees>
            </Position>
            <AltitudeMeters>731.4000244140625</AltitudeMeters>
            <DistanceMeters>NAN</DistanceMeters>
          </Trackpoint>
          <Trackpoint>
            <Time>2020-12-05T11:16:19.000Z</Time>
            <Position>
              <LatitudeDegrees>36.8263477273285388946533203125</LatitudeDegrees>
              <LongitudeDegrees>-4.3640734255313873291015625</LongitudeDegrees>
            </Position>
            <AltitudeMeters>731.4000244140625</AltitudeMeters>
            <DistanceMeters>NAN</DistanceMeters>
          </Trackpoint>
          <Trackpoint>
            <Time>2020-12-05T11:16:20.000Z</Time>
            <Position>
              <LatitudeDegrees>36.82634009979665279388427734375</LatitudeDegrees>
              <LongitudeDegrees>-4.36408658511936664581298828125</LongitudeDegrees>
            </Position>
            <AltitudeMeters>731.20001220703125</AltitudeMeters>
            <DistanceMeters>NAN</DistanceMeters>
          </Trackpoint>
          <Trackpoint>
            <Time>2020-12-05T11:16:21.000Z</Time>
            <Position>
              <LatitudeDegrees>36.82631746865808963775634765625</LatitudeDegrees>
              <LongitudeDegrees>-4.36411458067595958709716796875</LongitudeDegrees>
            </Position>
            <AltitudeMeters>731.20001220703125</AltitudeMeters>
            <DistanceMeters>NAN</DistanceMeters>
          </Trackpoint>
          <Trackpoint>
            <Time>2020-12-05T11:16:22.000Z</Time>
            <Position>
              <LatitudeDegrees>36.826306320726871490478515625</LatitudeDegrees>
              <LongitudeDegrees>-4.36413553543388843536376953125</LongitudeDegrees>
            </Position>
            <AltitudeMeters>731</AltitudeMeters>
            <DistanceMeters>NAN</DistanceMeters>
          </Trackpoint>
          <Trackpoint>
            <Time>2020-12-05T11:16:23.000Z</Time>
            <Position>
              <LatitudeDegrees>36.82629567570984363555908203125</LatitudeDegrees>
              <LongitudeDegrees>-4.3640732578933238983154296875</LongitudeDegrees>
            </Position>
            <AltitudeMeters>730.79998779296875</AltitudeMeters>
            <DistanceMeters>NAN</DistanceMeters>
          </Trackpoint>
          <Trackpoint>
            <Time>2020-12-05T11:16:24.000Z</Time>
            <Position>
              <LatitudeDegrees>36.82629701681435108184814453125</LatitudeDegrees>
              <LongitudeDegrees>-4.36406931839883327484130859375</LongitudeDegrees>
            </Position>
            <AltitudeMeters>730.5999755859375</AltitudeMeters>
            <DistanceMeters>NAN</DistanceMeters>
          </Trackpoint>
          <Trackpoint>
            <Time>2020-12-05T11:16:27.000Z</Time>
            <Position>
              <LatitudeDegrees>36.82630171068012714385986328125</LatitudeDegrees>
              <LongitudeDegrees>-4.36405188404023647308349609375</LongitudeDegrees>
            </Position>
            <AltitudeMeters>730</AltitudeMeters>
            <DistanceMeters>NAN</DistanceMeters>
          </Trackpoint>
          <Trackpoint>
            <Time>2020-12-05T11:16:30.000Z</Time>
            <Position>
              <LatitudeDegrees>36.82630942203104496002197265625</LatitudeDegrees>
              <LongitudeDegrees>-4.36403964646160602569580078125</LongitudeDegrees>
            </Position>
            <AltitudeMeters>730</AltitudeMeters>
            <DistanceMeters>NAN</DistanceMeters>
          </Trackpoint>
          <Trackpoint>
            <Time>2020-12-05T11:16:31.000Z</Time>
            <Position>
              <LatitudeDegrees>36.82631093077361583709716796875</LatitudeDegrees>
              <LongitudeDegrees>-4.36403528787195682525634765625</LongitudeDegrees>
            </Position>
            <AltitudeMeters>730.20001220703125</AltitudeMeters>
            <DistanceMeters>NAN</DistanceMeters>
          </Trackpoint>
          <Trackpoint>
            <Time>2020-12-05T11:16:34.000Z</Time>
            <Position>
              <LatitudeDegrees>36.82631981559097766876220703125</LatitudeDegrees>
              <LongitudeDegrees>-4.36403092928230762481689453125</LongitudeDegrees>
            </Position>
            <AltitudeMeters>730.5999755859375</AltitudeMeters>
            <DistanceMeters>NAN</DistanceMeters>
          </Trackpoint>
          <Trackpoint>
            <Time>2020-12-05T11:20:47.000Z</Time>
            <Position>
              <LatitudeDegrees>36.8260764889419078826904296875</LatitudeDegrees>
              <LongitudeDegrees>-4.36393864452838897705078125</LongitudeDegrees>
            </Position>
            <AltitudeMeters>730.20001220703125</AltitudeMeters>
            <DistanceMeters>NAN</DistanceMeters>
          </Trackpoint>
          <Trackpoint>
            <Time>2020-12-05T11:20:55.000Z</Time>
            <Position>
              <LatitudeDegrees>36.82613491080701351165771484375</LatitudeDegrees>
              <LongitudeDegrees>-4.3639528937637805938720703125</LongitudeDegrees>
            </Position>
            <AltitudeMeters>730.20001220703125</AltitudeMeters>
            <DistanceMeters>NAN</DistanceMeters>
          </Trackpoint>
          <Trackpoint>
            <Time>2020-12-05T11:20:56.000Z</Time>
            <Position>
              <LatitudeDegrees>36.82614647783339023590087890625</LatitudeDegrees>
              <LongitudeDegrees>-4.363951720297336578369140625</LongitudeDegrees>
            </Position>
            <AltitudeMeters>730.20001220703125</AltitudeMeters>
            <DistanceMeters>NAN</DistanceMeters>
          </Trackpoint>
          <Trackpoint>
            <Time>2020-12-05T11:20:57.000Z</Time>
            <Position>
              <LatitudeDegrees>36.82615536265075206756591796875</LatitudeDegrees>
              <LongitudeDegrees>-4.363952390849590301513671875</LongitudeDegrees>
            </Position>
            <AltitudeMeters>730.20001220703125</AltitudeMeters>
            <DistanceMeters>NAN</DistanceMeters>
          </Trackpoint>
          <Trackpoint>
            <Time>2020-12-05T11:20:58.000Z</Time>
            <Position>
              <LatitudeDegrees>36.8261616490781307220458984375</LatitudeDegrees>
              <LongitudeDegrees>-4.363952390849590301513671875</LongitudeDegrees>
            </Position>
            <AltitudeMeters>730.20001220703125</AltitudeMeters>
            <DistanceMeters>NAN</DistanceMeters>
          </Trackpoint>
          <Trackpoint>
            <Time>2020-12-05T11:20:59.000Z</Time>
            <Position>
              <LatitudeDegrees>36.82616625912487506866455078125</LatitudeDegrees>
              <LongitudeDegrees>-4.3639522232115268707275390625</LongitudeDegrees>
            </Position>
            <AltitudeMeters>730.20001220703125</AltitudeMeters>
            <DistanceMeters>NAN</DistanceMeters>
          </Trackpoint>
          <Trackpoint>
            <Time>2020-12-05T11:21:28.000Z</Time>
            <Position>
              <LatitudeDegrees>36.8262672610580921173095703125</LatitudeDegrees>
              <LongitudeDegrees>-4.363901428878307342529296875</LongitudeDegrees>
            </Position>
            <AltitudeMeters>730.20001220703125</AltitudeMeters>
            <DistanceMeters>NAN</DistanceMeters>
          </Trackpoint>
          <Trackpoint>
            <Time>2020-12-05T11:21:29.000Z</Time>
            <Position>
              <LatitudeDegrees>36.82626801542937755584716796875</LatitudeDegrees>
              <LongitudeDegrees>-4.36390033923089504241943359375</LongitudeDegrees>
            </Position>
            <AltitudeMeters>730.20001220703125</AltitudeMeters>
            <DistanceMeters>NAN</DistanceMeters>
          </Trackpoint>
          <Trackpoint>
            <Time>2020-12-05T11:21:30.000Z</Time>
            <Position>
              <LatitudeDegrees>36.82626801542937755584716796875</LatitudeDegrees>
              <LongitudeDegrees>-4.3638989143073558807373046875</LongitudeDegrees>
            </Position>
            <AltitudeMeters>730.20001220703125</AltitudeMeters>
            <DistanceMeters>NAN</DistanceMeters>
          </Trackpoint>
          <Trackpoint>
            <Time>2020-12-05T11:21:31.000Z</Time>
            <Position>
              <LatitudeDegrees>36.8262699432671070098876953125</LatitudeDegrees>
              <LongitudeDegrees>-4.36389782465994358062744140625</LongitudeDegrees>
            </Position>
            <AltitudeMeters>730.20001220703125</AltitudeMeters>
            <DistanceMeters>NAN</DistanceMeters>
          </Trackpoint>
          <Trackpoint>
            <Time>2020-12-05T11:21:32.000Z</Time>
            <Position>
              <LatitudeDegrees>36.82627312839031219482421875</LatitudeDegrees>
              <LongitudeDegrees>-4.36389497481286525726318359375</LongitudeDegrees>
            </Position>
            <AltitudeMeters>730.20001220703125</AltitudeMeters>
            <DistanceMeters>NAN</DistanceMeters>
          </Trackpoint>
          <Trackpoint>
            <Time>2020-12-05T11:21:33.000Z</Time>
            <Position>
              <LatitudeDegrees>36.82627673260867595672607421875</LatitudeDegrees>
              <LongitudeDegrees>-4.363893382251262664794921875</LongitudeDegrees>
            </Position>
            <AltitudeMeters>730.20001220703125</AltitudeMeters>
            <DistanceMeters>NAN</DistanceMeters>
          </Trackpoint>
          <Trackpoint>
            <Time>2020-12-05T11:21:34.000Z</Time>
            <Position>
              <LatitudeDegrees>36.82628042064607143402099609375</LatitudeDegrees>
              <LongitudeDegrees>-4.3638955615460872650146484375</LongitudeDegrees>
            </Position>
            <AltitudeMeters>730.20001220703125</AltitudeMeters>
            <DistanceMeters>NAN</DistanceMeters>
          </Trackpoint>
          <Trackpoint>
            <Time>2020-12-05T11:21:35.000Z</Time>
            <Position>
              <LatitudeDegrees>36.8262778222560882568359375</LatitudeDegrees>
              <LongitudeDegrees>-4.3638969026505947113037109375</LongitudeDegrees>
            </Position>
            <AltitudeMeters>730.20001220703125</AltitudeMeters>
            <DistanceMeters>NAN</DistanceMeters>
          </Trackpoint>
          <Trackpoint>
            <Time>2020-12-05T11:21:36.000Z</Time>
            <Position>
              <LatitudeDegrees>36.82627723552286624908447265625</LatitudeDegrees>
              <LongitudeDegrees>-4.3638990819454193115234375</LongitudeDegrees>
            </Position>
            <AltitudeMeters>730.20001220703125</AltitudeMeters>
            <DistanceMeters>NAN</DistanceMeters>
          </Trackpoint>
          <Trackpoint>
            <Time>2020-12-05T11:21:37.000Z</Time>
            <Position>
              <LatitudeDegrees>36.8262766487896442413330078125</LatitudeDegrees>
              <LongitudeDegrees>-4.36390109360218048095703125</LongitudeDegrees>
            </Position>
            <AltitudeMeters>730.20001220703125</AltitudeMeters>
            <DistanceMeters>NAN</DistanceMeters>
          </Trackpoint>
          <Trackpoint>
            <Time>2020-12-05T11:21:38.000Z</Time>
            <Position>
              <LatitudeDegrees>36.8262639082968235015869140625</LatitudeDegrees>
              <LongitudeDegrees>-4.3639156781136989593505859375</LongitudeDegrees>
            </Position>
            <AltitudeMeters>730.20001220703125</AltitudeMeters>
            <DistanceMeters>NAN</DistanceMeters>
          </Trackpoint>
          <Trackpoint>
            <Time>2020-12-05T11:22:08.000Z</Time>
            <Position>
              <LatitudeDegrees>36.82615888305008411407470703125</LatitudeDegrees>
              <LongitudeDegrees>-4.36397728510200977325439453125</LongitudeDegrees>
            </Position>
            <AltitudeMeters>730.20001220703125</AltitudeMeters>
            <DistanceMeters>NAN</DistanceMeters>
          </Trackpoint>
          <Trackpoint>
            <Time>2020-12-05T11:23:28.000Z</Time>
            <Position>
              <LatitudeDegrees>36.82645895518362522125244140625</LatitudeDegrees>
              <LongitudeDegrees>-4.363753236830234527587890625</LongitudeDegrees>
            </Position>
            <AltitudeMeters>730.20001220703125</AltitudeMeters>
            <DistanceMeters>NAN</DistanceMeters>
          </Trackpoint>
          <Trackpoint>
            <Time>2020-12-05T11:23:29.000Z</Time>
            <Position>
              <LatitudeDegrees>36.8264543451368808746337890625</LatitudeDegrees>
              <LongitudeDegrees>-4.363774359226226806640625</LongitudeDegrees>
            </Position>
            <AltitudeMeters>730.20001220703125</AltitudeMeters>
            <DistanceMeters>NAN</DistanceMeters>
          </Trackpoint>
          <Trackpoint>
            <Time>2020-12-05T11:23:30.000Z</Time>
            <Position>
              <LatitudeDegrees>36.82645157910883426666259765625</LatitudeDegrees>
              <LongitudeDegrees>-4.36378802172839641571044921875</LongitudeDegrees>
            </Position>
            <AltitudeMeters>730.20001220703125</AltitudeMeters>
            <DistanceMeters>NAN</DistanceMeters>
          </Trackpoint>
          <Trackpoint>
            <Time>2020-12-05T11:23:31.000Z</Time>
            <Position>
              <LatitudeDegrees>36.82645107619464397430419921875</LatitudeDegrees>
              <LongitudeDegrees>-4.36379372142255306243896484375</LongitudeDegrees>
            </Position>
            <AltitudeMeters>730.20001220703125</AltitudeMeters>
            <DistanceMeters>NAN</DistanceMeters>
          </Trackpoint>
          <Trackpoint>
            <Time>2020-12-05T11:24:20.000Z</Time>
            <Position>
              <LatitudeDegrees>36.82627673260867595672607421875</LatitudeDegrees>
              <LongitudeDegrees>-4.364084489643573760986328125</LongitudeDegrees>
            </Position>
            <AltitudeMeters>730.20001220703125</AltitudeMeters>
            <DistanceMeters>NAN</DistanceMeters>
          </Trackpoint>
          <Trackpoint>
            <Time>2020-12-05T11:24:21.000Z</Time>
            <Position>
              <LatitudeDegrees>36.8262773193418979644775390625</LatitudeDegrees>
              <LongitudeDegrees>-4.36408105306327342987060546875</LongitudeDegrees>
            </Position>
            <AltitudeMeters>730.20001220703125</AltitudeMeters>
            <DistanceMeters>NAN</DistanceMeters>
          </Trackpoint>
          <Trackpoint>
            <Time>2020-12-05T11:24:22.000Z</Time>
            <Position>
              <LatitudeDegrees>36.8262853659689426422119140625</LatitudeDegrees>
              <LongitudeDegrees>-4.36408960260450839996337890625</LongitudeDegrees>
            </Position>
            <AltitudeMeters>730.20001220703125</AltitudeMeters>
            <DistanceMeters>NAN</DistanceMeters>
          </Trackpoint>
          <Trackpoint>
            <Time>2020-12-05T11:24:23.000Z</Time>
            <Position>
              <LatitudeDegrees>36.82629081420600414276123046875</LatitudeDegrees>
              <LongitudeDegrees>-4.36410150490701198577880859375</LongitudeDegrees>
            </Position>
            <AltitudeMeters>730.20001220703125</AltitudeMeters>
            <DistanceMeters>NAN</DistanceMeters>
          </Trackpoint>
          <Trackpoint>
            <Time>2020-12-05T11:24:24.000Z</Time>
            <Position>
              <LatitudeDegrees>36.8262912333011627197265625</LatitudeDegrees>
              <LongitudeDegrees>-4.36413888819515705108642578125</LongitudeDegrees>
            </Position>
            <AltitudeMeters>730.20001220703125</AltitudeMeters>
            <DistanceMeters>NAN</DistanceMeters>
          </Trackpoint>
          <Trackpoint>
            <Time>2020-12-05T11:24:25.000Z</Time>
            <Position>
              <LatitudeDegrees>36.8262907303869724273681640625</LatitudeDegrees>
              <LongitudeDegrees>-4.3641510419547557830810546875</LongitudeDegrees>
            </Position>
            <AltitudeMeters>730.20001220703125</AltitudeMeters>
            <DistanceMeters>NAN</DistanceMeters>
          </Trackpoint>
          <Trackpoint>
            <Time>2020-12-05T11:24:26.000Z</Time>
            <Position>
              <LatitudeDegrees>36.826285533607006072998046875</LatitudeDegrees>
              <LongitudeDegrees>-4.3641641177237033843994140625</LongitudeDegrees>
            </Position>
            <AltitudeMeters>730.20001220703125</AltitudeMeters>
            <DistanceMeters>NAN</DistanceMeters>
          </Trackpoint>
          <Trackpoint>
            <Time>2020-12-05T11:24:27.000Z</Time>
            <Position>
              <LatitudeDegrees>36.82627371512353420257568359375</LatitudeDegrees>
              <LongitudeDegrees>-4.364166967570781707763671875</LongitudeDegrees>
            </Position>
            <AltitudeMeters>730.20001220703125</AltitudeMeters>
            <DistanceMeters>NAN</DistanceMeters>
          </Trackpoint>
          <Trackpoint>
            <Time>2020-12-05T11:24:28.000Z</Time>
            <Position>
              <LatitudeDegrees>36.82625292800366878509521484375</LatitudeDegrees>
              <LongitudeDegrees>-4.36416436918079853057861328125</LongitudeDegrees>
            </Position>
            <AltitudeMeters>730.20001220703125</AltitudeMeters>
            <DistanceMeters>NAN</DistanceMeters>
          </Trackpoint>
          <Trackpoint>
            <Time>2020-12-05T11:24:29.000Z</Time>
            <Position>
              <LatitudeDegrees>36.82624085806310176849365234375</LatitudeDegrees>
              <LongitudeDegrees>-4.364163614809513092041015625</LongitudeDegrees>
            </Position>
            <AltitudeMeters>730.20001220703125</AltitudeMeters>
            <DistanceMeters>NAN</DistanceMeters>
          </Trackpoint>
          <Trackpoint>
            <Time>2020-12-05T11:24:30.000Z</Time>
            <Position>
              <LatitudeDegrees>36.82623180560767650604248046875</LatitudeDegrees>
              <LongitudeDegrees>-4.3641664646565914154052734375</LongitudeDegrees>
            </Position>
            <AltitudeMeters>730.20001220703125</AltitudeMeters>
            <DistanceMeters>NAN</DistanceMeters>
          </Trackpoint>
          <Trackpoint>
            <Time>2020-12-05T11:24:31.000Z</Time>
            <Position>
              <LatitudeDegrees>36.82622618973255157470703125</LatitudeDegrees>
              <LongitudeDegrees>-4.36416721902787685394287109375</LongitudeDegrees>
            </Position>
            <AltitudeMeters>730.20001220703125</AltitudeMeters>
            <DistanceMeters>NAN</DistanceMeters>
          </Trackpoint>
          <Trackpoint>
            <Time>2020-12-05T11:24:32.000Z</Time>
            <Position>
              <LatitudeDegrees>36.8262236751616001129150390625</LatitudeDegrees>
              <LongitudeDegrees>-4.3641661293804645538330078125</LongitudeDegrees>
            </Position>
            <AltitudeMeters>730.20001220703125</AltitudeMeters>
            <DistanceMeters>NAN</DistanceMeters>
          </Trackpoint>
          <Trackpoint>
            <Time>2020-12-05T11:24:33.000Z</Time>
            <Position>
              <LatitudeDegrees>36.8262213282287120819091796875</LatitudeDegrees>
              <LongitudeDegrees>-4.36416805721819400787353515625</LongitudeDegrees>
            </Position>
            <AltitudeMeters>730.20001220703125</AltitudeMeters>
            <DistanceMeters>NAN</DistanceMeters>
          </Trackpoint>
          <Trackpoint>
            <Time>2020-12-05T11:24:34.000Z</Time>
            <Position>
              <LatitudeDegrees>36.82621906511485576629638671875</LatitudeDegrees>
              <LongitudeDegrees>-4.36416621319949626922607421875</LongitudeDegrees>
            </Position>
            <AltitudeMeters>730.20001220703125</AltitudeMeters>
            <DistanceMeters>NAN</DistanceMeters>
          </Trackpoint>
          <Trackpoint>
            <Time>2020-12-05T11:24:35.000Z</Time>
            <Position>
              <LatitudeDegrees>36.8262179754674434661865234375</LatitudeDegrees>
              <LongitudeDegrees>-4.364162273705005645751953125</LongitudeDegrees>
            </Position>
            <AltitudeMeters>730</AltitudeMeters>
            <DistanceMeters>NAN</DistanceMeters>
          </Trackpoint>
          <Trackpoint>
            <Time>2020-12-05T11:24:36.000Z</Time>
            <Position>
              <LatitudeDegrees>36.82621168904006481170654296875</LatitudeDegrees>
              <LongitudeDegrees>-4.364160262048244476318359375</LongitudeDegrees>
            </Position>
            <AltitudeMeters>730</AltitudeMeters>
            <DistanceMeters>NAN</DistanceMeters>
          </Trackpoint>
          <Trackpoint>
            <Time>2020-12-05T11:24:37.000Z</Time>
            <Position>
              <LatitudeDegrees>36.82620565406978130340576171875</LatitudeDegrees>
              <LongitudeDegrees>-4.36415816657245159149169921875</LongitudeDegrees>
            </Position>
            <AltitudeMeters>730</AltitudeMeters>
            <DistanceMeters>NAN</DistanceMeters>
          </Trackpoint>
          <Trackpoint>
            <Time>2020-12-05T11:24:38.000Z</Time>
            <Position>
              <LatitudeDegrees>36.82620263658463954925537109375</LatitudeDegrees>
              <LongitudeDegrees>-4.3641600944101810455322265625</LongitudeDegrees>
            </Position>
            <AltitudeMeters>730.20001220703125</AltitudeMeters>
            <DistanceMeters>NAN</DistanceMeters>
          </Trackpoint>
          <Trackpoint>
            <Time>2020-12-05T11:24:39.000Z</Time>
            <Position>
              <LatitudeDegrees>36.82619945146143436431884765625</LatitudeDegrees>
              <LongitudeDegrees>-4.36416101641952991485595703125</LongitudeDegrees>
            </Position>
            <AltitudeMeters>730.20001220703125</AltitudeMeters>
            <DistanceMeters>NAN</DistanceMeters>
          </Trackpoint>
          <Trackpoint>
            <Time>2020-12-05T11:24:40.000Z</Time>
            <Position>
              <LatitudeDegrees>36.82619391940534114837646484375</LatitudeDegrees>
              <LongitudeDegrees>-4.36416126787662506103515625</LongitudeDegrees>
            </Position>
            <AltitudeMeters>730.4000244140625</AltitudeMeters>
            <DistanceMeters>NAN</DistanceMeters>
          </Trackpoint>
          <Trackpoint>
            <Time>2020-12-05T11:24:41.000Z</Time>
            <Position>
              <LatitudeDegrees>36.82618754915893077850341796875</LatitudeDegrees>
              <LongitudeDegrees>-4.36416118405759334564208984375</LongitudeDegrees>
            </Position>
            <AltitudeMeters>730.4000244140625</AltitudeMeters>
            <DistanceMeters>NAN</DistanceMeters>
          </Trackpoint>
          <Trackpoint>
            <Time>2020-12-05T11:24:42.000Z</Time>
            <Position>
              <LatitudeDegrees>36.82618285529315471649169921875</LatitudeDegrees>
              <LongitudeDegrees>-4.3641607649624347686767578125</LongitudeDegrees>
            </Position>
            <AltitudeMeters>730.4000244140625</AltitudeMeters>
            <DistanceMeters>NAN</DistanceMeters>
          </Trackpoint>
          <Trackpoint>
            <Time>2020-12-05T11:24:43.000Z</Time>
            <Position>
              <LatitudeDegrees>36.82618059217929840087890625</LatitudeDegrees>
              <LongitudeDegrees>-4.36415992677211761474609375</LongitudeDegrees>
            </Position>
            <AltitudeMeters>730.20001220703125</AltitudeMeters>
            <DistanceMeters>NAN</DistanceMeters>
          </Trackpoint>
          <Trackpoint>
            <Time>2020-12-05T11:24:44.000Z</Time>
            <Position>
              <LatitudeDegrees>36.826178245246410369873046875</LatitudeDegrees>
              <LongitudeDegrees>-4.3641592562198638916015625</LongitudeDegrees>
            </Position>
            <AltitudeMeters>730.20001220703125</AltitudeMeters>
            <DistanceMeters>NAN</DistanceMeters>
          </Trackpoint>
          <Trackpoint>
            <Time>2020-12-05T11:24:45.000Z</Time>
            <Position>
              <LatitudeDegrees>36.82617598213255405426025390625</LatitudeDegrees>
              <LongitudeDegrees>-4.36415816657245159149169921875</LongitudeDegrees>
            </Position>
            <AltitudeMeters>730</AltitudeMeters>
            <DistanceMeters>NAN</DistanceMeters>
          </Trackpoint>
          <Trackpoint>
            <Time>2020-12-05T11:24:46.000Z</Time>
            <Position>
              <LatitudeDegrees>36.8261733837425708770751953125</LatitudeDegrees>
              <LongitudeDegrees>-4.36415632255375385284423828125</LongitudeDegrees>
            </Position>
            <AltitudeMeters>730</AltitudeMeters>
            <DistanceMeters>NAN</DistanceMeters>
          </Trackpoint>
          <Trackpoint>
            <Time>2020-12-05T11:24:47.000Z</Time>
            <Position>
              <LatitudeDegrees>36.8261717073619365692138671875</LatitudeDegrees>
              <LongitudeDegrees>-4.364155232906341552734375</LongitudeDegrees>
            </Position>
            <AltitudeMeters>730</AltitudeMeters>
            <DistanceMeters>NAN</DistanceMeters>
          </Trackpoint>
          <Trackpoint>
            <Time>2020-12-05T11:24:48.000Z</Time>
            <Position>
              <LatitudeDegrees>36.8261713720858097076416015625</LatitudeDegrees>
              <LongitudeDegrees>-4.3641557358205318450927734375</LongitudeDegrees>
            </Position>
            <AltitudeMeters>730</AltitudeMeters>
            <DistanceMeters>NAN</DistanceMeters>
          </Trackpoint>
          <Trackpoint>
            <Time>2020-12-05T11:24:49.000Z</Time>
            <Position>
              <LatitudeDegrees>36.82616977952420711517333984375</LatitudeDegrees>
              <LongitudeDegrees>-4.3641557358205318450927734375</LongitudeDegrees>
            </Position>
            <AltitudeMeters>730</AltitudeMeters>
            <DistanceMeters>NAN</DistanceMeters>
          </Trackpoint>
          <Trackpoint>
            <Time>2020-12-05T11:24:50.000Z</Time>
            <Position>
              <LatitudeDegrees>36.8261683546006679534912109375</LatitudeDegrees>
              <LongitudeDegrees>-4.3641543947160243988037109375</LongitudeDegrees>
            </Position>
            <AltitudeMeters>729.79998779296875</AltitudeMeters>
            <DistanceMeters>NAN</DistanceMeters>
          </Trackpoint>
          <Trackpoint>
            <Time>2020-12-05T11:24:51.000Z</Time>
            <Position>
              <LatitudeDegrees>36.82616860605776309967041015625</LatitudeDegrees>
              <LongitudeDegrees>-4.3641533888876438140869140625</LongitudeDegrees>
            </Position>
            <AltitudeMeters>729.79998779296875</AltitudeMeters>
            <DistanceMeters>NAN</DistanceMeters>
          </Trackpoint>
          <Trackpoint>
            <Time>2020-12-05T11:24:52.000Z</Time>
            <Position>
              <LatitudeDegrees>36.82616977952420711517333984375</LatitudeDegrees>
              <LongitudeDegrees>-4.36415246687829494476318359375</LongitudeDegrees>
            </Position>
            <AltitudeMeters>729.4000244140625</AltitudeMeters>
            <DistanceMeters>NAN</DistanceMeters>
          </Trackpoint>
          <Trackpoint>
            <Time>2020-12-05T11:24:53.000Z</Time>
            <Position>
              <LatitudeDegrees>36.8261717073619365692138671875</LatitudeDegrees>
              <LongitudeDegrees>-4.36415112577378749847412109375</LongitudeDegrees>
            </Position>
            <AltitudeMeters>729.20001220703125</AltitudeMeters>
            <DistanceMeters>NAN</DistanceMeters>
          </Trackpoint>
          <Trackpoint>
            <Time>2020-12-05T11:24:54.000Z</Time>
            <Position>
              <LatitudeDegrees>36.82617346756160259246826171875</LatitudeDegrees>
              <LongitudeDegrees>-4.3641500361263751983642578125</LongitudeDegrees>
            </Position>
            <AltitudeMeters>729</AltitudeMeters>
            <DistanceMeters>NAN</DistanceMeters>
          </Trackpoint>
          <Trackpoint>
            <Time>2020-12-05T11:24:55.000Z</Time>
            <Position>
              <LatitudeDegrees>36.82617413811385631561279296875</LatitudeDegrees>
              <LongitudeDegrees>-4.36414961703121662139892578125</LongitudeDegrees>
            </Position>
            <AltitudeMeters>729</AltitudeMeters>
            <DistanceMeters>NAN</DistanceMeters>
          </Trackpoint>
          <Trackpoint>
            <Time>2020-12-05T11:24:56.000Z</Time>
            <Position>
              <LatitudeDegrees>36.82617480866611003875732421875</LatitudeDegrees>
              <LongitudeDegrees>-4.36414978466928005218505859375</LongitudeDegrees>
            </Position>
            <AltitudeMeters>729</AltitudeMeters>
            <DistanceMeters>NAN</DistanceMeters>
          </Trackpoint>
          <Trackpoint>
            <Time>2020-12-05T11:24:57.000Z</Time>
            <Position>
              <LatitudeDegrees>36.82617522776126861572265625</LatitudeDegrees>
              <LongitudeDegrees>-4.36415028758347034454345703125</LongitudeDegrees>
            </Position>
            <AltitudeMeters>729.20001220703125</AltitudeMeters>
            <DistanceMeters>NAN</DistanceMeters>
          </Trackpoint>
          <Trackpoint>
            <Time>2020-12-05T11:24:58.000Z</Time>
            <Position>
              <LatitudeDegrees>36.82617849670350551605224609375</LatitudeDegrees>
              <LongitudeDegrees>-4.3641493655741214752197265625</LongitudeDegrees>
            </Position>
            <AltitudeMeters>729.5999755859375</AltitudeMeters>
            <DistanceMeters>NAN</DistanceMeters>
          </Trackpoint>
          <Trackpoint>
            <Time>2020-12-05T11:24:59.000Z</Time>
            <Position>
              <LatitudeDegrees>36.826180927455425262451171875</LatitudeDegrees>
              <LongitudeDegrees>-4.3641460128128528594970703125</LongitudeDegrees>
            </Position>
            <AltitudeMeters>730</AltitudeMeters>
            <DistanceMeters>NAN</DistanceMeters>
          </Trackpoint>
          <Trackpoint>
            <Time>2020-12-05T11:25:00.000Z</Time>
            <Position>
              <LatitudeDegrees>36.82618319056928157806396484375</LatitudeDegrees>
              <LongitudeDegrees>-4.3641450069844722747802734375</LongitudeDegrees>
            </Position>
            <AltitudeMeters>730.20001220703125</AltitudeMeters>
            <DistanceMeters>NAN</DistanceMeters>
          </Trackpoint>
          <Trackpoint>
            <Time>2020-12-05T11:25:01.000Z</Time>
            <Position>
              <LatitudeDegrees>36.8261871300637722015380859375</LatitudeDegrees>
              <LongitudeDegrees>-4.36414374969899654388427734375</LongitudeDegrees>
            </Position>
            <AltitudeMeters>730.4000244140625</AltitudeMeters>
            <DistanceMeters>NAN</DistanceMeters>
          </Trackpoint>
          <Trackpoint>
            <Time>2020-12-05T11:25:02.000Z</Time>
            <Position>
              <LatitudeDegrees>36.82619073428213596343994140625</LatitudeDegrees>
              <LongitudeDegrees>-4.36414408497512340545654296875</LongitudeDegrees>
            </Position>
            <AltitudeMeters>730.5999755859375</AltitudeMeters>
            <DistanceMeters>NAN</DistanceMeters>
          </Trackpoint>
          <Trackpoint>
            <Time>2020-12-05T11:25:03.000Z</Time>
            <Position>
              <LatitudeDegrees>36.82619425468146800994873046875</LatitudeDegrees>
              <LongitudeDegrees>-4.36414249241352081298828125</LongitudeDegrees>
            </Position>
            <AltitudeMeters>730.5999755859375</AltitudeMeters>
            <DistanceMeters>NAN</DistanceMeters>
          </Trackpoint>
          <Trackpoint>
            <Time>2020-12-05T11:25:04.000Z</Time>
            <Position>
              <LatitudeDegrees>36.826196350157260894775390625</LatitudeDegrees>
              <LongitudeDegrees>-4.36413989402353763580322265625</LongitudeDegrees>
            </Position>
            <AltitudeMeters>730.5999755859375</AltitudeMeters>
            <DistanceMeters>NAN</DistanceMeters>
          </Trackpoint>
          <Trackpoint>
            <Time>2020-12-05T11:25:05.000Z</Time>
            <Position>
              <LatitudeDegrees>36.82620045728981494903564453125</LatitudeDegrees>
              <LongitudeDegrees>-4.3641379661858081817626953125</LongitudeDegrees>
            </Position>
            <AltitudeMeters>730.5999755859375</AltitudeMeters>
            <DistanceMeters>NAN</DistanceMeters>
          </Trackpoint>
          <Trackpoint>
            <Time>2020-12-05T11:25:06.000Z</Time>
            <Position>
              <LatitudeDegrees>36.8262048996984958648681640625</LatitudeDegrees>
              <LongitudeDegrees>-4.36413872055709362030029296875</LongitudeDegrees>
            </Position>
            <AltitudeMeters>730.4000244140625</AltitudeMeters>
            <DistanceMeters>NAN</DistanceMeters>
          </Trackpoint>
          <Trackpoint>
            <Time>2020-12-05T11:25:07.000Z</Time>
            <Position>
              <LatitudeDegrees>36.82620942592620849609375</LatitudeDegrees>
              <LongitudeDegrees>-4.36413788236677646636962890625</LongitudeDegrees>
            </Position>
            <AltitudeMeters>730.4000244140625</AltitudeMeters>
            <DistanceMeters>NAN</DistanceMeters>
          </Trackpoint>
          <Trackpoint>
            <Time>2020-12-05T11:25:08.000Z</Time>
            <Position>
              <LatitudeDegrees>36.826215125620365142822265625</LatitudeDegrees>
              <LongitudeDegrees>-4.36413805000483989715576171875</LongitudeDegrees>
            </Position>
            <AltitudeMeters>730.4000244140625</AltitudeMeters>
            <DistanceMeters>NAN</DistanceMeters>
          </Trackpoint>
          <Trackpoint>
            <Time>2020-12-05T11:25:09.000Z</Time>
            <Position>
              <LatitudeDegrees>36.82622141204774379730224609375</LatitudeDegrees>
              <LongitudeDegrees>-4.3641376309096813201904296875</LongitudeDegrees>
            </Position>
            <AltitudeMeters>730</AltitudeMeters>
            <DistanceMeters>NAN</DistanceMeters>
          </Trackpoint>
          <Trackpoint>
            <Time>2020-12-05T11:25:10.000Z</Time>
            <Position>
              <LatitudeDegrees>36.82622543536126613616943359375</LatitudeDegrees>
              <LongitudeDegrees>-4.36413570307195186614990234375</LongitudeDegrees>
            </Position>
            <AltitudeMeters>729.79998779296875</AltitudeMeters>
            <DistanceMeters>NAN</DistanceMeters>
          </Trackpoint>
          <Trackpoint>
            <Time>2020-12-05T11:25:11.000Z</Time>
            <Position>
              <LatitudeDegrees>36.826231218874454498291015625</LatitudeDegrees>
              <LongitudeDegrees>-4.36413184739649295806884765625</LongitudeDegrees>
            </Position>
            <AltitudeMeters>729.79998779296875</AltitudeMeters>
            <DistanceMeters>NAN</DistanceMeters>
          </Trackpoint>
          <Trackpoint>
            <Time>2020-12-05T11:25:12.000Z</Time>
            <Position>
              <LatitudeDegrees>36.8262364156544208526611328125</LatitudeDegrees>
              <LongitudeDegrees>-4.3641243875026702880859375</LongitudeDegrees>
            </Position>
            <AltitudeMeters>729.5999755859375</AltitudeMeters>
            <DistanceMeters>NAN</DistanceMeters>
          </Trackpoint>
          <Trackpoint>
            <Time>2020-12-05T11:25:13.000Z</Time>
            <Position>
              <LatitudeDegrees>36.8262337334454059600830078125</LatitudeDegrees>
              <LongitudeDegrees>-4.36412036418914794921875</LongitudeDegrees>
            </Position>
            <AltitudeMeters>729.5999755859375</AltitudeMeters>
            <DistanceMeters>NAN</DistanceMeters>
          </Trackpoint>
          <Trackpoint>
            <Time>2020-12-05T11:25:14.000Z</Time>
            <Position>
              <LatitudeDegrees>36.82623021304607391357421875</LatitudeDegrees>
              <LongitudeDegrees>-4.36411843635141849517822265625</LongitudeDegrees>
            </Position>
            <AltitudeMeters>729.4000244140625</AltitudeMeters>
            <DistanceMeters>NAN</DistanceMeters>
          </Trackpoint>
          <Trackpoint>
            <Time>2020-12-05T11:25:15.000Z</Time>
            <Position>
              <LatitudeDegrees>36.82622929103672504425048828125</LatitudeDegrees>
              <LongitudeDegrees>-4.36411726288497447967529296875</LongitudeDegrees>
            </Position>
            <AltitudeMeters>729.4000244140625</AltitudeMeters>
            <DistanceMeters>NAN</DistanceMeters>
          </Trackpoint>
          <Trackpoint>
            <Time>2020-12-05T11:25:16.000Z</Time>
            <Position>
              <LatitudeDegrees>36.82622895576059818267822265625</LatitudeDegrees>
              <LongitudeDegrees>-4.36411608941853046417236328125</LongitudeDegrees>
            </Position>
            <AltitudeMeters>729.4000244140625</AltitudeMeters>
            <DistanceMeters>NAN</DistanceMeters>
          </Trackpoint>
          <Trackpoint>
            <Time>2020-12-05T11:25:17.000Z</Time>
            <Position>
              <LatitudeDegrees>36.82622862048447132110595703125</LatitudeDegrees>
              <LongitudeDegrees>-4.3641151674091815948486328125</LongitudeDegrees>
            </Position>
            <AltitudeMeters>729.4000244140625</AltitudeMeters>
            <DistanceMeters>NAN</DistanceMeters>
          </Trackpoint>
          <Trackpoint>
            <Time>2020-12-05T11:25:18.000Z</Time>
            <Position>
              <LatitudeDegrees>36.82622912339866161346435546875</LatitudeDegrees>
              <LongitudeDegrees>-4.36411432921886444091796875</LongitudeDegrees>
            </Position>
            <AltitudeMeters>729.4000244140625</AltitudeMeters>
            <DistanceMeters>NAN</DistanceMeters>
          </Trackpoint>
          <Trackpoint>
            <Time>2020-12-05T11:25:19.000Z</Time>
            <Position>
              <LatitudeDegrees>36.82622878812253475189208984375</LatitudeDegrees>
              <LongitudeDegrees>-4.36411508359014987945556640625</LongitudeDegrees>
            </Position>
            <AltitudeMeters>729.4000244140625</AltitudeMeters>
            <DistanceMeters>NAN</DistanceMeters>
          </Trackpoint>
          <Trackpoint>
            <Time>2020-12-05T11:25:20.000Z</Time>
            <Position>
              <LatitudeDegrees>36.8262255191802978515625</LatitudeDegrees>
              <LongitudeDegrees>-4.36411701142787933349609375</LongitudeDegrees>
            </Position>
            <AltitudeMeters>729.20001220703125</AltitudeMeters>
            <DistanceMeters>NAN</DistanceMeters>
          </Trackpoint>
          <Trackpoint>
            <Time>2020-12-05T11:25:21.000Z</Time>
            <Position>
              <LatitudeDegrees>36.82622292079031467437744140625</LatitudeDegrees>
              <LongitudeDegrees>-4.3641185201704502105712890625</LongitudeDegrees>
            </Position>
            <AltitudeMeters>729.20001220703125</AltitudeMeters>
            <DistanceMeters>NAN</DistanceMeters>
          </Trackpoint>
          <Trackpoint>
            <Time>2020-12-05T11:25:22.000Z</Time>
            <Position>
              <LatitudeDegrees>36.82621546089649200439453125</LatitudeDegrees>
              <LongitudeDegrees>-4.36412044800817966461181640625</LongitudeDegrees>
            </Position>
            <AltitudeMeters>729.20001220703125</AltitudeMeters>
            <DistanceMeters>NAN</DistanceMeters>
          </Trackpoint>
          <Trackpoint>
            <Time>2020-12-05T11:25:23.000Z</Time>
            <Position>
              <LatitudeDegrees>36.82620665989816188812255859375</LatitudeDegrees>
              <LongitudeDegrees>-4.364123381674289703369140625</LongitudeDegrees>
            </Position>
            <AltitudeMeters>729.20001220703125</AltitudeMeters>
            <DistanceMeters>NAN</DistanceMeters>
          </Trackpoint>
          <Trackpoint>
            <Time>2020-12-05T11:25:24.000Z</Time>
            <Position>
              <LatitudeDegrees>36.82620498351752758026123046875</LatitudeDegrees>
              <LongitudeDegrees>-4.364126063883304595947265625</LongitudeDegrees>
            </Position>
            <AltitudeMeters>729.20001220703125</AltitudeMeters>
            <DistanceMeters>NAN</DistanceMeters>
          </Trackpoint>
          <Trackpoint>
            <Time>2020-12-05T11:25:25.000Z</Time>
            <Position>
              <LatitudeDegrees>36.8262035585939884185791015625</LatitudeDegrees>
              <LongitudeDegrees>-4.364122711122035980224609375</LongitudeDegrees>
            </Position>
            <AltitudeMeters>729.20001220703125</AltitudeMeters>
            <DistanceMeters>NAN</DistanceMeters>
          </Trackpoint>
          <Trackpoint>
            <Time>2020-12-05T11:25:26.000Z</Time>
            <Position>
              <LatitudeDegrees>36.8262065760791301727294921875</LatitudeDegrees>
              <LongitudeDegrees>-4.3641155026853084564208984375</LongitudeDegrees>
            </Position>
            <AltitudeMeters>729.4000244140625</AltitudeMeters>
            <DistanceMeters>NAN</DistanceMeters>
          </Trackpoint>
          <Trackpoint>
            <Time>2020-12-05T11:25:27.000Z</Time>
            <Position>
              <LatitudeDegrees>36.82621319778263568878173828125</LatitudeDegrees>
              <LongitudeDegrees>-4.36410871334373950958251953125</LongitudeDegrees>
            </Position>
            <AltitudeMeters>729.5999755859375</AltitudeMeters>
            <DistanceMeters>NAN</DistanceMeters>
          </Trackpoint>
          <Trackpoint>
            <Time>2020-12-05T11:25:28.000Z</Time>
            <Position>
              <LatitudeDegrees>36.826210431754589080810546875</LatitudeDegrees>
              <LongitudeDegrees>-4.36410016380250453948974609375</LongitudeDegrees>
            </Position>
            <AltitudeMeters>729.79998779296875</AltitudeMeters>
            <DistanceMeters>NAN</DistanceMeters>
          </Trackpoint>
          <Trackpoint>
            <Time>2020-12-05T11:25:29.000Z</Time>
            <Position>
              <LatitudeDegrees>36.8262025527656078338623046875</LatitudeDegrees>
              <LongitudeDegrees>-4.36409530229866504669189453125</LongitudeDegrees>
            </Position>
            <AltitudeMeters>730</AltitudeMeters>
            <DistanceMeters>NAN</DistanceMeters>
          </Trackpoint>
          <Trackpoint>
            <Time>2020-12-05T11:25:41.000Z</Time>
            <Position>
              <LatitudeDegrees>36.82617254555225372314453125</LatitudeDegrees>
              <LongitudeDegrees>-4.36403076164424419403076171875</LongitudeDegrees>
            </Position>
            <AltitudeMeters>730.79998779296875</AltitudeMeters>
            <DistanceMeters>NAN</DistanceMeters>
          </Trackpoint>
          <Trackpoint>
            <Time>2020-12-05T11:25:42.000Z</Time>
            <Position>
              <LatitudeDegrees>36.8261866271495819091796875</LatitudeDegrees>
              <LongitudeDegrees>-4.364022798836231231689453125</LongitudeDegrees>
            </Position>
            <AltitudeMeters>730.5999755859375</AltitudeMeters>
            <DistanceMeters>NAN</DistanceMeters>
          </Trackpoint>
          <Trackpoint>
            <Time>2020-12-05T11:25:43.000Z</Time>
            <Position>
              <LatitudeDegrees>36.8261973559856414794921875</LatitudeDegrees>
              <LongitudeDegrees>-4.3640115670859813690185546875</LongitudeDegrees>
            </Position>
            <AltitudeMeters>730.5999755859375</AltitudeMeters>
            <DistanceMeters>NAN</DistanceMeters>
          </Trackpoint>
          <Trackpoint>
            <Time>2020-12-05T11:25:44.000Z</Time>
            <Position>
              <LatitudeDegrees>36.82619827799499034881591796875</LatitudeDegrees>
              <LongitudeDegrees>-4.36399572528898715972900390625</LongitudeDegrees>
            </Position>
            <AltitudeMeters>730.5999755859375</AltitudeMeters>
            <DistanceMeters>NAN</DistanceMeters>
          </Trackpoint>
          <Trackpoint>
            <Time>2020-12-05T11:25:45.000Z</Time>
            <Position>
              <LatitudeDegrees>36.82619794271886348724365234375</LatitudeDegrees>
              <LongitudeDegrees>-4.36398047022521495819091796875</LongitudeDegrees>
            </Position>
            <AltitudeMeters>730.4000244140625</AltitudeMeters>
            <DistanceMeters>NAN</DistanceMeters>
          </Trackpoint>
          <Trackpoint>
            <Time>2020-12-05T11:25:46.000Z</Time>
            <Position>
              <LatitudeDegrees>36.8261973559856414794921875</LatitudeDegrees>
              <LongitudeDegrees>-4.36397611163556575775146484375</LongitudeDegrees>
            </Position>
            <AltitudeMeters>730.20001220703125</AltitudeMeters>
            <DistanceMeters>NAN</DistanceMeters>
          </Trackpoint>
          <Trackpoint>
            <Time>2020-12-05T11:25:47.000Z</Time>
            <Position>
              <LatitudeDegrees>36.82619777508080005645751953125</LatitudeDegrees>
              <LongitudeDegrees>-4.363975189626216888427734375</LongitudeDegrees>
            </Position>
            <AltitudeMeters>730</AltitudeMeters>
            <DistanceMeters>NAN</DistanceMeters>
          </Trackpoint>
          <Trackpoint>
            <Time>2020-12-05T11:25:48.000Z</Time>
            <Position>
              <LatitudeDegrees>36.82619710452854633331298828125</LatitudeDegrees>
              <LongitudeDegrees>-4.36397611163556575775146484375</LongitudeDegrees>
            </Position>
            <AltitudeMeters>729.79998779296875</AltitudeMeters>
            <DistanceMeters>NAN</DistanceMeters>
          </Trackpoint>
          <Trackpoint>
            <Time>2020-12-05T11:25:49.000Z</Time>
            <Position>
              <LatitudeDegrees>36.826192997395992279052734375</LatitudeDegrees>
              <LongitudeDegrees>-4.36397259123623371124267578125</LongitudeDegrees>
            </Position>
            <AltitudeMeters>729.5999755859375</AltitudeMeters>
            <DistanceMeters>NAN</DistanceMeters>
          </Trackpoint>
          <Trackpoint>
            <Time>2020-12-05T11:25:50.000Z</Time>
            <Position>
              <LatitudeDegrees>36.82618754915893077850341796875</LatitudeDegrees>
              <LongitudeDegrees>-4.36398734338581562042236328125</LongitudeDegrees>
            </Position>
            <AltitudeMeters>729.5999755859375</AltitudeMeters>
            <DistanceMeters>NAN</DistanceMeters>
          </Trackpoint>
          <Trackpoint>
            <Time>2020-12-05T11:25:51.000Z</Time>
            <Position>
              <LatitudeDegrees>36.82618469931185245513916015625</LatitudeDegrees>
              <LongitudeDegrees>-4.3639956414699554443359375</LongitudeDegrees>
            </Position>
            <AltitudeMeters>730</AltitudeMeters>
            <DistanceMeters>NAN</DistanceMeters>
          </Trackpoint>
          <Trackpoint>
            <Time>2020-12-05T11:25:52.000Z</Time>
            <Position>
              <LatitudeDegrees>36.82618386112153530120849609375</LatitudeDegrees>
              <LongitudeDegrees>-4.36400075443089008331298828125</LongitudeDegrees>
            </Position>
            <AltitudeMeters>730</AltitudeMeters>
            <DistanceMeters>NAN</DistanceMeters>
          </Trackpoint>
          <Trackpoint>
            <Time>2020-12-05T11:25:53.000Z</Time>
            <Position>
              <LatitudeDegrees>36.8261839449405670166015625</LatitudeDegrees>
              <LongitudeDegrees>-4.3639994971454143524169921875</LongitudeDegrees>
            </Position>
            <AltitudeMeters>730.20001220703125</AltitudeMeters>
            <DistanceMeters>NAN</DistanceMeters>
          </Trackpoint>
          <Trackpoint>
            <Time>2020-12-05T11:25:54.000Z</Time>
            <Position>
              <LatitudeDegrees>36.8261844478547573089599609375</LatitudeDegrees>
              <LongitudeDegrees>-4.3639971502125263214111328125</LongitudeDegrees>
            </Position>
            <AltitudeMeters>730.20001220703125</AltitudeMeters>
            <DistanceMeters>NAN</DistanceMeters>
          </Trackpoint>
          <Trackpoint>
            <Time>2020-12-05T11:25:55.000Z</Time>
            <Position>
              <LatitudeDegrees>36.826186291873455047607421875</LatitudeDegrees>
              <LongitudeDegrees>-4.36399220488965511322021484375</LongitudeDegrees>
            </Position>
            <AltitudeMeters>730.4000244140625</AltitudeMeters>
            <DistanceMeters>NAN</DistanceMeters>
          </Trackpoint>
          <Trackpoint>
            <Time>2020-12-05T11:25:56.000Z</Time>
            <Position>
              <LatitudeDegrees>36.826186291873455047607421875</LatitudeDegrees>
              <LongitudeDegrees>-4.363981895148754119873046875</LongitudeDegrees>
            </Position>
            <AltitudeMeters>730.4000244140625</AltitudeMeters>
            <DistanceMeters>NAN</DistanceMeters>
          </Trackpoint>
          <Trackpoint>
            <Time>2020-12-05T11:25:57.000Z</Time>
            <Position>
              <LatitudeDegrees>36.8261871300637722015380859375</LatitudeDegrees>
              <LongitudeDegrees>-4.363973848521709442138671875</LongitudeDegrees>
            </Position>
            <AltitudeMeters>730.4000244140625</AltitudeMeters>
            <DistanceMeters>NAN</DistanceMeters>
          </Trackpoint>
          <Trackpoint>
            <Time>2020-12-05T11:25:58.000Z</Time>
            <Position>
              <LatitudeDegrees>36.82618771679699420928955078125</LatitudeDegrees>
              <LongitudeDegrees>-4.36396957375109195709228515625</LongitudeDegrees>
            </Position>
            <AltitudeMeters>730.4000244140625</AltitudeMeters>
            <DistanceMeters>NAN</DistanceMeters>
          </Trackpoint>
          <Trackpoint>
            <Time>2020-12-05T11:25:59.000Z</Time>
            <Position>
              <LatitudeDegrees>36.82618805207312107086181640625</LatitudeDegrees>
              <LongitudeDegrees>-4.36396789737045764923095703125</LongitudeDegrees>
            </Position>
            <AltitudeMeters>730.4000244140625</AltitudeMeters>
            <DistanceMeters>NAN</DistanceMeters>
          </Trackpoint>
          <Trackpoint>
            <Time>2020-12-05T11:26:00.000Z</Time>
            <Position>
              <LatitudeDegrees>36.82618604041635990142822265625</LatitudeDegrees>
              <LongitudeDegrees>-4.363970495760440826416015625</LongitudeDegrees>
            </Position>
            <AltitudeMeters>730.4000244140625</AltitudeMeters>
            <DistanceMeters>NAN</DistanceMeters>
          </Trackpoint>
          <Trackpoint>
            <Time>2020-12-05T11:26:01.000Z</Time>
            <Position>
              <LatitudeDegrees>36.82618151418864727020263671875</LatitudeDegrees>
              <LongitudeDegrees>-4.3639741837978363037109375</LongitudeDegrees>
            </Position>
            <AltitudeMeters>730.4000244140625</AltitudeMeters>
            <DistanceMeters>NAN</DistanceMeters>
          </Trackpoint>
          <Trackpoint>
            <Time>2020-12-05T11:26:02.000Z</Time>
            <Position>
              <LatitudeDegrees>36.8261727131903171539306640625</LatitudeDegrees>
              <LongitudeDegrees>-4.36397393234074115753173828125</LongitudeDegrees>
            </Position>
            <AltitudeMeters>730.4000244140625</AltitudeMeters>
            <DistanceMeters>NAN</DistanceMeters>
          </Trackpoint>
          <Trackpoint>
            <Time>2020-12-05T11:26:03.000Z</Time>
            <Position>
              <LatitudeDegrees>36.82616718113422393798828125</LatitudeDegrees>
              <LongitudeDegrees>-4.36398088932037353515625</LongitudeDegrees>
            </Position>
            <AltitudeMeters>730.4000244140625</AltitudeMeters>
            <DistanceMeters>NAN</DistanceMeters>
          </Trackpoint>
          <Trackpoint>
            <Time>2020-12-05T11:26:04.000Z</Time>
            <Position>
              <LatitudeDegrees>36.8261651694774627685546875</LatitudeDegrees>
              <LongitudeDegrees>-4.3639887683093547821044921875</LongitudeDegrees>
            </Position>
            <AltitudeMeters>730.20001220703125</AltitudeMeters>
            <DistanceMeters>NAN</DistanceMeters>
          </Trackpoint>
          <Trackpoint>
            <Time>2020-12-05T11:26:05.000Z</Time>
            <Position>
              <LatitudeDegrees>36.82616776786744594573974609375</LatitudeDegrees>
              <LongitudeDegrees>-4.3639924563467502593994140625</LongitudeDegrees>
            </Position>
            <AltitudeMeters>730.20001220703125</AltitudeMeters>
            <DistanceMeters>NAN</DistanceMeters>
          </Trackpoint>
          <Trackpoint>
            <Time>2020-12-05T11:26:06.000Z</Time>
            <Position>
              <LatitudeDegrees>36.82617246173322200775146484375</LatitudeDegrees>
              <LongitudeDegrees>-4.36398734338581562042236328125</LongitudeDegrees>
            </Position>
            <AltitudeMeters>730.20001220703125</AltitudeMeters>
            <DistanceMeters>NAN</DistanceMeters>
          </Trackpoint>
          <Trackpoint>
            <Time>2020-12-05T11:26:07.000Z</Time>
            <Position>
              <LatitudeDegrees>36.8261800892651081085205078125</LatitudeDegrees>
              <LongitudeDegrees>-4.36397795565426349639892578125</LongitudeDegrees>
            </Position>
            <AltitudeMeters>730.20001220703125</AltitudeMeters>
            <DistanceMeters>NAN</DistanceMeters>
          </Trackpoint>
          <Trackpoint>
            <Time>2020-12-05T11:26:08.000Z</Time>
            <Position>
              <LatitudeDegrees>36.8261891417205333709716796875</LatitudeDegrees>
              <LongitudeDegrees>-4.36397091485559940338134765625</LongitudeDegrees>
            </Position>
            <AltitudeMeters>730.20001220703125</AltitudeMeters>
            <DistanceMeters>NAN</DistanceMeters>
          </Trackpoint>
          <Trackpoint>
            <Time>2020-12-05T11:26:09.000Z</Time>
            <Position>
              <LatitudeDegrees>36.82619509287178516387939453125</LatitudeDegrees>
              <LongitudeDegrees>-4.36396655626595020294189453125</LongitudeDegrees>
            </Position>
            <AltitudeMeters>730.20001220703125</AltitudeMeters>
            <DistanceMeters>NAN</DistanceMeters>
          </Trackpoint>
          <Trackpoint>
            <Time>2020-12-05T11:26:10.000Z</Time>
            <Position>
              <LatitudeDegrees>36.82619861327111721038818359375</LatitudeDegrees>
              <LongitudeDegrees>-4.3639626167714595794677734375</LongitudeDegrees>
            </Position>
            <AltitudeMeters>730.20001220703125</AltitudeMeters>
            <DistanceMeters>NAN</DistanceMeters>
          </Trackpoint>
          <Trackpoint>
            <Time>2020-12-05T11:26:11.000Z</Time>
            <Position>
              <LatitudeDegrees>36.8262005411088466644287109375</LatitudeDegrees>
              <LongitudeDegrees>-4.363963119685649871826171875</LongitudeDegrees>
            </Position>
            <AltitudeMeters>730.20001220703125</AltitudeMeters>
            <DistanceMeters>NAN</DistanceMeters>
          </Trackpoint>
          <Trackpoint>
            <Time>2020-12-05T11:26:12.000Z</Time>
            <Position>
              <LatitudeDegrees>36.82619911618530750274658203125</LatitudeDegrees>
              <LongitudeDegrees>-4.3639661371707916259765625</LongitudeDegrees>
            </Position>
            <AltitudeMeters>730.20001220703125</AltitudeMeters>
            <DistanceMeters>NAN</DistanceMeters>
          </Trackpoint>
          <Trackpoint>
            <Time>2020-12-05T11:26:13.000Z</Time>
            <Position>
              <LatitudeDegrees>36.82619609870016574859619140625</LatitudeDegrees>
              <LongitudeDegrees>-4.36397158540785312652587890625</LongitudeDegrees>
            </Position>
            <AltitudeMeters>730.20001220703125</AltitudeMeters>
            <DistanceMeters>NAN</DistanceMeters>
          </Trackpoint>
          <Trackpoint>
            <Time>2020-12-05T11:26:14.000Z</Time>
            <Position>
              <LatitudeDegrees>36.82619291357696056365966796875</LatitudeDegrees>
              <LongitudeDegrees>-4.36397762037813663482666015625</LongitudeDegrees>
            </Position>
            <AltitudeMeters>730.20001220703125</AltitudeMeters>
            <DistanceMeters>NAN</DistanceMeters>
          </Trackpoint>
          <Trackpoint>
            <Time>2020-12-05T11:26:15.000Z</Time>
            <Position>
              <LatitudeDegrees>36.82618754915893077850341796875</LatitudeDegrees>
              <LongitudeDegrees>-4.36398114077746868133544921875</LongitudeDegrees>
            </Position>
            <AltitudeMeters>730.20001220703125</AltitudeMeters>
            <DistanceMeters>NAN</DistanceMeters>
          </Trackpoint>
          <Trackpoint>
            <Time>2020-12-05T11:26:16.000Z</Time>
            <Position>
              <LatitudeDegrees>36.82617598213255405426025390625</LatitudeDegrees>
              <LongitudeDegrees>-4.36398348771035671234130859375</LongitudeDegrees>
            </Position>
            <AltitudeMeters>730.20001220703125</AltitudeMeters>
            <DistanceMeters>NAN</DistanceMeters>
          </Trackpoint>
          <Trackpoint>
            <Time>2020-12-05T11:26:17.000Z</Time>
            <Position>
              <LatitudeDegrees>36.8261733837425708770751953125</LatitudeDegrees>
              <LongitudeDegrees>-4.3639822304248809814453125</LongitudeDegrees>
            </Position>
            <AltitudeMeters>730.20001220703125</AltitudeMeters>
            <DistanceMeters>NAN</DistanceMeters>
          </Trackpoint>
          <Trackpoint>
            <Time>2020-12-05T11:26:18.000Z</Time>
            <Position>
              <LatitudeDegrees>36.82617296464741230010986328125</LatitudeDegrees>
              <LongitudeDegrees>-4.36398021876811981201171875</LongitudeDegrees>
            </Position>
            <AltitudeMeters>730.20001220703125</AltitudeMeters>
            <DistanceMeters>NAN</DistanceMeters>
          </Trackpoint>
          <Trackpoint>
            <Time>2020-12-05T11:26:19.000Z</Time>
            <Position>
              <LatitudeDegrees>36.826169528067111968994140625</LatitudeDegrees>
              <LongitudeDegrees>-4.363979212939739227294921875</LongitudeDegrees>
            </Position>
            <AltitudeMeters>730.20001220703125</AltitudeMeters>
            <DistanceMeters>NAN</DistanceMeters>
          </Trackpoint>
          <Trackpoint>
            <Time>2020-12-05T11:26:20.000Z</Time>
            <Position>
              <LatitudeDegrees>36.8261686898767948150634765625</LatitudeDegrees>
              <LongitudeDegrees>-4.3639844097197055816650390625</LongitudeDegrees>
            </Position>
            <AltitudeMeters>730.20001220703125</AltitudeMeters>
            <DistanceMeters>NAN</DistanceMeters>
          </Trackpoint>
          <Trackpoint>
            <Time>2020-12-05T11:26:21.000Z</Time>
            <Position>
              <LatitudeDegrees>36.8261629901826381683349609375</LatitudeDegrees>
              <LongitudeDegrees>-4.36399362981319427490234375</LongitudeDegrees>
            </Position>
            <AltitudeMeters>730.20001220703125</AltitudeMeters>
            <DistanceMeters>NAN</DistanceMeters>
          </Trackpoint>
          <Trackpoint>
            <Time>2020-12-05T11:26:22.000Z</Time>
            <Position>
              <LatitudeDegrees>36.8261552788317203521728515625</LatitudeDegrees>
              <LongitudeDegrees>-4.3640062026679515838623046875</LongitudeDegrees>
            </Position>
            <AltitudeMeters>730.20001220703125</AltitudeMeters>
            <DistanceMeters>NAN</DistanceMeters>
          </Trackpoint>
          <Trackpoint>
            <Time>2020-12-05T11:26:23.000Z</Time>
            <Position>
              <LatitudeDegrees>36.8261479027569293975830078125</LatitudeDegrees>
              <LongitudeDegrees>-4.36401668004691600799560546875</LongitudeDegrees>
            </Position>
            <AltitudeMeters>730</AltitudeMeters>
            <DistanceMeters>NAN</DistanceMeters>
          </Trackpoint>
          <Trackpoint>
            <Time>2020-12-05T11:26:24.000Z</Time>
            <Position>
              <LatitudeDegrees>36.82614580728113651275634765625</LatitudeDegrees>
              <LongitudeDegrees>-4.3640243075788021087646484375</LongitudeDegrees>
            </Position>
            <AltitudeMeters>730</AltitudeMeters>
            <DistanceMeters>NAN</DistanceMeters>
          </Trackpoint>
          <Trackpoint>
            <Time>2020-12-05T11:26:25.000Z</Time>
            <Position>
              <LatitudeDegrees>36.82613633573055267333984375</LatitudeDegrees>
              <LongitudeDegrees>-4.3640323542058467864990234375</LongitudeDegrees>
            </Position>
            <AltitudeMeters>730</AltitudeMeters>
            <DistanceMeters>NAN</DistanceMeters>
          </Trackpoint>
          <Trackpoint>
            <Time>2020-12-05T11:26:26.000Z</Time>
            <Position>
              <LatitudeDegrees>36.82612963020801544189453125</LatitudeDegrees>
              <LongitudeDegrees>-4.36403998173773288726806640625</LongitudeDegrees>
            </Position>
            <AltitudeMeters>730</AltitudeMeters>
            <DistanceMeters>NAN</DistanceMeters>
          </Trackpoint>
          <Trackpoint>
            <Time>2020-12-05T11:26:27.000Z</Time>
            <Position>
              <LatitudeDegrees>36.82612870819866657257080078125</LatitudeDegrees>
              <LongitudeDegrees>-4.3640454299747943878173828125</LongitudeDegrees>
            </Position>
            <AltitudeMeters>729.79998779296875</AltitudeMeters>
            <DistanceMeters>NAN</DistanceMeters>
          </Trackpoint>
          <Trackpoint>
            <Time>2020-12-05T11:26:28.000Z</Time>
            <Position>
              <LatitudeDegrees>36.826131977140903472900390625</LatitudeDegrees>
              <LongitudeDegrees>-4.36404517851769924163818359375</LongitudeDegrees>
            </Position>
            <AltitudeMeters>729.79998779296875</AltitudeMeters>
            <DistanceMeters>NAN</DistanceMeters>
          </Trackpoint>
          <Trackpoint>
            <Time>2020-12-05T11:26:29.000Z</Time>
            <Position>
              <LatitudeDegrees>36.8261334858834743499755859375</LatitudeDegrees>
              <LongitudeDegrees>-4.3640439212322235107421875</LongitudeDegrees>
            </Position>
            <AltitudeMeters>729.79998779296875</AltitudeMeters>
            <DistanceMeters>NAN</DistanceMeters>
          </Trackpoint>
          <Trackpoint>
            <Time>2020-12-05T11:26:30.000Z</Time>
            <Position>
              <LatitudeDegrees>36.8261351622641086578369140625</LatitudeDegrees>
              <LongitudeDegrees>-4.364042580127716064453125</LongitudeDegrees>
            </Position>
            <AltitudeMeters>729.79998779296875</AltitudeMeters>
            <DistanceMeters>NAN</DistanceMeters>
          </Trackpoint>
          <Trackpoint>
            <Time>2020-12-05T11:26:31.000Z</Time>
            <Position>
              <LatitudeDegrees>36.82613692246377468109130859375</LatitudeDegrees>
              <LongitudeDegrees>-4.3640437535941600799560546875</LongitudeDegrees>
            </Position>
            <AltitudeMeters>729.5999755859375</AltitudeMeters>
            <DistanceMeters>NAN</DistanceMeters>
          </Trackpoint>
          <Trackpoint>
            <Time>2020-12-05T11:26:32.000Z</Time>
            <Position>
              <LatitudeDegrees>36.82613499462604522705078125</LatitudeDegrees>
              <LongitudeDegrees>-4.36404484324157238006591796875</LongitudeDegrees>
            </Position>
            <AltitudeMeters>729.4000244140625</AltitudeMeters>
            <DistanceMeters>NAN</DistanceMeters>
          </Trackpoint>
          <Trackpoint>
            <Time>2020-12-05T11:26:33.000Z</Time>
            <Position>
              <LatitudeDegrees>36.82613323442637920379638671875</LatitudeDegrees>
              <LongitudeDegrees>-4.36404635198414325714111328125</LongitudeDegrees>
            </Position>
            <AltitudeMeters>729.20001220703125</AltitudeMeters>
            <DistanceMeters>NAN</DistanceMeters>
          </Trackpoint>
          <Trackpoint>
            <Time>2020-12-05T11:26:34.000Z</Time>
            <Position>
              <LatitudeDegrees>36.82613239623606204986572265625</LatitudeDegrees>
              <LongitudeDegrees>-4.364043585956096649169921875</LongitudeDegrees>
            </Position>
            <AltitudeMeters>729.20001220703125</AltitudeMeters>
            <DistanceMeters>NAN</DistanceMeters>
          </Trackpoint>
          <Trackpoint>
            <Time>2020-12-05T11:26:35.000Z</Time>
            <Position>
              <LatitudeDegrees>36.82613206095993518829345703125</LatitudeDegrees>
              <LongitudeDegrees>-4.36403646133840084075927734375</LongitudeDegrees>
            </Position>
            <AltitudeMeters>729</AltitudeMeters>
            <DistanceMeters>NAN</DistanceMeters>
          </Trackpoint>
          <Trackpoint>
            <Time>2020-12-05T11:26:36.000Z</Time>
            <Position>
              <LatitudeDegrees>36.826131641864776611328125</LatitudeDegrees>
              <LongitudeDegrees>-4.36403092928230762481689453125</LongitudeDegrees>
            </Position>
            <AltitudeMeters>729</AltitudeMeters>
            <DistanceMeters>NAN</DistanceMeters>
          </Trackpoint>
          <Trackpoint>
            <Time>2020-12-05T11:26:37.000Z</Time>
            <Position>
              <LatitudeDegrees>36.8261304683983325958251953125</LatitudeDegrees>
              <LongitudeDegrees>-4.36402874998748302459716796875</LongitudeDegrees>
            </Position>
            <AltitudeMeters>729</AltitudeMeters>
            <DistanceMeters>NAN</DistanceMeters>
          </Trackpoint>
          <Trackpoint>
            <Time>2020-12-05T11:26:38.000Z</Time>
            <Position>
              <LatitudeDegrees>36.82612703181803226470947265625</LatitudeDegrees>
              <LongitudeDegrees>-4.3640296719968318939208984375</LongitudeDegrees>
            </Position>
            <AltitudeMeters>728.79998779296875</AltitudeMeters>
            <DistanceMeters>NAN</DistanceMeters>
          </Trackpoint>
          <Trackpoint>
            <Time>2020-12-05T11:26:39.000Z</Time>
            <Position>
              <LatitudeDegrees>36.8261182308197021484375</LatitudeDegrees>
              <LongitudeDegrees>-4.36403729952871799468994140625</LongitudeDegrees>
            </Position>
            <AltitudeMeters>728.5999755859375</AltitudeMeters>
            <DistanceMeters>NAN</DistanceMeters>
          </Trackpoint>
          <Trackpoint>
            <Time>2020-12-05T11:26:40.000Z</Time>
            <Position>
              <LatitudeDegrees>36.82610909454524517059326171875</LatitudeDegrees>
              <LongitudeDegrees>-4.36404199339449405670166015625</LongitudeDegrees>
            </Position>
            <AltitudeMeters>728.20001220703125</AltitudeMeters>
            <DistanceMeters>NAN</DistanceMeters>
          </Trackpoint>
          <Trackpoint>
            <Time>2020-12-05T11:26:41.000Z</Time>
            <Position>
              <LatitudeDegrees>36.82610624469816684722900390625</LatitudeDegrees>
              <LongitudeDegrees>-4.36404316686093807220458984375</LongitudeDegrees>
            </Position>
            <AltitudeMeters>728</AltitudeMeters>
            <DistanceMeters>NAN</DistanceMeters>
          </Trackpoint>
          <Trackpoint>
            <Time>2020-12-05T11:26:42.000Z</Time>
            <Position>
              <LatitudeDegrees>36.82610205374658107757568359375</LatitudeDegrees>
              <LongitudeDegrees>-4.3640439212322235107421875</LongitudeDegrees>
            </Position>
            <AltitudeMeters>727.79998779296875</AltitudeMeters>
            <DistanceMeters>NAN</DistanceMeters>
          </Trackpoint>
          <Trackpoint>
            <Time>2020-12-05T11:26:43.000Z</Time>
            <Position>
              <LatitudeDegrees>36.826095096766948699951171875</LatitudeDegrees>
              <LongitudeDegrees>-4.36404450796544551849365234375</LongitudeDegrees>
            </Position>
            <AltitudeMeters>727.5999755859375</AltitudeMeters>
            <DistanceMeters>NAN</DistanceMeters>
          </Trackpoint>
          <Trackpoint>
            <Time>2020-12-05T11:26:44.000Z</Time>
            <Position>
              <LatitudeDegrees>36.82608797214925289154052734375</LatitudeDegrees>
              <LongitudeDegrees>-4.364050291478633880615234375</LongitudeDegrees>
            </Position>
            <AltitudeMeters>727.5999755859375</AltitudeMeters>
            <DistanceMeters>NAN</DistanceMeters>
          </Trackpoint>
          <Trackpoint>
            <Time>2020-12-05T11:26:45.000Z</Time>
            <Position>
              <LatitudeDegrees>36.82608394883573055267333984375</LatitudeDegrees>
              <LongitudeDegrees>-4.36405305750668048858642578125</LongitudeDegrees>
            </Position>
            <AltitudeMeters>727.5999755859375</AltitudeMeters>
            <DistanceMeters>NAN</DistanceMeters>
          </Trackpoint>
          <Trackpoint>
            <Time>2020-12-05T11:26:46.000Z</Time>
            <Position>
              <LatitudeDegrees>36.82607640512287616729736328125</LatitudeDegrees>
              <LongitudeDegrees>-4.364058338105678558349609375</LongitudeDegrees>
            </Position>
            <AltitudeMeters>727.5999755859375</AltitudeMeters>
            <DistanceMeters>NAN</DistanceMeters>
          </Trackpoint>
          <Trackpoint>
            <Time>2020-12-05T11:26:47.000Z</Time>
            <Position>
              <LatitudeDegrees>36.82606986723840236663818359375</LatitudeDegrees>
              <LongitudeDegrees>-4.3640662170946598052978515625</LongitudeDegrees>
            </Position>
            <AltitudeMeters>728</AltitudeMeters>
            <DistanceMeters>NAN</DistanceMeters>
          </Trackpoint>
          <Trackpoint>
            <Time>2020-12-05T11:26:48.000Z</Time>
            <Position>
              <LatitudeDegrees>36.826064586639404296875</LatitudeDegrees>
              <LongitudeDegrees>-4.36407736502587795257568359375</LongitudeDegrees>
            </Position>
            <AltitudeMeters>728.20001220703125</AltitudeMeters>
            <DistanceMeters>NAN</DistanceMeters>
          </Trackpoint>
          <Trackpoint>
            <Time>2020-12-05T11:26:49.000Z</Time>
            <Position>
              <LatitudeDegrees>36.82606257498264312744140625</LatitudeDegrees>
              <LongitudeDegrees>-4.36408884823322296142578125</LongitudeDegrees>
            </Position>
            <AltitudeMeters>728.5999755859375</AltitudeMeters>
            <DistanceMeters>NAN</DistanceMeters>
          </Trackpoint>
          <Trackpoint>
            <Time>2020-12-05T11:26:50.000Z</Time>
            <Position>
              <LatitudeDegrees>36.826061904430389404296875</LatitudeDegrees>
              <LongitudeDegrees>-4.3640967272222042083740234375</LongitudeDegrees>
            </Position>
            <AltitudeMeters>729</AltitudeMeters>
            <DistanceMeters>NAN</DistanceMeters>
          </Trackpoint>
          <Trackpoint>
            <Time>2020-12-05T11:26:51.000Z</Time>
            <Position>
              <LatitudeDegrees>36.82605964131653308868408203125</LatitudeDegrees>
              <LongitudeDegrees>-4.36410200782120227813720703125</LongitudeDegrees>
            </Position>
            <AltitudeMeters>729.5999755859375</AltitudeMeters>
            <DistanceMeters>NAN</DistanceMeters>
          </Trackpoint>
          <Trackpoint>
            <Time>2020-12-05T11:26:52.000Z</Time>
            <Position>
              <LatitudeDegrees>36.82605712674558162689208984375</LatitudeDegrees>
              <LongitudeDegrees>-4.36410762369632720947265625</LongitudeDegrees>
            </Position>
            <AltitudeMeters>730</AltitudeMeters>
            <DistanceMeters>NAN</DistanceMeters>
          </Trackpoint>
          <Trackpoint>
            <Time>2020-12-05T11:26:53.000Z</Time>
            <Position>
              <LatitudeDegrees>36.82605612091720104217529296875</LatitudeDegrees>
              <LongitudeDegrees>-4.3641111440956592559814453125</LongitudeDegrees>
            </Position>
            <AltitudeMeters>730.20001220703125</AltitudeMeters>
            <DistanceMeters>NAN</DistanceMeters>
          </Trackpoint>
          <Trackpoint>
            <Time>2020-12-05T11:26:54.000Z</Time>
            <Position>
              <LatitudeDegrees>36.82605779729783535003662109375</LatitudeDegrees>
              <LongitudeDegrees>-4.36411340720951557159423828125</LongitudeDegrees>
            </Position>
            <AltitudeMeters>730.4000244140625</AltitudeMeters>
            <DistanceMeters>NAN</DistanceMeters>
          </Trackpoint>
          <Trackpoint>
            <Time>2020-12-05T11:26:55.000Z</Time>
            <Position>
              <LatitudeDegrees>36.826060228049755096435546875</LatitudeDegrees>
              <LongitudeDegrees>-4.36411508359014987945556640625</LongitudeDegrees>
            </Position>
            <AltitudeMeters>730.5999755859375</AltitudeMeters>
            <DistanceMeters>NAN</DistanceMeters>
          </Trackpoint>
          <Trackpoint>
            <Time>2020-12-05T11:26:56.000Z</Time>
            <Position>
              <LatitudeDegrees>36.82606349699199199676513671875</LatitudeDegrees>
              <LongitudeDegrees>-4.3641178496181964874267578125</LongitudeDegrees>
            </Position>
            <AltitudeMeters>730.5999755859375</AltitudeMeters>
            <DistanceMeters>NAN</DistanceMeters>
          </Trackpoint>
          <Trackpoint>
            <Time>2020-12-05T11:26:57.000Z</Time>
            <Position>
              <LatitudeDegrees>36.82606525719165802001953125</LatitudeDegrees>
              <LongitudeDegrees>-4.36411969363689422607421875</LongitudeDegrees>
            </Position>
            <AltitudeMeters>730.4000244140625</AltitudeMeters>
            <DistanceMeters>NAN</DistanceMeters>
          </Trackpoint>
          <Trackpoint>
            <Time>2020-12-05T11:26:58.000Z</Time>
            <Position>
              <LatitudeDegrees>36.82606617920100688934326171875</LatitudeDegrees>
              <LongitudeDegrees>-4.36412011273205280303955078125</LongitudeDegrees>
            </Position>
            <AltitudeMeters>730</AltitudeMeters>
            <DistanceMeters>NAN</DistanceMeters>
          </Trackpoint>
          <Trackpoint>
            <Time>2020-12-05T11:26:59.000Z</Time>
            <Position>
              <LatitudeDegrees>36.8260671012103557586669921875</LatitudeDegrees>
              <LongitudeDegrees>-4.36412078328430652618408203125</LongitudeDegrees>
            </Position>
            <AltitudeMeters>729.5999755859375</AltitudeMeters>
            <DistanceMeters>NAN</DistanceMeters>
          </Trackpoint>
          <Trackpoint>
            <Time>2020-12-05T11:27:00.000Z</Time>
            <Position>
              <LatitudeDegrees>36.82606701739132404327392578125</LatitudeDegrees>
              <LongitudeDegrees>-4.36411910690367221832275390625</LongitudeDegrees>
            </Position>
            <AltitudeMeters>729.5999755859375</AltitudeMeters>
            <DistanceMeters>NAN</DistanceMeters>
          </Trackpoint>
          <Trackpoint>
            <Time>2020-12-05T11:27:01.000Z</Time>
            <Position>
              <LatitudeDegrees>36.8260687775909900665283203125</LatitudeDegrees>
              <LongitudeDegrees>-4.3641181848943233489990234375</LongitudeDegrees>
            </Position>
            <AltitudeMeters>729.4000244140625</AltitudeMeters>
            <DistanceMeters>NAN</DistanceMeters>
          </Trackpoint>
          <Trackpoint>
            <Time>2020-12-05T11:27:02.000Z</Time>
            <Position>
              <LatitudeDegrees>36.82607464492321014404296875</LatitudeDegrees>
              <LongitudeDegrees>-4.36410703696310520172119140625</LongitudeDegrees>
            </Position>
            <AltitudeMeters>729.4000244140625</AltitudeMeters>
            <DistanceMeters>NAN</DistanceMeters>
          </Trackpoint>
          <Trackpoint>
            <Time>2020-12-05T11:27:03.000Z</Time>
            <Position>
              <LatitudeDegrees>36.82608269155025482177734375</LatitudeDegrees>
              <LongitudeDegrees>-4.36409563757479190826416015625</LongitudeDegrees>
            </Position>
            <AltitudeMeters>729.4000244140625</AltitudeMeters>
            <DistanceMeters>NAN</DistanceMeters>
          </Trackpoint>
          <Trackpoint>
            <Time>2020-12-05T11:27:04.000Z</Time>
            <Position>
              <LatitudeDegrees>36.8260895647108554840087890625</LatitudeDegrees>
              <LongitudeDegrees>-4.3640886805951595306396484375</LongitudeDegrees>
            </Position>
            <AltitudeMeters>729.4000244140625</AltitudeMeters>
            <DistanceMeters>NAN</DistanceMeters>
          </Trackpoint>
          <Trackpoint>
            <Time>2020-12-05T11:57:36.000Z</Time>
            <Position>
              <LatitudeDegrees>36.82597615756094455718994140625</LatitudeDegrees>
              <LongitudeDegrees>-4.36422823928296566009521484375</LongitudeDegrees>
            </Position>
            <AltitudeMeters>730.20001220703125</AltitudeMeters>
            <DistanceMeters>NAN</DistanceMeters>
          </Trackpoint>
          <Trackpoint>
            <Time>2020-12-05T11:57:37.000Z</Time>
            <Position>
              <LatitudeDegrees>36.82596660219132900238037109375</LatitudeDegrees>
              <LongitudeDegrees>-4.3642338551580905914306640625</LongitudeDegrees>
            </Position>
            <AltitudeMeters>730.20001220703125</AltitudeMeters>
            <DistanceMeters>NAN</DistanceMeters>
          </Trackpoint>
          <Trackpoint>
            <Time>2020-12-05T11:57:38.000Z</Time>
            <Position>
              <LatitudeDegrees>36.8259586393833160400390625</LatitudeDegrees>
              <LongitudeDegrees>-4.364238716661930084228515625</LongitudeDegrees>
            </Position>
            <AltitudeMeters>730.20001220703125</AltitudeMeters>
            <DistanceMeters>NAN</DistanceMeters>
          </Trackpoint>
          <Trackpoint>
            <Time>2020-12-05T11:57:39.000Z</Time>
            <Position>
              <LatitudeDegrees>36.82595067657530307769775390625</LatitudeDegrees>
              <LongitudeDegrees>-4.3642382137477397918701171875</LongitudeDegrees>
            </Position>
            <AltitudeMeters>730.20001220703125</AltitudeMeters>
            <DistanceMeters>NAN</DistanceMeters>
          </Trackpoint>
          <Trackpoint>
            <Time>2020-12-05T11:57:41.000Z</Time>
            <Position>
              <LatitudeDegrees>36.8259272910654544830322265625</LatitudeDegrees>
              <LongitudeDegrees>-4.36423930339515209197998046875</LongitudeDegrees>
            </Position>
            <AltitudeMeters>730.20001220703125</AltitudeMeters>
            <DistanceMeters>NAN</DistanceMeters>
          </Trackpoint>
          <Trackpoint>
            <Time>2020-12-05T11:57:42.000Z</Time>
            <Position>
              <LatitudeDegrees>36.82591480202972888946533203125</LatitudeDegrees>
              <LongitudeDegrees>-4.36423611827194690704345703125</LongitudeDegrees>
            </Position>
            <AltitudeMeters>730.20001220703125</AltitudeMeters>
            <DistanceMeters>NAN</DistanceMeters>
          </Trackpoint>
          <Trackpoint>
            <Time>2020-12-05T11:57:43.000Z</Time>
            <Position>
              <LatitudeDegrees>36.82590373791754245758056640625</LatitudeDegrees>
              <LongitudeDegrees>-4.36423377133905887603759765625</LongitudeDegrees>
            </Position>
            <AltitudeMeters>730.20001220703125</AltitudeMeters>
            <DistanceMeters>NAN</DistanceMeters>
          </Trackpoint>
          <Trackpoint>
            <Time>2020-12-05T11:57:44.000Z</Time>
            <Position>
              <LatitudeDegrees>36.82589384727180004119873046875</LatitudeDegrees>
              <LongitudeDegrees>-4.36423779465258121490478515625</LongitudeDegrees>
            </Position>
            <AltitudeMeters>730.20001220703125</AltitudeMeters>
            <DistanceMeters>NAN</DistanceMeters>
          </Trackpoint>
          <Trackpoint>
            <Time>2020-12-05T11:57:45.000Z</Time>
            <Position>
              <LatitudeDegrees>36.82588060386478900909423828125</LatitudeDegrees>
              <LongitudeDegrees>-4.3642437458038330078125</LongitudeDegrees>
            </Position>
            <AltitudeMeters>730.20001220703125</AltitudeMeters>
            <DistanceMeters>NAN</DistanceMeters>
          </Trackpoint>
          <Trackpoint>
            <Time>2020-12-05T11:57:46.000Z</Time>
            <Position>
              <LatitudeDegrees>36.82586752809584140777587890625</LatitudeDegrees>
              <LongitudeDegrees>-4.3642566539347171783447265625</LongitudeDegrees>
            </Position>
            <AltitudeMeters>730.20001220703125</AltitudeMeters>
            <DistanceMeters>NAN</DistanceMeters>
          </Trackpoint>
          <Trackpoint>
            <Time>2020-12-05T11:57:47.000Z</Time>
            <Position>
              <LatitudeDegrees>36.8258558772504329681396484375</LatitudeDegrees>
              <LongitudeDegrees>-4.36427081935107707977294921875</LongitudeDegrees>
            </Position>
            <AltitudeMeters>730.20001220703125</AltitudeMeters>
            <DistanceMeters>NAN</DistanceMeters>
          </Trackpoint>
          <Trackpoint>
            <Time>2020-12-05T11:57:48.000Z</Time>
            <Position>
              <LatitudeDegrees>36.8258461542427539825439453125</LatitudeDegrees>
              <LongitudeDegrees>-4.36428624205291271209716796875</LongitudeDegrees>
            </Position>
            <AltitudeMeters>730.20001220703125</AltitudeMeters>
            <DistanceMeters>NAN</DistanceMeters>
          </Trackpoint>
          <Trackpoint>
            <Time>2020-12-05T11:57:49.000Z</Time>
            <Position>
              <LatitudeDegrees>36.8258392810821533203125</LatitudeDegrees>
              <LongitudeDegrees>-4.36430300585925579071044921875</LongitudeDegrees>
            </Position>
            <AltitudeMeters>730.20001220703125</AltitudeMeters>
            <DistanceMeters>NAN</DistanceMeters>
          </Trackpoint>
          <Trackpoint>
            <Time>2020-12-05T11:57:50.000Z</Time>
            <Position>
              <LatitudeDegrees>36.82583349756896495819091796875</LatitudeDegrees>
              <LongitudeDegrees>-4.36431817710399627685546875</LongitudeDegrees>
            </Position>
            <AltitudeMeters>730.20001220703125</AltitudeMeters>
            <DistanceMeters>NAN</DistanceMeters>
          </Trackpoint>
          <Trackpoint>
            <Time>2020-12-05T11:57:51.000Z</Time>
            <Position>
              <LatitudeDegrees>36.82583031244575977325439453125</LatitudeDegrees>
              <LongitudeDegrees>-4.3643347732722759246826171875</LongitudeDegrees>
            </Position>
            <AltitudeMeters>730.20001220703125</AltitudeMeters>
            <DistanceMeters>NAN</DistanceMeters>
          </Trackpoint>
          <Trackpoint>
            <Time>2020-12-05T11:57:52.000Z</Time>
            <Position>
              <LatitudeDegrees>36.82583182118833065032958984375</LatitudeDegrees>
              <LongitudeDegrees>-4.36434843577444553375244140625</LongitudeDegrees>
            </Position>
            <AltitudeMeters>730.20001220703125</AltitudeMeters>
            <DistanceMeters>NAN</DistanceMeters>
          </Trackpoint>
          <Trackpoint>
            <Time>2020-12-05T11:57:53.000Z</Time>
            <Position>
              <LatitudeDegrees>36.8258374370634555816650390625</LatitudeDegrees>
              <LongitudeDegrees>-4.36435681767761707305908203125</LongitudeDegrees>
            </Position>
            <AltitudeMeters>730.20001220703125</AltitudeMeters>
            <DistanceMeters>NAN</DistanceMeters>
          </Trackpoint>
          <Trackpoint>
            <Time>2020-12-05T11:57:54.000Z</Time>
            <Position>
              <LatitudeDegrees>36.82584187947213649749755859375</LatitudeDegrees>
              <LongitudeDegrees>-4.36435949988663196563720703125</LongitudeDegrees>
            </Position>
            <AltitudeMeters>730.20001220703125</AltitudeMeters>
            <DistanceMeters>NAN</DistanceMeters>
          </Trackpoint>
          <Trackpoint>
            <Time>2020-12-05T11:57:55.000Z</Time>
            <Position>
              <LatitudeDegrees>36.825844310224056243896484375</LatitudeDegrees>
              <LongitudeDegrees>-4.36435849405825138092041015625</LongitudeDegrees>
            </Position>
            <AltitudeMeters>730.20001220703125</AltitudeMeters>
            <DistanceMeters>NAN</DistanceMeters>
          </Trackpoint>
          <Trackpoint>
            <Time>2020-12-05T11:57:56.000Z</Time>
            <Position>
              <LatitudeDegrees>36.825849004089832305908203125</LatitudeDegrees>
              <LongitudeDegrees>-4.36435438692569732666015625</LongitudeDegrees>
            </Position>
            <AltitudeMeters>730.20001220703125</AltitudeMeters>
            <DistanceMeters>NAN</DistanceMeters>
          </Trackpoint>
          <Trackpoint>
            <Time>2020-12-05T11:57:57.000Z</Time>
            <Position>
              <LatitudeDegrees>36.82585579343140125274658203125</LatitudeDegrees>
              <LongitudeDegrees>-4.3643444962799549102783203125</LongitudeDegrees>
            </Position>
            <AltitudeMeters>730.20001220703125</AltitudeMeters>
            <DistanceMeters>NAN</DistanceMeters>
          </Trackpoint>
          <Trackpoint>
            <Time>2020-12-05T11:57:58.000Z</Time>
            <Position>
              <LatitudeDegrees>36.825865767896175384521484375</LatitudeDegrees>
              <LongitudeDegrees>-4.36433016322553157806396484375</LongitudeDegrees>
            </Position>
            <AltitudeMeters>730.20001220703125</AltitudeMeters>
            <DistanceMeters>NAN</DistanceMeters>
          </Trackpoint>
          <Trackpoint>
            <Time>2020-12-05T11:57:59.000Z</Time>
            <Position>
              <LatitudeDegrees>36.82587306015193462371826171875</LatitudeDegrees>
              <LongitudeDegrees>-4.3643193505704402923583984375</LongitudeDegrees>
            </Position>
            <AltitudeMeters>730.20001220703125</AltitudeMeters>
            <DistanceMeters>NAN</DistanceMeters>
          </Trackpoint>
          <Trackpoint>
            <Time>2020-12-05T11:58:00.000Z</Time>
            <Position>
              <LatitudeDegrees>36.8258843757212162017822265625</LatitudeDegrees>
              <LongitudeDegrees>-4.36431021429598331451416015625</LongitudeDegrees>
            </Position>
            <AltitudeMeters>732</AltitudeMeters>
            <DistanceMeters>NAN</DistanceMeters>
          </Trackpoint>
          <Trackpoint>
            <Time>2020-12-05T11:58:01.000Z</Time>
            <Position>
              <LatitudeDegrees>36.82590055279433727264404296875</LatitudeDegrees>
              <LongitudeDegrees>-4.3643029220402240753173828125</LongitudeDegrees>
            </Position>
            <AltitudeMeters>732</AltitudeMeters>
            <DistanceMeters>NAN</DistanceMeters>
          </Trackpoint>
          <Trackpoint>
            <Time>2020-12-05T11:58:02.000Z</Time>
            <Position>
              <LatitudeDegrees>36.82591564022004604339599609375</LatitudeDegrees>
              <LongitudeDegrees>-4.36430082656443119049072265625</LongitudeDegrees>
            </Position>
            <AltitudeMeters>732</AltitudeMeters>
            <DistanceMeters>NAN</DistanceMeters>
          </Trackpoint>
          <Trackpoint>
            <Time>2020-12-05T11:58:03.000Z</Time>
            <Position>
              <LatitudeDegrees>36.82592175900936126708984375</LatitudeDegrees>
              <LongitudeDegrees>-4.36430132947862148284912109375</LongitudeDegrees>
            </Position>
            <AltitudeMeters>732</AltitudeMeters>
            <DistanceMeters>NAN</DistanceMeters>
          </Trackpoint>
          <Trackpoint>
            <Time>2020-12-05T11:58:04.000Z</Time>
            <Position>
              <LatitudeDegrees>36.82592771016061305999755859375</LatitudeDegrees>
              <LongitudeDegrees>-4.3643032573163509368896484375</LongitudeDegrees>
            </Position>
            <AltitudeMeters>730.20001220703125</AltitudeMeters>
            <DistanceMeters>NAN</DistanceMeters>
          </Trackpoint>
          <Trackpoint>
            <Time>2020-12-05T11:58:05.000Z</Time>
            <Position>
              <LatitudeDegrees>36.82593391276895999908447265625</LatitudeDegrees>
              <LongitudeDegrees>-4.36430820263922214508056640625</LongitudeDegrees>
            </Position>
            <AltitudeMeters>730.20001220703125</AltitudeMeters>
            <DistanceMeters>NAN</DistanceMeters>
          </Trackpoint>
          <Trackpoint>
            <Time>2020-12-05T11:58:06.000Z</Time>
            <Position>
              <LatitudeDegrees>36.82593726553022861480712890625</LatitudeDegrees>
              <LongitudeDegrees>-4.3643049336969852447509765625</LongitudeDegrees>
            </Position>
            <AltitudeMeters>730.20001220703125</AltitudeMeters>
            <DistanceMeters>NAN</DistanceMeters>
          </Trackpoint>
          <Trackpoint>
            <Time>2020-12-05T11:58:07.000Z</Time>
            <Position>
              <LatitudeDegrees>36.8259452283382415771484375</LatitudeDegrees>
              <LongitudeDegrees>-4.3643089570105075836181640625</LongitudeDegrees>
            </Position>
            <AltitudeMeters>730.20001220703125</AltitudeMeters>
            <DistanceMeters>NAN</DistanceMeters>
          </Trackpoint>
          <Trackpoint>
            <Time>2020-12-05T11:58:08.000Z</Time>
            <Position>
              <LatitudeDegrees>36.8259554542601108551025390625</LatitudeDegrees>
              <LongitudeDegrees>-4.36431222595274448394775390625</LongitudeDegrees>
            </Position>
            <AltitudeMeters>730.20001220703125</AltitudeMeters>
            <DistanceMeters>NAN</DistanceMeters>
          </Trackpoint>
          <Trackpoint>
            <Time>2020-12-05T11:58:09.000Z</Time>
            <Position>
              <LatitudeDegrees>36.82596199214458465576171875</LatitudeDegrees>
              <LongitudeDegrees>-4.3643183447420597076416015625</LongitudeDegrees>
            </Position>
            <AltitudeMeters>730.20001220703125</AltitudeMeters>
            <DistanceMeters>NAN</DistanceMeters>
          </Trackpoint>
          <Trackpoint>
            <Time>2020-12-05T11:58:10.000Z</Time>
            <Position>
              <LatitudeDegrees>36.82596878148615360260009765625</LatitudeDegrees>
              <LongitudeDegrees>-4.36432421207427978515625</LongitudeDegrees>
            </Position>
            <AltitudeMeters>730.20001220703125</AltitudeMeters>
            <DistanceMeters>NAN</DistanceMeters>
          </Trackpoint>
          <Trackpoint>
            <Time>2020-12-05T11:58:11.000Z</Time>
            <Position>
              <LatitudeDegrees>36.82597850449383258819580078125</LatitudeDegrees>
              <LongitudeDegrees>-4.36432915739715099334716796875</LongitudeDegrees>
            </Position>
            <AltitudeMeters>730.20001220703125</AltitudeMeters>
            <DistanceMeters>NAN</DistanceMeters>
          </Trackpoint>
          <Trackpoint>
            <Time>2020-12-05T11:58:12.000Z</Time>
            <Position>
              <LatitudeDegrees>36.825991161167621612548828125</LatitudeDegrees>
              <LongitudeDegrees>-4.36433167196810245513916015625</LongitudeDegrees>
            </Position>
            <AltitudeMeters>730.20001220703125</AltitudeMeters>
            <DistanceMeters>NAN</DistanceMeters>
          </Trackpoint>
          <Trackpoint>
            <Time>2020-12-05T11:58:13.000Z</Time>
            <Position>
              <LatitudeDegrees>36.8260050751268863677978515625</LatitudeDegrees>
              <LongitudeDegrees>-4.36433267779648303985595703125</LongitudeDegrees>
            </Position>
            <AltitudeMeters>730.20001220703125</AltitudeMeters>
            <DistanceMeters>NAN</DistanceMeters>
          </Trackpoint>
          <Trackpoint>
            <Time>2020-12-05T11:58:14.000Z</Time>
            <Position>
              <LatitudeDegrees>36.82601622305810451507568359375</LatitudeDegrees>
              <LongitudeDegrees>-4.36433267779648303985595703125</LongitudeDegrees>
            </Position>
            <AltitudeMeters>730.20001220703125</AltitudeMeters>
            <DistanceMeters>NAN</DistanceMeters>
          </Trackpoint>
          <Trackpoint>
            <Time>2020-12-05T11:58:15.000Z</Time>
            <Position>
              <LatitudeDegrees>36.8260265327990055084228515625</LatitudeDegrees>
              <LongitudeDegrees>-4.3643357791006565093994140625</LongitudeDegrees>
            </Position>
            <AltitudeMeters>730.20001220703125</AltitudeMeters>
            <DistanceMeters>NAN</DistanceMeters>
          </Trackpoint>
          <Trackpoint>
            <Time>2020-12-05T11:58:16.000Z</Time>
            <Position>
              <LatitudeDegrees>36.82603399269282817840576171875</LatitudeDegrees>
              <LongitudeDegrees>-4.3643389642238616943359375</LongitudeDegrees>
            </Position>
            <AltitudeMeters>730.20001220703125</AltitudeMeters>
            <DistanceMeters>NAN</DistanceMeters>
          </Trackpoint>
          <Trackpoint>
            <Time>2020-12-05T11:58:17.000Z</Time>
            <Position>
              <LatitudeDegrees>36.82604103349149227142333984375</LatitudeDegrees>
              <LongitudeDegrees>-4.3643414787948131561279296875</LongitudeDegrees>
            </Position>
            <AltitudeMeters>730.20001220703125</AltitudeMeters>
            <DistanceMeters>NAN</DistanceMeters>
          </Trackpoint>
          <Trackpoint>
            <Time>2020-12-05T11:58:18.000Z</Time>
            <Position>
              <LatitudeDegrees>36.82604807429015636444091796875</LatitudeDegrees>
              <LongitudeDegrees>-4.364346005022525787353515625</LongitudeDegrees>
            </Position>
            <AltitudeMeters>730.20001220703125</AltitudeMeters>
            <DistanceMeters>NAN</DistanceMeters>
          </Trackpoint>
          <Trackpoint>
            <Time>2020-12-05T11:58:19.000Z</Time>
            <Position>
              <LatitudeDegrees>36.8260543607175350189208984375</LatitudeDegrees>
              <LongitudeDegrees>-4.36435145325958728790283203125</LongitudeDegrees>
            </Position>
            <AltitudeMeters>730.20001220703125</AltitudeMeters>
            <DistanceMeters>NAN</DistanceMeters>
          </Trackpoint>
          <Trackpoint>
            <Time>2020-12-05T11:58:20.000Z</Time>
            <Position>
              <LatitudeDegrees>36.8260597251355648040771484375</LatitudeDegrees>
              <LongitudeDegrees>-4.36435648240149021148681640625</LongitudeDegrees>
            </Position>
            <AltitudeMeters>730.20001220703125</AltitudeMeters>
            <DistanceMeters>NAN</DistanceMeters>
          </Trackpoint>
          <Trackpoint>
            <Time>2020-12-05T11:58:21.000Z</Time>
            <Position>
              <LatitudeDegrees>36.8260640837252140045166015625</LatitudeDegrees>
              <LongitudeDegrees>-4.36436402611434459686279296875</LongitudeDegrees>
            </Position>
            <AltitudeMeters>730.20001220703125</AltitudeMeters>
            <DistanceMeters>NAN</DistanceMeters>
          </Trackpoint>
          <Trackpoint>
            <Time>2020-12-05T11:58:22.000Z</Time>
            <Position>
              <LatitudeDegrees>36.82606802321970462799072265625</LatitudeDegrees>
              <LongitudeDegrees>-4.36437584459781646728515625</LongitudeDegrees>
            </Position>
            <AltitudeMeters>730.20001220703125</AltitudeMeters>
            <DistanceMeters>NAN</DistanceMeters>
          </Trackpoint>
          <Trackpoint>
            <Time>2020-12-05T11:58:23.000Z</Time>
            <Position>
              <LatitudeDegrees>36.82607389055192470550537109375</LatitudeDegrees>
              <LongitudeDegrees>-4.36438548378646373748779296875</LongitudeDegrees>
            </Position>
            <AltitudeMeters>730.20001220703125</AltitudeMeters>
            <DistanceMeters>NAN</DistanceMeters>
          </Trackpoint>
          <Trackpoint>
            <Time>2020-12-05T11:58:24.000Z</Time>
            <Position>
              <LatitudeDegrees>36.82608210481703281402587890625</LatitudeDegrees>
              <LongitudeDegrees>-4.36439269222319126129150390625</LongitudeDegrees>
            </Position>
            <AltitudeMeters>730.20001220703125</AltitudeMeters>
            <DistanceMeters>NAN</DistanceMeters>
          </Trackpoint>
          <Trackpoint>
            <Time>2020-12-05T11:58:25.000Z</Time>
            <Position>
              <LatitudeDegrees>36.82609015144407749176025390625</LatitudeDegrees>
              <LongitudeDegrees>-4.36440392397344112396240234375</LongitudeDegrees>
            </Position>
            <AltitudeMeters>730.20001220703125</AltitudeMeters>
            <DistanceMeters>NAN</DistanceMeters>
          </Trackpoint>
          <Trackpoint>
            <Time>2020-12-05T11:58:26.000Z</Time>
            <Position>
              <LatitudeDegrees>36.82609769515693187713623046875</LatitudeDegrees>
              <LongitudeDegrees>-4.3644154071807861328125</LongitudeDegrees>
            </Position>
            <AltitudeMeters>730.20001220703125</AltitudeMeters>
            <DistanceMeters>NAN</DistanceMeters>
          </Trackpoint>
          <Trackpoint>
            <Time>2020-12-05T11:58:27.000Z</Time>
            <Position>
              <LatitudeDegrees>36.82610523886978626251220703125</LatitudeDegrees>
              <LongitudeDegrees>-4.36442655511200428009033203125</LongitudeDegrees>
            </Position>
            <AltitudeMeters>730.20001220703125</AltitudeMeters>
            <DistanceMeters>NAN</DistanceMeters>
          </Trackpoint>
          <Trackpoint>
            <Time>2020-12-05T11:58:28.000Z</Time>
            <Position>
              <LatitudeDegrees>36.82611378841102123260498046875</LatitudeDegrees>
              <LongitudeDegrees>-4.36443946324288845062255859375</LongitudeDegrees>
            </Position>
            <AltitudeMeters>730.20001220703125</AltitudeMeters>
            <DistanceMeters>NAN</DistanceMeters>
          </Trackpoint>
          <Trackpoint>
            <Time>2020-12-05T11:58:29.000Z</Time>
            <Position>
              <LatitudeDegrees>36.82612166740000247955322265625</LatitudeDegrees>
              <LongitudeDegrees>-4.36444583348929882049560546875</LongitudeDegrees>
            </Position>
            <AltitudeMeters>730.20001220703125</AltitudeMeters>
            <DistanceMeters>NAN</DistanceMeters>
          </Trackpoint>
          <Trackpoint>
            <Time>2020-12-05T11:58:30.000Z</Time>
            <Position>
              <LatitudeDegrees>36.82613097131252288818359375</LatitudeDegrees>
              <LongitudeDegrees>-4.3644541315734386444091796875</LongitudeDegrees>
            </Position>
            <AltitudeMeters>730.20001220703125</AltitudeMeters>
            <DistanceMeters>NAN</DistanceMeters>
          </Trackpoint>
          <Trackpoint>
            <Time>2020-12-05T11:58:31.000Z</Time>
            <Position>
              <LatitudeDegrees>36.8261361680924892425537109375</LatitudeDegrees>
              <LongitudeDegrees>-4.36446326784789562225341796875</LongitudeDegrees>
            </Position>
            <AltitudeMeters>730.20001220703125</AltitudeMeters>
            <DistanceMeters>NAN</DistanceMeters>
          </Trackpoint>
          <Trackpoint>
            <Time>2020-12-05T11:58:32.000Z</Time>
            <Position>
              <LatitudeDegrees>36.8261391855776309967041015625</LatitudeDegrees>
              <LongitudeDegrees>-4.36447315849363803863525390625</LongitudeDegrees>
            </Position>
            <AltitudeMeters>730.20001220703125</AltitudeMeters>
            <DistanceMeters>NAN</DistanceMeters>
          </Trackpoint>
          <Trackpoint>
            <Time>2020-12-05T11:58:33.000Z</Time>
            <Position>
              <LatitudeDegrees>36.826142370700836181640625</LatitudeDegrees>
              <LongitudeDegrees>-4.3644838035106658935546875</LongitudeDegrees>
            </Position>
            <AltitudeMeters>730.20001220703125</AltitudeMeters>
            <DistanceMeters>NAN</DistanceMeters>
          </Trackpoint>
          <Trackpoint>
            <Time>2020-12-05T11:58:34.000Z</Time>
            <Position>
              <LatitudeDegrees>36.82614463381469249725341796875</LatitudeDegrees>
              <LongitudeDegrees>-4.36449495144188404083251953125</LongitudeDegrees>
            </Position>
            <AltitudeMeters>730.20001220703125</AltitudeMeters>
            <DistanceMeters>NAN</DistanceMeters>
          </Trackpoint>
          <Trackpoint>
            <Time>2020-12-05T11:58:35.000Z</Time>
            <Position>
              <LatitudeDegrees>36.82615016587078571319580078125</LatitudeDegrees>
              <LongitudeDegrees>-4.36450459063053131103515625</LongitudeDegrees>
            </Position>
            <AltitudeMeters>730.20001220703125</AltitudeMeters>
            <DistanceMeters>NAN</DistanceMeters>
          </Trackpoint>
          <Trackpoint>
            <Time>2020-12-05T11:58:36.000Z</Time>
            <Position>
              <LatitudeDegrees>36.82615435682237148284912109375</LatitudeDegrees>
              <LongitudeDegrees>-4.36451104469597339630126953125</LongitudeDegrees>
            </Position>
            <AltitudeMeters>730.20001220703125</AltitudeMeters>
            <DistanceMeters>NAN</DistanceMeters>
          </Trackpoint>
          <Trackpoint>
            <Time>2020-12-05T11:58:37.000Z</Time>
            <Position>
              <LatitudeDegrees>36.82615502737462520599365234375</LatitudeDegrees>
              <LongitudeDegrees>-4.36451674439013004302978515625</LongitudeDegrees>
            </Position>
            <AltitudeMeters>730.20001220703125</AltitudeMeters>
            <DistanceMeters>NAN</DistanceMeters>
          </Trackpoint>
          <Trackpoint>
            <Time>2020-12-05T11:58:38.000Z</Time>
            <Position>
              <LatitudeDegrees>36.8261517584323883056640625</LatitudeDegrees>
              <LongitudeDegrees>-4.36452470719814300537109375</LongitudeDegrees>
            </Position>
            <AltitudeMeters>730.20001220703125</AltitudeMeters>
            <DistanceMeters>NAN</DistanceMeters>
          </Trackpoint>
          <Trackpoint>
            <Time>2020-12-05T11:58:39.000Z</Time>
            <Position>
              <LatitudeDegrees>36.82614597491919994354248046875</LatitudeDegrees>
              <LongitudeDegrees>-4.36453049071133136749267578125</LongitudeDegrees>
            </Position>
            <AltitudeMeters>730.20001220703125</AltitudeMeters>
            <DistanceMeters>NAN</DistanceMeters>
          </Trackpoint>
          <Trackpoint>
            <Time>2020-12-05T11:58:40.000Z</Time>
            <Position>
              <LatitudeDegrees>36.8261388503015041351318359375</LatitudeDegrees>
              <LongitudeDegrees>-4.36453350819647312164306640625</LongitudeDegrees>
            </Position>
            <AltitudeMeters>730.20001220703125</AltitudeMeters>
            <DistanceMeters>NAN</DistanceMeters>
          </Trackpoint>
          <Trackpoint>
            <Time>2020-12-05T11:58:41.000Z</Time>
            <Position>
              <LatitudeDegrees>36.82612988166511058807373046875</LatitudeDegrees>
              <LongitudeDegrees>-4.36453342437744140625</LongitudeDegrees>
            </Position>
            <AltitudeMeters>730.20001220703125</AltitudeMeters>
            <DistanceMeters>NAN</DistanceMeters>
          </Trackpoint>
          <Trackpoint>
            <Time>2020-12-05T11:58:42.000Z</Time>
            <Position>
              <LatitudeDegrees>36.82612133212387561798095703125</LatitudeDegrees>
              <LongitudeDegrees>-4.364532418549060821533203125</LongitudeDegrees>
            </Position>
            <AltitudeMeters>730.20001220703125</AltitudeMeters>
            <DistanceMeters>NAN</DistanceMeters>
          </Trackpoint>
          <Trackpoint>
            <Time>2020-12-05T11:58:43.000Z</Time>
            <Position>
              <LatitudeDegrees>36.82611630298197269439697265625</LatitudeDegrees>
              <LongitudeDegrees>-4.3645294010639190673828125</LongitudeDegrees>
            </Position>
            <AltitudeMeters>730.20001220703125</AltitudeMeters>
            <DistanceMeters>NAN</DistanceMeters>
          </Trackpoint>
          <Trackpoint>
            <Time>2020-12-05T11:58:44.000Z</Time>
            <Position>
              <LatitudeDegrees>36.82611085474491119384765625</LatitudeDegrees>
              <LongitudeDegrees>-4.36452914960682392120361328125</LongitudeDegrees>
            </Position>
            <AltitudeMeters>730.20001220703125</AltitudeMeters>
            <DistanceMeters>NAN</DistanceMeters>
          </Trackpoint>
          <Trackpoint>
            <Time>2020-12-05T11:58:45.000Z</Time>
            <Position>
              <LatitudeDegrees>36.82610741816461086273193359375</LatitudeDegrees>
              <LongitudeDegrees>-4.364530406892299652099609375</LongitudeDegrees>
            </Position>
            <AltitudeMeters>730.20001220703125</AltitudeMeters>
            <DistanceMeters>NAN</DistanceMeters>
          </Trackpoint>
          <Trackpoint>
            <Time>2020-12-05T11:58:46.000Z</Time>
            <Position>
              <LatitudeDegrees>36.8261069990694522857666015625</LatitudeDegrees>
              <LongitudeDegrees>-4.3645278923213481903076171875</LongitudeDegrees>
            </Position>
            <AltitudeMeters>730.20001220703125</AltitudeMeters>
            <DistanceMeters>NAN</DistanceMeters>
          </Trackpoint>
          <Trackpoint>
            <Time>2020-12-05T11:58:47.000Z</Time>
            <Position>
              <LatitudeDegrees>36.82610691525042057037353515625</LatitudeDegrees>
              <LongitudeDegrees>-4.36452470719814300537109375</LongitudeDegrees>
            </Position>
            <AltitudeMeters>730.20001220703125</AltitudeMeters>
            <DistanceMeters>NAN</DistanceMeters>
          </Trackpoint>
          <Trackpoint>
            <Time>2020-12-05T11:58:48.000Z</Time>
            <Position>
              <LatitudeDegrees>36.826104484498500823974609375</LatitudeDegrees>
              <LongitudeDegrees>-4.3645255453884601593017578125</LongitudeDegrees>
            </Position>
            <AltitudeMeters>730.20001220703125</AltitudeMeters>
            <DistanceMeters>NAN</DistanceMeters>
          </Trackpoint>
          <Trackpoint>
            <Time>2020-12-05T11:58:49.000Z</Time>
            <Position>
              <LatitudeDegrees>36.826103143393993377685546875</LatitudeDegrees>
              <LongitudeDegrees>-4.36452361755073070526123046875</LongitudeDegrees>
            </Position>
            <AltitudeMeters>730.20001220703125</AltitudeMeters>
            <DistanceMeters>NAN</DistanceMeters>
          </Trackpoint>
          <Trackpoint>
            <Time>2020-12-05T11:58:50.000Z</Time>
            <Position>
              <LatitudeDegrees>36.82610842399299144744873046875</LatitudeDegrees>
              <LongitudeDegrees>-4.364528395235538482666015625</LongitudeDegrees>
            </Position>
            <AltitudeMeters>730.20001220703125</AltitudeMeters>
            <DistanceMeters>NAN</DistanceMeters>
          </Trackpoint>
          <Trackpoint>
            <Time>2020-12-05T11:58:51.000Z</Time>
            <Position>
              <LatitudeDegrees>36.82611613534390926361083984375</LatitudeDegrees>
              <LongitudeDegrees>-4.36452982015907764434814453125</LongitudeDegrees>
            </Position>
            <AltitudeMeters>730.20001220703125</AltitudeMeters>
            <DistanceMeters>NAN</DistanceMeters>
          </Trackpoint>
          <Trackpoint>
            <Time>2020-12-05T11:58:52.000Z</Time>
            <Position>
              <LatitudeDegrees>36.82612292468547821044921875</LatitudeDegrees>
              <LongitudeDegrees>-4.36452177353203296661376953125</LongitudeDegrees>
            </Position>
            <AltitudeMeters>730.20001220703125</AltitudeMeters>
            <DistanceMeters>NAN</DistanceMeters>
          </Trackpoint>
          <Trackpoint>
            <Time>2020-12-05T11:58:53.000Z</Time>
            <Position>
              <LatitudeDegrees>36.82612904347479343414306640625</LatitudeDegrees>
              <LongitudeDegrees>-4.3645087815821170806884765625</LongitudeDegrees>
            </Position>
            <AltitudeMeters>730.20001220703125</AltitudeMeters>
            <DistanceMeters>NAN</DistanceMeters>
          </Trackpoint>
          <Trackpoint>
            <Time>2020-12-05T11:58:54.000Z</Time>
            <Position>
              <LatitudeDegrees>36.82613231241703033447265625</LatitudeDegrees>
              <LongitudeDegrees>-4.36449713073670864105224609375</LongitudeDegrees>
            </Position>
            <AltitudeMeters>730.20001220703125</AltitudeMeters>
            <DistanceMeters>NAN</DistanceMeters>
          </Trackpoint>
          <Trackpoint>
            <Time>2020-12-05T11:58:55.000Z</Time>
            <Position>
              <LatitudeDegrees>36.8261341564357280731201171875</LatitudeDegrees>
              <LongitudeDegrees>-4.364490509033203125</LongitudeDegrees>
            </Position>
            <AltitudeMeters>730.20001220703125</AltitudeMeters>
            <DistanceMeters>NAN</DistanceMeters>
          </Trackpoint>
          <Trackpoint>
            <Time>2020-12-05T11:58:56.000Z</Time>
            <Position>
              <LatitudeDegrees>36.82613189332187175750732421875</LatitudeDegrees>
              <LongitudeDegrees>-4.36448858119547367095947265625</LongitudeDegrees>
            </Position>
            <AltitudeMeters>730.20001220703125</AltitudeMeters>
            <DistanceMeters>NAN</DistanceMeters>
          </Trackpoint>
          <Trackpoint>
            <Time>2020-12-05T11:58:57.000Z</Time>
            <Position>
              <LatitudeDegrees>36.8261356651782989501953125</LatitudeDegrees>
              <LongitudeDegrees>-4.36448522843420505523681640625</LongitudeDegrees>
            </Position>
            <AltitudeMeters>730.20001220703125</AltitudeMeters>
            <DistanceMeters>NAN</DistanceMeters>
          </Trackpoint>
          <Trackpoint>
            <Time>2020-12-05T11:58:58.000Z</Time>
            <Position>
              <LatitudeDegrees>36.8261437118053436279296875</LatitudeDegrees>
              <LongitudeDegrees>-4.36447776854038238525390625</LongitudeDegrees>
            </Position>
            <AltitudeMeters>730.20001220703125</AltitudeMeters>
            <DistanceMeters>NAN</DistanceMeters>
          </Trackpoint>
          <Trackpoint>
            <Time>2020-12-05T11:58:59.000Z</Time>
            <Position>
              <LatitudeDegrees>36.8261489085853099822998046875</LatitudeDegrees>
              <LongitudeDegrees>-4.36446930281817913055419921875</LongitudeDegrees>
            </Position>
            <AltitudeMeters>730.20001220703125</AltitudeMeters>
            <DistanceMeters>NAN</DistanceMeters>
          </Trackpoint>
          <Trackpoint>
            <Time>2020-12-05T11:59:00.000Z</Time>
            <Position>
              <LatitudeDegrees>36.82615402154624462127685546875</LatitudeDegrees>
              <LongitudeDegrees>-4.3644558079540729522705078125</LongitudeDegrees>
            </Position>
            <AltitudeMeters>734</AltitudeMeters>
            <DistanceMeters>NAN</DistanceMeters>
          </Trackpoint>
          <Trackpoint>
            <Time>2020-12-05T11:59:01.000Z</Time>
            <Position>
              <LatitudeDegrees>36.82615720666944980621337890625</LatitudeDegrees>
              <LongitudeDegrees>-4.36444197781383991241455078125</LongitudeDegrees>
            </Position>
            <AltitudeMeters>734</AltitudeMeters>
            <DistanceMeters>NAN</DistanceMeters>
          </Trackpoint>
          <Trackpoint>
            <Time>2020-12-05T11:59:02.000Z</Time>
            <Position>
              <LatitudeDegrees>36.8261552788317203521728515625</LatitudeDegrees>
              <LongitudeDegrees>-4.36443150043487548828125</LongitudeDegrees>
            </Position>
            <AltitudeMeters>734</AltitudeMeters>
            <DistanceMeters>NAN</DistanceMeters>
          </Trackpoint>
          <Trackpoint>
            <Time>2020-12-05T11:59:03.000Z</Time>
            <Position>
              <LatitudeDegrees>36.82615083642303943634033203125</LatitudeDegrees>
              <LongitudeDegrees>-4.36442144215106964111328125</LongitudeDegrees>
            </Position>
            <AltitudeMeters>734</AltitudeMeters>
            <DistanceMeters>NAN</DistanceMeters>
          </Trackpoint>
          <Trackpoint>
            <Time>2020-12-05T11:59:04.000Z</Time>
            <Position>
              <LatitudeDegrees>36.82614631019532680511474609375</LatitudeDegrees>
              <LongitudeDegrees>-4.36441071331501007080078125</LongitudeDegrees>
            </Position>
            <AltitudeMeters>734</AltitudeMeters>
            <DistanceMeters>NAN</DistanceMeters>
          </Trackpoint>
          <Trackpoint>
            <Time>2020-12-05T11:59:05.000Z</Time>
            <Position>
              <LatitudeDegrees>36.82614362798631191253662109375</LatitudeDegrees>
              <LongitudeDegrees>-4.36439973302185535430908203125</LongitudeDegrees>
            </Position>
            <AltitudeMeters>734</AltitudeMeters>
            <DistanceMeters>NAN</DistanceMeters>
          </Trackpoint>
          <Trackpoint>
            <Time>2020-12-05T11:59:06.000Z</Time>
            <Position>
              <LatitudeDegrees>36.82614111341536045074462890625</LatitudeDegrees>
              <LongitudeDegrees>-4.36439193785190582275390625</LongitudeDegrees>
            </Position>
            <AltitudeMeters>734</AltitudeMeters>
            <DistanceMeters>NAN</DistanceMeters>
          </Trackpoint>
          <Trackpoint>
            <Time>2020-12-05T11:59:07.000Z</Time>
            <Position>
              <LatitudeDegrees>36.82613926939666271209716796875</LatitudeDegrees>
              <LongitudeDegrees>-4.36438716016709804534912109375</LongitudeDegrees>
            </Position>
            <AltitudeMeters>734</AltitudeMeters>
            <DistanceMeters>NAN</DistanceMeters>
          </Trackpoint>
          <Trackpoint>
            <Time>2020-12-05T11:59:08.000Z</Time>
            <Position>
              <LatitudeDegrees>36.82613633573055267333984375</LatitudeDegrees>
              <LongitudeDegrees>-4.36438397504389286041259765625</LongitudeDegrees>
            </Position>
            <AltitudeMeters>734</AltitudeMeters>
            <DistanceMeters>NAN</DistanceMeters>
          </Trackpoint>
          <Trackpoint>
            <Time>2020-12-05T11:59:09.000Z</Time>
            <Position>
              <LatitudeDegrees>36.82613424025475978851318359375</LatitudeDegrees>
              <LongitudeDegrees>-4.36438078992068767547607421875</LongitudeDegrees>
            </Position>
            <AltitudeMeters>734</AltitudeMeters>
            <DistanceMeters>NAN</DistanceMeters>
          </Trackpoint>
          <Trackpoint>
            <Time>2020-12-05T11:59:10.000Z</Time>
            <Position>
              <LatitudeDegrees>36.8261321447789669036865234375</LatitudeDegrees>
              <LongitudeDegrees>-4.36437525786459445953369140625</LongitudeDegrees>
            </Position>
            <AltitudeMeters>734</AltitudeMeters>
            <DistanceMeters>NAN</DistanceMeters>
          </Trackpoint>
          <Trackpoint>
            <Time>2020-12-05T11:59:11.000Z</Time>
            <Position>
              <LatitudeDegrees>36.82612963020801544189453125</LatitudeDegrees>
              <LongitudeDegrees>-4.36436821706593036651611328125</LongitudeDegrees>
            </Position>
            <AltitudeMeters>734</AltitudeMeters>
            <DistanceMeters>NAN</DistanceMeters>
          </Trackpoint>
          <Trackpoint>
            <Time>2020-12-05T11:59:12.000Z</Time>
            <Position>
              <LatitudeDegrees>36.82612921111285686492919921875</LatitudeDegrees>
              <LongitudeDegrees>-4.3643612600862979888916015625</LongitudeDegrees>
            </Position>
            <AltitudeMeters>734</AltitudeMeters>
            <DistanceMeters>NAN</DistanceMeters>
          </Trackpoint>
          <Trackpoint>
            <Time>2020-12-05T11:59:13.000Z</Time>
            <Position>
              <LatitudeDegrees>36.826130636036396026611328125</LatitudeDegrees>
              <LongitudeDegrees>-4.36435698531568050384521484375</LongitudeDegrees>
            </Position>
            <AltitudeMeters>734</AltitudeMeters>
            <DistanceMeters>NAN</DistanceMeters>
          </Trackpoint>
          <Trackpoint>
            <Time>2020-12-05T11:59:14.000Z</Time>
            <Position>
              <LatitudeDegrees>36.82612828910350799560546875</LatitudeDegrees>
              <LongitudeDegrees>-4.3643558956682682037353515625</LongitudeDegrees>
            </Position>
            <AltitudeMeters>734</AltitudeMeters>
            <DistanceMeters>NAN</DistanceMeters>
          </Trackpoint>
          <Trackpoint>
            <Time>2020-12-05T11:59:15.000Z</Time>
            <Position>
              <LatitudeDegrees>36.82612585835158824920654296875</LatitudeDegrees>
              <LongitudeDegrees>-4.36435832642018795013427734375</LongitudeDegrees>
            </Position>
            <AltitudeMeters>734</AltitudeMeters>
            <DistanceMeters>NAN</DistanceMeters>
          </Trackpoint>
          <Trackpoint>
            <Time>2020-12-05T11:59:16.000Z</Time>
            <Position>
              <LatitudeDegrees>36.82612183503806591033935546875</LatitudeDegrees>
              <LongitudeDegrees>-4.3643585778772830963134765625</LongitudeDegrees>
            </Position>
            <AltitudeMeters>734</AltitudeMeters>
            <DistanceMeters>NAN</DistanceMeters>
          </Trackpoint>
          <Trackpoint>
            <Time>2020-12-05T11:59:17.000Z</Time>
            <Position>
              <LatitudeDegrees>36.8261183984577655792236328125</LatitudeDegrees>
              <LongitudeDegrees>-4.3643538840115070343017578125</LongitudeDegrees>
            </Position>
            <AltitudeMeters>734</AltitudeMeters>
            <DistanceMeters>NAN</DistanceMeters>
          </Trackpoint>
          <Trackpoint>
            <Time>2020-12-05T11:59:18.000Z</Time>
            <Position>
              <LatitudeDegrees>36.8261157162487506866455078125</LatitudeDegrees>
              <LongitudeDegrees>-4.36434525065124034881591796875</LongitudeDegrees>
            </Position>
            <AltitudeMeters>734</AltitudeMeters>
            <DistanceMeters>NAN</DistanceMeters>
          </Trackpoint>
          <Trackpoint>
            <Time>2020-12-05T11:59:19.000Z</Time>
            <Position>
              <LatitudeDegrees>36.82611110620200634002685546875</LatitudeDegrees>
              <LongitudeDegrees>-4.36433427035808563232421875</LongitudeDegrees>
            </Position>
            <AltitudeMeters>734</AltitudeMeters>
            <DistanceMeters>NAN</DistanceMeters>
          </Trackpoint>
          <Trackpoint>
            <Time>2020-12-05T11:59:20.000Z</Time>
            <Position>
              <LatitudeDegrees>36.8261049874126911163330078125</LatitudeDegrees>
              <LongitudeDegrees>-4.3643255531787872314453125</LongitudeDegrees>
            </Position>
            <AltitudeMeters>734</AltitudeMeters>
            <DistanceMeters>NAN</DistanceMeters>
          </Trackpoint>
          <Trackpoint>
            <Time>2020-12-05T11:59:21.000Z</Time>
            <Position>
              <LatitudeDegrees>36.826097778975963592529296875</LatitudeDegrees>
              <LongitudeDegrees>-4.36431859619915485382080078125</LongitudeDegrees>
            </Position>
            <AltitudeMeters>734</AltitudeMeters>
            <DistanceMeters>NAN</DistanceMeters>
          </Trackpoint>
          <Trackpoint>
            <Time>2020-12-05T11:59:22.000Z</Time>
            <Position>
              <LatitudeDegrees>36.82608914561569690704345703125</LatitudeDegrees>
              <LongitudeDegrees>-4.3643136508762836456298828125</LongitudeDegrees>
            </Position>
            <AltitudeMeters>734</AltitudeMeters>
            <DistanceMeters>NAN</DistanceMeters>
          </Trackpoint>
          <Trackpoint>
            <Time>2020-12-05T11:59:23.000Z</Time>
            <Position>
              <LatitudeDegrees>36.826083026826381683349609375</LatitudeDegrees>
              <LongitudeDegrees>-4.364305436611175537109375</LongitudeDegrees>
            </Position>
            <AltitudeMeters>734</AltitudeMeters>
            <DistanceMeters>NAN</DistanceMeters>
          </Trackpoint>
          <Trackpoint>
            <Time>2020-12-05T11:59:24.000Z</Time>
            <Position>
              <LatitudeDegrees>36.8260751478374004364013671875</LatitudeDegrees>
              <LongitudeDegrees>-4.36430166475474834442138671875</LongitudeDegrees>
            </Position>
            <AltitudeMeters>734</AltitudeMeters>
            <DistanceMeters>NAN</DistanceMeters>
          </Trackpoint>
          <Trackpoint>
            <Time>2020-12-05T11:59:25.000Z</Time>
            <Position>
              <LatitudeDegrees>36.82606886141002178192138671875</LatitudeDegrees>
              <LongitudeDegrees>-4.3642968870699405670166015625</LongitudeDegrees>
            </Position>
            <AltitudeMeters>734</AltitudeMeters>
            <DistanceMeters>NAN</DistanceMeters>
          </Trackpoint>
          <Trackpoint>
            <Time>2020-12-05T11:59:26.000Z</Time>
            <Position>
              <LatitudeDegrees>36.8260630778968334197998046875</LatitudeDegrees>
              <LongitudeDegrees>-4.36429537832736968994140625</LongitudeDegrees>
            </Position>
            <AltitudeMeters>734</AltitudeMeters>
            <DistanceMeters>NAN</DistanceMeters>
          </Trackpoint>
          <Trackpoint>
            <Time>2020-12-05T11:59:27.000Z</Time>
            <Position>
              <LatitudeDegrees>36.8260550312697887420654296875</LatitudeDegrees>
              <LongitudeDegrees>-4.36429780907928943634033203125</LongitudeDegrees>
            </Position>
            <AltitudeMeters>734</AltitudeMeters>
            <DistanceMeters>NAN</DistanceMeters>
          </Trackpoint>
          <Trackpoint>
            <Time>2020-12-05T11:59:28.000Z</Time>
            <Position>
              <LatitudeDegrees>36.8260466493666172027587890625</LatitudeDegrees>
              <LongitudeDegrees>-4.36429529450833797454833984375</LongitudeDegrees>
            </Position>
            <AltitudeMeters>734</AltitudeMeters>
            <DistanceMeters>NAN</DistanceMeters>
          </Trackpoint>
          <Trackpoint>
            <Time>2020-12-05T11:59:29.000Z</Time>
            <Position>
              <LatitudeDegrees>36.826036758720874786376953125</LatitudeDegrees>
              <LongitudeDegrees>-4.36429512687027454376220703125</LongitudeDegrees>
            </Position>
            <AltitudeMeters>734</AltitudeMeters>
            <DistanceMeters>NAN</DistanceMeters>
          </Trackpoint>
          <Trackpoint>
            <Time>2020-12-05T11:59:30.000Z</Time>
            <Position>
              <LatitudeDegrees>36.82602368295192718505859375</LatitudeDegrees>
              <LongitudeDegrees>-4.36429537832736968994140625</LongitudeDegrees>
            </Position>
            <AltitudeMeters>734</AltitudeMeters>
            <DistanceMeters>NAN</DistanceMeters>
          </Trackpoint>
          <Trackpoint>
            <Time>2020-12-05T11:59:31.000Z</Time>
            <Position>
              <LatitudeDegrees>36.82600985281169414520263671875</LatitudeDegrees>
              <LongitudeDegrees>-4.36429479159414768218994140625</LongitudeDegrees>
            </Position>
            <AltitudeMeters>734</AltitudeMeters>
            <DistanceMeters>NAN</DistanceMeters>
          </Trackpoint>
          <Trackpoint>
            <Time>2020-12-05T11:59:32.000Z</Time>
            <Position>
              <LatitudeDegrees>36.826000213623046875</LatitudeDegrees>
              <LongitudeDegrees>-4.364297054708003997802734375</LongitudeDegrees>
            </Position>
            <AltitudeMeters>734</AltitudeMeters>
            <DistanceMeters>NAN</DistanceMeters>
          </Trackpoint>
          <Trackpoint>
            <Time>2020-12-05T11:59:33.000Z</Time>
            <Position>
              <LatitudeDegrees>36.82598990388214588165283203125</LatitudeDegrees>
              <LongitudeDegrees>-4.36429831199347972869873046875</LongitudeDegrees>
            </Position>
            <AltitudeMeters>734</AltitudeMeters>
            <DistanceMeters>NAN</DistanceMeters>
          </Trackpoint>
          <Trackpoint>
            <Time>2020-12-05T11:59:34.000Z</Time>
            <Position>
              <LatitudeDegrees>36.82597934268414974212646484375</LatitudeDegrees>
              <LongitudeDegrees>-4.36429915018379688262939453125</LongitudeDegrees>
            </Position>
            <AltitudeMeters>734</AltitudeMeters>
            <DistanceMeters>NAN</DistanceMeters>
          </Trackpoint>
          <Trackpoint>
            <Time>2020-12-05T11:59:35.000Z</Time>
            <Position>
              <LatitudeDegrees>36.82596727274358272552490234375</LatitudeDegrees>
              <LongitudeDegrees>-4.36429948545992374420166015625</LongitudeDegrees>
            </Position>
            <AltitudeMeters>734</AltitudeMeters>
            <DistanceMeters>NAN</DistanceMeters>
          </Trackpoint>
          <Trackpoint>
            <Time>2020-12-05T11:59:36.000Z</Time>
            <Position>
              <LatitudeDegrees>36.82595436461269855499267578125</LatitudeDegrees>
              <LongitudeDegrees>-4.36430552043020725250244140625</LongitudeDegrees>
            </Position>
            <AltitudeMeters>734</AltitudeMeters>
            <DistanceMeters>NAN</DistanceMeters>
          </Trackpoint>
          <Trackpoint>
            <Time>2020-12-05T11:59:37.000Z</Time>
            <Position>
              <LatitudeDegrees>36.82594447396695613861083984375</LatitudeDegrees>
              <LongitudeDegrees>-4.36431071721017360687255859375</LongitudeDegrees>
            </Position>
            <AltitudeMeters>734</AltitudeMeters>
            <DistanceMeters>NAN</DistanceMeters>
          </Trackpoint>
          <Trackpoint>
            <Time>2020-12-05T11:59:38.000Z</Time>
            <Position>
              <LatitudeDegrees>36.8259343318641185760498046875</LatitudeDegrees>
              <LongitudeDegrees>-4.364313818514347076416015625</LongitudeDegrees>
            </Position>
            <AltitudeMeters>734</AltitudeMeters>
            <DistanceMeters>NAN</DistanceMeters>
          </Trackpoint>
          <Trackpoint>
            <Time>2020-12-05T11:59:39.000Z</Time>
            <Position>
              <LatitudeDegrees>36.82592486031353473663330078125</LatitudeDegrees>
              <LongitudeDegrees>-4.3643126450479030609130859375</LongitudeDegrees>
            </Position>
            <AltitudeMeters>734</AltitudeMeters>
            <DistanceMeters>NAN</DistanceMeters>
          </Trackpoint>
          <Trackpoint>
            <Time>2020-12-05T11:59:40.000Z</Time>
            <Position>
              <LatitudeDegrees>36.82591714896261692047119140625</LatitudeDegrees>
              <LongitudeDegrees>-4.36431356705725193023681640625</LongitudeDegrees>
            </Position>
            <AltitudeMeters>734</AltitudeMeters>
            <DistanceMeters>NAN</DistanceMeters>
          </Trackpoint>
          <Trackpoint>
            <Time>2020-12-05T11:59:41.000Z</Time>
            <Position>
              <LatitudeDegrees>36.825911365449428558349609375</LatitudeDegrees>
              <LongitudeDegrees>-4.3643156625330448150634765625</LongitudeDegrees>
            </Position>
            <AltitudeMeters>734</AltitudeMeters>
            <DistanceMeters>NAN</DistanceMeters>
          </Trackpoint>
          <Trackpoint>
            <Time>2020-12-05T11:59:42.000Z</Time>
            <Position>
              <LatitudeDegrees>36.82590424083173274993896484375</LatitudeDegrees>
              <LongitudeDegrees>-4.36431507579982280731201171875</LongitudeDegrees>
            </Position>
            <AltitudeMeters>734</AltitudeMeters>
            <DistanceMeters>NAN</DistanceMeters>
          </Trackpoint>
          <Trackpoint>
            <Time>2020-12-05T11:59:43.000Z</Time>
            <Position>
              <LatitudeDegrees>36.82589937932789325714111328125</LatitudeDegrees>
              <LongitudeDegrees>-4.36431323178112506866455078125</LongitudeDegrees>
            </Position>
            <AltitudeMeters>734</AltitudeMeters>
            <DistanceMeters>NAN</DistanceMeters>
          </Trackpoint>
          <Trackpoint>
            <Time>2020-12-05T11:59:44.000Z</Time>
            <Position>
              <LatitudeDegrees>36.82588747702538967132568359375</LatitudeDegrees>
              <LongitudeDegrees>-4.3643079511821269989013671875</LongitudeDegrees>
            </Position>
            <AltitudeMeters>734</AltitudeMeters>
            <DistanceMeters>NAN</DistanceMeters>
          </Trackpoint>
          <Trackpoint>
            <Time>2020-12-05T11:59:45.000Z</Time>
            <Position>
              <LatitudeDegrees>36.82587641291320323944091796875</LatitudeDegrees>
              <LongitudeDegrees>-4.36430769972503185272216796875</LongitudeDegrees>
            </Position>
            <AltitudeMeters>734</AltitudeMeters>
            <DistanceMeters>NAN</DistanceMeters>
          </Trackpoint>
          <Trackpoint>
            <Time>2020-12-05T11:59:46.000Z</Time>
            <Position>
              <LatitudeDegrees>36.82586551643908023834228515625</LatitudeDegrees>
              <LongitudeDegrees>-4.3643067777156829833984375</LongitudeDegrees>
            </Position>
            <AltitudeMeters>734</AltitudeMeters>
            <DistanceMeters>NAN</DistanceMeters>
          </Trackpoint>
          <Trackpoint>
            <Time>2020-12-05T11:59:47.000Z</Time>
            <Position>
              <LatitudeDegrees>36.82585512287914752960205078125</LatitudeDegrees>
              <LongitudeDegrees>-4.3643072806298732757568359375</LongitudeDegrees>
            </Position>
            <AltitudeMeters>734</AltitudeMeters>
            <DistanceMeters>NAN</DistanceMeters>
          </Trackpoint>
          <Trackpoint>
            <Time>2020-12-05T11:59:48.000Z</Time>
            <Position>
              <LatitudeDegrees>36.82584741152822971343994140625</LatitudeDegrees>
              <LongitudeDegrees>-4.36430686153471469879150390625</LongitudeDegrees>
            </Position>
            <AltitudeMeters>734</AltitudeMeters>
            <DistanceMeters>NAN</DistanceMeters>
          </Trackpoint>
          <Trackpoint>
            <Time>2020-12-05T11:59:49.000Z</Time>
            <Position>
              <LatitudeDegrees>36.8258394487202167510986328125</LatitudeDegrees>
              <LongitudeDegrees>-4.36430585570633411407470703125</LongitudeDegrees>
            </Position>
            <AltitudeMeters>734</AltitudeMeters>
            <DistanceMeters>NAN</DistanceMeters>
          </Trackpoint>
          <Trackpoint>
            <Time>2020-12-05T11:59:50.000Z</Time>
            <Position>
              <LatitudeDegrees>36.82582997716963291168212890625</LatitudeDegrees>
              <LongitudeDegrees>-4.3643005751073360443115234375</LongitudeDegrees>
            </Position>
            <AltitudeMeters>734</AltitudeMeters>
            <DistanceMeters>NAN</DistanceMeters>
          </Trackpoint>
          <Trackpoint>
            <Time>2020-12-05T11:59:51.000Z</Time>
            <Position>
              <LatitudeDegrees>36.82582863606512546539306640625</LatitudeDegrees>
              <LongitudeDegrees>-4.364299066364765167236328125</LongitudeDegrees>
            </Position>
            <AltitudeMeters>734</AltitudeMeters>
            <DistanceMeters>NAN</DistanceMeters>
          </Trackpoint>
          <Trackpoint>
            <Time>2020-12-05T11:59:52.000Z</Time>
            <Position>
              <LatitudeDegrees>36.8258293904364109039306640625</LatitudeDegrees>
              <LongitudeDegrees>-4.36429713852703571319580078125</LongitudeDegrees>
            </Position>
            <AltitudeMeters>734</AltitudeMeters>
            <DistanceMeters>NAN</DistanceMeters>
          </Trackpoint>
          <Trackpoint>
            <Time>2020-12-05T11:59:53.000Z</Time>
            <Position>
              <LatitudeDegrees>36.825827546417713165283203125</LatitudeDegrees>
              <LongitudeDegrees>-4.364297054708003997802734375</LongitudeDegrees>
            </Position>
            <AltitudeMeters>734</AltitudeMeters>
            <DistanceMeters>NAN</DistanceMeters>
          </Trackpoint>
          <Trackpoint>
            <Time>2020-12-05T11:59:54.000Z</Time>
            <Position>
              <LatitudeDegrees>36.82582712732255458831787109375</LatitudeDegrees>
              <LongitudeDegrees>-4.36429613269865512847900390625</LongitudeDegrees>
            </Position>
            <AltitudeMeters>734</AltitudeMeters>
            <DistanceMeters>NAN</DistanceMeters>
          </Trackpoint>
          <Trackpoint>
            <Time>2020-12-05T11:59:55.000Z</Time>
            <Position>
              <LatitudeDegrees>36.8258263729512691497802734375</LatitudeDegrees>
              <LongitudeDegrees>-4.36429495923221111297607421875</LongitudeDegrees>
            </Position>
            <AltitudeMeters>734</AltitudeMeters>
            <DistanceMeters>NAN</DistanceMeters>
          </Trackpoint>
          <Trackpoint>
            <Time>2020-12-05T11:59:56.000Z</Time>
            <Position>
              <LatitudeDegrees>36.82582654058933258056640625</LatitudeDegrees>
              <LongitudeDegrees>-4.364294372498989105224609375</LongitudeDegrees>
            </Position>
            <AltitudeMeters>734</AltitudeMeters>
            <DistanceMeters>NAN</DistanceMeters>
          </Trackpoint>
          <Trackpoint>
            <Time>2020-12-05T11:59:57.000Z</Time>
            <Position>
              <LatitudeDegrees>36.82582830078899860382080078125</LatitudeDegrees>
              <LongitudeDegrees>-4.3642933666706085205078125</LongitudeDegrees>
            </Position>
            <AltitudeMeters>734</AltitudeMeters>
            <DistanceMeters>NAN</DistanceMeters>
          </Trackpoint>
          <Trackpoint>
            <Time>2020-12-05T11:59:58.000Z</Time>
            <Position>
              <LatitudeDegrees>36.8258303962647914886474609375</LatitudeDegrees>
              <LongitudeDegrees>-4.36429043300449848175048828125</LongitudeDegrees>
            </Position>
            <AltitudeMeters>734</AltitudeMeters>
            <DistanceMeters>NAN</DistanceMeters>
          </Trackpoint>
          <Trackpoint>
            <Time>2020-12-05T11:59:59.000Z</Time>
            <Position>
              <LatitudeDegrees>36.8258314020931720733642578125</LatitudeDegrees>
              <LongitudeDegrees>-4.36428993009030818939208984375</LongitudeDegrees>
            </Position>
            <AltitudeMeters>734</AltitudeMeters>
            <DistanceMeters>NAN</DistanceMeters>
          </Trackpoint>
          <Trackpoint>
            <Time>2020-12-05T12:00:00.000Z</Time>
            <Position>
              <LatitudeDegrees>36.8258300609886646270751953125</LatitudeDegrees>
              <LongitudeDegrees>-4.3642918579280376434326171875</LongitudeDegrees>
            </Position>
            <AltitudeMeters>730.20001220703125</AltitudeMeters>
            <DistanceMeters>NAN</DistanceMeters>
          </Trackpoint>
          <Trackpoint>
            <Time>2020-12-05T12:00:01.000Z</Time>
            <Position>
              <LatitudeDegrees>36.82582997716963291168212890625</LatitudeDegrees>
              <LongitudeDegrees>-4.3642908520996570587158203125</LongitudeDegrees>
            </Position>
            <AltitudeMeters>730.20001220703125</AltitudeMeters>
            <DistanceMeters>NAN</DistanceMeters>
          </Trackpoint>
          <Trackpoint>
            <Time>2020-12-05T12:00:02.000Z</Time>
            <Position>
              <LatitudeDegrees>36.82582897134125232696533203125</LatitudeDegrees>
              <LongitudeDegrees>-4.36428942717611789703369140625</LongitudeDegrees>
            </Position>
            <AltitudeMeters>730.20001220703125</AltitudeMeters>
            <DistanceMeters>NAN</DistanceMeters>
          </Trackpoint>
          <Trackpoint>
            <Time>2020-12-05T12:00:03.000Z</Time>
            <Position>
              <LatitudeDegrees>36.82582679204642772674560546875</LatitudeDegrees>
              <LongitudeDegrees>-4.3642864935100078582763671875</LongitudeDegrees>
            </Position>
            <AltitudeMeters>730.20001220703125</AltitudeMeters>
            <DistanceMeters>NAN</DistanceMeters>
          </Trackpoint>
          <Trackpoint>
            <Time>2020-12-05T12:00:04.000Z</Time>
            <Position>
              <LatitudeDegrees>36.82582712732255458831787109375</LatitudeDegrees>
              <LongitudeDegrees>-4.364282973110675811767578125</LongitudeDegrees>
            </Position>
            <AltitudeMeters>730.20001220703125</AltitudeMeters>
            <DistanceMeters>NAN</DistanceMeters>
          </Trackpoint>
          <Trackpoint>
            <Time>2020-12-05T12:00:05.000Z</Time>
            <Position>
              <LatitudeDegrees>36.82582980953156948089599609375</LatitudeDegrees>
              <LongitudeDegrees>-4.36428473331034183502197265625</LongitudeDegrees>
            </Position>
            <AltitudeMeters>730.20001220703125</AltitudeMeters>
            <DistanceMeters>NAN</DistanceMeters>
          </Trackpoint>
          <Trackpoint>
            <Time>2020-12-05T12:00:06.000Z</Time>
            <Position>
              <LatitudeDegrees>36.8258310668170452117919921875</LatitudeDegrees>
              <LongitudeDegrees>-4.364286996424198150634765625</LongitudeDegrees>
            </Position>
            <AltitudeMeters>730.20001220703125</AltitudeMeters>
            <DistanceMeters>NAN</DistanceMeters>
          </Trackpoint>
          <Trackpoint>
            <Time>2020-12-05T12:00:07.000Z</Time>
            <Position>
              <LatitudeDegrees>36.82583383284509181976318359375</LatitudeDegrees>
              <LongitudeDegrees>-4.36428691260516643524169921875</LongitudeDegrees>
            </Position>
            <AltitudeMeters>730.20001220703125</AltitudeMeters>
            <DistanceMeters>NAN</DistanceMeters>
          </Trackpoint>
          <Trackpoint>
            <Time>2020-12-05T12:00:08.000Z</Time>
            <Position>
              <LatitudeDegrees>36.8258387781679630279541015625</LatitudeDegrees>
              <LongitudeDegrees>-4.3642834760248661041259765625</LongitudeDegrees>
            </Position>
            <AltitudeMeters>730.20001220703125</AltitudeMeters>
            <DistanceMeters>NAN</DistanceMeters>
          </Trackpoint>
          <Trackpoint>
            <Time>2020-12-05T12:00:09.000Z</Time>
            <Position>
              <LatitudeDegrees>36.82584539987146854400634765625</LatitudeDegrees>
              <LongitudeDegrees>-4.3642772734165191650390625</LongitudeDegrees>
            </Position>
            <AltitudeMeters>730.20001220703125</AltitudeMeters>
            <DistanceMeters>NAN</DistanceMeters>
          </Trackpoint>
          <Trackpoint>
            <Time>2020-12-05T12:00:10.000Z</Time>
            <Position>
              <LatitudeDegrees>36.825851686298847198486328125</LatitudeDegrees>
              <LongitudeDegrees>-4.3642740882933139801025390625</LongitudeDegrees>
            </Position>
            <AltitudeMeters>730.20001220703125</AltitudeMeters>
            <DistanceMeters>NAN</DistanceMeters>
          </Trackpoint>
          <Trackpoint>
            <Time>2020-12-05T12:00:11.000Z</Time>
            <Position>
              <LatitudeDegrees>36.82585864327847957611083984375</LatitudeDegrees>
              <LongitudeDegrees>-4.36426864005625247955322265625</LongitudeDegrees>
            </Position>
            <AltitudeMeters>730.20001220703125</AltitudeMeters>
            <DistanceMeters>NAN</DistanceMeters>
          </Trackpoint>
          <Trackpoint>
            <Time>2020-12-05T12:00:12.000Z</Time>
            <Position>
              <LatitudeDegrees>36.82586409151554107666015625</LatitudeDegrees>
              <LongitudeDegrees>-4.3642633594572544097900390625</LongitudeDegrees>
            </Position>
            <AltitudeMeters>730.20001220703125</AltitudeMeters>
            <DistanceMeters>NAN</DistanceMeters>
          </Trackpoint>
          <Trackpoint>
            <Time>2020-12-05T12:00:13.000Z</Time>
            <Position>
              <LatitudeDegrees>36.82587146759033203125</LatitudeDegrees>
              <LongitudeDegrees>-4.364254139363765716552734375</LongitudeDegrees>
            </Position>
            <AltitudeMeters>730.20001220703125</AltitudeMeters>
            <DistanceMeters>NAN</DistanceMeters>
          </Trackpoint>
          <Trackpoint>
            <Time>2020-12-05T12:00:14.000Z</Time>
            <Position>
              <LatitudeDegrees>36.82587943039834499359130859375</LatitudeDegrees>
              <LongitudeDegrees>-4.36424500308930873870849609375</LongitudeDegrees>
            </Position>
            <AltitudeMeters>730.20001220703125</AltitudeMeters>
            <DistanceMeters>NAN</DistanceMeters>
          </Trackpoint>
          <Trackpoint>
            <Time>2020-12-05T12:00:15.000Z</Time>
            <Position>
              <LatitudeDegrees>36.82588513009250164031982421875</LatitudeDegrees>
              <LongitudeDegrees>-4.36423846520483493804931640625</LongitudeDegrees>
            </Position>
            <AltitudeMeters>730.20001220703125</AltitudeMeters>
            <DistanceMeters>NAN</DistanceMeters>
          </Trackpoint>
          <Trackpoint>
            <Time>2020-12-05T12:00:16.000Z</Time>
            <Position>
              <LatitudeDegrees>36.82589082978665828704833984375</LatitudeDegrees>
              <LongitudeDegrees>-4.3642355315387248992919921875</LongitudeDegrees>
            </Position>
            <AltitudeMeters>730.20001220703125</AltitudeMeters>
            <DistanceMeters>NAN</DistanceMeters>
          </Trackpoint>
          <Trackpoint>
            <Time>2020-12-05T12:00:17.000Z</Time>
            <Position>
              <LatitudeDegrees>36.82589828968048095703125</LatitudeDegrees>
              <LongitudeDegrees>-4.36423410661518573760986328125</LongitudeDegrees>
            </Position>
            <AltitudeMeters>730.20001220703125</AltitudeMeters>
            <DistanceMeters>NAN</DistanceMeters>
          </Trackpoint>
          <Trackpoint>
            <Time>2020-12-05T12:00:18.000Z</Time>
            <Position>
              <LatitudeDegrees>36.825908683240413665771484375</LatitudeDegrees>
              <LongitudeDegrees>-4.36423360370099544525146484375</LongitudeDegrees>
            </Position>
            <AltitudeMeters>730.20001220703125</AltitudeMeters>
            <DistanceMeters>NAN</DistanceMeters>
          </Trackpoint>
          <Trackpoint>
            <Time>2020-12-05T12:00:19.000Z</Time>
            <Position>
              <LatitudeDegrees>36.825918741524219512939453125</LatitudeDegrees>
              <LongitudeDegrees>-4.36423427425324916839599609375</LongitudeDegrees>
            </Position>
            <AltitudeMeters>730.20001220703125</AltitudeMeters>
            <DistanceMeters>NAN</DistanceMeters>
          </Trackpoint>
          <Trackpoint>
            <Time>2020-12-05T12:00:20.000Z</Time>
            <Position>
              <LatitudeDegrees>36.82592871598899364471435546875</LatitudeDegrees>
              <LongitudeDegrees>-4.3642362020909786224365234375</LongitudeDegrees>
            </Position>
            <AltitudeMeters>730.20001220703125</AltitudeMeters>
            <DistanceMeters>NAN</DistanceMeters>
          </Trackpoint>
          <Trackpoint>
            <Time>2020-12-05T12:00:21.000Z</Time>
            <Position>
              <LatitudeDegrees>36.82593994773924350738525390625</LatitudeDegrees>
              <LongitudeDegrees>-4.3642362020909786224365234375</LongitudeDegrees>
            </Position>
            <AltitudeMeters>730.20001220703125</AltitudeMeters>
            <DistanceMeters>NAN</DistanceMeters>
          </Trackpoint>
          <Trackpoint>
            <Time>2020-12-05T12:00:22.000Z</Time>
            <Position>
              <LatitudeDegrees>36.82595034129917621612548828125</LatitudeDegrees>
              <LongitudeDegrees>-4.3642372079193592071533203125</LongitudeDegrees>
            </Position>
            <AltitudeMeters>730.20001220703125</AltitudeMeters>
            <DistanceMeters>NAN</DistanceMeters>
          </Trackpoint>
          <Trackpoint>
            <Time>2020-12-05T12:00:23.000Z</Time>
            <Position>
              <LatitudeDegrees>36.82596140541136264801025390625</LatitudeDegrees>
              <LongitudeDegrees>-4.3642362020909786224365234375</LongitudeDegrees>
            </Position>
            <AltitudeMeters>730.20001220703125</AltitudeMeters>
            <DistanceMeters>NAN</DistanceMeters>
          </Trackpoint>
          <Trackpoint>
            <Time>2020-12-05T12:00:24.000Z</Time>
            <Position>
              <LatitudeDegrees>36.82597263716161251068115234375</LatitudeDegrees>
              <LongitudeDegrees>-4.36423310078680515289306640625</LongitudeDegrees>
            </Position>
            <AltitudeMeters>730.20001220703125</AltitudeMeters>
            <DistanceMeters>NAN</DistanceMeters>
          </Trackpoint>
          <Trackpoint>
            <Time>2020-12-05T12:00:25.000Z</Time>
            <Position>
              <LatitudeDegrees>36.8259856291115283966064453125</LatitudeDegrees>
              <LongitudeDegrees>-4.36423444189131259918212890625</LongitudeDegrees>
            </Position>
            <AltitudeMeters>730.20001220703125</AltitudeMeters>
            <DistanceMeters>NAN</DistanceMeters>
          </Trackpoint>
          <Trackpoint>
            <Time>2020-12-05T12:00:26.000Z</Time>
            <Position>
              <LatitudeDegrees>36.82600046508014202117919921875</LatitudeDegrees>
              <LongitudeDegrees>-4.3642385490238666534423828125</LongitudeDegrees>
            </Position>
            <AltitudeMeters>730.20001220703125</AltitudeMeters>
            <DistanceMeters>NAN</DistanceMeters>
          </Trackpoint>
          <Trackpoint>
            <Time>2020-12-05T12:00:27.000Z</Time>
            <Position>
              <LatitudeDegrees>36.82601521722972393035888671875</LatitudeDegrees>
              <LongitudeDegrees>-4.3642415665090084075927734375</LongitudeDegrees>
            </Position>
            <AltitudeMeters>730.20001220703125</AltitudeMeters>
            <DistanceMeters>NAN</DistanceMeters>
          </Trackpoint>
          <Trackpoint>
            <Time>2020-12-05T12:00:28.000Z</Time>
            <Position>
              <LatitudeDegrees>36.82603080756962299346923828125</LatitudeDegrees>
              <LongitudeDegrees>-4.36424349434673786163330078125</LongitudeDegrees>
            </Position>
            <AltitudeMeters>730.20001220703125</AltitudeMeters>
            <DistanceMeters>NAN</DistanceMeters>
          </Trackpoint>
          <Trackpoint>
            <Time>2020-12-05T12:00:29.000Z</Time>
            <Position>
              <LatitudeDegrees>36.82604539208114147186279296875</LatitudeDegrees>
              <LongitudeDegrees>-4.3642437458038330078125</LongitudeDegrees>
            </Position>
            <AltitudeMeters>730.20001220703125</AltitudeMeters>
            <DistanceMeters>NAN</DistanceMeters>
          </Trackpoint>
          <Trackpoint>
            <Time>2020-12-05T12:00:30.000Z</Time>
            <Position>
              <LatitudeDegrees>36.82605813257396221160888671875</LatitudeDegrees>
              <LongitudeDegrees>-4.36424575746059417724609375</LongitudeDegrees>
            </Position>
            <AltitudeMeters>730.20001220703125</AltitudeMeters>
            <DistanceMeters>NAN</DistanceMeters>
          </Trackpoint>
          <Trackpoint>
            <Time>2020-12-05T12:00:31.000Z</Time>
            <Position>
              <LatitudeDegrees>36.82606953196227550506591796875</LatitudeDegrees>
              <LongitudeDegrees>-4.3642516247928142547607421875</LongitudeDegrees>
            </Position>
            <AltitudeMeters>730.20001220703125</AltitudeMeters>
            <DistanceMeters>NAN</DistanceMeters>
          </Trackpoint>
          <Trackpoint>
            <Time>2020-12-05T12:00:32.000Z</Time>
            <Position>
              <LatitudeDegrees>36.82607925496995449066162109375</LatitudeDegrees>
              <LongitudeDegrees>-4.3642569892108440399169921875</LongitudeDegrees>
            </Position>
            <AltitudeMeters>730.20001220703125</AltitudeMeters>
            <DistanceMeters>NAN</DistanceMeters>
          </Trackpoint>
          <Trackpoint>
            <Time>2020-12-05T12:00:33.000Z</Time>
            <Position>
              <LatitudeDegrees>36.8260865472257137298583984375</LatitudeDegrees>
              <LongitudeDegrees>-4.3642616830766201019287109375</LongitudeDegrees>
            </Position>
            <AltitudeMeters>730.4000244140625</AltitudeMeters>
            <DistanceMeters>NAN</DistanceMeters>
          </Trackpoint>
          <Trackpoint>
            <Time>2020-12-05T12:00:34.000Z</Time>
            <Position>
              <LatitudeDegrees>36.8260932527482509613037109375</LatitudeDegrees>
              <LongitudeDegrees>-4.364268891513347625732421875</LongitudeDegrees>
            </Position>
            <AltitudeMeters>730.4000244140625</AltitudeMeters>
            <DistanceMeters>NAN</DistanceMeters>
          </Trackpoint>
          <Trackpoint>
            <Time>2020-12-05T12:00:35.000Z</Time>
            <Position>
              <LatitudeDegrees>36.82609886862337589263916015625</LatitudeDegrees>
              <LongitudeDegrees>-4.36427433975040912628173828125</LongitudeDegrees>
            </Position>
            <AltitudeMeters>730.4000244140625</AltitudeMeters>
            <DistanceMeters>NAN</DistanceMeters>
          </Trackpoint>
          <Trackpoint>
            <Time>2020-12-05T12:00:36.000Z</Time>
            <Position>
              <LatitudeDegrees>36.82610440067946910858154296875</LatitudeDegrees>
              <LongitudeDegrees>-4.36428062617778778076171875</LongitudeDegrees>
            </Position>
            <AltitudeMeters>730.4000244140625</AltitudeMeters>
            <DistanceMeters>NAN</DistanceMeters>
          </Trackpoint>
          <Trackpoint>
            <Time>2020-12-05T12:00:37.000Z</Time>
            <Position>
              <LatitudeDegrees>36.82611093856394290924072265625</LatitudeDegrees>
              <LongitudeDegrees>-4.36428590677678585052490234375</LongitudeDegrees>
            </Position>
            <AltitudeMeters>730.4000244140625</AltitudeMeters>
            <DistanceMeters>NAN</DistanceMeters>
          </Trackpoint>
          <Trackpoint>
            <Time>2020-12-05T12:00:38.000Z</Time>
            <Position>
              <LatitudeDegrees>36.8261197395622730255126953125</LatitudeDegrees>
              <LongitudeDegrees>-4.36429076828062534332275390625</LongitudeDegrees>
            </Position>
            <AltitudeMeters>730.4000244140625</AltitudeMeters>
            <DistanceMeters>NAN</DistanceMeters>
          </Trackpoint>
          <Trackpoint>
            <Time>2020-12-05T12:00:39.000Z</Time>
            <Position>
              <LatitudeDegrees>36.826129965484142303466796875</LatitudeDegrees>
              <LongitudeDegrees>-4.36429814435541629791259765625</LongitudeDegrees>
            </Position>
            <AltitudeMeters>730.4000244140625</AltitudeMeters>
            <DistanceMeters>NAN</DistanceMeters>
          </Trackpoint>
          <Trackpoint>
            <Time>2020-12-05T12:00:40.000Z</Time>
            <Position>
              <LatitudeDegrees>36.8261410295963287353515625</LatitudeDegrees>
              <LongitudeDegrees>-4.36430652625858783721923828125</LongitudeDegrees>
            </Position>
            <AltitudeMeters>730.4000244140625</AltitudeMeters>
            <DistanceMeters>NAN</DistanceMeters>
          </Trackpoint>
          <Trackpoint>
            <Time>2020-12-05T12:00:41.000Z</Time>
            <Position>
              <LatitudeDegrees>36.82614865712821483612060546875</LatitudeDegrees>
              <LongitudeDegrees>-4.364313147962093353271484375</LongitudeDegrees>
            </Position>
            <AltitudeMeters>730.4000244140625</AltitudeMeters>
            <DistanceMeters>NAN</DistanceMeters>
          </Trackpoint>
          <Trackpoint>
            <Time>2020-12-05T12:00:42.000Z</Time>
            <Position>
              <LatitudeDegrees>36.826156787574291229248046875</LatitudeDegrees>
              <LongitudeDegrees>-4.3643190152943134307861328125</LongitudeDegrees>
            </Position>
            <AltitudeMeters>730.4000244140625</AltitudeMeters>
            <DistanceMeters>NAN</DistanceMeters>
          </Trackpoint>
          <Trackpoint>
            <Time>2020-12-05T12:00:43.000Z</Time>
            <Position>
              <LatitudeDegrees>36.82616525329649448394775390625</LatitudeDegrees>
              <LongitudeDegrees>-4.3643263913691043853759765625</LongitudeDegrees>
            </Position>
            <AltitudeMeters>730.4000244140625</AltitudeMeters>
            <DistanceMeters>NAN</DistanceMeters>
          </Trackpoint>
          <Trackpoint>
            <Time>2020-12-05T12:00:44.000Z</Time>
            <Position>
              <LatitudeDegrees>36.826174221932888031005859375</LatitudeDegrees>
              <LongitudeDegrees>-4.36433385126292705535888671875</LongitudeDegrees>
            </Position>
            <AltitudeMeters>730.4000244140625</AltitudeMeters>
            <DistanceMeters>NAN</DistanceMeters>
          </Trackpoint>
          <Trackpoint>
            <Time>2020-12-05T12:00:45.000Z</Time>
            <Position>
              <LatitudeDegrees>36.826186962425708770751953125</LatitudeDegrees>
              <LongitudeDegrees>-4.36434642411768436431884765625</LongitudeDegrees>
            </Position>
            <AltitudeMeters>730.4000244140625</AltitudeMeters>
            <DistanceMeters>NAN</DistanceMeters>
          </Trackpoint>
          <Trackpoint>
            <Time>2020-12-05T12:00:46.000Z</Time>
            <Position>
              <LatitudeDegrees>36.8261988647282123565673828125</LatitudeDegrees>
              <LongitudeDegrees>-4.36435882933437824249267578125</LongitudeDegrees>
            </Position>
            <AltitudeMeters>730.4000244140625</AltitudeMeters>
            <DistanceMeters>NAN</DistanceMeters>
          </Trackpoint>
          <Trackpoint>
            <Time>2020-12-05T12:00:47.000Z</Time>
            <Position>
              <LatitudeDegrees>36.82621118612587451934814453125</LatitudeDegrees>
              <LongitudeDegrees>-4.3643726594746112823486328125</LongitudeDegrees>
            </Position>
            <AltitudeMeters>730.4000244140625</AltitudeMeters>
            <DistanceMeters>NAN</DistanceMeters>
          </Trackpoint>
          <Trackpoint>
            <Time>2020-12-05T12:00:48.000Z</Time>
            <Position>
              <LatitudeDegrees>36.8262216635048389434814453125</LatitudeDegrees>
              <LongitudeDegrees>-4.3643897585570812225341796875</LongitudeDegrees>
            </Position>
            <AltitudeMeters>730.4000244140625</AltitudeMeters>
            <DistanceMeters>NAN</DistanceMeters>
          </Trackpoint>
          <Trackpoint>
            <Time>2020-12-05T12:00:49.000Z</Time>
            <Position>
              <LatitudeDegrees>36.82623415254056453704833984375</LatitudeDegrees>
              <LongitudeDegrees>-4.3644033372402191162109375</LongitudeDegrees>
            </Position>
            <AltitudeMeters>730.4000244140625</AltitudeMeters>
            <DistanceMeters>NAN</DistanceMeters>
          </Trackpoint>
          <Trackpoint>
            <Time>2020-12-05T12:00:50.000Z</Time>
            <Position>
              <LatitudeDegrees>36.82624454610049724578857421875</LatitudeDegrees>
              <LongitudeDegrees>-4.3644138984382152557373046875</LongitudeDegrees>
            </Position>
            <AltitudeMeters>730.4000244140625</AltitudeMeters>
            <DistanceMeters>NAN</DistanceMeters>
          </Trackpoint>
          <Trackpoint>
            <Time>2020-12-05T12:00:51.000Z</Time>
            <Position>
              <LatitudeDegrees>36.82625477202236652374267578125</LatitudeDegrees>
              <LongitudeDegrees>-4.36442320235073566436767578125</LongitudeDegrees>
            </Position>
            <AltitudeMeters>730.4000244140625</AltitudeMeters>
            <DistanceMeters>NAN</DistanceMeters>
          </Trackpoint>
          <Trackpoint>
            <Time>2020-12-05T12:00:52.000Z</Time>
            <Position>
              <LatitudeDegrees>36.8262632377445697784423828125</LatitudeDegrees>
              <LongitudeDegrees>-4.36443074606359004974365234375</LongitudeDegrees>
            </Position>
            <AltitudeMeters>730.4000244140625</AltitudeMeters>
            <DistanceMeters>NAN</DistanceMeters>
          </Trackpoint>
          <Trackpoint>
            <Time>2020-12-05T12:00:53.000Z</Time>
            <Position>
              <LatitudeDegrees>36.82626952417194843292236328125</LatitudeDegrees>
              <LongitudeDegrees>-4.36443678103387355804443359375</LongitudeDegrees>
            </Position>
            <AltitudeMeters>730.4000244140625</AltitudeMeters>
            <DistanceMeters>NAN</DistanceMeters>
          </Trackpoint>
          <Trackpoint>
            <Time>2020-12-05T12:00:54.000Z</Time>
            <Position>
              <LatitudeDegrees>36.82627237401902675628662109375</LatitudeDegrees>
              <LongitudeDegrees>-4.36444222927093505859375</LongitudeDegrees>
            </Position>
            <AltitudeMeters>730.4000244140625</AltitudeMeters>
            <DistanceMeters>NAN</DistanceMeters>
          </Trackpoint>
          <Trackpoint>
            <Time>2020-12-05T12:00:55.000Z</Time>
            <Position>
              <LatitudeDegrees>36.8262756429612636566162109375</LatitudeDegrees>
              <LongitudeDegrees>-4.3644507788121700286865234375</LongitudeDegrees>
            </Position>
            <AltitudeMeters>730.4000244140625</AltitudeMeters>
            <DistanceMeters>NAN</DistanceMeters>
          </Trackpoint>
          <Trackpoint>
            <Time>2020-12-05T12:00:56.000Z</Time>
            <Position>
              <LatitudeDegrees>36.82628293521702289581298828125</LatitudeDegrees>
              <LongitudeDegrees>-4.364459998905658721923828125</LongitudeDegrees>
            </Position>
            <AltitudeMeters>730.4000244140625</AltitudeMeters>
            <DistanceMeters>NAN</DistanceMeters>
          </Trackpoint>
          <Trackpoint>
            <Time>2020-12-05T12:00:57.000Z</Time>
            <Position>
              <LatitudeDegrees>36.8262924067676067352294921875</LatitudeDegrees>
              <LongitudeDegrees>-4.3644712306559085845947265625</LongitudeDegrees>
            </Position>
            <AltitudeMeters>730.4000244140625</AltitudeMeters>
            <DistanceMeters>NAN</DistanceMeters>
          </Trackpoint>
          <Trackpoint>
            <Time>2020-12-05T12:00:58.000Z</Time>
            <Position>
              <LatitudeDegrees>36.8263028003275394439697265625</LatitudeDegrees>
              <LongitudeDegrees>-4.3644802831113338470458984375</LongitudeDegrees>
            </Position>
            <AltitudeMeters>730.4000244140625</AltitudeMeters>
            <DistanceMeters>NAN</DistanceMeters>
          </Trackpoint>
          <Trackpoint>
            <Time>2020-12-05T12:00:59.000Z</Time>
            <Position>
              <LatitudeDegrees>36.82631411589682102203369140625</LatitudeDegrees>
              <LongitudeDegrees>-4.36448581516742706298828125</LongitudeDegrees>
            </Position>
            <AltitudeMeters>730.4000244140625</AltitudeMeters>
            <DistanceMeters>NAN</DistanceMeters>
          </Trackpoint>
          <Trackpoint>
            <Time>2020-12-05T12:01:00.000Z</Time>
            <Position>
              <LatitudeDegrees>36.82632165960967540740966796875</LatitudeDegrees>
              <LongitudeDegrees>-4.36449377797544002532958984375</LongitudeDegrees>
            </Position>
            <AltitudeMeters>729.5999755859375</AltitudeMeters>
            <DistanceMeters>NAN</DistanceMeters>
          </Trackpoint>
          <Trackpoint>
            <Time>2020-12-05T12:01:01.000Z</Time>
            <Position>
              <LatitudeDegrees>36.8263282813131809234619140625</LatitudeDegrees>
              <LongitudeDegrees>-4.36450098641216754913330078125</LongitudeDegrees>
            </Position>
            <AltitudeMeters>729.5999755859375</AltitudeMeters>
            <DistanceMeters>NAN</DistanceMeters>
          </Trackpoint>
          <Trackpoint>
            <Time>2020-12-05T12:01:02.000Z</Time>
            <Position>
              <LatitudeDegrees>36.82633507065474987030029296875</LatitudeDegrees>
              <LongitudeDegrees>-4.36450802721083164215087890625</LongitudeDegrees>
            </Position>
            <AltitudeMeters>729.5999755859375</AltitudeMeters>
            <DistanceMeters>NAN</DistanceMeters>
          </Trackpoint>
          <Trackpoint>
            <Time>2020-12-05T12:01:03.000Z</Time>
            <Position>
              <LatitudeDegrees>36.826342530548572540283203125</LatitudeDegrees>
              <LongitudeDegrees>-4.3645161576569080352783203125</LongitudeDegrees>
            </Position>
            <AltitudeMeters>729.5999755859375</AltitudeMeters>
            <DistanceMeters>NAN</DistanceMeters>
          </Trackpoint>
          <Trackpoint>
            <Time>2020-12-05T12:01:04.000Z</Time>
            <Position>
              <LatitudeDegrees>36.82635233737528324127197265625</LatitudeDegrees>
              <LongitudeDegrees>-4.3645268864929676055908203125</LongitudeDegrees>
            </Position>
            <AltitudeMeters>729.5999755859375</AltitudeMeters>
            <DistanceMeters>NAN</DistanceMeters>
          </Trackpoint>
          <Trackpoint>
            <Time>2020-12-05T12:01:05.000Z</Time>
            <Position>
              <LatitudeDegrees>36.8263648264110088348388671875</LatitudeDegrees>
              <LongitudeDegrees>-4.36453811824321746826171875</LongitudeDegrees>
            </Position>
            <AltitudeMeters>729.5999755859375</AltitudeMeters>
            <DistanceMeters>NAN</DistanceMeters>
          </Trackpoint>
          <Trackpoint>
            <Time>2020-12-05T12:01:06.000Z</Time>
            <Position>
              <LatitudeDegrees>36.8263772316277027130126953125</LatitudeDegrees>
              <LongitudeDegrees>-4.36454993672668933868408203125</LongitudeDegrees>
            </Position>
            <AltitudeMeters>729.5999755859375</AltitudeMeters>
            <DistanceMeters>NAN</DistanceMeters>
          </Trackpoint>
          <Trackpoint>
            <Time>2020-12-05T12:01:07.000Z</Time>
            <Position>
              <LatitudeDegrees>36.826386786997318267822265625</LatitudeDegrees>
              <LongitudeDegrees>-4.364562593400478363037109375</LongitudeDegrees>
            </Position>
            <AltitudeMeters>729.5999755859375</AltitudeMeters>
            <DistanceMeters>NAN</DistanceMeters>
          </Trackpoint>
          <Trackpoint>
            <Time>2020-12-05T12:01:08.000Z</Time>
            <Position>
              <LatitudeDegrees>36.8263966776430606842041015625</LatitudeDegrees>
              <LongitudeDegrees>-4.36457307077944278717041015625</LongitudeDegrees>
            </Position>
            <AltitudeMeters>729.5999755859375</AltitudeMeters>
            <DistanceMeters>NAN</DistanceMeters>
          </Trackpoint>
          <Trackpoint>
            <Time>2020-12-05T12:01:09.000Z</Time>
            <Position>
              <LatitudeDegrees>36.82640547864139080047607421875</LatitudeDegrees>
              <LongitudeDegrees>-4.36458346433937549591064453125</LongitudeDegrees>
            </Position>
            <AltitudeMeters>729.5999755859375</AltitudeMeters>
            <DistanceMeters>NAN</DistanceMeters>
          </Trackpoint>
          <Trackpoint>
            <Time>2020-12-05T12:01:10.000Z</Time>
            <Position>
              <LatitudeDegrees>36.82641654275357723236083984375</LatitudeDegrees>
              <LongitudeDegrees>-4.3645956180989742279052734375</LongitudeDegrees>
            </Position>
            <AltitudeMeters>729.5999755859375</AltitudeMeters>
            <DistanceMeters>NAN</DistanceMeters>
          </Trackpoint>
          <Trackpoint>
            <Time>2020-12-05T12:01:11.000Z</Time>
            <Position>
              <LatitudeDegrees>36.8264275230467319488525390625</LatitudeDegrees>
              <LongitudeDegrees>-4.364606849849224090576171875</LongitudeDegrees>
            </Position>
            <AltitudeMeters>729.5999755859375</AltitudeMeters>
            <DistanceMeters>NAN</DistanceMeters>
          </Trackpoint>
          <Trackpoint>
            <Time>2020-12-05T12:01:12.000Z</Time>
            <Position>
              <LatitudeDegrees>36.8264369107782840728759765625</LatitudeDegrees>
              <LongitudeDegrees>-4.36462000943720340728759765625</LongitudeDegrees>
            </Position>
            <AltitudeMeters>729.5999755859375</AltitudeMeters>
            <DistanceMeters>NAN</DistanceMeters>
          </Trackpoint>
          <Trackpoint>
            <Time>2020-12-05T12:01:13.000Z</Time>
            <Position>
              <LatitudeDegrees>36.8264456279575824737548828125</LatitudeDegrees>
              <LongitudeDegrees>-4.364632666110992431640625</LongitudeDegrees>
            </Position>
            <AltitudeMeters>729.5999755859375</AltitudeMeters>
            <DistanceMeters>NAN</DistanceMeters>
          </Trackpoint>
          <Trackpoint>
            <Time>2020-12-05T12:01:14.000Z</Time>
            <Position>
              <LatitudeDegrees>36.8264550156891345977783203125</LatitudeDegrees>
              <LongitudeDegrees>-4.3646438978612422943115234375</LongitudeDegrees>
            </Position>
            <AltitudeMeters>729.5999755859375</AltitudeMeters>
            <DistanceMeters>NAN</DistanceMeters>
          </Trackpoint>
          <Trackpoint>
            <Time>2020-12-05T12:01:15.000Z</Time>
            <Position>
              <LatitudeDegrees>36.82646415196359157562255859375</LatitudeDegrees>
              <LongitudeDegrees>-4.364653788506984710693359375</LongitudeDegrees>
            </Position>
            <AltitudeMeters>729.5999755859375</AltitudeMeters>
            <DistanceMeters>NAN</DistanceMeters>
          </Trackpoint>
          <Trackpoint>
            <Time>2020-12-05T12:01:16.000Z</Time>
            <Position>
              <LatitudeDegrees>36.82647437788546085357666015625</LatitudeDegrees>
              <LongitudeDegrees>-4.3646661937236785888671875</LongitudeDegrees>
            </Position>
            <AltitudeMeters>729.5999755859375</AltitudeMeters>
            <DistanceMeters>NAN</DistanceMeters>
          </Trackpoint>
          <Trackpoint>
            <Time>2020-12-05T12:01:17.000Z</Time>
            <Position>
              <LatitudeDegrees>36.82648275978863239288330078125</LatitudeDegrees>
              <LongitudeDegrees>-4.36468069441616535186767578125</LongitudeDegrees>
            </Position>
            <AltitudeMeters>729.5999755859375</AltitudeMeters>
            <DistanceMeters>NAN</DistanceMeters>
          </Trackpoint>
          <Trackpoint>
            <Time>2020-12-05T12:01:18.000Z</Time>
            <Position>
              <LatitudeDegrees>36.8264918960630893707275390625</LatitudeDegrees>
              <LongitudeDegrees>-4.36469410546123981475830078125</LongitudeDegrees>
            </Position>
            <AltitudeMeters>729.5999755859375</AltitudeMeters>
            <DistanceMeters>NAN</DistanceMeters>
          </Trackpoint>
          <Trackpoint>
            <Time>2020-12-05T12:01:19.000Z</Time>
            <Position>
              <LatitudeDegrees>36.82650153525173664093017578125</LatitudeDegrees>
              <LongitudeDegrees>-4.36470617540180683135986328125</LongitudeDegrees>
            </Position>
            <AltitudeMeters>729.5999755859375</AltitudeMeters>
            <DistanceMeters>NAN</DistanceMeters>
          </Trackpoint>
          <Trackpoint>
            <Time>2020-12-05T12:01:20.000Z</Time>
            <Position>
              <LatitudeDegrees>36.8265123479068279266357421875</LatitudeDegrees>
              <LongitudeDegrees>-4.3647176586091518402099609375</LongitudeDegrees>
            </Position>
            <AltitudeMeters>729.5999755859375</AltitudeMeters>
            <DistanceMeters>NAN</DistanceMeters>
          </Trackpoint>
          <Trackpoint>
            <Time>2020-12-05T12:01:21.000Z</Time>
            <Position>
              <LatitudeDegrees>36.8265247531235218048095703125</LatitudeDegrees>
              <LongitudeDegrees>-4.36472847126424312591552734375</LongitudeDegrees>
            </Position>
            <AltitudeMeters>729.5999755859375</AltitudeMeters>
            <DistanceMeters>NAN</DistanceMeters>
          </Trackpoint>
          <Trackpoint>
            <Time>2020-12-05T12:01:22.000Z</Time>
            <Position>
              <LatitudeDegrees>36.82653640396893024444580078125</LatitudeDegrees>
              <LongitudeDegrees>-4.36473785899579524993896484375</LongitudeDegrees>
            </Position>
            <AltitudeMeters>729.5999755859375</AltitudeMeters>
            <DistanceMeters>NAN</DistanceMeters>
          </Trackpoint>
          <Trackpoint>
            <Time>2020-12-05T12:01:23.000Z</Time>
            <Position>
              <LatitudeDegrees>36.82654847390949726104736328125</LatitudeDegrees>
              <LongitudeDegrees>-4.364746995270252227783203125</LongitudeDegrees>
            </Position>
            <AltitudeMeters>729.5999755859375</AltitudeMeters>
            <DistanceMeters>NAN</DistanceMeters>
          </Trackpoint>
          <Trackpoint>
            <Time>2020-12-05T12:01:24.000Z</Time>
            <Position>
              <LatitudeDegrees>36.8265609629452228546142578125</LatitudeDegrees>
              <LongitudeDegrees>-4.36475747264921665191650390625</LongitudeDegrees>
            </Position>
            <AltitudeMeters>729.5999755859375</AltitudeMeters>
            <DistanceMeters>NAN</DistanceMeters>
          </Trackpoint>
          <Trackpoint>
            <Time>2020-12-05T12:01:25.000Z</Time>
            <Position>
              <LatitudeDegrees>36.8265743739902973175048828125</LatitudeDegrees>
              <LongitudeDegrees>-4.364769794046878814697265625</LongitudeDegrees>
            </Position>
            <AltitudeMeters>729.5999755859375</AltitudeMeters>
            <DistanceMeters>NAN</DistanceMeters>
          </Trackpoint>
          <Trackpoint>
            <Time>2020-12-05T12:01:26.000Z</Time>
            <Position>
              <LatitudeDegrees>36.82658669538795948028564453125</LatitudeDegrees>
              <LongitudeDegrees>-4.36478211544454097747802734375</LongitudeDegrees>
            </Position>
            <AltitudeMeters>729.5999755859375</AltitudeMeters>
            <DistanceMeters>NAN</DistanceMeters>
          </Trackpoint>
          <Trackpoint>
            <Time>2020-12-05T12:01:27.000Z</Time>
            <Position>
              <LatitudeDegrees>36.82659926824271678924560546875</LatitudeDegrees>
              <LongitudeDegrees>-4.36479669995605945587158203125</LongitudeDegrees>
            </Position>
            <AltitudeMeters>729.5999755859375</AltitudeMeters>
            <DistanceMeters>NAN</DistanceMeters>
          </Trackpoint>
          <Trackpoint>
            <Time>2020-12-05T12:01:28.000Z</Time>
            <Position>
              <LatitudeDegrees>36.8266105838119983673095703125</LatitudeDegrees>
              <LongitudeDegrees>-4.36481044627726078033447265625</LongitudeDegrees>
            </Position>
            <AltitudeMeters>729.5999755859375</AltitudeMeters>
            <DistanceMeters>NAN</DistanceMeters>
          </Trackpoint>
          <Trackpoint>
            <Time>2020-12-05T12:01:29.000Z</Time>
            <Position>
              <LatitudeDegrees>36.82662240229547023773193359375</LatitudeDegrees>
              <LongitudeDegrees>-4.364821426570415496826171875</LongitudeDegrees>
            </Position>
            <AltitudeMeters>729.5999755859375</AltitudeMeters>
            <DistanceMeters>NAN</DistanceMeters>
          </Trackpoint>
          <Trackpoint>
            <Time>2020-12-05T12:01:30.000Z</Time>
            <Position>
              <LatitudeDegrees>36.8266350589692592620849609375</LatitudeDegrees>
              <LongitudeDegrees>-4.364834167063236236572265625</LongitudeDegrees>
            </Position>
            <AltitudeMeters>729.5999755859375</AltitudeMeters>
            <DistanceMeters>NAN</DistanceMeters>
          </Trackpoint>
          <Trackpoint>
            <Time>2020-12-05T12:01:31.000Z</Time>
            <Position>
              <LatitudeDegrees>36.826646961271762847900390625</LatitudeDegrees>
              <LongitudeDegrees>-4.3648457340896129608154296875</LongitudeDegrees>
            </Position>
            <AltitudeMeters>729.5999755859375</AltitudeMeters>
            <DistanceMeters>NAN</DistanceMeters>
          </Trackpoint>
          <Trackpoint>
            <Time>2020-12-05T12:01:32.000Z</Time>
            <Position>
              <LatitudeDegrees>36.8266608752310276031494140625</LatitudeDegrees>
              <LongitudeDegrees>-4.3648567982017993927001953125</LongitudeDegrees>
            </Position>
            <AltitudeMeters>729.5999755859375</AltitudeMeters>
            <DistanceMeters>NAN</DistanceMeters>
          </Trackpoint>
          <Trackpoint>
            <Time>2020-12-05T12:01:33.000Z</Time>
            <Position>
              <LatitudeDegrees>36.82667302899062633514404296875</LatitudeDegrees>
              <LongitudeDegrees>-4.36486534774303436279296875</LongitudeDegrees>
            </Position>
            <AltitudeMeters>729.5999755859375</AltitudeMeters>
            <DistanceMeters>NAN</DistanceMeters>
          </Trackpoint>
          <Trackpoint>
            <Time>2020-12-05T12:01:34.000Z</Time>
            <Position>
              <LatitudeDegrees>36.8266866914927959442138671875</LatitudeDegrees>
              <LongitudeDegrees>-4.364869035780429840087890625</LongitudeDegrees>
            </Position>
            <AltitudeMeters>729.5999755859375</AltitudeMeters>
            <DistanceMeters>NAN</DistanceMeters>
          </Trackpoint>
          <Trackpoint>
            <Time>2020-12-05T12:01:35.000Z</Time>
            <Position>
              <LatitudeDegrees>36.82670035399496555328369140625</LatitudeDegrees>
              <LongitudeDegrees>-4.3648715503513813018798828125</LongitudeDegrees>
            </Position>
            <AltitudeMeters>729.5999755859375</AltitudeMeters>
            <DistanceMeters>NAN</DistanceMeters>
          </Trackpoint>
          <Trackpoint>
            <Time>2020-12-05T12:01:36.000Z</Time>
            <Position>
              <LatitudeDegrees>36.82671301066875457763671875</LatitudeDegrees>
              <LongitudeDegrees>-4.3648792617022991180419921875</LongitudeDegrees>
            </Position>
            <AltitudeMeters>729.5999755859375</AltitudeMeters>
            <DistanceMeters>NAN</DistanceMeters>
          </Trackpoint>
          <Trackpoint>
            <Time>2020-12-05T12:01:37.000Z</Time>
            <Position>
              <LatitudeDegrees>36.82672642171382904052734375</LatitudeDegrees>
              <LongitudeDegrees>-4.3648873083293437957763671875</LongitudeDegrees>
            </Position>
            <AltitudeMeters>729.5999755859375</AltitudeMeters>
            <DistanceMeters>NAN</DistanceMeters>
          </Trackpoint>
          <Trackpoint>
            <Time>2020-12-05T12:01:38.000Z</Time>
            <Position>
              <LatitudeDegrees>36.82673891074955463409423828125</LatitudeDegrees>
              <LongitudeDegrees>-4.3648956902325153350830078125</LongitudeDegrees>
            </Position>
            <AltitudeMeters>729.5999755859375</AltitudeMeters>
            <DistanceMeters>NAN</DistanceMeters>
          </Trackpoint>
          <Trackpoint>
            <Time>2020-12-05T12:01:39.000Z</Time>
            <Position>
              <LatitudeDegrees>36.82675098069012165069580078125</LatitudeDegrees>
              <LongitudeDegrees>-4.3649047426879405975341796875</LongitudeDegrees>
            </Position>
            <AltitudeMeters>729.5999755859375</AltitudeMeters>
            <DistanceMeters>NAN</DistanceMeters>
          </Trackpoint>
          <Trackpoint>
            <Time>2020-12-05T12:01:40.000Z</Time>
            <Position>
              <LatitudeDegrees>36.82676305063068866729736328125</LatitudeDegrees>
              <LongitudeDegrees>-4.3649154715240001678466796875</LongitudeDegrees>
            </Position>
            <AltitudeMeters>729.5999755859375</AltitudeMeters>
            <DistanceMeters>NAN</DistanceMeters>
          </Trackpoint>
          <Trackpoint>
            <Time>2020-12-05T12:01:41.000Z</Time>
            <Position>
              <LatitudeDegrees>36.82677562348544597625732421875</LatitudeDegrees>
              <LongitudeDegrees>-4.36492628417909145355224609375</LongitudeDegrees>
            </Position>
            <AltitudeMeters>729.5999755859375</AltitudeMeters>
            <DistanceMeters>NAN</DistanceMeters>
          </Trackpoint>
          <Trackpoint>
            <Time>2020-12-05T12:01:42.000Z</Time>
            <Position>
              <LatitudeDegrees>36.8267896212637424468994140625</LatitudeDegrees>
              <LongitudeDegrees>-4.36493684537708759307861328125</LongitudeDegrees>
            </Position>
            <AltitudeMeters>729.5999755859375</AltitudeMeters>
            <DistanceMeters>NAN</DistanceMeters>
          </Trackpoint>
          <Trackpoint>
            <Time>2020-12-05T12:01:43.000Z</Time>
            <Position>
              <LatitudeDegrees>36.8268073908984661102294921875</LatitudeDegrees>
              <LongitudeDegrees>-4.36494623310863971710205078125</LongitudeDegrees>
            </Position>
            <AltitudeMeters>729.5999755859375</AltitudeMeters>
            <DistanceMeters>NAN</DistanceMeters>
          </Trackpoint>
          <Trackpoint>
            <Time>2020-12-05T12:01:44.000Z</Time>
            <Position>
              <LatitudeDegrees>36.8268211372196674346923828125</LatitudeDegrees>
              <LongitudeDegrees>-4.3649510107934474945068359375</LongitudeDegrees>
            </Position>
            <AltitudeMeters>729.5999755859375</AltitudeMeters>
            <DistanceMeters>NAN</DistanceMeters>
          </Trackpoint>
          <Trackpoint>
            <Time>2020-12-05T12:01:45.000Z</Time>
            <Position>
              <LatitudeDegrees>36.82683647610247135162353515625</LatitudeDegrees>
              <LongitudeDegrees>-4.36495729722082614898681640625</LongitudeDegrees>
            </Position>
            <AltitudeMeters>729.5999755859375</AltitudeMeters>
            <DistanceMeters>NAN</DistanceMeters>
          </Trackpoint>
          <Trackpoint>
            <Time>2020-12-05T12:01:46.000Z</Time>
            <Position>
              <LatitudeDegrees>36.8268489651381969451904296875</LatitudeDegrees>
              <LongitudeDegrees>-4.364959895610809326171875</LongitudeDegrees>
            </Position>
            <AltitudeMeters>729.5999755859375</AltitudeMeters>
            <DistanceMeters>NAN</DistanceMeters>
          </Trackpoint>
          <Trackpoint>
            <Time>2020-12-05T12:01:47.000Z</Time>
            <Position>
              <LatitudeDegrees>36.8268606998026371002197265625</LatitudeDegrees>
              <LongitudeDegrees>-4.3649639189243316650390625</LongitudeDegrees>
            </Position>
            <AltitudeMeters>727.5999755859375</AltitudeMeters>
            <DistanceMeters>NAN</DistanceMeters>
          </Trackpoint>
          <Trackpoint>
            <Time>2020-12-05T12:01:48.000Z</Time>
            <Position>
              <LatitudeDegrees>36.82687218300998210906982421875</LatitudeDegrees>
              <LongitudeDegrees>-4.364969618618488311767578125</LongitudeDegrees>
            </Position>
            <AltitudeMeters>727.5999755859375</AltitudeMeters>
            <DistanceMeters>NAN</DistanceMeters>
          </Trackpoint>
          <Trackpoint>
            <Time>2020-12-05T12:01:49.000Z</Time>
            <Position>
              <LatitudeDegrees>36.82688190601766109466552734375</LatitudeDegrees>
              <LongitudeDegrees>-4.364976324141025543212890625</LongitudeDegrees>
            </Position>
            <AltitudeMeters>727.5999755859375</AltitudeMeters>
            <DistanceMeters>NAN</DistanceMeters>
          </Trackpoint>
          <Trackpoint>
            <Time>2020-12-05T12:01:50.000Z</Time>
            <Position>
              <LatitudeDegrees>36.82688911445438861846923828125</LatitudeDegrees>
              <LongitudeDegrees>-4.364979676902294158935546875</LongitudeDegrees>
            </Position>
            <AltitudeMeters>727.5999755859375</AltitudeMeters>
            <DistanceMeters>NAN</DistanceMeters>
          </Trackpoint>
          <Trackpoint>
            <Time>2020-12-05T12:01:51.000Z</Time>
            <Position>
              <LatitudeDegrees>36.8268992565572261810302734375</LatitudeDegrees>
              <LongitudeDegrees>-4.36498336493968963623046875</LongitudeDegrees>
            </Position>
            <AltitudeMeters>727.5999755859375</AltitudeMeters>
            <DistanceMeters>NAN</DistanceMeters>
          </Trackpoint>
          <Trackpoint>
            <Time>2020-12-05T12:01:52.000Z</Time>
            <Position>
              <LatitudeDegrees>36.8269099853932857513427734375</LatitudeDegrees>
              <LongitudeDegrees>-4.3649888969957828521728515625</LongitudeDegrees>
            </Position>
            <AltitudeMeters>727.5999755859375</AltitudeMeters>
            <DistanceMeters>NAN</DistanceMeters>
          </Trackpoint>
          <Trackpoint>
            <Time>2020-12-05T12:01:53.000Z</Time>
            <Position>
              <LatitudeDegrees>36.826920211315155029296875</LatitudeDegrees>
              <LongitudeDegrees>-4.36499484814703464508056640625</LongitudeDegrees>
            </Position>
            <AltitudeMeters>727.5999755859375</AltitudeMeters>
            <DistanceMeters>NAN</DistanceMeters>
          </Trackpoint>
          <Trackpoint>
            <Time>2020-12-05T12:01:54.000Z</Time>
            <Position>
              <LatitudeDegrees>36.82693152688443660736083984375</LatitudeDegrees>
              <LongitudeDegrees>-4.36500457115471363067626953125</LongitudeDegrees>
            </Position>
            <AltitudeMeters>727.5999755859375</AltitudeMeters>
            <DistanceMeters>NAN</DistanceMeters>
          </Trackpoint>
          <Trackpoint>
            <Time>2020-12-05T12:01:55.000Z</Time>
            <Position>
              <LatitudeDegrees>36.8269428424537181854248046875</LatitudeDegrees>
              <LongitudeDegrees>-4.36501328833401203155517578125</LongitudeDegrees>
            </Position>
            <AltitudeMeters>727.5999755859375</AltitudeMeters>
            <DistanceMeters>NAN</DistanceMeters>
          </Trackpoint>
          <Trackpoint>
            <Time>2020-12-05T12:01:56.000Z</Time>
            <Position>
              <LatitudeDegrees>36.82695382274687290191650390625</LatitudeDegrees>
              <LongitudeDegrees>-4.365020580589771270751953125</LongitudeDegrees>
            </Position>
            <AltitudeMeters>727.5999755859375</AltitudeMeters>
            <DistanceMeters>NAN</DistanceMeters>
          </Trackpoint>
          <Trackpoint>
            <Time>2020-12-05T12:01:57.000Z</Time>
            <Position>
              <LatitudeDegrees>36.82696647942066192626953125</LatitudeDegrees>
              <LongitudeDegrees>-4.3650301359593868255615234375</LongitudeDegrees>
            </Position>
            <AltitudeMeters>727.5999755859375</AltitudeMeters>
            <DistanceMeters>NAN</DistanceMeters>
          </Trackpoint>
          <Trackpoint>
            <Time>2020-12-05T12:01:58.000Z</Time>
            <Position>
              <LatitudeDegrees>36.826978884637355804443359375</LatitudeDegrees>
              <LongitudeDegrees>-4.3650388531386852264404296875</LongitudeDegrees>
            </Position>
            <AltitudeMeters>727.5999755859375</AltitudeMeters>
            <DistanceMeters>NAN</DistanceMeters>
          </Trackpoint>
          <Trackpoint>
            <Time>2020-12-05T12:01:59.000Z</Time>
            <Position>
              <LatitudeDegrees>36.8269951455295085906982421875</LatitudeDegrees>
              <LongitudeDegrees>-4.3650485761463642120361328125</LongitudeDegrees>
            </Position>
            <AltitudeMeters>727.5999755859375</AltitudeMeters>
            <DistanceMeters>NAN</DistanceMeters>
          </Trackpoint>
          <Trackpoint>
            <Time>2020-12-05T12:02:00.000Z</Time>
            <Position>
              <LatitudeDegrees>36.82701065205037593841552734375</LatitudeDegrees>
              <LongitudeDegrees>-4.365056790411472320556640625</LongitudeDegrees>
            </Position>
            <AltitudeMeters>722</AltitudeMeters>
            <DistanceMeters>NAN</DistanceMeters>
          </Trackpoint>
          <Trackpoint>
            <Time>2020-12-05T12:02:01.000Z</Time>
            <Position>
              <LatitudeDegrees>36.82702473364770412445068359375</LatitudeDegrees>
              <LongitudeDegrees>-4.3650599755346775054931640625</LongitudeDegrees>
            </Position>
            <AltitudeMeters>722</AltitudeMeters>
            <DistanceMeters>NAN</DistanceMeters>
          </Trackpoint>
          <Trackpoint>
            <Time>2020-12-05T12:02:02.000Z</Time>
            <Position>
              <LatitudeDegrees>36.827037222683429718017578125</LatitudeDegrees>
              <LongitudeDegrees>-4.36506106518208980560302734375</LongitudeDegrees>
            </Position>
            <AltitudeMeters>722</AltitudeMeters>
            <DistanceMeters>NAN</DistanceMeters>
          </Trackpoint>
          <Trackpoint>
            <Time>2020-12-05T12:02:03.000Z</Time>
            <Position>
              <LatitudeDegrees>36.82705172337591648101806640625</LatitudeDegrees>
              <LongitudeDegrees>-4.36505821533501148223876953125</LongitudeDegrees>
            </Position>
            <AltitudeMeters>722</AltitudeMeters>
            <DistanceMeters>NAN</DistanceMeters>
          </Trackpoint>
          <Trackpoint>
            <Time>2020-12-05T12:02:04.000Z</Time>
            <Position>
              <LatitudeDegrees>36.82706614024937152862548828125</LatitudeDegrees>
              <LongitudeDegrees>-4.36505452729761600494384765625</LongitudeDegrees>
            </Position>
            <AltitudeMeters>722</AltitudeMeters>
            <DistanceMeters>NAN</DistanceMeters>
          </Trackpoint>
          <Trackpoint>
            <Time>2020-12-05T12:02:05.000Z</Time>
            <Position>
              <LatitudeDegrees>36.82708986103534698486328125</LatitudeDegrees>
              <LongitudeDegrees>-4.3650452233850955963134765625</LongitudeDegrees>
            </Position>
            <AltitudeMeters>722</AltitudeMeters>
            <DistanceMeters>NAN</DistanceMeters>
          </Trackpoint>
          <Trackpoint>
            <Time>2020-12-05T12:02:06.000Z</Time>
            <Position>
              <LatitudeDegrees>36.82711358182132244110107421875</LatitudeDegrees>
              <LongitudeDegrees>-4.3650361709296703338623046875</LongitudeDegrees>
            </Position>
            <AltitudeMeters>722</AltitudeMeters>
            <DistanceMeters>NAN</DistanceMeters>
          </Trackpoint>
          <Trackpoint>
            <Time>2020-12-05T12:02:07.000Z</Time>
            <Position>
              <LatitudeDegrees>36.8271309323608875274658203125</LatitudeDegrees>
              <LongitudeDegrees>-4.3650284595787525177001953125</LongitudeDegrees>
            </Position>
            <AltitudeMeters>722</AltitudeMeters>
            <DistanceMeters>NAN</DistanceMeters>
          </Trackpoint>
          <Trackpoint>
            <Time>2020-12-05T12:02:08.000Z</Time>
            <Position>
              <LatitudeDegrees>36.827144511044025421142578125</LatitudeDegrees>
              <LongitudeDegrees>-4.3650267831981182098388671875</LongitudeDegrees>
            </Position>
            <AltitudeMeters>722</AltitudeMeters>
            <DistanceMeters>NAN</DistanceMeters>
          </Trackpoint>
          <Trackpoint>
            <Time>2020-12-05T12:02:09.000Z</Time>
            <Position>
              <LatitudeDegrees>36.8271574191749095916748046875</LatitudeDegrees>
              <LongitudeDegrees>-4.36502636410295963287353515625</LongitudeDegrees>
            </Position>
            <AltitudeMeters>722</AltitudeMeters>
            <DistanceMeters>NAN</DistanceMeters>
          </Trackpoint>
          <Trackpoint>
            <Time>2020-12-05T12:02:10.000Z</Time>
            <Position>
              <LatitudeDegrees>36.827169321477413177490234375</LatitudeDegrees>
              <LongitudeDegrees>-4.365023262798786163330078125</LongitudeDegrees>
            </Position>
            <AltitudeMeters>722</AltitudeMeters>
            <DistanceMeters>NAN</DistanceMeters>
          </Trackpoint>
          <Trackpoint>
            <Time>2020-12-05T12:02:11.000Z</Time>
            <Position>
              <LatitudeDegrees>36.82718164287507534027099609375</LatitudeDegrees>
              <LongitudeDegrees>-4.36501898802816867828369140625</LongitudeDegrees>
            </Position>
            <AltitudeMeters>722</AltitudeMeters>
            <DistanceMeters>NAN</DistanceMeters>
          </Trackpoint>
          <Trackpoint>
            <Time>2020-12-05T12:02:12.000Z</Time>
            <Position>
              <LatitudeDegrees>36.827194131910800933837890625</LatitudeDegrees>
              <LongitudeDegrees>-4.365013204514980316162109375</LongitudeDegrees>
            </Position>
            <AltitudeMeters>722</AltitudeMeters>
            <DistanceMeters>NAN</DistanceMeters>
          </Trackpoint>
          <Trackpoint>
            <Time>2020-12-05T12:02:13.000Z</Time>
            <Position>
              <LatitudeDegrees>36.82720829732716083526611328125</LatitudeDegrees>
              <LongitudeDegrees>-4.36500607989728450775146484375</LongitudeDegrees>
            </Position>
            <AltitudeMeters>722</AltitudeMeters>
            <DistanceMeters>NAN</DistanceMeters>
          </Trackpoint>
          <Trackpoint>
            <Time>2020-12-05T12:02:14.000Z</Time>
            <Position>
              <LatitudeDegrees>36.82722338475286960601806640625</LatitudeDegrees>
              <LongitudeDegrees>-4.364999793469905853271484375</LongitudeDegrees>
            </Position>
            <AltitudeMeters>722</AltitudeMeters>
            <DistanceMeters>NAN</DistanceMeters>
          </Trackpoint>
          <Trackpoint>
            <Time>2020-12-05T12:02:15.000Z</Time>
            <Position>
              <LatitudeDegrees>36.82723830454051494598388671875</LatitudeDegrees>
              <LongitudeDegrees>-4.36499400995671749114990234375</LongitudeDegrees>
            </Position>
            <AltitudeMeters>722</AltitudeMeters>
            <DistanceMeters>NAN</DistanceMeters>
          </Trackpoint>
          <Trackpoint>
            <Time>2020-12-05T12:02:16.000Z</Time>
            <Position>
              <LatitudeDegrees>36.82725238613784313201904296875</LatitudeDegrees>
              <LongitudeDegrees>-4.3649902381002902984619140625</LongitudeDegrees>
            </Position>
            <AltitudeMeters>722</AltitudeMeters>
            <DistanceMeters>NAN</DistanceMeters>
          </Trackpoint>
          <Trackpoint>
            <Time>2020-12-05T12:02:17.000Z</Time>
            <Position>
              <LatitudeDegrees>36.82726713828742504119873046875</LatitudeDegrees>
              <LongitudeDegrees>-4.3649848736822605133056640625</LongitudeDegrees>
            </Position>
            <AltitudeMeters>722</AltitudeMeters>
            <DistanceMeters>NAN</DistanceMeters>
          </Trackpoint>
          <Trackpoint>
            <Time>2020-12-05T12:02:18.000Z</Time>
            <Position>
              <LatitudeDegrees>36.8272821418941020965576171875</LatitudeDegrees>
              <LongitudeDegrees>-4.3649852089583873748779296875</LongitudeDegrees>
            </Position>
            <AltitudeMeters>722</AltitudeMeters>
            <DistanceMeters>NAN</DistanceMeters>
          </Trackpoint>
          <Trackpoint>
            <Time>2020-12-05T12:02:19.000Z</Time>
            <Position>
              <LatitudeDegrees>36.8272942118346691131591796875</LatitudeDegrees>
              <LongitudeDegrees>-4.36499141156673431396484375</LongitudeDegrees>
            </Position>
            <AltitudeMeters>722</AltitudeMeters>
            <DistanceMeters>NAN</DistanceMeters>
          </Trackpoint>
          <Trackpoint>
            <Time>2020-12-05T12:02:21.000Z</Time>
            <Position>
              <LatitudeDegrees>36.8273052759468555450439453125</LatitudeDegrees>
              <LongitudeDegrees>-4.3649952672421932220458984375</LongitudeDegrees>
            </Position>
            <AltitudeMeters>722</AltitudeMeters>
            <DistanceMeters>NAN</DistanceMeters>
          </Trackpoint>
          <Trackpoint>
            <Time>2020-12-05T12:02:22.000Z</Time>
            <Position>
              <LatitudeDegrees>36.82731650769710540771484375</LatitudeDegrees>
              <LongitudeDegrees>-4.3649999611079692840576171875</LongitudeDegrees>
            </Position>
            <AltitudeMeters>722</AltitudeMeters>
            <DistanceMeters>NAN</DistanceMeters>
          </Trackpoint>
          <Trackpoint>
            <Time>2020-12-05T12:02:23.000Z</Time>
            <Position>
              <LatitudeDegrees>36.827328242361545562744140625</LatitudeDegrees>
              <LongitudeDegrees>-4.3650033138692378997802734375</LongitudeDegrees>
            </Position>
            <AltitudeMeters>722</AltitudeMeters>
            <DistanceMeters>NAN</DistanceMeters>
          </Trackpoint>
          <Trackpoint>
            <Time>2020-12-05T12:02:24.000Z</Time>
            <Position>
              <LatitudeDegrees>36.82734140194952487945556640625</LatitudeDegrees>
              <LongitudeDegrees>-4.36500708572566509246826171875</LongitudeDegrees>
            </Position>
            <AltitudeMeters>722</AltitudeMeters>
            <DistanceMeters>NAN</DistanceMeters>
          </Trackpoint>
          <Trackpoint>
            <Time>2020-12-05T12:02:25.000Z</Time>
            <Position>
              <LatitudeDegrees>36.82735405862331390380859375</LatitudeDegrees>
              <LongitudeDegrees>-4.36500960029661655426025390625</LongitudeDegrees>
            </Position>
            <AltitudeMeters>722</AltitudeMeters>
            <DistanceMeters>NAN</DistanceMeters>
          </Trackpoint>
          <Trackpoint>
            <Time>2020-12-05T12:02:26.000Z</Time>
            <Position>
              <LatitudeDegrees>36.82736671529710292816162109375</LatitudeDegrees>
              <LongitudeDegrees>-4.36501094140112400054931640625</LongitudeDegrees>
            </Position>
            <AltitudeMeters>722</AltitudeMeters>
            <DistanceMeters>NAN</DistanceMeters>
          </Trackpoint>
          <Trackpoint>
            <Time>2020-12-05T12:02:27.000Z</Time>
            <Position>
              <LatitudeDegrees>36.82737819850444793701171875</LatitudeDegrees>
              <LongitudeDegrees>-4.36501345597207546234130859375</LongitudeDegrees>
            </Position>
            <AltitudeMeters>722</AltitudeMeters>
            <DistanceMeters>NAN</DistanceMeters>
          </Trackpoint>
          <Trackpoint>
            <Time>2020-12-05T12:02:28.000Z</Time>
            <Position>
              <LatitudeDegrees>36.8273897655308246612548828125</LatitudeDegrees>
              <LongitudeDegrees>-4.36501798219978809356689453125</LongitudeDegrees>
            </Position>
            <AltitudeMeters>722</AltitudeMeters>
            <DistanceMeters>NAN</DistanceMeters>
          </Trackpoint>
          <Trackpoint>
            <Time>2020-12-05T12:02:29.000Z</Time>
            <Position>
              <LatitudeDegrees>36.8274028412997722625732421875</LatitudeDegrees>
              <LongitudeDegrees>-4.36502359807491302490234375</LongitudeDegrees>
            </Position>
            <AltitudeMeters>722</AltitudeMeters>
            <DistanceMeters>NAN</DistanceMeters>
          </Trackpoint>
          <Trackpoint>
            <Time>2020-12-05T12:02:30.000Z</Time>
            <Position>
              <LatitudeDegrees>36.8274182640016078948974609375</LatitudeDegrees>
              <LongitudeDegrees>-4.36502904631197452545166015625</LongitudeDegrees>
            </Position>
            <AltitudeMeters>722</AltitudeMeters>
            <DistanceMeters>NAN</DistanceMeters>
          </Trackpoint>
          <Trackpoint>
            <Time>2020-12-05T12:02:31.000Z</Time>
            <Position>
              <LatitudeDegrees>36.82743309997022151947021484375</LatitudeDegrees>
              <LongitudeDegrees>-4.36503625474870204925537109375</LongitudeDegrees>
            </Position>
            <AltitudeMeters>722</AltitudeMeters>
            <DistanceMeters>NAN</DistanceMeters>
          </Trackpoint>
          <Trackpoint>
            <Time>2020-12-05T12:02:32.000Z</Time>
            <Position>
              <LatitudeDegrees>36.82744818739593029022216796875</LatitudeDegrees>
              <LongitudeDegrees>-4.365044720470905303955078125</LongitudeDegrees>
            </Position>
            <AltitudeMeters>722</AltitudeMeters>
            <DistanceMeters>NAN</DistanceMeters>
          </Trackpoint>
          <Trackpoint>
            <Time>2020-12-05T12:02:33.000Z</Time>
            <Position>
              <LatitudeDegrees>36.82746361009776592254638671875</LatitudeDegrees>
              <LongitudeDegrees>-4.36505402438342571258544921875</LongitudeDegrees>
            </Position>
            <AltitudeMeters>722</AltitudeMeters>
            <DistanceMeters>NAN</DistanceMeters>
          </Trackpoint>
          <Trackpoint>
            <Time>2020-12-05T12:02:34.000Z</Time>
            <Position>
              <LatitudeDegrees>36.8274782784283161163330078125</LatitudeDegrees>
              <LongitudeDegrees>-4.36506441794335842132568359375</LongitudeDegrees>
            </Position>
            <AltitudeMeters>722</AltitudeMeters>
            <DistanceMeters>NAN</DistanceMeters>
          </Trackpoint>
          <Trackpoint>
            <Time>2020-12-05T12:02:35.000Z</Time>
            <Position>
              <LatitudeDegrees>36.82749143801629543304443359375</LatitudeDegrees>
              <LongitudeDegrees>-4.3650757335126399993896484375</LongitudeDegrees>
            </Position>
            <AltitudeMeters>722</AltitudeMeters>
            <DistanceMeters>NAN</DistanceMeters>
          </Trackpoint>
          <Trackpoint>
            <Time>2020-12-05T12:02:36.000Z</Time>
            <Position>
              <LatitudeDegrees>36.8275030888617038726806640625</LatitudeDegrees>
              <LongitudeDegrees>-4.3650888092815876007080078125</LongitudeDegrees>
            </Position>
            <AltitudeMeters>722</AltitudeMeters>
            <DistanceMeters>NAN</DistanceMeters>
          </Trackpoint>
          <Trackpoint>
            <Time>2020-12-05T12:02:37.000Z</Time>
            <Position>
              <LatitudeDegrees>36.827512644231319427490234375</LatitudeDegrees>
              <LongitudeDegrees>-4.36510012485086917877197265625</LongitudeDegrees>
            </Position>
            <AltitudeMeters>722</AltitudeMeters>
            <DistanceMeters>NAN</DistanceMeters>
          </Trackpoint>
          <Trackpoint>
            <Time>2020-12-05T12:02:38.000Z</Time>
            <Position>
              <LatitudeDegrees>36.82752178050577640533447265625</LatitudeDegrees>
              <LongitudeDegrees>-4.365111105144023895263671875</LongitudeDegrees>
            </Position>
            <AltitudeMeters>722</AltitudeMeters>
            <DistanceMeters>NAN</DistanceMeters>
          </Trackpoint>
          <Trackpoint>
            <Time>2020-12-05T12:02:39.000Z</Time>
            <Position>
              <LatitudeDegrees>36.8275312520563602447509765625</LatitudeDegrees>
              <LongitudeDegrees>-4.3651226721704006195068359375</LongitudeDegrees>
            </Position>
            <AltitudeMeters>722</AltitudeMeters>
            <DistanceMeters>NAN</DistanceMeters>
          </Trackpoint>
          <Trackpoint>
            <Time>2020-12-05T12:02:40.000Z</Time>
            <Position>
              <LatitudeDegrees>36.82754407636821269989013671875</LatitudeDegrees>
              <LongitudeDegrees>-4.36513281427323818206787109375</LongitudeDegrees>
            </Position>
            <AltitudeMeters>722</AltitudeMeters>
            <DistanceMeters>NAN</DistanceMeters>
          </Trackpoint>
          <Trackpoint>
            <Time>2020-12-05T12:02:41.000Z</Time>
            <Position>
              <LatitudeDegrees>36.82755522429943084716796875</LatitudeDegrees>
              <LongitudeDegrees>-4.3651434592902660369873046875</LongitudeDegrees>
            </Position>
            <AltitudeMeters>722</AltitudeMeters>
            <DistanceMeters>NAN</DistanceMeters>
          </Trackpoint>
          <Trackpoint>
            <Time>2020-12-05T12:02:42.000Z</Time>
            <Position>
              <LatitudeDegrees>36.82756486348807811737060546875</LatitudeDegrees>
              <LongitudeDegrees>-4.3651545234024524688720703125</LongitudeDegrees>
            </Position>
            <AltitudeMeters>722</AltitudeMeters>
            <DistanceMeters>NAN</DistanceMeters>
          </Trackpoint>
          <Trackpoint>
            <Time>2020-12-05T12:02:43.000Z</Time>
            <Position>
              <LatitudeDegrees>36.8275761790573596954345703125</LatitudeDegrees>
              <LongitudeDegrees>-4.3651622347533702850341796875</LongitudeDegrees>
            </Position>
            <AltitudeMeters>722</AltitudeMeters>
            <DistanceMeters>NAN</DistanceMeters>
          </Trackpoint>
          <Trackpoint>
            <Time>2020-12-05T12:02:44.000Z</Time>
            <Position>
              <LatitudeDegrees>36.82758766226470470428466796875</LatitudeDegrees>
              <LongitudeDegrees>-4.365169443190097808837890625</LongitudeDegrees>
            </Position>
            <AltitudeMeters>722</AltitudeMeters>
            <DistanceMeters>NAN</DistanceMeters>
          </Trackpoint>
          <Trackpoint>
            <Time>2020-12-05T12:02:45.000Z</Time>
            <Position>
              <LatitudeDegrees>36.82759973220527172088623046875</LatitudeDegrees>
              <LongitudeDegrees>-4.36517707072198390960693359375</LongitudeDegrees>
            </Position>
            <AltitudeMeters>722</AltitudeMeters>
            <DistanceMeters>NAN</DistanceMeters>
          </Trackpoint>
          <Trackpoint>
            <Time>2020-12-05T12:02:46.000Z</Time>
            <Position>
              <LatitudeDegrees>36.8276107124984264373779296875</LatitudeDegrees>
              <LongitudeDegrees>-4.3651806749403476715087890625</LongitudeDegrees>
            </Position>
            <AltitudeMeters>722</AltitudeMeters>
            <DistanceMeters>NAN</DistanceMeters>
          </Trackpoint>
          <Trackpoint>
            <Time>2020-12-05T12:02:47.000Z</Time>
            <Position>
              <LatitudeDegrees>36.82761984877288341522216796875</LatitudeDegrees>
              <LongitudeDegrees>-4.365186877548694610595703125</LongitudeDegrees>
            </Position>
            <AltitudeMeters>722</AltitudeMeters>
            <DistanceMeters>NAN</DistanceMeters>
          </Trackpoint>
          <Trackpoint>
            <Time>2020-12-05T12:02:48.000Z</Time>
            <Position>
              <LatitudeDegrees>36.827630661427974700927734375</LatitudeDegrees>
              <LongitudeDegrees>-4.36518930830061435699462890625</LongitudeDegrees>
            </Position>
            <AltitudeMeters>722</AltitudeMeters>
            <DistanceMeters>NAN</DistanceMeters>
          </Trackpoint>
          <Trackpoint>
            <Time>2020-12-05T12:02:49.000Z</Time>
            <Position>
              <LatitudeDegrees>36.8276382051408290863037109375</LatitudeDegrees>
              <LongitudeDegrees>-4.3651914037764072418212890625</LongitudeDegrees>
            </Position>
            <AltitudeMeters>722</AltitudeMeters>
            <DistanceMeters>NAN</DistanceMeters>
          </Trackpoint>
          <Trackpoint>
            <Time>2020-12-05T12:02:50.000Z</Time>
            <Position>
              <LatitudeDegrees>36.8276422284543514251708984375</LatitudeDegrees>
              <LongitudeDegrees>-4.3651903979480266571044921875</LongitudeDegrees>
            </Position>
            <AltitudeMeters>722</AltitudeMeters>
            <DistanceMeters>NAN</DistanceMeters>
          </Trackpoint>
          <Trackpoint>
            <Time>2020-12-05T12:02:51.000Z</Time>
            <Position>
              <LatitudeDegrees>36.8276398815214633941650390625</LatitudeDegrees>
              <LongitudeDegrees>-4.3651870451867580413818359375</LongitudeDegrees>
            </Position>
            <AltitudeMeters>722</AltitudeMeters>
            <DistanceMeters>NAN</DistanceMeters>
          </Trackpoint>
          <Trackpoint>
            <Time>2020-12-05T12:02:52.000Z</Time>
            <Position>
              <LatitudeDegrees>36.82762923650443553924560546875</LatitudeDegrees>
              <LongitudeDegrees>-4.36517388559877872467041015625</LongitudeDegrees>
            </Position>
            <AltitudeMeters>722</AltitudeMeters>
            <DistanceMeters>NAN</DistanceMeters>
          </Trackpoint>
          <Trackpoint>
            <Time>2020-12-05T12:02:53.000Z</Time>
            <Position>
              <LatitudeDegrees>36.8276157416403293609619140625</LatitudeDegrees>
              <LongitudeDegrees>-4.3651622347533702850341796875</LongitudeDegrees>
            </Position>
            <AltitudeMeters>722</AltitudeMeters>
            <DistanceMeters>NAN</DistanceMeters>
          </Trackpoint>
          <Trackpoint>
            <Time>2020-12-05T12:02:54.000Z</Time>
            <Position>
              <LatitudeDegrees>36.82760057039558887481689453125</LatitudeDegrees>
              <LongitudeDegrees>-4.3651489913463592529296875</LongitudeDegrees>
            </Position>
            <AltitudeMeters>722</AltitudeMeters>
            <DistanceMeters>NAN</DistanceMeters>
          </Trackpoint>
          <Trackpoint>
            <Time>2020-12-05T12:02:55.000Z</Time>
            <Position>
              <LatitudeDegrees>36.82759202085435390472412109375</LatitudeDegrees>
              <LongitudeDegrees>-4.3651436269283294677734375</LongitudeDegrees>
            </Position>
            <AltitudeMeters>722</AltitudeMeters>
            <DistanceMeters>NAN</DistanceMeters>
          </Trackpoint>
          <Trackpoint>
            <Time>2020-12-05T12:02:56.000Z</Time>
            <Position>
              <LatitudeDegrees>36.8275986425578594207763671875</LatitudeDegrees>
              <LongitudeDegrees>-4.36514823697507381439208984375</LongitudeDegrees>
            </Position>
            <AltitudeMeters>722</AltitudeMeters>
            <DistanceMeters>NAN</DistanceMeters>
          </Trackpoint>
          <Trackpoint>
            <Time>2020-12-05T12:02:57.000Z</Time>
            <Position>
              <LatitudeDegrees>36.82760627008974552154541015625</LatitudeDegrees>
              <LongitudeDegrees>-4.36516030691564083099365234375</LongitudeDegrees>
            </Position>
            <AltitudeMeters>722</AltitudeMeters>
            <DistanceMeters>NAN</DistanceMeters>
          </Trackpoint>
          <Trackpoint>
            <Time>2020-12-05T12:02:58.000Z</Time>
            <Position>
              <LatitudeDegrees>36.827609203755855560302734375</LatitudeDegrees>
              <LongitudeDegrees>-4.36516567133367061614990234375</LongitudeDegrees>
            </Position>
            <AltitudeMeters>722</AltitudeMeters>
            <DistanceMeters>NAN</DistanceMeters>
          </Trackpoint>
          <Trackpoint>
            <Time>2020-12-05T12:02:59.000Z</Time>
            <Position>
              <LatitudeDegrees>36.8276201002299785614013671875</LatitudeDegrees>
              <LongitudeDegrees>-4.365169107913970947265625</LongitudeDegrees>
            </Position>
            <AltitudeMeters>722</AltitudeMeters>
            <DistanceMeters>NAN</DistanceMeters>
          </Trackpoint>
          <Trackpoint>
            <Time>2020-12-05T12:03:00.000Z</Time>
            <Position>
              <LatitudeDegrees>36.827636696398258209228515625</LatitudeDegrees>
              <LongitudeDegrees>-4.365173466503620147705078125</LongitudeDegrees>
            </Position>
            <AltitudeMeters>717.20001220703125</AltitudeMeters>
            <DistanceMeters>NAN</DistanceMeters>
          </Trackpoint>
          <Trackpoint>
            <Time>2020-12-05T12:03:01.000Z</Time>
            <Position>
              <LatitudeDegrees>36.82766209356486797332763671875</LatitudeDegrees>
              <LongitudeDegrees>-4.36518025584518909454345703125</LongitudeDegrees>
            </Position>
            <AltitudeMeters>717.20001220703125</AltitudeMeters>
            <DistanceMeters>NAN</DistanceMeters>
          </Trackpoint>
          <Trackpoint>
            <Time>2020-12-05T12:03:02.000Z</Time>
            <Position>
              <LatitudeDegrees>36.82768271304666996002197265625</LatitudeDegrees>
              <LongitudeDegrees>-4.36518377624452114105224609375</LongitudeDegrees>
            </Position>
            <AltitudeMeters>717.20001220703125</AltitudeMeters>
            <DistanceMeters>NAN</DistanceMeters>
          </Trackpoint>
          <Trackpoint>
            <Time>2020-12-05T12:03:03.000Z</Time>
            <Position>
              <LatitudeDegrees>36.82770048268139362335205078125</LatitudeDegrees>
              <LongitudeDegrees>-4.36518880538642406463623046875</LongitudeDegrees>
            </Position>
            <AltitudeMeters>717.20001220703125</AltitudeMeters>
            <DistanceMeters>NAN</DistanceMeters>
          </Trackpoint>
          <Trackpoint>
            <Time>2020-12-05T12:03:04.000Z</Time>
            <Position>
              <LatitudeDegrees>36.82771808467805385589599609375</LatitudeDegrees>
              <LongitudeDegrees>-4.3651945888996124267578125</LongitudeDegrees>
            </Position>
            <AltitudeMeters>717.20001220703125</AltitudeMeters>
            <DistanceMeters>NAN</DistanceMeters>
          </Trackpoint>
          <Trackpoint>
            <Time>2020-12-05T12:03:05.000Z</Time>
            <Position>
              <LatitudeDegrees>36.8277374468743801116943359375</LatitudeDegrees>
              <LongitudeDegrees>-4.3651974387466907501220703125</LongitudeDegrees>
            </Position>
            <AltitudeMeters>717.20001220703125</AltitudeMeters>
            <DistanceMeters>NAN</DistanceMeters>
          </Trackpoint>
          <Trackpoint>
            <Time>2020-12-05T12:03:06.000Z</Time>
            <Position>
              <LatitudeDegrees>36.8277562223374843597412109375</LatitudeDegrees>
              <LongitudeDegrees>-4.36519651673734188079833984375</LongitudeDegrees>
            </Position>
            <AltitudeMeters>717.20001220703125</AltitudeMeters>
            <DistanceMeters>NAN</DistanceMeters>
          </Trackpoint>
          <Trackpoint>
            <Time>2020-12-05T12:03:07.000Z</Time>
            <Position>
              <LatitudeDegrees>36.82777516543865203857421875</LatitudeDegrees>
              <LongitudeDegrees>-4.365191571414470672607421875</LongitudeDegrees>
            </Position>
            <AltitudeMeters>717.20001220703125</AltitudeMeters>
            <DistanceMeters>NAN</DistanceMeters>
          </Trackpoint>
          <Trackpoint>
            <Time>2020-12-05T12:03:08.000Z</Time>
            <Position>
              <LatitudeDegrees>36.82779419235885143280029296875</LatitudeDegrees>
              <LongitudeDegrees>-4.3651890568435192108154296875</LongitudeDegrees>
            </Position>
            <AltitudeMeters>717.20001220703125</AltitudeMeters>
            <DistanceMeters>NAN</DistanceMeters>
          </Trackpoint>
          <Trackpoint>
            <Time>2020-12-05T12:03:09.000Z</Time>
            <Position>
              <LatitudeDegrees>36.8278142251074314117431640625</LatitudeDegrees>
              <LongitudeDegrees>-4.36518830247223377227783203125</LongitudeDegrees>
            </Position>
            <AltitudeMeters>717.20001220703125</AltitudeMeters>
            <DistanceMeters>NAN</DistanceMeters>
          </Trackpoint>
          <Trackpoint>
            <Time>2020-12-05T12:03:10.000Z</Time>
            <Position>
              <LatitudeDegrees>36.82783258147537708282470703125</LatitudeDegrees>
              <LongitudeDegrees>-4.36519064940512180328369140625</LongitudeDegrees>
            </Position>
            <AltitudeMeters>717.20001220703125</AltitudeMeters>
            <DistanceMeters>NAN</DistanceMeters>
          </Trackpoint>
          <Trackpoint>
            <Time>2020-12-05T12:03:11.000Z</Time>
            <Position>
              <LatitudeDegrees>36.8278517760336399078369140625</LatitudeDegrees>
              <LongitudeDegrees>-4.3651950918138027191162109375</LongitudeDegrees>
            </Position>
            <AltitudeMeters>717.20001220703125</AltitudeMeters>
            <DistanceMeters>NAN</DistanceMeters>
          </Trackpoint>
          <Trackpoint>
            <Time>2020-12-05T12:03:12.000Z</Time>
            <Position>
              <LatitudeDegrees>36.82786636054515838623046875</LatitudeDegrees>
              <LongitudeDegrees>-4.3651967681944370269775390625</LongitudeDegrees>
            </Position>
            <AltitudeMeters>717.20001220703125</AltitudeMeters>
            <DistanceMeters>NAN</DistanceMeters>
          </Trackpoint>
          <Trackpoint>
            <Time>2020-12-05T12:03:13.000Z</Time>
            <Position>
              <LatitudeDegrees>36.82787968777120113372802734375</LatitudeDegrees>
              <LongitudeDegrees>-4.36519819311797618865966796875</LongitudeDegrees>
            </Position>
            <AltitudeMeters>717.20001220703125</AltitudeMeters>
            <DistanceMeters>NAN</DistanceMeters>
          </Trackpoint>
          <Trackpoint>
            <Time>2020-12-05T12:03:14.000Z</Time>
            <Position>
              <LatitudeDegrees>36.8278930149972438812255859375</LatitudeDegrees>
              <LongitudeDegrees>-4.36519852839410305023193359375</LongitudeDegrees>
            </Position>
            <AltitudeMeters>717.20001220703125</AltitudeMeters>
            <DistanceMeters>NAN</DistanceMeters>
          </Trackpoint>
          <Trackpoint>
            <Time>2020-12-05T12:03:15.000Z</Time>
            <Position>
              <LatitudeDegrees>36.82791036553680896759033203125</LatitudeDegrees>
              <LongitudeDegrees>-4.3651991151273250579833984375</LongitudeDegrees>
            </Position>
            <AltitudeMeters>717.20001220703125</AltitudeMeters>
            <DistanceMeters>NAN</DistanceMeters>
          </Trackpoint>
          <Trackpoint>
            <Time>2020-12-05T12:03:16.000Z</Time>
            <Position>
              <LatitudeDegrees>36.8279238604009151458740234375</LatitudeDegrees>
              <LongitudeDegrees>-4.365201629698276519775390625</LongitudeDegrees>
            </Position>
            <AltitudeMeters>717.20001220703125</AltitudeMeters>
            <DistanceMeters>NAN</DistanceMeters>
          </Trackpoint>
          <Trackpoint>
            <Time>2020-12-05T12:03:17.000Z</Time>
            <Position>
              <LatitudeDegrees>36.8279386125504970550537109375</LatitudeDegrees>
              <LongitudeDegrees>-4.3652078323066234588623046875</LongitudeDegrees>
            </Position>
            <AltitudeMeters>717.20001220703125</AltitudeMeters>
            <DistanceMeters>NAN</DistanceMeters>
          </Trackpoint>
          <Trackpoint>
            <Time>2020-12-05T12:03:18.000Z</Time>
            <Position>
              <LatitudeDegrees>36.82795294560492038726806640625</LatitudeDegrees>
              <LongitudeDegrees>-4.3652182258665561676025390625</LongitudeDegrees>
            </Position>
            <AltitudeMeters>717.20001220703125</AltitudeMeters>
            <DistanceMeters>NAN</DistanceMeters>
          </Trackpoint>
          <Trackpoint>
            <Time>2020-12-05T12:03:19.000Z</Time>
            <Position>
              <LatitudeDegrees>36.82796585373580455780029296875</LatitudeDegrees>
              <LongitudeDegrees>-4.36522518284618854522705078125</LongitudeDegrees>
            </Position>
            <AltitudeMeters>717.20001220703125</AltitudeMeters>
            <DistanceMeters>NAN</DistanceMeters>
          </Trackpoint>
          <Trackpoint>
            <Time>2020-12-05T12:03:20.000Z</Time>
            <Position>
              <LatitudeDegrees>36.82798060588538646697998046875</LatitudeDegrees>
              <LongitudeDegrees>-4.3652326427400112152099609375</LongitudeDegrees>
            </Position>
            <AltitudeMeters>717.20001220703125</AltitudeMeters>
            <DistanceMeters>NAN</DistanceMeters>
          </Trackpoint>
          <Trackpoint>
            <Time>2020-12-05T12:03:21.000Z</Time>
            <Position>
              <LatitudeDegrees>36.827995441854000091552734375</LatitudeDegrees>
              <LongitudeDegrees>-4.3652400188148021697998046875</LongitudeDegrees>
            </Position>
            <AltitudeMeters>717.20001220703125</AltitudeMeters>
            <DistanceMeters>NAN</DistanceMeters>
          </Trackpoint>
          <Trackpoint>
            <Time>2020-12-05T12:03:22.000Z</Time>
            <Position>
              <LatitudeDegrees>36.82800910435616970062255859375</LatitudeDegrees>
              <LongitudeDegrees>-4.3652447126805782318115234375</LongitudeDegrees>
            </Position>
            <AltitudeMeters>717.20001220703125</AltitudeMeters>
            <DistanceMeters>NAN</DistanceMeters>
          </Trackpoint>
          <Trackpoint>
            <Time>2020-12-05T12:03:23.000Z</Time>
            <Position>
              <LatitudeDegrees>36.8280234374105930328369140625</LatitudeDegrees>
              <LongitudeDegrees>-4.36524999327957630157470703125</LongitudeDegrees>
            </Position>
            <AltitudeMeters>717.20001220703125</AltitudeMeters>
            <DistanceMeters>NAN</DistanceMeters>
          </Trackpoint>
          <Trackpoint>
            <Time>2020-12-05T12:03:24.000Z</Time>
            <Position>
              <LatitudeDegrees>36.82803726755082607269287109375</LatitudeDegrees>
              <LongitudeDegrees>-4.36525560915470123291015625</LongitudeDegrees>
            </Position>
            <AltitudeMeters>717.20001220703125</AltitudeMeters>
            <DistanceMeters>NAN</DistanceMeters>
          </Trackpoint>
          <Trackpoint>
            <Time>2020-12-05T12:03:25.000Z</Time>
            <Position>
              <LatitudeDegrees>36.828052438795566558837890625</LatitudeDegrees>
              <LongitudeDegrees>-4.365261308848857879638671875</LongitudeDegrees>
            </Position>
            <AltitudeMeters>717.20001220703125</AltitudeMeters>
            <DistanceMeters>NAN</DistanceMeters>
          </Trackpoint>
          <Trackpoint>
            <Time>2020-12-05T12:03:26.000Z</Time>
            <Position>
              <LatitudeDegrees>36.82807096280157566070556640625</LatitudeDegrees>
              <LongitudeDegrees>-4.36525837518274784088134765625</LongitudeDegrees>
            </Position>
            <AltitudeMeters>717.20001220703125</AltitudeMeters>
            <DistanceMeters>NAN</DistanceMeters>
          </Trackpoint>
          <Trackpoint>
            <Time>2020-12-05T12:03:27.000Z</Time>
            <Position>
              <LatitudeDegrees>36.82808571495115756988525390625</LatitudeDegrees>
              <LongitudeDegrees>-4.36526038683950901031494140625</LongitudeDegrees>
            </Position>
            <AltitudeMeters>717.20001220703125</AltitudeMeters>
            <DistanceMeters>NAN</DistanceMeters>
          </Trackpoint>
          <Trackpoint>
            <Time>2020-12-05T12:03:28.000Z</Time>
            <Position>
              <LatitudeDegrees>36.82809845544397830963134765625</LatitudeDegrees>
              <LongitudeDegrees>-4.36526407487690448760986328125</LongitudeDegrees>
            </Position>
            <AltitudeMeters>717.20001220703125</AltitudeMeters>
            <DistanceMeters>NAN</DistanceMeters>
          </Trackpoint>
          <Trackpoint>
            <Time>2020-12-05T12:03:29.000Z</Time>
            <Position>
              <LatitudeDegrees>36.82811178267002105712890625</LatitudeDegrees>
              <LongitudeDegrees>-4.36526902019977569580078125</LongitudeDegrees>
            </Position>
            <AltitudeMeters>717.20001220703125</AltitudeMeters>
            <DistanceMeters>NAN</DistanceMeters>
          </Trackpoint>
          <Trackpoint>
            <Time>2020-12-05T12:03:30.000Z</Time>
            <Position>
              <LatitudeDegrees>36.8281256966292858123779296875</LatitudeDegrees>
              <LongitudeDegrees>-4.365274049341678619384765625</LongitudeDegrees>
            </Position>
            <AltitudeMeters>717.20001220703125</AltitudeMeters>
            <DistanceMeters>NAN</DistanceMeters>
          </Trackpoint>
          <Trackpoint>
            <Time>2020-12-05T12:03:31.000Z</Time>
            <Position>
              <LatitudeDegrees>36.82814220897853374481201171875</LatitudeDegrees>
              <LongitudeDegrees>-4.36527882702648639678955078125</LongitudeDegrees>
            </Position>
            <AltitudeMeters>717.20001220703125</AltitudeMeters>
            <DistanceMeters>NAN</DistanceMeters>
          </Trackpoint>
          <Trackpoint>
            <Time>2020-12-05T12:03:32.000Z</Time>
            <Position>
              <LatitudeDegrees>36.8281575478613376617431640625</LatitudeDegrees>
              <LongitudeDegrees>-4.36528653837740421295166015625</LongitudeDegrees>
            </Position>
            <AltitudeMeters>717.20001220703125</AltitudeMeters>
            <DistanceMeters>NAN</DistanceMeters>
          </Trackpoint>
          <Trackpoint>
            <Time>2020-12-05T12:03:33.000Z</Time>
            <Position>
              <LatitudeDegrees>36.82817473076283931732177734375</LatitudeDegrees>
              <LongitudeDegrees>-4.36529106460511684417724609375</LongitudeDegrees>
            </Position>
            <AltitudeMeters>717.20001220703125</AltitudeMeters>
            <DistanceMeters>NAN</DistanceMeters>
          </Trackpoint>
          <Trackpoint>
            <Time>2020-12-05T12:03:34.000Z</Time>
            <Position>
              <LatitudeDegrees>36.8281914107501506805419921875</LatitudeDegrees>
              <LongitudeDegrees>-4.36529743485152721405029296875</LongitudeDegrees>
            </Position>
            <AltitudeMeters>717.20001220703125</AltitudeMeters>
            <DistanceMeters>NAN</DistanceMeters>
          </Trackpoint>
          <Trackpoint>
            <Time>2020-12-05T12:03:35.000Z</Time>
            <Position>
              <LatitudeDegrees>36.828204654157161712646484375</LatitudeDegrees>
              <LongitudeDegrees>-4.36530665494501590728759765625</LongitudeDegrees>
            </Position>
            <AltitudeMeters>717.20001220703125</AltitudeMeters>
            <DistanceMeters>NAN</DistanceMeters>
          </Trackpoint>
          <Trackpoint>
            <Time>2020-12-05T12:03:36.000Z</Time>
            <Position>
              <LatitudeDegrees>36.82821731083095073699951171875</LatitudeDegrees>
              <LongitudeDegrees>-4.36531486921012401580810546875</LongitudeDegrees>
            </Position>
            <AltitudeMeters>717.20001220703125</AltitudeMeters>
            <DistanceMeters>NAN</DistanceMeters>
          </Trackpoint>
          <Trackpoint>
            <Time>2020-12-05T12:03:37.000Z</Time>
            <Position>
              <LatitudeDegrees>36.82822854258120059967041015625</LatitudeDegrees>
              <LongitudeDegrees>-4.36532073654234409332275390625</LongitudeDegrees>
            </Position>
            <AltitudeMeters>717.20001220703125</AltitudeMeters>
            <DistanceMeters>NAN</DistanceMeters>
          </Trackpoint>
          <Trackpoint>
            <Time>2020-12-05T12:03:38.000Z</Time>
            <Position>
              <LatitudeDegrees>36.82823826558887958526611328125</LatitudeDegrees>
              <LongitudeDegrees>-4.365326352417469024658203125</LongitudeDegrees>
            </Position>
            <AltitudeMeters>717.20001220703125</AltitudeMeters>
            <DistanceMeters>NAN</DistanceMeters>
          </Trackpoint>
          <Trackpoint>
            <Time>2020-12-05T12:03:39.000Z</Time>
            <Position>
              <LatitudeDegrees>36.82824094779789447784423828125</LatitudeDegrees>
              <LongitudeDegrees>-4.3653355725109577178955078125</LongitudeDegrees>
            </Position>
            <AltitudeMeters>717.20001220703125</AltitudeMeters>
            <DistanceMeters>NAN</DistanceMeters>
          </Trackpoint>
          <Trackpoint>
            <Time>2020-12-05T12:03:40.000Z</Time>
            <Position>
              <LatitudeDegrees>36.8282463960349559783935546875</LatitudeDegrees>
              <LongitudeDegrees>-4.36534546315670013427734375</LongitudeDegrees>
            </Position>
            <AltitudeMeters>717.20001220703125</AltitudeMeters>
            <DistanceMeters>NAN</DistanceMeters>
          </Trackpoint>
          <Trackpoint>
            <Time>2020-12-05T12:03:41.000Z</Time>
            <Position>
              <LatitudeDegrees>36.8282534368336200714111328125</LatitudeDegrees>
              <LongitudeDegrees>-4.36535828746855258941650390625</LongitudeDegrees>
            </Position>
            <AltitudeMeters>717.20001220703125</AltitudeMeters>
            <DistanceMeters>NAN</DistanceMeters>
          </Trackpoint>
          <Trackpoint>
            <Time>2020-12-05T12:03:42.000Z</Time>
            <Position>
              <LatitudeDegrees>36.8282614834606647491455078125</LatitudeDegrees>
              <LongitudeDegrees>-4.3653724528849124908447265625</LongitudeDegrees>
            </Position>
            <AltitudeMeters>717.20001220703125</AltitudeMeters>
            <DistanceMeters>NAN</DistanceMeters>
          </Trackpoint>
          <Trackpoint>
            <Time>2020-12-05T12:03:43.000Z</Time>
            <Position>
              <LatitudeDegrees>36.8282668478786945343017578125</LatitudeDegrees>
              <LongitudeDegrees>-4.3653892166912555694580078125</LongitudeDegrees>
            </Position>
            <AltitudeMeters>717.20001220703125</AltitudeMeters>
            <DistanceMeters>NAN</DistanceMeters>
          </Trackpoint>
          <Trackpoint>
            <Time>2020-12-05T12:03:44.000Z</Time>
            <Position>
              <LatitudeDegrees>36.8282712064683437347412109375</LatitudeDegrees>
              <LongitudeDegrees>-4.36540623195469379425048828125</LongitudeDegrees>
            </Position>
            <AltitudeMeters>717.20001220703125</AltitudeMeters>
            <DistanceMeters>NAN</DistanceMeters>
          </Trackpoint>
          <Trackpoint>
            <Time>2020-12-05T12:03:45.000Z</Time>
            <Position>
              <LatitudeDegrees>36.82828067801892757415771484375</LatitudeDegrees>
              <LongitudeDegrees>-4.3654177151620388031005859375</LongitudeDegrees>
            </Position>
            <AltitudeMeters>717.20001220703125</AltitudeMeters>
            <DistanceMeters>NAN</DistanceMeters>
          </Trackpoint>
          <Trackpoint>
            <Time>2020-12-05T12:03:46.000Z</Time>
            <Position>
              <LatitudeDegrees>36.8282906524837017059326171875</LatitudeDegrees>
              <LongitudeDegrees>-4.3654301203787326812744140625</LongitudeDegrees>
            </Position>
            <AltitudeMeters>718</AltitudeMeters>
            <DistanceMeters>NAN</DistanceMeters>
          </Trackpoint>
          <Trackpoint>
            <Time>2020-12-05T12:03:47.000Z</Time>
            <Position>
              <LatitudeDegrees>36.8283002078533172607421875</LatitudeDegrees>
              <LongitudeDegrees>-4.3654415197670459747314453125</LongitudeDegrees>
            </Position>
            <AltitudeMeters>718</AltitudeMeters>
            <DistanceMeters>NAN</DistanceMeters>
          </Trackpoint>
          <Trackpoint>
            <Time>2020-12-05T12:03:48.000Z</Time>
            <Position>
              <LatitudeDegrees>36.8283080868422985076904296875</LatitudeDegrees>
              <LongitudeDegrees>-4.36545451171696186065673828125</LongitudeDegrees>
            </Position>
            <AltitudeMeters>718</AltitudeMeters>
            <DistanceMeters>NAN</DistanceMeters>
          </Trackpoint>
          <Trackpoint>
            <Time>2020-12-05T12:03:49.000Z</Time>
            <Position>
              <LatitudeDegrees>36.82831118814647197723388671875</LatitudeDegrees>
              <LongitudeDegrees>-4.3654713593423366546630859375</LongitudeDegrees>
            </Position>
            <AltitudeMeters>718</AltitudeMeters>
            <DistanceMeters>NAN</DistanceMeters>
          </Trackpoint>
          <Trackpoint>
            <Time>2020-12-05T12:03:50.000Z</Time>
            <Position>
              <LatitudeDegrees>36.828314960002899169921875</LatitudeDegrees>
              <LongitudeDegrees>-4.365486614406108856201171875</LongitudeDegrees>
            </Position>
            <AltitudeMeters>718</AltitudeMeters>
            <DistanceMeters>NAN</DistanceMeters>
          </Trackpoint>
          <Trackpoint>
            <Time>2020-12-05T12:03:51.000Z</Time>
            <Position>
              <LatitudeDegrees>36.82832141406834125518798828125</LatitudeDegrees>
              <LongitudeDegrees>-4.3654998578131198883056640625</LongitudeDegrees>
            </Position>
            <AltitudeMeters>718</AltitudeMeters>
            <DistanceMeters>NAN</DistanceMeters>
          </Trackpoint>
          <Trackpoint>
            <Time>2020-12-05T12:03:52.000Z</Time>
            <Position>
              <LatitudeDegrees>36.828327365219593048095703125</LatitudeDegrees>
              <LongitudeDegrees>-4.36551402322947978973388671875</LongitudeDegrees>
            </Position>
            <AltitudeMeters>718</AltitudeMeters>
            <DistanceMeters>NAN</DistanceMeters>
          </Trackpoint>
          <Trackpoint>
            <Time>2020-12-05T12:03:53.000Z</Time>
            <Position>
              <LatitudeDegrees>36.82833231054246425628662109375</LatitudeDegrees>
              <LongitudeDegrees>-4.3655307032167911529541015625</LongitudeDegrees>
            </Position>
            <AltitudeMeters>718</AltitudeMeters>
            <DistanceMeters>NAN</DistanceMeters>
          </Trackpoint>
          <Trackpoint>
            <Time>2020-12-05T12:03:54.000Z</Time>
            <Position>
              <LatitudeDegrees>36.8283377587795257568359375</LatitudeDegrees>
              <LongitudeDegrees>-4.36554755084216594696044921875</LongitudeDegrees>
            </Position>
            <AltitudeMeters>718</AltitudeMeters>
            <DistanceMeters>NAN</DistanceMeters>
          </Trackpoint>
          <Trackpoint>
            <Time>2020-12-05T12:03:55.000Z</Time>
            <Position>
              <LatitudeDegrees>36.82834781706333160400390625</LatitudeDegrees>
              <LongitudeDegrees>-4.36556766740977764129638671875</LongitudeDegrees>
            </Position>
            <AltitudeMeters>718</AltitudeMeters>
            <DistanceMeters>NAN</DistanceMeters>
          </Trackpoint>
          <Trackpoint>
            <Time>2020-12-05T12:03:56.000Z</Time>
            <Position>
              <LatitudeDegrees>36.82835745625197887420654296875</LatitudeDegrees>
              <LongitudeDegrees>-4.365585856139659881591796875</LongitudeDegrees>
            </Position>
            <AltitudeMeters>718</AltitudeMeters>
            <DistanceMeters>NAN</DistanceMeters>
          </Trackpoint>
          <Trackpoint>
            <Time>2020-12-05T12:03:57.000Z</Time>
            <Position>
              <LatitudeDegrees>36.82836684398353099822998046875</LatitudeDegrees>
              <LongitudeDegrees>-4.36560303904116153717041015625</LongitudeDegrees>
            </Position>
            <AltitudeMeters>718</AltitudeMeters>
            <DistanceMeters>NAN</DistanceMeters>
          </Trackpoint>
          <Trackpoint>
            <Time>2020-12-05T12:03:58.000Z</Time>
            <Position>
              <LatitudeDegrees>36.82837463915348052978515625</LatitudeDegrees>
              <LongitudeDegrees>-4.36562315560877323150634765625</LongitudeDegrees>
            </Position>
            <AltitudeMeters>718</AltitudeMeters>
            <DistanceMeters>NAN</DistanceMeters>
          </Trackpoint>
          <Trackpoint>
            <Time>2020-12-05T12:03:59.000Z</Time>
            <Position>
              <LatitudeDegrees>36.82838411070406436920166015625</LatitudeDegrees>
              <LongitudeDegrees>-4.3656317889690399169921875</LongitudeDegrees>
            </Position>
            <AltitudeMeters>718</AltitudeMeters>
            <DistanceMeters>NAN</DistanceMeters>
          </Trackpoint>
          <Trackpoint>
            <Time>2020-12-05T12:04:00.000Z</Time>
            <Position>
              <LatitudeDegrees>36.8283932469785213470458984375</LatitudeDegrees>
              <LongitudeDegrees>-4.36563975177705287933349609375</LongitudeDegrees>
            </Position>
            <AltitudeMeters>713.20001220703125</AltitudeMeters>
            <DistanceMeters>NAN</DistanceMeters>
          </Trackpoint>
          <Trackpoint>
            <Time>2020-12-05T12:04:01.000Z</Time>
            <Position>
              <LatitudeDegrees>36.82840355671942234039306640625</LatitudeDegrees>
              <LongitudeDegrees>-4.36564645729959011077880859375</LongitudeDegrees>
            </Position>
            <AltitudeMeters>713.20001220703125</AltitudeMeters>
            <DistanceMeters>NAN</DistanceMeters>
          </Trackpoint>
          <Trackpoint>
            <Time>2020-12-05T12:04:02.000Z</Time>
            <Position>
              <LatitudeDegrees>36.82841277681291103363037109375</LatitudeDegrees>
              <LongitudeDegrees>-4.36565467156469821929931640625</LongitudeDegrees>
            </Position>
            <AltitudeMeters>713.20001220703125</AltitudeMeters>
            <DistanceMeters>NAN</DistanceMeters>
          </Trackpoint>
          <Trackpoint>
            <Time>2020-12-05T12:04:03.000Z</Time>
            <Position>
              <LatitudeDegrees>36.82842451147735118865966796875</LatitudeDegrees>
              <LongitudeDegrees>-4.36566674150526523590087890625</LongitudeDegrees>
            </Position>
            <AltitudeMeters>713.20001220703125</AltitudeMeters>
            <DistanceMeters>NAN</DistanceMeters>
          </Trackpoint>
          <Trackpoint>
            <Time>2020-12-05T12:04:04.000Z</Time>
            <Position>
              <LatitudeDegrees>36.8284368328750133514404296875</LatitudeDegrees>
              <LongitudeDegrees>-4.36567881144583225250244140625</LongitudeDegrees>
            </Position>
            <AltitudeMeters>713.20001220703125</AltitudeMeters>
            <DistanceMeters>NAN</DistanceMeters>
          </Trackpoint>
          <Trackpoint>
            <Time>2020-12-05T12:04:05.000Z</Time>
            <Position>
              <LatitudeDegrees>36.82845200411975383758544921875</LatitudeDegrees>
              <LongitudeDegrees>-4.36569415032863616943359375</LongitudeDegrees>
            </Position>
            <AltitudeMeters>713.20001220703125</AltitudeMeters>
            <DistanceMeters>NAN</DistanceMeters>
          </Trackpoint>
          <Trackpoint>
            <Time>2020-12-05T12:04:06.000Z</Time>
            <Position>
              <LatitudeDegrees>36.82846524752676486968994140625</LatitudeDegrees>
              <LongitudeDegrees>-4.36571066267788410186767578125</LongitudeDegrees>
            </Position>
            <AltitudeMeters>713.20001220703125</AltitudeMeters>
            <DistanceMeters>NAN</DistanceMeters>
          </Trackpoint>
          <Trackpoint>
            <Time>2020-12-05T12:04:07.000Z</Time>
            <Position>
              <LatitudeDegrees>36.8284772336483001708984375</LatitudeDegrees>
              <LongitudeDegrees>-4.365723319351673126220703125</LongitudeDegrees>
            </Position>
            <AltitudeMeters>713.20001220703125</AltitudeMeters>
            <DistanceMeters>NAN</DistanceMeters>
          </Trackpoint>
          <Trackpoint>
            <Time>2020-12-05T12:04:08.000Z</Time>
            <Position>
              <LatitudeDegrees>36.8284874595701694488525390625</LatitudeDegrees>
              <LongitudeDegrees>-4.36573245562613010406494140625</LongitudeDegrees>
            </Position>
            <AltitudeMeters>713.20001220703125</AltitudeMeters>
            <DistanceMeters>NAN</DistanceMeters>
          </Trackpoint>
          <Trackpoint>
            <Time>2020-12-05T12:04:09.000Z</Time>
            <Position>
              <LatitudeDegrees>36.82849793694913387298583984375</LatitudeDegrees>
              <LongitudeDegrees>-4.36574134044349193572998046875</LongitudeDegrees>
            </Position>
            <AltitudeMeters>713.20001220703125</AltitudeMeters>
            <DistanceMeters>NAN</DistanceMeters>
          </Trackpoint>
          <Trackpoint>
            <Time>2020-12-05T12:04:10.000Z</Time>
            <Position>
              <LatitudeDegrees>36.828506402671337127685546875</LatitudeDegrees>
              <LongitudeDegrees>-4.36575106345117092132568359375</LongitudeDegrees>
            </Position>
            <AltitudeMeters>713.20001220703125</AltitudeMeters>
            <DistanceMeters>NAN</DistanceMeters>
          </Trackpoint>
          <Trackpoint>
            <Time>2020-12-05T12:04:11.000Z</Time>
            <Position>
              <LatitudeDegrees>36.8285146169364452362060546875</LatitudeDegrees>
              <LongitudeDegrees>-4.36575944535434246063232421875</LongitudeDegrees>
            </Position>
            <AltitudeMeters>713.20001220703125</AltitudeMeters>
            <DistanceMeters>NAN</DistanceMeters>
          </Trackpoint>
          <Trackpoint>
            <Time>2020-12-05T12:04:12.000Z</Time>
            <Position>
              <LatitudeDegrees>36.82852475903928279876708984375</LatitudeDegrees>
              <LongitudeDegrees>-4.3657664023339748382568359375</LongitudeDegrees>
            </Position>
            <AltitudeMeters>713.20001220703125</AltitudeMeters>
            <DistanceMeters>NAN</DistanceMeters>
          </Trackpoint>
          <Trackpoint>
            <Time>2020-12-05T12:04:13.000Z</Time>
            <Position>
              <LatitudeDegrees>36.82853515259921550750732421875</LatitudeDegrees>
              <LongitudeDegrees>-4.36577436514198780059814453125</LongitudeDegrees>
            </Position>
            <AltitudeMeters>713.20001220703125</AltitudeMeters>
            <DistanceMeters>NAN</DistanceMeters>
          </Trackpoint>
          <Trackpoint>
            <Time>2020-12-05T12:04:14.000Z</Time>
            <Position>
              <LatitudeDegrees>36.82854495942592620849609375</LatitudeDegrees>
              <LongitudeDegrees>-4.365787021815776824951171875</LongitudeDegrees>
            </Position>
            <AltitudeMeters>713.20001220703125</AltitudeMeters>
            <DistanceMeters>NAN</DistanceMeters>
          </Trackpoint>
          <Trackpoint>
            <Time>2020-12-05T12:04:15.000Z</Time>
            <Position>
              <LatitudeDegrees>36.8285565264523029327392578125</LatitudeDegrees>
              <LongitudeDegrees>-4.36579481698572635650634765625</LongitudeDegrees>
            </Position>
            <AltitudeMeters>713.20001220703125</AltitudeMeters>
            <DistanceMeters>NAN</DistanceMeters>
          </Trackpoint>
          <Trackpoint>
            <Time>2020-12-05T12:04:16.000Z</Time>
            <Position>
              <LatitudeDegrees>36.82856549508869647979736328125</LatitudeDegrees>
              <LongitudeDegrees>-4.36580269597470760345458984375</LongitudeDegrees>
            </Position>
            <AltitudeMeters>713.20001220703125</AltitudeMeters>
            <DistanceMeters>NAN</DistanceMeters>
          </Trackpoint>
          <Trackpoint>
            <Time>2020-12-05T12:04:17.000Z</Time>
            <Position>
              <LatitudeDegrees>36.828572452068328857421875</LatitudeDegrees>
              <LongitudeDegrees>-4.36581409536302089691162109375</LongitudeDegrees>
            </Position>
            <AltitudeMeters>713.20001220703125</AltitudeMeters>
            <DistanceMeters>NAN</DistanceMeters>
          </Trackpoint>
          <Trackpoint>
            <Time>2020-12-05T12:04:18.000Z</Time>
            <Position>
              <LatitudeDegrees>36.82858091779053211212158203125</LatitudeDegrees>
              <LongitudeDegrees>-4.36582826077938079833984375</LongitudeDegrees>
            </Position>
            <AltitudeMeters>713.20001220703125</AltitudeMeters>
            <DistanceMeters>NAN</DistanceMeters>
          </Trackpoint>
          <Trackpoint>
            <Time>2020-12-05T12:04:19.000Z</Time>
            <Position>
              <LatitudeDegrees>36.82858862914144992828369140625</LatitudeDegrees>
              <LongitudeDegrees>-4.36584225855767726898193359375</LongitudeDegrees>
            </Position>
            <AltitudeMeters>713.20001220703125</AltitudeMeters>
            <DistanceMeters>NAN</DistanceMeters>
          </Trackpoint>
          <Trackpoint>
            <Time>2020-12-05T12:04:20.000Z</Time>
            <Position>
              <LatitudeDegrees>36.8285967595875263214111328125</LatitudeDegrees>
              <LongitudeDegrees>-4.36585382558405399322509765625</LongitudeDegrees>
            </Position>
            <AltitudeMeters>713.20001220703125</AltitudeMeters>
            <DistanceMeters>NAN</DistanceMeters>
          </Trackpoint>
          <Trackpoint>
            <Time>2020-12-05T12:04:21.000Z</Time>
            <Position>
              <LatitudeDegrees>36.82860623113811016082763671875</LatitudeDegrees>
              <LongitudeDegrees>-4.3658632971346378326416015625</LongitudeDegrees>
            </Position>
            <AltitudeMeters>713.20001220703125</AltitudeMeters>
            <DistanceMeters>NAN</DistanceMeters>
          </Trackpoint>
          <Trackpoint>
            <Time>2020-12-05T12:04:22.000Z</Time>
            <Position>
              <LatitudeDegrees>36.82861779816448688507080078125</LatitudeDegrees>
              <LongitudeDegrees>-4.365872181951999664306640625</LongitudeDegrees>
            </Position>
            <AltitudeMeters>713.20001220703125</AltitudeMeters>
            <DistanceMeters>NAN</DistanceMeters>
          </Trackpoint>
          <Trackpoint>
            <Time>2020-12-05T12:04:23.000Z</Time>
            <Position>
              <LatitudeDegrees>36.82862819172441959381103515625</LatitudeDegrees>
              <LongitudeDegrees>-4.36588131822645664215087890625</LongitudeDegrees>
            </Position>
            <AltitudeMeters>713.20001220703125</AltitudeMeters>
            <DistanceMeters>NAN</DistanceMeters>
          </Trackpoint>
          <Trackpoint>
            <Time>2020-12-05T12:04:24.000Z</Time>
            <Position>
              <LatitudeDegrees>36.82863942347466945648193359375</LatitudeDegrees>
              <LongitudeDegrees>-4.3658877722918987274169921875</LongitudeDegrees>
            </Position>
            <AltitudeMeters>713.20001220703125</AltitudeMeters>
            <DistanceMeters>NAN</DistanceMeters>
          </Trackpoint>
          <Trackpoint>
            <Time>2020-12-05T12:04:25.000Z</Time>
            <Position>
              <LatitudeDegrees>36.82865283451974391937255859375</LatitudeDegrees>
              <LongitudeDegrees>-4.3658946454524993896484375</LongitudeDegrees>
            </Position>
            <AltitudeMeters>713.20001220703125</AltitudeMeters>
            <DistanceMeters>NAN</DistanceMeters>
          </Trackpoint>
          <Trackpoint>
            <Time>2020-12-05T12:04:26.000Z</Time>
            <Position>
              <LatitudeDegrees>36.82866792194545269012451171875</LatitudeDegrees>
              <LongitudeDegrees>-4.36590311117470264434814453125</LongitudeDegrees>
            </Position>
            <AltitudeMeters>713.20001220703125</AltitudeMeters>
            <DistanceMeters>NAN</DistanceMeters>
          </Trackpoint>
          <Trackpoint>
            <Time>2020-12-05T12:04:27.000Z</Time>
            <Position>
              <LatitudeDegrees>36.82868300937116146087646484375</LatitudeDegrees>
              <LongitudeDegrees>-4.36591140925884246826171875</LongitudeDegrees>
            </Position>
            <AltitudeMeters>713.20001220703125</AltitudeMeters>
            <DistanceMeters>NAN</DistanceMeters>
          </Trackpoint>
          <Trackpoint>
            <Time>2020-12-05T12:04:28.000Z</Time>
            <Position>
              <LatitudeDegrees>36.8286983482539653778076171875</LatitudeDegrees>
              <LongitudeDegrees>-4.36592071317136287689208984375</LongitudeDegrees>
            </Position>
            <AltitudeMeters>713.20001220703125</AltitudeMeters>
            <DistanceMeters>NAN</DistanceMeters>
          </Trackpoint>
          <Trackpoint>
            <Time>2020-12-05T12:04:29.000Z</Time>
            <Position>
              <LatitudeDegrees>36.82871217839419841766357421875</LatitudeDegrees>
              <LongitudeDegrees>-4.3659280054271221160888671875</LongitudeDegrees>
            </Position>
            <AltitudeMeters>713.20001220703125</AltitudeMeters>
            <DistanceMeters>NAN</DistanceMeters>
          </Trackpoint>
          <Trackpoint>
            <Time>2020-12-05T12:04:30.000Z</Time>
            <Position>
              <LatitudeDegrees>36.8287244997918605804443359375</LatitudeDegrees>
              <LongitudeDegrees>-4.36593228019773960113525390625</LongitudeDegrees>
            </Position>
            <AltitudeMeters>713.20001220703125</AltitudeMeters>
            <DistanceMeters>NAN</DistanceMeters>
          </Trackpoint>
          <Trackpoint>
            <Time>2020-12-05T12:04:31.000Z</Time>
            <Position>
              <LatitudeDegrees>36.8287365697324275970458984375</LatitudeDegrees>
              <LongitudeDegrees>-4.36593697406351566314697265625</LongitudeDegrees>
            </Position>
            <AltitudeMeters>713.20001220703125</AltitudeMeters>
            <DistanceMeters>NAN</DistanceMeters>
          </Trackpoint>
          <Trackpoint>
            <Time>2020-12-05T12:04:32.000Z</Time>
            <Position>
              <LatitudeDegrees>36.8287469632923603057861328125</LatitudeDegrees>
              <LongitudeDegrees>-4.36594233848154544830322265625</LongitudeDegrees>
            </Position>
            <AltitudeMeters>713.20001220703125</AltitudeMeters>
            <DistanceMeters>NAN</DistanceMeters>
          </Trackpoint>
          <Trackpoint>
            <Time>2020-12-05T12:04:33.000Z</Time>
            <Position>
              <LatitudeDegrees>36.82875777594745159149169921875</LatitudeDegrees>
              <LongitudeDegrees>-4.36594761908054351806640625</LongitudeDegrees>
            </Position>
            <AltitudeMeters>713.20001220703125</AltitudeMeters>
            <DistanceMeters>NAN</DistanceMeters>
          </Trackpoint>
          <Trackpoint>
            <Time>2020-12-05T12:04:34.000Z</Time>
            <Position>
              <LatitudeDegrees>36.8287680856883525848388671875</LatitudeDegrees>
              <LongitudeDegrees>-4.3659531511366367340087890625</LongitudeDegrees>
            </Position>
            <AltitudeMeters>713.20001220703125</AltitudeMeters>
            <DistanceMeters>NAN</DistanceMeters>
          </Trackpoint>
          <Trackpoint>
            <Time>2020-12-05T12:04:35.000Z</Time>
            <Position>
              <LatitudeDegrees>36.82877755723893642425537109375</LatitudeDegrees>
              <LongitudeDegrees>-4.36595792882144451141357421875</LongitudeDegrees>
            </Position>
            <AltitudeMeters>713.20001220703125</AltitudeMeters>
            <DistanceMeters>NAN</DistanceMeters>
          </Trackpoint>
          <Trackpoint>
            <Time>2020-12-05T12:04:36.000Z</Time>
            <Position>
              <LatitudeDegrees>36.82878501713275909423828125</LatitudeDegrees>
              <LongitudeDegrees>-4.3659635446965694427490234375</LongitudeDegrees>
            </Position>
            <AltitudeMeters>713.20001220703125</AltitudeMeters>
            <DistanceMeters>NAN</DistanceMeters>
          </Trackpoint>
          <Trackpoint>
            <Time>2020-12-05T12:04:37.000Z</Time>
            <Position>
              <LatitudeDegrees>36.828794069588184356689453125</LatitudeDegrees>
              <LongitudeDegrees>-4.3659695796668529510498046875</LongitudeDegrees>
            </Position>
            <AltitudeMeters>713.20001220703125</AltitudeMeters>
            <DistanceMeters>NAN</DistanceMeters>
          </Trackpoint>
          <Trackpoint>
            <Time>2020-12-05T12:04:38.000Z</Time>
            <Position>
              <LatitudeDegrees>36.82880471460521221160888671875</LatitudeDegrees>
              <LongitudeDegrees>-4.36597846448421478271484375</LongitudeDegrees>
            </Position>
            <AltitudeMeters>713.20001220703125</AltitudeMeters>
            <DistanceMeters>NAN</DistanceMeters>
          </Trackpoint>
          <Trackpoint>
            <Time>2020-12-05T12:04:39.000Z</Time>
            <Position>
              <LatitudeDegrees>36.828814856708049774169921875</LatitudeDegrees>
              <LongitudeDegrees>-4.3659907020628452301025390625</LongitudeDegrees>
            </Position>
            <AltitudeMeters>713.20001220703125</AltitudeMeters>
            <DistanceMeters>NAN</DistanceMeters>
          </Trackpoint>
          <Trackpoint>
            <Time>2020-12-05T12:04:40.000Z</Time>
            <Position>
              <LatitudeDegrees>36.82882751338183879852294921875</LatitudeDegrees>
              <LongitudeDegrees>-4.36600402928888797760009765625</LongitudeDegrees>
            </Position>
            <AltitudeMeters>713.20001220703125</AltitudeMeters>
            <DistanceMeters>NAN</DistanceMeters>
          </Trackpoint>
          <Trackpoint>
            <Time>2020-12-05T12:04:41.000Z</Time>
            <Position>
              <LatitudeDegrees>36.82883991859853267669677734375</LatitudeDegrees>
              <LongitudeDegrees>-4.3660145066678524017333984375</LongitudeDegrees>
            </Position>
            <AltitudeMeters>713.20001220703125</AltitudeMeters>
            <DistanceMeters>NAN</DistanceMeters>
          </Trackpoint>
          <Trackpoint>
            <Time>2020-12-05T12:04:42.000Z</Time>
            <Position>
              <LatitudeDegrees>36.82885073125362396240234375</LatitudeDegrees>
              <LongitudeDegrees>-4.366024397313594818115234375</LongitudeDegrees>
            </Position>
            <AltitudeMeters>713.20001220703125</AltitudeMeters>
            <DistanceMeters>NAN</DistanceMeters>
          </Trackpoint>
          <Trackpoint>
            <Time>2020-12-05T12:04:43.000Z</Time>
            <Position>
              <LatitudeDegrees>36.828861795365810394287109375</LatitudeDegrees>
              <LongitudeDegrees>-4.36603152193129062652587890625</LongitudeDegrees>
            </Position>
            <AltitudeMeters>713.20001220703125</AltitudeMeters>
            <DistanceMeters>NAN</DistanceMeters>
          </Trackpoint>
          <Trackpoint>
            <Time>2020-12-05T12:04:44.000Z</Time>
            <Position>
              <LatitudeDegrees>36.8288730271160602569580078125</LatitudeDegrees>
              <LongitudeDegrees>-4.36603956855833530426025390625</LongitudeDegrees>
            </Position>
            <AltitudeMeters>713.20001220703125</AltitudeMeters>
            <DistanceMeters>NAN</DistanceMeters>
          </Trackpoint>
          <Trackpoint>
            <Time>2020-12-05T12:04:45.000Z</Time>
            <Position>
              <LatitudeDegrees>36.82888467796146869659423828125</LatitudeDegrees>
              <LongitudeDegrees>-4.36604820191860198974609375</LongitudeDegrees>
            </Position>
            <AltitudeMeters>713.20001220703125</AltitudeMeters>
            <DistanceMeters>NAN</DistanceMeters>
          </Trackpoint>
          <Trackpoint>
            <Time>2020-12-05T12:04:46.000Z</Time>
            <Position>
              <LatitudeDegrees>36.82889557443559169769287109375</LatitudeDegrees>
              <LongitudeDegrees>-4.3660580925643444061279296875</LongitudeDegrees>
            </Position>
            <AltitudeMeters>713.20001220703125</AltitudeMeters>
            <DistanceMeters>NAN</DistanceMeters>
          </Trackpoint>
          <Trackpoint>
            <Time>2020-12-05T12:04:47.000Z</Time>
            <Position>
              <LatitudeDegrees>36.828904710710048675537109375</LatitudeDegrees>
              <LongitudeDegrees>-4.366068653762340545654296875</LongitudeDegrees>
            </Position>
            <AltitudeMeters>713.20001220703125</AltitudeMeters>
            <DistanceMeters>NAN</DistanceMeters>
          </Trackpoint>
          <Trackpoint>
            <Time>2020-12-05T12:04:48.000Z</Time>
            <Position>
              <LatitudeDegrees>36.82891300879418849945068359375</LatitudeDegrees>
              <LongitudeDegrees>-4.3660808913409709930419921875</LongitudeDegrees>
            </Position>
            <AltitudeMeters>713.20001220703125</AltitudeMeters>
            <DistanceMeters>NAN</DistanceMeters>
          </Trackpoint>
          <Trackpoint>
            <Time>2020-12-05T12:04:49.000Z</Time>
            <Position>
              <LatitudeDegrees>36.82892072014510631561279296875</LatitudeDegrees>
              <LongitudeDegrees>-4.36609447002410888671875</LongitudeDegrees>
            </Position>
            <AltitudeMeters>713.20001220703125</AltitudeMeters>
            <DistanceMeters>NAN</DistanceMeters>
          </Trackpoint>
          <Trackpoint>
            <Time>2020-12-05T12:04:50.000Z</Time>
            <Position>
              <LatitudeDegrees>36.82893010787665843963623046875</LatitudeDegrees>
              <LongitudeDegrees>-4.36610855162143707275390625</LongitudeDegrees>
            </Position>
            <AltitudeMeters>713.20001220703125</AltitudeMeters>
            <DistanceMeters>NAN</DistanceMeters>
          </Trackpoint>
          <Trackpoint>
            <Time>2020-12-05T12:04:51.000Z</Time>
            <Position>
              <LatitudeDegrees>36.82893924415111541748046875</LatitudeDegrees>
              <LongitudeDegrees>-4.366123639047145843505859375</LongitudeDegrees>
            </Position>
            <AltitudeMeters>713.20001220703125</AltitudeMeters>
            <DistanceMeters>NAN</DistanceMeters>
          </Trackpoint>
          <Trackpoint>
            <Time>2020-12-05T12:04:52.000Z</Time>
            <Position>
              <LatitudeDegrees>36.82894653640687465667724609375</LatitudeDegrees>
              <LongitudeDegrees>-4.3661365471780300140380859375</LongitudeDegrees>
            </Position>
            <AltitudeMeters>713.20001220703125</AltitudeMeters>
            <DistanceMeters>NAN</DistanceMeters>
          </Trackpoint>
          <Trackpoint>
            <Time>2020-12-05T12:04:53.000Z</Time>
            <Position>
              <LatitudeDegrees>36.82895458303391933441162109375</LatitudeDegrees>
              <LongitudeDegrees>-4.36615012586116790771484375</LongitudeDegrees>
            </Position>
            <AltitudeMeters>713.20001220703125</AltitudeMeters>
            <DistanceMeters>NAN</DistanceMeters>
          </Trackpoint>
          <Trackpoint>
            <Time>2020-12-05T12:04:54.000Z</Time>
            <Position>
              <LatitudeDegrees>36.82896262966096401214599609375</LatitudeDegrees>
              <LongitudeDegrees>-4.36616596765816211700439453125</LongitudeDegrees>
            </Position>
            <AltitudeMeters>713.20001220703125</AltitudeMeters>
            <DistanceMeters>NAN</DistanceMeters>
          </Trackpoint>
          <Trackpoint>
            <Time>2020-12-05T12:04:55.000Z</Time>
            <Position>
              <LatitudeDegrees>36.828969419002532958984375</LatitudeDegrees>
              <LongitudeDegrees>-4.36618675477802753448486328125</LongitudeDegrees>
            </Position>
            <AltitudeMeters>713.20001220703125</AltitudeMeters>
            <DistanceMeters>NAN</DistanceMeters>
          </Trackpoint>
          <Trackpoint>
            <Time>2020-12-05T12:04:56.000Z</Time>
            <Position>
              <LatitudeDegrees>36.828976459801197052001953125</LatitudeDegrees>
              <LongitudeDegrees>-4.36620737425982952117919921875</LongitudeDegrees>
            </Position>
            <AltitudeMeters>713.20001220703125</AltitudeMeters>
            <DistanceMeters>NAN</DistanceMeters>
          </Trackpoint>
          <Trackpoint>
            <Time>2020-12-05T12:04:57.000Z</Time>
            <Position>
              <LatitudeDegrees>36.828981824219226837158203125</LatitudeDegrees>
              <LongitudeDegrees>-4.366224892437458038330078125</LongitudeDegrees>
            </Position>
            <AltitudeMeters>713.20001220703125</AltitudeMeters>
            <DistanceMeters>NAN</DistanceMeters>
          </Trackpoint>
          <Trackpoint>
            <Time>2020-12-05T12:04:58.000Z</Time>
            <Position>
              <LatitudeDegrees>36.828987859189510345458984375</LatitudeDegrees>
              <LongitudeDegrees>-4.36623771674931049346923828125</LongitudeDegrees>
            </Position>
            <AltitudeMeters>713.20001220703125</AltitudeMeters>
            <DistanceMeters>NAN</DistanceMeters>
          </Trackpoint>
          <Trackpoint>
            <Time>2020-12-05T12:04:59.000Z</Time>
            <Position>
              <LatitudeDegrees>36.8289964087307453155517578125</LatitudeDegrees>
              <LongitudeDegrees>-4.36625339090824127197265625</LongitudeDegrees>
            </Position>
            <AltitudeMeters>713.20001220703125</AltitudeMeters>
            <DistanceMeters>NAN</DistanceMeters>
          </Trackpoint>
          <Trackpoint>
            <Time>2020-12-05T12:05:00.000Z</Time>
            <Position>
              <LatitudeDegrees>36.82900319807231426239013671875</LatitudeDegrees>
              <LongitudeDegrees>-4.3662693165242671966552734375</LongitudeDegrees>
            </Position>
            <AltitudeMeters>704.4000244140625</AltitudeMeters>
            <DistanceMeters>NAN</DistanceMeters>
          </Trackpoint>
          <Trackpoint>
            <Time>2020-12-05T12:05:01.000Z</Time>
            <Position>
              <LatitudeDegrees>36.8290081433951854705810546875</LatitudeDegrees>
              <LongitudeDegrees>-4.3662867508828639984130859375</LongitudeDegrees>
            </Position>
            <AltitudeMeters>704.4000244140625</AltitudeMeters>
            <DistanceMeters>NAN</DistanceMeters>
          </Trackpoint>
          <Trackpoint>
            <Time>2020-12-05T12:05:02.000Z</Time>
            <Position>
              <LatitudeDegrees>36.829012334346771240234375</LatitudeDegrees>
              <LongitudeDegrees>-4.36630678363144397735595703125</LongitudeDegrees>
            </Position>
            <AltitudeMeters>704.4000244140625</AltitudeMeters>
            <DistanceMeters>NAN</DistanceMeters>
          </Trackpoint>
          <Trackpoint>
            <Time>2020-12-05T12:05:03.000Z</Time>
            <Position>
              <LatitudeDegrees>36.82901459746062755584716796875</LatitudeDegrees>
              <LongitudeDegrees>-4.36632446944713592529296875</LongitudeDegrees>
            </Position>
            <AltitudeMeters>704.4000244140625</AltitudeMeters>
            <DistanceMeters>NAN</DistanceMeters>
          </Trackpoint>
          <Trackpoint>
            <Time>2020-12-05T12:05:04.000Z</Time>
            <Position>
              <LatitudeDegrees>36.82901795022189617156982421875</LatitudeDegrees>
              <LongitudeDegrees>-4.36633746139705181121826171875</LongitudeDegrees>
            </Position>
            <AltitudeMeters>704.4000244140625</AltitudeMeters>
            <DistanceMeters>NAN</DistanceMeters>
          </Trackpoint>
          <Trackpoint>
            <Time>2020-12-05T12:05:05.000Z</Time>
            <Position>
              <LatitudeDegrees>36.82902214117348194122314453125</LatitudeDegrees>
              <LongitudeDegrees>-4.36634860932826995849609375</LongitudeDegrees>
            </Position>
            <AltitudeMeters>704.4000244140625</AltitudeMeters>
            <DistanceMeters>NAN</DistanceMeters>
          </Trackpoint>
          <Trackpoint>
            <Time>2020-12-05T12:05:06.000Z</Time>
            <Position>
              <LatitudeDegrees>36.8290269188582897186279296875</LatitudeDegrees>
              <LongitudeDegrees>-4.3663591705262660980224609375</LongitudeDegrees>
            </Position>
            <AltitudeMeters>704.4000244140625</AltitudeMeters>
            <DistanceMeters>NAN</DistanceMeters>
          </Trackpoint>
          <Trackpoint>
            <Time>2020-12-05T12:05:07.000Z</Time>
            <Position>
              <LatitudeDegrees>36.82903178036212921142578125</LatitudeDegrees>
              <LongitudeDegrees>-4.366370402276515960693359375</LongitudeDegrees>
            </Position>
            <AltitudeMeters>704.4000244140625</AltitudeMeters>
            <DistanceMeters>NAN</DistanceMeters>
          </Trackpoint>
          <Trackpoint>
            <Time>2020-12-05T12:05:08.000Z</Time>
            <Position>
              <LatitudeDegrees>36.8290359713137149810791015625</LatitudeDegrees>
              <LongitudeDegrees>-4.3663836456835269927978515625</LongitudeDegrees>
            </Position>
            <AltitudeMeters>704.4000244140625</AltitudeMeters>
            <DistanceMeters>NAN</DistanceMeters>
          </Trackpoint>
          <Trackpoint>
            <Time>2020-12-05T12:05:09.000Z</Time>
            <Position>
              <LatitudeDegrees>36.829039491713047027587890625</LatitudeDegrees>
              <LongitudeDegrees>-4.3663983978331089019775390625</LongitudeDegrees>
            </Position>
            <AltitudeMeters>704.4000244140625</AltitudeMeters>
            <DistanceMeters>NAN</DistanceMeters>
          </Trackpoint>
          <Trackpoint>
            <Time>2020-12-05T12:05:10.000Z</Time>
            <Position>
              <LatitudeDegrees>36.82904376648366451263427734375</LatitudeDegrees>
              <LongitudeDegrees>-4.36641256324946880340576171875</LongitudeDegrees>
            </Position>
            <AltitudeMeters>704.4000244140625</AltitudeMeters>
            <DistanceMeters>NAN</DistanceMeters>
          </Trackpoint>
          <Trackpoint>
            <Time>2020-12-05T12:05:11.000Z</Time>
            <Position>
              <LatitudeDegrees>36.82904787361621856689453125</LatitudeDegrees>
              <LongitudeDegrees>-4.36642848886549472808837890625</LongitudeDegrees>
            </Position>
            <AltitudeMeters>704.4000244140625</AltitudeMeters>
            <DistanceMeters>NAN</DistanceMeters>
          </Trackpoint>
          <Trackpoint>
            <Time>2020-12-05T12:05:12.000Z</Time>
            <Position>
              <LatitudeDegrees>36.8290512263774871826171875</LatitudeDegrees>
              <LongitudeDegrees>-4.3664450012147426605224609375</LongitudeDegrees>
            </Position>
            <AltitudeMeters>704.4000244140625</AltitudeMeters>
            <DistanceMeters>NAN</DistanceMeters>
          </Trackpoint>
          <Trackpoint>
            <Time>2020-12-05T12:05:13.000Z</Time>
            <Position>
              <LatitudeDegrees>36.8290540762245655059814453125</LatitudeDegrees>
              <LongitudeDegrees>-4.36646587215363979339599609375</LongitudeDegrees>
            </Position>
            <AltitudeMeters>704.4000244140625</AltitudeMeters>
            <DistanceMeters>NAN</DistanceMeters>
          </Trackpoint>
          <Trackpoint>
            <Time>2020-12-05T12:05:14.000Z</Time>
            <Position>
              <LatitudeDegrees>36.82905885390937328338623046875</LatitudeDegrees>
              <LongitudeDegrees>-4.36648196540772914886474609375</LongitudeDegrees>
            </Position>
            <AltitudeMeters>704.4000244140625</AltitudeMeters>
            <DistanceMeters>NAN</DistanceMeters>
          </Trackpoint>
          <Trackpoint>
            <Time>2020-12-05T12:05:15.000Z</Time>
            <Position>
              <LatitudeDegrees>36.8290617875754833221435546875</LatitudeDegrees>
              <LongitudeDegrees>-4.36649613082408905029296875</LongitudeDegrees>
            </Position>
            <AltitudeMeters>704.4000244140625</AltitudeMeters>
            <DistanceMeters>NAN</DistanceMeters>
          </Trackpoint>
          <Trackpoint>
            <Time>2020-12-05T12:05:16.000Z</Time>
            <Position>
              <LatitudeDegrees>36.8290641345083713531494140625</LatitudeDegrees>
              <LongitudeDegrees>-4.36651247553527355194091796875</LongitudeDegrees>
            </Position>
            <AltitudeMeters>704.4000244140625</AltitudeMeters>
            <DistanceMeters>NAN</DistanceMeters>
          </Trackpoint>
          <Trackpoint>
            <Time>2020-12-05T12:05:17.000Z</Time>
            <Position>
              <LatitudeDegrees>36.8290651403367519378662109375</LatitudeDegrees>
              <LongitudeDegrees>-4.36652890406548976898193359375</LongitudeDegrees>
            </Position>
            <AltitudeMeters>704.4000244140625</AltitudeMeters>
            <DistanceMeters>NAN</DistanceMeters>
          </Trackpoint>
          <Trackpoint>
            <Time>2020-12-05T12:05:18.000Z</Time>
            <Position>
              <LatitudeDegrees>36.82906329631805419921875</LatitudeDegrees>
              <LongitudeDegrees>-4.3665479309856891632080078125</LongitudeDegrees>
            </Position>
            <AltitudeMeters>704.4000244140625</AltitudeMeters>
            <DistanceMeters>NAN</DistanceMeters>
          </Trackpoint>
          <Trackpoint>
            <Time>2020-12-05T12:05:19.000Z</Time>
            <Position>
              <LatitudeDegrees>36.8290637992322444915771484375</LatitudeDegrees>
              <LongitudeDegrees>-4.36656427569687366485595703125</LongitudeDegrees>
            </Position>
            <AltitudeMeters>704.4000244140625</AltitudeMeters>
            <DistanceMeters>NAN</DistanceMeters>
          </Trackpoint>
          <Trackpoint>
            <Time>2020-12-05T12:05:20.000Z</Time>
            <Position>
              <LatitudeDegrees>36.82906505651772022247314453125</LatitudeDegrees>
              <LongitudeDegrees>-4.36657953076064586639404296875</LongitudeDegrees>
            </Position>
            <AltitudeMeters>704.4000244140625</AltitudeMeters>
            <DistanceMeters>NAN</DistanceMeters>
          </Trackpoint>
          <Trackpoint>
            <Time>2020-12-05T12:05:21.000Z</Time>
            <Position>
              <LatitudeDegrees>36.82906706817448139190673828125</LatitudeDegrees>
              <LongitudeDegrees>-4.3665948696434497833251953125</LongitudeDegrees>
            </Position>
            <AltitudeMeters>704.4000244140625</AltitudeMeters>
            <DistanceMeters>NAN</DistanceMeters>
          </Trackpoint>
          <Trackpoint>
            <Time>2020-12-05T12:05:22.000Z</Time>
            <Position>
              <LatitudeDegrees>36.829067654907703399658203125</LatitudeDegrees>
              <LongitudeDegrees>-4.36661121435463428497314453125</LongitudeDegrees>
            </Position>
            <AltitudeMeters>704.4000244140625</AltitudeMeters>
            <DistanceMeters>NAN</DistanceMeters>
          </Trackpoint>
          <Trackpoint>
            <Time>2020-12-05T12:05:23.000Z</Time>
            <Position>
              <LatitudeDegrees>36.829068660736083984375</LatitudeDegrees>
              <LongitudeDegrees>-4.3666247092187404632568359375</LongitudeDegrees>
            </Position>
            <AltitudeMeters>704.4000244140625</AltitudeMeters>
            <DistanceMeters>NAN</DistanceMeters>
          </Trackpoint>
          <Trackpoint>
            <Time>2020-12-05T12:05:24.000Z</Time>
            <Position>
              <LatitudeDegrees>36.8290684930980205535888671875</LatitudeDegrees>
              <LongitudeDegrees>-4.3666438199579715728759765625</LongitudeDegrees>
            </Position>
            <AltitudeMeters>704.4000244140625</AltitudeMeters>
            <DistanceMeters>NAN</DistanceMeters>
          </Trackpoint>
          <Trackpoint>
            <Time>2020-12-05T12:05:25.000Z</Time>
            <Position>
              <LatitudeDegrees>36.82906824164092540740966796875</LatitudeDegrees>
              <LongitudeDegrees>-4.3666602484881877899169921875</LongitudeDegrees>
            </Position>
            <AltitudeMeters>704.4000244140625</AltitudeMeters>
            <DistanceMeters>NAN</DistanceMeters>
          </Trackpoint>
          <Trackpoint>
            <Time>2020-12-05T12:05:26.000Z</Time>
            <Position>
              <LatitudeDegrees>36.829070337116718292236328125</LatitudeDegrees>
              <LongitudeDegrees>-4.366676844656467437744140625</LongitudeDegrees>
            </Position>
            <AltitudeMeters>704.4000244140625</AltitudeMeters>
            <DistanceMeters>NAN</DistanceMeters>
          </Trackpoint>
          <Trackpoint>
            <Time>2020-12-05T12:05:27.000Z</Time>
            <Position>
              <LatitudeDegrees>36.82907226495444774627685546875</LatitudeDegrees>
              <LongitudeDegrees>-4.36669528484344482421875</LongitudeDegrees>
            </Position>
            <AltitudeMeters>704.4000244140625</AltitudeMeters>
            <DistanceMeters>NAN</DistanceMeters>
          </Trackpoint>
          <Trackpoint>
            <Time>2020-12-05T12:05:28.000Z</Time>
            <Position>
              <LatitudeDegrees>36.8290753662586212158203125</LatitudeDegrees>
              <LongitudeDegrees>-4.3667108751833438873291015625</LongitudeDegrees>
            </Position>
            <AltitudeMeters>704.4000244140625</AltitudeMeters>
            <DistanceMeters>NAN</DistanceMeters>
          </Trackpoint>
          <Trackpoint>
            <Time>2020-12-05T12:05:29.000Z</Time>
            <Position>
              <LatitudeDegrees>36.82907871901988983154296875</LatitudeDegrees>
              <LongitudeDegrees>-4.3667252920567989349365234375</LongitudeDegrees>
            </Position>
            <AltitudeMeters>704.4000244140625</AltitudeMeters>
            <DistanceMeters>NAN</DistanceMeters>
          </Trackpoint>
          <Trackpoint>
            <Time>2020-12-05T12:05:30.000Z</Time>
            <Position>
              <LatitudeDegrees>36.82907871901988983154296875</LatitudeDegrees>
              <LongitudeDegrees>-4.36674012802541255950927734375</LongitudeDegrees>
            </Position>
            <AltitudeMeters>704.4000244140625</AltitudeMeters>
            <DistanceMeters>NAN</DistanceMeters>
          </Trackpoint>
          <Trackpoint>
            <Time>2020-12-05T12:05:31.000Z</Time>
            <Position>
              <LatitudeDegrees>36.8290798924863338470458984375</LatitudeDegrees>
              <LongitudeDegrees>-4.366753958165645599365234375</LongitudeDegrees>
            </Position>
            <AltitudeMeters>704.4000244140625</AltitudeMeters>
            <DistanceMeters>NAN</DistanceMeters>
          </Trackpoint>
          <Trackpoint>
            <Time>2020-12-05T12:05:32.000Z</Time>
            <Position>
              <LatitudeDegrees>36.82908274233341217041015625</LatitudeDegrees>
              <LongitudeDegrees>-4.36676594428718090057373046875</LongitudeDegrees>
            </Position>
            <AltitudeMeters>704.4000244140625</AltitudeMeters>
            <DistanceMeters>NAN</DistanceMeters>
          </Trackpoint>
          <Trackpoint>
            <Time>2020-12-05T12:05:33.000Z</Time>
            <Position>
              <LatitudeDegrees>36.82908500544726848602294921875</LatitudeDegrees>
              <LongitudeDegrees>-4.36677734367549419403076171875</LongitudeDegrees>
            </Position>
            <AltitudeMeters>704.4000244140625</AltitudeMeters>
            <DistanceMeters>NAN</DistanceMeters>
          </Trackpoint>
          <Trackpoint>
            <Time>2020-12-05T12:05:34.000Z</Time>
            <Position>
              <LatitudeDegrees>36.82909389026463031768798828125</LatitudeDegrees>
              <LongitudeDegrees>-4.36678983271121978759765625</LongitudeDegrees>
            </Position>
            <AltitudeMeters>704.4000244140625</AltitudeMeters>
            <DistanceMeters>NAN</DistanceMeters>
          </Trackpoint>
          <Trackpoint>
            <Time>2020-12-05T12:05:35.000Z</Time>
            <Position>
              <LatitudeDegrees>36.8291090615093708038330078125</LatitudeDegrees>
              <LongitudeDegrees>-4.3667953647673130035400390625</LongitudeDegrees>
            </Position>
            <AltitudeMeters>704.4000244140625</AltitudeMeters>
            <DistanceMeters>NAN</DistanceMeters>
          </Trackpoint>
          <Trackpoint>
            <Time>2020-12-05T12:05:36.000Z</Time>
            <Position>
              <LatitudeDegrees>36.829117275774478912353515625</LatitudeDegrees>
              <LongitudeDegrees>-4.36680584214627742767333984375</LongitudeDegrees>
            </Position>
            <AltitudeMeters>704.4000244140625</AltitudeMeters>
            <DistanceMeters>NAN</DistanceMeters>
          </Trackpoint>
          <Trackpoint>
            <Time>2020-12-05T12:05:37.000Z</Time>
            <Position>
              <LatitudeDegrees>36.82912766933441162109375</LatitudeDegrees>
              <LongitudeDegrees>-4.3668138049542903900146484375</LongitudeDegrees>
            </Position>
            <AltitudeMeters>704.4000244140625</AltitudeMeters>
            <DistanceMeters>NAN</DistanceMeters>
          </Trackpoint>
          <Trackpoint>
            <Time>2020-12-05T12:05:38.000Z</Time>
            <Position>
              <LatitudeDegrees>36.8291419185698032379150390625</LatitudeDegrees>
              <LongitudeDegrees>-4.3668144755065441131591796875</LongitudeDegrees>
            </Position>
            <AltitudeMeters>704.4000244140625</AltitudeMeters>
            <DistanceMeters>NAN</DistanceMeters>
          </Trackpoint>
          <Trackpoint>
            <Time>2020-12-05T12:05:39.000Z</Time>
            <Position>
              <LatitudeDegrees>36.82915306650102138519287109375</LatitudeDegrees>
              <LongitudeDegrees>-4.3668164871633052825927734375</LongitudeDegrees>
            </Position>
            <AltitudeMeters>704.4000244140625</AltitudeMeters>
            <DistanceMeters>NAN</DistanceMeters>
          </Trackpoint>
          <Trackpoint>
            <Time>2020-12-05T12:05:40.000Z</Time>
            <Position>
              <LatitudeDegrees>36.82915893383324146270751953125</LatitudeDegrees>
              <LongitudeDegrees>-4.36681254766881465911865234375</LongitudeDegrees>
            </Position>
            <AltitudeMeters>704.4000244140625</AltitudeMeters>
            <DistanceMeters>NAN</DistanceMeters>
          </Trackpoint>
          <Trackpoint>
            <Time>2020-12-05T12:05:41.000Z</Time>
            <Position>
              <LatitudeDegrees>36.82916312478482723236083984375</LatitudeDegrees>
              <LongitudeDegrees>-4.366808943450450897216796875</LongitudeDegrees>
            </Position>
            <AltitudeMeters>704.4000244140625</AltitudeMeters>
            <DistanceMeters>NAN</DistanceMeters>
          </Trackpoint>
          <Trackpoint>
            <Time>2020-12-05T12:05:42.000Z</Time>
            <Position>
              <LatitudeDegrees>36.82916857302188873291015625</LatitudeDegrees>
              <LongitudeDegrees>-4.366800896823406219482421875</LongitudeDegrees>
            </Position>
            <AltitudeMeters>704.4000244140625</AltitudeMeters>
            <DistanceMeters>NAN</DistanceMeters>
          </Trackpoint>
          <Trackpoint>
            <Time>2020-12-05T12:05:43.000Z</Time>
            <Position>
              <LatitudeDegrees>36.82917770929634571075439453125</LatitudeDegrees>
              <LongitudeDegrees>-4.36679326929152011871337890625</LongitudeDegrees>
            </Position>
            <AltitudeMeters>704.4000244140625</AltitudeMeters>
            <DistanceMeters>NAN</DistanceMeters>
          </Trackpoint>
          <Trackpoint>
            <Time>2020-12-05T12:05:44.000Z</Time>
            <Position>
              <LatitudeDegrees>36.8291801400482654571533203125</LatitudeDegrees>
              <LongitudeDegrees>-4.36679385602474212646484375</LongitudeDegrees>
            </Position>
            <AltitudeMeters>704.4000244140625</AltitudeMeters>
            <DistanceMeters>NAN</DistanceMeters>
          </Trackpoint>
          <Trackpoint>
            <Time>2020-12-05T12:05:45.000Z</Time>
            <Position>
              <LatitudeDegrees>36.8291844986379146575927734375</LatitudeDegrees>
              <LongitudeDegrees>-4.3667910061776638031005859375</LongitudeDegrees>
            </Position>
            <AltitudeMeters>704.4000244140625</AltitudeMeters>
            <DistanceMeters>NAN</DistanceMeters>
          </Trackpoint>
          <Trackpoint>
            <Time>2020-12-05T12:05:46.000Z</Time>
            <Position>
              <LatitudeDegrees>36.82918676175177097320556640625</LatitudeDegrees>
              <LongitudeDegrees>-4.3667883239686489105224609375</LongitudeDegrees>
            </Position>
            <AltitudeMeters>704.4000244140625</AltitudeMeters>
            <DistanceMeters>NAN</DistanceMeters>
          </Trackpoint>
          <Trackpoint>
            <Time>2020-12-05T12:05:47.000Z</Time>
            <Position>
              <LatitudeDegrees>36.829194724559783935546875</LatitudeDegrees>
              <LongitudeDegrees>-4.36678019352257251739501953125</LongitudeDegrees>
            </Position>
            <AltitudeMeters>704.4000244140625</AltitudeMeters>
            <DistanceMeters>NAN</DistanceMeters>
          </Trackpoint>
          <Trackpoint>
            <Time>2020-12-05T12:05:48.000Z</Time>
            <Position>
              <LatitudeDegrees>36.82919807732105255126953125</LatitudeDegrees>
              <LongitudeDegrees>-4.36677239835262298583984375</LongitudeDegrees>
            </Position>
            <AltitudeMeters>704.4000244140625</AltitudeMeters>
            <DistanceMeters>NAN</DistanceMeters>
          </Trackpoint>
          <Trackpoint>
            <Time>2020-12-05T12:05:49.000Z</Time>
            <Position>
              <LatitudeDegrees>36.8292019329965114593505859375</LatitudeDegrees>
              <LongitudeDegrees>-4.36676745302975177764892578125</LongitudeDegrees>
            </Position>
            <AltitudeMeters>704.4000244140625</AltitudeMeters>
            <DistanceMeters>NAN</DistanceMeters>
          </Trackpoint>
          <Trackpoint>
            <Time>2020-12-05T12:05:50.000Z</Time>
            <Position>
              <LatitudeDegrees>36.82920344173908233642578125</LatitudeDegrees>
              <LongitudeDegrees>-4.366766698658466339111328125</LongitudeDegrees>
            </Position>
            <AltitudeMeters>704.4000244140625</AltitudeMeters>
            <DistanceMeters>NAN</DistanceMeters>
          </Trackpoint>
          <Trackpoint>
            <Time>2020-12-05T12:05:51.000Z</Time>
            <Position>
              <LatitudeDegrees>36.82920369319617748260498046875</LatitudeDegrees>
              <LongitudeDegrees>-4.3667685426771640777587890625</LongitudeDegrees>
            </Position>
            <AltitudeMeters>704.4000244140625</AltitudeMeters>
            <DistanceMeters>NAN</DistanceMeters>
          </Trackpoint>
          <Trackpoint>
            <Time>2020-12-05T12:05:52.000Z</Time>
            <Position>
              <LatitudeDegrees>36.829205788671970367431640625</LatitudeDegrees>
              <LongitudeDegrees>-4.36676979996263980865478515625</LongitudeDegrees>
            </Position>
            <AltitudeMeters>704.4000244140625</AltitudeMeters>
            <DistanceMeters>NAN</DistanceMeters>
          </Trackpoint>
          <Trackpoint>
            <Time>2020-12-05T12:05:53.000Z</Time>
            <Position>
              <LatitudeDegrees>36.8292069621384143829345703125</LatitudeDegrees>
              <LongitudeDegrees>-4.36677239835262298583984375</LongitudeDegrees>
            </Position>
            <AltitudeMeters>704.4000244140625</AltitudeMeters>
            <DistanceMeters>NAN</DistanceMeters>
          </Trackpoint>
          <Trackpoint>
            <Time>2020-12-05T12:05:54.000Z</Time>
            <Position>
              <LatitudeDegrees>36.8292066268622875213623046875</LatitudeDegrees>
              <LongitudeDegrees>-4.3667749129235744476318359375</LongitudeDegrees>
            </Position>
            <AltitudeMeters>704.4000244140625</AltitudeMeters>
            <DistanceMeters>NAN</DistanceMeters>
          </Trackpoint>
          <Trackpoint>
            <Time>2020-12-05T12:05:55.000Z</Time>
            <Position>
              <LatitudeDegrees>36.82920386083424091339111328125</LatitudeDegrees>
              <LongitudeDegrees>-4.36677600257098674774169921875</LongitudeDegrees>
            </Position>
            <AltitudeMeters>704.4000244140625</AltitudeMeters>
            <DistanceMeters>NAN</DistanceMeters>
          </Trackpoint>
          <Trackpoint>
            <Time>2020-12-05T12:05:56.000Z</Time>
            <Position>
              <LatitudeDegrees>36.8292019329965114593505859375</LatitudeDegrees>
              <LongitudeDegrees>-4.36677734367549419403076171875</LongitudeDegrees>
            </Position>
            <AltitudeMeters>704.4000244140625</AltitudeMeters>
            <DistanceMeters>NAN</DistanceMeters>
          </Trackpoint>
          <Trackpoint>
            <Time>2020-12-05T12:05:57.000Z</Time>
            <Position>
              <LatitudeDegrees>36.829204447567462921142578125</LatitudeDegrees>
              <LongitudeDegrees>-4.3667802773416042327880859375</LongitudeDegrees>
            </Position>
            <AltitudeMeters>704.4000244140625</AltitudeMeters>
            <DistanceMeters>NAN</DistanceMeters>
          </Trackpoint>
          <Trackpoint>
            <Time>2020-12-05T12:05:58.000Z</Time>
            <Position>
              <LatitudeDegrees>36.82920201681554317474365234375</LatitudeDegrees>
              <LongitudeDegrees>-4.36678136698901653289794921875</LongitudeDegrees>
            </Position>
            <AltitudeMeters>704.4000244140625</AltitudeMeters>
            <DistanceMeters>NAN</DistanceMeters>
          </Trackpoint>
          <Trackpoint>
            <Time>2020-12-05T12:05:59.000Z</Time>
            <Position>
              <LatitudeDegrees>36.82920067571103572845458984375</LatitudeDegrees>
              <LongitudeDegrees>-4.36678086407482624053955078125</LongitudeDegrees>
            </Position>
            <AltitudeMeters>704.4000244140625</AltitudeMeters>
            <DistanceMeters>NAN</DistanceMeters>
          </Trackpoint>
          <Trackpoint>
            <Time>2020-12-05T12:06:00.000Z</Time>
            <Position>
              <LatitudeDegrees>36.829199753701686859130859375</LatitudeDegrees>
              <LongitudeDegrees>-4.36677952297031879425048828125</LongitudeDegrees>
            </Position>
            <AltitudeMeters>698.4000244140625</AltitudeMeters>
            <DistanceMeters>NAN</DistanceMeters>
          </Trackpoint>
          <Trackpoint>
            <Time>2020-12-05T12:06:01.000Z</Time>
            <Position>
              <LatitudeDegrees>36.82919866405427455902099609375</LatitudeDegrees>
              <LongitudeDegrees>-4.366778098046779632568359375</LongitudeDegrees>
            </Position>
            <AltitudeMeters>698.4000244140625</AltitudeMeters>
            <DistanceMeters>NAN</DistanceMeters>
          </Trackpoint>
          <Trackpoint>
            <Time>2020-12-05T12:06:02.000Z</Time>
            <Position>
              <LatitudeDegrees>36.82920201681554317474365234375</LatitudeDegrees>
              <LongitudeDegrees>-4.3667742423713207244873046875</LongitudeDegrees>
            </Position>
            <AltitudeMeters>698.4000244140625</AltitudeMeters>
            <DistanceMeters>NAN</DistanceMeters>
          </Trackpoint>
          <Trackpoint>
            <Time>2020-12-05T12:06:03.000Z</Time>
            <Position>
              <LatitudeDegrees>36.82920604012906551361083984375</LatitudeDegrees>
              <LongitudeDegrees>-4.36677047051489353179931640625</LongitudeDegrees>
            </Position>
            <AltitudeMeters>698.4000244140625</AltitudeMeters>
            <DistanceMeters>NAN</DistanceMeters>
          </Trackpoint>
          <Trackpoint>
            <Time>2020-12-05T12:06:04.000Z</Time>
            <Position>
              <LatitudeDegrees>36.829205453395843505859375</LatitudeDegrees>
              <LongitudeDegrees>-4.36676711775362491607666015625</LongitudeDegrees>
            </Position>
            <AltitudeMeters>698.4000244140625</AltitudeMeters>
            <DistanceMeters>NAN</DistanceMeters>
          </Trackpoint>
          <Trackpoint>
            <Time>2020-12-05T12:06:05.000Z</Time>
            <Position>
              <LatitudeDegrees>36.829206459224224090576171875</LatitudeDegrees>
              <LongitudeDegrees>-4.36676032841205596923828125</LongitudeDegrees>
            </Position>
            <AltitudeMeters>698.4000244140625</AltitudeMeters>
            <DistanceMeters>NAN</DistanceMeters>
          </Trackpoint>
          <Trackpoint>
            <Time>2020-12-05T12:06:06.000Z</Time>
            <Position>
              <LatitudeDegrees>36.82920704595744609832763671875</LatitudeDegrees>
              <LongitudeDegrees>-4.36675370670855045318603515625</LongitudeDegrees>
            </Position>
            <AltitudeMeters>698.4000244140625</AltitudeMeters>
            <DistanceMeters>NAN</DistanceMeters>
          </Trackpoint>
          <Trackpoint>
            <Time>2020-12-05T12:06:07.000Z</Time>
            <Position>
              <LatitudeDegrees>36.8292067945003509521484375</LatitudeDegrees>
              <LongitudeDegrees>-4.36674918048083782196044921875</LongitudeDegrees>
            </Position>
            <AltitudeMeters>698.4000244140625</AltitudeMeters>
            <DistanceMeters>NAN</DistanceMeters>
          </Trackpoint>
          <Trackpoint>
            <Time>2020-12-05T12:06:08.000Z</Time>
            <Position>
              <LatitudeDegrees>36.82920570485293865203857421875</LatitudeDegrees>
              <LongitudeDegrees>-4.36674691736698150634765625</LongitudeDegrees>
            </Position>
            <AltitudeMeters>698.4000244140625</AltitudeMeters>
            <DistanceMeters>NAN</DistanceMeters>
          </Trackpoint>
          <Trackpoint>
            <Time>2020-12-05T12:06:09.000Z</Time>
            <Position>
              <LatitudeDegrees>36.82920419611036777496337890625</LatitudeDegrees>
              <LongitudeDegrees>-4.36674716882407665252685546875</LongitudeDegrees>
            </Position>
            <AltitudeMeters>698.4000244140625</AltitudeMeters>
            <DistanceMeters>NAN</DistanceMeters>
          </Trackpoint>
          <Trackpoint>
            <Time>2020-12-05T12:06:10.000Z</Time>
            <Position>
              <LatitudeDegrees>36.82920251972973346710205078125</LatitudeDegrees>
              <LongitudeDegrees>-4.36675219796597957611083984375</LongitudeDegrees>
            </Position>
            <AltitudeMeters>698.4000244140625</AltitudeMeters>
            <DistanceMeters>NAN</DistanceMeters>
          </Trackpoint>
          <Trackpoint>
            <Time>2020-12-05T12:06:11.000Z</Time>
            <Position>
              <LatitudeDegrees>36.82920402847230434417724609375</LatitudeDegrees>
              <LongitudeDegrees>-4.36675605364143848419189453125</LongitudeDegrees>
            </Position>
            <AltitudeMeters>698.4000244140625</AltitudeMeters>
            <DistanceMeters>NAN</DistanceMeters>
          </Trackpoint>
          <Trackpoint>
            <Time>2020-12-05T12:06:12.000Z</Time>
            <Position>
              <LatitudeDegrees>36.829205453395843505859375</LatitudeDegrees>
              <LongitudeDegrees>-4.3667594902217388153076171875</LongitudeDegrees>
            </Position>
            <AltitudeMeters>698.4000244140625</AltitudeMeters>
            <DistanceMeters>NAN</DistanceMeters>
          </Trackpoint>
          <Trackpoint>
            <Time>2020-12-05T12:06:13.000Z</Time>
            <Position>
              <LatitudeDegrees>36.8292036093771457672119140625</LatitudeDegrees>
              <LongitudeDegrees>-4.36676393263041973114013671875</LongitudeDegrees>
            </Position>
            <AltitudeMeters>698.4000244140625</AltitudeMeters>
            <DistanceMeters>NAN</DistanceMeters>
          </Trackpoint>
          <Trackpoint>
            <Time>2020-12-05T12:06:14.000Z</Time>
            <Position>
              <LatitudeDegrees>36.82920344173908233642578125</LatitudeDegrees>
              <LongitudeDegrees>-4.36676837503910064697265625</LongitudeDegrees>
            </Position>
            <AltitudeMeters>698.4000244140625</AltitudeMeters>
            <DistanceMeters>NAN</DistanceMeters>
          </Trackpoint>
          <Trackpoint>
            <Time>2020-12-05T12:06:15.000Z</Time>
            <Position>
              <LatitudeDegrees>36.829200424253940582275390625</LatitudeDegrees>
              <LongitudeDegrees>-4.36677449382841587066650390625</LongitudeDegrees>
            </Position>
            <AltitudeMeters>698.4000244140625</AltitudeMeters>
            <DistanceMeters>NAN</DistanceMeters>
          </Trackpoint>
          <Trackpoint>
            <Time>2020-12-05T12:06:16.000Z</Time>
            <Position>
              <LatitudeDegrees>36.82919983752071857452392578125</LatitudeDegrees>
              <LongitudeDegrees>-4.3667765893042087554931640625</LongitudeDegrees>
            </Position>
            <AltitudeMeters>698.4000244140625</AltitudeMeters>
            <DistanceMeters>NAN</DistanceMeters>
          </Trackpoint>
          <Trackpoint>
            <Time>2020-12-05T12:06:17.000Z</Time>
            <Position>
              <LatitudeDegrees>36.82919807732105255126953125</LatitudeDegrees>
              <LongitudeDegrees>-4.36677667312324047088623046875</LongitudeDegrees>
            </Position>
            <AltitudeMeters>698.4000244140625</AltitudeMeters>
            <DistanceMeters>NAN</DistanceMeters>
          </Trackpoint>
          <Trackpoint>
            <Time>2020-12-05T12:06:18.000Z</Time>
            <Position>
              <LatitudeDegrees>36.82919715531170368194580078125</LatitudeDegrees>
              <LongitudeDegrees>-4.36677365563809871673583984375</LongitudeDegrees>
            </Position>
            <AltitudeMeters>698.4000244140625</AltitudeMeters>
            <DistanceMeters>NAN</DistanceMeters>
          </Trackpoint>
          <Trackpoint>
            <Time>2020-12-05T12:06:19.000Z</Time>
            <Position>
              <LatitudeDegrees>36.8291952274739742279052734375</LatitudeDegrees>
              <LongitudeDegrees>-4.366774074733257293701171875</LongitudeDegrees>
            </Position>
            <AltitudeMeters>698.4000244140625</AltitudeMeters>
            <DistanceMeters>NAN</DistanceMeters>
          </Trackpoint>
          <Trackpoint>
            <Time>2020-12-05T12:06:20.000Z</Time>
            <Position>
              <LatitudeDegrees>36.82919128797948360443115234375</LatitudeDegrees>
              <LongitudeDegrees>-4.36677315272390842437744140625</LongitudeDegrees>
            </Position>
            <AltitudeMeters>698.4000244140625</AltitudeMeters>
            <DistanceMeters>NAN</DistanceMeters>
          </Trackpoint>
          <Trackpoint>
            <Time>2020-12-05T12:06:21.000Z</Time>
            <Position>
              <LatitudeDegrees>36.8291878513991832733154296875</LatitudeDegrees>
              <LongitudeDegrees>-4.366774074733257293701171875</LongitudeDegrees>
            </Position>
            <AltitudeMeters>698.4000244140625</AltitudeMeters>
            <DistanceMeters>NAN</DistanceMeters>
          </Trackpoint>
          <Trackpoint>
            <Time>2020-12-05T12:06:22.000Z</Time>
            <Position>
              <LatitudeDegrees>36.82918391190469264984130859375</LatitudeDegrees>
              <LongitudeDegrees>-4.36677952297031879425048828125</LongitudeDegrees>
            </Position>
            <AltitudeMeters>698.4000244140625</AltitudeMeters>
            <DistanceMeters>NAN</DistanceMeters>
          </Trackpoint>
          <Trackpoint>
            <Time>2020-12-05T12:06:23.000Z</Time>
            <Position>
              <LatitudeDegrees>36.82918340899050235748291015625</LatitudeDegrees>
              <LongitudeDegrees>-4.36678639613091945648193359375</LongitudeDegrees>
            </Position>
            <AltitudeMeters>698.4000244140625</AltitudeMeters>
            <DistanceMeters>NAN</DistanceMeters>
          </Trackpoint>
          <Trackpoint>
            <Time>2020-12-05T12:06:24.000Z</Time>
            <Position>
              <LatitudeDegrees>36.8291875161230564117431640625</LatitudeDegrees>
              <LongitudeDegrees>-4.36679846607148647308349609375</LongitudeDegrees>
            </Position>
            <AltitudeMeters>698.4000244140625</AltitudeMeters>
            <DistanceMeters>NAN</DistanceMeters>
          </Trackpoint>
          <Trackpoint>
            <Time>2020-12-05T12:06:25.000Z</Time>
            <Position>
              <LatitudeDegrees>36.8291985802352428436279296875</LatitudeDegrees>
              <LongitudeDegrees>-4.36681070365011692047119140625</LongitudeDegrees>
            </Position>
            <AltitudeMeters>698.4000244140625</AltitudeMeters>
            <DistanceMeters>NAN</DistanceMeters>
          </Trackpoint>
          <Trackpoint>
            <Time>2020-12-05T12:06:26.000Z</Time>
            <Position>
              <LatitudeDegrees>36.82920302264392375946044921875</LatitudeDegrees>
              <LongitudeDegrees>-4.36682076193392276763916015625</LongitudeDegrees>
            </Position>
            <AltitudeMeters>698.4000244140625</AltitudeMeters>
            <DistanceMeters>NAN</DistanceMeters>
          </Trackpoint>
          <Trackpoint>
            <Time>2020-12-05T12:06:27.000Z</Time>
            <Position>
              <LatitudeDegrees>36.82920335792005062103271484375</LatitudeDegrees>
              <LongitudeDegrees>-4.3668298982083797454833984375</LongitudeDegrees>
            </Position>
            <AltitudeMeters>698.4000244140625</AltitudeMeters>
            <DistanceMeters>NAN</DistanceMeters>
          </Trackpoint>
          <Trackpoint>
            <Time>2020-12-05T12:06:28.000Z</Time>
            <Position>
              <LatitudeDegrees>36.8292036093771457672119140625</LatitudeDegrees>
              <LongitudeDegrees>-4.36684356071054935455322265625</LongitudeDegrees>
            </Position>
            <AltitudeMeters>698.4000244140625</AltitudeMeters>
            <DistanceMeters>NAN</DistanceMeters>
          </Trackpoint>
          <Trackpoint>
            <Time>2020-12-05T12:06:29.000Z</Time>
            <Position>
              <LatitudeDegrees>36.8291995860636234283447265625</LatitudeDegrees>
              <LongitudeDegrees>-4.36685026623308658599853515625</LongitudeDegrees>
            </Position>
            <AltitudeMeters>698.4000244140625</AltitudeMeters>
            <DistanceMeters>NAN</DistanceMeters>
          </Trackpoint>
          <Trackpoint>
            <Time>2020-12-05T12:06:30.000Z</Time>
            <Position>
              <LatitudeDegrees>36.8291952274739742279052734375</LatitudeDegrees>
              <LongitudeDegrees>-4.366856552660465240478515625</LongitudeDegrees>
            </Position>
            <AltitudeMeters>698.4000244140625</AltitudeMeters>
            <DistanceMeters>NAN</DistanceMeters>
          </Trackpoint>
          <Trackpoint>
            <Time>2020-12-05T12:06:31.000Z</Time>
            <Position>
              <LatitudeDegrees>36.8291853368282318115234375</LatitudeDegrees>
              <LongitudeDegrees>-4.36686895787715911865234375</LongitudeDegrees>
            </Position>
            <AltitudeMeters>698.4000244140625</AltitudeMeters>
            <DistanceMeters>NAN</DistanceMeters>
          </Trackpoint>
          <Trackpoint>
            <Time>2020-12-05T12:06:32.000Z</Time>
            <Position>
              <LatitudeDegrees>36.82918307371437549591064453125</LatitudeDegrees>
              <LongitudeDegrees>-4.36687775887548923492431640625</LongitudeDegrees>
            </Position>
            <AltitudeMeters>698.4000244140625</AltitudeMeters>
            <DistanceMeters>NAN</DistanceMeters>
          </Trackpoint>
          <Trackpoint>
            <Time>2020-12-05T12:06:33.000Z</Time>
            <Position>
              <LatitudeDegrees>36.82918424718081951141357421875</LatitudeDegrees>
              <LongitudeDegrees>-4.36688479967415332794189453125</LongitudeDegrees>
            </Position>
            <AltitudeMeters>698.4000244140625</AltitudeMeters>
            <DistanceMeters>NAN</DistanceMeters>
          </Trackpoint>
          <Trackpoint>
            <Time>2020-12-05T12:06:34.000Z</Time>
            <Position>
              <LatitudeDegrees>36.82918910868465900421142578125</LatitudeDegrees>
              <LongitudeDegrees>-4.3668879009783267974853515625</LongitudeDegrees>
            </Position>
            <AltitudeMeters>698.4000244140625</AltitudeMeters>
            <DistanceMeters>NAN</DistanceMeters>
          </Trackpoint>
          <Trackpoint>
            <Time>2020-12-05T12:06:35.000Z</Time>
            <Position>
              <LatitudeDegrees>36.82919397018849849700927734375</LatitudeDegrees>
              <LongitudeDegrees>-4.36689049936830997467041015625</LongitudeDegrees>
            </Position>
            <AltitudeMeters>698.4000244140625</AltitudeMeters>
            <DistanceMeters>NAN</DistanceMeters>
          </Trackpoint>
          <Trackpoint>
            <Time>2020-12-05T12:06:36.000Z</Time>
            <Position>
              <LatitudeDegrees>36.8291995860636234283447265625</LatitudeDegrees>
              <LongitudeDegrees>-4.3668939359486103057861328125</LongitudeDegrees>
            </Position>
            <AltitudeMeters>698.4000244140625</AltitudeMeters>
            <DistanceMeters>NAN</DistanceMeters>
          </Trackpoint>
          <Trackpoint>
            <Time>2020-12-05T12:06:37.000Z</Time>
            <Position>
              <LatitudeDegrees>36.8292056210339069366455078125</LatitudeDegrees>
              <LongitudeDegrees>-4.3669033236801624298095703125</LongitudeDegrees>
            </Position>
            <AltitudeMeters>698.4000244140625</AltitudeMeters>
            <DistanceMeters>NAN</DistanceMeters>
          </Trackpoint>
          <Trackpoint>
            <Time>2020-12-05T12:06:38.000Z</Time>
            <Position>
              <LatitudeDegrees>36.82920972816646099090576171875</LatitudeDegrees>
              <LongitudeDegrees>-4.36690977774560451507568359375</LongitudeDegrees>
            </Position>
            <AltitudeMeters>698.4000244140625</AltitudeMeters>
            <DistanceMeters>NAN</DistanceMeters>
          </Trackpoint>
          <Trackpoint>
            <Time>2020-12-05T12:06:39.000Z</Time>
            <Position>
              <LatitudeDegrees>36.829216182231903076171875</LatitudeDegrees>
              <LongitudeDegrees>-4.366914890706539154052734375</LongitudeDegrees>
            </Position>
            <AltitudeMeters>700.5999755859375</AltitudeMeters>
            <DistanceMeters>NAN</DistanceMeters>
          </Trackpoint>
          <Trackpoint>
            <Time>2020-12-05T12:06:40.000Z</Time>
            <Position>
              <LatitudeDegrees>36.8292237259447574615478515625</LatitudeDegrees>
              <LongitudeDegrees>-4.366918243467807769775390625</LongitudeDegrees>
            </Position>
            <AltitudeMeters>700.5999755859375</AltitudeMeters>
            <DistanceMeters>NAN</DistanceMeters>
          </Trackpoint>
          <Trackpoint>
            <Time>2020-12-05T12:06:41.000Z</Time>
            <Position>
              <LatitudeDegrees>36.829231940209865570068359375</LatitudeDegrees>
              <LongitudeDegrees>-4.36692184768617153167724609375</LongitudeDegrees>
            </Position>
            <AltitudeMeters>700.5999755859375</AltitudeMeters>
            <DistanceMeters>NAN</DistanceMeters>
          </Trackpoint>
          <Trackpoint>
            <Time>2020-12-05T12:06:42.000Z</Time>
            <Position>
              <LatitudeDegrees>36.829240657389163970947265625</LatitudeDegrees>
              <LongitudeDegrees>-4.36692486517131328582763671875</LongitudeDegrees>
            </Position>
            <AltitudeMeters>700.5999755859375</AltitudeMeters>
            <DistanceMeters>NAN</DistanceMeters>
          </Trackpoint>
          <Trackpoint>
            <Time>2020-12-05T12:06:43.000Z</Time>
            <Position>
              <LatitudeDegrees>36.8292470276355743408203125</LatitudeDegrees>
              <LongitudeDegrees>-4.366928637027740478515625</LongitudeDegrees>
            </Position>
            <AltitudeMeters>700.5999755859375</AltitudeMeters>
            <DistanceMeters>NAN</DistanceMeters>
          </Trackpoint>
          <Trackpoint>
            <Time>2020-12-05T12:06:44.000Z</Time>
            <Position>
              <LatitudeDegrees>36.8292545713484287261962890625</LatitudeDegrees>
              <LongitudeDegrees>-4.36693525873124599456787109375</LongitudeDegrees>
            </Position>
            <AltitudeMeters>700.5999755859375</AltitudeMeters>
            <DistanceMeters>NAN</DistanceMeters>
          </Trackpoint>
          <Trackpoint>
            <Time>2020-12-05T12:06:45.000Z</Time>
            <Position>
              <LatitudeDegrees>36.82926270179450511932373046875</LatitudeDegrees>
              <LongitudeDegrees>-4.3669433891773223876953125</LongitudeDegrees>
            </Position>
            <AltitudeMeters>700.5999755859375</AltitudeMeters>
            <DistanceMeters>NAN</DistanceMeters>
          </Trackpoint>
          <Trackpoint>
            <Time>2020-12-05T12:06:46.000Z</Time>
            <Position>
              <LatitudeDegrees>36.8292696587741374969482421875</LatitudeDegrees>
              <LongitudeDegrees>-4.366951100528240203857421875</LongitudeDegrees>
            </Position>
            <AltitudeMeters>700.5999755859375</AltitudeMeters>
            <DistanceMeters>NAN</DistanceMeters>
          </Trackpoint>
          <Trackpoint>
            <Time>2020-12-05T12:06:47.000Z</Time>
            <Position>
              <LatitudeDegrees>36.8292750231921672821044921875</LatitudeDegrees>
              <LongitudeDegrees>-4.36695872806012630462646484375</LongitudeDegrees>
            </Position>
            <AltitudeMeters>700.5999755859375</AltitudeMeters>
            <DistanceMeters>NAN</DistanceMeters>
          </Trackpoint>
          <Trackpoint>
            <Time>2020-12-05T12:06:48.000Z</Time>
            <Position>
              <LatitudeDegrees>36.82927929796278476715087890625</LatitudeDegrees>
              <LongitudeDegrees>-4.36696551740169525146484375</LongitudeDegrees>
            </Position>
            <AltitudeMeters>700.5999755859375</AltitudeMeters>
            <DistanceMeters>NAN</DistanceMeters>
          </Trackpoint>
          <Trackpoint>
            <Time>2020-12-05T12:06:49.000Z</Time>
            <Position>
              <LatitudeDegrees>36.8292834050953388214111328125</LatitudeDegrees>
              <LongitudeDegrees>-4.3669700436294078826904296875</LongitudeDegrees>
            </Position>
            <AltitudeMeters>700.5999755859375</AltitudeMeters>
            <DistanceMeters>NAN</DistanceMeters>
          </Trackpoint>
          <Trackpoint>
            <Time>2020-12-05T12:06:50.000Z</Time>
            <Position>
              <LatitudeDegrees>36.8292857520282268524169921875</LatitudeDegrees>
              <LongitudeDegrees>-4.366975910961627960205078125</LongitudeDegrees>
            </Position>
            <AltitudeMeters>700.5999755859375</AltitudeMeters>
            <DistanceMeters>NAN</DistanceMeters>
          </Trackpoint>
          <Trackpoint>
            <Time>2020-12-05T12:06:51.000Z</Time>
            <Position>
              <LatitudeDegrees>36.82929052971303462982177734375</LatitudeDegrees>
              <LongitudeDegrees>-4.366981275379657745361328125</LongitudeDegrees>
            </Position>
            <AltitudeMeters>700.5999755859375</AltitudeMeters>
            <DistanceMeters>NAN</DistanceMeters>
          </Trackpoint>
          <Trackpoint>
            <Time>2020-12-05T12:06:52.000Z</Time>
            <Position>
              <LatitudeDegrees>36.8292953073978424072265625</LatitudeDegrees>
              <LongitudeDegrees>-4.3669884838163852691650390625</LongitudeDegrees>
            </Position>
            <AltitudeMeters>700.5999755859375</AltitudeMeters>
            <DistanceMeters>NAN</DistanceMeters>
          </Trackpoint>
          <Trackpoint>
            <Time>2020-12-05T12:06:53.000Z</Time>
            <Position>
              <LatitudeDegrees>36.82930058799684047698974609375</LatitudeDegrees>
              <LongitudeDegrees>-4.366998374462127685546875</LongitudeDegrees>
            </Position>
            <AltitudeMeters>700.5999755859375</AltitudeMeters>
            <DistanceMeters>NAN</DistanceMeters>
          </Trackpoint>
          <Trackpoint>
            <Time>2020-12-05T12:06:54.000Z</Time>
            <Position>
              <LatitudeDegrees>36.829306371510028839111328125</LatitudeDegrees>
              <LongitudeDegrees>-4.36700650490820407867431640625</LongitudeDegrees>
            </Position>
            <AltitudeMeters>700.5999755859375</AltitudeMeters>
            <DistanceMeters>NAN</DistanceMeters>
          </Trackpoint>
          <Trackpoint>
            <Time>2020-12-05T12:06:55.000Z</Time>
            <Position>
              <LatitudeDegrees>36.8293105624616146087646484375</LatitudeDegrees>
              <LongitudeDegrees>-4.36701471917331218719482421875</LongitudeDegrees>
            </Position>
            <AltitudeMeters>700.5999755859375</AltitudeMeters>
            <DistanceMeters>NAN</DistanceMeters>
          </Trackpoint>
          <Trackpoint>
            <Time>2020-12-05T12:06:56.000Z</Time>
            <Position>
              <LatitudeDegrees>36.82931584306061267852783203125</LatitudeDegrees>
              <LongitudeDegrees>-4.367022179067134857177734375</LongitudeDegrees>
            </Position>
            <AltitudeMeters>700.5999755859375</AltitudeMeters>
            <DistanceMeters>NAN</DistanceMeters>
          </Trackpoint>
          <Trackpoint>
            <Time>2020-12-05T12:06:57.000Z</Time>
            <Position>
              <LatitudeDegrees>36.82932221330702304840087890625</LatitudeDegrees>
              <LongitudeDegrees>-4.367030225694179534912109375</LongitudeDegrees>
            </Position>
            <AltitudeMeters>700.5999755859375</AltitudeMeters>
            <DistanceMeters>NAN</DistanceMeters>
          </Trackpoint>
          <Trackpoint>
            <Time>2020-12-05T12:06:58.000Z</Time>
            <Position>
              <LatitudeDegrees>36.8293269909918308258056640625</LatitudeDegrees>
              <LongitudeDegrees>-4.36703651212155818939208984375</LongitudeDegrees>
            </Position>
            <AltitudeMeters>700.5999755859375</AltitudeMeters>
            <DistanceMeters>NAN</DistanceMeters>
          </Trackpoint>
          <Trackpoint>
            <Time>2020-12-05T12:06:59.000Z</Time>
            <Position>
              <LatitudeDegrees>36.82933059521019458770751953125</LatitudeDegrees>
              <LongitudeDegrees>-4.3670426309108734130859375</LongitudeDegrees>
            </Position>
            <AltitudeMeters>700.5999755859375</AltitudeMeters>
            <DistanceMeters>NAN</DistanceMeters>
          </Trackpoint>
          <Trackpoint>
            <Time>2020-12-05T12:07:00.000Z</Time>
            <Position>
              <LatitudeDegrees>36.82933243922889232635498046875</LatitudeDegrees>
              <LongitudeDegrees>-4.3670488335192203521728515625</LongitudeDegrees>
            </Position>
            <AltitudeMeters>698</AltitudeMeters>
            <DistanceMeters>NAN</DistanceMeters>
          </Trackpoint>
          <Trackpoint>
            <Time>2020-12-05T12:07:01.000Z</Time>
            <Position>
              <LatitudeDegrees>36.82933914475142955780029296875</LatitudeDegrees>
              <LongitudeDegrees>-4.36705713160336017608642578125</LongitudeDegrees>
            </Position>
            <AltitudeMeters>698</AltitudeMeters>
            <DistanceMeters>NAN</DistanceMeters>
          </Trackpoint>
          <Trackpoint>
            <Time>2020-12-05T12:07:02.000Z</Time>
            <Position>
              <LatitudeDegrees>36.829345263540744781494140625</LatitudeDegrees>
              <LongitudeDegrees>-4.36706551350653171539306640625</LongitudeDegrees>
            </Position>
            <AltitudeMeters>698</AltitudeMeters>
            <DistanceMeters>NAN</DistanceMeters>
          </Trackpoint>
          <Trackpoint>
            <Time>2020-12-05T12:07:03.000Z</Time>
            <Position>
              <LatitudeDegrees>36.8293511308729648590087890625</LatitudeDegrees>
              <LongitudeDegrees>-4.3670702911913394927978515625</LongitudeDegrees>
            </Position>
            <AltitudeMeters>698</AltitudeMeters>
            <DistanceMeters>NAN</DistanceMeters>
          </Trackpoint>
          <Trackpoint>
            <Time>2020-12-05T12:07:04.000Z</Time>
            <Position>
              <LatitudeDegrees>36.829358004033565521240234375</LatitudeDegrees>
              <LongitudeDegrees>-4.36707439832389354705810546875</LongitudeDegrees>
            </Position>
            <AltitudeMeters>698</AltitudeMeters>
            <DistanceMeters>NAN</DistanceMeters>
          </Trackpoint>
          <Trackpoint>
            <Time>2020-12-05T12:07:05.000Z</Time>
            <Position>
              <LatitudeDegrees>36.82936781086027622222900390625</LatitudeDegrees>
              <LongitudeDegrees>-4.367081858217716217041015625</LongitudeDegrees>
            </Position>
            <AltitudeMeters>698</AltitudeMeters>
            <DistanceMeters>NAN</DistanceMeters>
          </Trackpoint>
          <Trackpoint>
            <Time>2020-12-05T12:07:06.000Z</Time>
            <Position>
              <LatitudeDegrees>36.8293786235153675079345703125</LatitudeDegrees>
              <LongitudeDegrees>-4.36709032393991947174072265625</LongitudeDegrees>
            </Position>
            <AltitudeMeters>698</AltitudeMeters>
            <DistanceMeters>NAN</DistanceMeters>
          </Trackpoint>
          <Trackpoint>
            <Time>2020-12-05T12:07:07.000Z</Time>
            <Position>
              <LatitudeDegrees>36.82939161546528339385986328125</LatitudeDegrees>
              <LongitudeDegrees>-4.3671038188040256500244140625</LongitudeDegrees>
            </Position>
            <AltitudeMeters>698</AltitudeMeters>
            <DistanceMeters>NAN</DistanceMeters>
          </Trackpoint>
          <Trackpoint>
            <Time>2020-12-05T12:07:08.000Z</Time>
            <Position>
              <LatitudeDegrees>36.82940728962421417236328125</LatitudeDegrees>
              <LongitudeDegrees>-4.367122091352939605712890625</LongitudeDegrees>
            </Position>
            <AltitudeMeters>698</AltitudeMeters>
            <DistanceMeters>NAN</DistanceMeters>
          </Trackpoint>
          <Trackpoint>
            <Time>2020-12-05T12:07:09.000Z</Time>
            <Position>
              <LatitudeDegrees>36.82942162267863750457763671875</LatitudeDegrees>
              <LongitudeDegrees>-4.3671383522450923919677734375</LongitudeDegrees>
            </Position>
            <AltitudeMeters>698</AltitudeMeters>
            <DistanceMeters>NAN</DistanceMeters>
          </Trackpoint>
          <Trackpoint>
            <Time>2020-12-05T12:07:10.000Z</Time>
            <Position>
              <LatitudeDegrees>36.82943738065659999847412109375</LatitudeDegrees>
              <LongitudeDegrees>-4.3671564571559429168701171875</LongitudeDegrees>
            </Position>
            <AltitudeMeters>698</AltitudeMeters>
            <DistanceMeters>NAN</DistanceMeters>
          </Trackpoint>
          <Trackpoint>
            <Time>2020-12-05T12:07:11.000Z</Time>
            <Position>
              <LatitudeDegrees>36.82945297099649906158447265625</LatitudeDegrees>
              <LongitudeDegrees>-4.3671745620667934417724609375</LongitudeDegrees>
            </Position>
            <AltitudeMeters>698</AltitudeMeters>
            <DistanceMeters>NAN</DistanceMeters>
          </Trackpoint>
          <Trackpoint>
            <Time>2020-12-05T12:07:12.000Z</Time>
            <Position>
              <LatitudeDegrees>36.82946537621319293975830078125</LatitudeDegrees>
              <LongitudeDegrees>-4.36718881130218505859375</LongitudeDegrees>
            </Position>
            <AltitudeMeters>698</AltitudeMeters>
            <DistanceMeters>NAN</DistanceMeters>
          </Trackpoint>
          <Trackpoint>
            <Time>2020-12-05T12:07:13.000Z</Time>
            <Position>
              <LatitudeDegrees>36.82947694323956966400146484375</LatitudeDegrees>
              <LongitudeDegrees>-4.36720297671854496002197265625</LongitudeDegrees>
            </Position>
            <AltitudeMeters>698</AltitudeMeters>
            <DistanceMeters>NAN</DistanceMeters>
          </Trackpoint>
          <Trackpoint>
            <Time>2020-12-05T12:07:14.000Z</Time>
            <Position>
              <LatitudeDegrees>36.8294882588088512420654296875</LatitudeDegrees>
              <LongitudeDegrees>-4.36721303500235080718994140625</LongitudeDegrees>
            </Position>
            <AltitudeMeters>698</AltitudeMeters>
            <DistanceMeters>NAN</DistanceMeters>
          </Trackpoint>
          <Trackpoint>
            <Time>2020-12-05T12:07:15.000Z</Time>
            <Position>
              <LatitudeDegrees>36.82949974201619625091552734375</LatitudeDegrees>
              <LongitudeDegrees>-4.3672225065529346466064453125</LongitudeDegrees>
            </Position>
            <AltitudeMeters>698</AltitudeMeters>
            <DistanceMeters>NAN</DistanceMeters>
          </Trackpoint>
          <Trackpoint>
            <Time>2020-12-05T12:07:16.000Z</Time>
            <Position>
              <LatitudeDegrees>36.8295110575854778289794921875</LatitudeDegrees>
              <LongitudeDegrees>-4.367231391370296478271484375</LongitudeDegrees>
            </Position>
            <AltitudeMeters>698</AltitudeMeters>
            <DistanceMeters>NAN</DistanceMeters>
          </Trackpoint>
          <Trackpoint>
            <Time>2020-12-05T12:07:17.000Z</Time>
            <Position>
              <LatitudeDegrees>36.82952254079282283782958984375</LatitudeDegrees>
              <LongitudeDegrees>-4.3672426231205463409423828125</LongitudeDegrees>
            </Position>
            <AltitudeMeters>698</AltitudeMeters>
            <DistanceMeters>NAN</DistanceMeters>
          </Trackpoint>
          <Trackpoint>
            <Time>2020-12-05T12:07:18.000Z</Time>
            <Position>
              <LatitudeDegrees>36.8295340240001678466796875</LatitudeDegrees>
              <LongitudeDegrees>-4.3672513402998447418212890625</LongitudeDegrees>
            </Position>
            <AltitudeMeters>698</AltitudeMeters>
            <DistanceMeters>NAN</DistanceMeters>
          </Trackpoint>
          <Trackpoint>
            <Time>2020-12-05T12:07:19.000Z</Time>
            <Position>
              <LatitudeDegrees>36.82954533956944942474365234375</LatitudeDegrees>
              <LongitudeDegrees>-4.367262907326221466064453125</LongitudeDegrees>
            </Position>
            <AltitudeMeters>698</AltitudeMeters>
            <DistanceMeters>NAN</DistanceMeters>
          </Trackpoint>
          <Trackpoint>
            <Time>2020-12-05T12:07:20.000Z</Time>
            <Position>
              <LatitudeDegrees>36.82955573312938213348388671875</LatitudeDegrees>
              <LongitudeDegrees>-4.36727506108582019805908203125</LongitudeDegrees>
            </Position>
            <AltitudeMeters>698</AltitudeMeters>
            <DistanceMeters>NAN</DistanceMeters>
          </Trackpoint>
          <Trackpoint>
            <Time>2020-12-05T12:07:21.000Z</Time>
            <Position>
              <LatitudeDegrees>36.829567886888980865478515625</LatitudeDegrees>
              <LongitudeDegrees>-4.367292411625385284423828125</LongitudeDegrees>
            </Position>
            <AltitudeMeters>698</AltitudeMeters>
            <DistanceMeters>NAN</DistanceMeters>
          </Trackpoint>
          <Trackpoint>
            <Time>2020-12-05T12:07:22.000Z</Time>
            <Position>
              <LatitudeDegrees>36.82958641089498996734619140625</LatitudeDegrees>
              <LongitudeDegrees>-4.367305152118206024169921875</LongitudeDegrees>
            </Position>
            <AltitudeMeters>698</AltitudeMeters>
            <DistanceMeters>NAN</DistanceMeters>
          </Trackpoint>
          <Trackpoint>
            <Time>2020-12-05T12:07:23.000Z</Time>
            <Position>
              <LatitudeDegrees>36.8296059407293796539306640625</LatitudeDegrees>
              <LongitudeDegrees>-4.3673197366297245025634765625</LongitudeDegrees>
            </Position>
            <AltitudeMeters>698</AltitudeMeters>
            <DistanceMeters>NAN</DistanceMeters>
          </Trackpoint>
          <Trackpoint>
            <Time>2020-12-05T12:07:24.000Z</Time>
            <Position>
              <LatitudeDegrees>36.82961910031735897064208984375</LatitudeDegrees>
              <LongitudeDegrees>-4.36733624897897243499755859375</LongitudeDegrees>
            </Position>
            <AltitudeMeters>698</AltitudeMeters>
            <DistanceMeters>NAN</DistanceMeters>
          </Trackpoint>
          <Trackpoint>
            <Time>2020-12-05T12:07:25.000Z</Time>
            <Position>
              <LatitudeDegrees>36.82963234372437000274658203125</LatitudeDegrees>
              <LongitudeDegrees>-4.36734949238598346710205078125</LongitudeDegrees>
            </Position>
            <AltitudeMeters>698</AltitudeMeters>
            <DistanceMeters>NAN</DistanceMeters>
          </Trackpoint>
          <Trackpoint>
            <Time>2020-12-05T12:07:26.000Z</Time>
            <Position>
              <LatitudeDegrees>36.82964307256042957305908203125</LatitudeDegrees>
              <LongitudeDegrees>-4.3673609755933284759521484375</LongitudeDegrees>
            </Position>
            <AltitudeMeters>698</AltitudeMeters>
            <DistanceMeters>NAN</DistanceMeters>
          </Trackpoint>
          <Trackpoint>
            <Time>2020-12-05T12:07:27.000Z</Time>
            <Position>
              <LatitudeDegrees>36.8296542204916477203369140625</LatitudeDegrees>
              <LongitudeDegrees>-4.36737321317195892333984375</LongitudeDegrees>
            </Position>
            <AltitudeMeters>698</AltitudeMeters>
            <DistanceMeters>NAN</DistanceMeters>
          </Trackpoint>
          <Trackpoint>
            <Time>2020-12-05T12:07:28.000Z</Time>
            <Position>
              <LatitudeDegrees>36.829666458070278167724609375</LatitudeDegrees>
              <LongitudeDegrees>-4.367385618388652801513671875</LongitudeDegrees>
            </Position>
            <AltitudeMeters>698</AltitudeMeters>
            <DistanceMeters>NAN</DistanceMeters>
          </Trackpoint>
          <Trackpoint>
            <Time>2020-12-05T12:07:29.000Z</Time>
            <Position>
              <LatitudeDegrees>36.829677186906337738037109375</LatitudeDegrees>
              <LongitudeDegrees>-4.36739441938698291778564453125</LongitudeDegrees>
            </Position>
            <AltitudeMeters>698</AltitudeMeters>
            <DistanceMeters>NAN</DistanceMeters>
          </Trackpoint>
          <Trackpoint>
            <Time>2020-12-05T12:07:30.000Z</Time>
            <Position>
              <LatitudeDegrees>36.82968950830399990081787109375</LatitudeDegrees>
              <LongitudeDegrees>-4.3674015440046787261962890625</LongitudeDegrees>
            </Position>
            <AltitudeMeters>698</AltitudeMeters>
            <DistanceMeters>NAN</DistanceMeters>
          </Trackpoint>
          <Trackpoint>
            <Time>2020-12-05T12:07:31.000Z</Time>
            <Position>
              <LatitudeDegrees>36.82969939894974231719970703125</LatitudeDegrees>
              <LongitudeDegrees>-4.36741168610751628875732421875</LongitudeDegrees>
            </Position>
            <AltitudeMeters>698</AltitudeMeters>
            <DistanceMeters>NAN</DistanceMeters>
          </Trackpoint>
          <Trackpoint>
            <Time>2020-12-05T12:07:32.000Z</Time>
            <Position>
              <LatitudeDegrees>36.82970593683421611785888671875</LatitudeDegrees>
              <LongitudeDegrees>-4.367422163486480712890625</LongitudeDegrees>
            </Position>
            <AltitudeMeters>698</AltitudeMeters>
            <DistanceMeters>NAN</DistanceMeters>
          </Trackpoint>
          <Trackpoint>
            <Time>2020-12-05T12:07:33.000Z</Time>
            <Position>
              <LatitudeDegrees>36.82971415109932422637939453125</LatitudeDegrees>
              <LongitudeDegrees>-4.36743062920868396759033203125</LongitudeDegrees>
            </Position>
            <AltitudeMeters>698</AltitudeMeters>
            <DistanceMeters>NAN</DistanceMeters>
          </Trackpoint>
          <Trackpoint>
            <Time>2020-12-05T12:07:34.000Z</Time>
            <Position>
              <LatitudeDegrees>36.82972244918346405029296875</LatitudeDegrees>
              <LongitudeDegrees>-4.36743892729282379150390625</LongitudeDegrees>
            </Position>
            <AltitudeMeters>698</AltitudeMeters>
            <DistanceMeters>NAN</DistanceMeters>
          </Trackpoint>
          <Trackpoint>
            <Time>2020-12-05T12:07:35.000Z</Time>
            <Position>
              <LatitudeDegrees>36.829730160534381866455078125</LatitudeDegrees>
              <LongitudeDegrees>-4.3674454651772975921630859375</LongitudeDegrees>
            </Position>
            <AltitudeMeters>698</AltitudeMeters>
            <DistanceMeters>NAN</DistanceMeters>
          </Trackpoint>
          <Trackpoint>
            <Time>2020-12-05T12:07:36.000Z</Time>
            <Position>
              <LatitudeDegrees>36.8297377042472362518310546875</LatitudeDegrees>
              <LongitudeDegrees>-4.3674503266811370849609375</LongitudeDegrees>
            </Position>
            <AltitudeMeters>698</AltitudeMeters>
            <DistanceMeters>NAN</DistanceMeters>
          </Trackpoint>
          <Trackpoint>
            <Time>2020-12-05T12:07:37.000Z</Time>
            <Position>
              <LatitudeDegrees>36.82975002564489841461181640625</LatitudeDegrees>
              <LongitudeDegrees>-4.367455355823040008544921875</LongitudeDegrees>
            </Position>
            <AltitudeMeters>698</AltitudeMeters>
            <DistanceMeters>NAN</DistanceMeters>
          </Trackpoint>
          <Trackpoint>
            <Time>2020-12-05T12:07:38.000Z</Time>
            <Position>
              <LatitudeDegrees>36.8297578208148479461669921875</LatitudeDegrees>
              <LongitudeDegrees>-4.36746516264975070953369140625</LongitudeDegrees>
            </Position>
            <AltitudeMeters>698</AltitudeMeters>
            <DistanceMeters>NAN</DistanceMeters>
          </Trackpoint>
          <Trackpoint>
            <Time>2020-12-05T12:07:39.000Z</Time>
            <Position>
              <LatitudeDegrees>36.82976410724222660064697265625</LatitudeDegrees>
              <LongitudeDegrees>-4.3674773164093494415283203125</LongitudeDegrees>
            </Position>
            <AltitudeMeters>698</AltitudeMeters>
            <DistanceMeters>NAN</DistanceMeters>
          </Trackpoint>
          <Trackpoint>
            <Time>2020-12-05T12:07:40.000Z</Time>
            <Position>
              <LatitudeDegrees>36.82976997457444667816162109375</LatitudeDegrees>
              <LongitudeDegrees>-4.367486536502838134765625</LongitudeDegrees>
            </Position>
            <AltitudeMeters>698</AltitudeMeters>
            <DistanceMeters>NAN</DistanceMeters>
          </Trackpoint>
          <Trackpoint>
            <Time>2020-12-05T12:07:41.000Z</Time>
            <Position>
              <LatitudeDegrees>36.82977517135441303253173828125</LatitudeDegrees>
              <LongitudeDegrees>-4.36749659478664398193359375</LongitudeDegrees>
            </Position>
            <AltitudeMeters>698</AltitudeMeters>
            <DistanceMeters>NAN</DistanceMeters>
          </Trackpoint>
          <Trackpoint>
            <Time>2020-12-05T12:07:42.000Z</Time>
            <Position>
              <LatitudeDegrees>36.82978087104856967926025390625</LatitudeDegrees>
              <LongitudeDegrees>-4.36751092784106731414794921875</LongitudeDegrees>
            </Position>
            <AltitudeMeters>698</AltitudeMeters>
            <DistanceMeters>NAN</DistanceMeters>
          </Trackpoint>
          <Trackpoint>
            <Time>2020-12-05T12:07:43.000Z</Time>
            <Position>
              <LatitudeDegrees>36.829785145819187164306640625</LatitudeDegrees>
              <LongitudeDegrees>-4.36752618290483951568603515625</LongitudeDegrees>
            </Position>
            <AltitudeMeters>698</AltitudeMeters>
            <DistanceMeters>NAN</DistanceMeters>
          </Trackpoint>
          <Trackpoint>
            <Time>2020-12-05T12:07:44.000Z</Time>
            <Position>
              <LatitudeDegrees>36.82979009114205837249755859375</LatitudeDegrees>
              <LongitudeDegrees>-4.36754194088280200958251953125</LongitudeDegrees>
            </Position>
            <AltitudeMeters>698</AltitudeMeters>
            <DistanceMeters>NAN</DistanceMeters>
          </Trackpoint>
          <Trackpoint>
            <Time>2020-12-05T12:07:45.000Z</Time>
            <Position>
              <LatitudeDegrees>36.829799227416515350341796875</LatitudeDegrees>
              <LongitudeDegrees>-4.36755350790917873382568359375</LongitudeDegrees>
            </Position>
            <AltitudeMeters>698</AltitudeMeters>
            <DistanceMeters>NAN</DistanceMeters>
          </Trackpoint>
          <Trackpoint>
            <Time>2020-12-05T12:07:46.000Z</Time>
            <Position>
              <LatitudeDegrees>36.8298101238906383514404296875</LatitudeDegrees>
              <LongitudeDegrees>-4.36757010407745838165283203125</LongitudeDegrees>
            </Position>
            <AltitudeMeters>698</AltitudeMeters>
            <DistanceMeters>NAN</DistanceMeters>
          </Trackpoint>
          <Trackpoint>
            <Time>2020-12-05T12:07:47.000Z</Time>
            <Position>
              <LatitudeDegrees>36.8298228643834590911865234375</LatitudeDegrees>
              <LongitudeDegrees>-4.36758602969348430633544921875</LongitudeDegrees>
            </Position>
            <AltitudeMeters>698</AltitudeMeters>
            <DistanceMeters>NAN</DistanceMeters>
          </Trackpoint>
          <Trackpoint>
            <Time>2020-12-05T12:07:48.000Z</Time>
            <Position>
              <LatitudeDegrees>36.82983384467661380767822265625</LatitudeDegrees>
              <LongitudeDegrees>-4.367600865662097930908203125</LongitudeDegrees>
            </Position>
            <AltitudeMeters>698</AltitudeMeters>
            <DistanceMeters>NAN</DistanceMeters>
          </Trackpoint>
          <Trackpoint>
            <Time>2020-12-05T12:07:49.000Z</Time>
            <Position>
              <LatitudeDegrees>36.82984407059848308563232421875</LatitudeDegrees>
              <LongitudeDegrees>-4.36761352233588695526123046875</LongitudeDegrees>
            </Position>
            <AltitudeMeters>698</AltitudeMeters>
            <DistanceMeters>NAN</DistanceMeters>
          </Trackpoint>
          <Trackpoint>
            <Time>2020-12-05T12:07:50.000Z</Time>
            <Position>
              <LatitudeDegrees>36.82985530234873294830322265625</LatitudeDegrees>
              <LongitudeDegrees>-4.36762508936226367950439453125</LongitudeDegrees>
            </Position>
            <AltitudeMeters>698</AltitudeMeters>
            <DistanceMeters>NAN</DistanceMeters>
          </Trackpoint>
          <Trackpoint>
            <Time>2020-12-05T12:07:51.000Z</Time>
            <Position>
              <LatitudeDegrees>36.82986636646091938018798828125</LatitudeDegrees>
              <LongitudeDegrees>-4.36763682402670383453369140625</LongitudeDegrees>
            </Position>
            <AltitudeMeters>698</AltitudeMeters>
            <DistanceMeters>NAN</DistanceMeters>
          </Trackpoint>
          <Trackpoint>
            <Time>2020-12-05T12:07:52.000Z</Time>
            <Position>
              <LatitudeDegrees>36.8298773467540740966796875</LatitudeDegrees>
              <LongitudeDegrees>-4.367647469043731689453125</LongitudeDegrees>
            </Position>
            <AltitudeMeters>698</AltitudeMeters>
            <DistanceMeters>NAN</DistanceMeters>
          </Trackpoint>
          <Trackpoint>
            <Time>2020-12-05T12:07:53.000Z</Time>
            <Position>
              <LatitudeDegrees>36.829889081418514251708984375</LatitudeDegrees>
              <LongitudeDegrees>-4.3676595389842987060546875</LongitudeDegrees>
            </Position>
            <AltitudeMeters>698</AltitudeMeters>
            <DistanceMeters>NAN</DistanceMeters>
          </Trackpoint>
          <Trackpoint>
            <Time>2020-12-05T12:07:54.000Z</Time>
            <Position>
              <LatitudeDegrees>36.82989872060716152191162109375</LatitudeDegrees>
              <LongitudeDegrees>-4.3676717765629291534423828125</LongitudeDegrees>
            </Position>
            <AltitudeMeters>698</AltitudeMeters>
            <DistanceMeters>NAN</DistanceMeters>
          </Trackpoint>
          <Trackpoint>
            <Time>2020-12-05T12:07:55.000Z</Time>
            <Position>
              <LatitudeDegrees>36.829907856881618499755859375</LatitudeDegrees>
              <LongitudeDegrees>-4.367681331932544708251953125</LongitudeDegrees>
            </Position>
            <AltitudeMeters>698</AltitudeMeters>
            <DistanceMeters>NAN</DistanceMeters>
          </Trackpoint>
          <Trackpoint>
            <Time>2020-12-05T12:07:56.000Z</Time>
            <Position>
              <LatitudeDegrees>36.82991431094706058502197265625</LatitudeDegrees>
              <LongitudeDegrees>-4.36768845655024051666259765625</LongitudeDegrees>
            </Position>
            <AltitudeMeters>698</AltitudeMeters>
            <DistanceMeters>NAN</DistanceMeters>
          </Trackpoint>
          <Trackpoint>
            <Time>2020-12-05T12:07:57.000Z</Time>
            <Position>
              <LatitudeDegrees>36.82992093265056610107421875</LatitudeDegrees>
              <LongitudeDegrees>-4.36769507825374603271484375</LongitudeDegrees>
            </Position>
            <AltitudeMeters>698</AltitudeMeters>
            <DistanceMeters>NAN</DistanceMeters>
          </Trackpoint>
          <Trackpoint>
            <Time>2020-12-05T12:07:58.000Z</Time>
            <Position>
              <LatitudeDegrees>36.829929314553737640380859375</LatitudeDegrees>
              <LongitudeDegrees>-4.36770102940499782562255859375</LongitudeDegrees>
            </Position>
            <AltitudeMeters>698</AltitudeMeters>
            <DistanceMeters>NAN</DistanceMeters>
          </Trackpoint>
          <Trackpoint>
            <Time>2020-12-05T12:07:59.000Z</Time>
            <Position>
              <LatitudeDegrees>36.8299368582665920257568359375</LatitudeDegrees>
              <LongitudeDegrees>-4.367706812918186187744140625</LongitudeDegrees>
            </Position>
            <AltitudeMeters>698</AltitudeMeters>
            <DistanceMeters>NAN</DistanceMeters>
          </Trackpoint>
          <Trackpoint>
            <Time>2020-12-05T12:08:00.000Z</Time>
            <Position>
              <LatitudeDegrees>36.82994331233203411102294921875</LatitudeDegrees>
              <LongitudeDegrees>-4.36771251261234283447265625</LongitudeDegrees>
            </Position>
            <AltitudeMeters>693.20001220703125</AltitudeMeters>
            <DistanceMeters>NAN</DistanceMeters>
          </Trackpoint>
          <Trackpoint>
            <Time>2020-12-05T12:08:01.000Z</Time>
            <Position>
              <LatitudeDegrees>36.82995068840682506561279296875</LatitudeDegrees>
              <LongitudeDegrees>-4.367715530097484588623046875</LongitudeDegrees>
            </Position>
            <AltitudeMeters>693.20001220703125</AltitudeMeters>
            <DistanceMeters>NAN</DistanceMeters>
          </Trackpoint>
          <Trackpoint>
            <Time>2020-12-05T12:08:02.000Z</Time>
            <Position>
              <LatitudeDegrees>36.82995722629129886627197265625</LatitudeDegrees>
              <LongitudeDegrees>-4.3677183799445629119873046875</LongitudeDegrees>
            </Position>
            <AltitudeMeters>693.20001220703125</AltitudeMeters>
            <DistanceMeters>NAN</DistanceMeters>
          </Trackpoint>
          <Trackpoint>
            <Time>2020-12-05T12:08:03.000Z</Time>
            <Position>
              <LatitudeDegrees>36.82996845804154872894287109375</LatitudeDegrees>
              <LongitudeDegrees>-4.36772617511451244354248046875</LongitudeDegrees>
            </Position>
            <AltitudeMeters>693.20001220703125</AltitudeMeters>
            <DistanceMeters>NAN</DistanceMeters>
          </Trackpoint>
          <Trackpoint>
            <Time>2020-12-05T12:08:04.000Z</Time>
            <Position>
              <LatitudeDegrees>36.829981617629528045654296875</LatitudeDegrees>
              <LongitudeDegrees>-4.36773237772285938262939453125</LongitudeDegrees>
            </Position>
            <AltitudeMeters>693.20001220703125</AltitudeMeters>
            <DistanceMeters>NAN</DistanceMeters>
          </Trackpoint>
          <Trackpoint>
            <Time>2020-12-05T12:08:05.000Z</Time>
            <Position>
              <LatitudeDegrees>36.82999494485557079315185546875</LatitudeDegrees>
              <LongitudeDegrees>-4.36774176545441150665283203125</LongitudeDegrees>
            </Position>
            <AltitudeMeters>693.20001220703125</AltitudeMeters>
            <DistanceMeters>NAN</DistanceMeters>
          </Trackpoint>
          <Trackpoint>
            <Time>2020-12-05T12:08:06.000Z</Time>
            <Position>
              <LatitudeDegrees>36.8300076015293598175048828125</LatitudeDegrees>
              <LongitudeDegrees>-4.3677482195198535919189453125</LongitudeDegrees>
            </Position>
            <AltitudeMeters>693.20001220703125</AltitudeMeters>
            <DistanceMeters>NAN</DistanceMeters>
          </Trackpoint>
          <Trackpoint>
            <Time>2020-12-05T12:08:07.000Z</Time>
            <Position>
              <LatitudeDegrees>36.830019839107990264892578125</LatitudeDegrees>
              <LongitudeDegrees>-4.36775266192853450775146484375</LongitudeDegrees>
            </Position>
            <AltitudeMeters>693.20001220703125</AltitudeMeters>
            <DistanceMeters>NAN</DistanceMeters>
          </Trackpoint>
          <Trackpoint>
            <Time>2020-12-05T12:08:08.000Z</Time>
            <Position>
              <LatitudeDegrees>36.83003014884889125823974609375</LatitudeDegrees>
              <LongitudeDegrees>-4.36775467358529567718505859375</LongitudeDegrees>
            </Position>
            <AltitudeMeters>693.20001220703125</AltitudeMeters>
            <DistanceMeters>NAN</DistanceMeters>
          </Trackpoint>
          <Trackpoint>
            <Time>2020-12-05T12:08:09.000Z</Time>
            <Position>
              <LatitudeDegrees>36.83004565536975860595703125</LatitudeDegrees>
              <LongitudeDegrees>-4.36775266192853450775146484375</LongitudeDegrees>
            </Position>
            <AltitudeMeters>693.20001220703125</AltitudeMeters>
            <DistanceMeters>NAN</DistanceMeters>
          </Trackpoint>
          <Trackpoint>
            <Time>2020-12-05T12:08:10.000Z</Time>
            <Position>
              <LatitudeDegrees>36.83005998842418193817138671875</LatitudeDegrees>
              <LongitudeDegrees>-4.367753751575946807861328125</LongitudeDegrees>
            </Position>
            <AltitudeMeters>693.20001220703125</AltitudeMeters>
            <DistanceMeters>NAN</DistanceMeters>
          </Trackpoint>
          <Trackpoint>
            <Time>2020-12-05T12:08:11.000Z</Time>
            <Position>
              <LatitudeDegrees>36.830075494945049285888671875</LatitudeDegrees>
              <LongitudeDegrees>-4.36775676906108856201171875</LongitudeDegrees>
            </Position>
            <AltitudeMeters>693.20001220703125</AltitudeMeters>
            <DistanceMeters>NAN</DistanceMeters>
          </Trackpoint>
          <Trackpoint>
            <Time>2020-12-05T12:08:12.000Z</Time>
            <Position>
              <LatitudeDegrees>36.830092258751392364501953125</LatitudeDegrees>
              <LongitudeDegrees>-4.36775542795658111572265625</LongitudeDegrees>
            </Position>
            <AltitudeMeters>693.20001220703125</AltitudeMeters>
            <DistanceMeters>NAN</DistanceMeters>
          </Trackpoint>
          <Trackpoint>
            <Time>2020-12-05T12:08:13.000Z</Time>
            <Position>
              <LatitudeDegrees>36.83011002838611602783203125</LatitudeDegrees>
              <LongitudeDegrees>-4.36775215901434421539306640625</LongitudeDegrees>
            </Position>
            <AltitudeMeters>693.20001220703125</AltitudeMeters>
            <DistanceMeters>NAN</DistanceMeters>
          </Trackpoint>
          <Trackpoint>
            <Time>2020-12-05T12:08:14.000Z</Time>
            <Position>
              <LatitudeDegrees>36.83012545108795166015625</LatitudeDegrees>
              <LongitudeDegrees>-4.3677535839378833770751953125</LongitudeDegrees>
            </Position>
            <AltitudeMeters>693.20001220703125</AltitudeMeters>
            <DistanceMeters>NAN</DistanceMeters>
          </Trackpoint>
          <Trackpoint>
            <Time>2020-12-05T12:08:15.000Z</Time>
            <Position>
              <LatitudeDegrees>36.83013953268527984619140625</LatitudeDegrees>
              <LongitudeDegrees>-4.3677562661468982696533203125</LongitudeDegrees>
            </Position>
            <AltitudeMeters>693.20001220703125</AltitudeMeters>
            <DistanceMeters>NAN</DistanceMeters>
          </Trackpoint>
          <Trackpoint>
            <Time>2020-12-05T12:08:16.000Z</Time>
            <Position>
              <LatitudeDegrees>36.8301521055400371551513671875</LatitudeDegrees>
              <LongitudeDegrees>-4.36776154674589633941650390625</LongitudeDegrees>
            </Position>
            <AltitudeMeters>693.20001220703125</AltitudeMeters>
            <DistanceMeters>NAN</DistanceMeters>
          </Trackpoint>
          <Trackpoint>
            <Time>2020-12-05T12:08:17.000Z</Time>
            <Position>
              <LatitudeDegrees>36.83016501367092132568359375</LatitudeDegrees>
              <LongitudeDegrees>-4.36776087619364261627197265625</LongitudeDegrees>
            </Position>
            <AltitudeMeters>693.20001220703125</AltitudeMeters>
            <DistanceMeters>NAN</DistanceMeters>
          </Trackpoint>
          <Trackpoint>
            <Time>2020-12-05T12:08:18.000Z</Time>
            <Position>
              <LatitudeDegrees>36.83017767034471035003662109375</LatitudeDegrees>
              <LongitudeDegrees>-4.3677628040313720703125</LongitudeDegrees>
            </Position>
            <AltitudeMeters>693.20001220703125</AltitudeMeters>
            <DistanceMeters>NAN</DistanceMeters>
          </Trackpoint>
          <Trackpoint>
            <Time>2020-12-05T12:08:19.000Z</Time>
            <Position>
              <LatitudeDegrees>36.83018873445689678192138671875</LatitudeDegrees>
              <LongitudeDegrees>-4.36776707880198955535888671875</LongitudeDegrees>
            </Position>
            <AltitudeMeters>693.20001220703125</AltitudeMeters>
            <DistanceMeters>NAN</DistanceMeters>
          </Trackpoint>
          <Trackpoint>
            <Time>2020-12-05T12:08:20.000Z</Time>
            <Position>
              <LatitudeDegrees>36.830199547111988067626953125</LatitudeDegrees>
              <LongitudeDegrees>-4.367769174277782440185546875</LongitudeDegrees>
            </Position>
            <AltitudeMeters>693.20001220703125</AltitudeMeters>
            <DistanceMeters>NAN</DistanceMeters>
          </Trackpoint>
          <Trackpoint>
            <Time>2020-12-05T12:08:21.000Z</Time>
            <Position>
              <LatitudeDegrees>36.8302126228809356689453125</LatitudeDegrees>
              <LongitudeDegrees>-4.36776749789714813232421875</LongitudeDegrees>
            </Position>
            <AltitudeMeters>693.20001220703125</AltitudeMeters>
            <DistanceMeters>NAN</DistanceMeters>
          </Trackpoint>
          <Trackpoint>
            <Time>2020-12-05T12:08:22.000Z</Time>
            <Position>
              <LatitudeDegrees>36.83022377081215381622314453125</LatitudeDegrees>
              <LongitudeDegrees>-4.3677669949829578399658203125</LongitudeDegrees>
            </Position>
            <AltitudeMeters>692.4000244140625</AltitudeMeters>
            <DistanceMeters>NAN</DistanceMeters>
          </Trackpoint>
          <Trackpoint>
            <Time>2020-12-05T12:08:23.000Z</Time>
            <Position>
              <LatitudeDegrees>36.83023550547659397125244140625</LatitudeDegrees>
              <LongitudeDegrees>-4.367764480412006378173828125</LongitudeDegrees>
            </Position>
            <AltitudeMeters>692.4000244140625</AltitudeMeters>
            <DistanceMeters>NAN</DistanceMeters>
          </Trackpoint>
          <Trackpoint>
            <Time>2020-12-05T12:08:24.000Z</Time>
            <Position>
              <LatitudeDegrees>36.830248497426509857177734375</LatitudeDegrees>
              <LongitudeDegrees>-4.3677619658410549163818359375</LongitudeDegrees>
            </Position>
            <AltitudeMeters>692.4000244140625</AltitudeMeters>
            <DistanceMeters>NAN</DistanceMeters>
          </Trackpoint>
          <Trackpoint>
            <Time>2020-12-05T12:08:25.000Z</Time>
            <Position>
              <LatitudeDegrees>36.8302620761096477508544921875</LatitudeDegrees>
              <LongitudeDegrees>-4.36775919981300830841064453125</LongitudeDegrees>
            </Position>
            <AltitudeMeters>692.4000244140625</AltitudeMeters>
            <DistanceMeters>NAN</DistanceMeters>
          </Trackpoint>
          <Trackpoint>
            <Time>2020-12-05T12:08:26.000Z</Time>
            <Position>
              <LatitudeDegrees>36.83027607388794422149658203125</LatitudeDegrees>
              <LongitudeDegrees>-4.367757104337215423583984375</LongitudeDegrees>
            </Position>
            <AltitudeMeters>692.4000244140625</AltitudeMeters>
            <DistanceMeters>NAN</DistanceMeters>
          </Trackpoint>
          <Trackpoint>
            <Time>2020-12-05T12:08:27.000Z</Time>
            <Position>
              <LatitudeDegrees>36.83029032312333583831787109375</LatitudeDegrees>
              <LongitudeDegrees>-4.36775215901434421539306640625</LongitudeDegrees>
            </Position>
            <AltitudeMeters>692.4000244140625</AltitudeMeters>
            <DistanceMeters>NAN</DistanceMeters>
          </Trackpoint>
          <Trackpoint>
            <Time>2020-12-05T12:08:28.000Z</Time>
            <Position>
              <LatitudeDegrees>36.8303033150732517242431640625</LatitudeDegrees>
              <LongitudeDegrees>-4.3677426874637603759765625</LongitudeDegrees>
            </Position>
            <AltitudeMeters>692.4000244140625</AltitudeMeters>
            <DistanceMeters>NAN</DistanceMeters>
          </Trackpoint>
          <Trackpoint>
            <Time>2020-12-05T12:08:29.000Z</Time>
            <Position>
              <LatitudeDegrees>36.830312870442867279052734375</LatitudeDegrees>
              <LongitudeDegrees>-4.367734305560588836669921875</LongitudeDegrees>
            </Position>
            <AltitudeMeters>692.4000244140625</AltitudeMeters>
            <DistanceMeters>NAN</DistanceMeters>
          </Trackpoint>
          <Trackpoint>
            <Time>2020-12-05T12:08:30.000Z</Time>
            <Position>
              <LatitudeDegrees>36.83032150380313396453857421875</LatitudeDegrees>
              <LongitudeDegrees>-4.36773137189447879791259765625</LongitudeDegrees>
            </Position>
            <AltitudeMeters>692.4000244140625</AltitudeMeters>
            <DistanceMeters>NAN</DistanceMeters>
          </Trackpoint>
          <Trackpoint>
            <Time>2020-12-05T12:08:31.000Z</Time>
            <Position>
              <LatitudeDegrees>36.83033307082951068878173828125</LatitudeDegrees>
              <LongitudeDegrees>-4.36773355118930339813232421875</LongitudeDegrees>
            </Position>
            <AltitudeMeters>692.4000244140625</AltitudeMeters>
            <DistanceMeters>NAN</DistanceMeters>
          </Trackpoint>
          <Trackpoint>
            <Time>2020-12-05T12:08:32.000Z</Time>
            <Position>
              <LatitudeDegrees>36.8303452245891094207763671875</LatitudeDegrees>
              <LongitudeDegrees>-4.3677371554076671600341796875</LongitudeDegrees>
            </Position>
            <AltitudeMeters>692.4000244140625</AltitudeMeters>
            <DistanceMeters>NAN</DistanceMeters>
          </Trackpoint>
          <Trackpoint>
            <Time>2020-12-05T12:08:33.000Z</Time>
            <Position>
              <LatitudeDegrees>36.83035586960613727569580078125</LatitudeDegrees>
              <LongitudeDegrees>-4.36774075962603092193603515625</LongitudeDegrees>
            </Position>
            <AltitudeMeters>692.4000244140625</AltitudeMeters>
            <DistanceMeters>NAN</DistanceMeters>
          </Trackpoint>
          <Trackpoint>
            <Time>2020-12-05T12:08:34.000Z</Time>
            <Position>
              <LatitudeDegrees>36.83036726899445056915283203125</LatitudeDegrees>
              <LongitudeDegrees>-4.367745034396648406982421875</LongitudeDegrees>
            </Position>
            <AltitudeMeters>692.4000244140625</AltitudeMeters>
            <DistanceMeters>NAN</DistanceMeters>
          </Trackpoint>
          <Trackpoint>
            <Time>2020-12-05T12:08:35.000Z</Time>
            <Position>
              <LatitudeDegrees>36.830379255115985870361328125</LatitudeDegrees>
              <LongitudeDegrees>-4.36774997971951961517333984375</LongitudeDegrees>
            </Position>
            <AltitudeMeters>692.4000244140625</AltitudeMeters>
            <DistanceMeters>NAN</DistanceMeters>
          </Trackpoint>
          <Trackpoint>
            <Time>2020-12-05T12:08:36.000Z</Time>
            <Position>
              <LatitudeDegrees>36.83039241470396518707275390625</LatitudeDegrees>
              <LongitudeDegrees>-4.367752410471439361572265625</LongitudeDegrees>
            </Position>
            <AltitudeMeters>692.4000244140625</AltitudeMeters>
            <DistanceMeters>NAN</DistanceMeters>
          </Trackpoint>
          <Trackpoint>
            <Time>2020-12-05T12:08:37.000Z</Time>
            <Position>
              <LatitudeDegrees>36.83040616102516651153564453125</LatitudeDegrees>
              <LongitudeDegrees>-4.3677529133856296539306640625</LongitudeDegrees>
            </Position>
            <AltitudeMeters>692.4000244140625</AltitudeMeters>
            <DistanceMeters>NAN</DistanceMeters>
          </Trackpoint>
          <Trackpoint>
            <Time>2020-12-05T12:08:38.000Z</Time>
            <Position>
              <LatitudeDegrees>36.8304266966879367828369140625</LatitudeDegrees>
              <LongitudeDegrees>-4.3677438609302043914794921875</LongitudeDegrees>
            </Position>
            <AltitudeMeters>692.4000244140625</AltitudeMeters>
            <DistanceMeters>NAN</DistanceMeters>
          </Trackpoint>
          <Trackpoint>
            <Time>2020-12-05T12:08:39.000Z</Time>
            <Position>
              <LatitudeDegrees>36.83044354431331157684326171875</LatitudeDegrees>
              <LongitudeDegrees>-4.36773589812219142913818359375</LongitudeDegrees>
            </Position>
            <AltitudeMeters>692.4000244140625</AltitudeMeters>
            <DistanceMeters>NAN</DistanceMeters>
          </Trackpoint>
          <Trackpoint>
            <Time>2020-12-05T12:08:40.000Z</Time>
            <Position>
              <LatitudeDegrees>36.8304555304348468780517578125</LatitudeDegrees>
              <LongitudeDegrees>-4.36772952787578105926513671875</LongitudeDegrees>
            </Position>
            <AltitudeMeters>692.4000244140625</AltitudeMeters>
            <DistanceMeters>NAN</DistanceMeters>
          </Trackpoint>
          <Trackpoint>
            <Time>2020-12-05T12:08:41.000Z</Time>
            <Position>
              <LatitudeDegrees>36.83046500198543071746826171875</LatitudeDegrees>
              <LongitudeDegrees>-4.3677239120006561279296875</LongitudeDegrees>
            </Position>
            <AltitudeMeters>692.4000244140625</AltitudeMeters>
            <DistanceMeters>NAN</DistanceMeters>
          </Trackpoint>
          <Trackpoint>
            <Time>2020-12-05T12:08:42.000Z</Time>
            <Position>
              <LatitudeDegrees>36.8304763175547122955322265625</LatitudeDegrees>
              <LongitudeDegrees>-4.36772055923938751220703125</LongitudeDegrees>
            </Position>
            <AltitudeMeters>692.4000244140625</AltitudeMeters>
            <DistanceMeters>NAN</DistanceMeters>
          </Trackpoint>
          <Trackpoint>
            <Time>2020-12-05T12:08:43.000Z</Time>
            <Position>
              <LatitudeDegrees>36.83048813603818416595458984375</LatitudeDegrees>
              <LongitudeDegrees>-4.36772055923938751220703125</LongitudeDegrees>
            </Position>
            <AltitudeMeters>692.4000244140625</AltitudeMeters>
            <DistanceMeters>NAN</DistanceMeters>
          </Trackpoint>
          <Trackpoint>
            <Time>2020-12-05T12:08:44.000Z</Time>
            <Position>
              <LatitudeDegrees>36.83050003834068775177001953125</LatitudeDegrees>
              <LongitudeDegrees>-4.36772081069648265838623046875</LongitudeDegrees>
            </Position>
            <AltitudeMeters>692.4000244140625</AltitudeMeters>
            <DistanceMeters>NAN</DistanceMeters>
          </Trackpoint>
          <Trackpoint>
            <Time>2020-12-05T12:08:45.000Z</Time>
            <Position>
              <LatitudeDegrees>36.8305130302906036376953125</LatitudeDegrees>
              <LongitudeDegrees>-4.3677180446684360504150390625</LongitudeDegrees>
            </Position>
            <AltitudeMeters>692.4000244140625</AltitudeMeters>
            <DistanceMeters>NAN</DistanceMeters>
          </Trackpoint>
          <Trackpoint>
            <Time>2020-12-05T12:08:46.000Z</Time>
            <Position>
              <LatitudeDegrees>36.83052334003150463104248046875</LatitudeDegrees>
              <LongitudeDegrees>-4.3677133508026599884033203125</LongitudeDegrees>
            </Position>
            <AltitudeMeters>692.4000244140625</AltitudeMeters>
            <DistanceMeters>NAN</DistanceMeters>
          </Trackpoint>
          <Trackpoint>
            <Time>2020-12-05T12:08:47.000Z</Time>
            <Position>
              <LatitudeDegrees>36.8305339850485324859619140625</LatitudeDegrees>
              <LongitudeDegrees>-4.36770957894623279571533203125</LongitudeDegrees>
            </Position>
            <AltitudeMeters>692.4000244140625</AltitudeMeters>
            <DistanceMeters>NAN</DistanceMeters>
          </Trackpoint>
          <Trackpoint>
            <Time>2020-12-05T12:08:48.000Z</Time>
            <Position>
              <LatitudeDegrees>36.8305425345897674560546875</LatitudeDegrees>
              <LongitudeDegrees>-4.36770991422235965728759765625</LongitudeDegrees>
            </Position>
            <AltitudeMeters>692.4000244140625</AltitudeMeters>
            <DistanceMeters>NAN</DistanceMeters>
          </Trackpoint>
          <Trackpoint>
            <Time>2020-12-05T12:08:49.000Z</Time>
            <Position>
              <LatitudeDegrees>36.83055284433066844940185546875</LatitudeDegrees>
              <LongitudeDegrees>-4.36771309934556484222412109375</LongitudeDegrees>
            </Position>
            <AltitudeMeters>692.4000244140625</AltitudeMeters>
            <DistanceMeters>NAN</DistanceMeters>
          </Trackpoint>
          <Trackpoint>
            <Time>2020-12-05T12:08:50.000Z</Time>
            <Position>
              <LatitudeDegrees>36.83056541718542575836181640625</LatitudeDegrees>
              <LongitudeDegrees>-4.36771628446877002716064453125</LongitudeDegrees>
            </Position>
            <AltitudeMeters>692.4000244140625</AltitudeMeters>
            <DistanceMeters>NAN</DistanceMeters>
          </Trackpoint>
          <Trackpoint>
            <Time>2020-12-05T12:08:51.000Z</Time>
            <Position>
              <LatitudeDegrees>36.83057497255504131317138671875</LatitudeDegrees>
              <LongitudeDegrees>-4.36771745793521404266357421875</LongitudeDegrees>
            </Position>
            <AltitudeMeters>692.4000244140625</AltitudeMeters>
            <DistanceMeters>NAN</DistanceMeters>
          </Trackpoint>
          <Trackpoint>
            <Time>2020-12-05T12:08:52.000Z</Time>
            <Position>
              <LatitudeDegrees>36.8305869586765766143798828125</LatitudeDegrees>
              <LongitudeDegrees>-4.36771444045007228851318359375</LongitudeDegrees>
            </Position>
            <AltitudeMeters>692.4000244140625</AltitudeMeters>
            <DistanceMeters>NAN</DistanceMeters>
          </Trackpoint>
          <Trackpoint>
            <Time>2020-12-05T12:08:53.000Z</Time>
            <Position>
              <LatitudeDegrees>36.8306017108261585235595703125</LatitudeDegrees>
              <LongitudeDegrees>-4.36770672909915447235107421875</LongitudeDegrees>
            </Position>
            <AltitudeMeters>692.4000244140625</AltitudeMeters>
            <DistanceMeters>NAN</DistanceMeters>
          </Trackpoint>
          <Trackpoint>
            <Time>2020-12-05T12:08:54.000Z</Time>
            <Position>
              <LatitudeDegrees>36.83061704970896244049072265625</LatitudeDegrees>
              <LongitudeDegrees>-4.3676970899105072021484375</LongitudeDegrees>
            </Position>
            <AltitudeMeters>692.4000244140625</AltitudeMeters>
            <DistanceMeters>NAN</DistanceMeters>
          </Trackpoint>
          <Trackpoint>
            <Time>2020-12-05T12:08:55.000Z</Time>
            <Position>
              <LatitudeDegrees>36.83062895201146602630615234375</LatitudeDegrees>
              <LongitudeDegrees>-4.3676942400634288787841796875</LongitudeDegrees>
            </Position>
            <AltitudeMeters>692.4000244140625</AltitudeMeters>
            <DistanceMeters>NAN</DistanceMeters>
          </Trackpoint>
          <Trackpoint>
            <Time>2020-12-05T12:08:56.000Z</Time>
            <Position>
              <LatitudeDegrees>36.8306412734091281890869140625</LatitudeDegrees>
              <LongitudeDegrees>-4.36768963001668453216552734375</LongitudeDegrees>
            </Position>
            <AltitudeMeters>692.4000244140625</AltitudeMeters>
            <DistanceMeters>NAN</DistanceMeters>
          </Trackpoint>
          <Trackpoint>
            <Time>2020-12-05T12:08:57.000Z</Time>
            <Position>
              <LatitudeDegrees>36.830656193196773529052734375</LatitudeDegrees>
              <LongitudeDegrees>-4.36768191866576671600341796875</LongitudeDegrees>
            </Position>
            <AltitudeMeters>692.4000244140625</AltitudeMeters>
            <DistanceMeters>NAN</DistanceMeters>
          </Trackpoint>
          <Trackpoint>
            <Time>2020-12-05T12:08:58.000Z</Time>
            <Position>
              <LatitudeDegrees>36.83067169971764087677001953125</LatitudeDegrees>
              <LongitudeDegrees>-4.367673955857753753662109375</LongitudeDegrees>
            </Position>
            <AltitudeMeters>692.4000244140625</AltitudeMeters>
            <DistanceMeters>NAN</DistanceMeters>
          </Trackpoint>
          <Trackpoint>
            <Time>2020-12-05T12:08:59.000Z</Time>
            <Position>
              <LatitudeDegrees>36.83068938553333282470703125</LatitudeDegrees>
              <LongitudeDegrees>-4.36766431666910648345947265625</LongitudeDegrees>
            </Position>
            <AltitudeMeters>692.4000244140625</AltitudeMeters>
            <DistanceMeters>NAN</DistanceMeters>
          </Trackpoint>
          <Trackpoint>
            <Time>2020-12-05T12:09:00.000Z</Time>
            <Position>
              <LatitudeDegrees>36.83070321567356586456298828125</LatitudeDegrees>
              <LongitudeDegrees>-4.3676622211933135986328125</LongitudeDegrees>
            </Position>
            <AltitudeMeters>689.20001220703125</AltitudeMeters>
            <DistanceMeters>NAN</DistanceMeters>
          </Trackpoint>
          <Trackpoint>
            <Time>2020-12-05T12:09:01.000Z</Time>
            <Position>
              <LatitudeDegrees>36.8307203985750675201416015625</LatitudeDegrees>
              <LongitudeDegrees>-4.36765752732753753662109375</LongitudeDegrees>
            </Position>
            <AltitudeMeters>689.20001220703125</AltitudeMeters>
            <DistanceMeters>NAN</DistanceMeters>
          </Trackpoint>
          <Trackpoint>
            <Time>2020-12-05T12:09:02.000Z</Time>
            <Position>
              <LatitudeDegrees>36.83073724620044231414794921875</LatitudeDegrees>
              <LongitudeDegrees>-4.367655180394649505615234375</LongitudeDegrees>
            </Position>
            <AltitudeMeters>689.20001220703125</AltitudeMeters>
            <DistanceMeters>NAN</DistanceMeters>
          </Trackpoint>
          <Trackpoint>
            <Time>2020-12-05T12:09:03.000Z</Time>
            <Position>
              <LatitudeDegrees>36.83075350709259510040283203125</LatitudeDegrees>
              <LongitudeDegrees>-4.36764956451952457427978515625</LongitudeDegrees>
            </Position>
            <AltitudeMeters>689.20001220703125</AltitudeMeters>
            <DistanceMeters>NAN</DistanceMeters>
          </Trackpoint>
          <Trackpoint>
            <Time>2020-12-05T12:09:04.000Z</Time>
            <Position>
              <LatitudeDegrees>36.83076641522347927093505859375</LatitudeDegrees>
              <LongitudeDegrees>-4.3676462955772876739501953125</LongitudeDegrees>
            </Position>
            <AltitudeMeters>689.20001220703125</AltitudeMeters>
            <DistanceMeters>NAN</DistanceMeters>
          </Trackpoint>
          <Trackpoint>
            <Time>2020-12-05T12:09:05.000Z</Time>
            <Position>
              <LatitudeDegrees>36.83077731169760227203369140625</LatitudeDegrees>
              <LongitudeDegrees>-4.36764202080667018890380859375</LongitudeDegrees>
            </Position>
            <AltitudeMeters>689.20001220703125</AltitudeMeters>
            <DistanceMeters>NAN</DistanceMeters>
          </Trackpoint>
          <Trackpoint>
            <Time>2020-12-05T12:09:06.000Z</Time>
            <Position>
              <LatitudeDegrees>36.83078820817172527313232421875</LatitudeDegrees>
              <LongitudeDegrees>-4.36763715930283069610595703125</LongitudeDegrees>
            </Position>
            <AltitudeMeters>689.20001220703125</AltitudeMeters>
            <DistanceMeters>NAN</DistanceMeters>
          </Trackpoint>
          <Trackpoint>
            <Time>2020-12-05T12:09:07.000Z</Time>
            <Position>
              <LatitudeDegrees>36.83080011047422885894775390625</LatitudeDegrees>
              <LongitudeDegrees>-4.36763062141835689544677734375</LongitudeDegrees>
            </Position>
            <AltitudeMeters>689.20001220703125</AltitudeMeters>
            <DistanceMeters>NAN</DistanceMeters>
          </Trackpoint>
          <Trackpoint>
            <Time>2020-12-05T12:09:08.000Z</Time>
            <Position>
              <LatitudeDegrees>36.8308115936815738677978515625</LatitudeDegrees>
              <LongitudeDegrees>-4.3676228262484073638916015625</LongitudeDegrees>
            </Position>
            <AltitudeMeters>689.20001220703125</AltitudeMeters>
            <DistanceMeters>NAN</DistanceMeters>
          </Trackpoint>
          <Trackpoint>
            <Time>2020-12-05T12:09:09.000Z</Time>
            <Position>
              <LatitudeDegrees>36.83082257397472858428955078125</LatitudeDegrees>
              <LongitudeDegrees>-4.36761335469782352447509765625</LongitudeDegrees>
            </Position>
            <AltitudeMeters>689.20001220703125</AltitudeMeters>
            <DistanceMeters>NAN</DistanceMeters>
          </Trackpoint>
          <Trackpoint>
            <Time>2020-12-05T12:09:10.000Z</Time>
            <Position>
              <LatitudeDegrees>36.8308320455253124237060546875</LatitudeDegrees>
              <LongitudeDegrees>-4.36760262586176395416259765625</LongitudeDegrees>
            </Position>
            <AltitudeMeters>689.20001220703125</AltitudeMeters>
            <DistanceMeters>NAN</DistanceMeters>
          </Trackpoint>
          <Trackpoint>
            <Time>2020-12-05T12:09:11.000Z</Time>
            <Position>
              <LatitudeDegrees>36.8308400921523571014404296875</LatitudeDegrees>
              <LongitudeDegrees>-4.36759742908179759979248046875</LongitudeDegrees>
            </Position>
            <AltitudeMeters>689.20001220703125</AltitudeMeters>
            <DistanceMeters>NAN</DistanceMeters>
          </Trackpoint>
          <Trackpoint>
            <Time>2020-12-05T12:09:12.000Z</Time>
            <Position>
              <LatitudeDegrees>36.83084771968424320220947265625</LatitudeDegrees>
              <LongitudeDegrees>-4.367591477930545806884765625</LongitudeDegrees>
            </Position>
            <AltitudeMeters>689.20001220703125</AltitudeMeters>
            <DistanceMeters>NAN</DistanceMeters>
          </Trackpoint>
          <Trackpoint>
            <Time>2020-12-05T12:09:13.000Z</Time>
            <Position>
              <LatitudeDegrees>36.8308565206825733184814453125</LatitudeDegrees>
              <LongitudeDegrees>-4.36758083291351795196533203125</LongitudeDegrees>
            </Position>
            <AltitudeMeters>689.20001220703125</AltitudeMeters>
            <DistanceMeters>NAN</DistanceMeters>
          </Trackpoint>
          <Trackpoint>
            <Time>2020-12-05T12:09:14.000Z</Time>
            <Position>
              <LatitudeDegrees>36.83086632750928401947021484375</LatitudeDegrees>
              <LongitudeDegrees>-4.36757178045809268951416015625</LongitudeDegrees>
            </Position>
            <AltitudeMeters>689.20001220703125</AltitudeMeters>
            <DistanceMeters>NAN</DistanceMeters>
          </Trackpoint>
          <Trackpoint>
            <Time>2020-12-05T12:09:15.000Z</Time>
            <Position>
              <LatitudeDegrees>36.8308759666979312896728515625</LatitudeDegrees>
              <LongitudeDegrees>-4.3675621412694454193115234375</LongitudeDegrees>
            </Position>
            <AltitudeMeters>689.20001220703125</AltitudeMeters>
            <DistanceMeters>NAN</DistanceMeters>
          </Trackpoint>
          <Trackpoint>
            <Time>2020-12-05T12:09:16.000Z</Time>
            <Position>
              <LatitudeDegrees>36.83088443242013454437255859375</LatitudeDegrees>
              <LongitudeDegrees>-4.36755694448947906494140625</LongitudeDegrees>
            </Position>
            <AltitudeMeters>689.20001220703125</AltitudeMeters>
            <DistanceMeters>NAN</DistanceMeters>
          </Trackpoint>
          <Trackpoint>
            <Time>2020-12-05T12:09:17.000Z</Time>
            <Position>
              <LatitudeDegrees>36.83089499361813068389892578125</LatitudeDegrees>
              <LongitudeDegrees>-4.36755099333822727203369140625</LongitudeDegrees>
            </Position>
            <AltitudeMeters>689.20001220703125</AltitudeMeters>
            <DistanceMeters>NAN</DistanceMeters>
          </Trackpoint>
          <Trackpoint>
            <Time>2020-12-05T12:09:18.000Z</Time>
            <Position>
              <LatitudeDegrees>36.83090840466320514678955078125</LatitudeDegrees>
              <LongitudeDegrees>-4.3675423599779605865478515625</LongitudeDegrees>
            </Position>
            <AltitudeMeters>689.20001220703125</AltitudeMeters>
            <DistanceMeters>NAN</DistanceMeters>
          </Trackpoint>
          <Trackpoint>
            <Time>2020-12-05T12:09:19.000Z</Time>
            <Position>
              <LatitudeDegrees>36.8309222348034381866455078125</LatitudeDegrees>
              <LongitudeDegrees>-4.367531798779964447021484375</LongitudeDegrees>
            </Position>
            <AltitudeMeters>689.20001220703125</AltitudeMeters>
            <DistanceMeters>NAN</DistanceMeters>
          </Trackpoint>
          <Trackpoint>
            <Time>2020-12-05T12:09:20.000Z</Time>
            <Position>
              <LatitudeDegrees>36.83093606494367122650146484375</LatitudeDegrees>
              <LongitudeDegrees>-4.3675212375819683074951171875</LongitudeDegrees>
            </Position>
            <AltitudeMeters>689.20001220703125</AltitudeMeters>
            <DistanceMeters>NAN</DistanceMeters>
          </Trackpoint>
          <Trackpoint>
            <Time>2020-12-05T12:09:21.000Z</Time>
            <Position>
              <LatitudeDegrees>36.83094997890293598175048828125</LatitudeDegrees>
              <LongitudeDegrees>-4.36751193366944789886474609375</LongitudeDegrees>
            </Position>
            <AltitudeMeters>689.20001220703125</AltitudeMeters>
            <DistanceMeters>NAN</DistanceMeters>
          </Trackpoint>
          <Trackpoint>
            <Time>2020-12-05T12:09:22.000Z</Time>
            <Position>
              <LatitudeDegrees>36.830963306128978729248046875</LatitudeDegrees>
              <LongitudeDegrees>-4.367504976689815521240234375</LongitudeDegrees>
            </Position>
            <AltitudeMeters>689.20001220703125</AltitudeMeters>
            <DistanceMeters>NAN</DistanceMeters>
          </Trackpoint>
          <Trackpoint>
            <Time>2020-12-05T12:09:23.000Z</Time>
            <Position>
              <LatitudeDegrees>36.8309772200882434844970703125</LatitudeDegrees>
              <LongitudeDegrees>-4.36750086955726146697998046875</LongitudeDegrees>
            </Position>
            <AltitudeMeters>689.20001220703125</AltitudeMeters>
            <DistanceMeters>NAN</DistanceMeters>
          </Trackpoint>
          <Trackpoint>
            <Time>2020-12-05T12:09:24.000Z</Time>
            <Position>
              <LatitudeDegrees>36.8309913016855716705322265625</LatitudeDegrees>
              <LongitudeDegrees>-4.36750170774757862091064453125</LongitudeDegrees>
            </Position>
            <AltitudeMeters>689.20001220703125</AltitudeMeters>
            <DistanceMeters>NAN</DistanceMeters>
          </Trackpoint>
          <Trackpoint>
            <Time>2020-12-05T12:09:25.000Z</Time>
            <Position>
              <LatitudeDegrees>36.83100563473999500274658203125</LatitudeDegrees>
              <LongitudeDegrees>-4.3675021268427371978759765625</LongitudeDegrees>
            </Position>
            <AltitudeMeters>689.20001220703125</AltitudeMeters>
            <DistanceMeters>NAN</DistanceMeters>
          </Trackpoint>
          <Trackpoint>
            <Time>2020-12-05T12:09:26.000Z</Time>
            <Position>
              <LatitudeDegrees>36.83101803995668888092041015625</LatitudeDegrees>
              <LongitudeDegrees>-4.3674981035292148590087890625</LongitudeDegrees>
            </Position>
            <AltitudeMeters>689.20001220703125</AltitudeMeters>
            <DistanceMeters>NAN</DistanceMeters>
          </Trackpoint>
          <Trackpoint>
            <Time>2020-12-05T12:09:27.000Z</Time>
            <Position>
              <LatitudeDegrees>36.83102843351662158966064453125</LatitudeDegrees>
              <LongitudeDegrees>-4.3674944154918193817138671875</LongitudeDegrees>
            </Position>
            <AltitudeMeters>689.20001220703125</AltitudeMeters>
            <DistanceMeters>NAN</DistanceMeters>
          </Trackpoint>
          <Trackpoint>
            <Time>2020-12-05T12:09:28.000Z</Time>
            <Position>
              <LatitudeDegrees>36.83103849180042743682861328125</LatitudeDegrees>
              <LongitudeDegrees>-4.36748695559799671173095703125</LongitudeDegrees>
            </Position>
            <AltitudeMeters>689.20001220703125</AltitudeMeters>
            <DistanceMeters>NAN</DistanceMeters>
          </Trackpoint>
          <Trackpoint>
            <Time>2020-12-05T12:09:29.000Z</Time>
            <Position>
              <LatitudeDegrees>36.83104888536036014556884765625</LatitudeDegrees>
              <LongitudeDegrees>-4.36748410575091838836669921875</LongitudeDegrees>
            </Position>
            <AltitudeMeters>689.20001220703125</AltitudeMeters>
            <DistanceMeters>NAN</DistanceMeters>
          </Trackpoint>
          <Trackpoint>
            <Time>2020-12-05T12:09:30.000Z</Time>
            <Position>
              <LatitudeDegrees>36.831061542034149169921875</LatitudeDegrees>
              <LongitudeDegrees>-4.36748159117996692657470703125</LongitudeDegrees>
            </Position>
            <AltitudeMeters>689.20001220703125</AltitudeMeters>
            <DistanceMeters>NAN</DistanceMeters>
          </Trackpoint>
          <Trackpoint>
            <Time>2020-12-05T12:09:31.000Z</Time>
            <Position>
              <LatitudeDegrees>36.83107294142246246337890625</LatitudeDegrees>
              <LongitudeDegrees>-4.36747840605676174163818359375</LongitudeDegrees>
            </Position>
            <AltitudeMeters>689.20001220703125</AltitudeMeters>
            <DistanceMeters>NAN</DistanceMeters>
          </Trackpoint>
          <Trackpoint>
            <Time>2020-12-05T12:09:32.000Z</Time>
            <Position>
              <LatitudeDegrees>36.831084676086902618408203125</LatitudeDegrees>
              <LongitudeDegrees>-4.36747672967612743377685546875</LongitudeDegrees>
            </Position>
            <AltitudeMeters>689.20001220703125</AltitudeMeters>
            <DistanceMeters>NAN</DistanceMeters>
          </Trackpoint>
          <Trackpoint>
            <Time>2020-12-05T12:09:33.000Z</Time>
            <Position>
              <LatitudeDegrees>36.831097416579723358154296875</LatitudeDegrees>
              <LongitudeDegrees>-4.367480166256427764892578125</LongitudeDegrees>
            </Position>
            <AltitudeMeters>689.20001220703125</AltitudeMeters>
            <DistanceMeters>NAN</DistanceMeters>
          </Trackpoint>
          <Trackpoint>
            <Time>2020-12-05T12:09:34.000Z</Time>
            <Position>
              <LatitudeDegrees>36.83111191727221012115478515625</LatitudeDegrees>
              <LongitudeDegrees>-4.36748142354190349578857421875</LongitudeDegrees>
            </Position>
            <AltitudeMeters>689.20001220703125</AltitudeMeters>
            <DistanceMeters>NAN</DistanceMeters>
          </Trackpoint>
          <Trackpoint>
            <Time>2020-12-05T12:09:35.000Z</Time>
            <Position>
              <LatitudeDegrees>36.83112449012696743011474609375</LatitudeDegrees>
              <LongitudeDegrees>-4.3674830161035060882568359375</LongitudeDegrees>
            </Position>
            <AltitudeMeters>689.20001220703125</AltitudeMeters>
            <DistanceMeters>NAN</DistanceMeters>
          </Trackpoint>
          <Trackpoint>
            <Time>2020-12-05T12:09:36.000Z</Time>
            <Position>
              <LatitudeDegrees>36.83113622479140758514404296875</LatitudeDegrees>
              <LongitudeDegrees>-4.36748318374156951904296875</LongitudeDegrees>
            </Position>
            <AltitudeMeters>689.20001220703125</AltitudeMeters>
            <DistanceMeters>NAN</DistanceMeters>
          </Trackpoint>
          <Trackpoint>
            <Time>2020-12-05T12:09:37.000Z</Time>
            <Position>
              <LatitudeDegrees>36.83114728890359401702880859375</LatitudeDegrees>
              <LongitudeDegrees>-4.36748259700834751129150390625</LongitudeDegrees>
            </Position>
            <AltitudeMeters>689.20001220703125</AltitudeMeters>
            <DistanceMeters>NAN</DistanceMeters>
          </Trackpoint>
          <Trackpoint>
            <Time>2020-12-05T12:09:38.000Z</Time>
            <Position>
              <LatitudeDegrees>36.831158436834812164306640625</LatitudeDegrees>
              <LongitudeDegrees>-4.36748025007545948028564453125</LongitudeDegrees>
            </Position>
            <AltitudeMeters>689.20001220703125</AltitudeMeters>
            <DistanceMeters>NAN</DistanceMeters>
          </Trackpoint>
          <Trackpoint>
            <Time>2020-12-05T12:09:39.000Z</Time>
            <Position>
              <LatitudeDegrees>36.83117218315601348876953125</LatitudeDegrees>
              <LongitudeDegrees>-4.36747848987579345703125</LongitudeDegrees>
            </Position>
            <AltitudeMeters>689.20001220703125</AltitudeMeters>
            <DistanceMeters>NAN</DistanceMeters>
          </Trackpoint>
          <Trackpoint>
            <Time>2020-12-05T12:09:40.000Z</Time>
            <Position>
              <LatitudeDegrees>36.8311824090778827667236328125</LatitudeDegrees>
              <LongitudeDegrees>-4.36747555620968341827392578125</LongitudeDegrees>
            </Position>
            <AltitudeMeters>689.20001220703125</AltitudeMeters>
            <DistanceMeters>NAN</DistanceMeters>
          </Trackpoint>
          <Trackpoint>
            <Time>2020-12-05T12:09:41.000Z</Time>
            <Position>
              <LatitudeDegrees>36.83119456283748149871826171875</LatitudeDegrees>
              <LongitudeDegrees>-4.36747916042804718017578125</LongitudeDegrees>
            </Position>
            <AltitudeMeters>689.20001220703125</AltitudeMeters>
            <DistanceMeters>NAN</DistanceMeters>
          </Trackpoint>
          <Trackpoint>
            <Time>2020-12-05T12:09:42.000Z</Time>
            <Position>
              <LatitudeDegrees>36.83120663277804851531982421875</LatitudeDegrees>
              <LongitudeDegrees>-4.36748058535158634185791015625</LongitudeDegrees>
            </Position>
            <AltitudeMeters>689.20001220703125</AltitudeMeters>
            <DistanceMeters>NAN</DistanceMeters>
          </Trackpoint>
          <Trackpoint>
            <Time>2020-12-05T12:09:43.000Z</Time>
            <Position>
              <LatitudeDegrees>36.83121778070926666259765625</LatitudeDegrees>
              <LongitudeDegrees>-4.36747773550450801849365234375</LongitudeDegrees>
            </Position>
            <AltitudeMeters>689.20001220703125</AltitudeMeters>
            <DistanceMeters>NAN</DistanceMeters>
          </Trackpoint>
          <Trackpoint>
            <Time>2020-12-05T12:09:44.000Z</Time>
            <Position>
              <LatitudeDegrees>36.831229515373706817626953125</LatitudeDegrees>
              <LongitudeDegrees>-4.36747781932353973388671875</LongitudeDegrees>
            </Position>
            <AltitudeMeters>689.20001220703125</AltitudeMeters>
            <DistanceMeters>NAN</DistanceMeters>
          </Trackpoint>
          <Trackpoint>
            <Time>2020-12-05T12:09:45.000Z</Time>
            <Position>
              <LatitudeDegrees>36.831239573657512664794921875</LatitudeDegrees>
              <LongitudeDegrees>-4.36748041771352291107177734375</LongitudeDegrees>
            </Position>
            <AltitudeMeters>689.20001220703125</AltitudeMeters>
            <DistanceMeters>NAN</DistanceMeters>
          </Trackpoint>
          <Trackpoint>
            <Time>2020-12-05T12:09:46.000Z</Time>
            <Position>
              <LatitudeDegrees>36.831248961389064788818359375</LatitudeDegrees>
              <LongitudeDegrees>-4.36748427338898181915283203125</LongitudeDegrees>
            </Position>
            <AltitudeMeters>689.20001220703125</AltitudeMeters>
            <DistanceMeters>NAN</DistanceMeters>
          </Trackpoint>
          <Trackpoint>
            <Time>2020-12-05T12:09:47.000Z</Time>
            <Position>
              <LatitudeDegrees>36.83125876821577548980712890625</LatitudeDegrees>
              <LongitudeDegrees>-4.36748988926410675048828125</LongitudeDegrees>
            </Position>
            <AltitudeMeters>689.20001220703125</AltitudeMeters>
            <DistanceMeters>NAN</DistanceMeters>
          </Trackpoint>
          <Trackpoint>
            <Time>2020-12-05T12:09:48.000Z</Time>
            <Position>
              <LatitudeDegrees>36.83127167634665966033935546875</LatitudeDegrees>
              <LongitudeDegrees>-4.36749315820634365081787109375</LongitudeDegrees>
            </Position>
            <AltitudeMeters>689.20001220703125</AltitudeMeters>
            <DistanceMeters>NAN</DistanceMeters>
          </Trackpoint>
          <Trackpoint>
            <Time>2020-12-05T12:09:49.000Z</Time>
            <Position>
              <LatitudeDegrees>36.83128081262111663818359375</LatitudeDegrees>
              <LongitudeDegrees>-4.36749617569148540496826171875</LongitudeDegrees>
            </Position>
            <AltitudeMeters>689.20001220703125</AltitudeMeters>
            <DistanceMeters>NAN</DistanceMeters>
          </Trackpoint>
          <Trackpoint>
            <Time>2020-12-05T12:09:50.000Z</Time>
            <Position>
              <LatitudeDegrees>36.8312900327146053314208984375</LatitudeDegrees>
              <LongitudeDegrees>-4.3675007857382297515869140625</LongitudeDegrees>
            </Position>
            <AltitudeMeters>689.20001220703125</AltitudeMeters>
            <DistanceMeters>NAN</DistanceMeters>
          </Trackpoint>
          <Trackpoint>
            <Time>2020-12-05T12:09:51.000Z</Time>
            <Position>
              <LatitudeDegrees>36.831297576427459716796875</LatitudeDegrees>
              <LongitudeDegrees>-4.3675081618130207061767578125</LongitudeDegrees>
            </Position>
            <AltitudeMeters>689.20001220703125</AltitudeMeters>
            <DistanceMeters>NAN</DistanceMeters>
          </Trackpoint>
          <Trackpoint>
            <Time>2020-12-05T12:09:52.000Z</Time>
            <Position>
              <LatitudeDegrees>36.83131157420575618743896484375</LatitudeDegrees>
              <LongitudeDegrees>-4.36751562170684337615966796875</LongitudeDegrees>
            </Position>
            <AltitudeMeters>689.20001220703125</AltitudeMeters>
            <DistanceMeters>NAN</DistanceMeters>
          </Trackpoint>
          <Trackpoint>
            <Time>2020-12-05T12:09:53.000Z</Time>
            <Position>
              <LatitudeDegrees>36.83132263831794261932373046875</LatitudeDegrees>
              <LongitudeDegrees>-4.3675227463245391845703125</LongitudeDegrees>
            </Position>
            <AltitudeMeters>689.20001220703125</AltitudeMeters>
            <DistanceMeters>NAN</DistanceMeters>
          </Trackpoint>
          <Trackpoint>
            <Time>2020-12-05T12:09:54.000Z</Time>
            <Position>
              <LatitudeDegrees>36.83133219368755817413330078125</LatitudeDegrees>
              <LongitudeDegrees>-4.36753087677061557769775390625</LongitudeDegrees>
            </Position>
            <AltitudeMeters>689.20001220703125</AltitudeMeters>
            <DistanceMeters>NAN</DistanceMeters>
          </Trackpoint>
          <Trackpoint>
            <Time>2020-12-05T12:09:55.000Z</Time>
            <Position>
              <LatitudeDegrees>36.831342838704586029052734375</LatitudeDegrees>
              <LongitudeDegrees>-4.36754085123538970947265625</LongitudeDegrees>
            </Position>
            <AltitudeMeters>689.20001220703125</AltitudeMeters>
            <DistanceMeters>NAN</DistanceMeters>
          </Trackpoint>
          <Trackpoint>
            <Time>2020-12-05T12:09:56.000Z</Time>
            <Position>
              <LatitudeDegrees>36.83135348372161388397216796875</LatitudeDegrees>
              <LongitudeDegrees>-4.367549233138561248779296875</LongitudeDegrees>
            </Position>
            <AltitudeMeters>689.20001220703125</AltitudeMeters>
            <DistanceMeters>NAN</DistanceMeters>
          </Trackpoint>
          <Trackpoint>
            <Time>2020-12-05T12:09:57.000Z</Time>
            <Position>
              <LatitudeDegrees>36.8313624523580074310302734375</LatitudeDegrees>
              <LongitudeDegrees>-4.367556609213352203369140625</LongitudeDegrees>
            </Position>
            <AltitudeMeters>689.20001220703125</AltitudeMeters>
            <DistanceMeters>NAN</DistanceMeters>
          </Trackpoint>
          <Trackpoint>
            <Time>2020-12-05T12:09:58.000Z</Time>
            <Position>
              <LatitudeDegrees>36.83137075044214725494384765625</LatitudeDegrees>
              <LongitudeDegrees>-4.36756742186844348907470703125</LongitudeDegrees>
            </Position>
            <AltitudeMeters>689.20001220703125</AltitudeMeters>
            <DistanceMeters>NAN</DistanceMeters>
          </Trackpoint>
          <Trackpoint>
            <Time>2020-12-05T12:09:59.000Z</Time>
            <Position>
              <LatitudeDegrees>36.83137695305049419403076171875</LatitudeDegrees>
              <LongitudeDegrees>-4.3675792403519153594970703125</LongitudeDegrees>
            </Position>
            <AltitudeMeters>689.20001220703125</AltitudeMeters>
            <DistanceMeters>NAN</DistanceMeters>
          </Trackpoint>
          <Trackpoint>
            <Time>2020-12-05T12:10:00.000Z</Time>
            <Position>
              <LatitudeDegrees>36.83138164691627025604248046875</LatitudeDegrees>
              <LongitudeDegrees>-4.3675923161208629608154296875</LongitudeDegrees>
            </Position>
            <AltitudeMeters>684.79998779296875</AltitudeMeters>
            <DistanceMeters>NAN</DistanceMeters>
          </Trackpoint>
          <Trackpoint>
            <Time>2020-12-05T12:10:01.000Z</Time>
            <Position>
              <LatitudeDegrees>36.8313879333436489105224609375</LatitudeDegrees>
              <LongitudeDegrees>-4.367602206766605377197265625</LongitudeDegrees>
            </Position>
            <AltitudeMeters>684.79998779296875</AltitudeMeters>
            <DistanceMeters>NAN</DistanceMeters>
          </Trackpoint>
          <Trackpoint>
            <Time>2020-12-05T12:10:02.000Z</Time>
            <Position>
              <LatitudeDegrees>36.8313919566571712493896484375</LatitudeDegrees>
              <LongitudeDegrees>-4.3676084093749523162841796875</LongitudeDegrees>
            </Position>
            <AltitudeMeters>684.79998779296875</AltitudeMeters>
            <DistanceMeters>NAN</DistanceMeters>
          </Trackpoint>
          <Trackpoint>
            <Time>2020-12-05T12:10:03.000Z</Time>
            <Position>
              <LatitudeDegrees>36.8313973210752010345458984375</LatitudeDegrees>
              <LongitudeDegrees>-4.36761905439198017120361328125</LongitudeDegrees>
            </Position>
            <AltitudeMeters>684.79998779296875</AltitudeMeters>
            <DistanceMeters>NAN</DistanceMeters>
          </Trackpoint>
          <Trackpoint>
            <Time>2020-12-05T12:10:04.000Z</Time>
            <Position>
              <LatitudeDegrees>36.8314040265977382659912109375</LatitudeDegrees>
              <LongitudeDegrees>-4.367631375789642333984375</LongitudeDegrees>
            </Position>
            <AltitudeMeters>684.79998779296875</AltitudeMeters>
            <DistanceMeters>NAN</DistanceMeters>
          </Trackpoint>
          <Trackpoint>
            <Time>2020-12-05T12:10:05.000Z</Time>
            <Position>
              <LatitudeDegrees>36.83140981011092662811279296875</LatitudeDegrees>
              <LongitudeDegrees>-4.36764503829181194305419921875</LongitudeDegrees>
            </Position>
            <AltitudeMeters>684.79998779296875</AltitudeMeters>
            <DistanceMeters>NAN</DistanceMeters>
          </Trackpoint>
          <Trackpoint>
            <Time>2020-12-05T12:10:06.000Z</Time>
            <Position>
              <LatitudeDegrees>36.83141718618571758270263671875</LatitudeDegrees>
              <LongitudeDegrees>-4.36765761114656925201416015625</LongitudeDegrees>
            </Position>
            <AltitudeMeters>684.79998779296875</AltitudeMeters>
            <DistanceMeters>NAN</DistanceMeters>
          </Trackpoint>
          <Trackpoint>
            <Time>2020-12-05T12:10:07.000Z</Time>
            <Position>
              <LatitudeDegrees>36.83142405934631824493408203125</LatitudeDegrees>
              <LongitudeDegrees>-4.367668926715850830078125</LongitudeDegrees>
            </Position>
            <AltitudeMeters>684.79998779296875</AltitudeMeters>
            <DistanceMeters>NAN</DistanceMeters>
          </Trackpoint>
          <Trackpoint>
            <Time>2020-12-05T12:10:08.000Z</Time>
            <Position>
              <LatitudeDegrees>36.8314321897923946380615234375</LatitudeDegrees>
              <LongitudeDegrees>-4.36768225394189357757568359375</LongitudeDegrees>
            </Position>
            <AltitudeMeters>684.79998779296875</AltitudeMeters>
            <DistanceMeters>NAN</DistanceMeters>
          </Trackpoint>
          <Trackpoint>
            <Time>2020-12-05T12:10:09.000Z</Time>
            <Position>
              <LatitudeDegrees>36.8314392305910587310791015625</LatitudeDegrees>
              <LongitudeDegrees>-4.36769507825374603271484375</LongitudeDegrees>
            </Position>
            <AltitudeMeters>684.79998779296875</AltitudeMeters>
            <DistanceMeters>NAN</DistanceMeters>
          </Trackpoint>
          <Trackpoint>
            <Time>2020-12-05T12:10:10.000Z</Time>
            <Position>
              <LatitudeDegrees>36.83144585229456424713134765625</LatitudeDegrees>
              <LongitudeDegrees>-4.36770522035658359527587890625</LongitudeDegrees>
            </Position>
            <AltitudeMeters>684.79998779296875</AltitudeMeters>
            <DistanceMeters>NAN</DistanceMeters>
          </Trackpoint>
          <Trackpoint>
            <Time>2020-12-05T12:10:11.000Z</Time>
            <Position>
              <LatitudeDegrees>36.83145037852227687835693359375</LatitudeDegrees>
              <LongitudeDegrees>-4.36771578155457973480224609375</LongitudeDegrees>
            </Position>
            <AltitudeMeters>684.79998779296875</AltitudeMeters>
            <DistanceMeters>NAN</DistanceMeters>
          </Trackpoint>
          <Trackpoint>
            <Time>2020-12-05T12:10:12.000Z</Time>
            <Position>
              <LatitudeDegrees>36.8314519710838794708251953125</LatitudeDegrees>
              <LongitudeDegrees>-4.36773137189447879791259765625</LongitudeDegrees>
            </Position>
            <AltitudeMeters>684.79998779296875</AltitudeMeters>
            <DistanceMeters>NAN</DistanceMeters>
          </Trackpoint>
          <Trackpoint>
            <Time>2020-12-05T12:10:13.000Z</Time>
            <Position>
              <LatitudeDegrees>36.83145205490291118621826171875</LatitudeDegrees>
              <LongitudeDegrees>-4.36774796806275844573974609375</LongitudeDegrees>
            </Position>
            <AltitudeMeters>684.79998779296875</AltitudeMeters>
            <DistanceMeters>NAN</DistanceMeters>
          </Trackpoint>
          <Trackpoint>
            <Time>2020-12-05T12:10:14.000Z</Time>
            <Position>
              <LatitudeDegrees>36.83145389892160892486572265625</LatitudeDegrees>
              <LongitudeDegrees>-4.3677639774978160858154296875</LongitudeDegrees>
            </Position>
            <AltitudeMeters>684.79998779296875</AltitudeMeters>
            <DistanceMeters>NAN</DistanceMeters>
          </Trackpoint>
          <Trackpoint>
            <Time>2020-12-05T12:10:15.000Z</Time>
            <Position>
              <LatitudeDegrees>36.8314566649496555328369140625</LatitudeDegrees>
              <LongitudeDegrees>-4.367781914770603179931640625</LongitudeDegrees>
            </Position>
            <AltitudeMeters>684.79998779296875</AltitudeMeters>
            <DistanceMeters>NAN</DistanceMeters>
          </Trackpoint>
          <Trackpoint>
            <Time>2020-12-05T12:10:16.000Z</Time>
            <Position>
              <LatitudeDegrees>36.8314606882631778717041015625</LatitudeDegrees>
              <LongitudeDegrees>-4.36779658310115337371826171875</LongitudeDegrees>
            </Position>
            <AltitudeMeters>684.79998779296875</AltitudeMeters>
            <DistanceMeters>NAN</DistanceMeters>
          </Trackpoint>
          <Trackpoint>
            <Time>2020-12-05T12:10:17.000Z</Time>
            <Position>
              <LatitudeDegrees>36.831462867558002471923828125</LatitudeDegrees>
              <LongitudeDegrees>-4.367813430726528167724609375</LongitudeDegrees>
            </Position>
            <AltitudeMeters>684.79998779296875</AltitudeMeters>
            <DistanceMeters>NAN</DistanceMeters>
          </Trackpoint>
          <Trackpoint>
            <Time>2020-12-05T12:10:18.000Z</Time>
            <Position>
              <LatitudeDegrees>36.83146563358604907989501953125</LatitudeDegrees>
              <LongitudeDegrees>-4.36783161945641040802001953125</LongitudeDegrees>
            </Position>
            <AltitudeMeters>684.79998779296875</AltitudeMeters>
            <DistanceMeters>NAN</DistanceMeters>
          </Trackpoint>
          <Trackpoint>
            <Time>2020-12-05T12:10:19.000Z</Time>
            <Position>
              <LatitudeDegrees>36.83146856725215911865234375</LatitudeDegrees>
              <LongitudeDegrees>-4.3678494729101657867431640625</LongitudeDegrees>
            </Position>
            <AltitudeMeters>684.79998779296875</AltitudeMeters>
            <DistanceMeters>NAN</DistanceMeters>
          </Trackpoint>
          <Trackpoint>
            <Time>2020-12-05T12:10:20.000Z</Time>
            <Position>
              <LatitudeDegrees>36.831473596394062042236328125</LatitudeDegrees>
              <LongitudeDegrees>-4.36786732636392116546630859375</LongitudeDegrees>
            </Position>
            <AltitudeMeters>684.79998779296875</AltitudeMeters>
            <DistanceMeters>NAN</DistanceMeters>
          </Trackpoint>
          <Trackpoint>
            <Time>2020-12-05T12:10:21.000Z</Time>
            <Position>
              <LatitudeDegrees>36.83147837407886981964111328125</LatitudeDegrees>
              <LongitudeDegrees>-4.36788241378962993621826171875</LongitudeDegrees>
            </Position>
            <AltitudeMeters>684.79998779296875</AltitudeMeters>
            <DistanceMeters>NAN</DistanceMeters>
          </Trackpoint>
          <Trackpoint>
            <Time>2020-12-05T12:10:22.000Z</Time>
            <Position>
              <LatitudeDegrees>36.8314828164875507354736328125</LatitudeDegrees>
              <LongitudeDegrees>-4.36789599247276782989501953125</LongitudeDegrees>
            </Position>
            <AltitudeMeters>684.79998779296875</AltitudeMeters>
            <DistanceMeters>NAN</DistanceMeters>
          </Trackpoint>
          <Trackpoint>
            <Time>2020-12-05T12:10:23.000Z</Time>
            <Position>
              <LatitudeDegrees>36.83148960582911968231201171875</LatitudeDegrees>
              <LongitudeDegrees>-4.3679138459265232086181640625</LongitudeDegrees>
            </Position>
            <AltitudeMeters>684.79998779296875</AltitudeMeters>
            <DistanceMeters>NAN</DistanceMeters>
          </Trackpoint>
          <Trackpoint>
            <Time>2020-12-05T12:10:24.000Z</Time>
            <Position>
              <LatitudeDegrees>36.83149480260908603668212890625</LatitudeDegrees>
              <LongitudeDegrees>-4.36793404631316661834716796875</LongitudeDegrees>
            </Position>
            <AltitudeMeters>684.79998779296875</AltitudeMeters>
            <DistanceMeters>NAN</DistanceMeters>
          </Trackpoint>
          <Trackpoint>
            <Time>2020-12-05T12:10:25.000Z</Time>
            <Position>
              <LatitudeDegrees>36.83149815537035465240478515625</LatitudeDegrees>
              <LongitudeDegrees>-4.36795131303369998931884765625</LongitudeDegrees>
            </Position>
            <AltitudeMeters>684.79998779296875</AltitudeMeters>
            <DistanceMeters>NAN</DistanceMeters>
          </Trackpoint>
          <Trackpoint>
            <Time>2020-12-05T12:10:26.000Z</Time>
            <Position>
              <LatitudeDegrees>36.83150117285549640655517578125</LatitudeDegrees>
              <LongitudeDegrees>-4.36796925030648708343505859375</LongitudeDegrees>
            </Position>
            <AltitudeMeters>684.79998779296875</AltitudeMeters>
            <DistanceMeters>NAN</DistanceMeters>
          </Trackpoint>
          <Trackpoint>
            <Time>2020-12-05T12:10:27.000Z</Time>
            <Position>
              <LatitudeDegrees>36.8315056152641773223876953125</LatitudeDegrees>
              <LongitudeDegrees>-4.36798685230314731597900390625</LongitudeDegrees>
            </Position>
            <AltitudeMeters>684.79998779296875</AltitudeMeters>
            <DistanceMeters>NAN</DistanceMeters>
          </Trackpoint>
          <Trackpoint>
            <Time>2020-12-05T12:10:28.000Z</Time>
            <Position>
              <LatitudeDegrees>36.83151022531092166900634765625</LatitudeDegrees>
              <LongitudeDegrees>-4.36800428666174411773681640625</LongitudeDegrees>
            </Position>
            <AltitudeMeters>684.79998779296875</AltitudeMeters>
            <DistanceMeters>NAN</DistanceMeters>
          </Trackpoint>
          <Trackpoint>
            <Time>2020-12-05T12:10:29.000Z</Time>
            <Position>
              <LatitudeDegrees>36.83151307515799999237060546875</LatitudeDegrees>
              <LongitudeDegrees>-4.3680191226303577423095703125</LongitudeDegrees>
            </Position>
            <AltitudeMeters>684.79998779296875</AltitudeMeters>
            <DistanceMeters>NAN</DistanceMeters>
          </Trackpoint>
          <Trackpoint>
            <Time>2020-12-05T12:10:30.000Z</Time>
            <Position>
              <LatitudeDegrees>36.8315150029957294464111328125</LatitudeDegrees>
              <LongitudeDegrees>-4.3680323660373687744140625</LongitudeDegrees>
            </Position>
            <AltitudeMeters>684.79998779296875</AltitudeMeters>
            <DistanceMeters>NAN</DistanceMeters>
          </Trackpoint>
          <Trackpoint>
            <Time>2020-12-05T12:10:31.000Z</Time>
            <Position>
              <LatitudeDegrees>36.8315176852047443389892578125</LatitudeDegrees>
              <LongitudeDegrees>-4.36804552562534809112548828125</LongitudeDegrees>
            </Position>
            <AltitudeMeters>684.79998779296875</AltitudeMeters>
            <DistanceMeters>NAN</DistanceMeters>
          </Trackpoint>
          <Trackpoint>
            <Time>2020-12-05T12:10:32.000Z</Time>
            <Position>
              <LatitudeDegrees>36.8315223790705204010009765625</LatitudeDegrees>
              <LongitudeDegrees>-4.368060864508152008056640625</LongitudeDegrees>
            </Position>
            <AltitudeMeters>684.79998779296875</AltitudeMeters>
            <DistanceMeters>NAN</DistanceMeters>
          </Trackpoint>
          <Trackpoint>
            <Time>2020-12-05T12:10:33.000Z</Time>
            <Position>
              <LatitudeDegrees>36.8315255641937255859375</LatitudeDegrees>
              <LongitudeDegrees>-4.36807787977159023284912109375</LongitudeDegrees>
            </Position>
            <AltitudeMeters>683</AltitudeMeters>
            <DistanceMeters>NAN</DistanceMeters>
          </Trackpoint>
          <Trackpoint>
            <Time>2020-12-05T12:10:34.000Z</Time>
            <Position>
              <LatitudeDegrees>36.8315269052982330322265625</LatitudeDegrees>
              <LongitudeDegrees>-4.3680965714156627655029296875</LongitudeDegrees>
            </Position>
            <AltitudeMeters>683</AltitudeMeters>
            <DistanceMeters>NAN</DistanceMeters>
          </Trackpoint>
          <Trackpoint>
            <Time>2020-12-05T12:10:35.000Z</Time>
            <Position>
              <LatitudeDegrees>36.83152615092694759368896484375</LatitudeDegrees>
              <LongitudeDegrees>-4.36810947954654693603515625</LongitudeDegrees>
            </Position>
            <AltitudeMeters>683</AltitudeMeters>
            <DistanceMeters>NAN</DistanceMeters>
          </Trackpoint>
          <Trackpoint>
            <Time>2020-12-05T12:10:36.000Z</Time>
            <Position>
              <LatitudeDegrees>36.83152581565082073211669921875</LatitudeDegrees>
              <LongitudeDegrees>-4.36812347732484340667724609375</LongitudeDegrees>
            </Position>
            <AltitudeMeters>683</AltitudeMeters>
            <DistanceMeters>NAN</DistanceMeters>
          </Trackpoint>
          <Trackpoint>
            <Time>2020-12-05T12:10:37.000Z</Time>
            <Position>
              <LatitudeDegrees>36.83152548037469387054443359375</LatitudeDegrees>
              <LongitudeDegrees>-4.36813822947442531585693359375</LongitudeDegrees>
            </Position>
            <AltitudeMeters>683</AltitudeMeters>
            <DistanceMeters>NAN</DistanceMeters>
          </Trackpoint>
          <Trackpoint>
            <Time>2020-12-05T12:10:38.000Z</Time>
            <Position>
              <LatitudeDegrees>36.83152531273663043975830078125</LatitudeDegrees>
              <LongitudeDegrees>-4.36815231107175350189208984375</LongitudeDegrees>
            </Position>
            <AltitudeMeters>683</AltitudeMeters>
            <DistanceMeters>NAN</DistanceMeters>
          </Trackpoint>
          <Trackpoint>
            <Time>2020-12-05T12:10:39.000Z</Time>
            <Position>
              <LatitudeDegrees>36.83152430690824985504150390625</LatitudeDegrees>
              <LongitudeDegrees>-4.3681629560887813568115234375</LongitudeDegrees>
            </Position>
            <AltitudeMeters>683</AltitudeMeters>
            <DistanceMeters>NAN</DistanceMeters>
          </Trackpoint>
          <Trackpoint>
            <Time>2020-12-05T12:10:40.000Z</Time>
            <Position>
              <LatitudeDegrees>36.83152330107986927032470703125</LatitudeDegrees>
              <LongitudeDegrees>-4.36817427165806293487548828125</LongitudeDegrees>
            </Position>
            <AltitudeMeters>683</AltitudeMeters>
            <DistanceMeters>NAN</DistanceMeters>
          </Trackpoint>
          <Trackpoint>
            <Time>2020-12-05T12:10:41.000Z</Time>
            <Position>
              <LatitudeDegrees>36.83152145706117153167724609375</LatitudeDegrees>
              <LongitudeDegrees>-4.368190951645374298095703125</LongitudeDegrees>
            </Position>
            <AltitudeMeters>683</AltitudeMeters>
            <DistanceMeters>NAN</DistanceMeters>
          </Trackpoint>
          <Trackpoint>
            <Time>2020-12-05T12:10:42.000Z</Time>
            <Position>
              <LatitudeDegrees>36.83152045123279094696044921875</LatitudeDegrees>
              <LongitudeDegrees>-4.36820930801331996917724609375</LongitudeDegrees>
            </Position>
            <AltitudeMeters>683</AltitudeMeters>
            <DistanceMeters>NAN</DistanceMeters>
          </Trackpoint>
          <Trackpoint>
            <Time>2020-12-05T12:10:43.000Z</Time>
            <Position>
              <LatitudeDegrees>36.83152112178504467010498046875</LatitudeDegrees>
              <LongitudeDegrees>-4.36822523362934589385986328125</LongitudeDegrees>
            </Position>
            <AltitudeMeters>683</AltitudeMeters>
            <DistanceMeters>NAN</DistanceMeters>
          </Trackpoint>
          <Trackpoint>
            <Time>2020-12-05T12:10:44.000Z</Time>
            <Position>
              <LatitudeDegrees>36.8315220437943935394287109375</LatitudeDegrees>
              <LongitudeDegrees>-4.36824132688343524932861328125</LongitudeDegrees>
            </Position>
            <AltitudeMeters>683</AltitudeMeters>
            <DistanceMeters>NAN</DistanceMeters>
          </Trackpoint>
          <Trackpoint>
            <Time>2020-12-05T12:10:45.000Z</Time>
            <Position>
              <LatitudeDegrees>36.8315233848989009857177734375</LatitudeDegrees>
              <LongitudeDegrees>-4.36825524084270000457763671875</LongitudeDegrees>
            </Position>
            <AltitudeMeters>683</AltitudeMeters>
            <DistanceMeters>NAN</DistanceMeters>
          </Trackpoint>
          <Trackpoint>
            <Time>2020-12-05T12:10:46.000Z</Time>
            <Position>
              <LatitudeDegrees>36.83152480982244014739990234375</LatitudeDegrees>
              <LongitudeDegrees>-4.36826932244002819061279296875</LongitudeDegrees>
            </Position>
            <AltitudeMeters>683</AltitudeMeters>
            <DistanceMeters>NAN</DistanceMeters>
          </Trackpoint>
          <Trackpoint>
            <Time>2020-12-05T12:10:47.000Z</Time>
            <Position>
              <LatitudeDegrees>36.83152757585048675537109375</LatitudeDegrees>
              <LongitudeDegrees>-4.3682823143899440765380859375</LongitudeDegrees>
            </Position>
            <AltitudeMeters>683</AltitudeMeters>
            <DistanceMeters>NAN</DistanceMeters>
          </Trackpoint>
          <Trackpoint>
            <Time>2020-12-05T12:10:48.000Z</Time>
            <Position>
              <LatitudeDegrees>36.83153302408754825592041015625</LatitudeDegrees>
              <LongitudeDegrees>-4.36830000020563602447509765625</LongitudeDegrees>
            </Position>
            <AltitudeMeters>683</AltitudeMeters>
            <DistanceMeters>NAN</DistanceMeters>
          </Trackpoint>
          <Trackpoint>
            <Time>2020-12-05T12:10:49.000Z</Time>
            <Position>
              <LatitudeDegrees>36.83154232800006866455078125</LatitudeDegrees>
              <LongitudeDegrees>-4.36831978149712085723876953125</LongitudeDegrees>
            </Position>
            <AltitudeMeters>683</AltitudeMeters>
            <DistanceMeters>NAN</DistanceMeters>
          </Trackpoint>
          <Trackpoint>
            <Time>2020-12-05T12:10:50.000Z</Time>
            <Position>
              <LatitudeDegrees>36.8315532244741916656494140625</LatitudeDegrees>
              <LongitudeDegrees>-4.36834325082600116729736328125</LongitudeDegrees>
            </Position>
            <AltitudeMeters>683</AltitudeMeters>
            <DistanceMeters>NAN</DistanceMeters>
          </Trackpoint>
          <Trackpoint>
            <Time>2020-12-05T12:10:51.000Z</Time>
            <Position>
              <LatitudeDegrees>36.83156420476734638214111328125</LatitudeDegrees>
              <LongitudeDegrees>-4.36836135573685169219970703125</LongitudeDegrees>
            </Position>
            <AltitudeMeters>683</AltitudeMeters>
            <DistanceMeters>NAN</DistanceMeters>
          </Trackpoint>
          <Trackpoint>
            <Time>2020-12-05T12:10:56.000Z</Time>
            <Position>
              <LatitudeDegrees>36.83158264495432376861572265625</LatitudeDegrees>
              <LongitudeDegrees>-4.36846177093684673309326171875</LongitudeDegrees>
            </Position>
            <AltitudeMeters>683</AltitudeMeters>
            <DistanceMeters>NAN</DistanceMeters>
          </Trackpoint>
          <Trackpoint>
            <Time>2020-12-05T12:10:57.000Z</Time>
            <Position>
              <LatitudeDegrees>36.83158063329756259918212890625</LatitudeDegrees>
              <LongitudeDegrees>-4.3684801273047924041748046875</LongitudeDegrees>
            </Position>
            <AltitudeMeters>683</AltitudeMeters>
            <DistanceMeters>NAN</DistanceMeters>
          </Trackpoint>
          <Trackpoint>
            <Time>2020-12-05T12:10:58.000Z</Time>
            <Position>
              <LatitudeDegrees>36.83158281259238719940185546875</LatitudeDegrees>
              <LongitudeDegrees>-4.36849697493016719818115234375</LongitudeDegrees>
            </Position>
            <AltitudeMeters>683</AltitudeMeters>
            <DistanceMeters>NAN</DistanceMeters>
          </Trackpoint>
          <Trackpoint>
            <Time>2020-12-05T12:10:59.000Z</Time>
            <Position>
              <LatitudeDegrees>36.83158331550657749176025390625</LatitudeDegrees>
              <LongitudeDegrees>-4.368520192801952362060546875</LongitudeDegrees>
            </Position>
            <AltitudeMeters>683</AltitudeMeters>
            <DistanceMeters>NAN</DistanceMeters>
          </Trackpoint>
          <Trackpoint>
            <Time>2020-12-05T12:11:00.000Z</Time>
            <Position>
              <LatitudeDegrees>36.83158230967819690704345703125</LatitudeDegrees>
              <LongitudeDegrees>-4.36854508705437183380126953125</LongitudeDegrees>
            </Position>
            <AltitudeMeters>677.20001220703125</AltitudeMeters>
            <DistanceMeters>NAN</DistanceMeters>
          </Trackpoint>
          <Trackpoint>
            <Time>2020-12-05T12:11:01.000Z</Time>
            <Position>
              <LatitudeDegrees>36.831588931381702423095703125</LatitudeDegrees>
              <LongitudeDegrees>-4.36856118030846118927001953125</LongitudeDegrees>
            </Position>
            <AltitudeMeters>677.20001220703125</AltitudeMeters>
            <DistanceMeters>NAN</DistanceMeters>
          </Trackpoint>
          <Trackpoint>
            <Time>2020-12-05T12:11:02.000Z</Time>
            <Position>
              <LatitudeDegrees>36.83159102685749530792236328125</LatitudeDegrees>
              <LongitudeDegrees>-4.3685854040086269378662109375</LongitudeDegrees>
            </Position>
            <AltitudeMeters>677.20001220703125</AltitudeMeters>
            <DistanceMeters>NAN</DistanceMeters>
          </Trackpoint>
          <Trackpoint>
            <Time>2020-12-05T12:11:03.000Z</Time>
            <Position>
              <LatitudeDegrees>36.8315968103706836700439453125</LatitudeDegrees>
              <LongitudeDegrees>-4.3685961328446865081787109375</LongitudeDegrees>
            </Position>
            <AltitudeMeters>677.20001220703125</AltitudeMeters>
            <DistanceMeters>NAN</DistanceMeters>
          </Trackpoint>
          <Trackpoint>
            <Time>2020-12-05T12:11:04.000Z</Time>
            <Position>
              <LatitudeDegrees>36.83160343207418918609619140625</LatitudeDegrees>
              <LongitudeDegrees>-4.36861247755587100982666015625</LongitudeDegrees>
            </Position>
            <AltitudeMeters>677.20001220703125</AltitudeMeters>
            <DistanceMeters>NAN</DistanceMeters>
          </Trackpoint>
          <Trackpoint>
            <Time>2020-12-05T12:11:05.000Z</Time>
            <Position>
              <LatitudeDegrees>36.8316031806170940399169921875</LatitudeDegrees>
              <LongitudeDegrees>-4.3686251342296600341796875</LongitudeDegrees>
            </Position>
            <AltitudeMeters>677.20001220703125</AltitudeMeters>
            <DistanceMeters>NAN</DistanceMeters>
          </Trackpoint>
          <Trackpoint>
            <Time>2020-12-05T12:11:06.000Z</Time>
            <Position>
              <LatitudeDegrees>36.8316035158932209014892578125</LatitudeDegrees>
              <LongitudeDegrees>-4.36863527633249759674072265625</LongitudeDegrees>
            </Position>
            <AltitudeMeters>677.20001220703125</AltitudeMeters>
            <DistanceMeters>NAN</DistanceMeters>
          </Trackpoint>
          <Trackpoint>
            <Time>2020-12-05T12:11:07.000Z</Time>
            <Position>
              <LatitudeDegrees>36.83159957639873027801513671875</LatitudeDegrees>
              <LongitudeDegrees>-4.36864784918725490570068359375</LongitudeDegrees>
            </Position>
            <AltitudeMeters>677.20001220703125</AltitudeMeters>
            <DistanceMeters>NAN</DistanceMeters>
          </Trackpoint>
          <Trackpoint>
            <Time>2020-12-05T12:11:08.000Z</Time>
            <Position>
              <LatitudeDegrees>36.83159370906651020050048828125</LatitudeDegrees>
              <LongitudeDegrees>-4.3686695583164691925048828125</LongitudeDegrees>
            </Position>
            <AltitudeMeters>677.20001220703125</AltitudeMeters>
            <DistanceMeters>NAN</DistanceMeters>
          </Trackpoint>
          <Trackpoint>
            <Time>2020-12-05T12:11:09.000Z</Time>
            <Position>
              <LatitudeDegrees>36.83158926665782928466796875</LatitudeDegrees>
              <LongitudeDegrees>-4.36868481338024139404296875</LongitudeDegrees>
            </Position>
            <AltitudeMeters>677.20001220703125</AltitudeMeters>
            <DistanceMeters>NAN</DistanceMeters>
          </Trackpoint>
          <Trackpoint>
            <Time>2020-12-05T12:11:10.000Z</Time>
            <Position>
              <LatitudeDegrees>36.83158792555332183837890625</LatitudeDegrees>
              <LongitudeDegrees>-4.36869294382631778717041015625</LongitudeDegrees>
            </Position>
            <AltitudeMeters>677.20001220703125</AltitudeMeters>
            <DistanceMeters>NAN</DistanceMeters>
          </Trackpoint>
          <Trackpoint>
            <Time>2020-12-05T12:11:11.000Z</Time>
            <Position>
              <LatitudeDegrees>36.83158717118203639984130859375</LatitudeDegrees>
              <LongitudeDegrees>-4.3687037564814090728759765625</LongitudeDegrees>
            </Position>
            <AltitudeMeters>677.20001220703125</AltitudeMeters>
            <DistanceMeters>NAN</DistanceMeters>
          </Trackpoint>
          <Trackpoint>
            <Time>2020-12-05T12:11:12.000Z</Time>
            <Position>
              <LatitudeDegrees>36.8315864168107509613037109375</LatitudeDegrees>
              <LongitudeDegrees>-4.36871540732681751251220703125</LongitudeDegrees>
            </Position>
            <AltitudeMeters>677.20001220703125</AltitudeMeters>
            <DistanceMeters>NAN</DistanceMeters>
          </Trackpoint>
          <Trackpoint>
            <Time>2020-12-05T12:11:13.000Z</Time>
            <Position>
              <LatitudeDegrees>36.831587255001068115234375</LatitudeDegrees>
              <LongitudeDegrees>-4.3687262199819087982177734375</LongitudeDegrees>
            </Position>
            <AltitudeMeters>677.20001220703125</AltitudeMeters>
            <DistanceMeters>NAN</DistanceMeters>
          </Trackpoint>
          <Trackpoint>
            <Time>2020-12-05T12:11:14.000Z</Time>
            <Position>
              <LatitudeDegrees>36.831591613590717315673828125</LatitudeDegrees>
              <LongitudeDegrees>-4.368738122284412384033203125</LongitudeDegrees>
            </Position>
            <AltitudeMeters>677.20001220703125</AltitudeMeters>
            <DistanceMeters>NAN</DistanceMeters>
          </Trackpoint>
          <Trackpoint>
            <Time>2020-12-05T12:11:15.000Z</Time>
            <Position>
              <LatitudeDegrees>36.8315984867513179779052734375</LatitudeDegrees>
              <LongitudeDegrees>-4.36874658800661563873291015625</LongitudeDegrees>
            </Position>
            <AltitudeMeters>677.20001220703125</AltitudeMeters>
            <DistanceMeters>NAN</DistanceMeters>
          </Trackpoint>
          <Trackpoint>
            <Time>2020-12-05T12:11:16.000Z</Time>
            <Position>
              <LatitudeDegrees>36.83160259388387203216552734375</LatitudeDegrees>
              <LongitudeDegrees>-4.3687503598630428314208984375</LongitudeDegrees>
            </Position>
            <AltitudeMeters>677.20001220703125</AltitudeMeters>
            <DistanceMeters>NAN</DistanceMeters>
          </Trackpoint>
          <Trackpoint>
            <Time>2020-12-05T12:11:17.000Z</Time>
            <Position>
              <LatitudeDegrees>36.8316072039306163787841796875</LatitudeDegrees>
              <LongitudeDegrees>-4.36875245533883571624755859375</LongitudeDegrees>
            </Position>
            <AltitudeMeters>677.20001220703125</AltitudeMeters>
            <DistanceMeters>NAN</DistanceMeters>
          </Trackpoint>
          <Trackpoint>
            <Time>2020-12-05T12:11:18.000Z</Time>
            <Position>
              <LatitudeDegrees>36.831612400710582733154296875</LatitudeDegrees>
              <LongitudeDegrees>-4.3687587417662143707275390625</LongitudeDegrees>
            </Position>
            <AltitudeMeters>677.20001220703125</AltitudeMeters>
            <DistanceMeters>NAN</DistanceMeters>
          </Trackpoint>
          <Trackpoint>
            <Time>2020-12-05T12:11:19.000Z</Time>
            <Position>
              <LatitudeDegrees>36.83161877095699310302734375</LatitudeDegrees>
              <LongitudeDegrees>-4.368766285479068756103515625</LongitudeDegrees>
            </Position>
            <AltitudeMeters>677.20001220703125</AltitudeMeters>
            <DistanceMeters>NAN</DistanceMeters>
          </Trackpoint>
          <Trackpoint>
            <Time>2020-12-05T12:11:20.000Z</Time>
            <Position>
              <LatitudeDegrees>36.83162254281342029571533203125</LatitudeDegrees>
              <LongitudeDegrees>-4.368773661553859710693359375</LongitudeDegrees>
            </Position>
            <AltitudeMeters>677.20001220703125</AltitudeMeters>
            <DistanceMeters>NAN</DistanceMeters>
          </Trackpoint>
          <Trackpoint>
            <Time>2020-12-05T12:11:21.000Z</Time>
            <Position>
              <LatitudeDegrees>36.83162941597402095794677734375</LatitudeDegrees>
              <LongitudeDegrees>-4.36878480948507785797119140625</LongitudeDegrees>
            </Position>
            <AltitudeMeters>677.20001220703125</AltitudeMeters>
            <DistanceMeters>NAN</DistanceMeters>
          </Trackpoint>
          <Trackpoint>
            <Time>2020-12-05T12:11:22.000Z</Time>
            <Position>
              <LatitudeDegrees>36.8316393904387950897216796875</LatitudeDegrees>
              <LongitudeDegrees>-4.36879872344434261322021484375</LongitudeDegrees>
            </Position>
            <AltitudeMeters>677.20001220703125</AltitudeMeters>
            <DistanceMeters>NAN</DistanceMeters>
          </Trackpoint>
          <Trackpoint>
            <Time>2020-12-05T12:11:23.000Z</Time>
            <Position>
              <LatitudeDegrees>36.8316494487226009368896484375</LatitudeDegrees>
              <LongitudeDegrees>-4.3688120506703853607177734375</LongitudeDegrees>
            </Position>
            <AltitudeMeters>677.20001220703125</AltitudeMeters>
            <DistanceMeters>NAN</DistanceMeters>
          </Trackpoint>
          <Trackpoint>
            <Time>2020-12-05T12:11:24.000Z</Time>
            <Position>
              <LatitudeDegrees>36.8316598422825336456298828125</LatitudeDegrees>
              <LongitudeDegrees>-4.368825294077396392822265625</LongitudeDegrees>
            </Position>
            <AltitudeMeters>677.20001220703125</AltitudeMeters>
            <DistanceMeters>NAN</DistanceMeters>
          </Trackpoint>
          <Trackpoint>
            <Time>2020-12-05T12:11:25.000Z</Time>
            <Position>
              <LatitudeDegrees>36.83166914619505405426025390625</LatitudeDegrees>
              <LongitudeDegrees>-4.368839375674724578857421875</LongitudeDegrees>
            </Position>
            <AltitudeMeters>677.20001220703125</AltitudeMeters>
            <DistanceMeters>NAN</DistanceMeters>
          </Trackpoint>
          <Trackpoint>
            <Time>2020-12-05T12:11:26.000Z</Time>
            <Position>
              <LatitudeDegrees>36.83167970739305019378662109375</LatitudeDegrees>
              <LongitudeDegrees>-4.36885605566203594207763671875</LongitudeDegrees>
            </Position>
            <AltitudeMeters>677.20001220703125</AltitudeMeters>
            <DistanceMeters>NAN</DistanceMeters>
          </Trackpoint>
          <Trackpoint>
            <Time>2020-12-05T12:11:27.000Z</Time>
            <Position>
              <LatitudeDegrees>36.83169077150523662567138671875</LatitudeDegrees>
              <LongitudeDegrees>-4.3688734062016010284423828125</LongitudeDegrees>
            </Position>
            <AltitudeMeters>677.20001220703125</AltitudeMeters>
            <DistanceMeters>NAN</DistanceMeters>
          </Trackpoint>
          <Trackpoint>
            <Time>2020-12-05T12:11:28.000Z</Time>
            <Position>
              <LatitudeDegrees>36.83169915340840816497802734375</LatitudeDegrees>
              <LongitudeDegrees>-4.3688894994556903839111328125</LongitudeDegrees>
            </Position>
            <AltitudeMeters>677.20001220703125</AltitudeMeters>
            <DistanceMeters>NAN</DistanceMeters>
          </Trackpoint>
          <Trackpoint>
            <Time>2020-12-05T12:11:29.000Z</Time>
            <Position>
              <LatitudeDegrees>36.83170535601675510406494140625</LatitudeDegrees>
              <LongitudeDegrees>-4.368905089795589447021484375</LongitudeDegrees>
            </Position>
            <AltitudeMeters>677.20001220703125</AltitudeMeters>
            <DistanceMeters>NAN</DistanceMeters>
          </Trackpoint>
          <Trackpoint>
            <Time>2020-12-05T12:11:30.000Z</Time>
            <Position>
              <LatitudeDegrees>36.8317131511867046356201171875</LatitudeDegrees>
              <LongitudeDegrees>-4.36891841702163219451904296875</LongitudeDegrees>
            </Position>
            <AltitudeMeters>677.20001220703125</AltitudeMeters>
            <DistanceMeters>NAN</DistanceMeters>
          </Trackpoint>
          <Trackpoint>
            <Time>2020-12-05T12:11:31.000Z</Time>
            <Position>
              <LatitudeDegrees>36.8317195214331150054931640625</LatitudeDegrees>
              <LongitudeDegrees>-4.3689330853521823883056640625</LongitudeDegrees>
            </Position>
            <AltitudeMeters>677.20001220703125</AltitudeMeters>
            <DistanceMeters>NAN</DistanceMeters>
          </Trackpoint>
          <Trackpoint>
            <Time>2020-12-05T12:11:32.000Z</Time>
            <Position>
              <LatitudeDegrees>36.831725053489208221435546875</LatitudeDegrees>
              <LongitudeDegrees>-4.36894322745501995086669921875</LongitudeDegrees>
            </Position>
            <AltitudeMeters>677.20001220703125</AltitudeMeters>
            <DistanceMeters>NAN</DistanceMeters>
          </Trackpoint>
          <Trackpoint>
            <Time>2020-12-05T12:11:33.000Z</Time>
            <Position>
              <LatitudeDegrees>36.83173150755465030670166015625</LatitudeDegrees>
              <LongitudeDegrees>-4.368951357901096343994140625</LongitudeDegrees>
            </Position>
            <AltitudeMeters>677.20001220703125</AltitudeMeters>
            <DistanceMeters>NAN</DistanceMeters>
          </Trackpoint>
          <Trackpoint>
            <Time>2020-12-05T12:11:34.000Z</Time>
            <Position>
              <LatitudeDegrees>36.83173771016299724578857421875</LatitudeDegrees>
              <LongitudeDegrees>-4.36896518804132938385009765625</LongitudeDegrees>
            </Position>
            <AltitudeMeters>677.20001220703125</AltitudeMeters>
            <DistanceMeters>NAN</DistanceMeters>
          </Trackpoint>
          <Trackpoint>
            <Time>2020-12-05T12:11:35.000Z</Time>
            <Position>
              <LatitudeDegrees>36.8317441642284393310546875</LatitudeDegrees>
              <LongitudeDegrees>-4.36897985637187957763671875</LongitudeDegrees>
            </Position>
            <AltitudeMeters>677.20001220703125</AltitudeMeters>
            <DistanceMeters>NAN</DistanceMeters>
          </Trackpoint>
          <Trackpoint>
            <Time>2020-12-05T12:11:36.000Z</Time>
            <Position>
              <LatitudeDegrees>36.83174743317067623138427734375</LatitudeDegrees>
              <LongitudeDegrees>-4.36898899264633655548095703125</LongitudeDegrees>
            </Position>
            <AltitudeMeters>677.20001220703125</AltitudeMeters>
            <DistanceMeters>NAN</DistanceMeters>
          </Trackpoint>
          <Trackpoint>
            <Time>2020-12-05T12:11:37.000Z</Time>
            <Position>
              <LatitudeDegrees>36.831750534474849700927734375</LatitudeDegrees>
              <LongitudeDegrees>-4.368996955454349517822265625</LongitudeDegrees>
            </Position>
            <AltitudeMeters>677.20001220703125</AltitudeMeters>
            <DistanceMeters>NAN</DistanceMeters>
          </Trackpoint>
          <Trackpoint>
            <Time>2020-12-05T12:11:38.000Z</Time>
            <Position>
              <LatitudeDegrees>36.8317540548741817474365234375</LatitudeDegrees>
              <LongitudeDegrees>-4.36900726519525051116943359375</LongitudeDegrees>
            </Position>
            <AltitudeMeters>677.20001220703125</AltitudeMeters>
            <DistanceMeters>NAN</DistanceMeters>
          </Trackpoint>
          <Trackpoint>
            <Time>2020-12-05T12:11:39.000Z</Time>
            <Position>
              <LatitudeDegrees>36.831758916378021240234375</LatitudeDegrees>
              <LongitudeDegrees>-4.3690189160406589508056640625</LongitudeDegrees>
            </Position>
            <AltitudeMeters>677.20001220703125</AltitudeMeters>
            <DistanceMeters>NAN</DistanceMeters>
          </Trackpoint>
          <Trackpoint>
            <Time>2020-12-05T12:11:40.000Z</Time>
            <Position>
              <LatitudeDegrees>36.83176503516733646392822265625</LatitudeDegrees>
              <LongitudeDegrees>-4.369031153619289398193359375</LongitudeDegrees>
            </Position>
            <AltitudeMeters>677.20001220703125</AltitudeMeters>
            <DistanceMeters>NAN</DistanceMeters>
          </Trackpoint>
          <Trackpoint>
            <Time>2020-12-05T12:11:41.000Z</Time>
            <Position>
              <LatitudeDegrees>36.83177190832793712615966796875</LatitudeDegrees>
              <LongitudeDegrees>-4.3690464086830615997314453125</LongitudeDegrees>
            </Position>
            <AltitudeMeters>677.20001220703125</AltitudeMeters>
            <DistanceMeters>NAN</DistanceMeters>
          </Trackpoint>
          <Trackpoint>
            <Time>2020-12-05T12:11:42.000Z</Time>
            <Position>
              <LatitudeDegrees>36.8317763507366180419921875</LatitudeDegrees>
              <LongitudeDegrees>-4.36906090937554836273193359375</LongitudeDegrees>
            </Position>
            <AltitudeMeters>677.20001220703125</AltitudeMeters>
            <DistanceMeters>NAN</DistanceMeters>
          </Trackpoint>
          <Trackpoint>
            <Time>2020-12-05T12:11:43.000Z</Time>
            <Position>
              <LatitudeDegrees>36.83178129605948925018310546875</LatitudeDegrees>
              <LongitudeDegrees>-4.36907666735351085662841796875</LongitudeDegrees>
            </Position>
            <AltitudeMeters>677.20001220703125</AltitudeMeters>
            <DistanceMeters>NAN</DistanceMeters>
          </Trackpoint>
          <Trackpoint>
            <Time>2020-12-05T12:11:44.000Z</Time>
            <Position>
              <LatitudeDegrees>36.83178967796266078948974609375</LatitudeDegrees>
              <LongitudeDegrees>-4.36909007839858531951904296875</LongitudeDegrees>
            </Position>
            <AltitudeMeters>677.20001220703125</AltitudeMeters>
            <DistanceMeters>NAN</DistanceMeters>
          </Trackpoint>
          <Trackpoint>
            <Time>2020-12-05T12:11:45.000Z</Time>
            <Position>
              <LatitudeDegrees>36.83179378509521484375</LatitudeDegrees>
              <LongitudeDegrees>-4.36910684220492839813232421875</LongitudeDegrees>
            </Position>
            <AltitudeMeters>677.20001220703125</AltitudeMeters>
            <DistanceMeters>NAN</DistanceMeters>
          </Trackpoint>
          <Trackpoint>
            <Time>2020-12-05T12:11:46.000Z</Time>
            <Position>
              <LatitudeDegrees>36.8317986465990543365478515625</LatitudeDegrees>
              <LongitudeDegrees>-4.369123019278049468994140625</LongitudeDegrees>
            </Position>
            <AltitudeMeters>677.20001220703125</AltitudeMeters>
            <DistanceMeters>NAN</DistanceMeters>
          </Trackpoint>
          <Trackpoint>
            <Time>2020-12-05T12:11:47.000Z</Time>
            <Position>
              <LatitudeDegrees>36.83180342428386211395263671875</LatitudeDegrees>
              <LongitudeDegrees>-4.36914020217955112457275390625</LongitudeDegrees>
            </Position>
            <AltitudeMeters>677.20001220703125</AltitudeMeters>
            <DistanceMeters>NAN</DistanceMeters>
          </Trackpoint>
          <Trackpoint>
            <Time>2020-12-05T12:11:48.000Z</Time>
            <Position>
              <LatitudeDegrees>36.83180895633995532989501953125</LatitudeDegrees>
              <LongitudeDegrees>-4.369156546890735626220703125</LongitudeDegrees>
            </Position>
            <AltitudeMeters>677.20001220703125</AltitudeMeters>
            <DistanceMeters>NAN</DistanceMeters>
          </Trackpoint>
          <Trackpoint>
            <Time>2020-12-05T12:11:49.000Z</Time>
            <Position>
              <LatitudeDegrees>36.831812895834445953369140625</LatitudeDegrees>
              <LongitudeDegrees>-4.369173981249332427978515625</LongitudeDegrees>
            </Position>
            <AltitudeMeters>677.20001220703125</AltitudeMeters>
            <DistanceMeters>NAN</DistanceMeters>
          </Trackpoint>
          <Trackpoint>
            <Time>2020-12-05T12:11:50.000Z</Time>
            <Position>
              <LatitudeDegrees>36.83181800879538059234619140625</LatitudeDegrees>
              <LongitudeDegrees>-4.3691935949027538299560546875</LongitudeDegrees>
            </Position>
            <AltitudeMeters>677.20001220703125</AltitudeMeters>
            <DistanceMeters>NAN</DistanceMeters>
          </Trackpoint>
          <Trackpoint>
            <Time>2020-12-05T12:11:51.000Z</Time>
            <Position>
              <LatitudeDegrees>36.831819601356983184814453125</LatitudeDegrees>
              <LongitudeDegrees>-4.3692093528807163238525390625</LongitudeDegrees>
            </Position>
            <AltitudeMeters>677.20001220703125</AltitudeMeters>
            <DistanceMeters>NAN</DistanceMeters>
          </Trackpoint>
          <Trackpoint>
            <Time>2020-12-05T12:11:52.000Z</Time>
            <Position>
              <LatitudeDegrees>36.83182303793728351593017578125</LatitudeDegrees>
              <LongitudeDegrees>-4.36922636814415454864501953125</LongitudeDegrees>
            </Position>
            <AltitudeMeters>677.20001220703125</AltitudeMeters>
            <DistanceMeters>NAN</DistanceMeters>
          </Trackpoint>
          <Trackpoint>
            <Time>2020-12-05T12:11:53.000Z</Time>
            <Position>
              <LatitudeDegrees>36.831823289394378662109375</LatitudeDegrees>
              <LongitudeDegrees>-4.36924271285533905029296875</LongitudeDegrees>
            </Position>
            <AltitudeMeters>677.20001220703125</AltitudeMeters>
            <DistanceMeters>NAN</DistanceMeters>
          </Trackpoint>
          <Trackpoint>
            <Time>2020-12-05T12:11:54.000Z</Time>
            <Position>
              <LatitudeDegrees>36.83182119391858577728271484375</LatitudeDegrees>
              <LongitudeDegrees>-4.36926257796585559844970703125</LongitudeDegrees>
            </Position>
            <AltitudeMeters>677.20001220703125</AltitudeMeters>
            <DistanceMeters>NAN</DistanceMeters>
          </Trackpoint>
          <Trackpoint>
            <Time>2020-12-05T12:11:55.000Z</Time>
            <Position>
              <LatitudeDegrees>36.83181884698569774627685546875</LatitudeDegrees>
              <LongitudeDegrees>-4.369279928505420684814453125</LongitudeDegrees>
            </Position>
            <AltitudeMeters>677.20001220703125</AltitudeMeters>
            <DistanceMeters>NAN</DistanceMeters>
          </Trackpoint>
          <Trackpoint>
            <Time>2020-12-05T12:11:56.000Z</Time>
            <Position>
              <LatitudeDegrees>36.83181599713861942291259765625</LatitudeDegrees>
              <LongitudeDegrees>-4.369294345378875732421875</LongitudeDegrees>
            </Position>
            <AltitudeMeters>677.20001220703125</AltitudeMeters>
            <DistanceMeters>NAN</DistanceMeters>
          </Trackpoint>
          <Trackpoint>
            <Time>2020-12-05T12:11:57.000Z</Time>
            <Position>
              <LatitudeDegrees>36.8318130634725093841552734375</LatitudeDegrees>
              <LongitudeDegrees>-4.36930549331009387969970703125</LongitudeDegrees>
            </Position>
            <AltitudeMeters>677.20001220703125</AltitudeMeters>
            <DistanceMeters>NAN</DistanceMeters>
          </Trackpoint>
          <Trackpoint>
            <Time>2020-12-05T12:11:58.000Z</Time>
            <Position>
              <LatitudeDegrees>36.83180996216833591461181640625</LatitudeDegrees>
              <LongitudeDegrees>-4.369319491088390350341796875</LongitudeDegrees>
            </Position>
            <AltitudeMeters>677.20001220703125</AltitudeMeters>
            <DistanceMeters>NAN</DistanceMeters>
          </Trackpoint>
          <Trackpoint>
            <Time>2020-12-05T12:11:59.000Z</Time>
            <Position>
              <LatitudeDegrees>36.831806860864162445068359375</LatitudeDegrees>
              <LongitudeDegrees>-4.369338266551494598388671875</LongitudeDegrees>
            </Position>
            <AltitudeMeters>677.20001220703125</AltitudeMeters>
            <DistanceMeters>NAN</DistanceMeters>
          </Trackpoint>
          <Trackpoint>
            <Time>2020-12-05T12:12:00.000Z</Time>
            <Position>
              <LatitudeDegrees>36.83180795051157474517822265625</LatitudeDegrees>
              <LongitudeDegrees>-4.36935536563396453857421875</LongitudeDegrees>
            </Position>
            <AltitudeMeters>675.5999755859375</AltitudeMeters>
            <DistanceMeters>NAN</DistanceMeters>
          </Trackpoint>
          <Trackpoint>
            <Time>2020-12-05T12:12:01.000Z</Time>
            <Position>
              <LatitudeDegrees>36.83181189000606536865234375</LatitudeDegrees>
              <LongitudeDegrees>-4.36936852522194385528564453125</LongitudeDegrees>
            </Position>
            <AltitudeMeters>675.5999755859375</AltitudeMeters>
            <DistanceMeters>NAN</DistanceMeters>
          </Trackpoint>
          <Trackpoint>
            <Time>2020-12-05T12:12:02.000Z</Time>
            <Position>
              <LatitudeDegrees>36.8318139016628265380859375</LatitudeDegrees>
              <LongitudeDegrees>-4.369385205209255218505859375</LongitudeDegrees>
            </Position>
            <AltitudeMeters>675.5999755859375</AltitudeMeters>
            <DistanceMeters>NAN</DistanceMeters>
          </Trackpoint>
          <Trackpoint>
            <Time>2020-12-05T12:12:03.000Z</Time>
            <Position>
              <LatitudeDegrees>36.83181281201541423797607421875</LatitudeDegrees>
              <LongitudeDegrees>-4.3694041483104228973388671875</LongitudeDegrees>
            </Position>
            <AltitudeMeters>675.5999755859375</AltitudeMeters>
            <DistanceMeters>NAN</DistanceMeters>
          </Trackpoint>
          <Trackpoint>
            <Time>2020-12-05T12:12:04.000Z</Time>
            <Position>
              <LatitudeDegrees>36.83181457221508026123046875</LatitudeDegrees>
              <LongitudeDegrees>-4.3694190680980682373046875</LongitudeDegrees>
            </Position>
            <AltitudeMeters>675.5999755859375</AltitudeMeters>
            <DistanceMeters>NAN</DistanceMeters>
          </Trackpoint>
          <Trackpoint>
            <Time>2020-12-05T12:12:05.000Z</Time>
            <Position>
              <LatitudeDegrees>36.8318150751292705535888671875</LatitudeDegrees>
              <LongitudeDegrees>-4.36943541280925273895263671875</LongitudeDegrees>
            </Position>
            <AltitudeMeters>675.5999755859375</AltitudeMeters>
            <DistanceMeters>NAN</DistanceMeters>
          </Trackpoint>
          <Trackpoint>
            <Time>2020-12-05T12:12:06.000Z</Time>
            <Position>
              <LatitudeDegrees>36.83181499131023883819580078125</LatitudeDegrees>
              <LongitudeDegrees>-4.36944731511175632476806640625</LongitudeDegrees>
            </Position>
            <AltitudeMeters>675.5999755859375</AltitudeMeters>
            <DistanceMeters>NAN</DistanceMeters>
          </Trackpoint>
          <Trackpoint>
            <Time>2020-12-05T12:12:07.000Z</Time>
            <Position>
              <LatitudeDegrees>36.831815578043460845947265625</LatitudeDegrees>
              <LongitudeDegrees>-4.369458965957164764404296875</LongitudeDegrees>
            </Position>
            <AltitudeMeters>675.5999755859375</AltitudeMeters>
            <DistanceMeters>NAN</DistanceMeters>
          </Trackpoint>
          <Trackpoint>
            <Time>2020-12-05T12:12:08.000Z</Time>
            <Position>
              <LatitudeDegrees>36.83181700296700000762939453125</LatitudeDegrees>
              <LongitudeDegrees>-4.369473047554492950439453125</LongitudeDegrees>
            </Position>
            <AltitudeMeters>675.5999755859375</AltitudeMeters>
            <DistanceMeters>NAN</DistanceMeters>
          </Trackpoint>
          <Trackpoint>
            <Time>2020-12-05T12:12:09.000Z</Time>
            <Position>
              <LatitudeDegrees>36.831817924976348876953125</LatitudeDegrees>
              <LongitudeDegrees>-4.36949341557919979095458984375</LongitudeDegrees>
            </Position>
            <AltitudeMeters>675.5999755859375</AltitudeMeters>
            <DistanceMeters>NAN</DistanceMeters>
          </Trackpoint>
          <Trackpoint>
            <Time>2020-12-05T12:12:10.000Z</Time>
            <Position>
              <LatitudeDegrees>36.8318219482898712158203125</LatitudeDegrees>
              <LongitudeDegrees>-4.3695124424993991851806640625</LongitudeDegrees>
            </Position>
            <AltitudeMeters>675.5999755859375</AltitudeMeters>
            <DistanceMeters>NAN</DistanceMeters>
          </Trackpoint>
          <Trackpoint>
            <Time>2020-12-05T12:12:11.000Z</Time>
            <Position>
              <LatitudeDegrees>36.8318231217563152313232421875</LatitudeDegrees>
              <LongitudeDegrees>-4.36953314580023288726806640625</LongitudeDegrees>
            </Position>
            <AltitudeMeters>675.5999755859375</AltitudeMeters>
            <DistanceMeters>NAN</DistanceMeters>
          </Trackpoint>
          <Trackpoint>
            <Time>2020-12-05T12:12:12.000Z</Time>
            <Position>
              <LatitudeDegrees>36.8318281508982181549072265625</LatitudeDegrees>
              <LongitudeDegrees>-4.3695496581494808197021484375</LongitudeDegrees>
            </Position>
            <AltitudeMeters>675.5999755859375</AltitudeMeters>
            <DistanceMeters>NAN</DistanceMeters>
          </Trackpoint>
          <Trackpoint>
            <Time>2020-12-05T12:12:13.000Z</Time>
            <Position>
              <LatitudeDegrees>36.8318351916968822479248046875</LatitudeDegrees>
              <LongitudeDegrees>-4.36956935562193393707275390625</LongitudeDegrees>
            </Position>
            <AltitudeMeters>675.5999755859375</AltitudeMeters>
            <DistanceMeters>NAN</DistanceMeters>
          </Trackpoint>
          <Trackpoint>
            <Time>2020-12-05T12:12:14.000Z</Time>
            <Position>
              <LatitudeDegrees>36.8318425677716732025146484375</LatitudeDegrees>
              <LongitudeDegrees>-4.36959114857017993927001953125</LongitudeDegrees>
            </Position>
            <AltitudeMeters>675.5999755859375</AltitudeMeters>
            <DistanceMeters>NAN</DistanceMeters>
          </Trackpoint>
          <Trackpoint>
            <Time>2020-12-05T12:12:15.000Z</Time>
            <Position>
              <LatitudeDegrees>36.831848435103893280029296875</LatitudeDegrees>
              <LongitudeDegrees>-4.369607828557491302490234375</LongitudeDegrees>
            </Position>
            <AltitudeMeters>675.5999755859375</AltitudeMeters>
            <DistanceMeters>NAN</DistanceMeters>
          </Trackpoint>
          <Trackpoint>
            <Time>2020-12-05T12:12:16.000Z</Time>
            <Position>
              <LatitudeDegrees>36.83185237459838390350341796875</LatitudeDegrees>
              <LongitudeDegrees>-4.36962216161191463470458984375</LongitudeDegrees>
            </Position>
            <AltitudeMeters>675.5999755859375</AltitudeMeters>
            <DistanceMeters>NAN</DistanceMeters>
          </Trackpoint>
          <Trackpoint>
            <Time>2020-12-05T12:12:17.000Z</Time>
            <Position>
              <LatitudeDegrees>36.83185254223644733428955078125</LatitudeDegrees>
              <LongitudeDegrees>-4.36964127235114574432373046875</LongitudeDegrees>
            </Position>
            <AltitudeMeters>675.5999755859375</AltitudeMeters>
            <DistanceMeters>NAN</DistanceMeters>
          </Trackpoint>
          <Trackpoint>
            <Time>2020-12-05T12:12:18.000Z</Time>
            <Position>
              <LatitudeDegrees>36.83185371570289134979248046875</LatitudeDegrees>
              <LongitudeDegrees>-4.36965384520590305328369140625</LongitudeDegrees>
            </Position>
            <AltitudeMeters>675.5999755859375</AltitudeMeters>
            <DistanceMeters>NAN</DistanceMeters>
          </Trackpoint>
          <Trackpoint>
            <Time>2020-12-05T12:12:19.000Z</Time>
            <Position>
              <LatitudeDegrees>36.83185572735965251922607421875</LatitudeDegrees>
              <LongitudeDegrees>-4.36966641806066036224365234375</LongitudeDegrees>
            </Position>
            <AltitudeMeters>675.5999755859375</AltitudeMeters>
            <DistanceMeters>NAN</DistanceMeters>
          </Trackpoint>
          <Trackpoint>
            <Time>2020-12-05T12:12:20.000Z</Time>
            <Position>
              <LatitudeDegrees>36.83185673318803310394287109375</LatitudeDegrees>
              <LongitudeDegrees>-4.3696797452867031097412109375</LongitudeDegrees>
            </Position>
            <AltitudeMeters>675.5999755859375</AltitudeMeters>
            <DistanceMeters>NAN</DistanceMeters>
          </Trackpoint>
          <Trackpoint>
            <Time>2020-12-05T12:12:21.000Z</Time>
            <Position>
              <LatitudeDegrees>36.83185840956866741180419921875</LatitudeDegrees>
              <LongitudeDegrees>-4.36969324015080928802490234375</LongitudeDegrees>
            </Position>
            <AltitudeMeters>675.5999755859375</AltitudeMeters>
            <DistanceMeters>NAN</DistanceMeters>
          </Trackpoint>
          <Trackpoint>
            <Time>2020-12-05T12:12:22.000Z</Time>
            <Position>
              <LatitudeDegrees>36.83186042122542858123779296875</LatitudeDegrees>
              <LongitudeDegrees>-4.36970807611942291259765625</LongitudeDegrees>
            </Position>
            <AltitudeMeters>675.5999755859375</AltitudeMeters>
            <DistanceMeters>NAN</DistanceMeters>
          </Trackpoint>
          <Trackpoint>
            <Time>2020-12-05T12:12:23.000Z</Time>
            <Position>
              <LatitudeDegrees>36.8318620137870311737060546875</LatitudeDegrees>
              <LongitudeDegrees>-4.36972509138286113739013671875</LongitudeDegrees>
            </Position>
            <AltitudeMeters>675.5999755859375</AltitudeMeters>
            <DistanceMeters>NAN</DistanceMeters>
          </Trackpoint>
          <Trackpoint>
            <Time>2020-12-05T12:12:24.000Z</Time>
            <Position>
              <LatitudeDegrees>36.831864528357982635498046875</LatitudeDegrees>
              <LongitudeDegrees>-4.36973950825631618499755859375</LongitudeDegrees>
            </Position>
            <AltitudeMeters>675.5999755859375</AltitudeMeters>
            <DistanceMeters>NAN</DistanceMeters>
          </Trackpoint>
          <Trackpoint>
            <Time>2020-12-05T12:12:25.000Z</Time>
            <Position>
              <LatitudeDegrees>36.83186461217701435089111328125</LatitudeDegrees>
              <LongitudeDegrees>-4.3697618879377841949462890625</LongitudeDegrees>
            </Position>
            <AltitudeMeters>675.5999755859375</AltitudeMeters>
            <DistanceMeters>NAN</DistanceMeters>
          </Trackpoint>
          <Trackpoint>
            <Time>2020-12-05T12:12:26.000Z</Time>
            <Position>
              <LatitudeDegrees>36.8318680487573146820068359375</LatitudeDegrees>
              <LongitudeDegrees>-4.369782507419586181640625</LongitudeDegrees>
            </Position>
            <AltitudeMeters>675.5999755859375</AltitudeMeters>
            <DistanceMeters>NAN</DistanceMeters>
          </Trackpoint>
          <Trackpoint>
            <Time>2020-12-05T12:12:27.000Z</Time>
            <Position>
              <LatitudeDegrees>36.83187550865113735198974609375</LatitudeDegrees>
              <LongitudeDegrees>-4.3697994388639926910400390625</LongitudeDegrees>
            </Position>
            <AltitudeMeters>675.5999755859375</AltitudeMeters>
            <DistanceMeters>NAN</DistanceMeters>
          </Trackpoint>
          <Trackpoint>
            <Time>2020-12-05T12:12:28.000Z</Time>
            <Position>
              <LatitudeDegrees>36.831884644925594329833984375</LatitudeDegrees>
              <LongitudeDegrees>-4.369816370308399200439453125</LongitudeDegrees>
            </Position>
            <AltitudeMeters>675.5999755859375</AltitudeMeters>
            <DistanceMeters>NAN</DistanceMeters>
          </Trackpoint>
          <Trackpoint>
            <Time>2020-12-05T12:12:29.000Z</Time>
            <Position>
              <LatitudeDegrees>36.8318938650190830230712890625</LatitudeDegrees>
              <LongitudeDegrees>-4.3698322959244251251220703125</LongitudeDegrees>
            </Position>
            <AltitudeMeters>675.5999755859375</AltitudeMeters>
            <DistanceMeters>NAN</DistanceMeters>
          </Trackpoint>
          <Trackpoint>
            <Time>2020-12-05T12:12:30.000Z</Time>
            <Position>
              <LatitudeDegrees>36.831902749836444854736328125</LatitudeDegrees>
              <LongitudeDegrees>-4.3698487244546413421630859375</LongitudeDegrees>
            </Position>
            <AltitudeMeters>675.5999755859375</AltitudeMeters>
            <DistanceMeters>NAN</DistanceMeters>
          </Trackpoint>
          <Trackpoint>
            <Time>2020-12-05T12:12:31.000Z</Time>
            <Position>
              <LatitudeDegrees>36.83191322721540927886962890625</LatitudeDegrees>
              <LongitudeDegrees>-4.36986523680388927459716796875</LongitudeDegrees>
            </Position>
            <AltitudeMeters>675.5999755859375</AltitudeMeters>
            <DistanceMeters>NAN</DistanceMeters>
          </Trackpoint>
          <Trackpoint>
            <Time>2020-12-05T12:12:32.000Z</Time>
            <Position>
              <LatitudeDegrees>36.83191942982375621795654296875</LatitudeDegrees>
              <LongitudeDegrees>-4.3698795698583126068115234375</LongitudeDegrees>
            </Position>
            <AltitudeMeters>675.5999755859375</AltitudeMeters>
            <DistanceMeters>NAN</DistanceMeters>
          </Trackpoint>
          <Trackpoint>
            <Time>2020-12-05T12:12:33.000Z</Time>
            <Position>
              <LatitudeDegrees>36.8319257162511348724365234375</LatitudeDegrees>
              <LongitudeDegrees>-4.36989474110305309295654296875</LongitudeDegrees>
            </Position>
            <AltitudeMeters>675.5999755859375</AltitudeMeters>
            <DistanceMeters>NAN</DistanceMeters>
          </Trackpoint>
          <Trackpoint>
            <Time>2020-12-05T12:12:34.000Z</Time>
            <Position>
              <LatitudeDegrees>36.83193284086883068084716796875</LatitudeDegrees>
              <LongitudeDegrees>-4.3699080683290958404541015625</LongitudeDegrees>
            </Position>
            <AltitudeMeters>675.5999755859375</AltitudeMeters>
            <DistanceMeters>NAN</DistanceMeters>
          </Trackpoint>
          <Trackpoint>
            <Time>2020-12-05T12:12:35.000Z</Time>
            <Position>
              <LatitudeDegrees>36.83194105513393878936767578125</LatitudeDegrees>
              <LongitudeDegrees>-4.3699228204786777496337890625</LongitudeDegrees>
            </Position>
            <AltitudeMeters>675.5999755859375</AltitudeMeters>
            <DistanceMeters>NAN</DistanceMeters>
          </Trackpoint>
          <Trackpoint>
            <Time>2020-12-05T12:12:36.000Z</Time>
            <Position>
              <LatitudeDegrees>36.8319535441696643829345703125</LatitudeDegrees>
              <LongitudeDegrees>-4.36993849463760852813720703125</LongitudeDegrees>
            </Position>
            <AltitudeMeters>675.5999755859375</AltitudeMeters>
            <DistanceMeters>NAN</DistanceMeters>
          </Trackpoint>
          <Trackpoint>
            <Time>2020-12-05T12:12:37.000Z</Time>
            <Position>
              <LatitudeDegrees>36.83196519501507282257080078125</LatitudeDegrees>
              <LongitudeDegrees>-4.36995391733944416046142578125</LongitudeDegrees>
            </Position>
            <AltitudeMeters>675.5999755859375</AltitudeMeters>
            <DistanceMeters>NAN</DistanceMeters>
          </Trackpoint>
          <Trackpoint>
            <Time>2020-12-05T12:12:38.000Z</Time>
            <Position>
              <LatitudeDegrees>36.83197810314595699310302734375</LatitudeDegrees>
              <LongitudeDegrees>-4.3699674122035503387451171875</LongitudeDegrees>
            </Position>
            <AltitudeMeters>675.5999755859375</AltitudeMeters>
            <DistanceMeters>NAN</DistanceMeters>
          </Trackpoint>
          <Trackpoint>
            <Time>2020-12-05T12:12:39.000Z</Time>
            <Position>
              <LatitudeDegrees>36.83199017308652400970458984375</LatitudeDegrees>
              <LongitudeDegrees>-4.36998191289603710174560546875</LongitudeDegrees>
            </Position>
            <AltitudeMeters>675.5999755859375</AltitudeMeters>
            <DistanceMeters>NAN</DistanceMeters>
          </Trackpoint>
          <Trackpoint>
            <Time>2020-12-05T12:12:40.000Z</Time>
            <Position>
              <LatitudeDegrees>36.832003332674503326416015625</LatitudeDegrees>
              <LongitudeDegrees>-4.36999582685530185699462890625</LongitudeDegrees>
            </Position>
            <AltitudeMeters>675.5999755859375</AltitudeMeters>
            <DistanceMeters>NAN</DistanceMeters>
          </Trackpoint>
          <Trackpoint>
            <Time>2020-12-05T12:12:41.000Z</Time>
            <Position>
              <LatitudeDegrees>36.8320132233202457427978515625</LatitudeDegrees>
              <LongitudeDegrees>-4.3700056336820125579833984375</LongitudeDegrees>
            </Position>
            <AltitudeMeters>675.5999755859375</AltitudeMeters>
            <DistanceMeters>NAN</DistanceMeters>
          </Trackpoint>
          <Trackpoint>
            <Time>2020-12-05T12:12:42.000Z</Time>
            <Position>
              <LatitudeDegrees>36.83202655054628849029541015625</LatitudeDegrees>
              <LongitudeDegrees>-4.3700198829174041748046875</LongitudeDegrees>
            </Position>
            <AltitudeMeters>675.5999755859375</AltitudeMeters>
            <DistanceMeters>NAN</DistanceMeters>
          </Trackpoint>
          <Trackpoint>
            <Time>2020-12-05T12:12:43.000Z</Time>
            <Position>
              <LatitudeDegrees>36.8320376984775066375732421875</LatitudeDegrees>
              <LongitudeDegrees>-4.37004058621823787689208984375</LongitudeDegrees>
            </Position>
            <AltitudeMeters>675.5999755859375</AltitudeMeters>
            <DistanceMeters>NAN</DistanceMeters>
          </Trackpoint>
          <Trackpoint>
            <Time>2020-12-05T12:12:44.000Z</Time>
            <Position>
              <LatitudeDegrees>36.832048930227756500244140625</LatitudeDegrees>
              <LongitudeDegrees>-4.37005810439586639404296875</LongitudeDegrees>
            </Position>
            <AltitudeMeters>675.5999755859375</AltitudeMeters>
            <DistanceMeters>NAN</DistanceMeters>
          </Trackpoint>
          <Trackpoint>
            <Time>2020-12-05T12:12:45.000Z</Time>
            <Position>
              <LatitudeDegrees>36.8320601619780063629150390625</LatitudeDegrees>
              <LongitudeDegrees>-4.37007444910705089569091796875</LongitudeDegrees>
            </Position>
            <AltitudeMeters>675.5999755859375</AltitudeMeters>
            <DistanceMeters>NAN</DistanceMeters>
          </Trackpoint>
          <Trackpoint>
            <Time>2020-12-05T12:12:46.000Z</Time>
            <Position>
              <LatitudeDegrees>36.83207281865179538726806640625</LatitudeDegrees>
              <LongitudeDegrees>-4.37008920125663280487060546875</LongitudeDegrees>
            </Position>
            <AltitudeMeters>675.5999755859375</AltitudeMeters>
            <DistanceMeters>NAN</DistanceMeters>
          </Trackpoint>
          <Trackpoint>
            <Time>2020-12-05T12:12:47.000Z</Time>
            <Position>
              <LatitudeDegrees>36.83208187110722064971923828125</LatitudeDegrees>
              <LongitudeDegrees>-4.37010210938751697540283203125</LongitudeDegrees>
            </Position>
            <AltitudeMeters>675.5999755859375</AltitudeMeters>
            <DistanceMeters>NAN</DistanceMeters>
          </Trackpoint>
          <Trackpoint>
            <Time>2020-12-05T12:12:48.000Z</Time>
            <Position>
              <LatitudeDegrees>36.8320913426578044891357421875</LatitudeDegrees>
              <LongitudeDegrees>-4.3701135925948619842529296875</LongitudeDegrees>
            </Position>
            <AltitudeMeters>675.5999755859375</AltitudeMeters>
            <DistanceMeters>NAN</DistanceMeters>
          </Trackpoint>
          <Trackpoint>
            <Time>2020-12-05T12:12:49.000Z</Time>
            <Position>
              <LatitudeDegrees>36.83210098184645175933837890625</LatitudeDegrees>
              <LongitudeDegrees>-4.370125494897365570068359375</LongitudeDegrees>
            </Position>
            <AltitudeMeters>675.5999755859375</AltitudeMeters>
            <DistanceMeters>NAN</DistanceMeters>
          </Trackpoint>
          <Trackpoint>
            <Time>2020-12-05T12:12:50.000Z</Time>
            <Position>
              <LatitudeDegrees>36.8321094475686550140380859375</LatitudeDegrees>
              <LongitudeDegrees>-4.37013530172407627105712890625</LongitudeDegrees>
            </Position>
            <AltitudeMeters>675.5999755859375</AltitudeMeters>
            <DistanceMeters>NAN</DistanceMeters>
          </Trackpoint>
          <Trackpoint>
            <Time>2020-12-05T12:12:51.000Z</Time>
            <Position>
              <LatitudeDegrees>36.8321185000240802764892578125</LatitudeDegrees>
              <LongitudeDegrees>-4.370146952569484710693359375</LongitudeDegrees>
            </Position>
            <AltitudeMeters>675.5999755859375</AltitudeMeters>
            <DistanceMeters>NAN</DistanceMeters>
          </Trackpoint>
          <Trackpoint>
            <Time>2020-12-05T12:12:52.000Z</Time>
            <Position>
              <LatitudeDegrees>36.8321258760988712310791015625</LatitudeDegrees>
              <LongitudeDegrees>-4.37015944160521030426025390625</LongitudeDegrees>
            </Position>
            <AltitudeMeters>675.5999755859375</AltitudeMeters>
            <DistanceMeters>NAN</DistanceMeters>
          </Trackpoint>
          <Trackpoint>
            <Time>2020-12-05T12:12:53.000Z</Time>
            <Position>
              <LatitudeDegrees>36.8321322463452816009521484375</LatitudeDegrees>
              <LongitudeDegrees>-4.37017100863158702850341796875</LongitudeDegrees>
            </Position>
            <AltitudeMeters>675.5999755859375</AltitudeMeters>
            <DistanceMeters>NAN</DistanceMeters>
          </Trackpoint>
          <Trackpoint>
            <Time>2020-12-05T12:12:54.000Z</Time>
            <Position>
              <LatitudeDegrees>36.8321396224200725555419921875</LatitudeDegrees>
              <LongitudeDegrees>-4.37018358148634433746337890625</LongitudeDegrees>
            </Position>
            <AltitudeMeters>675.5999755859375</AltitudeMeters>
            <DistanceMeters>NAN</DistanceMeters>
          </Trackpoint>
          <Trackpoint>
            <Time>2020-12-05T12:12:55.000Z</Time>
            <Position>
              <LatitudeDegrees>36.83214641176164150238037109375</LatitudeDegrees>
              <LongitudeDegrees>-4.37019229866564273834228515625</LongitudeDegrees>
            </Position>
            <AltitudeMeters>675.5999755859375</AltitudeMeters>
            <DistanceMeters>NAN</DistanceMeters>
          </Trackpoint>
          <Trackpoint>
            <Time>2020-12-05T12:12:56.000Z</Time>
            <Position>
              <LatitudeDegrees>36.83215118944644927978515625</LatitudeDegrees>
              <LongitudeDegrees>-4.3702024407684803009033203125</LongitudeDegrees>
            </Position>
            <AltitudeMeters>675.5999755859375</AltitudeMeters>
            <DistanceMeters>NAN</DistanceMeters>
          </Trackpoint>
          <Trackpoint>
            <Time>2020-12-05T12:12:57.000Z</Time>
            <Position>
              <LatitudeDegrees>36.83215663768351078033447265625</LatitudeDegrees>
              <LongitudeDegrees>-4.37021325342357158660888671875</LongitudeDegrees>
            </Position>
            <AltitudeMeters>675.5999755859375</AltitudeMeters>
            <DistanceMeters>NAN</DistanceMeters>
          </Trackpoint>
          <Trackpoint>
            <Time>2020-12-05T12:12:58.000Z</Time>
            <Position>
              <LatitudeDegrees>36.83216392993927001953125</LatitudeDegrees>
              <LongitudeDegrees>-4.37022448517382144927978515625</LongitudeDegrees>
            </Position>
            <AltitudeMeters>675.5999755859375</AltitudeMeters>
            <DistanceMeters>NAN</DistanceMeters>
          </Trackpoint>
          <Trackpoint>
            <Time>2020-12-05T12:12:59.000Z</Time>
            <Position>
              <LatitudeDegrees>36.83217038400471210479736328125</LatitudeDegrees>
              <LongitudeDegrees>-4.37023823149502277374267578125</LongitudeDegrees>
            </Position>
            <AltitudeMeters>675.5999755859375</AltitudeMeters>
            <DistanceMeters>NAN</DistanceMeters>
          </Trackpoint>
          <Trackpoint>
            <Time>2020-12-05T12:13:00.000Z</Time>
            <Position>
              <LatitudeDegrees>36.83217524550855159759521484375</LatitudeDegrees>
              <LongitudeDegrees>-4.37025013379752635955810546875</LongitudeDegrees>
            </Position>
            <AltitudeMeters>673.4000244140625</AltitudeMeters>
            <DistanceMeters>NAN</DistanceMeters>
          </Trackpoint>
          <Trackpoint>
            <Time>2020-12-05T12:13:01.000Z</Time>
            <Position>
              <LatitudeDegrees>36.83217893354594707489013671875</LatitudeDegrees>
              <LongitudeDegrees>-4.37025767751038074493408203125</LongitudeDegrees>
            </Position>
            <AltitudeMeters>673.4000244140625</AltitudeMeters>
            <DistanceMeters>NAN</DistanceMeters>
          </Trackpoint>
          <Trackpoint>
            <Time>2020-12-05T12:13:02.000Z</Time>
            <Position>
              <LatitudeDegrees>36.832179687917232513427734375</LatitudeDegrees>
              <LongitudeDegrees>-4.37026689760386943817138671875</LongitudeDegrees>
            </Position>
            <AltitudeMeters>673.4000244140625</AltitudeMeters>
            <DistanceMeters>NAN</DistanceMeters>
          </Trackpoint>
          <Trackpoint>
            <Time>2020-12-05T12:13:03.000Z</Time>
            <Position>
              <LatitudeDegrees>36.8321832083165645599365234375</LatitudeDegrees>
              <LongitudeDegrees>-4.370275028049945831298828125</LongitudeDegrees>
            </Position>
            <AltitudeMeters>673.4000244140625</AltitudeMeters>
            <DistanceMeters>NAN</DistanceMeters>
          </Trackpoint>
          <Trackpoint>
            <Time>2020-12-05T12:13:04.000Z</Time>
            <Position>
              <LatitudeDegrees>36.83218815363943576812744140625</LatitudeDegrees>
              <LongitudeDegrees>-4.37028651125729084014892578125</LongitudeDegrees>
            </Position>
            <AltitudeMeters>673.4000244140625</AltitudeMeters>
            <DistanceMeters>NAN</DistanceMeters>
          </Trackpoint>
          <Trackpoint>
            <Time>2020-12-05T12:13:05.000Z</Time>
            <Position>
              <LatitudeDegrees>36.83219469152390956878662109375</LatitudeDegrees>
              <LongitudeDegrees>-4.3702953122556209564208984375</LongitudeDegrees>
            </Position>
            <AltitudeMeters>673.4000244140625</AltitudeMeters>
            <DistanceMeters>NAN</DistanceMeters>
          </Trackpoint>
          <Trackpoint>
            <Time>2020-12-05T12:13:06.000Z</Time>
            <Position>
              <LatitudeDegrees>36.832203827798366546630859375</LatitudeDegrees>
              <LongitudeDegrees>-4.3703043647110462188720703125</LongitudeDegrees>
            </Position>
            <AltitudeMeters>673.4000244140625</AltitudeMeters>
            <DistanceMeters>NAN</DistanceMeters>
          </Trackpoint>
          <Trackpoint>
            <Time>2020-12-05T12:13:07.000Z</Time>
            <Position>
              <LatitudeDegrees>36.832214556634426116943359375</LatitudeDegrees>
              <LongitudeDegrees>-4.3703110702335834503173828125</LongitudeDegrees>
            </Position>
            <AltitudeMeters>673.4000244140625</AltitudeMeters>
            <DistanceMeters>NAN</DistanceMeters>
          </Trackpoint>
          <Trackpoint>
            <Time>2020-12-05T12:13:08.000Z</Time>
            <Position>
              <LatitudeDegrees>36.83222486637532711029052734375</LatitudeDegrees>
              <LongitudeDegrees>-4.37031165696680545806884765625</LongitudeDegrees>
            </Position>
            <AltitudeMeters>673.4000244140625</AltitudeMeters>
            <DistanceMeters>NAN</DistanceMeters>
          </Trackpoint>
          <Trackpoint>
            <Time>2020-12-05T12:13:09.000Z</Time>
            <Position>
              <LatitudeDegrees>36.83223894797265529632568359375</LatitudeDegrees>
              <LongitudeDegrees>-4.37031316570937633514404296875</LongitudeDegrees>
            </Position>
            <AltitudeMeters>673.4000244140625</AltitudeMeters>
            <DistanceMeters>NAN</DistanceMeters>
          </Trackpoint>
          <Trackpoint>
            <Time>2020-12-05T12:13:10.000Z</Time>
            <Position>
              <LatitudeDegrees>36.83225571177899837493896484375</LatitudeDegrees>
              <LongitudeDegrees>-4.37031249515712261199951171875</LongitudeDegrees>
            </Position>
            <AltitudeMeters>673.4000244140625</AltitudeMeters>
            <DistanceMeters>NAN</DistanceMeters>
          </Trackpoint>
          <Trackpoint>
            <Time>2020-12-05T12:13:11.000Z</Time>
            <Position>
              <LatitudeDegrees>36.83226794935762882232666015625</LatitudeDegrees>
              <LongitudeDegrees>-4.37031215988099575042724609375</LongitudeDegrees>
            </Position>
            <AltitudeMeters>673.4000244140625</AltitudeMeters>
            <DistanceMeters>NAN</DistanceMeters>
          </Trackpoint>
          <Trackpoint>
            <Time>2020-12-05T12:13:12.000Z</Time>
            <Position>
              <LatitudeDegrees>36.8322801031172275543212890625</LatitudeDegrees>
              <LongitudeDegrees>-4.37031333334743976593017578125</LongitudeDegrees>
            </Position>
            <AltitudeMeters>673.4000244140625</AltitudeMeters>
            <DistanceMeters>NAN</DistanceMeters>
          </Trackpoint>
          <Trackpoint>
            <Time>2020-12-05T12:13:13.000Z</Time>
            <Position>
              <LatitudeDegrees>36.83229359798133373260498046875</LatitudeDegrees>
              <LongitudeDegrees>-4.37031232751905918121337890625</LongitudeDegrees>
            </Position>
            <AltitudeMeters>673.4000244140625</AltitudeMeters>
            <DistanceMeters>NAN</DistanceMeters>
          </Trackpoint>
          <Trackpoint>
            <Time>2020-12-05T12:13:14.000Z</Time>
            <Position>
              <LatitudeDegrees>36.83230818249285221099853515625</LatitudeDegrees>
              <LongitudeDegrees>-4.3703107349574565887451171875</LongitudeDegrees>
            </Position>
            <AltitudeMeters>673.4000244140625</AltitudeMeters>
            <DistanceMeters>NAN</DistanceMeters>
          </Trackpoint>
          <Trackpoint>
            <Time>2020-12-05T12:13:15.000Z</Time>
            <Position>
              <LatitudeDegrees>36.8323243595659732818603515625</LatitudeDegrees>
              <LongitudeDegrees>-4.370303861796855926513671875</LongitudeDegrees>
            </Position>
            <AltitudeMeters>673.4000244140625</AltitudeMeters>
            <DistanceMeters>NAN</DistanceMeters>
          </Trackpoint>
          <Trackpoint>
            <Time>2020-12-05T12:13:16.000Z</Time>
            <Position>
              <LatitudeDegrees>36.83234221301972866058349609375</LatitudeDegrees>
              <LongitudeDegrees>-4.37029589898884296417236328125</LongitudeDegrees>
            </Position>
            <AltitudeMeters>673.4000244140625</AltitudeMeters>
            <DistanceMeters>NAN</DistanceMeters>
          </Trackpoint>
          <Trackpoint>
            <Time>2020-12-05T12:13:17.000Z</Time>
            <Position>
              <LatitudeDegrees>36.8323619104921817779541015625</LatitudeDegrees>
              <LongitudeDegrees>-4.37029338441789150238037109375</LongitudeDegrees>
            </Position>
            <AltitudeMeters>673.4000244140625</AltitudeMeters>
            <DistanceMeters>NAN</DistanceMeters>
          </Trackpoint>
          <Trackpoint>
            <Time>2020-12-05T12:13:18.000Z</Time>
            <Position>
              <LatitudeDegrees>36.8323793448507785797119140625</LatitudeDegrees>
              <LongitudeDegrees>-4.3702922947704792022705078125</LongitudeDegrees>
            </Position>
            <AltitudeMeters>673.4000244140625</AltitudeMeters>
            <DistanceMeters>NAN</DistanceMeters>
          </Trackpoint>
          <Trackpoint>
            <Time>2020-12-05T12:13:19.000Z</Time>
            <Position>
              <LatitudeDegrees>36.83239485137164592742919921875</LatitudeDegrees>
              <LongitudeDegrees>-4.37028885819017887115478515625</LongitudeDegrees>
            </Position>
            <AltitudeMeters>673.4000244140625</AltitudeMeters>
            <DistanceMeters>NAN</DistanceMeters>
          </Trackpoint>
          <Trackpoint>
            <Time>2020-12-05T12:13:20.000Z</Time>
            <Position>
              <LatitudeDegrees>36.8324098549783229827880859375</LatitudeDegrees>
              <LongitudeDegrees>-4.37029036693274974822998046875</LongitudeDegrees>
            </Position>
            <AltitudeMeters>673.4000244140625</AltitudeMeters>
            <DistanceMeters>NAN</DistanceMeters>
          </Trackpoint>
          <Trackpoint>
            <Time>2020-12-05T12:13:21.000Z</Time>
            <Position>
              <LatitudeDegrees>36.83242586441338062286376953125</LatitudeDegrees>
              <LongitudeDegrees>-4.3702912889420986175537109375</LongitudeDegrees>
            </Position>
            <AltitudeMeters>673.4000244140625</AltitudeMeters>
            <DistanceMeters>NAN</DistanceMeters>
          </Trackpoint>
          <Trackpoint>
            <Time>2020-12-05T12:13:22.000Z</Time>
            <Position>
              <LatitudeDegrees>36.8324413709342479705810546875</LatitudeDegrees>
              <LongitudeDegrees>-4.37029489316046237945556640625</LongitudeDegrees>
            </Position>
            <AltitudeMeters>673.4000244140625</AltitudeMeters>
            <DistanceMeters>NAN</DistanceMeters>
          </Trackpoint>
          <Trackpoint>
            <Time>2020-12-05T12:13:23.000Z</Time>
            <Position>
              <LatitudeDegrees>36.8324561230838298797607421875</LatitudeDegrees>
              <LongitudeDegrees>-4.37029774300754070281982421875</LongitudeDegrees>
            </Position>
            <AltitudeMeters>673.4000244140625</AltitudeMeters>
            <DistanceMeters>NAN</DistanceMeters>
          </Trackpoint>
          <Trackpoint>
            <Time>2020-12-05T12:13:24.000Z</Time>
            <Position>
              <LatitudeDegrees>36.83247162960469722747802734375</LatitudeDegrees>
              <LongitudeDegrees>-4.3702979944646358489990234375</LongitudeDegrees>
            </Position>
            <AltitudeMeters>673.4000244140625</AltitudeMeters>
            <DistanceMeters>NAN</DistanceMeters>
          </Trackpoint>
          <Trackpoint>
            <Time>2020-12-05T12:13:25.000Z</Time>
            <Position>
              <LatitudeDegrees>36.83248738758265972137451171875</LatitudeDegrees>
              <LongitudeDegrees>-4.3702993355691432952880859375</LongitudeDegrees>
            </Position>
            <AltitudeMeters>673.4000244140625</AltitudeMeters>
            <DistanceMeters>NAN</DistanceMeters>
          </Trackpoint>
          <Trackpoint>
            <Time>2020-12-05T12:13:26.000Z</Time>
            <Position>
              <LatitudeDegrees>36.83250281028449535369873046875</LatitudeDegrees>
              <LongitudeDegrees>-4.3703010119497776031494140625</LongitudeDegrees>
            </Position>
            <AltitudeMeters>673.4000244140625</AltitudeMeters>
            <DistanceMeters>NAN</DistanceMeters>
          </Trackpoint>
          <Trackpoint>
            <Time>2020-12-05T12:13:27.000Z</Time>
            <Position>
              <LatitudeDegrees>36.83251655660569667816162109375</LatitudeDegrees>
              <LongitudeDegrees>-4.37030084431171417236328125</LongitudeDegrees>
            </Position>
            <AltitudeMeters>673.4000244140625</AltitudeMeters>
            <DistanceMeters>NAN</DistanceMeters>
          </Trackpoint>
          <Trackpoint>
            <Time>2020-12-05T12:13:28.000Z</Time>
            <Position>
              <LatitudeDegrees>36.83253030292689800262451171875</LatitudeDegrees>
              <LongitudeDegrees>-4.3702993355691432952880859375</LongitudeDegrees>
            </Position>
            <AltitudeMeters>673.4000244140625</AltitudeMeters>
            <DistanceMeters>NAN</DistanceMeters>
          </Trackpoint>
          <Trackpoint>
            <Time>2020-12-05T12:13:29.000Z</Time>
            <Position>
              <LatitudeDegrees>36.8325434625148773193359375</LatitudeDegrees>
              <LongitudeDegrees>-4.37029413878917694091796875</LongitudeDegrees>
            </Position>
            <AltitudeMeters>673.4000244140625</AltitudeMeters>
            <DistanceMeters>NAN</DistanceMeters>
          </Trackpoint>
          <Trackpoint>
            <Time>2020-12-05T12:13:30.000Z</Time>
            <Position>
              <LatitudeDegrees>36.832555197179317474365234375</LatitudeDegrees>
              <LongitudeDegrees>-4.3702919594943523406982421875</LongitudeDegrees>
            </Position>
            <AltitudeMeters>673.4000244140625</AltitudeMeters>
            <DistanceMeters>NAN</DistanceMeters>
          </Trackpoint>
          <Trackpoint>
            <Time>2020-12-05T12:13:31.000Z</Time>
            <Position>
              <LatitudeDegrees>36.83256550692021846771240234375</LatitudeDegrees>
              <LongitudeDegrees>-4.37029321677982807159423828125</LongitudeDegrees>
            </Position>
            <AltitudeMeters>673.4000244140625</AltitudeMeters>
            <DistanceMeters>NAN</DistanceMeters>
          </Trackpoint>
          <Trackpoint>
            <Time>2020-12-05T12:13:32.000Z</Time>
            <Position>
              <LatitudeDegrees>36.832577325403690338134765625</LatitudeDegrees>
              <LongitudeDegrees>-4.37029606662690639495849609375</LongitudeDegrees>
            </Position>
            <AltitudeMeters>673.4000244140625</AltitudeMeters>
            <DistanceMeters>NAN</DistanceMeters>
          </Trackpoint>
          <Trackpoint>
            <Time>2020-12-05T12:13:33.000Z</Time>
            <Position>
              <LatitudeDegrees>36.8325942568480968475341796875</LatitudeDegrees>
              <LongitudeDegrees>-4.37030076049268245697021484375</LongitudeDegrees>
            </Position>
            <AltitudeMeters>673.4000244140625</AltitudeMeters>
            <DistanceMeters>NAN</DistanceMeters>
          </Trackpoint>
          <Trackpoint>
            <Time>2020-12-05T12:13:34.000Z</Time>
            <Position>
              <LatitudeDegrees>36.83261110447347164154052734375</LatitudeDegrees>
              <LongitudeDegrees>-4.3703068792819976806640625</LongitudeDegrees>
            </Position>
            <AltitudeMeters>673.4000244140625</AltitudeMeters>
            <DistanceMeters>NAN</DistanceMeters>
          </Trackpoint>
          <Trackpoint>
            <Time>2020-12-05T12:13:35.000Z</Time>
            <Position>
              <LatitudeDegrees>36.8326287902891635894775390625</LatitudeDegrees>
              <LongitudeDegrees>-4.370310567319393157958984375</LongitudeDegrees>
            </Position>
            <AltitudeMeters>673.4000244140625</AltitudeMeters>
            <DistanceMeters>NAN</DistanceMeters>
          </Trackpoint>
          <Trackpoint>
            <Time>2020-12-05T12:13:36.000Z</Time>
            <Position>
              <LatitudeDegrees>36.83264412917196750640869140625</LatitudeDegrees>
              <LongitudeDegrees>-4.37031299807131290435791015625</LongitudeDegrees>
            </Position>
            <AltitudeMeters>673.4000244140625</AltitudeMeters>
            <DistanceMeters>NAN</DistanceMeters>
          </Trackpoint>
          <Trackpoint>
            <Time>2020-12-05T12:13:37.000Z</Time>
            <Position>
              <LatitudeDegrees>36.83265770785510540008544921875</LatitudeDegrees>
              <LongitudeDegrees>-4.37031559646129608154296875</LongitudeDegrees>
            </Position>
            <AltitudeMeters>673.4000244140625</AltitudeMeters>
            <DistanceMeters>NAN</DistanceMeters>
          </Trackpoint>
          <Trackpoint>
            <Time>2020-12-05T12:13:38.000Z</Time>
            <Position>
              <LatitudeDegrees>36.83267061598598957061767578125</LatitudeDegrees>
              <LongitudeDegrees>-4.37031735666096210479736328125</LongitudeDegrees>
            </Position>
            <AltitudeMeters>673.4000244140625</AltitudeMeters>
            <DistanceMeters>NAN</DistanceMeters>
          </Trackpoint>
          <Trackpoint>
            <Time>2020-12-05T12:13:39.000Z</Time>
            <Position>
              <LatitudeDegrees>36.8326814286410808563232421875</LatitudeDegrees>
              <LongitudeDegrees>-4.37032096087932586669921875</LongitudeDegrees>
            </Position>
            <AltitudeMeters>673.4000244140625</AltitudeMeters>
            <DistanceMeters>NAN</DistanceMeters>
          </Trackpoint>
          <Trackpoint>
            <Time>2020-12-05T12:13:40.000Z</Time>
            <Position>
              <LatitudeDegrees>36.83269173838198184967041015625</LatitudeDegrees>
              <LongitudeDegrees>-4.3703258223831653594970703125</LongitudeDegrees>
            </Position>
            <AltitudeMeters>673.4000244140625</AltitudeMeters>
            <DistanceMeters>NAN</DistanceMeters>
          </Trackpoint>
          <Trackpoint>
            <Time>2020-12-05T12:13:41.000Z</Time>
            <Position>
              <LatitudeDegrees>36.83270129375159740447998046875</LatitudeDegrees>
              <LongitudeDegrees>-4.3703305162489414215087890625</LongitudeDegrees>
            </Position>
            <AltitudeMeters>673.4000244140625</AltitudeMeters>
            <DistanceMeters>NAN</DistanceMeters>
          </Trackpoint>
          <Trackpoint>
            <Time>2020-12-05T12:13:42.000Z</Time>
            <Position>
              <LatitudeDegrees>36.83271369896829128265380859375</LatitudeDegrees>
              <LongitudeDegrees>-4.37033847905695438385009765625</LongitudeDegrees>
            </Position>
            <AltitudeMeters>673.4000244140625</AltitudeMeters>
            <DistanceMeters>NAN</DistanceMeters>
          </Trackpoint>
          <Trackpoint>
            <Time>2020-12-05T12:13:43.000Z</Time>
            <Position>
              <LatitudeDegrees>36.83272610418498516082763671875</LatitudeDegrees>
              <LongitudeDegrees>-4.37035038135945796966552734375</LongitudeDegrees>
            </Position>
            <AltitudeMeters>673.4000244140625</AltitudeMeters>
            <DistanceMeters>NAN</DistanceMeters>
          </Trackpoint>
          <Trackpoint>
            <Time>2020-12-05T12:13:44.000Z</Time>
            <Position>
              <LatitudeDegrees>36.832737587392330169677734375</LatitudeDegrees>
              <LongitudeDegrees>-4.37036043964326381683349609375</LongitudeDegrees>
            </Position>
            <AltitudeMeters>673.4000244140625</AltitudeMeters>
            <DistanceMeters>NAN</DistanceMeters>
          </Trackpoint>
          <Trackpoint>
            <Time>2020-12-05T12:13:45.000Z</Time>
            <Position>
              <LatitudeDegrees>36.83275208808481693267822265625</LatitudeDegrees>
              <LongitudeDegrees>-4.37037066556513309478759765625</LongitudeDegrees>
            </Position>
            <AltitudeMeters>673.4000244140625</AltitudeMeters>
            <DistanceMeters>NAN</DistanceMeters>
          </Trackpoint>
          <Trackpoint>
            <Time>2020-12-05T12:13:46.000Z</Time>
            <Position>
              <LatitudeDegrees>36.83276549912989139556884765625</LatitudeDegrees>
              <LongitudeDegrees>-4.37038407661020755767822265625</LongitudeDegrees>
            </Position>
            <AltitudeMeters>673.4000244140625</AltitudeMeters>
            <DistanceMeters>NAN</DistanceMeters>
          </Trackpoint>
          <Trackpoint>
            <Time>2020-12-05T12:13:47.000Z</Time>
            <Position>
              <LatitudeDegrees>36.8327763117849826812744140625</LatitudeDegrees>
              <LongitudeDegrees>-4.3704012595117092132568359375</LongitudeDegrees>
            </Position>
            <AltitudeMeters>673.4000244140625</AltitudeMeters>
            <DistanceMeters>NAN</DistanceMeters>
          </Trackpoint>
          <Trackpoint>
            <Time>2020-12-05T12:13:48.000Z</Time>
            <Position>
              <LatitudeDegrees>36.83278544805943965911865234375</LatitudeDegrees>
              <LongitudeDegrees>-4.37041777186095714569091796875</LongitudeDegrees>
            </Position>
            <AltitudeMeters>673.4000244140625</AltitudeMeters>
            <DistanceMeters>NAN</DistanceMeters>
          </Trackpoint>
          <Trackpoint>
            <Time>2020-12-05T12:13:49.000Z</Time>
            <Position>
              <LatitudeDegrees>36.83279357850551605224609375</LatitudeDegrees>
              <LongitudeDegrees>-4.37043051235377788543701171875</LongitudeDegrees>
            </Position>
            <AltitudeMeters>673.4000244140625</AltitudeMeters>
            <DistanceMeters>NAN</DistanceMeters>
          </Trackpoint>
          <Trackpoint>
            <Time>2020-12-05T12:13:50.000Z</Time>
            <Position>
              <LatitudeDegrees>36.83279885910451412200927734375</LatitudeDegrees>
              <LongitudeDegrees>-4.37044677324593067169189453125</LongitudeDegrees>
            </Position>
            <AltitudeMeters>673.4000244140625</AltitudeMeters>
            <DistanceMeters>NAN</DistanceMeters>
          </Trackpoint>
          <Trackpoint>
            <Time>2020-12-05T12:13:51.000Z</Time>
            <Position>
              <LatitudeDegrees>36.8328051455318927764892578125</LatitudeDegrees>
              <LongitudeDegrees>-4.37045850791037082672119140625</LongitudeDegrees>
            </Position>
            <AltitudeMeters>673.4000244140625</AltitudeMeters>
            <DistanceMeters>NAN</DistanceMeters>
          </Trackpoint>
          <Trackpoint>
            <Time>2020-12-05T12:13:52.000Z</Time>
            <Position>
              <LatitudeDegrees>36.83281235396862030029296875</LatitudeDegrees>
              <LongitudeDegrees>-4.37046739272773265838623046875</LongitudeDegrees>
            </Position>
            <AltitudeMeters>673.4000244140625</AltitudeMeters>
            <DistanceMeters>NAN</DistanceMeters>
          </Trackpoint>
          <Trackpoint>
            <Time>2020-12-05T12:13:53.000Z</Time>
            <Position>
              <LatitudeDegrees>36.83281838893890380859375</LatitudeDegrees>
              <LongitudeDegrees>-4.3704766966402530670166015625</LongitudeDegrees>
            </Position>
            <AltitudeMeters>673.4000244140625</AltitudeMeters>
            <DistanceMeters>NAN</DistanceMeters>
          </Trackpoint>
          <Trackpoint>
            <Time>2020-12-05T12:13:54.000Z</Time>
            <Position>
              <LatitudeDegrees>36.83281931094825267791748046875</LatitudeDegrees>
              <LongitudeDegrees>-4.37048868276178836822509765625</LongitudeDegrees>
            </Position>
            <AltitudeMeters>673.4000244140625</AltitudeMeters>
            <DistanceMeters>NAN</DistanceMeters>
          </Trackpoint>
          <Trackpoint>
            <Time>2020-12-05T12:13:55.000Z</Time>
            <Position>
              <LatitudeDegrees>36.83281830511987209320068359375</LatitudeDegrees>
              <LongitudeDegrees>-4.37050259672105312347412109375</LongitudeDegrees>
            </Position>
            <AltitudeMeters>673.4000244140625</AltitudeMeters>
            <DistanceMeters>NAN</DistanceMeters>
          </Trackpoint>
          <Trackpoint>
            <Time>2020-12-05T12:13:56.000Z</Time>
            <Position>
              <LatitudeDegrees>36.83281629346311092376708984375</LatitudeDegrees>
              <LongitudeDegrees>-4.3705176003277301788330078125</LongitudeDegrees>
            </Position>
            <AltitudeMeters>673.4000244140625</AltitudeMeters>
            <DistanceMeters>NAN</DistanceMeters>
          </Trackpoint>
          <Trackpoint>
            <Time>2020-12-05T12:13:57.000Z</Time>
            <Position>
              <LatitudeDegrees>36.83281428180634975433349609375</LatitudeDegrees>
              <LongitudeDegrees>-4.370531849563121795654296875</LongitudeDegrees>
            </Position>
            <AltitudeMeters>673.4000244140625</AltitudeMeters>
            <DistanceMeters>NAN</DistanceMeters>
          </Trackpoint>
          <Trackpoint>
            <Time>2020-12-05T12:13:58.000Z</Time>
            <Position>
              <LatitudeDegrees>36.83281461708247661590576171875</LatitudeDegrees>
              <LongitudeDegrees>-4.37054819427430629730224609375</LongitudeDegrees>
            </Position>
            <AltitudeMeters>673.4000244140625</AltitudeMeters>
            <DistanceMeters>NAN</DistanceMeters>
          </Trackpoint>
          <Trackpoint>
            <Time>2020-12-05T12:13:59.000Z</Time>
            <Position>
              <LatitudeDegrees>36.8328143656253814697265625</LatitudeDegrees>
              <LongitudeDegrees>-4.37056160531938076019287109375</LongitudeDegrees>
            </Position>
            <AltitudeMeters>673.4000244140625</AltitudeMeters>
            <DistanceMeters>NAN</DistanceMeters>
          </Trackpoint>
          <Trackpoint>
            <Time>2020-12-05T12:14:00.000Z</Time>
            <Position>
              <LatitudeDegrees>36.8328175507485866546630859375</LatitudeDegrees>
              <LongitudeDegrees>-4.37057451345026493072509765625</LongitudeDegrees>
            </Position>
            <AltitudeMeters>674.5999755859375</AltitudeMeters>
            <DistanceMeters>NAN</DistanceMeters>
          </Trackpoint>
          <Trackpoint>
            <Time>2020-12-05T12:14:01.000Z</Time>
            <Position>
              <LatitudeDegrees>36.83281880803406238555908203125</LatitudeDegrees>
              <LongitudeDegrees>-4.3705890141427516937255859375</LongitudeDegrees>
            </Position>
            <AltitudeMeters>674.5999755859375</AltitudeMeters>
            <DistanceMeters>NAN</DistanceMeters>
          </Trackpoint>
          <Trackpoint>
            <Time>2020-12-05T12:14:02.000Z</Time>
            <Position>
              <LatitudeDegrees>36.83281864039599895477294921875</LatitudeDegrees>
              <LongitudeDegrees>-4.370606951415538787841796875</LongitudeDegrees>
            </Position>
            <AltitudeMeters>674.5999755859375</AltitudeMeters>
            <DistanceMeters>NAN</DistanceMeters>
          </Trackpoint>
          <Trackpoint>
            <Time>2020-12-05T12:14:03.000Z</Time>
            <Position>
              <LatitudeDegrees>36.8328197300434112548828125</LatitudeDegrees>
              <LongitudeDegrees>-4.37062379904091358184814453125</LongitudeDegrees>
            </Position>
            <AltitudeMeters>674.5999755859375</AltitudeMeters>
            <DistanceMeters>NAN</DistanceMeters>
          </Trackpoint>
          <Trackpoint>
            <Time>2020-12-05T12:14:04.000Z</Time>
            <Position>
              <LatitudeDegrees>36.832823418080806732177734375</LatitudeDegrees>
              <LongitudeDegrees>-4.3706382997334003448486328125</LongitudeDegrees>
            </Position>
            <AltitudeMeters>674.5999755859375</AltitudeMeters>
            <DistanceMeters>NAN</DistanceMeters>
          </Trackpoint>
          <Trackpoint>
            <Time>2020-12-05T12:14:05.000Z</Time>
            <Position>
              <LatitudeDegrees>36.8328292854130268096923828125</LatitudeDegrees>
              <LongitudeDegrees>-4.370650537312030792236328125</LongitudeDegrees>
            </Position>
            <AltitudeMeters>674.5999755859375</AltitudeMeters>
            <DistanceMeters>NAN</DistanceMeters>
          </Trackpoint>
          <Trackpoint>
            <Time>2020-12-05T12:14:06.000Z</Time>
            <Position>
              <LatitudeDegrees>36.832834817469120025634765625</LatitudeDegrees>
              <LongitudeDegrees>-4.37066285870969295501708984375</LongitudeDegrees>
            </Position>
            <AltitudeMeters>674.5999755859375</AltitudeMeters>
            <DistanceMeters>NAN</DistanceMeters>
          </Trackpoint>
          <Trackpoint>
            <Time>2020-12-05T12:14:07.000Z</Time>
            <Position>
              <LatitudeDegrees>36.83283892460167407989501953125</LatitudeDegrees>
              <LongitudeDegrees>-4.37067409045994281768798828125</LongitudeDegrees>
            </Position>
            <AltitudeMeters>674.5999755859375</AltitudeMeters>
            <DistanceMeters>NAN</DistanceMeters>
          </Trackpoint>
          <Trackpoint>
            <Time>2020-12-05T12:14:08.000Z</Time>
            <Position>
              <LatitudeDegrees>36.83283925987780094146728515625</LatitudeDegrees>
              <LongitudeDegrees>-4.37068783678114414215087890625</LongitudeDegrees>
            </Position>
            <AltitudeMeters>674.5999755859375</AltitudeMeters>
            <DistanceMeters>NAN</DistanceMeters>
          </Trackpoint>
          <Trackpoint>
            <Time>2020-12-05T12:14:09.000Z</Time>
            <Position>
              <LatitudeDegrees>36.8328410200774669647216796875</LatitudeDegrees>
              <LongitudeDegrees>-4.37070627696812152862548828125</LongitudeDegrees>
            </Position>
            <AltitudeMeters>674.5999755859375</AltitudeMeters>
            <DistanceMeters>NAN</DistanceMeters>
          </Trackpoint>
          <Trackpoint>
            <Time>2020-12-05T12:14:10.000Z</Time>
            <Position>
              <LatitudeDegrees>36.83284026570618152618408203125</LatitudeDegrees>
              <LongitudeDegrees>-4.3707237951457500457763671875</LongitudeDegrees>
            </Position>
            <AltitudeMeters>674.5999755859375</AltitudeMeters>
            <DistanceMeters>NAN</DistanceMeters>
          </Trackpoint>
          <Trackpoint>
            <Time>2020-12-05T12:14:11.000Z</Time>
            <Position>
              <LatitudeDegrees>36.832840181887149810791015625</LatitudeDegrees>
              <LongitudeDegrees>-4.370739720761775970458984375</LongitudeDegrees>
            </Position>
            <AltitudeMeters>674.5999755859375</AltitudeMeters>
            <DistanceMeters>NAN</DistanceMeters>
          </Trackpoint>
          <Trackpoint>
            <Time>2020-12-05T12:14:12.000Z</Time>
            <Position>
              <LatitudeDegrees>36.8328369967639446258544921875</LatitudeDegrees>
              <LongitudeDegrees>-4.37076210044324398040771484375</LongitudeDegrees>
            </Position>
            <AltitudeMeters>674.5999755859375</AltitudeMeters>
            <DistanceMeters>NAN</DistanceMeters>
          </Trackpoint>
          <Trackpoint>
            <Time>2020-12-05T12:14:13.000Z</Time>
            <Position>
              <LatitudeDegrees>36.83283506892621517181396484375</LatitudeDegrees>
              <LongitudeDegrees>-4.37078204937279224395751953125</LongitudeDegrees>
            </Position>
            <AltitudeMeters>674.5999755859375</AltitudeMeters>
            <DistanceMeters>NAN</DistanceMeters>
          </Trackpoint>
          <Trackpoint>
            <Time>2020-12-05T12:14:14.000Z</Time>
            <Position>
              <LatitudeDegrees>36.83283515274524688720703125</LatitudeDegrees>
              <LongitudeDegrees>-4.37079814262688159942626953125</LongitudeDegrees>
            </Position>
            <AltitudeMeters>674.5999755859375</AltitudeMeters>
            <DistanceMeters>NAN</DistanceMeters>
          </Trackpoint>
          <Trackpoint>
            <Time>2020-12-05T12:14:15.000Z</Time>
            <Position>
              <LatitudeDegrees>36.8328346498310565948486328125</LatitudeDegrees>
              <LongitudeDegrees>-4.37081406824290752410888671875</LongitudeDegrees>
            </Position>
            <AltitudeMeters>674.5999755859375</AltitudeMeters>
            <DistanceMeters>NAN</DistanceMeters>
          </Trackpoint>
          <Trackpoint>
            <Time>2020-12-05T12:14:16.000Z</Time>
            <Position>
              <LatitudeDegrees>36.83283247053623199462890625</LatitudeDegrees>
              <LongitudeDegrees>-4.37083217315375804901123046875</LongitudeDegrees>
            </Position>
            <AltitudeMeters>674.5999755859375</AltitudeMeters>
            <DistanceMeters>NAN</DistanceMeters>
          </Trackpoint>
          <Trackpoint>
            <Time>2020-12-05T12:14:17.000Z</Time>
            <Position>
              <LatitudeDegrees>36.83283171616494655609130859375</LatitudeDegrees>
              <LongitudeDegrees>-4.3708501942455768585205078125</LongitudeDegrees>
            </Position>
            <AltitudeMeters>674.5999755859375</AltitudeMeters>
            <DistanceMeters>NAN</DistanceMeters>
          </Trackpoint>
          <Trackpoint>
            <Time>2020-12-05T12:14:18.000Z</Time>
            <Position>
              <LatitudeDegrees>36.832831799983978271484375</LatitudeDegrees>
              <LongitudeDegrees>-4.37086955644190311431884765625</LongitudeDegrees>
            </Position>
            <AltitudeMeters>674.5999755859375</AltitudeMeters>
            <DistanceMeters>NAN</DistanceMeters>
          </Trackpoint>
          <Trackpoint>
            <Time>2020-12-05T12:14:19.000Z</Time>
            <Position>
              <LatitudeDegrees>36.83283381164073944091796875</LatitudeDegrees>
              <LongitudeDegrees>-4.37088632024824619293212890625</LongitudeDegrees>
            </Position>
            <AltitudeMeters>674.5999755859375</AltitudeMeters>
            <DistanceMeters>NAN</DistanceMeters>
          </Trackpoint>
          <Trackpoint>
            <Time>2020-12-05T12:14:20.000Z</Time>
            <Position>
              <LatitudeDegrees>36.832837499678134918212890625</LatitudeDegrees>
              <LongitudeDegrees>-4.370901323854923248291015625</LongitudeDegrees>
            </Position>
            <AltitudeMeters>674.5999755859375</AltitudeMeters>
            <DistanceMeters>NAN</DistanceMeters>
          </Trackpoint>
          <Trackpoint>
            <Time>2020-12-05T12:14:21.000Z</Time>
            <Position>
              <LatitudeDegrees>36.83284060098230838775634765625</LatitudeDegrees>
              <LongitudeDegrees>-4.37092051841318607330322265625</LongitudeDegrees>
            </Position>
            <AltitudeMeters>674.5999755859375</AltitudeMeters>
            <DistanceMeters>NAN</DistanceMeters>
          </Trackpoint>
          <Trackpoint>
            <Time>2020-12-05T12:14:22.000Z</Time>
            <Position>
              <LatitudeDegrees>36.83284462429583072662353515625</LatitudeDegrees>
              <LongitudeDegrees>-4.3709423951804637908935546875</LongitudeDegrees>
            </Position>
            <AltitudeMeters>674.5999755859375</AltitudeMeters>
            <DistanceMeters>NAN</DistanceMeters>
          </Trackpoint>
          <Trackpoint>
            <Time>2020-12-05T12:14:23.000Z</Time>
            <Position>
              <LatitudeDegrees>36.83284915052354335784912109375</LatitudeDegrees>
              <LongitudeDegrees>-4.37096469104290008544921875</LongitudeDegrees>
            </Position>
            <AltitudeMeters>674.5999755859375</AltitudeMeters>
            <DistanceMeters>NAN</DistanceMeters>
          </Trackpoint>
          <Trackpoint>
            <Time>2020-12-05T12:14:24.000Z</Time>
            <Position>
              <LatitudeDegrees>36.83285258710384368896484375</LatitudeDegrees>
              <LongitudeDegrees>-4.37098673544824123382568359375</LongitudeDegrees>
            </Position>
            <AltitudeMeters>674.5999755859375</AltitudeMeters>
            <DistanceMeters>NAN</DistanceMeters>
          </Trackpoint>
          <Trackpoint>
            <Time>2020-12-05T12:14:25.000Z</Time>
            <Position>
              <LatitudeDegrees>36.83285392820835113525390625</LatitudeDegrees>
              <LongitudeDegrees>-4.37100827693939208984375</LongitudeDegrees>
            </Position>
            <AltitudeMeters>674.5999755859375</AltitudeMeters>
            <DistanceMeters>NAN</DistanceMeters>
          </Trackpoint>
          <Trackpoint>
            <Time>2020-12-05T12:14:26.000Z</Time>
            <Position>
              <LatitudeDegrees>36.832855604588985443115234375</LatitudeDegrees>
              <LongitudeDegrees>-4.3710218556225299835205078125</LongitudeDegrees>
            </Position>
            <AltitudeMeters>674.5999755859375</AltitudeMeters>
            <DistanceMeters>NAN</DistanceMeters>
          </Trackpoint>
          <Trackpoint>
            <Time>2020-12-05T12:14:27.000Z</Time>
            <Position>
              <LatitudeDegrees>36.8328574486076831817626953125</LatitudeDegrees>
              <LongitudeDegrees>-4.371038116514682769775390625</LongitudeDegrees>
            </Position>
            <AltitudeMeters>674.5999755859375</AltitudeMeters>
            <DistanceMeters>NAN</DistanceMeters>
          </Trackpoint>
          <Trackpoint>
            <Time>2020-12-05T12:14:28.000Z</Time>
            <Position>
              <LatitudeDegrees>36.8328604660928249359130859375</LatitudeDegrees>
              <LongitudeDegrees>-4.37105345539748668670654296875</LongitudeDegrees>
            </Position>
            <AltitudeMeters>674.5999755859375</AltitudeMeters>
            <DistanceMeters>NAN</DistanceMeters>
          </Trackpoint>
          <Trackpoint>
            <Time>2020-12-05T12:14:29.000Z</Time>
            <Position>
              <LatitudeDegrees>36.83286038227379322052001953125</LatitudeDegrees>
              <LongitudeDegrees>-4.37107156030833721160888671875</LongitudeDegrees>
            </Position>
            <AltitudeMeters>674.5999755859375</AltitudeMeters>
            <DistanceMeters>NAN</DistanceMeters>
          </Trackpoint>
          <Trackpoint>
            <Time>2020-12-05T12:14:30.000Z</Time>
            <Position>
              <LatitudeDegrees>36.83285987935960292816162109375</LatitudeDegrees>
              <LongitudeDegrees>-4.37109343707561492919921875</LongitudeDegrees>
            </Position>
            <AltitudeMeters>674.5999755859375</AltitudeMeters>
            <DistanceMeters>NAN</DistanceMeters>
          </Trackpoint>
          <Trackpoint>
            <Time>2020-12-05T12:14:31.000Z</Time>
            <Position>
              <LatitudeDegrees>36.8328631483018398284912109375</LatitudeDegrees>
              <LongitudeDegrees>-4.37111087143421173095703125</LongitudeDegrees>
            </Position>
            <AltitudeMeters>674.5999755859375</AltitudeMeters>
            <DistanceMeters>NAN</DistanceMeters>
          </Trackpoint>
          <Trackpoint>
            <Time>2020-12-05T12:14:32.000Z</Time>
            <Position>
              <LatitudeDegrees>36.83286524377763271331787109375</LatitudeDegrees>
              <LongitudeDegrees>-4.37112771905958652496337890625</LongitudeDegrees>
            </Position>
            <AltitudeMeters>674.5999755859375</AltitudeMeters>
            <DistanceMeters>NAN</DistanceMeters>
          </Trackpoint>
          <Trackpoint>
            <Time>2020-12-05T12:14:33.000Z</Time>
            <Position>
              <LatitudeDegrees>36.83286733925342559814453125</LatitudeDegrees>
              <LongitudeDegrees>-4.3711437284946441650390625</LongitudeDegrees>
            </Position>
            <AltitudeMeters>674.5999755859375</AltitudeMeters>
            <DistanceMeters>NAN</DistanceMeters>
          </Trackpoint>
          <Trackpoint>
            <Time>2020-12-05T12:14:34.000Z</Time>
            <Position>
              <LatitudeDegrees>36.8328678421676158905029296875</LatitudeDegrees>
              <LongitudeDegrees>-4.37116191722452640533447265625</LongitudeDegrees>
            </Position>
            <AltitudeMeters>674.5999755859375</AltitudeMeters>
            <DistanceMeters>NAN</DistanceMeters>
          </Trackpoint>
          <Trackpoint>
            <Time>2020-12-05T12:14:35.000Z</Time>
            <Position>
              <LatitudeDegrees>36.83286960236728191375732421875</LatitudeDegrees>
              <LongitudeDegrees>-4.3711760826408863067626953125</LongitudeDegrees>
            </Position>
            <AltitudeMeters>674.5999755859375</AltitudeMeters>
            <DistanceMeters>NAN</DistanceMeters>
          </Trackpoint>
          <Trackpoint>
            <Time>2020-12-05T12:14:36.000Z</Time>
            <Position>
              <LatitudeDegrees>36.8328725360333919525146484375</LatitudeDegrees>
              <LongitudeDegrees>-4.37118940986692905426025390625</LongitudeDegrees>
            </Position>
            <AltitudeMeters>674.5999755859375</AltitudeMeters>
            <DistanceMeters>NAN</DistanceMeters>
          </Trackpoint>
          <Trackpoint>
            <Time>2020-12-05T12:14:37.000Z</Time>
            <Position>
              <LatitudeDegrees>36.832874715328216552734375</LatitudeDegrees>
              <LongitudeDegrees>-4.37120600603520870208740234375</LongitudeDegrees>
            </Position>
            <AltitudeMeters>674.5999755859375</AltitudeMeters>
            <DistanceMeters>NAN</DistanceMeters>
          </Trackpoint>
          <Trackpoint>
            <Time>2020-12-05T12:14:38.000Z</Time>
            <Position>
              <LatitudeDegrees>36.8328732065856456756591796875</LatitudeDegrees>
              <LongitudeDegrees>-4.37122779898345470428466796875</LongitudeDegrees>
            </Position>
            <AltitudeMeters>674.5999755859375</AltitudeMeters>
            <DistanceMeters>NAN</DistanceMeters>
          </Trackpoint>
          <Trackpoint>
            <Time>2020-12-05T12:14:39.000Z</Time>
            <Position>
              <LatitudeDegrees>36.832875050604343414306640625</LatitudeDegrees>
              <LongitudeDegrees>-4.3712461553514003753662109375</LongitudeDegrees>
            </Position>
            <AltitudeMeters>674.5999755859375</AltitudeMeters>
            <DistanceMeters>NAN</DistanceMeters>
          </Trackpoint>
          <Trackpoint>
            <Time>2020-12-05T12:14:40.000Z</Time>
            <Position>
              <LatitudeDegrees>36.8328758887946605682373046875</LatitudeDegrees>
              <LongitudeDegrees>-4.37126250006258487701416015625</LongitudeDegrees>
            </Position>
            <AltitudeMeters>674.5999755859375</AltitudeMeters>
            <DistanceMeters>NAN</DistanceMeters>
          </Trackpoint>
          <Trackpoint>
            <Time>2020-12-05T12:14:41.000Z</Time>
            <Position>
              <LatitudeDegrees>36.83287580497562885284423828125</LatitudeDegrees>
              <LongitudeDegrees>-4.37128026969730854034423828125</LongitudeDegrees>
            </Position>
            <AltitudeMeters>674.5999755859375</AltitudeMeters>
            <DistanceMeters>NAN</DistanceMeters>
          </Trackpoint>
          <Trackpoint>
            <Time>2020-12-05T12:14:42.000Z</Time>
            <Position>
              <LatitudeDegrees>36.832873709499835968017578125</LatitudeDegrees>
              <LongitudeDegrees>-4.3712974525988101959228515625</LongitudeDegrees>
            </Position>
            <AltitudeMeters>674.5999755859375</AltitudeMeters>
            <DistanceMeters>NAN</DistanceMeters>
          </Trackpoint>
          <Trackpoint>
            <Time>2020-12-05T12:14:43.000Z</Time>
            <Position>
              <LatitudeDegrees>36.8328718654811382293701171875</LatitudeDegrees>
              <LongitudeDegrees>-4.37131497077643871307373046875</LongitudeDegrees>
            </Position>
            <AltitudeMeters>674.5999755859375</AltitudeMeters>
            <DistanceMeters>NAN</DistanceMeters>
          </Trackpoint>
          <Trackpoint>
            <Time>2020-12-05T12:14:44.000Z</Time>
            <Position>
              <LatitudeDegrees>36.832868345081806182861328125</LatitudeDegrees>
              <LongitudeDegrees>-4.3713380210101604461669921875</LongitudeDegrees>
            </Position>
            <AltitudeMeters>674.5999755859375</AltitudeMeters>
            <DistanceMeters>NAN</DistanceMeters>
          </Trackpoint>
          <Trackpoint>
            <Time>2020-12-05T12:14:45.000Z</Time>
            <Position>
              <LatitudeDegrees>36.8328668363392353057861328125</LatitudeDegrees>
              <LongitudeDegrees>-4.37135704793035984039306640625</LongitudeDegrees>
            </Position>
            <AltitudeMeters>674.5999755859375</AltitudeMeters>
            <DistanceMeters>NAN</DistanceMeters>
          </Trackpoint>
          <Trackpoint>
            <Time>2020-12-05T12:14:46.000Z</Time>
            <Position>
              <LatitudeDegrees>36.8328678421676158905029296875</LatitudeDegrees>
              <LongitudeDegrees>-4.37137347646057605743408203125</LongitudeDegrees>
            </Position>
            <AltitudeMeters>674.5999755859375</AltitudeMeters>
            <DistanceMeters>NAN</DistanceMeters>
          </Trackpoint>
          <Trackpoint>
            <Time>2020-12-05T12:14:47.000Z</Time>
            <Position>
              <LatitudeDegrees>36.83287211693823337554931640625</LatitudeDegrees>
              <LongitudeDegrees>-4.37138789333403110504150390625</LongitudeDegrees>
            </Position>
            <AltitudeMeters>674.5999755859375</AltitudeMeters>
            <DistanceMeters>NAN</DistanceMeters>
          </Trackpoint>
          <Trackpoint>
            <Time>2020-12-05T12:14:48.000Z</Time>
            <Position>
              <LatitudeDegrees>36.83287664316594600677490234375</LatitudeDegrees>
              <LongitudeDegrees>-4.37140616588294506072998046875</LongitudeDegrees>
            </Position>
            <AltitudeMeters>674.5999755859375</AltitudeMeters>
            <DistanceMeters>NAN</DistanceMeters>
          </Trackpoint>
          <Trackpoint>
            <Time>2020-12-05T12:14:49.000Z</Time>
            <Position>
              <LatitudeDegrees>36.8328809179365634918212890625</LatitudeDegrees>
              <LongitudeDegrees>-4.37142376787960529327392578125</LongitudeDegrees>
            </Position>
            <AltitudeMeters>674.5999755859375</AltitudeMeters>
            <DistanceMeters>NAN</DistanceMeters>
          </Trackpoint>
          <Trackpoint>
            <Time>2020-12-05T12:14:50.000Z</Time>
            <Position>
              <LatitudeDegrees>36.83288619853556156158447265625</LatitudeDegrees>
              <LongitudeDegrees>-4.3714382685720920562744140625</LongitudeDegrees>
            </Position>
            <AltitudeMeters>674.5999755859375</AltitudeMeters>
            <DistanceMeters>NAN</DistanceMeters>
          </Trackpoint>
          <Trackpoint>
            <Time>2020-12-05T12:14:51.000Z</Time>
            <Position>
              <LatitudeDegrees>36.83289206586778163909912109375</LatitudeDegrees>
              <LongitudeDegrees>-4.371450506150722503662109375</LongitudeDegrees>
            </Position>
            <AltitudeMeters>674.5999755859375</AltitudeMeters>
            <DistanceMeters>NAN</DistanceMeters>
          </Trackpoint>
          <Trackpoint>
            <Time>2020-12-05T12:14:52.000Z</Time>
            <Position>
              <LatitudeDegrees>36.832894496619701385498046875</LatitudeDegrees>
              <LongitudeDegrees>-4.37146048061549663543701171875</LongitudeDegrees>
            </Position>
            <AltitudeMeters>674.5999755859375</AltitudeMeters>
            <DistanceMeters>NAN</DistanceMeters>
          </Trackpoint>
          <Trackpoint>
            <Time>2020-12-05T12:14:53.000Z</Time>
            <Position>
              <LatitudeDegrees>36.83289625681936740875244140625</LatitudeDegrees>
              <LongitudeDegrees>-4.37147053889930248260498046875</LongitudeDegrees>
            </Position>
            <AltitudeMeters>674.5999755859375</AltitudeMeters>
            <DistanceMeters>NAN</DistanceMeters>
          </Trackpoint>
          <Trackpoint>
            <Time>2020-12-05T12:14:54.000Z</Time>
            <Position>
              <LatitudeDegrees>36.832897178828716278076171875</LatitudeDegrees>
              <LongitudeDegrees>-4.37148411758244037628173828125</LongitudeDegrees>
            </Position>
            <AltitudeMeters>674.5999755859375</AltitudeMeters>
            <DistanceMeters>NAN</DistanceMeters>
          </Trackpoint>
          <Trackpoint>
            <Time>2020-12-05T12:14:55.000Z</Time>
            <Position>
              <LatitudeDegrees>36.8328990228474140167236328125</LatitudeDegrees>
              <LongitudeDegrees>-4.37149979174137115478515625</LongitudeDegrees>
            </Position>
            <AltitudeMeters>674.5999755859375</AltitudeMeters>
            <DistanceMeters>NAN</DistanceMeters>
          </Trackpoint>
          <Trackpoint>
            <Time>2020-12-05T12:14:56.000Z</Time>
            <Position>
              <LatitudeDegrees>36.832901872694492340087890625</LatitudeDegrees>
              <LongitudeDegrees>-4.37151395715773105621337890625</LongitudeDegrees>
            </Position>
            <AltitudeMeters>674.5999755859375</AltitudeMeters>
            <DistanceMeters>NAN</DistanceMeters>
          </Trackpoint>
          <Trackpoint>
            <Time>2020-12-05T12:14:57.000Z</Time>
            <Position>
              <LatitudeDegrees>36.8329043872654438018798828125</LatitudeDegrees>
              <LongitudeDegrees>-4.37153021804988384246826171875</LongitudeDegrees>
            </Position>
            <AltitudeMeters>674.5999755859375</AltitudeMeters>
            <DistanceMeters>NAN</DistanceMeters>
          </Trackpoint>
          <Trackpoint>
            <Time>2020-12-05T12:14:58.000Z</Time>
            <Position>
              <LatitudeDegrees>36.83290782384574413299560546875</LatitudeDegrees>
              <LongitudeDegrees>-4.371547065675258636474609375</LongitudeDegrees>
            </Position>
            <AltitudeMeters>674.5999755859375</AltitudeMeters>
            <DistanceMeters>NAN</DistanceMeters>
          </Trackpoint>
          <Trackpoint>
            <Time>2020-12-05T12:14:59.000Z</Time>
            <Position>
              <LatitudeDegrees>36.83291134424507617950439453125</LatitudeDegrees>
              <LongitudeDegrees>-4.3715648353099822998046875</LongitudeDegrees>
            </Position>
            <AltitudeMeters>674.5999755859375</AltitudeMeters>
            <DistanceMeters>NAN</DistanceMeters>
          </Trackpoint>
          <Trackpoint>
            <Time>2020-12-05T12:15:00.000Z</Time>
            <Position>
              <LatitudeDegrees>36.832913942635059356689453125</LatitudeDegrees>
              <LongitudeDegrees>-4.3715814314782619476318359375</LongitudeDegrees>
            </Position>
            <AltitudeMeters>671.5999755859375</AltitudeMeters>
            <DistanceMeters>NAN</DistanceMeters>
          </Trackpoint>
          <Trackpoint>
            <Time>2020-12-05T12:15:01.000Z</Time>
            <Position>
              <LatitudeDegrees>36.83291721157729625701904296875</LatitudeDegrees>
              <LongitudeDegrees>-4.37159626744687557220458984375</LongitudeDegrees>
            </Position>
            <AltitudeMeters>671.5999755859375</AltitudeMeters>
            <DistanceMeters>NAN</DistanceMeters>
          </Trackpoint>
          <Trackpoint>
            <Time>2020-12-05T12:15:02.000Z</Time>
            <Position>
              <LatitudeDegrees>36.83292073197662830352783203125</LatitudeDegrees>
              <LongitudeDegrees>-4.37161319889128208160400390625</LongitudeDegrees>
            </Position>
            <AltitudeMeters>671.5999755859375</AltitudeMeters>
            <DistanceMeters>NAN</DistanceMeters>
          </Trackpoint>
          <Trackpoint>
            <Time>2020-12-05T12:15:03.000Z</Time>
            <Position>
              <LatitudeDegrees>36.8329238332808017730712890625</LatitudeDegrees>
              <LongitudeDegrees>-4.37162853777408599853515625</LongitudeDegrees>
            </Position>
            <AltitudeMeters>671.5999755859375</AltitudeMeters>
            <DistanceMeters>NAN</DistanceMeters>
          </Trackpoint>
          <Trackpoint>
            <Time>2020-12-05T12:15:04.000Z</Time>
            <Position>
              <LatitudeDegrees>36.8329275213181972503662109375</LatitudeDegrees>
              <LongitudeDegrees>-4.3716411106288433074951171875</LongitudeDegrees>
            </Position>
            <AltitudeMeters>671.5999755859375</AltitudeMeters>
            <DistanceMeters>NAN</DistanceMeters>
          </Trackpoint>
          <Trackpoint>
            <Time>2020-12-05T12:15:05.000Z</Time>
            <Position>
              <LatitudeDegrees>36.8329308740794658660888671875</LatitudeDegrees>
              <LongitudeDegrees>-4.37165494076907634735107421875</LongitudeDegrees>
            </Position>
            <AltitudeMeters>671.5999755859375</AltitudeMeters>
            <DistanceMeters>NAN</DistanceMeters>
          </Trackpoint>
          <Trackpoint>
            <Time>2020-12-05T12:15:06.000Z</Time>
            <Position>
              <LatitudeDegrees>36.83293598704040050506591796875</LatitudeDegrees>
              <LongitudeDegrees>-4.3716696090996265411376953125</LongitudeDegrees>
            </Position>
            <AltitudeMeters>671.5999755859375</AltitudeMeters>
            <DistanceMeters>NAN</DistanceMeters>
          </Trackpoint>
          <Trackpoint>
            <Time>2020-12-05T12:15:07.000Z</Time>
            <Position>
              <LatitudeDegrees>36.83294051326811313629150390625</LatitudeDegrees>
              <LongitudeDegrees>-4.37168578617274761199951171875</LongitudeDegrees>
            </Position>
            <AltitudeMeters>671.5999755859375</AltitudeMeters>
            <DistanceMeters>NAN</DistanceMeters>
          </Trackpoint>
          <Trackpoint>
            <Time>2020-12-05T12:15:08.000Z</Time>
            <Position>
              <LatitudeDegrees>36.832944117486476898193359375</LatitudeDegrees>
              <LongitudeDegrees>-4.37169936485588550567626953125</LongitudeDegrees>
            </Position>
            <AltitudeMeters>671.5999755859375</AltitudeMeters>
            <DistanceMeters>NAN</DistanceMeters>
          </Trackpoint>
          <Trackpoint>
            <Time>2020-12-05T12:15:09.000Z</Time>
            <Position>
              <LatitudeDegrees>36.8329452909529209136962890625</LatitudeDegrees>
              <LongitudeDegrees>-4.37171126715838909149169921875</LongitudeDegrees>
            </Position>
            <AltitudeMeters>671.5999755859375</AltitudeMeters>
            <DistanceMeters>NAN</DistanceMeters>
          </Trackpoint>
          <Trackpoint>
            <Time>2020-12-05T12:15:10.000Z</Time>
            <Position>
              <LatitudeDegrees>36.83294705115258693695068359375</LatitudeDegrees>
              <LongitudeDegrees>-4.37172903679311275482177734375</LongitudeDegrees>
            </Position>
            <AltitudeMeters>671.5999755859375</AltitudeMeters>
            <DistanceMeters>NAN</DistanceMeters>
          </Trackpoint>
          <Trackpoint>
            <Time>2020-12-05T12:15:11.000Z</Time>
            <Position>
              <LatitudeDegrees>36.83295073918998241424560546875</LatitudeDegrees>
              <LongitudeDegrees>-4.371748901903629302978515625</LongitudeDegrees>
            </Position>
            <AltitudeMeters>671.5999755859375</AltitudeMeters>
            <DistanceMeters>NAN</DistanceMeters>
          </Trackpoint>
          <Trackpoint>
            <Time>2020-12-05T12:15:12.000Z</Time>
            <Position>
              <LatitudeDegrees>36.8329540081322193145751953125</LatitudeDegrees>
              <LongitudeDegrees>-4.37176960520446300506591796875</LongitudeDegrees>
            </Position>
            <AltitudeMeters>671.5999755859375</AltitudeMeters>
            <DistanceMeters>NAN</DistanceMeters>
          </Trackpoint>
          <Trackpoint>
            <Time>2020-12-05T12:15:13.000Z</Time>
            <Position>
              <LatitudeDegrees>36.83295744471251964569091796875</LatitudeDegrees>
              <LongitudeDegrees>-4.37179190106689929962158203125</LongitudeDegrees>
            </Position>
            <AltitudeMeters>671.5999755859375</AltitudeMeters>
            <DistanceMeters>NAN</DistanceMeters>
          </Trackpoint>
          <Trackpoint>
            <Time>2020-12-05T12:15:14.000Z</Time>
            <Position>
              <LatitudeDegrees>36.83296255767345428466796875</LatitudeDegrees>
              <LongitudeDegrees>-4.371815621852874755859375</LongitudeDegrees>
            </Position>
            <AltitudeMeters>671.5999755859375</AltitudeMeters>
            <DistanceMeters>NAN</DistanceMeters>
          </Trackpoint>
          <Trackpoint>
            <Time>2020-12-05T12:15:15.000Z</Time>
            <Position>
              <LatitudeDegrees>36.8329684250056743621826171875</LatitudeDegrees>
              <LongitudeDegrees>-4.3718335591256618499755859375</LongitudeDegrees>
            </Position>
            <AltitudeMeters>671.5999755859375</AltitudeMeters>
            <DistanceMeters>NAN</DistanceMeters>
          </Trackpoint>
          <Trackpoint>
            <Time>2020-12-05T12:15:16.000Z</Time>
            <Position>
              <LatitudeDegrees>36.83297236450016498565673828125</LatitudeDegrees>
              <LongitudeDegrees>-4.37185124494135379791259765625</LongitudeDegrees>
            </Position>
            <AltitudeMeters>671.5999755859375</AltitudeMeters>
            <DistanceMeters>NAN</DistanceMeters>
          </Trackpoint>
          <Trackpoint>
            <Time>2020-12-05T12:15:17.000Z</Time>
            <Position>
              <LatitudeDegrees>36.83297521434724330902099609375</LatitudeDegrees>
              <LongitudeDegrees>-4.371868930757045745849609375</LongitudeDegrees>
            </Position>
            <AltitudeMeters>671.5999755859375</AltitudeMeters>
            <DistanceMeters>NAN</DistanceMeters>
          </Trackpoint>
          <Trackpoint>
            <Time>2020-12-05T12:15:18.000Z</Time>
            <Position>
              <LatitudeDegrees>36.832977645099163055419921875</LatitudeDegrees>
              <LongitudeDegrees>-4.371885359287261962890625</LongitudeDegrees>
            </Position>
            <AltitudeMeters>671.5999755859375</AltitudeMeters>
            <DistanceMeters>NAN</DistanceMeters>
          </Trackpoint>
          <Trackpoint>
            <Time>2020-12-05T12:15:19.000Z</Time>
            <Position>
              <LatitudeDegrees>36.83298225514590740203857421875</LatitudeDegrees>
              <LongitudeDegrees>-4.37190136872231960296630859375</LongitudeDegrees>
            </Position>
            <AltitudeMeters>671.5999755859375</AltitudeMeters>
            <DistanceMeters>NAN</DistanceMeters>
          </Trackpoint>
          <Trackpoint>
            <Time>2020-12-05T12:15:20.000Z</Time>
            <Position>
              <LatitudeDegrees>36.8329860270023345947265625</LatitudeDegrees>
              <LongitudeDegrees>-4.37191762961447238922119140625</LongitudeDegrees>
            </Position>
            <AltitudeMeters>671.5999755859375</AltitudeMeters>
            <DistanceMeters>NAN</DistanceMeters>
          </Trackpoint>
          <Trackpoint>
            <Time>2020-12-05T12:15:21.000Z</Time>
            <Position>
              <LatitudeDegrees>36.83298812247812747955322265625</LatitudeDegrees>
              <LongitudeDegrees>-4.371931292116641998291015625</LongitudeDegrees>
            </Position>
            <AltitudeMeters>671.5999755859375</AltitudeMeters>
            <DistanceMeters>NAN</DistanceMeters>
          </Trackpoint>
          <Trackpoint>
            <Time>2020-12-05T12:15:22.000Z</Time>
            <Position>
              <LatitudeDegrees>36.8329895474016666412353515625</LatitudeDegrees>
              <LongitudeDegrees>-4.37194663099944591522216796875</LongitudeDegrees>
            </Position>
            <AltitudeMeters>671.5999755859375</AltitudeMeters>
            <DistanceMeters>NAN</DistanceMeters>
          </Trackpoint>
          <Trackpoint>
            <Time>2020-12-05T12:15:23.000Z</Time>
            <Position>
              <LatitudeDegrees>36.832991726696491241455078125</LatitudeDegrees>
              <LongitudeDegrees>-4.37196121551096439361572265625</LongitudeDegrees>
            </Position>
            <AltitudeMeters>671.5999755859375</AltitudeMeters>
            <DistanceMeters>NAN</DistanceMeters>
          </Trackpoint>
          <Trackpoint>
            <Time>2020-12-05T12:15:24.000Z</Time>
            <Position>
              <LatitudeDegrees>36.83299683965742588043212890625</LatitudeDegrees>
              <LongitudeDegrees>-4.37197261489927768707275390625</LongitudeDegrees>
            </Position>
            <AltitudeMeters>671.5999755859375</AltitudeMeters>
            <DistanceMeters>NAN</DistanceMeters>
          </Trackpoint>
          <Trackpoint>
            <Time>2020-12-05T12:15:25.000Z</Time>
            <Position>
              <LatitudeDegrees>36.8329994380474090576171875</LatitudeDegrees>
              <LongitudeDegrees>-4.3719861097633838653564453125</LongitudeDegrees>
            </Position>
            <AltitudeMeters>671.5999755859375</AltitudeMeters>
            <DistanceMeters>NAN</DistanceMeters>
          </Trackpoint>
          <Trackpoint>
            <Time>2020-12-05T12:15:26.000Z</Time>
            <Position>
              <LatitudeDegrees>36.83300153352320194244384765625</LatitudeDegrees>
              <LongitudeDegrees>-4.371999688446521759033203125</LongitudeDegrees>
            </Position>
            <AltitudeMeters>671.5999755859375</AltitudeMeters>
            <DistanceMeters>NAN</DistanceMeters>
          </Trackpoint>
          <Trackpoint>
            <Time>2020-12-05T12:15:27.000Z</Time>
            <Position>
              <LatitudeDegrees>36.833003461360931396484375</LatitudeDegrees>
              <LongitudeDegrees>-4.37201469205319881439208984375</LongitudeDegrees>
            </Position>
            <AltitudeMeters>671.5999755859375</AltitudeMeters>
            <DistanceMeters>NAN</DistanceMeters>
          </Trackpoint>
          <Trackpoint>
            <Time>2020-12-05T12:15:28.000Z</Time>
            <Position>
              <LatitudeDegrees>36.83300304226577281951904296875</LatitudeDegrees>
              <LongitudeDegrees>-4.37203078530728816986083984375</LongitudeDegrees>
            </Position>
            <AltitudeMeters>671.5999755859375</AltitudeMeters>
            <DistanceMeters>NAN</DistanceMeters>
          </Trackpoint>
          <Trackpoint>
            <Time>2020-12-05T12:15:29.000Z</Time>
            <Position>
              <LatitudeDegrees>36.8329999409615993499755859375</LatitudeDegrees>
              <LongitudeDegrees>-4.3720503151416778564453125</LongitudeDegrees>
            </Position>
            <AltitudeMeters>671.5999755859375</AltitudeMeters>
            <DistanceMeters>NAN</DistanceMeters>
          </Trackpoint>
          <Trackpoint>
            <Time>2020-12-05T12:15:30.000Z</Time>
            <Position>
              <LatitudeDegrees>36.8329979293048381805419921875</LatitudeDegrees>
              <LongitudeDegrees>-4.37206783331930637359619140625</LongitudeDegrees>
            </Position>
            <AltitudeMeters>671.5999755859375</AltitudeMeters>
            <DistanceMeters>NAN</DistanceMeters>
          </Trackpoint>
          <Trackpoint>
            <Time>2020-12-05T12:15:31.000Z</Time>
            <Position>
              <LatitudeDegrees>36.83299533091485500335693359375</LatitudeDegrees>
              <LongitudeDegrees>-4.372088871896266937255859375</LongitudeDegrees>
            </Position>
            <AltitudeMeters>671.5999755859375</AltitudeMeters>
            <DistanceMeters>NAN</DistanceMeters>
          </Trackpoint>
          <Trackpoint>
            <Time>2020-12-05T12:15:32.000Z</Time>
            <Position>
              <LatitudeDegrees>36.83299583382904529571533203125</LatitudeDegrees>
              <LongitudeDegrees>-4.37210689298808574676513671875</LongitudeDegrees>
            </Position>
            <AltitudeMeters>671.5999755859375</AltitudeMeters>
            <DistanceMeters>NAN</DistanceMeters>
          </Trackpoint>
          <Trackpoint>
            <Time>2020-12-05T12:15:33.000Z</Time>
            <Position>
              <LatitudeDegrees>36.8329945765435695648193359375</LatitudeDegrees>
              <LongitudeDegrees>-4.37212348915636539459228515625</LongitudeDegrees>
            </Position>
            <AltitudeMeters>671.5999755859375</AltitudeMeters>
            <DistanceMeters>NAN</DistanceMeters>
          </Trackpoint>
          <Trackpoint>
            <Time>2020-12-05T12:15:34.000Z</Time>
            <Position>
              <LatitudeDegrees>36.832988373935222625732421875</LatitudeDegrees>
              <LongitudeDegrees>-4.3721400015056133270263671875</LongitudeDegrees>
            </Position>
            <AltitudeMeters>671.5999755859375</AltitudeMeters>
            <DistanceMeters>NAN</DistanceMeters>
          </Trackpoint>
          <Trackpoint>
            <Time>2020-12-05T12:15:35.000Z</Time>
            <Position>
              <LatitudeDegrees>36.832983680069446563720703125</LatitudeDegrees>
              <LongitudeDegrees>-4.3721560947597026824951171875</LongitudeDegrees>
            </Position>
            <AltitudeMeters>671.5999755859375</AltitudeMeters>
            <DistanceMeters>NAN</DistanceMeters>
          </Trackpoint>
          <Trackpoint>
            <Time>2020-12-05T12:15:36.000Z</Time>
            <Position>
              <LatitudeDegrees>36.83298041112720966339111328125</LatitudeDegrees>
              <LongitudeDegrees>-4.3721698410809040069580078125</LongitudeDegrees>
            </Position>
            <AltitudeMeters>671.5999755859375</AltitudeMeters>
            <DistanceMeters>NAN</DistanceMeters>
          </Trackpoint>
          <Trackpoint>
            <Time>2020-12-05T12:15:37.000Z</Time>
            <Position>
              <LatitudeDegrees>36.83297839947044849395751953125</LatitudeDegrees>
              <LongitudeDegrees>-4.3721879459917545318603515625</LongitudeDegrees>
            </Position>
            <AltitudeMeters>671.5999755859375</AltitudeMeters>
            <DistanceMeters>NAN</DistanceMeters>
          </Trackpoint>
          <Trackpoint>
            <Time>2020-12-05T12:15:38.000Z</Time>
            <Position>
              <LatitudeDegrees>36.83297772891819477081298828125</LatitudeDegrees>
              <LongitudeDegrees>-4.37220395542681217193603515625</LongitudeDegrees>
            </Position>
            <AltitudeMeters>671.5999755859375</AltitudeMeters>
            <DistanceMeters>NAN</DistanceMeters>
          </Trackpoint>
          <Trackpoint>
            <Time>2020-12-05T12:15:39.000Z</Time>
            <Position>
              <LatitudeDegrees>36.832976303994655609130859375</LatitudeDegrees>
              <LongitudeDegrees>-4.37221770174801349639892578125</LongitudeDegrees>
            </Position>
            <AltitudeMeters>671.5999755859375</AltitudeMeters>
            <DistanceMeters>NAN</DistanceMeters>
          </Trackpoint>
          <Trackpoint>
            <Time>2020-12-05T12:15:40.000Z</Time>
            <Position>
              <LatitudeDegrees>36.83297638781368732452392578125</LatitudeDegrees>
              <LongitudeDegrees>-4.37222776003181934356689453125</LongitudeDegrees>
            </Position>
            <AltitudeMeters>671.5999755859375</AltitudeMeters>
            <DistanceMeters>NAN</DistanceMeters>
          </Trackpoint>
          <Trackpoint>
            <Time>2020-12-05T12:15:41.000Z</Time>
            <Position>
              <LatitudeDegrees>36.8329761363565921783447265625</LatitudeDegrees>
              <LongitudeDegrees>-4.37223664484918117523193359375</LongitudeDegrees>
            </Position>
            <AltitudeMeters>671.5999755859375</AltitudeMeters>
            <DistanceMeters>NAN</DistanceMeters>
          </Trackpoint>
          <Trackpoint>
            <Time>2020-12-05T12:15:42.000Z</Time>
            <Position>
              <LatitudeDegrees>36.83297538198530673980712890625</LatitudeDegrees>
              <LongitudeDegrees>-4.3722446076571941375732421875</LongitudeDegrees>
            </Position>
            <AltitudeMeters>671.5999755859375</AltitudeMeters>
            <DistanceMeters>NAN</DistanceMeters>
          </Trackpoint>
          <Trackpoint>
            <Time>2020-12-05T12:15:43.000Z</Time>
            <Position>
              <LatitudeDegrees>36.83297622017562389373779296875</LatitudeDegrees>
              <LongitudeDegrees>-4.37225273810327053070068359375</LongitudeDegrees>
            </Position>
            <AltitudeMeters>671.5999755859375</AltitudeMeters>
            <DistanceMeters>NAN</DistanceMeters>
          </Trackpoint>
          <Trackpoint>
            <Time>2020-12-05T12:15:44.000Z</Time>
            <Position>
              <LatitudeDegrees>36.83297521434724330902099609375</LatitudeDegrees>
              <LongitudeDegrees>-4.3722610361874103546142578125</LongitudeDegrees>
            </Position>
            <AltitudeMeters>671.5999755859375</AltitudeMeters>
            <DistanceMeters>NAN</DistanceMeters>
          </Trackpoint>
          <Trackpoint>
            <Time>2020-12-05T12:15:45.000Z</Time>
            <Position>
              <LatitudeDegrees>36.8329734541475772857666015625</LatitudeDegrees>
              <LongitudeDegrees>-4.3722710944712162017822265625</LongitudeDegrees>
            </Position>
            <AltitudeMeters>671.5999755859375</AltitudeMeters>
            <DistanceMeters>NAN</DistanceMeters>
          </Trackpoint>
          <Trackpoint>
            <Time>2020-12-05T12:15:46.000Z</Time>
            <Position>
              <LatitudeDegrees>36.83296884410083293914794921875</LatitudeDegrees>
              <LongitudeDegrees>-4.3722845055162906646728515625</LongitudeDegrees>
            </Position>
            <AltitudeMeters>671.5999755859375</AltitudeMeters>
            <DistanceMeters>NAN</DistanceMeters>
          </Trackpoint>
          <Trackpoint>
            <Time>2020-12-05T12:15:47.000Z</Time>
            <Position>
              <LatitudeDegrees>36.83295853435993194580078125</LatitudeDegrees>
              <LongitudeDegrees>-4.37230579555034637451171875</LongitudeDegrees>
            </Position>
            <AltitudeMeters>671.5999755859375</AltitudeMeters>
            <DistanceMeters>NAN</DistanceMeters>
          </Trackpoint>
          <Trackpoint>
            <Time>2020-12-05T12:15:48.000Z</Time>
            <Position>
              <LatitudeDegrees>36.83294688351452350616455078125</LatitudeDegrees>
              <LongitudeDegrees>-4.37232733704149723052978515625</LongitudeDegrees>
            </Position>
            <AltitudeMeters>671.5999755859375</AltitudeMeters>
            <DistanceMeters>NAN</DistanceMeters>
          </Trackpoint>
          <Trackpoint>
            <Time>2020-12-05T12:15:49.000Z</Time>
            <Position>
              <LatitudeDegrees>36.8329350650310516357421875</LatitudeDegrees>
              <LongitudeDegrees>-4.37234460376203060150146484375</LongitudeDegrees>
            </Position>
            <AltitudeMeters>671.5999755859375</AltitudeMeters>
            <DistanceMeters>NAN</DistanceMeters>
          </Trackpoint>
          <Trackpoint>
            <Time>2020-12-05T12:15:50.000Z</Time>
            <Position>
              <LatitudeDegrees>36.83292492292821407318115234375</LatitudeDegrees>
              <LongitudeDegrees>-4.37235784716904163360595703125</LongitudeDegrees>
            </Position>
            <AltitudeMeters>671.5999755859375</AltitudeMeters>
            <DistanceMeters>NAN</DistanceMeters>
          </Trackpoint>
          <Trackpoint>
            <Time>2020-12-05T12:15:51.000Z</Time>
            <Position>
              <LatitudeDegrees>36.8329157866537570953369140625</LatitudeDegrees>
              <LongitudeDegrees>-4.3723683245480060577392578125</LongitudeDegrees>
            </Position>
            <AltitudeMeters>671.5999755859375</AltitudeMeters>
            <DistanceMeters>NAN</DistanceMeters>
          </Trackpoint>
          <Trackpoint>
            <Time>2020-12-05T12:15:52.000Z</Time>
            <Position>
              <LatitudeDegrees>36.8329050578176975250244140625</LatitudeDegrees>
              <LongitudeDegrees>-4.3723790533840656280517578125</LongitudeDegrees>
            </Position>
            <AltitudeMeters>671.5999755859375</AltitudeMeters>
            <DistanceMeters>NAN</DistanceMeters>
          </Trackpoint>
          <Trackpoint>
            <Time>2020-12-05T12:15:53.000Z</Time>
            <Position>
              <LatitudeDegrees>36.83289625681936740875244140625</LatitudeDegrees>
              <LongitudeDegrees>-4.3723921291530132293701171875</LongitudeDegrees>
            </Position>
            <AltitudeMeters>671.5999755859375</AltitudeMeters>
            <DistanceMeters>NAN</DistanceMeters>
          </Trackpoint>
          <Trackpoint>
            <Time>2020-12-05T12:15:54.000Z</Time>
            <Position>
              <LatitudeDegrees>36.8328879587352275848388671875</LatitudeDegrees>
              <LongitudeDegrees>-4.37240411527454853057861328125</LongitudeDegrees>
            </Position>
            <AltitudeMeters>671.5999755859375</AltitudeMeters>
            <DistanceMeters>NAN</DistanceMeters>
          </Trackpoint>
          <Trackpoint>
            <Time>2020-12-05T12:15:55.000Z</Time>
            <Position>
              <LatitudeDegrees>36.8328802473843097686767578125</LatitudeDegrees>
              <LongitudeDegrees>-4.3724162690341472625732421875</LongitudeDegrees>
            </Position>
            <AltitudeMeters>671.5999755859375</AltitudeMeters>
            <DistanceMeters>NAN</DistanceMeters>
          </Trackpoint>
          <Trackpoint>
            <Time>2020-12-05T12:15:56.000Z</Time>
            <Position>
              <LatitudeDegrees>36.83287245221436023712158203125</LatitudeDegrees>
              <LongitudeDegrees>-4.3724290095269680023193359375</LongitudeDegrees>
            </Position>
            <AltitudeMeters>671.5999755859375</AltitudeMeters>
            <DistanceMeters>NAN</DistanceMeters>
          </Trackpoint>
          <Trackpoint>
            <Time>2020-12-05T12:15:57.000Z</Time>
            <Position>
              <LatitudeDegrees>36.83286490850150585174560546875</LatitudeDegrees>
              <LongitudeDegrees>-4.37244736589491367340087890625</LongitudeDegrees>
            </Position>
            <AltitudeMeters>671.5999755859375</AltitudeMeters>
            <DistanceMeters>NAN</DistanceMeters>
          </Trackpoint>
          <Trackpoint>
            <Time>2020-12-05T12:15:58.000Z</Time>
            <Position>
              <LatitudeDegrees>36.8328557722270488739013671875</LatitudeDegrees>
              <LongitudeDegrees>-4.37245993874967098236083984375</LongitudeDegrees>
            </Position>
            <AltitudeMeters>671.5999755859375</AltitudeMeters>
            <DistanceMeters>NAN</DistanceMeters>
          </Trackpoint>
          <Trackpoint>
            <Time>2020-12-05T12:15:59.000Z</Time>
            <Position>
              <LatitudeDegrees>36.83284596540033817291259765625</LatitudeDegrees>
              <LongitudeDegrees>-4.37247200869023799896240234375</LongitudeDegrees>
            </Position>
            <AltitudeMeters>671.5999755859375</AltitudeMeters>
            <DistanceMeters>NAN</DistanceMeters>
          </Trackpoint>
          <Trackpoint>
            <Time>2020-12-05T12:16:00.000Z</Time>
            <Position>
              <LatitudeDegrees>36.8328376673161983489990234375</LatitudeDegrees>
              <LongitudeDegrees>-4.37248273752629756927490234375</LongitudeDegrees>
            </Position>
            <AltitudeMeters>667.79998779296875</AltitudeMeters>
            <DistanceMeters>NAN</DistanceMeters>
          </Trackpoint>
          <Trackpoint>
            <Time>2020-12-05T12:16:01.000Z</Time>
            <Position>
              <LatitudeDegrees>36.83282970450818538665771484375</LatitudeDegrees>
              <LongitudeDegrees>-4.37249480746686458587646484375</LongitudeDegrees>
            </Position>
            <AltitudeMeters>667.79998779296875</AltitudeMeters>
            <DistanceMeters>NAN</DistanceMeters>
          </Trackpoint>
          <Trackpoint>
            <Time>2020-12-05T12:16:02.000Z</Time>
            <Position>
              <LatitudeDegrees>36.8328242562711238861083984375</LatitudeDegrees>
              <LongitudeDegrees>-4.37250469811260700225830078125</LongitudeDegrees>
            </Position>
            <AltitudeMeters>667.79998779296875</AltitudeMeters>
            <DistanceMeters>NAN</DistanceMeters>
          </Trackpoint>
          <Trackpoint>
            <Time>2020-12-05T12:16:03.000Z</Time>
            <Position>
              <LatitudeDegrees>36.83282065205276012420654296875</LatitudeDegrees>
              <LongitudeDegrees>-4.3725138343870639801025390625</LongitudeDegrees>
            </Position>
            <AltitudeMeters>667.79998779296875</AltitudeMeters>
            <DistanceMeters>NAN</DistanceMeters>
          </Trackpoint>
          <Trackpoint>
            <Time>2020-12-05T12:16:04.000Z</Time>
            <Position>
              <LatitudeDegrees>36.832818053662776947021484375</LatitudeDegrees>
              <LongitudeDegrees>-4.37252531759440898895263671875</LongitudeDegrees>
            </Position>
            <AltitudeMeters>667.79998779296875</AltitudeMeters>
            <DistanceMeters>NAN</DistanceMeters>
          </Trackpoint>
          <Trackpoint>
            <Time>2020-12-05T12:16:05.000Z</Time>
            <Position>
              <LatitudeDegrees>36.8328143656253814697265625</LatitudeDegrees>
              <LongitudeDegrees>-4.37253923155367374420166015625</LongitudeDegrees>
            </Position>
            <AltitudeMeters>667.79998779296875</AltitudeMeters>
            <DistanceMeters>NAN</DistanceMeters>
          </Trackpoint>
          <Trackpoint>
            <Time>2020-12-05T12:16:06.000Z</Time>
            <Position>
              <LatitudeDegrees>36.83280858211219310760498046875</LatitudeDegrees>
              <LongitudeDegrees>-4.372552223503589630126953125</LongitudeDegrees>
            </Position>
            <AltitudeMeters>667.79998779296875</AltitudeMeters>
            <DistanceMeters>NAN</DistanceMeters>
          </Trackpoint>
          <Trackpoint>
            <Time>2020-12-05T12:16:07.000Z</Time>
            <Position>
              <LatitudeDegrees>36.8328001163899898529052734375</LatitudeDegrees>
              <LongitudeDegrees>-4.372564293444156646728515625</LongitudeDegrees>
            </Position>
            <AltitudeMeters>667.79998779296875</AltitudeMeters>
            <DistanceMeters>NAN</DistanceMeters>
          </Trackpoint>
          <Trackpoint>
            <Time>2020-12-05T12:16:08.000Z</Time>
            <Position>
              <LatitudeDegrees>36.8327924050390720367431640625</LatitudeDegrees>
              <LongitudeDegrees>-4.37257678247988224029541015625</LongitudeDegrees>
            </Position>
            <AltitudeMeters>667.79998779296875</AltitudeMeters>
            <DistanceMeters>NAN</DistanceMeters>
          </Trackpoint>
          <Trackpoint>
            <Time>2020-12-05T12:16:09.000Z</Time>
            <Position>
              <LatitudeDegrees>36.832787878811359405517578125</LatitudeDegrees>
              <LongitudeDegrees>-4.3725907802581787109375</LongitudeDegrees>
            </Position>
            <AltitudeMeters>667.79998779296875</AltitudeMeters>
            <DistanceMeters>NAN</DistanceMeters>
          </Trackpoint>
          <Trackpoint>
            <Time>2020-12-05T12:16:10.000Z</Time>
            <Position>
              <LatitudeDegrees>36.8327846936881542205810546875</LatitudeDegrees>
              <LongitudeDegrees>-4.37260846607387065887451171875</LongitudeDegrees>
            </Position>
            <AltitudeMeters>667.79998779296875</AltitudeMeters>
            <DistanceMeters>NAN</DistanceMeters>
          </Trackpoint>
          <Trackpoint>
            <Time>2020-12-05T12:16:11.000Z</Time>
            <Position>
              <LatitudeDegrees>36.83278008364140987396240234375</LatitudeDegrees>
              <LongitudeDegrees>-4.372632689774036407470703125</LongitudeDegrees>
            </Position>
            <AltitudeMeters>667.79998779296875</AltitudeMeters>
            <DistanceMeters>NAN</DistanceMeters>
          </Trackpoint>
          <Trackpoint>
            <Time>2020-12-05T12:16:12.000Z</Time>
            <Position>
              <LatitudeDegrees>36.8327732942998409271240234375</LatitudeDegrees>
              <LongitudeDegrees>-4.372652471065521240234375</LongitudeDegrees>
            </Position>
            <AltitudeMeters>667.79998779296875</AltitudeMeters>
            <DistanceMeters>NAN</DistanceMeters>
          </Trackpoint>
          <Trackpoint>
            <Time>2020-12-05T12:16:13.000Z</Time>
            <Position>
              <LatitudeDegrees>36.83276541531085968017578125</LatitudeDegrees>
              <LongitudeDegrees>-4.372670240700244903564453125</LongitudeDegrees>
            </Position>
            <AltitudeMeters>667.79998779296875</AltitudeMeters>
            <DistanceMeters>NAN</DistanceMeters>
          </Trackpoint>
          <Trackpoint>
            <Time>2020-12-05T12:16:14.000Z</Time>
            <Position>
              <LatitudeDegrees>36.832756362855434417724609375</LatitudeDegrees>
              <LongitudeDegrees>-4.372687004506587982177734375</LongitudeDegrees>
            </Position>
            <AltitudeMeters>667.79998779296875</AltitudeMeters>
            <DistanceMeters>NAN</DistanceMeters>
          </Trackpoint>
          <Trackpoint>
            <Time>2020-12-05T12:16:15.000Z</Time>
            <Position>
              <LatitudeDegrees>36.83274663984775543212890625</LatitudeDegrees>
              <LongitudeDegrees>-4.372703097760677337646484375</LongitudeDegrees>
            </Position>
            <AltitudeMeters>667.79998779296875</AltitudeMeters>
            <DistanceMeters>NAN</DistanceMeters>
          </Trackpoint>
          <Trackpoint>
            <Time>2020-12-05T12:16:16.000Z</Time>
            <Position>
              <LatitudeDegrees>36.83273716829717159271240234375</LatitudeDegrees>
              <LongitudeDegrees>-4.3727183528244495391845703125</LongitudeDegrees>
            </Position>
            <AltitudeMeters>667.79998779296875</AltitudeMeters>
            <DistanceMeters>NAN</DistanceMeters>
          </Trackpoint>
          <Trackpoint>
            <Time>2020-12-05T12:16:17.000Z</Time>
            <Position>
              <LatitudeDegrees>36.83272643946111202239990234375</LatitudeDegrees>
              <LongitudeDegrees>-4.372733272612094879150390625</LongitudeDegrees>
            </Position>
            <AltitudeMeters>667.79998779296875</AltitudeMeters>
            <DistanceMeters>NAN</DistanceMeters>
          </Trackpoint>
          <Trackpoint>
            <Time>2020-12-05T12:16:18.000Z</Time>
            <Position>
              <LatitudeDegrees>36.83271604590117931365966796875</LatitudeDegrees>
              <LongitudeDegrees>-4.372748024761676788330078125</LongitudeDegrees>
            </Position>
            <AltitudeMeters>667.79998779296875</AltitudeMeters>
            <DistanceMeters>NAN</DistanceMeters>
          </Trackpoint>
          <Trackpoint>
            <Time>2020-12-05T12:16:19.000Z</Time>
            <Position>
              <LatitudeDegrees>36.83270799927413463592529296875</LatitudeDegrees>
              <LongitudeDegrees>-4.3727602623403072357177734375</LongitudeDegrees>
            </Position>
            <AltitudeMeters>667.79998779296875</AltitudeMeters>
            <DistanceMeters>NAN</DistanceMeters>
          </Trackpoint>
          <Trackpoint>
            <Time>2020-12-05T12:16:20.000Z</Time>
            <Position>
              <LatitudeDegrees>36.83269961737096309661865234375</LatitudeDegrees>
              <LongitudeDegrees>-4.37277174554765224456787109375</LongitudeDegrees>
            </Position>
            <AltitudeMeters>667.79998779296875</AltitudeMeters>
            <DistanceMeters>NAN</DistanceMeters>
          </Trackpoint>
          <Trackpoint>
            <Time>2020-12-05T12:16:21.000Z</Time>
            <Position>
              <LatitudeDegrees>36.832694001495838165283203125</LatitudeDegrees>
              <LongitudeDegrees>-4.3727790378034114837646484375</LongitudeDegrees>
            </Position>
            <AltitudeMeters>667.79998779296875</AltitudeMeters>
            <DistanceMeters>NAN</DistanceMeters>
          </Trackpoint>
          <Trackpoint>
            <Time>2020-12-05T12:16:22.000Z</Time>
            <Position>
              <LatitudeDegrees>36.8326901458203792572021484375</LatitudeDegrees>
              <LongitudeDegrees>-4.3727870844304561614990234375</LongitudeDegrees>
            </Position>
            <AltitudeMeters>667.79998779296875</AltitudeMeters>
            <DistanceMeters>NAN</DistanceMeters>
          </Trackpoint>
          <Trackpoint>
            <Time>2020-12-05T12:16:23.000Z</Time>
            <Position>
              <LatitudeDegrees>36.83268972672522068023681640625</LatitudeDegrees>
              <LongitudeDegrees>-4.37279705889523029327392578125</LongitudeDegrees>
            </Position>
            <AltitudeMeters>667.79998779296875</AltitudeMeters>
            <DistanceMeters>NAN</DistanceMeters>
          </Trackpoint>
          <Trackpoint>
            <Time>2020-12-05T12:16:24.000Z</Time>
            <Position>
              <LatitudeDegrees>36.83268788270652294158935546875</LatitudeDegrees>
              <LongitudeDegrees>-4.3728041835129261016845703125</LongitudeDegrees>
            </Position>
            <AltitudeMeters>667.79998779296875</AltitudeMeters>
            <DistanceMeters>NAN</DistanceMeters>
          </Trackpoint>
          <Trackpoint>
            <Time>2020-12-05T12:16:25.000Z</Time>
            <Position>
              <LatitudeDegrees>36.83268151246011257171630859375</LatitudeDegrees>
              <LongitudeDegrees>-4.37281675636768341064453125</LongitudeDegrees>
            </Position>
            <AltitudeMeters>667.79998779296875</AltitudeMeters>
            <DistanceMeters>NAN</DistanceMeters>
          </Trackpoint>
          <Trackpoint>
            <Time>2020-12-05T12:16:26.000Z</Time>
            <Position>
              <LatitudeDegrees>36.832675226032733917236328125</LatitudeDegrees>
              <LongitudeDegrees>-4.37282421626150608062744140625</LongitudeDegrees>
            </Position>
            <AltitudeMeters>667.79998779296875</AltitudeMeters>
            <DistanceMeters>NAN</DistanceMeters>
          </Trackpoint>
          <Trackpoint>
            <Time>2020-12-05T12:16:27.000Z</Time>
            <Position>
              <LatitudeDegrees>36.83266810141503810882568359375</LatitudeDegrees>
              <LongitudeDegrees>-4.3728370405733585357666015625</LongitudeDegrees>
            </Position>
            <AltitudeMeters>667.79998779296875</AltitudeMeters>
            <DistanceMeters>NAN</DistanceMeters>
          </Trackpoint>
          <Trackpoint>
            <Time>2020-12-05T12:16:28.000Z</Time>
            <Position>
              <LatitudeDegrees>36.83265988714993000030517578125</LatitudeDegrees>
              <LongitudeDegrees>-4.372845925390720367431640625</LongitudeDegrees>
            </Position>
            <AltitudeMeters>667.79998779296875</AltitudeMeters>
            <DistanceMeters>NAN</DistanceMeters>
          </Trackpoint>
          <Trackpoint>
            <Time>2020-12-05T12:16:29.000Z</Time>
            <Position>
              <LatitudeDegrees>36.83265184052288532257080078125</LatitudeDegrees>
              <LongitudeDegrees>-4.37285539694130420684814453125</LongitudeDegrees>
            </Position>
            <AltitudeMeters>667.79998779296875</AltitudeMeters>
            <DistanceMeters>NAN</DistanceMeters>
          </Trackpoint>
          <Trackpoint>
            <Time>2020-12-05T12:16:30.000Z</Time>
            <Position>
              <LatitudeDegrees>36.83264563791453838348388671875</LatitudeDegrees>
              <LongitudeDegrees>-4.372864700853824615478515625</LongitudeDegrees>
            </Position>
            <AltitudeMeters>667.79998779296875</AltitudeMeters>
            <DistanceMeters>NAN</DistanceMeters>
          </Trackpoint>
          <Trackpoint>
            <Time>2020-12-05T12:16:31.000Z</Time>
            <Position>
              <LatitudeDegrees>36.83264069259166717529296875</LatitudeDegrees>
              <LongitudeDegrees>-4.37287417240440845489501953125</LongitudeDegrees>
            </Position>
            <AltitudeMeters>667.79998779296875</AltitudeMeters>
            <DistanceMeters>NAN</DistanceMeters>
          </Trackpoint>
          <Trackpoint>
            <Time>2020-12-05T12:16:32.000Z</Time>
            <Position>
              <LatitudeDegrees>36.83263524435460567474365234375</LatitudeDegrees>
              <LongitudeDegrees>-4.372886829078197479248046875</LongitudeDegrees>
            </Position>
            <AltitudeMeters>667.79998779296875</AltitudeMeters>
            <DistanceMeters>NAN</DistanceMeters>
          </Trackpoint>
          <Trackpoint>
            <Time>2020-12-05T12:16:33.000Z</Time>
            <Position>
              <LatitudeDegrees>36.83263038285076618194580078125</LatitudeDegrees>
              <LongitudeDegrees>-4.37289864756166934967041015625</LongitudeDegrees>
            </Position>
            <AltitudeMeters>667.79998779296875</AltitudeMeters>
            <DistanceMeters>NAN</DistanceMeters>
          </Trackpoint>
          <Trackpoint>
            <Time>2020-12-05T12:16:34.000Z</Time>
            <Position>
              <LatitudeDegrees>36.83262619189918041229248046875</LatitudeDegrees>
              <LongitudeDegrees>-4.3729101307690143585205078125</LongitudeDegrees>
            </Position>
            <AltitudeMeters>667.79998779296875</AltitudeMeters>
            <DistanceMeters>NAN</DistanceMeters>
          </Trackpoint>
          <Trackpoint>
            <Time>2020-12-05T12:16:35.000Z</Time>
            <Position>
              <LatitudeDegrees>36.83262300677597522735595703125</LatitudeDegrees>
              <LongitudeDegrees>-4.372919015586376190185546875</LongitudeDegrees>
            </Position>
            <AltitudeMeters>667.79998779296875</AltitudeMeters>
            <DistanceMeters>NAN</DistanceMeters>
          </Trackpoint>
          <Trackpoint>
            <Time>2020-12-05T12:16:36.000Z</Time>
            <Position>
              <LatitudeDegrees>36.832618899643421173095703125</LatitudeDegrees>
              <LongitudeDegrees>-4.37292882241308689117431640625</LongitudeDegrees>
            </Position>
            <AltitudeMeters>667.79998779296875</AltitudeMeters>
            <DistanceMeters>NAN</DistanceMeters>
          </Trackpoint>
          <Trackpoint>
            <Time>2020-12-05T12:16:37.000Z</Time>
            <Position>
              <LatitudeDegrees>36.832612864673137664794921875</LatitudeDegrees>
              <LongitudeDegrees>-4.37293770723044872283935546875</LongitudeDegrees>
            </Position>
            <AltitudeMeters>667.79998779296875</AltitudeMeters>
            <DistanceMeters>NAN</DistanceMeters>
          </Trackpoint>
          <Trackpoint>
            <Time>2020-12-05T12:16:38.000Z</Time>
            <Position>
              <LatitudeDegrees>36.83260456658899784088134765625</LatitudeDegrees>
              <LongitudeDegrees>-4.37294684350490570068359375</LongitudeDegrees>
            </Position>
            <AltitudeMeters>667.79998779296875</AltitudeMeters>
            <DistanceMeters>NAN</DistanceMeters>
          </Trackpoint>
          <Trackpoint>
            <Time>2020-12-05T12:16:39.000Z</Time>
            <Position>
              <LatitudeDegrees>36.83259065262973308563232421875</LatitudeDegrees>
              <LongitudeDegrees>-4.37296067364513874053955078125</LongitudeDegrees>
            </Position>
            <AltitudeMeters>667.79998779296875</AltitudeMeters>
            <DistanceMeters>NAN</DistanceMeters>
          </Trackpoint>
          <Trackpoint>
            <Time>2020-12-05T12:16:40.000Z</Time>
            <Position>
              <LatitudeDegrees>36.8325821869075298309326171875</LatitudeDegrees>
              <LongitudeDegrees>-4.37297307886183261871337890625</LongitudeDegrees>
            </Position>
            <AltitudeMeters>667.79998779296875</AltitudeMeters>
            <DistanceMeters>NAN</DistanceMeters>
          </Trackpoint>
          <Trackpoint>
            <Time>2020-12-05T12:16:41.000Z</Time>
            <Position>
              <LatitudeDegrees>36.83257573284208774566650390625</LatitudeDegrees>
              <LongitudeDegrees>-4.372985064983367919921875</LongitudeDegrees>
            </Position>
            <AltitudeMeters>667.79998779296875</AltitudeMeters>
            <DistanceMeters>NAN</DistanceMeters>
          </Trackpoint>
          <Trackpoint>
            <Time>2020-12-05T12:16:42.000Z</Time>
            <Position>
              <LatitudeDegrees>36.83257154189050197601318359375</LatitudeDegrees>
              <LongitudeDegrees>-4.37299520708620548248291015625</LongitudeDegrees>
            </Position>
            <AltitudeMeters>667.79998779296875</AltitudeMeters>
            <DistanceMeters>NAN</DistanceMeters>
          </Trackpoint>
          <Trackpoint>
            <Time>2020-12-05T12:16:43.000Z</Time>
            <Position>
              <LatitudeDegrees>36.8325654231011867523193359375</LatitudeDegrees>
              <LongitudeDegrees>-4.37300828285515308380126953125</LongitudeDegrees>
            </Position>
            <AltitudeMeters>667.79998779296875</AltitudeMeters>
            <DistanceMeters>NAN</DistanceMeters>
          </Trackpoint>
          <Trackpoint>
            <Time>2020-12-05T12:16:44.000Z</Time>
            <Position>
              <LatitudeDegrees>36.832561232149600982666015625</LatitudeDegrees>
              <LongitudeDegrees>-4.3730264715850353240966796875</LongitudeDegrees>
            </Position>
            <AltitudeMeters>667.79998779296875</AltitudeMeters>
            <DistanceMeters>NAN</DistanceMeters>
          </Trackpoint>
          <Trackpoint>
            <Time>2020-12-05T12:16:45.000Z</Time>
            <Position>
              <LatitudeDegrees>36.8325577117502689361572265625</LatitudeDegrees>
              <LongitudeDegrees>-4.3730452470481395721435546875</LongitudeDegrees>
            </Position>
            <AltitudeMeters>667.79998779296875</AltitudeMeters>
            <DistanceMeters>NAN</DistanceMeters>
          </Trackpoint>
          <Trackpoint>
            <Time>2020-12-05T12:16:46.000Z</Time>
            <Position>
              <LatitudeDegrees>36.8325513415038585662841796875</LatitudeDegrees>
              <LongitudeDegrees>-4.3730626814067363739013671875</LongitudeDegrees>
            </Position>
            <AltitudeMeters>667.79998779296875</AltitudeMeters>
            <DistanceMeters>NAN</DistanceMeters>
          </Trackpoint>
          <Trackpoint>
            <Time>2020-12-05T12:16:47.000Z</Time>
            <Position>
              <LatitudeDegrees>36.832544803619384765625</LatitudeDegrees>
              <LongitudeDegrees>-4.3730797804892063140869140625</LongitudeDegrees>
            </Position>
            <AltitudeMeters>667.79998779296875</AltitudeMeters>
            <DistanceMeters>NAN</DistanceMeters>
          </Trackpoint>
          <Trackpoint>
            <Time>2020-12-05T12:16:48.000Z</Time>
            <Position>
              <LatitudeDegrees>36.83253700844943523406982421875</LatitudeDegrees>
              <LongitudeDegrees>-4.37309931032359600067138671875</LongitudeDegrees>
            </Position>
            <AltitudeMeters>667.79998779296875</AltitudeMeters>
            <DistanceMeters>NAN</DistanceMeters>
          </Trackpoint>
          <Trackpoint>
            <Time>2020-12-05T12:16:49.000Z</Time>
            <Position>
              <LatitudeDegrees>36.83252871036529541015625</LatitudeDegrees>
              <LongitudeDegrees>-4.3731193430721759796142578125</LongitudeDegrees>
            </Position>
            <AltitudeMeters>667.79998779296875</AltitudeMeters>
            <DistanceMeters>NAN</DistanceMeters>
          </Trackpoint>
          <Trackpoint>
            <Time>2020-12-05T12:16:50.000Z</Time>
            <Position>
              <LatitudeDegrees>36.8325198255479335784912109375</LatitudeDegrees>
              <LongitudeDegrees>-4.37314071692526340484619140625</LongitudeDegrees>
            </Position>
            <AltitudeMeters>667.79998779296875</AltitudeMeters>
            <DistanceMeters>NAN</DistanceMeters>
          </Trackpoint>
          <Trackpoint>
            <Time>2020-12-05T12:16:51.000Z</Time>
            <Position>
              <LatitudeDegrees>36.8325107730925083160400390625</LatitudeDegrees>
              <LongitudeDegrees>-4.37315865419805049896240234375</LongitudeDegrees>
            </Position>
            <AltitudeMeters>667.79998779296875</AltitudeMeters>
            <DistanceMeters>NAN</DistanceMeters>
          </Trackpoint>
          <Trackpoint>
            <Time>2020-12-05T12:16:52.000Z</Time>
            <Position>
              <LatitudeDegrees>36.83250247500836849212646484375</LatitudeDegrees>
              <LongitudeDegrees>-4.373181201517581939697265625</LongitudeDegrees>
            </Position>
            <AltitudeMeters>667.79998779296875</AltitudeMeters>
            <DistanceMeters>NAN</DistanceMeters>
          </Trackpoint>
          <Trackpoint>
            <Time>2020-12-05T12:16:53.000Z</Time>
            <Position>
              <LatitudeDegrees>36.8324950151145458221435546875</LatitudeDegrees>
              <LongitudeDegrees>-4.373197965323925018310546875</LongitudeDegrees>
            </Position>
            <AltitudeMeters>667.79998779296875</AltitudeMeters>
            <DistanceMeters>NAN</DistanceMeters>
          </Trackpoint>
          <Trackpoint>
            <Time>2020-12-05T12:16:54.000Z</Time>
            <Position>
              <LatitudeDegrees>36.83249124325811862945556640625</LatitudeDegrees>
              <LongitudeDegrees>-4.37321816571056842803955078125</LongitudeDegrees>
            </Position>
            <AltitudeMeters>667.79998779296875</AltitudeMeters>
            <DistanceMeters>NAN</DistanceMeters>
          </Trackpoint>
          <Trackpoint>
            <Time>2020-12-05T12:16:55.000Z</Time>
            <Position>
              <LatitudeDegrees>36.83248638175427913665771484375</LatitudeDegrees>
              <LongitudeDegrees>-4.373236857354640960693359375</LongitudeDegrees>
            </Position>
            <AltitudeMeters>667.79998779296875</AltitudeMeters>
            <DistanceMeters>NAN</DistanceMeters>
          </Trackpoint>
          <Trackpoint>
            <Time>2020-12-05T12:16:56.000Z</Time>
            <Position>
              <LatitudeDegrees>36.83248135261237621307373046875</LatitudeDegrees>
              <LongitudeDegrees>-4.3732547946274280548095703125</LongitudeDegrees>
            </Position>
            <AltitudeMeters>667.79998779296875</AltitudeMeters>
            <DistanceMeters>NAN</DistanceMeters>
          </Trackpoint>
          <Trackpoint>
            <Time>2020-12-05T12:16:57.000Z</Time>
            <Position>
              <LatitudeDegrees>36.8324772454798221588134765625</LatitudeDegrees>
              <LongitudeDegrees>-4.3732722289860248565673828125</LongitudeDegrees>
            </Position>
            <AltitudeMeters>667.79998779296875</AltitudeMeters>
            <DistanceMeters>NAN</DistanceMeters>
          </Trackpoint>
          <Trackpoint>
            <Time>2020-12-05T12:16:58.000Z</Time>
            <Position>
              <LatitudeDegrees>36.83247213251888751983642578125</LatitudeDegrees>
              <LongitudeDegrees>-4.373290501534938812255859375</LongitudeDegrees>
            </Position>
            <AltitudeMeters>667.79998779296875</AltitudeMeters>
            <DistanceMeters>NAN</DistanceMeters>
          </Trackpoint>
          <Trackpoint>
            <Time>2020-12-05T12:16:59.000Z</Time>
            <Position>
              <LatitudeDegrees>36.83246693573892116546630859375</LatitudeDegrees>
              <LongitudeDegrees>-4.37330760061740875244140625</LongitudeDegrees>
            </Position>
            <AltitudeMeters>667.79998779296875</AltitudeMeters>
            <DistanceMeters>NAN</DistanceMeters>
          </Trackpoint>
          <Trackpoint>
            <Time>2020-12-05T12:17:00.000Z</Time>
            <Position>
              <LatitudeDegrees>36.8324629962444305419921875</LatitudeDegrees>
              <LongitudeDegrees>-4.37332176603376865386962890625</LongitudeDegrees>
            </Position>
            <AltitudeMeters>665</AltitudeMeters>
            <DistanceMeters>NAN</DistanceMeters>
          </Trackpoint>
          <Trackpoint>
            <Time>2020-12-05T12:17:01.000Z</Time>
            <Position>
              <LatitudeDegrees>36.8324594758450984954833984375</LatitudeDegrees>
              <LongitudeDegrees>-4.373337440192699432373046875</LongitudeDegrees>
            </Position>
            <AltitudeMeters>665</AltitudeMeters>
            <DistanceMeters>NAN</DistanceMeters>
          </Trackpoint>
          <Trackpoint>
            <Time>2020-12-05T12:17:02.000Z</Time>
            <Position>
              <LatitudeDegrees>36.832457296550273895263671875</LatitudeDegrees>
              <LongitudeDegrees>-4.3733526952564716339111328125</LongitudeDegrees>
            </Position>
            <AltitudeMeters>665</AltitudeMeters>
            <DistanceMeters>NAN</DistanceMeters>
          </Trackpoint>
          <Trackpoint>
            <Time>2020-12-05T12:17:03.000Z</Time>
            <Position>
              <LatitudeDegrees>36.83245637454092502593994140625</LatitudeDegrees>
              <LongitudeDegrees>-4.37337038107216358184814453125</LongitudeDegrees>
            </Position>
            <AltitudeMeters>665</AltitudeMeters>
            <DistanceMeters>NAN</DistanceMeters>
          </Trackpoint>
          <Trackpoint>
            <Time>2020-12-05T12:17:04.000Z</Time>
            <Position>
              <LatitudeDegrees>36.83245503343641757965087890625</LatitudeDegrees>
              <LongitudeDegrees>-4.37339167110621929168701171875</LongitudeDegrees>
            </Position>
            <AltitudeMeters>665</AltitudeMeters>
            <DistanceMeters>NAN</DistanceMeters>
          </Trackpoint>
          <Trackpoint>
            <Time>2020-12-05T12:17:05.000Z</Time>
            <Position>
              <LatitudeDegrees>36.83245637454092502593994140625</LatitudeDegrees>
              <LongitudeDegrees>-4.3734110333025455474853515625</LongitudeDegrees>
            </Position>
            <AltitudeMeters>665</AltitudeMeters>
            <DistanceMeters>NAN</DistanceMeters>
          </Trackpoint>
          <Trackpoint>
            <Time>2020-12-05T12:17:06.000Z</Time>
            <Position>
              <LatitudeDegrees>36.83245587162673473358154296875</LatitudeDegrees>
              <LongitudeDegrees>-4.37342922203242778778076171875</LongitudeDegrees>
            </Position>
            <AltitudeMeters>665</AltitudeMeters>
            <DistanceMeters>NAN</DistanceMeters>
          </Trackpoint>
          <Trackpoint>
            <Time>2020-12-05T12:17:07.000Z</Time>
            <Position>
              <LatitudeDegrees>36.83245654217898845672607421875</LatitudeDegrees>
              <LongitudeDegrees>-4.37344732694327831268310546875</LongitudeDegrees>
            </Position>
            <AltitudeMeters>665</AltitudeMeters>
            <DistanceMeters>NAN</DistanceMeters>
          </Trackpoint>
          <Trackpoint>
            <Time>2020-12-05T12:17:08.000Z</Time>
            <Position>
              <LatitudeDegrees>36.83245562016963958740234375</LatitudeDegrees>
              <LongitudeDegrees>-4.37346844933927059173583984375</LongitudeDegrees>
            </Position>
            <AltitudeMeters>665</AltitudeMeters>
            <DistanceMeters>NAN</DistanceMeters>
          </Trackpoint>
          <Trackpoint>
            <Time>2020-12-05T12:17:09.000Z</Time>
            <Position>
              <LatitudeDegrees>36.83245427906513214111328125</LatitudeDegrees>
              <LongitudeDegrees>-4.37348873354494571685791015625</LongitudeDegrees>
            </Position>
            <AltitudeMeters>665</AltitudeMeters>
            <DistanceMeters>NAN</DistanceMeters>
          </Trackpoint>
          <Trackpoint>
            <Time>2020-12-05T12:17:10.000Z</Time>
            <Position>
              <LatitudeDegrees>36.8324531055986881256103515625</LatitudeDegrees>
              <LongitudeDegrees>-4.37350834719836711883544921875</LongitudeDegrees>
            </Position>
            <AltitudeMeters>665</AltitudeMeters>
            <DistanceMeters>NAN</DistanceMeters>
          </Trackpoint>
          <Trackpoint>
            <Time>2020-12-05T12:17:11.000Z</Time>
            <Position>
              <LatitudeDegrees>36.83245436288416385650634765625</LatitudeDegrees>
              <LongitudeDegrees>-4.3735270388424396514892578125</LongitudeDegrees>
            </Position>
            <AltitudeMeters>665</AltitudeMeters>
            <DistanceMeters>NAN</DistanceMeters>
          </Trackpoint>
          <Trackpoint>
            <Time>2020-12-05T12:17:12.000Z</Time>
            <Position>
              <LatitudeDegrees>36.8324564583599567413330078125</LatitudeDegrees>
              <LongitudeDegrees>-4.3735441379249095916748046875</LongitudeDegrees>
            </Position>
            <AltitudeMeters>665</AltitudeMeters>
            <DistanceMeters>NAN</DistanceMeters>
          </Trackpoint>
          <Trackpoint>
            <Time>2020-12-05T12:17:13.000Z</Time>
            <Position>
              <LatitudeDegrees>36.832460649311542510986328125</LatitudeDegrees>
              <LongitudeDegrees>-4.3735612370073795318603515625</LongitudeDegrees>
            </Position>
            <AltitudeMeters>665</AltitudeMeters>
            <DistanceMeters>NAN</DistanceMeters>
          </Trackpoint>
          <Trackpoint>
            <Time>2020-12-05T12:17:14.000Z</Time>
            <Position>
              <LatitudeDegrees>36.8324671871960163116455078125</LatitudeDegrees>
              <LongitudeDegrees>-4.3735764920711517333984375</LongitudeDegrees>
            </Position>
            <AltitudeMeters>665</AltitudeMeters>
            <DistanceMeters>NAN</DistanceMeters>
          </Trackpoint>
          <Trackpoint>
            <Time>2020-12-05T12:17:15.000Z</Time>
            <Position>
              <LatitudeDegrees>36.83247464708983898162841796875</LatitudeDegrees>
              <LongitudeDegrees>-4.37359149567782878875732421875</LongitudeDegrees>
            </Position>
            <AltitudeMeters>665</AltitudeMeters>
            <DistanceMeters>NAN</DistanceMeters>
          </Trackpoint>
          <Trackpoint>
            <Time>2020-12-05T12:17:16.000Z</Time>
            <Position>
              <LatitudeDegrees>36.8324792571365833282470703125</LatitudeDegrees>
              <LongitudeDegrees>-4.3736086785793304443359375</LongitudeDegrees>
            </Position>
            <AltitudeMeters>665</AltitudeMeters>
            <DistanceMeters>NAN</DistanceMeters>
          </Trackpoint>
          <Trackpoint>
            <Time>2020-12-05T12:17:17.000Z</Time>
            <Position>
              <LatitudeDegrees>36.8324842862784862518310546875</LatitudeDegrees>
              <LongitudeDegrees>-4.373625107109546661376953125</LongitudeDegrees>
            </Position>
            <AltitudeMeters>665</AltitudeMeters>
            <DistanceMeters>NAN</DistanceMeters>
          </Trackpoint>
          <Trackpoint>
            <Time>2020-12-05T12:17:18.000Z</Time>
            <Position>
              <LatitudeDegrees>36.8324876390397548675537109375</LatitudeDegrees>
              <LongitudeDegrees>-4.37364564277231693267822265625</LongitudeDegrees>
            </Position>
            <AltitudeMeters>665</AltitudeMeters>
            <DistanceMeters>NAN</DistanceMeters>
          </Trackpoint>
          <Trackpoint>
            <Time>2020-12-05T12:17:19.000Z</Time>
            <Position>
              <LatitudeDegrees>36.8324909918010234832763671875</LatitudeDegrees>
              <LongitudeDegrees>-4.37366676516830921173095703125</LongitudeDegrees>
            </Position>
            <AltitudeMeters>665</AltitudeMeters>
            <DistanceMeters>NAN</DistanceMeters>
          </Trackpoint>
          <Trackpoint>
            <Time>2020-12-05T12:17:20.000Z</Time>
            <Position>
              <LatitudeDegrees>36.8324978649616241455078125</LatitudeDegrees>
              <LongitudeDegrees>-4.37368671409785747528076171875</LongitudeDegrees>
            </Position>
            <AltitudeMeters>665</AltitudeMeters>
            <DistanceMeters>NAN</DistanceMeters>
          </Trackpoint>
          <Trackpoint>
            <Time>2020-12-05T12:17:21.000Z</Time>
            <Position>
              <LatitudeDegrees>36.832504905760288238525390625</LatitudeDegrees>
              <LongitudeDegrees>-4.37370498664677143096923828125</LongitudeDegrees>
            </Position>
            <AltitudeMeters>665</AltitudeMeters>
            <DistanceMeters>NAN</DistanceMeters>
          </Trackpoint>
          <Trackpoint>
            <Time>2020-12-05T12:17:22.000Z</Time>
            <Position>
              <LatitudeDegrees>36.8325112760066986083984375</LatitudeDegrees>
              <LongitudeDegrees>-4.37372141517698764801025390625</LongitudeDegrees>
            </Position>
            <AltitudeMeters>665</AltitudeMeters>
            <DistanceMeters>NAN</DistanceMeters>
          </Trackpoint>
          <Trackpoint>
            <Time>2020-12-05T12:17:23.000Z</Time>
            <Position>
              <LatitudeDegrees>36.83251865208148956298828125</LatitudeDegrees>
              <LongitudeDegrees>-4.3737365864217281341552734375</LongitudeDegrees>
            </Position>
            <AltitudeMeters>665</AltitudeMeters>
            <DistanceMeters>NAN</DistanceMeters>
          </Trackpoint>
          <Trackpoint>
            <Time>2020-12-05T12:17:24.000Z</Time>
            <Position>
              <LatitudeDegrees>36.8325288780033588409423828125</LatitudeDegrees>
              <LongitudeDegrees>-4.37375661917030811309814453125</LongitudeDegrees>
            </Position>
            <AltitudeMeters>665</AltitudeMeters>
            <DistanceMeters>NAN</DistanceMeters>
          </Trackpoint>
          <Trackpoint>
            <Time>2020-12-05T12:17:25.000Z</Time>
            <Position>
              <LatitudeDegrees>36.83253650553524494171142578125</LatitudeDegrees>
              <LongitudeDegrees>-4.3737748079001903533935546875</LongitudeDegrees>
            </Position>
            <AltitudeMeters>665</AltitudeMeters>
            <DistanceMeters>NAN</DistanceMeters>
          </Trackpoint>
          <Trackpoint>
            <Time>2020-12-05T12:17:26.000Z</Time>
            <Position>
              <LatitudeDegrees>36.83254170231521129608154296875</LatitudeDegrees>
              <LongitudeDegrees>-4.3737955950200557708740234375</LongitudeDegrees>
            </Position>
            <AltitudeMeters>665</AltitudeMeters>
            <DistanceMeters>NAN</DistanceMeters>
          </Trackpoint>
          <Trackpoint>
            <Time>2020-12-05T12:17:27.000Z</Time>
            <Position>
              <LatitudeDegrees>36.832549832761287689208984375</LatitudeDegrees>
              <LongitudeDegrees>-4.37381193973124027252197265625</LongitudeDegrees>
            </Position>
            <AltitudeMeters>665</AltitudeMeters>
            <DistanceMeters>NAN</DistanceMeters>
          </Trackpoint>
          <Trackpoint>
            <Time>2020-12-05T12:17:28.000Z</Time>
            <Position>
              <LatitudeDegrees>36.83256366290152072906494140625</LatitudeDegrees>
              <LongitudeDegrees>-4.37382484786212444305419921875</LongitudeDegrees>
            </Position>
            <AltitudeMeters>665</AltitudeMeters>
            <DistanceMeters>NAN</DistanceMeters>
          </Trackpoint>
          <Trackpoint>
            <Time>2020-12-05T12:17:29.000Z</Time>
            <Position>
              <LatitudeDegrees>36.8325704522430896759033203125</LatitudeDegrees>
              <LongitudeDegrees>-4.37384177930653095245361328125</LongitudeDegrees>
            </Position>
            <AltitudeMeters>665</AltitudeMeters>
            <DistanceMeters>NAN</DistanceMeters>
          </Trackpoint>
          <Trackpoint>
            <Time>2020-12-05T12:17:30.000Z</Time>
            <Position>
              <LatitudeDegrees>36.83258344419300556182861328125</LatitudeDegrees>
              <LongitudeDegrees>-4.3738546036183834075927734375</LongitudeDegrees>
            </Position>
            <AltitudeMeters>665</AltitudeMeters>
            <DistanceMeters>NAN</DistanceMeters>
          </Trackpoint>
          <Trackpoint>
            <Time>2020-12-05T12:17:31.000Z</Time>
            <Position>
              <LatitudeDegrees>36.83259668760001659393310546875</LatitudeDegrees>
              <LongitudeDegrees>-4.37386474572122097015380859375</LongitudeDegrees>
            </Position>
            <AltitudeMeters>665</AltitudeMeters>
            <DistanceMeters>NAN</DistanceMeters>
          </Trackpoint>
          <Trackpoint>
            <Time>2020-12-05T12:17:32.000Z</Time>
            <Position>
              <LatitudeDegrees>36.832608170807361602783203125</LatitudeDegrees>
              <LongitudeDegrees>-4.3738841079175472259521484375</LongitudeDegrees>
            </Position>
            <AltitudeMeters>665</AltitudeMeters>
            <DistanceMeters>NAN</DistanceMeters>
          </Trackpoint>
          <Trackpoint>
            <Time>2020-12-05T12:17:33.000Z</Time>
            <Position>
              <LatitudeDegrees>36.83262786827981472015380859375</LatitudeDegrees>
              <LongitudeDegrees>-4.37389927916228771209716796875</LongitudeDegrees>
            </Position>
            <AltitudeMeters>665</AltitudeMeters>
            <DistanceMeters>NAN</DistanceMeters>
          </Trackpoint>
          <Trackpoint>
            <Time>2020-12-05T12:17:34.000Z</Time>
            <Position>
              <LatitudeDegrees>36.83264882303774356842041015625</LatitudeDegrees>
              <LongitudeDegrees>-4.37390497885644435882568359375</LongitudeDegrees>
            </Position>
            <AltitudeMeters>665</AltitudeMeters>
            <DistanceMeters>NAN</DistanceMeters>
          </Trackpoint>
          <Trackpoint>
            <Time>2020-12-05T12:17:35.000Z</Time>
            <Position>
              <LatitudeDegrees>36.83265418745577335357666015625</LatitudeDegrees>
              <LongitudeDegrees>-4.37391503714025020599365234375</LongitudeDegrees>
            </Position>
            <AltitudeMeters>665</AltitudeMeters>
            <DistanceMeters>NAN</DistanceMeters>
          </Trackpoint>
          <Trackpoint>
            <Time>2020-12-05T12:17:36.000Z</Time>
            <Position>
              <LatitudeDegrees>36.8326614797115325927734375</LatitudeDegrees>
              <LongitudeDegrees>-4.3739266879856586456298828125</LongitudeDegrees>
            </Position>
            <AltitudeMeters>665</AltitudeMeters>
            <DistanceMeters>NAN</DistanceMeters>
          </Trackpoint>
          <Trackpoint>
            <Time>2020-12-05T12:17:37.000Z</Time>
            <Position>
              <LatitudeDegrees>36.832669191062450408935546875</LatitudeDegrees>
              <LongitudeDegrees>-4.37394060194492340087890625</LongitudeDegrees>
            </Position>
            <AltitudeMeters>665</AltitudeMeters>
            <DistanceMeters>NAN</DistanceMeters>
          </Trackpoint>
          <Trackpoint>
            <Time>2020-12-05T12:17:38.000Z</Time>
            <Position>
              <LatitudeDegrees>36.83268017135560512542724609375</LatitudeDegrees>
              <LongitudeDegrees>-4.3739521689713001251220703125</LongitudeDegrees>
            </Position>
            <AltitudeMeters>665</AltitudeMeters>
            <DistanceMeters>NAN</DistanceMeters>
          </Trackpoint>
          <Trackpoint>
            <Time>2020-12-05T12:17:39.000Z</Time>
            <Position>
              <LatitudeDegrees>36.83269173838198184967041015625</LatitudeDegrees>
              <LongitudeDegrees>-4.37396147288382053375244140625</LongitudeDegrees>
            </Position>
            <AltitudeMeters>665</AltitudeMeters>
            <DistanceMeters>NAN</DistanceMeters>
          </Trackpoint>
          <Trackpoint>
            <Time>2020-12-05T12:17:40.000Z</Time>
            <Position>
              <LatitudeDegrees>36.8327002041041851043701171875</LatitudeDegrees>
              <LongitudeDegrees>-4.373969770967960357666015625</LongitudeDegrees>
            </Position>
            <AltitudeMeters>665</AltitudeMeters>
            <DistanceMeters>NAN</DistanceMeters>
          </Trackpoint>
          <Trackpoint>
            <Time>2020-12-05T12:17:41.000Z</Time>
            <Position>
              <LatitudeDegrees>36.83270716108381748199462890625</LatitudeDegrees>
              <LongitudeDegrees>-4.37398108653724193572998046875</LongitudeDegrees>
            </Position>
            <AltitudeMeters>665</AltitudeMeters>
            <DistanceMeters>NAN</DistanceMeters>
          </Trackpoint>
          <Trackpoint>
            <Time>2020-12-05T12:17:42.000Z</Time>
            <Position>
              <LatitudeDegrees>36.83271504007279872894287109375</LatitudeDegrees>
              <LongitudeDegrees>-4.37399282120168209075927734375</LongitudeDegrees>
            </Position>
            <AltitudeMeters>665</AltitudeMeters>
            <DistanceMeters>NAN</DistanceMeters>
          </Trackpoint>
          <Trackpoint>
            <Time>2020-12-05T12:17:43.000Z</Time>
            <Position>
              <LatitudeDegrees>36.83272107504308223724365234375</LatitudeDegrees>
              <LongitudeDegrees>-4.37400086782872676849365234375</LongitudeDegrees>
            </Position>
            <AltitudeMeters>665</AltitudeMeters>
            <DistanceMeters>NAN</DistanceMeters>
          </Trackpoint>
          <Trackpoint>
            <Time>2020-12-05T12:17:44.000Z</Time>
            <Position>
              <LatitudeDegrees>36.83273649774491786956787109375</LatitudeDegrees>
              <LongitudeDegrees>-4.37400891445577144622802734375</LongitudeDegrees>
            </Position>
            <AltitudeMeters>665</AltitudeMeters>
            <DistanceMeters>NAN</DistanceMeters>
          </Trackpoint>
          <Trackpoint>
            <Time>2020-12-05T12:17:45.000Z</Time>
            <Position>
              <LatitudeDegrees>36.83274387381970882415771484375</LatitudeDegrees>
              <LongitudeDegrees>-4.37401763163506984710693359375</LongitudeDegrees>
            </Position>
            <AltitudeMeters>665</AltitudeMeters>
            <DistanceMeters>NAN</DistanceMeters>
          </Trackpoint>
          <Trackpoint>
            <Time>2020-12-05T12:17:46.000Z</Time>
            <Position>
              <LatitudeDegrees>36.8327515013515949249267578125</LatitudeDegrees>
              <LongitudeDegrees>-4.37402986921370029449462890625</LongitudeDegrees>
            </Position>
            <AltitudeMeters>665</AltitudeMeters>
            <DistanceMeters>NAN</DistanceMeters>
          </Trackpoint>
          <Trackpoint>
            <Time>2020-12-05T12:17:47.000Z</Time>
            <Position>
              <LatitudeDegrees>36.83275762014091014862060546875</LatitudeDegrees>
              <LongitudeDegrees>-4.3740431964397430419921875</LongitudeDegrees>
            </Position>
            <AltitudeMeters>665</AltitudeMeters>
            <DistanceMeters>NAN</DistanceMeters>
          </Trackpoint>
          <Trackpoint>
            <Time>2020-12-05T12:17:48.000Z</Time>
            <Position>
              <LatitudeDegrees>36.8327622301876544952392578125</LatitudeDegrees>
              <LongitudeDegrees>-4.37405752949416637420654296875</LongitudeDegrees>
            </Position>
            <AltitudeMeters>665</AltitudeMeters>
            <DistanceMeters>NAN</DistanceMeters>
          </Trackpoint>
          <Trackpoint>
            <Time>2020-12-05T12:17:49.000Z</Time>
            <Position>
              <LatitudeDegrees>36.83277002535760402679443359375</LatitudeDegrees>
              <LongitudeDegrees>-4.374071024358272552490234375</LongitudeDegrees>
            </Position>
            <AltitudeMeters>665</AltitudeMeters>
            <DistanceMeters>NAN</DistanceMeters>
          </Trackpoint>
          <Trackpoint>
            <Time>2020-12-05T12:17:50.000Z</Time>
            <Position>
              <LatitudeDegrees>36.832776479423046112060546875</LatitudeDegrees>
              <LongitudeDegrees>-4.37408678233623504638671875</LongitudeDegrees>
            </Position>
            <AltitudeMeters>665</AltitudeMeters>
            <DistanceMeters>NAN</DistanceMeters>
          </Trackpoint>
          <Trackpoint>
            <Time>2020-12-05T12:17:51.000Z</Time>
            <Position>
              <LatitudeDegrees>36.8327810056507587432861328125</LatitudeDegrees>
              <LongitudeDegrees>-4.37410061247646808624267578125</LongitudeDegrees>
            </Position>
            <AltitudeMeters>665</AltitudeMeters>
            <DistanceMeters>NAN</DistanceMeters>
          </Trackpoint>
          <Trackpoint>
            <Time>2020-12-05T12:17:52.000Z</Time>
            <Position>
              <LatitudeDegrees>36.8327850289642810821533203125</LatitudeDegrees>
              <LongitudeDegrees>-4.374111592769622802734375</LongitudeDegrees>
            </Position>
            <AltitudeMeters>665</AltitudeMeters>
            <DistanceMeters>NAN</DistanceMeters>
          </Trackpoint>
          <Trackpoint>
            <Time>2020-12-05T12:17:53.000Z</Time>
            <Position>
              <LatitudeDegrees>36.83279064483940601348876953125</LatitudeDegrees>
              <LongitudeDegrees>-4.374121986329555511474609375</LongitudeDegrees>
            </Position>
            <AltitudeMeters>665</AltitudeMeters>
            <DistanceMeters>NAN</DistanceMeters>
          </Trackpoint>
          <Trackpoint>
            <Time>2020-12-05T12:17:54.000Z</Time>
            <Position>
              <LatitudeDegrees>36.83279869146645069122314453125</LatitudeDegrees>
              <LongitudeDegrees>-4.3741328828036785125732421875</LongitudeDegrees>
            </Position>
            <AltitudeMeters>665</AltitudeMeters>
            <DistanceMeters>NAN</DistanceMeters>
          </Trackpoint>
          <Trackpoint>
            <Time>2020-12-05T12:17:55.000Z</Time>
            <Position>
              <LatitudeDegrees>36.83280120603740215301513671875</LatitudeDegrees>
              <LongitudeDegrees>-4.374146126210689544677734375</LongitudeDegrees>
            </Position>
            <AltitudeMeters>665</AltitudeMeters>
            <DistanceMeters>NAN</DistanceMeters>
          </Trackpoint>
          <Trackpoint>
            <Time>2020-12-05T12:17:56.000Z</Time>
            <Position>
              <LatitudeDegrees>36.83280573226511478424072265625</LatitudeDegrees>
              <LongitudeDegrees>-4.37415827997028827667236328125</LongitudeDegrees>
            </Position>
            <AltitudeMeters>665</AltitudeMeters>
            <DistanceMeters>NAN</DistanceMeters>
          </Trackpoint>
          <Trackpoint>
            <Time>2020-12-05T12:17:57.000Z</Time>
            <Position>
              <LatitudeDegrees>36.8328098393976688385009765625</LatitudeDegrees>
              <LongitudeDegrees>-4.37416858971118927001953125</LongitudeDegrees>
            </Position>
            <AltitudeMeters>665</AltitudeMeters>
            <DistanceMeters>NAN</DistanceMeters>
          </Trackpoint>
          <Trackpoint>
            <Time>2020-12-05T12:17:58.000Z</Time>
            <Position>
              <LatitudeDegrees>36.83281344361603260040283203125</LatitudeDegrees>
              <LongitudeDegrees>-4.37418074347078800201416015625</LongitudeDegrees>
            </Position>
            <AltitudeMeters>665</AltitudeMeters>
            <DistanceMeters>NAN</DistanceMeters>
          </Trackpoint>
          <Trackpoint>
            <Time>2020-12-05T12:17:59.000Z</Time>
            <Position>
              <LatitudeDegrees>36.83281679637730121612548828125</LatitudeDegrees>
              <LongitudeDegrees>-4.37419599853456020355224609375</LongitudeDegrees>
            </Position>
            <AltitudeMeters>665</AltitudeMeters>
            <DistanceMeters>NAN</DistanceMeters>
          </Trackpoint>
          <Trackpoint>
            <Time>2020-12-05T12:18:00.000Z</Time>
            <Position>
              <LatitudeDegrees>36.83281931094825267791748046875</LatitudeDegrees>
              <LongitudeDegrees>-4.3742116726934909820556640625</LongitudeDegrees>
            </Position>
            <AltitudeMeters>662</AltitudeMeters>
            <DistanceMeters>NAN</DistanceMeters>
          </Trackpoint>
          <Trackpoint>
            <Time>2020-12-05T12:18:01.000Z</Time>
            <Position>
              <LatitudeDegrees>36.832821071147918701171875</LatitudeDegrees>
              <LongitudeDegrees>-4.3742291070520877838134765625</LongitudeDegrees>
            </Position>
            <AltitudeMeters>662</AltitudeMeters>
            <DistanceMeters>NAN</DistanceMeters>
          </Trackpoint>
          <Trackpoint>
            <Time>2020-12-05T12:18:02.000Z</Time>
            <Position>
              <LatitudeDegrees>36.83282383717596530914306640625</LatitudeDegrees>
              <LongitudeDegrees>-4.374248050153255462646484375</LongitudeDegrees>
            </Position>
            <AltitudeMeters>662</AltitudeMeters>
            <DistanceMeters>NAN</DistanceMeters>
          </Trackpoint>
          <Trackpoint>
            <Time>2020-12-05T12:18:03.000Z</Time>
            <Position>
              <LatitudeDegrees>36.83282718993723392486572265625</LatitudeDegrees>
              <LongitudeDegrees>-4.3742696754634380340576171875</LongitudeDegrees>
            </Position>
            <AltitudeMeters>662</AltitudeMeters>
            <DistanceMeters>NAN</DistanceMeters>
          </Trackpoint>
          <Trackpoint>
            <Time>2020-12-05T12:18:04.000Z</Time>
            <Position>
              <LatitudeDegrees>36.832830794155597686767578125</LatitudeDegrees>
              <LongitudeDegrees>-4.37429104931652545928955078125</LongitudeDegrees>
            </Position>
            <AltitudeMeters>662</AltitudeMeters>
            <DistanceMeters>NAN</DistanceMeters>
          </Trackpoint>
          <Trackpoint>
            <Time>2020-12-05T12:18:05.000Z</Time>
            <Position>
              <LatitudeDegrees>36.83283087797462940216064453125</LatitudeDegrees>
              <LongitudeDegrees>-4.37431066296994686126708984375</LongitudeDegrees>
            </Position>
            <AltitudeMeters>662</AltitudeMeters>
            <DistanceMeters>NAN</DistanceMeters>
          </Trackpoint>
          <Trackpoint>
            <Time>2020-12-05T12:18:06.000Z</Time>
            <Position>
              <LatitudeDegrees>36.832831464707851409912109375</LatitudeDegrees>
              <LongitudeDegrees>-4.37433111481368541717529296875</LongitudeDegrees>
            </Position>
            <AltitudeMeters>662</AltitudeMeters>
            <DistanceMeters>NAN</DistanceMeters>
          </Trackpoint>
          <Trackpoint>
            <Time>2020-12-05T12:18:07.000Z</Time>
            <Position>
              <LatitudeDegrees>36.83283288963139057159423828125</LatitudeDegrees>
              <LongitudeDegrees>-4.374350644648075103759765625</LongitudeDegrees>
            </Position>
            <AltitudeMeters>662</AltitudeMeters>
            <DistanceMeters>NAN</DistanceMeters>
          </Trackpoint>
          <Trackpoint>
            <Time>2020-12-05T12:18:08.000Z</Time>
            <Position>
              <LatitudeDegrees>36.83283381164073944091796875</LatitudeDegrees>
              <LongitudeDegrees>-4.37436698935925960540771484375</LongitudeDegrees>
            </Position>
            <AltitudeMeters>662</AltitudeMeters>
            <DistanceMeters>NAN</DistanceMeters>
          </Trackpoint>
          <Trackpoint>
            <Time>2020-12-05T12:18:09.000Z</Time>
            <Position>
              <LatitudeDegrees>36.83283138088881969451904296875</LatitudeDegrees>
              <LongitudeDegrees>-4.37438107095658779144287109375</LongitudeDegrees>
            </Position>
            <AltitudeMeters>662</AltitudeMeters>
            <DistanceMeters>NAN</DistanceMeters>
          </Trackpoint>
          <Trackpoint>
            <Time>2020-12-05T12:18:10.000Z</Time>
            <Position>
              <LatitudeDegrees>36.83283154852688312530517578125</LatitudeDegrees>
              <LongitudeDegrees>-4.374392889440059661865234375</LongitudeDegrees>
            </Position>
            <AltitudeMeters>662</AltitudeMeters>
            <DistanceMeters>NAN</DistanceMeters>
          </Trackpoint>
          <Trackpoint>
            <Time>2020-12-05T12:18:11.000Z</Time>
            <Position>
              <LatitudeDegrees>36.83283154852688312530517578125</LatitudeDegrees>
              <LongitudeDegrees>-4.3744034506380558013916015625</LongitudeDegrees>
            </Position>
            <AltitudeMeters>662</AltitudeMeters>
            <DistanceMeters>NAN</DistanceMeters>
          </Trackpoint>
          <Trackpoint>
            <Time>2020-12-05T12:18:12.000Z</Time>
            <Position>
              <LatitudeDegrees>36.83283104561269283294677734375</LatitudeDegrees>
              <LongitudeDegrees>-4.37441761605441570281982421875</LongitudeDegrees>
            </Position>
            <AltitudeMeters>662</AltitudeMeters>
            <DistanceMeters>NAN</DistanceMeters>
          </Trackpoint>
          <Trackpoint>
            <Time>2020-12-05T12:18:13.000Z</Time>
            <Position>
              <LatitudeDegrees>36.83282853104174137115478515625</LatitudeDegrees>
              <LongitudeDegrees>-4.37443002127110958099365234375</LongitudeDegrees>
            </Position>
            <AltitudeMeters>662</AltitudeMeters>
            <DistanceMeters>NAN</DistanceMeters>
          </Trackpoint>
          <Trackpoint>
            <Time>2020-12-05T12:18:14.000Z</Time>
            <Position>
              <LatitudeDegrees>36.832824759185314178466796875</LatitudeDegrees>
              <LongitudeDegrees>-4.37444058246910572052001953125</LongitudeDegrees>
            </Position>
            <AltitudeMeters>662</AltitudeMeters>
            <DistanceMeters>NAN</DistanceMeters>
          </Trackpoint>
          <Trackpoint>
            <Time>2020-12-05T12:18:15.000Z</Time>
            <Position>
              <LatitudeDegrees>36.83282182551920413970947265625</LatitudeDegrees>
              <LongitudeDegrees>-4.37444812618196010589599609375</LongitudeDegrees>
            </Position>
            <AltitudeMeters>662</AltitudeMeters>
            <DistanceMeters>NAN</DistanceMeters>
          </Trackpoint>
          <Trackpoint>
            <Time>2020-12-05T12:18:16.000Z</Time>
            <Position>
              <LatitudeDegrees>36.8328185565769672393798828125</LatitudeDegrees>
              <LongitudeDegrees>-4.37445550225675106048583984375</LongitudeDegrees>
            </Position>
            <AltitudeMeters>662</AltitudeMeters>
            <DistanceMeters>NAN</DistanceMeters>
          </Trackpoint>
          <Trackpoint>
            <Time>2020-12-05T12:18:17.000Z</Time>
            <Position>
              <LatitudeDegrees>36.83281545527279376983642578125</LatitudeDegrees>
              <LongitudeDegrees>-4.37446472235023975372314453125</LongitudeDegrees>
            </Position>
            <AltitudeMeters>662</AltitudeMeters>
            <DistanceMeters>NAN</DistanceMeters>
          </Trackpoint>
          <Trackpoint>
            <Time>2020-12-05T12:18:18.000Z</Time>
            <Position>
              <LatitudeDegrees>36.8328128568828105926513671875</LatitudeDegrees>
              <LongitudeDegrees>-4.37447561882436275482177734375</LongitudeDegrees>
            </Position>
            <AltitudeMeters>662</AltitudeMeters>
            <DistanceMeters>NAN</DistanceMeters>
          </Trackpoint>
          <Trackpoint>
            <Time>2020-12-05T12:18:19.000Z</Time>
            <Position>
              <LatitudeDegrees>36.83281042613089084625244140625</LatitudeDegrees>
              <LongitudeDegrees>-4.3744857609272003173828125</LongitudeDegrees>
            </Position>
            <AltitudeMeters>662</AltitudeMeters>
            <DistanceMeters>NAN</DistanceMeters>
          </Trackpoint>
          <Trackpoint>
            <Time>2020-12-05T12:18:20.000Z</Time>
            <Position>
              <LatitudeDegrees>36.8328091688454151153564453125</LatitudeDegrees>
              <LongitudeDegrees>-4.37450059689581394195556640625</LongitudeDegrees>
            </Position>
            <AltitudeMeters>662</AltitudeMeters>
            <DistanceMeters>NAN</DistanceMeters>
          </Trackpoint>
          <Trackpoint>
            <Time>2020-12-05T12:18:21.000Z</Time>
            <Position>
              <LatitudeDegrees>36.8328078277409076690673828125</LatitudeDegrees>
              <LongitudeDegrees>-4.37451660633087158203125</LongitudeDegrees>
            </Position>
            <AltitudeMeters>662</AltitudeMeters>
            <DistanceMeters>NAN</DistanceMeters>
          </Trackpoint>
          <Trackpoint>
            <Time>2020-12-05T12:18:22.000Z</Time>
            <Position>
              <LatitudeDegrees>36.83280807919800281524658203125</LatitudeDegrees>
              <LongitudeDegrees>-4.37453068792819976806640625</LongitudeDegrees>
            </Position>
            <AltitudeMeters>662</AltitudeMeters>
            <DistanceMeters>NAN</DistanceMeters>
          </Trackpoint>
          <Trackpoint>
            <Time>2020-12-05T12:18:23.000Z</Time>
            <Position>
              <LatitudeDegrees>36.83280757628381252288818359375</LatitudeDegrees>
              <LongitudeDegrees>-4.37454636208713054656982421875</LongitudeDegrees>
            </Position>
            <AltitudeMeters>662</AltitudeMeters>
            <DistanceMeters>NAN</DistanceMeters>
          </Trackpoint>
          <Trackpoint>
            <Time>2020-12-05T12:18:24.000Z</Time>
            <Position>
              <LatitudeDegrees>36.8328054808080196380615234375</LatitudeDegrees>
              <LongitudeDegrees>-4.3745648860931396484375</LongitudeDegrees>
            </Position>
            <AltitudeMeters>662</AltitudeMeters>
            <DistanceMeters>NAN</DistanceMeters>
          </Trackpoint>
          <Trackpoint>
            <Time>2020-12-05T12:18:25.000Z</Time>
            <Position>
              <LatitudeDegrees>36.83280338533222675323486328125</LatitudeDegrees>
              <LongitudeDegrees>-4.37458089552819728851318359375</LongitudeDegrees>
            </Position>
            <AltitudeMeters>662</AltitudeMeters>
            <DistanceMeters>NAN</DistanceMeters>
          </Trackpoint>
          <Trackpoint>
            <Time>2020-12-05T12:18:26.000Z</Time>
            <Position>
              <LatitudeDegrees>36.83280028402805328369140625</LatitudeDegrees>
              <LongitudeDegrees>-4.37458978034555912017822265625</LongitudeDegrees>
            </Position>
            <AltitudeMeters>662</AltitudeMeters>
            <DistanceMeters>NAN</DistanceMeters>
          </Trackpoint>
          <Trackpoint>
            <Time>2020-12-05T12:18:27.000Z</Time>
            <Position>
              <LatitudeDegrees>36.83279433287680149078369140625</LatitudeDegrees>
              <LongitudeDegrees>-4.3746010959148406982421875</LongitudeDegrees>
            </Position>
            <AltitudeMeters>662</AltitudeMeters>
            <DistanceMeters>NAN</DistanceMeters>
          </Trackpoint>
          <Trackpoint>
            <Time>2020-12-05T12:18:28.000Z</Time>
            <Position>
              <LatitudeDegrees>36.83278662152588367462158203125</LatitudeDegrees>
              <LongitudeDegrees>-4.3746146745979785919189453125</LongitudeDegrees>
            </Position>
            <AltitudeMeters>662</AltitudeMeters>
            <DistanceMeters>NAN</DistanceMeters>
          </Trackpoint>
          <Trackpoint>
            <Time>2020-12-05T12:18:29.000Z</Time>
            <Position>
              <LatitudeDegrees>36.83277689851820468902587890625</LatitudeDegrees>
              <LongitudeDegrees>-4.37462992966175079345703125</LongitudeDegrees>
            </Position>
            <AltitudeMeters>662</AltitudeMeters>
            <DistanceMeters>NAN</DistanceMeters>
          </Trackpoint>
          <Trackpoint>
            <Time>2020-12-05T12:18:30.000Z</Time>
            <Position>
              <LatitudeDegrees>36.8327712826430797576904296875</LatitudeDegrees>
              <LongitudeDegrees>-4.3746421672403812408447265625</LongitudeDegrees>
            </Position>
            <AltitudeMeters>662</AltitudeMeters>
            <DistanceMeters>NAN</DistanceMeters>
          </Trackpoint>
          <Trackpoint>
            <Time>2020-12-05T12:18:31.000Z</Time>
            <Position>
              <LatitudeDegrees>36.83277538977563381195068359375</LatitudeDegrees>
              <LongitudeDegrees>-4.37464736402034759521484375</LongitudeDegrees>
            </Position>
            <AltitudeMeters>662</AltitudeMeters>
            <DistanceMeters>NAN</DistanceMeters>
          </Trackpoint>
          <Trackpoint>
            <Time>2020-12-05T12:18:32.000Z</Time>
            <Position>
              <LatitudeDegrees>36.83277639560401439666748046875</LatitudeDegrees>
              <LongitudeDegrees>-4.37465867958962917327880859375</LongitudeDegrees>
            </Position>
            <AltitudeMeters>662</AltitudeMeters>
            <DistanceMeters>NAN</DistanceMeters>
          </Trackpoint>
          <Trackpoint>
            <Time>2020-12-05T12:18:33.000Z</Time>
            <Position>
              <LatitudeDegrees>36.83277639560401439666748046875</LatitudeDegrees>
              <LongitudeDegrees>-4.37467477284371852874755859375</LongitudeDegrees>
            </Position>
            <AltitudeMeters>662</AltitudeMeters>
            <DistanceMeters>NAN</DistanceMeters>
          </Trackpoint>
          <Trackpoint>
            <Time>2020-12-05T12:18:34.000Z</Time>
            <Position>
              <LatitudeDegrees>36.83277438394725322723388671875</LatitudeDegrees>
              <LongitudeDegrees>-4.374690949916839599609375</LongitudeDegrees>
            </Position>
            <AltitudeMeters>662</AltitudeMeters>
            <DistanceMeters>NAN</DistanceMeters>
          </Trackpoint>
          <Trackpoint>
            <Time>2020-12-05T12:18:35.000Z</Time>
            <Position>
              <LatitudeDegrees>36.83277136646211147308349609375</LatitudeDegrees>
              <LongitudeDegrees>-4.374708719551563262939453125</LongitudeDegrees>
            </Position>
            <AltitudeMeters>662</AltitudeMeters>
            <DistanceMeters>NAN</DistanceMeters>
          </Trackpoint>
          <Trackpoint>
            <Time>2020-12-05T12:18:36.000Z</Time>
            <Position>
              <LatitudeDegrees>36.83276751078665256500244140625</LatitudeDegrees>
              <LongitudeDegrees>-4.3747283332049846649169921875</LongitudeDegrees>
            </Position>
            <AltitudeMeters>662</AltitudeMeters>
            <DistanceMeters>NAN</DistanceMeters>
          </Trackpoint>
          <Trackpoint>
            <Time>2020-12-05T12:18:37.000Z</Time>
            <Position>
              <LatitudeDegrees>36.83276784606277942657470703125</LatitudeDegrees>
              <LongitudeDegrees>-4.3747514672577381134033203125</LongitudeDegrees>
            </Position>
            <AltitudeMeters>662</AltitudeMeters>
            <DistanceMeters>NAN</DistanceMeters>
          </Trackpoint>
          <Trackpoint>
            <Time>2020-12-05T12:18:38.000Z</Time>
            <Position>
              <LatitudeDegrees>36.83276675641536712646484375</LatitudeDegrees>
              <LongitudeDegrees>-4.37477208673954010009765625</LongitudeDegrees>
            </Position>
            <AltitudeMeters>662</AltitudeMeters>
            <DistanceMeters>NAN</DistanceMeters>
          </Trackpoint>
          <Trackpoint>
            <Time>2020-12-05T12:18:39.000Z</Time>
            <Position>
              <LatitudeDegrees>36.8327659182250499725341796875</LatitudeDegrees>
              <LongitudeDegrees>-4.37479027546942234039306640625</LongitudeDegrees>
            </Position>
            <AltitudeMeters>662</AltitudeMeters>
            <DistanceMeters>NAN</DistanceMeters>
          </Trackpoint>
          <Trackpoint>
            <Time>2020-12-05T12:18:40.000Z</Time>
            <Position>
              <LatitudeDegrees>36.83276474475860595703125</LatitudeDegrees>
              <LongitudeDegrees>-4.37480703927576541900634765625</LongitudeDegrees>
            </Position>
            <AltitudeMeters>662</AltitudeMeters>
            <DistanceMeters>NAN</DistanceMeters>
          </Trackpoint>
          <Trackpoint>
            <Time>2020-12-05T12:18:41.000Z</Time>
            <Position>
              <LatitudeDegrees>36.8327598832547664642333984375</LatitudeDegrees>
              <LongitudeDegrees>-4.3748237192630767822265625</LongitudeDegrees>
            </Position>
            <AltitudeMeters>662</AltitudeMeters>
            <DistanceMeters>NAN</DistanceMeters>
          </Trackpoint>
          <Trackpoint>
            <Time>2020-12-05T12:18:42.000Z</Time>
            <Position>
              <LatitudeDegrees>36.83275661431252956390380859375</LatitudeDegrees>
              <LongitudeDegrees>-4.37484391964972019195556640625</LongitudeDegrees>
            </Position>
            <AltitudeMeters>662</AltitudeMeters>
            <DistanceMeters>NAN</DistanceMeters>
          </Trackpoint>
          <Trackpoint>
            <Time>2020-12-05T12:18:43.000Z</Time>
            <Position>
              <LatitudeDegrees>36.83275292627513408660888671875</LatitudeDegrees>
              <LongitudeDegrees>-4.3748621083796024322509765625</LongitudeDegrees>
            </Position>
            <AltitudeMeters>662</AltitudeMeters>
            <DistanceMeters>NAN</DistanceMeters>
          </Trackpoint>
          <Trackpoint>
            <Time>2020-12-05T12:18:44.000Z</Time>
            <Position>
              <LatitudeDegrees>36.8327511660754680633544921875</LatitudeDegrees>
              <LongitudeDegrees>-4.37487912364304065704345703125</LongitudeDegrees>
            </Position>
            <AltitudeMeters>662</AltitudeMeters>
            <DistanceMeters>NAN</DistanceMeters>
          </Trackpoint>
          <Trackpoint>
            <Time>2020-12-05T12:18:45.000Z</Time>
            <Position>
              <LatitudeDegrees>36.8327473104000091552734375</LatitudeDegrees>
              <LongitudeDegrees>-4.37489773146808147430419921875</LongitudeDegrees>
            </Position>
            <AltitudeMeters>662</AltitudeMeters>
            <DistanceMeters>NAN</DistanceMeters>
          </Trackpoint>
          <Trackpoint>
            <Time>2020-12-05T12:18:46.000Z</Time>
            <Position>
              <LatitudeDegrees>36.83274504728615283966064453125</LatitudeDegrees>
              <LongitudeDegrees>-4.37491281889379024505615234375</LongitudeDegrees>
            </Position>
            <AltitudeMeters>662</AltitudeMeters>
            <DistanceMeters>NAN</DistanceMeters>
          </Trackpoint>
          <Trackpoint>
            <Time>2020-12-05T12:18:47.000Z</Time>
            <Position>
              <LatitudeDegrees>36.832738257944583892822265625</LatitudeDegrees>
              <LongitudeDegrees>-4.3749296665191650390625</LongitudeDegrees>
            </Position>
            <AltitudeMeters>662</AltitudeMeters>
            <DistanceMeters>NAN</DistanceMeters>
          </Trackpoint>
          <Trackpoint>
            <Time>2020-12-05T12:18:48.000Z</Time>
            <Position>
              <LatitudeDegrees>36.83273096568882465362548828125</LatitudeDegrees>
              <LongitudeDegrees>-4.37494969926774501800537109375</LongitudeDegrees>
            </Position>
            <AltitudeMeters>662</AltitudeMeters>
            <DistanceMeters>NAN</DistanceMeters>
          </Trackpoint>
          <Trackpoint>
            <Time>2020-12-05T12:18:49.000Z</Time>
            <Position>
              <LatitudeDegrees>36.83272476308047771453857421875</LatitudeDegrees>
              <LongitudeDegrees>-4.37496998347342014312744140625</LongitudeDegrees>
            </Position>
            <AltitudeMeters>662</AltitudeMeters>
            <DistanceMeters>NAN</DistanceMeters>
          </Trackpoint>
          <Trackpoint>
            <Time>2020-12-05T12:18:50.000Z</Time>
            <Position>
              <LatitudeDegrees>36.83271906338632106781005859375</LatitudeDegrees>
              <LongitudeDegrees>-4.37498540617525577545166015625</LongitudeDegrees>
            </Position>
            <AltitudeMeters>662</AltitudeMeters>
            <DistanceMeters>NAN</DistanceMeters>
          </Trackpoint>
          <Trackpoint>
            <Time>2020-12-05T12:18:51.000Z</Time>
            <Position>
              <LatitudeDegrees>36.8327129445970058441162109375</LatitudeDegrees>
              <LongitudeDegrees>-4.3750019185245037078857421875</LongitudeDegrees>
            </Position>
            <AltitudeMeters>662</AltitudeMeters>
            <DistanceMeters>NAN</DistanceMeters>
          </Trackpoint>
          <Trackpoint>
            <Time>2020-12-05T12:18:52.000Z</Time>
            <Position>
              <LatitudeDegrees>36.83270682580769062042236328125</LatitudeDegrees>
              <LongitudeDegrees>-4.37501591630280017852783203125</LongitudeDegrees>
            </Position>
            <AltitudeMeters>662</AltitudeMeters>
            <DistanceMeters>NAN</DistanceMeters>
          </Trackpoint>
          <Trackpoint>
            <Time>2020-12-05T12:18:53.000Z</Time>
            <Position>
              <LatitudeDegrees>36.832700707018375396728515625</LatitudeDegrees>
              <LongitudeDegrees>-4.37503133900463581085205078125</LongitudeDegrees>
            </Position>
            <AltitudeMeters>662</AltitudeMeters>
            <DistanceMeters>NAN</DistanceMeters>
          </Trackpoint>
          <Trackpoint>
            <Time>2020-12-05T12:18:54.000Z</Time>
            <Position>
              <LatitudeDegrees>36.83269425295293331146240234375</LatitudeDegrees>
              <LongitudeDegrees>-4.37504701316356658935546875</LongitudeDegrees>
            </Position>
            <AltitudeMeters>662</AltitudeMeters>
            <DistanceMeters>NAN</DistanceMeters>
          </Trackpoint>
          <Trackpoint>
            <Time>2020-12-05T12:18:55.000Z</Time>
            <Position>
              <LatitudeDegrees>36.83268620632588863372802734375</LatitudeDegrees>
              <LongitudeDegrees>-4.3750629387795925140380859375</LongitudeDegrees>
            </Position>
            <AltitudeMeters>662</AltitudeMeters>
            <DistanceMeters>NAN</DistanceMeters>
          </Trackpoint>
          <Trackpoint>
            <Time>2020-12-05T12:18:56.000Z</Time>
            <Position>
              <LatitudeDegrees>36.83268033899366855621337890625</LatitudeDegrees>
              <LongitudeDegrees>-4.375075511634349822998046875</LongitudeDegrees>
            </Position>
            <AltitudeMeters>662</AltitudeMeters>
            <DistanceMeters>NAN</DistanceMeters>
          </Trackpoint>
          <Trackpoint>
            <Time>2020-12-05T12:18:57.000Z</Time>
            <Position>
              <LatitudeDegrees>36.8326740525662899017333984375</LatitudeDegrees>
              <LongitudeDegrees>-4.3750907666981220245361328125</LongitudeDegrees>
            </Position>
            <AltitudeMeters>662</AltitudeMeters>
            <DistanceMeters>NAN</DistanceMeters>
          </Trackpoint>
          <Trackpoint>
            <Time>2020-12-05T12:18:58.000Z</Time>
            <Position>
              <LatitudeDegrees>36.83266743086278438568115234375</LatitudeDegrees>
              <LongitudeDegrees>-4.37510862015187740325927734375</LongitudeDegrees>
            </Position>
            <AltitudeMeters>662</AltitudeMeters>
            <DistanceMeters>NAN</DistanceMeters>
          </Trackpoint>
          <Trackpoint>
            <Time>2020-12-05T12:18:59.000Z</Time>
            <Position>
              <LatitudeDegrees>36.832659132778644561767578125</LatitudeDegrees>
              <LongitudeDegrees>-4.375127144157886505126953125</LongitudeDegrees>
            </Position>
            <AltitudeMeters>662</AltitudeMeters>
            <DistanceMeters>NAN</DistanceMeters>
          </Trackpoint>
          <Trackpoint>
            <Time>2020-12-05T12:19:00.000Z</Time>
            <Position>
              <LatitudeDegrees>36.83265083469450473785400390625</LatitudeDegrees>
              <LongitudeDegrees>-4.375144578516483306884765625</LongitudeDegrees>
            </Position>
            <AltitudeMeters>659.79998779296875</AltitudeMeters>
            <DistanceMeters>NAN</DistanceMeters>
          </Trackpoint>
          <Trackpoint>
            <Time>2020-12-05T12:19:01.000Z</Time>
            <Position>
              <LatitudeDegrees>36.832644045352935791015625</LatitudeDegrees>
              <LongitudeDegrees>-4.37516343779861927032470703125</LongitudeDegrees>
            </Position>
            <AltitudeMeters>659.79998779296875</AltitudeMeters>
            <DistanceMeters>NAN</DistanceMeters>
          </Trackpoint>
          <Trackpoint>
            <Time>2020-12-05T12:19:02.000Z</Time>
            <Position>
              <LatitudeDegrees>36.83264060877263545989990234375</LatitudeDegrees>
              <LongitudeDegrees>-4.3751833029091358184814453125</LongitudeDegrees>
            </Position>
            <AltitudeMeters>659.79998779296875</AltitudeMeters>
            <DistanceMeters>NAN</DistanceMeters>
          </Trackpoint>
          <Trackpoint>
            <Time>2020-12-05T12:19:03.000Z</Time>
            <Position>
              <LatitudeDegrees>36.83263893239200115203857421875</LatitudeDegrees>
              <LongitudeDegrees>-4.37520551495254039764404296875</LongitudeDegrees>
            </Position>
            <AltitudeMeters>659.79998779296875</AltitudeMeters>
            <DistanceMeters>NAN</DistanceMeters>
          </Trackpoint>
          <Trackpoint>
            <Time>2020-12-05T12:19:04.000Z</Time>
            <Position>
              <LatitudeDegrees>36.83264010585844516754150390625</LatitudeDegrees>
              <LongitudeDegrees>-4.375219009816646575927734375</LongitudeDegrees>
            </Position>
            <AltitudeMeters>659.79998779296875</AltitudeMeters>
            <DistanceMeters>NAN</DistanceMeters>
          </Trackpoint>
          <Trackpoint>
            <Time>2020-12-05T12:19:05.000Z</Time>
            <Position>
              <LatitudeDegrees>36.83264245279133319854736328125</LatitudeDegrees>
              <LongitudeDegrees>-4.375233761966228485107421875</LongitudeDegrees>
            </Position>
            <AltitudeMeters>659.79998779296875</AltitudeMeters>
            <DistanceMeters>NAN</DistanceMeters>
          </Trackpoint>
          <Trackpoint>
            <Time>2020-12-05T12:19:06.000Z</Time>
            <Position>
              <LatitudeDegrees>36.832645051181316375732421875</LatitudeDegrees>
              <LongitudeDegrees>-4.37525362707674503326416015625</LongitudeDegrees>
            </Position>
            <AltitudeMeters>659.79998779296875</AltitudeMeters>
            <DistanceMeters>NAN</DistanceMeters>
          </Trackpoint>
          <Trackpoint>
            <Time>2020-12-05T12:19:07.000Z</Time>
            <Position>
              <LatitudeDegrees>36.83264832012355327606201171875</LatitudeDegrees>
              <LongitudeDegrees>-4.3752714805305004119873046875</LongitudeDegrees>
            </Position>
            <AltitudeMeters>659.79998779296875</AltitudeMeters>
            <DistanceMeters>NAN</DistanceMeters>
          </Trackpoint>
          <Trackpoint>
            <Time>2020-12-05T12:19:08.000Z</Time>
            <Position>
              <LatitudeDegrees>36.83264513500034809112548828125</LatitudeDegrees>
              <LongitudeDegrees>-4.37528430484235286712646484375</LongitudeDegrees>
            </Position>
            <AltitudeMeters>659.79998779296875</AltitudeMeters>
            <DistanceMeters>NAN</DistanceMeters>
          </Trackpoint>
          <Trackpoint>
            <Time>2020-12-05T12:19:09.000Z</Time>
            <Position>
              <LatitudeDegrees>36.83264211751520633697509765625</LatitudeDegrees>
              <LongitudeDegrees>-4.37529779970645904541015625</LongitudeDegrees>
            </Position>
            <AltitudeMeters>659.79998779296875</AltitudeMeters>
            <DistanceMeters>NAN</DistanceMeters>
          </Trackpoint>
          <Trackpoint>
            <Time>2020-12-05T12:19:10.000Z</Time>
            <Position>
              <LatitudeDegrees>36.83264178223907947540283203125</LatitudeDegrees>
              <LongitudeDegrees>-4.37531791627407073974609375</LongitudeDegrees>
            </Position>
            <AltitudeMeters>659.79998779296875</AltitudeMeters>
            <DistanceMeters>NAN</DistanceMeters>
          </Trackpoint>
          <Trackpoint>
            <Time>2020-12-05T12:19:11.000Z</Time>
            <Position>
              <LatitudeDegrees>36.83264094404876232147216796875</LatitudeDegrees>
              <LongitudeDegrees>-4.375334680080413818359375</LongitudeDegrees>
            </Position>
            <AltitudeMeters>659.79998779296875</AltitudeMeters>
            <DistanceMeters>NAN</DistanceMeters>
          </Trackpoint>
          <Trackpoint>
            <Time>2020-12-05T12:19:12.000Z</Time>
            <Position>
              <LatitudeDegrees>36.8326411955058574676513671875</LatitudeDegrees>
              <LongitudeDegrees>-4.3753573112189769744873046875</LongitudeDegrees>
            </Position>
            <AltitudeMeters>659.79998779296875</AltitudeMeters>
            <DistanceMeters>NAN</DistanceMeters>
          </Trackpoint>
          <Trackpoint>
            <Time>2020-12-05T12:19:13.000Z</Time>
            <Position>
              <LatitudeDegrees>36.8326472304761409759521484375</LatitudeDegrees>
              <LongitudeDegrees>-4.37537600286304950714111328125</LongitudeDegrees>
            </Position>
            <AltitudeMeters>659.79998779296875</AltitudeMeters>
            <DistanceMeters>NAN</DistanceMeters>
          </Trackpoint>
          <Trackpoint>
            <Time>2020-12-05T12:19:14.000Z</Time>
            <Position>
              <LatitudeDegrees>36.83265921659767627716064453125</LatitudeDegrees>
              <LongitudeDegrees>-4.37539695762097835540771484375</LongitudeDegrees>
            </Position>
            <AltitudeMeters>659.79998779296875</AltitudeMeters>
            <DistanceMeters>NAN</DistanceMeters>
          </Trackpoint>
          <Trackpoint>
            <Time>2020-12-05T12:19:15.000Z</Time>
            <Position>
              <LatitudeDegrees>36.83266826905310153961181640625</LatitudeDegrees>
              <LongitudeDegrees>-4.37541984021663665771484375</LongitudeDegrees>
            </Position>
            <AltitudeMeters>659.79998779296875</AltitudeMeters>
            <DistanceMeters>NAN</DistanceMeters>
          </Trackpoint>
          <Trackpoint>
            <Time>2020-12-05T12:19:16.000Z</Time>
            <Position>
              <LatitudeDegrees>36.8326700292527675628662109375</LatitudeDegrees>
              <LongitudeDegrees>-4.37543392181396484375</LongitudeDegrees>
            </Position>
            <AltitudeMeters>659.79998779296875</AltitudeMeters>
            <DistanceMeters>NAN</DistanceMeters>
          </Trackpoint>
          <Trackpoint>
            <Time>2020-12-05T12:19:17.000Z</Time>
            <Position>
              <LatitudeDegrees>36.83266885578632354736328125</LatitudeDegrees>
              <LongitudeDegrees>-4.37545462511479854583740234375</LongitudeDegrees>
            </Position>
            <AltitudeMeters>659.79998779296875</AltitudeMeters>
            <DistanceMeters>NAN</DistanceMeters>
          </Trackpoint>
          <Trackpoint>
            <Time>2020-12-05T12:19:18.000Z</Time>
            <Position>
              <LatitudeDegrees>36.83267061598598957061767578125</LatitudeDegrees>
              <LongitudeDegrees>-4.37547373585402965545654296875</LongitudeDegrees>
            </Position>
            <AltitudeMeters>659.79998779296875</AltitudeMeters>
            <DistanceMeters>NAN</DistanceMeters>
          </Trackpoint>
          <Trackpoint>
            <Time>2020-12-05T12:19:19.000Z</Time>
            <Position>
              <LatitudeDegrees>36.83267698623239994049072265625</LatitudeDegrees>
              <LongitudeDegrees>-4.3754914216697216033935546875</LongitudeDegrees>
            </Position>
            <AltitudeMeters>659.79998779296875</AltitudeMeters>
            <DistanceMeters>NAN</DistanceMeters>
          </Trackpoint>
          <Trackpoint>
            <Time>2020-12-05T12:19:20.000Z</Time>
            <Position>
              <LatitudeDegrees>36.832683943212032318115234375</LatitudeDegrees>
              <LongitudeDegrees>-4.3755076825618743896484375</LongitudeDegrees>
            </Position>
            <AltitudeMeters>659.79998779296875</AltitudeMeters>
            <DistanceMeters>NAN</DistanceMeters>
          </Trackpoint>
          <Trackpoint>
            <Time>2020-12-05T12:19:21.000Z</Time>
            <Position>
              <LatitudeDegrees>36.8326883018016815185546875</LatitudeDegrees>
              <LongitudeDegrees>-4.3755215965211391448974609375</LongitudeDegrees>
            </Position>
            <AltitudeMeters>659.79998779296875</AltitudeMeters>
            <DistanceMeters>NAN</DistanceMeters>
          </Trackpoint>
          <Trackpoint>
            <Time>2020-12-05T12:19:22.000Z</Time>
            <Position>
              <LatitudeDegrees>36.83269240893423557281494140625</LatitudeDegrees>
              <LongitudeDegrees>-4.375535510480403900146484375</LongitudeDegrees>
            </Position>
            <AltitudeMeters>659.79998779296875</AltitudeMeters>
            <DistanceMeters>NAN</DistanceMeters>
          </Trackpoint>
          <Trackpoint>
            <Time>2020-12-05T12:19:23.000Z</Time>
            <Position>
              <LatitudeDegrees>36.83269609697163105010986328125</LatitudeDegrees>
              <LongitudeDegrees>-4.37555084936320781707763671875</LongitudeDegrees>
            </Position>
            <AltitudeMeters>659.79998779296875</AltitudeMeters>
            <DistanceMeters>NAN</DistanceMeters>
          </Trackpoint>
          <Trackpoint>
            <Time>2020-12-05T12:19:24.000Z</Time>
            <Position>
              <LatitudeDegrees>36.83269978500902652740478515625</LatitudeDegrees>
              <LongitudeDegrees>-4.37556509859859943389892578125</LongitudeDegrees>
            </Position>
            <AltitudeMeters>659.79998779296875</AltitudeMeters>
            <DistanceMeters>NAN</DistanceMeters>
          </Trackpoint>
          <Trackpoint>
            <Time>2020-12-05T12:19:25.000Z</Time>
            <Position>
              <LatitudeDegrees>36.83270246721804141998291015625</LatitudeDegrees>
              <LongitudeDegrees>-4.3755779229104518890380859375</LongitudeDegrees>
            </Position>
            <AltitudeMeters>659.79998779296875</AltitudeMeters>
            <DistanceMeters>NAN</DistanceMeters>
          </Trackpoint>
          <Trackpoint>
            <Time>2020-12-05T12:19:26.000Z</Time>
            <Position>
              <LatitudeDegrees>36.8327059037983417510986328125</LatitudeDegrees>
              <LongitudeDegrees>-4.3755886517465114593505859375</LongitudeDegrees>
            </Position>
            <AltitudeMeters>659.79998779296875</AltitudeMeters>
            <DistanceMeters>NAN</DistanceMeters>
          </Trackpoint>
          <Trackpoint>
            <Time>2020-12-05T12:19:27.000Z</Time>
            <Position>
              <LatitudeDegrees>36.8327095918357372283935546875</LatitudeDegrees>
              <LongitudeDegrees>-4.375600554049015045166015625</LongitudeDegrees>
            </Position>
            <AltitudeMeters>659.79998779296875</AltitudeMeters>
            <DistanceMeters>NAN</DistanceMeters>
          </Trackpoint>
          <Trackpoint>
            <Time>2020-12-05T12:19:28.000Z</Time>
            <Position>
              <LatitudeDegrees>36.8327112682163715362548828125</LatitudeDegrees>
              <LongitudeDegrees>-4.37561689876019954681396484375</LongitudeDegrees>
            </Position>
            <AltitudeMeters>659.79998779296875</AltitudeMeters>
            <DistanceMeters>NAN</DistanceMeters>
          </Trackpoint>
          <Trackpoint>
            <Time>2020-12-05T12:19:29.000Z</Time>
            <Position>
              <LatitudeDegrees>36.83271445333957672119140625</LatitudeDegrees>
              <LongitudeDegrees>-4.3756308965384960174560546875</LongitudeDegrees>
            </Position>
            <AltitudeMeters>659.79998779296875</AltitudeMeters>
            <DistanceMeters>NAN</DistanceMeters>
          </Trackpoint>
          <Trackpoint>
            <Time>2020-12-05T12:19:30.000Z</Time>
            <Position>
              <LatitudeDegrees>36.8327179737389087677001953125</LatitudeDegrees>
              <LongitudeDegrees>-4.375645481050014495849609375</LongitudeDegrees>
            </Position>
            <AltitudeMeters>659.79998779296875</AltitudeMeters>
            <DistanceMeters>NAN</DistanceMeters>
          </Trackpoint>
          <Trackpoint>
            <Time>2020-12-05T12:19:31.000Z</Time>
            <Position>
              <LatitudeDegrees>36.83272241614758968353271484375</LatitudeDegrees>
              <LongitudeDegrees>-4.3756632506847381591796875</LongitudeDegrees>
            </Position>
            <AltitudeMeters>659.79998779296875</AltitudeMeters>
            <DistanceMeters>NAN</DistanceMeters>
          </Trackpoint>
          <Trackpoint>
            <Time>2020-12-05T12:19:32.000Z</Time>
            <Position>
              <LatitudeDegrees>36.83272518217563629150390625</LatitudeDegrees>
              <LongitudeDegrees>-4.3756852112710475921630859375</LongitudeDegrees>
            </Position>
            <AltitudeMeters>659.79998779296875</AltitudeMeters>
            <DistanceMeters>NAN</DistanceMeters>
          </Trackpoint>
          <Trackpoint>
            <Time>2020-12-05T12:19:33.000Z</Time>
            <Position>
              <LatitudeDegrees>36.83273046277463436126708984375</LatitudeDegrees>
              <LongitudeDegrees>-4.37570977024734020233154296875</LongitudeDegrees>
            </Position>
            <AltitudeMeters>659.79998779296875</AltitudeMeters>
            <DistanceMeters>NAN</DistanceMeters>
          </Trackpoint>
          <Trackpoint>
            <Time>2020-12-05T12:19:34.000Z</Time>
            <Position>
              <LatitudeDegrees>36.832738928496837615966796875</LatitudeDegrees>
              <LongitudeDegrees>-4.3757294677197933197021484375</LongitudeDegrees>
            </Position>
            <AltitudeMeters>659.79998779296875</AltitudeMeters>
            <DistanceMeters>NAN</DistanceMeters>
          </Trackpoint>
          <Trackpoint>
            <Time>2020-12-05T12:19:35.000Z</Time>
            <Position>
              <LatitudeDegrees>36.83274655602872371673583984375</LatitudeDegrees>
              <LongitudeDegrees>-4.37574966810643672943115234375</LongitudeDegrees>
            </Position>
            <AltitudeMeters>659.79998779296875</AltitudeMeters>
            <DistanceMeters>NAN</DistanceMeters>
          </Trackpoint>
          <Trackpoint>
            <Time>2020-12-05T12:19:36.000Z</Time>
            <Position>
              <LatitudeDegrees>36.83275208808481693267822265625</LatitudeDegrees>
              <LongitudeDegrees>-4.375768192112445831298828125</LongitudeDegrees>
            </Position>
            <AltitudeMeters>659.79998779296875</AltitudeMeters>
            <DistanceMeters>NAN</DistanceMeters>
          </Trackpoint>
          <Trackpoint>
            <Time>2020-12-05T12:19:37.000Z</Time>
            <Position>
              <LatitudeDegrees>36.83275594376027584075927734375</LatitudeDegrees>
              <LongitudeDegrees>-4.37578738667070865631103515625</LongitudeDegrees>
            </Position>
            <AltitudeMeters>659.79998779296875</AltitudeMeters>
            <DistanceMeters>NAN</DistanceMeters>
          </Trackpoint>
          <Trackpoint>
            <Time>2020-12-05T12:19:38.000Z</Time>
            <Position>
              <LatitudeDegrees>36.83276273310184478759765625</LatitudeDegrees>
              <LongitudeDegrees>-4.3758049048483371734619140625</LongitudeDegrees>
            </Position>
            <AltitudeMeters>659.79998779296875</AltitudeMeters>
            <DistanceMeters>NAN</DistanceMeters>
          </Trackpoint>
          <Trackpoint>
            <Time>2020-12-05T12:19:39.000Z</Time>
            <Position>
              <LatitudeDegrees>36.83277019299566745758056640625</LatitudeDegrees>
              <LongitudeDegrees>-4.37581856735050678253173828125</LongitudeDegrees>
            </Position>
            <AltitudeMeters>659.79998779296875</AltitudeMeters>
            <DistanceMeters>NAN</DistanceMeters>
          </Trackpoint>
          <Trackpoint>
            <Time>2020-12-05T12:19:40.000Z</Time>
            <Position>
              <LatitudeDegrees>36.83277689851820468902587890625</LatitudeDegrees>
              <LongitudeDegrees>-4.375831224024295806884765625</LongitudeDegrees>
            </Position>
            <AltitudeMeters>659.79998779296875</AltitudeMeters>
            <DistanceMeters>NAN</DistanceMeters>
          </Trackpoint>
          <Trackpoint>
            <Time>2020-12-05T12:19:41.000Z</Time>
            <Position>
              <LatitudeDegrees>36.8327833525836467742919921875</LatitudeDegrees>
              <LongitudeDegrees>-4.37584388069808483123779296875</LongitudeDegrees>
            </Position>
            <AltitudeMeters>659.79998779296875</AltitudeMeters>
            <DistanceMeters>NAN</DistanceMeters>
          </Trackpoint>
          <Trackpoint>
            <Time>2020-12-05T12:19:42.000Z</Time>
            <Position>
              <LatitudeDegrees>36.83278863318264484405517578125</LatitudeDegrees>
              <LongitudeDegrees>-4.37585544772446155548095703125</LongitudeDegrees>
            </Position>
            <AltitudeMeters>659.79998779296875</AltitudeMeters>
            <DistanceMeters>NAN</DistanceMeters>
          </Trackpoint>
          <Trackpoint>
            <Time>2020-12-05T12:19:43.000Z</Time>
            <Position>
              <LatitudeDegrees>36.8327924050390720367431640625</LatitudeDegrees>
              <LongitudeDegrees>-4.375867433845996856689453125</LongitudeDegrees>
            </Position>
            <AltitudeMeters>659.79998779296875</AltitudeMeters>
            <DistanceMeters>NAN</DistanceMeters>
          </Trackpoint>
          <Trackpoint>
            <Time>2020-12-05T12:19:44.000Z</Time>
            <Position>
              <LatitudeDegrees>36.8327967636287212371826171875</LatitudeDegrees>
              <LongitudeDegrees>-4.3758820183575153350830078125</LongitudeDegrees>
            </Position>
            <AltitudeMeters>659.79998779296875</AltitudeMeters>
            <DistanceMeters>NAN</DistanceMeters>
          </Trackpoint>
          <Trackpoint>
            <Time>2020-12-05T12:19:45.000Z</Time>
            <Position>
              <LatitudeDegrees>36.83280154131352901458740234375</LatitudeDegrees>
              <LongitudeDegrees>-4.3758977763354778289794921875</LongitudeDegrees>
            </Position>
            <AltitudeMeters>659.79998779296875</AltitudeMeters>
            <DistanceMeters>NAN</DistanceMeters>
          </Trackpoint>
          <Trackpoint>
            <Time>2020-12-05T12:19:46.000Z</Time>
            <Position>
              <LatitudeDegrees>36.83280539698898792266845703125</LatitudeDegrees>
              <LongitudeDegrees>-4.3759125284850597381591796875</LongitudeDegrees>
            </Position>
            <AltitudeMeters>659.79998779296875</AltitudeMeters>
            <DistanceMeters>NAN</DistanceMeters>
          </Trackpoint>
          <Trackpoint>
            <Time>2020-12-05T12:19:47.000Z</Time>
            <Position>
              <LatitudeDegrees>36.83281025849282741546630859375</LatitudeDegrees>
              <LongitudeDegrees>-4.37592602334916591644287109375</LongitudeDegrees>
            </Position>
            <AltitudeMeters>659.79998779296875</AltitudeMeters>
            <DistanceMeters>NAN</DistanceMeters>
          </Trackpoint>
          <Trackpoint>
            <Time>2020-12-05T12:19:48.000Z</Time>
            <Position>
              <LatitudeDegrees>36.83281294070184230804443359375</LatitudeDegrees>
              <LongitudeDegrees>-4.37593893148005008697509765625</LongitudeDegrees>
            </Position>
            <AltitudeMeters>659.79998779296875</AltitudeMeters>
            <DistanceMeters>NAN</DistanceMeters>
          </Trackpoint>
          <Trackpoint>
            <Time>2020-12-05T12:19:49.000Z</Time>
            <Position>
              <LatitudeDegrees>36.83281612582504749298095703125</LatitudeDegrees>
              <LongitudeDegrees>-4.3759507499635219573974609375</LongitudeDegrees>
            </Position>
            <AltitudeMeters>659.79998779296875</AltitudeMeters>
            <DistanceMeters>NAN</DistanceMeters>
          </Trackpoint>
          <Trackpoint>
            <Time>2020-12-05T12:19:50.000Z</Time>
            <Position>
              <LatitudeDegrees>36.8328178860247135162353515625</LatitudeDegrees>
              <LongitudeDegrees>-4.37596022151410579681396484375</LongitudeDegrees>
            </Position>
            <AltitudeMeters>659.79998779296875</AltitudeMeters>
            <DistanceMeters>NAN</DistanceMeters>
          </Trackpoint>
          <Trackpoint>
            <Time>2020-12-05T12:19:51.000Z</Time>
            <Position>
              <LatitudeDegrees>36.83281964622437953948974609375</LatitudeDegrees>
              <LongitudeDegrees>-4.3759743869304656982421875</LongitudeDegrees>
            </Position>
            <AltitudeMeters>659.79998779296875</AltitudeMeters>
            <DistanceMeters>NAN</DistanceMeters>
          </Trackpoint>
          <Trackpoint>
            <Time>2020-12-05T12:19:52.000Z</Time>
            <Position>
              <LatitudeDegrees>36.83282199315726757049560546875</LatitudeDegrees>
              <LongitudeDegrees>-4.37598846852779388427734375</LongitudeDegrees>
            </Position>
            <AltitudeMeters>659.79998779296875</AltitudeMeters>
            <DistanceMeters>NAN</DistanceMeters>
          </Trackpoint>
          <Trackpoint>
            <Time>2020-12-05T12:19:53.000Z</Time>
            <Position>
              <LatitudeDegrees>36.83282601647078990936279296875</LatitudeDegrees>
              <LongitudeDegrees>-4.375999867916107177734375</LongitudeDegrees>
            </Position>
            <AltitudeMeters>659.79998779296875</AltitudeMeters>
            <DistanceMeters>NAN</DistanceMeters>
          </Trackpoint>
          <Trackpoint>
            <Time>2020-12-05T12:19:54.000Z</Time>
            <Position>
              <LatitudeDegrees>36.83283154852688312530517578125</LatitudeDegrees>
              <LongitudeDegrees>-4.37601386569440364837646484375</LongitudeDegrees>
            </Position>
            <AltitudeMeters>659.79998779296875</AltitudeMeters>
            <DistanceMeters>NAN</DistanceMeters>
          </Trackpoint>
          <Trackpoint>
            <Time>2020-12-05T12:19:55.000Z</Time>
            <Position>
              <LatitudeDegrees>36.8328403495252132415771484375</LatitudeDegrees>
              <LongitudeDegrees>-4.3760245107114315032958984375</LongitudeDegrees>
            </Position>
            <AltitudeMeters>659.79998779296875</AltitudeMeters>
            <DistanceMeters>NAN</DistanceMeters>
          </Trackpoint>
          <Trackpoint>
            <Time>2020-12-05T12:19:56.000Z</Time>
            <Position>
              <LatitudeDegrees>36.832846887409687042236328125</LatitudeDegrees>
              <LongitudeDegrees>-4.37603716738522052764892578125</LongitudeDegrees>
            </Position>
            <AltitudeMeters>659.79998779296875</AltitudeMeters>
            <DistanceMeters>NAN</DistanceMeters>
          </Trackpoint>
          <Trackpoint>
            <Time>2020-12-05T12:19:57.000Z</Time>
            <Position>
              <LatitudeDegrees>36.83285434730350971221923828125</LatitudeDegrees>
              <LongitudeDegrees>-4.37605082988739013671875</LongitudeDegrees>
            </Position>
            <AltitudeMeters>659.79998779296875</AltitudeMeters>
            <DistanceMeters>NAN</DistanceMeters>
          </Trackpoint>
          <Trackpoint>
            <Time>2020-12-05T12:19:58.000Z</Time>
            <Position>
              <LatitudeDegrees>36.83286390267312526702880859375</LatitudeDegrees>
              <LongitudeDegrees>-4.37606398947536945343017578125</LongitudeDegrees>
            </Position>
            <AltitudeMeters>659.79998779296875</AltitudeMeters>
            <DistanceMeters>NAN</DistanceMeters>
          </Trackpoint>
          <Trackpoint>
            <Time>2020-12-05T12:19:59.000Z</Time>
            <Position>
              <LatitudeDegrees>36.832872368395328521728515625</LatitudeDegrees>
              <LongitudeDegrees>-4.3760778196156024932861328125</LongitudeDegrees>
            </Position>
            <AltitudeMeters>659.79998779296875</AltitudeMeters>
            <DistanceMeters>NAN</DistanceMeters>
          </Trackpoint>
          <Trackpoint>
            <Time>2020-12-05T12:20:00.000Z</Time>
            <Position>
              <LatitudeDegrees>36.8328836001455783843994140625</LatitudeDegrees>
              <LongitudeDegrees>-4.37608863227069377899169921875</LongitudeDegrees>
            </Position>
            <AltitudeMeters>657.4000244140625</AltitudeMeters>
            <DistanceMeters>NAN</DistanceMeters>
          </Trackpoint>
          <Trackpoint>
            <Time>2020-12-05T12:20:01.000Z</Time>
            <Position>
              <LatitudeDegrees>36.83289508335292339324951171875</LatitudeDegrees>
              <LongitudeDegrees>-4.37610137276351451873779296875</LongitudeDegrees>
            </Position>
            <AltitudeMeters>657.4000244140625</AltitudeMeters>
            <DistanceMeters>NAN</DistanceMeters>
          </Trackpoint>
          <Trackpoint>
            <Time>2020-12-05T12:20:02.000Z</Time>
            <Position>
              <LatitudeDegrees>36.83290698565542697906494140625</LatitudeDegrees>
              <LongitudeDegrees>-4.37611721456050872802734375</LongitudeDegrees>
            </Position>
            <AltitudeMeters>657.4000244140625</AltitudeMeters>
            <DistanceMeters>NAN</DistanceMeters>
          </Trackpoint>
          <Trackpoint>
            <Time>2020-12-05T12:20:03.000Z</Time>
            <Position>
              <LatitudeDegrees>36.83291754685342311859130859375</LatitudeDegrees>
              <LongitudeDegrees>-4.37613355927169322967529296875</LongitudeDegrees>
            </Position>
            <AltitudeMeters>657.4000244140625</AltitudeMeters>
            <DistanceMeters>NAN</DistanceMeters>
          </Trackpoint>
          <Trackpoint>
            <Time>2020-12-05T12:20:04.000Z</Time>
            <Position>
              <LatitudeDegrees>36.8329275213181972503662109375</LatitudeDegrees>
              <LongitudeDegrees>-4.37615208327770233154296875</LongitudeDegrees>
            </Position>
            <AltitudeMeters>657.4000244140625</AltitudeMeters>
            <DistanceMeters>NAN</DistanceMeters>
          </Trackpoint>
          <Trackpoint>
            <Time>2020-12-05T12:20:05.000Z</Time>
            <Position>
              <LatitudeDegrees>36.83293933980166912078857421875</LatitudeDegrees>
              <LongitudeDegrees>-4.3761700205504894256591796875</LongitudeDegrees>
            </Position>
            <AltitudeMeters>657.4000244140625</AltitudeMeters>
            <DistanceMeters>NAN</DistanceMeters>
          </Trackpoint>
          <Trackpoint>
            <Time>2020-12-05T12:20:06.000Z</Time>
            <Position>
              <LatitudeDegrees>36.8329509906470775604248046875</LatitudeDegrees>
              <LongitudeDegrees>-4.3761877901852130889892578125</LongitudeDegrees>
            </Position>
            <AltitudeMeters>657.4000244140625</AltitudeMeters>
            <DistanceMeters>NAN</DistanceMeters>
          </Trackpoint>
          <Trackpoint>
            <Time>2020-12-05T12:20:07.000Z</Time>
            <Position>
              <LatitudeDegrees>36.83296079747378826141357421875</LatitudeDegrees>
              <LongitudeDegrees>-4.376203715801239013671875</LongitudeDegrees>
            </Position>
            <AltitudeMeters>657.4000244140625</AltitudeMeters>
            <DistanceMeters>NAN</DistanceMeters>
          </Trackpoint>
          <Trackpoint>
            <Time>2020-12-05T12:20:08.000Z</Time>
            <Position>
              <LatitudeDegrees>36.83296767063438892364501953125</LatitudeDegrees>
              <LongitudeDegrees>-4.37621704302728176116943359375</LongitudeDegrees>
            </Position>
            <AltitudeMeters>657.4000244140625</AltitudeMeters>
            <DistanceMeters>NAN</DistanceMeters>
          </Trackpoint>
          <Trackpoint>
            <Time>2020-12-05T12:20:09.000Z</Time>
            <Position>
              <LatitudeDegrees>36.83297068811953067779541015625</LatitudeDegrees>
              <LongitudeDegrees>-4.37623414210975170135498046875</LongitudeDegrees>
            </Position>
            <AltitudeMeters>657.4000244140625</AltitudeMeters>
            <DistanceMeters>NAN</DistanceMeters>
          </Trackpoint>
          <Trackpoint>
            <Time>2020-12-05T12:20:10.000Z</Time>
            <Position>
              <LatitudeDegrees>36.8329761363565921783447265625</LatitudeDegrees>
              <LongitudeDegrees>-4.3762444518506526947021484375</LongitudeDegrees>
            </Position>
            <AltitudeMeters>657.4000244140625</AltitudeMeters>
            <DistanceMeters>NAN</DistanceMeters>
          </Trackpoint>
          <Trackpoint>
            <Time>2020-12-05T12:20:11.000Z</Time>
            <Position>
              <LatitudeDegrees>36.8329882062971591949462890625</LatitudeDegrees>
              <LongitudeDegrees>-4.3762535043060779571533203125</LongitudeDegrees>
            </Position>
            <AltitudeMeters>657.4000244140625</AltitudeMeters>
            <DistanceMeters>NAN</DistanceMeters>
          </Trackpoint>
          <Trackpoint>
            <Time>2020-12-05T12:20:12.000Z</Time>
            <Position>
              <LatitudeDegrees>36.8329999409615993499755859375</LatitudeDegrees>
              <LongitudeDegrees>-4.37626129947602748870849609375</LongitudeDegrees>
            </Position>
            <AltitudeMeters>657.4000244140625</AltitudeMeters>
            <DistanceMeters>NAN</DistanceMeters>
          </Trackpoint>
          <Trackpoint>
            <Time>2020-12-05T12:20:13.000Z</Time>
            <Position>
              <LatitudeDegrees>36.8330128490924835205078125</LatitudeDegrees>
              <LongitudeDegrees>-4.37627303414046764373779296875</LongitudeDegrees>
            </Position>
            <AltitudeMeters>657.4000244140625</AltitudeMeters>
            <DistanceMeters>NAN</DistanceMeters>
          </Trackpoint>
          <Trackpoint>
            <Time>2020-12-05T12:20:14.000Z</Time>
            <Position>
              <LatitudeDegrees>36.83302600868046283721923828125</LatitudeDegrees>
              <LongitudeDegrees>-4.37628485262393951416015625</LongitudeDegrees>
            </Position>
            <AltitudeMeters>657.4000244140625</AltitudeMeters>
            <DistanceMeters>NAN</DistanceMeters>
          </Trackpoint>
          <Trackpoint>
            <Time>2020-12-05T12:20:15.000Z</Time>
            <Position>
              <LatitudeDegrees>36.83303522877395153045654296875</LatitudeDegrees>
              <LongitudeDegrees>-4.376293905079364776611328125</LongitudeDegrees>
            </Position>
            <AltitudeMeters>657.4000244140625</AltitudeMeters>
            <DistanceMeters>NAN</DistanceMeters>
          </Trackpoint>
          <Trackpoint>
            <Time>2020-12-05T12:20:16.000Z</Time>
            <Position>
              <LatitudeDegrees>36.83304570615291595458984375</LatitudeDegrees>
              <LongitudeDegrees>-4.37630404718220233917236328125</LongitudeDegrees>
            </Position>
            <AltitudeMeters>657.4000244140625</AltitudeMeters>
            <DistanceMeters>NAN</DistanceMeters>
          </Trackpoint>
          <Trackpoint>
            <Time>2020-12-05T12:20:17.000Z</Time>
            <Position>
              <LatitudeDegrees>36.8330562673509120941162109375</LatitudeDegrees>
              <LongitudeDegrees>-4.37631494365632534027099609375</LongitudeDegrees>
            </Position>
            <AltitudeMeters>657.4000244140625</AltitudeMeters>
            <DistanceMeters>NAN</DistanceMeters>
          </Trackpoint>
          <Trackpoint>
            <Time>2020-12-05T12:20:18.000Z</Time>
            <Position>
              <LatitudeDegrees>36.8330659903585910797119140625</LatitudeDegrees>
              <LongitudeDegrees>-4.3763259239494800567626953125</LongitudeDegrees>
            </Position>
            <AltitudeMeters>657.4000244140625</AltitudeMeters>
            <DistanceMeters>NAN</DistanceMeters>
          </Trackpoint>
          <Trackpoint>
            <Time>2020-12-05T12:20:19.000Z</Time>
            <Position>
              <LatitudeDegrees>36.83307630009949207305908203125</LatitudeDegrees>
              <LongitudeDegrees>-4.3763369880616664886474609375</LongitudeDegrees>
            </Position>
            <AltitudeMeters>657.4000244140625</AltitudeMeters>
            <DistanceMeters>NAN</DistanceMeters>
          </Trackpoint>
          <Trackpoint>
            <Time>2020-12-05T12:20:20.000Z</Time>
            <Position>
              <LatitudeDegrees>36.83308484964072704315185546875</LatitudeDegrees>
              <LongitudeDegrees>-4.3763477168977260589599609375</LongitudeDegrees>
            </Position>
            <AltitudeMeters>657.4000244140625</AltitudeMeters>
            <DistanceMeters>NAN</DistanceMeters>
          </Trackpoint>
          <Trackpoint>
            <Time>2020-12-05T12:20:21.000Z</Time>
            <Position>
              <LatitudeDegrees>36.83309121988713741302490234375</LatitudeDegrees>
              <LongitudeDegrees>-4.37635852955281734466552734375</LongitudeDegrees>
            </Position>
            <AltitudeMeters>657.4000244140625</AltitudeMeters>
            <DistanceMeters>NAN</DistanceMeters>
          </Trackpoint>
          <Trackpoint>
            <Time>2020-12-05T12:20:22.000Z</Time>
            <Position>
              <LatitudeDegrees>36.8330958299338817596435546875</LatitudeDegrees>
              <LongitudeDegrees>-4.376371689140796661376953125</LongitudeDegrees>
            </Position>
            <AltitudeMeters>657.4000244140625</AltitudeMeters>
            <DistanceMeters>NAN</DistanceMeters>
          </Trackpoint>
          <Trackpoint>
            <Time>2020-12-05T12:20:23.000Z</Time>
            <Position>
              <LatitudeDegrees>36.83310194872319698333740234375</LatitudeDegrees>
              <LongitudeDegrees>-4.376385770738124847412109375</LongitudeDegrees>
            </Position>
            <AltitudeMeters>657.4000244140625</AltitudeMeters>
            <DistanceMeters>NAN</DistanceMeters>
          </Trackpoint>
          <Trackpoint>
            <Time>2020-12-05T12:20:24.000Z</Time>
            <Position>
              <LatitudeDegrees>36.8331089057028293609619140625</LatitudeDegrees>
              <LongitudeDegrees>-4.376402199268341064453125</LongitudeDegrees>
            </Position>
            <AltitudeMeters>657.4000244140625</AltitudeMeters>
            <DistanceMeters>NAN</DistanceMeters>
          </Trackpoint>
          <Trackpoint>
            <Time>2020-12-05T12:20:25.000Z</Time>
            <Position>
              <LatitudeDegrees>36.8331169523298740386962890625</LatitudeDegrees>
              <LongitudeDegrees>-4.37641552649438381195068359375</LongitudeDegrees>
            </Position>
            <AltitudeMeters>657.4000244140625</AltitudeMeters>
            <DistanceMeters>NAN</DistanceMeters>
          </Trackpoint>
          <Trackpoint>
            <Time>2020-12-05T12:20:26.000Z</Time>
            <Position>
              <LatitudeDegrees>36.8331260047852993011474609375</LatitudeDegrees>
              <LongitudeDegrees>-4.3764261715114116668701171875</LongitudeDegrees>
            </Position>
            <AltitudeMeters>657.4000244140625</AltitudeMeters>
            <DistanceMeters>NAN</DistanceMeters>
          </Trackpoint>
          <Trackpoint>
            <Time>2020-12-05T12:20:27.000Z</Time>
            <Position>
              <LatitudeDegrees>36.83313229121267795562744140625</LatitudeDegrees>
              <LongitudeDegrees>-4.37643907964229583740234375</LongitudeDegrees>
            </Position>
            <AltitudeMeters>657.4000244140625</AltitudeMeters>
            <DistanceMeters>NAN</DistanceMeters>
          </Trackpoint>
          <Trackpoint>
            <Time>2020-12-05T12:20:28.000Z</Time>
            <Position>
              <LatitudeDegrees>36.8331390805542469024658203125</LatitudeDegrees>
              <LongitudeDegrees>-4.37644922174513339996337890625</LongitudeDegrees>
            </Position>
            <AltitudeMeters>657.4000244140625</AltitudeMeters>
            <DistanceMeters>NAN</DistanceMeters>
          </Trackpoint>
          <Trackpoint>
            <Time>2020-12-05T12:20:29.000Z</Time>
            <Position>
              <LatitudeDegrees>36.8331461213529109954833984375</LatitudeDegrees>
              <LongitudeDegrees>-4.37646011821925640106201171875</LongitudeDegrees>
            </Position>
            <AltitudeMeters>657.4000244140625</AltitudeMeters>
            <DistanceMeters>NAN</DistanceMeters>
          </Trackpoint>
          <Trackpoint>
            <Time>2020-12-05T12:20:30.000Z</Time>
            <Position>
              <LatitudeDegrees>36.83315156958997249603271484375</LatitudeDegrees>
              <LongitudeDegrees>-4.3764679133892059326171875</LongitudeDegrees>
            </Position>
            <AltitudeMeters>657.4000244140625</AltitudeMeters>
            <DistanceMeters>NAN</DistanceMeters>
          </Trackpoint>
          <Trackpoint>
            <Time>2020-12-05T12:20:31.000Z</Time>
            <Position>
              <LatitudeDegrees>36.833159364759922027587890625</LatitudeDegrees>
              <LongitudeDegrees>-4.376477301120758056640625</LongitudeDegrees>
            </Position>
            <AltitudeMeters>657.4000244140625</AltitudeMeters>
            <DistanceMeters>NAN</DistanceMeters>
          </Trackpoint>
          <Trackpoint>
            <Time>2020-12-05T12:20:32.000Z</Time>
            <Position>
              <LatitudeDegrees>36.8331695906817913055419921875</LatitudeDegrees>
              <LongitudeDegrees>-4.37648861669003963470458984375</LongitudeDegrees>
            </Position>
            <AltitudeMeters>657.4000244140625</AltitudeMeters>
            <DistanceMeters>NAN</DistanceMeters>
          </Trackpoint>
          <Trackpoint>
            <Time>2020-12-05T12:20:33.000Z</Time>
            <Position>
              <LatitudeDegrees>36.83318040333688259124755859375</LatitudeDegrees>
              <LongitudeDegrees>-4.376498758792877197265625</LongitudeDegrees>
            </Position>
            <AltitudeMeters>657.4000244140625</AltitudeMeters>
            <DistanceMeters>NAN</DistanceMeters>
          </Trackpoint>
          <Trackpoint>
            <Time>2020-12-05T12:20:34.000Z</Time>
            <Position>
              <LatitudeDegrees>36.83319146744906902313232421875</LatitudeDegrees>
              <LongitudeDegrees>-4.3765079788863658905029296875</LongitudeDegrees>
            </Position>
            <AltitudeMeters>657.4000244140625</AltitudeMeters>
            <DistanceMeters>NAN</DistanceMeters>
          </Trackpoint>
          <Trackpoint>
            <Time>2020-12-05T12:20:35.000Z</Time>
            <Position>
              <LatitudeDegrees>36.83320261538028717041015625</LatitudeDegrees>
              <LongitudeDegrees>-4.3765160255134105682373046875</LongitudeDegrees>
            </Position>
            <AltitudeMeters>657.4000244140625</AltitudeMeters>
            <DistanceMeters>NAN</DistanceMeters>
          </Trackpoint>
          <Trackpoint>
            <Time>2020-12-05T12:20:36.000Z</Time>
            <Position>
              <LatitudeDegrees>36.83321208693087100982666015625</LatitudeDegrees>
              <LongitudeDegrees>-4.37652734108269214630126953125</LongitudeDegrees>
            </Position>
            <AltitudeMeters>657.4000244140625</AltitudeMeters>
            <DistanceMeters>NAN</DistanceMeters>
          </Trackpoint>
          <Trackpoint>
            <Time>2020-12-05T12:20:37.000Z</Time>
            <Position>
              <LatitudeDegrees>36.83322013355791568756103515625</LatitudeDegrees>
              <LongitudeDegrees>-4.3765371479094028472900390625</LongitudeDegrees>
            </Position>
            <AltitudeMeters>657.4000244140625</AltitudeMeters>
            <DistanceMeters>NAN</DistanceMeters>
          </Trackpoint>
          <Trackpoint>
            <Time>2020-12-05T12:20:38.000Z</Time>
            <Position>
              <LatitudeDegrees>36.833231784403324127197265625</LatitudeDegrees>
              <LongitudeDegrees>-4.37654376961290836334228515625</LongitudeDegrees>
            </Position>
            <AltitudeMeters>657.4000244140625</AltitudeMeters>
            <DistanceMeters>NAN</DistanceMeters>
          </Trackpoint>
          <Trackpoint>
            <Time>2020-12-05T12:20:39.000Z</Time>
            <Position>
              <LatitudeDegrees>36.8332462012767791748046875</LatitudeDegrees>
              <LongitudeDegrees>-4.3765502236783504486083984375</LongitudeDegrees>
            </Position>
            <AltitudeMeters>657.4000244140625</AltitudeMeters>
            <DistanceMeters>NAN</DistanceMeters>
          </Trackpoint>
          <Trackpoint>
            <Time>2020-12-05T12:20:40.000Z</Time>
            <Position>
              <LatitudeDegrees>36.83326028287410736083984375</LatitudeDegrees>
              <LongitudeDegrees>-4.37655583955347537994384765625</LongitudeDegrees>
            </Position>
            <AltitudeMeters>657.4000244140625</AltitudeMeters>
            <DistanceMeters>NAN</DistanceMeters>
          </Trackpoint>
          <Trackpoint>
            <Time>2020-12-05T12:20:41.000Z</Time>
            <Position>
              <LatitudeDegrees>36.83327511884272098541259765625</LatitudeDegrees>
              <LongitudeDegrees>-4.37656254507601261138916015625</LongitudeDegrees>
            </Position>
            <AltitudeMeters>657.4000244140625</AltitudeMeters>
            <DistanceMeters>NAN</DistanceMeters>
          </Trackpoint>
          <Trackpoint>
            <Time>2020-12-05T12:20:42.000Z</Time>
            <Position>
              <LatitudeDegrees>36.83328702114522457122802734375</LatitudeDegrees>
              <LongitudeDegrees>-4.37656916677951812744140625</LongitudeDegrees>
            </Position>
            <AltitudeMeters>657.4000244140625</AltitudeMeters>
            <DistanceMeters>NAN</DistanceMeters>
          </Trackpoint>
          <Trackpoint>
            <Time>2020-12-05T12:20:43.000Z</Time>
            <Position>
              <LatitudeDegrees>36.83330059982836246490478515625</LatitudeDegrees>
              <LongitudeDegrees>-4.37657587230205535888671875</LongitudeDegrees>
            </Position>
            <AltitudeMeters>657.4000244140625</AltitudeMeters>
            <DistanceMeters>NAN</DistanceMeters>
          </Trackpoint>
          <Trackpoint>
            <Time>2020-12-05T12:20:44.000Z</Time>
            <Position>
              <LatitudeDegrees>36.83331484906375408172607421875</LatitudeDegrees>
              <LongitudeDegrees>-4.376582242548465728759765625</LongitudeDegrees>
            </Position>
            <AltitudeMeters>657.4000244140625</AltitudeMeters>
            <DistanceMeters>NAN</DistanceMeters>
          </Trackpoint>
          <Trackpoint>
            <Time>2020-12-05T12:20:45.000Z</Time>
            <Position>
              <LatitudeDegrees>36.8333278410136699676513671875</LatitudeDegrees>
              <LongitudeDegrees>-4.3765911273658275604248046875</LongitudeDegrees>
            </Position>
            <AltitudeMeters>657.4000244140625</AltitudeMeters>
            <DistanceMeters>NAN</DistanceMeters>
          </Trackpoint>
          <Trackpoint>
            <Time>2020-12-05T12:20:46.000Z</Time>
            <Position>
              <LatitudeDegrees>36.8333405815064907073974609375</LatitudeDegrees>
              <LongitudeDegrees>-4.37659959308803081512451171875</LongitudeDegrees>
            </Position>
            <AltitudeMeters>657.4000244140625</AltitudeMeters>
            <DistanceMeters>NAN</DistanceMeters>
          </Trackpoint>
          <Trackpoint>
            <Time>2020-12-05T12:20:47.000Z</Time>
            <Position>
              <LatitudeDegrees>36.83335483074188232421875</LatitudeDegrees>
              <LongitudeDegrees>-4.376605711877346038818359375</LongitudeDegrees>
            </Position>
            <AltitudeMeters>657.4000244140625</AltitudeMeters>
            <DistanceMeters>NAN</DistanceMeters>
          </Trackpoint>
          <Trackpoint>
            <Time>2020-12-05T12:20:48.000Z</Time>
            <Position>
              <LatitudeDegrees>36.8333660624921321868896484375</LatitudeDegrees>
              <LongitudeDegrees>-4.3766132555902004241943359375</LongitudeDegrees>
            </Position>
            <AltitudeMeters>657.4000244140625</AltitudeMeters>
            <DistanceMeters>NAN</DistanceMeters>
          </Trackpoint>
          <Trackpoint>
            <Time>2020-12-05T12:20:49.000Z</Time>
            <Position>
              <LatitudeDegrees>36.83337670750916004180908203125</LatitudeDegrees>
              <LongitudeDegrees>-4.37662339769303798675537109375</LongitudeDegrees>
            </Position>
            <AltitudeMeters>657.4000244140625</AltitudeMeters>
            <DistanceMeters>NAN</DistanceMeters>
          </Trackpoint>
          <Trackpoint>
            <Time>2020-12-05T12:20:50.000Z</Time>
            <Position>
              <LatitudeDegrees>36.83338827453553676605224609375</LatitudeDegrees>
              <LongitudeDegrees>-4.3766410835087299346923828125</LongitudeDegrees>
            </Position>
            <AltitudeMeters>657.4000244140625</AltitudeMeters>
            <DistanceMeters>NAN</DistanceMeters>
          </Trackpoint>
          <Trackpoint>
            <Time>2020-12-05T12:20:51.000Z</Time>
            <Position>
              <LatitudeDegrees>36.83340168558061122894287109375</LatitudeDegrees>
              <LongitudeDegrees>-4.37665633857250213623046875</LongitudeDegrees>
            </Position>
            <AltitudeMeters>657.4000244140625</AltitudeMeters>
            <DistanceMeters>NAN</DistanceMeters>
          </Trackpoint>
          <Trackpoint>
            <Time>2020-12-05T12:20:52.000Z</Time>
            <Position>
              <LatitudeDegrees>36.83341450989246368408203125</LatitudeDegrees>
              <LongitudeDegrees>-4.3766717612743377685546875</LongitudeDegrees>
            </Position>
            <AltitudeMeters>657.4000244140625</AltitudeMeters>
            <DistanceMeters>NAN</DistanceMeters>
          </Trackpoint>
          <Trackpoint>
            <Time>2020-12-05T12:20:53.000Z</Time>
            <Position>
              <LatitudeDegrees>36.8334244005382061004638671875</LatitudeDegrees>
              <LongitudeDegrees>-4.37668693251907825469970703125</LongitudeDegrees>
            </Position>
            <AltitudeMeters>657.4000244140625</AltitudeMeters>
            <DistanceMeters>NAN</DistanceMeters>
          </Trackpoint>
          <Trackpoint>
            <Time>2020-12-05T12:20:54.000Z</Time>
            <Position>
              <LatitudeDegrees>36.83343253098428249359130859375</LatitudeDegrees>
              <LongitudeDegrees>-4.37669766135513782501220703125</LongitudeDegrees>
            </Position>
            <AltitudeMeters>657.4000244140625</AltitudeMeters>
            <DistanceMeters>NAN</DistanceMeters>
          </Trackpoint>
          <Trackpoint>
            <Time>2020-12-05T12:20:55.000Z</Time>
            <Position>
              <LatitudeDegrees>36.8334418348968029022216796875</LatitudeDegrees>
              <LongitudeDegrees>-4.37671056948602199554443359375</LongitudeDegrees>
            </Position>
            <AltitudeMeters>657.4000244140625</AltitudeMeters>
            <DistanceMeters>NAN</DistanceMeters>
          </Trackpoint>
          <Trackpoint>
            <Time>2020-12-05T12:20:56.000Z</Time>
            <Position>
              <LatitudeDegrees>36.83345046825706958770751953125</LatitudeDegrees>
              <LongitudeDegrees>-4.37672297470271587371826171875</LongitudeDegrees>
            </Position>
            <AltitudeMeters>657.4000244140625</AltitudeMeters>
            <DistanceMeters>NAN</DistanceMeters>
          </Trackpoint>
          <Trackpoint>
            <Time>2020-12-05T12:20:57.000Z</Time>
            <Position>
              <LatitudeDegrees>36.833459436893463134765625</LatitudeDegrees>
              <LongitudeDegrees>-4.3767376430332660675048828125</LongitudeDegrees>
            </Position>
            <AltitudeMeters>657.4000244140625</AltitudeMeters>
            <DistanceMeters>NAN</DistanceMeters>
          </Trackpoint>
          <Trackpoint>
            <Time>2020-12-05T12:20:58.000Z</Time>
            <Position>
              <LatitudeDegrees>36.833468489348888397216796875</LatitudeDegrees>
              <LongitudeDegrees>-4.376751892268657684326171875</LongitudeDegrees>
            </Position>
            <AltitudeMeters>657.4000244140625</AltitudeMeters>
            <DistanceMeters>NAN</DistanceMeters>
          </Trackpoint>
          <Trackpoint>
            <Time>2020-12-05T12:20:59.000Z</Time>
            <Position>
              <LatitudeDegrees>36.83347410522401332855224609375</LatitudeDegrees>
              <LongitudeDegrees>-4.37676371075212955474853515625</LongitudeDegrees>
            </Position>
            <AltitudeMeters>657.4000244140625</AltitudeMeters>
            <DistanceMeters>NAN</DistanceMeters>
          </Trackpoint>
          <Trackpoint>
            <Time>2020-12-05T12:21:00.000Z</Time>
            <Position>
              <LatitudeDegrees>36.8334767036139965057373046875</LatitudeDegrees>
              <LongitudeDegrees>-4.376777373254299163818359375</LongitudeDegrees>
            </Position>
            <AltitudeMeters>653</AltitudeMeters>
            <DistanceMeters>NAN</DistanceMeters>
          </Trackpoint>
          <Trackpoint>
            <Time>2020-12-05T12:21:01.000Z</Time>
            <Position>
              <LatitudeDegrees>36.83348357677459716796875</LatitudeDegrees>
              <LongitudeDegrees>-4.37679103575646877288818359375</LongitudeDegrees>
            </Position>
            <AltitudeMeters>653</AltitudeMeters>
            <DistanceMeters>NAN</DistanceMeters>
          </Trackpoint>
          <Trackpoint>
            <Time>2020-12-05T12:21:02.000Z</Time>
            <Position>
              <LatitudeDegrees>36.83349321596324443817138671875</LatitudeDegrees>
              <LongitudeDegrees>-4.3768080510199069976806640625</LongitudeDegrees>
            </Position>
            <AltitudeMeters>653</AltitudeMeters>
            <DistanceMeters>NAN</DistanceMeters>
          </Trackpoint>
          <Trackpoint>
            <Time>2020-12-05T12:21:03.000Z</Time>
            <Position>
              <LatitudeDegrees>36.833503358066082000732421875</LatitudeDegrees>
              <LongitudeDegrees>-4.3768214620649814605712890625</LongitudeDegrees>
            </Position>
            <AltitudeMeters>653</AltitudeMeters>
            <DistanceMeters>NAN</DistanceMeters>
          </Trackpoint>
          <Trackpoint>
            <Time>2020-12-05T12:21:04.000Z</Time>
            <Position>
              <LatitudeDegrees>36.83351350016891956329345703125</LatitudeDegrees>
              <LongitudeDegrees>-4.37683470547199249267578125</LongitudeDegrees>
            </Position>
            <AltitudeMeters>653</AltitudeMeters>
            <DistanceMeters>NAN</DistanceMeters>
          </Trackpoint>
          <Trackpoint>
            <Time>2020-12-05T12:21:05.000Z</Time>
            <Position>
              <LatitudeDegrees>36.8335266597568988800048828125</LatitudeDegrees>
              <LongitudeDegrees>-4.376843757927417755126953125</LongitudeDegrees>
            </Position>
            <AltitudeMeters>653</AltitudeMeters>
            <DistanceMeters>NAN</DistanceMeters>
          </Trackpoint>
          <Trackpoint>
            <Time>2020-12-05T12:21:06.000Z</Time>
            <Position>
              <LatitudeDegrees>36.83354132808744907379150390625</LatitudeDegrees>
              <LongitudeDegrees>-4.3768546544015407562255859375</LongitudeDegrees>
            </Position>
            <AltitudeMeters>653</AltitudeMeters>
            <DistanceMeters>NAN</DistanceMeters>
          </Trackpoint>
          <Trackpoint>
            <Time>2020-12-05T12:21:07.000Z</Time>
            <Position>
              <LatitudeDegrees>36.8335561640560626983642578125</LatitudeDegrees>
              <LongitudeDegrees>-4.37686513178050518035888671875</LongitudeDegrees>
            </Position>
            <AltitudeMeters>653</AltitudeMeters>
            <DistanceMeters>NAN</DistanceMeters>
          </Trackpoint>
          <Trackpoint>
            <Time>2020-12-05T12:21:08.000Z</Time>
            <Position>
              <LatitudeDegrees>36.83356915600597858428955078125</LatitudeDegrees>
              <LongitudeDegrees>-4.37687636353075504302978515625</LongitudeDegrees>
            </Position>
            <AltitudeMeters>653</AltitudeMeters>
            <DistanceMeters>NAN</DistanceMeters>
          </Trackpoint>
          <Trackpoint>
            <Time>2020-12-05T12:21:09.000Z</Time>
            <Position>
              <LatitudeDegrees>36.833582818508148193359375</LatitudeDegrees>
              <LongitudeDegrees>-4.37688910402357578277587890625</LongitudeDegrees>
            </Position>
            <AltitudeMeters>653</AltitudeMeters>
            <DistanceMeters>NAN</DistanceMeters>
          </Trackpoint>
          <Trackpoint>
            <Time>2020-12-05T12:21:10.000Z</Time>
            <Position>
              <LatitudeDegrees>36.83359715156257152557373046875</LatitudeDegrees>
              <LongitudeDegrees>-4.37690033577382564544677734375</LongitudeDegrees>
            </Position>
            <AltitudeMeters>653</AltitudeMeters>
            <DistanceMeters>NAN</DistanceMeters>
          </Trackpoint>
          <Trackpoint>
            <Time>2020-12-05T12:21:11.000Z</Time>
            <Position>
              <LatitudeDegrees>36.833611987531185150146484375</LatitudeDegrees>
              <LongitudeDegrees>-4.3769049458205699920654296875</LongitudeDegrees>
            </Position>
            <AltitudeMeters>653</AltitudeMeters>
            <DistanceMeters>NAN</DistanceMeters>
          </Trackpoint>
          <Trackpoint>
            <Time>2020-12-05T12:21:12.000Z</Time>
            <Position>
              <LatitudeDegrees>36.83362732641398906707763671875</LatitudeDegrees>
              <LongitudeDegrees>-4.376905448734760284423828125</LongitudeDegrees>
            </Position>
            <AltitudeMeters>653</AltitudeMeters>
            <DistanceMeters>NAN</DistanceMeters>
          </Trackpoint>
          <Trackpoint>
            <Time>2020-12-05T12:21:13.000Z</Time>
            <Position>
              <LatitudeDegrees>36.83364341966807842254638671875</LatitudeDegrees>
              <LongitudeDegrees>-4.37690670602023601531982421875</LongitudeDegrees>
            </Position>
            <AltitudeMeters>653</AltitudeMeters>
            <DistanceMeters>NAN</DistanceMeters>
          </Trackpoint>
          <Trackpoint>
            <Time>2020-12-05T12:21:14.000Z</Time>
            <Position>
              <LatitudeDegrees>36.83366102166473865509033203125</LatitudeDegrees>
              <LongitudeDegrees>-4.376907460391521453857421875</LongitudeDegrees>
            </Position>
            <AltitudeMeters>653</AltitudeMeters>
            <DistanceMeters>NAN</DistanceMeters>
          </Trackpoint>
          <Trackpoint>
            <Time>2020-12-05T12:21:15.000Z</Time>
            <Position>
              <LatitudeDegrees>36.83367895893752574920654296875</LatitudeDegrees>
              <LongitudeDegrees>-4.376911818981170654296875</LongitudeDegrees>
            </Position>
            <AltitudeMeters>653</AltitudeMeters>
            <DistanceMeters>NAN</DistanceMeters>
          </Trackpoint>
          <Trackpoint>
            <Time>2020-12-05T12:21:16.000Z</Time>
            <Position>
              <LatitudeDegrees>36.83369589038193225860595703125</LatitudeDegrees>
              <LongitudeDegrees>-4.37691693194210529327392578125</LongitudeDegrees>
            </Position>
            <AltitudeMeters>653</AltitudeMeters>
            <DistanceMeters>NAN</DistanceMeters>
          </Trackpoint>
          <Trackpoint>
            <Time>2020-12-05T12:21:17.000Z</Time>
            <Position>
              <LatitudeDegrees>36.83371265418827533721923828125</LatitudeDegrees>
              <LongitudeDegrees>-4.37691978178918361663818359375</LongitudeDegrees>
            </Position>
            <AltitudeMeters>653</AltitudeMeters>
            <DistanceMeters>NAN</DistanceMeters>
          </Trackpoint>
          <Trackpoint>
            <Time>2020-12-05T12:21:18.000Z</Time>
            <Position>
              <LatitudeDegrees>36.83372723869979381561279296875</LatitudeDegrees>
              <LongitudeDegrees>-4.37692321836948394775390625</LongitudeDegrees>
            </Position>
            <AltitudeMeters>653</AltitudeMeters>
            <DistanceMeters>NAN</DistanceMeters>
          </Trackpoint>
          <Trackpoint>
            <Time>2020-12-05T12:21:19.000Z</Time>
            <Position>
              <LatitudeDegrees>36.83373947627842426300048828125</LatitudeDegrees>
              <LongitudeDegrees>-4.37692816369235515594482421875</LongitudeDegrees>
            </Position>
            <AltitudeMeters>653</AltitudeMeters>
            <DistanceMeters>NAN</DistanceMeters>
          </Trackpoint>
          <Trackpoint>
            <Time>2020-12-05T12:21:20.000Z</Time>
            <Position>
              <LatitudeDegrees>36.83375305496156215667724609375</LatitudeDegrees>
              <LongitudeDegrees>-4.3769359588623046875</LongitudeDegrees>
            </Position>
            <AltitudeMeters>653</AltitudeMeters>
            <DistanceMeters>NAN</DistanceMeters>
          </Trackpoint>
          <Trackpoint>
            <Time>2020-12-05T12:21:21.000Z</Time>
            <Position>
              <LatitudeDegrees>36.8337683938443660736083984375</LatitudeDegrees>
              <LongitudeDegrees>-4.3769414909183979034423828125</LongitudeDegrees>
            </Position>
            <AltitudeMeters>653</AltitudeMeters>
            <DistanceMeters>NAN</DistanceMeters>
          </Trackpoint>
          <Trackpoint>
            <Time>2020-12-05T12:21:22.000Z</Time>
            <Position>
              <LatitudeDegrees>36.83378423564136028289794921875</LatitudeDegrees>
              <LongitudeDegrees>-4.37695138156414031982421875</LongitudeDegrees>
            </Position>
            <AltitudeMeters>653</AltitudeMeters>
            <DistanceMeters>NAN</DistanceMeters>
          </Trackpoint>
          <Trackpoint>
            <Time>2020-12-05T12:21:23.000Z</Time>
            <Position>
              <LatitudeDegrees>36.83380066417157649993896484375</LatitudeDegrees>
              <LongitudeDegrees>-4.37696420587599277496337890625</LongitudeDegrees>
            </Position>
            <AltitudeMeters>653</AltitudeMeters>
            <DistanceMeters>NAN</DistanceMeters>
          </Trackpoint>
          <Trackpoint>
            <Time>2020-12-05T12:21:24.000Z</Time>
            <Position>
              <LatitudeDegrees>36.8338153325021266937255859375</LatitudeDegrees>
              <LongitudeDegrees>-4.37697283923625946044921875</LongitudeDegrees>
            </Position>
            <AltitudeMeters>653</AltitudeMeters>
            <DistanceMeters>NAN</DistanceMeters>
          </Trackpoint>
          <Trackpoint>
            <Time>2020-12-05T12:21:25.000Z</Time>
            <Position>
              <LatitudeDegrees>36.833829246461391448974609375</LatitudeDegrees>
              <LongitudeDegrees>-4.37698113732039928436279296875</LongitudeDegrees>
            </Position>
            <AltitudeMeters>653</AltitudeMeters>
            <DistanceMeters>NAN</DistanceMeters>
          </Trackpoint>
          <Trackpoint>
            <Time>2020-12-05T12:21:26.000Z</Time>
            <Position>
              <LatitudeDegrees>36.83384056203067302703857421875</LatitudeDegrees>
              <LongitudeDegrees>-4.3769855797290802001953125</LongitudeDegrees>
            </Position>
            <AltitudeMeters>653</AltitudeMeters>
            <DistanceMeters>NAN</DistanceMeters>
          </Trackpoint>
          <Trackpoint>
            <Time>2020-12-05T12:21:27.000Z</Time>
            <Position>
              <LatitudeDegrees>36.83384877629578113555908203125</LatitudeDegrees>
              <LongitudeDegrees>-4.37699404545128345489501953125</LongitudeDegrees>
            </Position>
            <AltitudeMeters>653</AltitudeMeters>
            <DistanceMeters>NAN</DistanceMeters>
          </Trackpoint>
          <Trackpoint>
            <Time>2020-12-05T12:21:28.000Z</Time>
            <Position>
              <LatitudeDegrees>36.83385632000863552093505859375</LatitudeDegrees>
              <LongitudeDegrees>-4.3770035170018672943115234375</LongitudeDegrees>
            </Position>
            <AltitudeMeters>653</AltitudeMeters>
            <DistanceMeters>NAN</DistanceMeters>
          </Trackpoint>
          <Trackpoint>
            <Time>2020-12-05T12:21:29.000Z</Time>
            <Position>
              <LatitudeDegrees>36.83386336080729961395263671875</LatitudeDegrees>
              <LongitudeDegrees>-4.377010725438594818115234375</LongitudeDegrees>
            </Position>
            <AltitudeMeters>653</AltitudeMeters>
            <DistanceMeters>NAN</DistanceMeters>
          </Trackpoint>
          <Trackpoint>
            <Time>2020-12-05T12:21:30.000Z</Time>
            <Position>
              <LatitudeDegrees>36.83387023396790027618408203125</LatitudeDegrees>
              <LongitudeDegrees>-4.37701650895178318023681640625</LongitudeDegrees>
            </Position>
            <AltitudeMeters>653</AltitudeMeters>
            <DistanceMeters>NAN</DistanceMeters>
          </Trackpoint>
          <Trackpoint>
            <Time>2020-12-05T12:21:31.000Z</Time>
            <Position>
              <LatitudeDegrees>36.833876855671405792236328125</LatitudeDegrees>
              <LongitudeDegrees>-4.37702388502657413482666015625</LongitudeDegrees>
            </Position>
            <AltitudeMeters>653</AltitudeMeters>
            <DistanceMeters>NAN</DistanceMeters>
          </Trackpoint>
          <Trackpoint>
            <Time>2020-12-05T12:21:32.000Z</Time>
            <Position>
              <LatitudeDegrees>36.83388683013617992401123046875</LatitudeDegrees>
              <LongitudeDegrees>-4.37702975235879421234130859375</LongitudeDegrees>
            </Position>
            <AltitudeMeters>653</AltitudeMeters>
            <DistanceMeters>NAN</DistanceMeters>
          </Trackpoint>
          <Trackpoint>
            <Time>2020-12-05T12:21:33.000Z</Time>
            <Position>
              <LatitudeDegrees>36.83389873243868350982666015625</LatitudeDegrees>
              <LongitudeDegrees>-4.37703612260520458221435546875</LongitudeDegrees>
            </Position>
            <AltitudeMeters>653</AltitudeMeters>
            <DistanceMeters>NAN</DistanceMeters>
          </Trackpoint>
          <Trackpoint>
            <Time>2020-12-05T12:21:34.000Z</Time>
            <Position>
              <LatitudeDegrees>36.83391071856021881103515625</LatitudeDegrees>
              <LongitudeDegrees>-4.377040900290012359619140625</LongitudeDegrees>
            </Position>
            <AltitudeMeters>653</AltitudeMeters>
            <DistanceMeters>NAN</DistanceMeters>
          </Trackpoint>
          <Trackpoint>
            <Time>2020-12-05T12:21:35.000Z</Time>
            <Position>
              <LatitudeDegrees>36.8339229561388492584228515625</LatitudeDegrees>
              <LongitudeDegrees>-4.37704551033675670623779296875</LongitudeDegrees>
            </Position>
            <AltitudeMeters>653</AltitudeMeters>
            <DistanceMeters>NAN</DistanceMeters>
          </Trackpoint>
          <Trackpoint>
            <Time>2020-12-05T12:21:36.000Z</Time>
            <Position>
              <LatitudeDegrees>36.8339363671839237213134765625</LatitudeDegrees>
              <LongitudeDegrees>-4.3770517967641353607177734375</LongitudeDegrees>
            </Position>
            <AltitudeMeters>653</AltitudeMeters>
            <DistanceMeters>NAN</DistanceMeters>
          </Trackpoint>
          <Trackpoint>
            <Time>2020-12-05T12:21:37.000Z</Time>
            <Position>
              <LatitudeDegrees>36.833948604762554168701171875</LatitudeDegrees>
              <LongitudeDegrees>-4.37706059776246547698974609375</LongitudeDegrees>
            </Position>
            <AltitudeMeters>653</AltitudeMeters>
            <DistanceMeters>NAN</DistanceMeters>
          </Trackpoint>
          <Trackpoint>
            <Time>2020-12-05T12:21:38.000Z</Time>
            <Position>
              <LatitudeDegrees>36.8339601717889308929443359375</LatitudeDegrees>
              <LongitudeDegrees>-4.37707115896046161651611328125</LongitudeDegrees>
            </Position>
            <AltitudeMeters>653</AltitudeMeters>
            <DistanceMeters>NAN</DistanceMeters>
          </Trackpoint>
          <Trackpoint>
            <Time>2020-12-05T12:21:39.000Z</Time>
            <Position>
              <LatitudeDegrees>36.83397148735821247100830078125</LatitudeDegrees>
              <LongitudeDegrees>-4.37708205543458461761474609375</LongitudeDegrees>
            </Position>
            <AltitudeMeters>653</AltitudeMeters>
            <DistanceMeters>NAN</DistanceMeters>
          </Trackpoint>
          <Trackpoint>
            <Time>2020-12-05T12:21:40.000Z</Time>
            <Position>
              <LatitudeDegrees>36.83398355729877948760986328125</LatitudeDegrees>
              <LongitudeDegrees>-4.377094209194183349609375</LongitudeDegrees>
            </Position>
            <AltitudeMeters>653</AltitudeMeters>
            <DistanceMeters>NAN</DistanceMeters>
          </Trackpoint>
          <Trackpoint>
            <Time>2020-12-05T12:21:41.000Z</Time>
            <Position>
              <LatitudeDegrees>36.8339960463345050811767578125</LatitudeDegrees>
              <LongitudeDegrees>-4.3771087937057018280029296875</LongitudeDegrees>
            </Position>
            <AltitudeMeters>653</AltitudeMeters>
            <DistanceMeters>NAN</DistanceMeters>
          </Trackpoint>
          <Trackpoint>
            <Time>2020-12-05T12:21:42.000Z</Time>
            <Position>
              <LatitudeDegrees>36.8340094573795795440673828125</LatitudeDegrees>
              <LongitudeDegrees>-4.3771228753030300140380859375</LongitudeDegrees>
            </Position>
            <AltitudeMeters>653</AltitudeMeters>
            <DistanceMeters>NAN</DistanceMeters>
          </Trackpoint>
          <Trackpoint>
            <Time>2020-12-05T12:21:43.000Z</Time>
            <Position>
              <LatitudeDegrees>36.83402244932949542999267578125</LatitudeDegrees>
              <LongitudeDegrees>-4.37713519670069217681884765625</LongitudeDegrees>
            </Position>
            <AltitudeMeters>653</AltitudeMeters>
            <DistanceMeters>NAN</DistanceMeters>
          </Trackpoint>
          <Trackpoint>
            <Time>2020-12-05T12:21:44.000Z</Time>
            <Position>
              <LatitudeDegrees>36.83403468690812587738037109375</LatitudeDegrees>
              <LongitudeDegrees>-4.37714827246963977813720703125</LongitudeDegrees>
            </Position>
            <AltitudeMeters>653</AltitudeMeters>
            <DistanceMeters>NAN</DistanceMeters>
          </Trackpoint>
          <Trackpoint>
            <Time>2020-12-05T12:21:45.000Z</Time>
            <Position>
              <LatitudeDegrees>36.83404617011547088623046875</LatitudeDegrees>
              <LongitudeDegrees>-4.377162270247936248779296875</LongitudeDegrees>
            </Position>
            <AltitudeMeters>653</AltitudeMeters>
            <DistanceMeters>NAN</DistanceMeters>
          </Trackpoint>
          <Trackpoint>
            <Time>2020-12-05T12:21:46.000Z</Time>
            <Position>
              <LatitudeDegrees>36.83405958116054534912109375</LatitudeDegrees>
              <LongitudeDegrees>-4.37717945314943790435791015625</LongitudeDegrees>
            </Position>
            <AltitudeMeters>653</AltitudeMeters>
            <DistanceMeters>NAN</DistanceMeters>
          </Trackpoint>
          <Trackpoint>
            <Time>2020-12-05T12:21:47.000Z</Time>
            <Position>
              <LatitudeDegrees>36.83407005853950977325439453125</LatitudeDegrees>
              <LongitudeDegrees>-4.377199150621891021728515625</LongitudeDegrees>
            </Position>
            <AltitudeMeters>653</AltitudeMeters>
            <DistanceMeters>NAN</DistanceMeters>
          </Trackpoint>
          <Trackpoint>
            <Time>2020-12-05T12:21:48.000Z</Time>
            <Position>
              <LatitudeDegrees>36.83408061973750591278076171875</LatitudeDegrees>
              <LongitudeDegrees>-4.37721666879951953887939453125</LongitudeDegrees>
            </Position>
            <AltitudeMeters>653</AltitudeMeters>
            <DistanceMeters>NAN</DistanceMeters>
          </Trackpoint>
          <Trackpoint>
            <Time>2020-12-05T12:21:49.000Z</Time>
            <Position>
              <LatitudeDegrees>36.83408598415553569793701171875</LatitudeDegrees>
              <LongitudeDegrees>-4.3772341869771480560302734375</LongitudeDegrees>
            </Position>
            <AltitudeMeters>653</AltitudeMeters>
            <DistanceMeters>NAN</DistanceMeters>
          </Trackpoint>
          <Trackpoint>
            <Time>2020-12-05T12:21:50.000Z</Time>
            <Position>
              <LatitudeDegrees>36.83409302495419979095458984375</LatitudeDegrees>
              <LongitudeDegrees>-4.37725053168833255767822265625</LongitudeDegrees>
            </Position>
            <AltitudeMeters>653</AltitudeMeters>
            <DistanceMeters>NAN</DistanceMeters>
          </Trackpoint>
          <Trackpoint>
            <Time>2020-12-05T12:21:51.000Z</Time>
            <Position>
              <LatitudeDegrees>36.83410140685737133026123046875</LatitudeDegrees>
              <LongitudeDegrees>-4.377262853085994720458984375</LongitudeDegrees>
            </Position>
            <AltitudeMeters>653</AltitudeMeters>
            <DistanceMeters>NAN</DistanceMeters>
          </Trackpoint>
          <Trackpoint>
            <Time>2020-12-05T12:21:52.000Z</Time>
            <Position>
              <LatitudeDegrees>36.834109537303447723388671875</LatitudeDegrees>
              <LongitudeDegrees>-4.37727467156946659088134765625</LongitudeDegrees>
            </Position>
            <AltitudeMeters>653</AltitudeMeters>
            <DistanceMeters>NAN</DistanceMeters>
          </Trackpoint>
          <Trackpoint>
            <Time>2020-12-05T12:21:53.000Z</Time>
            <Position>
              <LatitudeDegrees>36.83411364443600177764892578125</LatitudeDegrees>
              <LongitudeDegrees>-4.377281963825225830078125</LongitudeDegrees>
            </Position>
            <AltitudeMeters>653</AltitudeMeters>
            <DistanceMeters>NAN</DistanceMeters>
          </Trackpoint>
          <Trackpoint>
            <Time>2020-12-05T12:21:54.000Z</Time>
            <Position>
              <LatitudeDegrees>36.834119260311126708984375</LatitudeDegrees>
              <LongitudeDegrees>-4.3772878311574459075927734375</LongitudeDegrees>
            </Position>
            <AltitudeMeters>653</AltitudeMeters>
            <DistanceMeters>NAN</DistanceMeters>
          </Trackpoint>
          <Trackpoint>
            <Time>2020-12-05T12:21:55.000Z</Time>
            <Position>
              <LatitudeDegrees>36.8341241218149662017822265625</LatitudeDegrees>
              <LongitudeDegrees>-4.37729495577514171600341796875</LongitudeDegrees>
            </Position>
            <AltitudeMeters>653</AltitudeMeters>
            <DistanceMeters>NAN</DistanceMeters>
          </Trackpoint>
          <Trackpoint>
            <Time>2020-12-05T12:21:56.000Z</Time>
            <Position>
              <LatitudeDegrees>36.834129653871059417724609375</LatitudeDegrees>
              <LongitudeDegrees>-4.377300404012203216552734375</LongitudeDegrees>
            </Position>
            <AltitudeMeters>653</AltitudeMeters>
            <DistanceMeters>NAN</DistanceMeters>
          </Trackpoint>
          <Trackpoint>
            <Time>2020-12-05T12:21:57.000Z</Time>
            <Position>
              <LatitudeDegrees>36.83413409627974033355712890625</LatitudeDegrees>
              <LongitudeDegrees>-4.37730518169701099395751953125</LongitudeDegrees>
            </Position>
            <AltitudeMeters>653</AltitudeMeters>
            <DistanceMeters>NAN</DistanceMeters>
          </Trackpoint>
          <Trackpoint>
            <Time>2020-12-05T12:21:58.000Z</Time>
            <Position>
              <LatitudeDegrees>36.83413761667907238006591796875</LatitudeDegrees>
              <LongitudeDegrees>-4.37731188721954822540283203125</LongitudeDegrees>
            </Position>
            <AltitudeMeters>653</AltitudeMeters>
            <DistanceMeters>NAN</DistanceMeters>
          </Trackpoint>
          <Trackpoint>
            <Time>2020-12-05T12:21:59.000Z</Time>
            <Position>
              <LatitudeDegrees>36.83414407074451446533203125</LatitudeDegrees>
              <LongitudeDegrees>-4.37732261605560779571533203125</LongitudeDegrees>
            </Position>
            <AltitudeMeters>653</AltitudeMeters>
            <DistanceMeters>NAN</DistanceMeters>
          </Trackpoint>
          <Trackpoint>
            <Time>2020-12-05T12:22:00.000Z</Time>
            <Position>
              <LatitudeDegrees>36.83415052480995655059814453125</LatitudeDegrees>
              <LongitudeDegrees>-4.37733359634876251220703125</LongitudeDegrees>
            </Position>
            <AltitudeMeters>647.4000244140625</AltitudeMeters>
            <DistanceMeters>NAN</DistanceMeters>
          </Trackpoint>
          <Trackpoint>
            <Time>2020-12-05T12:22:01.000Z</Time>
            <Position>
              <LatitudeDegrees>36.83415421284735202789306640625</LatitudeDegrees>
              <LongitudeDegrees>-4.37734692357480525970458984375</LongitudeDegrees>
            </Position>
            <AltitudeMeters>647.4000244140625</AltitudeMeters>
            <DistanceMeters>NAN</DistanceMeters>
          </Trackpoint>
          <Trackpoint>
            <Time>2020-12-05T12:22:02.000Z</Time>
            <Position>
              <LatitudeDegrees>36.8341579847037792205810546875</LatitudeDegrees>
              <LongitudeDegrees>-4.37736016698181629180908203125</LongitudeDegrees>
            </Position>
            <AltitudeMeters>647.4000244140625</AltitudeMeters>
            <DistanceMeters>NAN</DistanceMeters>
          </Trackpoint>
          <Trackpoint>
            <Time>2020-12-05T12:22:03.000Z</Time>
            <Position>
              <LatitudeDegrees>36.83415924198925495147705078125</LatitudeDegrees>
              <LongitudeDegrees>-4.3773773498833179473876953125</LongitudeDegrees>
            </Position>
            <AltitudeMeters>647.4000244140625</AltitudeMeters>
            <DistanceMeters>NAN</DistanceMeters>
          </Trackpoint>
          <Trackpoint>
            <Time>2020-12-05T12:22:04.000Z</Time>
            <Position>
              <LatitudeDegrees>36.8341663666069507598876953125</LatitudeDegrees>
              <LongitudeDegrees>-4.37739067710936069488525390625</LongitudeDegrees>
            </Position>
            <AltitudeMeters>647.4000244140625</AltitudeMeters>
            <DistanceMeters>NAN</DistanceMeters>
          </Trackpoint>
          <Trackpoint>
            <Time>2020-12-05T12:22:05.000Z</Time>
            <Position>
              <LatitudeDegrees>36.834175921976566314697265625</LatitudeDegrees>
              <LongitudeDegrees>-4.37739922665059566497802734375</LongitudeDegrees>
            </Position>
            <AltitudeMeters>647.4000244140625</AltitudeMeters>
            <DistanceMeters>NAN</DistanceMeters>
          </Trackpoint>
          <Trackpoint>
            <Time>2020-12-05T12:22:06.000Z</Time>
            <Position>
              <LatitudeDegrees>36.83418388478457927703857421875</LatitudeDegrees>
              <LongitudeDegrees>-4.3774093687534332275390625</LongitudeDegrees>
            </Position>
            <AltitudeMeters>647.4000244140625</AltitudeMeters>
            <DistanceMeters>NAN</DistanceMeters>
          </Trackpoint>
          <Trackpoint>
            <Time>2020-12-05T12:22:07.000Z</Time>
            <Position>
              <LatitudeDegrees>36.83419193141162395477294921875</LatitudeDegrees>
              <LongitudeDegrees>-4.3774227797985076904296875</LongitudeDegrees>
            </Position>
            <AltitudeMeters>647.4000244140625</AltitudeMeters>
            <DistanceMeters>NAN</DistanceMeters>
          </Trackpoint>
          <Trackpoint>
            <Time>2020-12-05T12:22:08.000Z</Time>
            <Position>
              <LatitudeDegrees>36.83420182205736637115478515625</LatitudeDegrees>
              <LongitudeDegrees>-4.377437196671962738037109375</LongitudeDegrees>
            </Position>
            <AltitudeMeters>647.4000244140625</AltitudeMeters>
            <DistanceMeters>NAN</DistanceMeters>
          </Trackpoint>
          <Trackpoint>
            <Time>2020-12-05T12:22:09.000Z</Time>
            <Position>
              <LatitudeDegrees>36.83421037159860134124755859375</LatitudeDegrees>
              <LongitudeDegrees>-4.377452619373798370361328125</LongitudeDegrees>
            </Position>
            <AltitudeMeters>647.4000244140625</AltitudeMeters>
            <DistanceMeters>NAN</DistanceMeters>
          </Trackpoint>
          <Trackpoint>
            <Time>2020-12-05T12:22:10.000Z</Time>
            <Position>
              <LatitudeDegrees>36.8342190049588680267333984375</LatitudeDegrees>
              <LongitudeDegrees>-4.3774668686091899871826171875</LongitudeDegrees>
            </Position>
            <AltitudeMeters>647.4000244140625</AltitudeMeters>
            <DistanceMeters>NAN</DistanceMeters>
          </Trackpoint>
          <Trackpoint>
            <Time>2020-12-05T12:22:11.000Z</Time>
            <Position>
              <LatitudeDegrees>36.8342257104814052581787109375</LatitudeDegrees>
              <LongitudeDegrees>-4.3774849735200405120849609375</LongitudeDegrees>
            </Position>
            <AltitudeMeters>647.4000244140625</AltitudeMeters>
            <DistanceMeters>NAN</DistanceMeters>
          </Trackpoint>
          <Trackpoint>
            <Time>2020-12-05T12:22:12.000Z</Time>
            <Position>
              <LatitudeDegrees>36.83423266746103763580322265625</LatitudeDegrees>
              <LongitudeDegrees>-4.37749746255576610565185546875</LongitudeDegrees>
            </Position>
            <AltitudeMeters>647.4000244140625</AltitudeMeters>
            <DistanceMeters>NAN</DistanceMeters>
          </Trackpoint>
          <Trackpoint>
            <Time>2020-12-05T12:22:13.000Z</Time>
            <Position>
              <LatitudeDegrees>36.834242306649684906005859375</LatitudeDegrees>
              <LongitudeDegrees>-4.37750768847763538360595703125</LongitudeDegrees>
            </Position>
            <AltitudeMeters>647.4000244140625</AltitudeMeters>
            <DistanceMeters>NAN</DistanceMeters>
          </Trackpoint>
          <Trackpoint>
            <Time>2020-12-05T12:22:14.000Z</Time>
            <Position>
              <LatitudeDegrees>36.83425211347639560699462890625</LatitudeDegrees>
              <LongitudeDegrees>-4.377517662942409515380859375</LongitudeDegrees>
            </Position>
            <AltitudeMeters>647.4000244140625</AltitudeMeters>
            <DistanceMeters>NAN</DistanceMeters>
          </Trackpoint>
          <Trackpoint>
            <Time>2020-12-05T12:22:15.000Z</Time>
            <Position>
              <LatitudeDegrees>36.8342615850269794464111328125</LatitudeDegrees>
              <LongitudeDegrees>-4.3775300681591033935546875</LongitudeDegrees>
            </Position>
            <AltitudeMeters>647.4000244140625</AltitudeMeters>
            <DistanceMeters>NAN</DistanceMeters>
          </Trackpoint>
          <Trackpoint>
            <Time>2020-12-05T12:22:16.000Z</Time>
            <Position>
              <LatitudeDegrees>36.8342669494450092315673828125</LatitudeDegrees>
              <LongitudeDegrees>-4.37754641287028789520263671875</LongitudeDegrees>
            </Position>
            <AltitudeMeters>647.4000244140625</AltitudeMeters>
            <DistanceMeters>NAN</DistanceMeters>
          </Trackpoint>
          <Trackpoint>
            <Time>2020-12-05T12:22:17.000Z</Time>
            <Position>
              <LatitudeDegrees>36.83427306823432445526123046875</LatitudeDegrees>
              <LongitudeDegrees>-4.377561919391155242919921875</LongitudeDegrees>
            </Position>
            <AltitudeMeters>647.4000244140625</AltitudeMeters>
            <DistanceMeters>NAN</DistanceMeters>
          </Trackpoint>
          <Trackpoint>
            <Time>2020-12-05T12:22:18.000Z</Time>
            <Position>
              <LatitudeDegrees>36.8342843838036060333251953125</LatitudeDegrees>
              <LongitudeDegrees>-4.37757675535976886749267578125</LongitudeDegrees>
            </Position>
            <AltitudeMeters>647.4000244140625</AltitudeMeters>
            <DistanceMeters>NAN</DistanceMeters>
          </Trackpoint>
          <Trackpoint>
            <Time>2020-12-05T12:22:19.000Z</Time>
            <Position>
              <LatitudeDegrees>36.8342964537441730499267578125</LatitudeDegrees>
              <LongitudeDegrees>-4.37759301625192165374755859375</LongitudeDegrees>
            </Position>
            <AltitudeMeters>647.4000244140625</AltitudeMeters>
            <DistanceMeters>NAN</DistanceMeters>
          </Trackpoint>
          <Trackpoint>
            <Time>2020-12-05T12:22:20.000Z</Time>
            <Position>
              <LatitudeDegrees>36.834306679666042327880859375</LatitudeDegrees>
              <LongitudeDegrees>-4.37760625965893268585205078125</LongitudeDegrees>
            </Position>
            <AltitudeMeters>647.4000244140625</AltitudeMeters>
            <DistanceMeters>NAN</DistanceMeters>
          </Trackpoint>
          <Trackpoint>
            <Time>2020-12-05T12:22:21.000Z</Time>
            <Position>
              <LatitudeDegrees>36.83431413955986499786376953125</LatitudeDegrees>
              <LongitudeDegrees>-4.3776234425604343414306640625</LongitudeDegrees>
            </Position>
            <AltitudeMeters>647.4000244140625</AltitudeMeters>
            <DistanceMeters>NAN</DistanceMeters>
          </Trackpoint>
          <Trackpoint>
            <Time>2020-12-05T12:22:22.000Z</Time>
            <Position>
              <LatitudeDegrees>36.834320761263370513916015625</LatitudeDegrees>
              <LongitudeDegrees>-4.37763811089098453521728515625</LongitudeDegrees>
            </Position>
            <AltitudeMeters>647.4000244140625</AltitudeMeters>
            <DistanceMeters>NAN</DistanceMeters>
          </Trackpoint>
          <Trackpoint>
            <Time>2020-12-05T12:22:23.000Z</Time>
            <Position>
              <LatitudeDegrees>36.83432604186236858367919921875</LatitudeDegrees>
              <LongitudeDegrees>-4.37764934264123439788818359375</LongitudeDegrees>
            </Position>
            <AltitudeMeters>647.4000244140625</AltitudeMeters>
            <DistanceMeters>NAN</DistanceMeters>
          </Trackpoint>
          <Trackpoint>
            <Time>2020-12-05T12:22:24.000Z</Time>
            <Position>
              <LatitudeDegrees>36.83433056809008121490478515625</LatitudeDegrees>
              <LongitudeDegrees>-4.377661161124706268310546875</LongitudeDegrees>
            </Position>
            <AltitudeMeters>647.4000244140625</AltitudeMeters>
            <DistanceMeters>NAN</DistanceMeters>
          </Trackpoint>
          <Trackpoint>
            <Time>2020-12-05T12:22:25.000Z</Time>
            <Position>
              <LatitudeDegrees>36.83433827944099903106689453125</LatitudeDegrees>
              <LongitudeDegrees>-4.3776774220168590545654296875</LongitudeDegrees>
            </Position>
            <AltitudeMeters>647.4000244140625</AltitudeMeters>
            <DistanceMeters>NAN</DistanceMeters>
          </Trackpoint>
          <Trackpoint>
            <Time>2020-12-05T12:22:26.000Z</Time>
            <Position>
              <LatitudeDegrees>36.834344565868377685546875</LatitudeDegrees>
              <LongitudeDegrees>-4.377694018185138702392578125</LongitudeDegrees>
            </Position>
            <AltitudeMeters>647.4000244140625</AltitudeMeters>
            <DistanceMeters>NAN</DistanceMeters>
          </Trackpoint>
          <Trackpoint>
            <Time>2020-12-05T12:22:27.000Z</Time>
            <Position>
              <LatitudeDegrees>36.83435101993381977081298828125</LatitudeDegrees>
              <LongitudeDegrees>-4.37770684249699115753173828125</LongitudeDegrees>
            </Position>
            <AltitudeMeters>647.4000244140625</AltitudeMeters>
            <DistanceMeters>NAN</DistanceMeters>
          </Trackpoint>
          <Trackpoint>
            <Time>2020-12-05T12:22:28.000Z</Time>
            <Position>
              <LatitudeDegrees>36.8343578092753887176513671875</LatitudeDegrees>
              <LongitudeDegrees>-4.37772008590400218963623046875</LongitudeDegrees>
            </Position>
            <AltitudeMeters>647.4000244140625</AltitudeMeters>
            <DistanceMeters>NAN</DistanceMeters>
          </Trackpoint>
          <Trackpoint>
            <Time>2020-12-05T12:22:29.000Z</Time>
            <Position>
              <LatitudeDegrees>36.83436560444533824920654296875</LatitudeDegrees>
              <LongitudeDegrees>-4.37773584388196468353271484375</LongitudeDegrees>
            </Position>
            <AltitudeMeters>647.4000244140625</AltitudeMeters>
            <DistanceMeters>NAN</DistanceMeters>
          </Trackpoint>
          <Trackpoint>
            <Time>2020-12-05T12:22:30.000Z</Time>
            <Position>
              <LatitudeDegrees>36.8343705497682094573974609375</LatitudeDegrees>
              <LongitudeDegrees>-4.37774933874607086181640625</LongitudeDegrees>
            </Position>
            <AltitudeMeters>647.4000244140625</AltitudeMeters>
            <DistanceMeters>NAN</DistanceMeters>
          </Trackpoint>
          <Trackpoint>
            <Time>2020-12-05T12:22:31.000Z</Time>
            <Position>
              <LatitudeDegrees>36.8343745730817317962646484375</LatitudeDegrees>
              <LongitudeDegrees>-4.37776333652436733245849609375</LongitudeDegrees>
            </Position>
            <AltitudeMeters>647.4000244140625</AltitudeMeters>
            <DistanceMeters>NAN</DistanceMeters>
          </Trackpoint>
          <Trackpoint>
            <Time>2020-12-05T12:22:32.000Z</Time>
            <Position>
              <LatitudeDegrees>36.83437800966203212738037109375</LatitudeDegrees>
              <LongitudeDegrees>-4.37777607701718807220458984375</LongitudeDegrees>
            </Position>
            <AltitudeMeters>647.4000244140625</AltitudeMeters>
            <DistanceMeters>NAN</DistanceMeters>
          </Trackpoint>
          <Trackpoint>
            <Time>2020-12-05T12:22:33.000Z</Time>
            <Position>
              <LatitudeDegrees>36.834375075995922088623046875</LatitudeDegrees>
              <LongitudeDegrees>-4.37779703177511692047119140625</LongitudeDegrees>
            </Position>
            <AltitudeMeters>647.4000244140625</AltitudeMeters>
            <DistanceMeters>NAN</DistanceMeters>
          </Trackpoint>
          <Trackpoint>
            <Time>2020-12-05T12:22:34.000Z</Time>
            <Position>
              <LatitudeDegrees>36.8343780934810638427734375</LatitudeDegrees>
              <LongitudeDegrees>-4.37781429849565029144287109375</LongitudeDegrees>
            </Position>
            <AltitudeMeters>647.4000244140625</AltitudeMeters>
            <DistanceMeters>NAN</DistanceMeters>
          </Trackpoint>
          <Trackpoint>
            <Time>2020-12-05T12:22:35.000Z</Time>
            <Position>
              <LatitudeDegrees>36.83438002131879329681396484375</LatitudeDegrees>
              <LongitudeDegrees>-4.37783156521618366241455078125</LongitudeDegrees>
            </Position>
            <AltitudeMeters>647.4000244140625</AltitudeMeters>
            <DistanceMeters>NAN</DistanceMeters>
          </Trackpoint>
          <Trackpoint>
            <Time>2020-12-05T12:22:36.000Z</Time>
            <Position>
              <LatitudeDegrees>36.83438337408006191253662109375</LatitudeDegrees>
              <LongitudeDegrees>-4.377850927412509918212890625</LongitudeDegrees>
            </Position>
            <AltitudeMeters>647.4000244140625</AltitudeMeters>
            <DistanceMeters>NAN</DistanceMeters>
          </Trackpoint>
          <Trackpoint>
            <Time>2020-12-05T12:22:37.000Z</Time>
            <Position>
              <LatitudeDegrees>36.8343883194029331207275390625</LatitudeDegrees>
              <LongitudeDegrees>-4.37787112779915332794189453125</LongitudeDegrees>
            </Position>
            <AltitudeMeters>647.4000244140625</AltitudeMeters>
            <DistanceMeters>NAN</DistanceMeters>
          </Trackpoint>
          <Trackpoint>
            <Time>2020-12-05T12:22:38.000Z</Time>
            <Position>
              <LatitudeDegrees>36.83439091779291629791259765625</LatitudeDegrees>
              <LongitudeDegrees>-4.37789023853838443756103515625</LongitudeDegrees>
            </Position>
            <AltitudeMeters>647.4000244140625</AltitudeMeters>
            <DistanceMeters>NAN</DistanceMeters>
          </Trackpoint>
          <Trackpoint>
            <Time>2020-12-05T12:22:39.000Z</Time>
            <Position>
              <LatitudeDegrees>36.83439376763999462127685546875</LatitudeDegrees>
              <LongitudeDegrees>-4.377909265458583831787109375</LongitudeDegrees>
            </Position>
            <AltitudeMeters>647.4000244140625</AltitudeMeters>
            <DistanceMeters>NAN</DistanceMeters>
          </Trackpoint>
          <Trackpoint>
            <Time>2020-12-05T12:22:40.000Z</Time>
            <Position>
              <LatitudeDegrees>36.83439753949642181396484375</LatitudeDegrees>
              <LongitudeDegrees>-4.37792577780783176422119140625</LongitudeDegrees>
            </Position>
            <AltitudeMeters>647.4000244140625</AltitudeMeters>
            <DistanceMeters>NAN</DistanceMeters>
          </Trackpoint>
          <Trackpoint>
            <Time>2020-12-05T12:22:41.000Z</Time>
            <Position>
              <LatitudeDegrees>36.83440198190510272979736328125</LatitudeDegrees>
              <LongitudeDegrees>-4.3779426254332065582275390625</LongitudeDegrees>
            </Position>
            <AltitudeMeters>647.4000244140625</AltitudeMeters>
            <DistanceMeters>NAN</DistanceMeters>
          </Trackpoint>
          <Trackpoint>
            <Time>2020-12-05T12:22:42.000Z</Time>
            <Position>
              <LatitudeDegrees>36.83440399356186389923095703125</LatitudeDegrees>
              <LongitudeDegrees>-4.3779610656201839447021484375</LongitudeDegrees>
            </Position>
            <AltitudeMeters>647.4000244140625</AltitudeMeters>
            <DistanceMeters>NAN</DistanceMeters>
          </Trackpoint>
          <Trackpoint>
            <Time>2020-12-05T12:22:43.000Z</Time>
            <Position>
              <LatitudeDegrees>36.8344070948660373687744140625</LatitudeDegrees>
              <LongitudeDegrees>-4.377977661788463592529296875</LongitudeDegrees>
            </Position>
            <AltitudeMeters>647.4000244140625</AltitudeMeters>
            <DistanceMeters>NAN</DistanceMeters>
          </Trackpoint>
          <Trackpoint>
            <Time>2020-12-05T12:22:44.000Z</Time>
            <Position>
              <LatitudeDegrees>36.8344094417989253997802734375</LatitudeDegrees>
              <LongitudeDegrees>-4.37799383886158466339111328125</LongitudeDegrees>
            </Position>
            <AltitudeMeters>647.4000244140625</AltitudeMeters>
            <DistanceMeters>NAN</DistanceMeters>
          </Trackpoint>
          <Trackpoint>
            <Time>2020-12-05T12:22:45.000Z</Time>
            <Position>
              <LatitudeDegrees>36.834411285817623138427734375</LatitudeDegrees>
              <LongitudeDegrees>-4.378009177744388580322265625</LongitudeDegrees>
            </Position>
            <AltitudeMeters>647.4000244140625</AltitudeMeters>
            <DistanceMeters>NAN</DistanceMeters>
          </Trackpoint>
          <Trackpoint>
            <Time>2020-12-05T12:22:46.000Z</Time>
            <Position>
              <LatitudeDegrees>36.83441338129341602325439453125</LatitudeDegrees>
              <LongitudeDegrees>-4.37802351079881191253662109375</LongitudeDegrees>
            </Position>
            <AltitudeMeters>647.4000244140625</AltitudeMeters>
            <DistanceMeters>NAN</DistanceMeters>
          </Trackpoint>
          <Trackpoint>
            <Time>2020-12-05T12:22:47.000Z</Time>
            <Position>
              <LatitudeDegrees>36.834415979683399200439453125</LatitudeDegrees>
              <LongitudeDegrees>-4.378037340939044952392578125</LongitudeDegrees>
            </Position>
            <AltitudeMeters>647.4000244140625</AltitudeMeters>
            <DistanceMeters>NAN</DistanceMeters>
          </Trackpoint>
          <Trackpoint>
            <Time>2020-12-05T12:22:48.000Z</Time>
            <Position>
              <LatitudeDegrees>36.83441690169274806976318359375</LatitudeDegrees>
              <LongitudeDegrees>-4.3780530989170074462890625</LongitudeDegrees>
            </Position>
            <AltitudeMeters>647.4000244140625</AltitudeMeters>
            <DistanceMeters>NAN</DistanceMeters>
          </Trackpoint>
          <Trackpoint>
            <Time>2020-12-05T12:22:49.000Z</Time>
            <Position>
              <LatitudeDegrees>36.8344174884259700775146484375</LatitudeDegrees>
              <LongitudeDegrees>-4.37806843779981136322021484375</LongitudeDegrees>
            </Position>
            <AltitudeMeters>647.4000244140625</AltitudeMeters>
            <DistanceMeters>NAN</DistanceMeters>
          </Trackpoint>
          <Trackpoint>
            <Time>2020-12-05T12:22:50.000Z</Time>
            <Position>
              <LatitudeDegrees>36.83441857807338237762451171875</LatitudeDegrees>
              <LongitudeDegrees>-4.378084279596805572509765625</LongitudeDegrees>
            </Position>
            <AltitudeMeters>647.4000244140625</AltitudeMeters>
            <DistanceMeters>NAN</DistanceMeters>
          </Trackpoint>
          <Trackpoint>
            <Time>2020-12-05T12:22:51.000Z</Time>
            <Position>
              <LatitudeDegrees>36.834420673549175262451171875</LatitudeDegrees>
              <LongitudeDegrees>-4.3781008757650852203369140625</LongitudeDegrees>
            </Position>
            <AltitudeMeters>647.4000244140625</AltitudeMeters>
            <DistanceMeters>NAN</DistanceMeters>
          </Trackpoint>
          <Trackpoint>
            <Time>2020-12-05T12:22:52.000Z</Time>
            <Position>
              <LatitudeDegrees>36.83442528359591960906982421875</LatitudeDegrees>
              <LongitudeDegrees>-4.378116130828857421875</LongitudeDegrees>
            </Position>
            <AltitudeMeters>647.4000244140625</AltitudeMeters>
            <DistanceMeters>NAN</DistanceMeters>
          </Trackpoint>
          <Trackpoint>
            <Time>2020-12-05T12:22:53.000Z</Time>
            <Position>
              <LatitudeDegrees>36.8344285525381565093994140625</LatitudeDegrees>
              <LongitudeDegrees>-4.3781303800642490386962890625</LongitudeDegrees>
            </Position>
            <AltitudeMeters>647.4000244140625</AltitudeMeters>
            <DistanceMeters>NAN</DistanceMeters>
          </Trackpoint>
          <Trackpoint>
            <Time>2020-12-05T12:22:54.000Z</Time>
            <Position>
              <LatitudeDegrees>36.83443048037588596343994140625</LatitudeDegrees>
              <LongitudeDegrees>-4.37813968397676944732666015625</LongitudeDegrees>
            </Position>
            <AltitudeMeters>647.4000244140625</AltitudeMeters>
            <DistanceMeters>NAN</DistanceMeters>
          </Trackpoint>
          <Trackpoint>
            <Time>2020-12-05T12:22:55.000Z</Time>
            <Position>
              <LatitudeDegrees>36.83443333022296428680419921875</LatitudeDegrees>
              <LongitudeDegrees>-4.37814488075673580169677734375</LongitudeDegrees>
            </Position>
            <AltitudeMeters>647.4000244140625</AltitudeMeters>
            <DistanceMeters>NAN</DistanceMeters>
          </Trackpoint>
          <Trackpoint>
            <Time>2020-12-05T12:22:56.000Z</Time>
            <Position>
              <LatitudeDegrees>36.8344345875084400177001953125</LatitudeDegrees>
              <LongitudeDegrees>-4.378152675926685333251953125</LongitudeDegrees>
            </Position>
            <AltitudeMeters>647.4000244140625</AltitudeMeters>
            <DistanceMeters>NAN</DistanceMeters>
          </Trackpoint>
          <Trackpoint>
            <Time>2020-12-05T12:22:57.000Z</Time>
            <Position>
              <LatitudeDegrees>36.83443249203264713287353515625</LatitudeDegrees>
              <LongitudeDegrees>-4.378164745867252349853515625</LongitudeDegrees>
            </Position>
            <AltitudeMeters>647.4000244140625</AltitudeMeters>
            <DistanceMeters>NAN</DistanceMeters>
          </Trackpoint>
          <Trackpoint>
            <Time>2020-12-05T12:22:58.000Z</Time>
            <Position>
              <LatitudeDegrees>36.8344312347471714019775390625</LatitudeDegrees>
              <LongitudeDegrees>-4.37817849218845367431640625</LongitudeDegrees>
            </Position>
            <AltitudeMeters>647.4000244140625</AltitudeMeters>
            <DistanceMeters>NAN</DistanceMeters>
          </Trackpoint>
          <Trackpoint>
            <Time>2020-12-05T12:22:59.000Z</Time>
            <Position>
              <LatitudeDegrees>36.83442863635718822479248046875</LatitudeDegrees>
              <LongitudeDegrees>-4.37819567508995532989501953125</LongitudeDegrees>
            </Position>
            <AltitudeMeters>647.4000244140625</AltitudeMeters>
            <DistanceMeters>NAN</DistanceMeters>
          </Trackpoint>
          <Trackpoint>
            <Time>2020-12-05T12:23:00.000Z</Time>
            <Position>
              <LatitudeDegrees>36.8344258703291416168212890625</LatitudeDegrees>
              <LongitudeDegrees>-4.3782172165811061859130859375</LongitudeDegrees>
            </Position>
            <AltitudeMeters>644.4000244140625</AltitudeMeters>
            <DistanceMeters>NAN</DistanceMeters>
          </Trackpoint>
          <Trackpoint>
            <Time>2020-12-05T12:23:01.000Z</Time>
            <Position>
              <LatitudeDegrees>36.834423355758190155029296875</LatitudeDegrees>
              <LongitudeDegrees>-4.3782373331487178802490234375</LongitudeDegrees>
            </Position>
            <AltitudeMeters>644.4000244140625</AltitudeMeters>
            <DistanceMeters>NAN</DistanceMeters>
          </Trackpoint>
          <Trackpoint>
            <Time>2020-12-05T12:23:02.000Z</Time>
            <Position>
              <LatitudeDegrees>36.83442159555852413177490234375</LatitudeDegrees>
              <LongitudeDegrees>-4.378255270421504974365234375</LongitudeDegrees>
            </Position>
            <AltitudeMeters>644.4000244140625</AltitudeMeters>
            <DistanceMeters>NAN</DistanceMeters>
          </Trackpoint>
          <Trackpoint>
            <Time>2020-12-05T12:23:03.000Z</Time>
            <Position>
              <LatitudeDegrees>36.8344191648066043853759765625</LatitudeDegrees>
              <LongitudeDegrees>-4.37827396206557750701904296875</LongitudeDegrees>
            </Position>
            <AltitudeMeters>644.4000244140625</AltitudeMeters>
            <DistanceMeters>NAN</DistanceMeters>
          </Trackpoint>
          <Trackpoint>
            <Time>2020-12-05T12:23:04.000Z</Time>
            <Position>
              <LatitudeDegrees>36.8344183266162872314453125</LatitudeDegrees>
              <LongitudeDegrees>-4.37829424627125263214111328125</LongitudeDegrees>
            </Position>
            <AltitudeMeters>644.4000244140625</AltitudeMeters>
            <DistanceMeters>NAN</DistanceMeters>
          </Trackpoint>
          <Trackpoint>
            <Time>2020-12-05T12:23:05.000Z</Time>
            <Position>
              <LatitudeDegrees>36.83441790752112865447998046875</LatitudeDegrees>
              <LongitudeDegrees>-4.37831520102918148040771484375</LongitudeDegrees>
            </Position>
            <AltitudeMeters>644.4000244140625</AltitudeMeters>
            <DistanceMeters>NAN</DistanceMeters>
          </Trackpoint>
          <Trackpoint>
            <Time>2020-12-05T12:23:06.000Z</Time>
            <Position>
              <LatitudeDegrees>36.83441841043531894683837890625</LatitudeDegrees>
              <LongitudeDegrees>-4.378333054482936859130859375</LongitudeDegrees>
            </Position>
            <AltitudeMeters>644.4000244140625</AltitudeMeters>
            <DistanceMeters>NAN</DistanceMeters>
          </Trackpoint>
          <Trackpoint>
            <Time>2020-12-05T12:23:07.000Z</Time>
            <Position>
              <LatitudeDegrees>36.834417991340160369873046875</LatitudeDegrees>
              <LongitudeDegrees>-4.37834889627993106842041015625</LongitudeDegrees>
            </Position>
            <AltitudeMeters>644.4000244140625</AltitudeMeters>
            <DistanceMeters>NAN</DistanceMeters>
          </Trackpoint>
          <Trackpoint>
            <Time>2020-12-05T12:23:08.000Z</Time>
            <Position>
              <LatitudeDegrees>36.83441497385501861572265625</LatitudeDegrees>
              <LongitudeDegrees>-4.37837152741849422454833984375</LongitudeDegrees>
            </Position>
            <AltitudeMeters>644.4000244140625</AltitudeMeters>
            <DistanceMeters>NAN</DistanceMeters>
          </Trackpoint>
          <Trackpoint>
            <Time>2020-12-05T12:23:09.000Z</Time>
            <Position>
              <LatitudeDegrees>36.83440835215151309967041015625</LatitudeDegrees>
              <LongitudeDegrees>-4.3783962540328502655029296875</LongitudeDegrees>
            </Position>
            <AltitudeMeters>644.4000244140625</AltitudeMeters>
            <DistanceMeters>NAN</DistanceMeters>
          </Trackpoint>
          <Trackpoint>
            <Time>2020-12-05T12:23:10.000Z</Time>
            <Position>
              <LatitudeDegrees>36.834403574466705322265625</LatitudeDegrees>
              <LongitudeDegrees>-4.37841561622917652130126953125</LongitudeDegrees>
            </Position>
            <AltitudeMeters>644.4000244140625</AltitudeMeters>
            <DistanceMeters>NAN</DistanceMeters>
          </Trackpoint>
          <Trackpoint>
            <Time>2020-12-05T12:23:11.000Z</Time>
            <Position>
              <LatitudeDegrees>36.83440164662897586822509765625</LatitudeDegrees>
              <LongitudeDegrees>-4.378429614007472991943359375</LongitudeDegrees>
            </Position>
            <AltitudeMeters>644.4000244140625</AltitudeMeters>
            <DistanceMeters>NAN</DistanceMeters>
          </Trackpoint>
          <Trackpoint>
            <Time>2020-12-05T12:23:12.000Z</Time>
            <Position>
              <LatitudeDegrees>36.83439728803932666778564453125</LatitudeDegrees>
              <LongitudeDegrees>-4.3784482218325138092041015625</LongitudeDegrees>
            </Position>
            <AltitudeMeters>644.4000244140625</AltitudeMeters>
            <DistanceMeters>NAN</DistanceMeters>
          </Trackpoint>
          <Trackpoint>
            <Time>2020-12-05T12:23:13.000Z</Time>
            <Position>
              <LatitudeDegrees>36.834393851459026336669921875</LatitudeDegrees>
              <LongitudeDegrees>-4.37846817076206207275390625</LongitudeDegrees>
            </Position>
            <AltitudeMeters>644.4000244140625</AltitudeMeters>
            <DistanceMeters>NAN</DistanceMeters>
          </Trackpoint>
          <Trackpoint>
            <Time>2020-12-05T12:23:14.000Z</Time>
            <Position>
              <LatitudeDegrees>36.83439175598323345184326171875</LatitudeDegrees>
              <LongitudeDegrees>-4.37848334200680255889892578125</LongitudeDegrees>
            </Position>
            <AltitudeMeters>644.4000244140625</AltitudeMeters>
            <DistanceMeters>NAN</DistanceMeters>
          </Trackpoint>
          <Trackpoint>
            <Time>2020-12-05T12:23:15.000Z</Time>
            <Position>
              <LatitudeDegrees>36.83439007960259914398193359375</LatitudeDegrees>
              <LongitudeDegrees>-4.37849943526089191436767578125</LongitudeDegrees>
            </Position>
            <AltitudeMeters>644.4000244140625</AltitudeMeters>
            <DistanceMeters>NAN</DistanceMeters>
          </Trackpoint>
          <Trackpoint>
            <Time>2020-12-05T12:23:16.000Z</Time>
            <Position>
              <LatitudeDegrees>36.83439158834517002105712890625</LatitudeDegrees>
              <LongitudeDegrees>-4.37851837836205959320068359375</LongitudeDegrees>
            </Position>
            <AltitudeMeters>644.4000244140625</AltitudeMeters>
            <DistanceMeters>NAN</DistanceMeters>
          </Trackpoint>
          <Trackpoint>
            <Time>2020-12-05T12:23:17.000Z</Time>
            <Position>
              <LatitudeDegrees>36.8343920074403285980224609375</LatitudeDegrees>
              <LongitudeDegrees>-4.37853598035871982574462890625</LongitudeDegrees>
            </Position>
            <AltitudeMeters>644.4000244140625</AltitudeMeters>
            <DistanceMeters>NAN</DistanceMeters>
          </Trackpoint>
          <Trackpoint>
            <Time>2020-12-05T12:23:18.000Z</Time>
            <Position>
              <LatitudeDegrees>36.834391839802265167236328125</LatitudeDegrees>
              <LongitudeDegrees>-4.37855131924152374267578125</LongitudeDegrees>
            </Position>
            <AltitudeMeters>644.4000244140625</AltitudeMeters>
            <DistanceMeters>NAN</DistanceMeters>
          </Trackpoint>
          <Trackpoint>
            <Time>2020-12-05T12:23:19.000Z</Time>
            <Position>
              <LatitudeDegrees>36.83439075015485286712646484375</LatitudeDegrees>
              <LongitudeDegrees>-4.37856766395270824432373046875</LongitudeDegrees>
            </Position>
            <AltitudeMeters>644.4000244140625</AltitudeMeters>
            <DistanceMeters>NAN</DistanceMeters>
          </Trackpoint>
          <Trackpoint>
            <Time>2020-12-05T12:23:20.000Z</Time>
            <Position>
              <LatitudeDegrees>36.83439058251678943634033203125</LatitudeDegrees>
              <LongitudeDegrees>-4.37858484685420989990234375</LongitudeDegrees>
            </Position>
            <AltitudeMeters>644.4000244140625</AltitudeMeters>
            <DistanceMeters>NAN</DistanceMeters>
          </Trackpoint>
          <Trackpoint>
            <Time>2020-12-05T12:23:21.000Z</Time>
            <Position>
              <LatitudeDegrees>36.8343896605074405670166015625</LatitudeDegrees>
              <LongitudeDegrees>-4.37860035337507724761962890625</LongitudeDegrees>
            </Position>
            <AltitudeMeters>644.4000244140625</AltitudeMeters>
            <DistanceMeters>NAN</DistanceMeters>
          </Trackpoint>
          <Trackpoint>
            <Time>2020-12-05T12:23:22.000Z</Time>
            <Position>
              <LatitudeDegrees>36.83439360000193119049072265625</LatitudeDegrees>
              <LongitudeDegrees>-4.378612674772739410400390625</LongitudeDegrees>
            </Position>
            <AltitudeMeters>644.4000244140625</AltitudeMeters>
            <DistanceMeters>NAN</DistanceMeters>
          </Trackpoint>
          <Trackpoint>
            <Time>2020-12-05T12:23:23.000Z</Time>
            <Position>
              <LatitudeDegrees>36.83439812622964382171630859375</LatitudeDegrees>
              <LongitudeDegrees>-4.3786242417991161346435546875</LongitudeDegrees>
            </Position>
            <AltitudeMeters>644.4000244140625</AltitudeMeters>
            <DistanceMeters>NAN</DistanceMeters>
          </Trackpoint>
          <Trackpoint>
            <Time>2020-12-05T12:23:24.000Z</Time>
            <Position>
              <LatitudeDegrees>36.83439829386770725250244140625</LatitudeDegrees>
              <LongitudeDegrees>-4.378634802997112274169921875</LongitudeDegrees>
            </Position>
            <AltitudeMeters>644.4000244140625</AltitudeMeters>
            <DistanceMeters>NAN</DistanceMeters>
          </Trackpoint>
          <Trackpoint>
            <Time>2020-12-05T12:23:25.000Z</Time>
            <Position>
              <LatitudeDegrees>36.8343977071344852447509765625</LatitudeDegrees>
              <LongitudeDegrees>-4.3786467052996158599853515625</LongitudeDegrees>
            </Position>
            <AltitudeMeters>644.4000244140625</AltitudeMeters>
            <DistanceMeters>NAN</DistanceMeters>
          </Trackpoint>
          <Trackpoint>
            <Time>2020-12-05T12:23:26.000Z</Time>
            <Position>
              <LatitudeDegrees>36.83439561165869235992431640625</LatitudeDegrees>
              <LongitudeDegrees>-4.37866103835403919219970703125</LongitudeDegrees>
            </Position>
            <AltitudeMeters>644.4000244140625</AltitudeMeters>
            <DistanceMeters>NAN</DistanceMeters>
          </Trackpoint>
          <Trackpoint>
            <Time>2020-12-05T12:23:27.000Z</Time>
            <Position>
              <LatitudeDegrees>36.83439292944967746734619140625</LatitudeDegrees>
              <LongitudeDegrees>-4.37867830507457256317138671875</LongitudeDegrees>
            </Position>
            <AltitudeMeters>644.4000244140625</AltitudeMeters>
            <DistanceMeters>NAN</DistanceMeters>
          </Trackpoint>
          <Trackpoint>
            <Time>2020-12-05T12:23:28.000Z</Time>
            <Position>
              <LatitudeDegrees>36.83439242653548717498779296875</LatitudeDegrees>
              <LongitudeDegrees>-4.37869490124285221099853515625</LongitudeDegrees>
            </Position>
            <AltitudeMeters>644.4000244140625</AltitudeMeters>
            <DistanceMeters>NAN</DistanceMeters>
          </Trackpoint>
          <Trackpoint>
            <Time>2020-12-05T12:23:29.000Z</Time>
            <Position>
              <LatitudeDegrees>36.83438957668840885162353515625</LatitudeDegrees>
              <LongitudeDegrees>-4.3787167780101299285888671875</LongitudeDegrees>
            </Position>
            <AltitudeMeters>644.4000244140625</AltitudeMeters>
            <DistanceMeters>NAN</DistanceMeters>
          </Trackpoint>
          <Trackpoint>
            <Time>2020-12-05T12:23:30.000Z</Time>
            <Position>
              <LatitudeDegrees>36.83438739739358425140380859375</LatitudeDegrees>
              <LongitudeDegrees>-4.3787343800067901611328125</LongitudeDegrees>
            </Position>
            <AltitudeMeters>644.4000244140625</AltitudeMeters>
            <DistanceMeters>NAN</DistanceMeters>
          </Trackpoint>
          <Trackpoint>
            <Time>2020-12-05T12:23:31.000Z</Time>
            <Position>
              <LatitudeDegrees>36.834387481212615966796875</LatitudeDegrees>
              <LongitudeDegrees>-4.37874804250895977020263671875</LongitudeDegrees>
            </Position>
            <AltitudeMeters>644.4000244140625</AltitudeMeters>
            <DistanceMeters>NAN</DistanceMeters>
          </Trackpoint>
          <Trackpoint>
            <Time>2020-12-05T12:23:32.000Z</Time>
            <Position>
              <LatitudeDegrees>36.83438739739358425140380859375</LatitudeDegrees>
              <LongitudeDegrees>-4.37876053154468536376953125</LongitudeDegrees>
            </Position>
            <AltitudeMeters>644.4000244140625</AltitudeMeters>
            <DistanceMeters>NAN</DistanceMeters>
          </Trackpoint>
          <Trackpoint>
            <Time>2020-12-05T12:23:33.000Z</Time>
            <Position>
              <LatitudeDegrees>36.83438270352780818939208984375</LatitudeDegrees>
              <LongitudeDegrees>-4.37877318821847438812255859375</LongitudeDegrees>
            </Position>
            <AltitudeMeters>644.4000244140625</AltitudeMeters>
            <DistanceMeters>NAN</DistanceMeters>
          </Trackpoint>
          <Trackpoint>
            <Time>2020-12-05T12:23:34.000Z</Time>
            <Position>
              <LatitudeDegrees>36.83437532745301723480224609375</LatitudeDegrees>
              <LongitudeDegrees>-4.3787845037877559661865234375</LongitudeDegrees>
            </Position>
            <AltitudeMeters>644.4000244140625</AltitudeMeters>
            <DistanceMeters>NAN</DistanceMeters>
          </Trackpoint>
          <Trackpoint>
            <Time>2020-12-05T12:23:35.000Z</Time>
            <Position>
              <LatitudeDegrees>36.8343702144920825958251953125</LatitudeDegrees>
              <LongitudeDegrees>-4.37879414297640323638916015625</LongitudeDegrees>
            </Position>
            <AltitudeMeters>644.4000244140625</AltitudeMeters>
            <DistanceMeters>NAN</DistanceMeters>
          </Trackpoint>
          <Trackpoint>
            <Time>2020-12-05T12:23:36.000Z</Time>
            <Position>
              <LatitudeDegrees>36.83436476625502109527587890625</LatitudeDegrees>
              <LongitudeDegrees>-4.3788076378405094146728515625</LongitudeDegrees>
            </Position>
            <AltitudeMeters>644.4000244140625</AltitudeMeters>
            <DistanceMeters>NAN</DistanceMeters>
          </Trackpoint>
          <Trackpoint>
            <Time>2020-12-05T12:23:37.000Z</Time>
            <Position>
              <LatitudeDegrees>36.8343628384172916412353515625</LatitudeDegrees>
              <LongitudeDegrees>-4.378822557628154754638671875</LongitudeDegrees>
            </Position>
            <AltitudeMeters>644.4000244140625</AltitudeMeters>
            <DistanceMeters>NAN</DistanceMeters>
          </Trackpoint>
          <Trackpoint>
            <Time>2020-12-05T12:23:38.000Z</Time>
            <Position>
              <LatitudeDegrees>36.8343618325889110565185546875</LatitudeDegrees>
              <LongitudeDegrees>-4.37883990816771984100341796875</LongitudeDegrees>
            </Position>
            <AltitudeMeters>644.4000244140625</AltitudeMeters>
            <DistanceMeters>NAN</DistanceMeters>
          </Trackpoint>
          <Trackpoint>
            <Time>2020-12-05T12:23:39.000Z</Time>
            <Position>
              <LatitudeDegrees>36.83436308987438678741455078125</LatitudeDegrees>
              <LongitudeDegrees>-4.3788569234311580657958984375</LongitudeDegrees>
            </Position>
            <AltitudeMeters>644.4000244140625</AltitudeMeters>
            <DistanceMeters>NAN</DistanceMeters>
          </Trackpoint>
          <Trackpoint>
            <Time>2020-12-05T12:23:40.000Z</Time>
            <Position>
              <LatitudeDegrees>36.8343641795217990875244140625</LatitudeDegrees>
              <LongitudeDegrees>-4.37887444160878658294677734375</LongitudeDegrees>
            </Position>
            <AltitudeMeters>644.4000244140625</AltitudeMeters>
            <DistanceMeters>NAN</DistanceMeters>
          </Trackpoint>
          <Trackpoint>
            <Time>2020-12-05T12:23:41.000Z</Time>
            <Position>
              <LatitudeDegrees>36.83436526916921138763427734375</LatitudeDegrees>
              <LongitudeDegrees>-4.378899000585079193115234375</LongitudeDegrees>
            </Position>
            <AltitudeMeters>644.4000244140625</AltitudeMeters>
            <DistanceMeters>NAN</DistanceMeters>
          </Trackpoint>
          <Trackpoint>
            <Time>2020-12-05T12:23:42.000Z</Time>
            <Position>
              <LatitudeDegrees>36.8343648500740528106689453125</LatitudeDegrees>
              <LongitudeDegrees>-4.3789212964475154876708984375</LongitudeDegrees>
            </Position>
            <AltitudeMeters>644.4000244140625</AltitudeMeters>
            <DistanceMeters>NAN</DistanceMeters>
          </Trackpoint>
          <Trackpoint>
            <Time>2020-12-05T12:23:43.000Z</Time>
            <Position>
              <LatitudeDegrees>36.83436593972146511077880859375</LatitudeDegrees>
              <LongitudeDegrees>-4.37894132919609546661376953125</LongitudeDegrees>
            </Position>
            <AltitudeMeters>644.4000244140625</AltitudeMeters>
            <DistanceMeters>NAN</DistanceMeters>
          </Trackpoint>
          <Trackpoint>
            <Time>2020-12-05T12:23:44.000Z</Time>
            <Position>
              <LatitudeDegrees>36.8343658559024333953857421875</LatitudeDegrees>
              <LongitudeDegrees>-4.37895960174500942230224609375</LongitudeDegrees>
            </Position>
            <AltitudeMeters>644.4000244140625</AltitudeMeters>
            <DistanceMeters>NAN</DistanceMeters>
          </Trackpoint>
          <Trackpoint>
            <Time>2020-12-05T12:23:45.000Z</Time>
            <Position>
              <LatitudeDegrees>36.83436560444533824920654296875</LatitudeDegrees>
              <LongitudeDegrees>-4.378976784646511077880859375</LongitudeDegrees>
            </Position>
            <AltitudeMeters>644.4000244140625</AltitudeMeters>
            <DistanceMeters>NAN</DistanceMeters>
          </Trackpoint>
          <Trackpoint>
            <Time>2020-12-05T12:23:46.000Z</Time>
            <Position>
              <LatitudeDegrees>36.834365017712116241455078125</LatitudeDegrees>
              <LongitudeDegrees>-4.37899388372898101806640625</LongitudeDegrees>
            </Position>
            <AltitudeMeters>644.4000244140625</AltitudeMeters>
            <DistanceMeters>NAN</DistanceMeters>
          </Trackpoint>
          <Trackpoint>
            <Time>2020-12-05T12:23:47.000Z</Time>
            <Position>
              <LatitudeDegrees>36.834367029368877410888671875</LatitudeDegrees>
              <LongitudeDegrees>-4.37901265919208526611328125</LongitudeDegrees>
            </Position>
            <AltitudeMeters>644.4000244140625</AltitudeMeters>
            <DistanceMeters>NAN</DistanceMeters>
          </Trackpoint>
          <Trackpoint>
            <Time>2020-12-05T12:23:48.000Z</Time>
            <Position>
              <LatitudeDegrees>36.83437096886336803436279296875</LatitudeDegrees>
              <LongitudeDegrees>-4.37903285957872867584228515625</LongitudeDegrees>
            </Position>
            <AltitudeMeters>644.4000244140625</AltitudeMeters>
            <DistanceMeters>NAN</DistanceMeters>
          </Trackpoint>
          <Trackpoint>
            <Time>2020-12-05T12:23:49.000Z</Time>
            <Position>
              <LatitudeDegrees>36.83437063358724117279052734375</LatitudeDegrees>
              <LongitudeDegrees>-4.37904979102313518524169921875</LongitudeDegrees>
            </Position>
            <AltitudeMeters>644.4000244140625</AltitudeMeters>
            <DistanceMeters>NAN</DistanceMeters>
          </Trackpoint>
          <Trackpoint>
            <Time>2020-12-05T12:23:50.000Z</Time>
            <Position>
              <LatitudeDegrees>36.83436778374016284942626953125</LatitudeDegrees>
              <LongitudeDegrees>-4.3790647946298122406005859375</LongitudeDegrees>
            </Position>
            <AltitudeMeters>644.4000244140625</AltitudeMeters>
            <DistanceMeters>NAN</DistanceMeters>
          </Trackpoint>
          <Trackpoint>
            <Time>2020-12-05T12:23:51.000Z</Time>
            <Position>
              <LatitudeDegrees>36.83436535298824310302734375</LatitudeDegrees>
              <LongitudeDegrees>-4.3790795467793941497802734375</LongitudeDegrees>
            </Position>
            <AltitudeMeters>644.4000244140625</AltitudeMeters>
            <DistanceMeters>NAN</DistanceMeters>
          </Trackpoint>
          <Trackpoint>
            <Time>2020-12-05T12:23:52.000Z</Time>
            <Position>
              <LatitudeDegrees>36.834365017712116241455078125</LatitudeDegrees>
              <LongitudeDegrees>-4.37909572385251522064208984375</LongitudeDegrees>
            </Position>
            <AltitudeMeters>644.4000244140625</AltitudeMeters>
            <DistanceMeters>NAN</DistanceMeters>
          </Trackpoint>
          <Trackpoint>
            <Time>2020-12-05T12:23:53.000Z</Time>
            <Position>
              <LatitudeDegrees>36.83436325751245021820068359375</LatitudeDegrees>
              <LongitudeDegrees>-4.37911349348723888397216796875</LongitudeDegrees>
            </Position>
            <AltitudeMeters>644.4000244140625</AltitudeMeters>
            <DistanceMeters>NAN</DistanceMeters>
          </Trackpoint>
          <Trackpoint>
            <Time>2020-12-05T12:23:54.000Z</Time>
            <Position>
              <LatitudeDegrees>36.8343588151037693023681640625</LatitudeDegrees>
              <LongitudeDegrees>-4.37912824563682079315185546875</LongitudeDegrees>
            </Position>
            <AltitudeMeters>644.4000244140625</AltitudeMeters>
            <DistanceMeters>NAN</DistanceMeters>
          </Trackpoint>
          <Trackpoint>
            <Time>2020-12-05T12:23:55.000Z</Time>
            <Position>
              <LatitudeDegrees>36.83435386978089809417724609375</LatitudeDegrees>
              <LongitudeDegrees>-4.37914333306252956390380859375</LongitudeDegrees>
            </Position>
            <AltitudeMeters>644.4000244140625</AltitudeMeters>
            <DistanceMeters>NAN</DistanceMeters>
          </Trackpoint>
          <Trackpoint>
            <Time>2020-12-05T12:23:56.000Z</Time>
            <Position>
              <LatitudeDegrees>36.83434817008674144744873046875</LatitudeDegrees>
              <LongitudeDegrees>-4.37915758229792118072509765625</LongitudeDegrees>
            </Position>
            <AltitudeMeters>644.4000244140625</AltitudeMeters>
            <DistanceMeters>NAN</DistanceMeters>
          </Trackpoint>
          <Trackpoint>
            <Time>2020-12-05T12:23:57.000Z</Time>
            <Position>
              <LatitudeDegrees>36.83434431441128253936767578125</LatitudeDegrees>
              <LongitudeDegrees>-4.37917049042880535125732421875</LongitudeDegrees>
            </Position>
            <AltitudeMeters>644.4000244140625</AltitudeMeters>
            <DistanceMeters>NAN</DistanceMeters>
          </Trackpoint>
          <Trackpoint>
            <Time>2020-12-05T12:23:58.000Z</Time>
            <Position>
              <LatitudeDegrees>36.83433978818356990814208984375</LatitudeDegrees>
              <LongitudeDegrees>-4.3791821412742137908935546875</LongitudeDegrees>
            </Position>
            <AltitudeMeters>644.4000244140625</AltitudeMeters>
            <DistanceMeters>NAN</DistanceMeters>
          </Trackpoint>
          <Trackpoint>
            <Time>2020-12-05T12:23:59.000Z</Time>
            <Position>
              <LatitudeDegrees>36.83433509431779384613037109375</LatitudeDegrees>
              <LongitudeDegrees>-4.37919546850025653839111328125</LongitudeDegrees>
            </Position>
            <AltitudeMeters>644.4000244140625</AltitudeMeters>
            <DistanceMeters>NAN</DistanceMeters>
          </Trackpoint>
          <Trackpoint>
            <Time>2020-12-05T12:24:00.000Z</Time>
            <Position>
              <LatitudeDegrees>36.8343296460807323455810546875</LatitudeDegrees>
              <LongitudeDegrees>-4.37921072356402873992919921875</LongitudeDegrees>
            </Position>
            <AltitudeMeters>642.5999755859375</AltitudeMeters>
            <DistanceMeters>NAN</DistanceMeters>
          </Trackpoint>
          <Trackpoint>
            <Time>2020-12-05T12:24:01.000Z</Time>
            <Position>
              <LatitudeDegrees>36.8343217670917510986328125</LatitudeDegrees>
              <LongitudeDegrees>-4.37923033721745014190673828125</LongitudeDegrees>
            </Position>
            <AltitudeMeters>642.5999755859375</AltitudeMeters>
            <DistanceMeters>NAN</DistanceMeters>
          </Trackpoint>
          <Trackpoint>
            <Time>2020-12-05T12:24:02.000Z</Time>
            <Position>
              <LatitudeDegrees>36.83431707322597503662109375</LatitudeDegrees>
              <LongitudeDegrees>-4.37925229780375957489013671875</LongitudeDegrees>
            </Position>
            <AltitudeMeters>642.5999755859375</AltitudeMeters>
            <DistanceMeters>NAN</DistanceMeters>
          </Trackpoint>
          <Trackpoint>
            <Time>2020-12-05T12:24:03.000Z</Time>
            <Position>
              <LatitudeDegrees>36.83431112207472324371337890625</LatitudeDegrees>
              <LongitudeDegrees>-4.37927543185651302337646484375</LongitudeDegrees>
            </Position>
            <AltitudeMeters>642.5999755859375</AltitudeMeters>
            <DistanceMeters>NAN</DistanceMeters>
          </Trackpoint>
          <Trackpoint>
            <Time>2020-12-05T12:24:04.000Z</Time>
            <Position>
              <LatitudeDegrees>36.83430525474250316619873046875</LatitudeDegrees>
              <LongitudeDegrees>-4.379297979176044464111328125</LongitudeDegrees>
            </Position>
            <AltitudeMeters>642.5999755859375</AltitudeMeters>
            <DistanceMeters>NAN</DistanceMeters>
          </Trackpoint>
          <Trackpoint>
            <Time>2020-12-05T12:24:05.000Z</Time>
            <Position>
              <LatitudeDegrees>36.83429989032447338104248046875</LatitudeDegrees>
              <LongitudeDegrees>-4.37931935302913188934326171875</LongitudeDegrees>
            </Position>
            <AltitudeMeters>642.5999755859375</AltitudeMeters>
            <DistanceMeters>NAN</DistanceMeters>
          </Trackpoint>
          <Trackpoint>
            <Time>2020-12-05T12:24:06.000Z</Time>
            <Position>
              <LatitudeDegrees>36.8342944420874118804931640625</LatitudeDegrees>
              <LongitudeDegrees>-4.379341900348663330078125</LongitudeDegrees>
            </Position>
            <AltitudeMeters>642.5999755859375</AltitudeMeters>
            <DistanceMeters>NAN</DistanceMeters>
          </Trackpoint>
          <Trackpoint>
            <Time>2020-12-05T12:24:07.000Z</Time>
            <Position>
              <LatitudeDegrees>36.8342887423932552337646484375</LatitudeDegrees>
              <LongitudeDegrees>-4.379363358020782470703125</LongitudeDegrees>
            </Position>
            <AltitudeMeters>642.5999755859375</AltitudeMeters>
            <DistanceMeters>NAN</DistanceMeters>
          </Trackpoint>
          <Trackpoint>
            <Time>2020-12-05T12:24:08.000Z</Time>
            <Position>
              <LatitudeDegrees>36.834282539784908294677734375</LatitudeDegrees>
              <LongitudeDegrees>-4.37938808463513851165771484375</LongitudeDegrees>
            </Position>
            <AltitudeMeters>642.5999755859375</AltitudeMeters>
            <DistanceMeters>NAN</DistanceMeters>
          </Trackpoint>
          <Trackpoint>
            <Time>2020-12-05T12:24:09.000Z</Time>
            <Position>
              <LatitudeDegrees>36.834280192852020263671875</LatitudeDegrees>
              <LongitudeDegrees>-4.379413984715938568115234375</LongitudeDegrees>
            </Position>
            <AltitudeMeters>642.5999755859375</AltitudeMeters>
            <DistanceMeters>NAN</DistanceMeters>
          </Trackpoint>
          <Trackpoint>
            <Time>2020-12-05T12:24:10.000Z</Time>
            <Position>
              <LatitudeDegrees>36.83427642099559307098388671875</LatitudeDegrees>
              <LongitudeDegrees>-4.37943887896835803985595703125</LongitudeDegrees>
            </Position>
            <AltitudeMeters>642.5999755859375</AltitudeMeters>
            <DistanceMeters>NAN</DistanceMeters>
          </Trackpoint>
          <Trackpoint>
            <Time>2020-12-05T12:24:11.000Z</Time>
            <Position>
              <LatitudeDegrees>36.83427507989108562469482421875</LatitudeDegrees>
              <LongitudeDegrees>-4.3794641084969043731689453125</LongitudeDegrees>
            </Position>
            <AltitudeMeters>642.5999755859375</AltitudeMeters>
            <DistanceMeters>NAN</DistanceMeters>
          </Trackpoint>
          <Trackpoint>
            <Time>2020-12-05T12:24:12.000Z</Time>
            <Position>
              <LatitudeDegrees>36.83427524752914905548095703125</LatitudeDegrees>
              <LongitudeDegrees>-4.379487074911594390869140625</LongitudeDegrees>
            </Position>
            <AltitudeMeters>642.5999755859375</AltitudeMeters>
            <DistanceMeters>NAN</DistanceMeters>
          </Trackpoint>
          <Trackpoint>
            <Time>2020-12-05T12:24:13.000Z</Time>
            <Position>
              <LatitudeDegrees>36.83428111486136913299560546875</LatitudeDegrees>
              <LongitudeDegrees>-4.37950761057436466217041015625</LongitudeDegrees>
            </Position>
            <AltitudeMeters>642.5999755859375</AltitudeMeters>
            <DistanceMeters>NAN</DistanceMeters>
          </Trackpoint>
          <Trackpoint>
            <Time>2020-12-05T12:24:14.000Z</Time>
            <Position>
              <LatitudeDegrees>36.8342840485274791717529296875</LatitudeDegrees>
              <LongitudeDegrees>-4.37952605076134204864501953125</LongitudeDegrees>
            </Position>
            <AltitudeMeters>642.5999755859375</AltitudeMeters>
            <DistanceMeters>NAN</DistanceMeters>
          </Trackpoint>
          <Trackpoint>
            <Time>2020-12-05T12:24:15.000Z</Time>
            <Position>
              <LatitudeDegrees>36.83428815566003322601318359375</LatitudeDegrees>
              <LongitudeDegrees>-4.37954180873930454254150390625</LongitudeDegrees>
            </Position>
            <AltitudeMeters>642.5999755859375</AltitudeMeters>
            <DistanceMeters>NAN</DistanceMeters>
          </Trackpoint>
          <Trackpoint>
            <Time>2020-12-05T12:24:16.000Z</Time>
            <Position>
              <LatitudeDegrees>36.8342937715351581573486328125</LatitudeDegrees>
              <LongitudeDegrees>-4.37955723144114017486572265625</LongitudeDegrees>
            </Position>
            <AltitudeMeters>642.5999755859375</AltitudeMeters>
            <DistanceMeters>NAN</DistanceMeters>
          </Trackpoint>
          <Trackpoint>
            <Time>2020-12-05T12:24:17.000Z</Time>
            <Position>
              <LatitudeDegrees>36.83429963886737823486328125</LatitudeDegrees>
              <LongitudeDegrees>-4.37957248650491237640380859375</LongitudeDegrees>
            </Position>
            <AltitudeMeters>642.5999755859375</AltitudeMeters>
            <DistanceMeters>NAN</DistanceMeters>
          </Trackpoint>
          <Trackpoint>
            <Time>2020-12-05T12:24:18.000Z</Time>
            <Position>
              <LatitudeDegrees>36.8343029916286468505859375</LatitudeDegrees>
              <LongitudeDegrees>-4.3795873224735260009765625</LongitudeDegrees>
            </Position>
            <AltitudeMeters>642.5999755859375</AltitudeMeters>
            <DistanceMeters>NAN</DistanceMeters>
          </Trackpoint>
          <Trackpoint>
            <Time>2020-12-05T12:24:19.000Z</Time>
            <Position>
              <LatitudeDegrees>36.83430508710443973541259765625</LatitudeDegrees>
              <LongitudeDegrees>-4.37960199080407619476318359375</LongitudeDegrees>
            </Position>
            <AltitudeMeters>642.5999755859375</AltitudeMeters>
            <DistanceMeters>NAN</DistanceMeters>
          </Trackpoint>
          <Trackpoint>
            <Time>2020-12-05T12:24:20.000Z</Time>
            <Position>
              <LatitudeDegrees>36.8343056738376617431640625</LatitudeDegrees>
              <LongitudeDegrees>-4.37961724586784839630126953125</LongitudeDegrees>
            </Position>
            <AltitudeMeters>642.5999755859375</AltitudeMeters>
            <DistanceMeters>NAN</DistanceMeters>
          </Trackpoint>
          <Trackpoint>
            <Time>2020-12-05T12:24:21.000Z</Time>
            <Position>
              <LatitudeDegrees>36.83431112207472324371337890625</LatitudeDegrees>
              <LongitudeDegrees>-4.37963090837001800537109375</LongitudeDegrees>
            </Position>
            <AltitudeMeters>642.5999755859375</AltitudeMeters>
            <DistanceMeters>NAN</DistanceMeters>
          </Trackpoint>
          <Trackpoint>
            <Time>2020-12-05T12:24:22.000Z</Time>
            <Position>
              <LatitudeDegrees>36.8343142233788967132568359375</LatitudeDegrees>
              <LongitudeDegrees>-4.3796444870531558990478515625</LongitudeDegrees>
            </Position>
            <AltitudeMeters>642.5999755859375</AltitudeMeters>
            <DistanceMeters>NAN</DistanceMeters>
          </Trackpoint>
          <Trackpoint>
            <Time>2020-12-05T12:24:23.000Z</Time>
            <Position>
              <LatitudeDegrees>36.83431548066437244415283203125</LatitudeDegrees>
              <LongitudeDegrees>-4.37965898774564266204833984375</LongitudeDegrees>
            </Position>
            <AltitudeMeters>642.5999755859375</AltitudeMeters>
            <DistanceMeters>NAN</DistanceMeters>
          </Trackpoint>
          <Trackpoint>
            <Time>2020-12-05T12:24:24.000Z</Time>
            <Position>
              <LatitudeDegrees>36.8343215994536876678466796875</LatitudeDegrees>
              <LongitudeDegrees>-4.37967306934297084808349609375</LongitudeDegrees>
            </Position>
            <AltitudeMeters>642.5999755859375</AltitudeMeters>
            <DistanceMeters>NAN</DistanceMeters>
          </Trackpoint>
          <Trackpoint>
            <Time>2020-12-05T12:24:25.000Z</Time>
            <Position>
              <LatitudeDegrees>36.83432704769074916839599609375</LatitudeDegrees>
              <LongitudeDegrees>-4.37968597747385501861572265625</LongitudeDegrees>
            </Position>
            <AltitudeMeters>642.5999755859375</AltitudeMeters>
            <DistanceMeters>NAN</DistanceMeters>
          </Trackpoint>
          <Trackpoint>
            <Time>2020-12-05T12:24:26.000Z</Time>
            <Position>
              <LatitudeDegrees>36.8343309871852397918701171875</LatitudeDegrees>
              <LongitudeDegrees>-4.37970056198537349700927734375</LongitudeDegrees>
            </Position>
            <AltitudeMeters>642.5999755859375</AltitudeMeters>
            <DistanceMeters>NAN</DistanceMeters>
          </Trackpoint>
          <Trackpoint>
            <Time>2020-12-05T12:24:27.000Z</Time>
            <Position>
              <LatitudeDegrees>36.834336854517459869384765625</LatitudeDegrees>
              <LongitudeDegrees>-4.37971279956400394439697265625</LongitudeDegrees>
            </Position>
            <AltitudeMeters>642.5999755859375</AltitudeMeters>
            <DistanceMeters>NAN</DistanceMeters>
          </Trackpoint>
          <Trackpoint>
            <Time>2020-12-05T12:24:28.000Z</Time>
            <Position>
              <LatitudeDegrees>36.83434188365936279296875</LatitudeDegrees>
              <LongitudeDegrees>-4.37972352840006351470947265625</LongitudeDegrees>
            </Position>
            <AltitudeMeters>642.5999755859375</AltitudeMeters>
            <DistanceMeters>NAN</DistanceMeters>
          </Trackpoint>
          <Trackpoint>
            <Time>2020-12-05T12:24:29.000Z</Time>
            <Position>
              <LatitudeDegrees>36.83434364385902881622314453125</LatitudeDegrees>
              <LongitudeDegrees>-4.3797348439693450927734375</LongitudeDegrees>
            </Position>
            <AltitudeMeters>642.5999755859375</AltitudeMeters>
            <DistanceMeters>NAN</DistanceMeters>
          </Trackpoint>
          <Trackpoint>
            <Time>2020-12-05T12:24:30.000Z</Time>
            <Position>
              <LatitudeDegrees>36.83434766717255115509033203125</LatitudeDegrees>
              <LongitudeDegrees>-4.37974465079605579376220703125</LongitudeDegrees>
            </Position>
            <AltitudeMeters>642.5999755859375</AltitudeMeters>
            <DistanceMeters>NAN</DistanceMeters>
          </Trackpoint>
          <Trackpoint>
            <Time>2020-12-05T12:24:31.000Z</Time>
            <Position>
              <LatitudeDegrees>36.8343534506857395172119140625</LatitudeDegrees>
              <LongitudeDegrees>-4.37975571490824222564697265625</LongitudeDegrees>
            </Position>
            <AltitudeMeters>642.5999755859375</AltitudeMeters>
            <DistanceMeters>NAN</DistanceMeters>
          </Trackpoint>
          <Trackpoint>
            <Time>2020-12-05T12:24:32.000Z</Time>
            <Position>
              <LatitudeDegrees>36.8343645147979259490966796875</LatitudeDegrees>
              <LongitudeDegrees>-4.3797712214291095733642578125</LongitudeDegrees>
            </Position>
            <AltitudeMeters>642.5999755859375</AltitudeMeters>
            <DistanceMeters>NAN</DistanceMeters>
          </Trackpoint>
          <Trackpoint>
            <Time>2020-12-05T12:24:33.000Z</Time>
            <Position>
              <LatitudeDegrees>36.834377087652683258056640625</LatitudeDegrees>
              <LongitudeDegrees>-4.37978723086416721343994140625</LongitudeDegrees>
            </Position>
            <AltitudeMeters>642.5999755859375</AltitudeMeters>
            <DistanceMeters>NAN</DistanceMeters>
          </Trackpoint>
          <Trackpoint>
            <Time>2020-12-05T12:24:34.000Z</Time>
            <Position>
              <LatitudeDegrees>36.83438479900360107421875</LatitudeDegrees>
              <LongitudeDegrees>-4.37980265356600284576416015625</LongitudeDegrees>
            </Position>
            <AltitudeMeters>642.5999755859375</AltitudeMeters>
            <DistanceMeters>NAN</DistanceMeters>
          </Trackpoint>
          <Trackpoint>
            <Time>2020-12-05T12:24:35.000Z</Time>
            <Position>
              <LatitudeDegrees>36.834389828145503997802734375</LatitudeDegrees>
              <LongitudeDegrees>-4.37981707043945789337158203125</LongitudeDegrees>
            </Position>
            <AltitudeMeters>642.5999755859375</AltitudeMeters>
            <DistanceMeters>NAN</DistanceMeters>
          </Trackpoint>
          <Trackpoint>
            <Time>2020-12-05T12:24:36.000Z</Time>
            <Position>
              <LatitudeDegrees>36.8343990482389926910400390625</LatitudeDegrees>
              <LongitudeDegrees>-4.37983014620840549468994140625</LongitudeDegrees>
            </Position>
            <AltitudeMeters>642.5999755859375</AltitudeMeters>
            <DistanceMeters>NAN</DistanceMeters>
          </Trackpoint>
          <Trackpoint>
            <Time>2020-12-05T12:24:37.000Z</Time>
            <Position>
              <LatitudeDegrees>36.83440919034183025360107421875</LatitudeDegrees>
              <LongitudeDegrees>-4.3798426352441310882568359375</LongitudeDegrees>
            </Position>
            <AltitudeMeters>642.5999755859375</AltitudeMeters>
            <DistanceMeters>NAN</DistanceMeters>
          </Trackpoint>
          <Trackpoint>
            <Time>2020-12-05T12:24:38.000Z</Time>
            <Position>
              <LatitudeDegrees>36.83442444540560245513916015625</LatitudeDegrees>
              <LongitudeDegrees>-4.379853866994380950927734375</LongitudeDegrees>
            </Position>
            <AltitudeMeters>642.5999755859375</AltitudeMeters>
            <DistanceMeters>NAN</DistanceMeters>
          </Trackpoint>
          <Trackpoint>
            <Time>2020-12-05T12:24:39.000Z</Time>
            <Position>
              <LatitudeDegrees>36.8344386108219623565673828125</LatitudeDegrees>
              <LongitudeDegrees>-4.3798640929162502288818359375</LongitudeDegrees>
            </Position>
            <AltitudeMeters>642.5999755859375</AltitudeMeters>
            <DistanceMeters>NAN</DistanceMeters>
          </Trackpoint>
          <Trackpoint>
            <Time>2020-12-05T12:24:40.000Z</Time>
            <Position>
              <LatitudeDegrees>36.83444825001060962677001953125</LatitudeDegrees>
              <LongitudeDegrees>-4.37987440265715122222900390625</LongitudeDegrees>
            </Position>
            <AltitudeMeters>642.5999755859375</AltitudeMeters>
            <DistanceMeters>NAN</DistanceMeters>
          </Trackpoint>
          <Trackpoint>
            <Time>2020-12-05T12:24:41.000Z</Time>
            <Position>
              <LatitudeDegrees>36.83445654809474945068359375</LatitudeDegrees>
              <LongitudeDegrees>-4.3798805214464664459228515625</LongitudeDegrees>
            </Position>
            <AltitudeMeters>642.5999755859375</AltitudeMeters>
            <DistanceMeters>NAN</DistanceMeters>
          </Trackpoint>
          <Trackpoint>
            <Time>2020-12-05T12:24:42.000Z</Time>
            <Position>
              <LatitudeDegrees>36.8344637565314769744873046875</LatitudeDegrees>
              <LongitudeDegrees>-4.379886724054813385009765625</LongitudeDegrees>
            </Position>
            <AltitudeMeters>642.5999755859375</AltitudeMeters>
            <DistanceMeters>NAN</DistanceMeters>
          </Trackpoint>
          <Trackpoint>
            <Time>2020-12-05T12:24:43.000Z</Time>
            <Position>
              <LatitudeDegrees>36.8344734795391559600830078125</LatitudeDegrees>
              <LongitudeDegrees>-4.37989435158669948577880859375</LongitudeDegrees>
            </Position>
            <AltitudeMeters>642.5999755859375</AltitudeMeters>
            <DistanceMeters>NAN</DistanceMeters>
          </Trackpoint>
          <Trackpoint>
            <Time>2020-12-05T12:24:44.000Z</Time>
            <Position>
              <LatitudeDegrees>36.83448630385100841522216796875</LatitudeDegrees>
              <LongitudeDegrees>-4.37990591861307621002197265625</LongitudeDegrees>
            </Position>
            <AltitudeMeters>642.5999755859375</AltitudeMeters>
            <DistanceMeters>NAN</DistanceMeters>
          </Trackpoint>
          <Trackpoint>
            <Time>2020-12-05T12:24:45.000Z</Time>
            <Position>
              <LatitudeDegrees>36.83449946343898773193359375</LatitudeDegrees>
              <LongitudeDegrees>-4.379919581115245819091796875</LongitudeDegrees>
            </Position>
            <AltitudeMeters>642.5999755859375</AltitudeMeters>
            <DistanceMeters>NAN</DistanceMeters>
          </Trackpoint>
          <Trackpoint>
            <Time>2020-12-05T12:24:46.000Z</Time>
            <Position>
              <LatitudeDegrees>36.83450885117053985595703125</LatitudeDegrees>
              <LongitudeDegrees>-4.37993592582643032073974609375</LongitudeDegrees>
            </Position>
            <AltitudeMeters>642.5999755859375</AltitudeMeters>
            <DistanceMeters>NAN</DistanceMeters>
          </Trackpoint>
          <Trackpoint>
            <Time>2020-12-05T12:24:47.000Z</Time>
            <Position>
              <LatitudeDegrees>36.834517903625965118408203125</LatitudeDegrees>
              <LongitudeDegrees>-4.379952438175678253173828125</LongitudeDegrees>
            </Position>
            <AltitudeMeters>642.5999755859375</AltitudeMeters>
            <DistanceMeters>NAN</DistanceMeters>
          </Trackpoint>
          <Trackpoint>
            <Time>2020-12-05T12:24:48.000Z</Time>
            <Position>
              <LatitudeDegrees>36.834526620805263519287109375</LatitudeDegrees>
              <LongitudeDegrees>-4.3799686990678310394287109375</LongitudeDegrees>
            </Position>
            <AltitudeMeters>642.5999755859375</AltitudeMeters>
            <DistanceMeters>NAN</DistanceMeters>
          </Trackpoint>
          <Trackpoint>
            <Time>2020-12-05T12:24:49.000Z</Time>
            <Position>
              <LatitudeDegrees>36.83453567326068878173828125</LatitudeDegrees>
              <LongitudeDegrees>-4.3799844570457935333251953125</LongitudeDegrees>
            </Position>
            <AltitudeMeters>642.5999755859375</AltitudeMeters>
            <DistanceMeters>NAN</DistanceMeters>
          </Trackpoint>
          <Trackpoint>
            <Time>2020-12-05T12:24:50.000Z</Time>
            <Position>
              <LatitudeDegrees>36.834540702402591705322265625</LatitudeDegrees>
              <LongitudeDegrees>-4.3800012208521366119384765625</LongitudeDegrees>
            </Position>
            <AltitudeMeters>642.5999755859375</AltitudeMeters>
            <DistanceMeters>NAN</DistanceMeters>
          </Trackpoint>
          <Trackpoint>
            <Time>2020-12-05T12:24:51.000Z</Time>
            <Position>
              <LatitudeDegrees>36.83454480953514575958251953125</LatitudeDegrees>
              <LongitudeDegrees>-4.3800151348114013671875</LongitudeDegrees>
            </Position>
            <AltitudeMeters>642.5999755859375</AltitudeMeters>
            <DistanceMeters>NAN</DistanceMeters>
          </Trackpoint>
          <Trackpoint>
            <Time>2020-12-05T12:24:52.000Z</Time>
            <Position>
              <LatitudeDegrees>36.83454615063965320587158203125</LatitudeDegrees>
              <LongitudeDegrees>-4.38003231771290302276611328125</LongitudeDegrees>
            </Position>
            <AltitudeMeters>642.5999755859375</AltitudeMeters>
            <DistanceMeters>NAN</DistanceMeters>
          </Trackpoint>
          <Trackpoint>
            <Time>2020-12-05T12:24:53.000Z</Time>
            <Position>
              <LatitudeDegrees>36.8345495872199535369873046875</LatitudeDegrees>
              <LongitudeDegrees>-4.3800481595098972320556640625</LongitudeDegrees>
            </Position>
            <AltitudeMeters>642.5999755859375</AltitudeMeters>
            <DistanceMeters>NAN</DistanceMeters>
          </Trackpoint>
          <Trackpoint>
            <Time>2020-12-05T12:24:54.000Z</Time>
            <Position>
              <LatitudeDegrees>36.8345529399812221527099609375</LatitudeDegrees>
              <LongitudeDegrees>-4.38006408512592315673828125</LongitudeDegrees>
            </Position>
            <AltitudeMeters>642.5999755859375</AltitudeMeters>
            <DistanceMeters>NAN</DistanceMeters>
          </Trackpoint>
          <Trackpoint>
            <Time>2020-12-05T12:24:55.000Z</Time>
            <Position>
              <LatitudeDegrees>36.8345596455037593841552734375</LatitudeDegrees>
              <LongitudeDegrees>-4.38007741235196590423583984375</LongitudeDegrees>
            </Position>
            <AltitudeMeters>642.5999755859375</AltitudeMeters>
            <DistanceMeters>NAN</DistanceMeters>
          </Trackpoint>
          <Trackpoint>
            <Time>2020-12-05T12:24:56.000Z</Time>
            <Position>
              <LatitudeDegrees>36.83456760831177234649658203125</LatitudeDegrees>
              <LongitudeDegrees>-4.380090236663818359375</LongitudeDegrees>
            </Position>
            <AltitudeMeters>642.5999755859375</AltitudeMeters>
            <DistanceMeters>NAN</DistanceMeters>
          </Trackpoint>
          <Trackpoint>
            <Time>2020-12-05T12:24:57.000Z</Time>
            <Position>
              <LatitudeDegrees>36.83457699604332447052001953125</LatitudeDegrees>
              <LongitudeDegrees>-4.38010138459503650665283203125</LongitudeDegrees>
            </Position>
            <AltitudeMeters>642.5999755859375</AltitudeMeters>
            <DistanceMeters>NAN</DistanceMeters>
          </Trackpoint>
          <Trackpoint>
            <Time>2020-12-05T12:24:58.000Z</Time>
            <Position>
              <LatitudeDegrees>36.8345868028700351715087890625</LatitudeDegrees>
              <LongitudeDegrees>-4.38011026941239833831787109375</LongitudeDegrees>
            </Position>
            <AltitudeMeters>642.5999755859375</AltitudeMeters>
            <DistanceMeters>NAN</DistanceMeters>
          </Trackpoint>
          <Trackpoint>
            <Time>2020-12-05T12:24:59.000Z</Time>
            <Position>
              <LatitudeDegrees>36.83459644205868244171142578125</LatitudeDegrees>
              <LongitudeDegrees>-4.3801175616681575775146484375</LongitudeDegrees>
            </Position>
            <AltitudeMeters>642.5999755859375</AltitudeMeters>
            <DistanceMeters>NAN</DistanceMeters>
          </Trackpoint>
          <Trackpoint>
            <Time>2020-12-05T12:25:00.000Z</Time>
            <Position>
              <LatitudeDegrees>36.83460784144699573516845703125</LatitudeDegrees>
              <LongitudeDegrees>-4.380126781761646270751953125</LongitudeDegrees>
            </Position>
            <AltitudeMeters>642.4000244140625</AltitudeMeters>
            <DistanceMeters>NAN</DistanceMeters>
          </Trackpoint>
          <Trackpoint>
            <Time>2020-12-05T12:25:01.000Z</Time>
            <Position>
              <LatitudeDegrees>36.8346194922924041748046875</LatitudeDegrees>
              <LongitudeDegrees>-4.38013692386448383331298828125</LongitudeDegrees>
            </Position>
            <AltitudeMeters>642.4000244140625</AltitudeMeters>
            <DistanceMeters>NAN</DistanceMeters>
          </Trackpoint>
          <Trackpoint>
            <Time>2020-12-05T12:25:02.000Z</Time>
            <Position>
              <LatitudeDegrees>36.83463047258555889129638671875</LatitudeDegrees>
              <LongitudeDegrees>-4.380152262747287750244140625</LongitudeDegrees>
            </Position>
            <AltitudeMeters>642.4000244140625</AltitudeMeters>
            <DistanceMeters>NAN</DistanceMeters>
          </Trackpoint>
          <Trackpoint>
            <Time>2020-12-05T12:25:03.000Z</Time>
            <Position>
              <LatitudeDegrees>36.8346427939832210540771484375</LatitudeDegrees>
              <LongitudeDegrees>-4.38016726635396480560302734375</LongitudeDegrees>
            </Position>
            <AltitudeMeters>642.4000244140625</AltitudeMeters>
            <DistanceMeters>NAN</DistanceMeters>
          </Trackpoint>
          <Trackpoint>
            <Time>2020-12-05T12:25:04.000Z</Time>
            <Position>
              <LatitudeDegrees>36.83465243317186832427978515625</LatitudeDegrees>
              <LongitudeDegrees>-4.38018067739903926849365234375</LongitudeDegrees>
            </Position>
            <AltitudeMeters>642.4000244140625</AltitudeMeters>
            <DistanceMeters>NAN</DistanceMeters>
          </Trackpoint>
          <Trackpoint>
            <Time>2020-12-05T12:25:05.000Z</Time>
            <Position>
              <LatitudeDegrees>36.83466064743697643280029296875</LatitudeDegrees>
              <LongitudeDegrees>-4.3801963515579700469970703125</LongitudeDegrees>
            </Position>
            <AltitudeMeters>642.4000244140625</AltitudeMeters>
            <DistanceMeters>NAN</DistanceMeters>
          </Trackpoint>
          <Trackpoint>
            <Time>2020-12-05T12:25:06.000Z</Time>
            <Position>
              <LatitudeDegrees>36.83466852642595767974853515625</LatitudeDegrees>
              <LongitudeDegrees>-4.38021487556397914886474609375</LongitudeDegrees>
            </Position>
            <AltitudeMeters>642.4000244140625</AltitudeMeters>
            <DistanceMeters>NAN</DistanceMeters>
          </Trackpoint>
          <Trackpoint>
            <Time>2020-12-05T12:25:07.000Z</Time>
            <Position>
              <LatitudeDegrees>36.834674812853336334228515625</LatitudeDegrees>
              <LongitudeDegrees>-4.38023247756063938140869140625</LongitudeDegrees>
            </Position>
            <AltitudeMeters>642.4000244140625</AltitudeMeters>
            <DistanceMeters>NAN</DistanceMeters>
          </Trackpoint>
          <Trackpoint>
            <Time>2020-12-05T12:25:08.000Z</Time>
            <Position>
              <LatitudeDegrees>36.8346816860139369964599609375</LatitudeDegrees>
              <LongitudeDegrees>-4.3802513368427753448486328125</LongitudeDegrees>
            </Position>
            <AltitudeMeters>642.4000244140625</AltitudeMeters>
            <DistanceMeters>NAN</DistanceMeters>
          </Trackpoint>
          <Trackpoint>
            <Time>2020-12-05T12:25:09.000Z</Time>
            <Position>
              <LatitudeDegrees>36.8346890620887279510498046875</LatitudeDegrees>
              <LongitudeDegrees>-4.380267597734928131103515625</LongitudeDegrees>
            </Position>
            <AltitudeMeters>642.4000244140625</AltitudeMeters>
            <DistanceMeters>NAN</DistanceMeters>
          </Trackpoint>
          <Trackpoint>
            <Time>2020-12-05T12:25:10.000Z</Time>
            <Position>
              <LatitudeDegrees>36.83469953946769237518310546875</LatitudeDegrees>
              <LongitudeDegrees>-4.380283690989017486572265625</LongitudeDegrees>
            </Position>
            <AltitudeMeters>642.4000244140625</AltitudeMeters>
            <DistanceMeters>NAN</DistanceMeters>
          </Trackpoint>
          <Trackpoint>
            <Time>2020-12-05T12:25:11.000Z</Time>
            <Position>
              <LatitudeDegrees>36.83471295051276683807373046875</LatitudeDegrees>
              <LongitudeDegrees>-4.38029768876731395721435546875</LongitudeDegrees>
            </Position>
            <AltitudeMeters>642.4000244140625</AltitudeMeters>
            <DistanceMeters>NAN</DistanceMeters>
          </Trackpoint>
          <Trackpoint>
            <Time>2020-12-05T12:25:12.000Z</Time>
            <Position>
              <LatitudeDegrees>36.83472099713981151580810546875</LatitudeDegrees>
              <LongitudeDegrees>-4.38031009398400783538818359375</LongitudeDegrees>
            </Position>
            <AltitudeMeters>642.4000244140625</AltitudeMeters>
            <DistanceMeters>NAN</DistanceMeters>
          </Trackpoint>
          <Trackpoint>
            <Time>2020-12-05T12:25:13.000Z</Time>
            <Position>
              <LatitudeDegrees>36.83472770266234874725341796875</LatitudeDegrees>
              <LongitudeDegrees>-4.38031931407749652862548828125</LongitudeDegrees>
            </Position>
            <AltitudeMeters>642.4000244140625</AltitudeMeters>
            <DistanceMeters>NAN</DistanceMeters>
          </Trackpoint>
          <Trackpoint>
            <Time>2020-12-05T12:25:14.000Z</Time>
            <Position>
              <LatitudeDegrees>36.83473373763263225555419921875</LatitudeDegrees>
              <LongitudeDegrees>-4.380327276885509490966796875</LongitudeDegrees>
            </Position>
            <AltitudeMeters>642.4000244140625</AltitudeMeters>
            <DistanceMeters>NAN</DistanceMeters>
          </Trackpoint>
          <Trackpoint>
            <Time>2020-12-05T12:25:15.000Z</Time>
            <Position>
              <LatitudeDegrees>36.83474245481193065643310546875</LatitudeDegrees>
              <LongitudeDegrees>-4.380335994064807891845703125</LongitudeDegrees>
            </Position>
            <AltitudeMeters>642.4000244140625</AltitudeMeters>
            <DistanceMeters>NAN</DistanceMeters>
          </Trackpoint>
          <Trackpoint>
            <Time>2020-12-05T12:25:16.000Z</Time>
            <Position>
              <LatitudeDegrees>36.83475418947637081146240234375</LatitudeDegrees>
              <LongitudeDegrees>-4.38034596852958202362060546875</LongitudeDegrees>
            </Position>
            <AltitudeMeters>642.4000244140625</AltitudeMeters>
            <DistanceMeters>NAN</DistanceMeters>
          </Trackpoint>
          <Trackpoint>
            <Time>2020-12-05T12:25:17.000Z</Time>
            <Position>
              <LatitudeDegrees>36.8347644992172718048095703125</LatitudeDegrees>
              <LongitudeDegrees>-4.380355440080165863037109375</LongitudeDegrees>
            </Position>
            <AltitudeMeters>642.4000244140625</AltitudeMeters>
            <DistanceMeters>NAN</DistanceMeters>
          </Trackpoint>
          <Trackpoint>
            <Time>2020-12-05T12:25:18.000Z</Time>
            <Position>
              <LatitudeDegrees>36.834772042930126190185546875</LatitudeDegrees>
              <LongitudeDegrees>-4.38036910258233547210693359375</LongitudeDegrees>
            </Position>
            <AltitudeMeters>642.4000244140625</AltitudeMeters>
            <DistanceMeters>NAN</DistanceMeters>
          </Trackpoint>
          <Trackpoint>
            <Time>2020-12-05T12:25:19.000Z</Time>
            <Position>
              <LatitudeDegrees>36.8347826041281223297119140625</LatitudeDegrees>
              <LongitudeDegrees>-4.3803837709128856658935546875</LongitudeDegrees>
            </Position>
            <AltitudeMeters>642.4000244140625</AltitudeMeters>
            <DistanceMeters>NAN</DistanceMeters>
          </Trackpoint>
          <Trackpoint>
            <Time>2020-12-05T12:25:20.000Z</Time>
            <Position>
              <LatitudeDegrees>36.8347926624119281768798828125</LatitudeDegrees>
              <LongitudeDegrees>-4.380395673215389251708984375</LongitudeDegrees>
            </Position>
            <AltitudeMeters>642.4000244140625</AltitudeMeters>
            <DistanceMeters>NAN</DistanceMeters>
          </Trackpoint>
          <Trackpoint>
            <Time>2020-12-05T12:25:21.000Z</Time>
            <Position>
              <LatitudeDegrees>36.8348033912479877471923828125</LatitudeDegrees>
              <LongitudeDegrees>-4.38040606677532196044921875</LongitudeDegrees>
            </Position>
            <AltitudeMeters>642.4000244140625</AltitudeMeters>
            <DistanceMeters>NAN</DistanceMeters>
          </Trackpoint>
          <Trackpoint>
            <Time>2020-12-05T12:25:22.000Z</Time>
            <Position>
              <LatitudeDegrees>36.83481395244598388671875</LatitudeDegrees>
              <LongitudeDegrees>-4.38041453249752521514892578125</LongitudeDegrees>
            </Position>
            <AltitudeMeters>642.4000244140625</AltitudeMeters>
            <DistanceMeters>NAN</DistanceMeters>
          </Trackpoint>
          <Trackpoint>
            <Time>2020-12-05T12:25:23.000Z</Time>
            <Position>
              <LatitudeDegrees>36.834827028214931488037109375</LatitudeDegrees>
              <LongitudeDegrees>-4.38041939400136470794677734375</LongitudeDegrees>
            </Position>
            <AltitudeMeters>642.4000244140625</AltitudeMeters>
            <DistanceMeters>NAN</DistanceMeters>
          </Trackpoint>
          <Trackpoint>
            <Time>2020-12-05T12:25:24.000Z</Time>
            <Position>
              <LatitudeDegrees>36.834836415946483612060546875</LatitudeDegrees>
              <LongitudeDegrees>-4.38042542897164821624755859375</LongitudeDegrees>
            </Position>
            <AltitudeMeters>642.4000244140625</AltitudeMeters>
            <DistanceMeters>NAN</DistanceMeters>
          </Trackpoint>
          <Trackpoint>
            <Time>2020-12-05T12:25:25.000Z</Time>
            <Position>
              <LatitudeDegrees>36.8348473124206066131591796875</LatitudeDegrees>
              <LongitudeDegrees>-4.380427189171314239501953125</LongitudeDegrees>
            </Position>
            <AltitudeMeters>642.4000244140625</AltitudeMeters>
            <DistanceMeters>NAN</DistanceMeters>
          </Trackpoint>
          <Trackpoint>
            <Time>2020-12-05T12:25:26.000Z</Time>
            <Position>
              <LatitudeDegrees>36.83485443703830242156982421875</LatitudeDegrees>
              <LongitudeDegrees>-4.38044236041605472564697265625</LongitudeDegrees>
            </Position>
            <AltitudeMeters>642.4000244140625</AltitudeMeters>
            <DistanceMeters>NAN</DistanceMeters>
          </Trackpoint>
          <Trackpoint>
            <Time>2020-12-05T12:25:27.000Z</Time>
            <Position>
              <LatitudeDegrees>36.8348607234656810760498046875</LatitudeDegrees>
              <LongitudeDegrees>-4.38045593909919261932373046875</LongitudeDegrees>
            </Position>
            <AltitudeMeters>642.4000244140625</AltitudeMeters>
            <DistanceMeters>NAN</DistanceMeters>
          </Trackpoint>
          <Trackpoint>
            <Time>2020-12-05T12:25:28.000Z</Time>
            <Position>
              <LatitudeDegrees>36.8348707817494869232177734375</LatitudeDegrees>
              <LongitudeDegrees>-4.3804692663252353668212890625</LongitudeDegrees>
            </Position>
            <AltitudeMeters>642.4000244140625</AltitudeMeters>
            <DistanceMeters>NAN</DistanceMeters>
          </Trackpoint>
          <Trackpoint>
            <Time>2020-12-05T12:25:29.000Z</Time>
            <Position>
              <LatitudeDegrees>36.834879331290721893310546875</LatitudeDegrees>
              <LongitudeDegrees>-4.380482845008373260498046875</LongitudeDegrees>
            </Position>
            <AltitudeMeters>642.4000244140625</AltitudeMeters>
            <DistanceMeters>NAN</DistanceMeters>
          </Trackpoint>
          <Trackpoint>
            <Time>2020-12-05T12:25:30.000Z</Time>
            <Position>
              <LatitudeDegrees>36.83488913811743259429931640625</LatitudeDegrees>
              <LongitudeDegrees>-4.38049516640603542327880859375</LongitudeDegrees>
            </Position>
            <AltitudeMeters>642.4000244140625</AltitudeMeters>
            <DistanceMeters>NAN</DistanceMeters>
          </Trackpoint>
          <Trackpoint>
            <Time>2020-12-05T12:25:31.000Z</Time>
            <Position>
              <LatitudeDegrees>36.8349011242389678955078125</LatitudeDegrees>
              <LongitudeDegrees>-4.38050639815628528594970703125</LongitudeDegrees>
            </Position>
            <AltitudeMeters>642.4000244140625</AltitudeMeters>
            <DistanceMeters>NAN</DistanceMeters>
          </Trackpoint>
          <Trackpoint>
            <Time>2020-12-05T12:25:32.000Z</Time>
            <Position>
              <LatitudeDegrees>36.83491093106567859649658203125</LatitudeDegrees>
              <LongitudeDegrees>-4.38051997683942317962646484375</LongitudeDegrees>
            </Position>
            <AltitudeMeters>642.4000244140625</AltitudeMeters>
            <DistanceMeters>NAN</DistanceMeters>
          </Trackpoint>
          <Trackpoint>
            <Time>2020-12-05T12:25:33.000Z</Time>
            <Position>
              <LatitudeDegrees>36.83492165990173816680908203125</LatitudeDegrees>
              <LongitudeDegrees>-4.3805296160280704498291015625</LongitudeDegrees>
            </Position>
            <AltitudeMeters>642.4000244140625</AltitudeMeters>
            <DistanceMeters>NAN</DistanceMeters>
          </Trackpoint>
          <Trackpoint>
            <Time>2020-12-05T12:25:34.000Z</Time>
            <Position>
              <LatitudeDegrees>36.834932975471019744873046875</LatitudeDegrees>
              <LongitudeDegrees>-4.38054109923541545867919921875</LongitudeDegrees>
            </Position>
            <AltitudeMeters>642.4000244140625</AltitudeMeters>
            <DistanceMeters>NAN</DistanceMeters>
          </Trackpoint>
          <Trackpoint>
            <Time>2020-12-05T12:25:35.000Z</Time>
            <Position>
              <LatitudeDegrees>36.83494311757385730743408203125</LatitudeDegrees>
              <LongitudeDegrees>-4.3805517442524433135986328125</LongitudeDegrees>
            </Position>
            <AltitudeMeters>642.4000244140625</AltitudeMeters>
            <DistanceMeters>NAN</DistanceMeters>
          </Trackpoint>
          <Trackpoint>
            <Time>2020-12-05T12:25:36.000Z</Time>
            <Position>
              <LatitudeDegrees>36.83495300821959972381591796875</LatitudeDegrees>
              <LongitudeDegrees>-4.3805582821369171142578125</LongitudeDegrees>
            </Position>
            <AltitudeMeters>642.4000244140625</AltitudeMeters>
            <DistanceMeters>NAN</DistanceMeters>
          </Trackpoint>
          <Trackpoint>
            <Time>2020-12-05T12:25:37.000Z</Time>
            <Position>
              <LatitudeDegrees>36.83496323414146900177001953125</LatitudeDegrees>
              <LongitudeDegrees>-4.3805681727826595306396484375</LongitudeDegrees>
            </Position>
            <AltitudeMeters>642.4000244140625</AltitudeMeters>
            <DistanceMeters>NAN</DistanceMeters>
          </Trackpoint>
          <Trackpoint>
            <Time>2020-12-05T12:25:38.000Z</Time>
            <Position>
              <LatitudeDegrees>36.83497731573879718780517578125</LatitudeDegrees>
              <LongitudeDegrees>-4.38057529740035533905029296875</LongitudeDegrees>
            </Position>
            <AltitudeMeters>642.4000244140625</AltitudeMeters>
            <DistanceMeters>NAN</DistanceMeters>
          </Trackpoint>
          <Trackpoint>
            <Time>2020-12-05T12:25:39.000Z</Time>
            <Position>
              <LatitudeDegrees>36.83499273844063282012939453125</LatitudeDegrees>
              <LongitudeDegrees>-4.38058049418032169342041015625</LongitudeDegrees>
            </Position>
            <AltitudeMeters>642.4000244140625</AltitudeMeters>
            <DistanceMeters>NAN</DistanceMeters>
          </Trackpoint>
          <Trackpoint>
            <Time>2020-12-05T12:25:40.000Z</Time>
            <Position>
              <LatitudeDegrees>36.83500933460891246795654296875</LatitudeDegrees>
              <LongitudeDegrees>-4.38059055246412754058837890625</LongitudeDegrees>
            </Position>
            <AltitudeMeters>642.4000244140625</AltitudeMeters>
            <DistanceMeters>NAN</DistanceMeters>
          </Trackpoint>
          <Trackpoint>
            <Time>2020-12-05T12:25:41.000Z</Time>
            <Position>
              <LatitudeDegrees>36.8350219912827014923095703125</LatitudeDegrees>
              <LongitudeDegrees>-4.3806020356714725494384765625</LongitudeDegrees>
            </Position>
            <AltitudeMeters>642.4000244140625</AltitudeMeters>
            <DistanceMeters>NAN</DistanceMeters>
          </Trackpoint>
          <Trackpoint>
            <Time>2020-12-05T12:25:42.000Z</Time>
            <Position>
              <LatitudeDegrees>36.835034228861331939697265625</LatitudeDegrees>
              <LongitudeDegrees>-4.380610249936580657958984375</LongitudeDegrees>
            </Position>
            <AltitudeMeters>642.4000244140625</AltitudeMeters>
            <DistanceMeters>NAN</DistanceMeters>
          </Trackpoint>
          <Trackpoint>
            <Time>2020-12-05T12:25:43.000Z</Time>
            <Position>
              <LatitudeDegrees>36.8350434489548206329345703125</LatitudeDegrees>
              <LongitudeDegrees>-4.380620308220386505126953125</LongitudeDegrees>
            </Position>
            <AltitudeMeters>642.4000244140625</AltitudeMeters>
            <DistanceMeters>NAN</DistanceMeters>
          </Trackpoint>
          <Trackpoint>
            <Time>2020-12-05T12:25:44.000Z</Time>
            <Position>
              <LatitudeDegrees>36.835052333772182464599609375</LatitudeDegrees>
              <LongitudeDegrees>-4.38062994740903377532958984375</LongitudeDegrees>
            </Position>
            <AltitudeMeters>642.4000244140625</AltitudeMeters>
            <DistanceMeters>NAN</DistanceMeters>
          </Trackpoint>
          <Trackpoint>
            <Time>2020-12-05T12:25:45.000Z</Time>
            <Position>
              <LatitudeDegrees>36.83506180532276630401611328125</LatitudeDegrees>
              <LongitudeDegrees>-4.38064386136829853057861328125</LongitudeDegrees>
            </Position>
            <AltitudeMeters>642.4000244140625</AltitudeMeters>
            <DistanceMeters>NAN</DistanceMeters>
          </Trackpoint>
          <Trackpoint>
            <Time>2020-12-05T12:25:46.000Z</Time>
            <Position>
              <LatitudeDegrees>36.8350702710449695587158203125</LatitudeDegrees>
              <LongitudeDegrees>-4.38065408729016780853271484375</LongitudeDegrees>
            </Position>
            <AltitudeMeters>642.4000244140625</AltitudeMeters>
            <DistanceMeters>NAN</DistanceMeters>
          </Trackpoint>
          <Trackpoint>
            <Time>2020-12-05T12:25:47.000Z</Time>
            <Position>
              <LatitudeDegrees>36.83508259244263172149658203125</LatitudeDegrees>
              <LongitudeDegrees>-4.3806789815425872802734375</LongitudeDegrees>
            </Position>
            <AltitudeMeters>642.4000244140625</AltitudeMeters>
            <DistanceMeters>NAN</DistanceMeters>
          </Trackpoint>
          <Trackpoint>
            <Time>2020-12-05T12:25:48.000Z</Time>
            <Position>
              <LatitudeDegrees>36.83509415946900844573974609375</LatitudeDegrees>
              <LongitudeDegrees>-4.3806982599198818206787109375</LongitudeDegrees>
            </Position>
            <AltitudeMeters>642.4000244140625</AltitudeMeters>
            <DistanceMeters>NAN</DistanceMeters>
          </Trackpoint>
          <Trackpoint>
            <Time>2020-12-05T12:25:49.000Z</Time>
            <Position>
              <LatitudeDegrees>36.83510187081992626190185546875</LatitudeDegrees>
              <LongitudeDegrees>-4.38071024604141712188720703125</LongitudeDegrees>
            </Position>
            <AltitudeMeters>642.4000244140625</AltitudeMeters>
            <DistanceMeters>NAN</DistanceMeters>
          </Trackpoint>
          <Trackpoint>
            <Time>2020-12-05T12:25:50.000Z</Time>
            <Position>
              <LatitudeDegrees>36.83510991744697093963623046875</LatitudeDegrees>
              <LongitudeDegrees>-4.38071963377296924591064453125</LongitudeDegrees>
            </Position>
            <AltitudeMeters>642.4000244140625</AltitudeMeters>
            <DistanceMeters>NAN</DistanceMeters>
          </Trackpoint>
          <Trackpoint>
            <Time>2020-12-05T12:25:51.000Z</Time>
            <Position>
              <LatitudeDegrees>36.83512148447334766387939453125</LatitudeDegrees>
              <LongitudeDegrees>-4.38072784803807735443115234375</LongitudeDegrees>
            </Position>
            <AltitudeMeters>642.4000244140625</AltitudeMeters>
            <DistanceMeters>NAN</DistanceMeters>
          </Trackpoint>
          <Trackpoint>
            <Time>2020-12-05T12:25:52.000Z</Time>
            <Position>
              <LatitudeDegrees>36.83513254858553409576416015625</LatitudeDegrees>
              <LongitudeDegrees>-4.38073907978832721710205078125</LongitudeDegrees>
            </Position>
            <AltitudeMeters>642.4000244140625</AltitudeMeters>
            <DistanceMeters>NAN</DistanceMeters>
          </Trackpoint>
          <Trackpoint>
            <Time>2020-12-05T12:25:53.000Z</Time>
            <Position>
              <LatitudeDegrees>36.83514663018286228179931640625</LatitudeDegrees>
              <LongitudeDegrees>-4.3807498924434185028076171875</LongitudeDegrees>
            </Position>
            <AltitudeMeters>642.4000244140625</AltitudeMeters>
            <DistanceMeters>NAN</DistanceMeters>
          </Trackpoint>
          <Trackpoint>
            <Time>2020-12-05T12:25:54.000Z</Time>
            <Position>
              <LatitudeDegrees>36.835155598819255828857421875</LatitudeDegrees>
              <LongitudeDegrees>-4.3807594478130340576171875</LongitudeDegrees>
            </Position>
            <AltitudeMeters>642.4000244140625</AltitudeMeters>
            <DistanceMeters>NAN</DistanceMeters>
          </Trackpoint>
          <Trackpoint>
            <Time>2020-12-05T12:25:55.000Z</Time>
            <Position>
              <LatitudeDegrees>36.83516733348369598388671875</LatitudeDegrees>
              <LongitudeDegrees>-4.38076682388782501220703125</LongitudeDegrees>
            </Position>
            <AltitudeMeters>642.4000244140625</AltitudeMeters>
            <DistanceMeters>NAN</DistanceMeters>
          </Trackpoint>
          <Trackpoint>
            <Time>2020-12-05T12:25:56.000Z</Time>
            <Position>
              <LatitudeDegrees>36.835180409252643585205078125</LatitudeDegrees>
              <LongitudeDegrees>-4.38077881000936031341552734375</LongitudeDegrees>
            </Position>
            <AltitudeMeters>642.4000244140625</AltitudeMeters>
            <DistanceMeters>NAN</DistanceMeters>
          </Trackpoint>
          <Trackpoint>
            <Time>2020-12-05T12:25:57.000Z</Time>
            <Position>
              <LatitudeDegrees>36.83518803678452968597412109375</LatitudeDegrees>
              <LongitudeDegrees>-4.3807938136160373687744140625</LongitudeDegrees>
            </Position>
            <AltitudeMeters>642.4000244140625</AltitudeMeters>
            <DistanceMeters>NAN</DistanceMeters>
          </Trackpoint>
          <Trackpoint>
            <Time>2020-12-05T12:25:58.000Z</Time>
            <Position>
              <LatitudeDegrees>36.83519122190773487091064453125</LatitudeDegrees>
              <LongitudeDegrees>-4.38081384636461734771728515625</LongitudeDegrees>
            </Position>
            <AltitudeMeters>642.4000244140625</AltitudeMeters>
            <DistanceMeters>NAN</DistanceMeters>
          </Trackpoint>
          <Trackpoint>
            <Time>2020-12-05T12:25:59.000Z</Time>
            <Position>
              <LatitudeDegrees>36.8351980112493038177490234375</LatitudeDegrees>
              <LongitudeDegrees>-4.38082960434257984161376953125</LongitudeDegrees>
            </Position>
            <AltitudeMeters>642.4000244140625</AltitudeMeters>
            <DistanceMeters>NAN</DistanceMeters>
          </Trackpoint>
          <Trackpoint>
            <Time>2020-12-05T12:26:00.000Z</Time>
            <Position>
              <LatitudeDegrees>36.83520614169538021087646484375</LatitudeDegrees>
              <LongitudeDegrees>-4.38084184192121028900146484375</LongitudeDegrees>
            </Position>
            <AltitudeMeters>641.4000244140625</AltitudeMeters>
            <DistanceMeters>NAN</DistanceMeters>
          </Trackpoint>
          <Trackpoint>
            <Time>2020-12-05T12:26:01.000Z</Time>
            <Position>
              <LatitudeDegrees>36.835215277969837188720703125</LatitudeDegrees>
              <LongitudeDegrees>-4.38085039146244525909423828125</LongitudeDegrees>
            </Position>
            <AltitudeMeters>641.4000244140625</AltitudeMeters>
            <DistanceMeters>NAN</DistanceMeters>
          </Trackpoint>
          <Trackpoint>
            <Time>2020-12-05T12:26:02.000Z</Time>
            <Position>
              <LatitudeDegrees>36.83522558771073818206787109375</LatitudeDegrees>
              <LongitudeDegrees>-4.38085843808948993682861328125</LongitudeDegrees>
            </Position>
            <AltitudeMeters>641.4000244140625</AltitudeMeters>
            <DistanceMeters>NAN</DistanceMeters>
          </Trackpoint>
          <Trackpoint>
            <Time>2020-12-05T12:26:03.000Z</Time>
            <Position>
              <LatitudeDegrees>36.8352385796606540679931640625</LatitudeDegrees>
              <LongitudeDegrees>-4.3808588571846485137939453125</LongitudeDegrees>
            </Position>
            <AltitudeMeters>641.4000244140625</AltitudeMeters>
            <DistanceMeters>NAN</DistanceMeters>
          </Trackpoint>
          <Trackpoint>
            <Time>2020-12-05T12:26:04.000Z</Time>
            <Position>
              <LatitudeDegrees>36.835248805582523345947265625</LatitudeDegrees>
              <LongitudeDegrees>-4.38085877336561679840087890625</LongitudeDegrees>
            </Position>
            <AltitudeMeters>641.4000244140625</AltitudeMeters>
            <DistanceMeters>NAN</DistanceMeters>
          </Trackpoint>
          <Trackpoint>
            <Time>2020-12-05T12:26:05.000Z</Time>
            <Position>
              <LatitudeDegrees>36.8352566845715045928955078125</LatitudeDegrees>
              <LongitudeDegrees>-4.380861036479473114013671875</LongitudeDegrees>
            </Position>
            <AltitudeMeters>641.4000244140625</AltitudeMeters>
            <DistanceMeters>NAN</DistanceMeters>
          </Trackpoint>
          <Trackpoint>
            <Time>2020-12-05T12:26:06.000Z</Time>
            <Position>
              <LatitudeDegrees>36.8352627195417881011962890625</LatitudeDegrees>
              <LongitudeDegrees>-4.3808672390878200531005859375</LongitudeDegrees>
            </Position>
            <AltitudeMeters>641.4000244140625</AltitudeMeters>
            <DistanceMeters>NAN</DistanceMeters>
          </Trackpoint>
          <Trackpoint>
            <Time>2020-12-05T12:26:07.000Z</Time>
            <Position>
              <LatitudeDegrees>36.8352670781314373016357421875</LatitudeDegrees>
              <LongitudeDegrees>-4.38088056631386280059814453125</LongitudeDegrees>
            </Position>
            <AltitudeMeters>641.4000244140625</AltitudeMeters>
            <DistanceMeters>NAN</DistanceMeters>
          </Trackpoint>
          <Trackpoint>
            <Time>2020-12-05T12:26:08.000Z</Time>
            <Position>
              <LatitudeDegrees>36.83527152054011821746826171875</LatitudeDegrees>
              <LongitudeDegrees>-4.3808994255959987640380859375</LongitudeDegrees>
            </Position>
            <AltitudeMeters>641.4000244140625</AltitudeMeters>
            <DistanceMeters>NAN</DistanceMeters>
          </Trackpoint>
          <Trackpoint>
            <Time>2020-12-05T12:26:09.000Z</Time>
            <Position>
              <LatitudeDegrees>36.8352774716913700103759765625</LatitudeDegrees>
              <LongitudeDegrees>-4.3809135071933269500732421875</LongitudeDegrees>
            </Position>
            <AltitudeMeters>641.4000244140625</AltitudeMeters>
            <DistanceMeters>NAN</DistanceMeters>
          </Trackpoint>
          <Trackpoint>
            <Time>2020-12-05T12:26:10.000Z</Time>
            <Position>
              <LatitudeDegrees>36.8352784775197505950927734375</LatitudeDegrees>
              <LongitudeDegrees>-4.38093253411352634429931640625</LongitudeDegrees>
            </Position>
            <AltitudeMeters>641.4000244140625</AltitudeMeters>
            <DistanceMeters>NAN</DistanceMeters>
          </Trackpoint>
          <Trackpoint>
            <Time>2020-12-05T12:26:11.000Z</Time>
            <Position>
              <LatitudeDegrees>36.8352892063558101654052734375</LatitudeDegrees>
              <LongitudeDegrees>-4.38094963319599628448486328125</LongitudeDegrees>
            </Position>
            <AltitudeMeters>641.4000244140625</AltitudeMeters>
            <DistanceMeters>NAN</DistanceMeters>
          </Trackpoint>
          <Trackpoint>
            <Time>2020-12-05T12:26:12.000Z</Time>
            <Position>
              <LatitudeDegrees>36.8352979235351085662841796875</LatitudeDegrees>
              <LongitudeDegrees>-4.3809651397168636322021484375</LongitudeDegrees>
            </Position>
            <AltitudeMeters>641.4000244140625</AltitudeMeters>
            <DistanceMeters>NAN</DistanceMeters>
          </Trackpoint>
          <Trackpoint>
            <Time>2020-12-05T12:26:14.000Z</Time>
            <Position>
              <LatitudeDegrees>36.835305131971836090087890625</LatitudeDegrees>
              <LongitudeDegrees>-4.38097796402871608734130859375</LongitudeDegrees>
            </Position>
            <AltitudeMeters>641.4000244140625</AltitudeMeters>
            <DistanceMeters>NAN</DistanceMeters>
          </Trackpoint>
          <Trackpoint>
            <Time>2020-12-05T12:26:15.000Z</Time>
            <Position>
              <LatitudeDegrees>36.83531351387500762939453125</LatitudeDegrees>
              <LongitudeDegrees>-4.38099212944507598876953125</LongitudeDegrees>
            </Position>
            <AltitudeMeters>641.4000244140625</AltitudeMeters>
            <DistanceMeters>NAN</DistanceMeters>
          </Trackpoint>
          <Trackpoint>
            <Time>2020-12-05T12:26:16.000Z</Time>
            <Position>
              <LatitudeDegrees>36.83531896211206912994384765625</LatitudeDegrees>
              <LongitudeDegrees>-4.38100822269916534423828125</LongitudeDegrees>
            </Position>
            <AltitudeMeters>641.4000244140625</AltitudeMeters>
            <DistanceMeters>NAN</DistanceMeters>
          </Trackpoint>
          <Trackpoint>
            <Time>2020-12-05T12:26:17.000Z</Time>
            <Position>
              <LatitudeDegrees>36.83532466180622577667236328125</LatitudeDegrees>
              <LongitudeDegrees>-4.3810308538377285003662109375</LongitudeDegrees>
            </Position>
            <AltitudeMeters>641.4000244140625</AltitudeMeters>
            <DistanceMeters>NAN</DistanceMeters>
          </Trackpoint>
          <Trackpoint>
            <Time>2020-12-05T12:26:18.000Z</Time>
            <Position>
              <LatitudeDegrees>36.83533203788101673126220703125</LatitudeDegrees>
              <LongitudeDegrees>-4.38105088658630847930908203125</LongitudeDegrees>
            </Position>
            <AltitudeMeters>641.4000244140625</AltitudeMeters>
            <DistanceMeters>NAN</DistanceMeters>
          </Trackpoint>
          <Trackpoint>
            <Time>2020-12-05T12:26:19.000Z</Time>
            <Position>
              <LatitudeDegrees>36.835337989032268524169921875</LatitudeDegrees>
              <LongitudeDegrees>-4.38106446526944637298583984375</LongitudeDegrees>
            </Position>
            <AltitudeMeters>641.4000244140625</AltitudeMeters>
            <DistanceMeters>NAN</DistanceMeters>
          </Trackpoint>
          <Trackpoint>
            <Time>2020-12-05T12:26:20.000Z</Time>
            <Position>
              <LatitudeDegrees>36.83534427545964717864990234375</LatitudeDegrees>
              <LongitudeDegrees>-4.381077289581298828125</LongitudeDegrees>
            </Position>
            <AltitudeMeters>641.4000244140625</AltitudeMeters>
            <DistanceMeters>NAN</DistanceMeters>
          </Trackpoint>
          <Trackpoint>
            <Time>2020-12-05T12:26:21.000Z</Time>
            <Position>
              <LatitudeDegrees>36.8353508971631526947021484375</LatitudeDegrees>
              <LongitudeDegrees>-4.381090365350246429443359375</LongitudeDegrees>
            </Position>
            <AltitudeMeters>641.4000244140625</AltitudeMeters>
            <DistanceMeters>NAN</DistanceMeters>
          </Trackpoint>
          <Trackpoint>
            <Time>2020-12-05T12:26:22.000Z</Time>
            <Position>
              <LatitudeDegrees>36.83535768650472164154052734375</LatitudeDegrees>
              <LongitudeDegrees>-4.3811012618243694305419921875</LongitudeDegrees>
            </Position>
            <AltitudeMeters>641.4000244140625</AltitudeMeters>
            <DistanceMeters>NAN</DistanceMeters>
          </Trackpoint>
          <Trackpoint>
            <Time>2020-12-05T12:26:23.000Z</Time>
            <Position>
              <LatitudeDegrees>36.8353646434843540191650390625</LatitudeDegrees>
              <LongitudeDegrees>-4.38111274503171443939208984375</LongitudeDegrees>
            </Position>
            <AltitudeMeters>641.4000244140625</AltitudeMeters>
            <DistanceMeters>NAN</DistanceMeters>
          </Trackpoint>
          <Trackpoint>
            <Time>2020-12-05T12:26:24.000Z</Time>
            <Position>
              <LatitudeDegrees>36.8353700079023838043212890625</LatitudeDegrees>
              <LongitudeDegrees>-4.38112213276326656341552734375</LongitudeDegrees>
            </Position>
            <AltitudeMeters>641.4000244140625</AltitudeMeters>
            <DistanceMeters>NAN</DistanceMeters>
          </Trackpoint>
          <Trackpoint>
            <Time>2020-12-05T12:26:25.000Z</Time>
            <Position>
              <LatitudeDegrees>36.83537662960588932037353515625</LatitudeDegrees>
              <LongitudeDegrees>-4.381130598485469818115234375</LongitudeDegrees>
            </Position>
            <AltitudeMeters>641.4000244140625</AltitudeMeters>
            <DistanceMeters>NAN</DistanceMeters>
          </Trackpoint>
          <Trackpoint>
            <Time>2020-12-05T12:26:26.000Z</Time>
            <Position>
              <LatitudeDegrees>36.8353834189474582672119140625</LatitudeDegrees>
              <LongitudeDegrees>-4.381135292351245880126953125</LongitudeDegrees>
            </Position>
            <AltitudeMeters>641.4000244140625</AltitudeMeters>
            <DistanceMeters>NAN</DistanceMeters>
          </Trackpoint>
          <Trackpoint>
            <Time>2020-12-05T12:26:27.000Z</Time>
            <Position>
              <LatitudeDegrees>36.835392974317073822021484375</LatitudeDegrees>
              <LongitudeDegrees>-4.38114501535892486572265625</LongitudeDegrees>
            </Position>
            <AltitudeMeters>641.4000244140625</AltitudeMeters>
            <DistanceMeters>NAN</DistanceMeters>
          </Trackpoint>
          <Trackpoint>
            <Time>2020-12-05T12:26:28.000Z</Time>
            <Position>
              <LatitudeDegrees>36.83540579862892627716064453125</LatitudeDegrees>
              <LongitudeDegrees>-4.3811555765569210052490234375</LongitudeDegrees>
            </Position>
            <AltitudeMeters>641.4000244140625</AltitudeMeters>
            <DistanceMeters>NAN</DistanceMeters>
          </Trackpoint>
          <Trackpoint>
            <Time>2020-12-05T12:26:29.000Z</Time>
            <Position>
              <LatitudeDegrees>36.8354206345975399017333984375</LatitudeDegrees>
              <LongitudeDegrees>-4.381168149411678314208984375</LongitudeDegrees>
            </Position>
            <AltitudeMeters>641.4000244140625</AltitudeMeters>
            <DistanceMeters>NAN</DistanceMeters>
          </Trackpoint>
          <Trackpoint>
            <Time>2020-12-05T12:26:30.000Z</Time>
            <Position>
              <LatitudeDegrees>36.83543421328067779541015625</LatitudeDegrees>
              <LongitudeDegrees>-4.3811850808560848236083984375</LongitudeDegrees>
            </Position>
            <AltitudeMeters>641.4000244140625</AltitudeMeters>
            <DistanceMeters>NAN</DistanceMeters>
          </Trackpoint>
          <Trackpoint>
            <Time>2020-12-05T12:26:31.000Z</Time>
            <Position>
              <LatitudeDegrees>36.83544502593576908111572265625</LatitudeDegrees>
              <LongitudeDegrees>-4.381198994815349578857421875</LongitudeDegrees>
            </Position>
            <AltitudeMeters>641.4000244140625</AltitudeMeters>
            <DistanceMeters>NAN</DistanceMeters>
          </Trackpoint>
          <Trackpoint>
            <Time>2020-12-05T12:26:32.000Z</Time>
            <Position>
              <LatitudeDegrees>36.83545977808535099029541015625</LatitudeDegrees>
              <LongitudeDegrees>-4.38120695762336254119873046875</LongitudeDegrees>
            </Position>
            <AltitudeMeters>641.4000244140625</AltitudeMeters>
            <DistanceMeters>NAN</DistanceMeters>
          </Trackpoint>
          <Trackpoint>
            <Time>2020-12-05T12:26:33.000Z</Time>
            <Position>
              <LatitudeDegrees>36.83547218330204486846923828125</LatitudeDegrees>
              <LongitudeDegrees>-4.381214082241058349609375</LongitudeDegrees>
            </Position>
            <AltitudeMeters>641.4000244140625</AltitudeMeters>
            <DistanceMeters>NAN</DistanceMeters>
          </Trackpoint>
          <Trackpoint>
            <Time>2020-12-05T12:26:34.000Z</Time>
            <Position>
              <LatitudeDegrees>36.835483498871326446533203125</LatitudeDegrees>
              <LongitudeDegrees>-4.38121550716459751129150390625</LongitudeDegrees>
            </Position>
            <AltitudeMeters>641.4000244140625</AltitudeMeters>
            <DistanceMeters>NAN</DistanceMeters>
          </Trackpoint>
          <Trackpoint>
            <Time>2020-12-05T12:26:35.000Z</Time>
            <Position>
              <LatitudeDegrees>36.83549883775413036346435546875</LatitudeDegrees>
              <LongitudeDegrees>-4.38121969811618328094482421875</LongitudeDegrees>
            </Position>
            <AltitudeMeters>641.4000244140625</AltitudeMeters>
            <DistanceMeters>NAN</DistanceMeters>
          </Trackpoint>
          <Trackpoint>
            <Time>2020-12-05T12:26:36.000Z</Time>
            <Position>
              <LatitudeDegrees>36.83551258407533168792724609375</LatitudeDegrees>
              <LongitudeDegrees>-4.38122489489614963531494140625</LongitudeDegrees>
            </Position>
            <AltitudeMeters>641.4000244140625</AltitudeMeters>
            <DistanceMeters>NAN</DistanceMeters>
          </Trackpoint>
          <Trackpoint>
            <Time>2020-12-05T12:26:37.000Z</Time>
            <Position>
              <LatitudeDegrees>36.835523061454296112060546875</LatitudeDegrees>
              <LongitudeDegrees>-4.3812330253422260284423828125</LongitudeDegrees>
            </Position>
            <AltitudeMeters>641.4000244140625</AltitudeMeters>
            <DistanceMeters>NAN</DistanceMeters>
          </Trackpoint>
          <Trackpoint>
            <Time>2020-12-05T12:26:38.000Z</Time>
            <Position>
              <LatitudeDegrees>36.83553152717649936676025390625</LatitudeDegrees>
              <LongitudeDegrees>-4.38124249689280986785888671875</LongitudeDegrees>
            </Position>
            <AltitudeMeters>641.4000244140625</AltitudeMeters>
            <DistanceMeters>NAN</DistanceMeters>
          </Trackpoint>
          <Trackpoint>
            <Time>2020-12-05T12:26:39.000Z</Time>
            <Position>
              <LatitudeDegrees>36.8355416692793369293212890625</LatitudeDegrees>
              <LongitudeDegrees>-4.38125238753855228424072265625</LongitudeDegrees>
            </Position>
            <AltitudeMeters>641.4000244140625</AltitudeMeters>
            <DistanceMeters>NAN</DistanceMeters>
          </Trackpoint>
          <Trackpoint>
            <Time>2020-12-05T12:26:40.000Z</Time>
            <Position>
              <LatitudeDegrees>36.8355534039437770843505859375</LatitudeDegrees>
              <LongitudeDegrees>-4.38126479275524616241455078125</LongitudeDegrees>
            </Position>
            <AltitudeMeters>641.4000244140625</AltitudeMeters>
            <DistanceMeters>NAN</DistanceMeters>
          </Trackpoint>
          <Trackpoint>
            <Time>2020-12-05T12:26:41.000Z</Time>
            <Position>
              <LatitudeDegrees>36.83556622825562953948974609375</LatitudeDegrees>
              <LongitudeDegrees>-4.3812797963619232177734375</LongitudeDegrees>
            </Position>
            <AltitudeMeters>641.4000244140625</AltitudeMeters>
            <DistanceMeters>NAN</DistanceMeters>
          </Trackpoint>
          <Trackpoint>
            <Time>2020-12-05T12:26:42.000Z</Time>
            <Position>
              <LatitudeDegrees>36.83558047749102115631103515625</LatitudeDegrees>
              <LongitudeDegrees>-4.381291866302490234375</LongitudeDegrees>
            </Position>
            <AltitudeMeters>641.4000244140625</AltitudeMeters>
            <DistanceMeters>NAN</DistanceMeters>
          </Trackpoint>
          <Trackpoint>
            <Time>2020-12-05T12:26:43.000Z</Time>
            <Position>
              <LatitudeDegrees>36.8355963192880153656005859375</LatitudeDegrees>
              <LongitudeDegrees>-4.38129647634923458099365234375</LongitudeDegrees>
            </Position>
            <AltitudeMeters>641.4000244140625</AltitudeMeters>
            <DistanceMeters>NAN</DistanceMeters>
          </Trackpoint>
          <Trackpoint>
            <Time>2020-12-05T12:26:44.000Z</Time>
            <Position>
              <LatitudeDegrees>36.8356137536466121673583984375</LatitudeDegrees>
              <LongitudeDegrees>-4.38130150549113750457763671875</LongitudeDegrees>
            </Position>
            <AltitudeMeters>641.4000244140625</AltitudeMeters>
            <DistanceMeters>NAN</DistanceMeters>
          </Trackpoint>
          <Trackpoint>
            <Time>2020-12-05T12:26:45.000Z</Time>
            <Position>
              <LatitudeDegrees>36.83562406338751316070556640625</LatitudeDegrees>
              <LongitudeDegrees>-4.3813098035752773284912109375</LongitudeDegrees>
            </Position>
            <AltitudeMeters>641.4000244140625</AltitudeMeters>
            <DistanceMeters>NAN</DistanceMeters>
          </Trackpoint>
          <Trackpoint>
            <Time>2020-12-05T12:26:46.000Z</Time>
            <Position>
              <LatitudeDegrees>36.835632026195526123046875</LatitudeDegrees>
              <LongitudeDegrees>-4.38131868839263916015625</LongitudeDegrees>
            </Position>
            <AltitudeMeters>641.4000244140625</AltitudeMeters>
            <DistanceMeters>NAN</DistanceMeters>
          </Trackpoint>
          <Trackpoint>
            <Time>2020-12-05T12:26:47.000Z</Time>
            <Position>
              <LatitudeDegrees>36.83563982136547565460205078125</LatitudeDegrees>
              <LongitudeDegrees>-4.3813262321054935455322265625</LongitudeDegrees>
            </Position>
            <AltitudeMeters>641.4000244140625</AltitudeMeters>
            <DistanceMeters>NAN</DistanceMeters>
          </Trackpoint>
          <Trackpoint>
            <Time>2020-12-05T12:26:48.000Z</Time>
            <Position>
              <LatitudeDegrees>36.83564803563058376312255859375</LatitudeDegrees>
              <LongitudeDegrees>-4.38133201561868190765380859375</LongitudeDegrees>
            </Position>
            <AltitudeMeters>641.4000244140625</AltitudeMeters>
            <DistanceMeters>NAN</DistanceMeters>
          </Trackpoint>
          <Trackpoint>
            <Time>2020-12-05T12:26:49.000Z</Time>
            <Position>
              <LatitudeDegrees>36.83565658517181873321533203125</LatitudeDegrees>
              <LongitudeDegrees>-4.381341822445392608642578125</LongitudeDegrees>
            </Position>
            <AltitudeMeters>641.4000244140625</AltitudeMeters>
            <DistanceMeters>NAN</DistanceMeters>
          </Trackpoint>
          <Trackpoint>
            <Time>2020-12-05T12:26:50.000Z</Time>
            <Position>
              <LatitudeDegrees>36.835666559636592864990234375</LatitudeDegrees>
              <LongitudeDegrees>-4.3813500367105007171630859375</LongitudeDegrees>
            </Position>
            <AltitudeMeters>641.4000244140625</AltitudeMeters>
            <DistanceMeters>NAN</DistanceMeters>
          </Trackpoint>
          <Trackpoint>
            <Time>2020-12-05T12:26:51.000Z</Time>
            <Position>
              <LatitudeDegrees>36.83567561209201812744140625</LatitudeDegrees>
              <LongitudeDegrees>-4.381358921527862548828125</LongitudeDegrees>
            </Position>
            <AltitudeMeters>641.4000244140625</AltitudeMeters>
            <DistanceMeters>NAN</DistanceMeters>
          </Trackpoint>
          <Trackpoint>
            <Time>2020-12-05T12:26:52.000Z</Time>
            <Position>
              <LatitudeDegrees>36.83568944223225116729736328125</LatitudeDegrees>
              <LongitudeDegrees>-4.38136822544038295745849609375</LongitudeDegrees>
            </Position>
            <AltitudeMeters>641.4000244140625</AltitudeMeters>
            <DistanceMeters>NAN</DistanceMeters>
          </Trackpoint>
          <Trackpoint>
            <Time>2020-12-05T12:26:53.000Z</Time>
            <Position>
              <LatitudeDegrees>36.83570235036313533782958984375</LatitudeDegrees>
              <LongitudeDegrees>-4.381374008953571319580078125</LongitudeDegrees>
            </Position>
            <AltitudeMeters>641.4000244140625</AltitudeMeters>
            <DistanceMeters>NAN</DistanceMeters>
          </Trackpoint>
          <Trackpoint>
            <Time>2020-12-05T12:26:54.000Z</Time>
            <Position>
              <LatitudeDegrees>36.8357140012085437774658203125</LatitudeDegrees>
              <LongitudeDegrees>-4.3813822232186794281005859375</LongitudeDegrees>
            </Position>
            <AltitudeMeters>641.4000244140625</AltitudeMeters>
            <DistanceMeters>NAN</DistanceMeters>
          </Trackpoint>
          <Trackpoint>
            <Time>2020-12-05T12:26:55.000Z</Time>
            <Position>
              <LatitudeDegrees>36.83572523295879364013671875</LatitudeDegrees>
              <LongitudeDegrees>-4.38139177858829498291015625</LongitudeDegrees>
            </Position>
            <AltitudeMeters>641.4000244140625</AltitudeMeters>
            <DistanceMeters>NAN</DistanceMeters>
          </Trackpoint>
          <Trackpoint>
            <Time>2020-12-05T12:26:56.000Z</Time>
            <Position>
              <LatitudeDegrees>36.83573788963258266448974609375</LatitudeDegrees>
              <LongitudeDegrees>-4.38139982521533966064453125</LongitudeDegrees>
            </Position>
            <AltitudeMeters>641.4000244140625</AltitudeMeters>
            <DistanceMeters>NAN</DistanceMeters>
          </Trackpoint>
          <Trackpoint>
            <Time>2020-12-05T12:26:57.000Z</Time>
            <Position>
              <LatitudeDegrees>36.835751719772815704345703125</LatitudeDegrees>
              <LongitudeDegrees>-4.38140921294689178466796875</LongitudeDegrees>
            </Position>
            <AltitudeMeters>641.4000244140625</AltitudeMeters>
            <DistanceMeters>NAN</DistanceMeters>
          </Trackpoint>
          <Trackpoint>
            <Time>2020-12-05T12:26:58.000Z</Time>
            <Position>
              <LatitudeDegrees>36.83576437644660472869873046875</LatitudeDegrees>
              <LongitudeDegrees>-4.3814160861074924468994140625</LongitudeDegrees>
            </Position>
            <AltitudeMeters>641.4000244140625</AltitudeMeters>
            <DistanceMeters>NAN</DistanceMeters>
          </Trackpoint>
          <Trackpoint>
            <Time>2020-12-05T12:26:59.000Z</Time>
            <Position>
              <LatitudeDegrees>36.83577896095812320709228515625</LatitudeDegrees>
              <LongitudeDegrees>-4.38142321072518825531005859375</LongitudeDegrees>
            </Position>
            <AltitudeMeters>641.4000244140625</AltitudeMeters>
            <DistanceMeters>NAN</DistanceMeters>
          </Trackpoint>
          <Trackpoint>
            <Time>2020-12-05T12:27:00.000Z</Time>
            <Position>
              <LatitudeDegrees>36.83579371310770511627197265625</LatitudeDegrees>
              <LongitudeDegrees>-4.381428658962249755859375</LongitudeDegrees>
            </Position>
            <AltitudeMeters>639</AltitudeMeters>
            <DistanceMeters>NAN</DistanceMeters>
          </Trackpoint>
          <Trackpoint>
            <Time>2020-12-05T12:27:01.000Z</Time>
            <Position>
              <LatitudeDegrees>36.83580477721989154815673828125</LatitudeDegrees>
              <LongitudeDegrees>-4.38143695704638957977294921875</LongitudeDegrees>
            </Position>
            <AltitudeMeters>639</AltitudeMeters>
            <DistanceMeters>NAN</DistanceMeters>
          </Trackpoint>
          <Trackpoint>
            <Time>2020-12-05T12:27:02.000Z</Time>
            <Position>
              <LatitudeDegrees>36.835814081132411956787109375</LatitudeDegrees>
              <LongitudeDegrees>-4.38145087100565433502197265625</LongitudeDegrees>
            </Position>
            <AltitudeMeters>639</AltitudeMeters>
            <DistanceMeters>NAN</DistanceMeters>
          </Trackpoint>
          <Trackpoint>
            <Time>2020-12-05T12:27:03.000Z</Time>
            <Position>
              <LatitudeDegrees>36.83582455851137638092041015625</LatitudeDegrees>
              <LongitudeDegrees>-4.38146143220365047454833984375</LongitudeDegrees>
            </Position>
            <AltitudeMeters>639</AltitudeMeters>
            <DistanceMeters>NAN</DistanceMeters>
          </Trackpoint>
          <Trackpoint>
            <Time>2020-12-05T12:27:04.000Z</Time>
            <Position>
              <LatitudeDegrees>36.835835874080657958984375</LatitudeDegrees>
              <LongitudeDegrees>-4.3814697302877902984619140625</LongitudeDegrees>
            </Position>
            <AltitudeMeters>639</AltitudeMeters>
            <DistanceMeters>NAN</DistanceMeters>
          </Trackpoint>
          <Trackpoint>
            <Time>2020-12-05T12:27:05.000Z</Time>
            <Position>
              <LatitudeDegrees>36.83584752492606639862060546875</LatitudeDegrees>
              <LongitudeDegrees>-4.38147626817226409912109375</LongitudeDegrees>
            </Position>
            <AltitudeMeters>639</AltitudeMeters>
            <DistanceMeters>NAN</DistanceMeters>
          </Trackpoint>
          <Trackpoint>
            <Time>2020-12-05T12:27:06.000Z</Time>
            <Position>
              <LatitudeDegrees>36.83585842140018939971923828125</LatitudeDegrees>
              <LongitudeDegrees>-4.38148255459964275360107421875</LongitudeDegrees>
            </Position>
            <AltitudeMeters>639</AltitudeMeters>
            <DistanceMeters>NAN</DistanceMeters>
          </Trackpoint>
          <Trackpoint>
            <Time>2020-12-05T12:27:07.000Z</Time>
            <Position>
              <LatitudeDegrees>36.8358692340552806854248046875</LatitudeDegrees>
              <LongitudeDegrees>-4.38149227760732173919677734375</LongitudeDegrees>
            </Position>
            <AltitudeMeters>639</AltitudeMeters>
            <DistanceMeters>NAN</DistanceMeters>
          </Trackpoint>
          <Trackpoint>
            <Time>2020-12-05T12:27:08.000Z</Time>
            <Position>
              <LatitudeDegrees>36.8358814716339111328125</LatitudeDegrees>
              <LongitudeDegrees>-4.38149915076792240142822265625</LongitudeDegrees>
            </Position>
            <AltitudeMeters>639</AltitudeMeters>
            <DistanceMeters>NAN</DistanceMeters>
          </Trackpoint>
          <Trackpoint>
            <Time>2020-12-05T12:27:09.000Z</Time>
            <Position>
              <LatitudeDegrees>36.83589379303157329559326171875</LatitudeDegrees>
              <LongitudeDegrees>-4.38150367699563503265380859375</LongitudeDegrees>
            </Position>
            <AltitudeMeters>639</AltitudeMeters>
            <DistanceMeters>NAN</DistanceMeters>
          </Trackpoint>
          <Trackpoint>
            <Time>2020-12-05T12:27:10.000Z</Time>
            <Position>
              <LatitudeDegrees>36.8359074555337429046630859375</LatitudeDegrees>
              <LongitudeDegrees>-4.38151205889880657196044921875</LongitudeDegrees>
            </Position>
            <AltitudeMeters>639</AltitudeMeters>
            <DistanceMeters>NAN</DistanceMeters>
          </Trackpoint>
          <Trackpoint>
            <Time>2020-12-05T12:27:11.000Z</Time>
            <Position>
              <LatitudeDegrees>36.83592178858816623687744140625</LatitudeDegrees>
              <LongitudeDegrees>-4.3815193511545658111572265625</LongitudeDegrees>
            </Position>
            <AltitudeMeters>639</AltitudeMeters>
            <DistanceMeters>NAN</DistanceMeters>
          </Trackpoint>
          <Trackpoint>
            <Time>2020-12-05T12:27:12.000Z</Time>
            <Position>
              <LatitudeDegrees>36.83593419380486011505126953125</LatitudeDegrees>
              <LongitudeDegrees>-4.3815267272293567657470703125</LongitudeDegrees>
            </Position>
            <AltitudeMeters>639</AltitudeMeters>
            <DistanceMeters>NAN</DistanceMeters>
          </Trackpoint>
          <Trackpoint>
            <Time>2020-12-05T12:27:13.000Z</Time>
            <Position>
              <LatitudeDegrees>36.83594525791704654693603515625</LatitudeDegrees>
              <LongitudeDegrees>-4.38153301365673542022705078125</LongitudeDegrees>
            </Position>
            <AltitudeMeters>639</AltitudeMeters>
            <DistanceMeters>NAN</DistanceMeters>
          </Trackpoint>
          <Trackpoint>
            <Time>2020-12-05T12:27:14.000Z</Time>
            <Position>
              <LatitudeDegrees>36.835954226553440093994140625</LatitudeDegrees>
              <LongitudeDegrees>-4.38153921626508235931396484375</LongitudeDegrees>
            </Position>
            <AltitudeMeters>639</AltitudeMeters>
            <DistanceMeters>NAN</DistanceMeters>
          </Trackpoint>
          <Trackpoint>
            <Time>2020-12-05T12:27:15.000Z</Time>
            <Position>
              <LatitudeDegrees>36.835964955389499664306640625</LatitudeDegrees>
              <LongitudeDegrees>-4.38154290430247783660888671875</LongitudeDegrees>
            </Position>
            <AltitudeMeters>639</AltitudeMeters>
            <DistanceMeters>NAN</DistanceMeters>
          </Trackpoint>
          <Trackpoint>
            <Time>2020-12-05T12:27:16.000Z</Time>
            <Position>
              <LatitudeDegrees>36.8359755165874958038330078125</LatitudeDegrees>
              <LongitudeDegrees>-4.3815438263118267059326171875</LongitudeDegrees>
            </Position>
            <AltitudeMeters>639</AltitudeMeters>
            <DistanceMeters>NAN</DistanceMeters>
          </Trackpoint>
          <Trackpoint>
            <Time>2020-12-05T12:27:17.000Z</Time>
            <Position>
              <LatitudeDegrees>36.83598498813807964324951171875</LatitudeDegrees>
              <LongitudeDegrees>-4.38154474832117557525634765625</LongitudeDegrees>
            </Position>
            <AltitudeMeters>639</AltitudeMeters>
            <DistanceMeters>NAN</DistanceMeters>
          </Trackpoint>
          <Trackpoint>
            <Time>2020-12-05T12:27:18.000Z</Time>
            <Position>
              <LatitudeDegrees>36.83599521405994892120361328125</LatitudeDegrees>
              <LongitudeDegrees>-4.38154692761600017547607421875</LongitudeDegrees>
            </Position>
            <AltitudeMeters>639</AltitudeMeters>
            <DistanceMeters>NAN</DistanceMeters>
          </Trackpoint>
          <Trackpoint>
            <Time>2020-12-05T12:27:19.000Z</Time>
            <Position>
              <LatitudeDegrees>36.8360093794763088226318359375</LatitudeDegrees>
              <LongitudeDegrees>-4.3815485201776027679443359375</LongitudeDegrees>
            </Position>
            <AltitudeMeters>639</AltitudeMeters>
            <DistanceMeters>NAN</DistanceMeters>
          </Trackpoint>
          <Trackpoint>
            <Time>2020-12-05T12:27:20.000Z</Time>
            <Position>
              <LatitudeDegrees>36.836025305092334747314453125</LatitudeDegrees>
              <LongitudeDegrees>-4.381548352539539337158203125</LongitudeDegrees>
            </Position>
            <AltitudeMeters>639</AltitudeMeters>
            <DistanceMeters>NAN</DistanceMeters>
          </Trackpoint>
          <Trackpoint>
            <Time>2020-12-05T12:27:21.000Z</Time>
            <Position>
              <LatitudeDegrees>36.8360437452793121337890625</LatitudeDegrees>
              <LongitudeDegrees>-4.38154525123536586761474609375</LongitudeDegrees>
            </Position>
            <AltitudeMeters>639</AltitudeMeters>
            <DistanceMeters>NAN</DistanceMeters>
          </Trackpoint>
          <Trackpoint>
            <Time>2020-12-05T12:27:22.000Z</Time>
            <Position>
              <LatitudeDegrees>36.83606260456144809722900390625</LatitudeDegrees>
              <LongitudeDegrees>-4.38154198229312896728515625</LongitudeDegrees>
            </Position>
            <AltitudeMeters>639</AltitudeMeters>
            <DistanceMeters>NAN</DistanceMeters>
          </Trackpoint>
          <Trackpoint>
            <Time>2020-12-05T12:27:23.000Z</Time>
            <Position>
              <LatitudeDegrees>36.83607794344425201416015625</LatitudeDegrees>
              <LongitudeDegrees>-4.381540305912494659423828125</LongitudeDegrees>
            </Position>
            <AltitudeMeters>639</AltitudeMeters>
            <DistanceMeters>NAN</DistanceMeters>
          </Trackpoint>
          <Trackpoint>
            <Time>2020-12-05T12:27:24.000Z</Time>
            <Position>
              <LatitudeDegrees>36.8360945396125316619873046875</LatitudeDegrees>
              <LongitudeDegrees>-4.38153804279863834381103515625</LongitudeDegrees>
            </Position>
            <AltitudeMeters>639</AltitudeMeters>
            <DistanceMeters>NAN</DistanceMeters>
          </Trackpoint>
          <Trackpoint>
            <Time>2020-12-05T12:27:25.000Z</Time>
            <Position>
              <LatitudeDegrees>36.83611121959984302520751953125</LatitudeDegrees>
              <LongitudeDegrees>-4.38153326511383056640625</LongitudeDegrees>
            </Position>
            <AltitudeMeters>639</AltitudeMeters>
            <DistanceMeters>NAN</DistanceMeters>
          </Trackpoint>
          <Trackpoint>
            <Time>2020-12-05T12:27:26.000Z</Time>
            <Position>
              <LatitudeDegrees>36.83612563647329807281494140625</LatitudeDegrees>
              <LongitudeDegrees>-4.3815304152667522430419921875</LongitudeDegrees>
            </Position>
            <AltitudeMeters>639</AltitudeMeters>
            <DistanceMeters>NAN</DistanceMeters>
          </Trackpoint>
          <Trackpoint>
            <Time>2020-12-05T12:27:27.000Z</Time>
            <Position>
              <LatitudeDegrees>36.836141981184482574462890625</LatitudeDegrees>
              <LongitudeDegrees>-4.38152429647743701934814453125</LongitudeDegrees>
            </Position>
            <AltitudeMeters>639</AltitudeMeters>
            <DistanceMeters>NAN</DistanceMeters>
          </Trackpoint>
          <Trackpoint>
            <Time>2020-12-05T12:27:28.000Z</Time>
            <Position>
              <LatitudeDegrees>36.83615631423890590667724609375</LatitudeDegrees>
              <LongitudeDegrees>-4.38151977024972438812255859375</LongitudeDegrees>
            </Position>
            <AltitudeMeters>639</AltitudeMeters>
            <DistanceMeters>NAN</DistanceMeters>
          </Trackpoint>
          <Trackpoint>
            <Time>2020-12-05T12:27:29.000Z</Time>
            <Position>
              <LatitudeDegrees>36.83616871945559978485107421875</LatitudeDegrees>
              <LongitudeDegrees>-4.3815126456320285797119140625</LongitudeDegrees>
            </Position>
            <AltitudeMeters>639</AltitudeMeters>
            <DistanceMeters>NAN</DistanceMeters>
          </Trackpoint>
          <Trackpoint>
            <Time>2020-12-05T12:27:30.000Z</Time>
            <Position>
              <LatitudeDegrees>36.83618062175810337066650390625</LatitudeDegrees>
              <LongitudeDegrees>-4.381504096090793609619140625</LongitudeDegrees>
            </Position>
            <AltitudeMeters>639</AltitudeMeters>
            <DistanceMeters>NAN</DistanceMeters>
          </Trackpoint>
          <Trackpoint>
            <Time>2020-12-05T12:27:31.000Z</Time>
            <Position>
              <LatitudeDegrees>36.83619084767997264862060546875</LatitudeDegrees>
              <LongitudeDegrees>-4.38149495981633663177490234375</LongitudeDegrees>
            </Position>
            <AltitudeMeters>639</AltitudeMeters>
            <DistanceMeters>NAN</DistanceMeters>
          </Trackpoint>
          <Trackpoint>
            <Time>2020-12-05T12:27:32.000Z</Time>
            <Position>
              <LatitudeDegrees>36.83620040304958820343017578125</LatitudeDegrees>
              <LongitudeDegrees>-4.38148724846541881561279296875</LongitudeDegrees>
            </Position>
            <AltitudeMeters>639</AltitudeMeters>
            <DistanceMeters>NAN</DistanceMeters>
          </Trackpoint>
          <Trackpoint>
            <Time>2020-12-05T12:27:33.000Z</Time>
            <Position>
              <LatitudeDegrees>36.83621163479983806610107421875</LatitudeDegrees>
              <LongitudeDegrees>-4.38148004002869129180908203125</LongitudeDegrees>
            </Position>
            <AltitudeMeters>639</AltitudeMeters>
            <DistanceMeters>NAN</DistanceMeters>
          </Trackpoint>
          <Trackpoint>
            <Time>2020-12-05T12:27:34.000Z</Time>
            <Position>
              <LatitudeDegrees>36.83622286655008792877197265625</LatitudeDegrees>
              <LongitudeDegrees>-4.38147366978228092193603515625</LongitudeDegrees>
            </Position>
            <AltitudeMeters>639</AltitudeMeters>
            <DistanceMeters>NAN</DistanceMeters>
          </Trackpoint>
          <Trackpoint>
            <Time>2020-12-05T12:27:35.000Z</Time>
            <Position>
              <LatitudeDegrees>36.83623342774808406829833984375</LatitudeDegrees>
              <LongitudeDegrees>-4.3814714066684246063232421875</LongitudeDegrees>
            </Position>
            <AltitudeMeters>639</AltitudeMeters>
            <DistanceMeters>NAN</DistanceMeters>
          </Trackpoint>
          <Trackpoint>
            <Time>2020-12-05T12:27:36.000Z</Time>
            <Position>
              <LatitudeDegrees>36.8362440727651119232177734375</LatitudeDegrees>
              <LongitudeDegrees>-4.3814687244594097137451171875</LongitudeDegrees>
            </Position>
            <AltitudeMeters>639</AltitudeMeters>
            <DistanceMeters>NAN</DistanceMeters>
          </Trackpoint>
          <Trackpoint>
            <Time>2020-12-05T12:27:37.000Z</Time>
            <Position>
              <LatitudeDegrees>36.83625455014407634735107421875</LatitudeDegrees>
              <LongitudeDegrees>-4.38147115521132946014404296875</LongitudeDegrees>
            </Position>
            <AltitudeMeters>639</AltitudeMeters>
            <DistanceMeters>NAN</DistanceMeters>
          </Trackpoint>
          <Trackpoint>
            <Time>2020-12-05T12:27:38.000Z</Time>
            <Position>
              <LatitudeDegrees>36.836265362799167633056640625</LatitudeDegrees>
              <LongitudeDegrees>-4.38147031702101230621337890625</LongitudeDegrees>
            </Position>
            <AltitudeMeters>639</AltitudeMeters>
            <DistanceMeters>NAN</DistanceMeters>
          </Trackpoint>
          <Trackpoint>
            <Time>2020-12-05T12:27:39.000Z</Time>
            <Position>
              <LatitudeDegrees>36.836277432739734649658203125</LatitudeDegrees>
              <LongitudeDegrees>-4.38146713189780712127685546875</LongitudeDegrees>
            </Position>
            <AltitudeMeters>639</AltitudeMeters>
            <DistanceMeters>NAN</DistanceMeters>
          </Trackpoint>
          <Trackpoint>
            <Time>2020-12-05T12:27:40.000Z</Time>
            <Position>
              <LatitudeDegrees>36.83628791011869907379150390625</LatitudeDegrees>
              <LongitudeDegrees>-4.38146042637526988983154296875</LongitudeDegrees>
            </Position>
            <AltitudeMeters>639</AltitudeMeters>
            <DistanceMeters>NAN</DistanceMeters>
          </Trackpoint>
          <Trackpoint>
            <Time>2020-12-05T12:27:41.000Z</Time>
            <Position>
              <LatitudeDegrees>36.836302243173122406005859375</LatitudeDegrees>
              <LongitudeDegrees>-4.3814460933208465576171875</LongitudeDegrees>
            </Position>
            <AltitudeMeters>639</AltitudeMeters>
            <DistanceMeters>NAN</DistanceMeters>
          </Trackpoint>
          <Trackpoint>
            <Time>2020-12-05T12:27:42.000Z</Time>
            <Position>
              <LatitudeDegrees>36.836314983665943145751953125</LatitudeDegrees>
              <LongitudeDegrees>-4.3814294971525669097900390625</LongitudeDegrees>
            </Position>
            <AltitudeMeters>639</AltitudeMeters>
            <DistanceMeters>NAN</DistanceMeters>
          </Trackpoint>
          <Trackpoint>
            <Time>2020-12-05T12:27:43.000Z</Time>
            <Position>
              <LatitudeDegrees>36.83633149601519107818603515625</LatitudeDegrees>
              <LongitudeDegrees>-4.38142421655356884002685546875</LongitudeDegrees>
            </Position>
            <AltitudeMeters>639</AltitudeMeters>
            <DistanceMeters>NAN</DistanceMeters>
          </Trackpoint>
          <Trackpoint>
            <Time>2020-12-05T12:27:44.000Z</Time>
            <Position>
              <LatitudeDegrees>36.83634943328797817230224609375</LatitudeDegrees>
              <LongitudeDegrees>-4.3814204446971416473388671875</LongitudeDegrees>
            </Position>
            <AltitudeMeters>639</AltitudeMeters>
            <DistanceMeters>NAN</DistanceMeters>
          </Trackpoint>
          <Trackpoint>
            <Time>2020-12-05T12:27:45.000Z</Time>
            <Position>
              <LatitudeDegrees>36.83636368252336978912353515625</LatitudeDegrees>
              <LongitudeDegrees>-4.381414912641048431396484375</LongitudeDegrees>
            </Position>
            <AltitudeMeters>639</AltitudeMeters>
            <DistanceMeters>NAN</DistanceMeters>
          </Trackpoint>
          <Trackpoint>
            <Time>2020-12-05T12:27:46.000Z</Time>
            <Position>
              <LatitudeDegrees>36.83637700974941253662109375</LatitudeDegrees>
              <LongitudeDegrees>-4.38141315244138240814208984375</LongitudeDegrees>
            </Position>
            <AltitudeMeters>639</AltitudeMeters>
            <DistanceMeters>NAN</DistanceMeters>
          </Trackpoint>
          <Trackpoint>
            <Time>2020-12-05T12:27:47.000Z</Time>
            <Position>
              <LatitudeDegrees>36.8363922648131847381591796875</LatitudeDegrees>
              <LongitudeDegrees>-4.38141231425106525421142578125</LongitudeDegrees>
            </Position>
            <AltitudeMeters>639</AltitudeMeters>
            <DistanceMeters>NAN</DistanceMeters>
          </Trackpoint>
          <Trackpoint>
            <Time>2020-12-05T12:27:48.000Z</Time>
            <Position>
              <LatitudeDegrees>36.83640441857278347015380859375</LatitudeDegrees>
              <LongitudeDegrees>-4.38141281716525554656982421875</LongitudeDegrees>
            </Position>
            <AltitudeMeters>639</AltitudeMeters>
            <DistanceMeters>NAN</DistanceMeters>
          </Trackpoint>
          <Trackpoint>
            <Time>2020-12-05T12:27:49.000Z</Time>
            <Position>
              <LatitudeDegrees>36.8364150635898113250732421875</LatitudeDegrees>
              <LongitudeDegrees>-4.3814117275178432464599609375</LongitudeDegrees>
            </Position>
            <AltitudeMeters>639</AltitudeMeters>
            <DistanceMeters>NAN</DistanceMeters>
          </Trackpoint>
          <Trackpoint>
            <Time>2020-12-05T12:27:50.000Z</Time>
            <Position>
              <LatitudeDegrees>36.8364247865974903106689453125</LatitudeDegrees>
              <LongitudeDegrees>-4.38141114078462123870849609375</LongitudeDegrees>
            </Position>
            <AltitudeMeters>639</AltitudeMeters>
            <DistanceMeters>NAN</DistanceMeters>
          </Trackpoint>
          <Trackpoint>
            <Time>2020-12-05T12:27:51.000Z</Time>
            <Position>
              <LatitudeDegrees>36.836436353623867034912109375</LatitudeDegrees>
              <LongitudeDegrees>-4.38140862621366977691650390625</LongitudeDegrees>
            </Position>
            <AltitudeMeters>639</AltitudeMeters>
            <DistanceMeters>NAN</DistanceMeters>
          </Trackpoint>
          <Trackpoint>
            <Time>2020-12-05T12:27:52.000Z</Time>
            <Position>
              <LatitudeDegrees>36.83644817210733890533447265625</LatitudeDegrees>
              <LongitudeDegrees>-4.381404854357242584228515625</LongitudeDegrees>
            </Position>
            <AltitudeMeters>639</AltitudeMeters>
            <DistanceMeters>NAN</DistanceMeters>
          </Trackpoint>
          <Trackpoint>
            <Time>2020-12-05T12:27:53.000Z</Time>
            <Position>
              <LatitudeDegrees>36.83646015822887420654296875</LatitudeDegrees>
              <LongitudeDegrees>-4.3813999928534030914306640625</LongitudeDegrees>
            </Position>
            <AltitudeMeters>639</AltitudeMeters>
            <DistanceMeters>NAN</DistanceMeters>
          </Trackpoint>
          <Trackpoint>
            <Time>2020-12-05T12:27:54.000Z</Time>
            <Position>
              <LatitudeDegrees>36.83647164143621921539306640625</LatitudeDegrees>
              <LongitudeDegrees>-4.38139219768345355987548828125</LongitudeDegrees>
            </Position>
            <AltitudeMeters>639</AltitudeMeters>
            <DistanceMeters>NAN</DistanceMeters>
          </Trackpoint>
          <Trackpoint>
            <Time>2020-12-05T12:27:55.000Z</Time>
            <Position>
              <LatitudeDegrees>36.8364821188151836395263671875</LatitudeDegrees>
              <LongitudeDegrees>-4.38138599507510662078857421875</LongitudeDegrees>
            </Position>
            <AltitudeMeters>639</AltitudeMeters>
            <DistanceMeters>NAN</DistanceMeters>
          </Trackpoint>
          <Trackpoint>
            <Time>2020-12-05T12:27:56.000Z</Time>
            <Position>
              <LatitudeDegrees>36.83649376966059207916259765625</LatitudeDegrees>
              <LongitudeDegrees>-4.38138247467577457427978515625</LongitudeDegrees>
            </Position>
            <AltitudeMeters>639</AltitudeMeters>
            <DistanceMeters>NAN</DistanceMeters>
          </Trackpoint>
          <Trackpoint>
            <Time>2020-12-05T12:27:57.000Z</Time>
            <Position>
              <LatitudeDegrees>36.8365052528679370880126953125</LatitudeDegrees>
              <LongitudeDegrees>-4.38138096593320369720458984375</LongitudeDegrees>
            </Position>
            <AltitudeMeters>639</AltitudeMeters>
            <DistanceMeters>NAN</DistanceMeters>
          </Trackpoint>
          <Trackpoint>
            <Time>2020-12-05T12:27:58.000Z</Time>
            <Position>
              <LatitudeDegrees>36.836517490446567535400390625</LatitudeDegrees>
              <LongitudeDegrees>-4.38138012774288654327392578125</LongitudeDegrees>
            </Position>
            <AltitudeMeters>639</AltitudeMeters>
            <DistanceMeters>NAN</DistanceMeters>
          </Trackpoint>
          <Trackpoint>
            <Time>2020-12-05T12:27:59.000Z</Time>
            <Position>
              <LatitudeDegrees>36.8365300633013248443603515625</LatitudeDegrees>
              <LongitudeDegrees>-4.38137811608612537384033203125</LongitudeDegrees>
            </Position>
            <AltitudeMeters>639</AltitudeMeters>
            <DistanceMeters>NAN</DistanceMeters>
          </Trackpoint>
          <Trackpoint>
            <Time>2020-12-05T12:28:00.000Z</Time>
            <Position>
              <LatitudeDegrees>36.83654339052736759185791015625</LatitudeDegrees>
              <LongitudeDegrees>-4.381376020610332489013671875</LongitudeDegrees>
            </Position>
            <AltitudeMeters>635.5999755859375</AltitudeMeters>
            <DistanceMeters>NAN</DistanceMeters>
          </Trackpoint>
          <Trackpoint>
            <Time>2020-12-05T12:28:01.000Z</Time>
            <Position>
              <LatitudeDegrees>36.8365568853914737701416015625</LatitudeDegrees>
              <LongitudeDegrees>-4.38137275166809558868408203125</LongitudeDegrees>
            </Position>
            <AltitudeMeters>635.5999755859375</AltitudeMeters>
            <DistanceMeters>NAN</DistanceMeters>
          </Trackpoint>
          <Trackpoint>
            <Time>2020-12-05T12:28:02.000Z</Time>
            <Position>
              <LatitudeDegrees>36.8365702964365482330322265625</LatitudeDegrees>
              <LongitudeDegrees>-4.38136789016425609588623046875</LongitudeDegrees>
            </Position>
            <AltitudeMeters>635.5999755859375</AltitudeMeters>
            <DistanceMeters>NAN</DistanceMeters>
          </Trackpoint>
          <Trackpoint>
            <Time>2020-12-05T12:28:03.000Z</Time>
            <Position>
              <LatitudeDegrees>36.83658429421484470367431640625</LatitudeDegrees>
              <LongitudeDegrees>-4.38136336393654346466064453125</LongitudeDegrees>
            </Position>
            <AltitudeMeters>635.5999755859375</AltitudeMeters>
            <DistanceMeters>NAN</DistanceMeters>
          </Trackpoint>
          <Trackpoint>
            <Time>2020-12-05T12:28:04.000Z</Time>
            <Position>
              <LatitudeDegrees>36.8365964479744434356689453125</LatitudeDegrees>
              <LongitudeDegrees>-4.38135950826108455657958984375</LongitudeDegrees>
            </Position>
            <AltitudeMeters>635.5999755859375</AltitudeMeters>
            <DistanceMeters>NAN</DistanceMeters>
          </Trackpoint>
          <Trackpoint>
            <Time>2020-12-05T12:28:05.000Z</Time>
            <Position>
              <LatitudeDegrees>36.83661011047661304473876953125</LatitudeDegrees>
              <LongitudeDegrees>-4.38135263510048389434814453125</LongitudeDegrees>
            </Position>
            <AltitudeMeters>635.5999755859375</AltitudeMeters>
            <DistanceMeters>NAN</DistanceMeters>
          </Trackpoint>
          <Trackpoint>
            <Time>2020-12-05T12:28:06.000Z</Time>
            <Position>
              <LatitudeDegrees>36.83662352152168750762939453125</LatitudeDegrees>
              <LongitudeDegrees>-4.38134710304439067840576171875</LongitudeDegrees>
            </Position>
            <AltitudeMeters>635.5999755859375</AltitudeMeters>
            <DistanceMeters>NAN</DistanceMeters>
          </Trackpoint>
          <Trackpoint>
            <Time>2020-12-05T12:28:07.000Z</Time>
            <Position>
              <LatitudeDegrees>36.8366380222141742706298828125</LatitudeDegrees>
              <LongitudeDegrees>-4.38134073279798030853271484375</LongitudeDegrees>
            </Position>
            <AltitudeMeters>635.5999755859375</AltitudeMeters>
            <DistanceMeters>NAN</DistanceMeters>
          </Trackpoint>
          <Trackpoint>
            <Time>2020-12-05T12:28:08.000Z</Time>
            <Position>
              <LatitudeDegrees>36.8366524390876293182373046875</LatitudeDegrees>
              <LongitudeDegrees>-4.38133008778095245361328125</LongitudeDegrees>
            </Position>
            <AltitudeMeters>635.5999755859375</AltitudeMeters>
            <DistanceMeters>NAN</DistanceMeters>
          </Trackpoint>
          <Trackpoint>
            <Time>2020-12-05T12:28:09.000Z</Time>
            <Position>
              <LatitudeDegrees>36.836664676666259765625</LatitudeDegrees>
              <LongitudeDegrees>-4.3813191913068294525146484375</LongitudeDegrees>
            </Position>
            <AltitudeMeters>635.5999755859375</AltitudeMeters>
            <DistanceMeters>NAN</DistanceMeters>
          </Trackpoint>
          <Trackpoint>
            <Time>2020-12-05T12:28:10.000Z</Time>
            <Position>
              <LatitudeDegrees>36.83667766861617565155029296875</LatitudeDegrees>
              <LongitudeDegrees>-4.381310641765594482421875</LongitudeDegrees>
            </Position>
            <AltitudeMeters>635.5999755859375</AltitudeMeters>
            <DistanceMeters>NAN</DistanceMeters>
          </Trackpoint>
          <Trackpoint>
            <Time>2020-12-05T12:28:11.000Z</Time>
            <Position>
              <LatitudeDegrees>36.8366920016705989837646484375</LatitudeDegrees>
              <LongitudeDegrees>-4.38130552880465984344482421875</LongitudeDegrees>
            </Position>
            <AltitudeMeters>635.5999755859375</AltitudeMeters>
            <DistanceMeters>NAN</DistanceMeters>
          </Trackpoint>
          <Trackpoint>
            <Time>2020-12-05T12:28:12.000Z</Time>
            <Position>
              <LatitudeDegrees>36.83670398779213428497314453125</LatitudeDegrees>
              <LongitudeDegrees>-4.38130217604339122772216796875</LongitudeDegrees>
            </Position>
            <AltitudeMeters>635.5999755859375</AltitudeMeters>
            <DistanceMeters>NAN</DistanceMeters>
          </Trackpoint>
          <Trackpoint>
            <Time>2020-12-05T12:28:13.000Z</Time>
            <Position>
              <LatitudeDegrees>36.836712621152400970458984375</LatitudeDegrees>
              <LongitudeDegrees>-4.38129999674856662750244140625</LongitudeDegrees>
            </Position>
            <AltitudeMeters>635.5999755859375</AltitudeMeters>
            <DistanceMeters>NAN</DistanceMeters>
          </Trackpoint>
          <Trackpoint>
            <Time>2020-12-05T12:28:14.000Z</Time>
            <Position>
              <LatitudeDegrees>36.836722679436206817626953125</LatitudeDegrees>
              <LongitudeDegrees>-4.38129463233053684234619140625</LongitudeDegrees>
            </Position>
            <AltitudeMeters>635.5999755859375</AltitudeMeters>
            <DistanceMeters>NAN</DistanceMeters>
          </Trackpoint>
          <Trackpoint>
            <Time>2020-12-05T12:28:15.000Z</Time>
            <Position>
              <LatitudeDegrees>36.83673533610999584197998046875</LatitudeDegrees>
              <LongitudeDegrees>-4.3812843225896358489990234375</LongitudeDegrees>
            </Position>
            <AltitudeMeters>635.5999755859375</AltitudeMeters>
            <DistanceMeters>NAN</DistanceMeters>
          </Trackpoint>
          <Trackpoint>
            <Time>2020-12-05T12:28:16.000Z</Time>
            <Position>
              <LatitudeDegrees>36.83674740605056285858154296875</LatitudeDegrees>
              <LongitudeDegrees>-4.38127518631517887115478515625</LongitudeDegrees>
            </Position>
            <AltitudeMeters>635.5999755859375</AltitudeMeters>
            <DistanceMeters>NAN</DistanceMeters>
          </Trackpoint>
          <Trackpoint>
            <Time>2020-12-05T12:28:17.000Z</Time>
            <Position>
              <LatitudeDegrees>36.83675712905824184417724609375</LatitudeDegrees>
              <LongitudeDegrees>-4.38126730732619762420654296875</LongitudeDegrees>
            </Position>
            <AltitudeMeters>635.5999755859375</AltitudeMeters>
            <DistanceMeters>NAN</DistanceMeters>
          </Trackpoint>
          <Trackpoint>
            <Time>2020-12-05T12:28:18.000Z</Time>
            <Position>
              <LatitudeDegrees>36.8367650918662548065185546875</LatitudeDegrees>
              <LongitudeDegrees>-4.38125842250883579254150390625</LongitudeDegrees>
            </Position>
            <AltitudeMeters>635.5999755859375</AltitudeMeters>
            <DistanceMeters>NAN</DistanceMeters>
          </Trackpoint>
          <Trackpoint>
            <Time>2020-12-05T12:28:19.000Z</Time>
            <Position>
              <LatitudeDegrees>36.83677255176007747650146484375</LatitudeDegrees>
              <LongitudeDegrees>-4.381251297891139984130859375</LongitudeDegrees>
            </Position>
            <AltitudeMeters>635.5999755859375</AltitudeMeters>
            <DistanceMeters>NAN</DistanceMeters>
          </Trackpoint>
          <Trackpoint>
            <Time>2020-12-05T12:28:20.000Z</Time>
            <Position>
              <LatitudeDegrees>36.8367801792919635772705078125</LatitudeDegrees>
              <LongitudeDegrees>-4.38123486936092376708984375</LongitudeDegrees>
            </Position>
            <AltitudeMeters>635.5999755859375</AltitudeMeters>
            <DistanceMeters>NAN</DistanceMeters>
          </Trackpoint>
          <Trackpoint>
            <Time>2020-12-05T12:28:21.000Z</Time>
            <Position>
              <LatitudeDegrees>36.83678814209997653961181640625</LatitudeDegrees>
              <LongitudeDegrees>-4.38122103922069072723388671875</LongitudeDegrees>
            </Position>
            <AltitudeMeters>635.5999755859375</AltitudeMeters>
            <DistanceMeters>NAN</DistanceMeters>
          </Trackpoint>
          <Trackpoint>
            <Time>2020-12-05T12:28:22.000Z</Time>
            <Position>
              <LatitudeDegrees>36.83679618872702121734619140625</LatitudeDegrees>
              <LongitudeDegrees>-4.3812105618417263031005859375</LongitudeDegrees>
            </Position>
            <AltitudeMeters>635.5999755859375</AltitudeMeters>
            <DistanceMeters>NAN</DistanceMeters>
          </Trackpoint>
          <Trackpoint>
            <Time>2020-12-05T12:28:23.000Z</Time>
            <Position>
              <LatitudeDegrees>36.83680406771600246429443359375</LatitudeDegrees>
              <LongitudeDegrees>-4.38120134174823760986328125</LongitudeDegrees>
            </Position>
            <AltitudeMeters>635.5999755859375</AltitudeMeters>
            <DistanceMeters>NAN</DistanceMeters>
          </Trackpoint>
          <Trackpoint>
            <Time>2020-12-05T12:28:24.000Z</Time>
            <Position>
              <LatitudeDegrees>36.83681278489530086517333984375</LatitudeDegrees>
              <LongitudeDegrees>-4.3811948038637638092041015625</LongitudeDegrees>
            </Position>
            <AltitudeMeters>635.5999755859375</AltitudeMeters>
            <DistanceMeters>NAN</DistanceMeters>
          </Trackpoint>
          <Trackpoint>
            <Time>2020-12-05T12:28:25.000Z</Time>
            <Position>
              <LatitudeDegrees>36.83682016097009181976318359375</LatitudeDegrees>
              <LongitudeDegrees>-4.38118985854089260101318359375</LongitudeDegrees>
            </Position>
            <AltitudeMeters>635.5999755859375</AltitudeMeters>
            <DistanceMeters>NAN</DistanceMeters>
          </Trackpoint>
          <Trackpoint>
            <Time>2020-12-05T12:28:26.000Z</Time>
            <Position>
              <LatitudeDegrees>36.83682619594037532806396484375</LatitudeDegrees>
              <LongitudeDegrees>-4.38118801452219486236572265625</LongitudeDegrees>
            </Position>
            <AltitudeMeters>635.5999755859375</AltitudeMeters>
            <DistanceMeters>NAN</DistanceMeters>
          </Trackpoint>
          <Trackpoint>
            <Time>2020-12-05T12:28:27.000Z</Time>
            <Position>
              <LatitudeDegrees>36.83683541603386402130126953125</LatitudeDegrees>
              <LongitudeDegrees>-4.3811867572367191314697265625</LongitudeDegrees>
            </Position>
            <AltitudeMeters>635.5999755859375</AltitudeMeters>
            <DistanceMeters>NAN</DistanceMeters>
          </Trackpoint>
          <Trackpoint>
            <Time>2020-12-05T12:28:28.000Z</Time>
            <Position>
              <LatitudeDegrees>36.8368435464799404144287109375</LatitudeDegrees>
              <LongitudeDegrees>-4.38118457794189453125</LongitudeDegrees>
            </Position>
            <AltitudeMeters>635.5999755859375</AltitudeMeters>
            <DistanceMeters>NAN</DistanceMeters>
          </Trackpoint>
          <Trackpoint>
            <Time>2020-12-05T12:28:29.000Z</Time>
            <Position>
              <LatitudeDegrees>36.83685419149696826934814453125</LatitudeDegrees>
              <LongitudeDegrees>-4.38117946498095989227294921875</LongitudeDegrees>
            </Position>
            <AltitudeMeters>635.5999755859375</AltitudeMeters>
            <DistanceMeters>NAN</DistanceMeters>
          </Trackpoint>
          <Trackpoint>
            <Time>2020-12-05T12:28:30.000Z</Time>
            <Position>
              <LatitudeDegrees>36.83686542324721813201904296875</LatitudeDegrees>
              <LongitudeDegrees>-4.38117527402937412261962890625</LongitudeDegrees>
            </Position>
            <AltitudeMeters>635.5999755859375</AltitudeMeters>
            <DistanceMeters>NAN</DistanceMeters>
          </Trackpoint>
          <Trackpoint>
            <Time>2020-12-05T12:28:31.000Z</Time>
            <Position>
              <LatitudeDegrees>36.83687916956841945648193359375</LatitudeDegrees>
              <LongitudeDegrees>-4.381169490516185760498046875</LongitudeDegrees>
            </Position>
            <AltitudeMeters>635.5999755859375</AltitudeMeters>
            <DistanceMeters>NAN</DistanceMeters>
          </Trackpoint>
          <Trackpoint>
            <Time>2020-12-05T12:28:32.000Z</Time>
            <Position>
              <LatitudeDegrees>36.836892664432525634765625</LatitudeDegrees>
              <LongitudeDegrees>-4.381168149411678314208984375</LongitudeDegrees>
            </Position>
            <AltitudeMeters>635.5999755859375</AltitudeMeters>
            <DistanceMeters>NAN</DistanceMeters>
          </Trackpoint>
          <Trackpoint>
            <Time>2020-12-05T12:28:33.000Z</Time>
            <Position>
              <LatitudeDegrees>36.8369074165821075439453125</LatitudeDegrees>
              <LongitudeDegrees>-4.3811679817736148834228515625</LongitudeDegrees>
            </Position>
            <AltitudeMeters>635.5999755859375</AltitudeMeters>
            <DistanceMeters>NAN</DistanceMeters>
          </Trackpoint>
          <Trackpoint>
            <Time>2020-12-05T12:28:34.000Z</Time>
            <Position>
              <LatitudeDegrees>36.8369206599891185760498046875</LatitudeDegrees>
              <LongitudeDegrees>-4.3811683170497417449951171875</LongitudeDegrees>
            </Position>
            <AltitudeMeters>635.5999755859375</AltitudeMeters>
            <DistanceMeters>NAN</DistanceMeters>
          </Trackpoint>
          <Trackpoint>
            <Time>2020-12-05T12:28:35.000Z</Time>
            <Position>
              <LatitudeDegrees>36.83693231083452701568603515625</LatitudeDegrees>
              <LongitudeDegrees>-4.38117225654423236846923828125</LongitudeDegrees>
            </Position>
            <AltitudeMeters>635.5999755859375</AltitudeMeters>
            <DistanceMeters>NAN</DistanceMeters>
          </Trackpoint>
          <Trackpoint>
            <Time>2020-12-05T12:28:36.000Z</Time>
            <Position>
              <LatitudeDegrees>36.836941279470920562744140625</LatitudeDegrees>
              <LongitudeDegrees>-4.38117921352386474609375</LongitudeDegrees>
            </Position>
            <AltitudeMeters>635.5999755859375</AltitudeMeters>
            <DistanceMeters>NAN</DistanceMeters>
          </Trackpoint>
          <Trackpoint>
            <Time>2020-12-05T12:28:37.000Z</Time>
            <Position>
              <LatitudeDegrees>36.83694672770798206329345703125</LatitudeDegrees>
              <LongitudeDegrees>-4.38118667341768741607666015625</LongitudeDegrees>
            </Position>
            <AltitudeMeters>635.5999755859375</AltitudeMeters>
            <DistanceMeters>NAN</DistanceMeters>
          </Trackpoint>
          <Trackpoint>
            <Time>2020-12-05T12:28:38.000Z</Time>
            <Position>
              <LatitudeDegrees>36.8369503319263458251953125</LatitudeDegrees>
              <LongitudeDegrees>-4.38119354657828807830810546875</LongitudeDegrees>
            </Position>
            <AltitudeMeters>635.5999755859375</AltitudeMeters>
            <DistanceMeters>NAN</DistanceMeters>
          </Trackpoint>
          <Trackpoint>
            <Time>2020-12-05T12:28:39.000Z</Time>
            <Position>
              <LatitudeDegrees>36.83694756589829921722412109375</LatitudeDegrees>
              <LongitudeDegrees>-4.38120695762336254119873046875</LongitudeDegrees>
            </Position>
            <AltitudeMeters>635.5999755859375</AltitudeMeters>
            <DistanceMeters>NAN</DistanceMeters>
          </Trackpoint>
          <Trackpoint>
            <Time>2020-12-05T12:28:40.000Z</Time>
            <Position>
              <LatitudeDegrees>36.83694153092801570892333984375</LatitudeDegrees>
              <LongitudeDegrees>-4.38122103922069072723388671875</LongitudeDegrees>
            </Position>
            <AltitudeMeters>635.5999755859375</AltitudeMeters>
            <DistanceMeters>NAN</DistanceMeters>
          </Trackpoint>
          <Trackpoint>
            <Time>2020-12-05T12:28:41.000Z</Time>
            <Position>
              <LatitudeDegrees>36.8369344063103199005126953125</LatitudeDegrees>
              <LongitudeDegrees>-4.38123595900833606719970703125</LongitudeDegrees>
            </Position>
            <AltitudeMeters>635.5999755859375</AltitudeMeters>
            <DistanceMeters>NAN</DistanceMeters>
          </Trackpoint>
          <Trackpoint>
            <Time>2020-12-05T12:28:42.000Z</Time>
            <Position>
              <LatitudeDegrees>36.83692795224487781524658203125</LatitudeDegrees>
              <LongitudeDegrees>-4.38124869950115680694580078125</LongitudeDegrees>
            </Position>
            <AltitudeMeters>635.5999755859375</AltitudeMeters>
            <DistanceMeters>NAN</DistanceMeters>
          </Trackpoint>
          <Trackpoint>
            <Time>2020-12-05T12:28:43.000Z</Time>
            <Position>
              <LatitudeDegrees>36.836919821798801422119140625</LatitudeDegrees>
              <LongitudeDegrees>-4.38126169145107269287109375</LongitudeDegrees>
            </Position>
            <AltitudeMeters>635.5999755859375</AltitudeMeters>
            <DistanceMeters>NAN</DistanceMeters>
          </Trackpoint>
          <Trackpoint>
            <Time>2020-12-05T12:28:44.000Z</Time>
            <Position>
              <LatitudeDegrees>36.83691085316240787506103515625</LatitudeDegrees>
              <LongitudeDegrees>-4.3812725879251956939697265625</LongitudeDegrees>
            </Position>
            <AltitudeMeters>635.5999755859375</AltitudeMeters>
            <DistanceMeters>NAN</DistanceMeters>
          </Trackpoint>
          <Trackpoint>
            <Time>2020-12-05T12:28:45.000Z</Time>
            <Position>
              <LatitudeDegrees>36.83689945377409458160400390625</LatitudeDegrees>
              <LongitudeDegrees>-4.38128390349447727203369140625</LongitudeDegrees>
            </Position>
            <AltitudeMeters>635.5999755859375</AltitudeMeters>
            <DistanceMeters>NAN</DistanceMeters>
          </Trackpoint>
          <Trackpoint>
            <Time>2020-12-05T12:28:46.000Z</Time>
            <Position>
              <LatitudeDegrees>36.8368864618241786956787109375</LatitudeDegrees>
              <LongitudeDegrees>-4.38128993846476078033447265625</LongitudeDegrees>
            </Position>
            <AltitudeMeters>635.5999755859375</AltitudeMeters>
            <DistanceMeters>NAN</DistanceMeters>
          </Trackpoint>
          <Trackpoint>
            <Time>2020-12-05T12:28:47.000Z</Time>
            <Position>
              <LatitudeDegrees>36.8368700332939624786376953125</LatitudeDegrees>
              <LongitudeDegrees>-4.38129027374088764190673828125</LongitudeDegrees>
            </Position>
            <AltitudeMeters>635.5999755859375</AltitudeMeters>
            <DistanceMeters>NAN</DistanceMeters>
          </Trackpoint>
          <Trackpoint>
            <Time>2020-12-05T12:28:48.000Z</Time>
            <Position>
              <LatitudeDegrees>36.83685779571533203125</LatitudeDegrees>
              <LongitudeDegrees>-4.38129396177828311920166015625</LongitudeDegrees>
            </Position>
            <AltitudeMeters>635.5999755859375</AltitudeMeters>
            <DistanceMeters>NAN</DistanceMeters>
          </Trackpoint>
          <Trackpoint>
            <Time>2020-12-05T12:28:49.000Z</Time>
            <Position>
              <LatitudeDegrees>36.8368472345173358917236328125</LatitudeDegrees>
              <LongitudeDegrees>-4.38129614107310771942138671875</LongitudeDegrees>
            </Position>
            <AltitudeMeters>635.5999755859375</AltitudeMeters>
            <DistanceMeters>NAN</DistanceMeters>
          </Trackpoint>
          <Trackpoint>
            <Time>2020-12-05T12:28:50.000Z</Time>
            <Position>
              <LatitudeDegrees>36.8368378467857837677001953125</LatitudeDegrees>
              <LongitudeDegrees>-4.38130326569080352783203125</LongitudeDegrees>
            </Position>
            <AltitudeMeters>635.5999755859375</AltitudeMeters>
            <DistanceMeters>NAN</DistanceMeters>
          </Trackpoint>
          <Trackpoint>
            <Time>2020-12-05T12:28:51.000Z</Time>
            <Position>
              <LatitudeDegrees>36.83682820759713649749755859375</LatitudeDegrees>
              <LongitudeDegrees>-4.38131055794656276702880859375</LongitudeDegrees>
            </Position>
            <AltitudeMeters>635.5999755859375</AltitudeMeters>
            <DistanceMeters>NAN</DistanceMeters>
          </Trackpoint>
          <Trackpoint>
            <Time>2020-12-05T12:28:52.000Z</Time>
            <Position>
              <LatitudeDegrees>36.83681731112301349639892578125</LatitudeDegrees>
              <LongitudeDegrees>-4.38131709583103656768798828125</LongitudeDegrees>
            </Position>
            <AltitudeMeters>635.5999755859375</AltitudeMeters>
            <DistanceMeters>NAN</DistanceMeters>
          </Trackpoint>
          <Trackpoint>
            <Time>2020-12-05T12:28:53.000Z</Time>
            <Position>
              <LatitudeDegrees>36.8368076719343662261962890625</LatitudeDegrees>
              <LongitudeDegrees>-4.38132145442068576812744140625</LongitudeDegrees>
            </Position>
            <AltitudeMeters>635.5999755859375</AltitudeMeters>
            <DistanceMeters>NAN</DistanceMeters>
          </Trackpoint>
          <Trackpoint>
            <Time>2020-12-05T12:28:54.000Z</Time>
            <Position>
              <LatitudeDegrees>36.83679887093603610992431640625</LatitudeDegrees>
              <LongitudeDegrees>-4.38132472336292266845703125</LongitudeDegrees>
            </Position>
            <AltitudeMeters>635.5999755859375</AltitudeMeters>
            <DistanceMeters>NAN</DistanceMeters>
          </Trackpoint>
          <Trackpoint>
            <Time>2020-12-05T12:28:55.000Z</Time>
            <Position>
              <LatitudeDegrees>36.836791075766086578369140625</LatitudeDegrees>
              <LongitudeDegrees>-4.38132614828646183013916015625</LongitudeDegrees>
            </Position>
            <AltitudeMeters>635.5999755859375</AltitudeMeters>
            <DistanceMeters>NAN</DistanceMeters>
          </Trackpoint>
          <Trackpoint>
            <Time>2020-12-05T12:28:56.000Z</Time>
            <Position>
              <LatitudeDegrees>36.83678043074905872344970703125</LatitudeDegrees>
              <LongitudeDegrees>-4.38133285380899906158447265625</LongitudeDegrees>
            </Position>
            <AltitudeMeters>635.5999755859375</AltitudeMeters>
            <DistanceMeters>NAN</DistanceMeters>
          </Trackpoint>
          <Trackpoint>
            <Time>2020-12-05T12:28:57.000Z</Time>
            <Position>
              <LatitudeDegrees>36.8367711268365383148193359375</LatitudeDegrees>
              <LongitudeDegrees>-4.3813396431505680084228515625</LongitudeDegrees>
            </Position>
            <AltitudeMeters>635.5999755859375</AltitudeMeters>
            <DistanceMeters>NAN</DistanceMeters>
          </Trackpoint>
          <Trackpoint>
            <Time>2020-12-05T12:28:58.000Z</Time>
            <Position>
              <LatitudeDegrees>36.836761571466922760009765625</LatitudeDegrees>
              <LongitudeDegrees>-4.3813443370163440704345703125</LongitudeDegrees>
            </Position>
            <AltitudeMeters>635.5999755859375</AltitudeMeters>
            <DistanceMeters>NAN</DistanceMeters>
          </Trackpoint>
          <Trackpoint>
            <Time>2020-12-05T12:28:59.000Z</Time>
            <Position>
              <LatitudeDegrees>36.836753189563751220703125</LatitudeDegrees>
              <LongitudeDegrees>-4.3813493661582469940185546875</LongitudeDegrees>
            </Position>
            <AltitudeMeters>635.5999755859375</AltitudeMeters>
            <DistanceMeters>NAN</DistanceMeters>
          </Trackpoint>
          <Trackpoint>
            <Time>2020-12-05T12:29:00.000Z</Time>
            <Position>
              <LatitudeDegrees>36.8367411196231842041015625</LatitudeDegrees>
              <LongitudeDegrees>-4.38135699369013309478759765625</LongitudeDegrees>
            </Position>
            <AltitudeMeters>634</AltitudeMeters>
            <DistanceMeters>NAN</DistanceMeters>
          </Trackpoint>
          <Trackpoint>
            <Time>2020-12-05T12:29:01.000Z</Time>
            <Position>
              <LatitudeDegrees>36.8367282114923000335693359375</LatitudeDegrees>
              <LongitudeDegrees>-4.3813657946884632110595703125</LongitudeDegrees>
            </Position>
            <AltitudeMeters>634</AltitudeMeters>
            <DistanceMeters>NAN</DistanceMeters>
          </Trackpoint>
          <Trackpoint>
            <Time>2020-12-05T12:29:02.000Z</Time>
            <Position>
              <LatitudeDegrees>36.836713962256908416748046875</LatitudeDegrees>
              <LongitudeDegrees>-4.38137509860098361968994140625</LongitudeDegrees>
            </Position>
            <AltitudeMeters>634</AltitudeMeters>
            <DistanceMeters>NAN</DistanceMeters>
          </Trackpoint>
          <Trackpoint>
            <Time>2020-12-05T12:29:03.000Z</Time>
            <Position>
              <LatitudeDegrees>36.83670314960181713104248046875</LatitudeDegrees>
              <LongitudeDegrees>-4.3813835643231868743896484375</LongitudeDegrees>
            </Position>
            <AltitudeMeters>634</AltitudeMeters>
            <DistanceMeters>NAN</DistanceMeters>
          </Trackpoint>
          <Trackpoint>
            <Time>2020-12-05T12:29:04.000Z</Time>
            <Position>
              <LatitudeDegrees>36.8366928398609161376953125</LatitudeDegrees>
              <LongitudeDegrees>-4.3813932873308658599853515625</LongitudeDegrees>
            </Position>
            <AltitudeMeters>634</AltitudeMeters>
            <DistanceMeters>NAN</DistanceMeters>
          </Trackpoint>
          <Trackpoint>
            <Time>2020-12-05T12:29:05.000Z</Time>
            <Position>
              <LatitudeDegrees>36.83668236248195171356201171875</LatitudeDegrees>
              <LongitudeDegrees>-4.381402172148227691650390625</LongitudeDegrees>
            </Position>
            <AltitudeMeters>634</AltitudeMeters>
            <DistanceMeters>NAN</DistanceMeters>
          </Trackpoint>
          <Trackpoint>
            <Time>2020-12-05T12:29:06.000Z</Time>
            <Position>
              <LatitudeDegrees>36.83667766861617565155029296875</LatitudeDegrees>
              <LongitudeDegrees>-4.38140661455690860748291015625</LongitudeDegrees>
            </Position>
            <AltitudeMeters>634</AltitudeMeters>
            <DistanceMeters>NAN</DistanceMeters>
          </Trackpoint>
          <Trackpoint>
            <Time>2020-12-05T12:29:07.000Z</Time>
            <Position>
              <LatitudeDegrees>36.83667129836976528167724609375</LatitudeDegrees>
              <LongitudeDegrees>-4.3814093805849552154541015625</LongitudeDegrees>
            </Position>
            <AltitudeMeters>634</AltitudeMeters>
            <DistanceMeters>NAN</DistanceMeters>
          </Trackpoint>
          <Trackpoint>
            <Time>2020-12-05T12:29:08.000Z</Time>
            <Position>
              <LatitudeDegrees>36.8366638384759426116943359375</LatitudeDegrees>
              <LongitudeDegrees>-4.38141516409814357757568359375</LongitudeDegrees>
            </Position>
            <AltitudeMeters>634</AltitudeMeters>
            <DistanceMeters>NAN</DistanceMeters>
          </Trackpoint>
          <Trackpoint>
            <Time>2020-12-05T12:29:09.000Z</Time>
            <Position>
              <LatitudeDegrees>36.836653612554073333740234375</LatitudeDegrees>
              <LongitudeDegrees>-4.38142119906842708587646484375</LongitudeDegrees>
            </Position>
            <AltitudeMeters>634</AltitudeMeters>
            <DistanceMeters>NAN</DistanceMeters>
          </Trackpoint>
          <Trackpoint>
            <Time>2020-12-05T12:29:10.000Z</Time>
            <Position>
              <LatitudeDegrees>36.83664648793637752532958984375</LatitudeDegrees>
              <LongitudeDegrees>-4.38142907805740833282470703125</LongitudeDegrees>
            </Position>
            <AltitudeMeters>634</AltitudeMeters>
            <DistanceMeters>NAN</DistanceMeters>
          </Trackpoint>
          <Trackpoint>
            <Time>2020-12-05T12:29:11.000Z</Time>
            <Position>
              <LatitudeDegrees>36.8366396985948085784912109375</LatitudeDegrees>
              <LongitudeDegrees>-4.3814382143318653106689453125</LongitudeDegrees>
            </Position>
            <AltitudeMeters>634</AltitudeMeters>
            <DistanceMeters>NAN</DistanceMeters>
          </Trackpoint>
          <Trackpoint>
            <Time>2020-12-05T12:29:12.000Z</Time>
            <Position>
              <LatitudeDegrees>36.83663047850131988525390625</LatitudeDegrees>
              <LongitudeDegrees>-4.38144743442535400390625</LongitudeDegrees>
            </Position>
            <AltitudeMeters>634</AltitudeMeters>
            <DistanceMeters>NAN</DistanceMeters>
          </Trackpoint>
          <Trackpoint>
            <Time>2020-12-05T12:29:13.000Z</Time>
            <Position>
              <LatitudeDegrees>36.836619079113006591796875</LatitudeDegrees>
              <LongitudeDegrees>-4.38145724125206470489501953125</LongitudeDegrees>
            </Position>
            <AltitudeMeters>634</AltitudeMeters>
            <DistanceMeters>NAN</DistanceMeters>
          </Trackpoint>
          <Trackpoint>
            <Time>2020-12-05T12:29:14.000Z</Time>
            <Position>
              <LatitudeDegrees>36.8366088531911373138427734375</LatitudeDegrees>
              <LongitudeDegrees>-4.381465204060077667236328125</LongitudeDegrees>
            </Position>
            <AltitudeMeters>634</AltitudeMeters>
            <DistanceMeters>NAN</DistanceMeters>
          </Trackpoint>
          <Trackpoint>
            <Time>2020-12-05T12:29:15.000Z</Time>
            <Position>
              <LatitudeDegrees>36.83659770525991916656494140625</LatitudeDegrees>
              <LongitudeDegrees>-4.38147467561066150665283203125</LongitudeDegrees>
            </Position>
            <AltitudeMeters>634</AltitudeMeters>
            <DistanceMeters>NAN</DistanceMeters>
          </Trackpoint>
          <Trackpoint>
            <Time>2020-12-05T12:29:16.000Z</Time>
            <Position>
              <LatitudeDegrees>36.8365863896906375885009765625</LatitudeDegrees>
              <LongitudeDegrees>-4.381487667560577392578125</LongitudeDegrees>
            </Position>
            <AltitudeMeters>634</AltitudeMeters>
            <DistanceMeters>NAN</DistanceMeters>
          </Trackpoint>
          <Trackpoint>
            <Time>2020-12-05T12:29:17.000Z</Time>
            <Position>
              <LatitudeDegrees>36.83657817542552947998046875</LatitudeDegrees>
              <LongitudeDegrees>-4.3814988993108272552490234375</LongitudeDegrees>
            </Position>
            <AltitudeMeters>634</AltitudeMeters>
            <DistanceMeters>NAN</DistanceMeters>
          </Trackpoint>
          <Trackpoint>
            <Time>2020-12-05T12:29:18.000Z</Time>
            <Position>
              <LatitudeDegrees>36.83657348155975341796875</LatitudeDegrees>
              <LongitudeDegrees>-4.3815069459378719329833984375</LongitudeDegrees>
            </Position>
            <AltitudeMeters>634</AltitudeMeters>
            <DistanceMeters>NAN</DistanceMeters>
          </Trackpoint>
          <Trackpoint>
            <Time>2020-12-05T12:29:19.000Z</Time>
            <Position>
              <LatitudeDegrees>36.8365686200559139251708984375</LatitudeDegrees>
              <LongitudeDegrees>-4.38151205889880657196044921875</LongitudeDegrees>
            </Position>
            <AltitudeMeters>634</AltitudeMeters>
            <DistanceMeters>NAN</DistanceMeters>
          </Trackpoint>
          <Trackpoint>
            <Time>2020-12-05T12:29:20.000Z</Time>
            <Position>
              <LatitudeDegrees>36.83656468056142330169677734375</LatitudeDegrees>
              <LongitudeDegrees>-4.3815227039158344268798828125</LongitudeDegrees>
            </Position>
            <AltitudeMeters>634</AltitudeMeters>
            <DistanceMeters>NAN</DistanceMeters>
          </Trackpoint>
          <Trackpoint>
            <Time>2020-12-05T12:29:21.000Z</Time>
            <Position>
              <LatitudeDegrees>36.83655763976275920867919921875</LatitudeDegrees>
              <LongitudeDegrees>-4.38152831979095935821533203125</LongitudeDegrees>
            </Position>
            <AltitudeMeters>634</AltitudeMeters>
            <DistanceMeters>NAN</DistanceMeters>
          </Trackpoint>
          <Trackpoint>
            <Time>2020-12-05T12:29:22.000Z</Time>
            <Position>
              <LatitudeDegrees>36.83654892258346080780029296875</LatitudeDegrees>
              <LongitudeDegrees>-4.38153502531349658966064453125</LongitudeDegrees>
            </Position>
            <AltitudeMeters>634</AltitudeMeters>
            <DistanceMeters>NAN</DistanceMeters>
          </Trackpoint>
          <Trackpoint>
            <Time>2020-12-05T12:29:23.000Z</Time>
            <Position>
              <LatitudeDegrees>36.83654221706092357635498046875</LatitudeDegrees>
              <LongitudeDegrees>-4.38154600560665130615234375</LongitudeDegrees>
            </Position>
            <AltitudeMeters>634</AltitudeMeters>
            <DistanceMeters>NAN</DistanceMeters>
          </Trackpoint>
          <Trackpoint>
            <Time>2020-12-05T12:29:24.000Z</Time>
            <Position>
              <LatitudeDegrees>36.836533248424530029296875</LatitudeDegrees>
              <LongitudeDegrees>-4.38155698589980602264404296875</LongitudeDegrees>
            </Position>
            <AltitudeMeters>634</AltitudeMeters>
            <DistanceMeters>NAN</DistanceMeters>
          </Trackpoint>
          <Trackpoint>
            <Time>2020-12-05T12:29:25.000Z</Time>
            <Position>
              <LatitudeDegrees>36.8365238606929779052734375</LatitudeDegrees>
              <LongitudeDegrees>-4.38156989403069019317626953125</LongitudeDegrees>
            </Position>
            <AltitudeMeters>634</AltitudeMeters>
            <DistanceMeters>NAN</DistanceMeters>
          </Trackpoint>
          <Trackpoint>
            <Time>2020-12-05T12:29:26.000Z</Time>
            <Position>
              <LatitudeDegrees>36.83651589788496494293212890625</LatitudeDegrees>
              <LongitudeDegrees>-4.38157911412417888641357421875</LongitudeDegrees>
            </Position>
            <AltitudeMeters>634</AltitudeMeters>
            <DistanceMeters>NAN</DistanceMeters>
          </Trackpoint>
          <Trackpoint>
            <Time>2020-12-05T12:29:27.000Z</Time>
            <Position>
              <LatitudeDegrees>36.8365079350769519805908203125</LatitudeDegrees>
              <LongitudeDegrees>-4.3815917707979679107666015625</LongitudeDegrees>
            </Position>
            <AltitudeMeters>634</AltitudeMeters>
            <DistanceMeters>NAN</DistanceMeters>
          </Trackpoint>
          <Trackpoint>
            <Time>2020-12-05T12:29:28.000Z</Time>
            <Position>
              <LatitudeDegrees>36.83650064282119274139404296875</LatitudeDegrees>
              <LongitudeDegrees>-4.3816024996340274810791015625</LongitudeDegrees>
            </Position>
            <AltitudeMeters>634</AltitudeMeters>
            <DistanceMeters>NAN</DistanceMeters>
          </Trackpoint>
          <Trackpoint>
            <Time>2020-12-05T12:29:29.000Z</Time>
            <Position>
              <LatitudeDegrees>36.83649427257478237152099609375</LatitudeDegrees>
              <LongitudeDegrees>-4.3816071934998035430908203125</LongitudeDegrees>
            </Position>
            <AltitudeMeters>634</AltitudeMeters>
            <DistanceMeters>NAN</DistanceMeters>
          </Trackpoint>
          <Trackpoint>
            <Time>2020-12-05T12:29:30.000Z</Time>
            <Position>
              <LatitudeDegrees>36.83648874051868915557861328125</LatitudeDegrees>
              <LongitudeDegrees>-4.381616078317165374755859375</LongitudeDegrees>
            </Position>
            <AltitudeMeters>634</AltitudeMeters>
            <DistanceMeters>NAN</DistanceMeters>
          </Trackpoint>
          <Trackpoint>
            <Time>2020-12-05T12:29:31.000Z</Time>
            <Position>
              <LatitudeDegrees>36.836481951177120208740234375</LatitudeDegrees>
              <LongitudeDegrees>-4.3816222809255123138427734375</LongitudeDegrees>
            </Position>
            <AltitudeMeters>634</AltitudeMeters>
            <DistanceMeters>NAN</DistanceMeters>
          </Trackpoint>
          <Trackpoint>
            <Time>2020-12-05T12:29:32.000Z</Time>
            <Position>
              <LatitudeDegrees>36.83647633530199527740478515625</LatitudeDegrees>
              <LongitudeDegrees>-4.381625466048717498779296875</LongitudeDegrees>
            </Position>
            <AltitudeMeters>634</AltitudeMeters>
            <DistanceMeters>NAN</DistanceMeters>
          </Trackpoint>
          <Trackpoint>
            <Time>2020-12-05T12:29:33.000Z</Time>
            <Position>
              <LatitudeDegrees>36.8364656902849674224853515625</LatitudeDegrees>
              <LongitudeDegrees>-4.3816284835338592529296875</LongitudeDegrees>
            </Position>
            <AltitudeMeters>634</AltitudeMeters>
            <DistanceMeters>NAN</DistanceMeters>
          </Trackpoint>
          <Trackpoint>
            <Time>2020-12-05T12:29:34.000Z</Time>
            <Position>
              <LatitudeDegrees>36.83645538054406642913818359375</LatitudeDegrees>
              <LongitudeDegrees>-4.381634853780269622802734375</LongitudeDegrees>
            </Position>
            <AltitudeMeters>634</AltitudeMeters>
            <DistanceMeters>NAN</DistanceMeters>
          </Trackpoint>
          <Trackpoint>
            <Time>2020-12-05T12:29:35.000Z</Time>
            <Position>
              <LatitudeDegrees>36.83644465170800685882568359375</LatitudeDegrees>
              <LongitudeDegrees>-4.3816444091498851776123046875</LongitudeDegrees>
            </Position>
            <AltitudeMeters>634</AltitudeMeters>
            <DistanceMeters>NAN</DistanceMeters>
          </Trackpoint>
          <Trackpoint>
            <Time>2020-12-05T12:29:36.000Z</Time>
            <Position>
              <LatitudeDegrees>36.83643392287194728851318359375</LatitudeDegrees>
              <LongitudeDegrees>-4.3816551379859447479248046875</LongitudeDegrees>
            </Position>
            <AltitudeMeters>634</AltitudeMeters>
            <DistanceMeters>NAN</DistanceMeters>
          </Trackpoint>
          <Trackpoint>
            <Time>2020-12-05T12:29:37.000Z</Time>
            <Position>
              <LatitudeDegrees>36.83642503805458545684814453125</LatitudeDegrees>
              <LongitudeDegrees>-4.3816645257174968719482421875</LongitudeDegrees>
            </Position>
            <AltitudeMeters>634</AltitudeMeters>
            <DistanceMeters>NAN</DistanceMeters>
          </Trackpoint>
          <Trackpoint>
            <Time>2020-12-05T12:29:38.000Z</Time>
            <Position>
              <LatitudeDegrees>36.83641866780817508697509765625</LatitudeDegrees>
              <LongitudeDegrees>-4.38167475163936614990234375</LongitudeDegrees>
            </Position>
            <AltitudeMeters>634</AltitudeMeters>
            <DistanceMeters>NAN</DistanceMeters>
          </Trackpoint>
          <Trackpoint>
            <Time>2020-12-05T12:29:39.000Z</Time>
            <Position>
              <LatitudeDegrees>36.83641045354306697845458984375</LatitudeDegrees>
              <LongitudeDegrees>-4.38168657012283802032470703125</LongitudeDegrees>
            </Position>
            <AltitudeMeters>634</AltitudeMeters>
            <DistanceMeters>NAN</DistanceMeters>
          </Trackpoint>
          <Trackpoint>
            <Time>2020-12-05T12:29:40.000Z</Time>
            <Position>
              <LatitudeDegrees>36.83640341274440288543701171875</LatitudeDegrees>
              <LongitudeDegrees>-4.38169847242534160614013671875</LongitudeDegrees>
            </Position>
            <AltitudeMeters>634</AltitudeMeters>
            <DistanceMeters>NAN</DistanceMeters>
          </Trackpoint>
          <Trackpoint>
            <Time>2020-12-05T12:29:41.000Z</Time>
            <Position>
              <LatitudeDegrees>36.8363969586789608001708984375</LatitudeDegrees>
              <LongitudeDegrees>-4.381711296737194061279296875</LongitudeDegrees>
            </Position>
            <AltitudeMeters>634</AltitudeMeters>
            <DistanceMeters>NAN</DistanceMeters>
          </Trackpoint>
          <Trackpoint>
            <Time>2020-12-05T12:29:42.000Z</Time>
            <Position>
              <LatitudeDegrees>36.836388409137725830078125</LatitudeDegrees>
              <LongitudeDegrees>-4.38172613270580768585205078125</LongitudeDegrees>
            </Position>
            <AltitudeMeters>634</AltitudeMeters>
            <DistanceMeters>NAN</DistanceMeters>
          </Trackpoint>
          <Trackpoint>
            <Time>2020-12-05T12:29:43.000Z</Time>
            <Position>
              <LatitudeDegrees>36.83638044632971286773681640625</LatitudeDegrees>
              <LongitudeDegrees>-4.38174222595989704132080078125</LongitudeDegrees>
            </Position>
            <AltitudeMeters>634</AltitudeMeters>
            <DistanceMeters>NAN</DistanceMeters>
          </Trackpoint>
          <Trackpoint>
            <Time>2020-12-05T12:29:44.000Z</Time>
            <Position>
              <LatitudeDegrees>36.83637172915041446685791015625</LatitudeDegrees>
              <LongitudeDegrees>-4.38175714574754238128662109375</LongitudeDegrees>
            </Position>
            <AltitudeMeters>634</AltitudeMeters>
            <DistanceMeters>NAN</DistanceMeters>
          </Trackpoint>
          <Trackpoint>
            <Time>2020-12-05T12:29:45.000Z</Time>
            <Position>
              <LatitudeDegrees>36.8363630957901477813720703125</LatitudeDegrees>
              <LongitudeDegrees>-4.3817687965929508209228515625</LongitudeDegrees>
            </Position>
            <AltitudeMeters>634</AltitudeMeters>
            <DistanceMeters>NAN</DistanceMeters>
          </Trackpoint>
          <Trackpoint>
            <Time>2020-12-05T12:29:46.000Z</Time>
            <Position>
              <LatitudeDegrees>36.83635379187762737274169921875</LatitudeDegrees>
              <LongitudeDegrees>-4.381780363619327545166015625</LongitudeDegrees>
            </Position>
            <AltitudeMeters>634</AltitudeMeters>
            <DistanceMeters>NAN</DistanceMeters>
          </Trackpoint>
          <Trackpoint>
            <Time>2020-12-05T12:29:47.000Z</Time>
            <Position>
              <LatitudeDegrees>36.8363466672599315643310546875</LatitudeDegrees>
              <LongitudeDegrees>-4.3817929364740848541259765625</LongitudeDegrees>
            </Position>
            <AltitudeMeters>634</AltitudeMeters>
            <DistanceMeters>NAN</DistanceMeters>
          </Trackpoint>
          <Trackpoint>
            <Time>2020-12-05T12:29:48.000Z</Time>
            <Position>
              <LatitudeDegrees>36.836341805756092071533203125</LatitudeDegrees>
              <LongitudeDegrees>-4.3818036653101444244384765625</LongitudeDegrees>
            </Position>
            <AltitudeMeters>634</AltitudeMeters>
            <DistanceMeters>NAN</DistanceMeters>
          </Trackpoint>
          <Trackpoint>
            <Time>2020-12-05T12:29:49.000Z</Time>
            <Position>
              <LatitudeDegrees>36.836334764957427978515625</LatitudeDegrees>
              <LongitudeDegrees>-4.381815232336521148681640625</LongitudeDegrees>
            </Position>
            <AltitudeMeters>634</AltitudeMeters>
            <DistanceMeters>NAN</DistanceMeters>
          </Trackpoint>
          <Trackpoint>
            <Time>2020-12-05T12:29:50.000Z</Time>
            <Position>
              <LatitudeDegrees>36.836329400539398193359375</LatitudeDegrees>
              <LongitudeDegrees>-4.38182671554386615753173828125</LongitudeDegrees>
            </Position>
            <AltitudeMeters>634</AltitudeMeters>
            <DistanceMeters>NAN</DistanceMeters>
          </Trackpoint>
          <Trackpoint>
            <Time>2020-12-05T12:29:51.000Z</Time>
            <Position>
              <LatitudeDegrees>36.8363265506923198699951171875</LatitudeDegrees>
              <LongitudeDegrees>-4.38184029422700405120849609375</LongitudeDegrees>
            </Position>
            <AltitudeMeters>634</AltitudeMeters>
            <DistanceMeters>NAN</DistanceMeters>
          </Trackpoint>
          <Trackpoint>
            <Time>2020-12-05T12:29:52.000Z</Time>
            <Position>
              <LatitudeDegrees>36.83632194064557552337646484375</LatitudeDegrees>
              <LongitudeDegrees>-4.3818536214530467987060546875</LongitudeDegrees>
            </Position>
            <AltitudeMeters>634</AltitudeMeters>
            <DistanceMeters>NAN</DistanceMeters>
          </Trackpoint>
          <Trackpoint>
            <Time>2020-12-05T12:29:53.000Z</Time>
            <Position>
              <LatitudeDegrees>36.8363164924085140228271484375</LatitudeDegrees>
              <LongitudeDegrees>-4.38187063671648502349853515625</LongitudeDegrees>
            </Position>
            <AltitudeMeters>634</AltitudeMeters>
            <DistanceMeters>NAN</DistanceMeters>
          </Trackpoint>
          <Trackpoint>
            <Time>2020-12-05T12:29:54.000Z</Time>
            <Position>
              <LatitudeDegrees>36.8363134749233722686767578125</LatitudeDegrees>
              <LongitudeDegrees>-4.38188605941832065582275390625</LongitudeDegrees>
            </Position>
            <AltitudeMeters>634</AltitudeMeters>
            <DistanceMeters>NAN</DistanceMeters>
          </Trackpoint>
          <Trackpoint>
            <Time>2020-12-05T12:29:55.000Z</Time>
            <Position>
              <LatitudeDegrees>36.83631305582821369171142578125</LatitudeDegrees>
              <LongitudeDegrees>-4.3819020688533782958984375</LongitudeDegrees>
            </Position>
            <AltitudeMeters>634</AltitudeMeters>
            <DistanceMeters>NAN</DistanceMeters>
          </Trackpoint>
          <Trackpoint>
            <Time>2020-12-05T12:29:56.000Z</Time>
            <Position>
              <LatitudeDegrees>36.8363124690949916839599609375</LatitudeDegrees>
              <LongitudeDegrees>-4.38191690482199192047119140625</LongitudeDegrees>
            </Position>
            <AltitudeMeters>634</AltitudeMeters>
            <DistanceMeters>NAN</DistanceMeters>
          </Trackpoint>
          <Trackpoint>
            <Time>2020-12-05T12:29:57.000Z</Time>
            <Position>
              <LatitudeDegrees>36.8363087810575962066650390625</LatitudeDegrees>
              <LongitudeDegrees>-4.38192914240062236785888671875</LongitudeDegrees>
            </Position>
            <AltitudeMeters>634</AltitudeMeters>
            <DistanceMeters>NAN</DistanceMeters>
          </Trackpoint>
          <Trackpoint>
            <Time>2020-12-05T12:29:58.000Z</Time>
            <Position>
              <LatitudeDegrees>36.83630333282053470611572265625</LatitudeDegrees>
              <LongitudeDegrees>-4.38194096088409423828125</LongitudeDegrees>
            </Position>
            <AltitudeMeters>634</AltitudeMeters>
            <DistanceMeters>NAN</DistanceMeters>
          </Trackpoint>
          <Trackpoint>
            <Time>2020-12-05T12:29:59.000Z</Time>
            <Position>
              <LatitudeDegrees>36.836300902068614959716796875</LatitudeDegrees>
              <LongitudeDegrees>-4.3819548748433589935302734375</LongitudeDegrees>
            </Position>
            <AltitudeMeters>634</AltitudeMeters>
            <DistanceMeters>NAN</DistanceMeters>
          </Trackpoint>
          <Trackpoint>
            <Time>2020-12-05T12:30:00.000Z</Time>
            <Position>
              <LatitudeDegrees>36.8363007344305515289306640625</LatitudeDegrees>
              <LongitudeDegrees>-4.3819706328213214874267578125</LongitudeDegrees>
            </Position>
            <AltitudeMeters>634</AltitudeMeters>
            <DistanceMeters>NAN</DistanceMeters>
          </Trackpoint>
          <Trackpoint>
            <Time>2020-12-05T12:30:01.000Z</Time>
            <Position>
              <LatitudeDegrees>36.83630383573472499847412109375</LatitudeDegrees>
              <LongitudeDegrees>-4.3819850496947765350341796875</LongitudeDegrees>
            </Position>
            <AltitudeMeters>634</AltitudeMeters>
            <DistanceMeters>NAN</DistanceMeters>
          </Trackpoint>
          <Trackpoint>
            <Time>2020-12-05T12:30:02.000Z</Time>
            <Position>
              <LatitudeDegrees>36.836304925382137298583984375</LatitudeDegrees>
              <LongitudeDegrees>-4.3819998018443584442138671875</LongitudeDegrees>
            </Position>
            <AltitudeMeters>634</AltitudeMeters>
            <DistanceMeters>NAN</DistanceMeters>
          </Trackpoint>
          <Trackpoint>
            <Time>2020-12-05T12:30:03.000Z</Time>
            <Position>
              <LatitudeDegrees>36.836306937038898468017578125</LatitudeDegrees>
              <LongitudeDegrees>-4.38201530836522579193115234375</LongitudeDegrees>
            </Position>
            <AltitudeMeters>634</AltitudeMeters>
            <DistanceMeters>NAN</DistanceMeters>
          </Trackpoint>
          <Trackpoint>
            <Time>2020-12-05T12:30:04.000Z</Time>
            <Position>
              <LatitudeDegrees>36.83630769141018390655517578125</LatitudeDegrees>
              <LongitudeDegrees>-4.382029809057712554931640625</LongitudeDegrees>
            </Position>
            <AltitudeMeters>634</AltitudeMeters>
            <DistanceMeters>NAN</DistanceMeters>
          </Trackpoint>
          <Trackpoint>
            <Time>2020-12-05T12:30:05.000Z</Time>
            <Position>
              <LatitudeDegrees>36.83630953542888164520263671875</LatitudeDegrees>
              <LongitudeDegrees>-4.38204112462699413299560546875</LongitudeDegrees>
            </Position>
            <AltitudeMeters>634</AltitudeMeters>
            <DistanceMeters>NAN</DistanceMeters>
          </Trackpoint>
          <Trackpoint>
            <Time>2020-12-05T12:30:06.000Z</Time>
            <Position>
              <LatitudeDegrees>36.8363114632666110992431640625</LatitudeDegrees>
              <LongitudeDegrees>-4.382056295871734619140625</LongitudeDegrees>
            </Position>
            <AltitudeMeters>634</AltitudeMeters>
            <DistanceMeters>NAN</DistanceMeters>
          </Trackpoint>
          <Trackpoint>
            <Time>2020-12-05T12:30:07.000Z</Time>
            <Position>
              <LatitudeDegrees>36.83630995452404022216796875</LatitudeDegrees>
              <LongitudeDegrees>-4.3820728920400142669677734375</LongitudeDegrees>
            </Position>
            <AltitudeMeters>634</AltitudeMeters>
            <DistanceMeters>NAN</DistanceMeters>
          </Trackpoint>
          <Trackpoint>
            <Time>2020-12-05T12:30:08.000Z</Time>
            <Position>
              <LatitudeDegrees>36.83630685321986675262451171875</LatitudeDegrees>
              <LongitudeDegrees>-4.38208923675119876861572265625</LongitudeDegrees>
            </Position>
            <AltitudeMeters>634</AltitudeMeters>
            <DistanceMeters>NAN</DistanceMeters>
          </Trackpoint>
          <Trackpoint>
            <Time>2020-12-05T12:30:09.000Z</Time>
            <Position>
              <LatitudeDegrees>36.8363034166395664215087890625</LatitudeDegrees>
              <LongitudeDegrees>-4.38210382126271724700927734375</LongitudeDegrees>
            </Position>
            <AltitudeMeters>634</AltitudeMeters>
            <DistanceMeters>NAN</DistanceMeters>
          </Trackpoint>
          <Trackpoint>
            <Time>2020-12-05T12:30:10.000Z</Time>
            <Position>
              <LatitudeDegrees>36.83630065061151981353759765625</LatitudeDegrees>
              <LongitudeDegrees>-4.38211739994585514068603515625</LongitudeDegrees>
            </Position>
            <AltitudeMeters>634</AltitudeMeters>
            <DistanceMeters>NAN</DistanceMeters>
          </Trackpoint>
          <Trackpoint>
            <Time>2020-12-05T12:30:11.000Z</Time>
            <Position>
              <LatitudeDegrees>36.83629645965993404388427734375</LatitudeDegrees>
              <LongitudeDegrees>-4.3821319006383419036865234375</LongitudeDegrees>
            </Position>
            <AltitudeMeters>634</AltitudeMeters>
            <DistanceMeters>NAN</DistanceMeters>
          </Trackpoint>
          <Trackpoint>
            <Time>2020-12-05T12:30:12.000Z</Time>
            <Position>
              <LatitudeDegrees>36.8362950347363948822021484375</LatitudeDegrees>
              <LongitudeDegrees>-4.3821496702730655670166015625</LongitudeDegrees>
            </Position>
            <AltitudeMeters>634</AltitudeMeters>
            <DistanceMeters>NAN</DistanceMeters>
          </Trackpoint>
          <Trackpoint>
            <Time>2020-12-05T12:30:13.000Z</Time>
            <Position>
              <LatitudeDegrees>36.8362960405647754669189453125</LatitudeDegrees>
              <LongitudeDegrees>-4.38216819427907466888427734375</LongitudeDegrees>
            </Position>
            <AltitudeMeters>634</AltitudeMeters>
            <DistanceMeters>NAN</DistanceMeters>
          </Trackpoint>
          <Trackpoint>
            <Time>2020-12-05T12:30:14.000Z</Time>
            <Position>
              <LatitudeDegrees>36.8362963758409023284912109375</LatitudeDegrees>
              <LongitudeDegrees>-4.38218898139894008636474609375</LongitudeDegrees>
            </Position>
            <AltitudeMeters>634</AltitudeMeters>
            <DistanceMeters>NAN</DistanceMeters>
          </Trackpoint>
          <Trackpoint>
            <Time>2020-12-05T12:30:15.000Z</Time>
            <Position>
              <LatitudeDegrees>36.836297549307346343994140625</LatitudeDegrees>
              <LongitudeDegrees>-4.382208175957202911376953125</LongitudeDegrees>
            </Position>
            <AltitudeMeters>634</AltitudeMeters>
            <DistanceMeters>NAN</DistanceMeters>
          </Trackpoint>
          <Trackpoint>
            <Time>2020-12-05T12:30:16.000Z</Time>
            <Position>
              <LatitudeDegrees>36.836297214031219482421875</LatitudeDegrees>
              <LongitudeDegrees>-4.3822291307151317596435546875</LongitudeDegrees>
            </Position>
            <AltitudeMeters>634</AltitudeMeters>
            <DistanceMeters>NAN</DistanceMeters>
          </Trackpoint>
          <Trackpoint>
            <Time>2020-12-05T12:30:17.000Z</Time>
            <Position>
              <LatitudeDegrees>36.83629813604056835174560546875</LatitudeDegrees>
              <LongitudeDegrees>-4.3822467327117919921875</LongitudeDegrees>
            </Position>
            <AltitudeMeters>634</AltitudeMeters>
            <DistanceMeters>NAN</DistanceMeters>
          </Trackpoint>
          <Trackpoint>
            <Time>2020-12-05T12:30:18.000Z</Time>
            <Position>
              <LatitudeDegrees>36.8363020755350589752197265625</LatitudeDegrees>
              <LongitudeDegrees>-4.38226726837456226348876953125</LongitudeDegrees>
            </Position>
            <AltitudeMeters>634</AltitudeMeters>
            <DistanceMeters>NAN</DistanceMeters>
          </Trackpoint>
          <Trackpoint>
            <Time>2020-12-05T12:30:19.000Z</Time>
            <Position>
              <LatitudeDegrees>36.8363060988485813140869140625</LatitudeDegrees>
              <LongitudeDegrees>-4.38228872604668140411376953125</LongitudeDegrees>
            </Position>
            <AltitudeMeters>634</AltitudeMeters>
            <DistanceMeters>NAN</DistanceMeters>
          </Trackpoint>
          <Trackpoint>
            <Time>2020-12-05T12:30:20.000Z</Time>
            <Position>
              <LatitudeDegrees>36.836304925382137298583984375</LatitudeDegrees>
              <LongitudeDegrees>-4.38230783678591251373291015625</LongitudeDegrees>
            </Position>
            <AltitudeMeters>634</AltitudeMeters>
            <DistanceMeters>NAN</DistanceMeters>
          </Trackpoint>
          <Trackpoint>
            <Time>2020-12-05T12:30:21.000Z</Time>
            <Position>
              <LatitudeDegrees>36.836304254829883575439453125</LatitudeDegrees>
              <LongitudeDegrees>-4.382324852049350738525390625</LongitudeDegrees>
            </Position>
            <AltitudeMeters>634</AltitudeMeters>
            <DistanceMeters>NAN</DistanceMeters>
          </Trackpoint>
          <Trackpoint>
            <Time>2020-12-05T12:30:22.000Z</Time>
            <Position>
              <LatitudeDegrees>36.83630433864891529083251953125</LatitudeDegrees>
              <LongitudeDegrees>-4.3823404423892498016357421875</LongitudeDegrees>
            </Position>
            <AltitudeMeters>634</AltitudeMeters>
            <DistanceMeters>NAN</DistanceMeters>
          </Trackpoint>
          <Trackpoint>
            <Time>2020-12-05T12:30:23.000Z</Time>
            <Position>
              <LatitudeDegrees>36.8363014049828052520751953125</LatitudeDegrees>
              <LongitudeDegrees>-4.38235393725335597991943359375</LongitudeDegrees>
            </Position>
            <AltitudeMeters>637.5999755859375</AltitudeMeters>
            <DistanceMeters>NAN</DistanceMeters>
          </Trackpoint>
          <Trackpoint>
            <Time>2020-12-05T12:30:24.000Z</Time>
            <Position>
              <LatitudeDegrees>36.8362960405647754669189453125</LatitudeDegrees>
              <LongitudeDegrees>-4.3823652528226375579833984375</LongitudeDegrees>
            </Position>
            <AltitudeMeters>637.5999755859375</AltitudeMeters>
            <DistanceMeters>NAN</DistanceMeters>
          </Trackpoint>
          <Trackpoint>
            <Time>2020-12-05T12:30:25.000Z</Time>
            <Position>
              <LatitudeDegrees>36.83628975413739681243896484375</LatitudeDegrees>
              <LongitudeDegrees>-4.38237874768674373626708984375</LongitudeDegrees>
            </Position>
            <AltitudeMeters>637.5999755859375</AltitudeMeters>
            <DistanceMeters>NAN</DistanceMeters>
          </Trackpoint>
          <Trackpoint>
            <Time>2020-12-05T12:30:26.000Z</Time>
            <Position>
              <LatitudeDegrees>36.8362863175570964813232421875</LatitudeDegrees>
              <LongitudeDegrees>-4.3823944218456745147705078125</LongitudeDegrees>
            </Position>
            <AltitudeMeters>637.5999755859375</AltitudeMeters>
            <DistanceMeters>NAN</DistanceMeters>
          </Trackpoint>
          <Trackpoint>
            <Time>2020-12-05T12:30:27.000Z</Time>
            <Position>
              <LatitudeDegrees>36.836281456053256988525390625</LatitudeDegrees>
              <LongitudeDegrees>-4.382413364946842193603515625</LongitudeDegrees>
            </Position>
            <AltitudeMeters>637.5999755859375</AltitudeMeters>
            <DistanceMeters>NAN</DistanceMeters>
          </Trackpoint>
          <Trackpoint>
            <Time>2020-12-05T12:30:28.000Z</Time>
            <Position>
              <LatitudeDegrees>36.83627952821552753448486328125</LatitudeDegrees>
              <LongitudeDegrees>-4.3824316374957561492919921875</LongitudeDegrees>
            </Position>
            <AltitudeMeters>637.5999755859375</AltitudeMeters>
            <DistanceMeters>NAN</DistanceMeters>
          </Trackpoint>
          <Trackpoint>
            <Time>2020-12-05T12:30:29.000Z</Time>
            <Position>
              <LatitudeDegrees>36.83627718128263950347900390625</LatitudeDegrees>
              <LongitudeDegrees>-4.38244664110243320465087890625</LongitudeDegrees>
            </Position>
            <AltitudeMeters>637.5999755859375</AltitudeMeters>
            <DistanceMeters>NAN</DistanceMeters>
          </Trackpoint>
          <Trackpoint>
            <Time>2020-12-05T12:30:30.000Z</Time>
            <Position>
              <LatitudeDegrees>36.83627382852137088775634765625</LatitudeDegrees>
              <LongitudeDegrees>-4.382466338574886322021484375</LongitudeDegrees>
            </Position>
            <AltitudeMeters>637.5999755859375</AltitudeMeters>
            <DistanceMeters>NAN</DistanceMeters>
          </Trackpoint>
          <Trackpoint>
            <Time>2020-12-05T12:30:31.000Z</Time>
            <Position>
              <LatitudeDegrees>36.83626963756978511810302734375</LatitudeDegrees>
              <LongitudeDegrees>-4.3824867904186248779296875</LongitudeDegrees>
            </Position>
            <AltitudeMeters>637.5999755859375</AltitudeMeters>
            <DistanceMeters>NAN</DistanceMeters>
          </Trackpoint>
          <Trackpoint>
            <Time>2020-12-05T12:30:32.000Z</Time>
            <Position>
              <LatitudeDegrees>36.83626645244657993316650390625</LatitudeDegrees>
              <LongitudeDegrees>-4.382504560053348541259765625</LongitudeDegrees>
            </Position>
            <AltitudeMeters>637.5999755859375</AltitudeMeters>
            <DistanceMeters>NAN</DistanceMeters>
          </Trackpoint>
          <Trackpoint>
            <Time>2020-12-05T12:30:33.000Z</Time>
            <Position>
              <LatitudeDegrees>36.836263351142406463623046875</LatitudeDegrees>
              <LongitudeDegrees>-4.38252107240259647369384765625</LongitudeDegrees>
            </Position>
            <AltitudeMeters>637.5999755859375</AltitudeMeters>
            <DistanceMeters>NAN</DistanceMeters>
          </Trackpoint>
          <Trackpoint>
            <Time>2020-12-05T12:30:34.000Z</Time>
            <Position>
              <LatitudeDegrees>36.83626301586627960205078125</LatitudeDegrees>
              <LongitudeDegrees>-4.38253750093281269073486328125</LongitudeDegrees>
            </Position>
            <AltitudeMeters>637.5999755859375</AltitudeMeters>
            <DistanceMeters>NAN</DistanceMeters>
          </Trackpoint>
          <Trackpoint>
            <Time>2020-12-05T12:30:35.000Z</Time>
            <Position>
              <LatitudeDegrees>36.8362621776759624481201171875</LatitudeDegrees>
              <LongitudeDegrees>-4.3825573660433292388916015625</LongitudeDegrees>
            </Position>
            <AltitudeMeters>637.5999755859375</AltitudeMeters>
            <DistanceMeters>NAN</DistanceMeters>
          </Trackpoint>
          <Trackpoint>
            <Time>2020-12-05T12:30:36.000Z</Time>
            <Position>
              <LatitudeDegrees>36.836261339485645294189453125</LatitudeDegrees>
              <LongitudeDegrees>-4.38257865607738494873046875</LongitudeDegrees>
            </Position>
            <AltitudeMeters>637.5999755859375</AltitudeMeters>
            <DistanceMeters>NAN</DistanceMeters>
          </Trackpoint>
          <Trackpoint>
            <Time>2020-12-05T12:30:37.000Z</Time>
            <Position>
              <LatitudeDegrees>36.83625823818147182464599609375</LatitudeDegrees>
              <LongitudeDegrees>-4.3825994431972503662109375</LongitudeDegrees>
            </Position>
            <AltitudeMeters>637.5999755859375</AltitudeMeters>
            <DistanceMeters>NAN</DistanceMeters>
          </Trackpoint>
          <Trackpoint>
            <Time>2020-12-05T12:30:38.000Z</Time>
            <Position>
              <LatitudeDegrees>36.8362537957727909088134765625</LatitudeDegrees>
              <LongitudeDegrees>-4.38262693583965301513671875</LongitudeDegrees>
            </Position>
            <AltitudeMeters>637.5999755859375</AltitudeMeters>
            <DistanceMeters>NAN</DistanceMeters>
          </Trackpoint>
          <Trackpoint>
            <Time>2020-12-05T12:30:39.000Z</Time>
            <Position>
              <LatitudeDegrees>36.83624533005058765411376953125</LatitudeDegrees>
              <LongitudeDegrees>-4.38265317119657993316650390625</LongitudeDegrees>
            </Position>
            <AltitudeMeters>637.5999755859375</AltitudeMeters>
            <DistanceMeters>NAN</DistanceMeters>
          </Trackpoint>
          <Trackpoint>
            <Time>2020-12-05T12:30:40.000Z</Time>
            <Position>
              <LatitudeDegrees>36.8362390436232089996337890625</LatitudeDegrees>
              <LongitudeDegrees>-4.38267814926803112030029296875</LongitudeDegrees>
            </Position>
            <AltitudeMeters>637.5999755859375</AltitudeMeters>
            <DistanceMeters>NAN</DistanceMeters>
          </Trackpoint>
          <Trackpoint>
            <Time>2020-12-05T12:30:41.000Z</Time>
            <Position>
              <LatitudeDegrees>36.83623041026294231414794921875</LatitudeDegrees>
              <LongitudeDegrees>-4.38269793055951595306396484375</LongitudeDegrees>
            </Position>
            <AltitudeMeters>637.5999755859375</AltitudeMeters>
            <DistanceMeters>NAN</DistanceMeters>
          </Trackpoint>
          <Trackpoint>
            <Time>2020-12-05T12:30:42.000Z</Time>
            <Position>
              <LatitudeDegrees>36.83622412383556365966796875</LatitudeDegrees>
              <LongitudeDegrees>-4.382711090147495269775390625</LongitudeDegrees>
            </Position>
            <AltitudeMeters>637.5999755859375</AltitudeMeters>
            <DistanceMeters>NAN</DistanceMeters>
          </Trackpoint>
          <Trackpoint>
            <Time>2020-12-05T12:30:43.000Z</Time>
            <Position>
              <LatitudeDegrees>36.83622001670300960540771484375</LatitudeDegrees>
              <LongitudeDegrees>-4.3827166222035884857177734375</LongitudeDegrees>
            </Position>
            <AltitudeMeters>637.5999755859375</AltitudeMeters>
            <DistanceMeters>NAN</DistanceMeters>
          </Trackpoint>
          <Trackpoint>
            <Time>2020-12-05T12:30:44.000Z</Time>
            <Position>
              <LatitudeDegrees>36.83622068725526332855224609375</LatitudeDegrees>
              <LongitudeDegrees>-4.38272676430642604827880859375</LongitudeDegrees>
            </Position>
            <AltitudeMeters>637.5999755859375</AltitudeMeters>
            <DistanceMeters>NAN</DistanceMeters>
          </Trackpoint>
          <Trackpoint>
            <Time>2020-12-05T12:30:45.000Z</Time>
            <Position>
              <LatitudeDegrees>36.83621875941753387451171875</LatitudeDegrees>
              <LongitudeDegrees>-4.382740594446659088134765625</LongitudeDegrees>
            </Position>
            <AltitudeMeters>637.5999755859375</AltitudeMeters>
            <DistanceMeters>NAN</DistanceMeters>
          </Trackpoint>
          <Trackpoint>
            <Time>2020-12-05T12:30:46.000Z</Time>
            <Position>
              <LatitudeDegrees>36.83622202835977077484130859375</LatitudeDegrees>
              <LongitudeDegrees>-4.38275442458689212799072265625</LongitudeDegrees>
            </Position>
            <AltitudeMeters>637.5999755859375</AltitudeMeters>
            <DistanceMeters>NAN</DistanceMeters>
          </Trackpoint>
          <Trackpoint>
            <Time>2020-12-05T12:30:47.000Z</Time>
            <Position>
              <LatitudeDegrees>36.83623225428164005279541015625</LatitudeDegrees>
              <LongitudeDegrees>-4.382769763469696044921875</LongitudeDegrees>
            </Position>
            <AltitudeMeters>637.5999755859375</AltitudeMeters>
            <DistanceMeters>NAN</DistanceMeters>
          </Trackpoint>
          <Trackpoint>
            <Time>2020-12-05T12:30:48.000Z</Time>
            <Position>
              <LatitudeDegrees>36.836239881813526153564453125</LatitudeDegrees>
              <LongitudeDegrees>-4.382787533104419708251953125</LongitudeDegrees>
            </Position>
            <AltitudeMeters>637.5999755859375</AltitudeMeters>
            <DistanceMeters>NAN</DistanceMeters>
          </Trackpoint>
          <Trackpoint>
            <Time>2020-12-05T12:30:49.000Z</Time>
            <Position>
              <LatitudeDegrees>36.83624650351703166961669921875</LatitudeDegrees>
              <LongitudeDegrees>-4.38280262053012847900390625</LongitudeDegrees>
            </Position>
            <AltitudeMeters>637.5999755859375</AltitudeMeters>
            <DistanceMeters>NAN</DistanceMeters>
          </Trackpoint>
          <Trackpoint>
            <Time>2020-12-05T12:30:50.000Z</Time>
            <Position>
              <LatitudeDegrees>36.83625287376344203948974609375</LatitudeDegrees>
              <LongitudeDegrees>-4.38281142152845859527587890625</LongitudeDegrees>
            </Position>
            <AltitudeMeters>637.5999755859375</AltitudeMeters>
            <DistanceMeters>NAN</DistanceMeters>
          </Trackpoint>
          <Trackpoint>
            <Time>2020-12-05T12:30:51.000Z</Time>
            <Position>
              <LatitudeDegrees>36.8362621776759624481201171875</LatitudeDegrees>
              <LongitudeDegrees>-4.3828161992132663726806640625</LongitudeDegrees>
            </Position>
            <AltitudeMeters>637.5999755859375</AltitudeMeters>
            <DistanceMeters>NAN</DistanceMeters>
          </Trackpoint>
          <Trackpoint>
            <Time>2020-12-05T12:30:52.000Z</Time>
            <Position>
              <LatitudeDegrees>36.8362690508365631103515625</LatitudeDegrees>
              <LongitudeDegrees>-4.38282273709774017333984375</LongitudeDegrees>
            </Position>
            <AltitudeMeters>637.5999755859375</AltitudeMeters>
            <DistanceMeters>NAN</DistanceMeters>
          </Trackpoint>
          <Trackpoint>
            <Time>2020-12-05T12:30:53.000Z</Time>
            <Position>
              <LatitudeDegrees>36.8362708948552608489990234375</LatitudeDegrees>
              <LongitudeDegrees>-4.38283069990575313568115234375</LongitudeDegrees>
            </Position>
            <AltitudeMeters>637.5999755859375</AltitudeMeters>
            <DistanceMeters>NAN</DistanceMeters>
          </Trackpoint>
          <Trackpoint>
            <Time>2020-12-05T12:30:54.000Z</Time>
            <Position>
              <LatitudeDegrees>36.8362702243030071258544921875</LatitudeDegrees>
              <LongitudeDegrees>-4.38284193165600299835205078125</LongitudeDegrees>
            </Position>
            <AltitudeMeters>637.5999755859375</AltitudeMeters>
            <DistanceMeters>NAN</DistanceMeters>
          </Trackpoint>
          <Trackpoint>
            <Time>2020-12-05T12:30:55.000Z</Time>
            <Position>
              <LatitudeDegrees>36.8362672068178653717041015625</LatitudeDegrees>
              <LongitudeDegrees>-4.38284997828304767608642578125</LongitudeDegrees>
            </Position>
            <AltitudeMeters>637.5999755859375</AltitudeMeters>
            <DistanceMeters>NAN</DistanceMeters>
          </Trackpoint>
          <Trackpoint>
            <Time>2020-12-05T12:30:56.000Z</Time>
            <Position>
              <LatitudeDegrees>36.8362628482282161712646484375</LatitudeDegrees>
              <LongitudeDegrees>-4.382858611643314361572265625</LongitudeDegrees>
            </Position>
            <AltitudeMeters>637.5999755859375</AltitudeMeters>
            <DistanceMeters>NAN</DistanceMeters>
          </Trackpoint>
          <Trackpoint>
            <Time>2020-12-05T12:30:57.000Z</Time>
            <Position>
              <LatitudeDegrees>36.83625890873372554779052734375</LatitudeDegrees>
              <LongitudeDegrees>-4.3828671611845493316650390625</LongitudeDegrees>
            </Position>
            <AltitudeMeters>637.5999755859375</AltitudeMeters>
            <DistanceMeters>NAN</DistanceMeters>
          </Trackpoint>
          <Trackpoint>
            <Time>2020-12-05T12:30:58.000Z</Time>
            <Position>
              <LatitudeDegrees>36.83625387959182262420654296875</LatitudeDegrees>
              <LongitudeDegrees>-4.3828768841922283172607421875</LongitudeDegrees>
            </Position>
            <AltitudeMeters>637.5999755859375</AltitudeMeters>
            <DistanceMeters>NAN</DistanceMeters>
          </Trackpoint>
          <Trackpoint>
            <Time>2020-12-05T12:30:59.000Z</Time>
            <Position>
              <LatitudeDegrees>36.836244575679302215576171875</LatitudeDegrees>
              <LongitudeDegrees>-4.3828832544386386871337890625</LongitudeDegrees>
            </Position>
            <AltitudeMeters>637.5999755859375</AltitudeMeters>
            <DistanceMeters>NAN</DistanceMeters>
          </Trackpoint>
          <Trackpoint>
            <Time>2020-12-05T12:31:00.000Z</Time>
            <Position>
              <LatitudeDegrees>36.836236529052257537841796875</LatitudeDegrees>
              <LongitudeDegrees>-4.3828852660953998565673828125</LongitudeDegrees>
            </Position>
            <AltitudeMeters>634.79998779296875</AltitudeMeters>
            <DistanceMeters>NAN</DistanceMeters>
          </Trackpoint>
          <Trackpoint>
            <Time>2020-12-05T12:31:01.000Z</Time>
            <Position>
              <LatitudeDegrees>36.83622571639716625213623046875</LatitudeDegrees>
              <LongitudeDegrees>-4.38288635574281215667724609375</LongitudeDegrees>
            </Position>
            <AltitudeMeters>634.79998779296875</AltitudeMeters>
            <DistanceMeters>NAN</DistanceMeters>
          </Trackpoint>
          <Trackpoint>
            <Time>2020-12-05T12:31:02.000Z</Time>
            <Position>
              <LatitudeDegrees>36.8362095393240451812744140625</LatitudeDegrees>
              <LongitudeDegrees>-4.38288845121860504150390625</LongitudeDegrees>
            </Position>
            <AltitudeMeters>634.79998779296875</AltitudeMeters>
            <DistanceMeters>NAN</DistanceMeters>
          </Trackpoint>
          <Trackpoint>
            <Time>2020-12-05T12:31:03.000Z</Time>
            <Position>
              <LatitudeDegrees>36.83619218878448009490966796875</LatitudeDegrees>
              <LongitudeDegrees>-4.38289004378020763397216796875</LongitudeDegrees>
            </Position>
            <AltitudeMeters>634.79998779296875</AltitudeMeters>
            <DistanceMeters>NAN</DistanceMeters>
          </Trackpoint>
          <Trackpoint>
            <Time>2020-12-05T12:31:04.000Z</Time>
            <Position>
              <LatitudeDegrees>36.83617584407329559326171875</LatitudeDegrees>
              <LongitudeDegrees>-4.3828882835805416107177734375</LongitudeDegrees>
            </Position>
            <AltitudeMeters>634.79998779296875</AltitudeMeters>
            <DistanceMeters>NAN</DistanceMeters>
          </Trackpoint>
          <Trackpoint>
            <Time>2020-12-05T12:31:05.000Z</Time>
            <Position>
              <LatitudeDegrees>36.8361649475991725921630859375</LatitudeDegrees>
              <LongitudeDegrees>-4.382887780666351318359375</LongitudeDegrees>
            </Position>
            <AltitudeMeters>634.79998779296875</AltitudeMeters>
            <DistanceMeters>NAN</DistanceMeters>
          </Trackpoint>
          <Trackpoint>
            <Time>2020-12-05T12:31:06.000Z</Time>
            <Position>
              <LatitudeDegrees>36.836158074438571929931640625</LatitudeDegrees>
              <LongitudeDegrees>-4.3828832544386386871337890625</LongitudeDegrees>
            </Position>
            <AltitudeMeters>634.79998779296875</AltitudeMeters>
            <DistanceMeters>NAN</DistanceMeters>
          </Trackpoint>
          <Trackpoint>
            <Time>2020-12-05T12:31:07.000Z</Time>
            <Position>
              <LatitudeDegrees>36.8361498601734638214111328125</LatitudeDegrees>
              <LongitudeDegrees>-4.3828825838863849639892578125</LongitudeDegrees>
            </Position>
            <AltitudeMeters>634.79998779296875</AltitudeMeters>
            <DistanceMeters>NAN</DistanceMeters>
          </Trackpoint>
          <Trackpoint>
            <Time>2020-12-05T12:31:08.000Z</Time>
            <Position>
              <LatitudeDegrees>36.8361441604793071746826171875</LatitudeDegrees>
              <LongitudeDegrees>-4.382876716554164886474609375</LongitudeDegrees>
            </Position>
            <AltitudeMeters>634.79998779296875</AltitudeMeters>
            <DistanceMeters>NAN</DistanceMeters>
          </Trackpoint>
          <Trackpoint>
            <Time>2020-12-05T12:31:09.000Z</Time>
            <Position>
              <LatitudeDegrees>36.8361401371657848358154296875</LatitudeDegrees>
              <LongitudeDegrees>-4.3828690052032470703125</LongitudeDegrees>
            </Position>
            <AltitudeMeters>634.79998779296875</AltitudeMeters>
            <DistanceMeters>NAN</DistanceMeters>
          </Trackpoint>
          <Trackpoint>
            <Time>2020-12-05T12:31:10.000Z</Time>
            <Position>
              <LatitudeDegrees>36.836135946214199066162109375</LatitudeDegrees>
              <LongitudeDegrees>-4.38286028802394866943359375</LongitudeDegrees>
            </Position>
            <AltitudeMeters>634.79998779296875</AltitudeMeters>
            <DistanceMeters>NAN</DistanceMeters>
          </Trackpoint>
          <Trackpoint>
            <Time>2020-12-05T12:31:11.000Z</Time>
            <Position>
              <LatitudeDegrees>36.8361351080238819122314453125</LatitudeDegrees>
              <LongitudeDegrees>-4.3828487209975719451904296875</LongitudeDegrees>
            </Position>
            <AltitudeMeters>634.79998779296875</AltitudeMeters>
            <DistanceMeters>NAN</DistanceMeters>
          </Trackpoint>
          <Trackpoint>
            <Time>2020-12-05T12:31:12.000Z</Time>
            <Position>
              <LatitudeDegrees>36.836136281490325927734375</LatitudeDegrees>
              <LongitudeDegrees>-4.3828327953815460205078125</LongitudeDegrees>
            </Position>
            <AltitudeMeters>634.79998779296875</AltitudeMeters>
            <DistanceMeters>NAN</DistanceMeters>
          </Trackpoint>
          <Trackpoint>
            <Time>2020-12-05T12:31:13.000Z</Time>
            <Position>
              <LatitudeDegrees>36.83613234199583530426025390625</LatitudeDegrees>
              <LongitudeDegrees>-4.3828247487545013427734375</LongitudeDegrees>
            </Position>
            <AltitudeMeters>634.79998779296875</AltitudeMeters>
            <DistanceMeters>NAN</DistanceMeters>
          </Trackpoint>
          <Trackpoint>
            <Time>2020-12-05T12:31:14.000Z</Time>
            <Position>
              <LatitudeDegrees>36.8361307494342327117919921875</LatitudeDegrees>
              <LongitudeDegrees>-4.3828118406236171722412109375</LongitudeDegrees>
            </Position>
            <AltitudeMeters>634.79998779296875</AltitudeMeters>
            <DistanceMeters>NAN</DistanceMeters>
          </Trackpoint>
          <Trackpoint>
            <Time>2020-12-05T12:31:15.000Z</Time>
            <Position>
              <LatitudeDegrees>36.83612848632037639617919921875</LatitudeDegrees>
              <LongitudeDegrees>-4.3827937357127666473388671875</LongitudeDegrees>
            </Position>
            <AltitudeMeters>634.79998779296875</AltitudeMeters>
            <DistanceMeters>NAN</DistanceMeters>
          </Trackpoint>
          <Trackpoint>
            <Time>2020-12-05T12:31:16.000Z</Time>
            <Position>
              <LatitudeDegrees>36.83612446300685405731201171875</LatitudeDegrees>
              <LongitudeDegrees>-4.38278459943830966949462890625</LongitudeDegrees>
            </Position>
            <AltitudeMeters>634.79998779296875</AltitudeMeters>
            <DistanceMeters>NAN</DistanceMeters>
          </Trackpoint>
          <Trackpoint>
            <Time>2020-12-05T12:31:17.000Z</Time>
            <Position>
              <LatitudeDegrees>36.83612412773072719573974609375</LatitudeDegrees>
              <LongitudeDegrees>-4.38277043402194976806640625</LongitudeDegrees>
            </Position>
            <AltitudeMeters>634.79998779296875</AltitudeMeters>
            <DistanceMeters>NAN</DistanceMeters>
          </Trackpoint>
          <Trackpoint>
            <Time>2020-12-05T12:31:18.000Z</Time>
            <Position>
              <LatitudeDegrees>36.83612345717847347259521484375</LatitudeDegrees>
              <LongitudeDegrees>-4.38275593332946300506591796875</LongitudeDegrees>
            </Position>
            <AltitudeMeters>634.79998779296875</AltitudeMeters>
            <DistanceMeters>NAN</DistanceMeters>
          </Trackpoint>
          <Trackpoint>
            <Time>2020-12-05T12:31:19.000Z</Time>
            <Position>
              <LatitudeDegrees>36.83612027205526828765869140625</LatitudeDegrees>
              <LongitudeDegrees>-4.38274403102695941925048828125</LongitudeDegrees>
            </Position>
            <AltitudeMeters>634.79998779296875</AltitudeMeters>
            <DistanceMeters>NAN</DistanceMeters>
          </Trackpoint>
          <Trackpoint>
            <Time>2020-12-05T12:31:20.000Z</Time>
            <Position>
              <LatitudeDegrees>36.83612027205526828765869140625</LatitudeDegrees>
              <LongitudeDegrees>-4.38273246400058269500732421875</LongitudeDegrees>
            </Position>
            <AltitudeMeters>634.79998779296875</AltitudeMeters>
            <DistanceMeters>NAN</DistanceMeters>
          </Trackpoint>
          <Trackpoint>
            <Time>2020-12-05T12:31:21.000Z</Time>
            <Position>
              <LatitudeDegrees>36.83611817657947540283203125</LatitudeDegrees>
              <LongitudeDegrees>-4.38271972350776195526123046875</LongitudeDegrees>
            </Position>
            <AltitudeMeters>634.79998779296875</AltitudeMeters>
            <DistanceMeters>NAN</DistanceMeters>
          </Trackpoint>
          <Trackpoint>
            <Time>2020-12-05T12:31:22.000Z</Time>
            <Position>
              <LatitudeDegrees>36.83611541055142879486083984375</LatitudeDegrees>
              <LongitudeDegrees>-4.38270740211009979248046875</LongitudeDegrees>
            </Position>
            <AltitudeMeters>634.79998779296875</AltitudeMeters>
            <DistanceMeters>NAN</DistanceMeters>
          </Trackpoint>
          <Trackpoint>
            <Time>2020-12-05T12:31:23.000Z</Time>
            <Position>
              <LatitudeDegrees>36.83611054904758930206298828125</LatitudeDegrees>
              <LongitudeDegrees>-4.38269172795116901397705078125</LongitudeDegrees>
            </Position>
            <AltitudeMeters>634.79998779296875</AltitudeMeters>
            <DistanceMeters>NAN</DistanceMeters>
          </Trackpoint>
          <Trackpoint>
            <Time>2020-12-05T12:31:24.000Z</Time>
            <Position>
              <LatitudeDegrees>36.83610602281987667083740234375</LatitudeDegrees>
              <LongitudeDegrees>-4.382674880325794219970703125</LongitudeDegrees>
            </Position>
            <AltitudeMeters>634.79998779296875</AltitudeMeters>
            <DistanceMeters>NAN</DistanceMeters>
          </Trackpoint>
          <Trackpoint>
            <Time>2020-12-05T12:31:25.000Z</Time>
            <Position>
              <LatitudeDegrees>36.83610216714441776275634765625</LatitudeDegrees>
              <LongitudeDegrees>-4.38265585340559482574462890625</LongitudeDegrees>
            </Position>
            <AltitudeMeters>634.79998779296875</AltitudeMeters>
            <DistanceMeters>NAN</DistanceMeters>
          </Trackpoint>
          <Trackpoint>
            <Time>2020-12-05T12:31:26.000Z</Time>
            <Position>
              <LatitudeDegrees>36.83610166423022747039794921875</LatitudeDegrees>
              <LongitudeDegrees>-4.3826364912092685699462890625</LongitudeDegrees>
            </Position>
            <AltitudeMeters>634.79998779296875</AltitudeMeters>
            <DistanceMeters>NAN</DistanceMeters>
          </Trackpoint>
          <Trackpoint>
            <Time>2020-12-05T12:31:27.000Z</Time>
            <Position>
              <LatitudeDegrees>36.8361000716686248779296875</LatitudeDegrees>
              <LongitudeDegrees>-4.3826250918209552764892578125</LongitudeDegrees>
            </Position>
            <AltitudeMeters>634.79998779296875</AltitudeMeters>
            <DistanceMeters>NAN</DistanceMeters>
          </Trackpoint>
          <Trackpoint>
            <Time>2020-12-05T12:31:28.000Z</Time>
            <Position>
              <LatitudeDegrees>36.8360982276499271392822265625</LatitudeDegrees>
              <LongitudeDegrees>-4.382609166204929351806640625</LongitudeDegrees>
            </Position>
            <AltitudeMeters>634.79998779296875</AltitudeMeters>
            <DistanceMeters>NAN</DistanceMeters>
          </Trackpoint>
          <Trackpoint>
            <Time>2020-12-05T12:31:29.000Z</Time>
            <Position>
              <LatitudeDegrees>36.83609076775610446929931640625</LatitudeDegrees>
              <LongitudeDegrees>-4.3825918994843959808349609375</LongitudeDegrees>
            </Position>
            <AltitudeMeters>634.79998779296875</AltitudeMeters>
            <DistanceMeters>NAN</DistanceMeters>
          </Trackpoint>
          <Trackpoint>
            <Time>2020-12-05T12:31:30.000Z</Time>
            <Position>
              <LatitudeDegrees>36.83608322404325008392333984375</LatitudeDegrees>
              <LongitudeDegrees>-4.3825825117528438568115234375</LongitudeDegrees>
            </Position>
            <AltitudeMeters>634.79998779296875</AltitudeMeters>
            <DistanceMeters>NAN</DistanceMeters>
          </Trackpoint>
          <Trackpoint>
            <Time>2020-12-05T12:31:31.000Z</Time>
            <Position>
              <LatitudeDegrees>36.83607383631169795989990234375</LatitudeDegrees>
              <LongitudeDegrees>-4.3825694359838962554931640625</LongitudeDegrees>
            </Position>
            <AltitudeMeters>634.79998779296875</AltitudeMeters>
            <DistanceMeters>NAN</DistanceMeters>
          </Trackpoint>
          <Trackpoint>
            <Time>2020-12-05T12:31:32.000Z</Time>
            <Position>
              <LatitudeDegrees>36.8360606767237186431884765625</LatitudeDegrees>
              <LongitudeDegrees>-4.3825556896626949310302734375</LongitudeDegrees>
            </Position>
            <AltitudeMeters>634.79998779296875</AltitudeMeters>
            <DistanceMeters>NAN</DistanceMeters>
          </Trackpoint>
          <Trackpoint>
            <Time>2020-12-05T12:31:33.000Z</Time>
            <Position>
              <LatitudeDegrees>36.8360486067831516265869140625</LatitudeDegrees>
              <LongitudeDegrees>-4.38254219479858875274658203125</LongitudeDegrees>
            </Position>
            <AltitudeMeters>634.79998779296875</AltitudeMeters>
            <DistanceMeters>NAN</DistanceMeters>
          </Trackpoint>
          <Trackpoint>
            <Time>2020-12-05T12:31:34.000Z</Time>
            <Position>
              <LatitudeDegrees>36.83603896759450435638427734375</LatitudeDegrees>
              <LongitudeDegrees>-4.38253113068640232086181640625</LongitudeDegrees>
            </Position>
            <AltitudeMeters>634.79998779296875</AltitudeMeters>
            <DistanceMeters>NAN</DistanceMeters>
          </Trackpoint>
          <Trackpoint>
            <Time>2020-12-05T12:31:35.000Z</Time>
            <Position>
              <LatitudeDegrees>36.83603293262422084808349609375</LatitudeDegrees>
              <LongitudeDegrees>-4.38252023421227931976318359375</LongitudeDegrees>
            </Position>
            <AltitudeMeters>634.79998779296875</AltitudeMeters>
            <DistanceMeters>NAN</DistanceMeters>
          </Trackpoint>
          <Trackpoint>
            <Time>2020-12-05T12:31:36.000Z</Time>
            <Position>
              <LatitudeDegrees>36.83602673001587390899658203125</LatitudeDegrees>
              <LongitudeDegrees>-4.3825097568333148956298828125</LongitudeDegrees>
            </Position>
            <AltitudeMeters>634.79998779296875</AltitudeMeters>
            <DistanceMeters>NAN</DistanceMeters>
          </Trackpoint>
          <Trackpoint>
            <Time>2020-12-05T12:31:37.000Z</Time>
            <Position>
              <LatitudeDegrees>36.83602052740752696990966796875</LatitudeDegrees>
              <LongitudeDegrees>-4.3824973516166210174560546875</LongitudeDegrees>
            </Position>
            <AltitudeMeters>634.79998779296875</AltitudeMeters>
            <DistanceMeters>NAN</DistanceMeters>
          </Trackpoint>
          <Trackpoint>
            <Time>2020-12-05T12:31:38.000Z</Time>
            <Position>
              <LatitudeDegrees>36.8360144086182117462158203125</LatitudeDegrees>
              <LongitudeDegrees>-4.38248536549508571624755859375</LongitudeDegrees>
            </Position>
            <AltitudeMeters>634.79998779296875</AltitudeMeters>
            <DistanceMeters>NAN</DistanceMeters>
          </Trackpoint>
          <Trackpoint>
            <Time>2020-12-05T12:31:39.000Z</Time>
            <Position>
              <LatitudeDegrees>36.8360060267150402069091796875</LatitudeDegrees>
              <LongitudeDegrees>-4.38247161917388439178466796875</LongitudeDegrees>
            </Position>
            <AltitudeMeters>634.79998779296875</AltitudeMeters>
            <DistanceMeters>NAN</DistanceMeters>
          </Trackpoint>
          <Trackpoint>
            <Time>2020-12-05T12:31:40.000Z</Time>
            <Position>
              <LatitudeDegrees>36.83599739335477352142333984375</LatitudeDegrees>
              <LongitudeDegrees>-4.38246089033782482147216796875</LongitudeDegrees>
            </Position>
            <AltitudeMeters>634.79998779296875</AltitudeMeters>
            <DistanceMeters>NAN</DistanceMeters>
          </Trackpoint>
          <Trackpoint>
            <Time>2020-12-05T12:31:41.000Z</Time>
            <Position>
              <LatitudeDegrees>36.8359906040132045745849609375</LatitudeDegrees>
              <LongitudeDegrees>-4.382450580596923828125</LongitudeDegrees>
            </Position>
            <AltitudeMeters>634.79998779296875</AltitudeMeters>
            <DistanceMeters>NAN</DistanceMeters>
          </Trackpoint>
          <Trackpoint>
            <Time>2020-12-05T12:31:42.000Z</Time>
            <Position>
              <LatitudeDegrees>36.835983060300350189208984375</LatitudeDegrees>
              <LongitudeDegrees>-4.38244043849408626556396484375</LongitudeDegrees>
            </Position>
            <AltitudeMeters>634.79998779296875</AltitudeMeters>
            <DistanceMeters>NAN</DistanceMeters>
          </Trackpoint>
          <Trackpoint>
            <Time>2020-12-05T12:31:43.000Z</Time>
            <Position>
              <LatitudeDegrees>36.83597627095878124237060546875</LatitudeDegrees>
              <LongitudeDegrees>-4.38242669217288494110107421875</LongitudeDegrees>
            </Position>
            <AltitudeMeters>634.79998779296875</AltitudeMeters>
            <DistanceMeters>NAN</DistanceMeters>
          </Trackpoint>
          <Trackpoint>
            <Time>2020-12-05T12:31:44.000Z</Time>
            <Position>
              <LatitudeDegrees>36.8359713256359100341796875</LatitudeDegrees>
              <LongitudeDegrees>-4.3824145384132862091064453125</LongitudeDegrees>
            </Position>
            <AltitudeMeters>634.79998779296875</AltitudeMeters>
            <DistanceMeters>NAN</DistanceMeters>
          </Trackpoint>
          <Trackpoint>
            <Time>2020-12-05T12:31:45.000Z</Time>
            <Position>
              <LatitudeDegrees>36.83596537448465824127197265625</LatitudeDegrees>
              <LongitudeDegrees>-4.38240070827305316925048828125</LongitudeDegrees>
            </Position>
            <AltitudeMeters>634.79998779296875</AltitudeMeters>
            <DistanceMeters>NAN</DistanceMeters>
          </Trackpoint>
          <Trackpoint>
            <Time>2020-12-05T12:31:46.000Z</Time>
            <Position>
              <LatitudeDegrees>36.83595883660018444061279296875</LatitudeDegrees>
              <LongitudeDegrees>-4.38238997943699359893798828125</LongitudeDegrees>
            </Position>
            <AltitudeMeters>634.79998779296875</AltitudeMeters>
            <DistanceMeters>NAN</DistanceMeters>
          </Trackpoint>
          <Trackpoint>
            <Time>2020-12-05T12:31:47.000Z</Time>
            <Position>
              <LatitudeDegrees>36.83595078997313976287841796875</LatitudeDegrees>
              <LongitudeDegrees>-4.38237656839191913604736328125</LongitudeDegrees>
            </Position>
            <AltitudeMeters>634.79998779296875</AltitudeMeters>
            <DistanceMeters>NAN</DistanceMeters>
          </Trackpoint>
          <Trackpoint>
            <Time>2020-12-05T12:31:48.000Z</Time>
            <Position>
              <LatitudeDegrees>36.83594458736479282379150390625</LatitudeDegrees>
              <LongitudeDegrees>-4.38236382789909839630126953125</LongitudeDegrees>
            </Position>
            <AltitudeMeters>634.79998779296875</AltitudeMeters>
            <DistanceMeters>NAN</DistanceMeters>
          </Trackpoint>
          <Trackpoint>
            <Time>2020-12-05T12:31:49.000Z</Time>
            <Position>
              <LatitudeDegrees>36.83594240806996822357177734375</LatitudeDegrees>
              <LongitudeDegrees>-4.38235075213015079498291015625</LongitudeDegrees>
            </Position>
            <AltitudeMeters>634.79998779296875</AltitudeMeters>
            <DistanceMeters>NAN</DistanceMeters>
          </Trackpoint>
          <Trackpoint>
            <Time>2020-12-05T12:31:50.000Z</Time>
            <Position>
              <LatitudeDegrees>36.8359403125941753387451171875</LatitudeDegrees>
              <LongitudeDegrees>-4.38233734108507633209228515625</LongitudeDegrees>
            </Position>
            <AltitudeMeters>634.79998779296875</AltitudeMeters>
            <DistanceMeters>NAN</DistanceMeters>
          </Trackpoint>
          <Trackpoint>
            <Time>2020-12-05T12:31:51.000Z</Time>
            <Position>
              <LatitudeDegrees>36.83593654073774814605712890625</LatitudeDegrees>
              <LongitudeDegrees>-4.382324181497097015380859375</LongitudeDegrees>
            </Position>
            <AltitudeMeters>634.79998779296875</AltitudeMeters>
            <DistanceMeters>NAN</DistanceMeters>
          </Trackpoint>
          <Trackpoint>
            <Time>2020-12-05T12:31:52.000Z</Time>
            <Position>
              <LatitudeDegrees>36.8359309248626232147216796875</LatitudeDegrees>
              <LongitudeDegrees>-4.38230934552848339080810546875</LongitudeDegrees>
            </Position>
            <AltitudeMeters>634.79998779296875</AltitudeMeters>
            <DistanceMeters>NAN</DistanceMeters>
          </Trackpoint>
          <Trackpoint>
            <Time>2020-12-05T12:31:53.000Z</Time>
            <Position>
              <LatitudeDegrees>36.83592597953975200653076171875</LatitudeDegrees>
              <LongitudeDegrees>-4.38229492865502834320068359375</LongitudeDegrees>
            </Position>
            <AltitudeMeters>634.79998779296875</AltitudeMeters>
            <DistanceMeters>NAN</DistanceMeters>
          </Trackpoint>
          <Trackpoint>
            <Time>2020-12-05T12:31:54.000Z</Time>
            <Position>
              <LatitudeDegrees>36.835922040045261383056640625</LatitudeDegrees>
              <LongitudeDegrees>-4.3822851218283176422119140625</LongitudeDegrees>
            </Position>
            <AltitudeMeters>634.79998779296875</AltitudeMeters>
            <DistanceMeters>NAN</DistanceMeters>
          </Trackpoint>
          <Trackpoint>
            <Time>2020-12-05T12:31:55.000Z</Time>
            <Position>
              <LatitudeDegrees>36.83591525070369243621826171875</LatitudeDegrees>
              <LongitudeDegrees>-4.3822722136974334716796875</LongitudeDegrees>
            </Position>
            <AltitudeMeters>634.79998779296875</AltitudeMeters>
            <DistanceMeters>NAN</DistanceMeters>
          </Trackpoint>
          <Trackpoint>
            <Time>2020-12-05T12:31:56.000Z</Time>
            <Position>
              <LatitudeDegrees>36.8359104730188846588134765625</LatitudeDegrees>
              <LongitudeDegrees>-4.38226056285202503204345703125</LongitudeDegrees>
            </Position>
            <AltitudeMeters>634.79998779296875</AltitudeMeters>
            <DistanceMeters>NAN</DistanceMeters>
          </Trackpoint>
          <Trackpoint>
            <Time>2020-12-05T12:31:57.000Z</Time>
            <Position>
              <LatitudeDegrees>36.83590737171471118927001953125</LatitudeDegrees>
              <LongitudeDegrees>-4.3822469003498554229736328125</LongitudeDegrees>
            </Position>
            <AltitudeMeters>634.79998779296875</AltitudeMeters>
            <DistanceMeters>NAN</DistanceMeters>
          </Trackpoint>
          <Trackpoint>
            <Time>2020-12-05T12:31:58.000Z</Time>
            <Position>
              <LatitudeDegrees>36.8359054438769817352294921875</LatitudeDegrees>
              <LongitudeDegrees>-4.38223063945770263671875</LongitudeDegrees>
            </Position>
            <AltitudeMeters>634.79998779296875</AltitudeMeters>
            <DistanceMeters>NAN</DistanceMeters>
          </Trackpoint>
          <Trackpoint>
            <Time>2020-12-05T12:31:59.000Z</Time>
            <Position>
              <LatitudeDegrees>36.83590167202055454254150390625</LatitudeDegrees>
              <LongitudeDegrees>-4.38221848569810390472412109375</LongitudeDegrees>
            </Position>
            <AltitudeMeters>634.79998779296875</AltitudeMeters>
            <DistanceMeters>NAN</DistanceMeters>
          </Trackpoint>
          <Trackpoint>
            <Time>2020-12-05T12:32:00.000Z</Time>
            <Position>
              <LatitudeDegrees>36.83589764870703220367431640625</LatitudeDegrees>
              <LongitudeDegrees>-4.38220717012882232666015625</LongitudeDegrees>
            </Position>
            <AltitudeMeters>643</AltitudeMeters>
            <DistanceMeters>NAN</DistanceMeters>
          </Trackpoint>
          <Trackpoint>
            <Time>2020-12-05T12:32:01.000Z</Time>
            <Position>
              <LatitudeDegrees>36.83589278720319271087646484375</LatitudeDegrees>
              <LongitudeDegrees>-4.38219618983566761016845703125</LongitudeDegrees>
            </Position>
            <AltitudeMeters>643</AltitudeMeters>
            <DistanceMeters>NAN</DistanceMeters>
          </Trackpoint>
          <Trackpoint>
            <Time>2020-12-05T12:32:02.000Z</Time>
            <Position>
              <LatitudeDegrees>36.8358856625854969024658203125</LatitudeDegrees>
              <LongitudeDegrees>-4.38218445517122745513916015625</LongitudeDegrees>
            </Position>
            <AltitudeMeters>643</AltitudeMeters>
            <DistanceMeters>NAN</DistanceMeters>
          </Trackpoint>
          <Trackpoint>
            <Time>2020-12-05T12:32:03.000Z</Time>
            <Position>
              <LatitudeDegrees>36.83587803505361080169677734375</LatitudeDegrees>
              <LongitudeDegrees>-4.3821761570870876312255859375</LongitudeDegrees>
            </Position>
            <AltitudeMeters>643</AltitudeMeters>
            <DistanceMeters>NAN</DistanceMeters>
          </Trackpoint>
          <Trackpoint>
            <Time>2020-12-05T12:32:04.000Z</Time>
            <Position>
              <LatitudeDegrees>36.83587065897881984710693359375</LatitudeDegrees>
              <LongitudeDegrees>-4.3821660988032817840576171875</LongitudeDegrees>
            </Position>
            <AltitudeMeters>643</AltitudeMeters>
            <DistanceMeters>NAN</DistanceMeters>
          </Trackpoint>
          <Trackpoint>
            <Time>2020-12-05T12:32:05.000Z</Time>
            <Position>
              <LatitudeDegrees>36.83586412109434604644775390625</LatitudeDegrees>
              <LongitudeDegrees>-4.3821568787097930908203125</LongitudeDegrees>
            </Position>
            <AltitudeMeters>643</AltitudeMeters>
            <DistanceMeters>NAN</DistanceMeters>
          </Trackpoint>
          <Trackpoint>
            <Time>2020-12-05T12:32:06.000Z</Time>
            <Position>
              <LatitudeDegrees>36.83585640974342823028564453125</LatitudeDegrees>
              <LongitudeDegrees>-4.3821459822356700897216796875</LongitudeDegrees>
            </Position>
            <AltitudeMeters>643</AltitudeMeters>
            <DistanceMeters>NAN</DistanceMeters>
          </Trackpoint>
          <Trackpoint>
            <Time>2020-12-05T12:32:07.000Z</Time>
            <Position>
              <LatitudeDegrees>36.8358507938683032989501953125</LatitudeDegrees>
              <LongitudeDegrees>-4.38213299028575420379638671875</LongitudeDegrees>
            </Position>
            <AltitudeMeters>643</AltitudeMeters>
            <DistanceMeters>NAN</DistanceMeters>
          </Trackpoint>
          <Trackpoint>
            <Time>2020-12-05T12:32:08.000Z</Time>
            <Position>
              <LatitudeDegrees>36.83584392070770263671875</LatitudeDegrees>
              <LongitudeDegrees>-4.3821218423545360565185546875</LongitudeDegrees>
            </Position>
            <AltitudeMeters>643</AltitudeMeters>
            <DistanceMeters>NAN</DistanceMeters>
          </Trackpoint>
          <Trackpoint>
            <Time>2020-12-05T12:32:09.000Z</Time>
            <Position>
              <LatitudeDegrees>36.835838221013545989990234375</LatitudeDegrees>
              <LongitudeDegrees>-4.3821101076900959014892578125</LongitudeDegrees>
            </Position>
            <AltitudeMeters>643</AltitudeMeters>
            <DistanceMeters>NAN</DistanceMeters>
          </Trackpoint>
          <Trackpoint>
            <Time>2020-12-05T12:32:10.000Z</Time>
            <Position>
              <LatitudeDegrees>36.83583386242389678955078125</LatitudeDegrees>
              <LongitudeDegrees>-4.38209510408341884613037109375</LongitudeDegrees>
            </Position>
            <AltitudeMeters>643</AltitudeMeters>
            <DistanceMeters>NAN</DistanceMeters>
          </Trackpoint>
          <Trackpoint>
            <Time>2020-12-05T12:32:11.000Z</Time>
            <Position>
              <LatitudeDegrees>36.83582874946296215057373046875</LatitudeDegrees>
              <LongitudeDegrees>-4.38208370469510555267333984375</LongitudeDegrees>
            </Position>
            <AltitudeMeters>643</AltitudeMeters>
            <DistanceMeters>NAN</DistanceMeters>
          </Trackpoint>
          <Trackpoint>
            <Time>2020-12-05T12:32:12.000Z</Time>
            <Position>
              <LatitudeDegrees>36.8358226306736469268798828125</LatitudeDegrees>
              <LongitudeDegrees>-4.38207515515387058258056640625</LongitudeDegrees>
            </Position>
            <AltitudeMeters>643</AltitudeMeters>
            <DistanceMeters>NAN</DistanceMeters>
          </Trackpoint>
          <Trackpoint>
            <Time>2020-12-05T12:32:13.000Z</Time>
            <Position>
              <LatitudeDegrees>36.83581399731338024139404296875</LatitudeDegrees>
              <LongitudeDegrees>-4.3820688687264919281005859375</LongitudeDegrees>
            </Position>
            <AltitudeMeters>643</AltitudeMeters>
            <DistanceMeters>NAN</DistanceMeters>
          </Trackpoint>
          <Trackpoint>
            <Time>2020-12-05T12:32:14.000Z</Time>
            <Position>
              <LatitudeDegrees>36.83580142445862293243408203125</LatitudeDegrees>
              <LongitudeDegrees>-4.38206492923200130462646484375</LongitudeDegrees>
            </Position>
            <AltitudeMeters>643</AltitudeMeters>
            <DistanceMeters>NAN</DistanceMeters>
          </Trackpoint>
          <Trackpoint>
            <Time>2020-12-05T12:32:15.000Z</Time>
            <Position>
              <LatitudeDegrees>36.8357880972325801849365234375</LatitudeDegrees>
              <LongitudeDegrees>-4.38206308521330356597900390625</LongitudeDegrees>
            </Position>
            <AltitudeMeters>643</AltitudeMeters>
            <DistanceMeters>NAN</DistanceMeters>
          </Trackpoint>
          <Trackpoint>
            <Time>2020-12-05T12:32:16.000Z</Time>
            <Position>
              <LatitudeDegrees>36.83577192015945911407470703125</LatitudeDegrees>
              <LongitudeDegrees>-4.38206124119460582733154296875</LongitudeDegrees>
            </Position>
            <AltitudeMeters>643</AltitudeMeters>
            <DistanceMeters>NAN</DistanceMeters>
          </Trackpoint>
          <Trackpoint>
            <Time>2020-12-05T12:32:17.000Z</Time>
            <Position>
              <LatitudeDegrees>36.8357545696198940277099609375</LatitudeDegrees>
              <LongitudeDegrees>-4.38205637969076633453369140625</LongitudeDegrees>
            </Position>
            <AltitudeMeters>643</AltitudeMeters>
            <DistanceMeters>NAN</DistanceMeters>
          </Trackpoint>
          <Trackpoint>
            <Time>2020-12-05T12:32:18.000Z</Time>
            <Position>
              <LatitudeDegrees>36.8357391469180583953857421875</LatitudeDegrees>
              <LongitudeDegrees>-4.3820517696440219879150390625</LongitudeDegrees>
            </Position>
            <AltitudeMeters>643</AltitudeMeters>
            <DistanceMeters>NAN</DistanceMeters>
          </Trackpoint>
          <Trackpoint>
            <Time>2020-12-05T12:32:19.000Z</Time>
            <Position>
              <LatitudeDegrees>36.8357250653207302093505859375</LatitudeDegrees>
              <LongitudeDegrees>-4.3820484168827533721923828125</LongitudeDegrees>
            </Position>
            <AltitudeMeters>643</AltitudeMeters>
            <DistanceMeters>NAN</DistanceMeters>
          </Trackpoint>
          <Trackpoint>
            <Time>2020-12-05T12:32:20.000Z</Time>
            <Position>
              <LatitudeDegrees>36.83571307919919490814208984375</LatitudeDegrees>
              <LongitudeDegrees>-4.382045567035675048828125</LongitudeDegrees>
            </Position>
            <AltitudeMeters>643</AltitudeMeters>
            <DistanceMeters>NAN</DistanceMeters>
          </Trackpoint>
          <Trackpoint>
            <Time>2020-12-05T12:32:21.000Z</Time>
            <Position>
              <LatitudeDegrees>36.83570117689669132232666015625</LatitudeDegrees>
              <LongitudeDegrees>-4.38203911297023296356201171875</LongitudeDegrees>
            </Position>
            <AltitudeMeters>643</AltitudeMeters>
            <DistanceMeters>NAN</DistanceMeters>
          </Trackpoint>
          <Trackpoint>
            <Time>2020-12-05T12:32:22.000Z</Time>
            <Position>
              <LatitudeDegrees>36.83568902313709259033203125</LatitudeDegrees>
              <LongitudeDegrees>-4.38203626312315464019775390625</LongitudeDegrees>
            </Position>
            <AltitudeMeters>643</AltitudeMeters>
            <DistanceMeters>NAN</DistanceMeters>
          </Trackpoint>
          <Trackpoint>
            <Time>2020-12-05T12:32:23.000Z</Time>
            <Position>
              <LatitudeDegrees>36.8356777913868427276611328125</LatitudeDegrees>
              <LongitudeDegrees>-4.3820340000092983245849609375</LongitudeDegrees>
            </Position>
            <AltitudeMeters>643</AltitudeMeters>
            <DistanceMeters>NAN</DistanceMeters>
          </Trackpoint>
          <Trackpoint>
            <Time>2020-12-05T12:32:24.000Z</Time>
            <Position>
              <LatitudeDegrees>36.83566697873175144195556640625</LatitudeDegrees>
              <LongitudeDegrees>-4.382029809057712554931640625</LongitudeDegrees>
            </Position>
            <AltitudeMeters>643</AltitudeMeters>
            <DistanceMeters>NAN</DistanceMeters>
          </Trackpoint>
          <Trackpoint>
            <Time>2020-12-05T12:32:25.000Z</Time>
            <Position>
              <LatitudeDegrees>36.8356539867818355560302734375</LatitudeDegrees>
              <LongitudeDegrees>-4.3820259533822536468505859375</LongitudeDegrees>
            </Position>
            <AltitudeMeters>643</AltitudeMeters>
            <DistanceMeters>NAN</DistanceMeters>
          </Trackpoint>
          <Trackpoint>
            <Time>2020-12-05T12:32:26.000Z</Time>
            <Position>
              <LatitudeDegrees>36.8356405757367610931396484375</LatitudeDegrees>
              <LongitudeDegrees>-4.3820226006209850311279296875</LongitudeDegrees>
            </Position>
            <AltitudeMeters>643</AltitudeMeters>
            <DistanceMeters>NAN</DistanceMeters>
          </Trackpoint>
          <Trackpoint>
            <Time>2020-12-05T12:32:27.000Z</Time>
            <Position>
              <LatitudeDegrees>36.83562825433909893035888671875</LatitudeDegrees>
              <LongitudeDegrees>-4.38201765529811382293701171875</LongitudeDegrees>
            </Position>
            <AltitudeMeters>643</AltitudeMeters>
            <DistanceMeters>NAN</DistanceMeters>
          </Trackpoint>
          <Trackpoint>
            <Time>2020-12-05T12:32:28.000Z</Time>
            <Position>
              <LatitudeDegrees>36.83561685495078563690185546875</LatitudeDegrees>
              <LongitudeDegrees>-4.38201581127941608428955078125</LongitudeDegrees>
            </Position>
            <AltitudeMeters>643</AltitudeMeters>
            <DistanceMeters>NAN</DistanceMeters>
          </Trackpoint>
          <Trackpoint>
            <Time>2020-12-05T12:32:29.000Z</Time>
            <Position>
              <LatitudeDegrees>36.8356036953628063201904296875</LatitudeDegrees>
              <LongitudeDegrees>-4.38201379962265491485595703125</LongitudeDegrees>
            </Position>
            <AltitudeMeters>643</AltitudeMeters>
            <DistanceMeters>NAN</DistanceMeters>
          </Trackpoint>
          <Trackpoint>
            <Time>2020-12-05T12:32:30.000Z</Time>
            <Position>
              <LatitudeDegrees>36.8355946429073810577392578125</LatitudeDegrees>
              <LongitudeDegrees>-4.38201413489878177642822265625</LongitudeDegrees>
            </Position>
            <AltitudeMeters>643</AltitudeMeters>
            <DistanceMeters>NAN</DistanceMeters>
          </Trackpoint>
          <Trackpoint>
            <Time>2020-12-05T12:32:31.000Z</Time>
            <Position>
              <LatitudeDegrees>36.83558617718517780303955078125</LatitudeDegrees>
              <LongitudeDegrees>-4.38201606273651123046875</LongitudeDegrees>
            </Position>
            <AltitudeMeters>643</AltitudeMeters>
            <DistanceMeters>NAN</DistanceMeters>
          </Trackpoint>
          <Trackpoint>
            <Time>2020-12-05T12:32:32.000Z</Time>
            <Position>
              <LatitudeDegrees>36.8355768732726573944091796875</LatitudeDegrees>
              <LongitudeDegrees>-4.38201715238392353057861328125</LongitudeDegrees>
            </Position>
            <AltitudeMeters>643</AltitudeMeters>
            <DistanceMeters>NAN</DistanceMeters>
          </Trackpoint>
          <Trackpoint>
            <Time>2020-12-05T12:32:33.000Z</Time>
            <Position>
              <LatitudeDegrees>36.8355668149888515472412109375</LatitudeDegrees>
              <LongitudeDegrees>-4.382019080221652984619140625</LongitudeDegrees>
            </Position>
            <AltitudeMeters>643</AltitudeMeters>
            <DistanceMeters>NAN</DistanceMeters>
          </Trackpoint>
          <Trackpoint>
            <Time>2020-12-05T12:32:34.000Z</Time>
            <Position>
              <LatitudeDegrees>36.83555885218083858489990234375</LatitudeDegrees>
              <LongitudeDegrees>-4.38202033750712871551513671875</LongitudeDegrees>
            </Position>
            <AltitudeMeters>643</AltitudeMeters>
            <DistanceMeters>NAN</DistanceMeters>
          </Trackpoint>
          <Trackpoint>
            <Time>2020-12-05T12:32:35.000Z</Time>
            <Position>
              <LatitudeDegrees>36.8355483748018741607666015625</LatitudeDegrees>
              <LongitudeDegrees>-4.382021762430667877197265625</LongitudeDegrees>
            </Position>
            <AltitudeMeters>643</AltitudeMeters>
            <DistanceMeters>NAN</DistanceMeters>
          </Trackpoint>
          <Trackpoint>
            <Time>2020-12-05T12:32:36.000Z</Time>
            <Position>
              <LatitudeDegrees>36.83553881943225860595703125</LatitudeDegrees>
              <LongitudeDegrees>-4.38202586956322193145751953125</LongitudeDegrees>
            </Position>
            <AltitudeMeters>643</AltitudeMeters>
            <DistanceMeters>NAN</DistanceMeters>
          </Trackpoint>
          <Trackpoint>
            <Time>2020-12-05T12:32:37.000Z</Time>
            <Position>
              <LatitudeDegrees>36.8355312757194042205810546875</LatitudeDegrees>
              <LongitudeDegrees>-4.382029473781585693359375</LongitudeDegrees>
            </Position>
            <AltitudeMeters>643</AltitudeMeters>
            <DistanceMeters>NAN</DistanceMeters>
          </Trackpoint>
          <Trackpoint>
            <Time>2020-12-05T12:32:38.000Z</Time>
            <Position>
              <LatitudeDegrees>36.83552398346364498138427734375</LatitudeDegrees>
              <LongitudeDegrees>-4.38203148543834686279296875</LongitudeDegrees>
            </Position>
            <AltitudeMeters>643</AltitudeMeters>
            <DistanceMeters>NAN</DistanceMeters>
          </Trackpoint>
          <Trackpoint>
            <Time>2020-12-05T12:32:39.000Z</Time>
            <Position>
              <LatitudeDegrees>36.8355195410549640655517578125</LatitudeDegrees>
              <LongitudeDegrees>-4.38203274272382259368896484375</LongitudeDegrees>
            </Position>
            <AltitudeMeters>643</AltitudeMeters>
            <DistanceMeters>NAN</DistanceMeters>
          </Trackpoint>
          <Trackpoint>
            <Time>2020-12-05T12:32:40.000Z</Time>
            <Position>
              <LatitudeDegrees>36.8355158530175685882568359375</LatitudeDegrees>
              <LongitudeDegrees>-4.38203391619026660919189453125</LongitudeDegrees>
            </Position>
            <AltitudeMeters>643</AltitudeMeters>
            <DistanceMeters>NAN</DistanceMeters>
          </Trackpoint>
          <Trackpoint>
            <Time>2020-12-05T12:32:41.000Z</Time>
            <Position>
              <LatitudeDegrees>36.83550973422825336456298828125</LatitudeDegrees>
              <LongitudeDegrees>-4.38203793950378894805908203125</LongitudeDegrees>
            </Position>
            <AltitudeMeters>643</AltitudeMeters>
            <DistanceMeters>NAN</DistanceMeters>
          </Trackpoint>
          <Trackpoint>
            <Time>2020-12-05T12:32:42.000Z</Time>
            <Position>
              <LatitudeDegrees>36.83549850247800350189208984375</LatitudeDegrees>
              <LongitudeDegrees>-4.38204288482666015625</LongitudeDegrees>
            </Position>
            <AltitudeMeters>643</AltitudeMeters>
            <DistanceMeters>NAN</DistanceMeters>
          </Trackpoint>
          <Trackpoint>
            <Time>2020-12-05T12:32:43.000Z</Time>
            <Position>
              <LatitudeDegrees>36.8354873545467853546142578125</LatitudeDegrees>
              <LongitudeDegrees>-4.38204900361597537994384765625</LongitudeDegrees>
            </Position>
            <AltitudeMeters>643</AltitudeMeters>
            <DistanceMeters>NAN</DistanceMeters>
          </Trackpoint>
          <Trackpoint>
            <Time>2020-12-05T12:32:44.000Z</Time>
            <Position>
              <LatitudeDegrees>36.83547453023493289947509765625</LatitudeDegrees>
              <LongitudeDegrees>-4.38205705024302005767822265625</LongitudeDegrees>
            </Position>
            <AltitudeMeters>643</AltitudeMeters>
            <DistanceMeters>NAN</DistanceMeters>
          </Trackpoint>
          <Trackpoint>
            <Time>2020-12-05T12:32:45.000Z</Time>
            <Position>
              <LatitudeDegrees>36.83546178974211215972900390625</LatitudeDegrees>
              <LongitudeDegrees>-4.38206970691680908203125</LongitudeDegrees>
            </Position>
            <AltitudeMeters>643</AltitudeMeters>
            <DistanceMeters>NAN</DistanceMeters>
          </Trackpoint>
          <Trackpoint>
            <Time>2020-12-05T12:32:46.000Z</Time>
            <Position>
              <LatitudeDegrees>36.83544988743960857391357421875</LatitudeDegrees>
              <LongitudeDegrees>-4.38208135776221752166748046875</LongitudeDegrees>
            </Position>
            <AltitudeMeters>643</AltitudeMeters>
            <DistanceMeters>NAN</DistanceMeters>
          </Trackpoint>
          <Trackpoint>
            <Time>2020-12-05T12:32:47.000Z</Time>
            <Position>
              <LatitudeDegrees>36.83544167317450046539306640625</LatitudeDegrees>
              <LongitudeDegrees>-4.38208781182765960693359375</LongitudeDegrees>
            </Position>
            <AltitudeMeters>643</AltitudeMeters>
            <DistanceMeters>NAN</DistanceMeters>
          </Trackpoint>
          <Trackpoint>
            <Time>2020-12-05T12:32:48.000Z</Time>
            <Position>
              <LatitudeDegrees>36.83543228544294834136962890625</LatitudeDegrees>
              <LongitudeDegrees>-4.38209309242665767669677734375</LongitudeDegrees>
            </Position>
            <AltitudeMeters>643</AltitudeMeters>
            <DistanceMeters>NAN</DistanceMeters>
          </Trackpoint>
          <Trackpoint>
            <Time>2020-12-05T12:32:49.000Z</Time>
            <Position>
              <LatitudeDegrees>36.8354189582169055938720703125</LatitudeDegrees>
              <LongitudeDegrees>-4.38209912739694118499755859375</LongitudeDegrees>
            </Position>
            <AltitudeMeters>643</AltitudeMeters>
            <DistanceMeters>NAN</DistanceMeters>
          </Trackpoint>
          <Trackpoint>
            <Time>2020-12-05T12:32:50.000Z</Time>
            <Position>
              <LatitudeDegrees>36.835406720638275146484375</LatitudeDegrees>
              <LongitudeDegrees>-4.38210658729076385498046875</LongitudeDegrees>
            </Position>
            <AltitudeMeters>643</AltitudeMeters>
            <DistanceMeters>NAN</DistanceMeters>
          </Trackpoint>
          <Trackpoint>
            <Time>2020-12-05T12:32:51.000Z</Time>
            <Position>
              <LatitudeDegrees>36.83539356105029582977294921875</LatitudeDegrees>
              <LongitudeDegrees>-4.38210952095687389373779296875</LongitudeDegrees>
            </Position>
            <AltitudeMeters>643</AltitudeMeters>
            <DistanceMeters>NAN</DistanceMeters>
          </Trackpoint>
          <Trackpoint>
            <Time>2020-12-05T12:32:52.000Z</Time>
            <Position>
              <LatitudeDegrees>36.83537964709103107452392578125</LatitudeDegrees>
              <LongitudeDegrees>-4.382113628089427947998046875</LongitudeDegrees>
            </Position>
            <AltitudeMeters>643</AltitudeMeters>
            <DistanceMeters>NAN</DistanceMeters>
          </Trackpoint>
          <Trackpoint>
            <Time>2020-12-05T12:32:53.000Z</Time>
            <Position>
              <LatitudeDegrees>36.83536757715046405792236328125</LatitudeDegrees>
              <LongitudeDegrees>-4.3821179866790771484375</LongitudeDegrees>
            </Position>
            <AltitudeMeters>643</AltitudeMeters>
            <DistanceMeters>NAN</DistanceMeters>
          </Trackpoint>
          <Trackpoint>
            <Time>2020-12-05T12:32:54.000Z</Time>
            <Position>
              <LatitudeDegrees>36.8353555910289287567138671875</LatitudeDegrees>
              <LongitudeDegrees>-4.38212343491613864898681640625</LongitudeDegrees>
            </Position>
            <AltitudeMeters>643</AltitudeMeters>
            <DistanceMeters>NAN</DistanceMeters>
          </Trackpoint>
          <Trackpoint>
            <Time>2020-12-05T12:32:55.000Z</Time>
            <Position>
              <LatitudeDegrees>36.83534310199320316314697265625</LatitudeDegrees>
              <LongitudeDegrees>-4.38212695531547069549560546875</LongitudeDegrees>
            </Position>
            <AltitudeMeters>643</AltitudeMeters>
            <DistanceMeters>NAN</DistanceMeters>
          </Trackpoint>
          <Trackpoint>
            <Time>2020-12-05T12:32:56.000Z</Time>
            <Position>
              <LatitudeDegrees>36.83533069677650928497314453125</LatitudeDegrees>
              <LongitudeDegrees>-4.38213097862899303436279296875</LongitudeDegrees>
            </Position>
            <AltitudeMeters>643</AltitudeMeters>
            <DistanceMeters>NAN</DistanceMeters>
          </Trackpoint>
          <Trackpoint>
            <Time>2020-12-05T12:32:57.000Z</Time>
            <Position>
              <LatitudeDegrees>36.83531896211206912994384765625</LatitudeDegrees>
              <LongitudeDegrees>-4.3821355886757373809814453125</LongitudeDegrees>
            </Position>
            <AltitudeMeters>643</AltitudeMeters>
            <DistanceMeters>NAN</DistanceMeters>
          </Trackpoint>
          <Trackpoint>
            <Time>2020-12-05T12:32:58.000Z</Time>
            <Position>
              <LatitudeDegrees>36.83530689217150211334228515625</LatitudeDegrees>
              <LongitudeDegrees>-4.382141120731830596923828125</LongitudeDegrees>
            </Position>
            <AltitudeMeters>643</AltitudeMeters>
            <DistanceMeters>NAN</DistanceMeters>
          </Trackpoint>
          <Trackpoint>
            <Time>2020-12-05T12:32:59.000Z</Time>
            <Position>
              <LatitudeDegrees>36.835296414792537689208984375</LatitudeDegrees>
              <LongitudeDegrees>-4.38214673660695552825927734375</LongitudeDegrees>
            </Position>
            <AltitudeMeters>643</AltitudeMeters>
            <DistanceMeters>NAN</DistanceMeters>
          </Trackpoint>
          <Trackpoint>
            <Time>2020-12-05T12:33:00.000Z</Time>
            <Position>
              <LatitudeDegrees>36.83528560213744640350341796875</LatitudeDegrees>
              <LongitudeDegrees>-4.38215243630111217498779296875</LongitudeDegrees>
            </Position>
            <AltitudeMeters>649.5999755859375</AltitudeMeters>
            <DistanceMeters>NAN</DistanceMeters>
          </Trackpoint>
          <Trackpoint>
            <Time>2020-12-05T12:33:01.000Z</Time>
            <Position>
              <LatitudeDegrees>36.83527504093945026397705078125</LatitudeDegrees>
              <LongitudeDegrees>-4.38215897418558597564697265625</LongitudeDegrees>
            </Position>
            <AltitudeMeters>649.5999755859375</AltitudeMeters>
            <DistanceMeters>NAN</DistanceMeters>
          </Trackpoint>
          <Trackpoint>
            <Time>2020-12-05T12:33:02.000Z</Time>
            <Position>
              <LatitudeDegrees>36.8352633900940418243408203125</LatitudeDegrees>
              <LongitudeDegrees>-4.3821654282510280609130859375</LongitudeDegrees>
            </Position>
            <AltitudeMeters>649.5999755859375</AltitudeMeters>
            <DistanceMeters>NAN</DistanceMeters>
          </Trackpoint>
          <Trackpoint>
            <Time>2020-12-05T12:33:03.000Z</Time>
            <Position>
              <LatitudeDegrees>36.83525341562926769256591796875</LatitudeDegrees>
              <LongitudeDegrees>-4.3821714632213115692138671875</LongitudeDegrees>
            </Position>
            <AltitudeMeters>649.5999755859375</AltitudeMeters>
            <DistanceMeters>NAN</DistanceMeters>
          </Trackpoint>
          <Trackpoint>
            <Time>2020-12-05T12:33:04.000Z</Time>
            <Position>
              <LatitudeDegrees>36.8352446146309375762939453125</LatitudeDegrees>
              <LongitudeDegrees>-4.38217674382030963897705078125</LongitudeDegrees>
            </Position>
            <AltitudeMeters>649.5999755859375</AltitudeMeters>
            <DistanceMeters>NAN</DistanceMeters>
          </Trackpoint>
          <Trackpoint>
            <Time>2020-12-05T12:33:05.000Z</Time>
            <Position>
              <LatitudeDegrees>36.8352355621755123138427734375</LatitudeDegrees>
              <LongitudeDegrees>-4.3821791745722293853759765625</LongitudeDegrees>
            </Position>
            <AltitudeMeters>649.5999755859375</AltitudeMeters>
            <DistanceMeters>NAN</DistanceMeters>
          </Trackpoint>
          <Trackpoint>
            <Time>2020-12-05T12:33:06.000Z</Time>
            <Position>
              <LatitudeDegrees>36.83522902429103851318359375</LatitudeDegrees>
              <LongitudeDegrees>-4.38218571245670318603515625</LongitudeDegrees>
            </Position>
            <AltitudeMeters>649.5999755859375</AltitudeMeters>
            <DistanceMeters>NAN</DistanceMeters>
          </Trackpoint>
          <Trackpoint>
            <Time>2020-12-05T12:33:07.000Z</Time>
            <Position>
              <LatitudeDegrees>36.83522223494946956634521484375</LatitudeDegrees>
              <LongitudeDegrees>-4.38218948431313037872314453125</LongitudeDegrees>
            </Position>
            <AltitudeMeters>649.5999755859375</AltitudeMeters>
            <DistanceMeters>NAN</DistanceMeters>
          </Trackpoint>
          <Trackpoint>
            <Time>2020-12-05T12:33:08.000Z</Time>
            <Position>
              <LatitudeDegrees>36.83521636761724948883056640625</LatitudeDegrees>
              <LongitudeDegrees>-4.38219116069376468658447265625</LongitudeDegrees>
            </Position>
            <AltitudeMeters>649.5999755859375</AltitudeMeters>
            <DistanceMeters>NAN</DistanceMeters>
          </Trackpoint>
          <Trackpoint>
            <Time>2020-12-05T12:33:09.000Z</Time>
            <Position>
              <LatitudeDegrees>36.835211254656314849853515625</LatitudeDegrees>
              <LongitudeDegrees>-4.3821944296360015869140625</LongitudeDegrees>
            </Position>
            <AltitudeMeters>649.5999755859375</AltitudeMeters>
            <DistanceMeters>NAN</DistanceMeters>
          </Trackpoint>
          <Trackpoint>
            <Time>2020-12-05T12:33:10.000Z</Time>
            <Position>
              <LatitudeDegrees>36.83520446531474590301513671875</LatitudeDegrees>
              <LongitudeDegrees>-4.38220021314918994903564453125</LongitudeDegrees>
            </Position>
            <AltitudeMeters>649.5999755859375</AltitudeMeters>
            <DistanceMeters>NAN</DistanceMeters>
          </Trackpoint>
          <Trackpoint>
            <Time>2020-12-05T12:33:11.000Z</Time>
            <Position>
              <LatitudeDegrees>36.83519876562058925628662109375</LatitudeDegrees>
              <LongitudeDegrees>-4.3822026439011096954345703125</LongitudeDegrees>
            </Position>
            <AltitudeMeters>649.5999755859375</AltitudeMeters>
            <DistanceMeters>NAN</DistanceMeters>
          </Trackpoint>
          <Trackpoint>
            <Time>2020-12-05T12:33:12.000Z</Time>
            <Position>
              <LatitudeDegrees>36.83518946170806884765625</LatitudeDegrees>
              <LongitudeDegrees>-4.38220314681529998779296875</LongitudeDegrees>
            </Position>
            <AltitudeMeters>649.5999755859375</AltitudeMeters>
            <DistanceMeters>NAN</DistanceMeters>
          </Trackpoint>
          <Trackpoint>
            <Time>2020-12-05T12:33:13.000Z</Time>
            <Position>
              <LatitudeDegrees>36.83517999015748500823974609375</LatitudeDegrees>
              <LongitudeDegrees>-4.38221228308975696563720703125</LongitudeDegrees>
            </Position>
            <AltitudeMeters>649.5999755859375</AltitudeMeters>
            <DistanceMeters>NAN</DistanceMeters>
          </Trackpoint>
          <Trackpoint>
            <Time>2020-12-05T12:33:14.000Z</Time>
            <Position>
              <LatitudeDegrees>36.83516942895948886871337890625</LatitudeDegrees>
              <LongitudeDegrees>-4.38221915625035762786865234375</LongitudeDegrees>
            </Position>
            <AltitudeMeters>649.5999755859375</AltitudeMeters>
            <DistanceMeters>NAN</DistanceMeters>
          </Trackpoint>
          <Trackpoint>
            <Time>2020-12-05T12:33:15.000Z</Time>
            <Position>
              <LatitudeDegrees>36.8351564370095729827880859375</LatitudeDegrees>
              <LongitudeDegrees>-4.382226951420307159423828125</LongitudeDegrees>
            </Position>
            <AltitudeMeters>649.5999755859375</AltitudeMeters>
            <DistanceMeters>NAN</DistanceMeters>
          </Trackpoint>
          <Trackpoint>
            <Time>2020-12-05T12:33:16.000Z</Time>
            <Position>
              <LatitudeDegrees>36.83514294214546680450439453125</LatitudeDegrees>
              <LongitudeDegrees>-4.3822351656854152679443359375</LongitudeDegrees>
            </Position>
            <AltitudeMeters>649.5999755859375</AltitudeMeters>
            <DistanceMeters>NAN</DistanceMeters>
          </Trackpoint>
          <Trackpoint>
            <Time>2020-12-05T12:33:17.000Z</Time>
            <Position>
              <LatitudeDegrees>36.83512668125331401824951171875</LatitudeDegrees>
              <LongitudeDegrees>-4.38224430195987224578857421875</LongitudeDegrees>
            </Position>
            <AltitudeMeters>649.5999755859375</AltitudeMeters>
            <DistanceMeters>NAN</DistanceMeters>
          </Trackpoint>
          <Trackpoint>
            <Time>2020-12-05T12:33:18.000Z</Time>
            <Position>
              <LatitudeDegrees>36.83511327020823955535888671875</LatitudeDegrees>
              <LongitudeDegrees>-4.382255114614963531494140625</LongitudeDegrees>
            </Position>
            <AltitudeMeters>649.5999755859375</AltitudeMeters>
            <DistanceMeters>NAN</DistanceMeters>
          </Trackpoint>
          <Trackpoint>
            <Time>2020-12-05T12:33:19.000Z</Time>
            <Position>
              <LatitudeDegrees>36.83510354720056056976318359375</LatitudeDegrees>
              <LongitudeDegrees>-4.3822636641561985015869140625</LongitudeDegrees>
            </Position>
            <AltitudeMeters>649.5999755859375</AltitudeMeters>
            <DistanceMeters>NAN</DistanceMeters>
          </Trackpoint>
          <Trackpoint>
            <Time>2020-12-05T12:33:20.000Z</Time>
            <Position>
              <LatitudeDegrees>36.83509483002126216888427734375</LatitudeDegrees>
              <LongitudeDegrees>-4.38226995058357715606689453125</LongitudeDegrees>
            </Position>
            <AltitudeMeters>649.5999755859375</AltitudeMeters>
            <DistanceMeters>NAN</DistanceMeters>
          </Trackpoint>
          <Trackpoint>
            <Time>2020-12-05T12:33:21.000Z</Time>
            <Position>
              <LatitudeDegrees>36.83508577756583690643310546875</LatitudeDegrees>
              <LongitudeDegrees>-4.38227430917322635650634765625</LongitudeDegrees>
            </Position>
            <AltitudeMeters>649.5999755859375</AltitudeMeters>
            <DistanceMeters>NAN</DistanceMeters>
          </Trackpoint>
          <Trackpoint>
            <Time>2020-12-05T12:33:22.000Z</Time>
            <Position>
              <LatitudeDegrees>36.83507479727268218994140625</LatitudeDegrees>
              <LongitudeDegrees>-4.38228051178157329559326171875</LongitudeDegrees>
            </Position>
            <AltitudeMeters>649.5999755859375</AltitudeMeters>
            <DistanceMeters>NAN</DistanceMeters>
          </Trackpoint>
          <Trackpoint>
            <Time>2020-12-05T12:33:23.000Z</Time>
            <Position>
              <LatitudeDegrees>36.8350645713508129119873046875</LatitudeDegrees>
              <LongitudeDegrees>-4.38228763639926910400390625</LongitudeDegrees>
            </Position>
            <AltitudeMeters>649.5999755859375</AltitudeMeters>
            <DistanceMeters>NAN</DistanceMeters>
          </Trackpoint>
          <Trackpoint>
            <Time>2020-12-05T12:33:24.000Z</Time>
            <Position>
              <LatitudeDegrees>36.835052669048309326171875</LatitudeDegrees>
              <LongitudeDegrees>-4.38229224644601345062255859375</LongitudeDegrees>
            </Position>
            <AltitudeMeters>649.5999755859375</AltitudeMeters>
            <DistanceMeters>NAN</DistanceMeters>
          </Trackpoint>
          <Trackpoint>
            <Time>2020-12-05T12:33:25.000Z</Time>
            <Position>
              <LatitudeDegrees>36.835040934383869171142578125</LatitudeDegrees>
              <LongitudeDegrees>-4.38230129890143871307373046875</LongitudeDegrees>
            </Position>
            <AltitudeMeters>649.5999755859375</AltitudeMeters>
            <DistanceMeters>NAN</DistanceMeters>
          </Trackpoint>
          <Trackpoint>
            <Time>2020-12-05T12:33:26.000Z</Time>
            <Position>
              <LatitudeDegrees>36.83502777479588985443115234375</LatitudeDegrees>
              <LongitudeDegrees>-4.3823106028139591217041015625</LongitudeDegrees>
            </Position>
            <AltitudeMeters>649.5999755859375</AltitudeMeters>
            <DistanceMeters>NAN</DistanceMeters>
          </Trackpoint>
          <Trackpoint>
            <Time>2020-12-05T12:33:27.000Z</Time>
            <Position>
              <LatitudeDegrees>36.835015118122100830078125</LatitudeDegrees>
              <LongitudeDegrees>-4.382321499288082122802734375</LongitudeDegrees>
            </Position>
            <AltitudeMeters>649.5999755859375</AltitudeMeters>
            <DistanceMeters>NAN</DistanceMeters>
          </Trackpoint>
          <Trackpoint>
            <Time>2020-12-05T12:33:28.000Z</Time>
            <Position>
              <LatitudeDegrees>36.835001371800899505615234375</LatitudeDegrees>
              <LongitudeDegrees>-4.3823285400867462158203125</LongitudeDegrees>
            </Position>
            <AltitudeMeters>649.5999755859375</AltitudeMeters>
            <DistanceMeters>NAN</DistanceMeters>
          </Trackpoint>
          <Trackpoint>
            <Time>2020-12-05T12:33:29.000Z</Time>
            <Position>
              <LatitudeDegrees>36.8349908106029033660888671875</LatitudeDegrees>
              <LongitudeDegrees>-4.3823337368667125701904296875</LongitudeDegrees>
            </Position>
            <AltitudeMeters>649.5999755859375</AltitudeMeters>
            <DistanceMeters>NAN</DistanceMeters>
          </Trackpoint>
          <Trackpoint>
            <Time>2020-12-05T12:33:30.000Z</Time>
            <Position>
              <LatitudeDegrees>36.834980584681034088134765625</LatitudeDegrees>
              <LongitudeDegrees>-4.38233851455152034759521484375</LongitudeDegrees>
            </Position>
            <AltitudeMeters>649.5999755859375</AltitudeMeters>
            <DistanceMeters>NAN</DistanceMeters>
          </Trackpoint>
          <Trackpoint>
            <Time>2020-12-05T12:33:31.000Z</Time>
            <Position>
              <LatitudeDegrees>36.83497329242527484893798828125</LatitudeDegrees>
              <LongitudeDegrees>-4.382348321378231048583984375</LongitudeDegrees>
            </Position>
            <AltitudeMeters>649.5999755859375</AltitudeMeters>
            <DistanceMeters>NAN</DistanceMeters>
          </Trackpoint>
          <Trackpoint>
            <Time>2020-12-05T12:33:32.000Z</Time>
            <Position>
              <LatitudeDegrees>36.83496658690273761749267578125</LatitudeDegrees>
              <LongitudeDegrees>-4.38235871493816375732421875</LongitudeDegrees>
            </Position>
            <AltitudeMeters>649.5999755859375</AltitudeMeters>
            <DistanceMeters>NAN</DistanceMeters>
          </Trackpoint>
          <Trackpoint>
            <Time>2020-12-05T12:33:33.000Z</Time>
            <Position>
              <LatitudeDegrees>36.8349589593708515167236328125</LatitudeDegrees>
              <LongitudeDegrees>-4.3823635764420032501220703125</LongitudeDegrees>
            </Position>
            <AltitudeMeters>649.5999755859375</AltitudeMeters>
            <DistanceMeters>NAN</DistanceMeters>
          </Trackpoint>
          <Trackpoint>
            <Time>2020-12-05T12:33:34.000Z</Time>
            <Position>
              <LatitudeDegrees>36.8349512480199337005615234375</LatitudeDegrees>
              <LongitudeDegrees>-4.38236852176487445831298828125</LongitudeDegrees>
            </Position>
            <AltitudeMeters>649.5999755859375</AltitudeMeters>
            <DistanceMeters>NAN</DistanceMeters>
          </Trackpoint>
          <Trackpoint>
            <Time>2020-12-05T12:33:35.000Z</Time>
            <Position>
              <LatitudeDegrees>36.83494160883128643035888671875</LatitudeDegrees>
              <LongitudeDegrees>-4.38237254507839679718017578125</LongitudeDegrees>
            </Position>
            <AltitudeMeters>649.5999755859375</AltitudeMeters>
            <DistanceMeters>NAN</DistanceMeters>
          </Trackpoint>
          <Trackpoint>
            <Time>2020-12-05T12:33:36.000Z</Time>
            <Position>
              <LatitudeDegrees>36.83493129909038543701171875</LatitudeDegrees>
              <LongitudeDegrees>-4.382377155125141143798828125</LongitudeDegrees>
            </Position>
            <AltitudeMeters>649.5999755859375</AltitudeMeters>
            <DistanceMeters>NAN</DistanceMeters>
          </Trackpoint>
          <Trackpoint>
            <Time>2020-12-05T12:33:37.000Z</Time>
            <Position>
              <LatitudeDegrees>36.8349210731685161590576171875</LatitudeDegrees>
              <LongitudeDegrees>-4.38238042406737804412841796875</LongitudeDegrees>
            </Position>
            <AltitudeMeters>649.5999755859375</AltitudeMeters>
            <DistanceMeters>NAN</DistanceMeters>
          </Trackpoint>
          <Trackpoint>
            <Time>2020-12-05T12:33:38.000Z</Time>
            <Position>
              <LatitudeDegrees>36.83490875177085399627685546875</LatitudeDegrees>
              <LongitudeDegrees>-4.382385872304439544677734375</LongitudeDegrees>
            </Position>
            <AltitudeMeters>649.5999755859375</AltitudeMeters>
            <DistanceMeters>NAN</DistanceMeters>
          </Trackpoint>
          <Trackpoint>
            <Time>2020-12-05T12:33:39.000Z</Time>
            <Position>
              <LatitudeDegrees>36.834896095097064971923828125</LatitudeDegrees>
              <LongitudeDegrees>-4.3823914043605327606201171875</LongitudeDegrees>
            </Position>
            <AltitudeMeters>649.5999755859375</AltitudeMeters>
            <DistanceMeters>NAN</DistanceMeters>
          </Trackpoint>
          <Trackpoint>
            <Time>2020-12-05T12:33:40.000Z</Time>
            <Position>
              <LatitudeDegrees>36.8348828516900539398193359375</LatitudeDegrees>
              <LongitudeDegrees>-4.38239685259759426116943359375</LongitudeDegrees>
            </Position>
            <AltitudeMeters>649.5999755859375</AltitudeMeters>
            <DistanceMeters>NAN</DistanceMeters>
          </Trackpoint>
          <Trackpoint>
            <Time>2020-12-05T12:33:41.000Z</Time>
            <Position>
              <LatitudeDegrees>36.83487338013947010040283203125</LatitudeDegrees>
              <LongitudeDegrees>-4.38239869661629199981689453125</LongitudeDegrees>
            </Position>
            <AltitudeMeters>649.5999755859375</AltitudeMeters>
            <DistanceMeters>NAN</DistanceMeters>
          </Trackpoint>
          <Trackpoint>
            <Time>2020-12-05T12:33:42.000Z</Time>
            <Position>
              <LatitudeDegrees>36.8348637409508228302001953125</LatitudeDegrees>
              <LongitudeDegrees>-4.38239852897822856903076171875</LongitudeDegrees>
            </Position>
            <AltitudeMeters>649.5999755859375</AltitudeMeters>
            <DistanceMeters>NAN</DistanceMeters>
          </Trackpoint>
          <Trackpoint>
            <Time>2020-12-05T12:33:43.000Z</Time>
            <Position>
              <LatitudeDegrees>36.8348520062863826751708984375</LatitudeDegrees>
              <LongitudeDegrees>-4.38240230083465576171875</LongitudeDegrees>
            </Position>
            <AltitudeMeters>649.5999755859375</AltitudeMeters>
            <DistanceMeters>NAN</DistanceMeters>
          </Trackpoint>
          <Trackpoint>
            <Time>2020-12-05T12:33:44.000Z</Time>
            <Position>
              <LatitudeDegrees>36.8348406068980693817138671875</LatitudeDegrees>
              <LongitudeDegrees>-4.38240590505301952362060546875</LongitudeDegrees>
            </Position>
            <AltitudeMeters>649.5999755859375</AltitudeMeters>
            <DistanceMeters>NAN</DistanceMeters>
          </Trackpoint>
          <Trackpoint>
            <Time>2020-12-05T12:33:45.000Z</Time>
            <Position>
              <LatitudeDegrees>36.834831051528453826904296875</LatitudeDegrees>
              <LongitudeDegrees>-4.38240925781428813934326171875</LongitudeDegrees>
            </Position>
            <AltitudeMeters>649.5999755859375</AltitudeMeters>
            <DistanceMeters>NAN</DistanceMeters>
          </Trackpoint>
          <Trackpoint>
            <Time>2020-12-05T12:33:46.000Z</Time>
            <Position>
              <LatitudeDegrees>36.8348201550543308258056640625</LatitudeDegrees>
              <LongitudeDegrees>-4.3824115209281444549560546875</LongitudeDegrees>
            </Position>
            <AltitudeMeters>649.5999755859375</AltitudeMeters>
            <DistanceMeters>NAN</DistanceMeters>
          </Trackpoint>
          <Trackpoint>
            <Time>2020-12-05T12:33:47.000Z</Time>
            <Position>
              <LatitudeDegrees>36.83480984531342983245849609375</LatitudeDegrees>
              <LongitudeDegrees>-4.382406659424304962158203125</LongitudeDegrees>
            </Position>
            <AltitudeMeters>649.5999755859375</AltitudeMeters>
            <DistanceMeters>NAN</DistanceMeters>
          </Trackpoint>
          <Trackpoint>
            <Time>2020-12-05T12:33:48.000Z</Time>
            <Position>
              <LatitudeDegrees>36.8348003737628459930419921875</LatitudeDegrees>
              <LongitudeDegrees>-4.3824063241481781005859375</LongitudeDegrees>
            </Position>
            <AltitudeMeters>649.5999755859375</AltitudeMeters>
            <DistanceMeters>NAN</DistanceMeters>
          </Trackpoint>
          <Trackpoint>
            <Time>2020-12-05T12:33:49.000Z</Time>
            <Position>
              <LatitudeDegrees>36.83479006402194499969482421875</LatitudeDegrees>
              <LongitudeDegrees>-4.38240305520594120025634765625</LongitudeDegrees>
            </Position>
            <AltitudeMeters>649.5999755859375</AltitudeMeters>
            <DistanceMeters>NAN</DistanceMeters>
          </Trackpoint>
          <Trackpoint>
            <Time>2020-12-05T12:33:50.000Z</Time>
            <Position>
              <LatitudeDegrees>36.8347772397100925445556640625</LatitudeDegrees>
              <LongitudeDegrees>-4.3824031390249729156494140625</LongitudeDegrees>
            </Position>
            <AltitudeMeters>649.5999755859375</AltitudeMeters>
            <DistanceMeters>NAN</DistanceMeters>
          </Trackpoint>
          <Trackpoint>
            <Time>2020-12-05T12:33:51.000Z</Time>
            <Position>
              <LatitudeDegrees>36.8347665108740329742431640625</LatitudeDegrees>
              <LongitudeDegrees>-4.3824064917862415313720703125</LongitudeDegrees>
            </Position>
            <AltitudeMeters>649.5999755859375</AltitudeMeters>
            <DistanceMeters>NAN</DistanceMeters>
          </Trackpoint>
          <Trackpoint>
            <Time>2020-12-05T12:33:52.000Z</Time>
            <Position>
              <LatitudeDegrees>36.834759972989559173583984375</LatitudeDegrees>
              <LongitudeDegrees>-4.3824098445475101470947265625</LongitudeDegrees>
            </Position>
            <AltitudeMeters>649.5999755859375</AltitudeMeters>
            <DistanceMeters>NAN</DistanceMeters>
          </Trackpoint>
          <Trackpoint>
            <Time>2020-12-05T12:33:53.000Z</Time>
            <Position>
              <LatitudeDegrees>36.8347534351050853729248046875</LatitudeDegrees>
              <LongitudeDegrees>-4.38241663388907909393310546875</LongitudeDegrees>
            </Position>
            <AltitudeMeters>649.5999755859375</AltitudeMeters>
            <DistanceMeters>NAN</DistanceMeters>
          </Trackpoint>
          <Trackpoint>
            <Time>2020-12-05T12:33:54.000Z</Time>
            <Position>
              <LatitudeDegrees>36.83474748395383358001708984375</LatitudeDegrees>
              <LongitudeDegrees>-4.38242468051612377166748046875</LongitudeDegrees>
            </Position>
            <AltitudeMeters>649.5999755859375</AltitudeMeters>
            <DistanceMeters>NAN</DistanceMeters>
          </Trackpoint>
          <Trackpoint>
            <Time>2020-12-05T12:33:55.000Z</Time>
            <Position>
              <LatitudeDegrees>36.83474262244999408721923828125</LatitudeDegrees>
              <LongitudeDegrees>-4.38242937438189983367919921875</LongitudeDegrees>
            </Position>
            <AltitudeMeters>649.5999755859375</AltitudeMeters>
            <DistanceMeters>NAN</DistanceMeters>
          </Trackpoint>
          <Trackpoint>
            <Time>2020-12-05T12:33:56.000Z</Time>
            <Position>
              <LatitudeDegrees>36.83473440818488597869873046875</LatitudeDegrees>
              <LongitudeDegrees>-4.38243591226637363433837890625</LongitudeDegrees>
            </Position>
            <AltitudeMeters>649.5999755859375</AltitudeMeters>
            <DistanceMeters>NAN</DistanceMeters>
          </Trackpoint>
          <Trackpoint>
            <Time>2020-12-05T12:33:57.000Z</Time>
            <Position>
              <LatitudeDegrees>36.83472736738622188568115234375</LatitudeDegrees>
              <LongitudeDegrees>-4.38243892975151538848876953125</LongitudeDegrees>
            </Position>
            <AltitudeMeters>649.5999755859375</AltitudeMeters>
            <DistanceMeters>NAN</DistanceMeters>
          </Trackpoint>
          <Trackpoint>
            <Time>2020-12-05T12:33:58.000Z</Time>
            <Position>
              <LatitudeDegrees>36.834720075130462646484375</LatitudeDegrees>
              <LongitudeDegrees>-4.38244161196053028106689453125</LongitudeDegrees>
            </Position>
            <AltitudeMeters>649.5999755859375</AltitudeMeters>
            <DistanceMeters>NAN</DistanceMeters>
          </Trackpoint>
          <Trackpoint>
            <Time>2020-12-05T12:33:59.000Z</Time>
            <Position>
              <LatitudeDegrees>36.834711693227291107177734375</LatitudeDegrees>
              <LongitudeDegrees>-4.38245032913982868194580078125</LongitudeDegrees>
            </Position>
            <AltitudeMeters>649.5999755859375</AltitudeMeters>
            <DistanceMeters>NAN</DistanceMeters>
          </Trackpoint>
          <Trackpoint>
            <Time>2020-12-05T12:34:00.000Z</Time>
            <Position>
              <LatitudeDegrees>36.8347061611711978912353515625</LatitudeDegrees>
              <LongitudeDegrees>-4.38246038742363452911376953125</LongitudeDegrees>
            </Position>
            <AltitudeMeters>655.4000244140625</AltitudeMeters>
            <DistanceMeters>NAN</DistanceMeters>
          </Trackpoint>
          <Trackpoint>
            <Time>2020-12-05T12:34:01.000Z</Time>
            <Position>
              <LatitudeDegrees>36.834698952734470367431640625</LatitudeDegrees>
              <LongitudeDegrees>-4.38247262500226497650146484375</LongitudeDegrees>
            </Position>
            <AltitudeMeters>655.4000244140625</AltitudeMeters>
            <DistanceMeters>NAN</DistanceMeters>
          </Trackpoint>
          <Trackpoint>
            <Time>2020-12-05T12:34:02.000Z</Time>
            <Position>
              <LatitudeDegrees>36.8346897326409816741943359375</LatitudeDegrees>
              <LongitudeDegrees>-4.382484443485736846923828125</LongitudeDegrees>
            </Position>
            <AltitudeMeters>655.4000244140625</AltitudeMeters>
            <DistanceMeters>NAN</DistanceMeters>
          </Trackpoint>
          <Trackpoint>
            <Time>2020-12-05T12:34:03.000Z</Time>
            <Position>
              <LatitudeDegrees>36.834683530032634735107421875</LatitudeDegrees>
              <LongitudeDegrees>-4.38249592669308185577392578125</LongitudeDegrees>
            </Position>
            <AltitudeMeters>655.4000244140625</AltitudeMeters>
            <DistanceMeters>NAN</DistanceMeters>
          </Trackpoint>
          <Trackpoint>
            <Time>2020-12-05T12:34:04.000Z</Time>
            <Position>
              <LatitudeDegrees>36.83467674069106578826904296875</LatitudeDegrees>
              <LongitudeDegrees>-4.3825074099004268646240234375</LongitudeDegrees>
            </Position>
            <AltitudeMeters>655.4000244140625</AltitudeMeters>
            <DistanceMeters>NAN</DistanceMeters>
          </Trackpoint>
          <Trackpoint>
            <Time>2020-12-05T12:34:05.000Z</Time>
            <Position>
              <LatitudeDegrees>36.83466844260692596435546875</LatitudeDegrees>
              <LongitudeDegrees>-4.382517635822296142578125</LongitudeDegrees>
            </Position>
            <AltitudeMeters>655.4000244140625</AltitudeMeters>
            <DistanceMeters>NAN</DistanceMeters>
          </Trackpoint>
          <Trackpoint>
            <Time>2020-12-05T12:34:06.000Z</Time>
            <Position>
              <LatitudeDegrees>36.8346575461328029632568359375</LatitudeDegrees>
              <LongitudeDegrees>-4.3825216591358184814453125</LongitudeDegrees>
            </Position>
            <AltitudeMeters>655.4000244140625</AltitudeMeters>
            <DistanceMeters>NAN</DistanceMeters>
          </Trackpoint>
          <Trackpoint>
            <Time>2020-12-05T12:34:07.000Z</Time>
            <Position>
              <LatitudeDegrees>36.83465025387704372406005859375</LatitudeDegrees>
              <LongitudeDegrees>-4.38252501189708709716796875</LongitudeDegrees>
            </Position>
            <AltitudeMeters>655.4000244140625</AltitudeMeters>
            <DistanceMeters>NAN</DistanceMeters>
          </Trackpoint>
          <Trackpoint>
            <Time>2020-12-05T12:34:08.000Z</Time>
            <Position>
              <LatitudeDegrees>36.8346424587070941925048828125</LatitudeDegrees>
              <LongitudeDegrees>-4.38253062777221202850341796875</LongitudeDegrees>
            </Position>
            <AltitudeMeters>655.4000244140625</AltitudeMeters>
            <DistanceMeters>NAN</DistanceMeters>
          </Trackpoint>
          <Trackpoint>
            <Time>2020-12-05T12:34:09.000Z</Time>
            <Position>
              <LatitudeDegrees>36.83463466353714466094970703125</LatitudeDegrees>
              <LongitudeDegrees>-4.382536411285400390625</LongitudeDegrees>
            </Position>
            <AltitudeMeters>655.4000244140625</AltitudeMeters>
            <DistanceMeters>NAN</DistanceMeters>
          </Trackpoint>
          <Trackpoint>
            <Time>2020-12-05T12:34:10.000Z</Time>
            <Position>
              <LatitudeDegrees>36.8346270360052585601806640625</LatitudeDegrees>
              <LongitudeDegrees>-4.38254152424633502960205078125</LongitudeDegrees>
            </Position>
            <AltitudeMeters>655.4000244140625</AltitudeMeters>
            <DistanceMeters>NAN</DistanceMeters>
          </Trackpoint>
          <Trackpoint>
            <Time>2020-12-05T12:34:11.000Z</Time>
            <Position>
              <LatitudeDegrees>36.8346194922924041748046875</LatitudeDegrees>
              <LongitudeDegrees>-4.38254890032112598419189453125</LongitudeDegrees>
            </Position>
            <AltitudeMeters>655.4000244140625</AltitudeMeters>
            <DistanceMeters>NAN</DistanceMeters>
          </Trackpoint>
          <Trackpoint>
            <Time>2020-12-05T12:34:12.000Z</Time>
            <Position>
              <LatitudeDegrees>36.8346116133034229278564453125</LatitudeDegrees>
              <LongitudeDegrees>-4.3825540132820606231689453125</LongitudeDegrees>
            </Position>
            <AltitudeMeters>655.4000244140625</AltitudeMeters>
            <DistanceMeters>NAN</DistanceMeters>
          </Trackpoint>
          <Trackpoint>
            <Time>2020-12-05T12:34:13.000Z</Time>
            <Position>
              <LatitudeDegrees>36.8346025608479976654052734375</LatitudeDegrees>
              <LongitudeDegrees>-4.3825597129762172698974609375</LongitudeDegrees>
            </Position>
            <AltitudeMeters>655.4000244140625</AltitudeMeters>
            <DistanceMeters>NAN</DistanceMeters>
          </Trackpoint>
          <Trackpoint>
            <Time>2020-12-05T12:34:14.000Z</Time>
            <Position>
              <LatitudeDegrees>36.83459392748773097991943359375</LatitudeDegrees>
              <LongitudeDegrees>-4.38256323337554931640625</LongitudeDegrees>
            </Position>
            <AltitudeMeters>655.4000244140625</AltitudeMeters>
            <DistanceMeters>NAN</DistanceMeters>
          </Trackpoint>
          <Trackpoint>
            <Time>2020-12-05T12:34:15.000Z</Time>
            <Position>
              <LatitudeDegrees>36.83458252809941768646240234375</LatitudeDegrees>
              <LongitudeDegrees>-4.3825645744800567626953125</LongitudeDegrees>
            </Position>
            <AltitudeMeters>655.4000244140625</AltitudeMeters>
            <DistanceMeters>NAN</DistanceMeters>
          </Trackpoint>
          <Trackpoint>
            <Time>2020-12-05T12:34:16.000Z</Time>
            <Position>
              <LatitudeDegrees>36.83456878177821636199951171875</LatitudeDegrees>
              <LongitudeDegrees>-4.382562898099422454833984375</LongitudeDegrees>
            </Position>
            <AltitudeMeters>655.4000244140625</AltitudeMeters>
            <DistanceMeters>NAN</DistanceMeters>
          </Trackpoint>
          <Trackpoint>
            <Time>2020-12-05T12:34:17.000Z</Time>
            <Position>
              <LatitudeDegrees>36.83455587364733219146728515625</LatitudeDegrees>
              <LongitudeDegrees>-4.38256314955651760101318359375</LongitudeDegrees>
            </Position>
            <AltitudeMeters>655.4000244140625</AltitudeMeters>
            <DistanceMeters>NAN</DistanceMeters>
          </Trackpoint>
          <Trackpoint>
            <Time>2020-12-05T12:34:18.000Z</Time>
            <Position>
              <LatitudeDegrees>36.83454413898289203643798828125</LatitudeDegrees>
              <LongitudeDegrees>-4.382565580308437347412109375</LongitudeDegrees>
            </Position>
            <AltitudeMeters>655.4000244140625</AltitudeMeters>
            <DistanceMeters>NAN</DistanceMeters>
          </Trackpoint>
          <Trackpoint>
            <Time>2020-12-05T12:34:19.000Z</Time>
            <Position>
              <LatitudeDegrees>36.83453206904232501983642578125</LatitudeDegrees>
              <LongitudeDegrees>-4.38256926834583282470703125</LongitudeDegrees>
            </Position>
            <AltitudeMeters>655.4000244140625</AltitudeMeters>
            <DistanceMeters>NAN</DistanceMeters>
          </Trackpoint>
          <Trackpoint>
            <Time>2020-12-05T12:34:20.000Z</Time>
            <Position>
              <LatitudeDegrees>36.83452217839658260345458984375</LatitudeDegrees>
              <LongitudeDegrees>-4.3825701065361499786376953125</LongitudeDegrees>
            </Position>
            <AltitudeMeters>655.4000244140625</AltitudeMeters>
            <DistanceMeters>NAN</DistanceMeters>
          </Trackpoint>
          <Trackpoint>
            <Time>2020-12-05T12:34:21.000Z</Time>
            <Position>
              <LatitudeDegrees>36.83451144956052303314208984375</LatitudeDegrees>
              <LongitudeDegrees>-4.382570944726467132568359375</LongitudeDegrees>
            </Position>
            <AltitudeMeters>655.4000244140625</AltitudeMeters>
            <DistanceMeters>NAN</DistanceMeters>
          </Trackpoint>
          <Trackpoint>
            <Time>2020-12-05T12:34:22.000Z</Time>
            <Position>
              <LatitudeDegrees>36.834500469267368316650390625</LatitudeDegrees>
              <LongitudeDegrees>-4.38257488422095775604248046875</LongitudeDegrees>
            </Position>
            <AltitudeMeters>655.4000244140625</AltitudeMeters>
            <DistanceMeters>NAN</DistanceMeters>
          </Trackpoint>
          <Trackpoint>
            <Time>2020-12-05T12:34:23.000Z</Time>
            <Position>
              <LatitudeDegrees>36.83448630385100841522216796875</LatitudeDegrees>
              <LongitudeDegrees>-4.3825779855251312255859375</LongitudeDegrees>
            </Position>
            <AltitudeMeters>655.4000244140625</AltitudeMeters>
            <DistanceMeters>NAN</DistanceMeters>
          </Trackpoint>
          <Trackpoint>
            <Time>2020-12-05T12:34:24.000Z</Time>
            <Position>
              <LatitudeDegrees>36.8344731442630290985107421875</LatitudeDegrees>
              <LongitudeDegrees>-4.3825737945735454559326171875</LongitudeDegrees>
            </Position>
            <AltitudeMeters>655.4000244140625</AltitudeMeters>
            <DistanceMeters>NAN</DistanceMeters>
          </Trackpoint>
          <Trackpoint>
            <Time>2020-12-05T12:34:25.000Z</Time>
            <Position>
              <LatitudeDegrees>36.83446182869374752044677734375</LatitudeDegrees>
              <LongitudeDegrees>-4.38257253728806972503662109375</LongitudeDegrees>
            </Position>
            <AltitudeMeters>655.4000244140625</AltitudeMeters>
            <DistanceMeters>NAN</DistanceMeters>
          </Trackpoint>
          <Trackpoint>
            <Time>2020-12-05T12:34:26.000Z</Time>
            <Position>
              <LatitudeDegrees>36.83444925583899021148681640625</LatitudeDegrees>
              <LongitudeDegrees>-4.3825778178870677947998046875</LongitudeDegrees>
            </Position>
            <AltitudeMeters>655.4000244140625</AltitudeMeters>
            <DistanceMeters>NAN</DistanceMeters>
          </Trackpoint>
          <Trackpoint>
            <Time>2020-12-05T12:34:27.000Z</Time>
            <Position>
              <LatitudeDegrees>36.83444053865969181060791015625</LatitudeDegrees>
              <LongitudeDegrees>-4.38258226029574871063232421875</LongitudeDegrees>
            </Position>
            <AltitudeMeters>655.4000244140625</AltitudeMeters>
            <DistanceMeters>NAN</DistanceMeters>
          </Trackpoint>
          <Trackpoint>
            <Time>2020-12-05T12:34:28.000Z</Time>
            <Position>
              <LatitudeDegrees>36.83443383313715457916259765625</LatitudeDegrees>
              <LongitudeDegrees>-4.3825868703424930572509765625</LongitudeDegrees>
            </Position>
            <AltitudeMeters>655.4000244140625</AltitudeMeters>
            <DistanceMeters>NAN</DistanceMeters>
          </Trackpoint>
          <Trackpoint>
            <Time>2020-12-05T12:34:29.000Z</Time>
            <Position>
              <LatitudeDegrees>36.83442863635718822479248046875</LatitudeDegrees>
              <LongitudeDegrees>-4.38259097747504711151123046875</LongitudeDegrees>
            </Position>
            <AltitudeMeters>655.4000244140625</AltitudeMeters>
            <DistanceMeters>NAN</DistanceMeters>
          </Trackpoint>
          <Trackpoint>
            <Time>2020-12-05T12:34:30.000Z</Time>
            <Position>
              <LatitudeDegrees>36.834422014653682708740234375</LatitudeDegrees>
              <LongitudeDegrees>-4.38259131275117397308349609375</LongitudeDegrees>
            </Position>
            <AltitudeMeters>655.4000244140625</AltitudeMeters>
            <DistanceMeters>NAN</DistanceMeters>
          </Trackpoint>
          <Trackpoint>
            <Time>2020-12-05T12:34:31.000Z</Time>
            <Position>
              <LatitudeDegrees>36.8344154767692089080810546875</LatitudeDegrees>
              <LongitudeDegrees>-4.38259181566536426544189453125</LongitudeDegrees>
            </Position>
            <AltitudeMeters>655.4000244140625</AltitudeMeters>
            <DistanceMeters>NAN</DistanceMeters>
          </Trackpoint>
          <Trackpoint>
            <Time>2020-12-05T12:34:32.000Z</Time>
            <Position>
              <LatitudeDegrees>36.8344131298363208770751953125</LatitudeDegrees>
              <LongitudeDegrees>-4.382588379085063934326171875</LongitudeDegrees>
            </Position>
            <AltitudeMeters>655.4000244140625</AltitudeMeters>
            <DistanceMeters>NAN</DistanceMeters>
          </Trackpoint>
          <Trackpoint>
            <Time>2020-12-05T12:34:33.000Z</Time>
            <Position>
              <LatitudeDegrees>36.83441019617021083831787109375</LatitudeDegrees>
              <LongitudeDegrees>-4.38258494250476360321044921875</LongitudeDegrees>
            </Position>
            <AltitudeMeters>655.4000244140625</AltitudeMeters>
            <DistanceMeters>NAN</DistanceMeters>
          </Trackpoint>
          <Trackpoint>
            <Time>2020-12-05T12:34:34.000Z</Time>
            <Position>
              <LatitudeDegrees>36.8344102799892425537109375</LatitudeDegrees>
              <LongitudeDegrees>-4.382581003010272979736328125</LongitudeDegrees>
            </Position>
            <AltitudeMeters>655.4000244140625</AltitudeMeters>
            <DistanceMeters>NAN</DistanceMeters>
          </Trackpoint>
          <Trackpoint>
            <Time>2020-12-05T12:34:35.000Z</Time>
            <Position>
              <LatitudeDegrees>36.83441053144633769989013671875</LatitudeDegrees>
              <LongitudeDegrees>-4.38257471658289432525634765625</LongitudeDegrees>
            </Position>
            <AltitudeMeters>655.4000244140625</AltitudeMeters>
            <DistanceMeters>NAN</DistanceMeters>
          </Trackpoint>
          <Trackpoint>
            <Time>2020-12-05T12:34:36.000Z</Time>
            <Position>
              <LatitudeDegrees>36.8344131298363208770751953125</LatitudeDegrees>
              <LongitudeDegrees>-4.3825687654316425323486328125</LongitudeDegrees>
            </Position>
            <AltitudeMeters>655.4000244140625</AltitudeMeters>
            <DistanceMeters>NAN</DistanceMeters>
          </Trackpoint>
          <Trackpoint>
            <Time>2020-12-05T12:34:37.000Z</Time>
            <Position>
              <LatitudeDegrees>36.83441639877855777740478515625</LatitudeDegrees>
              <LongitudeDegrees>-4.3825627304613590240478515625</LongitudeDegrees>
            </Position>
            <AltitudeMeters>655.4000244140625</AltitudeMeters>
            <DistanceMeters>NAN</DistanceMeters>
          </Trackpoint>
          <Trackpoint>
            <Time>2020-12-05T12:34:38.000Z</Time>
            <Position>
              <LatitudeDegrees>36.83442008681595325469970703125</LatitudeDegrees>
              <LongitudeDegrees>-4.38255451619625091552734375</LongitudeDegrees>
            </Position>
            <AltitudeMeters>655.4000244140625</AltitudeMeters>
            <DistanceMeters>NAN</DistanceMeters>
          </Trackpoint>
          <Trackpoint>
            <Time>2020-12-05T12:34:39.000Z</Time>
            <Position>
              <LatitudeDegrees>36.83442511595785617828369140625</LatitudeDegrees>
              <LongitudeDegrees>-4.38254336826503276824951171875</LongitudeDegrees>
            </Position>
            <AltitudeMeters>655.4000244140625</AltitudeMeters>
            <DistanceMeters>NAN</DistanceMeters>
          </Trackpoint>
          <Trackpoint>
            <Time>2020-12-05T12:34:40.000Z</Time>
            <Position>
              <LatitudeDegrees>36.8344272114336490631103515625</LatitudeDegrees>
              <LongitudeDegrees>-4.382530711591243743896484375</LongitudeDegrees>
            </Position>
            <AltitudeMeters>655.4000244140625</AltitudeMeters>
            <DistanceMeters>NAN</DistanceMeters>
          </Trackpoint>
          <Trackpoint>
            <Time>2020-12-05T12:34:41.000Z</Time>
            <Position>
              <LatitudeDegrees>36.83442913927137851715087890625</LatitudeDegrees>
              <LongitudeDegrees>-4.382516629993915557861328125</LongitudeDegrees>
            </Position>
            <AltitudeMeters>655.4000244140625</AltitudeMeters>
            <DistanceMeters>NAN</DistanceMeters>
          </Trackpoint>
          <Trackpoint>
            <Time>2020-12-05T12:34:42.000Z</Time>
            <Position>
              <LatitudeDegrees>36.83442763052880764007568359375</LatitudeDegrees>
              <LongitudeDegrees>-4.38250766135752201080322265625</LongitudeDegrees>
            </Position>
            <AltitudeMeters>655.4000244140625</AltitudeMeters>
            <DistanceMeters>NAN</DistanceMeters>
          </Trackpoint>
          <Trackpoint>
            <Time>2020-12-05T12:34:43.000Z</Time>
            <Position>
              <LatitudeDegrees>36.83442813344299793243408203125</LatitudeDegrees>
              <LongitudeDegrees>-4.38249810598790645599365234375</LongitudeDegrees>
            </Position>
            <AltitudeMeters>655.4000244140625</AltitudeMeters>
            <DistanceMeters>NAN</DistanceMeters>
          </Trackpoint>
          <Trackpoint>
            <Time>2020-12-05T12:34:44.000Z</Time>
            <Position>
              <LatitudeDegrees>36.83442595414817333221435546875</LatitudeDegrees>
              <LongitudeDegrees>-4.38248603604733943939208984375</LongitudeDegrees>
            </Position>
            <AltitudeMeters>655.4000244140625</AltitudeMeters>
            <DistanceMeters>NAN</DistanceMeters>
          </Trackpoint>
          <Trackpoint>
            <Time>2020-12-05T12:34:45.000Z</Time>
            <Position>
              <LatitudeDegrees>36.83442360721528530120849609375</LatitudeDegrees>
              <LongitudeDegrees>-4.38247312791645526885986328125</LongitudeDegrees>
            </Position>
            <AltitudeMeters>655.4000244140625</AltitudeMeters>
            <DistanceMeters>NAN</DistanceMeters>
          </Trackpoint>
          <Trackpoint>
            <Time>2020-12-05T12:34:46.000Z</Time>
            <Position>
              <LatitudeDegrees>36.83442545123398303985595703125</LatitudeDegrees>
              <LongitudeDegrees>-4.382458291947841644287109375</LongitudeDegrees>
            </Position>
            <AltitudeMeters>655.4000244140625</AltitudeMeters>
            <DistanceMeters>NAN</DistanceMeters>
          </Trackpoint>
          <Trackpoint>
            <Time>2020-12-05T12:34:47.000Z</Time>
            <Position>
              <LatitudeDegrees>36.8344278819859027862548828125</LatitudeDegrees>
              <LongitudeDegrees>-4.38244245015084743499755859375</LongitudeDegrees>
            </Position>
            <AltitudeMeters>655.4000244140625</AltitudeMeters>
            <DistanceMeters>NAN</DistanceMeters>
          </Trackpoint>
          <Trackpoint>
            <Time>2020-12-05T12:34:48.000Z</Time>
            <Position>
              <LatitudeDegrees>36.8344345875084400177001953125</LatitudeDegrees>
              <LongitudeDegrees>-4.3824289552867412567138671875</LongitudeDegrees>
            </Position>
            <AltitudeMeters>655.4000244140625</AltitudeMeters>
            <DistanceMeters>NAN</DistanceMeters>
          </Trackpoint>
          <Trackpoint>
            <Time>2020-12-05T12:34:49.000Z</Time>
            <Position>
              <LatitudeDegrees>36.83443902991712093353271484375</LatitudeDegrees>
              <LongitudeDegrees>-4.382415376603603363037109375</LongitudeDegrees>
            </Position>
            <AltitudeMeters>655.4000244140625</AltitudeMeters>
            <DistanceMeters>NAN</DistanceMeters>
          </Trackpoint>
          <Trackpoint>
            <Time>2020-12-05T12:34:50.000Z</Time>
            <Position>
              <LatitudeDegrees>36.83444087393581867218017578125</LatitudeDegrees>
              <LongitudeDegrees>-4.38240271992981433868408203125</LongitudeDegrees>
            </Position>
            <AltitudeMeters>655.4000244140625</AltitudeMeters>
            <DistanceMeters>NAN</DistanceMeters>
          </Trackpoint>
          <Trackpoint>
            <Time>2020-12-05T12:34:51.000Z</Time>
            <Position>
              <LatitudeDegrees>36.83444204740226268768310546875</LatitudeDegrees>
              <LongitudeDegrees>-4.38239182345569133758544921875</LongitudeDegrees>
            </Position>
            <AltitudeMeters>655.4000244140625</AltitudeMeters>
            <DistanceMeters>NAN</DistanceMeters>
          </Trackpoint>
          <Trackpoint>
            <Time>2020-12-05T12:34:52.000Z</Time>
            <Position>
              <LatitudeDegrees>36.83444640599191188812255859375</LatitudeDegrees>
              <LongitudeDegrees>-4.38238109461963176727294921875</LongitudeDegrees>
            </Position>
            <AltitudeMeters>655.4000244140625</AltitudeMeters>
            <DistanceMeters>NAN</DistanceMeters>
          </Trackpoint>
          <Trackpoint>
            <Time>2020-12-05T12:34:53.000Z</Time>
            <Position>
              <LatitudeDegrees>36.83445260860025882720947265625</LatitudeDegrees>
              <LongitudeDegrees>-4.3823712877929210662841796875</LongitudeDegrees>
            </Position>
            <AltitudeMeters>655.4000244140625</AltitudeMeters>
            <DistanceMeters>NAN</DistanceMeters>
          </Trackpoint>
          <Trackpoint>
            <Time>2020-12-05T12:34:54.000Z</Time>
            <Position>
              <LatitudeDegrees>36.834456212818622589111328125</LatitudeDegrees>
              <LongitudeDegrees>-4.3823625706136226654052734375</LongitudeDegrees>
            </Position>
            <AltitudeMeters>655.4000244140625</AltitudeMeters>
            <DistanceMeters>NAN</DistanceMeters>
          </Trackpoint>
          <Trackpoint>
            <Time>2020-12-05T12:34:55.000Z</Time>
            <Position>
              <LatitudeDegrees>36.83446099050343036651611328125</LatitudeDegrees>
              <LongitudeDegrees>-4.38235309906303882598876953125</LongitudeDegrees>
            </Position>
            <AltitudeMeters>655.4000244140625</AltitudeMeters>
            <DistanceMeters>NAN</DistanceMeters>
          </Trackpoint>
          <Trackpoint>
            <Time>2020-12-05T12:34:56.000Z</Time>
            <Position>
              <LatitudeDegrees>36.8344627507030963897705078125</LatitudeDegrees>
              <LongitudeDegrees>-4.3823419511318206787109375</LongitudeDegrees>
            </Position>
            <AltitudeMeters>655.4000244140625</AltitudeMeters>
            <DistanceMeters>NAN</DistanceMeters>
          </Trackpoint>
          <Trackpoint>
            <Time>2020-12-05T12:34:57.000Z</Time>
            <Position>
              <LatitudeDegrees>36.834468282759189605712890625</LatitudeDegrees>
              <LongitudeDegrees>-4.3823317252099514007568359375</LongitudeDegrees>
            </Position>
            <AltitudeMeters>655.4000244140625</AltitudeMeters>
            <DistanceMeters>NAN</DistanceMeters>
          </Trackpoint>
          <Trackpoint>
            <Time>2020-12-05T12:34:58.000Z</Time>
            <Position>
              <LatitudeDegrees>36.8344692885875701904296875</LatitudeDegrees>
              <LongitudeDegrees>-4.3823231756687164306640625</LongitudeDegrees>
            </Position>
            <AltitudeMeters>655.4000244140625</AltitudeMeters>
            <DistanceMeters>NAN</DistanceMeters>
          </Trackpoint>
          <Trackpoint>
            <Time>2020-12-05T12:34:59.000Z</Time>
            <Position>
              <LatitudeDegrees>36.8344707973301410675048828125</LatitudeDegrees>
              <LongitudeDegrees>-4.382314793765544891357421875</LongitudeDegrees>
            </Position>
            <AltitudeMeters>655.4000244140625</AltitudeMeters>
            <DistanceMeters>NAN</DistanceMeters>
          </Trackpoint>
          <Trackpoint>
            <Time>2020-12-05T12:35:00.000Z</Time>
            <Position>
              <LatitudeDegrees>36.83447272516787052154541015625</LatitudeDegrees>
              <LongitudeDegrees>-4.38230331055819988250732421875</LongitudeDegrees>
            </Position>
            <AltitudeMeters>661.5999755859375</AltitudeMeters>
            <DistanceMeters>NAN</DistanceMeters>
          </Trackpoint>
          <Trackpoint>
            <Time>2020-12-05T12:35:01.000Z</Time>
            <Position>
              <LatitudeDegrees>36.83447406627237796783447265625</LatitudeDegrees>
              <LongitudeDegrees>-4.3822884745895862579345703125</LongitudeDegrees>
            </Position>
            <AltitudeMeters>661.5999755859375</AltitudeMeters>
            <DistanceMeters>NAN</DistanceMeters>
          </Trackpoint>
          <Trackpoint>
            <Time>2020-12-05T12:35:02.000Z</Time>
            <Position>
              <LatitudeDegrees>36.8344761617481708526611328125</LatitudeDegrees>
              <LongitudeDegrees>-4.382273890078067779541015625</LongitudeDegrees>
            </Position>
            <AltitudeMeters>661.5999755859375</AltitudeMeters>
            <DistanceMeters>NAN</DistanceMeters>
          </Trackpoint>
          <Trackpoint>
            <Time>2020-12-05T12:35:03.000Z</Time>
            <Position>
              <LatitudeDegrees>36.83447876013815402984619140625</LatitudeDegrees>
              <LongitudeDegrees>-4.38225679099559783935546875</LongitudeDegrees>
            </Position>
            <AltitudeMeters>661.5999755859375</AltitudeMeters>
            <DistanceMeters>NAN</DistanceMeters>
          </Trackpoint>
          <Trackpoint>
            <Time>2020-12-05T12:35:04.000Z</Time>
            <Position>
              <LatitudeDegrees>36.834479011595249176025390625</LatitudeDegrees>
              <LongitudeDegrees>-4.382231645286083221435546875</LongitudeDegrees>
            </Position>
            <AltitudeMeters>661.5999755859375</AltitudeMeters>
            <DistanceMeters>NAN</DistanceMeters>
          </Trackpoint>
          <Trackpoint>
            <Time>2020-12-05T12:35:05.000Z</Time>
            <Position>
              <LatitudeDegrees>36.83448471128940582275390625</LatitudeDegrees>
              <LongitudeDegrees>-4.38221253454685211181640625</LongitudeDegrees>
            </Position>
            <AltitudeMeters>661.5999755859375</AltitudeMeters>
            <DistanceMeters>NAN</DistanceMeters>
          </Trackpoint>
          <Trackpoint>
            <Time>2020-12-05T12:35:06.000Z</Time>
            <Position>
              <LatitudeDegrees>36.8344889022409915924072265625</LatitudeDegrees>
              <LongitudeDegrees>-4.38219719566404819488525390625</LongitudeDegrees>
            </Position>
            <AltitudeMeters>661.5999755859375</AltitudeMeters>
            <DistanceMeters>NAN</DistanceMeters>
          </Trackpoint>
          <Trackpoint>
            <Time>2020-12-05T12:35:07.000Z</Time>
            <Position>
              <LatitudeDegrees>36.83449150063097476959228515625</LatitudeDegrees>
              <LongitudeDegrees>-4.38218428753316402435302734375</LongitudeDegrees>
            </Position>
            <AltitudeMeters>661.5999755859375</AltitudeMeters>
            <DistanceMeters>NAN</DistanceMeters>
          </Trackpoint>
          <Trackpoint>
            <Time>2020-12-05T12:35:08.000Z</Time>
            <Position>
              <LatitudeDegrees>36.8344942666590213775634765625</LatitudeDegrees>
              <LongitudeDegrees>-4.38217372633516788482666015625</LongitudeDegrees>
            </Position>
            <AltitudeMeters>661.5999755859375</AltitudeMeters>
            <DistanceMeters>NAN</DistanceMeters>
          </Trackpoint>
          <Trackpoint>
            <Time>2020-12-05T12:35:09.000Z</Time>
            <Position>
              <LatitudeDegrees>36.834494769573211669921875</LatitudeDegrees>
              <LongitudeDegrees>-4.3821667693555355072021484375</LongitudeDegrees>
            </Position>
            <AltitudeMeters>661.5999755859375</AltitudeMeters>
            <DistanceMeters>NAN</DistanceMeters>
          </Trackpoint>
          <Trackpoint>
            <Time>2020-12-05T12:35:10.000Z</Time>
            <Position>
              <LatitudeDegrees>36.8344972841441631317138671875</LatitudeDegrees>
              <LongitudeDegrees>-4.38215830363333225250244140625</LongitudeDegrees>
            </Position>
            <AltitudeMeters>661.5999755859375</AltitudeMeters>
            <DistanceMeters>NAN</DistanceMeters>
          </Trackpoint>
          <Trackpoint>
            <Time>2020-12-05T12:35:11.000Z</Time>
            <Position>
              <LatitudeDegrees>36.83450072072446346282958984375</LatitudeDegrees>
              <LongitudeDegrees>-4.3821476586163043975830078125</LongitudeDegrees>
            </Position>
            <AltitudeMeters>661.5999755859375</AltitudeMeters>
            <DistanceMeters>NAN</DistanceMeters>
          </Trackpoint>
          <Trackpoint>
            <Time>2020-12-05T12:35:12.000Z</Time>
            <Position>
              <LatitudeDegrees>36.8345063365995883941650390625</LatitudeDegrees>
              <LongitudeDegrees>-4.38213634304702281951904296875</LongitudeDegrees>
            </Position>
            <AltitudeMeters>661.5999755859375</AltitudeMeters>
            <DistanceMeters>NAN</DistanceMeters>
          </Trackpoint>
          <Trackpoint>
            <Time>2020-12-05T12:35:13.000Z</Time>
            <Position>
              <LatitudeDegrees>36.8345140479505062103271484375</LatitudeDegrees>
              <LongitudeDegrees>-4.3821262009441852569580078125</LongitudeDegrees>
            </Position>
            <AltitudeMeters>661.5999755859375</AltitudeMeters>
            <DistanceMeters>NAN</DistanceMeters>
          </Trackpoint>
          <Trackpoint>
            <Time>2020-12-05T12:35:14.000Z</Time>
            <Position>
              <LatitudeDegrees>36.83451765216886997222900390625</LatitudeDegrees>
              <LongitudeDegrees>-4.38211656175553798675537109375</LongitudeDegrees>
            </Position>
            <AltitudeMeters>661.5999755859375</AltitudeMeters>
            <DistanceMeters>NAN</DistanceMeters>
          </Trackpoint>
          <Trackpoint>
            <Time>2020-12-05T12:35:15.000Z</Time>
            <Position>
              <LatitudeDegrees>36.83452201075851917266845703125</LatitudeDegrees>
              <LongitudeDegrees>-4.38210583291947841644287109375</LongitudeDegrees>
            </Position>
            <AltitudeMeters>661.5999755859375</AltitudeMeters>
            <DistanceMeters>NAN</DistanceMeters>
          </Trackpoint>
          <Trackpoint>
            <Time>2020-12-05T12:35:16.000Z</Time>
            <Position>
              <LatitudeDegrees>36.8345264531672000885009765625</LatitudeDegrees>
              <LongitudeDegrees>-4.382094852626323699951171875</LongitudeDegrees>
            </Position>
            <AltitudeMeters>661.5999755859375</AltitudeMeters>
            <DistanceMeters>NAN</DistanceMeters>
          </Trackpoint>
          <Trackpoint>
            <Time>2020-12-05T12:35:17.000Z</Time>
            <Position>
              <LatitudeDegrees>36.83452854864299297332763671875</LatitudeDegrees>
              <LongitudeDegrees>-4.38208320178091526031494140625</LongitudeDegrees>
            </Position>
            <AltitudeMeters>661.5999755859375</AltitudeMeters>
            <DistanceMeters>NAN</DistanceMeters>
          </Trackpoint>
          <Trackpoint>
            <Time>2020-12-05T12:35:18.000Z</Time>
            <Position>
              <LatitudeDegrees>36.834531985223293304443359375</LatitudeDegrees>
              <LongitudeDegrees>-4.38207096420228481292724609375</LongitudeDegrees>
            </Position>
            <AltitudeMeters>661.5999755859375</AltitudeMeters>
            <DistanceMeters>NAN</DistanceMeters>
          </Trackpoint>
          <Trackpoint>
            <Time>2020-12-05T12:35:19.000Z</Time>
            <Position>
              <LatitudeDegrees>36.83453500270843505859375</LatitudeDegrees>
              <LongitudeDegrees>-4.38205839134752750396728515625</LongitudeDegrees>
            </Position>
            <AltitudeMeters>661.5999755859375</AltitudeMeters>
            <DistanceMeters>NAN</DistanceMeters>
          </Trackpoint>
          <Trackpoint>
            <Time>2020-12-05T12:35:20.000Z</Time>
            <Position>
              <LatitudeDegrees>36.834539361298084259033203125</LatitudeDegrees>
              <LongitudeDegrees>-4.382045902311801910400390625</LongitudeDegrees>
            </Position>
            <AltitudeMeters>661.5999755859375</AltitudeMeters>
            <DistanceMeters>NAN</DistanceMeters>
          </Trackpoint>
          <Trackpoint>
            <Time>2020-12-05T12:35:21.000Z</Time>
            <Position>
              <LatitudeDegrees>36.834543384611606597900390625</LatitudeDegrees>
              <LongitudeDegrees>-4.3820346705615520477294921875</LongitudeDegrees>
            </Position>
            <AltitudeMeters>661.5999755859375</AltitudeMeters>
            <DistanceMeters>NAN</DistanceMeters>
          </Trackpoint>
          <Trackpoint>
            <Time>2020-12-05T12:35:22.000Z</Time>
            <Position>
              <LatitudeDegrees>36.8345482461154460906982421875</LatitudeDegrees>
              <LongitudeDegrees>-4.38202369026839733123779296875</LongitudeDegrees>
            </Position>
            <AltitudeMeters>661.5999755859375</AltitudeMeters>
            <DistanceMeters>NAN</DistanceMeters>
          </Trackpoint>
          <Trackpoint>
            <Time>2020-12-05T12:35:23.000Z</Time>
            <Position>
              <LatitudeDegrees>36.8345542810857295989990234375</LatitudeDegrees>
              <LongitudeDegrees>-4.3820093572139739990234375</LongitudeDegrees>
            </Position>
            <AltitudeMeters>661.5999755859375</AltitudeMeters>
            <DistanceMeters>NAN</DistanceMeters>
          </Trackpoint>
          <Trackpoint>
            <Time>2020-12-05T12:35:24.000Z</Time>
            <Position>
              <LatitudeDegrees>36.83455855585634708404541015625</LatitudeDegrees>
              <LongitudeDegrees>-4.381995610892772674560546875</LongitudeDegrees>
            </Position>
            <AltitudeMeters>661.5999755859375</AltitudeMeters>
            <DistanceMeters>NAN</DistanceMeters>
          </Trackpoint>
          <Trackpoint>
            <Time>2020-12-05T12:35:25.000Z</Time>
            <Position>
              <LatitudeDegrees>36.8345604836940765380859375</LatitudeDegrees>
              <LongitudeDegrees>-4.38198127783834934234619140625</LongitudeDegrees>
            </Position>
            <AltitudeMeters>661.5999755859375</AltitudeMeters>
            <DistanceMeters>NAN</DistanceMeters>
          </Trackpoint>
          <Trackpoint>
            <Time>2020-12-05T12:35:26.000Z</Time>
            <Position>
              <LatitudeDegrees>36.834562160074710845947265625</LatitudeDegrees>
              <LongitudeDegrees>-4.381964765489101409912109375</LongitudeDegrees>
            </Position>
            <AltitudeMeters>661.5999755859375</AltitudeMeters>
            <DistanceMeters>NAN</DistanceMeters>
          </Trackpoint>
          <Trackpoint>
            <Time>2020-12-05T12:35:27.000Z</Time>
            <Position>
              <LatitudeDegrees>36.8345653451979160308837890625</LatitudeDegrees>
              <LongitudeDegrees>-4.3819488398730754852294921875</LongitudeDegrees>
            </Position>
            <AltitudeMeters>661.5999755859375</AltitudeMeters>
            <DistanceMeters>NAN</DistanceMeters>
          </Trackpoint>
          <Trackpoint>
            <Time>2020-12-05T12:35:28.000Z</Time>
            <Position>
              <LatitudeDegrees>36.8345703743398189544677734375</LatitudeDegrees>
              <LongitudeDegrees>-4.38193517737090587615966796875</LongitudeDegrees>
            </Position>
            <AltitudeMeters>661.5999755859375</AltitudeMeters>
            <DistanceMeters>NAN</DistanceMeters>
          </Trackpoint>
          <Trackpoint>
            <Time>2020-12-05T12:35:29.000Z</Time>
            <Position>
              <LatitudeDegrees>36.8345757387578487396240234375</LatitudeDegrees>
              <LongitudeDegrees>-4.38192159868776798248291015625</LongitudeDegrees>
            </Position>
            <AltitudeMeters>661.5999755859375</AltitudeMeters>
            <DistanceMeters>NAN</DistanceMeters>
          </Trackpoint>
          <Trackpoint>
            <Time>2020-12-05T12:35:30.000Z</Time>
            <Position>
              <LatitudeDegrees>36.8345811031758785247802734375</LatitudeDegrees>
              <LongitudeDegrees>-4.38190785236656665802001953125</LongitudeDegrees>
            </Position>
            <AltitudeMeters>661.5999755859375</AltitudeMeters>
            <DistanceMeters>NAN</DistanceMeters>
          </Trackpoint>
          <Trackpoint>
            <Time>2020-12-05T12:35:31.000Z</Time>
            <Position>
              <LatitudeDegrees>36.8345851264894008636474609375</LatitudeDegrees>
              <LongitudeDegrees>-4.38189276494085788726806640625</LongitudeDegrees>
            </Position>
            <AltitudeMeters>661.5999755859375</AltitudeMeters>
            <DistanceMeters>NAN</DistanceMeters>
          </Trackpoint>
          <Trackpoint>
            <Time>2020-12-05T12:35:32.000Z</Time>
            <Position>
              <LatitudeDegrees>36.83458772487938404083251953125</LatitudeDegrees>
              <LongitudeDegrees>-4.3818804435431957244873046875</LongitudeDegrees>
            </Position>
            <AltitudeMeters>661.5999755859375</AltitudeMeters>
            <DistanceMeters>NAN</DistanceMeters>
          </Trackpoint>
          <Trackpoint>
            <Time>2020-12-05T12:35:33.000Z</Time>
            <Position>
              <LatitudeDegrees>36.8345891498029232025146484375</LatitudeDegrees>
              <LongitudeDegrees>-4.3818700499832630157470703125</LongitudeDegrees>
            </Position>
            <AltitudeMeters>661.5999755859375</AltitudeMeters>
            <DistanceMeters>NAN</DistanceMeters>
          </Trackpoint>
          <Trackpoint>
            <Time>2020-12-05T12:35:34.000Z</Time>
            <Position>
              <LatitudeDegrees>36.8345899879932403564453125</LatitudeDegrees>
              <LongitudeDegrees>-4.38185823149979114532470703125</LongitudeDegrees>
            </Position>
            <AltitudeMeters>661.5999755859375</AltitudeMeters>
            <DistanceMeters>NAN</DistanceMeters>
          </Trackpoint>
          <Trackpoint>
            <Time>2020-12-05T12:35:35.000Z</Time>
            <Position>
              <LatitudeDegrees>36.83459124527871608734130859375</LatitudeDegrees>
              <LongitudeDegrees>-4.3818459101021289825439453125</LongitudeDegrees>
            </Position>
            <AltitudeMeters>661.5999755859375</AltitudeMeters>
            <DistanceMeters>NAN</DistanceMeters>
          </Trackpoint>
          <Trackpoint>
            <Time>2020-12-05T12:35:36.000Z</Time>
            <Position>
              <LatitudeDegrees>36.8345926702022552490234375</LatitudeDegrees>
              <LongitudeDegrees>-4.38183409161865711212158203125</LongitudeDegrees>
            </Position>
            <AltitudeMeters>661.5999755859375</AltitudeMeters>
            <DistanceMeters>NAN</DistanceMeters>
          </Trackpoint>
          <Trackpoint>
            <Time>2020-12-05T12:35:37.000Z</Time>
            <Position>
              <LatitudeDegrees>36.8345940113067626953125</LatitudeDegrees>
              <LongitudeDegrees>-4.3818224407732486724853515625</LongitudeDegrees>
            </Position>
            <AltitudeMeters>661.5999755859375</AltitudeMeters>
            <DistanceMeters>NAN</DistanceMeters>
          </Trackpoint>
          <Trackpoint>
            <Time>2020-12-05T12:35:38.000Z</Time>
            <Position>
              <LatitudeDegrees>36.83459962718188762664794921875</LatitudeDegrees>
              <LongitudeDegrees>-4.381808526813983917236328125</LongitudeDegrees>
            </Position>
            <AltitudeMeters>661.5999755859375</AltitudeMeters>
            <DistanceMeters>NAN</DistanceMeters>
          </Trackpoint>
          <Trackpoint>
            <Time>2020-12-05T12:35:39.000Z</Time>
            <Position>
              <LatitudeDegrees>36.83460683561861515045166015625</LatitudeDegrees>
              <LongitudeDegrees>-4.38179017044603824615478515625</LongitudeDegrees>
            </Position>
            <AltitudeMeters>661.5999755859375</AltitudeMeters>
            <DistanceMeters>NAN</DistanceMeters>
          </Trackpoint>
          <Trackpoint>
            <Time>2020-12-05T12:35:40.000Z</Time>
            <Position>
              <LatitudeDegrees>36.83461488224565982818603515625</LatitudeDegrees>
              <LongitudeDegrees>-4.38177038915455341339111328125</LongitudeDegrees>
            </Position>
            <AltitudeMeters>661.5999755859375</AltitudeMeters>
            <DistanceMeters>NAN</DistanceMeters>
          </Trackpoint>
          <Trackpoint>
            <Time>2020-12-05T12:35:41.000Z</Time>
            <Position>
              <LatitudeDegrees>36.83462158776819705963134765625</LatitudeDegrees>
              <LongitudeDegrees>-4.38175521790981292724609375</LongitudeDegrees>
            </Position>
            <AltitudeMeters>661.5999755859375</AltitudeMeters>
            <DistanceMeters>NAN</DistanceMeters>
          </Trackpoint>
          <Trackpoint>
            <Time>2020-12-05T12:35:42.000Z</Time>
            <Position>
              <LatitudeDegrees>36.83462678454816341400146484375</LatitudeDegrees>
              <LongitudeDegrees>-4.3817389570176601409912109375</LongitudeDegrees>
            </Position>
            <AltitudeMeters>661.5999755859375</AltitudeMeters>
            <DistanceMeters>NAN</DistanceMeters>
          </Trackpoint>
          <Trackpoint>
            <Time>2020-12-05T12:35:43.000Z</Time>
            <Position>
              <LatitudeDegrees>36.83463114313781261444091796875</LatitudeDegrees>
              <LongitudeDegrees>-4.38172294758260250091552734375</LongitudeDegrees>
            </Position>
            <AltitudeMeters>661.5999755859375</AltitudeMeters>
            <DistanceMeters>NAN</DistanceMeters>
          </Trackpoint>
          <Trackpoint>
            <Time>2020-12-05T12:35:44.000Z</Time>
            <Position>
              <LatitudeDegrees>36.834632568061351776123046875</LatitudeDegrees>
              <LongitudeDegrees>-4.3817107938230037689208984375</LongitudeDegrees>
            </Position>
            <AltitudeMeters>661.5999755859375</AltitudeMeters>
            <DistanceMeters>NAN</DistanceMeters>
          </Trackpoint>
          <Trackpoint>
            <Time>2020-12-05T12:35:45.000Z</Time>
            <Position>
              <LatitudeDegrees>36.83463315479457378387451171875</LatitudeDegrees>
              <LongitudeDegrees>-4.38169696368277072906494140625</LongitudeDegrees>
            </Position>
            <AltitudeMeters>661.5999755859375</AltitudeMeters>
            <DistanceMeters>NAN</DistanceMeters>
          </Trackpoint>
          <Trackpoint>
            <Time>2020-12-05T12:35:46.000Z</Time>
            <Position>
              <LatitudeDegrees>36.83463633991777896881103515625</LatitudeDegrees>
              <LongitudeDegrees>-4.38168439082801342010498046875</LongitudeDegrees>
            </Position>
            <AltitudeMeters>661.5999755859375</AltitudeMeters>
            <DistanceMeters>NAN</DistanceMeters>
          </Trackpoint>
          <Trackpoint>
            <Time>2020-12-05T12:35:47.000Z</Time>
            <Position>
              <LatitudeDegrees>36.83464237488806247711181640625</LatitudeDegrees>
              <LongitudeDegrees>-4.38167030923068523406982421875</LongitudeDegrees>
            </Position>
            <AltitudeMeters>661.5999755859375</AltitudeMeters>
            <DistanceMeters>NAN</DistanceMeters>
          </Trackpoint>
          <Trackpoint>
            <Time>2020-12-05T12:35:48.000Z</Time>
            <Position>
              <LatitudeDegrees>36.83464757166802883148193359375</LatitudeDegrees>
              <LongitudeDegrees>-4.38165555708110332489013671875</LongitudeDegrees>
            </Position>
            <AltitudeMeters>661.5999755859375</AltitudeMeters>
            <DistanceMeters>NAN</DistanceMeters>
          </Trackpoint>
          <Trackpoint>
            <Time>2020-12-05T12:35:49.000Z</Time>
            <Position>
              <LatitudeDegrees>36.83465226553380489349365234375</LatitudeDegrees>
              <LongitudeDegrees>-4.38163711689412593841552734375</LongitudeDegrees>
            </Position>
            <AltitudeMeters>661.5999755859375</AltitudeMeters>
            <DistanceMeters>NAN</DistanceMeters>
          </Trackpoint>
          <Trackpoint>
            <Time>2020-12-05T12:35:50.000Z</Time>
            <Position>
              <LatitudeDegrees>36.83465234935283660888671875</LatitudeDegrees>
              <LongitudeDegrees>-4.38162018544971942901611328125</LongitudeDegrees>
            </Position>
            <AltitudeMeters>661.5999755859375</AltitudeMeters>
            <DistanceMeters>NAN</DistanceMeters>
          </Trackpoint>
          <Trackpoint>
            <Time>2020-12-05T12:35:51.000Z</Time>
            <Position>
              <LatitudeDegrees>36.834650672972202301025390625</LatitudeDegrees>
              <LongitudeDegrees>-4.3816045112907886505126953125</LongitudeDegrees>
            </Position>
            <AltitudeMeters>661.5999755859375</AltitudeMeters>
            <DistanceMeters>NAN</DistanceMeters>
          </Trackpoint>
          <Trackpoint>
            <Time>2020-12-05T12:35:52.000Z</Time>
            <Position>
              <LatitudeDegrees>36.83464790694415569305419921875</LatitudeDegrees>
              <LongitudeDegrees>-4.38159084878861904144287109375</LongitudeDegrees>
            </Position>
            <AltitudeMeters>661.5999755859375</AltitudeMeters>
            <DistanceMeters>NAN</DistanceMeters>
          </Trackpoint>
          <Trackpoint>
            <Time>2020-12-05T12:35:53.000Z</Time>
            <Position>
              <LatitudeDegrees>36.8346451409161090850830078125</LatitudeDegrees>
              <LongitudeDegrees>-4.3815756775438785552978515625</LongitudeDegrees>
            </Position>
            <AltitudeMeters>661.5999755859375</AltitudeMeters>
            <DistanceMeters>NAN</DistanceMeters>
          </Trackpoint>
          <Trackpoint>
            <Time>2020-12-05T12:35:54.000Z</Time>
            <Position>
              <LatitudeDegrees>36.834643967449665069580078125</LatitudeDegrees>
              <LongitudeDegrees>-4.3815612606704235076904296875</LongitudeDegrees>
            </Position>
            <AltitudeMeters>661.5999755859375</AltitudeMeters>
            <DistanceMeters>NAN</DistanceMeters>
          </Trackpoint>
          <Trackpoint>
            <Time>2020-12-05T12:35:55.000Z</Time>
            <Position>
              <LatitudeDegrees>36.83464170433580875396728515625</LatitudeDegrees>
              <LongitudeDegrees>-4.381547011435031890869140625</LongitudeDegrees>
            </Position>
            <AltitudeMeters>661.5999755859375</AltitudeMeters>
            <DistanceMeters>NAN</DistanceMeters>
          </Trackpoint>
          <Trackpoint>
            <Time>2020-12-05T12:35:56.000Z</Time>
            <Position>
              <LatitudeDegrees>36.83463868685066699981689453125</LatitudeDegrees>
              <LongitudeDegrees>-4.38153251074254512786865234375</LongitudeDegrees>
            </Position>
            <AltitudeMeters>661.5999755859375</AltitudeMeters>
            <DistanceMeters>NAN</DistanceMeters>
          </Trackpoint>
          <Trackpoint>
            <Time>2020-12-05T12:35:57.000Z</Time>
            <Position>
              <LatitudeDegrees>36.8346370942890644073486328125</LatitudeDegrees>
              <LongitudeDegrees>-4.381517507135868072509765625</LongitudeDegrees>
            </Position>
            <AltitudeMeters>661.5999755859375</AltitudeMeters>
            <DistanceMeters>NAN</DistanceMeters>
          </Trackpoint>
          <Trackpoint>
            <Time>2020-12-05T12:35:58.000Z</Time>
            <Position>
              <LatitudeDegrees>36.8346344120800495147705078125</LatitudeDegrees>
              <LongitudeDegrees>-4.38150099478662014007568359375</LongitudeDegrees>
            </Position>
            <AltitudeMeters>661.5999755859375</AltitudeMeters>
            <DistanceMeters>NAN</DistanceMeters>
          </Trackpoint>
          <Trackpoint>
            <Time>2020-12-05T12:35:59.000Z</Time>
            <Position>
              <LatitudeDegrees>36.8346303887665271759033203125</LatitudeDegrees>
              <LongitudeDegrees>-4.38148842193186283111572265625</LongitudeDegrees>
            </Position>
            <AltitudeMeters>661.5999755859375</AltitudeMeters>
            <DistanceMeters>NAN</DistanceMeters>
          </Trackpoint>
          <Trackpoint>
            <Time>2020-12-05T12:36:00.000Z</Time>
            <Position>
              <LatitudeDegrees>36.83462577871978282928466796875</LatitudeDegrees>
              <LongitudeDegrees>-4.38147484324872493743896484375</LongitudeDegrees>
            </Position>
            <AltitudeMeters>667.5999755859375</AltitudeMeters>
            <DistanceMeters>NAN</DistanceMeters>
          </Trackpoint>
          <Trackpoint>
            <Time>2020-12-05T12:36:01.000Z</Time>
            <Position>
              <LatitudeDegrees>36.83462284505367279052734375</LatitudeDegrees>
              <LongitudeDegrees>-4.3814576603472232818603515625</LongitudeDegrees>
            </Position>
            <AltitudeMeters>667.5999755859375</AltitudeMeters>
            <DistanceMeters>NAN</DistanceMeters>
          </Trackpoint>
          <Trackpoint>
            <Time>2020-12-05T12:36:02.000Z</Time>
            <Position>
              <LatitudeDegrees>36.8346179835498332977294921875</LatitudeDegrees>
              <LongitudeDegrees>-4.38144349493086338043212890625</LongitudeDegrees>
            </Position>
            <AltitudeMeters>667.5999755859375</AltitudeMeters>
            <DistanceMeters>NAN</DistanceMeters>
          </Trackpoint>
          <Trackpoint>
            <Time>2020-12-05T12:36:03.000Z</Time>
            <Position>
              <LatitudeDegrees>36.83461186476051807403564453125</LatitudeDegrees>
              <LongitudeDegrees>-4.38142773695290088653564453125</LongitudeDegrees>
            </Position>
            <AltitudeMeters>667.5999755859375</AltitudeMeters>
            <DistanceMeters>NAN</DistanceMeters>
          </Trackpoint>
          <Trackpoint>
            <Time>2020-12-05T12:36:04.000Z</Time>
            <Position>
              <LatitudeDegrees>36.834606416523456573486328125</LatitudeDegrees>
              <LongitudeDegrees>-4.381412230432033538818359375</LongitudeDegrees>
            </Position>
            <AltitudeMeters>667.5999755859375</AltitudeMeters>
            <DistanceMeters>NAN</DistanceMeters>
          </Trackpoint>
          <Trackpoint>
            <Time>2020-12-05T12:36:05.000Z</Time>
            <Position>
              <LatitudeDegrees>36.83460080064833164215087890625</LatitudeDegrees>
              <LongitudeDegrees>-4.3813983164727687835693359375</LongitudeDegrees>
            </Position>
            <AltitudeMeters>667.5999755859375</AltitudeMeters>
            <DistanceMeters>NAN</DistanceMeters>
          </Trackpoint>
          <Trackpoint>
            <Time>2020-12-05T12:36:06.000Z</Time>
            <Position>
              <LatitudeDegrees>36.83459677733480930328369140625</LatitudeDegrees>
              <LongitudeDegrees>-4.3813852407038211822509765625</LongitudeDegrees>
            </Position>
            <AltitudeMeters>667.5999755859375</AltitudeMeters>
            <DistanceMeters>NAN</DistanceMeters>
          </Trackpoint>
          <Trackpoint>
            <Time>2020-12-05T12:36:07.000Z</Time>
            <Position>
              <LatitudeDegrees>36.83459199965000152587890625</LatitudeDegrees>
              <LongitudeDegrees>-4.381374679505825042724609375</LongitudeDegrees>
            </Position>
            <AltitudeMeters>667.5999755859375</AltitudeMeters>
            <DistanceMeters>NAN</DistanceMeters>
          </Trackpoint>
          <Trackpoint>
            <Time>2020-12-05T12:36:08.000Z</Time>
            <Position>
              <LatitudeDegrees>36.83458663523197174072265625</LatitudeDegrees>
              <LongitudeDegrees>-4.38136654905974864959716796875</LongitudeDegrees>
            </Position>
            <AltitudeMeters>667.5999755859375</AltitudeMeters>
            <DistanceMeters>NAN</DistanceMeters>
          </Trackpoint>
          <Trackpoint>
            <Time>2020-12-05T12:36:09.000Z</Time>
            <Position>
              <LatitudeDegrees>36.83458269573748111724853515625</LatitudeDegrees>
              <LongitudeDegrees>-4.38135934062302112579345703125</LongitudeDegrees>
            </Position>
            <AltitudeMeters>667.5999755859375</AltitudeMeters>
            <DistanceMeters>NAN</DistanceMeters>
          </Trackpoint>
          <Trackpoint>
            <Time>2020-12-05T12:36:10.000Z</Time>
            <Position>
              <LatitudeDegrees>36.83457992970943450927734375</LatitudeDegrees>
              <LongitudeDegrees>-4.3813520483672618865966796875</LongitudeDegrees>
            </Position>
            <AltitudeMeters>667.5999755859375</AltitudeMeters>
            <DistanceMeters>NAN</DistanceMeters>
          </Trackpoint>
          <Trackpoint>
            <Time>2020-12-05T12:36:11.000Z</Time>
            <Position>
              <LatitudeDegrees>36.8345754034817218780517578125</LatitudeDegrees>
              <LongitudeDegrees>-4.38134727068245410919189453125</LongitudeDegrees>
            </Position>
            <AltitudeMeters>667.5999755859375</AltitudeMeters>
            <DistanceMeters>NAN</DistanceMeters>
          </Trackpoint>
          <Trackpoint>
            <Time>2020-12-05T12:36:12.000Z</Time>
            <Position>
              <LatitudeDegrees>36.83456978760659694671630859375</LatitudeDegrees>
              <LongitudeDegrees>-4.38133955933153629302978515625</LongitudeDegrees>
            </Position>
            <AltitudeMeters>667.5999755859375</AltitudeMeters>
            <DistanceMeters>NAN</DistanceMeters>
          </Trackpoint>
          <Trackpoint>
            <Time>2020-12-05T12:36:13.000Z</Time>
            <Position>
              <LatitudeDegrees>36.8345629982650279998779296875</LatitudeDegrees>
              <LongitudeDegrees>-4.38133100979030132293701171875</LongitudeDegrees>
            </Position>
            <AltitudeMeters>667.5999755859375</AltitudeMeters>
            <DistanceMeters>NAN</DistanceMeters>
          </Trackpoint>
          <Trackpoint>
            <Time>2020-12-05T12:36:14.000Z</Time>
            <Position>
              <LatitudeDegrees>36.83455671183764934539794921875</LatitudeDegrees>
              <LongitudeDegrees>-4.38132162205874919891357421875</LongitudeDegrees>
            </Position>
            <AltitudeMeters>667.5999755859375</AltitudeMeters>
            <DistanceMeters>NAN</DistanceMeters>
          </Trackpoint>
          <Trackpoint>
            <Time>2020-12-05T12:36:15.000Z</Time>
            <Position>
              <LatitudeDegrees>36.834548749029636383056640625</LatitudeDegrees>
              <LongitudeDegrees>-4.3813114799559116363525390625</LongitudeDegrees>
            </Position>
            <AltitudeMeters>667.5999755859375</AltitudeMeters>
            <DistanceMeters>NAN</DistanceMeters>
          </Trackpoint>
          <Trackpoint>
            <Time>2020-12-05T12:36:16.000Z</Time>
            <Position>
              <LatitudeDegrees>36.8345378525555133819580078125</LatitudeDegrees>
              <LongitudeDegrees>-4.38129932619631290435791015625</LongitudeDegrees>
            </Position>
            <AltitudeMeters>667.5999755859375</AltitudeMeters>
            <DistanceMeters>NAN</DistanceMeters>
          </Trackpoint>
          <Trackpoint>
            <Time>2020-12-05T12:36:17.000Z</Time>
            <Position>
              <LatitudeDegrees>36.834526620805263519287109375</LatitudeDegrees>
              <LongitudeDegrees>-4.38128910027444362640380859375</LongitudeDegrees>
            </Position>
            <AltitudeMeters>667.5999755859375</AltitudeMeters>
            <DistanceMeters>NAN</DistanceMeters>
          </Trackpoint>
          <Trackpoint>
            <Time>2020-12-05T12:36:18.000Z</Time>
            <Position>
              <LatitudeDegrees>36.834513209760189056396484375</LatitudeDegrees>
              <LongitudeDegrees>-4.3812813051044940948486328125</LongitudeDegrees>
            </Position>
            <AltitudeMeters>667.5999755859375</AltitudeMeters>
            <DistanceMeters>NAN</DistanceMeters>
          </Trackpoint>
          <Trackpoint>
            <Time>2020-12-05T12:36:19.000Z</Time>
            <Position>
              <LatitudeDegrees>36.8345014750957489013671875</LatitudeDegrees>
              <LongitudeDegrees>-4.3812705762684345245361328125</LongitudeDegrees>
            </Position>
            <AltitudeMeters>667.5999755859375</AltitudeMeters>
            <DistanceMeters>NAN</DistanceMeters>
          </Trackpoint>
          <Trackpoint>
            <Time>2020-12-05T12:36:20.000Z</Time>
            <Position>
              <LatitudeDegrees>36.83448965661227703094482421875</LatitudeDegrees>
              <LongitudeDegrees>-4.3812596797943115234375</LongitudeDegrees>
            </Position>
            <AltitudeMeters>667.5999755859375</AltitudeMeters>
            <DistanceMeters>NAN</DistanceMeters>
          </Trackpoint>
          <Trackpoint>
            <Time>2020-12-05T12:36:21.000Z</Time>
            <Position>
              <LatitudeDegrees>36.8344791792333126068115234375</LatitudeDegrees>
              <LongitudeDegrees>-4.3812528066337108612060546875</LongitudeDegrees>
            </Position>
            <AltitudeMeters>667.5999755859375</AltitudeMeters>
            <DistanceMeters>NAN</DistanceMeters>
          </Trackpoint>
          <Trackpoint>
            <Time>2020-12-05T12:36:22.000Z</Time>
            <Position>
              <LatitudeDegrees>36.83446803130209445953369140625</LatitudeDegrees>
              <LongitudeDegrees>-4.38124769367277622222900390625</LongitudeDegrees>
            </Position>
            <AltitudeMeters>667.5999755859375</AltitudeMeters>
            <DistanceMeters>NAN</DistanceMeters>
          </Trackpoint>
          <Trackpoint>
            <Time>2020-12-05T12:36:23.000Z</Time>
            <Position>
              <LatitudeDegrees>36.83445730246603488922119140625</LatitudeDegrees>
              <LongitudeDegrees>-4.38124232925474643707275390625</LongitudeDegrees>
            </Position>
            <AltitudeMeters>667.5999755859375</AltitudeMeters>
            <DistanceMeters>NAN</DistanceMeters>
          </Trackpoint>
          <Trackpoint>
            <Time>2020-12-05T12:36:24.000Z</Time>
            <Position>
              <LatitudeDegrees>36.83444556780159473419189453125</LatitudeDegrees>
              <LongitudeDegrees>-4.38123755156993865966796875</LongitudeDegrees>
            </Position>
            <AltitudeMeters>667.5999755859375</AltitudeMeters>
            <DistanceMeters>NAN</DistanceMeters>
          </Trackpoint>
          <Trackpoint>
            <Time>2020-12-05T12:36:25.000Z</Time>
            <Position>
              <LatitudeDegrees>36.83443366549909114837646484375</LatitudeDegrees>
              <LongitudeDegrees>-4.381232522428035736083984375</LongitudeDegrees>
            </Position>
            <AltitudeMeters>667.5999755859375</AltitudeMeters>
            <DistanceMeters>NAN</DistanceMeters>
          </Trackpoint>
          <Trackpoint>
            <Time>2020-12-05T12:36:26.000Z</Time>
            <Position>
              <LatitudeDegrees>36.83441975153982639312744140625</LatitudeDegrees>
              <LongitudeDegrees>-4.3812273256480693817138671875</LongitudeDegrees>
            </Position>
            <AltitudeMeters>667.5999755859375</AltitudeMeters>
            <DistanceMeters>NAN</DistanceMeters>
          </Trackpoint>
          <Trackpoint>
            <Time>2020-12-05T12:36:27.000Z</Time>
            <Position>
              <LatitudeDegrees>36.83440566994249820709228515625</LatitudeDegrees>
              <LongitudeDegrees>-4.3812233023345470428466796875</LongitudeDegrees>
            </Position>
            <AltitudeMeters>667.5999755859375</AltitudeMeters>
            <DistanceMeters>NAN</DistanceMeters>
          </Trackpoint>
          <Trackpoint>
            <Time>2020-12-05T12:36:28.000Z</Time>
            <Position>
              <LatitudeDegrees>36.83439158834517002105712890625</LatitudeDegrees>
              <LongitudeDegrees>-4.381218440830707550048828125</LongitudeDegrees>
            </Position>
            <AltitudeMeters>667.5999755859375</AltitudeMeters>
            <DistanceMeters>NAN</DistanceMeters>
          </Trackpoint>
          <Trackpoint>
            <Time>2020-12-05T12:36:29.000Z</Time>
            <Position>
              <LatitudeDegrees>36.8343772552907466888427734375</LatitudeDegrees>
              <LongitudeDegrees>-4.38121450133621692657470703125</LongitudeDegrees>
            </Position>
            <AltitudeMeters>667.5999755859375</AltitudeMeters>
            <DistanceMeters>NAN</DistanceMeters>
          </Trackpoint>
          <Trackpoint>
            <Time>2020-12-05T12:36:30.000Z</Time>
            <Position>
              <LatitudeDegrees>36.8343625031411647796630859375</LatitudeDegrees>
              <LongitudeDegrees>-4.38121140003204345703125</LongitudeDegrees>
            </Position>
            <AltitudeMeters>667.5999755859375</AltitudeMeters>
            <DistanceMeters>NAN</DistanceMeters>
          </Trackpoint>
          <Trackpoint>
            <Time>2020-12-05T12:36:31.000Z</Time>
            <Position>
              <LatitudeDegrees>36.83434967882931232452392578125</LatitudeDegrees>
              <LongitudeDegrees>-4.38121098093688488006591796875</LongitudeDegrees>
            </Position>
            <AltitudeMeters>667.5999755859375</AltitudeMeters>
            <DistanceMeters>NAN</DistanceMeters>
          </Trackpoint>
          <Trackpoint>
            <Time>2020-12-05T12:36:32.000Z</Time>
            <Position>
              <LatitudeDegrees>36.83433643542230129241943359375</LatitudeDegrees>
              <LongitudeDegrees>-4.38121265731751918792724609375</LongitudeDegrees>
            </Position>
            <AltitudeMeters>667.5999755859375</AltitudeMeters>
            <DistanceMeters>NAN</DistanceMeters>
          </Trackpoint>
          <Trackpoint>
            <Time>2020-12-05T12:36:33.000Z</Time>
            <Position>
              <LatitudeDegrees>36.8343226052820682525634765625</LatitudeDegrees>
              <LongitudeDegrees>-4.38121718354523181915283203125</LongitudeDegrees>
            </Position>
            <AltitudeMeters>667.5999755859375</AltitudeMeters>
            <DistanceMeters>NAN</DistanceMeters>
          </Trackpoint>
          <Trackpoint>
            <Time>2020-12-05T12:36:34.000Z</Time>
            <Position>
              <LatitudeDegrees>36.83431045152246952056884765625</LatitudeDegrees>
              <LongitudeDegrees>-4.381221123039722442626953125</LongitudeDegrees>
            </Position>
            <AltitudeMeters>667.5999755859375</AltitudeMeters>
            <DistanceMeters>NAN</DistanceMeters>
          </Trackpoint>
          <Trackpoint>
            <Time>2020-12-05T12:36:35.000Z</Time>
            <Position>
              <LatitudeDegrees>36.83429653756320476531982421875</LatitudeDegrees>
              <LongitudeDegrees>-4.381224811077117919921875</LongitudeDegrees>
            </Position>
            <AltitudeMeters>667.5999755859375</AltitudeMeters>
            <DistanceMeters>NAN</DistanceMeters>
          </Trackpoint>
          <Trackpoint>
            <Time>2020-12-05T12:36:36.000Z</Time>
            <Position>
              <LatitudeDegrees>36.8342843838036060333251953125</LatitudeDegrees>
              <LongitudeDegrees>-4.38122757710516452789306640625</LongitudeDegrees>
            </Position>
            <AltitudeMeters>667.5999755859375</AltitudeMeters>
            <DistanceMeters>NAN</DistanceMeters>
          </Trackpoint>
          <Trackpoint>
            <Time>2020-12-05T12:36:37.000Z</Time>
            <Position>
              <LatitudeDegrees>36.83427424170076847076416015625</LatitudeDegrees>
              <LongitudeDegrees>-4.38122590072453022003173828125</LongitudeDegrees>
            </Position>
            <AltitudeMeters>667.5999755859375</AltitudeMeters>
            <DistanceMeters>NAN</DistanceMeters>
          </Trackpoint>
          <Trackpoint>
            <Time>2020-12-05T12:36:38.000Z</Time>
            <Position>
              <LatitudeDegrees>36.83426334522664546966552734375</LatitudeDegrees>
              <LongitudeDegrees>-4.38122673891484737396240234375</LongitudeDegrees>
            </Position>
            <AltitudeMeters>667.5999755859375</AltitudeMeters>
            <DistanceMeters>NAN</DistanceMeters>
          </Trackpoint>
          <Trackpoint>
            <Time>2020-12-05T12:36:39.000Z</Time>
            <Position>
              <LatitudeDegrees>36.83425462804734706878662109375</LatitudeDegrees>
              <LongitudeDegrees>-4.381227158010005950927734375</LongitudeDegrees>
            </Position>
            <AltitudeMeters>667.5999755859375</AltitudeMeters>
            <DistanceMeters>NAN</DistanceMeters>
          </Trackpoint>
          <Trackpoint>
            <Time>2020-12-05T12:36:40.000Z</Time>
            <Position>
              <LatitudeDegrees>36.8342439830303192138671875</LatitudeDegrees>
              <LongitudeDegrees>-4.3812296725809574127197265625</LongitudeDegrees>
            </Position>
            <AltitudeMeters>667.5999755859375</AltitudeMeters>
            <DistanceMeters>NAN</DistanceMeters>
          </Trackpoint>
          <Trackpoint>
            <Time>2020-12-05T12:36:41.000Z</Time>
            <Position>
              <LatitudeDegrees>36.83423526585102081298828125</LatitudeDegrees>
              <LongitudeDegrees>-4.3812316842377185821533203125</LongitudeDegrees>
            </Position>
            <AltitudeMeters>667.5999755859375</AltitudeMeters>
            <DistanceMeters>NAN</DistanceMeters>
          </Trackpoint>
          <Trackpoint>
            <Time>2020-12-05T12:36:42.000Z</Time>
            <Position>
              <LatitudeDegrees>36.834226548671722412109375</LatitudeDegrees>
              <LongitudeDegrees>-4.38122975639998912811279296875</LongitudeDegrees>
            </Position>
            <AltitudeMeters>667.5999755859375</AltitudeMeters>
            <DistanceMeters>NAN</DistanceMeters>
          </Trackpoint>
          <Trackpoint>
            <Time>2020-12-05T12:36:43.000Z</Time>
            <Position>
              <LatitudeDegrees>36.8342179991304874420166015625</LatitudeDegrees>
              <LongitudeDegrees>-4.38123126514256000518798828125</LongitudeDegrees>
            </Position>
            <AltitudeMeters>667.5999755859375</AltitudeMeters>
            <DistanceMeters>NAN</DistanceMeters>
          </Trackpoint>
          <Trackpoint>
            <Time>2020-12-05T12:36:44.000Z</Time>
            <Position>
              <LatitudeDegrees>36.8342099525034427642822265625</LatitudeDegrees>
              <LongitudeDegrees>-4.38123612664639949798583984375</LongitudeDegrees>
            </Position>
            <AltitudeMeters>667.5999755859375</AltitudeMeters>
            <DistanceMeters>NAN</DistanceMeters>
          </Trackpoint>
          <Trackpoint>
            <Time>2020-12-05T12:36:45.000Z</Time>
            <Position>
              <LatitudeDegrees>36.8342009000480175018310546875</LatitudeDegrees>
              <LongitudeDegrees>-4.3812383897602558135986328125</LongitudeDegrees>
            </Position>
            <AltitudeMeters>667.5999755859375</AltitudeMeters>
            <DistanceMeters>NAN</DistanceMeters>
          </Trackpoint>
          <Trackpoint>
            <Time>2020-12-05T12:36:46.000Z</Time>
            <Position>
              <LatitudeDegrees>36.83419235050678253173828125</LatitudeDegrees>
              <LongitudeDegrees>-4.38124048523604869842529296875</LongitudeDegrees>
            </Position>
            <AltitudeMeters>667.5999755859375</AltitudeMeters>
            <DistanceMeters>NAN</DistanceMeters>
          </Trackpoint>
          <Trackpoint>
            <Time>2020-12-05T12:36:47.000Z</Time>
            <Position>
              <LatitudeDegrees>36.83418304659426212310791015625</LatitudeDegrees>
              <LongitudeDegrees>-4.38124023377895355224609375</LongitudeDegrees>
            </Position>
            <AltitudeMeters>667.5999755859375</AltitudeMeters>
            <DistanceMeters>NAN</DistanceMeters>
          </Trackpoint>
          <Trackpoint>
            <Time>2020-12-05T12:36:48.000Z</Time>
            <Position>
              <LatitudeDegrees>36.8341747485101222991943359375</LatitudeDegrees>
              <LongitudeDegrees>-4.381239227950572967529296875</LongitudeDegrees>
            </Position>
            <AltitudeMeters>667.5999755859375</AltitudeMeters>
            <DistanceMeters>NAN</DistanceMeters>
          </Trackpoint>
          <Trackpoint>
            <Time>2020-12-05T12:36:49.000Z</Time>
            <Position>
              <LatitudeDegrees>36.8341667018830776214599609375</LatitudeDegrees>
              <LongitudeDegrees>-4.38123914413154125213623046875</LongitudeDegrees>
            </Position>
            <AltitudeMeters>667.5999755859375</AltitudeMeters>
            <DistanceMeters>NAN</DistanceMeters>
          </Trackpoint>
          <Trackpoint>
            <Time>2020-12-05T12:36:50.000Z</Time>
            <Position>
              <LatitudeDegrees>36.83415940962731838226318359375</LatitudeDegrees>
              <LongitudeDegrees>-4.38124157488346099853515625</LongitudeDegrees>
            </Position>
            <AltitudeMeters>667.5999755859375</AltitudeMeters>
            <DistanceMeters>NAN</DistanceMeters>
          </Trackpoint>
          <Trackpoint>
            <Time>2020-12-05T12:36:51.000Z</Time>
            <Position>
              <LatitudeDegrees>36.834147758781909942626953125</LatitudeDegrees>
              <LongitudeDegrees>-4.3812454305589199066162109375</LongitudeDegrees>
            </Position>
            <AltitudeMeters>667.5999755859375</AltitudeMeters>
            <DistanceMeters>NAN</DistanceMeters>
          </Trackpoint>
          <Trackpoint>
            <Time>2020-12-05T12:36:52.000Z</Time>
            <Position>
              <LatitudeDegrees>36.8341351859271526336669921875</LatitudeDegrees>
              <LongitudeDegrees>-4.3812491185963153839111328125</LongitudeDegrees>
            </Position>
            <AltitudeMeters>667.5999755859375</AltitudeMeters>
            <DistanceMeters>NAN</DistanceMeters>
          </Trackpoint>
          <Trackpoint>
            <Time>2020-12-05T12:36:53.000Z</Time>
            <Position>
              <LatitudeDegrees>36.83412219397723674774169921875</LatitudeDegrees>
              <LongitudeDegrees>-4.3812518008053302764892578125</LongitudeDegrees>
            </Position>
            <AltitudeMeters>667.5999755859375</AltitudeMeters>
            <DistanceMeters>NAN</DistanceMeters>
          </Trackpoint>
          <Trackpoint>
            <Time>2020-12-05T12:36:54.000Z</Time>
            <Position>
              <LatitudeDegrees>36.83411330915987491607666015625</LatitudeDegrees>
              <LongitudeDegrees>-4.38125255517661571502685546875</LongitudeDegrees>
            </Position>
            <AltitudeMeters>667.5999755859375</AltitudeMeters>
            <DistanceMeters>NAN</DistanceMeters>
          </Trackpoint>
          <Trackpoint>
            <Time>2020-12-05T12:36:55.000Z</Time>
            <Position>
              <LatitudeDegrees>36.8341056816279888153076171875</LatitudeDegrees>
              <LongitudeDegrees>-4.38125431537628173828125</LongitudeDegrees>
            </Position>
            <AltitudeMeters>667.5999755859375</AltitudeMeters>
            <DistanceMeters>NAN</DistanceMeters>
          </Trackpoint>
          <Trackpoint>
            <Time>2020-12-05T12:36:56.000Z</Time>
            <Position>
              <LatitudeDegrees>36.83409822173416614532470703125</LatitudeDegrees>
              <LongitudeDegrees>-4.38125557266175746917724609375</LongitudeDegrees>
            </Position>
            <AltitudeMeters>667.5999755859375</AltitudeMeters>
            <DistanceMeters>NAN</DistanceMeters>
          </Trackpoint>
          <Trackpoint>
            <Time>2020-12-05T12:36:57.000Z</Time>
            <Position>
              <LatitudeDegrees>36.83409134857356548309326171875</LatitudeDegrees>
              <LongitudeDegrees>-4.3812610208988189697265625</LongitudeDegrees>
            </Position>
            <AltitudeMeters>667.5999755859375</AltitudeMeters>
            <DistanceMeters>NAN</DistanceMeters>
          </Trackpoint>
          <Trackpoint>
            <Time>2020-12-05T12:36:58.000Z</Time>
            <Position>
              <LatitudeDegrees>36.83408430777490139007568359375</LatitudeDegrees>
              <LongitudeDegrees>-4.38126462511718273162841796875</LongitudeDegrees>
            </Position>
            <AltitudeMeters>667.5999755859375</AltitudeMeters>
            <DistanceMeters>NAN</DistanceMeters>
          </Trackpoint>
          <Trackpoint>
            <Time>2020-12-05T12:36:59.000Z</Time>
            <Position>
              <LatitudeDegrees>36.83407877571880817413330078125</LatitudeDegrees>
              <LongitudeDegrees>-4.381266050040721893310546875</LongitudeDegrees>
            </Position>
            <AltitudeMeters>667.5999755859375</AltitudeMeters>
            <DistanceMeters>NAN</DistanceMeters>
          </Trackpoint>
          <Trackpoint>
            <Time>2020-12-05T12:37:00.000Z</Time>
            <Position>
              <LatitudeDegrees>36.83407492004334926605224609375</LatitudeDegrees>
              <LongitudeDegrees>-4.38126839697360992431640625</LongitudeDegrees>
            </Position>
            <AltitudeMeters>662.20001220703125</AltitudeMeters>
            <DistanceMeters>NAN</DistanceMeters>
          </Trackpoint>
          <Trackpoint>
            <Time>2020-12-05T12:37:01.000Z</Time>
            <Position>
              <LatitudeDegrees>36.83406922034919261932373046875</LatitudeDegrees>
              <LongitudeDegrees>-4.38127166591584682464599609375</LongitudeDegrees>
            </Position>
            <AltitudeMeters>662.20001220703125</AltitudeMeters>
            <DistanceMeters>NAN</DistanceMeters>
          </Trackpoint>
          <Trackpoint>
            <Time>2020-12-05T12:37:02.000Z</Time>
            <Position>
              <LatitudeDegrees>36.8340617604553699493408203125</LatitudeDegrees>
              <LongitudeDegrees>-4.3812745995819568634033203125</LongitudeDegrees>
            </Position>
            <AltitudeMeters>662.20001220703125</AltitudeMeters>
            <DistanceMeters>NAN</DistanceMeters>
          </Trackpoint>
          <Trackpoint>
            <Time>2020-12-05T12:37:03.000Z</Time>
            <Position>
              <LatitudeDegrees>36.83405295945703983306884765625</LatitudeDegrees>
              <LongitudeDegrees>-4.38128046691417694091796875</LongitudeDegrees>
            </Position>
            <AltitudeMeters>662.20001220703125</AltitudeMeters>
            <DistanceMeters>NAN</DistanceMeters>
          </Trackpoint>
          <Trackpoint>
            <Time>2020-12-05T12:37:04.000Z</Time>
            <Position>
              <LatitudeDegrees>36.8340436555445194244384765625</LatitudeDegrees>
              <LongitudeDegrees>-4.381287507712841033935546875</LongitudeDegrees>
            </Position>
            <AltitudeMeters>662.20001220703125</AltitudeMeters>
            <DistanceMeters>NAN</DistanceMeters>
          </Trackpoint>
          <Trackpoint>
            <Time>2020-12-05T12:37:05.000Z</Time>
            <Position>
              <LatitudeDegrees>36.83403518982231616973876953125</LatitudeDegrees>
              <LongitudeDegrees>-4.38129312358796596527099609375</LongitudeDegrees>
            </Position>
            <AltitudeMeters>662.20001220703125</AltitudeMeters>
            <DistanceMeters>NAN</DistanceMeters>
          </Trackpoint>
          <Trackpoint>
            <Time>2020-12-05T12:37:06.000Z</Time>
            <Position>
              <LatitudeDegrees>36.83402664028108119964599609375</LatitudeDegrees>
              <LongitudeDegrees>-4.3812957219779491424560546875</LongitudeDegrees>
            </Position>
            <AltitudeMeters>662.20001220703125</AltitudeMeters>
            <DistanceMeters>NAN</DistanceMeters>
          </Trackpoint>
          <Trackpoint>
            <Time>2020-12-05T12:37:07.000Z</Time>
            <Position>
              <LatitudeDegrees>36.8340161629021167755126953125</LatitudeDegrees>
              <LongitudeDegrees>-4.38129865564405918121337890625</LongitudeDegrees>
            </Position>
            <AltitudeMeters>662.20001220703125</AltitudeMeters>
            <DistanceMeters>NAN</DistanceMeters>
          </Trackpoint>
          <Trackpoint>
            <Time>2020-12-05T12:37:08.000Z</Time>
            <Position>
              <LatitudeDegrees>36.83401524089276790618896484375</LatitudeDegrees>
              <LongitudeDegrees>-4.38130955211818218231201171875</LongitudeDegrees>
            </Position>
            <AltitudeMeters>662.20001220703125</AltitudeMeters>
            <DistanceMeters>NAN</DistanceMeters>
          </Trackpoint>
          <Trackpoint>
            <Time>2020-12-05T12:37:09.000Z</Time>
            <Position>
              <LatitudeDegrees>36.8340074457228183746337890625</LatitudeDegrees>
              <LongitudeDegrees>-4.381312988698482513427734375</LongitudeDegrees>
            </Position>
            <AltitudeMeters>662.20001220703125</AltitudeMeters>
            <DistanceMeters>NAN</DistanceMeters>
          </Trackpoint>
          <Trackpoint>
            <Time>2020-12-05T12:37:10.000Z</Time>
            <Position>
              <LatitudeDegrees>36.833997555077075958251953125</LatitudeDegrees>
              <LongitudeDegrees>-4.38131206668913364410400390625</LongitudeDegrees>
            </Position>
            <AltitudeMeters>662.20001220703125</AltitudeMeters>
            <DistanceMeters>NAN</DistanceMeters>
          </Trackpoint>
          <Trackpoint>
            <Time>2020-12-05T12:37:11.000Z</Time>
            <Position>
              <LatitudeDegrees>36.83399093337357044219970703125</LatitudeDegrees>
              <LongitudeDegrees>-4.38131424598395824432373046875</LongitudeDegrees>
            </Position>
            <AltitudeMeters>662.20001220703125</AltitudeMeters>
            <DistanceMeters>NAN</DistanceMeters>
          </Trackpoint>
          <Trackpoint>
            <Time>2020-12-05T12:37:12.000Z</Time>
            <Position>
              <LatitudeDegrees>36.8339823000133037567138671875</LatitudeDegrees>
              <LongitudeDegrees>-4.3813188560307025909423828125</LongitudeDegrees>
            </Position>
            <AltitudeMeters>662.20001220703125</AltitudeMeters>
            <DistanceMeters>NAN</DistanceMeters>
          </Trackpoint>
          <Trackpoint>
            <Time>2020-12-05T12:37:13.000Z</Time>
            <Position>
              <LatitudeDegrees>36.83397509157657623291015625</LatitudeDegrees>
              <LongitudeDegrees>-4.38132162205874919891357421875</LongitudeDegrees>
            </Position>
            <AltitudeMeters>662.20001220703125</AltitudeMeters>
            <DistanceMeters>NAN</DistanceMeters>
          </Trackpoint>
          <Trackpoint>
            <Time>2020-12-05T12:37:14.000Z</Time>
            <Position>
              <LatitudeDegrees>36.83396411128342151641845703125</LatitudeDegrees>
              <LongitudeDegrees>-4.381328411400318145751953125</LongitudeDegrees>
            </Position>
            <AltitudeMeters>662.20001220703125</AltitudeMeters>
            <DistanceMeters>NAN</DistanceMeters>
          </Trackpoint>
          <Trackpoint>
            <Time>2020-12-05T12:37:15.000Z</Time>
            <Position>
              <LatitudeDegrees>36.83395505882799625396728515625</LatitudeDegrees>
              <LongitudeDegrees>-4.38133335672318935394287109375</LongitudeDegrees>
            </Position>
            <AltitudeMeters>662.20001220703125</AltitudeMeters>
            <DistanceMeters>NAN</DistanceMeters>
          </Trackpoint>
          <Trackpoint>
            <Time>2020-12-05T12:37:16.000Z</Time>
            <Position>
              <LatitudeDegrees>36.83394491672515869140625</LatitudeDegrees>
              <LongitudeDegrees>-4.3813393078744411468505859375</LongitudeDegrees>
            </Position>
            <AltitudeMeters>662.20001220703125</AltitudeMeters>
            <DistanceMeters>NAN</DistanceMeters>
          </Trackpoint>
          <Trackpoint>
            <Time>2020-12-05T12:37:17.000Z</Time>
            <Position>
              <LatitudeDegrees>36.8339363671839237213134765625</LatitudeDegrees>
              <LongitudeDegrees>-4.3813419900834560394287109375</LongitudeDegrees>
            </Position>
            <AltitudeMeters>662.20001220703125</AltitudeMeters>
            <DistanceMeters>NAN</DistanceMeters>
          </Trackpoint>
          <Trackpoint>
            <Time>2020-12-05T12:37:18.000Z</Time>
            <Position>
              <LatitudeDegrees>36.83392815291881561279296875</LatitudeDegrees>
              <LongitudeDegrees>-4.3813433311879634857177734375</LongitudeDegrees>
            </Position>
            <AltitudeMeters>662.20001220703125</AltitudeMeters>
            <DistanceMeters>NAN</DistanceMeters>
          </Trackpoint>
          <Trackpoint>
            <Time>2020-12-05T12:37:19.000Z</Time>
            <Position>
              <LatitudeDegrees>36.833918429911136627197265625</LatitudeDegrees>
              <LongitudeDegrees>-4.38134056515991687774658203125</LongitudeDegrees>
            </Position>
            <AltitudeMeters>662.20001220703125</AltitudeMeters>
            <DistanceMeters>NAN</DistanceMeters>
          </Trackpoint>
          <Trackpoint>
            <Time>2020-12-05T12:37:20.000Z</Time>
            <Position>
              <LatitudeDegrees>36.83391130529344081878662109375</LatitudeDegrees>
              <LongitudeDegrees>-4.3813369609415531158447265625</LongitudeDegrees>
            </Position>
            <AltitudeMeters>662.20001220703125</AltitudeMeters>
            <DistanceMeters>NAN</DistanceMeters>
          </Trackpoint>
          <Trackpoint>
            <Time>2020-12-05T12:37:21.000Z</Time>
            <Position>
              <LatitudeDegrees>36.8338998220860958099365234375</LatitudeDegrees>
              <LongitudeDegrees>-4.381329752504825592041015625</LongitudeDegrees>
            </Position>
            <AltitudeMeters>662.20001220703125</AltitudeMeters>
            <DistanceMeters>NAN</DistanceMeters>
          </Trackpoint>
          <Trackpoint>
            <Time>2020-12-05T12:37:22.000Z</Time>
            <Position>
              <LatitudeDegrees>36.8338897638022899627685546875</LatitudeDegrees>
              <LongitudeDegrees>-4.3813262321054935455322265625</LongitudeDegrees>
            </Position>
            <AltitudeMeters>662.20001220703125</AltitudeMeters>
            <DistanceMeters>NAN</DistanceMeters>
          </Trackpoint>
          <Trackpoint>
            <Time>2020-12-05T12:37:23.000Z</Time>
            <Position>
              <LatitudeDegrees>36.8338738381862640380859375</LatitudeDegrees>
              <LongitudeDegrees>-4.38131575472652912139892578125</LongitudeDegrees>
            </Position>
            <AltitudeMeters>662.20001220703125</AltitudeMeters>
            <DistanceMeters>NAN</DistanceMeters>
          </Trackpoint>
          <Trackpoint>
            <Time>2020-12-05T12:37:24.000Z</Time>
            <Position>
              <LatitudeDegrees>36.833858750760555267333984375</LatitudeDegrees>
              <LongitudeDegrees>-4.38129932619631290435791015625</LongitudeDegrees>
            </Position>
            <AltitudeMeters>662.20001220703125</AltitudeMeters>
            <DistanceMeters>NAN</DistanceMeters>
          </Trackpoint>
          <Trackpoint>
            <Time>2020-12-05T12:37:25.000Z</Time>
            <Position>
              <LatitudeDegrees>36.83385179378092288970947265625</LatitudeDegrees>
              <LongitudeDegrees>-4.38129764981567859649658203125</LongitudeDegrees>
            </Position>
            <AltitudeMeters>662.20001220703125</AltitudeMeters>
            <DistanceMeters>NAN</DistanceMeters>
          </Trackpoint>
          <Trackpoint>
            <Time>2020-12-05T12:37:26.000Z</Time>
            <Position>
              <LatitudeDegrees>36.83384860865771770477294921875</LatitudeDegrees>
              <LongitudeDegrees>-4.38130016438663005828857421875</LongitudeDegrees>
            </Position>
            <AltitudeMeters>662.20001220703125</AltitudeMeters>
            <DistanceMeters>NAN</DistanceMeters>
          </Trackpoint>
          <Trackpoint>
            <Time>2020-12-05T12:37:27.000Z</Time>
            <Position>
              <LatitudeDegrees>36.83384106494486331939697265625</LatitudeDegrees>
              <LongitudeDegrees>-4.3813000805675983428955078125</LongitudeDegrees>
            </Position>
            <AltitudeMeters>662.20001220703125</AltitudeMeters>
            <DistanceMeters>NAN</DistanceMeters>
          </Trackpoint>
          <Trackpoint>
            <Time>2020-12-05T12:37:28.000Z</Time>
            <Position>
              <LatitudeDegrees>36.83383301831781864166259765625</LatitudeDegrees>
              <LongitudeDegrees>-4.3813020922243595123291015625</LongitudeDegrees>
            </Position>
            <AltitudeMeters>662.20001220703125</AltitudeMeters>
            <DistanceMeters>NAN</DistanceMeters>
          </Trackpoint>
          <Trackpoint>
            <Time>2020-12-05T12:37:29.000Z</Time>
            <Position>
              <LatitudeDegrees>36.83382681570947170257568359375</LatitudeDegrees>
              <LongitudeDegrees>-4.38130728900432586669921875</LongitudeDegrees>
            </Position>
            <AltitudeMeters>662.20001220703125</AltitudeMeters>
            <DistanceMeters>NAN</DistanceMeters>
          </Trackpoint>
          <Trackpoint>
            <Time>2020-12-05T12:37:30.000Z</Time>
            <Position>
              <LatitudeDegrees>36.83381952345371246337890625</LatitudeDegrees>
              <LongitudeDegrees>-4.381310306489467620849609375</LongitudeDegrees>
            </Position>
            <AltitudeMeters>662.20001220703125</AltitudeMeters>
            <DistanceMeters>NAN</DistanceMeters>
          </Trackpoint>
          <Trackpoint>
            <Time>2020-12-05T12:37:31.000Z</Time>
            <Position>
              <LatitudeDegrees>36.833813153207302093505859375</LatitudeDegrees>
              <LongitudeDegrees>-4.38131223432719707489013671875</LongitudeDegrees>
            </Position>
            <AltitudeMeters>662.20001220703125</AltitudeMeters>
            <DistanceMeters>NAN</DistanceMeters>
          </Trackpoint>
          <Trackpoint>
            <Time>2020-12-05T12:37:32.000Z</Time>
            <Position>
              <LatitudeDegrees>36.83380720205605030059814453125</LatitudeDegrees>
              <LongitudeDegrees>-4.38131810165941715240478515625</LongitudeDegrees>
            </Position>
            <AltitudeMeters>662.20001220703125</AltitudeMeters>
            <DistanceMeters>NAN</DistanceMeters>
          </Trackpoint>
          <Trackpoint>
            <Time>2020-12-05T12:37:33.000Z</Time>
            <Position>
              <LatitudeDegrees>36.83379882015287876129150390625</LatitudeDegrees>
              <LongitudeDegrees>-4.38132044859230518341064453125</LongitudeDegrees>
            </Position>
            <AltitudeMeters>662.20001220703125</AltitudeMeters>
            <DistanceMeters>NAN</DistanceMeters>
          </Trackpoint>
          <Trackpoint>
            <Time>2020-12-05T12:37:34.000Z</Time>
            <Position>
              <LatitudeDegrees>36.8337928690016269683837890625</LatitudeDegrees>
              <LongitudeDegrees>-4.38132346607744693756103515625</LongitudeDegrees>
            </Position>
            <AltitudeMeters>662.20001220703125</AltitudeMeters>
            <DistanceMeters>NAN</DistanceMeters>
          </Trackpoint>
          <Trackpoint>
            <Time>2020-12-05T12:37:35.000Z</Time>
            <Position>
              <LatitudeDegrees>36.83378599584102630615234375</LatitudeDegrees>
              <LongitudeDegrees>-4.38132598064839839935302734375</LongitudeDegrees>
            </Position>
            <AltitudeMeters>662.20001220703125</AltitudeMeters>
            <DistanceMeters>NAN</DistanceMeters>
          </Trackpoint>
          <Trackpoint>
            <Time>2020-12-05T12:37:36.000Z</Time>
            <Position>
              <LatitudeDegrees>36.83378172107040882110595703125</LatitudeDegrees>
              <LongitudeDegrees>-4.38132732175290584564208984375</LongitudeDegrees>
            </Position>
            <AltitudeMeters>662.20001220703125</AltitudeMeters>
            <DistanceMeters>NAN</DistanceMeters>
          </Trackpoint>
          <Trackpoint>
            <Time>2020-12-05T12:37:37.000Z</Time>
            <Position>
              <LatitudeDegrees>36.83377769775688648223876953125</LatitudeDegrees>
              <LongitudeDegrees>-4.3813265673816204071044921875</LongitudeDegrees>
            </Position>
            <AltitudeMeters>662.20001220703125</AltitudeMeters>
            <DistanceMeters>NAN</DistanceMeters>
          </Trackpoint>
          <Trackpoint>
            <Time>2020-12-05T12:37:38.000Z</Time>
            <Position>
              <LatitudeDegrees>36.83377250097692012786865234375</LatitudeDegrees>
              <LongitudeDegrees>-4.38132246024906635284423828125</LongitudeDegrees>
            </Position>
            <AltitudeMeters>662.20001220703125</AltitudeMeters>
            <DistanceMeters>NAN</DistanceMeters>
          </Trackpoint>
          <Trackpoint>
            <Time>2020-12-05T12:37:39.000Z</Time>
            <Position>
              <LatitudeDegrees>36.8337667174637317657470703125</LatitudeDegrees>
              <LongitudeDegrees>-4.38132044859230518341064453125</LongitudeDegrees>
            </Position>
            <AltitudeMeters>662.20001220703125</AltitudeMeters>
            <DistanceMeters>NAN</DistanceMeters>
          </Trackpoint>
          <Trackpoint>
            <Time>2020-12-05T12:37:40.000Z</Time>
            <Position>
              <LatitudeDegrees>36.83375942520797252655029296875</LatitudeDegrees>
              <LongitudeDegrees>-4.3813195265829563140869140625</LongitudeDegrees>
            </Position>
            <AltitudeMeters>662.20001220703125</AltitudeMeters>
            <DistanceMeters>NAN</DistanceMeters>
          </Trackpoint>
          <Trackpoint>
            <Time>2020-12-05T12:37:41.000Z</Time>
            <Position>
              <LatitudeDegrees>36.83375104330480098724365234375</LatitudeDegrees>
              <LongitudeDegrees>-4.38131256960332393646240234375</LongitudeDegrees>
            </Position>
            <AltitudeMeters>662.20001220703125</AltitudeMeters>
            <DistanceMeters>NAN</DistanceMeters>
          </Trackpoint>
          <Trackpoint>
            <Time>2020-12-05T12:37:42.000Z</Time>
            <Position>
              <LatitudeDegrees>36.83374316431581974029541015625</LatitudeDegrees>
              <LongitudeDegrees>-4.38130795955657958984375</LongitudeDegrees>
            </Position>
            <AltitudeMeters>662.20001220703125</AltitudeMeters>
            <DistanceMeters>NAN</DistanceMeters>
          </Trackpoint>
          <Trackpoint>
            <Time>2020-12-05T12:37:43.000Z</Time>
            <Position>
              <LatitudeDegrees>36.83373327367007732391357421875</LatitudeDegrees>
              <LongitudeDegrees>-4.38130234368145465850830078125</LongitudeDegrees>
            </Position>
            <AltitudeMeters>662.20001220703125</AltitudeMeters>
            <DistanceMeters>NAN</DistanceMeters>
          </Trackpoint>
          <Trackpoint>
            <Time>2020-12-05T12:37:44.000Z</Time>
            <Position>
              <LatitudeDegrees>36.83372137136757373809814453125</LatitudeDegrees>
              <LongitudeDegrees>-4.38129681162536144256591796875</LongitudeDegrees>
            </Position>
            <AltitudeMeters>662.20001220703125</AltitudeMeters>
            <DistanceMeters>NAN</DistanceMeters>
          </Trackpoint>
          <Trackpoint>
            <Time>2020-12-05T12:37:45.000Z</Time>
            <Position>
              <LatitudeDegrees>36.833709888160228729248046875</LatitudeDegrees>
              <LongitudeDegrees>-4.38129027374088764190673828125</LongitudeDegrees>
            </Position>
            <AltitudeMeters>662.20001220703125</AltitudeMeters>
            <DistanceMeters>NAN</DistanceMeters>
          </Trackpoint>
          <Trackpoint>
            <Time>2020-12-05T12:37:46.000Z</Time>
            <Position>
              <LatitudeDegrees>36.83370041660964488983154296875</LatitudeDegrees>
              <LongitudeDegrees>-4.38128675334155559539794921875</LongitudeDegrees>
            </Position>
            <AltitudeMeters>662.20001220703125</AltitudeMeters>
            <DistanceMeters>NAN</DistanceMeters>
          </Trackpoint>
          <Trackpoint>
            <Time>2020-12-05T12:37:47.000Z</Time>
            <Position>
              <LatitudeDegrees>36.83369337581098079681396484375</LatitudeDegrees>
              <LongitudeDegrees>-4.38128474168479442596435546875</LongitudeDegrees>
            </Position>
            <AltitudeMeters>662.20001220703125</AltitudeMeters>
            <DistanceMeters>NAN</DistanceMeters>
          </Trackpoint>
          <Trackpoint>
            <Time>2020-12-05T12:37:48.000Z</Time>
            <Position>
              <LatitudeDegrees>36.83368809521198272705078125</LatitudeDegrees>
              <LongitudeDegrees>-4.3812870047986507415771484375</LongitudeDegrees>
            </Position>
            <AltitudeMeters>662.20001220703125</AltitudeMeters>
            <DistanceMeters>NAN</DistanceMeters>
          </Trackpoint>
          <Trackpoint>
            <Time>2020-12-05T12:37:49.000Z</Time>
            <Position>
              <LatitudeDegrees>36.83368130587041378021240234375</LatitudeDegrees>
              <LongitudeDegrees>-4.38128507696092128753662109375</LongitudeDegrees>
            </Position>
            <AltitudeMeters>662.20001220703125</AltitudeMeters>
            <DistanceMeters>NAN</DistanceMeters>
          </Trackpoint>
          <Trackpoint>
            <Time>2020-12-05T12:37:50.000Z</Time>
            <Position>
              <LatitudeDegrees>36.83367376215755939483642578125</LatitudeDegrees>
              <LongitudeDegrees>-4.38128323294222354888916015625</LongitudeDegrees>
            </Position>
            <AltitudeMeters>662.20001220703125</AltitudeMeters>
            <DistanceMeters>NAN</DistanceMeters>
          </Trackpoint>
          <Trackpoint>
            <Time>2020-12-05T12:37:51.000Z</Time>
            <Position>
              <LatitudeDegrees>36.83367024175822734832763671875</LatitudeDegrees>
              <LongitudeDegrees>-4.3812792934477329254150390625</LongitudeDegrees>
            </Position>
            <AltitudeMeters>662.20001220703125</AltitudeMeters>
            <DistanceMeters>NAN</DistanceMeters>
          </Trackpoint>
          <Trackpoint>
            <Time>2020-12-05T12:37:52.000Z</Time>
            <Position>
              <LatitudeDegrees>36.83366655372083187103271484375</LatitudeDegrees>
              <LongitudeDegrees>-4.38127334229648113250732421875</LongitudeDegrees>
            </Position>
            <AltitudeMeters>662.20001220703125</AltitudeMeters>
            <DistanceMeters>NAN</DistanceMeters>
          </Trackpoint>
          <Trackpoint>
            <Time>2020-12-05T12:37:53.000Z</Time>
            <Position>
              <LatitudeDegrees>36.83366588316857814788818359375</LatitudeDegrees>
              <LongitudeDegrees>-4.3812648765742778778076171875</LongitudeDegrees>
            </Position>
            <AltitudeMeters>662.20001220703125</AltitudeMeters>
            <DistanceMeters>NAN</DistanceMeters>
          </Trackpoint>
          <Trackpoint>
            <Time>2020-12-05T12:37:54.000Z</Time>
            <Position>
              <LatitudeDegrees>36.8336671404540538787841796875</LatitudeDegrees>
              <LongitudeDegrees>-4.38125523738563060760498046875</LongitudeDegrees>
            </Position>
            <AltitudeMeters>662.20001220703125</AltitudeMeters>
            <DistanceMeters>NAN</DistanceMeters>
          </Trackpoint>
          <Trackpoint>
            <Time>2020-12-05T12:37:55.000Z</Time>
            <Position>
              <LatitudeDegrees>36.83366797864437103271484375</LatitudeDegrees>
              <LongitudeDegrees>-4.3812454305589199066162109375</LongitudeDegrees>
            </Position>
            <AltitudeMeters>662.20001220703125</AltitudeMeters>
            <DistanceMeters>NAN</DistanceMeters>
          </Trackpoint>
          <Trackpoint>
            <Time>2020-12-05T12:37:56.000Z</Time>
            <Position>
              <LatitudeDegrees>36.833668984472751617431640625</LatitudeDegrees>
              <LongitudeDegrees>-4.38123361207544803619384765625</LongitudeDegrees>
            </Position>
            <AltitudeMeters>662.20001220703125</AltitudeMeters>
            <DistanceMeters>NAN</DistanceMeters>
          </Trackpoint>
          <Trackpoint>
            <Time>2020-12-05T12:37:57.000Z</Time>
            <Position>
              <LatitudeDegrees>36.83366722427308559417724609375</LatitudeDegrees>
              <LongitudeDegrees>-4.38122338615357875823974609375</LongitudeDegrees>
            </Position>
            <AltitudeMeters>662.20001220703125</AltitudeMeters>
            <DistanceMeters>NAN</DistanceMeters>
          </Trackpoint>
          <Trackpoint>
            <Time>2020-12-05T12:37:58.000Z</Time>
            <Position>
              <LatitudeDegrees>36.83366504497826099395751953125</LatitudeDegrees>
              <LongitudeDegrees>-4.381211064755916595458984375</LongitudeDegrees>
            </Position>
            <AltitudeMeters>662.20001220703125</AltitudeMeters>
            <DistanceMeters>NAN</DistanceMeters>
          </Trackpoint>
          <Trackpoint>
            <Time>2020-12-05T12:37:59.000Z</Time>
            <Position>
              <LatitudeDegrees>36.83366303332149982452392578125</LatitudeDegrees>
              <LongitudeDegrees>-4.38119639642536640167236328125</LongitudeDegrees>
            </Position>
            <AltitudeMeters>662.20001220703125</AltitudeMeters>
            <DistanceMeters>NAN</DistanceMeters>
          </Trackpoint>
          <Trackpoint>
            <Time>2020-12-05T12:38:00.000Z</Time>
            <Position>
              <LatitudeDegrees>36.83366253040730953216552734375</LatitudeDegrees>
              <LongitudeDegrees>-4.381181895732879638671875</LongitudeDegrees>
            </Position>
            <AltitudeMeters>670.79998779296875</AltitudeMeters>
            <DistanceMeters>NAN</DistanceMeters>
          </Trackpoint>
          <Trackpoint>
            <Time>2020-12-05T12:38:01.000Z</Time>
            <Position>
              <LatitudeDegrees>36.83366018347442150115966796875</LatitudeDegrees>
              <LongitudeDegrees>-4.38116655685007572174072265625</LongitudeDegrees>
            </Position>
            <AltitudeMeters>670.79998779296875</AltitudeMeters>
            <DistanceMeters>NAN</DistanceMeters>
          </Trackpoint>
          <Trackpoint>
            <Time>2020-12-05T12:38:02.000Z</Time>
            <Position>
              <LatitudeDegrees>36.83365859091281890869140625</LatitudeDegrees>
              <LongitudeDegrees>-4.38114929012954235076904296875</LongitudeDegrees>
            </Position>
            <AltitudeMeters>670.79998779296875</AltitudeMeters>
            <DistanceMeters>NAN</DistanceMeters>
          </Trackpoint>
          <Trackpoint>
            <Time>2020-12-05T12:38:03.000Z</Time>
            <Position>
              <LatitudeDegrees>36.833654902875423431396484375</LatitudeDegrees>
              <LongitudeDegrees>-4.3811277486383914947509765625</LongitudeDegrees>
            </Position>
            <AltitudeMeters>670.79998779296875</AltitudeMeters>
            <DistanceMeters>NAN</DistanceMeters>
          </Trackpoint>
          <Trackpoint>
            <Time>2020-12-05T12:38:04.000Z</Time>
            <Position>
              <LatitudeDegrees>36.8336490355432033538818359375</LatitudeDegrees>
              <LongitudeDegrees>-4.3811129964888095855712890625</LongitudeDegrees>
            </Position>
            <AltitudeMeters>670.79998779296875</AltitudeMeters>
            <DistanceMeters>NAN</DistanceMeters>
          </Trackpoint>
          <Trackpoint>
            <Time>2020-12-05T12:38:05.000Z</Time>
            <Position>
              <LatitudeDegrees>36.83364450931549072265625</LatitudeDegrees>
              <LongitudeDegrees>-4.38109673559665679931640625</LongitudeDegrees>
            </Position>
            <AltitudeMeters>670.79998779296875</AltitudeMeters>
            <DistanceMeters>NAN</DistanceMeters>
          </Trackpoint>
          <Trackpoint>
            <Time>2020-12-05T12:38:06.000Z</Time>
            <Position>
              <LatitudeDegrees>36.83364341966807842254638671875</LatitudeDegrees>
              <LongitudeDegrees>-4.38108156435191631317138671875</LongitudeDegrees>
            </Position>
            <AltitudeMeters>670.79998779296875</AltitudeMeters>
            <DistanceMeters>NAN</DistanceMeters>
          </Trackpoint>
          <Trackpoint>
            <Time>2020-12-05T12:38:07.000Z</Time>
            <Position>
              <LatitudeDegrees>36.83364660479128360748291015625</LatitudeDegrees>
              <LongitudeDegrees>-4.38107016496360301971435546875</LongitudeDegrees>
            </Position>
            <AltitudeMeters>670.79998779296875</AltitudeMeters>
            <DistanceMeters>NAN</DistanceMeters>
          </Trackpoint>
          <Trackpoint>
            <Time>2020-12-05T12:38:08.000Z</Time>
            <Position>
              <LatitudeDegrees>36.833652555942535400390625</LatitudeDegrees>
              <LongitudeDegrees>-4.381058178842067718505859375</LongitudeDegrees>
            </Position>
            <AltitudeMeters>670.79998779296875</AltitudeMeters>
            <DistanceMeters>NAN</DistanceMeters>
          </Trackpoint>
          <Trackpoint>
            <Time>2020-12-05T12:38:09.000Z</Time>
            <Position>
              <LatitudeDegrees>36.833656243979930877685546875</LatitudeDegrees>
              <LongitudeDegrees>-4.381046779453754425048828125</LongitudeDegrees>
            </Position>
            <AltitudeMeters>670.79998779296875</AltitudeMeters>
            <DistanceMeters>NAN</DistanceMeters>
          </Trackpoint>
          <Trackpoint>
            <Time>2020-12-05T12:38:10.000Z</Time>
            <Position>
              <LatitudeDegrees>36.833660937845706939697265625</LatitudeDegrees>
              <LongitudeDegrees>-4.3810328654944896697998046875</LongitudeDegrees>
            </Position>
            <AltitudeMeters>670.79998779296875</AltitudeMeters>
            <DistanceMeters>NAN</DistanceMeters>
          </Trackpoint>
          <Trackpoint>
            <Time>2020-12-05T12:38:11.000Z</Time>
            <Position>
              <LatitudeDegrees>36.83366973884403705596923828125</LatitudeDegrees>
              <LongitudeDegrees>-4.3810214661061763763427734375</LongitudeDegrees>
            </Position>
            <AltitudeMeters>670.79998779296875</AltitudeMeters>
            <DistanceMeters>NAN</DistanceMeters>
          </Trackpoint>
          <Trackpoint>
            <Time>2020-12-05T12:38:12.000Z</Time>
            <Position>
              <LatitudeDegrees>36.83367728255689144134521484375</LatitudeDegrees>
              <LongitudeDegrees>-4.38101149164140224456787109375</LongitudeDegrees>
            </Position>
            <AltitudeMeters>670.79998779296875</AltitudeMeters>
            <DistanceMeters>NAN</DistanceMeters>
          </Trackpoint>
          <Trackpoint>
            <Time>2020-12-05T12:38:13.000Z</Time>
            <Position>
              <LatitudeDegrees>36.83368482626974582672119140625</LatitudeDegrees>
              <LongitudeDegrees>-4.38100151717662811279296875</LongitudeDegrees>
            </Position>
            <AltitudeMeters>670.79998779296875</AltitudeMeters>
            <DistanceMeters>NAN</DistanceMeters>
          </Trackpoint>
          <Trackpoint>
            <Time>2020-12-05T12:38:14.000Z</Time>
            <Position>
              <LatitudeDegrees>36.83369203470647335052490234375</LatitudeDegrees>
              <LongitudeDegrees>-4.3809926323592662811279296875</LongitudeDegrees>
            </Position>
            <AltitudeMeters>670.79998779296875</AltitudeMeters>
            <DistanceMeters>NAN</DistanceMeters>
          </Trackpoint>
          <Trackpoint>
            <Time>2020-12-05T12:38:15.000Z</Time>
            <Position>
              <LatitudeDegrees>36.83369815349578857421875</LatitudeDegrees>
              <LongitudeDegrees>-4.3809842504560947418212890625</LongitudeDegrees>
            </Position>
            <AltitudeMeters>670.79998779296875</AltitudeMeters>
            <DistanceMeters>NAN</DistanceMeters>
          </Trackpoint>
          <Trackpoint>
            <Time>2020-12-05T12:38:16.000Z</Time>
            <Position>
              <LatitudeDegrees>36.8337060324847698211669921875</LatitudeDegrees>
              <LongitudeDegrees>-4.3809765391051769256591796875</LongitudeDegrees>
            </Position>
            <AltitudeMeters>670.79998779296875</AltitudeMeters>
            <DistanceMeters>NAN</DistanceMeters>
          </Trackpoint>
          <Trackpoint>
            <Time>2020-12-05T12:38:17.000Z</Time>
            <Position>
              <LatitudeDegrees>36.8337154202163219451904296875</LatitudeDegrees>
              <LongitudeDegrees>-4.38096874393522739410400390625</LongitudeDegrees>
            </Position>
            <AltitudeMeters>670.79998779296875</AltitudeMeters>
            <DistanceMeters>NAN</DistanceMeters>
          </Trackpoint>
          <Trackpoint>
            <Time>2020-12-05T12:38:18.000Z</Time>
            <Position>
              <LatitudeDegrees>36.83371952734887599945068359375</LatitudeDegrees>
              <LongitudeDegrees>-4.38095717690885066986083984375</LongitudeDegrees>
            </Position>
            <AltitudeMeters>670.79998779296875</AltitudeMeters>
            <DistanceMeters>NAN</DistanceMeters>
          </Trackpoint>
          <Trackpoint>
            <Time>2020-12-05T12:38:19.000Z</Time>
            <Position>
              <LatitudeDegrees>36.8337236344814300537109375</LatitudeDegrees>
              <LongitudeDegrees>-4.380946867167949676513671875</LongitudeDegrees>
            </Position>
            <AltitudeMeters>670.79998779296875</AltitudeMeters>
            <DistanceMeters>NAN</DistanceMeters>
          </Trackpoint>
          <Trackpoint>
            <Time>2020-12-05T12:38:20.000Z</Time>
            <Position>
              <LatitudeDegrees>36.833738386631011962890625</LatitudeDegrees>
              <LongitudeDegrees>-4.38093353994190692901611328125</LongitudeDegrees>
            </Position>
            <AltitudeMeters>670.79998779296875</AltitudeMeters>
            <DistanceMeters>NAN</DistanceMeters>
          </Trackpoint>
          <Trackpoint>
            <Time>2020-12-05T12:38:21.000Z</Time>
            <Position>
              <LatitudeDegrees>36.83374199084937572479248046875</LatitudeDegrees>
              <LongitudeDegrees>-4.38092247582972049713134765625</LongitudeDegrees>
            </Position>
            <AltitudeMeters>670.79998779296875</AltitudeMeters>
            <DistanceMeters>NAN</DistanceMeters>
          </Trackpoint>
          <Trackpoint>
            <Time>2020-12-05T12:38:22.000Z</Time>
            <Position>
              <LatitudeDegrees>36.83374718762934207916259765625</LatitudeDegrees>
              <LongitudeDegrees>-4.3809104897081851959228515625</LongitudeDegrees>
            </Position>
            <AltitudeMeters>670.79998779296875</AltitudeMeters>
            <DistanceMeters>NAN</DistanceMeters>
          </Trackpoint>
          <Trackpoint>
            <Time>2020-12-05T12:38:23.000Z</Time>
            <Position>
              <LatitudeDegrees>36.8337533064186573028564453125</LatitudeDegrees>
              <LongitudeDegrees>-4.38089917413890361785888671875</LongitudeDegrees>
            </Position>
            <AltitudeMeters>670.79998779296875</AltitudeMeters>
            <DistanceMeters>NAN</DistanceMeters>
          </Trackpoint>
          <Trackpoint>
            <Time>2020-12-05T12:38:24.000Z</Time>
            <Position>
              <LatitudeDegrees>36.83375783264636993408203125</LatitudeDegrees>
              <LongitudeDegrees>-4.38088710419833660125732421875</LongitudeDegrees>
            </Position>
            <AltitudeMeters>670.79998779296875</AltitudeMeters>
            <DistanceMeters>NAN</DistanceMeters>
          </Trackpoint>
          <Trackpoint>
            <Time>2020-12-05T12:38:25.000Z</Time>
            <Position>
              <LatitudeDegrees>36.83376864530146121978759765625</LatitudeDegrees>
              <LongitudeDegrees>-4.3808752857148647308349609375</LongitudeDegrees>
            </Position>
            <AltitudeMeters>670.79998779296875</AltitudeMeters>
            <DistanceMeters>NAN</DistanceMeters>
          </Trackpoint>
          <Trackpoint>
            <Time>2020-12-05T12:38:26.000Z</Time>
            <Position>
              <LatitudeDegrees>36.83377367444336414337158203125</LatitudeDegrees>
              <LongitudeDegrees>-4.380864389240741729736328125</LongitudeDegrees>
            </Position>
            <AltitudeMeters>670.79998779296875</AltitudeMeters>
            <DistanceMeters>NAN</DistanceMeters>
          </Trackpoint>
          <Trackpoint>
            <Time>2020-12-05T12:38:27.000Z</Time>
            <Position>
              <LatitudeDegrees>36.8337794579565525054931640625</LatitudeDegrees>
              <LongitudeDegrees>-4.38085273839533329010009765625</LongitudeDegrees>
            </Position>
            <AltitudeMeters>670.79998779296875</AltitudeMeters>
            <DistanceMeters>NAN</DistanceMeters>
          </Trackpoint>
          <Trackpoint>
            <Time>2020-12-05T12:38:28.000Z</Time>
            <Position>
              <LatitudeDegrees>36.83378205634653568267822265625</LatitudeDegrees>
              <LongitudeDegrees>-4.3808373995125293731689453125</LongitudeDegrees>
            </Position>
            <AltitudeMeters>670.79998779296875</AltitudeMeters>
            <DistanceMeters>NAN</DistanceMeters>
          </Trackpoint>
          <Trackpoint>
            <Time>2020-12-05T12:38:29.000Z</Time>
            <Position>
              <LatitudeDegrees>36.8337814696133136749267578125</LatitudeDegrees>
              <LongitudeDegrees>-4.38082172535359859466552734375</LongitudeDegrees>
            </Position>
            <AltitudeMeters>670.79998779296875</AltitudeMeters>
            <DistanceMeters>NAN</DistanceMeters>
          </Trackpoint>
          <Trackpoint>
            <Time>2020-12-05T12:38:30.000Z</Time>
            <Position>
              <LatitudeDegrees>36.83378021232783794403076171875</LatitudeDegrees>
              <LongitudeDegrees>-4.380810074508190155029296875</LongitudeDegrees>
            </Position>
            <AltitudeMeters>670.79998779296875</AltitudeMeters>
            <DistanceMeters>NAN</DistanceMeters>
          </Trackpoint>
          <Trackpoint>
            <Time>2020-12-05T12:38:31.000Z</Time>
            <Position>
              <LatitudeDegrees>36.8337799608707427978515625</LatitudeDegrees>
              <LongitudeDegrees>-4.38080043531954288482666015625</LongitudeDegrees>
            </Position>
            <AltitudeMeters>670.79998779296875</AltitudeMeters>
            <DistanceMeters>NAN</DistanceMeters>
          </Trackpoint>
          <Trackpoint>
            <Time>2020-12-05T12:38:32.000Z</Time>
            <Position>
              <LatitudeDegrees>36.83377987705171108245849609375</LatitudeDegrees>
              <LongitudeDegrees>-4.380787946283817291259765625</LongitudeDegrees>
            </Position>
            <AltitudeMeters>670.79998779296875</AltitudeMeters>
            <DistanceMeters>NAN</DistanceMeters>
          </Trackpoint>
          <Trackpoint>
            <Time>2020-12-05T12:38:33.000Z</Time>
            <Position>
              <LatitudeDegrees>36.83378138579428195953369140625</LatitudeDegrees>
              <LongitudeDegrees>-4.38077327795326709747314453125</LongitudeDegrees>
            </Position>
            <AltitudeMeters>670.79998779296875</AltitudeMeters>
            <DistanceMeters>NAN</DistanceMeters>
          </Trackpoint>
          <Trackpoint>
            <Time>2020-12-05T12:38:34.000Z</Time>
            <Position>
              <LatitudeDegrees>36.8337848223745822906494140625</LatitudeDegrees>
              <LongitudeDegrees>-4.3807579390704631805419921875</LongitudeDegrees>
            </Position>
            <AltitudeMeters>670.79998779296875</AltitudeMeters>
            <DistanceMeters>NAN</DistanceMeters>
          </Trackpoint>
          <Trackpoint>
            <Time>2020-12-05T12:38:35.000Z</Time>
            <Position>
              <LatitudeDegrees>36.8337858282029628753662109375</LatitudeDegrees>
              <LongitudeDegrees>-4.3807391636073589324951171875</LongitudeDegrees>
            </Position>
            <AltitudeMeters>670.79998779296875</AltitudeMeters>
            <DistanceMeters>NAN</DistanceMeters>
          </Trackpoint>
          <Trackpoint>
            <Time>2020-12-05T12:38:36.000Z</Time>
            <Position>
              <LatitudeDegrees>36.83378892950713634490966796875</LatitudeDegrees>
              <LongitudeDegrees>-4.380718879401683807373046875</LongitudeDegrees>
            </Position>
            <AltitudeMeters>670.79998779296875</AltitudeMeters>
            <DistanceMeters>NAN</DistanceMeters>
          </Trackpoint>
          <Trackpoint>
            <Time>2020-12-05T12:38:37.000Z</Time>
            <Position>
              <LatitudeDegrees>36.83378842659294605255126953125</LatitudeDegrees>
              <LongitudeDegrees>-4.380697421729564666748046875</LongitudeDegrees>
            </Position>
            <AltitudeMeters>670.79998779296875</AltitudeMeters>
            <DistanceMeters>NAN</DistanceMeters>
          </Trackpoint>
          <Trackpoint>
            <Time>2020-12-05T12:38:38.000Z</Time>
            <Position>
              <LatitudeDegrees>36.83378943242132663726806640625</LatitudeDegrees>
              <LongitudeDegrees>-4.3806761316955089569091796875</LongitudeDegrees>
            </Position>
            <AltitudeMeters>670.79998779296875</AltitudeMeters>
            <DistanceMeters>NAN</DistanceMeters>
          </Trackpoint>
          <Trackpoint>
            <Time>2020-12-05T12:38:39.000Z</Time>
            <Position>
              <LatitudeDegrees>36.8337888456881046295166015625</LatitudeDegrees>
              <LongitudeDegrees>-4.3806550092995166778564453125</LongitudeDegrees>
            </Position>
            <AltitudeMeters>670.79998779296875</AltitudeMeters>
            <DistanceMeters>NAN</DistanceMeters>
          </Trackpoint>
          <Trackpoint>
            <Time>2020-12-05T12:38:40.000Z</Time>
            <Position>
              <LatitudeDegrees>36.833789348602294921875</LatitudeDegrees>
              <LongitudeDegrees>-4.38063866458833217620849609375</LongitudeDegrees>
            </Position>
            <AltitudeMeters>670.79998779296875</AltitudeMeters>
            <DistanceMeters>NAN</DistanceMeters>
          </Trackpoint>
          <Trackpoint>
            <Time>2020-12-05T12:38:41.000Z</Time>
            <Position>
              <LatitudeDegrees>36.8337911926209926605224609375</LatitudeDegrees>
              <LongitudeDegrees>-4.38062793575227260589599609375</LongitudeDegrees>
            </Position>
            <AltitudeMeters>670.79998779296875</AltitudeMeters>
            <DistanceMeters>NAN</DistanceMeters>
          </Trackpoint>
          <Trackpoint>
            <Time>2020-12-05T12:38:42.000Z</Time>
            <Position>
              <LatitudeDegrees>36.833791024982929229736328125</LatitudeDegrees>
              <LongitudeDegrees>-4.380614273250102996826171875</LongitudeDegrees>
            </Position>
            <AltitudeMeters>670.79998779296875</AltitudeMeters>
            <DistanceMeters>NAN</DistanceMeters>
          </Trackpoint>
          <Trackpoint>
            <Time>2020-12-05T12:38:43.000Z</Time>
            <Position>
              <LatitudeDegrees>36.83378943242132663726806640625</LatitudeDegrees>
              <LongitudeDegrees>-4.380595497786998748779296875</LongitudeDegrees>
            </Position>
            <AltitudeMeters>670.79998779296875</AltitudeMeters>
            <DistanceMeters>NAN</DistanceMeters>
          </Trackpoint>
          <Trackpoint>
            <Time>2020-12-05T12:38:44.000Z</Time>
            <Position>
              <LatitudeDegrees>36.833787672221660614013671875</LatitudeDegrees>
              <LongitudeDegrees>-4.38057747669517993927001953125</LongitudeDegrees>
            </Position>
            <AltitudeMeters>670.79998779296875</AltitudeMeters>
            <DistanceMeters>NAN</DistanceMeters>
          </Trackpoint>
          <Trackpoint>
            <Time>2020-12-05T12:38:45.000Z</Time>
            <Position>
              <LatitudeDegrees>36.83378691785037517547607421875</LatitudeDegrees>
              <LongitudeDegrees>-4.38056322745978832244873046875</LongitudeDegrees>
            </Position>
            <AltitudeMeters>670.79998779296875</AltitudeMeters>
            <DistanceMeters>NAN</DistanceMeters>
          </Trackpoint>
          <Trackpoint>
            <Time>2020-12-05T12:38:46.000Z</Time>
            <Position>
              <LatitudeDegrees>36.83378624729812145233154296875</LatitudeDegrees>
              <LongitudeDegrees>-4.38055568374693393707275390625</LongitudeDegrees>
            </Position>
            <AltitudeMeters>670.79998779296875</AltitudeMeters>
            <DistanceMeters>NAN</DistanceMeters>
          </Trackpoint>
          <Trackpoint>
            <Time>2020-12-05T12:38:47.000Z</Time>
            <Position>
              <LatitudeDegrees>36.83379094116389751434326171875</LatitudeDegrees>
              <LongitudeDegrees>-4.38055015169084072113037109375</LongitudeDegrees>
            </Position>
            <AltitudeMeters>670.79998779296875</AltitudeMeters>
            <DistanceMeters>NAN</DistanceMeters>
          </Trackpoint>
          <Trackpoint>
            <Time>2020-12-05T12:38:48.000Z</Time>
            <Position>
              <LatitudeDegrees>36.8337905220687389373779296875</LatitudeDegrees>
              <LongitudeDegrees>-4.38053925521671772003173828125</LongitudeDegrees>
            </Position>
            <AltitudeMeters>670.79998779296875</AltitudeMeters>
            <DistanceMeters>NAN</DistanceMeters>
          </Trackpoint>
          <Trackpoint>
            <Time>2020-12-05T12:38:49.000Z</Time>
            <Position>
              <LatitudeDegrees>36.83378892950713634490966796875</LatitudeDegrees>
              <LongitudeDegrees>-4.38052685000002384185791015625</LongitudeDegrees>
            </Position>
            <AltitudeMeters>670.79998779296875</AltitudeMeters>
            <DistanceMeters>NAN</DistanceMeters>
          </Trackpoint>
          <Trackpoint>
            <Time>2020-12-05T12:38:50.000Z</Time>
            <Position>
              <LatitudeDegrees>36.83378540910780429840087890625</LatitudeDegrees>
              <LongitudeDegrees>-4.38051226548850536346435546875</LongitudeDegrees>
            </Position>
            <AltitudeMeters>670.79998779296875</AltitudeMeters>
            <DistanceMeters>NAN</DistanceMeters>
          </Trackpoint>
          <Trackpoint>
            <Time>2020-12-05T12:38:51.000Z</Time>
            <Position>
              <LatitudeDegrees>36.8337831459939479827880859375</LatitudeDegrees>
              <LongitudeDegrees>-4.3805007822811603546142578125</LongitudeDegrees>
            </Position>
            <AltitudeMeters>670.79998779296875</AltitudeMeters>
            <DistanceMeters>NAN</DistanceMeters>
          </Trackpoint>
          <Trackpoint>
            <Time>2020-12-05T12:38:52.000Z</Time>
            <Position>
              <LatitudeDegrees>36.83378054760396480560302734375</LatitudeDegrees>
              <LongitudeDegrees>-4.38048728741705417633056640625</LongitudeDegrees>
            </Position>
            <AltitudeMeters>670.79998779296875</AltitudeMeters>
            <DistanceMeters>NAN</DistanceMeters>
          </Trackpoint>
          <Trackpoint>
            <Time>2020-12-05T12:38:53.000Z</Time>
            <Position>
              <LatitudeDegrees>36.83377937413752079010009765625</LatitudeDegrees>
              <LongitudeDegrees>-4.38047354109585285186767578125</LongitudeDegrees>
            </Position>
            <AltitudeMeters>670.79998779296875</AltitudeMeters>
            <DistanceMeters>NAN</DistanceMeters>
          </Trackpoint>
          <Trackpoint>
            <Time>2020-12-05T12:38:54.000Z</Time>
            <Position>
              <LatitudeDegrees>36.83377635665237903594970703125</LatitudeDegrees>
              <LongitudeDegrees>-4.38045761547982692718505859375</LongitudeDegrees>
            </Position>
            <AltitudeMeters>670.79998779296875</AltitudeMeters>
            <DistanceMeters>NAN</DistanceMeters>
          </Trackpoint>
          <Trackpoint>
            <Time>2020-12-05T12:38:55.000Z</Time>
            <Position>
              <LatitudeDegrees>36.8337730877101421356201171875</LatitudeDegrees>
              <LongitudeDegrees>-4.3804407678544521331787109375</LongitudeDegrees>
            </Position>
            <AltitudeMeters>670.79998779296875</AltitudeMeters>
            <DistanceMeters>NAN</DistanceMeters>
          </Trackpoint>
          <Trackpoint>
            <Time>2020-12-05T12:38:56.000Z</Time>
            <Position>
              <LatitudeDegrees>36.8337690643966197967529296875</LatitudeDegrees>
              <LongitudeDegrees>-4.3804250098764896392822265625</LongitudeDegrees>
            </Position>
            <AltitudeMeters>670.79998779296875</AltitudeMeters>
            <DistanceMeters>NAN</DistanceMeters>
          </Trackpoint>
          <Trackpoint>
            <Time>2020-12-05T12:38:57.000Z</Time>
            <Position>
              <LatitudeDegrees>36.8337665498256683349609375</LatitudeDegrees>
              <LongitudeDegrees>-4.3804072402417659759521484375</LongitudeDegrees>
            </Position>
            <AltitudeMeters>670.79998779296875</AltitudeMeters>
            <DistanceMeters>NAN</DistanceMeters>
          </Trackpoint>
          <Trackpoint>
            <Time>2020-12-05T12:38:58.000Z</Time>
            <Position>
              <LatitudeDegrees>36.8337647058069705963134765625</LatitudeDegrees>
              <LongitudeDegrees>-4.3803919851779937744140625</LongitudeDegrees>
            </Position>
            <AltitudeMeters>670.79998779296875</AltitudeMeters>
            <DistanceMeters>NAN</DistanceMeters>
          </Trackpoint>
          <Trackpoint>
            <Time>2020-12-05T12:38:59.000Z</Time>
            <Position>
              <LatitudeDegrees>36.83376009576022624969482421875</LatitudeDegrees>
              <LongitudeDegrees>-4.38037631101906299591064453125</LongitudeDegrees>
            </Position>
            <AltitudeMeters>670.79998779296875</AltitudeMeters>
            <DistanceMeters>NAN</DistanceMeters>
          </Trackpoint>
          <Trackpoint>
            <Time>2020-12-05T12:39:00.000Z</Time>
            <Position>
              <LatitudeDegrees>36.83375624008476734161376953125</LatitudeDegrees>
              <LongitudeDegrees>-4.38036289997398853302001953125</LongitudeDegrees>
            </Position>
            <AltitudeMeters>678</AltitudeMeters>
            <DistanceMeters>NAN</DistanceMeters>
          </Trackpoint>
          <Trackpoint>
            <Time>2020-12-05T12:39:01.000Z</Time>
            <Position>
              <LatitudeDegrees>36.8337462656199932098388671875</LatitudeDegrees>
              <LongitudeDegrees>-4.38034479506313800811767578125</LongitudeDegrees>
            </Position>
            <AltitudeMeters>678</AltitudeMeters>
            <DistanceMeters>NAN</DistanceMeters>
          </Trackpoint>
          <Trackpoint>
            <Time>2020-12-05T12:39:02.000Z</Time>
            <Position>
              <LatitudeDegrees>36.83373830281198024749755859375</LatitudeDegrees>
              <LongitudeDegrees>-4.3803244270384311676025390625</LongitudeDegrees>
            </Position>
            <AltitudeMeters>678</AltitudeMeters>
            <DistanceMeters>NAN</DistanceMeters>
          </Trackpoint>
          <Trackpoint>
            <Time>2020-12-05T12:39:03.000Z</Time>
            <Position>
              <LatitudeDegrees>36.83373377658426761627197265625</LatitudeDegrees>
              <LongitudeDegrees>-4.38031017780303955078125</LongitudeDegrees>
            </Position>
            <AltitudeMeters>678</AltitudeMeters>
            <DistanceMeters>NAN</DistanceMeters>
          </Trackpoint>
          <Trackpoint>
            <Time>2020-12-05T12:39:04.000Z</Time>
            <Position>
              <LatitudeDegrees>36.8337281607091426849365234375</LatitudeDegrees>
              <LongitudeDegrees>-4.380291402339935302734375</LongitudeDegrees>
            </Position>
            <AltitudeMeters>678</AltitudeMeters>
            <DistanceMeters>NAN</DistanceMeters>
          </Trackpoint>
          <Trackpoint>
            <Time>2020-12-05T12:39:05.000Z</Time>
            <Position>
              <LatitudeDegrees>36.8337224610149860382080078125</LatitudeDegrees>
              <LongitudeDegrees>-4.3802751414477825164794921875</LongitudeDegrees>
            </Position>
            <AltitudeMeters>678</AltitudeMeters>
            <DistanceMeters>NAN</DistanceMeters>
          </Trackpoint>
          <Trackpoint>
            <Time>2020-12-05T12:39:06.000Z</Time>
            <Position>
              <LatitudeDegrees>36.833719946444034576416015625</LatitudeDegrees>
              <LongitudeDegrees>-4.38026181422173976898193359375</LongitudeDegrees>
            </Position>
            <AltitudeMeters>678</AltitudeMeters>
            <DistanceMeters>NAN</DistanceMeters>
          </Trackpoint>
          <Trackpoint>
            <Time>2020-12-05T12:39:07.000Z</Time>
            <Position>
              <LatitudeDegrees>36.83371625840663909912109375</LatitudeDegrees>
              <LongitudeDegrees>-4.38024639151990413665771484375</LongitudeDegrees>
            </Position>
            <AltitudeMeters>678</AltitudeMeters>
            <DistanceMeters>NAN</DistanceMeters>
          </Trackpoint>
          <Trackpoint>
            <Time>2020-12-05T12:39:08.000Z</Time>
            <Position>
              <LatitudeDegrees>36.83371223509311676025390625</LatitudeDegrees>
              <LongitudeDegrees>-4.38023448921740055084228515625</LongitudeDegrees>
            </Position>
            <AltitudeMeters>678</AltitudeMeters>
            <DistanceMeters>NAN</DistanceMeters>
          </Trackpoint>
          <Trackpoint>
            <Time>2020-12-05T12:39:09.000Z</Time>
            <Position>
              <LatitudeDegrees>36.8337063677608966827392578125</LatitudeDegrees>
              <LongitudeDegrees>-4.3802218325436115264892578125</LongitudeDegrees>
            </Position>
            <AltitudeMeters>678</AltitudeMeters>
            <DistanceMeters>NAN</DistanceMeters>
          </Trackpoint>
          <Trackpoint>
            <Time>2020-12-05T12:39:10.000Z</Time>
            <Position>
              <LatitudeDegrees>36.83369957841932773590087890625</LatitudeDegrees>
              <LongitudeDegrees>-4.38020917586982250213623046875</LongitudeDegrees>
            </Position>
            <AltitudeMeters>678</AltitudeMeters>
            <DistanceMeters>NAN</DistanceMeters>
          </Trackpoint>
          <Trackpoint>
            <Time>2020-12-05T12:39:11.000Z</Time>
            <Position>
              <LatitudeDegrees>36.833690442144870758056640625</LatitudeDegrees>
              <LongitudeDegrees>-4.3801990337669849395751953125</LongitudeDegrees>
            </Position>
            <AltitudeMeters>678</AltitudeMeters>
            <DistanceMeters>NAN</DistanceMeters>
          </Trackpoint>
          <Trackpoint>
            <Time>2020-12-05T12:39:12.000Z</Time>
            <Position>
              <LatitudeDegrees>36.83368281461298465728759765625</LatitudeDegrees>
              <LongitudeDegrees>-4.3801849521696567535400390625</LongitudeDegrees>
            </Position>
            <AltitudeMeters>678</AltitudeMeters>
            <DistanceMeters>NAN</DistanceMeters>
          </Trackpoint>
          <Trackpoint>
            <Time>2020-12-05T12:39:13.000Z</Time>
            <Position>
              <LatitudeDegrees>36.833677701652050018310546875</LatitudeDegrees>
              <LongitudeDegrees>-4.3801695294678211212158203125</LongitudeDegrees>
            </Position>
            <AltitudeMeters>678</AltitudeMeters>
            <DistanceMeters>NAN</DistanceMeters>
          </Trackpoint>
          <Trackpoint>
            <Time>2020-12-05T12:39:14.000Z</Time>
            <Position>
              <LatitudeDegrees>36.83367460034787654876708984375</LatitudeDegrees>
              <LongitudeDegrees>-4.38015804626047611236572265625</LongitudeDegrees>
            </Position>
            <AltitudeMeters>678</AltitudeMeters>
            <DistanceMeters>NAN</DistanceMeters>
          </Trackpoint>
          <Trackpoint>
            <Time>2020-12-05T12:39:15.000Z</Time>
            <Position>
              <LatitudeDegrees>36.833673007786273956298828125</LatitudeDegrees>
              <LongitudeDegrees>-4.38014647923409938812255859375</LongitudeDegrees>
            </Position>
            <AltitudeMeters>678</AltitudeMeters>
            <DistanceMeters>NAN</DistanceMeters>
          </Trackpoint>
          <Trackpoint>
            <Time>2020-12-05T12:39:16.000Z</Time>
            <Position>
              <LatitudeDegrees>36.83367141522467136383056640625</LatitudeDegrees>
              <LongitudeDegrees>-4.38013474456965923309326171875</LongitudeDegrees>
            </Position>
            <AltitudeMeters>678</AltitudeMeters>
            <DistanceMeters>NAN</DistanceMeters>
          </Trackpoint>
          <Trackpoint>
            <Time>2020-12-05T12:39:17.000Z</Time>
            <Position>
              <LatitudeDegrees>36.833668313920497894287109375</LatitudeDegrees>
              <LongitudeDegrees>-4.38012183643877506256103515625</LongitudeDegrees>
            </Position>
            <AltitudeMeters>678</AltitudeMeters>
            <DistanceMeters>NAN</DistanceMeters>
          </Trackpoint>
          <Trackpoint>
            <Time>2020-12-05T12:39:18.000Z</Time>
            <Position>
              <LatitudeDegrees>36.83366269804537296295166015625</LatitudeDegrees>
              <LongitudeDegrees>-4.38011026941239833831787109375</LongitudeDegrees>
            </Position>
            <AltitudeMeters>678</AltitudeMeters>
            <DistanceMeters>NAN</DistanceMeters>
          </Trackpoint>
          <Trackpoint>
            <Time>2020-12-05T12:39:19.000Z</Time>
            <Position>
              <LatitudeDegrees>36.83365456759929656982421875</LatitudeDegrees>
              <LongitudeDegrees>-4.3800977803766727447509765625</LongitudeDegrees>
            </Position>
            <AltitudeMeters>678</AltitudeMeters>
            <DistanceMeters>NAN</DistanceMeters>
          </Trackpoint>
          <Trackpoint>
            <Time>2020-12-05T12:39:20.000Z</Time>
            <Position>
              <LatitudeDegrees>36.8336460180580615997314453125</LatitudeDegrees>
              <LongitudeDegrees>-4.38008663244545459747314453125</LongitudeDegrees>
            </Position>
            <AltitudeMeters>678</AltitudeMeters>
            <DistanceMeters>NAN</DistanceMeters>
          </Trackpoint>
          <Trackpoint>
            <Time>2020-12-05T12:39:21.000Z</Time>
            <Position>
              <LatitudeDegrees>36.83363889344036579132080078125</LatitudeDegrees>
              <LongitudeDegrees>-4.38007456250488758087158203125</LongitudeDegrees>
            </Position>
            <AltitudeMeters>678</AltitudeMeters>
            <DistanceMeters>NAN</DistanceMeters>
          </Trackpoint>
          <Trackpoint>
            <Time>2020-12-05T12:39:22.000Z</Time>
            <Position>
              <LatitudeDegrees>36.83363386429846286773681640625</LatitudeDegrees>
              <LongitudeDegrees>-4.38006634823977947235107421875</LongitudeDegrees>
            </Position>
            <AltitudeMeters>678</AltitudeMeters>
            <DistanceMeters>NAN</DistanceMeters>
          </Trackpoint>
          <Trackpoint>
            <Time>2020-12-05T12:39:23.000Z</Time>
            <Position>
              <LatitudeDegrees>36.83362640440464019775390625</LatitudeDegrees>
              <LongitudeDegrees>-4.3800609000027179718017578125</LongitudeDegrees>
            </Position>
            <AltitudeMeters>678</AltitudeMeters>
            <DistanceMeters>NAN</DistanceMeters>
          </Trackpoint>
          <Trackpoint>
            <Time>2020-12-05T12:39:24.000Z</Time>
            <Position>
              <LatitudeDegrees>36.833620704710483551025390625</LatitudeDegrees>
              <LongitudeDegrees>-4.38005193136632442474365234375</LongitudeDegrees>
            </Position>
            <AltitudeMeters>678</AltitudeMeters>
            <DistanceMeters>NAN</DistanceMeters>
          </Trackpoint>
          <Trackpoint>
            <Time>2020-12-05T12:39:25.000Z</Time>
            <Position>
              <LatitudeDegrees>36.83361575938761234283447265625</LatitudeDegrees>
              <LongitudeDegrees>-4.38004338182508945465087890625</LongitudeDegrees>
            </Position>
            <AltitudeMeters>678</AltitudeMeters>
            <DistanceMeters>NAN</DistanceMeters>
          </Trackpoint>
          <Trackpoint>
            <Time>2020-12-05T12:39:26.000Z</Time>
            <Position>
              <LatitudeDegrees>36.8336108140647411346435546875</LatitudeDegrees>
              <LongitudeDegrees>-4.3800350837409496307373046875</LongitudeDegrees>
            </Position>
            <AltitudeMeters>678</AltitudeMeters>
            <DistanceMeters>NAN</DistanceMeters>
          </Trackpoint>
          <Trackpoint>
            <Time>2020-12-05T12:39:27.000Z</Time>
            <Position>
              <LatitudeDegrees>36.83360469527542591094970703125</LatitudeDegrees>
              <LongitudeDegrees>-4.380024857819080352783203125</LongitudeDegrees>
            </Position>
            <AltitudeMeters>678</AltitudeMeters>
            <DistanceMeters>NAN</DistanceMeters>
          </Trackpoint>
          <Trackpoint>
            <Time>2020-12-05T12:39:28.000Z</Time>
            <Position>
              <LatitudeDegrees>36.83359866030514240264892578125</LatitudeDegrees>
              <LongitudeDegrees>-4.38001538626849651336669921875</LongitudeDegrees>
            </Position>
            <AltitudeMeters>678</AltitudeMeters>
            <DistanceMeters>NAN</DistanceMeters>
          </Trackpoint>
          <Trackpoint>
            <Time>2020-12-05T12:39:29.000Z</Time>
            <Position>
              <LatitudeDegrees>36.83359145186841487884521484375</LatitudeDegrees>
              <LongitudeDegrees>-4.38000373542308807373046875</LongitudeDegrees>
            </Position>
            <AltitudeMeters>678</AltitudeMeters>
            <DistanceMeters>NAN</DistanceMeters>
          </Trackpoint>
          <Trackpoint>
            <Time>2020-12-05T12:39:30.000Z</Time>
            <Position>
              <LatitudeDegrees>36.8335836566984653472900390625</LatitudeDegrees>
              <LongitudeDegrees>-4.3799955211579799652099609375</LongitudeDegrees>
            </Position>
            <AltitudeMeters>678</AltitudeMeters>
            <DistanceMeters>NAN</DistanceMeters>
          </Trackpoint>
          <Trackpoint>
            <Time>2020-12-05T12:39:31.000Z</Time>
            <Position>
              <LatitudeDegrees>36.83357820846140384674072265625</LatitudeDegrees>
              <LongitudeDegrees>-4.37998672015964984893798828125</LongitudeDegrees>
            </Position>
            <AltitudeMeters>678</AltitudeMeters>
            <DistanceMeters>NAN</DistanceMeters>
          </Trackpoint>
          <Trackpoint>
            <Time>2020-12-05T12:39:32.000Z</Time>
            <Position>
              <LatitudeDegrees>36.8335729278624057769775390625</LatitudeDegrees>
              <LongitudeDegrees>-4.37997649423778057098388671875</LongitudeDegrees>
            </Position>
            <AltitudeMeters>678</AltitudeMeters>
            <DistanceMeters>NAN</DistanceMeters>
          </Trackpoint>
          <Trackpoint>
            <Time>2020-12-05T12:39:33.000Z</Time>
            <Position>
              <LatitudeDegrees>36.83356764726340770721435546875</LatitudeDegrees>
              <LongitudeDegrees>-4.37996291555464267730712890625</LongitudeDegrees>
            </Position>
            <AltitudeMeters>678</AltitudeMeters>
            <DistanceMeters>NAN</DistanceMeters>
          </Trackpoint>
          <Trackpoint>
            <Time>2020-12-05T12:39:34.000Z</Time>
            <Position>
              <LatitudeDegrees>36.83356261812150478363037109375</LatitudeDegrees>
              <LongitudeDegrees>-4.37994967214763164520263671875</LongitudeDegrees>
            </Position>
            <AltitudeMeters>678</AltitudeMeters>
            <DistanceMeters>NAN</DistanceMeters>
          </Trackpoint>
          <Trackpoint>
            <Time>2020-12-05T12:39:35.000Z</Time>
            <Position>
              <LatitudeDegrees>36.83355943299829959869384765625</LatitudeDegrees>
              <LongitudeDegrees>-4.3799402005970478057861328125</LongitudeDegrees>
            </Position>
            <AltitudeMeters>678</AltitudeMeters>
            <DistanceMeters>NAN</DistanceMeters>
          </Trackpoint>
          <Trackpoint>
            <Time>2020-12-05T12:39:36.000Z</Time>
            <Position>
              <LatitudeDegrees>36.833554320037364959716796875</LatitudeDegrees>
              <LongitudeDegrees>-4.3799274601042270660400390625</LongitudeDegrees>
            </Position>
            <AltitudeMeters>678</AltitudeMeters>
            <DistanceMeters>NAN</DistanceMeters>
          </Trackpoint>
          <Trackpoint>
            <Time>2020-12-05T12:39:37.000Z</Time>
            <Position>
              <LatitudeDegrees>36.83354652486741542816162109375</LatitudeDegrees>
              <LongitudeDegrees>-4.3799160607159137725830078125</LongitudeDegrees>
            </Position>
            <AltitudeMeters>678</AltitudeMeters>
            <DistanceMeters>NAN</DistanceMeters>
          </Trackpoint>
          <Trackpoint>
            <Time>2020-12-05T12:39:38.000Z</Time>
            <Position>
              <LatitudeDegrees>36.83353898115456104278564453125</LatitudeDegrees>
              <LongitudeDegrees>-4.37990575097501277923583984375</LongitudeDegrees>
            </Position>
            <AltitudeMeters>678</AltitudeMeters>
            <DistanceMeters>NAN</DistanceMeters>
          </Trackpoint>
          <Trackpoint>
            <Time>2020-12-05T12:39:39.000Z</Time>
            <Position>
              <LatitudeDegrees>36.83353026397526264190673828125</LatitudeDegrees>
              <LongitudeDegrees>-4.3798952735960483551025390625</LongitudeDegrees>
            </Position>
            <AltitudeMeters>678</AltitudeMeters>
            <DistanceMeters>NAN</DistanceMeters>
          </Trackpoint>
          <Trackpoint>
            <Time>2020-12-05T12:39:40.000Z</Time>
            <Position>
              <LatitudeDegrees>36.83352171443402767181396484375</LatitudeDegrees>
              <LongitudeDegrees>-4.37988546676933765411376953125</LongitudeDegrees>
            </Position>
            <AltitudeMeters>678</AltitudeMeters>
            <DistanceMeters>NAN</DistanceMeters>
          </Trackpoint>
          <Trackpoint>
            <Time>2020-12-05T12:39:41.000Z</Time>
            <Position>
              <LatitudeDegrees>36.8335142545402050018310546875</LatitudeDegrees>
              <LongitudeDegrees>-4.37987457029521465301513671875</LongitudeDegrees>
            </Position>
            <AltitudeMeters>678</AltitudeMeters>
            <DistanceMeters>NAN</DistanceMeters>
          </Trackpoint>
          <Trackpoint>
            <Time>2020-12-05T12:39:42.000Z</Time>
            <Position>
              <LatitudeDegrees>36.833507381379604339599609375</LatitudeDegrees>
              <LongitudeDegrees>-4.3798607401549816131591796875</LongitudeDegrees>
            </Position>
            <AltitudeMeters>678</AltitudeMeters>
            <DistanceMeters>NAN</DistanceMeters>
          </Trackpoint>
          <Trackpoint>
            <Time>2020-12-05T12:39:43.000Z</Time>
            <Position>
              <LatitudeDegrees>36.833502016961574554443359375</LatitudeDegrees>
              <LongitudeDegrees>-4.3798469938337802886962890625</LongitudeDegrees>
            </Position>
            <AltitudeMeters>678</AltitudeMeters>
            <DistanceMeters>NAN</DistanceMeters>
          </Trackpoint>
          <Trackpoint>
            <Time>2020-12-05T12:39:44.000Z</Time>
            <Position>
              <LatitudeDegrees>36.83349807746708393096923828125</LatitudeDegrees>
              <LongitudeDegrees>-4.3798340857028961181640625</LongitudeDegrees>
            </Position>
            <AltitudeMeters>678</AltitudeMeters>
            <DistanceMeters>NAN</DistanceMeters>
          </Trackpoint>
          <Trackpoint>
            <Time>2020-12-05T12:39:45.000Z</Time>
            <Position>
              <LatitudeDegrees>36.83349573053419589996337890625</LatitudeDegrees>
              <LongitudeDegrees>-4.37981908209621906280517578125</LongitudeDegrees>
            </Position>
            <AltitudeMeters>678</AltitudeMeters>
            <DistanceMeters>NAN</DistanceMeters>
          </Trackpoint>
          <Trackpoint>
            <Time>2020-12-05T12:39:46.000Z</Time>
            <Position>
              <LatitudeDegrees>36.83349095284938812255859375</LatitudeDegrees>
              <LongitudeDegrees>-4.3798047490417957305908203125</LongitudeDegrees>
            </Position>
            <AltitudeMeters>678</AltitudeMeters>
            <DistanceMeters>NAN</DistanceMeters>
          </Trackpoint>
          <Trackpoint>
            <Time>2020-12-05T12:39:47.000Z</Time>
            <Position>
              <LatitudeDegrees>36.8334834091365337371826171875</LatitudeDegrees>
              <LongitudeDegrees>-4.37979125417768955230712890625</LongitudeDegrees>
            </Position>
            <AltitudeMeters>678</AltitudeMeters>
            <DistanceMeters>NAN</DistanceMeters>
          </Trackpoint>
          <Trackpoint>
            <Time>2020-12-05T12:39:48.000Z</Time>
            <Position>
              <LatitudeDegrees>36.8334743566811084747314453125</LatitudeDegrees>
              <LongitudeDegrees>-4.37978337518870830535888671875</LongitudeDegrees>
            </Position>
            <AltitudeMeters>678</AltitudeMeters>
            <DistanceMeters>NAN</DistanceMeters>
          </Trackpoint>
          <Trackpoint>
            <Time>2020-12-05T12:39:49.000Z</Time>
            <Position>
              <LatitudeDegrees>36.83346547186374664306640625</LatitudeDegrees>
              <LongitudeDegrees>-4.379776082932949066162109375</LongitudeDegrees>
            </Position>
            <AltitudeMeters>678</AltitudeMeters>
            <DistanceMeters>NAN</DistanceMeters>
          </Trackpoint>
          <Trackpoint>
            <Time>2020-12-05T12:39:50.000Z</Time>
            <Position>
              <LatitudeDegrees>36.8334572575986385345458984375</LatitudeDegrees>
              <LongitudeDegrees>-4.37976962886750698089599609375</LongitudeDegrees>
            </Position>
            <AltitudeMeters>678</AltitudeMeters>
            <DistanceMeters>NAN</DistanceMeters>
          </Trackpoint>
          <Trackpoint>
            <Time>2020-12-05T12:39:51.000Z</Time>
            <Position>
              <LatitudeDegrees>36.833448372781276702880859375</LatitudeDegrees>
              <LongitudeDegrees>-4.37975839711725711822509765625</LongitudeDegrees>
            </Position>
            <AltitudeMeters>678</AltitudeMeters>
            <DistanceMeters>NAN</DistanceMeters>
          </Trackpoint>
          <Trackpoint>
            <Time>2020-12-05T12:39:52.000Z</Time>
            <Position>
              <LatitudeDegrees>36.8334391526877880096435546875</LatitudeDegrees>
              <LongitudeDegrees>-4.37974632717669010162353515625</LongitudeDegrees>
            </Position>
            <AltitudeMeters>678</AltitudeMeters>
            <DistanceMeters>NAN</DistanceMeters>
          </Trackpoint>
          <Trackpoint>
            <Time>2020-12-05T12:39:53.000Z</Time>
            <Position>
              <LatitudeDegrees>36.8334301002323627471923828125</LatitudeDegrees>
              <LongitudeDegrees>-4.3797348439693450927734375</LongitudeDegrees>
            </Position>
            <AltitudeMeters>678</AltitudeMeters>
            <DistanceMeters>NAN</DistanceMeters>
          </Trackpoint>
          <Trackpoint>
            <Time>2020-12-05T12:39:54.000Z</Time>
            <Position>
              <LatitudeDegrees>36.83341979049146175384521484375</LatitudeDegrees>
              <LongitudeDegrees>-4.3797219358384609222412109375</LongitudeDegrees>
            </Position>
            <AltitudeMeters>678</AltitudeMeters>
            <DistanceMeters>NAN</DistanceMeters>
          </Trackpoint>
          <Trackpoint>
            <Time>2020-12-05T12:39:55.000Z</Time>
            <Position>
              <LatitudeDegrees>36.8334073014557361602783203125</LatitudeDegrees>
              <LongitudeDegrees>-4.3797071836888790130615234375</LongitudeDegrees>
            </Position>
            <AltitudeMeters>678</AltitudeMeters>
            <DistanceMeters>NAN</DistanceMeters>
          </Trackpoint>
          <Trackpoint>
            <Time>2020-12-05T12:39:56.000Z</Time>
            <Position>
              <LatitudeDegrees>36.83339715935289859771728515625</LatitudeDegrees>
              <LongitudeDegrees>-4.379693605005741119384765625</LongitudeDegrees>
            </Position>
            <AltitudeMeters>678</AltitudeMeters>
            <DistanceMeters>NAN</DistanceMeters>
          </Trackpoint>
          <Trackpoint>
            <Time>2020-12-05T12:39:57.000Z</Time>
            <Position>
              <LatitudeDegrees>36.8333885259926319122314453125</LatitudeDegrees>
              <LongitudeDegrees>-4.3796786852180957794189453125</LongitudeDegrees>
            </Position>
            <AltitudeMeters>678</AltitudeMeters>
            <DistanceMeters>NAN</DistanceMeters>
          </Trackpoint>
          <Trackpoint>
            <Time>2020-12-05T12:39:58.000Z</Time>
            <Position>
              <LatitudeDegrees>36.83338156901299953460693359375</LatitudeDegrees>
              <LongitudeDegrees>-4.37966871075332164764404296875</LongitudeDegrees>
            </Position>
            <AltitudeMeters>678</AltitudeMeters>
            <DistanceMeters>NAN</DistanceMeters>
          </Trackpoint>
          <Trackpoint>
            <Time>2020-12-05T12:39:59.000Z</Time>
            <Position>
              <LatitudeDegrees>36.8333737738430500030517578125</LatitudeDegrees>
              <LongitudeDegrees>-4.3796599097549915313720703125</LongitudeDegrees>
            </Position>
            <AltitudeMeters>678</AltitudeMeters>
            <DistanceMeters>NAN</DistanceMeters>
          </Trackpoint>
          <Trackpoint>
            <Time>2020-12-05T12:40:00.000Z</Time>
            <Position>
              <LatitudeDegrees>36.83336514048278331756591796875</LatitudeDegrees>
              <LongitudeDegrees>-4.3796498514711856842041015625</LongitudeDegrees>
            </Position>
            <AltitudeMeters>683.79998779296875</AltitudeMeters>
            <DistanceMeters>NAN</DistanceMeters>
          </Trackpoint>
          <Trackpoint>
            <Time>2020-12-05T12:40:01.000Z</Time>
            <Position>
              <LatitudeDegrees>36.8333553336560726165771484375</LatitudeDegrees>
              <LongitudeDegrees>-4.37963769771158695220947265625</LongitudeDegrees>
            </Position>
            <AltitudeMeters>683.79998779296875</AltitudeMeters>
            <DistanceMeters>NAN</DistanceMeters>
          </Trackpoint>
          <Trackpoint>
            <Time>2020-12-05T12:40:02.000Z</Time>
            <Position>
              <LatitudeDegrees>36.83334519155323505401611328125</LatitudeDegrees>
              <LongitudeDegrees>-4.37962445430457592010498046875</LongitudeDegrees>
            </Position>
            <AltitudeMeters>683.79998779296875</AltitudeMeters>
            <DistanceMeters>NAN</DistanceMeters>
          </Trackpoint>
          <Trackpoint>
            <Time>2020-12-05T12:40:03.000Z</Time>
            <Position>
              <LatitudeDegrees>36.83333672583103179931640625</LatitudeDegrees>
              <LongitudeDegrees>-4.37961154617369174957275390625</LongitudeDegrees>
            </Position>
            <AltitudeMeters>683.79998779296875</AltitudeMeters>
            <DistanceMeters>NAN</DistanceMeters>
          </Trackpoint>
          <Trackpoint>
            <Time>2020-12-05T12:40:04.000Z</Time>
            <Position>
              <LatitudeDegrees>36.83332893066108226776123046875</LatitudeDegrees>
              <LongitudeDegrees>-4.37959813512861728668212890625</LongitudeDegrees>
            </Position>
            <AltitudeMeters>683.79998779296875</AltitudeMeters>
            <DistanceMeters>NAN</DistanceMeters>
          </Trackpoint>
          <Trackpoint>
            <Time>2020-12-05T12:40:05.000Z</Time>
            <Position>
              <LatitudeDegrees>36.83332356624305248260498046875</LatitudeDegrees>
              <LongitudeDegrees>-4.379588998854160308837890625</LongitudeDegrees>
            </Position>
            <AltitudeMeters>683.79998779296875</AltitudeMeters>
            <DistanceMeters>NAN</DistanceMeters>
          </Trackpoint>
          <Trackpoint>
            <Time>2020-12-05T12:40:06.000Z</Time>
            <Position>
              <LatitudeDegrees>36.8333184532821178436279296875</LatitudeDegrees>
              <LongitudeDegrees>-4.379583299160003662109375</LongitudeDegrees>
            </Position>
            <AltitudeMeters>683.79998779296875</AltitudeMeters>
            <DistanceMeters>NAN</DistanceMeters>
          </Trackpoint>
          <Trackpoint>
            <Time>2020-12-05T12:40:07.000Z</Time>
            <Position>
              <LatitudeDegrees>36.83331132866442203521728515625</LatitudeDegrees>
              <LongitudeDegrees>-4.37957047484815120697021484375</LongitudeDegrees>
            </Position>
            <AltitudeMeters>683.79998779296875</AltitudeMeters>
            <DistanceMeters>NAN</DistanceMeters>
          </Trackpoint>
          <Trackpoint>
            <Time>2020-12-05T12:40:08.000Z</Time>
            <Position>
              <LatitudeDegrees>36.83330194093286991119384765625</LatitudeDegrees>
              <LongitudeDegrees>-4.37955739907920360565185546875</LongitudeDegrees>
            </Position>
            <AltitudeMeters>683.79998779296875</AltitudeMeters>
            <DistanceMeters>NAN</DistanceMeters>
          </Trackpoint>
          <Trackpoint>
            <Time>2020-12-05T12:40:09.000Z</Time>
            <Position>
              <LatitudeDegrees>36.8332919664680957794189453125</LatitudeDegrees>
              <LongitudeDegrees>-4.379547424614429473876953125</LongitudeDegrees>
            </Position>
            <AltitudeMeters>683.79998779296875</AltitudeMeters>
            <DistanceMeters>NAN</DistanceMeters>
          </Trackpoint>
          <Trackpoint>
            <Time>2020-12-05T12:40:10.000Z</Time>
            <Position>
              <LatitudeDegrees>36.8332837522029876708984375</LatitudeDegrees>
              <LongitudeDegrees>-4.37954180873930454254150390625</LongitudeDegrees>
            </Position>
            <AltitudeMeters>683.79998779296875</AltitudeMeters>
            <DistanceMeters>NAN</DistanceMeters>
          </Trackpoint>
          <Trackpoint>
            <Time>2020-12-05T12:40:11.000Z</Time>
            <Position>
              <LatitudeDegrees>36.833271682262420654296875</LatitudeDegrees>
              <LongitudeDegrees>-4.37953627668321132659912109375</LongitudeDegrees>
            </Position>
            <AltitudeMeters>683.79998779296875</AltitudeMeters>
            <DistanceMeters>NAN</DistanceMeters>
          </Trackpoint>
          <Trackpoint>
            <Time>2020-12-05T12:40:12.000Z</Time>
            <Position>
              <LatitudeDegrees>36.83325835503637790679931640625</LatitudeDegrees>
              <LongitudeDegrees>-4.379528649151325225830078125</LongitudeDegrees>
            </Position>
            <AltitudeMeters>683.79998779296875</AltitudeMeters>
            <DistanceMeters>NAN</DistanceMeters>
          </Trackpoint>
          <Trackpoint>
            <Time>2020-12-05T12:40:13.000Z</Time>
            <Position>
              <LatitudeDegrees>36.8332460336387157440185546875</LatitudeDegrees>
              <LongitudeDegrees>-4.37952362000942230224609375</LongitudeDegrees>
            </Position>
            <AltitudeMeters>683.79998779296875</AltitudeMeters>
            <DistanceMeters>NAN</DistanceMeters>
          </Trackpoint>
          <Trackpoint>
            <Time>2020-12-05T12:40:14.000Z</Time>
            <Position>
              <LatitudeDegrees>36.83323823846876621246337890625</LatitudeDegrees>
              <LongitudeDegrees>-4.3795160762965679168701171875</LongitudeDegrees>
            </Position>
            <AltitudeMeters>683.79998779296875</AltitudeMeters>
            <DistanceMeters>NAN</DistanceMeters>
          </Trackpoint>
          <Trackpoint>
            <Time>2020-12-05T12:40:15.000Z</Time>
            <Position>
              <LatitudeDegrees>36.8332316167652606964111328125</LatitudeDegrees>
              <LongitudeDegrees>-4.37950861640274524688720703125</LongitudeDegrees>
            </Position>
            <AltitudeMeters>683.79998779296875</AltitudeMeters>
            <DistanceMeters>NAN</DistanceMeters>
          </Trackpoint>
          <Trackpoint>
            <Time>2020-12-05T12:40:16.000Z</Time>
            <Position>
              <LatitudeDegrees>36.833223067224025726318359375</LatitudeDegrees>
              <LongitudeDegrees>-4.37949805520474910736083984375</LongitudeDegrees>
            </Position>
            <AltitudeMeters>683.79998779296875</AltitudeMeters>
            <DistanceMeters>NAN</DistanceMeters>
          </Trackpoint>
          <Trackpoint>
            <Time>2020-12-05T12:40:17.000Z</Time>
            <Position>
              <LatitudeDegrees>36.83321376331150531768798828125</LatitudeDegrees>
              <LongitudeDegrees>-4.37948984093964099884033203125</LongitudeDegrees>
            </Position>
            <AltitudeMeters>683.79998779296875</AltitudeMeters>
            <DistanceMeters>NAN</DistanceMeters>
          </Trackpoint>
          <Trackpoint>
            <Time>2020-12-05T12:40:18.000Z</Time>
            <Position>
              <LatitudeDegrees>36.8332037888467311859130859375</LatitudeDegrees>
              <LongitudeDegrees>-4.37948833219707012176513671875</LongitudeDegrees>
            </Position>
            <AltitudeMeters>683.79998779296875</AltitudeMeters>
            <DistanceMeters>NAN</DistanceMeters>
          </Trackpoint>
          <Trackpoint>
            <Time>2020-12-05T12:40:19.000Z</Time>
            <Position>
              <LatitudeDegrees>36.83319347910583019256591796875</LatitudeDegrees>
              <LongitudeDegrees>-4.379485063254833221435546875</LongitudeDegrees>
            </Position>
            <AltitudeMeters>683.79998779296875</AltitudeMeters>
            <DistanceMeters>NAN</DistanceMeters>
          </Trackpoint>
          <Trackpoint>
            <Time>2020-12-05T12:40:20.000Z</Time>
            <Position>
              <LatitudeDegrees>36.83318794704973697662353515625</LatitudeDegrees>
              <LongitudeDegrees>-4.3794800341129302978515625</LongitudeDegrees>
            </Position>
            <AltitudeMeters>683.79998779296875</AltitudeMeters>
            <DistanceMeters>NAN</DistanceMeters>
          </Trackpoint>
          <Trackpoint>
            <Time>2020-12-05T12:40:21.000Z</Time>
            <Position>
              <LatitudeDegrees>36.833185516297817230224609375</LatitudeDegrees>
              <LongitudeDegrees>-4.37947710044682025909423828125</LongitudeDegrees>
            </Position>
            <AltitudeMeters>683.79998779296875</AltitudeMeters>
            <DistanceMeters>NAN</DistanceMeters>
          </Trackpoint>
          <Trackpoint>
            <Time>2020-12-05T12:40:22.000Z</Time>
            <Position>
              <LatitudeDegrees>36.833182834088802337646484375</LatitudeDegrees>
              <LongitudeDegrees>-4.379470311105251312255859375</LongitudeDegrees>
            </Position>
            <AltitudeMeters>683.79998779296875</AltitudeMeters>
            <DistanceMeters>NAN</DistanceMeters>
          </Trackpoint>
          <Trackpoint>
            <Time>2020-12-05T12:40:23.000Z</Time>
            <Position>
              <LatitudeDegrees>36.83318073861300945281982421875</LatitudeDegrees>
              <LongitudeDegrees>-4.3794570676982402801513671875</LongitudeDegrees>
            </Position>
            <AltitudeMeters>683.79998779296875</AltitudeMeters>
            <DistanceMeters>NAN</DistanceMeters>
          </Trackpoint>
          <Trackpoint>
            <Time>2020-12-05T12:40:24.000Z</Time>
            <Position>
              <LatitudeDegrees>36.8331778049468994140625</LatitudeDegrees>
              <LongitudeDegrees>-4.37945094890892505645751953125</LongitudeDegrees>
            </Position>
            <AltitudeMeters>683.79998779296875</AltitudeMeters>
            <DistanceMeters>NAN</DistanceMeters>
          </Trackpoint>
          <Trackpoint>
            <Time>2020-12-05T12:40:25.000Z</Time>
            <Position>
              <LatitudeDegrees>36.83317151851952075958251953125</LatitudeDegrees>
              <LongitudeDegrees>-4.37944742850959300994873046875</LongitudeDegrees>
            </Position>
            <AltitudeMeters>683.79998779296875</AltitudeMeters>
            <DistanceMeters>NAN</DistanceMeters>
          </Trackpoint>
          <Trackpoint>
            <Time>2020-12-05T12:40:26.000Z</Time>
            <Position>
              <LatitudeDegrees>36.833162717521190643310546875</LatitudeDegrees>
              <LongitudeDegrees>-4.37944994308054447174072265625</LongitudeDegrees>
            </Position>
            <AltitudeMeters>683.79998779296875</AltitudeMeters>
            <DistanceMeters>NAN</DistanceMeters>
          </Trackpoint>
          <Trackpoint>
            <Time>2020-12-05T12:40:27.000Z</Time>
            <Position>
              <LatitudeDegrees>36.8331561796367168426513671875</LatitudeDegrees>
              <LongitudeDegrees>-4.37944776378571987152099609375</LongitudeDegrees>
            </Position>
            <AltitudeMeters>683.79998779296875</AltitudeMeters>
            <DistanceMeters>NAN</DistanceMeters>
          </Trackpoint>
          <Trackpoint>
            <Time>2020-12-05T12:40:28.000Z</Time>
            <Position>
              <LatitudeDegrees>36.83315190486609935760498046875</LatitudeDegrees>
              <LongitudeDegrees>-4.3794490210711956024169921875</LongitudeDegrees>
            </Position>
            <AltitudeMeters>683.79998779296875</AltitudeMeters>
            <DistanceMeters>NAN</DistanceMeters>
          </Trackpoint>
          <Trackpoint>
            <Time>2020-12-05T12:40:29.000Z</Time>
            <Position>
              <LatitudeDegrees>36.8331481330096721649169921875</LatitudeDegrees>
              <LongitudeDegrees>-4.3794456683099269866943359375</LongitudeDegrees>
            </Position>
            <AltitudeMeters>683.79998779296875</AltitudeMeters>
            <DistanceMeters>NAN</DistanceMeters>
          </Trackpoint>
          <Trackpoint>
            <Time>2020-12-05T12:40:30.000Z</Time>
            <Position>
              <LatitudeDegrees>36.83314385823905467987060546875</LatitudeDegrees>
              <LongitudeDegrees>-4.37944038771092891693115234375</LongitudeDegrees>
            </Position>
            <AltitudeMeters>683.79998779296875</AltitudeMeters>
            <DistanceMeters>NAN</DistanceMeters>
          </Trackpoint>
          <Trackpoint>
            <Time>2020-12-05T12:40:31.000Z</Time>
            <Position>
              <LatitudeDegrees>36.833141930401325225830078125</LatitudeDegrees>
              <LongitudeDegrees>-4.37943200580775737762451171875</LongitudeDegrees>
            </Position>
            <AltitudeMeters>683.79998779296875</AltitudeMeters>
            <DistanceMeters>NAN</DistanceMeters>
          </Trackpoint>
          <Trackpoint>
            <Time>2020-12-05T12:40:32.000Z</Time>
            <Position>
              <LatitudeDegrees>36.83314025402069091796875</LatitudeDegrees>
              <LongitudeDegrees>-4.37942295335233211517333984375</LongitudeDegrees>
            </Position>
            <AltitudeMeters>683.79998779296875</AltitudeMeters>
            <DistanceMeters>NAN</DistanceMeters>
          </Trackpoint>
          <Trackpoint>
            <Time>2020-12-05T12:40:33.000Z</Time>
            <Position>
              <LatitudeDegrees>36.833141930401325225830078125</LatitudeDegrees>
              <LongitudeDegrees>-4.379414655268192291259765625</LongitudeDegrees>
            </Position>
            <AltitudeMeters>683.79998779296875</AltitudeMeters>
            <DistanceMeters>NAN</DistanceMeters>
          </Trackpoint>
          <Trackpoint>
            <Time>2020-12-05T12:40:34.000Z</Time>
            <Position>
              <LatitudeDegrees>36.83314637281000614166259765625</LatitudeDegrees>
              <LongitudeDegrees>-4.379407949745655059814453125</LongitudeDegrees>
            </Position>
            <AltitudeMeters>683.79998779296875</AltitudeMeters>
            <DistanceMeters>NAN</DistanceMeters>
          </Trackpoint>
          <Trackpoint>
            <Time>2020-12-05T12:40:35.000Z</Time>
            <Position>
              <LatitudeDegrees>36.833153665065765380859375</LatitudeDegrees>
              <LongitudeDegrees>-4.3794014118611812591552734375</LongitudeDegrees>
            </Position>
            <AltitudeMeters>683.79998779296875</AltitudeMeters>
            <DistanceMeters>NAN</DistanceMeters>
          </Trackpoint>
          <Trackpoint>
            <Time>2020-12-05T12:40:36.000Z</Time>
            <Position>
              <LatitudeDegrees>36.83316498063504695892333984375</LatitudeDegrees>
              <LongitudeDegrees>-4.37939755618572235107421875</LongitudeDegrees>
            </Position>
            <AltitudeMeters>683.79998779296875</AltitudeMeters>
            <DistanceMeters>NAN</DistanceMeters>
          </Trackpoint>
          <Trackpoint>
            <Time>2020-12-05T12:40:37.000Z</Time>
            <Position>
              <LatitudeDegrees>36.83317151851952075958251953125</LatitudeDegrees>
              <LongitudeDegrees>-4.379393868148326873779296875</LongitudeDegrees>
            </Position>
            <AltitudeMeters>683.79998779296875</AltitudeMeters>
            <DistanceMeters>NAN</DistanceMeters>
          </Trackpoint>
          <Trackpoint>
            <Time>2020-12-05T12:40:38.000Z</Time>
            <Position>
              <LatitudeDegrees>36.83317906223237514495849609375</LatitudeDegrees>
              <LongitudeDegrees>-4.3793893419206142425537109375</LongitudeDegrees>
            </Position>
            <AltitudeMeters>683.79998779296875</AltitudeMeters>
            <DistanceMeters>NAN</DistanceMeters>
          </Trackpoint>
          <Trackpoint>
            <Time>2020-12-05T12:40:39.000Z</Time>
            <Position>
              <LatitudeDegrees>36.833186186850070953369140625</LatitudeDegrees>
              <LongitudeDegrees>-4.37938473187386989593505859375</LongitudeDegrees>
            </Position>
            <AltitudeMeters>683.79998779296875</AltitudeMeters>
            <DistanceMeters>NAN</DistanceMeters>
          </Trackpoint>
          <Trackpoint>
            <Time>2020-12-05T12:40:40.000Z</Time>
            <Position>
              <LatitudeDegrees>36.83319054543972015380859375</LatitudeDegrees>
              <LongitudeDegrees>-4.37938104383647441864013671875</LongitudeDegrees>
            </Position>
            <AltitudeMeters>683.79998779296875</AltitudeMeters>
            <DistanceMeters>NAN</DistanceMeters>
          </Trackpoint>
          <Trackpoint>
            <Time>2020-12-05T12:40:41.000Z</Time>
            <Position>
              <LatitudeDegrees>36.83319498784840106964111328125</LatitudeDegrees>
              <LongitudeDegrees>-4.37937819398939609527587890625</LongitudeDegrees>
            </Position>
            <AltitudeMeters>683.79998779296875</AltitudeMeters>
            <DistanceMeters>NAN</DistanceMeters>
          </Trackpoint>
          <Trackpoint>
            <Time>2020-12-05T12:40:42.000Z</Time>
            <Position>
              <LatitudeDegrees>36.8331954069435596466064453125</LatitudeDegrees>
              <LongitudeDegrees>-4.37937266193330287933349609375</LongitudeDegrees>
            </Position>
            <AltitudeMeters>683.79998779296875</AltitudeMeters>
            <DistanceMeters>NAN</DistanceMeters>
          </Trackpoint>
          <Trackpoint>
            <Time>2020-12-05T12:40:43.000Z</Time>
            <Position>
              <LatitudeDegrees>36.83319482021033763885498046875</LatitudeDegrees>
              <LongitudeDegrees>-4.379368722438812255859375</LongitudeDegrees>
            </Position>
            <AltitudeMeters>683.79998779296875</AltitudeMeters>
            <DistanceMeters>NAN</DistanceMeters>
          </Trackpoint>
          <Trackpoint>
            <Time>2020-12-05T12:40:44.000Z</Time>
            <Position>
              <LatitudeDegrees>36.83319515548646450042724609375</LatitudeDegrees>
              <LongitudeDegrees>-4.3793641962110996246337890625</LongitudeDegrees>
            </Position>
            <AltitudeMeters>683.79998779296875</AltitudeMeters>
            <DistanceMeters>NAN</DistanceMeters>
          </Trackpoint>
          <Trackpoint>
            <Time>2020-12-05T12:40:45.000Z</Time>
            <Position>
              <LatitudeDegrees>36.833194904029369354248046875</LatitudeDegrees>
              <LongitudeDegrees>-4.37935539521276950836181640625</LongitudeDegrees>
            </Position>
            <AltitudeMeters>683.79998779296875</AltitudeMeters>
            <DistanceMeters>NAN</DistanceMeters>
          </Trackpoint>
          <Trackpoint>
            <Time>2020-12-05T12:40:46.000Z</Time>
            <Position>
              <LatitudeDegrees>36.83319331146776676177978515625</LatitudeDegrees>
              <LongitudeDegrees>-4.37934466637670993804931640625</LongitudeDegrees>
            </Position>
            <AltitudeMeters>683.79998779296875</AltitudeMeters>
            <DistanceMeters>NAN</DistanceMeters>
          </Trackpoint>
          <Trackpoint>
            <Time>2020-12-05T12:40:47.000Z</Time>
            <Position>
              <LatitudeDegrees>36.8331907130777835845947265625</LatitudeDegrees>
              <LongitudeDegrees>-4.37933360226452350616455078125</LongitudeDegrees>
            </Position>
            <AltitudeMeters>683.79998779296875</AltitudeMeters>
            <DistanceMeters>NAN</DistanceMeters>
          </Trackpoint>
          <Trackpoint>
            <Time>2020-12-05T12:40:48.000Z</Time>
            <Position>
              <LatitudeDegrees>36.833188869059085845947265625</LatitudeDegrees>
              <LongitudeDegrees>-4.379322119057178497314453125</LongitudeDegrees>
            </Position>
            <AltitudeMeters>683.79998779296875</AltitudeMeters>
            <DistanceMeters>NAN</DistanceMeters>
          </Trackpoint>
          <Trackpoint>
            <Time>2020-12-05T12:40:49.000Z</Time>
            <Position>
              <LatitudeDegrees>36.83319113217294216156005859375</LatitudeDegrees>
              <LongitudeDegrees>-4.37931013293564319610595703125</LongitudeDegrees>
            </Position>
            <AltitudeMeters>683.79998779296875</AltitudeMeters>
            <DistanceMeters>NAN</DistanceMeters>
          </Trackpoint>
          <Trackpoint>
            <Time>2020-12-05T12:40:50.000Z</Time>
            <Position>
              <LatitudeDegrees>36.83319389820098876953125</LatitudeDegrees>
              <LongitudeDegrees>-4.379298985004425048828125</LongitudeDegrees>
            </Position>
            <AltitudeMeters>683.79998779296875</AltitudeMeters>
            <DistanceMeters>NAN</DistanceMeters>
          </Trackpoint>
          <Trackpoint>
            <Time>2020-12-05T12:40:51.000Z</Time>
            <Position>
              <LatitudeDegrees>36.83319465257227420806884765625</LatitudeDegrees>
              <LongitudeDegrees>-4.37928347848355770111083984375</LongitudeDegrees>
            </Position>
            <AltitudeMeters>683.79998779296875</AltitudeMeters>
            <DistanceMeters>NAN</DistanceMeters>
          </Trackpoint>
          <Trackpoint>
            <Time>2020-12-05T12:40:52.000Z</Time>
            <Position>
              <LatitudeDegrees>36.83319515548646450042724609375</LatitudeDegrees>
              <LongitudeDegrees>-4.3792730011045932769775390625</LongitudeDegrees>
            </Position>
            <AltitudeMeters>683.79998779296875</AltitudeMeters>
            <DistanceMeters>NAN</DistanceMeters>
          </Trackpoint>
          <Trackpoint>
            <Time>2020-12-05T12:40:53.000Z</Time>
            <Position>
              <LatitudeDegrees>36.83319314382970333099365234375</LatitudeDegrees>
              <LongitudeDegrees>-4.37926520593464374542236328125</LongitudeDegrees>
            </Position>
            <AltitudeMeters>683.79998779296875</AltitudeMeters>
            <DistanceMeters>NAN</DistanceMeters>
          </Trackpoint>
          <Trackpoint>
            <Time>2020-12-05T12:40:54.000Z</Time>
            <Position>
              <LatitudeDegrees>36.8331883661448955535888671875</LatitudeDegrees>
              <LongitudeDegrees>-4.3792575784027576446533203125</LongitudeDegrees>
            </Position>
            <AltitudeMeters>683.79998779296875</AltitudeMeters>
            <DistanceMeters>NAN</DistanceMeters>
          </Trackpoint>
          <Trackpoint>
            <Time>2020-12-05T12:40:55.000Z</Time>
            <Position>
              <LatitudeDegrees>36.83318006806075572967529296875</LatitudeDegrees>
              <LongitudeDegrees>-4.37925062142312526702880859375</LongitudeDegrees>
            </Position>
            <AltitudeMeters>683.79998779296875</AltitudeMeters>
            <DistanceMeters>NAN</DistanceMeters>
          </Trackpoint>
          <Trackpoint>
            <Time>2020-12-05T12:40:56.000Z</Time>
            <Position>
              <LatitudeDegrees>36.83316766284406185150146484375</LatitudeDegrees>
              <LongitudeDegrees>-4.3792505376040935516357421875</LongitudeDegrees>
            </Position>
            <AltitudeMeters>683.79998779296875</AltitudeMeters>
            <DistanceMeters>NAN</DistanceMeters>
          </Trackpoint>
          <Trackpoint>
            <Time>2020-12-05T12:40:57.000Z</Time>
            <Position>
              <LatitudeDegrees>36.8331575207412242889404296875</LatitudeDegrees>
              <LongitudeDegrees>-4.37924659810960292816162109375</LongitudeDegrees>
            </Position>
            <AltitudeMeters>683.79998779296875</AltitudeMeters>
            <DistanceMeters>NAN</DistanceMeters>
          </Trackpoint>
          <Trackpoint>
            <Time>2020-12-05T12:40:58.000Z</Time>
            <Position>
              <LatitudeDegrees>36.83314972557127475738525390625</LatitudeDegrees>
              <LongitudeDegrees>-4.37924860976636409759521484375</LongitudeDegrees>
            </Position>
            <AltitudeMeters>683.79998779296875</AltitudeMeters>
            <DistanceMeters>NAN</DistanceMeters>
          </Trackpoint>
          <Trackpoint>
            <Time>2020-12-05T12:40:59.000Z</Time>
            <Position>
              <LatitudeDegrees>36.83313983492553234100341796875</LatitudeDegrees>
              <LongitudeDegrees>-4.37924324534833431243896484375</LongitudeDegrees>
            </Position>
            <AltitudeMeters>683.79998779296875</AltitudeMeters>
            <DistanceMeters>NAN</DistanceMeters>
          </Trackpoint>
          <Trackpoint>
            <Time>2020-12-05T12:41:00.000Z</Time>
            <Position>
              <LatitudeDegrees>36.83312617242336273193359375</LatitudeDegrees>
              <LongitudeDegrees>-4.379234611988067626953125</LongitudeDegrees>
            </Position>
            <AltitudeMeters>699.4000244140625</AltitudeMeters>
            <DistanceMeters>NAN</DistanceMeters>
          </Trackpoint>
          <Trackpoint>
            <Time>2020-12-05T12:41:01.000Z</Time>
            <Position>
              <LatitudeDegrees>36.8331132642924785614013671875</LatitudeDegrees>
              <LongitudeDegrees>-4.379228241741657257080078125</LongitudeDegrees>
            </Position>
            <AltitudeMeters>699.4000244140625</AltitudeMeters>
            <DistanceMeters>NAN</DistanceMeters>
          </Trackpoint>
          <Trackpoint>
            <Time>2020-12-05T12:41:02.000Z</Time>
            <Position>
              <LatitudeDegrees>36.83310966007411479949951171875</LatitudeDegrees>
              <LongitudeDegrees>-4.3792274035513401031494140625</LongitudeDegrees>
            </Position>
            <AltitudeMeters>699.4000244140625</AltitudeMeters>
            <DistanceMeters>NAN</DistanceMeters>
          </Trackpoint>
          <Trackpoint>
            <Time>2020-12-05T12:41:03.000Z</Time>
            <Position>
              <LatitudeDegrees>36.833109073340892791748046875</LatitudeDegrees>
              <LongitudeDegrees>-4.3792257271707057952880859375</LongitudeDegrees>
            </Position>
            <AltitudeMeters>699.4000244140625</AltitudeMeters>
            <DistanceMeters>NAN</DistanceMeters>
          </Trackpoint>
          <Trackpoint>
            <Time>2020-12-05T12:41:04.000Z</Time>
            <Position>
              <LatitudeDegrees>36.83310848660767078399658203125</LatitudeDegrees>
              <LongitudeDegrees>-4.37922446988523006439208984375</LongitudeDegrees>
            </Position>
            <AltitudeMeters>699.4000244140625</AltitudeMeters>
            <DistanceMeters>NAN</DistanceMeters>
          </Trackpoint>
          <Trackpoint>
            <Time>2020-12-05T12:41:05.000Z</Time>
            <Position>
              <LatitudeDegrees>36.83310647495090961456298828125</LatitudeDegrees>
              <LongitudeDegrees>-4.37922195531427860260009765625</LongitudeDegrees>
            </Position>
            <AltitudeMeters>699.4000244140625</AltitudeMeters>
            <DistanceMeters>NAN</DistanceMeters>
          </Trackpoint>
          <Trackpoint>
            <Time>2020-12-05T12:41:06.000Z</Time>
            <Position>
              <LatitudeDegrees>36.83310396037995815277099609375</LatitudeDegrees>
              <LongitudeDegrees>-4.37922078184783458709716796875</LongitudeDegrees>
            </Position>
            <AltitudeMeters>699.4000244140625</AltitudeMeters>
            <DistanceMeters>NAN</DistanceMeters>
          </Trackpoint>
          <Trackpoint>
            <Time>2020-12-05T12:41:07.000Z</Time>
            <Position>
              <LatitudeDegrees>36.83310203254222869873046875</LatitudeDegrees>
              <LongitudeDegrees>-4.37921877019107341766357421875</LongitudeDegrees>
            </Position>
            <AltitudeMeters>699.4000244140625</AltitudeMeters>
            <DistanceMeters>NAN</DistanceMeters>
          </Trackpoint>
          <Trackpoint>
            <Time>2020-12-05T12:41:08.000Z</Time>
            <Position>
              <LatitudeDegrees>36.83310069143772125244140625</LatitudeDegrees>
              <LongitudeDegrees>-4.37922312878072261810302734375</LongitudeDegrees>
            </Position>
            <AltitudeMeters>699.4000244140625</AltitudeMeters>
            <DistanceMeters>NAN</DistanceMeters>
          </Trackpoint>
          <Trackpoint>
            <Time>2020-12-05T12:41:09.000Z</Time>
            <Position>
              <LatitudeDegrees>36.83310094289481639862060546875</LatitudeDegrees>
              <LongitudeDegrees>-4.3792287446558475494384765625</LongitudeDegrees>
            </Position>
            <AltitudeMeters>699.4000244140625</AltitudeMeters>
            <DistanceMeters>NAN</DistanceMeters>
          </Trackpoint>
          <Trackpoint>
            <Time>2020-12-05T12:41:10.000Z</Time>
            <Position>
              <LatitudeDegrees>36.8331032060086727142333984375</LatitudeDegrees>
              <LongitudeDegrees>-4.3792357854545116424560546875</LongitudeDegrees>
            </Position>
            <AltitudeMeters>699.4000244140625</AltitudeMeters>
            <DistanceMeters>NAN</DistanceMeters>
          </Trackpoint>
          <Trackpoint>
            <Time>2020-12-05T12:41:11.000Z</Time>
            <Position>
              <LatitudeDegrees>36.8331035412847995758056640625</LatitudeDegrees>
              <LongitudeDegrees>-4.379244334995746612548828125</LongitudeDegrees>
            </Position>
            <AltitudeMeters>699.4000244140625</AltitudeMeters>
            <DistanceMeters>NAN</DistanceMeters>
          </Trackpoint>
          <Trackpoint>
            <Time>2020-12-05T12:41:12.000Z</Time>
            <Position>
              <LatitudeDegrees>36.83310530148446559906005859375</LatitudeDegrees>
              <LongitudeDegrees>-4.37925112433731555938720703125</LongitudeDegrees>
            </Position>
            <AltitudeMeters>699.4000244140625</AltitudeMeters>
            <DistanceMeters>NAN</DistanceMeters>
          </Trackpoint>
          <Trackpoint>
            <Time>2020-12-05T12:41:13.000Z</Time>
            <Position>
              <LatitudeDegrees>36.83310111053287982940673828125</LatitudeDegrees>
              <LongitudeDegrees>-4.379257075488567352294921875</LongitudeDegrees>
            </Position>
            <AltitudeMeters>699.4000244140625</AltitudeMeters>
            <DistanceMeters>NAN</DistanceMeters>
          </Trackpoint>
          <Trackpoint>
            <Time>2020-12-05T12:41:14.000Z</Time>
            <Position>
              <LatitudeDegrees>36.83310144580900669097900390625</LatitudeDegrees>
              <LongitudeDegrees>-4.37925732694566249847412109375</LongitudeDegrees>
            </Position>
            <AltitudeMeters>699.4000244140625</AltitudeMeters>
            <DistanceMeters>NAN</DistanceMeters>
          </Trackpoint>
          <Trackpoint>
            <Time>2020-12-05T12:41:15.000Z</Time>
            <Position>
              <LatitudeDegrees>36.83310060761868953704833984375</LatitudeDegrees>
              <LongitudeDegrees>-4.379256069660186767578125</LongitudeDegrees>
            </Position>
            <AltitudeMeters>699.4000244140625</AltitudeMeters>
            <DistanceMeters>NAN</DistanceMeters>
          </Trackpoint>
          <Trackpoint>
            <Time>2020-12-05T12:41:16.000Z</Time>
            <Position>
              <LatitudeDegrees>36.83310312218964099884033203125</LatitudeDegrees>
              <LongitudeDegrees>-4.3792538903653621673583984375</LongitudeDegrees>
            </Position>
            <AltitudeMeters>699.4000244140625</AltitudeMeters>
            <DistanceMeters>NAN</DistanceMeters>
          </Trackpoint>
          <Trackpoint>
            <Time>2020-12-05T12:41:17.000Z</Time>
            <Position>
              <LatitudeDegrees>36.83310714550316333770751953125</LatitudeDegrees>
              <LongitudeDegrees>-4.37925095669925212860107421875</LongitudeDegrees>
            </Position>
            <AltitudeMeters>699.4000244140625</AltitudeMeters>
            <DistanceMeters>NAN</DistanceMeters>
          </Trackpoint>
          <Trackpoint>
            <Time>2020-12-05T12:41:18.000Z</Time>
            <Position>
              <LatitudeDegrees>36.83310932479798793792724609375</LatitudeDegrees>
              <LongitudeDegrees>-4.37924777157604694366455078125</LongitudeDegrees>
            </Position>
            <AltitudeMeters>699.4000244140625</AltitudeMeters>
            <DistanceMeters>NAN</DistanceMeters>
          </Trackpoint>
          <Trackpoint>
            <Time>2020-12-05T12:41:19.000Z</Time>
            <Position>
              <LatitudeDegrees>36.8331115879118442535400390625</LatitudeDegrees>
              <LongitudeDegrees>-4.37924492172896862030029296875</LongitudeDegrees>
            </Position>
            <AltitudeMeters>699.4000244140625</AltitudeMeters>
            <DistanceMeters>NAN</DistanceMeters>
          </Trackpoint>
          <Trackpoint>
            <Time>2020-12-05T12:41:20.000Z</Time>
            <Position>
              <LatitudeDegrees>36.83311485685408115386962890625</LatitudeDegrees>
              <LongitudeDegrees>-4.37924257479608058929443359375</LongitudeDegrees>
            </Position>
            <AltitudeMeters>699.4000244140625</AltitudeMeters>
            <DistanceMeters>NAN</DistanceMeters>
          </Trackpoint>
          <Trackpoint>
            <Time>2020-12-05T12:41:21.000Z</Time>
            <Position>
              <LatitudeDegrees>36.833103708922863006591796875</LatitudeDegrees>
              <LongitudeDegrees>-4.37924391590058803558349609375</LongitudeDegrees>
            </Position>
            <AltitudeMeters>699.4000244140625</AltitudeMeters>
            <DistanceMeters>NAN</DistanceMeters>
          </Trackpoint>
          <Trackpoint>
            <Time>2020-12-05T12:41:22.000Z</Time>
            <Position>
              <LatitudeDegrees>36.83309960179030895233154296875</LatitudeDegrees>
              <LongitudeDegrees>-4.37924223951995372772216796875</LongitudeDegrees>
            </Position>
            <AltitudeMeters>699.4000244140625</AltitudeMeters>
            <DistanceMeters>NAN</DistanceMeters>
          </Trackpoint>
          <Trackpoint>
            <Time>2020-12-05T12:41:23.000Z</Time>
            <Position>
              <LatitudeDegrees>36.83310010470449924468994140625</LatitudeDegrees>
              <LongitudeDegrees>-4.3792408145964145660400390625</LongitudeDegrees>
            </Position>
            <AltitudeMeters>699.4000244140625</AltitudeMeters>
            <DistanceMeters>NAN</DistanceMeters>
          </Trackpoint>
          <Trackpoint>
            <Time>2020-12-05T12:41:24.000Z</Time>
            <Position>
              <LatitudeDegrees>36.83309993706643581390380859375</LatitudeDegrees>
              <LongitudeDegrees>-4.37924073077738285064697265625</LongitudeDegrees>
            </Position>
            <AltitudeMeters>699.4000244140625</AltitudeMeters>
            <DistanceMeters>NAN</DistanceMeters>
          </Trackpoint>
          <Trackpoint>
            <Time>2020-12-05T12:41:25.000Z</Time>
            <Position>
              <LatitudeDegrees>36.8330991826951503753662109375</LatitudeDegrees>
              <LongitudeDegrees>-4.3792404793202877044677734375</LongitudeDegrees>
            </Position>
            <AltitudeMeters>699.4000244140625</AltitudeMeters>
            <DistanceMeters>NAN</DistanceMeters>
          </Trackpoint>
          <Trackpoint>
            <Time>2020-12-05T12:41:26.000Z</Time>
            <Position>
              <LatitudeDegrees>36.83309859596192836761474609375</LatitudeDegrees>
              <LongitudeDegrees>-4.379239976406097412109375</LongitudeDegrees>
            </Position>
            <AltitudeMeters>699.4000244140625</AltitudeMeters>
            <DistanceMeters>NAN</DistanceMeters>
          </Trackpoint>
          <Trackpoint>
            <Time>2020-12-05T12:41:27.000Z</Time>
            <Position>
              <LatitudeDegrees>36.8330985121428966522216796875</LatitudeDegrees>
              <LongitudeDegrees>-4.379240982234477996826171875</LongitudeDegrees>
            </Position>
            <AltitudeMeters>699.4000244140625</AltitudeMeters>
            <DistanceMeters>NAN</DistanceMeters>
          </Trackpoint>
          <Trackpoint>
            <Time>2020-12-05T12:41:28.000Z</Time>
            <Position>
              <LatitudeDegrees>36.8330985121428966522216796875</LatitudeDegrees>
              <LongitudeDegrees>-4.3792428262531757354736328125</LongitudeDegrees>
            </Position>
            <AltitudeMeters>699.4000244140625</AltitudeMeters>
            <DistanceMeters>NAN</DistanceMeters>
          </Trackpoint>
          <Trackpoint>
            <Time>2020-12-05T12:41:29.000Z</Time>
            <Position>
              <LatitudeDegrees>36.8330985121428966522216796875</LatitudeDegrees>
              <LongitudeDegrees>-4.3792471848428249359130859375</LongitudeDegrees>
            </Position>
            <AltitudeMeters>699.4000244140625</AltitudeMeters>
            <DistanceMeters>NAN</DistanceMeters>
          </Trackpoint>
          <Trackpoint>
            <Time>2020-12-05T12:41:30.000Z</Time>
            <Position>
              <LatitudeDegrees>36.8331011943519115447998046875</LatitudeDegrees>
              <LongitudeDegrees>-4.37925565056502819061279296875</LongitudeDegrees>
            </Position>
            <AltitudeMeters>699.4000244140625</AltitudeMeters>
            <DistanceMeters>NAN</DistanceMeters>
          </Trackpoint>
          <Trackpoint>
            <Time>2020-12-05T12:41:31.000Z</Time>
            <Position>
              <LatitudeDegrees>36.833112426102161407470703125</LatitudeDegrees>
              <LongitudeDegrees>-4.37927090562880039215087890625</LongitudeDegrees>
            </Position>
            <AltitudeMeters>699.4000244140625</AltitudeMeters>
            <DistanceMeters>NAN</DistanceMeters>
          </Trackpoint>
          <Trackpoint>
            <Time>2020-12-05T12:41:32.000Z</Time>
            <Position>
              <LatitudeDegrees>36.83311234228312969207763671875</LatitudeDegrees>
              <LongitudeDegrees>-4.379274845123291015625</LongitudeDegrees>
            </Position>
            <AltitudeMeters>699.4000244140625</AltitudeMeters>
            <DistanceMeters>NAN</DistanceMeters>
          </Trackpoint>
          <Trackpoint>
            <Time>2020-12-05T12:41:33.000Z</Time>
            <Position>
              <LatitudeDegrees>36.83311100117862224578857421875</LatitudeDegrees>
              <LongitudeDegrees>-4.379275180399417877197265625</LongitudeDegrees>
            </Position>
            <AltitudeMeters>699.4000244140625</AltitudeMeters>
            <DistanceMeters>NAN</DistanceMeters>
          </Trackpoint>
          <Trackpoint>
            <Time>2020-12-05T12:41:34.000Z</Time>
            <Position>
              <LatitudeDegrees>36.8331109173595905303955078125</LatitudeDegrees>
              <LongitudeDegrees>-4.37927610240876674652099609375</LongitudeDegrees>
            </Position>
            <AltitudeMeters>699.4000244140625</AltitudeMeters>
            <DistanceMeters>NAN</DistanceMeters>
          </Trackpoint>
          <Trackpoint>
            <Time>2020-12-05T12:41:35.000Z</Time>
            <Position>
              <LatitudeDegrees>36.83309708721935749053955078125</LatitudeDegrees>
              <LongitudeDegrees>-4.3792914412915706634521484375</LongitudeDegrees>
            </Position>
            <AltitudeMeters>699.4000244140625</AltitudeMeters>
            <DistanceMeters>NAN</DistanceMeters>
          </Trackpoint>
          <Trackpoint>
            <Time>2020-12-05T12:41:36.000Z</Time>
            <Position>
              <LatitudeDegrees>36.833094321191310882568359375</LatitudeDegrees>
              <LongitudeDegrees>-4.379293955862522125244140625</LongitudeDegrees>
            </Position>
            <AltitudeMeters>699.4000244140625</AltitudeMeters>
            <DistanceMeters>NAN</DistanceMeters>
          </Trackpoint>
          <Trackpoint>
            <Time>2020-12-05T12:41:37.000Z</Time>
            <Position>
              <LatitudeDegrees>36.833094321191310882568359375</LatitudeDegrees>
              <LongitudeDegrees>-4.379288591444492340087890625</LongitudeDegrees>
            </Position>
            <AltitudeMeters>699.4000244140625</AltitudeMeters>
            <DistanceMeters>NAN</DistanceMeters>
          </Trackpoint>
          <Trackpoint>
            <Time>2020-12-05T12:41:38.000Z</Time>
            <Position>
              <LatitudeDegrees>36.83309733867645263671875</LatitudeDegrees>
              <LongitudeDegrees>-4.37928951345384120941162109375</LongitudeDegrees>
            </Position>
            <AltitudeMeters>699.4000244140625</AltitudeMeters>
            <DistanceMeters>NAN</DistanceMeters>
          </Trackpoint>
          <Trackpoint>
            <Time>2020-12-05T12:41:39.000Z</Time>
            <Position>
              <LatitudeDegrees>36.83309935033321380615234375</LatitudeDegrees>
              <LongitudeDegrees>-4.37929051928222179412841796875</LongitudeDegrees>
            </Position>
            <AltitudeMeters>699.4000244140625</AltitudeMeters>
            <DistanceMeters>NAN</DistanceMeters>
          </Trackpoint>
          <Trackpoint>
            <Time>2020-12-05T12:41:40.000Z</Time>
            <Position>
              <LatitudeDegrees>36.83310278691351413726806640625</LatitudeDegrees>
              <LongitudeDegrees>-4.37929102219641208648681640625</LongitudeDegrees>
            </Position>
            <AltitudeMeters>699.4000244140625</AltitudeMeters>
            <DistanceMeters>NAN</DistanceMeters>
          </Trackpoint>
          <Trackpoint>
            <Time>2020-12-05T12:41:41.000Z</Time>
            <Position>
              <LatitudeDegrees>36.83310647495090961456298828125</LatitudeDegrees>
              <LongitudeDegrees>-4.3792901001870632171630859375</LongitudeDegrees>
            </Position>
            <AltitudeMeters>699.4000244140625</AltitudeMeters>
            <DistanceMeters>NAN</DistanceMeters>
          </Trackpoint>
          <Trackpoint>
            <Time>2020-12-05T12:41:42.000Z</Time>
            <Position>
              <LatitudeDegrees>36.8331089057028293609619140625</LatitudeDegrees>
              <LongitudeDegrees>-4.379289932548999786376953125</LongitudeDegrees>
            </Position>
            <AltitudeMeters>699.4000244140625</AltitudeMeters>
            <DistanceMeters>NAN</DistanceMeters>
          </Trackpoint>
          <Trackpoint>
            <Time>2020-12-05T12:41:43.000Z</Time>
            <Position>
              <LatitudeDegrees>36.83311007916927337646484375</LatitudeDegrees>
              <LongitudeDegrees>-4.37928783707320690155029296875</LongitudeDegrees>
            </Position>
            <AltitudeMeters>699.4000244140625</AltitudeMeters>
            <DistanceMeters>NAN</DistanceMeters>
          </Trackpoint>
          <Trackpoint>
            <Time>2020-12-05T12:41:44.000Z</Time>
            <Position>
              <LatitudeDegrees>36.83311276137828826904296875</LatitudeDegrees>
              <LongitudeDegrees>-4.37928498722612857818603515625</LongitudeDegrees>
            </Position>
            <AltitudeMeters>699.4000244140625</AltitudeMeters>
            <DistanceMeters>NAN</DistanceMeters>
          </Trackpoint>
          <Trackpoint>
            <Time>2020-12-05T12:41:45.000Z</Time>
            <Position>
              <LatitudeDegrees>36.8331159465014934539794921875</LatitudeDegrees>
              <LongitudeDegrees>-4.37928196974098682403564453125</LongitudeDegrees>
            </Position>
            <AltitudeMeters>699.4000244140625</AltitudeMeters>
            <DistanceMeters>NAN</DistanceMeters>
          </Trackpoint>
          <Trackpoint>
            <Time>2020-12-05T12:41:46.000Z</Time>
            <Position>
              <LatitudeDegrees>36.83311636559665203094482421875</LatitudeDegrees>
              <LongitudeDegrees>-4.3792770244181156158447265625</LongitudeDegrees>
            </Position>
            <AltitudeMeters>699.4000244140625</AltitudeMeters>
            <DistanceMeters>NAN</DistanceMeters>
          </Trackpoint>
          <Trackpoint>
            <Time>2020-12-05T12:41:47.000Z</Time>
            <Position>
              <LatitudeDegrees>36.8331209756433963775634765625</LatitudeDegrees>
              <LongitudeDegrees>-4.3792788684368133544921875</LongitudeDegrees>
            </Position>
            <AltitudeMeters>699.4000244140625</AltitudeMeters>
            <DistanceMeters>NAN</DistanceMeters>
          </Trackpoint>
          <Trackpoint>
            <Time>2020-12-05T12:41:48.000Z</Time>
            <Position>
              <LatitudeDegrees>36.8331203050911426544189453125</LatitudeDegrees>
              <LongitudeDegrees>-4.37927761115133762359619140625</LongitudeDegrees>
            </Position>
            <AltitudeMeters>699.4000244140625</AltitudeMeters>
            <DistanceMeters>NAN</DistanceMeters>
          </Trackpoint>
          <Trackpoint>
            <Time>2020-12-05T12:41:49.000Z</Time>
            <Position>
              <LatitudeDegrees>36.83311737142503261566162109375</LatitudeDegrees>
              <LongitudeDegrees>-4.3792733363807201385498046875</LongitudeDegrees>
            </Position>
            <AltitudeMeters>699.4000244140625</AltitudeMeters>
            <DistanceMeters>NAN</DistanceMeters>
          </Trackpoint>
          <Trackpoint>
            <Time>2020-12-05T12:41:50.000Z</Time>
            <Position>
              <LatitudeDegrees>36.83311435393989086151123046875</LatitudeDegrees>
              <LongitudeDegrees>-4.37926922924816608428955078125</LongitudeDegrees>
            </Position>
            <AltitudeMeters>699.4000244140625</AltitudeMeters>
            <DistanceMeters>NAN</DistanceMeters>
          </Trackpoint>
          <Trackpoint>
            <Time>2020-12-05T12:41:51.000Z</Time>
            <Position>
              <LatitudeDegrees>36.83311066590249538421630859375</LatitudeDegrees>
              <LongitudeDegrees>-4.37926570884883403778076171875</LongitudeDegrees>
            </Position>
            <AltitudeMeters>699.4000244140625</AltitudeMeters>
            <DistanceMeters>NAN</DistanceMeters>
          </Trackpoint>
          <Trackpoint>
            <Time>2020-12-05T12:41:52.000Z</Time>
            <Position>
              <LatitudeDegrees>36.83310815133154392242431640625</LatitudeDegrees>
              <LongitudeDegrees>-4.37926344573497772216796875</LongitudeDegrees>
            </Position>
            <AltitudeMeters>699.4000244140625</AltitudeMeters>
            <DistanceMeters>NAN</DistanceMeters>
          </Trackpoint>
          <Trackpoint>
            <Time>2020-12-05T12:41:53.000Z</Time>
            <Position>
              <LatitudeDegrees>36.83310530148446559906005859375</LatitudeDegrees>
              <LongitudeDegrees>-4.37926101498305797576904296875</LongitudeDegrees>
            </Position>
            <AltitudeMeters>699.4000244140625</AltitudeMeters>
            <DistanceMeters>NAN</DistanceMeters>
          </Trackpoint>
          <Trackpoint>
            <Time>2020-12-05T12:41:54.000Z</Time>
            <Position>
              <LatitudeDegrees>36.83310312218964099884033203125</LatitudeDegrees>
              <LongitudeDegrees>-4.37925875186920166015625</LongitudeDegrees>
            </Position>
            <AltitudeMeters>699.4000244140625</AltitudeMeters>
            <DistanceMeters>NAN</DistanceMeters>
          </Trackpoint>
          <Trackpoint>
            <Time>2020-12-05T12:41:55.000Z</Time>
            <Position>
              <LatitudeDegrees>36.8331022001802921295166015625</LatitudeDegrees>
              <LongitudeDegrees>-4.379258416593074798583984375</LongitudeDegrees>
            </Position>
            <AltitudeMeters>699.4000244140625</AltitudeMeters>
            <DistanceMeters>NAN</DistanceMeters>
          </Trackpoint>
          <Trackpoint>
            <Time>2020-12-05T12:41:56.000Z</Time>
            <Position>
              <LatitudeDegrees>36.833102703094482421875</LatitudeDegrees>
              <LongitudeDegrees>-4.3792589195072650909423828125</LongitudeDegrees>
            </Position>
            <AltitudeMeters>699.4000244140625</AltitudeMeters>
            <DistanceMeters>NAN</DistanceMeters>
          </Trackpoint>
          <Trackpoint>
            <Time>2020-12-05T12:41:57.000Z</Time>
            <Position>
              <LatitudeDegrees>36.833103708922863006591796875</LatitudeDegrees>
              <LongitudeDegrees>-4.3792592547833919525146484375</LongitudeDegrees>
            </Position>
            <AltitudeMeters>699.4000244140625</AltitudeMeters>
            <DistanceMeters>NAN</DistanceMeters>
          </Trackpoint>
          <Trackpoint>
            <Time>2020-12-05T12:41:58.000Z</Time>
            <Position>
              <LatitudeDegrees>36.83310546912252902984619140625</LatitudeDegrees>
              <LongitudeDegrees>-4.379259087145328521728515625</LongitudeDegrees>
            </Position>
            <AltitudeMeters>699.4000244140625</AltitudeMeters>
            <DistanceMeters>NAN</DistanceMeters>
          </Trackpoint>
          <Trackpoint>
            <Time>2020-12-05T12:41:59.000Z</Time>
            <Position>
              <LatitudeDegrees>36.8331058882176876068115234375</LatitudeDegrees>
              <LongitudeDegrees>-4.37926017679274082183837890625</LongitudeDegrees>
            </Position>
            <AltitudeMeters>699.4000244140625</AltitudeMeters>
            <DistanceMeters>NAN</DistanceMeters>
          </Trackpoint>
          <Trackpoint>
            <Time>2020-12-05T12:42:00.000Z</Time>
            <Position>
              <LatitudeDegrees>36.83310748077929019927978515625</LatitudeDegrees>
              <LongitudeDegrees>-4.3792602606117725372314453125</LongitudeDegrees>
            </Position>
            <AltitudeMeters>699.79998779296875</AltitudeMeters>
            <DistanceMeters>NAN</DistanceMeters>
          </Trackpoint>
          <Trackpoint>
            <Time>2020-12-05T12:42:01.000Z</Time>
            <Position>
              <LatitudeDegrees>36.83310966007411479949951171875</LatitudeDegrees>
              <LongitudeDegrees>-4.379262439906597137451171875</LongitudeDegrees>
            </Position>
            <AltitudeMeters>699.79998779296875</AltitudeMeters>
            <DistanceMeters>NAN</DistanceMeters>
          </Trackpoint>
          <Trackpoint>
            <Time>2020-12-05T12:42:02.000Z</Time>
            <Position>
              <LatitudeDegrees>36.83311787433922290802001953125</LatitudeDegrees>
              <LongitudeDegrees>-4.37926369719207286834716796875</LongitudeDegrees>
            </Position>
            <AltitudeMeters>699.79998779296875</AltitudeMeters>
            <DistanceMeters>NAN</DistanceMeters>
          </Trackpoint>
          <Trackpoint>
            <Time>2020-12-05T12:42:03.000Z</Time>
            <Position>
              <LatitudeDegrees>36.8331223167479038238525390625</LatitudeDegrees>
              <LongitudeDegrees>-4.37927149236202239990234375</LongitudeDegrees>
            </Position>
            <AltitudeMeters>699.79998779296875</AltitudeMeters>
            <DistanceMeters>NAN</DistanceMeters>
          </Trackpoint>
          <Trackpoint>
            <Time>2020-12-05T12:42:04.000Z</Time>
            <Position>
              <LatitudeDegrees>36.8331246636807918548583984375</LatitudeDegrees>
              <LongitudeDegrees>-4.379280544817447662353515625</LongitudeDegrees>
            </Position>
            <AltitudeMeters>699.79998779296875</AltitudeMeters>
            <DistanceMeters>NAN</DistanceMeters>
          </Trackpoint>
          <Trackpoint>
            <Time>2020-12-05T12:42:05.000Z</Time>
            <Position>
              <LatitudeDegrees>36.83312659151852130889892578125</LatitudeDegrees>
              <LongitudeDegrees>-4.3792874179780483245849609375</LongitudeDegrees>
            </Position>
            <AltitudeMeters>699.79998779296875</AltitudeMeters>
            <DistanceMeters>NAN</DistanceMeters>
          </Trackpoint>
          <Trackpoint>
            <Time>2020-12-05T12:42:06.000Z</Time>
            <Position>
              <LatitudeDegrees>36.8331260047852993011474609375</LatitudeDegrees>
              <LongitudeDegrees>-4.37928733415901660919189453125</LongitudeDegrees>
            </Position>
            <AltitudeMeters>699.79998779296875</AltitudeMeters>
            <DistanceMeters>NAN</DistanceMeters>
          </Trackpoint>
          <Trackpoint>
            <Time>2020-12-05T12:42:07.000Z</Time>
            <Position>
              <LatitudeDegrees>36.83312290348112583160400390625</LatitudeDegrees>
              <LongitudeDegrees>-4.37928364612162113189697265625</LongitudeDegrees>
            </Position>
            <AltitudeMeters>699.79998779296875</AltitudeMeters>
            <DistanceMeters>NAN</DistanceMeters>
          </Trackpoint>
          <Trackpoint>
            <Time>2020-12-05T12:42:08.000Z</Time>
            <Position>
              <LatitudeDegrees>36.83312122710049152374267578125</LatitudeDegrees>
              <LongitudeDegrees>-4.37928213737905025482177734375</LongitudeDegrees>
            </Position>
            <AltitudeMeters>699.79998779296875</AltitudeMeters>
            <DistanceMeters>NAN</DistanceMeters>
          </Trackpoint>
          <Trackpoint>
            <Time>2020-12-05T12:42:09.000Z</Time>
            <Position>
              <LatitudeDegrees>36.83311988599598407745361328125</LatitudeDegrees>
              <LongitudeDegrees>-4.37927995808422565460205078125</LongitudeDegrees>
            </Position>
            <AltitudeMeters>699.79998779296875</AltitudeMeters>
            <DistanceMeters>NAN</DistanceMeters>
          </Trackpoint>
          <Trackpoint>
            <Time>2020-12-05T12:42:10.000Z</Time>
            <Position>
              <LatitudeDegrees>36.8331182934343814849853515625</LatitudeDegrees>
              <LongitudeDegrees>-4.37927710823714733123779296875</LongitudeDegrees>
            </Position>
            <AltitudeMeters>699.79998779296875</AltitudeMeters>
            <DistanceMeters>NAN</DistanceMeters>
          </Trackpoint>
          <Trackpoint>
            <Time>2020-12-05T12:42:11.000Z</Time>
            <Position>
              <LatitudeDegrees>36.83311544358730316162109375</LatitudeDegrees>
              <LongitudeDegrees>-4.37927174381911754608154296875</LongitudeDegrees>
            </Position>
            <AltitudeMeters>699.79998779296875</AltitudeMeters>
            <DistanceMeters>NAN</DistanceMeters>
          </Trackpoint>
          <Trackpoint>
            <Time>2020-12-05T12:42:12.000Z</Time>
            <Position>
              <LatitudeDegrees>36.8331094086170196533203125</LatitudeDegrees>
              <LongitudeDegrees>-4.379266798496246337890625</LongitudeDegrees>
            </Position>
            <AltitudeMeters>699.79998779296875</AltitudeMeters>
            <DistanceMeters>NAN</DistanceMeters>
          </Trackpoint>
          <Trackpoint>
            <Time>2020-12-05T12:42:13.000Z</Time>
            <Position>
              <LatitudeDegrees>36.8331052176654338836669921875</LatitudeDegrees>
              <LongitudeDegrees>-4.3792622722685337066650390625</LongitudeDegrees>
            </Position>
            <AltitudeMeters>699.79998779296875</AltitudeMeters>
            <DistanceMeters>NAN</DistanceMeters>
          </Trackpoint>
          <Trackpoint>
            <Time>2020-12-05T12:42:14.000Z</Time>
            <Position>
              <LatitudeDegrees>36.833105050027370452880859375</LatitudeDegrees>
              <LongitudeDegrees>-4.3792579136788845062255859375</LongitudeDegrees>
            </Position>
            <AltitudeMeters>699.79998779296875</AltitudeMeters>
            <DistanceMeters>NAN</DistanceMeters>
          </Trackpoint>
          <Trackpoint>
            <Time>2020-12-05T12:42:15.000Z</Time>
            <Position>
              <LatitudeDegrees>36.83310597203671932220458984375</LatitudeDegrees>
              <LongitudeDegrees>-4.37925598584115505218505859375</LongitudeDegrees>
            </Position>
            <AltitudeMeters>699.79998779296875</AltitudeMeters>
            <DistanceMeters>NAN</DistanceMeters>
          </Trackpoint>
          <Trackpoint>
            <Time>2020-12-05T12:42:16.000Z</Time>
            <Position>
              <LatitudeDegrees>36.8331078998744487762451171875</LatitudeDegrees>
              <LongitudeDegrees>-4.3792579136788845062255859375</LongitudeDegrees>
            </Position>
            <AltitudeMeters>699.79998779296875</AltitudeMeters>
            <DistanceMeters>NAN</DistanceMeters>
          </Trackpoint>
          <Trackpoint>
            <Time>2020-12-05T12:42:17.000Z</Time>
            <Position>
              <LatitudeDegrees>36.8331109173595905303955078125</LatitudeDegrees>
              <LongitudeDegrees>-4.3792582489550113677978515625</LongitudeDegrees>
            </Position>
            <AltitudeMeters>699.79998779296875</AltitudeMeters>
            <DistanceMeters>NAN</DistanceMeters>
          </Trackpoint>
          <Trackpoint>
            <Time>2020-12-05T12:42:18.000Z</Time>
            <Position>
              <LatitudeDegrees>36.833110749721527099609375</LatitudeDegrees>
              <LongitudeDegrees>-4.37925833277404308319091796875</LongitudeDegrees>
            </Position>
            <AltitudeMeters>699.79998779296875</AltitudeMeters>
            <DistanceMeters>NAN</DistanceMeters>
          </Trackpoint>
          <Trackpoint>
            <Time>2020-12-05T12:42:19.000Z</Time>
            <Position>
              <LatitudeDegrees>36.83310999535024166107177734375</LatitudeDegrees>
              <LongitudeDegrees>-4.37925875186920166015625</LongitudeDegrees>
            </Position>
            <AltitudeMeters>699.79998779296875</AltitudeMeters>
            <DistanceMeters>NAN</DistanceMeters>
          </Trackpoint>
          <Trackpoint>
            <Time>2020-12-05T12:42:20.000Z</Time>
            <Position>
              <LatitudeDegrees>36.8331092409789562225341796875</LatitudeDegrees>
              <LongitudeDegrees>-4.3792555667459964752197265625</LongitudeDegrees>
            </Position>
            <AltitudeMeters>699.79998779296875</AltitudeMeters>
            <DistanceMeters>NAN</DistanceMeters>
          </Trackpoint>
          <Trackpoint>
            <Time>2020-12-05T12:42:21.000Z</Time>
            <Position>
              <LatitudeDegrees>36.83310873806476593017578125</LatitudeDegrees>
              <LongitudeDegrees>-4.3792555667459964752197265625</LongitudeDegrees>
            </Position>
            <AltitudeMeters>699.79998779296875</AltitudeMeters>
            <DistanceMeters>NAN</DistanceMeters>
          </Trackpoint>
          <Trackpoint>
            <Time>2020-12-05T12:42:22.000Z</Time>
            <Position>
              <LatitudeDegrees>36.833107732236385345458984375</LatitudeDegrees>
              <LongitudeDegrees>-4.37925674021244049072265625</LongitudeDegrees>
            </Position>
            <AltitudeMeters>699.79998779296875</AltitudeMeters>
            <DistanceMeters>NAN</DistanceMeters>
          </Trackpoint>
          <Trackpoint>
            <Time>2020-12-05T12:42:23.000Z</Time>
            <Position>
              <LatitudeDegrees>36.83310563676059246063232421875</LatitudeDegrees>
              <LongitudeDegrees>-4.3792609311640262603759765625</LongitudeDegrees>
            </Position>
            <AltitudeMeters>699.79998779296875</AltitudeMeters>
            <DistanceMeters>NAN</DistanceMeters>
          </Trackpoint>
          <Trackpoint>
            <Time>2020-12-05T12:42:24.000Z</Time>
            <Position>
              <LatitudeDegrees>36.83310739696025848388671875</LatitudeDegrees>
              <LongitudeDegrees>-4.3792639486491680145263671875</LongitudeDegrees>
            </Position>
            <AltitudeMeters>699.79998779296875</AltitudeMeters>
            <DistanceMeters>NAN</DistanceMeters>
          </Trackpoint>
          <Trackpoint>
            <Time>2020-12-05T12:42:25.000Z</Time>
            <Position>
              <LatitudeDegrees>36.83311250992119312286376953125</LatitudeDegrees>
              <LongitudeDegrees>-4.3792649544775485992431640625</LongitudeDegrees>
            </Position>
            <AltitudeMeters>699.79998779296875</AltitudeMeters>
            <DistanceMeters>NAN</DistanceMeters>
          </Trackpoint>
          <Trackpoint>
            <Time>2020-12-05T12:42:26.000Z</Time>
            <Position>
              <LatitudeDegrees>36.83311737142503261566162109375</LatitudeDegrees>
              <LongitudeDegrees>-4.37926637940108776092529296875</LongitudeDegrees>
            </Position>
            <AltitudeMeters>699.79998779296875</AltitudeMeters>
            <DistanceMeters>NAN</DistanceMeters>
          </Trackpoint>
          <Trackpoint>
            <Time>2020-12-05T12:42:27.000Z</Time>
            <Position>
              <LatitudeDegrees>36.83312072418630123138427734375</LatitudeDegrees>
              <LongitudeDegrees>-4.37926704995334148406982421875</LongitudeDegrees>
            </Position>
            <AltitudeMeters>699.79998779296875</AltitudeMeters>
            <DistanceMeters>NAN</DistanceMeters>
          </Trackpoint>
          <Trackpoint>
            <Time>2020-12-05T12:42:28.000Z</Time>
            <Position>
              <LatitudeDegrees>36.8331223167479038238525390625</LatitudeDegrees>
              <LongitudeDegrees>-4.379262439906597137451171875</LongitudeDegrees>
            </Position>
            <AltitudeMeters>699.79998779296875</AltitudeMeters>
            <DistanceMeters>NAN</DistanceMeters>
          </Trackpoint>
          <Trackpoint>
            <Time>2020-12-05T12:42:29.000Z</Time>
            <Position>
              <LatitudeDegrees>36.8331189639866352081298828125</LatitudeDegrees>
              <LongitudeDegrees>-4.37925548292696475982666015625</LongitudeDegrees>
            </Position>
            <AltitudeMeters>699.79998779296875</AltitudeMeters>
            <DistanceMeters>NAN</DistanceMeters>
          </Trackpoint>
          <Trackpoint>
            <Time>2020-12-05T12:42:30.000Z</Time>
            <Position>
              <LatitudeDegrees>36.83311267755925655364990234375</LatitudeDegrees>
              <LongitudeDegrees>-4.3792471848428249359130859375</LongitudeDegrees>
            </Position>
            <AltitudeMeters>699.79998779296875</AltitudeMeters>
            <DistanceMeters>NAN</DistanceMeters>
          </Trackpoint>
          <Trackpoint>
            <Time>2020-12-05T12:42:31.000Z</Time>
            <Position>
              <LatitudeDegrees>36.833111084997653961181640625</LatitudeDegrees>
              <LongitudeDegrees>-4.37924064695835113525390625</LongitudeDegrees>
            </Position>
            <AltitudeMeters>699.79998779296875</AltitudeMeters>
            <DistanceMeters>NAN</DistanceMeters>
          </Trackpoint>
          <Trackpoint>
            <Time>2020-12-05T12:42:32.000Z</Time>
            <Position>
              <LatitudeDegrees>36.83310949243605136871337890625</LatitudeDegrees>
              <LongitudeDegrees>-4.3792337737977504730224609375</LongitudeDegrees>
            </Position>
            <AltitudeMeters>699.79998779296875</AltitudeMeters>
            <DistanceMeters>NAN</DistanceMeters>
          </Trackpoint>
          <Trackpoint>
            <Time>2020-12-05T12:42:33.000Z</Time>
            <Position>
              <LatitudeDegrees>36.83310815133154392242431640625</LatitudeDegrees>
              <LongitudeDegrees>-4.37923100776970386505126953125</LongitudeDegrees>
            </Position>
            <AltitudeMeters>699.79998779296875</AltitudeMeters>
            <DistanceMeters>NAN</DistanceMeters>
          </Trackpoint>
          <Trackpoint>
            <Time>2020-12-05T12:42:34.000Z</Time>
            <Position>
              <LatitudeDegrees>36.8331092409789562225341796875</LatitudeDegrees>
              <LongitudeDegrees>-4.37922748737037181854248046875</LongitudeDegrees>
            </Position>
            <AltitudeMeters>699.79998779296875</AltitudeMeters>
            <DistanceMeters>NAN</DistanceMeters>
          </Trackpoint>
          <Trackpoint>
            <Time>2020-12-05T12:42:35.000Z</Time>
            <Position>
              <LatitudeDegrees>36.83311250992119312286376953125</LatitudeDegrees>
              <LongitudeDegrees>-4.3792247213423252105712890625</LongitudeDegrees>
            </Position>
            <AltitudeMeters>699.79998779296875</AltitudeMeters>
            <DistanceMeters>NAN</DistanceMeters>
          </Trackpoint>
          <Trackpoint>
            <Time>2020-12-05T12:42:36.000Z</Time>
            <Position>
              <LatitudeDegrees>36.83311552740633487701416015625</LatitudeDegrees>
              <LongitudeDegrees>-4.379223547875881195068359375</LongitudeDegrees>
            </Position>
            <AltitudeMeters>699.79998779296875</AltitudeMeters>
            <DistanceMeters>NAN</DistanceMeters>
          </Trackpoint>
          <Trackpoint>
            <Time>2020-12-05T12:42:37.000Z</Time>
            <Position>
              <LatitudeDegrees>36.83311955071985721588134765625</LatitudeDegrees>
              <LongitudeDegrees>-4.379229582846164703369140625</LongitudeDegrees>
            </Position>
            <AltitudeMeters>699.79998779296875</AltitudeMeters>
            <DistanceMeters>NAN</DistanceMeters>
          </Trackpoint>
          <Trackpoint>
            <Time>2020-12-05T12:42:38.000Z</Time>
            <Position>
              <LatitudeDegrees>36.8331203050911426544189453125</LatitudeDegrees>
              <LongitudeDegrees>-4.37922966666519641876220703125</LongitudeDegrees>
            </Position>
            <AltitudeMeters>699.79998779296875</AltitudeMeters>
            <DistanceMeters>NAN</DistanceMeters>
          </Trackpoint>
          <Trackpoint>
            <Time>2020-12-05T12:42:39.000Z</Time>
            <Position>
              <LatitudeDegrees>36.83311854489147663116455078125</LatitudeDegrees>
              <LongitudeDegrees>-4.37923528254032135009765625</LongitudeDegrees>
            </Position>
            <AltitudeMeters>699.79998779296875</AltitudeMeters>
            <DistanceMeters>NAN</DistanceMeters>
          </Trackpoint>
          <Trackpoint>
            <Time>2020-12-05T12:42:40.000Z</Time>
            <Position>
              <LatitudeDegrees>36.833117119967937469482421875</LatitudeDegrees>
              <LongitudeDegrees>-4.37925011850893497467041015625</LongitudeDegrees>
            </Position>
            <AltitudeMeters>699.79998779296875</AltitudeMeters>
            <DistanceMeters>NAN</DistanceMeters>
          </Trackpoint>
          <Trackpoint>
            <Time>2020-12-05T12:42:41.000Z</Time>
            <Position>
              <LatitudeDegrees>36.83311787433922290802001953125</LatitudeDegrees>
              <LongitudeDegrees>-4.37925967387855052947998046875</LongitudeDegrees>
            </Position>
            <AltitudeMeters>699.79998779296875</AltitudeMeters>
            <DistanceMeters>NAN</DistanceMeters>
          </Trackpoint>
          <Trackpoint>
            <Time>2020-12-05T12:42:42.000Z</Time>
            <Position>
              <LatitudeDegrees>36.83311703614890575408935546875</LatitudeDegrees>
              <LongitudeDegrees>-4.37926403246819972991943359375</LongitudeDegrees>
            </Position>
            <AltitudeMeters>699.79998779296875</AltitudeMeters>
            <DistanceMeters>NAN</DistanceMeters>
          </Trackpoint>
          <Trackpoint>
            <Time>2020-12-05T12:42:43.000Z</Time>
            <Position>
              <LatitudeDegrees>36.83311535976827144622802734375</LatitudeDegrees>
              <LongitudeDegrees>-4.37927015125751495361328125</LongitudeDegrees>
            </Position>
            <AltitudeMeters>699.79998779296875</AltitudeMeters>
            <DistanceMeters>NAN</DistanceMeters>
          </Trackpoint>
          <Trackpoint>
            <Time>2020-12-05T12:42:44.000Z</Time>
            <Position>
              <LatitudeDegrees>36.83311519213020801544189453125</LatitudeDegrees>
              <LongitudeDegrees>-4.37927828170359134674072265625</LongitudeDegrees>
            </Position>
            <AltitudeMeters>699.79998779296875</AltitudeMeters>
            <DistanceMeters>NAN</DistanceMeters>
          </Trackpoint>
          <Trackpoint>
            <Time>2020-12-05T12:42:45.000Z</Time>
            <Position>
              <LatitudeDegrees>36.833116114139556884765625</LatitudeDegrees>
              <LongitudeDegrees>-4.37928683124482631683349609375</LongitudeDegrees>
            </Position>
            <AltitudeMeters>699.79998779296875</AltitudeMeters>
            <DistanceMeters>NAN</DistanceMeters>
          </Trackpoint>
          <Trackpoint>
            <Time>2020-12-05T12:42:46.000Z</Time>
            <Position>
              <LatitudeDegrees>36.83311737142503261566162109375</LatitudeDegrees>
              <LongitudeDegrees>-4.3792924471199512481689453125</LongitudeDegrees>
            </Position>
            <AltitudeMeters>699.79998779296875</AltitudeMeters>
            <DistanceMeters>NAN</DistanceMeters>
          </Trackpoint>
          <Trackpoint>
            <Time>2020-12-05T12:42:47.000Z</Time>
            <Position>
              <LatitudeDegrees>36.8331199698150157928466796875</LatitudeDegrees>
              <LongitudeDegrees>-4.37929940409958362579345703125</LongitudeDegrees>
            </Position>
            <AltitudeMeters>699.79998779296875</AltitudeMeters>
            <DistanceMeters>NAN</DistanceMeters>
          </Trackpoint>
          <Trackpoint>
            <Time>2020-12-05T12:42:48.000Z</Time>
            <Position>
              <LatitudeDegrees>36.8331206403672695159912109375</LatitudeDegrees>
              <LongitudeDegrees>-4.3793038465082645416259765625</LongitudeDegrees>
            </Position>
            <AltitudeMeters>699.79998779296875</AltitudeMeters>
            <DistanceMeters>NAN</DistanceMeters>
          </Trackpoint>
          <Trackpoint>
            <Time>2020-12-05T12:42:49.000Z</Time>
            <Position>
              <LatitudeDegrees>36.83311904780566692352294921875</LatitudeDegrees>
              <LongitudeDegrees>-4.37930661253631114959716796875</LongitudeDegrees>
            </Position>
            <AltitudeMeters>699.79998779296875</AltitudeMeters>
            <DistanceMeters>NAN</DistanceMeters>
          </Trackpoint>
          <Trackpoint>
            <Time>2020-12-05T12:42:50.000Z</Time>
            <Position>
              <LatitudeDegrees>36.83311787433922290802001953125</LatitudeDegrees>
              <LongitudeDegrees>-4.37931499443948268890380859375</LongitudeDegrees>
            </Position>
            <AltitudeMeters>699.79998779296875</AltitudeMeters>
            <DistanceMeters>NAN</DistanceMeters>
          </Trackpoint>
          <Trackpoint>
            <Time>2020-12-05T12:42:51.000Z</Time>
            <Position>
              <LatitudeDegrees>36.83311619795858860015869140625</LatitudeDegrees>
              <LongitudeDegrees>-4.37932035885751247406005859375</LongitudeDegrees>
            </Position>
            <AltitudeMeters>699.79998779296875</AltitudeMeters>
            <DistanceMeters>NAN</DistanceMeters>
          </Trackpoint>
          <Trackpoint>
            <Time>2020-12-05T12:42:52.000Z</Time>
            <Position>
              <LatitudeDegrees>36.83311418630182743072509765625</LatitudeDegrees>
              <LongitudeDegrees>-4.3793271481990814208984375</LongitudeDegrees>
            </Position>
            <AltitudeMeters>699.79998779296875</AltitudeMeters>
            <DistanceMeters>NAN</DistanceMeters>
          </Trackpoint>
          <Trackpoint>
            <Time>2020-12-05T12:42:53.000Z</Time>
            <Position>
              <LatitudeDegrees>36.83311569504439830780029296875</LatitudeDegrees>
              <LongitudeDegrees>-4.37933745793998241424560546875</LongitudeDegrees>
            </Position>
            <AltitudeMeters>699.79998779296875</AltitudeMeters>
            <DistanceMeters>NAN</DistanceMeters>
          </Trackpoint>
          <Trackpoint>
            <Time>2020-12-05T12:42:54.000Z</Time>
            <Position>
              <LatitudeDegrees>36.833112426102161407470703125</LatitudeDegrees>
              <LongitudeDegrees>-4.37934718094766139984130859375</LongitudeDegrees>
            </Position>
            <AltitudeMeters>699.79998779296875</AltitudeMeters>
            <DistanceMeters>NAN</DistanceMeters>
          </Trackpoint>
          <Trackpoint>
            <Time>2020-12-05T12:42:55.000Z</Time>
            <Position>
              <LatitudeDegrees>36.83310949243605136871337890625</LatitudeDegrees>
              <LongitudeDegrees>-4.3793548084795475006103515625</LongitudeDegrees>
            </Position>
            <AltitudeMeters>699.79998779296875</AltitudeMeters>
            <DistanceMeters>NAN</DistanceMeters>
          </Trackpoint>
          <Trackpoint>
            <Time>2020-12-05T12:42:56.000Z</Time>
            <Position>
              <LatitudeDegrees>36.83310815133154392242431640625</LatitudeDegrees>
              <LongitudeDegrees>-4.379361011087894439697265625</LongitudeDegrees>
            </Position>
            <AltitudeMeters>699.79998779296875</AltitudeMeters>
            <DistanceMeters>NAN</DistanceMeters>
          </Trackpoint>
          <Trackpoint>
            <Time>2020-12-05T12:42:57.000Z</Time>
            <Position>
              <LatitudeDegrees>36.833109073340892791748046875</LatitudeDegrees>
              <LongitudeDegrees>-4.379366375505924224853515625</LongitudeDegrees>
            </Position>
            <AltitudeMeters>699.79998779296875</AltitudeMeters>
            <DistanceMeters>NAN</DistanceMeters>
          </Trackpoint>
          <Trackpoint>
            <Time>2020-12-05T12:42:58.000Z</Time>
            <Position>
              <LatitudeDegrees>36.83311133645474910736083984375</LatitudeDegrees>
              <LongitudeDegrees>-4.37937232665717601776123046875</LongitudeDegrees>
            </Position>
            <AltitudeMeters>699.79998779296875</AltitudeMeters>
            <DistanceMeters>NAN</DistanceMeters>
          </Trackpoint>
          <Trackpoint>
            <Time>2020-12-05T12:42:59.000Z</Time>
            <Position>
              <LatitudeDegrees>36.83311250992119312286376953125</LatitudeDegrees>
              <LongitudeDegrees>-4.37937869690358638763427734375</LongitudeDegrees>
            </Position>
            <AltitudeMeters>699.79998779296875</AltitudeMeters>
            <DistanceMeters>NAN</DistanceMeters>
          </Trackpoint>
          <Trackpoint>
            <Time>2020-12-05T12:43:00.000Z</Time>
            <Position>
              <LatitudeDegrees>36.8331125937402248382568359375</LatitudeDegrees>
              <LongitudeDegrees>-4.37938439659774303436279296875</LongitudeDegrees>
            </Position>
            <AltitudeMeters>699.79998779296875</AltitudeMeters>
            <DistanceMeters>NAN</DistanceMeters>
          </Trackpoint>
          <Trackpoint>
            <Time>2020-12-05T12:43:01.000Z</Time>
            <Position>
              <LatitudeDegrees>36.83311083354055881500244140625</LatitudeDegrees>
              <LongitudeDegrees>-4.379390180110931396484375</LongitudeDegrees>
            </Position>
            <AltitudeMeters>699.79998779296875</AltitudeMeters>
            <DistanceMeters>NAN</DistanceMeters>
          </Trackpoint>
          <Trackpoint>
            <Time>2020-12-05T12:43:02.000Z</Time>
            <Position>
              <LatitudeDegrees>36.8331092409789562225341796875</LatitudeDegrees>
              <LongitudeDegrees>-4.3793942034244537353515625</LongitudeDegrees>
            </Position>
            <AltitudeMeters>699.79998779296875</AltitudeMeters>
            <DistanceMeters>NAN</DistanceMeters>
          </Trackpoint>
          <Trackpoint>
            <Time>2020-12-05T12:43:03.000Z</Time>
            <Position>
              <LatitudeDegrees>36.83310806751251220703125</LatitudeDegrees>
              <LongitudeDegrees>-4.37939261086285114288330078125</LongitudeDegrees>
            </Position>
            <AltitudeMeters>699.79998779296875</AltitudeMeters>
            <DistanceMeters>NAN</DistanceMeters>
          </Trackpoint>
          <Trackpoint>
            <Time>2020-12-05T12:43:04.000Z</Time>
            <Position>
              <LatitudeDegrees>36.833107732236385345458984375</LatitudeDegrees>
              <LongitudeDegrees>-4.37939043156802654266357421875</LongitudeDegrees>
            </Position>
            <AltitudeMeters>699.79998779296875</AltitudeMeters>
            <DistanceMeters>NAN</DistanceMeters>
          </Trackpoint>
          <Trackpoint>
            <Time>2020-12-05T12:43:05.000Z</Time>
            <Position>
              <LatitudeDegrees>36.8331099115312099456787109375</LatitudeDegrees>
              <LongitudeDegrees>-4.379386492073535919189453125</LongitudeDegrees>
            </Position>
            <AltitudeMeters>699.79998779296875</AltitudeMeters>
            <DistanceMeters>NAN</DistanceMeters>
          </Trackpoint>
          <Trackpoint>
            <Time>2020-12-05T12:43:06.000Z</Time>
            <Position>
              <LatitudeDegrees>36.83311234228312969207763671875</LatitudeDegrees>
              <LongitudeDegrees>-4.37937869690358638763427734375</LongitudeDegrees>
            </Position>
            <AltitudeMeters>699.79998779296875</AltitudeMeters>
            <DistanceMeters>NAN</DistanceMeters>
          </Trackpoint>
          <Trackpoint>
            <Time>2020-12-05T12:43:07.000Z</Time>
            <Position>
              <LatitudeDegrees>36.8331166170537471771240234375</LatitudeDegrees>
              <LongitudeDegrees>-4.3793742544949054718017578125</LongitudeDegrees>
            </Position>
            <AltitudeMeters>699.79998779296875</AltitudeMeters>
            <DistanceMeters>NAN</DistanceMeters>
          </Trackpoint>
          <Trackpoint>
            <Time>2020-12-05T12:43:08.000Z</Time>
            <Position>
              <LatitudeDegrees>36.8331162817776203155517578125</LatitudeDegrees>
              <LongitudeDegrees>-4.37937182374298572540283203125</LongitudeDegrees>
            </Position>
            <AltitudeMeters>699.79998779296875</AltitudeMeters>
            <DistanceMeters>NAN</DistanceMeters>
          </Trackpoint>
          <Trackpoint>
            <Time>2020-12-05T12:43:09.000Z</Time>
            <Position>
              <LatitudeDegrees>36.8331162817776203155517578125</LatitudeDegrees>
              <LongitudeDegrees>-4.37937165610492229461669921875</LongitudeDegrees>
            </Position>
            <AltitudeMeters>699.79998779296875</AltitudeMeters>
            <DistanceMeters>NAN</DistanceMeters>
          </Trackpoint>
          <Trackpoint>
            <Time>2020-12-05T12:43:10.000Z</Time>
            <Position>
              <LatitudeDegrees>36.83311770670115947723388671875</LatitudeDegrees>
              <LongitudeDegrees>-4.3793692253530025482177734375</LongitudeDegrees>
            </Position>
            <AltitudeMeters>699.79998779296875</AltitudeMeters>
            <DistanceMeters>NAN</DistanceMeters>
          </Trackpoint>
          <Trackpoint>
            <Time>2020-12-05T12:43:11.000Z</Time>
            <Position>
              <LatitudeDegrees>36.83312156237661838531494140625</LatitudeDegrees>
              <LongitudeDegrees>-4.3793625198304653167724609375</LongitudeDegrees>
            </Position>
            <AltitudeMeters>699.79998779296875</AltitudeMeters>
            <DistanceMeters>NAN</DistanceMeters>
          </Trackpoint>
          <Trackpoint>
            <Time>2020-12-05T12:43:12.000Z</Time>
            <Position>
              <LatitudeDegrees>36.83314494788646697998046875</LatitudeDegrees>
              <LongitudeDegrees>-4.3793581612408161163330078125</LongitudeDegrees>
            </Position>
            <AltitudeMeters>699.79998779296875</AltitudeMeters>
            <DistanceMeters>NAN</DistanceMeters>
          </Trackpoint>
          <Trackpoint>
            <Time>2020-12-05T12:43:13.000Z</Time>
            <Position>
              <LatitudeDegrees>36.8331474624574184417724609375</LatitudeDegrees>
              <LongitudeDegrees>-4.37935187481343746185302734375</LongitudeDegrees>
            </Position>
            <AltitudeMeters>699.79998779296875</AltitudeMeters>
            <DistanceMeters>NAN</DistanceMeters>
          </Trackpoint>
          <Trackpoint>
            <Time>2020-12-05T12:43:14.000Z</Time>
            <Position>
              <LatitudeDegrees>36.83314184658229351043701171875</LatitudeDegrees>
              <LongitudeDegrees>-4.37935371883213520050048828125</LongitudeDegrees>
            </Position>
            <AltitudeMeters>699.79998779296875</AltitudeMeters>
            <DistanceMeters>NAN</DistanceMeters>
          </Trackpoint>
          <Trackpoint>
            <Time>2020-12-05T12:43:15.000Z</Time>
            <Position>
              <LatitudeDegrees>36.83313279412686824798583984375</LatitudeDegrees>
              <LongitudeDegrees>-4.37936143018305301666259765625</LongitudeDegrees>
            </Position>
            <AltitudeMeters>699.79998779296875</AltitudeMeters>
            <DistanceMeters>NAN</DistanceMeters>
          </Trackpoint>
          <Trackpoint>
            <Time>2020-12-05T12:43:16.000Z</Time>
            <Position>
              <LatitudeDegrees>36.8331303633749485015869140625</LatitudeDegrees>
              <LongitudeDegrees>-4.379367046058177947998046875</LongitudeDegrees>
            </Position>
            <AltitudeMeters>699.79998779296875</AltitudeMeters>
            <DistanceMeters>NAN</DistanceMeters>
          </Trackpoint>
          <Trackpoint>
            <Time>2020-12-05T12:43:17.000Z</Time>
            <Position>
              <LatitudeDegrees>36.8331286869943141937255859375</LatitudeDegrees>
              <LongitudeDegrees>-4.3793729133903980255126953125</LongitudeDegrees>
            </Position>
            <AltitudeMeters>699.79998779296875</AltitudeMeters>
            <DistanceMeters>NAN</DistanceMeters>
          </Trackpoint>
          <Trackpoint>
            <Time>2020-12-05T12:43:18.000Z</Time>
            <Position>
              <LatitudeDegrees>36.8331249989569187164306640625</LatitudeDegrees>
              <LongitudeDegrees>-4.3793786130845546722412109375</LongitudeDegrees>
            </Position>
            <AltitudeMeters>699.79998779296875</AltitudeMeters>
            <DistanceMeters>NAN</DistanceMeters>
          </Trackpoint>
          <Trackpoint>
            <Time>2020-12-05T12:43:19.000Z</Time>
            <Position>
              <LatitudeDegrees>36.83312206529080867767333984375</LatitudeDegrees>
              <LongitudeDegrees>-4.37938288785517215728759765625</LongitudeDegrees>
            </Position>
            <AltitudeMeters>699.79998779296875</AltitudeMeters>
            <DistanceMeters>NAN</DistanceMeters>
          </Trackpoint>
          <Trackpoint>
            <Time>2020-12-05T12:43:20.000Z</Time>
            <Position>
              <LatitudeDegrees>36.83311946690082550048828125</LatitudeDegrees>
              <LongitudeDegrees>-4.3793853186070919036865234375</LongitudeDegrees>
            </Position>
            <AltitudeMeters>699.79998779296875</AltitudeMeters>
            <DistanceMeters>NAN</DistanceMeters>
          </Trackpoint>
          <Trackpoint>
            <Time>2020-12-05T12:43:21.000Z</Time>
            <Position>
              <LatitudeDegrees>36.833116449415683746337890625</LatitudeDegrees>
              <LongitudeDegrees>-4.37938841991126537322998046875</LongitudeDegrees>
            </Position>
            <AltitudeMeters>699.79998779296875</AltitudeMeters>
            <DistanceMeters>NAN</DistanceMeters>
          </Trackpoint>
          <Trackpoint>
            <Time>2020-12-05T12:43:22.000Z</Time>
            <Position>
              <LatitudeDegrees>36.83311368338763713836669921875</LatitudeDegrees>
              <LongitudeDegrees>-4.3793933652341365814208984375</LongitudeDegrees>
            </Position>
            <AltitudeMeters>699.79998779296875</AltitudeMeters>
            <DistanceMeters>NAN</DistanceMeters>
          </Trackpoint>
          <Trackpoint>
            <Time>2020-12-05T12:43:23.000Z</Time>
            <Position>
              <LatitudeDegrees>36.833111755549907684326171875</LatitudeDegrees>
              <LongitudeDegrees>-4.37939663417637348175048828125</LongitudeDegrees>
            </Position>
            <AltitudeMeters>699.79998779296875</AltitudeMeters>
            <DistanceMeters>NAN</DistanceMeters>
          </Trackpoint>
          <Trackpoint>
            <Time>2020-12-05T12:43:24.000Z</Time>
            <Position>
              <LatitudeDegrees>36.83310873806476593017578125</LatitudeDegrees>
              <LongitudeDegrees>-4.379403591156005859375</LongitudeDegrees>
            </Position>
            <AltitudeMeters>699.79998779296875</AltitudeMeters>
            <DistanceMeters>NAN</DistanceMeters>
          </Trackpoint>
          <Trackpoint>
            <Time>2020-12-05T12:43:25.000Z</Time>
            <Position>
              <LatitudeDegrees>36.833101697266101837158203125</LatitudeDegrees>
              <LongitudeDegrees>-4.3794094584882259368896484375</LongitudeDegrees>
            </Position>
            <AltitudeMeters>699.79998779296875</AltitudeMeters>
            <DistanceMeters>NAN</DistanceMeters>
          </Trackpoint>
          <Trackpoint>
            <Time>2020-12-05T12:43:26.000Z</Time>
            <Position>
              <LatitudeDegrees>36.83308686129748821258544921875</LatitudeDegrees>
              <LongitudeDegrees>-4.3794188462197780609130859375</LongitudeDegrees>
            </Position>
            <AltitudeMeters>699.79998779296875</AltitudeMeters>
            <DistanceMeters>NAN</DistanceMeters>
          </Trackpoint>
          <Trackpoint>
            <Time>2020-12-05T12:43:27.000Z</Time>
            <Position>
              <LatitudeDegrees>36.83308233506977558135986328125</LatitudeDegrees>
              <LongitudeDegrees>-4.37942261807620525360107421875</LongitudeDegrees>
            </Position>
            <AltitudeMeters>699.79998779296875</AltitudeMeters>
            <DistanceMeters>NAN</DistanceMeters>
          </Trackpoint>
          <Trackpoint>
            <Time>2020-12-05T12:43:28.000Z</Time>
            <Position>
              <LatitudeDegrees>36.833075545728206634521484375</LatitudeDegrees>
              <LongitudeDegrees>-4.37943150289356708526611328125</LongitudeDegrees>
            </Position>
            <AltitudeMeters>699.79998779296875</AltitudeMeters>
            <DistanceMeters>NAN</DistanceMeters>
          </Trackpoint>
          <Trackpoint>
            <Time>2020-12-05T12:43:29.000Z</Time>
            <Position>
              <LatitudeDegrees>36.83306892402470111846923828125</LatitudeDegrees>
              <LongitudeDegrees>-4.37943586148321628570556640625</LongitudeDegrees>
            </Position>
            <AltitudeMeters>699.79998779296875</AltitudeMeters>
            <DistanceMeters>NAN</DistanceMeters>
          </Trackpoint>
          <Trackpoint>
            <Time>2020-12-05T12:43:30.000Z</Time>
            <Position>
              <LatitudeDegrees>36.8330666609108448028564453125</LatitudeDegrees>
              <LongitudeDegrees>-4.3794362805783748626708984375</LongitudeDegrees>
            </Position>
            <AltitudeMeters>699.79998779296875</AltitudeMeters>
            <DistanceMeters>NAN</DistanceMeters>
          </Trackpoint>
          <Trackpoint>
            <Time>2020-12-05T12:43:31.000Z</Time>
            <Position>
              <LatitudeDegrees>36.83306456543505191802978515625</LatitudeDegrees>
              <LongitudeDegrees>-4.3794379569590091705322265625</LongitudeDegrees>
            </Position>
            <AltitudeMeters>699.79998779296875</AltitudeMeters>
            <DistanceMeters>NAN</DistanceMeters>
          </Trackpoint>
          <Trackpoint>
            <Time>2020-12-05T12:43:32.000Z</Time>
            <Position>
              <LatitudeDegrees>36.83305920101702213287353515625</LatitudeDegrees>
              <LongitudeDegrees>-4.379439465701580047607421875</LongitudeDegrees>
            </Position>
            <AltitudeMeters>699.79998779296875</AltitudeMeters>
            <DistanceMeters>NAN</DistanceMeters>
          </Trackpoint>
          <Trackpoint>
            <Time>2020-12-05T12:43:33.000Z</Time>
            <Position>
              <LatitudeDegrees>36.8330532498657703399658203125</LatitudeDegrees>
              <LongitudeDegrees>-4.3794396333396434783935546875</LongitudeDegrees>
            </Position>
            <AltitudeMeters>699.79998779296875</AltitudeMeters>
            <DistanceMeters>NAN</DistanceMeters>
          </Trackpoint>
          <Trackpoint>
            <Time>2020-12-05T12:43:34.000Z</Time>
            <Position>
              <LatitudeDegrees>36.83304176665842533111572265625</LatitudeDegrees>
              <LongitudeDegrees>-4.37943820841610431671142578125</LongitudeDegrees>
            </Position>
            <AltitudeMeters>699.79998779296875</AltitudeMeters>
            <DistanceMeters>NAN</DistanceMeters>
          </Trackpoint>
          <Trackpoint>
            <Time>2020-12-05T12:43:35.000Z</Time>
            <Position>
              <LatitudeDegrees>36.83303321711719036102294921875</LatitudeDegrees>
              <LongitudeDegrees>-4.3794406391680240631103515625</LongitudeDegrees>
            </Position>
            <AltitudeMeters>699.79998779296875</AltitudeMeters>
            <DistanceMeters>NAN</DistanceMeters>
          </Trackpoint>
          <Trackpoint>
            <Time>2020-12-05T12:43:36.000Z</Time>
            <Position>
              <LatitudeDegrees>36.83302818797528743743896484375</LatitudeDegrees>
              <LongitudeDegrees>-4.37944189645349979400634765625</LongitudeDegrees>
            </Position>
            <AltitudeMeters>699.79998779296875</AltitudeMeters>
            <DistanceMeters>NAN</DistanceMeters>
          </Trackpoint>
          <Trackpoint>
            <Time>2020-12-05T12:43:37.000Z</Time>
            <Position>
              <LatitudeDegrees>36.8330235779285430908203125</LatitudeDegrees>
              <LongitudeDegrees>-4.37944122590124607086181640625</LongitudeDegrees>
            </Position>
            <AltitudeMeters>699.79998779296875</AltitudeMeters>
            <DistanceMeters>NAN</DistanceMeters>
          </Trackpoint>
          <Trackpoint>
            <Time>2020-12-05T12:43:38.000Z</Time>
            <Position>
              <LatitudeDegrees>36.83301947079598903656005859375</LatitudeDegrees>
              <LongitudeDegrees>-4.3794419802725315093994140625</LongitudeDegrees>
            </Position>
            <AltitudeMeters>699.79998779296875</AltitudeMeters>
            <DistanceMeters>NAN</DistanceMeters>
          </Trackpoint>
          <Trackpoint>
            <Time>2020-12-05T12:43:39.000Z</Time>
            <Position>
              <LatitudeDegrees>36.8330150283873081207275390625</LatitudeDegrees>
              <LongitudeDegrees>-4.37944206409156322479248046875</LongitudeDegrees>
            </Position>
            <AltitudeMeters>699.79998779296875</AltitudeMeters>
            <DistanceMeters>NAN</DistanceMeters>
          </Trackpoint>
          <Trackpoint>
            <Time>2020-12-05T12:43:40.000Z</Time>
            <Position>
              <LatitudeDegrees>36.8330073170363903045654296875</LatitudeDegrees>
              <LongitudeDegrees>-4.37944156117737293243408203125</LongitudeDegrees>
            </Position>
            <AltitudeMeters>699.79998779296875</AltitudeMeters>
            <DistanceMeters>NAN</DistanceMeters>
          </Trackpoint>
          <Trackpoint>
            <Time>2020-12-05T12:43:41.000Z</Time>
            <Position>
              <LatitudeDegrees>36.83300279080867767333984375</LatitudeDegrees>
              <LongitudeDegrees>-4.37944876961410045623779296875</LongitudeDegrees>
            </Position>
            <AltitudeMeters>699.79998779296875</AltitudeMeters>
            <DistanceMeters>NAN</DistanceMeters>
          </Trackpoint>
          <Trackpoint>
            <Time>2020-12-05T12:43:42.000Z</Time>
            <Position>
              <LatitudeDegrees>36.832999773323535919189453125</LatitudeDegrees>
              <LongitudeDegrees>-4.37945966608822345733642578125</LongitudeDegrees>
            </Position>
            <AltitudeMeters>699.79998779296875</AltitudeMeters>
            <DistanceMeters>NAN</DistanceMeters>
          </Trackpoint>
          <Trackpoint>
            <Time>2020-12-05T12:43:43.000Z</Time>
            <Position>
              <LatitudeDegrees>36.83299616910517215728759765625</LatitudeDegrees>
              <LongitudeDegrees>-4.37946603633463382720947265625</LongitudeDegrees>
            </Position>
            <AltitudeMeters>699.79998779296875</AltitudeMeters>
            <DistanceMeters>NAN</DistanceMeters>
          </Trackpoint>
          <Trackpoint>
            <Time>2020-12-05T12:43:44.000Z</Time>
            <Position>
              <LatitudeDegrees>36.8329913914203643798828125</LatitudeDegrees>
              <LongitudeDegrees>-4.37947207130491733551025390625</LongitudeDegrees>
            </Position>
            <AltitudeMeters>699.79998779296875</AltitudeMeters>
            <DistanceMeters>NAN</DistanceMeters>
          </Trackpoint>
          <Trackpoint>
            <Time>2020-12-05T12:43:45.000Z</Time>
            <Position>
              <LatitudeDegrees>36.83298803865909576416015625</LatitudeDegrees>
              <LongitudeDegrees>-4.3794765137135982513427734375</LongitudeDegrees>
            </Position>
            <AltitudeMeters>699.79998779296875</AltitudeMeters>
            <DistanceMeters>NAN</DistanceMeters>
          </Trackpoint>
          <Trackpoint>
            <Time>2020-12-05T12:43:46.000Z</Time>
            <Position>
              <LatitudeDegrees>36.83298476971685886383056640625</LatitudeDegrees>
              <LongitudeDegrees>-4.37948229722678661346435546875</LongitudeDegrees>
            </Position>
            <AltitudeMeters>699.79998779296875</AltitudeMeters>
            <DistanceMeters>NAN</DistanceMeters>
          </Trackpoint>
          <Trackpoint>
            <Time>2020-12-05T12:43:47.000Z</Time>
            <Position>
              <LatitudeDegrees>36.8329818360507488250732421875</LatitudeDegrees>
              <LongitudeDegrees>-4.37948699109256267547607421875</LongitudeDegrees>
            </Position>
            <AltitudeMeters>699.79998779296875</AltitudeMeters>
            <DistanceMeters>NAN</DistanceMeters>
          </Trackpoint>
          <Trackpoint>
            <Time>2020-12-05T12:43:48.000Z</Time>
            <Position>
              <LatitudeDegrees>36.83297739364206790924072265625</LatitudeDegrees>
              <LongitudeDegrees>-4.37949319370090961456298828125</LongitudeDegrees>
            </Position>
            <AltitudeMeters>699.79998779296875</AltitudeMeters>
            <DistanceMeters>NAN</DistanceMeters>
          </Trackpoint>
          <Trackpoint>
            <Time>2020-12-05T12:43:49.000Z</Time>
            <Position>
              <LatitudeDegrees>36.8329714424908161163330078125</LatitudeDegrees>
              <LongitudeDegrees>-4.37949939630925655364990234375</LongitudeDegrees>
            </Position>
            <AltitudeMeters>699.79998779296875</AltitudeMeters>
            <DistanceMeters>NAN</DistanceMeters>
          </Trackpoint>
          <Trackpoint>
            <Time>2020-12-05T12:43:50.000Z</Time>
            <Position>
              <LatitudeDegrees>36.83296465314924716949462890625</LatitudeDegrees>
              <LongitudeDegrees>-4.379505850374698638916015625</LongitudeDegrees>
            </Position>
            <AltitudeMeters>699.79998779296875</AltitudeMeters>
            <DistanceMeters>NAN</DistanceMeters>
          </Trackpoint>
          <Trackpoint>
            <Time>2020-12-05T12:43:51.000Z</Time>
            <Position>
              <LatitudeDegrees>36.83295845054090023040771484375</LatitudeDegrees>
              <LongitudeDegrees>-4.37951280735433101654052734375</LongitudeDegrees>
            </Position>
            <AltitudeMeters>699.79998779296875</AltitudeMeters>
            <DistanceMeters>NAN</DistanceMeters>
          </Trackpoint>
          <Trackpoint>
            <Time>2020-12-05T12:43:52.000Z</Time>
            <Position>
              <LatitudeDegrees>36.83295258320868015289306640625</LatitudeDegrees>
              <LongitudeDegrees>-4.3795197643339633941650390625</LongitudeDegrees>
            </Position>
            <AltitudeMeters>699.79998779296875</AltitudeMeters>
            <DistanceMeters>NAN</DistanceMeters>
          </Trackpoint>
          <Trackpoint>
            <Time>2020-12-05T12:43:53.000Z</Time>
            <Position>
              <LatitudeDegrees>36.83294755406677722930908203125</LatitudeDegrees>
              <LongitudeDegrees>-4.3795261345803737640380859375</LongitudeDegrees>
            </Position>
            <AltitudeMeters>699.79998779296875</AltitudeMeters>
            <DistanceMeters>NAN</DistanceMeters>
          </Trackpoint>
          <Trackpoint>
            <Time>2020-12-05T12:43:54.000Z</Time>
            <Position>
              <LatitudeDegrees>36.83294235728681087493896484375</LatitudeDegrees>
              <LongitudeDegrees>-4.379532001912593841552734375</LongitudeDegrees>
            </Position>
            <AltitudeMeters>699.79998779296875</AltitudeMeters>
            <DistanceMeters>NAN</DistanceMeters>
          </Trackpoint>
          <Trackpoint>
            <Time>2020-12-05T12:43:55.000Z</Time>
            <Position>
              <LatitudeDegrees>36.8329362384974956512451171875</LatitudeDegrees>
              <LongitudeDegrees>-4.37953703105449676513671875</LongitudeDegrees>
            </Position>
            <AltitudeMeters>699.79998779296875</AltitudeMeters>
            <DistanceMeters>NAN</DistanceMeters>
          </Trackpoint>
          <Trackpoint>
            <Time>2020-12-05T12:43:56.000Z</Time>
            <Position>
              <LatitudeDegrees>36.83293112553656101226806640625</LatitudeDegrees>
              <LongitudeDegrees>-4.37954097054898738861083984375</LongitudeDegrees>
            </Position>
            <AltitudeMeters>699.79998779296875</AltitudeMeters>
            <DistanceMeters>NAN</DistanceMeters>
          </Trackpoint>
          <Trackpoint>
            <Time>2020-12-05T12:43:57.000Z</Time>
            <Position>
              <LatitudeDegrees>36.8329251743853092193603515625</LatitudeDegrees>
              <LongitudeDegrees>-4.379545412957668304443359375</LongitudeDegrees>
            </Position>
            <AltitudeMeters>699.79998779296875</AltitudeMeters>
            <DistanceMeters>NAN</DistanceMeters>
          </Trackpoint>
          <Trackpoint>
            <Time>2020-12-05T12:43:58.000Z</Time>
            <Position>
              <LatitudeDegrees>36.83291696012020111083984375</LatitudeDegrees>
              <LongitudeDegrees>-4.37954952009022235870361328125</LongitudeDegrees>
            </Position>
            <AltitudeMeters>699.79998779296875</AltitudeMeters>
            <DistanceMeters>NAN</DistanceMeters>
          </Trackpoint>
          <Trackpoint>
            <Time>2020-12-05T12:43:59.000Z</Time>
            <Position>
              <LatitudeDegrees>36.8329097516834735870361328125</LatitudeDegrees>
              <LongitudeDegrees>-4.379556477069854736328125</LongitudeDegrees>
            </Position>
            <AltitudeMeters>699.79998779296875</AltitudeMeters>
            <DistanceMeters>NAN</DistanceMeters>
          </Trackpoint>
          <Trackpoint>
            <Time>2020-12-05T12:44:00.000Z</Time>
            <Position>
              <LatitudeDegrees>36.83290028013288974761962890625</LatitudeDegrees>
              <LongitudeDegrees>-4.3795623444020748138427734375</LongitudeDegrees>
            </Position>
            <AltitudeMeters>702.20001220703125</AltitudeMeters>
            <DistanceMeters>NAN</DistanceMeters>
          </Trackpoint>
          <Trackpoint>
            <Time>2020-12-05T12:44:01.000Z</Time>
            <Position>
              <LatitudeDegrees>36.83289122767746448516845703125</LatitudeDegrees>
              <LongitudeDegrees>-4.37956653535366058349609375</LongitudeDegrees>
            </Position>
            <AltitudeMeters>702.20001220703125</AltitudeMeters>
            <DistanceMeters>NAN</DistanceMeters>
          </Trackpoint>
          <Trackpoint>
            <Time>2020-12-05T12:44:02.000Z</Time>
            <Position>
              <LatitudeDegrees>36.83288251049816608428955078125</LatitudeDegrees>
              <LongitudeDegrees>-4.37957064248621463775634765625</LongitudeDegrees>
            </Position>
            <AltitudeMeters>702.20001220703125</AltitudeMeters>
            <DistanceMeters>NAN</DistanceMeters>
          </Trackpoint>
          <Trackpoint>
            <Time>2020-12-05T12:44:03.000Z</Time>
            <Position>
              <LatitudeDegrees>36.8328742124140262603759765625</LatitudeDegrees>
              <LongitudeDegrees>-4.379574917256832122802734375</LongitudeDegrees>
            </Position>
            <AltitudeMeters>702.20001220703125</AltitudeMeters>
            <DistanceMeters>NAN</DistanceMeters>
          </Trackpoint>
          <Trackpoint>
            <Time>2020-12-05T12:44:04.000Z</Time>
            <Position>
              <LatitudeDegrees>36.8328634835779666900634765625</LatitudeDegrees>
              <LongitudeDegrees>-4.37957349233329296112060546875</LongitudeDegrees>
            </Position>
            <AltitudeMeters>702.20001220703125</AltitudeMeters>
            <DistanceMeters>NAN</DistanceMeters>
          </Trackpoint>
          <Trackpoint>
            <Time>2020-12-05T12:44:05.000Z</Time>
            <Position>
              <LatitudeDegrees>36.832854263484477996826171875</LatitudeDegrees>
              <LongitudeDegrees>-4.3795821256935596466064453125</LongitudeDegrees>
            </Position>
            <AltitudeMeters>702.20001220703125</AltitudeMeters>
            <DistanceMeters>NAN</DistanceMeters>
          </Trackpoint>
          <Trackpoint>
            <Time>2020-12-05T12:44:06.000Z</Time>
            <Position>
              <LatitudeDegrees>36.83284864760935306549072265625</LatitudeDegrees>
              <LongitudeDegrees>-4.3795921839773654937744140625</LongitudeDegrees>
            </Position>
            <AltitudeMeters>702.20001220703125</AltitudeMeters>
            <DistanceMeters>NAN</DistanceMeters>
          </Trackpoint>
          <Trackpoint>
            <Time>2020-12-05T12:44:07.000Z</Time>
            <Position>
              <LatitudeDegrees>36.83284462429583072662353515625</LatitudeDegrees>
              <LongitudeDegrees>-4.37960232608020305633544921875</LongitudeDegrees>
            </Position>
            <AltitudeMeters>702.20001220703125</AltitudeMeters>
            <DistanceMeters>NAN</DistanceMeters>
          </Trackpoint>
          <Trackpoint>
            <Time>2020-12-05T12:44:08.000Z</Time>
            <Position>
              <LatitudeDegrees>36.83283858932554721832275390625</LatitudeDegrees>
              <LongitudeDegrees>-4.37961590476334095001220703125</LongitudeDegrees>
            </Position>
            <AltitudeMeters>702.20001220703125</AltitudeMeters>
            <DistanceMeters>NAN</DistanceMeters>
          </Trackpoint>
          <Trackpoint>
            <Time>2020-12-05T12:44:09.000Z</Time>
            <Position>
              <LatitudeDegrees>36.8328373320400714874267578125</LatitudeDegrees>
              <LongitudeDegrees>-4.379631914198398590087890625</LongitudeDegrees>
            </Position>
            <AltitudeMeters>702.20001220703125</AltitudeMeters>
            <DistanceMeters>NAN</DistanceMeters>
          </Trackpoint>
          <Trackpoint>
            <Time>2020-12-05T12:44:10.000Z</Time>
            <Position>
              <LatitudeDegrees>36.83283104561269283294677734375</LatitudeDegrees>
              <LongitudeDegrees>-4.3796491809189319610595703125</LongitudeDegrees>
            </Position>
            <AltitudeMeters>702.20001220703125</AltitudeMeters>
            <DistanceMeters>NAN</DistanceMeters>
          </Trackpoint>
          <Trackpoint>
            <Time>2020-12-05T12:44:11.000Z</Time>
            <Position>
              <LatitudeDegrees>36.83282182551920413970947265625</LatitudeDegrees>
              <LongitudeDegrees>-4.37967407517135143280029296875</LongitudeDegrees>
            </Position>
            <AltitudeMeters>702.20001220703125</AltitudeMeters>
            <DistanceMeters>NAN</DistanceMeters>
          </Trackpoint>
          <Trackpoint>
            <Time>2020-12-05T12:44:12.000Z</Time>
            <Position>
              <LatitudeDegrees>36.832811348140239715576171875</LatitudeDegrees>
              <LongitudeDegrees>-4.379694275557994842529296875</LongitudeDegrees>
            </Position>
            <AltitudeMeters>702.20001220703125</AltitudeMeters>
            <DistanceMeters>NAN</DistanceMeters>
          </Trackpoint>
          <Trackpoint>
            <Time>2020-12-05T12:44:13.000Z</Time>
            <Position>
              <LatitudeDegrees>36.83280766010284423828125</LatitudeDegrees>
              <LongitudeDegrees>-4.3797125481069087982177734375</LongitudeDegrees>
            </Position>
            <AltitudeMeters>702.20001220703125</AltitudeMeters>
            <DistanceMeters>NAN</DistanceMeters>
          </Trackpoint>
          <Trackpoint>
            <Time>2020-12-05T12:44:14.000Z</Time>
            <Position>
              <LatitudeDegrees>36.83280036784708499908447265625</LatitudeDegrees>
              <LongitudeDegrees>-4.37972880899906158447265625</LongitudeDegrees>
            </Position>
            <AltitudeMeters>702.20001220703125</AltitudeMeters>
            <DistanceMeters>NAN</DistanceMeters>
          </Trackpoint>
          <Trackpoint>
            <Time>2020-12-05T12:44:15.000Z</Time>
            <Position>
              <LatitudeDegrees>36.8327954225242137908935546875</LatitudeDegrees>
              <LongitudeDegrees>-4.3797440640628337860107421875</LongitudeDegrees>
            </Position>
            <AltitudeMeters>702.20001220703125</AltitudeMeters>
            <DistanceMeters>NAN</DistanceMeters>
          </Trackpoint>
          <Trackpoint>
            <Time>2020-12-05T12:44:16.000Z</Time>
            <Position>
              <LatitudeDegrees>36.8327915668487548828125</LatitudeDegrees>
              <LongitudeDegrees>-4.3797536194324493408203125</LongitudeDegrees>
            </Position>
            <AltitudeMeters>702.20001220703125</AltitudeMeters>
            <DistanceMeters>NAN</DistanceMeters>
          </Trackpoint>
          <Trackpoint>
            <Time>2020-12-05T12:44:17.000Z</Time>
            <Position>
              <LatitudeDegrees>36.83278695680201053619384765625</LatitudeDegrees>
              <LongitudeDegrees>-4.37976594083011150360107421875</LongitudeDegrees>
            </Position>
            <AltitudeMeters>702.20001220703125</AltitudeMeters>
            <DistanceMeters>NAN</DistanceMeters>
          </Trackpoint>
          <Trackpoint>
            <Time>2020-12-05T12:44:18.000Z</Time>
            <Position>
              <LatitudeDegrees>36.8327806703746318817138671875</LatitudeDegrees>
              <LongitudeDegrees>-4.37977633439004421234130859375</LongitudeDegrees>
            </Position>
            <AltitudeMeters>702.20001220703125</AltitudeMeters>
            <DistanceMeters>NAN</DistanceMeters>
          </Trackpoint>
          <Trackpoint>
            <Time>2020-12-05T12:44:19.000Z</Time>
            <Position>
              <LatitudeDegrees>36.83277614414691925048828125</LatitudeDegrees>
              <LongitudeDegrees>-4.37978404574096202850341796875</LongitudeDegrees>
            </Position>
            <AltitudeMeters>702.20001220703125</AltitudeMeters>
            <DistanceMeters>NAN</DistanceMeters>
          </Trackpoint>
          <Trackpoint>
            <Time>2020-12-05T12:44:20.000Z</Time>
            <Position>
              <LatitudeDegrees>36.83277153410017490386962890625</LatitudeDegrees>
              <LongitudeDegrees>-4.37979049980640411376953125</LongitudeDegrees>
            </Position>
            <AltitudeMeters>702.20001220703125</AltitudeMeters>
            <DistanceMeters>NAN</DistanceMeters>
          </Trackpoint>
          <Trackpoint>
            <Time>2020-12-05T12:44:21.000Z</Time>
            <Position>
              <LatitudeDegrees>36.83276700787246227264404296875</LatitudeDegrees>
              <LongitudeDegrees>-4.3797946907579898834228515625</LongitudeDegrees>
            </Position>
            <AltitudeMeters>702.20001220703125</AltitudeMeters>
            <DistanceMeters>NAN</DistanceMeters>
          </Trackpoint>
          <Trackpoint>
            <Time>2020-12-05T12:44:22.000Z</Time>
            <Position>
              <LatitudeDegrees>36.832762062549591064453125</LatitudeDegrees>
              <LongitudeDegrees>-4.37979594804346561431884765625</LongitudeDegrees>
            </Position>
            <AltitudeMeters>702.20001220703125</AltitudeMeters>
            <DistanceMeters>NAN</DistanceMeters>
          </Trackpoint>
          <Trackpoint>
            <Time>2020-12-05T12:44:23.000Z</Time>
            <Position>
              <LatitudeDegrees>36.83275845833122730255126953125</LatitudeDegrees>
              <LongitudeDegrees>-4.3797983787953853607177734375</LongitudeDegrees>
            </Position>
            <AltitudeMeters>702.20001220703125</AltitudeMeters>
            <DistanceMeters>NAN</DistanceMeters>
          </Trackpoint>
          <Trackpoint>
            <Time>2020-12-05T12:44:24.000Z</Time>
            <Position>
              <LatitudeDegrees>36.83275527320802211761474609375</LatitudeDegrees>
              <LongitudeDegrees>-4.37980114482343196868896484375</LongitudeDegrees>
            </Position>
            <AltitudeMeters>702.20001220703125</AltitudeMeters>
            <DistanceMeters>NAN</DistanceMeters>
          </Trackpoint>
          <Trackpoint>
            <Time>2020-12-05T12:44:25.000Z</Time>
            <Position>
              <LatitudeDegrees>36.83275225572288036346435546875</LatitudeDegrees>
              <LongitudeDegrees>-4.3798037432134151458740234375</LongitudeDegrees>
            </Position>
            <AltitudeMeters>702.20001220703125</AltitudeMeters>
            <DistanceMeters>NAN</DistanceMeters>
          </Trackpoint>
          <Trackpoint>
            <Time>2020-12-05T12:44:26.000Z</Time>
            <Position>
              <LatitudeDegrees>36.83274873532354831695556640625</LatitudeDegrees>
              <LongitudeDegrees>-4.37980164773762226104736328125</LongitudeDegrees>
            </Position>
            <AltitudeMeters>702.20001220703125</AltitudeMeters>
            <DistanceMeters>NAN</DistanceMeters>
          </Trackpoint>
          <Trackpoint>
            <Time>2020-12-05T12:44:27.000Z</Time>
            <Position>
              <LatitudeDegrees>36.832745969295501708984375</LatitudeDegrees>
              <LongitudeDegrees>-4.37979854643344879150390625</LongitudeDegrees>
            </Position>
            <AltitudeMeters>702.20001220703125</AltitudeMeters>
            <DistanceMeters>NAN</DistanceMeters>
          </Trackpoint>
          <Trackpoint>
            <Time>2020-12-05T12:44:28.000Z</Time>
            <Position>
              <LatitudeDegrees>36.8327444605529308319091796875</LatitudeDegrees>
              <LongitudeDegrees>-4.37979728914797306060791015625</LongitudeDegrees>
            </Position>
            <AltitudeMeters>702.20001220703125</AltitudeMeters>
            <DistanceMeters>NAN</DistanceMeters>
          </Trackpoint>
          <Trackpoint>
            <Time>2020-12-05T12:44:29.000Z</Time>
            <Position>
              <LatitudeDegrees>36.83274420909583568572998046875</LatitudeDegrees>
              <LongitudeDegrees>-4.37979527749121189117431640625</LongitudeDegrees>
            </Position>
            <AltitudeMeters>702.20001220703125</AltitudeMeters>
            <DistanceMeters>NAN</DistanceMeters>
          </Trackpoint>
          <Trackpoint>
            <Time>2020-12-05T12:44:30.000Z</Time>
            <Position>
              <LatitudeDegrees>36.83274638839066028594970703125</LatitudeDegrees>
              <LongitudeDegrees>-4.379794858396053314208984375</LongitudeDegrees>
            </Position>
            <AltitudeMeters>702.20001220703125</AltitudeMeters>
            <DistanceMeters>NAN</DistanceMeters>
          </Trackpoint>
          <Trackpoint>
            <Time>2020-12-05T12:44:31.000Z</Time>
            <Position>
              <LatitudeDegrees>36.83274772949516773223876953125</LatitudeDegrees>
              <LongitudeDegrees>-4.3797943554818630218505859375</LongitudeDegrees>
            </Position>
            <AltitudeMeters>702.20001220703125</AltitudeMeters>
            <DistanceMeters>NAN</DistanceMeters>
          </Trackpoint>
          <Trackpoint>
            <Time>2020-12-05T12:44:32.000Z</Time>
            <Position>
              <LatitudeDegrees>36.83274705894291400909423828125</LatitudeDegrees>
              <LongitudeDegrees>-4.37979293055832386016845703125</LongitudeDegrees>
            </Position>
            <AltitudeMeters>702.20001220703125</AltitudeMeters>
            <DistanceMeters>NAN</DistanceMeters>
          </Trackpoint>
          <Trackpoint>
            <Time>2020-12-05T12:44:33.000Z</Time>
            <Position>
              <LatitudeDegrees>36.832743622362613677978515625</LatitudeDegrees>
              <LongitudeDegrees>-4.379794187843799591064453125</LongitudeDegrees>
            </Position>
            <AltitudeMeters>702.20001220703125</AltitudeMeters>
            <DistanceMeters>NAN</DistanceMeters>
          </Trackpoint>
          <Trackpoint>
            <Time>2020-12-05T12:44:34.000Z</Time>
            <Position>
              <LatitudeDegrees>36.8327354080975055694580078125</LatitudeDegrees>
              <LongitudeDegrees>-4.37979829497635364532470703125</LongitudeDegrees>
            </Position>
            <AltitudeMeters>702.20001220703125</AltitudeMeters>
            <DistanceMeters>NAN</DistanceMeters>
          </Trackpoint>
          <Trackpoint>
            <Time>2020-12-05T12:44:35.000Z</Time>
            <Position>
              <LatitudeDegrees>36.832726858556270599365234375</LatitudeDegrees>
              <LongitudeDegrees>-4.3798070959746837615966796875</LongitudeDegrees>
            </Position>
            <AltitudeMeters>702.20001220703125</AltitudeMeters>
            <DistanceMeters>NAN</DistanceMeters>
          </Trackpoint>
          <Trackpoint>
            <Time>2020-12-05T12:44:36.000Z</Time>
            <Position>
              <LatitudeDegrees>36.83271772228181362152099609375</LatitudeDegrees>
              <LongitudeDegrees>-4.37981874682009220123291015625</LongitudeDegrees>
            </Position>
            <AltitudeMeters>702.20001220703125</AltitudeMeters>
            <DistanceMeters>NAN</DistanceMeters>
          </Trackpoint>
          <Trackpoint>
            <Time>2020-12-05T12:44:37.000Z</Time>
            <Position>
              <LatitudeDegrees>36.83270498178899288177490234375</LatitudeDegrees>
              <LongitudeDegrees>-4.3798295594751834869384765625</LongitudeDegrees>
            </Position>
            <AltitudeMeters>702.20001220703125</AltitudeMeters>
            <DistanceMeters>NAN</DistanceMeters>
          </Trackpoint>
          <Trackpoint>
            <Time>2020-12-05T12:44:38.000Z</Time>
            <Position>
              <LatitudeDegrees>36.8326894752681255340576171875</LatitudeDegrees>
              <LongitudeDegrees>-4.37984338961541652679443359375</LongitudeDegrees>
            </Position>
            <AltitudeMeters>702.20001220703125</AltitudeMeters>
            <DistanceMeters>NAN</DistanceMeters>
          </Trackpoint>
          <Trackpoint>
            <Time>2020-12-05T12:44:39.000Z</Time>
            <Position>
              <LatitudeDegrees>36.83267698623239994049072265625</LatitudeDegrees>
              <LongitudeDegrees>-4.37985680066049098968505859375</LongitudeDegrees>
            </Position>
            <AltitudeMeters>702.20001220703125</AltitudeMeters>
            <DistanceMeters>NAN</DistanceMeters>
          </Trackpoint>
          <Trackpoint>
            <Time>2020-12-05T12:44:40.000Z</Time>
            <Position>
              <LatitudeDegrees>36.83266340754926204681396484375</LatitudeDegrees>
              <LongitudeDegrees>-4.37986652366816997528076171875</LongitudeDegrees>
            </Position>
            <AltitudeMeters>702.20001220703125</AltitudeMeters>
            <DistanceMeters>NAN</DistanceMeters>
          </Trackpoint>
          <Trackpoint>
            <Time>2020-12-05T12:44:41.000Z</Time>
            <Position>
              <LatitudeDegrees>36.83264932595193386077880859375</LatitudeDegrees>
              <LongitudeDegrees>-4.37987742014229297637939453125</LongitudeDegrees>
            </Position>
            <AltitudeMeters>702.20001220703125</AltitudeMeters>
            <DistanceMeters>NAN</DistanceMeters>
          </Trackpoint>
          <Trackpoint>
            <Time>2020-12-05T12:44:42.000Z</Time>
            <Position>
              <LatitudeDegrees>36.832638680934906005859375</LatitudeDegrees>
              <LongitudeDegrees>-4.37989183701574802398681640625</LongitudeDegrees>
            </Position>
            <AltitudeMeters>702.20001220703125</AltitudeMeters>
            <DistanceMeters>NAN</DistanceMeters>
          </Trackpoint>
          <Trackpoint>
            <Time>2020-12-05T12:44:43.000Z</Time>
            <Position>
              <LatitudeDegrees>36.832626275718212127685546875</LatitudeDegrees>
              <LongitudeDegrees>-4.379910528659820556640625</LongitudeDegrees>
            </Position>
            <AltitudeMeters>702.20001220703125</AltitudeMeters>
            <DistanceMeters>NAN</DistanceMeters>
          </Trackpoint>
          <Trackpoint>
            <Time>2020-12-05T12:44:44.000Z</Time>
            <Position>
              <LatitudeDegrees>36.83261244557797908782958984375</LatitudeDegrees>
              <LongitudeDegrees>-4.37993441708385944366455078125</LongitudeDegrees>
            </Position>
            <AltitudeMeters>702.20001220703125</AltitudeMeters>
            <DistanceMeters>NAN</DistanceMeters>
          </Trackpoint>
          <Trackpoint>
            <Time>2020-12-05T12:44:45.000Z</Time>
            <Position>
              <LatitudeDegrees>36.83259786106646060943603515625</LatitudeDegrees>
              <LongitudeDegrees>-4.3799655139446258544921875</LongitudeDegrees>
            </Position>
            <AltitudeMeters>702.20001220703125</AltitudeMeters>
            <DistanceMeters>NAN</DistanceMeters>
          </Trackpoint>
          <Trackpoint>
            <Time>2020-12-05T12:44:46.000Z</Time>
            <Position>
              <LatitudeDegrees>36.8325831927359104156494140625</LatitudeDegrees>
              <LongitudeDegrees>-4.38000046648085117340087890625</LongitudeDegrees>
            </Position>
            <AltitudeMeters>702.20001220703125</AltitudeMeters>
            <DistanceMeters>NAN</DistanceMeters>
          </Trackpoint>
          <Trackpoint>
            <Time>2020-12-05T12:44:47.000Z</Time>
            <Position>
              <LatitudeDegrees>36.83257522992789745330810546875</LatitudeDegrees>
              <LongitudeDegrees>-4.3800334073603153228759765625</LongitudeDegrees>
            </Position>
            <AltitudeMeters>702.20001220703125</AltitudeMeters>
            <DistanceMeters>NAN</DistanceMeters>
          </Trackpoint>
          <Trackpoint>
            <Time>2020-12-05T12:44:48.000Z</Time>
            <Position>
              <LatitudeDegrees>36.8325676023960113525390625</LatitudeDegrees>
              <LongitudeDegrees>-4.380063749849796295166015625</LongitudeDegrees>
            </Position>
            <AltitudeMeters>702.20001220703125</AltitudeMeters>
            <DistanceMeters>NAN</DistanceMeters>
          </Trackpoint>
          <Trackpoint>
            <Time>2020-12-05T12:44:49.000Z</Time>
            <Position>
              <LatitudeDegrees>36.83255980722606182098388671875</LatitudeDegrees>
              <LongitudeDegrees>-4.3800883926451206207275390625</LongitudeDegrees>
            </Position>
            <AltitudeMeters>702.20001220703125</AltitudeMeters>
            <DistanceMeters>NAN</DistanceMeters>
          </Trackpoint>
          <Trackpoint>
            <Time>2020-12-05T12:44:50.000Z</Time>
            <Position>
              <LatitudeDegrees>36.832552514970302581787109375</LatitudeDegrees>
              <LongitudeDegrees>-4.380112700164318084716796875</LongitudeDegrees>
            </Position>
            <AltitudeMeters>702.20001220703125</AltitudeMeters>
            <DistanceMeters>NAN</DistanceMeters>
          </Trackpoint>
          <Trackpoint>
            <Time>2020-12-05T12:44:51.000Z</Time>
            <Position>
              <LatitudeDegrees>36.83254287578165531158447265625</LatitudeDegrees>
              <LongitudeDegrees>-4.3801366724073886871337890625</LongitudeDegrees>
            </Position>
            <AltitudeMeters>702.20001220703125</AltitudeMeters>
            <DistanceMeters>NAN</DistanceMeters>
          </Trackpoint>
          <Trackpoint>
            <Time>2020-12-05T12:44:52.000Z</Time>
            <Position>
              <LatitudeDegrees>36.8325335718691349029541015625</LatitudeDegrees>
              <LongitudeDegrees>-4.3801624886691570281982421875</LongitudeDegrees>
            </Position>
            <AltitudeMeters>702.20001220703125</AltitudeMeters>
            <DistanceMeters>NAN</DistanceMeters>
          </Trackpoint>
          <Trackpoint>
            <Time>2020-12-05T12:44:53.000Z</Time>
            <Position>
              <LatitudeDegrees>36.8325241841375827789306640625</LatitudeDegrees>
              <LongitudeDegrees>-4.38018922694027423858642578125</LongitudeDegrees>
            </Position>
            <AltitudeMeters>702.20001220703125</AltitudeMeters>
            <DistanceMeters>NAN</DistanceMeters>
          </Trackpoint>
          <Trackpoint>
            <Time>2020-12-05T12:44:54.000Z</Time>
            <Position>
              <LatitudeDegrees>36.83251454494893550872802734375</LatitudeDegrees>
              <LongitudeDegrees>-4.380218647420406341552734375</LongitudeDegrees>
            </Position>
            <AltitudeMeters>702.20001220703125</AltitudeMeters>
            <DistanceMeters>NAN</DistanceMeters>
          </Trackpoint>
          <Trackpoint>
            <Time>2020-12-05T12:44:55.000Z</Time>
            <Position>
              <LatitudeDegrees>36.83250515721738338470458984375</LatitudeDegrees>
              <LongitudeDegrees>-4.38024203293025493621826171875</LongitudeDegrees>
            </Position>
            <AltitudeMeters>702.20001220703125</AltitudeMeters>
            <DistanceMeters>NAN</DistanceMeters>
          </Trackpoint>
          <Trackpoint>
            <Time>2020-12-05T12:44:56.000Z</Time>
            <Position>
              <LatitudeDegrees>36.8325005471706390380859375</LatitudeDegrees>
              <LongitudeDegrees>-4.38026282005012035369873046875</LongitudeDegrees>
            </Position>
            <AltitudeMeters>702.20001220703125</AltitudeMeters>
            <DistanceMeters>NAN</DistanceMeters>
          </Trackpoint>
          <Trackpoint>
            <Time>2020-12-05T12:44:57.000Z</Time>
            <Position>
              <LatitudeDegrees>36.8324963562190532684326171875</LatitudeDegrees>
              <LongitudeDegrees>-4.3802805058658123016357421875</LongitudeDegrees>
            </Position>
            <AltitudeMeters>702.20001220703125</AltitudeMeters>
            <DistanceMeters>NAN</DistanceMeters>
          </Trackpoint>
          <Trackpoint>
            <Time>2020-12-05T12:44:58.000Z</Time>
            <Position>
              <LatitudeDegrees>36.8324940092861652374267578125</LatitudeDegrees>
              <LongitudeDegrees>-4.38029567711055278778076171875</LongitudeDegrees>
            </Position>
            <AltitudeMeters>702.20001220703125</AltitudeMeters>
            <DistanceMeters>NAN</DistanceMeters>
          </Trackpoint>
          <Trackpoint>
            <Time>2020-12-05T12:44:59.000Z</Time>
            <Position>
              <LatitudeDegrees>36.832492165267467498779296875</LatitudeDegrees>
              <LongitudeDegrees>-4.3803059868514537811279296875</LongitudeDegrees>
            </Position>
            <AltitudeMeters>702.20001220703125</AltitudeMeters>
            <DistanceMeters>NAN</DistanceMeters>
          </Trackpoint>
          <Trackpoint>
            <Time>2020-12-05T12:45:00.000Z</Time>
            <Position>
              <LatitudeDegrees>36.8324879743158817291259765625</LatitudeDegrees>
              <LongitudeDegrees>-4.38031093217432498931884765625</LongitudeDegrees>
            </Position>
            <AltitudeMeters>699.79998779296875</AltitudeMeters>
            <DistanceMeters>NAN</DistanceMeters>
          </Trackpoint>
          <Trackpoint>
            <Time>2020-12-05T12:45:01.000Z</Time>
            <Position>
              <LatitudeDegrees>36.83248504064977169036865234375</LatitudeDegrees>
              <LongitudeDegrees>-4.3803177215158939361572265625</LongitudeDegrees>
            </Position>
            <AltitudeMeters>699.79998779296875</AltitudeMeters>
            <DistanceMeters>NAN</DistanceMeters>
          </Trackpoint>
          <Trackpoint>
            <Time>2020-12-05T12:45:02.000Z</Time>
            <Position>
              <LatitudeDegrees>36.8324789218604564666748046875</LatitudeDegrees>
              <LongitudeDegrees>-4.3803244270384311676025390625</LongitudeDegrees>
            </Position>
            <AltitudeMeters>699.79998779296875</AltitudeMeters>
            <DistanceMeters>NAN</DistanceMeters>
          </Trackpoint>
          <Trackpoint>
            <Time>2020-12-05T12:45:03.000Z</Time>
            <Position>
              <LatitudeDegrees>36.8324775807559490203857421875</LatitudeDegrees>
              <LongitudeDegrees>-4.38033423386514186859130859375</LongitudeDegrees>
            </Position>
            <AltitudeMeters>699.79998779296875</AltitudeMeters>
            <DistanceMeters>NAN</DistanceMeters>
          </Trackpoint>
          <Trackpoint>
            <Time>2020-12-05T12:45:04.000Z</Time>
            <Position>
              <LatitudeDegrees>36.832475401461124420166015625</LatitudeDegrees>
              <LongitudeDegrees>-4.38034705817699432373046875</LongitudeDegrees>
            </Position>
            <AltitudeMeters>699.79998779296875</AltitudeMeters>
            <DistanceMeters>NAN</DistanceMeters>
          </Trackpoint>
          <Trackpoint>
            <Time>2020-12-05T12:45:05.000Z</Time>
            <Position>
              <LatitudeDegrees>36.832470037043094635009765625</LatitudeDegrees>
              <LongitudeDegrees>-4.380358122289180755615234375</LongitudeDegrees>
            </Position>
            <AltitudeMeters>699.79998779296875</AltitudeMeters>
            <DistanceMeters>NAN</DistanceMeters>
          </Trackpoint>
          <Trackpoint>
            <Time>2020-12-05T12:45:06.000Z</Time>
            <Position>
              <LatitudeDegrees>36.83246106840670108795166015625</LatitudeDegrees>
              <LongitudeDegrees>-4.3803727068006992340087890625</LongitudeDegrees>
            </Position>
            <AltitudeMeters>699.79998779296875</AltitudeMeters>
            <DistanceMeters>NAN</DistanceMeters>
          </Trackpoint>
          <Trackpoint>
            <Time>2020-12-05T12:45:07.000Z</Time>
            <Position>
              <LatitudeDegrees>36.83245117776095867156982421875</LatitudeDegrees>
              <LongitudeDegrees>-4.3803908117115497589111328125</LongitudeDegrees>
            </Position>
            <AltitudeMeters>699.79998779296875</AltitudeMeters>
            <DistanceMeters>NAN</DistanceMeters>
          </Trackpoint>
          <Trackpoint>
            <Time>2020-12-05T12:45:08.000Z</Time>
            <Position>
              <LatitudeDegrees>36.8324423767626285552978515625</LatitudeDegrees>
              <LongitudeDegrees>-4.38040732406079769134521484375</LongitudeDegrees>
            </Position>
            <AltitudeMeters>699.79998779296875</AltitudeMeters>
            <DistanceMeters>NAN</DistanceMeters>
          </Trackpoint>
          <Trackpoint>
            <Time>2020-12-05T12:45:09.000Z</Time>
            <Position>
              <LatitudeDegrees>36.8324339948594570159912109375</LatitudeDegrees>
              <LongitudeDegrees>-4.3804216571152210235595703125</LongitudeDegrees>
            </Position>
            <AltitudeMeters>699.79998779296875</AltitudeMeters>
            <DistanceMeters>NAN</DistanceMeters>
          </Trackpoint>
          <Trackpoint>
            <Time>2020-12-05T12:45:10.000Z</Time>
            <Position>
              <LatitudeDegrees>36.8324267864227294921875</LatitudeDegrees>
              <LongitudeDegrees>-4.38043347559869289398193359375</LongitudeDegrees>
            </Position>
            <AltitudeMeters>699.79998779296875</AltitudeMeters>
            <DistanceMeters>NAN</DistanceMeters>
          </Trackpoint>
          <Trackpoint>
            <Time>2020-12-05T12:45:11.000Z</Time>
            <Position>
              <LatitudeDegrees>36.8324148841202259063720703125</LatitudeDegrees>
              <LongitudeDegrees>-4.3804474733769893646240234375</LongitudeDegrees>
            </Position>
            <AltitudeMeters>699.79998779296875</AltitudeMeters>
            <DistanceMeters>NAN</DistanceMeters>
          </Trackpoint>
          <Trackpoint>
            <Time>2020-12-05T12:45:12.000Z</Time>
            <Position>
              <LatitudeDegrees>36.83240273036062717437744140625</LatitudeDegrees>
              <LongitudeDegrees>-4.38045778311789035797119140625</LongitudeDegrees>
            </Position>
            <AltitudeMeters>699.79998779296875</AltitudeMeters>
            <DistanceMeters>NAN</DistanceMeters>
          </Trackpoint>
          <Trackpoint>
            <Time>2020-12-05T12:45:13.000Z</Time>
            <Position>
              <LatitudeDegrees>36.83238596655428409576416015625</LatitudeDegrees>
              <LongitudeDegrees>-4.3804662488400936126708984375</LongitudeDegrees>
            </Position>
            <AltitudeMeters>699.79998779296875</AltitudeMeters>
            <DistanceMeters>NAN</DistanceMeters>
          </Trackpoint>
          <Trackpoint>
            <Time>2020-12-05T12:45:14.000Z</Time>
            <Position>
              <LatitudeDegrees>36.8323699571192264556884765625</LatitudeDegrees>
              <LongitudeDegrees>-4.38047555275261402130126953125</LongitudeDegrees>
            </Position>
            <AltitudeMeters>699.79998779296875</AltitudeMeters>
            <DistanceMeters>NAN</DistanceMeters>
          </Trackpoint>
          <Trackpoint>
            <Time>2020-12-05T12:45:15.000Z</Time>
            <Position>
              <LatitudeDegrees>36.83235763572156429290771484375</LatitudeDegrees>
              <LongitudeDegrees>-4.3804858624935150146484375</LongitudeDegrees>
            </Position>
            <AltitudeMeters>699.79998779296875</AltitudeMeters>
            <DistanceMeters>NAN</DistanceMeters>
          </Trackpoint>
          <Trackpoint>
            <Time>2020-12-05T12:45:16.000Z</Time>
            <Position>
              <LatitudeDegrees>36.8323417939245700836181640625</LatitudeDegrees>
              <LongitudeDegrees>-4.3804964236915111541748046875</LongitudeDegrees>
            </Position>
            <AltitudeMeters>699.79998779296875</AltitudeMeters>
            <DistanceMeters>NAN</DistanceMeters>
          </Trackpoint>
          <Trackpoint>
            <Time>2020-12-05T12:45:17.000Z</Time>
            <Position>
              <LatitudeDegrees>36.83233047835528850555419921875</LatitudeDegrees>
              <LongitudeDegrees>-4.380508996546268463134765625</LongitudeDegrees>
            </Position>
            <AltitudeMeters>699.79998779296875</AltitudeMeters>
            <DistanceMeters>NAN</DistanceMeters>
          </Trackpoint>
          <Trackpoint>
            <Time>2020-12-05T12:45:18.000Z</Time>
            <Position>
              <LatitudeDegrees>36.8323181569576263427734375</LatitudeDegrees>
              <LongitudeDegrees>-4.38052316196262836456298828125</LongitudeDegrees>
            </Position>
            <AltitudeMeters>699.79998779296875</AltitudeMeters>
            <DistanceMeters>NAN</DistanceMeters>
          </Trackpoint>
          <Trackpoint>
            <Time>2020-12-05T12:45:19.000Z</Time>
            <Position>
              <LatitudeDegrees>36.8323075957596302032470703125</LatitudeDegrees>
              <LongitudeDegrees>-4.3805329687893390655517578125</LongitudeDegrees>
            </Position>
            <AltitudeMeters>699.79998779296875</AltitudeMeters>
            <DistanceMeters>NAN</DistanceMeters>
          </Trackpoint>
          <Trackpoint>
            <Time>2020-12-05T12:45:20.000Z</Time>
            <Position>
              <LatitudeDegrees>36.83229728601872920989990234375</LatitudeDegrees>
              <LongitudeDegrees>-4.380541183054447174072265625</LongitudeDegrees>
            </Position>
            <AltitudeMeters>699.79998779296875</AltitudeMeters>
            <DistanceMeters>NAN</DistanceMeters>
          </Trackpoint>
          <Trackpoint>
            <Time>2020-12-05T12:45:21.000Z</Time>
            <Position>
              <LatitudeDegrees>36.8322886526584625244140625</LatitudeDegrees>
              <LongitudeDegrees>-4.38055199570953845977783203125</LongitudeDegrees>
            </Position>
            <AltitudeMeters>699.79998779296875</AltitudeMeters>
            <DistanceMeters>NAN</DistanceMeters>
          </Trackpoint>
          <Trackpoint>
            <Time>2020-12-05T12:45:22.000Z</Time>
            <Position>
              <LatitudeDegrees>36.8322806060314178466796875</LatitudeDegrees>
              <LongitudeDegrees>-4.3805584497749805450439453125</LongitudeDegrees>
            </Position>
            <AltitudeMeters>699.79998779296875</AltitudeMeters>
            <DistanceMeters>NAN</DistanceMeters>
          </Trackpoint>
          <Trackpoint>
            <Time>2020-12-05T12:45:23.000Z</Time>
            <Position>
              <LatitudeDegrees>36.83227054774761199951171875</LatitudeDegrees>
              <LongitudeDegrees>-4.38056456856429576873779296875</LongitudeDegrees>
            </Position>
            <AltitudeMeters>699.79998779296875</AltitudeMeters>
            <DistanceMeters>NAN</DistanceMeters>
          </Trackpoint>
          <Trackpoint>
            <Time>2020-12-05T12:45:24.000Z</Time>
            <Position>
              <LatitudeDegrees>36.832260154187679290771484375</LatitudeDegrees>
              <LongitudeDegrees>-4.38057278282940387725830078125</LongitudeDegrees>
            </Position>
            <AltitudeMeters>699.79998779296875</AltitudeMeters>
            <DistanceMeters>NAN</DistanceMeters>
          </Trackpoint>
          <Trackpoint>
            <Time>2020-12-05T12:45:25.000Z</Time>
            <Position>
              <LatitudeDegrees>36.8322489224374294281005859375</LatitudeDegrees>
              <LongitudeDegrees>-4.38058309257030487060546875</LongitudeDegrees>
            </Position>
            <AltitudeMeters>699.79998779296875</AltitudeMeters>
            <DistanceMeters>NAN</DistanceMeters>
          </Trackpoint>
          <Trackpoint>
            <Time>2020-12-05T12:45:26.000Z</Time>
            <Position>
              <LatitudeDegrees>36.8322405405342578887939453125</LatitudeDegrees>
              <LongitudeDegrees>-4.380585439503192901611328125</LongitudeDegrees>
            </Position>
            <AltitudeMeters>699.79998779296875</AltitudeMeters>
            <DistanceMeters>NAN</DistanceMeters>
          </Trackpoint>
          <Trackpoint>
            <Time>2020-12-05T12:45:27.000Z</Time>
            <Position>
              <LatitudeDegrees>36.83223702013492584228515625</LatitudeDegrees>
              <LongitudeDegrees>-4.3805944919586181640625</LongitudeDegrees>
            </Position>
            <AltitudeMeters>699.79998779296875</AltitudeMeters>
            <DistanceMeters>NAN</DistanceMeters>
          </Trackpoint>
          <Trackpoint>
            <Time>2020-12-05T12:45:28.000Z</Time>
            <Position>
              <LatitudeDegrees>36.83223140425980091094970703125</LatitudeDegrees>
              <LongitudeDegrees>-4.38060815446078777313232421875</LongitudeDegrees>
            </Position>
            <AltitudeMeters>699.79998779296875</AltitudeMeters>
            <DistanceMeters>NAN</DistanceMeters>
          </Trackpoint>
          <Trackpoint>
            <Time>2020-12-05T12:45:29.000Z</Time>
            <Position>
              <LatitudeDegrees>36.8322184123098850250244140625</LatitudeDegrees>
              <LongitudeDegrees>-4.38061770983040332794189453125</LongitudeDegrees>
            </Position>
            <AltitudeMeters>699.79998779296875</AltitudeMeters>
            <DistanceMeters>NAN</DistanceMeters>
          </Trackpoint>
          <Trackpoint>
            <Time>2020-12-05T12:45:30.000Z</Time>
            <Position>
              <LatitudeDegrees>36.8322100304067134857177734375</LatitudeDegrees>
              <LongitudeDegrees>-4.38062994740903377532958984375</LongitudeDegrees>
            </Position>
            <AltitudeMeters>699.79998779296875</AltitudeMeters>
            <DistanceMeters>NAN</DistanceMeters>
          </Trackpoint>
          <Trackpoint>
            <Time>2020-12-05T12:45:31.000Z</Time>
            <Position>
              <LatitudeDegrees>36.8322026543319225311279296875</LatitudeDegrees>
              <LongitudeDegrees>-4.380639083683490753173828125</LongitudeDegrees>
            </Position>
            <AltitudeMeters>699.79998779296875</AltitudeMeters>
            <DistanceMeters>NAN</DistanceMeters>
          </Trackpoint>
          <Trackpoint>
            <Time>2020-12-05T12:45:32.000Z</Time>
            <Position>
              <LatitudeDegrees>36.8321909196674823760986328125</LatitudeDegrees>
              <LongitudeDegrees>-4.380655847489833831787109375</LongitudeDegrees>
            </Position>
            <AltitudeMeters>699.79998779296875</AltitudeMeters>
            <DistanceMeters>NAN</DistanceMeters>
          </Trackpoint>
          <Trackpoint>
            <Time>2020-12-05T12:45:33.000Z</Time>
            <Position>
              <LatitudeDegrees>36.832182370126247406005859375</LatitudeDegrees>
              <LongitudeDegrees>-4.380666911602020263671875</LongitudeDegrees>
            </Position>
            <AltitudeMeters>699.79998779296875</AltitudeMeters>
            <DistanceMeters>NAN</DistanceMeters>
          </Trackpoint>
          <Trackpoint>
            <Time>2020-12-05T12:45:34.000Z</Time>
            <Position>
              <LatitudeDegrees>36.832173652946949005126953125</LatitudeDegrees>
              <LongitudeDegrees>-4.3806754611432552337646484375</LongitudeDegrees>
            </Position>
            <AltitudeMeters>699.79998779296875</AltitudeMeters>
            <DistanceMeters>NAN</DistanceMeters>
          </Trackpoint>
          <Trackpoint>
            <Time>2020-12-05T12:45:35.000Z</Time>
            <Position>
              <LatitudeDegrees>36.83216619305312633514404296875</LatitudeDegrees>
              <LongitudeDegrees>-4.3806803226470947265625</LongitudeDegrees>
            </Position>
            <AltitudeMeters>699.79998779296875</AltitudeMeters>
            <DistanceMeters>NAN</DistanceMeters>
          </Trackpoint>
          <Trackpoint>
            <Time>2020-12-05T12:45:36.000Z</Time>
            <Position>
              <LatitudeDegrees>36.83215931989252567291259765625</LatitudeDegrees>
              <LongitudeDegrees>-4.38068426214158535003662109375</LongitudeDegrees>
            </Position>
            <AltitudeMeters>699.79998779296875</AltitudeMeters>
            <DistanceMeters>NAN</DistanceMeters>
          </Trackpoint>
          <Trackpoint>
            <Time>2020-12-05T12:45:37.000Z</Time>
            <Position>
              <LatitudeDegrees>36.83215328492224216461181640625</LatitudeDegrees>
              <LongitudeDegrees>-4.3806885369122028350830078125</LongitudeDegrees>
            </Position>
            <AltitudeMeters>699.79998779296875</AltitudeMeters>
            <DistanceMeters>NAN</DistanceMeters>
          </Trackpoint>
          <Trackpoint>
            <Time>2020-12-05T12:45:38.000Z</Time>
            <Position>
              <LatitudeDegrees>36.8321469984948635101318359375</LatitudeDegrees>
              <LongitudeDegrees>-4.38069448806345462799072265625</LongitudeDegrees>
            </Position>
            <AltitudeMeters>699.79998779296875</AltitudeMeters>
            <DistanceMeters>NAN</DistanceMeters>
          </Trackpoint>
          <Trackpoint>
            <Time>2020-12-05T12:45:39.000Z</Time>
            <Position>
              <LatitudeDegrees>36.8321416340768337249755859375</LatitudeDegrees>
              <LongitudeDegrees>-4.3807017803192138671875</LongitudeDegrees>
            </Position>
            <AltitudeMeters>699.79998779296875</AltitudeMeters>
            <DistanceMeters>NAN</DistanceMeters>
          </Trackpoint>
          <Trackpoint>
            <Time>2020-12-05T12:45:40.000Z</Time>
            <Position>
              <LatitudeDegrees>36.83213710784912109375</LatitudeDegrees>
              <LongitudeDegrees>-4.38071024604141712188720703125</LongitudeDegrees>
            </Position>
            <AltitudeMeters>699.79998779296875</AltitudeMeters>
            <DistanceMeters>NAN</DistanceMeters>
          </Trackpoint>
          <Trackpoint>
            <Time>2020-12-05T12:45:41.000Z</Time>
            <Position>
              <LatitudeDegrees>36.83213367126882076263427734375</LatitudeDegrees>
              <LongitudeDegrees>-4.3807237409055233001708984375</LongitudeDegrees>
            </Position>
            <AltitudeMeters>699.79998779296875</AltitudeMeters>
            <DistanceMeters>NAN</DistanceMeters>
          </Trackpoint>
          <Trackpoint>
            <Time>2020-12-05T12:45:42.000Z</Time>
            <Position>
              <LatitudeDegrees>36.832128725945949554443359375</LatitudeDegrees>
              <LongitudeDegrees>-4.38074075616896152496337890625</LongitudeDegrees>
            </Position>
            <AltitudeMeters>699.79998779296875</AltitudeMeters>
            <DistanceMeters>NAN</DistanceMeters>
          </Trackpoint>
          <Trackpoint>
            <Time>2020-12-05T12:45:43.000Z</Time>
            <Position>
              <LatitudeDegrees>36.83212009258568286895751953125</LatitudeDegrees>
              <LongitudeDegrees>-4.38075617887079715728759765625</LongitudeDegrees>
            </Position>
            <AltitudeMeters>699.79998779296875</AltitudeMeters>
            <DistanceMeters>NAN</DistanceMeters>
          </Trackpoint>
          <Trackpoint>
            <Time>2020-12-05T12:45:44.000Z</Time>
            <Position>
              <LatitudeDegrees>36.83210961520671844482421875</LatitudeDegrees>
              <LongitudeDegrees>-4.3807716853916645050048828125</LongitudeDegrees>
            </Position>
            <AltitudeMeters>699.79998779296875</AltitudeMeters>
            <DistanceMeters>NAN</DistanceMeters>
          </Trackpoint>
          <Trackpoint>
            <Time>2020-12-05T12:45:45.000Z</Time>
            <Position>
              <LatitudeDegrees>36.8321017362177371978759765625</LatitudeDegrees>
              <LongitudeDegrees>-4.38078652136027812957763671875</LongitudeDegrees>
            </Position>
            <AltitudeMeters>699.79998779296875</AltitudeMeters>
            <DistanceMeters>NAN</DistanceMeters>
          </Trackpoint>
          <Trackpoint>
            <Time>2020-12-05T12:45:46.000Z</Time>
            <Position>
              <LatitudeDegrees>36.83209511451423168182373046875</LatitudeDegrees>
              <LongitudeDegrees>-4.38080043531954288482666015625</LongitudeDegrees>
            </Position>
            <AltitudeMeters>699.79998779296875</AltitudeMeters>
            <DistanceMeters>NAN</DistanceMeters>
          </Trackpoint>
          <Trackpoint>
            <Time>2020-12-05T12:45:47.000Z</Time>
            <Position>
              <LatitudeDegrees>36.83208857662975788116455078125</LatitudeDegrees>
              <LongitudeDegrees>-4.3808132596313953399658203125</LongitudeDegrees>
            </Position>
            <AltitudeMeters>699.79998779296875</AltitudeMeters>
            <DistanceMeters>NAN</DistanceMeters>
          </Trackpoint>
          <Trackpoint>
            <Time>2020-12-05T12:45:48.000Z</Time>
            <Position>
              <LatitudeDegrees>36.83208405040204524993896484375</LatitudeDegrees>
              <LongitudeDegrees>-4.38082541339099407196044921875</LongitudeDegrees>
            </Position>
            <AltitudeMeters>699.79998779296875</AltitudeMeters>
            <DistanceMeters>NAN</DistanceMeters>
          </Trackpoint>
          <Trackpoint>
            <Time>2020-12-05T12:45:49.000Z</Time>
            <Position>
              <LatitudeDegrees>36.8320802785456180572509765625</LatitudeDegrees>
              <LongitudeDegrees>-4.3808384053409099578857421875</LongitudeDegrees>
            </Position>
            <AltitudeMeters>699.79998779296875</AltitudeMeters>
            <DistanceMeters>NAN</DistanceMeters>
          </Trackpoint>
          <Trackpoint>
            <Time>2020-12-05T12:45:50.000Z</Time>
            <Position>
              <LatitudeDegrees>36.832076422870159149169921875</LatitudeDegrees>
              <LongitudeDegrees>-4.38085374422371387481689453125</LongitudeDegrees>
            </Position>
            <AltitudeMeters>699.79998779296875</AltitudeMeters>
            <DistanceMeters>NAN</DistanceMeters>
          </Trackpoint>
          <Trackpoint>
            <Time>2020-12-05T12:45:51.000Z</Time>
            <Position>
              <LatitudeDegrees>36.8320729024708271026611328125</LatitudeDegrees>
              <LongitudeDegrees>-4.38086564652621746063232421875</LongitudeDegrees>
            </Position>
            <AltitudeMeters>699.79998779296875</AltitudeMeters>
            <DistanceMeters>NAN</DistanceMeters>
          </Trackpoint>
          <Trackpoint>
            <Time>2020-12-05T12:45:52.000Z</Time>
            <Position>
              <LatitudeDegrees>36.8320698849856853485107421875</LatitudeDegrees>
              <LongitudeDegrees>-4.38087704591453075408935546875</LongitudeDegrees>
            </Position>
            <AltitudeMeters>699.79998779296875</AltitudeMeters>
            <DistanceMeters>NAN</DistanceMeters>
          </Trackpoint>
          <Trackpoint>
            <Time>2020-12-05T12:45:53.000Z</Time>
            <Position>
              <LatitudeDegrees>36.83206460438668727874755859375</LatitudeDegrees>
              <LongitudeDegrees>-4.38088827766478061676025390625</LongitudeDegrees>
            </Position>
            <AltitudeMeters>699.79998779296875</AltitudeMeters>
            <DistanceMeters>NAN</DistanceMeters>
          </Trackpoint>
          <Trackpoint>
            <Time>2020-12-05T12:45:54.000Z</Time>
            <Position>
              <LatitudeDegrees>36.832056976854801177978515625</LatitudeDegrees>
              <LongitudeDegrees>-4.38090085051953792572021484375</LongitudeDegrees>
            </Position>
            <AltitudeMeters>699.79998779296875</AltitudeMeters>
            <DistanceMeters>NAN</DistanceMeters>
          </Trackpoint>
          <Trackpoint>
            <Time>2020-12-05T12:45:55.000Z</Time>
            <Position>
              <LatitudeDegrees>36.8320490978658199310302734375</LatitudeDegrees>
              <LongitudeDegrees>-4.380915351212024688720703125</LongitudeDegrees>
            </Position>
            <AltitudeMeters>699.79998779296875</AltitudeMeters>
            <DistanceMeters>NAN</DistanceMeters>
          </Trackpoint>
          <Trackpoint>
            <Time>2020-12-05T12:45:56.000Z</Time>
            <Position>
              <LatitudeDegrees>36.83204197324812412261962890625</LatitudeDegrees>
              <LongitudeDegrees>-4.3809309415519237518310546875</LongitudeDegrees>
            </Position>
            <AltitudeMeters>699.79998779296875</AltitudeMeters>
            <DistanceMeters>NAN</DistanceMeters>
          </Trackpoint>
          <Trackpoint>
            <Time>2020-12-05T12:45:57.000Z</Time>
            <Position>
              <LatitudeDegrees>36.83203442953526973724365234375</LatitudeDegrees>
              <LongitudeDegrees>-4.38094728626310825347900390625</LongitudeDegrees>
            </Position>
            <AltitudeMeters>699.79998779296875</AltitudeMeters>
            <DistanceMeters>NAN</DistanceMeters>
          </Trackpoint>
          <Trackpoint>
            <Time>2020-12-05T12:45:58.000Z</Time>
            <Position>
              <LatitudeDegrees>36.832027472555637359619140625</LatitudeDegrees>
              <LongitudeDegrees>-4.38095851801335811614990234375</LongitudeDegrees>
            </Position>
            <AltitudeMeters>699.79998779296875</AltitudeMeters>
            <DistanceMeters>NAN</DistanceMeters>
          </Trackpoint>
          <Trackpoint>
            <Time>2020-12-05T12:45:59.000Z</Time>
            <Position>
              <LatitudeDegrees>36.832020096480846405029296875</LatitudeDegrees>
              <LongitudeDegrees>-4.38097092323005199432373046875</LongitudeDegrees>
            </Position>
            <AltitudeMeters>699.79998779296875</AltitudeMeters>
            <DistanceMeters>NAN</DistanceMeters>
          </Trackpoint>
          <Trackpoint>
            <Time>2020-12-05T12:46:00.000Z</Time>
            <Position>
              <LatitudeDegrees>36.8320088647305965423583984375</LatitudeDegrees>
              <LongitudeDegrees>-4.3809879384934902191162109375</LongitudeDegrees>
            </Position>
            <AltitudeMeters>700.4000244140625</AltitudeMeters>
            <DistanceMeters>NAN</DistanceMeters>
          </Trackpoint>
          <Trackpoint>
            <Time>2020-12-05T12:46:01.000Z</Time>
            <Position>
              <LatitudeDegrees>36.8319991417229175567626953125</LatitudeDegrees>
              <LongitudeDegrees>-4.38100243918597698211669921875</LongitudeDegrees>
            </Position>
            <AltitudeMeters>700.4000244140625</AltitudeMeters>
            <DistanceMeters>NAN</DistanceMeters>
          </Trackpoint>
          <Trackpoint>
            <Time>2020-12-05T12:46:02.000Z</Time>
            <Position>
              <LatitudeDegrees>36.83199050836265087127685546875</LatitudeDegrees>
              <LongitudeDegrees>-4.3810164369642734527587890625</LongitudeDegrees>
            </Position>
            <AltitudeMeters>700.4000244140625</AltitudeMeters>
            <DistanceMeters>NAN</DistanceMeters>
          </Trackpoint>
          <Trackpoint>
            <Time>2020-12-05T12:46:03.000Z</Time>
            <Position>
              <LatitudeDegrees>36.83198581449687480926513671875</LatitudeDegrees>
              <LongitudeDegrees>-4.38103194348514080047607421875</LongitudeDegrees>
            </Position>
            <AltitudeMeters>700.4000244140625</AltitudeMeters>
            <DistanceMeters>NAN</DistanceMeters>
          </Trackpoint>
          <Trackpoint>
            <Time>2020-12-05T12:46:04.000Z</Time>
            <Position>
              <LatitudeDegrees>36.83198086917400360107421875</LatitudeDegrees>
              <LongitudeDegrees>-4.38104736618697643280029296875</LongitudeDegrees>
            </Position>
            <AltitudeMeters>700.4000244140625</AltitudeMeters>
            <DistanceMeters>NAN</DistanceMeters>
          </Trackpoint>
          <Trackpoint>
            <Time>2020-12-05T12:46:05.000Z</Time>
            <Position>
              <LatitudeDegrees>36.83197391219437122344970703125</LatitudeDegrees>
              <LongitudeDegrees>-4.3810627050697803497314453125</LongitudeDegrees>
            </Position>
            <AltitudeMeters>700.4000244140625</AltitudeMeters>
            <DistanceMeters>NAN</DistanceMeters>
          </Trackpoint>
          <Trackpoint>
            <Time>2020-12-05T12:46:06.000Z</Time>
            <Position>
              <LatitudeDegrees>36.83196921832859516143798828125</LatitudeDegrees>
              <LongitudeDegrees>-4.38107552938163280487060546875</LongitudeDegrees>
            </Position>
            <AltitudeMeters>700.4000244140625</AltitudeMeters>
            <DistanceMeters>NAN</DistanceMeters>
          </Trackpoint>
          <Trackpoint>
            <Time>2020-12-05T12:46:07.000Z</Time>
            <Position>
              <LatitudeDegrees>36.83196435682475566864013671875</LatitudeDegrees>
              <LongitudeDegrees>-4.38109003007411956787109375</LongitudeDegrees>
            </Position>
            <AltitudeMeters>700.4000244140625</AltitudeMeters>
            <DistanceMeters>NAN</DistanceMeters>
          </Trackpoint>
          <Trackpoint>
            <Time>2020-12-05T12:46:08.000Z</Time>
            <Position>
              <LatitudeDegrees>36.831959746778011322021484375</LatitudeDegrees>
              <LongitudeDegrees>-4.38110788352787494659423828125</LongitudeDegrees>
            </Position>
            <AltitudeMeters>700.4000244140625</AltitudeMeters>
            <DistanceMeters>NAN</DistanceMeters>
          </Trackpoint>
          <Trackpoint>
            <Time>2020-12-05T12:46:09.000Z</Time>
            <Position>
              <LatitudeDegrees>36.8319547176361083984375</LatitudeDegrees>
              <LongitudeDegrees>-4.38112556934356689453125</LongitudeDegrees>
            </Position>
            <AltitudeMeters>700.4000244140625</AltitudeMeters>
            <DistanceMeters>NAN</DistanceMeters>
          </Trackpoint>
          <Trackpoint>
            <Time>2020-12-05T12:46:10.000Z</Time>
            <Position>
              <LatitudeDegrees>36.8319522030651569366455078125</LatitudeDegrees>
              <LongitudeDegrees>-4.38114367425441741943359375</LongitudeDegrees>
            </Position>
            <AltitudeMeters>700.4000244140625</AltitudeMeters>
            <DistanceMeters>NAN</DistanceMeters>
          </Trackpoint>
          <Trackpoint>
            <Time>2020-12-05T12:46:11.000Z</Time>
            <Position>
              <LatitudeDegrees>36.8319501914083957672119140625</LatitudeDegrees>
              <LongitudeDegrees>-4.381156079471111297607421875</LongitudeDegrees>
            </Position>
            <AltitudeMeters>700.4000244140625</AltitudeMeters>
            <DistanceMeters>NAN</DistanceMeters>
          </Trackpoint>
          <Trackpoint>
            <Time>2020-12-05T12:46:12.000Z</Time>
            <Position>
              <LatitudeDegrees>36.83195027522742748260498046875</LatitudeDegrees>
              <LongitudeDegrees>-4.38116974197328090667724609375</LongitudeDegrees>
            </Position>
            <AltitudeMeters>700.4000244140625</AltitudeMeters>
            <DistanceMeters>NAN</DistanceMeters>
          </Trackpoint>
          <Trackpoint>
            <Time>2020-12-05T12:46:13.000Z</Time>
            <Position>
              <LatitudeDegrees>36.831951029598712921142578125</LatitudeDegrees>
              <LongitudeDegrees>-4.38118256628513336181640625</LongitudeDegrees>
            </Position>
            <AltitudeMeters>700.4000244140625</AltitudeMeters>
            <DistanceMeters>NAN</DistanceMeters>
          </Trackpoint>
          <Trackpoint>
            <Time>2020-12-05T12:46:14.000Z</Time>
            <Position>
              <LatitudeDegrees>36.8319548852741718292236328125</LatitudeDegrees>
              <LongitudeDegrees>-4.381195642054080963134765625</LongitudeDegrees>
            </Position>
            <AltitudeMeters>700.4000244140625</AltitudeMeters>
            <DistanceMeters>NAN</DistanceMeters>
          </Trackpoint>
          <Trackpoint>
            <Time>2020-12-05T12:46:15.000Z</Time>
            <Position>
              <LatitudeDegrees>36.83195664547383785247802734375</LatitudeDegrees>
              <LongitudeDegrees>-4.38120670616626739501953125</LongitudeDegrees>
            </Position>
            <AltitudeMeters>700.4000244140625</AltitudeMeters>
            <DistanceMeters>NAN</DistanceMeters>
          </Trackpoint>
          <Trackpoint>
            <Time>2020-12-05T12:46:16.000Z</Time>
            <Position>
              <LatitudeDegrees>36.83195547200739383697509765625</LatitudeDegrees>
              <LongitudeDegrees>-4.38122204504907131195068359375</LongitudeDegrees>
            </Position>
            <AltitudeMeters>700.4000244140625</AltitudeMeters>
            <DistanceMeters>NAN</DistanceMeters>
          </Trackpoint>
          <Trackpoint>
            <Time>2020-12-05T12:46:17.000Z</Time>
            <Position>
              <LatitudeDegrees>36.8319542147219181060791015625</LatitudeDegrees>
              <LongitudeDegrees>-4.3812420777976512908935546875</LongitudeDegrees>
            </Position>
            <AltitudeMeters>700.4000244140625</AltitudeMeters>
            <DistanceMeters>NAN</DistanceMeters>
          </Trackpoint>
          <Trackpoint>
            <Time>2020-12-05T12:46:18.000Z</Time>
            <Position>
              <LatitudeDegrees>36.831955052912235260009765625</LatitudeDegrees>
              <LongitudeDegrees>-4.381261356174945831298828125</LongitudeDegrees>
            </Position>
            <AltitudeMeters>700.4000244140625</AltitudeMeters>
            <DistanceMeters>NAN</DistanceMeters>
          </Trackpoint>
          <Trackpoint>
            <Time>2020-12-05T12:46:19.000Z</Time>
            <Position>
              <LatitudeDegrees>36.83195798657834529876708984375</LatitudeDegrees>
              <LongitudeDegrees>-4.38128289766609668731689453125</LongitudeDegrees>
            </Position>
            <AltitudeMeters>700.4000244140625</AltitudeMeters>
            <DistanceMeters>NAN</DistanceMeters>
          </Trackpoint>
          <Trackpoint>
            <Time>2020-12-05T12:46:20.000Z</Time>
            <Position>
              <LatitudeDegrees>36.83195714838802814483642578125</LatitudeDegrees>
              <LongitudeDegrees>-4.381296224892139434814453125</LongitudeDegrees>
            </Position>
            <AltitudeMeters>700.4000244140625</AltitudeMeters>
            <DistanceMeters>NAN</DistanceMeters>
          </Trackpoint>
          <Trackpoint>
            <Time>2020-12-05T12:46:21.000Z</Time>
            <Position>
              <LatitudeDegrees>36.83195815421640872955322265625</LatitudeDegrees>
              <LongitudeDegrees>-4.381312318146228790283203125</LongitudeDegrees>
            </Position>
            <AltitudeMeters>700.4000244140625</AltitudeMeters>
            <DistanceMeters>NAN</DistanceMeters>
          </Trackpoint>
          <Trackpoint>
            <Time>2020-12-05T12:46:22.000Z</Time>
            <Position>
              <LatitudeDegrees>36.8319614231586456298828125</LatitudeDegrees>
              <LongitudeDegrees>-4.381331093609333038330078125</LongitudeDegrees>
            </Position>
            <AltitudeMeters>700.4000244140625</AltitudeMeters>
            <DistanceMeters>NAN</DistanceMeters>
          </Trackpoint>
          <Trackpoint>
            <Time>2020-12-05T12:46:23.000Z</Time>
            <Position>
              <LatitudeDegrees>36.83196418918669223785400390625</LatitudeDegrees>
              <LongitudeDegrees>-4.38134760595858097076416015625</LongitudeDegrees>
            </Position>
            <AltitudeMeters>700.4000244140625</AltitudeMeters>
            <DistanceMeters>NAN</DistanceMeters>
          </Trackpoint>
          <Trackpoint>
            <Time>2020-12-05T12:46:24.000Z</Time>
            <Position>
              <LatitudeDegrees>36.83196553029119968414306640625</LatitudeDegrees>
              <LongitudeDegrees>-4.3813602626323699951171875</LongitudeDegrees>
            </Position>
            <AltitudeMeters>700.4000244140625</AltitudeMeters>
            <DistanceMeters>NAN</DistanceMeters>
          </Trackpoint>
          <Trackpoint>
            <Time>2020-12-05T12:46:25.000Z</Time>
            <Position>
              <LatitudeDegrees>36.831964440643787384033203125</LatitudeDegrees>
              <LongitudeDegrees>-4.38137300312519073486328125</LongitudeDegrees>
            </Position>
            <AltitudeMeters>700.4000244140625</AltitudeMeters>
            <DistanceMeters>NAN</DistanceMeters>
          </Trackpoint>
          <Trackpoint>
            <Time>2020-12-05T12:46:26.000Z</Time>
            <Position>
              <LatitudeDegrees>36.83196469210088253021240234375</LatitudeDegrees>
              <LongitudeDegrees>-4.3813872523605823516845703125</LongitudeDegrees>
            </Position>
            <AltitudeMeters>700.4000244140625</AltitudeMeters>
            <DistanceMeters>NAN</DistanceMeters>
          </Trackpoint>
          <Trackpoint>
            <Time>2020-12-05T12:46:27.000Z</Time>
            <Position>
              <LatitudeDegrees>36.8319612555205821990966796875</LatitudeDegrees>
              <LongitudeDegrees>-4.38140041194856166839599609375</LongitudeDegrees>
            </Position>
            <AltitudeMeters>700.4000244140625</AltitudeMeters>
            <DistanceMeters>NAN</DistanceMeters>
          </Trackpoint>
          <Trackpoint>
            <Time>2020-12-05T12:46:28.000Z</Time>
            <Position>
              <LatitudeDegrees>36.8319599144160747528076171875</LatitudeDegrees>
              <LongitudeDegrees>-4.3814167566597461700439453125</LongitudeDegrees>
            </Position>
            <AltitudeMeters>700.4000244140625</AltitudeMeters>
            <DistanceMeters>NAN</DistanceMeters>
          </Trackpoint>
          <Trackpoint>
            <Time>2020-12-05T12:46:29.000Z</Time>
            <Position>
              <LatitudeDegrees>36.8319595791399478912353515625</LatitudeDegrees>
              <LongitudeDegrees>-4.381434023380279541015625</LongitudeDegrees>
            </Position>
            <AltitudeMeters>700.4000244140625</AltitudeMeters>
            <DistanceMeters>NAN</DistanceMeters>
          </Trackpoint>
          <Trackpoint>
            <Time>2020-12-05T12:46:30.000Z</Time>
            <Position>
              <LatitudeDegrees>36.8319614231586456298828125</LatitudeDegrees>
              <LongitudeDegrees>-4.3814487755298614501953125</LongitudeDegrees>
            </Position>
            <AltitudeMeters>700.4000244140625</AltitudeMeters>
            <DistanceMeters>NAN</DistanceMeters>
          </Trackpoint>
          <Trackpoint>
            <Time>2020-12-05T12:46:31.000Z</Time>
            <Position>
              <LatitudeDegrees>36.83196301572024822235107421875</LatitudeDegrees>
              <LongitudeDegrees>-4.3814621865749359130859375</LongitudeDegrees>
            </Position>
            <AltitudeMeters>700.4000244140625</AltitudeMeters>
            <DistanceMeters>NAN</DistanceMeters>
          </Trackpoint>
          <Trackpoint>
            <Time>2020-12-05T12:46:32.000Z</Time>
            <Position>
              <LatitudeDegrees>36.83196234516799449920654296875</LatitudeDegrees>
              <LongitudeDegrees>-4.3814794532954692840576171875</LongitudeDegrees>
            </Position>
            <AltitudeMeters>700.4000244140625</AltitudeMeters>
            <DistanceMeters>NAN</DistanceMeters>
          </Trackpoint>
          <Trackpoint>
            <Time>2020-12-05T12:46:33.000Z</Time>
            <Position>
              <LatitudeDegrees>36.831961758434772491455078125</LatitudeDegrees>
              <LongitudeDegrees>-4.3814962171018123626708984375</LongitudeDegrees>
            </Position>
            <AltitudeMeters>700.4000244140625</AltitudeMeters>
            <DistanceMeters>NAN</DistanceMeters>
          </Trackpoint>
          <Trackpoint>
            <Time>2020-12-05T12:46:34.000Z</Time>
            <Position>
              <LatitudeDegrees>36.83195882476866245269775390625</LatitudeDegrees>
              <LongitudeDegrees>-4.3815129809081554412841796875</LongitudeDegrees>
            </Position>
            <AltitudeMeters>700.4000244140625</AltitudeMeters>
            <DistanceMeters>NAN</DistanceMeters>
          </Trackpoint>
          <Trackpoint>
            <Time>2020-12-05T12:46:35.000Z</Time>
            <Position>
              <LatitudeDegrees>36.8319542147219181060791015625</LatitudeDegrees>
              <LongitudeDegrees>-4.3815307505428791046142578125</LongitudeDegrees>
            </Position>
            <AltitudeMeters>700.4000244140625</AltitudeMeters>
            <DistanceMeters>NAN</DistanceMeters>
          </Trackpoint>
          <Trackpoint>
            <Time>2020-12-05T12:46:36.000Z</Time>
            <Position>
              <LatitudeDegrees>36.83195010758936405181884765625</LatitudeDegrees>
              <LongitudeDegrees>-4.38154726289212703704833984375</LongitudeDegrees>
            </Position>
            <AltitudeMeters>700.4000244140625</AltitudeMeters>
            <DistanceMeters>NAN</DistanceMeters>
          </Trackpoint>
          <Trackpoint>
            <Time>2020-12-05T12:46:37.000Z</Time>
            <Position>
              <LatitudeDegrees>36.83194574899971485137939453125</LatitudeDegrees>
              <LongitudeDegrees>-4.3815614283084869384765625</LongitudeDegrees>
            </Position>
            <AltitudeMeters>700.4000244140625</AltitudeMeters>
            <DistanceMeters>NAN</DistanceMeters>
          </Trackpoint>
          <Trackpoint>
            <Time>2020-12-05T12:46:38.000Z</Time>
            <Position>
              <LatitudeDegrees>36.8319411389529705047607421875</LatitudeDegrees>
              <LongitudeDegrees>-4.38157282769680023193359375</LongitudeDegrees>
            </Position>
            <AltitudeMeters>700.4000244140625</AltitudeMeters>
            <DistanceMeters>NAN</DistanceMeters>
          </Trackpoint>
          <Trackpoint>
            <Time>2020-12-05T12:46:39.000Z</Time>
            <Position>
              <LatitudeDegrees>36.83193619363009929656982421875</LatitudeDegrees>
              <LongitudeDegrees>-4.38158565200865268707275390625</LongitudeDegrees>
            </Position>
            <AltitudeMeters>700.4000244140625</AltitudeMeters>
            <DistanceMeters>NAN</DistanceMeters>
          </Trackpoint>
          <Trackpoint>
            <Time>2020-12-05T12:46:40.000Z</Time>
            <Position>
              <LatitudeDegrees>36.8319280631840229034423828125</LatitudeDegrees>
              <LongitudeDegrees>-4.381600655615329742431640625</LongitudeDegrees>
            </Position>
            <AltitudeMeters>700.4000244140625</AltitudeMeters>
            <DistanceMeters>NAN</DistanceMeters>
          </Trackpoint>
          <Trackpoint>
            <Time>2020-12-05T12:46:41.000Z</Time>
            <Position>
              <LatitudeDegrees>36.831921525299549102783203125</LatitudeDegrees>
              <LongitudeDegrees>-4.3816150724887847900390625</LongitudeDegrees>
            </Position>
            <AltitudeMeters>700.4000244140625</AltitudeMeters>
            <DistanceMeters>NAN</DistanceMeters>
          </Trackpoint>
          <Trackpoint>
            <Time>2020-12-05T12:46:42.000Z</Time>
            <Position>
              <LatitudeDegrees>36.83191305957734584808349609375</LatitudeDegrees>
              <LongitudeDegrees>-4.38162622042000293731689453125</LongitudeDegrees>
            </Position>
            <AltitudeMeters>700.4000244140625</AltitudeMeters>
            <DistanceMeters>NAN</DistanceMeters>
          </Trackpoint>
          <Trackpoint>
            <Time>2020-12-05T12:46:43.000Z</Time>
            <Position>
              <LatitudeDegrees>36.83190551586449146270751953125</LatitudeDegrees>
              <LongitudeDegrees>-4.3816403858363628387451171875</LongitudeDegrees>
            </Position>
            <AltitudeMeters>700.4000244140625</AltitudeMeters>
            <DistanceMeters>NAN</DistanceMeters>
          </Trackpoint>
          <Trackpoint>
            <Time>2020-12-05T12:46:44.000Z</Time>
            <Position>
              <LatitudeDegrees>36.831893026828765869140625</LatitudeDegrees>
              <LongitudeDegrees>-4.38165605999529361724853515625</LongitudeDegrees>
            </Position>
            <AltitudeMeters>700.4000244140625</AltitudeMeters>
            <DistanceMeters>NAN</DistanceMeters>
          </Trackpoint>
          <Trackpoint>
            <Time>2020-12-05T12:46:45.000Z</Time>
            <Position>
              <LatitudeDegrees>36.8318844772875308990478515625</LatitudeDegrees>
              <LongitudeDegrees>-4.38166796229779720306396484375</LongitudeDegrees>
            </Position>
            <AltitudeMeters>700.4000244140625</AltitudeMeters>
            <DistanceMeters>NAN</DistanceMeters>
          </Trackpoint>
          <Trackpoint>
            <Time>2020-12-05T12:46:46.000Z</Time>
            <Position>
              <LatitudeDegrees>36.83188104070723056793212890625</LatitudeDegrees>
              <LongitudeDegrees>-4.381679780781269073486328125</LongitudeDegrees>
            </Position>
            <AltitudeMeters>700.4000244140625</AltitudeMeters>
            <DistanceMeters>NAN</DistanceMeters>
          </Trackpoint>
          <Trackpoint>
            <Time>2020-12-05T12:46:47.000Z</Time>
            <Position>
              <LatitudeDegrees>36.83187584392726421356201171875</LatitudeDegrees>
              <LongitudeDegrees>-4.3816933594644069671630859375</LongitudeDegrees>
            </Position>
            <AltitudeMeters>700.4000244140625</AltitudeMeters>
            <DistanceMeters>NAN</DistanceMeters>
          </Trackpoint>
          <Trackpoint>
            <Time>2020-12-05T12:46:48.000Z</Time>
            <Position>
              <LatitudeDegrees>36.83186729438602924346923828125</LatitudeDegrees>
              <LongitudeDegrees>-4.3817071057856082916259765625</LongitudeDegrees>
            </Position>
            <AltitudeMeters>700.4000244140625</AltitudeMeters>
            <DistanceMeters>NAN</DistanceMeters>
          </Trackpoint>
          <Trackpoint>
            <Time>2020-12-05T12:46:49.000Z</Time>
            <Position>
              <LatitudeDegrees>36.83185505680739879608154296875</LatitudeDegrees>
              <LongitudeDegrees>-4.38172303140163421630859375</LongitudeDegrees>
            </Position>
            <AltitudeMeters>700.4000244140625</AltitudeMeters>
            <DistanceMeters>NAN</DistanceMeters>
          </Trackpoint>
          <Trackpoint>
            <Time>2020-12-05T12:46:50.000Z</Time>
            <Position>
              <LatitudeDegrees>36.83184566907584667205810546875</LatitudeDegrees>
              <LongitudeDegrees>-4.381736777722835540771484375</LongitudeDegrees>
            </Position>
            <AltitudeMeters>700.4000244140625</AltitudeMeters>
            <DistanceMeters>NAN</DistanceMeters>
          </Trackpoint>
          <Trackpoint>
            <Time>2020-12-05T12:46:51.000Z</Time>
            <Position>
              <LatitudeDegrees>36.83184013701975345611572265625</LatitudeDegrees>
              <LongitudeDegrees>-4.381750188767910003662109375</LongitudeDegrees>
            </Position>
            <AltitudeMeters>700.4000244140625</AltitudeMeters>
            <DistanceMeters>NAN</DistanceMeters>
          </Trackpoint>
          <Trackpoint>
            <Time>2020-12-05T12:46:52.000Z</Time>
            <Position>
              <LatitudeDegrees>36.8318361975252628326416015625</LatitudeDegrees>
              <LongitudeDegrees>-4.38176368363201618194580078125</LongitudeDegrees>
            </Position>
            <AltitudeMeters>700.4000244140625</AltitudeMeters>
            <DistanceMeters>NAN</DistanceMeters>
          </Trackpoint>
          <Trackpoint>
            <Time>2020-12-05T12:46:53.000Z</Time>
            <Position>
              <LatitudeDegrees>36.83183359913527965545654296875</LatitudeDegrees>
              <LongitudeDegrees>-4.38177935779094696044921875</LongitudeDegrees>
            </Position>
            <AltitudeMeters>700.4000244140625</AltitudeMeters>
            <DistanceMeters>NAN</DistanceMeters>
          </Trackpoint>
          <Trackpoint>
            <Time>2020-12-05T12:46:54.000Z</Time>
            <Position>
              <LatitudeDegrees>36.83182974345982074737548828125</LatitudeDegrees>
              <LongitudeDegrees>-4.381795786321163177490234375</LongitudeDegrees>
            </Position>
            <AltitudeMeters>700.4000244140625</AltitudeMeters>
            <DistanceMeters>NAN</DistanceMeters>
          </Trackpoint>
          <Trackpoint>
            <Time>2020-12-05T12:46:55.000Z</Time>
            <Position>
              <LatitudeDegrees>36.83182488195598125457763671875</LatitudeDegrees>
              <LongitudeDegrees>-4.38181288540363311767578125</LongitudeDegrees>
            </Position>
            <AltitudeMeters>700.4000244140625</AltitudeMeters>
            <DistanceMeters>NAN</DistanceMeters>
          </Trackpoint>
          <Trackpoint>
            <Time>2020-12-05T12:46:56.000Z</Time>
            <Position>
              <LatitudeDegrees>36.83182203210890293121337890625</LatitudeDegrees>
              <LongitudeDegrees>-4.3818264640867710113525390625</LongitudeDegrees>
            </Position>
            <AltitudeMeters>700.4000244140625</AltitudeMeters>
            <DistanceMeters>NAN</DistanceMeters>
          </Trackpoint>
          <Trackpoint>
            <Time>2020-12-05T12:46:57.000Z</Time>
            <Position>
              <LatitudeDegrees>36.83181985281407833099365234375</LatitudeDegrees>
              <LongitudeDegrees>-4.3818388693034648895263671875</LongitudeDegrees>
            </Position>
            <AltitudeMeters>700.4000244140625</AltitudeMeters>
            <DistanceMeters>NAN</DistanceMeters>
          </Trackpoint>
          <Trackpoint>
            <Time>2020-12-05T12:46:58.000Z</Time>
            <Position>
              <LatitudeDegrees>36.8318165838718414306640625</LatitudeDegrees>
              <LongitudeDegrees>-4.3818499334156513214111328125</LongitudeDegrees>
            </Position>
            <AltitudeMeters>700.4000244140625</AltitudeMeters>
            <DistanceMeters>NAN</DistanceMeters>
          </Trackpoint>
          <Trackpoint>
            <Time>2020-12-05T12:46:59.000Z</Time>
            <Position>
              <LatitudeDegrees>36.83181482367217540740966796875</LatitudeDegrees>
              <LongitudeDegrees>-4.38186292536556720733642578125</LongitudeDegrees>
            </Position>
            <AltitudeMeters>700.4000244140625</AltitudeMeters>
            <DistanceMeters>NAN</DistanceMeters>
          </Trackpoint>
          <Trackpoint>
            <Time>2020-12-05T12:47:00.000Z</Time>
            <Position>
              <LatitudeDegrees>36.83181398548185825347900390625</LatitudeDegrees>
              <LongitudeDegrees>-4.38187767751514911651611328125</LongitudeDegrees>
            </Position>
            <AltitudeMeters>703.79998779296875</AltitudeMeters>
            <DistanceMeters>NAN</DistanceMeters>
          </Trackpoint>
          <Trackpoint>
            <Time>2020-12-05T12:47:01.000Z</Time>
            <Position>
              <LatitudeDegrees>36.83181029744446277618408203125</LatitudeDegrees>
              <LongitudeDegrees>-4.3818911723792552947998046875</LongitudeDegrees>
            </Position>
            <AltitudeMeters>703.79998779296875</AltitudeMeters>
            <DistanceMeters>NAN</DistanceMeters>
          </Trackpoint>
          <Trackpoint>
            <Time>2020-12-05T12:47:02.000Z</Time>
            <Position>
              <LatitudeDegrees>36.83180610649287700653076171875</LatitudeDegrees>
              <LongitudeDegrees>-4.38189829699695110321044921875</LongitudeDegrees>
            </Position>
            <AltitudeMeters>703.79998779296875</AltitudeMeters>
            <DistanceMeters>NAN</DistanceMeters>
          </Trackpoint>
          <Trackpoint>
            <Time>2020-12-05T12:47:03.000Z</Time>
            <Position>
              <LatitudeDegrees>36.83180141262710094451904296875</LatitudeDegrees>
              <LongitudeDegrees>-4.38190617598593235015869140625</LongitudeDegrees>
            </Position>
            <AltitudeMeters>703.79998779296875</AltitudeMeters>
            <DistanceMeters>NAN</DistanceMeters>
          </Trackpoint>
          <Trackpoint>
            <Time>2020-12-05T12:47:04.000Z</Time>
            <Position>
              <LatitudeDegrees>36.8317969702184200286865234375</LatitudeDegrees>
              <LongitudeDegrees>-4.38192042522132396697998046875</LongitudeDegrees>
            </Position>
            <AltitudeMeters>703.79998779296875</AltitudeMeters>
            <DistanceMeters>NAN</DistanceMeters>
          </Trackpoint>
          <Trackpoint>
            <Time>2020-12-05T12:47:05.000Z</Time>
            <Position>
              <LatitudeDegrees>36.8317897617816925048828125</LatitudeDegrees>
              <LongitudeDegrees>-4.38192880712449550628662109375</LongitudeDegrees>
            </Position>
            <AltitudeMeters>703.79998779296875</AltitudeMeters>
            <DistanceMeters>NAN</DistanceMeters>
          </Trackpoint>
          <Trackpoint>
            <Time>2020-12-05T12:47:06.000Z</Time>
            <Position>
              <LatitudeDegrees>36.831784062087535858154296875</LatitudeDegrees>
              <LongitudeDegrees>-4.38194163143634796142578125</LongitudeDegrees>
            </Position>
            <AltitudeMeters>703.79998779296875</AltitudeMeters>
            <DistanceMeters>NAN</DistanceMeters>
          </Trackpoint>
          <Trackpoint>
            <Time>2020-12-05T12:47:07.000Z</Time>
            <Position>
              <LatitudeDegrees>36.83177894912660121917724609375</LatitudeDegrees>
              <LongitudeDegrees>-4.38195479102432727813720703125</LongitudeDegrees>
            </Position>
            <AltitudeMeters>703.79998779296875</AltitudeMeters>
            <DistanceMeters>NAN</DistanceMeters>
          </Trackpoint>
          <Trackpoint>
            <Time>2020-12-05T12:47:08.000Z</Time>
            <Position>
              <LatitudeDegrees>36.83177702128887176513671875</LatitudeDegrees>
              <LongitudeDegrees>-4.38197473995387554168701171875</LongitudeDegrees>
            </Position>
            <AltitudeMeters>703.79998779296875</AltitudeMeters>
            <DistanceMeters>NAN</DistanceMeters>
          </Trackpoint>
          <Trackpoint>
            <Time>2020-12-05T12:47:09.000Z</Time>
            <Position>
              <LatitudeDegrees>36.83177576400339603424072265625</LatitudeDegrees>
              <LongitudeDegrees>-4.381993599236011505126953125</LongitudeDegrees>
            </Position>
            <AltitudeMeters>703.79998779296875</AltitudeMeters>
            <DistanceMeters>NAN</DistanceMeters>
          </Trackpoint>
          <Trackpoint>
            <Time>2020-12-05T12:47:10.000Z</Time>
            <Position>
              <LatitudeDegrees>36.83177308179438114166259765625</LatitudeDegrees>
              <LongitudeDegrees>-4.38201396726071834564208984375</LongitudeDegrees>
            </Position>
            <AltitudeMeters>703.79998779296875</AltitudeMeters>
            <DistanceMeters>NAN</DistanceMeters>
          </Trackpoint>
          <Trackpoint>
            <Time>2020-12-05T12:47:11.000Z</Time>
            <Position>
              <LatitudeDegrees>36.83176771737635135650634765625</LatitudeDegrees>
              <LongitudeDegrees>-4.38203056342899799346923828125</LongitudeDegrees>
            </Position>
            <AltitudeMeters>703.79998779296875</AltitudeMeters>
            <DistanceMeters>NAN</DistanceMeters>
          </Trackpoint>
          <Trackpoint>
            <Time>2020-12-05T12:47:12.000Z</Time>
            <Position>
              <LatitudeDegrees>36.83176469989120960235595703125</LatitudeDegrees>
              <LongitudeDegrees>-4.382041878998279571533203125</LongitudeDegrees>
            </Position>
            <AltitudeMeters>703.79998779296875</AltitudeMeters>
            <DistanceMeters>NAN</DistanceMeters>
          </Trackpoint>
          <Trackpoint>
            <Time>2020-12-05T12:47:13.000Z</Time>
            <Position>
              <LatitudeDegrees>36.83176168240606784820556640625</LatitudeDegrees>
              <LongitudeDegrees>-4.3820576369762420654296875</LongitudeDegrees>
            </Position>
            <AltitudeMeters>703.79998779296875</AltitudeMeters>
            <DistanceMeters>NAN</DistanceMeters>
          </Trackpoint>
          <Trackpoint>
            <Time>2020-12-05T12:47:14.000Z</Time>
            <Position>
              <LatitudeDegrees>36.83176235295832157135009765625</LatitudeDegrees>
              <LongitudeDegrees>-4.38207197003066539764404296875</LongitudeDegrees>
            </Position>
            <AltitudeMeters>703.79998779296875</AltitudeMeters>
            <DistanceMeters>NAN</DistanceMeters>
          </Trackpoint>
          <Trackpoint>
            <Time>2020-12-05T12:47:15.000Z</Time>
            <Position>
              <LatitudeDegrees>36.83176092803478240966796875</LatitudeDegrees>
              <LongitudeDegrees>-4.38208471052348613739013671875</LongitudeDegrees>
            </Position>
            <AltitudeMeters>703.79998779296875</AltitudeMeters>
            <DistanceMeters>NAN</DistanceMeters>
          </Trackpoint>
          <Trackpoint>
            <Time>2020-12-05T12:47:16.000Z</Time>
            <Position>
              <LatitudeDegrees>36.8317597545683383941650390625</LatitudeDegrees>
              <LongitudeDegrees>-4.38209728337824344635009765625</LongitudeDegrees>
            </Position>
            <AltitudeMeters>703.79998779296875</AltitudeMeters>
            <DistanceMeters>NAN</DistanceMeters>
          </Trackpoint>
          <Trackpoint>
            <Time>2020-12-05T12:47:17.000Z</Time>
            <Position>
              <LatitudeDegrees>36.8317570723593235015869140625</LatitudeDegrees>
              <LongitudeDegrees>-4.382109604775905609130859375</LongitudeDegrees>
            </Position>
            <AltitudeMeters>703.79998779296875</AltitudeMeters>
            <DistanceMeters>NAN</DistanceMeters>
          </Trackpoint>
          <Trackpoint>
            <Time>2020-12-05T12:47:18.000Z</Time>
            <Position>
              <LatitudeDegrees>36.831755228340625762939453125</LatitudeDegrees>
              <LongitudeDegrees>-4.3821211718022823333740234375</LongitudeDegrees>
            </Position>
            <AltitudeMeters>703.79998779296875</AltitudeMeters>
            <DistanceMeters>NAN</DistanceMeters>
          </Trackpoint>
          <Trackpoint>
            <Time>2020-12-05T12:47:19.000Z</Time>
            <Position>
              <LatitudeDegrees>36.83175413869321346282958984375</LatitudeDegrees>
              <LongitudeDegrees>-4.3821349181234836578369140625</LongitudeDegrees>
            </Position>
            <AltitudeMeters>703.79998779296875</AltitudeMeters>
            <DistanceMeters>NAN</DistanceMeters>
          </Trackpoint>
          <Trackpoint>
            <Time>2020-12-05T12:47:20.000Z</Time>
            <Position>
              <LatitudeDegrees>36.8317510373890399932861328125</LatitudeDegrees>
              <LongitudeDegrees>-4.38214958645403385162353515625</LongitudeDegrees>
            </Position>
            <AltitudeMeters>703.79998779296875</AltitudeMeters>
            <DistanceMeters>NAN</DistanceMeters>
          </Trackpoint>
          <Trackpoint>
            <Time>2020-12-05T12:47:21.000Z</Time>
            <Position>
              <LatitudeDegrees>36.8317419849336147308349609375</LatitudeDegrees>
              <LongitudeDegrees>-4.3821640871465206146240234375</LongitudeDegrees>
            </Position>
            <AltitudeMeters>703.79998779296875</AltitudeMeters>
            <DistanceMeters>NAN</DistanceMeters>
          </Trackpoint>
          <Trackpoint>
            <Time>2020-12-05T12:47:22.000Z</Time>
            <Position>
              <LatitudeDegrees>36.83173569850623607635498046875</LatitudeDegrees>
              <LongitudeDegrees>-4.3821781687438488006591796875</LongitudeDegrees>
            </Position>
            <AltitudeMeters>703.79998779296875</AltitudeMeters>
            <DistanceMeters>NAN</DistanceMeters>
          </Trackpoint>
          <Trackpoint>
            <Time>2020-12-05T12:47:23.000Z</Time>
            <Position>
              <LatitudeDegrees>36.831731088459491729736328125</LatitudeDegrees>
              <LongitudeDegrees>-4.38218680210411548614501953125</LongitudeDegrees>
            </Position>
            <AltitudeMeters>703.79998779296875</AltitudeMeters>
            <DistanceMeters>NAN</DistanceMeters>
          </Trackpoint>
          <Trackpoint>
            <Time>2020-12-05T12:47:24.000Z</Time>
            <Position>
              <LatitudeDegrees>36.83172605931758880615234375</LatitudeDegrees>
              <LongitudeDegrees>-4.382195770740509033203125</LongitudeDegrees>
            </Position>
            <AltitudeMeters>703.79998779296875</AltitudeMeters>
            <DistanceMeters>NAN</DistanceMeters>
          </Trackpoint>
          <Trackpoint>
            <Time>2020-12-05T12:47:25.000Z</Time>
            <Position>
              <LatitudeDegrees>36.831720359623432159423828125</LatitudeDegrees>
              <LongitudeDegrees>-4.38220272772014141082763671875</LongitudeDegrees>
            </Position>
            <AltitudeMeters>703.79998779296875</AltitudeMeters>
            <DistanceMeters>NAN</DistanceMeters>
          </Trackpoint>
          <Trackpoint>
            <Time>2020-12-05T12:47:26.000Z</Time>
            <Position>
              <LatitudeDegrees>36.831714324653148651123046875</LatitudeDegrees>
              <LongitudeDegrees>-4.3822105228900909423828125</LongitudeDegrees>
            </Position>
            <AltitudeMeters>703.79998779296875</AltitudeMeters>
            <DistanceMeters>NAN</DistanceMeters>
          </Trackpoint>
          <Trackpoint>
            <Time>2020-12-05T12:47:27.000Z</Time>
            <Position>
              <LatitudeDegrees>36.831704266369342803955078125</LatitudeDegrees>
              <LongitudeDegrees>-4.38221991062164306640625</LongitudeDegrees>
            </Position>
            <AltitudeMeters>703.79998779296875</AltitudeMeters>
            <DistanceMeters>NAN</DistanceMeters>
          </Trackpoint>
          <Trackpoint>
            <Time>2020-12-05T12:47:28.000Z</Time>
            <Position>
              <LatitudeDegrees>36.831696890294551849365234375</LatitudeDegrees>
              <LongitudeDegrees>-4.38222703523933887481689453125</LongitudeDegrees>
            </Position>
            <AltitudeMeters>703.79998779296875</AltitudeMeters>
            <DistanceMeters>NAN</DistanceMeters>
          </Trackpoint>
          <Trackpoint>
            <Time>2020-12-05T12:47:29.000Z</Time>
            <Position>
              <LatitudeDegrees>36.83169119060039520263671875</LatitudeDegrees>
              <LongitudeDegrees>-4.38223441131412982940673828125</LongitudeDegrees>
            </Position>
            <AltitudeMeters>703.79998779296875</AltitudeMeters>
            <DistanceMeters>NAN</DistanceMeters>
          </Trackpoint>
          <Trackpoint>
            <Time>2020-12-05T12:47:30.000Z</Time>
            <Position>
              <LatitudeDegrees>36.83168859221041202545166015625</LatitudeDegrees>
              <LongitudeDegrees>-4.38224178738892078399658203125</LongitudeDegrees>
            </Position>
            <AltitudeMeters>703.79998779296875</AltitudeMeters>
            <DistanceMeters>NAN</DistanceMeters>
          </Trackpoint>
          <Trackpoint>
            <Time>2020-12-05T12:47:31.000Z</Time>
            <Position>
              <LatitudeDegrees>36.83168523944914340972900390625</LatitudeDegrees>
              <LongitudeDegrees>-4.38224815763533115386962890625</LongitudeDegrees>
            </Position>
            <AltitudeMeters>703.79998779296875</AltitudeMeters>
            <DistanceMeters>NAN</DistanceMeters>
          </Trackpoint>
          <Trackpoint>
            <Time>2020-12-05T12:47:32.000Z</Time>
            <Position>
              <LatitudeDegrees>36.83168339543044567108154296875</LatitudeDegrees>
              <LongitudeDegrees>-4.3822613172233104705810546875</LongitudeDegrees>
            </Position>
            <AltitudeMeters>703.79998779296875</AltitudeMeters>
            <DistanceMeters>NAN</DistanceMeters>
          </Trackpoint>
          <Trackpoint>
            <Time>2020-12-05T12:47:33.000Z</Time>
            <Position>
              <LatitudeDegrees>36.831682138144969940185546875</LatitudeDegrees>
              <LongitudeDegrees>-4.3822723813354969024658203125</LongitudeDegrees>
            </Position>
            <AltitudeMeters>703.79998779296875</AltitudeMeters>
            <DistanceMeters>NAN</DistanceMeters>
          </Trackpoint>
          <Trackpoint>
            <Time>2020-12-05T12:47:34.000Z</Time>
            <Position>
              <LatitudeDegrees>36.83167937211692333221435546875</LatitudeDegrees>
              <LongitudeDegrees>-4.38228436745703220367431640625</LongitudeDegrees>
            </Position>
            <AltitudeMeters>703.79998779296875</AltitudeMeters>
            <DistanceMeters>NAN</DistanceMeters>
          </Trackpoint>
          <Trackpoint>
            <Time>2020-12-05T12:47:35.000Z</Time>
            <Position>
              <LatitudeDegrees>36.83167501352727413177490234375</LatitudeDegrees>
              <LongitudeDegrees>-4.38229626975953578948974609375</LongitudeDegrees>
            </Position>
            <AltitudeMeters>703.79998779296875</AltitudeMeters>
            <DistanceMeters>NAN</DistanceMeters>
          </Trackpoint>
          <Trackpoint>
            <Time>2020-12-05T12:47:36.000Z</Time>
            <Position>
              <LatitudeDegrees>36.83167115785181522369384765625</LatitudeDegrees>
              <LongitudeDegrees>-4.3823065795004367828369140625</LongitudeDegrees>
            </Position>
            <AltitudeMeters>703.79998779296875</AltitudeMeters>
            <DistanceMeters>NAN</DistanceMeters>
          </Trackpoint>
          <Trackpoint>
            <Time>2020-12-05T12:47:37.000Z</Time>
            <Position>
              <LatitudeDegrees>36.83166579343378543853759765625</LatitudeDegrees>
              <LongitudeDegrees>-4.3823193199932575225830078125</LongitudeDegrees>
            </Position>
            <AltitudeMeters>703.79998779296875</AltitudeMeters>
            <DistanceMeters>NAN</DistanceMeters>
          </Trackpoint>
          <Trackpoint>
            <Time>2020-12-05T12:47:38.000Z</Time>
            <Position>
              <LatitudeDegrees>36.831659339368343353271484375</LatitudeDegrees>
              <LongitudeDegrees>-4.382330216467380523681640625</LongitudeDegrees>
            </Position>
            <AltitudeMeters>703.79998779296875</AltitudeMeters>
            <DistanceMeters>NAN</DistanceMeters>
          </Trackpoint>
          <Trackpoint>
            <Time>2020-12-05T12:47:39.000Z</Time>
            <Position>
              <LatitudeDegrees>36.831651292741298675537109375</LatitudeDegrees>
              <LongitudeDegrees>-4.38233968801796436309814453125</LongitudeDegrees>
            </Position>
            <AltitudeMeters>703.79998779296875</AltitudeMeters>
            <DistanceMeters>NAN</DistanceMeters>
          </Trackpoint>
          <Trackpoint>
            <Time>2020-12-05T12:47:40.000Z</Time>
            <Position>
              <LatitudeDegrees>36.83164249174296855926513671875</LatitudeDegrees>
              <LongitudeDegrees>-4.3823501653969287872314453125</LongitudeDegrees>
            </Position>
            <AltitudeMeters>703.79998779296875</AltitudeMeters>
            <DistanceMeters>NAN</DistanceMeters>
          </Trackpoint>
          <Trackpoint>
            <Time>2020-12-05T12:47:41.000Z</Time>
            <Position>
              <LatitudeDegrees>36.83163343928754329681396484375</LatitudeDegrees>
              <LongitudeDegrees>-4.3823607265949249267578125</LongitudeDegrees>
            </Position>
            <AltitudeMeters>703.79998779296875</AltitudeMeters>
            <DistanceMeters>NAN</DistanceMeters>
          </Trackpoint>
          <Trackpoint>
            <Time>2020-12-05T12:47:42.000Z</Time>
            <Position>
              <LatitudeDegrees>36.83162572793662548065185546875</LatitudeDegrees>
              <LongitudeDegrees>-4.3823679350316524505615234375</LongitudeDegrees>
            </Position>
            <AltitudeMeters>703.79998779296875</AltitudeMeters>
            <DistanceMeters>NAN</DistanceMeters>
          </Trackpoint>
          <Trackpoint>
            <Time>2020-12-05T12:47:43.000Z</Time>
            <Position>
              <LatitudeDegrees>36.83161717839539051055908203125</LatitudeDegrees>
              <LongitudeDegrees>-4.38237723894417285919189453125</LongitudeDegrees>
            </Position>
            <AltitudeMeters>703.79998779296875</AltitudeMeters>
            <DistanceMeters>NAN</DistanceMeters>
          </Trackpoint>
          <Trackpoint>
            <Time>2020-12-05T12:47:44.000Z</Time>
            <Position>
              <LatitudeDegrees>36.8316100537776947021484375</LatitudeDegrees>
              <LongitudeDegrees>-4.38238830305635929107666015625</LongitudeDegrees>
            </Position>
            <AltitudeMeters>703.79998779296875</AltitudeMeters>
            <DistanceMeters>NAN</DistanceMeters>
          </Trackpoint>
          <Trackpoint>
            <Time>2020-12-05T12:47:45.000Z</Time>
            <Position>
              <LatitudeDegrees>36.83160133659839630126953125</LatitudeDegrees>
              <LongitudeDegrees>-4.382395260035991668701171875</LongitudeDegrees>
            </Position>
            <AltitudeMeters>703.79998779296875</AltitudeMeters>
            <DistanceMeters>NAN</DistanceMeters>
          </Trackpoint>
          <Trackpoint>
            <Time>2020-12-05T12:47:46.000Z</Time>
            <Position>
              <LatitudeDegrees>36.8315907754004001617431640625</LatitudeDegrees>
              <LongitudeDegrees>-4.382400624454021453857421875</LongitudeDegrees>
            </Position>
            <AltitudeMeters>703.79998779296875</AltitudeMeters>
            <DistanceMeters>NAN</DistanceMeters>
          </Trackpoint>
          <Trackpoint>
            <Time>2020-12-05T12:47:47.000Z</Time>
            <Position>
              <LatitudeDegrees>36.8315803818404674530029296875</LatitudeDegrees>
              <LongitudeDegrees>-4.38240297138690948486328125</LongitudeDegrees>
            </Position>
            <AltitudeMeters>703.79998779296875</AltitudeMeters>
            <DistanceMeters>NAN</DistanceMeters>
          </Trackpoint>
          <Trackpoint>
            <Time>2020-12-05T12:47:48.000Z</Time>
            <Position>
              <LatitudeDegrees>36.83157057501375675201416015625</LatitudeDegrees>
              <LongitudeDegrees>-4.38240305520594120025634765625</LongitudeDegrees>
            </Position>
            <AltitudeMeters>703.79998779296875</AltitudeMeters>
            <DistanceMeters>NAN</DistanceMeters>
          </Trackpoint>
          <Trackpoint>
            <Time>2020-12-05T12:47:49.000Z</Time>
            <Position>
              <LatitudeDegrees>36.83156085200607776641845703125</LatitudeDegrees>
              <LongitudeDegrees>-4.3824036419391632080078125</LongitudeDegrees>
            </Position>
            <AltitudeMeters>703.79998779296875</AltitudeMeters>
            <DistanceMeters>NAN</DistanceMeters>
          </Trackpoint>
          <Trackpoint>
            <Time>2020-12-05T12:47:50.000Z</Time>
            <Position>
              <LatitudeDegrees>36.83155146427452564239501953125</LatitudeDegrees>
              <LongitudeDegrees>-4.38240221701562404632568359375</LongitudeDegrees>
            </Position>
            <AltitudeMeters>703.79998779296875</AltitudeMeters>
            <DistanceMeters>NAN</DistanceMeters>
          </Trackpoint>
          <Trackpoint>
            <Time>2020-12-05T12:47:51.000Z</Time>
            <Position>
              <LatitudeDegrees>36.83154341764748096466064453125</LatitudeDegrees>
              <LongitudeDegrees>-4.382404647767543792724609375</LongitudeDegrees>
            </Position>
            <AltitudeMeters>703.79998779296875</AltitudeMeters>
            <DistanceMeters>NAN</DistanceMeters>
          </Trackpoint>
          <Trackpoint>
            <Time>2020-12-05T12:47:52.000Z</Time>
            <Position>
              <LatitudeDegrees>36.8315374664962291717529296875</LatitudeDegrees>
              <LongitudeDegrees>-4.3824014626443386077880859375</LongitudeDegrees>
            </Position>
            <AltitudeMeters>703.79998779296875</AltitudeMeters>
            <DistanceMeters>NAN</DistanceMeters>
          </Trackpoint>
          <Trackpoint>
            <Time>2020-12-05T12:47:53.000Z</Time>
            <Position>
              <LatitudeDegrees>36.831529922783374786376953125</LatitudeDegrees>
              <LongitudeDegrees>-4.38239802606403827667236328125</LongitudeDegrees>
            </Position>
            <AltitudeMeters>703.79998779296875</AltitudeMeters>
            <DistanceMeters>NAN</DistanceMeters>
          </Trackpoint>
          <Trackpoint>
            <Time>2020-12-05T12:47:54.000Z</Time>
            <Position>
              <LatitudeDegrees>36.8315220437943935394287109375</LatitudeDegrees>
              <LongitudeDegrees>-4.3823950923979282379150390625</LongitudeDegrees>
            </Position>
            <AltitudeMeters>703.79998779296875</AltitudeMeters>
            <DistanceMeters>NAN</DistanceMeters>
          </Trackpoint>
          <Trackpoint>
            <Time>2020-12-05T12:47:55.000Z</Time>
            <Position>
              <LatitudeDegrees>36.83151416480541229248046875</LatitudeDegrees>
              <LongitudeDegrees>-4.38239517621695995330810546875</LongitudeDegrees>
            </Position>
            <AltitudeMeters>703.79998779296875</AltitudeMeters>
            <DistanceMeters>NAN</DistanceMeters>
          </Trackpoint>
          <Trackpoint>
            <Time>2020-12-05T12:47:56.000Z</Time>
            <Position>
              <LatitudeDegrees>36.83150603435933589935302734375</LatitudeDegrees>
              <LongitudeDegrees>-4.38239182345569133758544921875</LongitudeDegrees>
            </Position>
            <AltitudeMeters>703.79998779296875</AltitudeMeters>
            <DistanceMeters>NAN</DistanceMeters>
          </Trackpoint>
          <Trackpoint>
            <Time>2020-12-05T12:47:57.000Z</Time>
            <Position>
              <LatitudeDegrees>36.83149538934230804443359375</LatitudeDegrees>
              <LongitudeDegrees>-4.38239224255084991455078125</LongitudeDegrees>
            </Position>
            <AltitudeMeters>703.79998779296875</AltitudeMeters>
            <DistanceMeters>NAN</DistanceMeters>
          </Trackpoint>
          <Trackpoint>
            <Time>2020-12-05T12:47:58.000Z</Time>
            <Position>
              <LatitudeDegrees>36.831481643021106719970703125</LatitudeDegrees>
              <LongitudeDegrees>-4.38239148817956447601318359375</LongitudeDegrees>
            </Position>
            <AltitudeMeters>703.79998779296875</AltitudeMeters>
            <DistanceMeters>NAN</DistanceMeters>
          </Trackpoint>
          <Trackpoint>
            <Time>2020-12-05T12:47:59.000Z</Time>
            <Position>
              <LatitudeDegrees>36.8314643763005733489990234375</LatitudeDegrees>
              <LongitudeDegrees>-4.382393248379230499267578125</LongitudeDegrees>
            </Position>
            <AltitudeMeters>703.79998779296875</AltitudeMeters>
            <DistanceMeters>NAN</DistanceMeters>
          </Trackpoint>
          <Trackpoint>
            <Time>2020-12-05T12:48:00.000Z</Time>
            <Position>
              <LatitudeDegrees>36.83144937269389629364013671875</LatitudeDegrees>
              <LongitudeDegrees>-4.38239266164600849151611328125</LongitudeDegrees>
            </Position>
            <AltitudeMeters>711</AltitudeMeters>
            <DistanceMeters>NAN</DistanceMeters>
          </Trackpoint>
          <Trackpoint>
            <Time>2020-12-05T12:48:01.000Z</Time>
            <Position>
              <LatitudeDegrees>36.8314335308969020843505859375</LatitudeDegrees>
              <LongitudeDegrees>-4.38239249400794506072998046875</LongitudeDegrees>
            </Position>
            <AltitudeMeters>711</AltitudeMeters>
            <DistanceMeters>NAN</DistanceMeters>
          </Trackpoint>
          <Trackpoint>
            <Time>2020-12-05T12:48:02.000Z</Time>
            <Position>
              <LatitudeDegrees>36.83141634799540042877197265625</LatitudeDegrees>
              <LongitudeDegrees>-4.38239869661629199981689453125</LongitudeDegrees>
            </Position>
            <AltitudeMeters>711</AltitudeMeters>
            <DistanceMeters>NAN</DistanceMeters>
          </Trackpoint>
          <Trackpoint>
            <Time>2020-12-05T12:48:03.000Z</Time>
            <Position>
              <LatitudeDegrees>36.83140159584581851959228515625</LatitudeDegrees>
              <LongitudeDegrees>-4.3824048154056072235107421875</LongitudeDegrees>
            </Position>
            <AltitudeMeters>711</AltitudeMeters>
            <DistanceMeters>NAN</DistanceMeters>
          </Trackpoint>
          <Trackpoint>
            <Time>2020-12-05T12:48:04.000Z</Time>
            <Position>
              <LatitudeDegrees>36.8313899450004100799560546875</LatitudeDegrees>
              <LongitudeDegrees>-4.38241177238523960113525390625</LongitudeDegrees>
            </Position>
            <AltitudeMeters>711</AltitudeMeters>
            <DistanceMeters>NAN</DistanceMeters>
          </Trackpoint>
          <Trackpoint>
            <Time>2020-12-05T12:48:05.000Z</Time>
            <Position>
              <LatitudeDegrees>36.83137871325016021728515625</LatitudeDegrees>
              <LongitudeDegrees>-4.38241663388907909393310546875</LongitudeDegrees>
            </Position>
            <AltitudeMeters>711</AltitudeMeters>
            <DistanceMeters>NAN</DistanceMeters>
          </Trackpoint>
          <Trackpoint>
            <Time>2020-12-05T12:48:06.000Z</Time>
            <Position>
              <LatitudeDegrees>36.83136957697570323944091796875</LatitudeDegrees>
              <LongitudeDegrees>-4.3824245966970920562744140625</LongitudeDegrees>
            </Position>
            <AltitudeMeters>711</AltitudeMeters>
            <DistanceMeters>NAN</DistanceMeters>
          </Trackpoint>
          <Trackpoint>
            <Time>2020-12-05T12:48:07.000Z</Time>
            <Position>
              <LatitudeDegrees>36.8313590995967388153076171875</LatitudeDegrees>
              <LongitudeDegrees>-4.38242970965802669525146484375</LongitudeDegrees>
            </Position>
            <AltitudeMeters>711</AltitudeMeters>
            <DistanceMeters>NAN</DistanceMeters>
          </Trackpoint>
          <Trackpoint>
            <Time>2020-12-05T12:48:08.000Z</Time>
            <Position>
              <LatitudeDegrees>36.83134795166552066802978515625</LatitudeDegrees>
              <LongitudeDegrees>-4.38243247568607330322265625</LongitudeDegrees>
            </Position>
            <AltitudeMeters>711</AltitudeMeters>
            <DistanceMeters>NAN</DistanceMeters>
          </Trackpoint>
          <Trackpoint>
            <Time>2020-12-05T12:48:09.000Z</Time>
            <Position>
              <LatitudeDegrees>36.831338815391063690185546875</LatitudeDegrees>
              <LongitudeDegrees>-4.382436163723468780517578125</LongitudeDegrees>
            </Position>
            <AltitudeMeters>711</AltitudeMeters>
            <DistanceMeters>NAN</DistanceMeters>
          </Trackpoint>
          <Trackpoint>
            <Time>2020-12-05T12:48:10.000Z</Time>
            <Position>
              <LatitudeDegrees>36.8313306011259555816650390625</LatitudeDegrees>
              <LongitudeDegrees>-4.38244010321795940399169921875</LongitudeDegrees>
            </Position>
            <AltitudeMeters>711</AltitudeMeters>
            <DistanceMeters>NAN</DistanceMeters>
          </Trackpoint>
          <Trackpoint>
            <Time>2020-12-05T12:48:11.000Z</Time>
            <Position>
              <LatitudeDegrees>36.83131911791861057281494140625</LatitudeDegrees>
              <LongitudeDegrees>-4.3824433721601963043212890625</LongitudeDegrees>
            </Position>
            <AltitudeMeters>711</AltitudeMeters>
            <DistanceMeters>NAN</DistanceMeters>
          </Trackpoint>
          <Trackpoint>
            <Time>2020-12-05T12:48:12.000Z</Time>
            <Position>
              <LatitudeDegrees>36.8313061259686946868896484375</LatitudeDegrees>
              <LongitudeDegrees>-4.38244814984500408172607421875</LongitudeDegrees>
            </Position>
            <AltitudeMeters>711</AltitudeMeters>
            <DistanceMeters>NAN</DistanceMeters>
          </Trackpoint>
          <Trackpoint>
            <Time>2020-12-05T12:48:13.000Z</Time>
            <Position>
              <LatitudeDegrees>36.8312974087893962860107421875</LatitudeDegrees>
              <LongitudeDegrees>-4.38244915567338466644287109375</LongitudeDegrees>
            </Position>
            <AltitudeMeters>711</AltitudeMeters>
            <DistanceMeters>NAN</DistanceMeters>
          </Trackpoint>
          <Trackpoint>
            <Time>2020-12-05T12:48:14.000Z</Time>
            <Position>
              <LatitudeDegrees>36.8312886916100978851318359375</LatitudeDegrees>
              <LongitudeDegrees>-4.38245519064366817474365234375</LongitudeDegrees>
            </Position>
            <AltitudeMeters>711</AltitudeMeters>
            <DistanceMeters>NAN</DistanceMeters>
          </Trackpoint>
          <Trackpoint>
            <Time>2020-12-05T12:48:15.000Z</Time>
            <Position>
              <LatitudeDegrees>36.83127569966018199920654296875</LatitudeDegrees>
              <LongitudeDegrees>-4.38245602883398532867431640625</LongitudeDegrees>
            </Position>
            <AltitudeMeters>711</AltitudeMeters>
            <DistanceMeters>NAN</DistanceMeters>
          </Trackpoint>
          <Trackpoint>
            <Time>2020-12-05T12:48:16.000Z</Time>
            <Position>
              <LatitudeDegrees>36.83126446790993213653564453125</LatitudeDegrees>
              <LongitudeDegrees>-4.38245661556720733642578125</LongitudeDegrees>
            </Position>
            <AltitudeMeters>711</AltitudeMeters>
            <DistanceMeters>NAN</DistanceMeters>
          </Trackpoint>
          <Trackpoint>
            <Time>2020-12-05T12:48:17.000Z</Time>
            <Position>
              <LatitudeDegrees>36.8312518112361431121826171875</LatitudeDegrees>
              <LongitudeDegrees>-4.38245619647204875946044921875</LongitudeDegrees>
            </Position>
            <AltitudeMeters>711</AltitudeMeters>
            <DistanceMeters>NAN</DistanceMeters>
          </Trackpoint>
          <Trackpoint>
            <Time>2020-12-05T12:48:18.000Z</Time>
            <Position>
              <LatitudeDegrees>36.83123781345784664154052734375</LatitudeDegrees>
              <LongitudeDegrees>-4.382454268634319305419921875</LongitudeDegrees>
            </Position>
            <AltitudeMeters>711</AltitudeMeters>
            <DistanceMeters>NAN</DistanceMeters>
          </Trackpoint>
          <Trackpoint>
            <Time>2020-12-05T12:48:19.000Z</Time>
            <Position>
              <LatitudeDegrees>36.83122389949858188629150390625</LatitudeDegrees>
              <LongitudeDegrees>-4.38245527446269989013671875</LongitudeDegrees>
            </Position>
            <AltitudeMeters>711</AltitudeMeters>
            <DistanceMeters>NAN</DistanceMeters>
          </Trackpoint>
          <Trackpoint>
            <Time>2020-12-05T12:48:20.000Z</Time>
            <Position>
              <LatitudeDegrees>36.83121333830058574676513671875</LatitudeDegrees>
              <LongitudeDegrees>-4.3824581243097782135009765625</LongitudeDegrees>
            </Position>
            <AltitudeMeters>711</AltitudeMeters>
            <DistanceMeters>NAN</DistanceMeters>
          </Trackpoint>
          <Trackpoint>
            <Time>2020-12-05T12:48:21.000Z</Time>
            <Position>
              <LatitudeDegrees>36.83120302855968475341796875</LatitudeDegrees>
              <LongitudeDegrees>-4.3824621476233005523681640625</LongitudeDegrees>
            </Position>
            <AltitudeMeters>711</AltitudeMeters>
            <DistanceMeters>NAN</DistanceMeters>
          </Trackpoint>
          <Trackpoint>
            <Time>2020-12-05T12:48:22.000Z</Time>
            <Position>
              <LatitudeDegrees>36.8311916291713714599609375</LatitudeDegrees>
              <LongitudeDegrees>-4.3824668414890766143798828125</LongitudeDegrees>
            </Position>
            <AltitudeMeters>711</AltitudeMeters>
            <DistanceMeters>NAN</DistanceMeters>
          </Trackpoint>
          <Trackpoint>
            <Time>2020-12-05T12:48:23.000Z</Time>
            <Position>
              <LatitudeDegrees>36.831178553402423858642578125</LatitudeDegrees>
              <LongitudeDegrees>-4.38247539103031158447265625</LongitudeDegrees>
            </Position>
            <AltitudeMeters>711</AltitudeMeters>
            <DistanceMeters>NAN</DistanceMeters>
          </Trackpoint>
          <Trackpoint>
            <Time>2020-12-05T12:48:24.000Z</Time>
            <Position>
              <LatitudeDegrees>36.83116556145250797271728515625</LatitudeDegrees>
              <LongitudeDegrees>-4.3824839405715465545654296875</LongitudeDegrees>
            </Position>
            <AltitudeMeters>711</AltitudeMeters>
            <DistanceMeters>NAN</DistanceMeters>
          </Trackpoint>
          <Trackpoint>
            <Time>2020-12-05T12:48:25.000Z</Time>
            <Position>
              <LatitudeDegrees>36.83115416206419467926025390625</LatitudeDegrees>
              <LongitudeDegrees>-4.38249156810343265533447265625</LongitudeDegrees>
            </Position>
            <AltitudeMeters>711</AltitudeMeters>
            <DistanceMeters>NAN</DistanceMeters>
          </Trackpoint>
          <Trackpoint>
            <Time>2020-12-05T12:48:26.000Z</Time>
            <Position>
              <LatitudeDegrees>36.8311445228755474090576171875</LatitudeDegrees>
              <LongitudeDegrees>-4.38249953091144561767578125</LongitudeDegrees>
            </Position>
            <AltitudeMeters>711</AltitudeMeters>
            <DistanceMeters>NAN</DistanceMeters>
          </Trackpoint>
          <Trackpoint>
            <Time>2020-12-05T12:48:27.000Z</Time>
            <Position>
              <LatitudeDegrees>36.83113588951528072357177734375</LatitudeDegrees>
              <LongitudeDegrees>-4.38250514678657054901123046875</LongitudeDegrees>
            </Position>
            <AltitudeMeters>711</AltitudeMeters>
            <DistanceMeters>NAN</DistanceMeters>
          </Trackpoint>
          <Trackpoint>
            <Time>2020-12-05T12:48:28.000Z</Time>
            <Position>
              <LatitudeDegrees>36.83112683705985546112060546875</LatitudeDegrees>
              <LongitudeDegrees>-4.38251428306102752685546875</LongitudeDegrees>
            </Position>
            <AltitudeMeters>711</AltitudeMeters>
            <DistanceMeters>NAN</DistanceMeters>
          </Trackpoint>
          <Trackpoint>
            <Time>2020-12-05T12:48:29.000Z</Time>
            <Position>
              <LatitudeDegrees>36.83111845515668392181396484375</LatitudeDegrees>
              <LongitudeDegrees>-4.38252241350710391998291015625</LongitudeDegrees>
            </Position>
            <AltitudeMeters>711</AltitudeMeters>
            <DistanceMeters>NAN</DistanceMeters>
          </Trackpoint>
          <Trackpoint>
            <Time>2020-12-05T12:48:30.000Z</Time>
            <Position>
              <LatitudeDegrees>36.83111091144382953643798828125</LatitudeDegrees>
              <LongitudeDegrees>-4.38252828083932399749755859375</LongitudeDegrees>
            </Position>
            <AltitudeMeters>711</AltitudeMeters>
            <DistanceMeters>NAN</DistanceMeters>
          </Trackpoint>
          <Trackpoint>
            <Time>2020-12-05T12:48:31.000Z</Time>
            <Position>
              <LatitudeDegrees>36.831101439893245697021484375</LatitudeDegrees>
              <LongitudeDegrees>-4.38252911902964115142822265625</LongitudeDegrees>
            </Position>
            <AltitudeMeters>711</AltitudeMeters>
            <DistanceMeters>NAN</DistanceMeters>
          </Trackpoint>
          <Trackpoint>
            <Time>2020-12-05T12:48:32.000Z</Time>
            <Position>
              <LatitudeDegrees>36.83109163306653499603271484375</LatitudeDegrees>
              <LongitudeDegrees>-4.38252710737287998199462890625</LongitudeDegrees>
            </Position>
            <AltitudeMeters>711</AltitudeMeters>
            <DistanceMeters>NAN</DistanceMeters>
          </Trackpoint>
          <Trackpoint>
            <Time>2020-12-05T12:48:33.000Z</Time>
            <Position>
              <LatitudeDegrees>36.8310808204114437103271484375</LatitudeDegrees>
              <LongitudeDegrees>-4.38252744264900684356689453125</LongitudeDegrees>
            </Position>
            <AltitudeMeters>711</AltitudeMeters>
            <DistanceMeters>NAN</DistanceMeters>
          </Trackpoint>
          <Trackpoint>
            <Time>2020-12-05T12:48:34.000Z</Time>
            <Position>
              <LatitudeDegrees>36.8310680799186229705810546875</LatitudeDegrees>
              <LongitudeDegrees>-4.38252895139157772064208984375</LongitudeDegrees>
            </Position>
            <AltitudeMeters>711</AltitudeMeters>
            <DistanceMeters>NAN</DistanceMeters>
          </Trackpoint>
          <Trackpoint>
            <Time>2020-12-05T12:48:35.000Z</Time>
            <Position>
              <LatitudeDegrees>36.83105374686419963836669921875</LatitudeDegrees>
              <LongitudeDegrees>-4.382532052695751190185546875</LongitudeDegrees>
            </Position>
            <AltitudeMeters>711</AltitudeMeters>
            <DistanceMeters>NAN</DistanceMeters>
          </Trackpoint>
          <Trackpoint>
            <Time>2020-12-05T12:48:36.000Z</Time>
            <Position>
              <LatitudeDegrees>36.83103941380977630615234375</LatitudeDegrees>
              <LongitudeDegrees>-4.3825375847518444061279296875</LongitudeDegrees>
            </Position>
            <AltitudeMeters>711</AltitudeMeters>
            <DistanceMeters>NAN</DistanceMeters>
          </Trackpoint>
          <Trackpoint>
            <Time>2020-12-05T12:48:37.000Z</Time>
            <Position>
              <LatitudeDegrees>36.8310280144214630126953125</LatitudeDegrees>
              <LongitudeDegrees>-4.382542781531810760498046875</LongitudeDegrees>
            </Position>
            <AltitudeMeters>711</AltitudeMeters>
            <DistanceMeters>NAN</DistanceMeters>
          </Trackpoint>
          <Trackpoint>
            <Time>2020-12-05T12:48:38.000Z</Time>
            <Position>
              <LatitudeDegrees>36.83101703412830829620361328125</LatitudeDegrees>
              <LongitudeDegrees>-4.38254923559725284576416015625</LongitudeDegrees>
            </Position>
            <AltitudeMeters>711</AltitudeMeters>
            <DistanceMeters>NAN</DistanceMeters>
          </Trackpoint>
          <Trackpoint>
            <Time>2020-12-05T12:48:39.000Z</Time>
            <Position>
              <LatitudeDegrees>36.8310067243874073028564453125</LatitudeDegrees>
              <LongitudeDegrees>-4.3825538456439971923828125</LongitudeDegrees>
            </Position>
            <AltitudeMeters>711</AltitudeMeters>
            <DistanceMeters>NAN</DistanceMeters>
          </Trackpoint>
          <Trackpoint>
            <Time>2020-12-05T12:48:40.000Z</Time>
            <Position>
              <LatitudeDegrees>36.83099524118006229400634765625</LatitudeDegrees>
              <LongitudeDegrees>-4.38255661167204380035400390625</LongitudeDegrees>
            </Position>
            <AltitudeMeters>711</AltitudeMeters>
            <DistanceMeters>NAN</DistanceMeters>
          </Trackpoint>
          <Trackpoint>
            <Time>2020-12-05T12:48:41.000Z</Time>
            <Position>
              <LatitudeDegrees>36.8309850990772247314453125</LatitudeDegrees>
              <LongitudeDegrees>-4.38255845569074153900146484375</LongitudeDegrees>
            </Position>
            <AltitudeMeters>711</AltitudeMeters>
            <DistanceMeters>NAN</DistanceMeters>
          </Trackpoint>
          <Trackpoint>
            <Time>2020-12-05T12:48:42.000Z</Time>
            <Position>
              <LatitudeDegrees>36.8309775553643703460693359375</LatitudeDegrees>
              <LongitudeDegrees>-4.382562898099422454833984375</LongitudeDegrees>
            </Position>
            <AltitudeMeters>711</AltitudeMeters>
            <DistanceMeters>NAN</DistanceMeters>
          </Trackpoint>
          <Trackpoint>
            <Time>2020-12-05T12:48:43.000Z</Time>
            <Position>
              <LatitudeDegrees>36.8309663236141204833984375</LatitudeDegrees>
              <LongitudeDegrees>-4.3825674243271350860595703125</LongitudeDegrees>
            </Position>
            <AltitudeMeters>711</AltitudeMeters>
            <DistanceMeters>NAN</DistanceMeters>
          </Trackpoint>
          <Trackpoint>
            <Time>2020-12-05T12:48:44.000Z</Time>
            <Position>
              <LatitudeDegrees>36.83095634914934635162353515625</LatitudeDegrees>
              <LongitudeDegrees>-4.38257186673581600189208984375</LongitudeDegrees>
            </Position>
            <AltitudeMeters>711</AltitudeMeters>
            <DistanceMeters>NAN</DistanceMeters>
          </Trackpoint>
          <Trackpoint>
            <Time>2020-12-05T12:48:45.000Z</Time>
            <Position>
              <LatitudeDegrees>36.83094310574233531951904296875</LatitudeDegrees>
              <LongitudeDegrees>-4.3825707770884037017822265625</LongitudeDegrees>
            </Position>
            <AltitudeMeters>711</AltitudeMeters>
            <DistanceMeters>NAN</DistanceMeters>
          </Trackpoint>
          <Trackpoint>
            <Time>2020-12-05T12:48:46.000Z</Time>
            <Position>
              <LatitudeDegrees>36.83092810213565826416015625</LatitudeDegrees>
              <LongitudeDegrees>-4.38256926834583282470703125</LongitudeDegrees>
            </Position>
            <AltitudeMeters>711</AltitudeMeters>
            <DistanceMeters>NAN</DistanceMeters>
          </Trackpoint>
          <Trackpoint>
            <Time>2020-12-05T12:48:47.000Z</Time>
            <Position>
              <LatitudeDegrees>36.83091695420444011688232421875</LatitudeDegrees>
              <LongitudeDegrees>-4.3825691007077693939208984375</LongitudeDegrees>
            </Position>
            <AltitudeMeters>711</AltitudeMeters>
            <DistanceMeters>NAN</DistanceMeters>
          </Trackpoint>
          <Trackpoint>
            <Time>2020-12-05T12:48:48.000Z</Time>
            <Position>
              <LatitudeDegrees>36.8309044651687145233154296875</LatitudeDegrees>
              <LongitudeDegrees>-4.38256683759391307830810546875</LongitudeDegrees>
            </Position>
            <AltitudeMeters>711</AltitudeMeters>
            <DistanceMeters>NAN</DistanceMeters>
          </Trackpoint>
          <Trackpoint>
            <Time>2020-12-05T12:48:49.000Z</Time>
            <Position>
              <LatitudeDegrees>36.83089432306587696075439453125</LatitudeDegrees>
              <LongitudeDegrees>-4.3825660832226276397705078125</LongitudeDegrees>
            </Position>
            <AltitudeMeters>711</AltitudeMeters>
            <DistanceMeters>NAN</DistanceMeters>
          </Trackpoint>
          <Trackpoint>
            <Time>2020-12-05T12:48:50.000Z</Time>
            <Position>
              <LatitudeDegrees>36.8308846838772296905517578125</LatitudeDegrees>
              <LongitudeDegrees>-4.3825664184987545013427734375</LongitudeDegrees>
            </Position>
            <AltitudeMeters>711</AltitudeMeters>
            <DistanceMeters>NAN</DistanceMeters>
          </Trackpoint>
          <Trackpoint>
            <Time>2020-12-05T12:48:51.000Z</Time>
            <Position>
              <LatitudeDegrees>36.8308773078024387359619140625</LatitudeDegrees>
              <LongitudeDegrees>-4.38256583176553249359130859375</LongitudeDegrees>
            </Position>
            <AltitudeMeters>711</AltitudeMeters>
            <DistanceMeters>NAN</DistanceMeters>
          </Trackpoint>
          <Trackpoint>
            <Time>2020-12-05T12:48:52.000Z</Time>
            <Position>
              <LatitudeDegrees>36.83086934499442577362060546875</LatitudeDegrees>
              <LongitudeDegrees>-4.38256633467972278594970703125</LongitudeDegrees>
            </Position>
            <AltitudeMeters>711</AltitudeMeters>
            <DistanceMeters>NAN</DistanceMeters>
          </Trackpoint>
          <Trackpoint>
            <Time>2020-12-05T12:48:53.000Z</Time>
            <Position>
              <LatitudeDegrees>36.83086062781512737274169921875</LatitudeDegrees>
              <LongitudeDegrees>-4.38256080262362957000732421875</LongitudeDegrees>
            </Position>
            <AltitudeMeters>711</AltitudeMeters>
            <DistanceMeters>NAN</DistanceMeters>
          </Trackpoint>
          <Trackpoint>
            <Time>2020-12-05T12:48:54.000Z</Time>
            <Position>
              <LatitudeDegrees>36.830854676663875579833984375</LatitudeDegrees>
              <LongitudeDegrees>-4.38255510292947292327880859375</LongitudeDegrees>
            </Position>
            <AltitudeMeters>711</AltitudeMeters>
            <DistanceMeters>NAN</DistanceMeters>
          </Trackpoint>
          <Trackpoint>
            <Time>2020-12-05T12:48:55.000Z</Time>
            <Position>
              <LatitudeDegrees>36.83084872551262378692626953125</LatitudeDegrees>
              <LongitudeDegrees>-4.38254353590309619903564453125</LongitudeDegrees>
            </Position>
            <AltitudeMeters>711</AltitudeMeters>
            <DistanceMeters>NAN</DistanceMeters>
          </Trackpoint>
          <Trackpoint>
            <Time>2020-12-05T12:48:56.000Z</Time>
            <Position>
              <LatitudeDegrees>36.830846630036830902099609375</LatitudeDegrees>
              <LongitudeDegrees>-4.3825268559157848358154296875</LongitudeDegrees>
            </Position>
            <AltitudeMeters>711</AltitudeMeters>
            <DistanceMeters>NAN</DistanceMeters>
          </Trackpoint>
          <Trackpoint>
            <Time>2020-12-05T12:48:57.000Z</Time>
            <Position>
              <LatitudeDegrees>36.83085031807422637939453125</LatitudeDegrees>
              <LongitudeDegrees>-4.38250489532947540283203125</LongitudeDegrees>
            </Position>
            <AltitudeMeters>711</AltitudeMeters>
            <DistanceMeters>NAN</DistanceMeters>
          </Trackpoint>
          <Trackpoint>
            <Time>2020-12-05T12:48:58.000Z</Time>
            <Position>
              <LatitudeDegrees>36.83085308410227298736572265625</LatitudeDegrees>
              <LongitudeDegrees>-4.38248788006603717803955078125</LongitudeDegrees>
            </Position>
            <AltitudeMeters>711</AltitudeMeters>
            <DistanceMeters>NAN</DistanceMeters>
          </Trackpoint>
          <Trackpoint>
            <Time>2020-12-05T12:48:59.000Z</Time>
            <Position>
              <LatitudeDegrees>36.83085207827389240264892578125</LatitudeDegrees>
              <LongitudeDegrees>-4.3824760615825653076171875</LongitudeDegrees>
            </Position>
            <AltitudeMeters>711</AltitudeMeters>
            <DistanceMeters>NAN</DistanceMeters>
          </Trackpoint>
          <Trackpoint>
            <Time>2020-12-05T12:49:00.000Z</Time>
            <Position>
              <LatitudeDegrees>36.8308521620929241180419921875</LatitudeDegrees>
              <LongitudeDegrees>-4.3824651651084423065185546875</LongitudeDegrees>
            </Position>
            <AltitudeMeters>724.79998779296875</AltitudeMeters>
            <DistanceMeters>NAN</DistanceMeters>
          </Trackpoint>
          <Trackpoint>
            <Time>2020-12-05T12:49:01.000Z</Time>
            <Position>
              <LatitudeDegrees>36.83085392229259014129638671875</LatitudeDegrees>
              <LongitudeDegrees>-4.38245636411011219024658203125</LongitudeDegrees>
            </Position>
            <AltitudeMeters>724.79998779296875</AltitudeMeters>
            <DistanceMeters>NAN</DistanceMeters>
          </Trackpoint>
          <Trackpoint>
            <Time>2020-12-05T12:49:02.000Z</Time>
            <Position>
              <LatitudeDegrees>36.83085543103516101837158203125</LatitudeDegrees>
              <LongitudeDegrees>-4.38244848512113094329833984375</LongitudeDegrees>
            </Position>
            <AltitudeMeters>724.79998779296875</AltitudeMeters>
            <DistanceMeters>NAN</DistanceMeters>
          </Trackpoint>
          <Trackpoint>
            <Time>2020-12-05T12:49:03.000Z</Time>
            <Position>
              <LatitudeDegrees>36.8308578617870807647705078125</LatitudeDegrees>
              <LongitudeDegrees>-4.3824390135705471038818359375</LongitudeDegrees>
            </Position>
            <AltitudeMeters>724.79998779296875</AltitudeMeters>
            <DistanceMeters>NAN</DistanceMeters>
          </Trackpoint>
          <Trackpoint>
            <Time>2020-12-05T12:49:04.000Z</Time>
            <Position>
              <LatitudeDegrees>36.83085978962481021881103515625</LatitudeDegrees>
              <LongitudeDegrees>-4.38242987729609012603759765625</LongitudeDegrees>
            </Position>
            <AltitudeMeters>724.79998779296875</AltitudeMeters>
            <DistanceMeters>NAN</DistanceMeters>
          </Trackpoint>
          <Trackpoint>
            <Time>2020-12-05T12:49:05.000Z</Time>
            <Position>
              <LatitudeDegrees>36.8308612145483493804931640625</LatitudeDegrees>
              <LongitudeDegrees>-4.38242032192647457122802734375</LongitudeDegrees>
            </Position>
            <AltitudeMeters>724.79998779296875</AltitudeMeters>
            <DistanceMeters>NAN</DistanceMeters>
          </Trackpoint>
          <Trackpoint>
            <Time>2020-12-05T12:49:06.000Z</Time>
            <Position>
              <LatitudeDegrees>36.83086263947188854217529296875</LatitudeDegrees>
              <LongitudeDegrees>-4.38241059891879558563232421875</LongitudeDegrees>
            </Position>
            <AltitudeMeters>724.79998779296875</AltitudeMeters>
            <DistanceMeters>NAN</DistanceMeters>
          </Trackpoint>
          <Trackpoint>
            <Time>2020-12-05T12:49:07.000Z</Time>
            <Position>
              <LatitudeDegrees>36.83086574077606201171875</LatitudeDegrees>
              <LongitudeDegrees>-4.38239919953048229217529296875</LongitudeDegrees>
            </Position>
            <AltitudeMeters>724.79998779296875</AltitudeMeters>
            <DistanceMeters>NAN</DistanceMeters>
          </Trackpoint>
          <Trackpoint>
            <Time>2020-12-05T12:49:08.000Z</Time>
            <Position>
              <LatitudeDegrees>36.8308724462985992431640625</LatitudeDegrees>
              <LongitudeDegrees>-4.382383860647678375244140625</LongitudeDegrees>
            </Position>
            <AltitudeMeters>724.79998779296875</AltitudeMeters>
            <DistanceMeters>NAN</DistanceMeters>
          </Trackpoint>
          <Trackpoint>
            <Time>2020-12-05T12:49:09.000Z</Time>
            <Position>
              <LatitudeDegrees>36.83087554760277271270751953125</LatitudeDegrees>
              <LongitudeDegrees>-4.382367432117462158203125</LongitudeDegrees>
            </Position>
            <AltitudeMeters>724.79998779296875</AltitudeMeters>
            <DistanceMeters>NAN</DistanceMeters>
          </Trackpoint>
          <Trackpoint>
            <Time>2020-12-05T12:49:10.000Z</Time>
            <Position>
              <LatitudeDegrees>36.83087621815502643585205078125</LatitudeDegrees>
              <LongitudeDegrees>-4.38235309906303882598876953125</LongitudeDegrees>
            </Position>
            <AltitudeMeters>724.79998779296875</AltitudeMeters>
            <DistanceMeters>NAN</DistanceMeters>
          </Trackpoint>
          <Trackpoint>
            <Time>2020-12-05T12:49:11.000Z</Time>
            <Position>
              <LatitudeDegrees>36.83087605051696300506591796875</LatitudeDegrees>
              <LongitudeDegrees>-4.3823407776653766632080078125</LongitudeDegrees>
            </Position>
            <AltitudeMeters>724.79998779296875</AltitudeMeters>
            <DistanceMeters>NAN</DistanceMeters>
          </Trackpoint>
          <Trackpoint>
            <Time>2020-12-05T12:49:12.000Z</Time>
            <Position>
              <LatitudeDegrees>36.8308752961456775665283203125</LatitudeDegrees>
              <LongitudeDegrees>-4.382330887019634246826171875</LongitudeDegrees>
            </Position>
            <AltitudeMeters>724.79998779296875</AltitudeMeters>
            <DistanceMeters>NAN</DistanceMeters>
          </Trackpoint>
          <Trackpoint>
            <Time>2020-12-05T12:49:13.000Z</Time>
            <Position>
              <LatitudeDegrees>36.8308749608695507049560546875</LatitudeDegrees>
              <LongitudeDegrees>-4.38232074491679668426513671875</LongitudeDegrees>
            </Position>
            <AltitudeMeters>724.79998779296875</AltitudeMeters>
            <DistanceMeters>NAN</DistanceMeters>
          </Trackpoint>
          <Trackpoint>
            <Time>2020-12-05T12:49:14.000Z</Time>
            <Position>
              <LatitudeDegrees>36.830876134335994720458984375</LatitudeDegrees>
              <LongitudeDegrees>-4.38230683095753192901611328125</LongitudeDegrees>
            </Position>
            <AltitudeMeters>724.79998779296875</AltitudeMeters>
            <DistanceMeters>NAN</DistanceMeters>
          </Trackpoint>
          <Trackpoint>
            <Time>2020-12-05T12:49:15.000Z</Time>
            <Position>
              <LatitudeDegrees>36.83087655343115329742431640625</LatitudeDegrees>
              <LongitudeDegrees>-4.3822931684553623199462890625</LongitudeDegrees>
            </Position>
            <AltitudeMeters>724.79998779296875</AltitudeMeters>
            <DistanceMeters>NAN</DistanceMeters>
          </Trackpoint>
          <Trackpoint>
            <Time>2020-12-05T12:49:16.000Z</Time>
            <Position>
              <LatitudeDegrees>36.83087722398340702056884765625</LatitudeDegrees>
              <LongitudeDegrees>-4.38227984122931957244873046875</LongitudeDegrees>
            </Position>
            <AltitudeMeters>724.79998779296875</AltitudeMeters>
            <DistanceMeters>NAN</DistanceMeters>
          </Trackpoint>
          <Trackpoint>
            <Time>2020-12-05T12:49:17.000Z</Time>
            <Position>
              <LatitudeDegrees>36.83087638579308986663818359375</LatitudeDegrees>
              <LongitudeDegrees>-4.38226827420294284820556640625</LongitudeDegrees>
            </Position>
            <AltitudeMeters>724.79998779296875</AltitudeMeters>
            <DistanceMeters>NAN</DistanceMeters>
          </Trackpoint>
          <Trackpoint>
            <Time>2020-12-05T12:49:18.000Z</Time>
            <Position>
              <LatitudeDegrees>36.83087621815502643585205078125</LatitudeDegrees>
              <LongitudeDegrees>-4.38225419260561466217041015625</LongitudeDegrees>
            </Position>
            <AltitudeMeters>724.79998779296875</AltitudeMeters>
            <DistanceMeters>NAN</DistanceMeters>
          </Trackpoint>
          <Trackpoint>
            <Time>2020-12-05T12:49:19.000Z</Time>
            <Position>
              <LatitudeDegrees>36.83087621815502643585205078125</LatitudeDegrees>
              <LongitudeDegrees>-4.382243044674396514892578125</LongitudeDegrees>
            </Position>
            <AltitudeMeters>724.79998779296875</AltitudeMeters>
            <DistanceMeters>NAN</DistanceMeters>
          </Trackpoint>
          <Trackpoint>
            <Time>2020-12-05T12:49:20.000Z</Time>
            <Position>
              <LatitudeDegrees>36.83087445795536041259765625</LatitudeDegrees>
              <LongitudeDegrees>-4.38223005272448062896728515625</LongitudeDegrees>
            </Position>
            <AltitudeMeters>724.79998779296875</AltitudeMeters>
            <DistanceMeters>NAN</DistanceMeters>
          </Trackpoint>
          <Trackpoint>
            <Time>2020-12-05T12:49:21.000Z</Time>
            <Position>
              <LatitudeDegrees>36.83087043464183807373046875</LatitudeDegrees>
              <LongitudeDegrees>-4.38221714459359645843505859375</LongitudeDegrees>
            </Position>
            <AltitudeMeters>724.79998779296875</AltitudeMeters>
            <DistanceMeters>NAN</DistanceMeters>
          </Trackpoint>
          <Trackpoint>
            <Time>2020-12-05T12:49:22.000Z</Time>
            <Position>
              <LatitudeDegrees>36.83086649514734745025634765625</LatitudeDegrees>
              <LongitudeDegrees>-4.382201135158538818359375</LongitudeDegrees>
            </Position>
            <AltitudeMeters>724.79998779296875</AltitudeMeters>
            <DistanceMeters>NAN</DistanceMeters>
          </Trackpoint>
          <Trackpoint>
            <Time>2020-12-05T12:49:23.000Z</Time>
            <Position>
              <LatitudeDegrees>36.83086079545319080352783203125</LatitudeDegrees>
              <LongitudeDegrees>-4.3821890652179718017578125</LongitudeDegrees>
            </Position>
            <AltitudeMeters>724.79998779296875</AltitudeMeters>
            <DistanceMeters>NAN</DistanceMeters>
          </Trackpoint>
          <Trackpoint>
            <Time>2020-12-05T12:49:24.000Z</Time>
            <Position>
              <LatitudeDegrees>36.8308531679213047027587890625</LatitudeDegrees>
              <LongitudeDegrees>-4.3821744807064533233642578125</LongitudeDegrees>
            </Position>
            <AltitudeMeters>724.79998779296875</AltitudeMeters>
            <DistanceMeters>NAN</DistanceMeters>
          </Trackpoint>
          <Trackpoint>
            <Time>2020-12-05T12:49:25.000Z</Time>
            <Position>
              <LatitudeDegrees>36.83084671385586261749267578125</LatitudeDegrees>
              <LongitudeDegrees>-4.3821597285568714141845703125</LongitudeDegrees>
            </Position>
            <AltitudeMeters>724.79998779296875</AltitudeMeters>
            <DistanceMeters>NAN</DistanceMeters>
          </Trackpoint>
          <Trackpoint>
            <Time>2020-12-05T12:49:26.000Z</Time>
            <Position>
              <LatitudeDegrees>36.83084486983716487884521484375</LatitudeDegrees>
              <LongitudeDegrees>-4.38214388675987720489501953125</LongitudeDegrees>
            </Position>
            <AltitudeMeters>724.79998779296875</AltitudeMeters>
            <DistanceMeters>NAN</DistanceMeters>
          </Trackpoint>
          <Trackpoint>
            <Time>2020-12-05T12:49:27.000Z</Time>
            <Position>
              <LatitudeDegrees>36.83084000833332538604736328125</LatitudeDegrees>
              <LongitudeDegrees>-4.38212829641997814178466796875</LongitudeDegrees>
            </Position>
            <AltitudeMeters>724.79998779296875</AltitudeMeters>
            <DistanceMeters>NAN</DistanceMeters>
          </Trackpoint>
          <Trackpoint>
            <Time>2020-12-05T12:49:28.000Z</Time>
            <Position>
              <LatitudeDegrees>36.83083548210561275482177734375</LatitudeDegrees>
              <LongitudeDegrees>-4.3821124546229839324951171875</LongitudeDegrees>
            </Position>
            <AltitudeMeters>724.79998779296875</AltitudeMeters>
            <DistanceMeters>NAN</DistanceMeters>
          </Trackpoint>
          <Trackpoint>
            <Time>2020-12-05T12:49:29.000Z</Time>
            <Position>
              <LatitudeDegrees>36.83083145879209041595458984375</LatitudeDegrees>
              <LongitudeDegrees>-4.38209728337824344635009765625</LongitudeDegrees>
            </Position>
            <AltitudeMeters>724.79998779296875</AltitudeMeters>
            <DistanceMeters>NAN</DistanceMeters>
          </Trackpoint>
          <Trackpoint>
            <Time>2020-12-05T12:49:30.000Z</Time>
            <Position>
              <LatitudeDegrees>36.830827184021472930908203125</LatitudeDegrees>
              <LongitudeDegrees>-4.38208504579961299896240234375</LongitudeDegrees>
            </Position>
            <AltitudeMeters>724.79998779296875</AltitudeMeters>
            <DistanceMeters>NAN</DistanceMeters>
          </Trackpoint>
          <Trackpoint>
            <Time>2020-12-05T12:49:31.000Z</Time>
            <Position>
              <LatitudeDegrees>36.8308241665363311767578125</LatitudeDegrees>
              <LongitudeDegrees>-4.38207381404936313629150390625</LongitudeDegrees>
            </Position>
            <AltitudeMeters>724.79998779296875</AltitudeMeters>
            <DistanceMeters>NAN</DistanceMeters>
          </Trackpoint>
          <Trackpoint>
            <Time>2020-12-05T12:49:32.000Z</Time>
            <Position>
              <LatitudeDegrees>36.8308186344802379608154296875</LatitudeDegrees>
              <LongitudeDegrees>-4.38206224702298641204833984375</LongitudeDegrees>
            </Position>
            <AltitudeMeters>724.79998779296875</AltitudeMeters>
            <DistanceMeters>NAN</DistanceMeters>
          </Trackpoint>
          <Trackpoint>
            <Time>2020-12-05T12:49:33.000Z</Time>
            <Position>
              <LatitudeDegrees>36.8308129347860813140869140625</LatitudeDegrees>
              <LongitudeDegrees>-4.38205285929143428802490234375</LongitudeDegrees>
            </Position>
            <AltitudeMeters>724.79998779296875</AltitudeMeters>
            <DistanceMeters>NAN</DistanceMeters>
          </Trackpoint>
          <Trackpoint>
            <Time>2020-12-05T12:49:34.000Z</Time>
            <Position>
              <LatitudeDegrees>36.83080480434000492095947265625</LatitudeDegrees>
              <LongitudeDegrees>-4.3820423819124698638916015625</LongitudeDegrees>
            </Position>
            <AltitudeMeters>724.79998779296875</AltitudeMeters>
            <DistanceMeters>NAN</DistanceMeters>
          </Trackpoint>
          <Trackpoint>
            <Time>2020-12-05T12:49:35.000Z</Time>
            <Position>
              <LatitudeDegrees>36.830793321132659912109375</LatitudeDegrees>
              <LongitudeDegrees>-4.38203106634318828582763671875</LongitudeDegrees>
            </Position>
            <AltitudeMeters>724.79998779296875</AltitudeMeters>
            <DistanceMeters>NAN</DistanceMeters>
          </Trackpoint>
          <Trackpoint>
            <Time>2020-12-05T12:49:36.000Z</Time>
            <Position>
              <LatitudeDegrees>36.8307827599346637725830078125</LatitudeDegrees>
              <LongitudeDegrees>-4.3820215947926044464111328125</LongitudeDegrees>
            </Position>
            <AltitudeMeters>724.79998779296875</AltitudeMeters>
            <DistanceMeters>NAN</DistanceMeters>
          </Trackpoint>
          <Trackpoint>
            <Time>2020-12-05T12:49:37.000Z</Time>
            <Position>
              <LatitudeDegrees>36.83077387511730194091796875</LatitudeDegrees>
              <LongitudeDegrees>-4.382009692490100860595703125</LongitudeDegrees>
            </Position>
            <AltitudeMeters>724.79998779296875</AltitudeMeters>
            <DistanceMeters>NAN</DistanceMeters>
          </Trackpoint>
          <Trackpoint>
            <Time>2020-12-05T12:49:38.000Z</Time>
            <Position>
              <LatitudeDegrees>36.8307670019567012786865234375</LatitudeDegrees>
              <LongitudeDegrees>-4.38199519179761409759521484375</LongitudeDegrees>
            </Position>
            <AltitudeMeters>724.79998779296875</AltitudeMeters>
            <DistanceMeters>NAN</DistanceMeters>
          </Trackpoint>
          <Trackpoint>
            <Time>2020-12-05T12:49:39.000Z</Time>
            <Position>
              <LatitudeDegrees>36.83076105080544948577880859375</LatitudeDegrees>
              <LongitudeDegrees>-4.38198261894285678863525390625</LongitudeDegrees>
            </Position>
            <AltitudeMeters>724.79998779296875</AltitudeMeters>
            <DistanceMeters>NAN</DistanceMeters>
          </Trackpoint>
          <Trackpoint>
            <Time>2020-12-05T12:49:40.000Z</Time>
            <Position>
              <LatitudeDegrees>36.8307549320161342620849609375</LatitudeDegrees>
              <LongitudeDegrees>-4.38196443021297454833984375</LongitudeDegrees>
            </Position>
            <AltitudeMeters>724.79998779296875</AltitudeMeters>
            <DistanceMeters>NAN</DistanceMeters>
          </Trackpoint>
          <Trackpoint>
            <Time>2020-12-05T12:49:41.000Z</Time>
            <Position>
              <LatitudeDegrees>36.83074613101780414581298828125</LatitudeDegrees>
              <LongitudeDegrees>-4.3819468282163143157958984375</LongitudeDegrees>
            </Position>
            <AltitudeMeters>724.79998779296875</AltitudeMeters>
            <DistanceMeters>NAN</DistanceMeters>
          </Trackpoint>
          <Trackpoint>
            <Time>2020-12-05T12:49:42.000Z</Time>
            <Position>
              <LatitudeDegrees>36.83074126951396465301513671875</LatitudeDegrees>
              <LongitudeDegrees>-4.3819327466189861297607421875</LongitudeDegrees>
            </Position>
            <AltitudeMeters>724.79998779296875</AltitudeMeters>
            <DistanceMeters>NAN</DistanceMeters>
          </Trackpoint>
          <Trackpoint>
            <Time>2020-12-05T12:49:43.000Z</Time>
            <Position>
              <LatitudeDegrees>36.8307358212769031524658203125</LatitudeDegrees>
              <LongitudeDegrees>-4.38192059285938739776611328125</LongitudeDegrees>
            </Position>
            <AltitudeMeters>724.79998779296875</AltitudeMeters>
            <DistanceMeters>NAN</DistanceMeters>
          </Trackpoint>
          <Trackpoint>
            <Time>2020-12-05T12:49:44.000Z</Time>
            <Position>
              <LatitudeDegrees>36.8307291157543659210205078125</LatitudeDegrees>
              <LongitudeDegrees>-4.381911121308803558349609375</LongitudeDegrees>
            </Position>
            <AltitudeMeters>724.79998779296875</AltitudeMeters>
            <DistanceMeters>NAN</DistanceMeters>
          </Trackpoint>
          <Trackpoint>
            <Time>2020-12-05T12:49:45.000Z</Time>
            <Position>
              <LatitudeDegrees>36.83072366751730442047119140625</LatitudeDegrees>
              <LongitudeDegrees>-4.3819012306630611419677734375</LongitudeDegrees>
            </Position>
            <AltitudeMeters>724.79998779296875</AltitudeMeters>
            <DistanceMeters>NAN</DistanceMeters>
          </Trackpoint>
          <Trackpoint>
            <Time>2020-12-05T12:49:46.000Z</Time>
            <Position>
              <LatitudeDegrees>36.83071763254702091217041015625</LatitudeDegrees>
              <LongitudeDegrees>-4.38189242966473102569580078125</LongitudeDegrees>
            </Position>
            <AltitudeMeters>724.79998779296875</AltitudeMeters>
            <DistanceMeters>NAN</DistanceMeters>
          </Trackpoint>
          <Trackpoint>
            <Time>2020-12-05T12:49:47.000Z</Time>
            <Position>
              <LatitudeDegrees>36.830708496272563934326171875</LatitudeDegrees>
              <LongitudeDegrees>-4.38188396394252777099609375</LongitudeDegrees>
            </Position>
            <AltitudeMeters>724.79998779296875</AltitudeMeters>
            <DistanceMeters>NAN</DistanceMeters>
          </Trackpoint>
          <Trackpoint>
            <Time>2020-12-05T12:49:48.000Z</Time>
            <Position>
              <LatitudeDegrees>36.8306992761790752410888671875</LatitudeDegrees>
              <LongitudeDegrees>-4.381870888173580169677734375</LongitudeDegrees>
            </Position>
            <AltitudeMeters>724.79998779296875</AltitudeMeters>
            <DistanceMeters>NAN</DistanceMeters>
          </Trackpoint>
          <Trackpoint>
            <Time>2020-12-05T12:49:49.000Z</Time>
            <Position>
              <LatitudeDegrees>36.830688379704952239990234375</LatitudeDegrees>
              <LongitudeDegrees>-4.38186141662299633026123046875</LongitudeDegrees>
            </Position>
            <AltitudeMeters>724.79998779296875</AltitudeMeters>
            <DistanceMeters>NAN</DistanceMeters>
          </Trackpoint>
          <Trackpoint>
            <Time>2020-12-05T12:49:50.000Z</Time>
            <Position>
              <LatitudeDegrees>36.83067672885954380035400390625</LatitudeDegrees>
              <LongitudeDegrees>-4.381851442158222198486328125</LongitudeDegrees>
            </Position>
            <AltitudeMeters>724.79998779296875</AltitudeMeters>
            <DistanceMeters>NAN</DistanceMeters>
          </Trackpoint>
          <Trackpoint>
            <Time>2020-12-05T12:49:51.000Z</Time>
            <Position>
              <LatitudeDegrees>36.830665580928325653076171875</LatitudeDegrees>
              <LongitudeDegrees>-4.3818408809602260589599609375</LongitudeDegrees>
            </Position>
            <AltitudeMeters>724.79998779296875</AltitudeMeters>
            <DistanceMeters>NAN</DistanceMeters>
          </Trackpoint>
          <Trackpoint>
            <Time>2020-12-05T12:49:52.000Z</Time>
            <Position>
              <LatitudeDegrees>36.83065627701580524444580078125</LatitudeDegrees>
              <LongitudeDegrees>-4.38182990066707134246826171875</LongitudeDegrees>
            </Position>
            <AltitudeMeters>724.79998779296875</AltitudeMeters>
            <DistanceMeters>NAN</DistanceMeters>
          </Trackpoint>
          <Trackpoint>
            <Time>2020-12-05T12:49:53.000Z</Time>
            <Position>
              <LatitudeDegrees>36.830648146569728851318359375</LatitudeDegrees>
              <LongitudeDegrees>-4.38181799836456775665283203125</LongitudeDegrees>
            </Position>
            <AltitudeMeters>724.79998779296875</AltitudeMeters>
            <DistanceMeters>NAN</DistanceMeters>
          </Trackpoint>
          <Trackpoint>
            <Time>2020-12-05T12:49:54.000Z</Time>
            <Position>
              <LatitudeDegrees>36.83064169250428676605224609375</LatitudeDegrees>
              <LongitudeDegrees>-4.38180441968142986297607421875</LongitudeDegrees>
            </Position>
            <AltitudeMeters>724.79998779296875</AltitudeMeters>
            <DistanceMeters>NAN</DistanceMeters>
          </Trackpoint>
          <Trackpoint>
            <Time>2020-12-05T12:49:55.000Z</Time>
            <Position>
              <LatitudeDegrees>36.83063431642949581146240234375</LatitudeDegrees>
              <LongitudeDegrees>-4.3817952834069728851318359375</LongitudeDegrees>
            </Position>
            <AltitudeMeters>724.79998779296875</AltitudeMeters>
            <DistanceMeters>NAN</DistanceMeters>
          </Trackpoint>
          <Trackpoint>
            <Time>2020-12-05T12:49:56.000Z</Time>
            <Position>
              <LatitudeDegrees>36.830624677240848541259765625</LatitudeDegrees>
              <LongitudeDegrees>-4.3817840516567230224609375</LongitudeDegrees>
            </Position>
            <AltitudeMeters>724.79998779296875</AltitudeMeters>
            <DistanceMeters>NAN</DistanceMeters>
          </Trackpoint>
          <Trackpoint>
            <Time>2020-12-05T12:49:57.000Z</Time>
            <Position>
              <LatitudeDegrees>36.83061470277607440948486328125</LatitudeDegrees>
              <LongitudeDegrees>-4.38177407719194889068603515625</LongitudeDegrees>
            </Position>
            <AltitudeMeters>724.79998779296875</AltitudeMeters>
            <DistanceMeters>NAN</DistanceMeters>
          </Trackpoint>
          <Trackpoint>
            <Time>2020-12-05T12:49:58.000Z</Time>
            <Position>
              <LatitudeDegrees>36.8306050635874271392822265625</LatitudeDegrees>
              <LongitudeDegrees>-4.38176519237458705902099609375</LongitudeDegrees>
            </Position>
            <AltitudeMeters>724.79998779296875</AltitudeMeters>
            <DistanceMeters>NAN</DistanceMeters>
          </Trackpoint>
          <Trackpoint>
            <Time>2020-12-05T12:49:59.000Z</Time>
            <Position>
              <LatitudeDegrees>36.83059550821781158447265625</LatitudeDegrees>
              <LongitudeDegrees>-4.38175362534821033477783203125</LongitudeDegrees>
            </Position>
            <AltitudeMeters>724.79998779296875</AltitudeMeters>
            <DistanceMeters>NAN</DistanceMeters>
          </Trackpoint>
          <Trackpoint>
            <Time>2020-12-05T12:50:00.000Z</Time>
            <Position>
              <LatitudeDegrees>36.83058687485754489898681640625</LatitudeDegrees>
              <LongitudeDegrees>-4.3817426450550556182861328125</LongitudeDegrees>
            </Position>
            <AltitudeMeters>733.79998779296875</AltitudeMeters>
            <DistanceMeters>NAN</DistanceMeters>
          </Trackpoint>
          <Trackpoint>
            <Time>2020-12-05T12:50:01.000Z</Time>
            <Position>
              <LatitudeDegrees>36.8305765651166439056396484375</LatitudeDegrees>
              <LongitudeDegrees>-4.3817292340099811553955078125</LongitudeDegrees>
            </Position>
            <AltitudeMeters>733.79998779296875</AltitudeMeters>
            <DistanceMeters>NAN</DistanceMeters>
          </Trackpoint>
          <Trackpoint>
            <Time>2020-12-05T12:50:02.000Z</Time>
            <Position>
              <LatitudeDegrees>36.83056466281414031982421875</LatitudeDegrees>
              <LongitudeDegrees>-4.3817148171365261077880859375</LongitudeDegrees>
            </Position>
            <AltitudeMeters>733.79998779296875</AltitudeMeters>
            <DistanceMeters>NAN</DistanceMeters>
          </Trackpoint>
          <Trackpoint>
            <Time>2020-12-05T12:50:03.000Z</Time>
            <Position>
              <LatitudeDegrees>36.83055670000612735748291015625</LatitudeDegrees>
              <LongitudeDegrees>-4.38171037472784519195556640625</LongitudeDegrees>
            </Position>
            <AltitudeMeters>733.79998779296875</AltitudeMeters>
            <DistanceMeters>NAN</DistanceMeters>
          </Trackpoint>
          <Trackpoint>
            <Time>2020-12-05T12:50:04.000Z</Time>
            <Position>
              <LatitudeDegrees>36.8305467255413532257080078125</LatitudeDegrees>
              <LongitudeDegrees>-4.38170718960464000701904296875</LongitudeDegrees>
            </Position>
            <AltitudeMeters>733.79998779296875</AltitudeMeters>
            <DistanceMeters>NAN</DistanceMeters>
          </Trackpoint>
          <Trackpoint>
            <Time>2020-12-05T12:50:05.000Z</Time>
            <Position>
              <LatitudeDegrees>36.8305346556007862091064453125</LatitudeDegrees>
              <LongitudeDegrees>-4.38170132227241992950439453125</LongitudeDegrees>
            </Position>
            <AltitudeMeters>733.79998779296875</AltitudeMeters>
            <DistanceMeters>NAN</DistanceMeters>
          </Trackpoint>
          <Trackpoint>
            <Time>2020-12-05T12:50:06.000Z</Time>
            <Position>
              <LatitudeDegrees>36.8305262736976146697998046875</LatitudeDegrees>
              <LongitudeDegrees>-4.38169126398861408233642578125</LongitudeDegrees>
            </Position>
            <AltitudeMeters>733.79998779296875</AltitudeMeters>
            <DistanceMeters>NAN</DistanceMeters>
          </Trackpoint>
          <Trackpoint>
            <Time>2020-12-05T12:50:07.000Z</Time>
            <Position>
              <LatitudeDegrees>36.83051898144185543060302734375</LatitudeDegrees>
              <LongitudeDegrees>-4.38168187625706195831298828125</LongitudeDegrees>
            </Position>
            <AltitudeMeters>733.79998779296875</AltitudeMeters>
            <DistanceMeters>NAN</DistanceMeters>
          </Trackpoint>
          <Trackpoint>
            <Time>2020-12-05T12:50:08.000Z</Time>
            <Position>
              <LatitudeDegrees>36.83051127009093761444091796875</LatitudeDegrees>
              <LongitudeDegrees>-4.38167475163936614990234375</LongitudeDegrees>
            </Position>
            <AltitudeMeters>733.79998779296875</AltitudeMeters>
            <DistanceMeters>NAN</DistanceMeters>
          </Trackpoint>
          <Trackpoint>
            <Time>2020-12-05T12:50:09.000Z</Time>
            <Position>
              <LatitudeDegrees>36.83050976134836673736572265625</LatitudeDegrees>
              <LongitudeDegrees>-4.38166125677525997161865234375</LongitudeDegrees>
            </Position>
            <AltitudeMeters>733.79998779296875</AltitudeMeters>
            <DistanceMeters>NAN</DistanceMeters>
          </Trackpoint>
          <Trackpoint>
            <Time>2020-12-05T12:50:10.000Z</Time>
            <Position>
              <LatitudeDegrees>36.83049970306456089019775390625</LatitudeDegrees>
              <LongitudeDegrees>-4.381654970347881317138671875</LongitudeDegrees>
            </Position>
            <AltitudeMeters>733.79998779296875</AltitudeMeters>
            <DistanceMeters>NAN</DistanceMeters>
          </Trackpoint>
          <Trackpoint>
            <Time>2020-12-05T12:50:11.000Z</Time>
            <Position>
              <LatitudeDegrees>36.83049249462783336639404296875</LatitudeDegrees>
              <LongitudeDegrees>-4.381647594273090362548828125</LongitudeDegrees>
            </Position>
            <AltitudeMeters>733.79998779296875</AltitudeMeters>
            <DistanceMeters>NAN</DistanceMeters>
          </Trackpoint>
          <Trackpoint>
            <Time>2020-12-05T12:50:12.000Z</Time>
            <Position>
              <LatitudeDegrees>36.83048821985721588134765625</LatitudeDegrees>
              <LongitudeDegrees>-4.38163678161799907684326171875</LongitudeDegrees>
            </Position>
            <AltitudeMeters>733.79998779296875</AltitudeMeters>
            <DistanceMeters>NAN</DistanceMeters>
          </Trackpoint>
          <Trackpoint>
            <Time>2020-12-05T12:50:13.000Z</Time>
            <Position>
              <LatitudeDegrees>36.83048478327691555023193359375</LatitudeDegrees>
              <LongitudeDegrees>-4.38162873499095439910888671875</LongitudeDegrees>
            </Position>
            <AltitudeMeters>733.79998779296875</AltitudeMeters>
            <DistanceMeters>NAN</DistanceMeters>
          </Trackpoint>
          <Trackpoint>
            <Time>2020-12-05T12:50:14.000Z</Time>
            <Position>
              <LatitudeDegrees>36.830479167401790618896484375</LatitudeDegrees>
              <LongitudeDegrees>-4.3816219456493854522705078125</LongitudeDegrees>
            </Position>
            <AltitudeMeters>733.79998779296875</AltitudeMeters>
            <DistanceMeters>NAN</DistanceMeters>
          </Trackpoint>
          <Trackpoint>
            <Time>2020-12-05T12:50:15.000Z</Time>
            <Position>
              <LatitudeDegrees>36.83046944439411163330078125</LatitudeDegrees>
              <LongitudeDegrees>-4.38161498866975307464599609375</LongitudeDegrees>
            </Position>
            <AltitudeMeters>733.79998779296875</AltitudeMeters>
            <DistanceMeters>NAN</DistanceMeters>
          </Trackpoint>
          <Trackpoint>
            <Time>2020-12-05T12:50:16.000Z</Time>
            <Position>
              <LatitudeDegrees>36.8304595537483692169189453125</LatitudeDegrees>
              <LongitudeDegrees>-4.3816098757088184356689453125</LongitudeDegrees>
            </Position>
            <AltitudeMeters>733.79998779296875</AltitudeMeters>
            <DistanceMeters>NAN</DistanceMeters>
          </Trackpoint>
          <Trackpoint>
            <Time>2020-12-05T12:50:17.000Z</Time>
            <Position>
              <LatitudeDegrees>36.83044739998877048492431640625</LatitudeDegrees>
              <LongitudeDegrees>-4.38160509802401065826416015625</LongitudeDegrees>
            </Position>
            <AltitudeMeters>733.79998779296875</AltitudeMeters>
            <DistanceMeters>NAN</DistanceMeters>
          </Trackpoint>
          <Trackpoint>
            <Time>2020-12-05T12:50:18.000Z</Time>
            <Position>
              <LatitudeDegrees>36.8304347433149814605712890625</LatitudeDegrees>
              <LongitudeDegrees>-4.3816018290817737579345703125</LongitudeDegrees>
            </Position>
            <AltitudeMeters>733.79998779296875</AltitudeMeters>
            <DistanceMeters>NAN</DistanceMeters>
          </Trackpoint>
          <Trackpoint>
            <Time>2020-12-05T12:50:19.000Z</Time>
            <Position>
              <LatitudeDegrees>36.83042074553668498992919921875</LatitudeDegrees>
              <LongitudeDegrees>-4.38160325400531291961669921875</LongitudeDegrees>
            </Position>
            <AltitudeMeters>733.79998779296875</AltitudeMeters>
            <DistanceMeters>NAN</DistanceMeters>
          </Trackpoint>
          <Trackpoint>
            <Time>2020-12-05T12:50:20.000Z</Time>
            <Position>
              <LatitudeDegrees>36.83040850795805454254150390625</LatitudeDegrees>
              <LongitudeDegrees>-4.38160761259496212005615234375</LongitudeDegrees>
            </Position>
            <AltitudeMeters>733.79998779296875</AltitudeMeters>
            <DistanceMeters>NAN</DistanceMeters>
          </Trackpoint>
          <Trackpoint>
            <Time>2020-12-05T12:50:21.000Z</Time>
            <Position>
              <LatitudeDegrees>36.8303975276648998260498046875</LatitudeDegrees>
              <LongitudeDegrees>-4.381611384451389312744140625</LongitudeDegrees>
            </Position>
            <AltitudeMeters>733.79998779296875</AltitudeMeters>
            <DistanceMeters>NAN</DistanceMeters>
          </Trackpoint>
          <Trackpoint>
            <Time>2020-12-05T12:50:22.000Z</Time>
            <Position>
              <LatitudeDegrees>36.83038051240146160125732421875</LatitudeDegrees>
              <LongitudeDegrees>-4.381615407764911651611328125</LongitudeDegrees>
            </Position>
            <AltitudeMeters>733.79998779296875</AltitudeMeters>
            <DistanceMeters>NAN</DistanceMeters>
          </Trackpoint>
          <Trackpoint>
            <Time>2020-12-05T12:50:23.000Z</Time>
            <Position>
              <LatitudeDegrees>36.83036576025187969207763671875</LatitudeDegrees>
              <LongitudeDegrees>-4.3816172517836093902587890625</LongitudeDegrees>
            </Position>
            <AltitudeMeters>733.79998779296875</AltitudeMeters>
            <DistanceMeters>NAN</DistanceMeters>
          </Trackpoint>
          <Trackpoint>
            <Time>2020-12-05T12:50:24.000Z</Time>
            <Position>
              <LatitudeDegrees>36.83034732006490230560302734375</LatitudeDegrees>
              <LongitudeDegrees>-4.3816199339926242828369140625</LongitudeDegrees>
            </Position>
            <AltitudeMeters>733.79998779296875</AltitudeMeters>
            <DistanceMeters>NAN</DistanceMeters>
          </Trackpoint>
          <Trackpoint>
            <Time>2020-12-05T12:50:25.000Z</Time>
            <Position>
              <LatitudeDegrees>36.8303333222866058349609375</LatitudeDegrees>
              <LongitudeDegrees>-4.38162236474454402923583984375</LongitudeDegrees>
            </Position>
            <AltitudeMeters>733.79998779296875</AltitudeMeters>
            <DistanceMeters>NAN</DistanceMeters>
          </Trackpoint>
          <Trackpoint>
            <Time>2020-12-05T12:50:26.000Z</Time>
            <Position>
              <LatitudeDegrees>36.830320917069911956787109375</LatitudeDegrees>
              <LongitudeDegrees>-4.381627142429351806640625</LongitudeDegrees>
            </Position>
            <AltitudeMeters>733.79998779296875</AltitudeMeters>
            <DistanceMeters>NAN</DistanceMeters>
          </Trackpoint>
          <Trackpoint>
            <Time>2020-12-05T12:50:27.000Z</Time>
            <Position>
              <LatitudeDegrees>36.83030792511999607086181640625</LatitudeDegrees>
              <LongitudeDegrees>-4.38163544051349163055419921875</LongitudeDegrees>
            </Position>
            <AltitudeMeters>733.79998779296875</AltitudeMeters>
            <DistanceMeters>NAN</DistanceMeters>
          </Trackpoint>
          <Trackpoint>
            <Time>2020-12-05T12:50:28.000Z</Time>
            <Position>
              <LatitudeDegrees>36.83029836975038051605224609375</LatitudeDegrees>
              <LongitudeDegrees>-4.3816464208066463470458984375</LongitudeDegrees>
            </Position>
            <AltitudeMeters>733.79998779296875</AltitudeMeters>
            <DistanceMeters>NAN</DistanceMeters>
          </Trackpoint>
          <Trackpoint>
            <Time>2020-12-05T12:50:29.000Z</Time>
            <Position>
              <LatitudeDegrees>36.83028646744787693023681640625</LatitudeDegrees>
              <LongitudeDegrees>-4.38165865838527679443359375</LongitudeDegrees>
            </Position>
            <AltitudeMeters>733.79998779296875</AltitudeMeters>
            <DistanceMeters>NAN</DistanceMeters>
          </Trackpoint>
          <Trackpoint>
            <Time>2020-12-05T12:50:30.000Z</Time>
            <Position>
              <LatitudeDegrees>36.8302796781063079833984375</LatitudeDegrees>
              <LongitudeDegrees>-4.381669722497463226318359375</LongitudeDegrees>
            </Position>
            <AltitudeMeters>733.79998779296875</AltitudeMeters>
            <DistanceMeters>NAN</DistanceMeters>
          </Trackpoint>
          <Trackpoint>
            <Time>2020-12-05T12:50:31.000Z</Time>
            <Position>
              <LatitudeDegrees>36.83027364313602447509765625</LatitudeDegrees>
              <LongitudeDegrees>-4.3816839717328548431396484375</LongitudeDegrees>
            </Position>
            <AltitudeMeters>733.79998779296875</AltitudeMeters>
            <DistanceMeters>NAN</DistanceMeters>
          </Trackpoint>
          <Trackpoint>
            <Time>2020-12-05T12:50:32.000Z</Time>
            <Position>
              <LatitudeDegrees>36.8302627466619014739990234375</LatitudeDegrees>
              <LongitudeDegrees>-4.3816950358450412750244140625</LongitudeDegrees>
            </Position>
            <AltitudeMeters>733.79998779296875</AltitudeMeters>
            <DistanceMeters>NAN</DistanceMeters>
          </Trackpoint>
          <Trackpoint>
            <Time>2020-12-05T12:50:33.000Z</Time>
            <Position>
              <LatitudeDegrees>36.83025293983519077301025390625</LatitudeDegrees>
              <LongitudeDegrees>-4.38170618377625942230224609375</LongitudeDegrees>
            </Position>
            <AltitudeMeters>733.79998779296875</AltitudeMeters>
            <DistanceMeters>NAN</DistanceMeters>
          </Trackpoint>
          <Trackpoint>
            <Time>2020-12-05T12:50:34.000Z</Time>
            <Position>
              <LatitudeDegrees>36.8302429653704166412353515625</LatitudeDegrees>
              <LongitudeDegrees>-4.38172194175422191619873046875</LongitudeDegrees>
            </Position>
            <AltitudeMeters>733.79998779296875</AltitudeMeters>
            <DistanceMeters>NAN</DistanceMeters>
          </Trackpoint>
          <Trackpoint>
            <Time>2020-12-05T12:50:35.000Z</Time>
            <Position>
              <LatitudeDegrees>36.830235756933689117431640625</LatitudeDegrees>
              <LongitudeDegrees>-4.38173912465572357177734375</LongitudeDegrees>
            </Position>
            <AltitudeMeters>733.79998779296875</AltitudeMeters>
            <DistanceMeters>NAN</DistanceMeters>
          </Trackpoint>
          <Trackpoint>
            <Time>2020-12-05T12:50:36.000Z</Time>
            <Position>
              <LatitudeDegrees>36.83022963814437389373779296875</LatitudeDegrees>
              <LongitudeDegrees>-4.38175857067108154296875</LongitudeDegrees>
            </Position>
            <AltitudeMeters>733.79998779296875</AltitudeMeters>
            <DistanceMeters>NAN</DistanceMeters>
          </Trackpoint>
          <Trackpoint>
            <Time>2020-12-05T12:50:37.000Z</Time>
            <Position>
              <LatitudeDegrees>36.83022242970764636993408203125</LatitudeDegrees>
              <LongitudeDegrees>-4.3817761726677417755126953125</LongitudeDegrees>
            </Position>
            <AltitudeMeters>733.79998779296875</AltitudeMeters>
            <DistanceMeters>NAN</DistanceMeters>
          </Trackpoint>
          <Trackpoint>
            <Time>2020-12-05T12:50:38.000Z</Time>
            <Position>
              <LatitudeDegrees>36.83021572418510913848876953125</LatitudeDegrees>
              <LongitudeDegrees>-4.381792433559894561767578125</LongitudeDegrees>
            </Position>
            <AltitudeMeters>733.79998779296875</AltitudeMeters>
            <DistanceMeters>NAN</DistanceMeters>
          </Trackpoint>
          <Trackpoint>
            <Time>2020-12-05T12:50:39.000Z</Time>
            <Position>
              <LatitudeDegrees>36.8302087672054767608642578125</LatitudeDegrees>
              <LongitudeDegrees>-4.3818055093288421630859375</LongitudeDegrees>
            </Position>
            <AltitudeMeters>733.79998779296875</AltitudeMeters>
            <DistanceMeters>NAN</DistanceMeters>
          </Trackpoint>
          <Trackpoint>
            <Time>2020-12-05T12:50:40.000Z</Time>
            <Position>
              <LatitudeDegrees>36.83020398952066898345947265625</LatitudeDegrees>
              <LongitudeDegrees>-4.38181900419294834136962890625</LongitudeDegrees>
            </Position>
            <AltitudeMeters>733.79998779296875</AltitudeMeters>
            <DistanceMeters>NAN</DistanceMeters>
          </Trackpoint>
          <Trackpoint>
            <Time>2020-12-05T12:50:41.000Z</Time>
            <Position>
              <LatitudeDegrees>36.8302023969590663909912109375</LatitudeDegrees>
              <LongitudeDegrees>-4.38183006830513477325439453125</LongitudeDegrees>
            </Position>
            <AltitudeMeters>733.79998779296875</AltitudeMeters>
            <DistanceMeters>NAN</DistanceMeters>
          </Trackpoint>
          <Trackpoint>
            <Time>2020-12-05T12:50:42.000Z</Time>
            <Position>
              <LatitudeDegrees>36.83020348660647869110107421875</LatitudeDegrees>
              <LongitudeDegrees>-4.381841383874416351318359375</LongitudeDegrees>
            </Position>
            <AltitudeMeters>733.79998779296875</AltitudeMeters>
            <DistanceMeters>NAN</DistanceMeters>
          </Trackpoint>
          <Trackpoint>
            <Time>2020-12-05T12:50:43.000Z</Time>
            <Position>
              <LatitudeDegrees>36.830204240977764129638671875</LatitudeDegrees>
              <LongitudeDegrees>-4.38185177743434906005859375</LongitudeDegrees>
            </Position>
            <AltitudeMeters>733.79998779296875</AltitudeMeters>
            <DistanceMeters>NAN</DistanceMeters>
          </Trackpoint>
          <Trackpoint>
            <Time>2020-12-05T12:50:44.000Z</Time>
            <Position>
              <LatitudeDegrees>36.83020214550197124481201171875</LatitudeDegrees>
              <LongitudeDegrees>-4.38186778686940670013427734375</LongitudeDegrees>
            </Position>
            <AltitudeMeters>733.79998779296875</AltitudeMeters>
            <DistanceMeters>NAN</DistanceMeters>
          </Trackpoint>
          <Trackpoint>
            <Time>2020-12-05T12:50:45.000Z</Time>
            <Position>
              <LatitudeDegrees>36.83019577525556087493896484375</LatitudeDegrees>
              <LongitudeDegrees>-4.38188086263835430145263671875</LongitudeDegrees>
            </Position>
            <AltitudeMeters>733.79998779296875</AltitudeMeters>
            <DistanceMeters>NAN</DistanceMeters>
          </Trackpoint>
          <Trackpoint>
            <Time>2020-12-05T12:50:46.000Z</Time>
            <Position>
              <LatitudeDegrees>36.8301873095333576202392578125</LatitudeDegrees>
              <LongitudeDegrees>-4.38189108856022357940673828125</LongitudeDegrees>
            </Position>
            <AltitudeMeters>733.79998779296875</AltitudeMeters>
            <DistanceMeters>NAN</DistanceMeters>
          </Trackpoint>
          <Trackpoint>
            <Time>2020-12-05T12:50:47.000Z</Time>
            <Position>
              <LatitudeDegrees>36.83017884381115436553955078125</LatitudeDegrees>
              <LongitudeDegrees>-4.3819005601108074188232421875</LongitudeDegrees>
            </Position>
            <AltitudeMeters>733.79998779296875</AltitudeMeters>
            <DistanceMeters>NAN</DistanceMeters>
          </Trackpoint>
          <Trackpoint>
            <Time>2020-12-05T12:50:48.000Z</Time>
            <Position>
              <LatitudeDegrees>36.83017130009829998016357421875</LatitudeDegrees>
              <LongitudeDegrees>-4.3819156475365161895751953125</LongitudeDegrees>
            </Position>
            <AltitudeMeters>733.79998779296875</AltitudeMeters>
            <DistanceMeters>NAN</DistanceMeters>
          </Trackpoint>
          <Trackpoint>
            <Time>2020-12-05T12:50:49.000Z</Time>
            <Position>
              <LatitudeDegrees>36.8301681987941265106201171875</LatitudeDegrees>
              <LongitudeDegrees>-4.38193232752382755279541015625</LongitudeDegrees>
            </Position>
            <AltitudeMeters>733.79998779296875</AltitudeMeters>
            <DistanceMeters>NAN</DistanceMeters>
          </Trackpoint>
          <Trackpoint>
            <Time>2020-12-05T12:50:50.000Z</Time>
            <Position>
              <LatitudeDegrees>36.8301675282418727874755859375</LatitudeDegrees>
              <LongitudeDegrees>-4.38194775022566318511962890625</LongitudeDegrees>
            </Position>
            <AltitudeMeters>733.79998779296875</AltitudeMeters>
            <DistanceMeters>NAN</DistanceMeters>
          </Trackpoint>
          <Trackpoint>
            <Time>2020-12-05T12:50:51.000Z</Time>
            <Position>
              <LatitudeDegrees>36.8301645107567310333251953125</LatitudeDegrees>
              <LongitudeDegrees>-4.38196300528943538665771484375</LongitudeDegrees>
            </Position>
            <AltitudeMeters>733.79998779296875</AltitudeMeters>
            <DistanceMeters>NAN</DistanceMeters>
          </Trackpoint>
          <Trackpoint>
            <Time>2020-12-05T12:50:52.000Z</Time>
            <Position>
              <LatitudeDegrees>36.83016099035739898681640625</LatitudeDegrees>
              <LongitudeDegrees>-4.38197608105838298797607421875</LongitudeDegrees>
            </Position>
            <AltitudeMeters>733.79998779296875</AltitudeMeters>
            <DistanceMeters>NAN</DistanceMeters>
          </Trackpoint>
          <Trackpoint>
            <Time>2020-12-05T12:50:53.000Z</Time>
            <Position>
              <LatitudeDegrees>36.83015671558678150177001953125</LatitudeDegrees>
              <LongitudeDegrees>-4.3819884024560451507568359375</LongitudeDegrees>
            </Position>
            <AltitudeMeters>733.79998779296875</AltitudeMeters>
            <DistanceMeters>NAN</DistanceMeters>
          </Trackpoint>
          <Trackpoint>
            <Time>2020-12-05T12:50:54.000Z</Time>
            <Position>
              <LatitudeDegrees>36.83015051297843456268310546875</LatitudeDegrees>
              <LongitudeDegrees>-4.3820028193295001983642578125</LongitudeDegrees>
            </Position>
            <AltitudeMeters>733.79998779296875</AltitudeMeters>
            <DistanceMeters>NAN</DistanceMeters>
          </Trackpoint>
          <Trackpoint>
            <Time>2020-12-05T12:50:55.000Z</Time>
            <Position>
              <LatitudeDegrees>36.83014162816107273101806640625</LatitudeDegrees>
              <LongitudeDegrees>-4.382021091878414154052734375</LongitudeDegrees>
            </Position>
            <AltitudeMeters>733.79998779296875</AltitudeMeters>
            <DistanceMeters>NAN</DistanceMeters>
          </Trackpoint>
          <Trackpoint>
            <Time>2020-12-05T12:50:56.000Z</Time>
            <Position>
              <LatitudeDegrees>36.83013224042952060699462890625</LatitudeDegrees>
              <LongitudeDegrees>-4.38204095698893070220947265625</LongitudeDegrees>
            </Position>
            <AltitudeMeters>733.79998779296875</AltitudeMeters>
            <DistanceMeters>NAN</DistanceMeters>
          </Trackpoint>
          <Trackpoint>
            <Time>2020-12-05T12:50:57.000Z</Time>
            <Position>
              <LatitudeDegrees>36.83012469671666622161865234375</LatitudeDegrees>
              <LongitudeDegrees>-4.38205503858625888824462890625</LongitudeDegrees>
            </Position>
            <AltitudeMeters>733.79998779296875</AltitudeMeters>
            <DistanceMeters>NAN</DistanceMeters>
          </Trackpoint>
          <Trackpoint>
            <Time>2020-12-05T12:50:58.000Z</Time>
            <Position>
              <LatitudeDegrees>36.830119751393795013427734375</LatitudeDegrees>
              <LongitudeDegrees>-4.382066689431667327880859375</LongitudeDegrees>
            </Position>
            <AltitudeMeters>733.79998779296875</AltitudeMeters>
            <DistanceMeters>NAN</DistanceMeters>
          </Trackpoint>
          <Trackpoint>
            <Time>2020-12-05T12:50:59.000Z</Time>
            <Position>
              <LatitudeDegrees>36.8301145546138286590576171875</LatitudeDegrees>
              <LongitudeDegrees>-4.38207599334418773651123046875</LongitudeDegrees>
            </Position>
            <AltitudeMeters>733.79998779296875</AltitudeMeters>
            <DistanceMeters>NAN</DistanceMeters>
          </Trackpoint>
          <Trackpoint>
            <Time>2020-12-05T12:51:00.000Z</Time>
            <Position>
              <LatitudeDegrees>36.8301085196435451507568359375</LatitudeDegrees>
              <LongitudeDegrees>-4.38208638690412044525146484375</LongitudeDegrees>
            </Position>
            <AltitudeMeters>740</AltitudeMeters>
            <DistanceMeters>NAN</DistanceMeters>
          </Trackpoint>
          <Trackpoint>
            <Time>2020-12-05T12:51:01.000Z</Time>
            <Position>
              <LatitudeDegrees>36.830102987587451934814453125</LatitudeDegrees>
              <LongitudeDegrees>-4.3820980377495288848876953125</LongitudeDegrees>
            </Position>
            <AltitudeMeters>740</AltitudeMeters>
            <DistanceMeters>NAN</DistanceMeters>
          </Trackpoint>
          <Trackpoint>
            <Time>2020-12-05T12:51:02.000Z</Time>
            <Position>
              <LatitudeDegrees>36.83009452186524868011474609375</LatitudeDegrees>
              <LongitudeDegrees>-4.38211320899426937103271484375</LongitudeDegrees>
            </Position>
            <AltitudeMeters>740</AltitudeMeters>
            <DistanceMeters>NAN</DistanceMeters>
          </Trackpoint>
          <Trackpoint>
            <Time>2020-12-05T12:51:03.000Z</Time>
            <Position>
              <LatitudeDegrees>36.83008748106658458709716796875</LatitudeDegrees>
              <LongitudeDegrees>-4.382127039134502410888671875</LongitudeDegrees>
            </Position>
            <AltitudeMeters>740</AltitudeMeters>
            <DistanceMeters>NAN</DistanceMeters>
          </Trackpoint>
          <Trackpoint>
            <Time>2020-12-05T12:51:04.000Z</Time>
            <Position>
              <LatitudeDegrees>36.8300800211727619171142578125</LatitudeDegrees>
              <LongitudeDegrees>-4.38214279711246490478515625</LongitudeDegrees>
            </Position>
            <AltitudeMeters>740</AltitudeMeters>
            <DistanceMeters>NAN</DistanceMeters>
          </Trackpoint>
          <Trackpoint>
            <Time>2020-12-05T12:51:05.000Z</Time>
            <Position>
              <LatitudeDegrees>36.83007088489830493927001953125</LatitudeDegrees>
              <LongitudeDegrees>-4.38215344212949275970458984375</LongitudeDegrees>
            </Position>
            <AltitudeMeters>740</AltitudeMeters>
            <DistanceMeters>NAN</DistanceMeters>
          </Trackpoint>
          <Trackpoint>
            <Time>2020-12-05T12:51:06.000Z</Time>
            <Position>
              <LatitudeDegrees>36.8300625868141651153564453125</LatitudeDegrees>
              <LongitudeDegrees>-4.382164590060710906982421875</LongitudeDegrees>
            </Position>
            <AltitudeMeters>740</AltitudeMeters>
            <DistanceMeters>NAN</DistanceMeters>
          </Trackpoint>
          <Trackpoint>
            <Time>2020-12-05T12:51:07.000Z</Time>
            <Position>
              <LatitudeDegrees>36.83005713857710361480712890625</LatitudeDegrees>
              <LongitudeDegrees>-4.38217674382030963897705078125</LongitudeDegrees>
            </Position>
            <AltitudeMeters>740</AltitudeMeters>
            <DistanceMeters>NAN</DistanceMeters>
          </Trackpoint>
          <Trackpoint>
            <Time>2020-12-05T12:51:08.000Z</Time>
            <Position>
              <LatitudeDegrees>36.83005311526358127593994140625</LatitudeDegrees>
              <LongitudeDegrees>-4.38218713738024234771728515625</LongitudeDegrees>
            </Position>
            <AltitudeMeters>740</AltitudeMeters>
            <DistanceMeters>NAN</DistanceMeters>
          </Trackpoint>
          <Trackpoint>
            <Time>2020-12-05T12:51:09.000Z</Time>
            <Position>
              <LatitudeDegrees>36.8300518579781055450439453125</LatitudeDegrees>
              <LongitudeDegrees>-4.38220138661563396453857421875</LongitudeDegrees>
            </Position>
            <AltitudeMeters>740</AltitudeMeters>
            <DistanceMeters>NAN</DistanceMeters>
          </Trackpoint>
          <Trackpoint>
            <Time>2020-12-05T12:51:10.000Z</Time>
            <Position>
              <LatitudeDegrees>36.830049343407154083251953125</LatitudeDegrees>
              <LongitudeDegrees>-4.38221697695553302764892578125</LongitudeDegrees>
            </Position>
            <AltitudeMeters>740</AltitudeMeters>
            <DistanceMeters>NAN</DistanceMeters>
          </Trackpoint>
          <Trackpoint>
            <Time>2020-12-05T12:51:11.000Z</Time>
            <Position>
              <LatitudeDegrees>36.830045990645885467529296875</LatitudeDegrees>
              <LongitudeDegrees>-4.38223290257155895233154296875</LongitudeDegrees>
            </Position>
            <AltitudeMeters>740</AltitudeMeters>
            <DistanceMeters>NAN</DistanceMeters>
          </Trackpoint>
          <Trackpoint>
            <Time>2020-12-05T12:51:12.000Z</Time>
            <Position>
              <LatitudeDegrees>36.83003836311399936676025390625</LatitudeDegrees>
              <LongitudeDegrees>-4.38224631361663341522216796875</LongitudeDegrees>
            </Position>
            <AltitudeMeters>740</AltitudeMeters>
            <DistanceMeters>NAN</DistanceMeters>
          </Trackpoint>
          <Trackpoint>
            <Time>2020-12-05T12:51:13.000Z</Time>
            <Position>
              <LatitudeDegrees>36.83003182522952556610107421875</LatitudeDegrees>
              <LongitudeDegrees>-4.382254779338836669921875</LongitudeDegrees>
            </Position>
            <AltitudeMeters>740</AltitudeMeters>
            <DistanceMeters>NAN</DistanceMeters>
          </Trackpoint>
          <Trackpoint>
            <Time>2020-12-05T12:51:14.000Z</Time>
            <Position>
              <LatitudeDegrees>36.8300250358879566192626953125</LatitudeDegrees>
              <LongitudeDegrees>-4.38226307742297649383544921875</LongitudeDegrees>
            </Position>
            <AltitudeMeters>740</AltitudeMeters>
            <DistanceMeters>NAN</DistanceMeters>
          </Trackpoint>
          <Trackpoint>
            <Time>2020-12-05T12:51:15.000Z</Time>
            <Position>
              <LatitudeDegrees>36.830015815794467926025390625</LatitudeDegrees>
              <LongitudeDegrees>-4.38227196224033832550048828125</LongitudeDegrees>
            </Position>
            <AltitudeMeters>740</AltitudeMeters>
            <DistanceMeters>NAN</DistanceMeters>
          </Trackpoint>
          <Trackpoint>
            <Time>2020-12-05T12:51:16.000Z</Time>
            <Position>
              <LatitudeDegrees>36.83000785298645496368408203125</LatitudeDegrees>
              <LongitudeDegrees>-4.3822804279625415802001953125</LongitudeDegrees>
            </Position>
            <AltitudeMeters>740</AltitudeMeters>
            <DistanceMeters>NAN</DistanceMeters>
          </Trackpoint>
          <Trackpoint>
            <Time>2020-12-05T12:51:17.000Z</Time>
            <Position>
              <LatitudeDegrees>36.829999051988124847412109375</LatitudeDegrees>
              <LongitudeDegrees>-4.3822898156940937042236328125</LongitudeDegrees>
            </Position>
            <AltitudeMeters>740</AltitudeMeters>
            <DistanceMeters>NAN</DistanceMeters>
          </Trackpoint>
          <Trackpoint>
            <Time>2020-12-05T12:51:18.000Z</Time>
            <Position>
              <LatitudeDegrees>36.82999058626592159271240234375</LatitudeDegrees>
              <LongitudeDegrees>-4.3823052383959293365478515625</LongitudeDegrees>
            </Position>
            <AltitudeMeters>740</AltitudeMeters>
            <DistanceMeters>NAN</DistanceMeters>
          </Trackpoint>
          <Trackpoint>
            <Time>2020-12-05T12:51:19.000Z</Time>
            <Position>
              <LatitudeDegrees>36.8299841322004795074462890625</LatitudeDegrees>
              <LongitudeDegrees>-4.38231856562197208404541015625</LongitudeDegrees>
            </Position>
            <AltitudeMeters>740</AltitudeMeters>
            <DistanceMeters>NAN</DistanceMeters>
          </Trackpoint>
          <Trackpoint>
            <Time>2020-12-05T12:51:20.000Z</Time>
            <Position>
              <LatitudeDegrees>36.82997717522084712982177734375</LatitudeDegrees>
              <LongitudeDegrees>-4.3823280371725559234619140625</LongitudeDegrees>
            </Position>
            <AltitudeMeters>740</AltitudeMeters>
            <DistanceMeters>NAN</DistanceMeters>
          </Trackpoint>
          <Trackpoint>
            <Time>2020-12-05T12:51:21.000Z</Time>
            <Position>
              <LatitudeDegrees>36.82997055351734161376953125</LatitudeDegrees>
              <LongitudeDegrees>-4.3823374249041080474853515625</LongitudeDegrees>
            </Position>
            <AltitudeMeters>740</AltitudeMeters>
            <DistanceMeters>NAN</DistanceMeters>
          </Trackpoint>
          <Trackpoint>
            <Time>2020-12-05T12:51:22.000Z</Time>
            <Position>
              <LatitudeDegrees>36.82996242307126522064208984375</LatitudeDegrees>
              <LongitudeDegrees>-4.38234664499759674072265625</LongitudeDegrees>
            </Position>
            <AltitudeMeters>740</AltitudeMeters>
            <DistanceMeters>NAN</DistanceMeters>
          </Trackpoint>
          <Trackpoint>
            <Time>2020-12-05T12:51:23.000Z</Time>
            <Position>
              <LatitudeDegrees>36.82995052076876163482666015625</LatitudeDegrees>
              <LongitudeDegrees>-4.38235896639525890350341796875</LongitudeDegrees>
            </Position>
            <AltitudeMeters>740</AltitudeMeters>
            <DistanceMeters>NAN</DistanceMeters>
          </Trackpoint>
          <Trackpoint>
            <Time>2020-12-05T12:51:24.000Z</Time>
            <Position>
              <LatitudeDegrees>36.829940378665924072265625</LatitudeDegrees>
              <LongitudeDegrees>-4.3823726288974285125732421875</LongitudeDegrees>
            </Position>
            <AltitudeMeters>740</AltitudeMeters>
            <DistanceMeters>NAN</DistanceMeters>
          </Trackpoint>
          <Trackpoint>
            <Time>2020-12-05T12:51:25.000Z</Time>
            <Position>
              <LatitudeDegrees>36.82992721907794475555419921875</LatitudeDegrees>
              <LongitudeDegrees>-4.38238687813282012939453125</LongitudeDegrees>
            </Position>
            <AltitudeMeters>740</AltitudeMeters>
            <DistanceMeters>NAN</DistanceMeters>
          </Trackpoint>
          <Trackpoint>
            <Time>2020-12-05T12:51:26.000Z</Time>
            <Position>
              <LatitudeDegrees>36.82991514913737773895263671875</LatitudeDegrees>
              <LongitudeDegrees>-4.38240070827305316925048828125</LongitudeDegrees>
            </Position>
            <AltitudeMeters>740</AltitudeMeters>
            <DistanceMeters>NAN</DistanceMeters>
          </Trackpoint>
          <Trackpoint>
            <Time>2020-12-05T12:51:27.000Z</Time>
            <Position>
              <LatitudeDegrees>36.829903833568096160888671875</LatitudeDegrees>
              <LongitudeDegrees>-4.38241227529942989349365234375</LongitudeDegrees>
            </Position>
            <AltitudeMeters>740</AltitudeMeters>
            <DistanceMeters>NAN</DistanceMeters>
          </Trackpoint>
          <Trackpoint>
            <Time>2020-12-05T12:51:28.000Z</Time>
            <Position>
              <LatitudeDegrees>36.82989411056041717529296875</LatitudeDegrees>
              <LongitudeDegrees>-4.38242719508707523345947265625</LongitudeDegrees>
            </Position>
            <AltitudeMeters>740</AltitudeMeters>
            <DistanceMeters>NAN</DistanceMeters>
          </Trackpoint>
          <Trackpoint>
            <Time>2020-12-05T12:51:29.000Z</Time>
            <Position>
              <LatitudeDegrees>36.82988396845757961273193359375</LatitudeDegrees>
              <LongitudeDegrees>-4.38244278542697429656982421875</LongitudeDegrees>
            </Position>
            <AltitudeMeters>740</AltitudeMeters>
            <DistanceMeters>NAN</DistanceMeters>
          </Trackpoint>
          <Trackpoint>
            <Time>2020-12-05T12:51:30.000Z</Time>
            <Position>
              <LatitudeDegrees>36.8298731558024883270263671875</LatitudeDegrees>
              <LongitudeDegrees>-4.382454268634319305419921875</LongitudeDegrees>
            </Position>
            <AltitudeMeters>740</AltitudeMeters>
            <DistanceMeters>NAN</DistanceMeters>
          </Trackpoint>
          <Trackpoint>
            <Time>2020-12-05T12:51:31.000Z</Time>
            <Position>
              <LatitudeDegrees>36.8298639357089996337890625</LatitudeDegrees>
              <LongitudeDegrees>-4.3824651651084423065185546875</LongitudeDegrees>
            </Position>
            <AltitudeMeters>740</AltitudeMeters>
            <DistanceMeters>NAN</DistanceMeters>
          </Trackpoint>
          <Trackpoint>
            <Time>2020-12-05T12:51:32.000Z</Time>
            <Position>
              <LatitudeDegrees>36.82985790073871612548828125</LatitudeDegrees>
              <LongitudeDegrees>-4.38247798942029476165771484375</LongitudeDegrees>
            </Position>
            <AltitudeMeters>740</AltitudeMeters>
            <DistanceMeters>NAN</DistanceMeters>
          </Trackpoint>
          <Trackpoint>
            <Time>2020-12-05T12:51:33.000Z</Time>
            <Position>
              <LatitudeDegrees>36.82985027320683002471923828125</LatitudeDegrees>
              <LongitudeDegrees>-4.3824889697134494781494140625</LongitudeDegrees>
            </Position>
            <AltitudeMeters>740</AltitudeMeters>
            <DistanceMeters>NAN</DistanceMeters>
          </Trackpoint>
          <Trackpoint>
            <Time>2020-12-05T12:51:34.000Z</Time>
            <Position>
              <LatitudeDegrees>36.8298446573317050933837890625</LatitudeDegrees>
              <LongitudeDegrees>-4.3824973516166210174560546875</LongitudeDegrees>
            </Position>
            <AltitudeMeters>740</AltitudeMeters>
            <DistanceMeters>NAN</DistanceMeters>
          </Trackpoint>
          <Trackpoint>
            <Time>2020-12-05T12:51:35.000Z</Time>
            <Position>
              <LatitudeDegrees>36.82983954437077045440673828125</LatitudeDegrees>
              <LongitudeDegrees>-4.3825053982436656951904296875</LongitudeDegrees>
            </Position>
            <AltitudeMeters>740</AltitudeMeters>
            <DistanceMeters>NAN</DistanceMeters>
          </Trackpoint>
          <Trackpoint>
            <Time>2020-12-05T12:51:36.000Z</Time>
            <Position>
              <LatitudeDegrees>36.8298359401524066925048828125</LatitudeDegrees>
              <LongitudeDegrees>-4.38251520507037639617919921875</LongitudeDegrees>
            </Position>
            <AltitudeMeters>740</AltitudeMeters>
            <DistanceMeters>NAN</DistanceMeters>
          </Trackpoint>
          <Trackpoint>
            <Time>2020-12-05T12:51:37.000Z</Time>
            <Position>
              <LatitudeDegrees>36.8298302404582500457763671875</LatitudeDegrees>
              <LongitudeDegrees>-4.38252769410610198974609375</LongitudeDegrees>
            </Position>
            <AltitudeMeters>740</AltitudeMeters>
            <DistanceMeters>NAN</DistanceMeters>
          </Trackpoint>
          <Trackpoint>
            <Time>2020-12-05T12:51:38.000Z</Time>
            <Position>
              <LatitudeDegrees>36.82982495985925197601318359375</LatitudeDegrees>
              <LongitudeDegrees>-4.3825402669608592987060546875</LongitudeDegrees>
            </Position>
            <AltitudeMeters>740</AltitudeMeters>
            <DistanceMeters>NAN</DistanceMeters>
          </Trackpoint>
          <Trackpoint>
            <Time>2020-12-05T12:51:39.000Z</Time>
            <Position>
              <LatitudeDegrees>36.829820014536380767822265625</LatitudeDegrees>
              <LongitudeDegrees>-4.3825503252446651458740234375</LongitudeDegrees>
            </Position>
            <AltitudeMeters>740</AltitudeMeters>
            <DistanceMeters>NAN</DistanceMeters>
          </Trackpoint>
          <Trackpoint>
            <Time>2020-12-05T12:51:40.000Z</Time>
            <Position>
              <LatitudeDegrees>36.829813309013843536376953125</LatitudeDegrees>
              <LongitudeDegrees>-4.38256214372813701629638671875</LongitudeDegrees>
            </Position>
            <AltitudeMeters>740</AltitudeMeters>
            <DistanceMeters>NAN</DistanceMeters>
          </Trackpoint>
          <Trackpoint>
            <Time>2020-12-05T12:51:41.000Z</Time>
            <Position>
              <LatitudeDegrees>36.8298054300248622894287109375</LatitudeDegrees>
              <LongitudeDegrees>-4.38257454894483089447021484375</LongitudeDegrees>
            </Position>
            <AltitudeMeters>740</AltitudeMeters>
            <DistanceMeters>NAN</DistanceMeters>
          </Trackpoint>
          <Trackpoint>
            <Time>2020-12-05T12:51:42.000Z</Time>
            <Position>
              <LatitudeDegrees>36.82979662902653217315673828125</LatitudeDegrees>
              <LongitudeDegrees>-4.3825878761708736419677734375</LongitudeDegrees>
            </Position>
            <AltitudeMeters>740</AltitudeMeters>
            <DistanceMeters>NAN</DistanceMeters>
          </Trackpoint>
          <Trackpoint>
            <Time>2020-12-05T12:51:43.000Z</Time>
            <Position>
              <LatitudeDegrees>36.8297869898378849029541015625</LatitudeDegrees>
              <LongitudeDegrees>-4.382600449025630950927734375</LongitudeDegrees>
            </Position>
            <AltitudeMeters>740</AltitudeMeters>
            <DistanceMeters>NAN</DistanceMeters>
          </Trackpoint>
          <Trackpoint>
            <Time>2020-12-05T12:51:44.000Z</Time>
            <Position>
              <LatitudeDegrees>36.82977567426860332489013671875</LatitudeDegrees>
              <LongitudeDegrees>-4.38261360861361026763916015625</LongitudeDegrees>
            </Position>
            <AltitudeMeters>740</AltitudeMeters>
            <DistanceMeters>NAN</DistanceMeters>
          </Trackpoint>
          <Trackpoint>
            <Time>2020-12-05T12:51:45.000Z</Time>
            <Position>
              <LatitudeDegrees>36.8297662027180194854736328125</LatitudeDegrees>
              <LongitudeDegrees>-4.38262282870709896087646484375</LongitudeDegrees>
            </Position>
            <AltitudeMeters>740</AltitudeMeters>
            <DistanceMeters>NAN</DistanceMeters>
          </Trackpoint>
          <Trackpoint>
            <Time>2020-12-05T12:51:46.000Z</Time>
            <Position>
              <LatitudeDegrees>36.8297594971954822540283203125</LatitudeDegrees>
              <LongitudeDegrees>-4.38263221643865108489990234375</LongitudeDegrees>
            </Position>
            <AltitudeMeters>740</AltitudeMeters>
            <DistanceMeters>NAN</DistanceMeters>
          </Trackpoint>
          <Trackpoint>
            <Time>2020-12-05T12:51:47.000Z</Time>
            <Position>
              <LatitudeDegrees>36.829752959311008453369140625</LatitudeDegrees>
              <LongitudeDegrees>-4.38264294527471065521240234375</LongitudeDegrees>
            </Position>
            <AltitudeMeters>740</AltitudeMeters>
            <DistanceMeters>NAN</DistanceMeters>
          </Trackpoint>
          <Trackpoint>
            <Time>2020-12-05T12:51:48.000Z</Time>
            <Position>
              <LatitudeDegrees>36.82974700815975666046142578125</LatitudeDegrees>
              <LongitudeDegrees>-4.3826556019484996795654296875</LongitudeDegrees>
            </Position>
            <AltitudeMeters>740</AltitudeMeters>
            <DistanceMeters>NAN</DistanceMeters>
          </Trackpoint>
          <Trackpoint>
            <Time>2020-12-05T12:51:49.000Z</Time>
            <Position>
              <LatitudeDegrees>36.82974256575107574462890625</LatitudeDegrees>
              <LongitudeDegrees>-4.3826663307845592498779296875</LongitudeDegrees>
            </Position>
            <AltitudeMeters>740</AltitudeMeters>
            <DistanceMeters>NAN</DistanceMeters>
          </Trackpoint>
          <Trackpoint>
            <Time>2020-12-05T12:51:50.000Z</Time>
            <Position>
              <LatitudeDegrees>36.82973845861852169036865234375</LatitudeDegrees>
              <LongitudeDegrees>-4.382675550878047943115234375</LongitudeDegrees>
            </Position>
            <AltitudeMeters>740</AltitudeMeters>
            <DistanceMeters>NAN</DistanceMeters>
          </Trackpoint>
          <Trackpoint>
            <Time>2020-12-05T12:51:51.000Z</Time>
            <Position>
              <LatitudeDegrees>36.82973309420049190521240234375</LatitudeDegrees>
              <LongitudeDegrees>-4.38268301077187061309814453125</LongitudeDegrees>
            </Position>
            <AltitudeMeters>740</AltitudeMeters>
            <DistanceMeters>NAN</DistanceMeters>
          </Trackpoint>
          <Trackpoint>
            <Time>2020-12-05T12:51:52.000Z</Time>
            <Position>
              <LatitudeDegrees>36.8297271430492401123046875</LatitudeDegrees>
              <LongitudeDegrees>-4.382691644132137298583984375</LongitudeDegrees>
            </Position>
            <AltitudeMeters>740</AltitudeMeters>
            <DistanceMeters>NAN</DistanceMeters>
          </Trackpoint>
          <Trackpoint>
            <Time>2020-12-05T12:51:53.000Z</Time>
            <Position>
              <LatitudeDegrees>36.8297209404408931732177734375</LatitudeDegrees>
              <LongitudeDegrees>-4.3827005289494991302490234375</LongitudeDegrees>
            </Position>
            <AltitudeMeters>740</AltitudeMeters>
            <DistanceMeters>NAN</DistanceMeters>
          </Trackpoint>
          <Trackpoint>
            <Time>2020-12-05T12:51:54.000Z</Time>
            <Position>
              <LatitudeDegrees>36.829714067280292510986328125</LatitudeDegrees>
              <LongitudeDegrees>-4.382710419595241546630859375</LongitudeDegrees>
            </Position>
            <AltitudeMeters>740</AltitudeMeters>
            <DistanceMeters>NAN</DistanceMeters>
          </Trackpoint>
          <Trackpoint>
            <Time>2020-12-05T12:51:55.000Z</Time>
            <Position>
              <LatitudeDegrees>36.82970426045358180999755859375</LatitudeDegrees>
              <LongitudeDegrees>-4.38272005878388881683349609375</LongitudeDegrees>
            </Position>
            <AltitudeMeters>740</AltitudeMeters>
            <DistanceMeters>NAN</DistanceMeters>
          </Trackpoint>
          <Trackpoint>
            <Time>2020-12-05T12:51:56.000Z</Time>
            <Position>
              <LatitudeDegrees>36.829690597951412200927734375</LatitudeDegrees>
              <LongitudeDegrees>-4.3827330507338047027587890625</LongitudeDegrees>
            </Position>
            <AltitudeMeters>740</AltitudeMeters>
            <DistanceMeters>NAN</DistanceMeters>
          </Trackpoint>
          <Trackpoint>
            <Time>2020-12-05T12:51:57.000Z</Time>
            <Position>
              <LatitudeDegrees>36.82968095876276493072509765625</LatitudeDegrees>
              <LongitudeDegrees>-4.38274503685534000396728515625</LongitudeDegrees>
            </Position>
            <AltitudeMeters>740</AltitudeMeters>
            <DistanceMeters>NAN</DistanceMeters>
          </Trackpoint>
          <Trackpoint>
            <Time>2020-12-05T12:51:58.000Z</Time>
            <Position>
              <LatitudeDegrees>36.8296719901263713836669921875</LatitudeDegrees>
              <LongitudeDegrees>-4.382759369909763336181640625</LongitudeDegrees>
            </Position>
            <AltitudeMeters>740</AltitudeMeters>
            <DistanceMeters>NAN</DistanceMeters>
          </Trackpoint>
          <Trackpoint>
            <Time>2020-12-05T12:51:59.000Z</Time>
            <Position>
              <LatitudeDegrees>36.829665787518024444580078125</LatitudeDegrees>
              <LongitudeDegrees>-4.3827742896974086761474609375</LongitudeDegrees>
            </Position>
            <AltitudeMeters>740</AltitudeMeters>
            <DistanceMeters>NAN</DistanceMeters>
          </Trackpoint>
          <Trackpoint>
            <Time>2020-12-05T12:52:00.000Z</Time>
            <Position>
              <LatitudeDegrees>36.82966209948062896728515625</LatitudeDegrees>
              <LongitudeDegrees>-4.38278845511376857757568359375</LongitudeDegrees>
            </Position>
            <AltitudeMeters>747.5999755859375</AltitudeMeters>
            <DistanceMeters>NAN</DistanceMeters>
          </Trackpoint>
          <Trackpoint>
            <Time>2020-12-05T12:52:01.000Z</Time>
            <Position>
              <LatitudeDegrees>36.82965748943388462066650390625</LatitudeDegrees>
              <LongitudeDegrees>-4.38279784284532070159912109375</LongitudeDegrees>
            </Position>
            <AltitudeMeters>747.5999755859375</AltitudeMeters>
            <DistanceMeters>NAN</DistanceMeters>
          </Trackpoint>
          <Trackpoint>
            <Time>2020-12-05T12:52:02.000Z</Time>
            <Position>
              <LatitudeDegrees>36.82965296320617198944091796875</LatitudeDegrees>
              <LongitudeDegrees>-4.38280622474849224090576171875</LongitudeDegrees>
            </Position>
            <AltitudeMeters>747.5999755859375</AltitudeMeters>
            <DistanceMeters>NAN</DistanceMeters>
          </Trackpoint>
          <Trackpoint>
            <Time>2020-12-05T12:52:03.000Z</Time>
            <Position>
              <LatitudeDegrees>36.82964592240750789642333984375</LatitudeDegrees>
              <LongitudeDegrees>-4.382814355194568634033203125</LongitudeDegrees>
            </Position>
            <AltitudeMeters>747.5999755859375</AltitudeMeters>
            <DistanceMeters>NAN</DistanceMeters>
          </Trackpoint>
          <Trackpoint>
            <Time>2020-12-05T12:52:04.000Z</Time>
            <Position>
              <LatitudeDegrees>36.82963804341852664947509765625</LatitudeDegrees>
              <LongitudeDegrees>-4.3828212283551692962646484375</LongitudeDegrees>
            </Position>
            <AltitudeMeters>747.5999755859375</AltitudeMeters>
            <DistanceMeters>NAN</DistanceMeters>
          </Trackpoint>
          <Trackpoint>
            <Time>2020-12-05T12:52:05.000Z</Time>
            <Position>
              <LatitudeDegrees>36.829626895487308502197265625</LatitudeDegrees>
              <LongitudeDegrees>-4.38283002935349941253662109375</LongitudeDegrees>
            </Position>
            <AltitudeMeters>747.5999755859375</AltitudeMeters>
            <DistanceMeters>NAN</DistanceMeters>
          </Trackpoint>
          <Trackpoint>
            <Time>2020-12-05T12:52:06.000Z</Time>
            <Position>
              <LatitudeDegrees>36.82961423881351947784423828125</LatitudeDegrees>
              <LongitudeDegrees>-4.38284008763730525970458984375</LongitudeDegrees>
            </Position>
            <AltitudeMeters>747.5999755859375</AltitudeMeters>
            <DistanceMeters>NAN</DistanceMeters>
          </Trackpoint>
          <Trackpoint>
            <Time>2020-12-05T12:52:07.000Z</Time>
            <Position>
              <LatitudeDegrees>36.829601414501667022705078125</LatitudeDegrees>
              <LongitudeDegrees>-4.3828475475311279296875</LongitudeDegrees>
            </Position>
            <AltitudeMeters>747.5999755859375</AltitudeMeters>
            <DistanceMeters>NAN</DistanceMeters>
          </Trackpoint>
          <Trackpoint>
            <Time>2020-12-05T12:52:08.000Z</Time>
            <Position>
              <LatitudeDegrees>36.82958967983722686767578125</LatitudeDegrees>
              <LongitudeDegrees>-4.38285986892879009246826171875</LongitudeDegrees>
            </Position>
            <AltitudeMeters>747.5999755859375</AltitudeMeters>
            <DistanceMeters>NAN</DistanceMeters>
          </Trackpoint>
          <Trackpoint>
            <Time>2020-12-05T12:52:09.000Z</Time>
            <Position>
              <LatitudeDegrees>36.82957953773438930511474609375</LatitudeDegrees>
              <LongitudeDegrees>-4.382873363792896270751953125</LongitudeDegrees>
            </Position>
            <AltitudeMeters>747.5999755859375</AltitudeMeters>
            <DistanceMeters>NAN</DistanceMeters>
          </Trackpoint>
          <Trackpoint>
            <Time>2020-12-05T12:52:10.000Z</Time>
            <Position>
              <LatitudeDegrees>36.8295710720121860504150390625</LatitudeDegrees>
              <LongitudeDegrees>-4.38288149423897266387939453125</LongitudeDegrees>
            </Position>
            <AltitudeMeters>747.5999755859375</AltitudeMeters>
            <DistanceMeters>NAN</DistanceMeters>
          </Trackpoint>
          <Trackpoint>
            <Time>2020-12-05T12:52:11.000Z</Time>
            <Position>
              <LatitudeDegrees>36.82956377975642681121826171875</LatitudeDegrees>
              <LongitudeDegrees>-4.38288702629506587982177734375</LongitudeDegrees>
            </Position>
            <AltitudeMeters>747.5999755859375</AltitudeMeters>
            <DistanceMeters>NAN</DistanceMeters>
          </Trackpoint>
          <Trackpoint>
            <Time>2020-12-05T12:52:12.000Z</Time>
            <Position>
              <LatitudeDegrees>36.829558499157428741455078125</LatitudeDegrees>
              <LongitudeDegrees>-4.3828946538269519805908203125</LongitudeDegrees>
            </Position>
            <AltitudeMeters>747.5999755859375</AltitudeMeters>
            <DistanceMeters>NAN</DistanceMeters>
          </Trackpoint>
          <Trackpoint>
            <Time>2020-12-05T12:52:13.000Z</Time>
            <Position>
              <LatitudeDegrees>36.8295549787580966949462890625</LatitudeDegrees>
              <LongitudeDegrees>-4.3829070590436458587646484375</LongitudeDegrees>
            </Position>
            <AltitudeMeters>747.5999755859375</AltitudeMeters>
            <DistanceMeters>NAN</DistanceMeters>
          </Trackpoint>
          <Trackpoint>
            <Time>2020-12-05T12:52:14.000Z</Time>
            <Position>
              <LatitudeDegrees>36.82955003343522548675537109375</LatitudeDegrees>
              <LongitudeDegrees>-4.3829144351184368133544921875</LongitudeDegrees>
            </Position>
            <AltitudeMeters>747.5999755859375</AltitudeMeters>
            <DistanceMeters>NAN</DistanceMeters>
          </Trackpoint>
          <Trackpoint>
            <Time>2020-12-05T12:52:15.000Z</Time>
            <Position>
              <LatitudeDegrees>36.8295474350452423095703125</LatitudeDegrees>
              <LongitudeDegrees>-4.38291904516518115997314453125</LongitudeDegrees>
            </Position>
            <AltitudeMeters>747.5999755859375</AltitudeMeters>
            <DistanceMeters>NAN</DistanceMeters>
          </Trackpoint>
          <Trackpoint>
            <Time>2020-12-05T12:52:16.000Z</Time>
            <Position>
              <LatitudeDegrees>36.82954517193138599395751953125</LatitudeDegrees>
              <LongitudeDegrees>-4.38291904516518115997314453125</LongitudeDegrees>
            </Position>
            <AltitudeMeters>747.5999755859375</AltitudeMeters>
            <DistanceMeters>NAN</DistanceMeters>
          </Trackpoint>
          <Trackpoint>
            <Time>2020-12-05T12:52:17.000Z</Time>
            <Position>
              <LatitudeDegrees>36.829540729522705078125</LatitudeDegrees>
              <LongitudeDegrees>-4.3829194642603397369384765625</LongitudeDegrees>
            </Position>
            <AltitudeMeters>747.5999755859375</AltitudeMeters>
            <DistanceMeters>NAN</DistanceMeters>
          </Trackpoint>
          <Trackpoint>
            <Time>2020-12-05T12:52:18.000Z</Time>
            <Position>
              <LatitudeDegrees>36.82953444309532642364501953125</LatitudeDegrees>
              <LongitudeDegrees>-4.3829221464693546295166015625</LongitudeDegrees>
            </Position>
            <AltitudeMeters>747.5999755859375</AltitudeMeters>
            <DistanceMeters>NAN</DistanceMeters>
          </Trackpoint>
          <Trackpoint>
            <Time>2020-12-05T12:52:19.000Z</Time>
            <Position>
              <LatitudeDegrees>36.8295237980782985687255859375</LatitudeDegrees>
              <LongitudeDegrees>-4.38291929662227630615234375</LongitudeDegrees>
            </Position>
            <AltitudeMeters>747.5999755859375</AltitudeMeters>
            <DistanceMeters>NAN</DistanceMeters>
          </Trackpoint>
          <Trackpoint>
            <Time>2020-12-05T12:52:20.000Z</Time>
            <Position>
              <LatitudeDegrees>36.82951390743255615234375</LatitudeDegrees>
              <LongitudeDegrees>-4.3829157762229442596435546875</LongitudeDegrees>
            </Position>
            <AltitudeMeters>747.5999755859375</AltitudeMeters>
            <DistanceMeters>NAN</DistanceMeters>
          </Trackpoint>
          <Trackpoint>
            <Time>2020-12-05T12:52:21.000Z</Time>
            <Position>
              <LatitudeDegrees>36.82950175367295742034912109375</LatitudeDegrees>
              <LongitudeDegrees>-4.3829104118049144744873046875</LongitudeDegrees>
            </Position>
            <AltitudeMeters>747.5999755859375</AltitudeMeters>
            <DistanceMeters>NAN</DistanceMeters>
          </Trackpoint>
          <Trackpoint>
            <Time>2020-12-05T12:52:22.000Z</Time>
            <Position>
              <LatitudeDegrees>36.82949052192270755767822265625</LatitudeDegrees>
              <LongitudeDegrees>-4.38290194608271121978759765625</LongitudeDegrees>
            </Position>
            <AltitudeMeters>747.5999755859375</AltitudeMeters>
            <DistanceMeters>NAN</DistanceMeters>
          </Trackpoint>
          <Trackpoint>
            <Time>2020-12-05T12:52:23.000Z</Time>
            <Position>
              <LatitudeDegrees>36.8294785358011722564697265625</LatitudeDegrees>
              <LongitudeDegrees>-4.38289222307503223419189453125</LongitudeDegrees>
            </Position>
            <AltitudeMeters>747.5999755859375</AltitudeMeters>
            <DistanceMeters>NAN</DistanceMeters>
          </Trackpoint>
          <Trackpoint>
            <Time>2020-12-05T12:52:24.000Z</Time>
            <Position>
              <LatitudeDegrees>36.8294671364128589630126953125</LatitudeDegrees>
              <LongitudeDegrees>-4.382886104285717010498046875</LongitudeDegrees>
            </Position>
            <AltitudeMeters>747.5999755859375</AltitudeMeters>
            <DistanceMeters>NAN</DistanceMeters>
          </Trackpoint>
          <Trackpoint>
            <Time>2020-12-05T12:52:25.000Z</Time>
            <Position>
              <LatitudeDegrees>36.82945565320551395416259765625</LatitudeDegrees>
              <LongitudeDegrees>-4.382880069315433502197265625</LongitudeDegrees>
            </Position>
            <AltitudeMeters>747.5999755859375</AltitudeMeters>
            <DistanceMeters>NAN</DistanceMeters>
          </Trackpoint>
          <Trackpoint>
            <Time>2020-12-05T12:52:26.000Z</Time>
            <Position>
              <LatitudeDegrees>36.82944274507462978363037109375</LatitudeDegrees>
              <LongitudeDegrees>-4.38287210650742053985595703125</LongitudeDegrees>
            </Position>
            <AltitudeMeters>747.5999755859375</AltitudeMeters>
            <DistanceMeters>NAN</DistanceMeters>
          </Trackpoint>
          <Trackpoint>
            <Time>2020-12-05T12:52:27.000Z</Time>
            <Position>
              <LatitudeDegrees>36.829428412020206451416015625</LatitudeDegrees>
              <LongitudeDegrees>-4.382867328822612762451171875</LongitudeDegrees>
            </Position>
            <AltitudeMeters>747.5999755859375</AltitudeMeters>
            <DistanceMeters>NAN</DistanceMeters>
          </Trackpoint>
          <Trackpoint>
            <Time>2020-12-05T12:52:28.000Z</Time>
            <Position>
              <LatitudeDegrees>36.82941609062254428863525390625</LatitudeDegrees>
              <LongitudeDegrees>-4.38286338932812213897705078125</LongitudeDegrees>
            </Position>
            <AltitudeMeters>747.5999755859375</AltitudeMeters>
            <DistanceMeters>NAN</DistanceMeters>
          </Trackpoint>
          <Trackpoint>
            <Time>2020-12-05T12:52:29.000Z</Time>
            <Position>
              <LatitudeDegrees>36.82940368540585041046142578125</LatitudeDegrees>
              <LongitudeDegrees>-4.382855594158172607421875</LongitudeDegrees>
            </Position>
            <AltitudeMeters>747.5999755859375</AltitudeMeters>
            <DistanceMeters>NAN</DistanceMeters>
          </Trackpoint>
          <Trackpoint>
            <Time>2020-12-05T12:52:30.000Z</Time>
            <Position>
              <LatitudeDegrees>36.82939253747463226318359375</LatitudeDegrees>
              <LongitudeDegrees>-4.38284830190241336822509765625</LongitudeDegrees>
            </Position>
            <AltitudeMeters>747.5999755859375</AltitudeMeters>
            <DistanceMeters>NAN</DistanceMeters>
          </Trackpoint>
          <Trackpoint>
            <Time>2020-12-05T12:52:31.000Z</Time>
            <Position>
              <LatitudeDegrees>36.829382479190826416015625</LatitudeDegrees>
              <LongitudeDegrees>-4.3828393332660198211669921875</LongitudeDegrees>
            </Position>
            <AltitudeMeters>747.5999755859375</AltitudeMeters>
            <DistanceMeters>NAN</DistanceMeters>
          </Trackpoint>
          <Trackpoint>
            <Time>2020-12-05T12:52:32.000Z</Time>
            <Position>
              <LatitudeDegrees>36.8293712474405765533447265625</LatitudeDegrees>
              <LongitudeDegrees>-4.3828259222209453582763671875</LongitudeDegrees>
            </Position>
            <AltitudeMeters>747.5999755859375</AltitudeMeters>
            <DistanceMeters>NAN</DistanceMeters>
          </Trackpoint>
          <Trackpoint>
            <Time>2020-12-05T12:52:33.000Z</Time>
            <Position>
              <LatitudeDegrees>36.8293618597090244293212890625</LatitudeDegrees>
              <LongitudeDegrees>-4.3828178755939006805419921875</LongitudeDegrees>
            </Position>
            <AltitudeMeters>747.5999755859375</AltitudeMeters>
            <DistanceMeters>NAN</DistanceMeters>
          </Trackpoint>
          <Trackpoint>
            <Time>2020-12-05T12:52:34.000Z</Time>
            <Position>
              <LatitudeDegrees>36.82935372926294803619384765625</LatitudeDegrees>
              <LongitudeDegrees>-4.382813684642314910888671875</LongitudeDegrees>
            </Position>
            <AltitudeMeters>747.5999755859375</AltitudeMeters>
            <DistanceMeters>NAN</DistanceMeters>
          </Trackpoint>
          <Trackpoint>
            <Time>2020-12-05T12:52:35.000Z</Time>
            <Position>
              <LatitudeDegrees>36.8293437547981739044189453125</LatitudeDegrees>
              <LongitudeDegrees>-4.382807649672031402587890625</LongitudeDegrees>
            </Position>
            <AltitudeMeters>747.5999755859375</AltitudeMeters>
            <DistanceMeters>NAN</DistanceMeters>
          </Trackpoint>
          <Trackpoint>
            <Time>2020-12-05T12:52:36.000Z</Time>
            <Position>
              <LatitudeDegrees>36.829333864152431488037109375</LatitudeDegrees>
              <LongitudeDegrees>-4.3827987648546695709228515625</LongitudeDegrees>
            </Position>
            <AltitudeMeters>747.5999755859375</AltitudeMeters>
            <DistanceMeters>NAN</DistanceMeters>
          </Trackpoint>
          <Trackpoint>
            <Time>2020-12-05T12:52:37.000Z</Time>
            <Position>
              <LatitudeDegrees>36.82932506315410137176513671875</LatitudeDegrees>
              <LongitudeDegrees>-4.382790215313434600830078125</LongitudeDegrees>
            </Position>
            <AltitudeMeters>747.5999755859375</AltitudeMeters>
            <DistanceMeters>NAN</DistanceMeters>
          </Trackpoint>
          <Trackpoint>
            <Time>2020-12-05T12:52:38.000Z</Time>
            <Position>
              <LatitudeDegrees>36.8293154239654541015625</LatitudeDegrees>
              <LongitudeDegrees>-4.382780492305755615234375</LongitudeDegrees>
            </Position>
            <AltitudeMeters>747.5999755859375</AltitudeMeters>
            <DistanceMeters>NAN</DistanceMeters>
          </Trackpoint>
          <Trackpoint>
            <Time>2020-12-05T12:52:39.000Z</Time>
            <Position>
              <LatitudeDegrees>36.8293065391480922698974609375</LatitudeDegrees>
              <LongitudeDegrees>-4.3827732838690280914306640625</LongitudeDegrees>
            </Position>
            <AltitudeMeters>747.5999755859375</AltitudeMeters>
            <DistanceMeters>NAN</DistanceMeters>
          </Trackpoint>
          <Trackpoint>
            <Time>2020-12-05T12:52:40.000Z</Time>
            <Position>
              <LatitudeDegrees>36.82929907925426959991455078125</LatitudeDegrees>
              <LongitudeDegrees>-4.38276800327003002166748046875</LongitudeDegrees>
            </Position>
            <AltitudeMeters>747.5999755859375</AltitudeMeters>
            <DistanceMeters>NAN</DistanceMeters>
          </Trackpoint>
          <Trackpoint>
            <Time>2020-12-05T12:52:41.000Z</Time>
            <Position>
              <LatitudeDegrees>36.82929052971303462982177734375</LatitudeDegrees>
              <LongitudeDegrees>-4.382758699357509613037109375</LongitudeDegrees>
            </Position>
            <AltitudeMeters>747.5999755859375</AltitudeMeters>
            <DistanceMeters>NAN</DistanceMeters>
          </Trackpoint>
          <Trackpoint>
            <Time>2020-12-05T12:52:42.000Z</Time>
            <Position>
              <LatitudeDegrees>36.82928281836211681365966796875</LatitudeDegrees>
              <LongitudeDegrees>-4.3827444501221179962158203125</LongitudeDegrees>
            </Position>
            <AltitudeMeters>747.5999755859375</AltitudeMeters>
            <DistanceMeters>NAN</DistanceMeters>
          </Trackpoint>
          <Trackpoint>
            <Time>2020-12-05T12:52:43.000Z</Time>
            <Position>
              <LatitudeDegrees>36.82927426882088184356689453125</LatitudeDegrees>
              <LongitudeDegrees>-4.38272416591644287109375</LongitudeDegrees>
            </Position>
            <AltitudeMeters>747.5999755859375</AltitudeMeters>
            <DistanceMeters>NAN</DistanceMeters>
          </Trackpoint>
          <Trackpoint>
            <Time>2020-12-05T12:52:44.000Z</Time>
            <Position>
              <LatitudeDegrees>36.82926454581320285797119140625</LatitudeDegrees>
              <LongitudeDegrees>-4.38271067105233669281005859375</LongitudeDegrees>
            </Position>
            <AltitudeMeters>747.5999755859375</AltitudeMeters>
            <DistanceMeters>NAN</DistanceMeters>
          </Trackpoint>
          <Trackpoint>
            <Time>2020-12-05T12:52:45.000Z</Time>
            <Position>
              <LatitudeDegrees>36.82925574481487274169921875</LatitudeDegrees>
              <LongitudeDegrees>-4.3826975114643573760986328125</LongitudeDegrees>
            </Position>
            <AltitudeMeters>747.5999755859375</AltitudeMeters>
            <DistanceMeters>NAN</DistanceMeters>
          </Trackpoint>
          <Trackpoint>
            <Time>2020-12-05T12:52:46.000Z</Time>
            <Position>
              <LatitudeDegrees>36.829244680702686309814453125</LatitudeDegrees>
              <LongitudeDegrees>-4.38268351368606090545654296875</LongitudeDegrees>
            </Position>
            <AltitudeMeters>747.5999755859375</AltitudeMeters>
            <DistanceMeters>NAN</DistanceMeters>
          </Trackpoint>
          <Trackpoint>
            <Time>2020-12-05T12:52:47.000Z</Time>
            <Position>
              <LatitudeDegrees>36.8292334489524364471435546875</LatitudeDegrees>
              <LongitudeDegrees>-4.38267496414482593536376953125</LongitudeDegrees>
            </Position>
            <AltitudeMeters>747.5999755859375</AltitudeMeters>
            <DistanceMeters>NAN</DistanceMeters>
          </Trackpoint>
          <Trackpoint>
            <Time>2020-12-05T12:52:48.000Z</Time>
            <Position>
              <LatitudeDegrees>36.8292254023253917694091796875</LatitudeDegrees>
              <LongitudeDegrees>-4.382665492594242095947265625</LongitudeDegrees>
            </Position>
            <AltitudeMeters>747.5999755859375</AltitudeMeters>
            <DistanceMeters>NAN</DistanceMeters>
          </Trackpoint>
          <Trackpoint>
            <Time>2020-12-05T12:52:49.000Z</Time>
            <Position>
              <LatitudeDegrees>36.8292146734893321990966796875</LatitudeDegrees>
              <LongitudeDegrees>-4.38266272656619548797607421875</LongitudeDegrees>
            </Position>
            <AltitudeMeters>747.5999755859375</AltitudeMeters>
            <DistanceMeters>NAN</DistanceMeters>
          </Trackpoint>
          <Trackpoint>
            <Time>2020-12-05T12:52:50.000Z</Time>
            <Position>
              <LatitudeDegrees>36.82920771650969982147216796875</LatitudeDegrees>
              <LongitudeDegrees>-4.38265635631978511810302734375</LongitudeDegrees>
            </Position>
            <AltitudeMeters>747.5999755859375</AltitudeMeters>
            <DistanceMeters>NAN</DistanceMeters>
          </Trackpoint>
          <Trackpoint>
            <Time>2020-12-05T12:52:51.000Z</Time>
            <Position>
              <LatitudeDegrees>36.8292005918920040130615234375</LatitudeDegrees>
              <LongitudeDegrees>-4.382648728787899017333984375</LongitudeDegrees>
            </Position>
            <AltitudeMeters>747.5999755859375</AltitudeMeters>
            <DistanceMeters>NAN</DistanceMeters>
          </Trackpoint>
          <Trackpoint>
            <Time>2020-12-05T12:52:52.000Z</Time>
            <Position>
              <LatitudeDegrees>36.82919405400753021240234375</LatitudeDegrees>
              <LongitudeDegrees>-4.38264034688472747802734375</LongitudeDegrees>
            </Position>
            <AltitudeMeters>747.5999755859375</AltitudeMeters>
            <DistanceMeters>NAN</DistanceMeters>
          </Trackpoint>
          <Trackpoint>
            <Time>2020-12-05T12:52:53.000Z</Time>
            <Position>
              <LatitudeDegrees>36.82918868958950042724609375</LatitudeDegrees>
              <LongitudeDegrees>-4.382629282772541046142578125</LongitudeDegrees>
            </Position>
            <AltitudeMeters>747.5999755859375</AltitudeMeters>
            <DistanceMeters>NAN</DistanceMeters>
          </Trackpoint>
          <Trackpoint>
            <Time>2020-12-05T12:52:54.000Z</Time>
            <Position>
              <LatitudeDegrees>36.82918575592339038848876953125</LatitudeDegrees>
              <LongitudeDegrees>-4.3826150335371494293212890625</LongitudeDegrees>
            </Position>
            <AltitudeMeters>747.5999755859375</AltitudeMeters>
            <DistanceMeters>NAN</DistanceMeters>
          </Trackpoint>
          <Trackpoint>
            <Time>2020-12-05T12:52:55.000Z</Time>
            <Position>
              <LatitudeDegrees>36.8291808106005191802978515625</LatitudeDegrees>
              <LongitudeDegrees>-4.38260220922529697418212890625</LongitudeDegrees>
            </Position>
            <AltitudeMeters>747.5999755859375</AltitudeMeters>
            <DistanceMeters>NAN</DistanceMeters>
          </Trackpoint>
          <Trackpoint>
            <Time>2020-12-05T12:52:56.000Z</Time>
            <Position>
              <LatitudeDegrees>36.82917603291571140289306640625</LatitudeDegrees>
              <LongitudeDegrees>-4.3825905583798885345458984375</LongitudeDegrees>
            </Position>
            <AltitudeMeters>747.5999755859375</AltitudeMeters>
            <DistanceMeters>NAN</DistanceMeters>
          </Trackpoint>
          <Trackpoint>
            <Time>2020-12-05T12:52:57.000Z</Time>
            <Position>
              <LatitudeDegrees>36.82917100377380847930908203125</LatitudeDegrees>
              <LongitudeDegrees>-4.38257656060159206390380859375</LongitudeDegrees>
            </Position>
            <AltitudeMeters>747.5999755859375</AltitudeMeters>
            <DistanceMeters>NAN</DistanceMeters>
          </Trackpoint>
          <Trackpoint>
            <Time>2020-12-05T12:52:58.000Z</Time>
            <Position>
              <LatitudeDegrees>36.82916530407965183258056640625</LatitudeDegrees>
              <LongitudeDegrees>-4.38256323337554931640625</LongitudeDegrees>
            </Position>
            <AltitudeMeters>747.5999755859375</AltitudeMeters>
            <DistanceMeters>NAN</DistanceMeters>
          </Trackpoint>
          <Trackpoint>
            <Time>2020-12-05T12:52:59.000Z</Time>
            <Position>
              <LatitudeDegrees>36.829156838357448577880859375</LatitudeDegrees>
              <LongitudeDegrees>-4.38255309127271175384521484375</LongitudeDegrees>
            </Position>
            <AltitudeMeters>747.5999755859375</AltitudeMeters>
            <DistanceMeters>NAN</DistanceMeters>
          </Trackpoint>
          <Trackpoint>
            <Time>2020-12-05T12:53:00.000Z</Time>
            <Position>
              <LatitudeDegrees>36.82914736680686473846435546875</LatitudeDegrees>
              <LongitudeDegrees>-4.38254646956920623779296875</LongitudeDegrees>
            </Position>
            <AltitudeMeters>755.5999755859375</AltitudeMeters>
            <DistanceMeters>NAN</DistanceMeters>
          </Trackpoint>
          <Trackpoint>
            <Time>2020-12-05T12:53:01.000Z</Time>
            <Position>
              <LatitudeDegrees>36.82913898490369319915771484375</LatitudeDegrees>
              <LongitudeDegrees>-4.382538758218288421630859375</LongitudeDegrees>
            </Position>
            <AltitudeMeters>755.5999755859375</AltitudeMeters>
            <DistanceMeters>NAN</DistanceMeters>
          </Trackpoint>
          <Trackpoint>
            <Time>2020-12-05T12:53:02.000Z</Time>
            <Position>
              <LatitudeDegrees>36.82913144119083881378173828125</LatitudeDegrees>
              <LongitudeDegrees>-4.3825295381247997283935546875</LongitudeDegrees>
            </Position>
            <AltitudeMeters>755.5999755859375</AltitudeMeters>
            <DistanceMeters>NAN</DistanceMeters>
          </Trackpoint>
          <Trackpoint>
            <Time>2020-12-05T12:53:03.000Z</Time>
            <Position>
              <LatitudeDegrees>36.829121299088001251220703125</LatitudeDegrees>
              <LongitudeDegrees>-4.3825189769268035888671875</LongitudeDegrees>
            </Position>
            <AltitudeMeters>755.5999755859375</AltitudeMeters>
            <DistanceMeters>NAN</DistanceMeters>
          </Trackpoint>
          <Trackpoint>
            <Time>2020-12-05T12:53:04.000Z</Time>
            <Position>
              <LatitudeDegrees>36.8291114084422588348388671875</LatitudeDegrees>
              <LongitudeDegrees>-4.382511265575885772705078125</LongitudeDegrees>
            </Position>
            <AltitudeMeters>755.5999755859375</AltitudeMeters>
            <DistanceMeters>NAN</DistanceMeters>
          </Trackpoint>
          <Trackpoint>
            <Time>2020-12-05T12:53:05.000Z</Time>
            <Position>
              <LatitudeDegrees>36.8291048705577850341796875</LatitudeDegrees>
              <LongitudeDegrees>-4.38250514678657054901123046875</LongitudeDegrees>
            </Position>
            <AltitudeMeters>755.5999755859375</AltitudeMeters>
            <DistanceMeters>NAN</DistanceMeters>
          </Trackpoint>
          <Trackpoint>
            <Time>2020-12-05T12:53:06.000Z</Time>
            <Position>
              <LatitudeDegrees>36.82909925468266010284423828125</LatitudeDegrees>
              <LongitudeDegrees>-4.38249860890209674835205078125</LongitudeDegrees>
            </Position>
            <AltitudeMeters>755.5999755859375</AltitudeMeters>
            <DistanceMeters>NAN</DistanceMeters>
          </Trackpoint>
          <Trackpoint>
            <Time>2020-12-05T12:53:07.000Z</Time>
            <Position>
              <LatitudeDegrees>36.82909288443624973297119140625</LatitudeDegrees>
              <LongitudeDegrees>-4.3824899755418300628662109375</LongitudeDegrees>
            </Position>
            <AltitudeMeters>755.5999755859375</AltitudeMeters>
            <DistanceMeters>NAN</DistanceMeters>
          </Trackpoint>
          <Trackpoint>
            <Time>2020-12-05T12:53:08.000Z</Time>
            <Position>
              <LatitudeDegrees>36.829087100923061370849609375</LatitudeDegrees>
              <LongitudeDegrees>-4.3824779056012630462646484375</LongitudeDegrees>
            </Position>
            <AltitudeMeters>755.5999755859375</AltitudeMeters>
            <DistanceMeters>NAN</DistanceMeters>
          </Trackpoint>
          <Trackpoint>
            <Time>2020-12-05T12:53:09.000Z</Time>
            <Position>
              <LatitudeDegrees>36.82908031158149242401123046875</LatitudeDegrees>
              <LongitudeDegrees>-4.38246608711779117584228515625</LongitudeDegrees>
            </Position>
            <AltitudeMeters>755.5999755859375</AltitudeMeters>
            <DistanceMeters>NAN</DistanceMeters>
          </Trackpoint>
          <Trackpoint>
            <Time>2020-12-05T12:53:10.000Z</Time>
            <Position>
              <LatitudeDegrees>36.82907243259251117706298828125</LatitudeDegrees>
              <LongitudeDegrees>-4.38245519064366817474365234375</LongitudeDegrees>
            </Position>
            <AltitudeMeters>755.5999755859375</AltitudeMeters>
            <DistanceMeters>NAN</DistanceMeters>
          </Trackpoint>
          <Trackpoint>
            <Time>2020-12-05T12:53:11.000Z</Time>
            <Position>
              <LatitudeDegrees>36.82906203903257846832275390625</LatitudeDegrees>
              <LongitudeDegrees>-4.382444880902767181396484375</LongitudeDegrees>
            </Position>
            <AltitudeMeters>755.5999755859375</AltitudeMeters>
            <DistanceMeters>NAN</DistanceMeters>
          </Trackpoint>
          <Trackpoint>
            <Time>2020-12-05T12:53:12.000Z</Time>
            <Position>
              <LatitudeDegrees>36.8290513940155506134033203125</LatitudeDegrees>
              <LongitudeDegrees>-4.3824353255331516265869140625</LongitudeDegrees>
            </Position>
            <AltitudeMeters>755.5999755859375</AltitudeMeters>
            <DistanceMeters>NAN</DistanceMeters>
          </Trackpoint>
          <Trackpoint>
            <Time>2020-12-05T12:53:13.000Z</Time>
            <Position>
              <LatitudeDegrees>36.8290399946272373199462890625</LatitudeDegrees>
              <LongitudeDegrees>-4.3824209086596965789794921875</LongitudeDegrees>
            </Position>
            <AltitudeMeters>755.5999755859375</AltitudeMeters>
            <DistanceMeters>NAN</DistanceMeters>
          </Trackpoint>
          <Trackpoint>
            <Time>2020-12-05T12:53:14.000Z</Time>
            <Position>
              <LatitudeDegrees>36.82902851141989231109619140625</LatitudeDegrees>
              <LongitudeDegrees>-4.38240976072847843170166015625</LongitudeDegrees>
            </Position>
            <AltitudeMeters>755.5999755859375</AltitudeMeters>
            <DistanceMeters>NAN</DistanceMeters>
          </Trackpoint>
          <Trackpoint>
            <Time>2020-12-05T12:53:15.000Z</Time>
            <Position>
              <LatitudeDegrees>36.82901761494576930999755859375</LatitudeDegrees>
              <LongitudeDegrees>-4.38239936716854572296142578125</LongitudeDegrees>
            </Position>
            <AltitudeMeters>755.5999755859375</AltitudeMeters>
            <DistanceMeters>NAN</DistanceMeters>
          </Trackpoint>
          <Trackpoint>
            <Time>2020-12-05T12:53:16.000Z</Time>
            <Position>
              <LatitudeDegrees>36.82900420390069484710693359375</LatitudeDegrees>
              <LongitudeDegrees>-4.38238847069442272186279296875</LongitudeDegrees>
            </Position>
            <AltitudeMeters>755.5999755859375</AltitudeMeters>
            <DistanceMeters>NAN</DistanceMeters>
          </Trackpoint>
          <Trackpoint>
            <Time>2020-12-05T12:53:17.000Z</Time>
            <Position>
              <LatitudeDegrees>36.82899154722690582275390625</LatitudeDegrees>
              <LongitudeDegrees>-4.38238017261028289794921875</LongitudeDegrees>
            </Position>
            <AltitudeMeters>755.5999755859375</AltitudeMeters>
            <DistanceMeters>NAN</DistanceMeters>
          </Trackpoint>
          <Trackpoint>
            <Time>2020-12-05T12:53:18.000Z</Time>
            <Position>
              <LatitudeDegrees>36.8289793096482753753662109375</LatitudeDegrees>
              <LongitudeDegrees>-4.3823773227632045745849609375</LongitudeDegrees>
            </Position>
            <AltitudeMeters>755.5999755859375</AltitudeMeters>
            <DistanceMeters>NAN</DistanceMeters>
          </Trackpoint>
          <Trackpoint>
            <Time>2020-12-05T12:53:19.000Z</Time>
            <Position>
              <LatitudeDegrees>36.8289665691554546356201171875</LatitudeDegrees>
              <LongitudeDegrees>-4.382372461259365081787109375</LongitudeDegrees>
            </Position>
            <AltitudeMeters>755.5999755859375</AltitudeMeters>
            <DistanceMeters>NAN</DistanceMeters>
          </Trackpoint>
          <Trackpoint>
            <Time>2020-12-05T12:53:20.000Z</Time>
            <Position>
              <LatitudeDegrees>36.8289573490619659423828125</LatitudeDegrees>
              <LongitudeDegrees>-4.382369779050350189208984375</LongitudeDegrees>
            </Position>
            <AltitudeMeters>755.5999755859375</AltitudeMeters>
            <DistanceMeters>NAN</DistanceMeters>
          </Trackpoint>
          <Trackpoint>
            <Time>2020-12-05T12:53:21.000Z</Time>
            <Position>
              <LatitudeDegrees>36.82894821278750896453857421875</LatitudeDegrees>
              <LongitudeDegrees>-4.382365085184574127197265625</LongitudeDegrees>
            </Position>
            <AltitudeMeters>755.5999755859375</AltitudeMeters>
            <DistanceMeters>NAN</DistanceMeters>
          </Trackpoint>
          <Trackpoint>
            <Time>2020-12-05T12:53:22.000Z</Time>
            <Position>
              <LatitudeDegrees>36.82894033379852771759033203125</LatitudeDegrees>
              <LongitudeDegrees>-4.38236148096621036529541015625</LongitudeDegrees>
            </Position>
            <AltitudeMeters>755.5999755859375</AltitudeMeters>
            <DistanceMeters>NAN</DistanceMeters>
          </Trackpoint>
          <Trackpoint>
            <Time>2020-12-05T12:53:23.000Z</Time>
            <Position>
              <LatitudeDegrees>36.82893228717148303985595703125</LatitudeDegrees>
              <LongitudeDegrees>-4.38235896639525890350341796875</LongitudeDegrees>
            </Position>
            <AltitudeMeters>755.5999755859375</AltitudeMeters>
            <DistanceMeters>NAN</DistanceMeters>
          </Trackpoint>
          <Trackpoint>
            <Time>2020-12-05T12:53:24.000Z</Time>
            <Position>
              <LatitudeDegrees>36.82892491109669208526611328125</LatitudeDegrees>
              <LongitudeDegrees>-4.38235561363399028778076171875</LongitudeDegrees>
            </Position>
            <AltitudeMeters>755.5999755859375</AltitudeMeters>
            <DistanceMeters>NAN</DistanceMeters>
          </Trackpoint>
          <Trackpoint>
            <Time>2020-12-05T12:53:25.000Z</Time>
            <Position>
              <LatitudeDegrees>36.82891870848834514617919921875</LatitudeDegrees>
              <LongitudeDegrees>-4.38234957866370677947998046875</LongitudeDegrees>
            </Position>
            <AltitudeMeters>755.5999755859375</AltitudeMeters>
            <DistanceMeters>NAN</DistanceMeters>
          </Trackpoint>
          <Trackpoint>
            <Time>2020-12-05T12:53:26.000Z</Time>
            <Position>
              <LatitudeDegrees>36.82891099713742733001708984375</LatitudeDegrees>
              <LongitudeDegrees>-4.38234404660761356353759765625</LongitudeDegrees>
            </Position>
            <AltitudeMeters>755.5999755859375</AltitudeMeters>
            <DistanceMeters>NAN</DistanceMeters>
          </Trackpoint>
          <Trackpoint>
            <Time>2020-12-05T12:53:27.000Z</Time>
            <Position>
              <LatitudeDegrees>36.8289008550345897674560546875</LatitudeDegrees>
              <LongitudeDegrees>-4.38233952037990093231201171875</LongitudeDegrees>
            </Position>
            <AltitudeMeters>755.5999755859375</AltitudeMeters>
            <DistanceMeters>NAN</DistanceMeters>
          </Trackpoint>
          <Trackpoint>
            <Time>2020-12-05T12:53:28.000Z</Time>
            <Position>
              <LatitudeDegrees>36.82889071293175220489501953125</LatitudeDegrees>
              <LongitudeDegrees>-4.382334910333156585693359375</LongitudeDegrees>
            </Position>
            <AltitudeMeters>755.5999755859375</AltitudeMeters>
            <DistanceMeters>NAN</DistanceMeters>
          </Trackpoint>
          <Trackpoint>
            <Time>2020-12-05T12:53:29.000Z</Time>
            <Position>
              <LatitudeDegrees>36.82887881062924861907958984375</LatitudeDegrees>
              <LongitudeDegrees>-4.382329545915126800537109375</LongitudeDegrees>
            </Position>
            <AltitudeMeters>755.5999755859375</AltitudeMeters>
            <DistanceMeters>NAN</DistanceMeters>
          </Trackpoint>
          <Trackpoint>
            <Time>2020-12-05T12:53:30.000Z</Time>
            <Position>
              <LatitudeDegrees>36.828865818679332733154296875</LatitudeDegrees>
              <LongitudeDegrees>-4.38232292421162128448486328125</LongitudeDegrees>
            </Position>
            <AltitudeMeters>755.5999755859375</AltitudeMeters>
            <DistanceMeters>NAN</DistanceMeters>
          </Trackpoint>
          <Trackpoint>
            <Time>2020-12-05T12:53:31.000Z</Time>
            <Position>
              <LatitudeDegrees>36.8288555927574634552001953125</LatitudeDegrees>
              <LongitudeDegrees>-4.38232074491679668426513671875</LongitudeDegrees>
            </Position>
            <AltitudeMeters>755.5999755859375</AltitudeMeters>
            <DistanceMeters>NAN</DistanceMeters>
          </Trackpoint>
          <Trackpoint>
            <Time>2020-12-05T12:53:32.000Z</Time>
            <Position>
              <LatitudeDegrees>36.82884402573108673095703125</LatitudeDegrees>
              <LongitudeDegrees>-4.38232091255486011505126953125</LongitudeDegrees>
            </Position>
            <AltitudeMeters>755.5999755859375</AltitudeMeters>
            <DistanceMeters>NAN</DistanceMeters>
          </Trackpoint>
          <Trackpoint>
            <Time>2020-12-05T12:53:33.000Z</Time>
            <Position>
              <LatitudeDegrees>36.8288317881524562835693359375</LatitudeDegrees>
              <LongitudeDegrees>-4.38231638632714748382568359375</LongitudeDegrees>
            </Position>
            <AltitudeMeters>755.5999755859375</AltitudeMeters>
            <DistanceMeters>NAN</DistanceMeters>
          </Trackpoint>
          <Trackpoint>
            <Time>2020-12-05T12:53:34.000Z</Time>
            <Position>
              <LatitudeDegrees>36.8288200534880161285400390625</LatitudeDegrees>
              <LongitudeDegrees>-4.38231169246137142181396484375</LongitudeDegrees>
            </Position>
            <AltitudeMeters>755.5999755859375</AltitudeMeters>
            <DistanceMeters>NAN</DistanceMeters>
          </Trackpoint>
          <Trackpoint>
            <Time>2020-12-05T12:53:35.000Z</Time>
            <Position>
              <LatitudeDegrees>36.82880823500454425811767578125</LatitudeDegrees>
              <LongitudeDegrees>-4.3823085911571979522705078125</LongitudeDegrees>
            </Position>
            <AltitudeMeters>755.5999755859375</AltitudeMeters>
            <DistanceMeters>NAN</DistanceMeters>
          </Trackpoint>
          <Trackpoint>
            <Time>2020-12-05T12:53:36.000Z</Time>
            <Position>
              <LatitudeDegrees>36.8287972547113895416259765625</LatitudeDegrees>
              <LongitudeDegrees>-4.38230917789041996002197265625</LongitudeDegrees>
            </Position>
            <AltitudeMeters>755.5999755859375</AltitudeMeters>
            <DistanceMeters>NAN</DistanceMeters>
          </Trackpoint>
          <Trackpoint>
            <Time>2020-12-05T12:53:37.000Z</Time>
            <Position>
              <LatitudeDegrees>36.82878627441823482513427734375</LatitudeDegrees>
              <LongitudeDegrees>-4.38231135718524456024169921875</LongitudeDegrees>
            </Position>
            <AltitudeMeters>755.5999755859375</AltitudeMeters>
            <DistanceMeters>NAN</DistanceMeters>
          </Trackpoint>
          <Trackpoint>
            <Time>2020-12-05T12:53:38.000Z</Time>
            <Position>
              <LatitudeDegrees>36.8287764675915241241455078125</LatitudeDegrees>
              <LongitudeDegrees>-4.38231152482330799102783203125</LongitudeDegrees>
            </Position>
            <AltitudeMeters>755.5999755859375</AltitudeMeters>
            <DistanceMeters>NAN</DistanceMeters>
          </Trackpoint>
          <Trackpoint>
            <Time>2020-12-05T12:53:39.000Z</Time>
            <Position>
              <LatitudeDegrees>36.82876515202224254608154296875</LatitudeDegrees>
              <LongitudeDegrees>-4.38230833970010280609130859375</LongitudeDegrees>
            </Position>
            <AltitudeMeters>755.5999755859375</AltitudeMeters>
            <DistanceMeters>NAN</DistanceMeters>
          </Trackpoint>
          <Trackpoint>
            <Time>2020-12-05T12:53:40.000Z</Time>
            <Position>
              <LatitudeDegrees>36.82875283062458038330078125</LatitudeDegrees>
              <LongitudeDegrees>-4.3823097646236419677734375</LongitudeDegrees>
            </Position>
            <AltitudeMeters>755.5999755859375</AltitudeMeters>
            <DistanceMeters>NAN</DistanceMeters>
          </Trackpoint>
          <Trackpoint>
            <Time>2020-12-05T12:53:41.000Z</Time>
            <Position>
              <LatitudeDegrees>36.828740425407886505126953125</LatitudeDegrees>
              <LongitudeDegrees>-4.38231521286070346832275390625</LongitudeDegrees>
            </Position>
            <AltitudeMeters>755.5999755859375</AltitudeMeters>
            <DistanceMeters>NAN</DistanceMeters>
          </Trackpoint>
          <Trackpoint>
            <Time>2020-12-05T12:53:42.000Z</Time>
            <Position>
              <LatitudeDegrees>36.828725673258304595947265625</LatitudeDegrees>
              <LongitudeDegrees>-4.38232376240193843841552734375</LongitudeDegrees>
            </Position>
            <AltitudeMeters>755.5999755859375</AltitudeMeters>
            <DistanceMeters>NAN</DistanceMeters>
          </Trackpoint>
          <Trackpoint>
            <Time>2020-12-05T12:53:43.000Z</Time>
            <Position>
              <LatitudeDegrees>36.82871318422257900238037109375</LatitudeDegrees>
              <LongitudeDegrees>-4.38233130611479282379150390625</LongitudeDegrees>
            </Position>
            <AltitudeMeters>755.5999755859375</AltitudeMeters>
            <DistanceMeters>NAN</DistanceMeters>
          </Trackpoint>
          <Trackpoint>
            <Time>2020-12-05T12:53:44.000Z</Time>
            <Position>
              <LatitudeDegrees>36.82870496995747089385986328125</LatitudeDegrees>
              <LongitudeDegrees>-4.3823391012847423553466796875</LongitudeDegrees>
            </Position>
            <AltitudeMeters>755.5999755859375</AltitudeMeters>
            <DistanceMeters>NAN</DistanceMeters>
          </Trackpoint>
          <Trackpoint>
            <Time>2020-12-05T12:53:45.000Z</Time>
            <Position>
              <LatitudeDegrees>36.82869675569236278533935546875</LatitudeDegrees>
              <LongitudeDegrees>-4.382345639169216156005859375</LongitudeDegrees>
            </Position>
            <AltitudeMeters>755.5999755859375</AltitudeMeters>
            <DistanceMeters>NAN</DistanceMeters>
          </Trackpoint>
          <Trackpoint>
            <Time>2020-12-05T12:53:46.000Z</Time>
            <Position>
              <LatitudeDegrees>36.82868803851306438446044921875</LatitudeDegrees>
              <LongitudeDegrees>-4.38235142268240451812744140625</LongitudeDegrees>
            </Position>
            <AltitudeMeters>755.5999755859375</AltitudeMeters>
            <DistanceMeters>NAN</DistanceMeters>
          </Trackpoint>
          <Trackpoint>
            <Time>2020-12-05T12:53:47.000Z</Time>
            <Position>
              <LatitudeDegrees>36.82867814786732196807861328125</LatitudeDegrees>
              <LongitudeDegrees>-4.38235896639525890350341796875</LongitudeDegrees>
            </Position>
            <AltitudeMeters>755.5999755859375</AltitudeMeters>
            <DistanceMeters>NAN</DistanceMeters>
          </Trackpoint>
          <Trackpoint>
            <Time>2020-12-05T12:53:48.000Z</Time>
            <Position>
              <LatitudeDegrees>36.82866632938385009765625</LatitudeDegrees>
              <LongitudeDegrees>-4.38236634247004985809326171875</LongitudeDegrees>
            </Position>
            <AltitudeMeters>755.5999755859375</AltitudeMeters>
            <DistanceMeters>NAN</DistanceMeters>
          </Trackpoint>
          <Trackpoint>
            <Time>2020-12-05T12:53:49.000Z</Time>
            <Position>
              <LatitudeDegrees>36.8286567740142345428466796875</LatitudeDegrees>
              <LongitudeDegrees>-4.3823712877929210662841796875</LongitudeDegrees>
            </Position>
            <AltitudeMeters>755.5999755859375</AltitudeMeters>
            <DistanceMeters>NAN</DistanceMeters>
          </Trackpoint>
          <Trackpoint>
            <Time>2020-12-05T12:53:50.000Z</Time>
            <Position>
              <LatitudeDegrees>36.82864696718752384185791015625</LatitudeDegrees>
              <LongitudeDegrees>-4.38237941823899745941162109375</LongitudeDegrees>
            </Position>
            <AltitudeMeters>755.5999755859375</AltitudeMeters>
            <DistanceMeters>NAN</DistanceMeters>
          </Trackpoint>
          <Trackpoint>
            <Time>2020-12-05T12:53:51.000Z</Time>
            <Position>
              <LatitudeDegrees>36.828636825084686279296875</LatitudeDegrees>
              <LongitudeDegrees>-4.38238629139959812164306640625</LongitudeDegrees>
            </Position>
            <AltitudeMeters>755.5999755859375</AltitudeMeters>
            <DistanceMeters>NAN</DistanceMeters>
          </Trackpoint>
          <Trackpoint>
            <Time>2020-12-05T12:53:52.000Z</Time>
            <Position>
              <LatitudeDegrees>36.82862701825797557830810546875</LatitudeDegrees>
              <LongitudeDegrees>-4.38239626586437225341796875</LongitudeDegrees>
            </Position>
            <AltitudeMeters>755.5999755859375</AltitudeMeters>
            <DistanceMeters>NAN</DistanceMeters>
          </Trackpoint>
          <Trackpoint>
            <Time>2020-12-05T12:53:53.000Z</Time>
            <Position>
              <LatitudeDegrees>36.828616373240947723388671875</LatitudeDegrees>
              <LongitudeDegrees>-4.3824061565101146697998046875</LongitudeDegrees>
            </Position>
            <AltitudeMeters>755.5999755859375</AltitudeMeters>
            <DistanceMeters>NAN</DistanceMeters>
          </Trackpoint>
          <Trackpoint>
            <Time>2020-12-05T12:53:54.000Z</Time>
            <Position>
              <LatitudeDegrees>36.8286034651100635528564453125</LatitudeDegrees>
              <LongitudeDegrees>-4.3824158795177936553955078125</LongitudeDegrees>
            </Position>
            <AltitudeMeters>755.5999755859375</AltitudeMeters>
            <DistanceMeters>NAN</DistanceMeters>
          </Trackpoint>
          <Trackpoint>
            <Time>2020-12-05T12:53:55.000Z</Time>
            <Position>
              <LatitudeDegrees>36.8285903893411159515380859375</LatitudeDegrees>
              <LongitudeDegrees>-4.3824242614209651947021484375</LongitudeDegrees>
            </Position>
            <AltitudeMeters>755.5999755859375</AltitudeMeters>
            <DistanceMeters>NAN</DistanceMeters>
          </Trackpoint>
          <Trackpoint>
            <Time>2020-12-05T12:53:56.000Z</Time>
            <Position>
              <LatitudeDegrees>36.828578151762485504150390625</LatitudeDegrees>
              <LongitudeDegrees>-4.38242786563932895660400390625</LongitudeDegrees>
            </Position>
            <AltitudeMeters>755.5999755859375</AltitudeMeters>
            <DistanceMeters>NAN</DistanceMeters>
          </Trackpoint>
          <Trackpoint>
            <Time>2020-12-05T12:53:57.000Z</Time>
            <Position>
              <LatitudeDegrees>36.82856935076415538787841796875</LatitudeDegrees>
              <LongitudeDegrees>-4.38243306241929531097412109375</LongitudeDegrees>
            </Position>
            <AltitudeMeters>755.5999755859375</AltitudeMeters>
            <DistanceMeters>NAN</DistanceMeters>
          </Trackpoint>
          <Trackpoint>
            <Time>2020-12-05T12:53:58.000Z</Time>
            <Position>
              <LatitudeDegrees>36.82856130413711071014404296875</LatitudeDegrees>
              <LongitudeDegrees>-4.38243993557989597320556640625</LongitudeDegrees>
            </Position>
            <AltitudeMeters>755.5999755859375</AltitudeMeters>
            <DistanceMeters>NAN</DistanceMeters>
          </Trackpoint>
          <Trackpoint>
            <Time>2020-12-05T12:53:59.000Z</Time>
            <Position>
              <LatitudeDegrees>36.8285511620342731475830078125</LatitudeDegrees>
              <LongitudeDegrees>-4.382447563111782073974609375</LongitudeDegrees>
            </Position>
            <AltitudeMeters>755.5999755859375</AltitudeMeters>
            <DistanceMeters>NAN</DistanceMeters>
          </Trackpoint>
          <Trackpoint>
            <Time>2020-12-05T12:54:00.000Z</Time>
            <Position>
              <LatitudeDegrees>36.8285411037504673004150390625</LatitudeDegrees>
              <LongitudeDegrees>-4.382456280291080474853515625</LongitudeDegrees>
            </Position>
            <AltitudeMeters>762.5999755859375</AltitudeMeters>
            <DistanceMeters>NAN</DistanceMeters>
          </Trackpoint>
          <Trackpoint>
            <Time>2020-12-05T12:54:01.000Z</Time>
            <Position>
              <LatitudeDegrees>36.82853154838085174560546875</LatitudeDegrees>
              <LongitudeDegrees>-4.3824613094329833984375</LongitudeDegrees>
            </Position>
            <AltitudeMeters>762.5999755859375</AltitudeMeters>
            <DistanceMeters>NAN</DistanceMeters>
          </Trackpoint>
          <Trackpoint>
            <Time>2020-12-05T12:54:02.000Z</Time>
            <Position>
              <LatitudeDegrees>36.82851947844028472900390625</LatitudeDegrees>
              <LongitudeDegrees>-4.38246491365134716033935546875</LongitudeDegrees>
            </Position>
            <AltitudeMeters>762.5999755859375</AltitudeMeters>
            <DistanceMeters>NAN</DistanceMeters>
          </Trackpoint>
          <Trackpoint>
            <Time>2020-12-05T12:54:03.000Z</Time>
            <Position>
              <LatitudeDegrees>36.8285094201564788818359375</LatitudeDegrees>
              <LongitudeDegrees>-4.38247178681194782257080078125</LongitudeDegrees>
            </Position>
            <AltitudeMeters>762.5999755859375</AltitudeMeters>
            <DistanceMeters>NAN</DistanceMeters>
          </Trackpoint>
          <Trackpoint>
            <Time>2020-12-05T12:54:04.000Z</Time>
            <Position>
              <LatitudeDegrees>36.82849927805364131927490234375</LatitudeDegrees>
              <LongitudeDegrees>-4.38247815705835819244384765625</LongitudeDegrees>
            </Position>
            <AltitudeMeters>762.5999755859375</AltitudeMeters>
            <DistanceMeters>NAN</DistanceMeters>
          </Trackpoint>
          <Trackpoint>
            <Time>2020-12-05T12:54:05.000Z</Time>
            <Position>
              <LatitudeDegrees>36.8284893035888671875</LatitudeDegrees>
              <LongitudeDegrees>-4.38248075544834136962890625</LongitudeDegrees>
            </Position>
            <AltitudeMeters>762.5999755859375</AltitudeMeters>
            <DistanceMeters>NAN</DistanceMeters>
          </Trackpoint>
          <Trackpoint>
            <Time>2020-12-05T12:54:06.000Z</Time>
            <Position>
              <LatitudeDegrees>36.82847966440021991729736328125</LatitudeDegrees>
              <LongitudeDegrees>-4.3824876286089420318603515625</LongitudeDegrees>
            </Position>
            <AltitudeMeters>762.5999755859375</AltitudeMeters>
            <DistanceMeters>NAN</DistanceMeters>
          </Trackpoint>
          <Trackpoint>
            <Time>2020-12-05T12:54:07.000Z</Time>
            <Position>
              <LatitudeDegrees>36.828470863401889801025390625</LatitudeDegrees>
              <LongitudeDegrees>-4.38249341212213039398193359375</LongitudeDegrees>
            </Position>
            <AltitudeMeters>762.5999755859375</AltitudeMeters>
            <DistanceMeters>NAN</DistanceMeters>
          </Trackpoint>
          <Trackpoint>
            <Time>2020-12-05T12:54:08.000Z</Time>
            <Position>
              <LatitudeDegrees>36.82846155948936939239501953125</LatitudeDegrees>
              <LongitudeDegrees>-4.3824960105121135711669921875</LongitudeDegrees>
            </Position>
            <AltitudeMeters>762.5999755859375</AltitudeMeters>
            <DistanceMeters>NAN</DistanceMeters>
          </Trackpoint>
          <Trackpoint>
            <Time>2020-12-05T12:54:09.000Z</Time>
            <Position>
              <LatitudeDegrees>36.8284530937671661376953125</LatitudeDegrees>
              <LongitudeDegrees>-4.3824963457882404327392578125</LongitudeDegrees>
            </Position>
            <AltitudeMeters>762.5999755859375</AltitudeMeters>
            <DistanceMeters>NAN</DistanceMeters>
          </Trackpoint>
          <Trackpoint>
            <Time>2020-12-05T12:54:10.000Z</Time>
            <Position>
              <LatitudeDegrees>36.828443370759487152099609375</LatitudeDegrees>
              <LongitudeDegrees>-4.38249425031244754791259765625</LongitudeDegrees>
            </Position>
            <AltitudeMeters>762.5999755859375</AltitudeMeters>
            <DistanceMeters>NAN</DistanceMeters>
          </Trackpoint>
          <Trackpoint>
            <Time>2020-12-05T12:54:11.000Z</Time>
            <Position>
              <LatitudeDegrees>36.82843088172376155853271484375</LatitudeDegrees>
              <LongitudeDegrees>-4.38249458558857440948486328125</LongitudeDegrees>
            </Position>
            <AltitudeMeters>762.5999755859375</AltitudeMeters>
            <DistanceMeters>NAN</DistanceMeters>
          </Trackpoint>
          <Trackpoint>
            <Time>2020-12-05T12:54:12.000Z</Time>
            <Position>
              <LatitudeDegrees>36.828419901430606842041015625</LatitudeDegrees>
              <LongitudeDegrees>-4.382496178150177001953125</LongitudeDegrees>
            </Position>
            <AltitudeMeters>762.5999755859375</AltitudeMeters>
            <DistanceMeters>NAN</DistanceMeters>
          </Trackpoint>
          <Trackpoint>
            <Time>2020-12-05T12:54:13.000Z</Time>
            <Position>
              <LatitudeDegrees>36.82841126807034015655517578125</LatitudeDegrees>
              <LongitudeDegrees>-4.382500536739826202392578125</LongitudeDegrees>
            </Position>
            <AltitudeMeters>762.5999755859375</AltitudeMeters>
            <DistanceMeters>NAN</DistanceMeters>
          </Trackpoint>
          <Trackpoint>
            <Time>2020-12-05T12:54:14.000Z</Time>
            <Position>
              <LatitudeDegrees>36.8284019641578197479248046875</LatitudeDegrees>
              <LongitudeDegrees>-4.38250313512980937957763671875</LongitudeDegrees>
            </Position>
            <AltitudeMeters>762.5999755859375</AltitudeMeters>
            <DistanceMeters>NAN</DistanceMeters>
          </Trackpoint>
          <Trackpoint>
            <Time>2020-12-05T12:54:15.000Z</Time>
            <Position>
              <LatitudeDegrees>36.82839316315948963165283203125</LatitudeDegrees>
              <LongitudeDegrees>-4.3825057335197925567626953125</LongitudeDegrees>
            </Position>
            <AltitudeMeters>762.5999755859375</AltitudeMeters>
            <DistanceMeters>NAN</DistanceMeters>
          </Trackpoint>
          <Trackpoint>
            <Time>2020-12-05T12:54:16.000Z</Time>
            <Position>
              <LatitudeDegrees>36.82838444598019123077392578125</LatitudeDegrees>
              <LongitudeDegrees>-4.382506906986236572265625</LongitudeDegrees>
            </Position>
            <AltitudeMeters>762.5999755859375</AltitudeMeters>
            <DistanceMeters>NAN</DistanceMeters>
          </Trackpoint>
          <Trackpoint>
            <Time>2020-12-05T12:54:17.000Z</Time>
            <Position>
              <LatitudeDegrees>36.82837455533444881439208984375</LatitudeDegrees>
              <LongitudeDegrees>-4.38250883482396602630615234375</LongitudeDegrees>
            </Position>
            <AltitudeMeters>762.5999755859375</AltitudeMeters>
            <DistanceMeters>NAN</DistanceMeters>
          </Trackpoint>
          <Trackpoint>
            <Time>2020-12-05T12:54:18.000Z</Time>
            <Position>
              <LatitudeDegrees>36.828364245593547821044921875</LatitudeDegrees>
              <LongitudeDegrees>-4.38250984065234661102294921875</LongitudeDegrees>
            </Position>
            <AltitudeMeters>762.5999755859375</AltitudeMeters>
            <DistanceMeters>NAN</DistanceMeters>
          </Trackpoint>
          <Trackpoint>
            <Time>2020-12-05T12:54:19.000Z</Time>
            <Position>
              <LatitudeDegrees>36.82835326530039310455322265625</LatitudeDegrees>
              <LongitudeDegrees>-4.38250632025301456451416015625</LongitudeDegrees>
            </Position>
            <AltitudeMeters>762.5999755859375</AltitudeMeters>
            <DistanceMeters>NAN</DistanceMeters>
          </Trackpoint>
          <Trackpoint>
            <Time>2020-12-05T12:54:20.000Z</Time>
            <Position>
              <LatitudeDegrees>36.82834136299788951873779296875</LatitudeDegrees>
              <LongitudeDegrees>-4.3825020454823970794677734375</LongitudeDegrees>
            </Position>
            <AltitudeMeters>762.5999755859375</AltitudeMeters>
            <DistanceMeters>NAN</DistanceMeters>
          </Trackpoint>
          <Trackpoint>
            <Time>2020-12-05T12:54:21.000Z</Time>
            <Position>
              <LatitudeDegrees>36.8283298797905445098876953125</LatitudeDegrees>
              <LongitudeDegrees>-4.38250078819692134857177734375</LongitudeDegrees>
            </Position>
            <AltitudeMeters>762.5999755859375</AltitudeMeters>
            <DistanceMeters>NAN</DistanceMeters>
          </Trackpoint>
          <Trackpoint>
            <Time>2020-12-05T12:54:22.000Z</Time>
            <Position>
              <LatitudeDegrees>36.82831923477351665496826171875</LatitudeDegrees>
              <LongitudeDegrees>-4.38250087201595306396484375</LongitudeDegrees>
            </Position>
            <AltitudeMeters>762.5999755859375</AltitudeMeters>
            <DistanceMeters>NAN</DistanceMeters>
          </Trackpoint>
          <Trackpoint>
            <Time>2020-12-05T12:54:23.000Z</Time>
            <Position>
              <LatitudeDegrees>36.82830934412777423858642578125</LatitudeDegrees>
              <LongitudeDegrees>-4.38250011764466762542724609375</LongitudeDegrees>
            </Position>
            <AltitudeMeters>762.5999755859375</AltitudeMeters>
            <DistanceMeters>NAN</DistanceMeters>
          </Trackpoint>
          <Trackpoint>
            <Time>2020-12-05T12:54:24.000Z</Time>
            <Position>
              <LatitudeDegrees>36.82829844765365123748779296875</LatitudeDegrees>
              <LongitudeDegrees>-4.38249492086470127105712890625</LongitudeDegrees>
            </Position>
            <AltitudeMeters>762.5999755859375</AltitudeMeters>
            <DistanceMeters>NAN</DistanceMeters>
          </Trackpoint>
          <Trackpoint>
            <Time>2020-12-05T12:54:25.000Z</Time>
            <Position>
              <LatitudeDegrees>36.82828872464597225189208984375</LatitudeDegrees>
              <LongitudeDegrees>-4.3824929930269718170166015625</LongitudeDegrees>
            </Position>
            <AltitudeMeters>762.5999755859375</AltitudeMeters>
            <DistanceMeters>NAN</DistanceMeters>
          </Trackpoint>
          <Trackpoint>
            <Time>2020-12-05T12:54:26.000Z</Time>
            <Position>
              <LatitudeDegrees>36.82827950455248355865478515625</LatitudeDegrees>
              <LongitudeDegrees>-4.382490813732147216796875</LongitudeDegrees>
            </Position>
            <AltitudeMeters>762.5999755859375</AltitudeMeters>
            <DistanceMeters>NAN</DistanceMeters>
          </Trackpoint>
          <Trackpoint>
            <Time>2020-12-05T12:54:27.000Z</Time>
            <Position>
              <LatitudeDegrees>36.828269027173519134521484375</LatitudeDegrees>
              <LongitudeDegrees>-4.3824899755418300628662109375</LongitudeDegrees>
            </Position>
            <AltitudeMeters>762.5999755859375</AltitudeMeters>
            <DistanceMeters>NAN</DistanceMeters>
          </Trackpoint>
          <Trackpoint>
            <Time>2020-12-05T12:54:28.000Z</Time>
            <Position>
              <LatitudeDegrees>36.828257627785205841064453125</LatitudeDegrees>
              <LongitudeDegrees>-4.38249039463698863983154296875</LongitudeDegrees>
            </Position>
            <AltitudeMeters>762.5999755859375</AltitudeMeters>
            <DistanceMeters>NAN</DistanceMeters>
          </Trackpoint>
          <Trackpoint>
            <Time>2020-12-05T12:54:29.000Z</Time>
            <Position>
              <LatitudeDegrees>36.82824782095849514007568359375</LatitudeDegrees>
              <LongitudeDegrees>-4.38248838298022747039794921875</LongitudeDegrees>
            </Position>
            <AltitudeMeters>762.5999755859375</AltitudeMeters>
            <DistanceMeters>NAN</DistanceMeters>
          </Trackpoint>
          <Trackpoint>
            <Time>2020-12-05T12:54:30.000Z</Time>
            <Position>
              <LatitudeDegrees>36.8282363377511501312255859375</LatitudeDegrees>
              <LongitudeDegrees>-4.3824869580566883087158203125</LongitudeDegrees>
            </Position>
            <AltitudeMeters>762.5999755859375</AltitudeMeters>
            <DistanceMeters>NAN</DistanceMeters>
          </Trackpoint>
          <Trackpoint>
            <Time>2020-12-05T12:54:31.000Z</Time>
            <Position>
              <LatitudeDegrees>36.8282252736389636993408203125</LatitudeDegrees>
              <LongitudeDegrees>-4.38248469494283199310302734375</LongitudeDegrees>
            </Position>
            <AltitudeMeters>762.5999755859375</AltitudeMeters>
            <DistanceMeters>NAN</DistanceMeters>
          </Trackpoint>
          <Trackpoint>
            <Time>2020-12-05T12:54:32.000Z</Time>
            <Position>
              <LatitudeDegrees>36.828212030231952667236328125</LatitudeDegrees>
              <LongitudeDegrees>-4.38248218037188053131103515625</LongitudeDegrees>
            </Position>
            <AltitudeMeters>762.5999755859375</AltitudeMeters>
            <DistanceMeters>NAN</DistanceMeters>
          </Trackpoint>
          <Trackpoint>
            <Time>2020-12-05T12:54:33.000Z</Time>
            <Position>
              <LatitudeDegrees>36.828198619186878204345703125</LatitudeDegrees>
              <LongitudeDegrees>-4.38247765414416790008544921875</LongitudeDegrees>
            </Position>
            <AltitudeMeters>762.5999755859375</AltitudeMeters>
            <DistanceMeters>NAN</DistanceMeters>
          </Trackpoint>
          <Trackpoint>
            <Time>2020-12-05T12:54:34.000Z</Time>
            <Position>
              <LatitudeDegrees>36.82818629778921604156494140625</LatitudeDegrees>
              <LongitudeDegrees>-4.38247296027839183807373046875</LongitudeDegrees>
            </Position>
            <AltitudeMeters>762.5999755859375</AltitudeMeters>
            <DistanceMeters>NAN</DistanceMeters>
          </Trackpoint>
          <Trackpoint>
            <Time>2020-12-05T12:54:35.000Z</Time>
            <Position>
              <LatitudeDegrees>36.82817481458187103271484375</LatitudeDegrees>
              <LongitudeDegrees>-4.38246793113648891448974609375</LongitudeDegrees>
            </Position>
            <AltitudeMeters>762.5999755859375</AltitudeMeters>
            <DistanceMeters>NAN</DistanceMeters>
          </Trackpoint>
          <Trackpoint>
            <Time>2020-12-05T12:54:36.000Z</Time>
            <Position>
              <LatitudeDegrees>36.82816316373646259307861328125</LatitudeDegrees>
              <LongitudeDegrees>-4.382463656365871429443359375</LongitudeDegrees>
            </Position>
            <AltitudeMeters>762.5999755859375</AltitudeMeters>
            <DistanceMeters>NAN</DistanceMeters>
          </Trackpoint>
          <Trackpoint>
            <Time>2020-12-05T12:54:37.000Z</Time>
            <Position>
              <LatitudeDegrees>36.8281498365104198455810546875</LatitudeDegrees>
              <LongitudeDegrees>-4.3824537657201290130615234375</LongitudeDegrees>
            </Position>
            <AltitudeMeters>762.5999755859375</AltitudeMeters>
            <DistanceMeters>NAN</DistanceMeters>
          </Trackpoint>
          <Trackpoint>
            <Time>2020-12-05T12:54:38.000Z</Time>
            <Position>
              <LatitudeDegrees>36.82813885621726512908935546875</LatitudeDegrees>
              <LongitudeDegrees>-4.38244613818824291229248046875</LongitudeDegrees>
            </Position>
            <AltitudeMeters>762.5999755859375</AltitudeMeters>
            <DistanceMeters>NAN</DistanceMeters>
          </Trackpoint>
          <Trackpoint>
            <Time>2020-12-05T12:54:39.000Z</Time>
            <Position>
              <LatitudeDegrees>36.828127540647983551025390625</LatitudeDegrees>
              <LongitudeDegrees>-4.38244060613214969635009765625</LongitudeDegrees>
            </Position>
            <AltitudeMeters>762.5999755859375</AltitudeMeters>
            <DistanceMeters>NAN</DistanceMeters>
          </Trackpoint>
          <Trackpoint>
            <Time>2020-12-05T12:54:40.000Z</Time>
            <Position>
              <LatitudeDegrees>36.828116811811923980712890625</LatitudeDegrees>
              <LongitudeDegrees>-4.38243473879992961883544921875</LongitudeDegrees>
            </Position>
            <AltitudeMeters>762.5999755859375</AltitudeMeters>
            <DistanceMeters>NAN</DistanceMeters>
          </Trackpoint>
          <Trackpoint>
            <Time>2020-12-05T12:54:41.000Z</Time>
            <Position>
              <LatitudeDegrees>36.8281044065952301025390625</LatitudeDegrees>
              <LongitudeDegrees>-4.38242434523999691009521484375</LongitudeDegrees>
            </Position>
            <AltitudeMeters>762.5999755859375</AltitudeMeters>
            <DistanceMeters>NAN</DistanceMeters>
          </Trackpoint>
          <Trackpoint>
            <Time>2020-12-05T12:54:42.000Z</Time>
            <Position>
              <LatitudeDegrees>36.8280921690165996551513671875</LatitudeDegrees>
              <LongitudeDegrees>-4.38241898082196712493896484375</LongitudeDegrees>
            </Position>
            <AltitudeMeters>762.5999755859375</AltitudeMeters>
            <DistanceMeters>NAN</DistanceMeters>
          </Trackpoint>
          <Trackpoint>
            <Time>2020-12-05T12:54:43.000Z</Time>
            <Position>
              <LatitudeDegrees>36.82807951234281063079833984375</LatitudeDegrees>
              <LongitudeDegrees>-4.38241462223231792449951171875</LongitudeDegrees>
            </Position>
            <AltitudeMeters>762.5999755859375</AltitudeMeters>
            <DistanceMeters>NAN</DistanceMeters>
          </Trackpoint>
          <Trackpoint>
            <Time>2020-12-05T12:54:44.000Z</Time>
            <Position>
              <LatitudeDegrees>36.82807045988738536834716796875</LatitudeDegrees>
              <LongitudeDegrees>-4.38241747207939624786376953125</LongitudeDegrees>
            </Position>
            <AltitudeMeters>762.5999755859375</AltitudeMeters>
            <DistanceMeters>NAN</DistanceMeters>
          </Trackpoint>
          <Trackpoint>
            <Time>2020-12-05T12:54:45.000Z</Time>
            <Position>
              <LatitudeDegrees>36.82806157507002353668212890625</LatitudeDegrees>
              <LongitudeDegrees>-4.38241981901228427886962890625</LongitudeDegrees>
            </Position>
            <AltitudeMeters>762.5999755859375</AltitudeMeters>
            <DistanceMeters>NAN</DistanceMeters>
          </Trackpoint>
          <Trackpoint>
            <Time>2020-12-05T12:54:46.000Z</Time>
            <Position>
              <LatitudeDegrees>36.828055121004581451416015625</LatitudeDegrees>
              <LongitudeDegrees>-4.3824205733835697174072265625</LongitudeDegrees>
            </Position>
            <AltitudeMeters>762.5999755859375</AltitudeMeters>
            <DistanceMeters>NAN</DistanceMeters>
          </Trackpoint>
          <Trackpoint>
            <Time>2020-12-05T12:54:47.000Z</Time>
            <Position>
              <LatitudeDegrees>36.828047074377536773681640625</LatitudeDegrees>
              <LongitudeDegrees>-4.382421411573886871337890625</LongitudeDegrees>
            </Position>
            <AltitudeMeters>762.5999755859375</AltitudeMeters>
            <DistanceMeters>NAN</DistanceMeters>
          </Trackpoint>
          <Trackpoint>
            <Time>2020-12-05T12:54:48.000Z</Time>
            <Position>
              <LatitudeDegrees>36.828035004436969757080078125</LatitudeDegrees>
              <LongitudeDegrees>-4.38242333941161632537841796875</LongitudeDegrees>
            </Position>
            <AltitudeMeters>762.5999755859375</AltitudeMeters>
            <DistanceMeters>NAN</DistanceMeters>
          </Trackpoint>
          <Trackpoint>
            <Time>2020-12-05T12:54:49.000Z</Time>
            <Position>
              <LatitudeDegrees>36.82802402414381504058837890625</LatitudeDegrees>
              <LongitudeDegrees>-4.38242635689675807952880859375</LongitudeDegrees>
            </Position>
            <AltitudeMeters>762.5999755859375</AltitudeMeters>
            <DistanceMeters>NAN</DistanceMeters>
          </Trackpoint>
          <Trackpoint>
            <Time>2020-12-05T12:54:50.000Z</Time>
            <Position>
              <LatitudeDegrees>36.8280132114887237548828125</LatitudeDegrees>
              <LongitudeDegrees>-4.38242669217288494110107421875</LongitudeDegrees>
            </Position>
            <AltitudeMeters>762.5999755859375</AltitudeMeters>
            <DistanceMeters>NAN</DistanceMeters>
          </Trackpoint>
          <Trackpoint>
            <Time>2020-12-05T12:54:51.000Z</Time>
            <Position>
              <LatitudeDegrees>36.828000135719776153564453125</LatitudeDegrees>
              <LongitudeDegrees>-4.38243004493415355682373046875</LongitudeDegrees>
            </Position>
            <AltitudeMeters>762.5999755859375</AltitudeMeters>
            <DistanceMeters>NAN</DistanceMeters>
          </Trackpoint>
          <Trackpoint>
            <Time>2020-12-05T12:54:52.000Z</Time>
            <Position>
              <LatitudeDegrees>36.8279895745217800140380859375</LatitudeDegrees>
              <LongitudeDegrees>-4.38243004493415355682373046875</LongitudeDegrees>
            </Position>
            <AltitudeMeters>762.5999755859375</AltitudeMeters>
            <DistanceMeters>NAN</DistanceMeters>
          </Trackpoint>
          <Trackpoint>
            <Time>2020-12-05T12:54:53.000Z</Time>
            <Position>
              <LatitudeDegrees>36.82797792367637157440185546875</LatitudeDegrees>
              <LongitudeDegrees>-4.38242979347705841064453125</LongitudeDegrees>
            </Position>
            <AltitudeMeters>762.5999755859375</AltitudeMeters>
            <DistanceMeters>NAN</DistanceMeters>
          </Trackpoint>
          <Trackpoint>
            <Time>2020-12-05T12:54:54.000Z</Time>
            <Position>
              <LatitudeDegrees>36.82796669192612171173095703125</LatitudeDegrees>
              <LongitudeDegrees>-4.38243105076253414154052734375</LongitudeDegrees>
            </Position>
            <AltitudeMeters>762.5999755859375</AltitudeMeters>
            <DistanceMeters>NAN</DistanceMeters>
          </Trackpoint>
          <Trackpoint>
            <Time>2020-12-05T12:54:55.000Z</Time>
            <Position>
              <LatitudeDegrees>36.82795512489974498748779296875</LatitudeDegrees>
              <LongitudeDegrees>-4.38243607990443706512451171875</LongitudeDegrees>
            </Position>
            <AltitudeMeters>762.5999755859375</AltitudeMeters>
            <DistanceMeters>NAN</DistanceMeters>
          </Trackpoint>
          <Trackpoint>
            <Time>2020-12-05T12:54:56.000Z</Time>
            <Position>
              <LatitudeDegrees>36.82794724591076374053955078125</LatitudeDegrees>
              <LongitudeDegrees>-4.3824396841228008270263671875</LongitudeDegrees>
            </Position>
            <AltitudeMeters>762.5999755859375</AltitudeMeters>
            <DistanceMeters>NAN</DistanceMeters>
          </Trackpoint>
          <Trackpoint>
            <Time>2020-12-05T12:54:57.000Z</Time>
            <Position>
              <LatitudeDegrees>36.8279386125504970550537109375</LatitudeDegrees>
              <LongitudeDegrees>-4.38244077377021312713623046875</LongitudeDegrees>
            </Position>
            <AltitudeMeters>762.5999755859375</AltitudeMeters>
            <DistanceMeters>NAN</DistanceMeters>
          </Trackpoint>
          <Trackpoint>
            <Time>2020-12-05T12:54:58.000Z</Time>
            <Position>
              <LatitudeDegrees>36.8279278837144374847412109375</LatitudeDegrees>
              <LongitudeDegrees>-4.382440187036991119384765625</LongitudeDegrees>
            </Position>
            <AltitudeMeters>762.5999755859375</AltitudeMeters>
            <DistanceMeters>NAN</DistanceMeters>
          </Trackpoint>
          <Trackpoint>
            <Time>2020-12-05T12:54:59.000Z</Time>
            <Position>
              <LatitudeDegrees>36.82791254483163356781005859375</LatitudeDegrees>
              <LongitudeDegrees>-4.38244177959859371185302734375</LongitudeDegrees>
            </Position>
            <AltitudeMeters>762.5999755859375</AltitudeMeters>
            <DistanceMeters>NAN</DistanceMeters>
          </Trackpoint>
          <Trackpoint>
            <Time>2020-12-05T12:55:00.000Z</Time>
            <Position>
              <LatitudeDegrees>36.8278953619301319122314453125</LatitudeDegrees>
              <LongitudeDegrees>-4.38244747929275035858154296875</LongitudeDegrees>
            </Position>
            <AltitudeMeters>770.5999755859375</AltitudeMeters>
            <DistanceMeters>NAN</DistanceMeters>
          </Trackpoint>
          <Trackpoint>
            <Time>2020-12-05T12:55:01.000Z</Time>
            <Position>
              <LatitudeDegrees>36.82788270525634288787841796875</LatitudeDegrees>
              <LongitudeDegrees>-4.38244630582630634307861328125</LongitudeDegrees>
            </Position>
            <AltitudeMeters>770.5999755859375</AltitudeMeters>
            <DistanceMeters>NAN</DistanceMeters>
          </Trackpoint>
          <Trackpoint>
            <Time>2020-12-05T12:55:02.000Z</Time>
            <Position>
              <LatitudeDegrees>36.82787030003964900970458984375</LatitudeDegrees>
              <LongitudeDegrees>-4.3824440427124500274658203125</LongitudeDegrees>
            </Position>
            <AltitudeMeters>770.5999755859375</AltitudeMeters>
            <DistanceMeters>NAN</DistanceMeters>
          </Trackpoint>
          <Trackpoint>
            <Time>2020-12-05T12:55:03.000Z</Time>
            <Position>
              <LatitudeDegrees>36.82785873301327228546142578125</LatitudeDegrees>
              <LongitudeDegrees>-4.38243993557989597320556640625</LongitudeDegrees>
            </Position>
            <AltitudeMeters>770.5999755859375</AltitudeMeters>
            <DistanceMeters>NAN</DistanceMeters>
          </Trackpoint>
          <Trackpoint>
            <Time>2020-12-05T12:55:04.000Z</Time>
            <Position>
              <LatitudeDegrees>36.82784800417721271514892578125</LatitudeDegrees>
              <LongitudeDegrees>-4.38243691809475421905517578125</LongitudeDegrees>
            </Position>
            <AltitudeMeters>770.5999755859375</AltitudeMeters>
            <DistanceMeters>NAN</DistanceMeters>
          </Trackpoint>
          <Trackpoint>
            <Time>2020-12-05T12:55:05.000Z</Time>
            <Position>
              <LatitudeDegrees>36.827839203178882598876953125</LatitudeDegrees>
              <LongitudeDegrees>-4.38243809156119823455810546875</LongitudeDegrees>
            </Position>
            <AltitudeMeters>770.5999755859375</AltitudeMeters>
            <DistanceMeters>NAN</DistanceMeters>
          </Trackpoint>
          <Trackpoint>
            <Time>2020-12-05T12:55:06.000Z</Time>
            <Position>
              <LatitudeDegrees>36.82783174328505992889404296875</LatitudeDegrees>
              <LongitudeDegrees>-4.38244127668440341949462890625</LongitudeDegrees>
            </Position>
            <AltitudeMeters>770.5999755859375</AltitudeMeters>
            <DistanceMeters>NAN</DistanceMeters>
          </Trackpoint>
          <Trackpoint>
            <Time>2020-12-05T12:55:07.000Z</Time>
            <Position>
              <LatitudeDegrees>36.82782671414315700531005859375</LatitudeDegrees>
              <LongitudeDegrees>-4.382447563111782073974609375</LongitudeDegrees>
            </Position>
            <AltitudeMeters>770.5999755859375</AltitudeMeters>
            <DistanceMeters>NAN</DistanceMeters>
          </Trackpoint>
          <Trackpoint>
            <Time>2020-12-05T12:55:08.000Z</Time>
            <Position>
              <LatitudeDegrees>36.82782051153481006622314453125</LatitudeDegrees>
              <LongitudeDegrees>-4.382452256977558135986328125</LongitudeDegrees>
            </Position>
            <AltitudeMeters>770.5999755859375</AltitudeMeters>
            <DistanceMeters>NAN</DistanceMeters>
          </Trackpoint>
          <Trackpoint>
            <Time>2020-12-05T12:55:09.000Z</Time>
            <Position>
              <LatitudeDegrees>36.82781397365033626556396484375</LatitudeDegrees>
              <LongitudeDegrees>-4.38245820812880992889404296875</LongitudeDegrees>
            </Position>
            <AltitudeMeters>770.5999755859375</AltitudeMeters>
            <DistanceMeters>NAN</DistanceMeters>
          </Trackpoint>
          <Trackpoint>
            <Time>2020-12-05T12:55:10.000Z</Time>
            <Position>
              <LatitudeDegrees>36.82780659757554531097412109375</LatitudeDegrees>
              <LongitudeDegrees>-4.382461644709110260009765625</LongitudeDegrees>
            </Position>
            <AltitudeMeters>770.5999755859375</AltitudeMeters>
            <DistanceMeters>NAN</DistanceMeters>
          </Trackpoint>
          <Trackpoint>
            <Time>2020-12-05T12:55:11.000Z</Time>
            <Position>
              <LatitudeDegrees>36.8278001435101032257080078125</LatitudeDegrees>
              <LongitudeDegrees>-4.38246156089007854461669921875</LongitudeDegrees>
            </Position>
            <AltitudeMeters>770.5999755859375</AltitudeMeters>
            <DistanceMeters>NAN</DistanceMeters>
          </Trackpoint>
          <Trackpoint>
            <Time>2020-12-05T12:55:12.000Z</Time>
            <Position>
              <LatitudeDegrees>36.827790923416614532470703125</LatitudeDegrees>
              <LongitudeDegrees>-4.382462985813617706298828125</LongitudeDegrees>
            </Position>
            <AltitudeMeters>770.5999755859375</AltitudeMeters>
            <DistanceMeters>NAN</DistanceMeters>
          </Trackpoint>
          <Trackpoint>
            <Time>2020-12-05T12:55:13.000Z</Time>
            <Position>
              <LatitudeDegrees>36.82777960784733295440673828125</LatitudeDegrees>
              <LongitudeDegrees>-4.3824668414890766143798828125</LongitudeDegrees>
            </Position>
            <AltitudeMeters>770.5999755859375</AltitudeMeters>
            <DistanceMeters>NAN</DistanceMeters>
          </Trackpoint>
          <Trackpoint>
            <Time>2020-12-05T12:55:14.000Z</Time>
            <Position>
              <LatitudeDegrees>36.82777273468673229217529296875</LatitudeDegrees>
              <LongitudeDegrees>-4.38247413374483585357666015625</LongitudeDegrees>
            </Position>
            <AltitudeMeters>770.5999755859375</AltitudeMeters>
            <DistanceMeters>NAN</DistanceMeters>
          </Trackpoint>
          <Trackpoint>
            <Time>2020-12-05T12:55:15.000Z</Time>
            <Position>
              <LatitudeDegrees>36.827768124639987945556640625</LatitudeDegrees>
              <LongitudeDegrees>-4.382484443485736846923828125</LongitudeDegrees>
            </Position>
            <AltitudeMeters>770.5999755859375</AltitudeMeters>
            <DistanceMeters>NAN</DistanceMeters>
          </Trackpoint>
          <Trackpoint>
            <Time>2020-12-05T12:55:16.000Z</Time>
            <Position>
              <LatitudeDegrees>36.8277629278600215911865234375</LatitudeDegrees>
              <LongitudeDegrees>-4.38249676488339900970458984375</LongitudeDegrees>
            </Position>
            <AltitudeMeters>770.5999755859375</AltitudeMeters>
            <DistanceMeters>NAN</DistanceMeters>
          </Trackpoint>
          <Trackpoint>
            <Time>2020-12-05T12:55:17.000Z</Time>
            <Position>
              <LatitudeDegrees>36.82775798253715038299560546875</LatitudeDegrees>
              <LongitudeDegrees>-4.382506571710109710693359375</LongitudeDegrees>
            </Position>
            <AltitudeMeters>770.5999755859375</AltitudeMeters>
            <DistanceMeters>NAN</DistanceMeters>
          </Trackpoint>
          <Trackpoint>
            <Time>2020-12-05T12:55:18.000Z</Time>
            <Position>
              <LatitudeDegrees>36.82775236666202545166015625</LatitudeDegrees>
              <LongitudeDegrees>-4.38251621089875698089599609375</LongitudeDegrees>
            </Position>
            <AltitudeMeters>770.5999755859375</AltitudeMeters>
            <DistanceMeters>NAN</DistanceMeters>
          </Trackpoint>
          <Trackpoint>
            <Time>2020-12-05T12:55:19.000Z</Time>
            <Position>
              <LatitudeDegrees>36.8277451582252979278564453125</LatitudeDegrees>
              <LongitudeDegrees>-4.38252501189708709716796875</LongitudeDegrees>
            </Position>
            <AltitudeMeters>770.5999755859375</AltitudeMeters>
            <DistanceMeters>NAN</DistanceMeters>
          </Trackpoint>
          <Trackpoint>
            <Time>2020-12-05T12:55:20.000Z</Time>
            <Position>
              <LatitudeDegrees>36.827739290893077850341796875</LatitudeDegrees>
              <LongitudeDegrees>-4.38253297470510005950927734375</LongitudeDegrees>
            </Position>
            <AltitudeMeters>770.5999755859375</AltitudeMeters>
            <DistanceMeters>NAN</DistanceMeters>
          </Trackpoint>
          <Trackpoint>
            <Time>2020-12-05T12:55:21.000Z</Time>
            <Position>
              <LatitudeDegrees>36.8277310766279697418212890625</LatitudeDegrees>
              <LongitudeDegrees>-4.3825409375131130218505859375</LongitudeDegrees>
            </Position>
            <AltitudeMeters>770.5999755859375</AltitudeMeters>
            <DistanceMeters>NAN</DistanceMeters>
          </Trackpoint>
          <Trackpoint>
            <Time>2020-12-05T12:55:22.000Z</Time>
            <Position>
              <LatitudeDegrees>36.8277237005531787872314453125</LatitudeDegrees>
              <LongitudeDegrees>-4.3825530074536800384521484375</LongitudeDegrees>
            </Position>
            <AltitudeMeters>770.5999755859375</AltitudeMeters>
            <DistanceMeters>NAN</DistanceMeters>
          </Trackpoint>
          <Trackpoint>
            <Time>2020-12-05T12:55:23.000Z</Time>
            <Position>
              <LatitudeDegrees>36.8277163244783878326416015625</LatitudeDegrees>
              <LongitudeDegrees>-4.382565915584564208984375</LongitudeDegrees>
            </Position>
            <AltitudeMeters>770.5999755859375</AltitudeMeters>
            <DistanceMeters>NAN</DistanceMeters>
          </Trackpoint>
          <Trackpoint>
            <Time>2020-12-05T12:55:24.000Z</Time>
            <Position>
              <LatitudeDegrees>36.82771146297454833984375</LatitudeDegrees>
              <LongitudeDegrees>-4.3825779855251312255859375</LongitudeDegrees>
            </Position>
            <AltitudeMeters>770.5999755859375</AltitudeMeters>
            <DistanceMeters>NAN</DistanceMeters>
          </Trackpoint>
          <Trackpoint>
            <Time>2020-12-05T12:55:25.000Z</Time>
            <Position>
              <LatitudeDegrees>36.82770945131778717041015625</LatitudeDegrees>
              <LongitudeDegrees>-4.3825872056186199188232421875</LongitudeDegrees>
            </Position>
            <AltitudeMeters>770.5999755859375</AltitudeMeters>
            <DistanceMeters>NAN</DistanceMeters>
          </Trackpoint>
          <Trackpoint>
            <Time>2020-12-05T12:55:26.000Z</Time>
            <Position>
              <LatitudeDegrees>36.8277109600603580474853515625</LatitudeDegrees>
              <LongitudeDegrees>-4.38259852118790149688720703125</LongitudeDegrees>
            </Position>
            <AltitudeMeters>770.5999755859375</AltitudeMeters>
            <DistanceMeters>NAN</DistanceMeters>
          </Trackpoint>
          <Trackpoint>
            <Time>2020-12-05T12:55:27.000Z</Time>
            <Position>
              <LatitudeDegrees>36.8277128040790557861328125</LatitudeDegrees>
              <LongitudeDegrees>-4.382615201175212860107421875</LongitudeDegrees>
            </Position>
            <AltitudeMeters>770.5999755859375</AltitudeMeters>
            <DistanceMeters>NAN</DistanceMeters>
          </Trackpoint>
          <Trackpoint>
            <Time>2020-12-05T12:55:28.000Z</Time>
            <Position>
              <LatitudeDegrees>36.82771213352680206298828125</LatitudeDegrees>
              <LongitudeDegrees>-4.3826364912092685699462890625</LongitudeDegrees>
            </Position>
            <AltitudeMeters>770.5999755859375</AltitudeMeters>
            <DistanceMeters>NAN</DistanceMeters>
          </Trackpoint>
          <Trackpoint>
            <Time>2020-12-05T12:55:29.000Z</Time>
            <Position>
              <LatitudeDegrees>36.8277099542319774627685546875</LatitudeDegrees>
              <LongitudeDegrees>-4.38265568576753139495849609375</LongitudeDegrees>
            </Position>
            <AltitudeMeters>770.5999755859375</AltitudeMeters>
            <DistanceMeters>NAN</DistanceMeters>
          </Trackpoint>
          <Trackpoint>
            <Time>2020-12-05T12:55:30.000Z</Time>
            <Position>
              <LatitudeDegrees>36.8277035839855670928955078125</LatitudeDegrees>
              <LongitudeDegrees>-4.38267161138355731964111328125</LongitudeDegrees>
            </Position>
            <AltitudeMeters>770.5999755859375</AltitudeMeters>
            <DistanceMeters>NAN</DistanceMeters>
          </Trackpoint>
          <Trackpoint>
            <Time>2020-12-05T12:55:31.000Z</Time>
            <Position>
              <LatitudeDegrees>36.82769478298723697662353515625</LatitudeDegrees>
              <LongitudeDegrees>-4.382687620818614959716796875</LongitudeDegrees>
            </Position>
            <AltitudeMeters>770.5999755859375</AltitudeMeters>
            <DistanceMeters>NAN</DistanceMeters>
          </Trackpoint>
          <Trackpoint>
            <Time>2020-12-05T12:55:32.000Z</Time>
            <Position>
              <LatitudeDegrees>36.827687323093414306640625</LatitudeDegrees>
              <LongitudeDegrees>-4.3826991878449916839599609375</LongitudeDegrees>
            </Position>
            <AltitudeMeters>770.5999755859375</AltitudeMeters>
            <DistanceMeters>NAN</DistanceMeters>
          </Trackpoint>
          <Trackpoint>
            <Time>2020-12-05T12:55:33.000Z</Time>
            <Position>
              <LatitudeDegrees>36.8276801146566867828369140625</LatitudeDegrees>
              <LongitudeDegrees>-4.38271117396652698516845703125</LongitudeDegrees>
            </Position>
            <AltitudeMeters>770.5999755859375</AltitudeMeters>
            <DistanceMeters>NAN</DistanceMeters>
          </Trackpoint>
          <Trackpoint>
            <Time>2020-12-05T12:55:34.000Z</Time>
            <Position>
              <LatitudeDegrees>36.82767282240092754364013671875</LatitudeDegrees>
              <LongitudeDegrees>-4.38272207044064998626708984375</LongitudeDegrees>
            </Position>
            <AltitudeMeters>770.5999755859375</AltitudeMeters>
            <DistanceMeters>NAN</DistanceMeters>
          </Trackpoint>
          <Trackpoint>
            <Time>2020-12-05T12:55:35.000Z</Time>
            <Position>
              <LatitudeDegrees>36.8276650272309780120849609375</LatitudeDegrees>
              <LongitudeDegrees>-4.3827327154576778411865234375</LongitudeDegrees>
            </Position>
            <AltitudeMeters>770.5999755859375</AltitudeMeters>
            <DistanceMeters>NAN</DistanceMeters>
          </Trackpoint>
          <Trackpoint>
            <Time>2020-12-05T12:55:36.000Z</Time>
            <Position>
              <LatitudeDegrees>36.82765656150877475738525390625</LatitudeDegrees>
              <LongitudeDegrees>-4.38274503685534000396728515625</LongitudeDegrees>
            </Position>
            <AltitudeMeters>770.5999755859375</AltitudeMeters>
            <DistanceMeters>NAN</DistanceMeters>
          </Trackpoint>
          <Trackpoint>
            <Time>2020-12-05T12:55:37.000Z</Time>
            <Position>
              <LatitudeDegrees>36.8276496045291423797607421875</LatitudeDegrees>
              <LongitudeDegrees>-4.3827571906149387359619140625</LongitudeDegrees>
            </Position>
            <AltitudeMeters>770.5999755859375</AltitudeMeters>
            <DistanceMeters>NAN</DistanceMeters>
          </Trackpoint>
          <Trackpoint>
            <Time>2020-12-05T12:55:38.000Z</Time>
            <Position>
              <LatitudeDegrees>36.82764239609241485595703125</LatitudeDegrees>
              <LongitudeDegrees>-4.38276934437453746795654296875</LongitudeDegrees>
            </Position>
            <AltitudeMeters>770.5999755859375</AltitudeMeters>
            <DistanceMeters>NAN</DistanceMeters>
          </Trackpoint>
          <Trackpoint>
            <Time>2020-12-05T12:55:39.000Z</Time>
            <Position>
              <LatitudeDegrees>36.82763661257922649383544921875</LatitudeDegrees>
              <LongitudeDegrees>-4.3827818334102630615234375</LongitudeDegrees>
            </Position>
            <AltitudeMeters>770.5999755859375</AltitudeMeters>
            <DistanceMeters>NAN</DistanceMeters>
          </Trackpoint>
          <Trackpoint>
            <Time>2020-12-05T12:55:40.000Z</Time>
            <Position>
              <LatitudeDegrees>36.82762906886637210845947265625</LatitudeDegrees>
              <LongitudeDegrees>-4.3827970884740352630615234375</LongitudeDegrees>
            </Position>
            <AltitudeMeters>770.5999755859375</AltitudeMeters>
            <DistanceMeters>NAN</DistanceMeters>
          </Trackpoint>
          <Trackpoint>
            <Time>2020-12-05T12:55:41.000Z</Time>
            <Position>
              <LatitudeDegrees>36.8276224471628665924072265625</LatitudeDegrees>
              <LongitudeDegrees>-4.382811002433300018310546875</LongitudeDegrees>
            </Position>
            <AltitudeMeters>770.5999755859375</AltitudeMeters>
            <DistanceMeters>NAN</DistanceMeters>
          </Trackpoint>
          <Trackpoint>
            <Time>2020-12-05T12:55:42.000Z</Time>
            <Position>
              <LatitudeDegrees>36.82761599309742450714111328125</LatitudeDegrees>
              <LongitudeDegrees>-4.382825084030628204345703125</LongitudeDegrees>
            </Position>
            <AltitudeMeters>770.5999755859375</AltitudeMeters>
            <DistanceMeters>NAN</DistanceMeters>
          </Trackpoint>
          <Trackpoint>
            <Time>2020-12-05T12:55:43.000Z</Time>
            <Position>
              <LatitudeDegrees>36.8276107124984264373779296875</LatitudeDegrees>
              <LongitudeDegrees>-4.382842518389225006103515625</LongitudeDegrees>
            </Position>
            <AltitudeMeters>770.5999755859375</AltitudeMeters>
            <DistanceMeters>NAN</DistanceMeters>
          </Trackpoint>
          <Trackpoint>
            <Time>2020-12-05T12:55:44.000Z</Time>
            <Position>
              <LatitudeDegrees>36.82760643772780895233154296875</LatitudeDegrees>
              <LongitudeDegrees>-4.38285836018621921539306640625</LongitudeDegrees>
            </Position>
            <AltitudeMeters>770.5999755859375</AltitudeMeters>
            <DistanceMeters>NAN</DistanceMeters>
          </Trackpoint>
          <Trackpoint>
            <Time>2020-12-05T12:55:45.000Z</Time>
            <Position>
              <LatitudeDegrees>36.8276026658713817596435546875</LatitudeDegrees>
              <LongitudeDegrees>-4.38287344761192798614501953125</LongitudeDegrees>
            </Position>
            <AltitudeMeters>770.5999755859375</AltitudeMeters>
            <DistanceMeters>NAN</DistanceMeters>
          </Trackpoint>
          <Trackpoint>
            <Time>2020-12-05T12:55:46.000Z</Time>
            <Position>
              <LatitudeDegrees>36.82759671472012996673583984375</LatitudeDegrees>
              <LongitudeDegrees>-4.38288870267570018768310546875</LongitudeDegrees>
            </Position>
            <AltitudeMeters>770.5999755859375</AltitudeMeters>
            <DistanceMeters>NAN</DistanceMeters>
          </Trackpoint>
          <Trackpoint>
            <Time>2020-12-05T12:55:47.000Z</Time>
            <Position>
              <LatitudeDegrees>36.82759009301662445068359375</LatitudeDegrees>
              <LongitudeDegrees>-4.3829006887972354888916015625</LongitudeDegrees>
            </Position>
            <AltitudeMeters>770.5999755859375</AltitudeMeters>
            <DistanceMeters>NAN</DistanceMeters>
          </Trackpoint>
          <Trackpoint>
            <Time>2020-12-05T12:55:48.000Z</Time>
            <Position>
              <LatitudeDegrees>36.82758414186537265777587890625</LatitudeDegrees>
              <LongitudeDegrees>-4.38291183672845363616943359375</LongitudeDegrees>
            </Position>
            <AltitudeMeters>770.5999755859375</AltitudeMeters>
            <DistanceMeters>NAN</DistanceMeters>
          </Trackpoint>
          <Trackpoint>
            <Time>2020-12-05T12:55:49.000Z</Time>
            <Position>
              <LatitudeDegrees>36.8275786936283111572265625</LatitudeDegrees>
              <LongitudeDegrees>-4.38292340375483036041259765625</LongitudeDegrees>
            </Position>
            <AltitudeMeters>770.5999755859375</AltitudeMeters>
            <DistanceMeters>NAN</DistanceMeters>
          </Trackpoint>
          <Trackpoint>
            <Time>2020-12-05T12:55:50.000Z</Time>
            <Position>
              <LatitudeDegrees>36.8275721557438373565673828125</LatitudeDegrees>
              <LongitudeDegrees>-4.3829352222383022308349609375</LongitudeDegrees>
            </Position>
            <AltitudeMeters>770.5999755859375</AltitudeMeters>
            <DistanceMeters>NAN</DistanceMeters>
          </Trackpoint>
          <Trackpoint>
            <Time>2020-12-05T12:55:51.000Z</Time>
            <Position>
              <LatitudeDegrees>36.827566958963871002197265625</LatitudeDegrees>
              <LongitudeDegrees>-4.38294888474047183990478515625</LongitudeDegrees>
            </Position>
            <AltitudeMeters>770.5999755859375</AltitudeMeters>
            <DistanceMeters>NAN</DistanceMeters>
          </Trackpoint>
          <Trackpoint>
            <Time>2020-12-05T12:55:52.000Z</Time>
            <Position>
              <LatitudeDegrees>36.8275626003742218017578125</LatitudeDegrees>
              <LongitudeDegrees>-4.38296145759522914886474609375</LongitudeDegrees>
            </Position>
            <AltitudeMeters>770.5999755859375</AltitudeMeters>
            <DistanceMeters>NAN</DistanceMeters>
          </Trackpoint>
          <Trackpoint>
            <Time>2020-12-05T12:55:53.000Z</Time>
            <Position>
              <LatitudeDegrees>36.8275570683181285858154296875</LatitudeDegrees>
              <LongitudeDegrees>-4.38297428190708160400390625</LongitudeDegrees>
            </Position>
            <AltitudeMeters>770.5999755859375</AltitudeMeters>
            <DistanceMeters>NAN</DistanceMeters>
          </Trackpoint>
          <Trackpoint>
            <Time>2020-12-05T12:55:54.000Z</Time>
            <Position>
              <LatitudeDegrees>36.827550195157527923583984375</LatitudeDegrees>
              <LongitudeDegrees>-4.38298727385699748992919921875</LongitudeDegrees>
            </Position>
            <AltitudeMeters>770.5999755859375</AltitudeMeters>
            <DistanceMeters>NAN</DistanceMeters>
          </Trackpoint>
          <Trackpoint>
            <Time>2020-12-05T12:55:55.000Z</Time>
            <Position>
              <LatitudeDegrees>36.82754390873014926910400390625</LatitudeDegrees>
              <LongitudeDegrees>-4.38300646841526031494140625</LongitudeDegrees>
            </Position>
            <AltitudeMeters>770.5999755859375</AltitudeMeters>
            <DistanceMeters>NAN</DistanceMeters>
          </Trackpoint>
          <Trackpoint>
            <Time>2020-12-05T12:55:56.000Z</Time>
            <Position>
              <LatitudeDegrees>36.82753753848373889923095703125</LatitudeDegrees>
              <LongitudeDegrees>-4.3830260820686817169189453125</LongitudeDegrees>
            </Position>
            <AltitudeMeters>770.5999755859375</AltitudeMeters>
            <DistanceMeters>NAN</DistanceMeters>
          </Trackpoint>
          <Trackpoint>
            <Time>2020-12-05T12:55:57.000Z</Time>
            <Position>
              <LatitudeDegrees>36.8275295756757259368896484375</LatitudeDegrees>
              <LongitudeDegrees>-4.3830394931137561798095703125</LongitudeDegrees>
            </Position>
            <AltitudeMeters>770.5999755859375</AltitudeMeters>
            <DistanceMeters>NAN</DistanceMeters>
          </Trackpoint>
          <Trackpoint>
            <Time>2020-12-05T12:55:58.000Z</Time>
            <Position>
              <LatitudeDegrees>36.82752144522964954376220703125</LatitudeDegrees>
              <LongitudeDegrees>-4.3830518983304500579833984375</LongitudeDegrees>
            </Position>
            <AltitudeMeters>770.5999755859375</AltitudeMeters>
            <DistanceMeters>NAN</DistanceMeters>
          </Trackpoint>
          <Trackpoint>
            <Time>2020-12-05T12:55:59.000Z</Time>
            <Position>
              <LatitudeDegrees>36.82751155458390712738037109375</LatitudeDegrees>
              <LongitudeDegrees>-4.38306338153779506683349609375</LongitudeDegrees>
            </Position>
            <AltitudeMeters>770.5999755859375</AltitudeMeters>
            <DistanceMeters>NAN</DistanceMeters>
          </Trackpoint>
          <Trackpoint>
            <Time>2020-12-05T12:56:00.000Z</Time>
            <Position>
              <LatitudeDegrees>36.82749998755753040313720703125</LatitudeDegrees>
              <LongitudeDegrees>-4.38306950032711029052734375</LongitudeDegrees>
            </Position>
            <AltitudeMeters>777.4000244140625</AltitudeMeters>
            <DistanceMeters>NAN</DistanceMeters>
          </Trackpoint>
          <Trackpoint>
            <Time>2020-12-05T12:56:01.000Z</Time>
            <Position>
              <LatitudeDegrees>36.82748808525502681732177734375</LatitudeDegrees>
              <LongitudeDegrees>-4.38307821750640869140625</LongitudeDegrees>
            </Position>
            <AltitudeMeters>777.4000244140625</AltitudeMeters>
            <DistanceMeters>NAN</DistanceMeters>
          </Trackpoint>
          <Trackpoint>
            <Time>2020-12-05T12:56:02.000Z</Time>
            <Position>
              <LatitudeDegrees>36.82747568003833293914794921875</LatitudeDegrees>
              <LongitudeDegrees>-4.3830837495625019073486328125</LongitudeDegrees>
            </Position>
            <AltitudeMeters>777.4000244140625</AltitudeMeters>
            <DistanceMeters>NAN</DistanceMeters>
          </Trackpoint>
          <Trackpoint>
            <Time>2020-12-05T12:56:03.000Z</Time>
            <Position>
              <LatitudeDegrees>36.82746394537389278411865234375</LatitudeDegrees>
              <LongitudeDegrees>-4.383089952170848846435546875</LongitudeDegrees>
            </Position>
            <AltitudeMeters>777.4000244140625</AltitudeMeters>
            <DistanceMeters>NAN</DistanceMeters>
          </Trackpoint>
          <Trackpoint>
            <Time>2020-12-05T12:56:04.000Z</Time>
            <Position>
              <LatitudeDegrees>36.82745397090911865234375</LatitudeDegrees>
              <LongitudeDegrees>-4.3830931372940540313720703125</LongitudeDegrees>
            </Position>
            <AltitudeMeters>777.4000244140625</AltitudeMeters>
            <DistanceMeters>NAN</DistanceMeters>
          </Trackpoint>
          <Trackpoint>
            <Time>2020-12-05T12:56:05.000Z</Time>
            <Position>
              <LatitudeDegrees>36.82744299061596393585205078125</LatitudeDegrees>
              <LongitudeDegrees>-4.38309959135949611663818359375</LongitudeDegrees>
            </Position>
            <AltitudeMeters>777.4000244140625</AltitudeMeters>
            <DistanceMeters>NAN</DistanceMeters>
          </Trackpoint>
          <Trackpoint>
            <Time>2020-12-05T12:56:06.000Z</Time>
            <Position>
              <LatitudeDegrees>36.82743142358958721160888671875</LatitudeDegrees>
              <LongitudeDegrees>-4.38310629688203334808349609375</LongitudeDegrees>
            </Position>
            <AltitudeMeters>777.4000244140625</AltitudeMeters>
            <DistanceMeters>NAN</DistanceMeters>
          </Trackpoint>
          <Trackpoint>
            <Time>2020-12-05T12:56:07.000Z</Time>
            <Position>
              <LatitudeDegrees>36.82741952128708362579345703125</LatitudeDegrees>
              <LongitudeDegrees>-4.3831139244139194488525390625</LongitudeDegrees>
            </Position>
            <AltitudeMeters>777.4000244140625</AltitudeMeters>
            <DistanceMeters>NAN</DistanceMeters>
          </Trackpoint>
          <Trackpoint>
            <Time>2020-12-05T12:56:08.000Z</Time>
            <Position>
              <LatitudeDegrees>36.82740828953683376312255859375</LatitudeDegrees>
              <LongitudeDegrees>-4.38312691636383533477783203125</LongitudeDegrees>
            </Position>
            <AltitudeMeters>777.4000244140625</AltitudeMeters>
            <DistanceMeters>NAN</DistanceMeters>
          </Trackpoint>
          <Trackpoint>
            <Time>2020-12-05T12:56:09.000Z</Time>
            <Position>
              <LatitudeDegrees>36.827394627034664154052734375</LatitudeDegrees>
              <LongitudeDegrees>-4.3831353820860385894775390625</LongitudeDegrees>
            </Position>
            <AltitudeMeters>777.4000244140625</AltitudeMeters>
            <DistanceMeters>NAN</DistanceMeters>
          </Trackpoint>
          <Trackpoint>
            <Time>2020-12-05T12:56:10.000Z</Time>
            <Position>
              <LatitudeDegrees>36.82738088071346282958984375</LatitudeDegrees>
              <LongitudeDegrees>-4.3831414170563220977783203125</LongitudeDegrees>
            </Position>
            <AltitudeMeters>777.4000244140625</AltitudeMeters>
            <DistanceMeters>NAN</DistanceMeters>
          </Trackpoint>
          <Trackpoint>
            <Time>2020-12-05T12:56:11.000Z</Time>
            <Position>
              <LatitudeDegrees>36.82736612856388092041015625</LatitudeDegrees>
              <LongitudeDegrees>-4.3831407465040683746337890625</LongitudeDegrees>
            </Position>
            <AltitudeMeters>777.4000244140625</AltitudeMeters>
            <DistanceMeters>NAN</DistanceMeters>
          </Trackpoint>
          <Trackpoint>
            <Time>2020-12-05T12:56:12.000Z</Time>
            <Position>
              <LatitudeDegrees>36.8273495323956012725830078125</LatitudeDegrees>
              <LongitudeDegrees>-4.38313831575214862823486328125</LongitudeDegrees>
            </Position>
            <AltitudeMeters>777.4000244140625</AltitudeMeters>
            <DistanceMeters>NAN</DistanceMeters>
          </Trackpoint>
          <Trackpoint>
            <Time>2020-12-05T12:56:13.000Z</Time>
            <Position>
              <LatitudeDegrees>36.82733536697924137115478515625</LatitudeDegrees>
              <LongitudeDegrees>-4.383135549724102020263671875</LongitudeDegrees>
            </Position>
            <AltitudeMeters>777.4000244140625</AltitudeMeters>
            <DistanceMeters>NAN</DistanceMeters>
          </Trackpoint>
          <Trackpoint>
            <Time>2020-12-05T12:56:14.000Z</Time>
            <Position>
              <LatitudeDegrees>36.82732296176254749298095703125</LatitudeDegrees>
              <LongitudeDegrees>-4.3831337057054042816162109375</LongitudeDegrees>
            </Position>
            <AltitudeMeters>777.4000244140625</AltitudeMeters>
            <DistanceMeters>NAN</DistanceMeters>
          </Trackpoint>
          <Trackpoint>
            <Time>2020-12-05T12:56:15.000Z</Time>
            <Position>
              <LatitudeDegrees>36.8273116461932659149169921875</LatitudeDegrees>
              <LongitudeDegrees>-4.3831323646008968353271484375</LongitudeDegrees>
            </Position>
            <AltitudeMeters>777.4000244140625</AltitudeMeters>
            <DistanceMeters>NAN</DistanceMeters>
          </Trackpoint>
          <Trackpoint>
            <Time>2020-12-05T12:56:16.000Z</Time>
            <Position>
              <LatitudeDegrees>36.8273024260997772216796875</LatitudeDegrees>
              <LongitudeDegrees>-4.38313529826700687408447265625</LongitudeDegrees>
            </Position>
            <AltitudeMeters>777.4000244140625</AltitudeMeters>
            <DistanceMeters>NAN</DistanceMeters>
          </Trackpoint>
          <Trackpoint>
            <Time>2020-12-05T12:56:17.000Z</Time>
            <Position>
              <LatitudeDegrees>36.827291361987590789794921875</LatitudeDegrees>
              <LongitudeDegrees>-4.383136890828609466552734375</LongitudeDegrees>
            </Position>
            <AltitudeMeters>777.4000244140625</AltitudeMeters>
            <DistanceMeters>NAN</DistanceMeters>
          </Trackpoint>
          <Trackpoint>
            <Time>2020-12-05T12:56:18.000Z</Time>
            <Position>
              <LatitudeDegrees>36.82728088460862636566162109375</LatitudeDegrees>
              <LongitudeDegrees>-4.38313881866633892059326171875</LongitudeDegrees>
            </Position>
            <AltitudeMeters>777.4000244140625</AltitudeMeters>
            <DistanceMeters>NAN</DistanceMeters>
          </Trackpoint>
          <Trackpoint>
            <Time>2020-12-05T12:56:19.000Z</Time>
            <Position>
              <LatitudeDegrees>36.82726780883967876434326171875</LatitudeDegrees>
              <LongitudeDegrees>-4.38313630409538745880126953125</LongitudeDegrees>
            </Position>
            <AltitudeMeters>777.4000244140625</AltitudeMeters>
            <DistanceMeters>NAN</DistanceMeters>
          </Trackpoint>
          <Trackpoint>
            <Time>2020-12-05T12:56:20.000Z</Time>
            <Position>
              <LatitudeDegrees>36.82725741527974605560302734375</LatitudeDegrees>
              <LongitudeDegrees>-4.38313244841992855072021484375</LongitudeDegrees>
            </Position>
            <AltitudeMeters>777.4000244140625</AltitudeMeters>
            <DistanceMeters>NAN</DistanceMeters>
          </Trackpoint>
          <Trackpoint>
            <Time>2020-12-05T12:56:21.000Z</Time>
            <Position>
              <LatitudeDegrees>36.82724702171981334686279296875</LatitudeDegrees>
              <LongitudeDegrees>-4.38312658108770847320556640625</LongitudeDegrees>
            </Position>
            <AltitudeMeters>777.4000244140625</AltitudeMeters>
            <DistanceMeters>NAN</DistanceMeters>
          </Trackpoint>
          <Trackpoint>
            <Time>2020-12-05T12:56:22.000Z</Time>
            <Position>
              <LatitudeDegrees>36.82723729871213436126708984375</LatitudeDegrees>
              <LongitudeDegrees>-4.38312708400189876556396484375</LongitudeDegrees>
            </Position>
            <AltitudeMeters>777.4000244140625</AltitudeMeters>
            <DistanceMeters>NAN</DistanceMeters>
          </Trackpoint>
          <Trackpoint>
            <Time>2020-12-05T12:56:23.000Z</Time>
            <Position>
              <LatitudeDegrees>36.8272251449525356292724609375</LatitudeDegrees>
              <LongitudeDegrees>-4.38312708400189876556396484375</LongitudeDegrees>
            </Position>
            <AltitudeMeters>777.4000244140625</AltitudeMeters>
            <DistanceMeters>NAN</DistanceMeters>
          </Trackpoint>
          <Trackpoint>
            <Time>2020-12-05T12:56:24.000Z</Time>
            <Position>
              <LatitudeDegrees>36.8272139132022857666015625</LatitudeDegrees>
              <LongitudeDegrees>-4.38312591053545475006103515625</LongitudeDegrees>
            </Position>
            <AltitudeMeters>777.4000244140625</AltitudeMeters>
            <DistanceMeters>NAN</DistanceMeters>
          </Trackpoint>
          <Trackpoint>
            <Time>2020-12-05T12:56:25.000Z</Time>
            <Position>
              <LatitudeDegrees>36.8272016756236553192138671875</LatitudeDegrees>
              <LongitudeDegrees>-4.3831256590783596038818359375</LongitudeDegrees>
            </Position>
            <AltitudeMeters>777.4000244140625</AltitudeMeters>
            <DistanceMeters>NAN</DistanceMeters>
          </Trackpoint>
          <Trackpoint>
            <Time>2020-12-05T12:56:26.000Z</Time>
            <Position>
              <LatitudeDegrees>36.82718901894986629486083984375</LatitudeDegrees>
              <LongitudeDegrees>-4.383123479783535003662109375</LongitudeDegrees>
            </Position>
            <AltitudeMeters>777.4000244140625</AltitudeMeters>
            <DistanceMeters>NAN</DistanceMeters>
          </Trackpoint>
          <Trackpoint>
            <Time>2020-12-05T12:56:27.000Z</Time>
            <Position>
              <LatitudeDegrees>36.827175356447696685791015625</LatitudeDegrees>
              <LongitudeDegrees>-4.383123479783535003662109375</LongitudeDegrees>
            </Position>
            <AltitudeMeters>784.5999755859375</AltitudeMeters>
            <DistanceMeters>NAN</DistanceMeters>
          </Trackpoint>
          <Trackpoint>
            <Time>2020-12-05T12:56:28.000Z</Time>
            <Position>
              <LatitudeDegrees>36.82716253213584423065185546875</LatitudeDegrees>
              <LongitudeDegrees>-4.38312373124063014984130859375</LongitudeDegrees>
            </Position>
            <AltitudeMeters>784.5999755859375</AltitudeMeters>
            <DistanceMeters>NAN</DistanceMeters>
          </Trackpoint>
          <Trackpoint>
            <Time>2020-12-05T12:56:29.000Z</Time>
            <Position>
              <LatitudeDegrees>36.82715062983334064483642578125</LatitudeDegrees>
              <LongitudeDegrees>-4.38312523998320102691650390625</LongitudeDegrees>
            </Position>
            <AltitudeMeters>784.5999755859375</AltitudeMeters>
            <DistanceMeters>NAN</DistanceMeters>
          </Trackpoint>
          <Trackpoint>
            <Time>2020-12-05T12:56:30.000Z</Time>
            <Position>
              <LatitudeDegrees>36.82713822461664676666259765625</LatitudeDegrees>
              <LongitudeDegrees>-4.3831280060112476348876953125</LongitudeDegrees>
            </Position>
            <AltitudeMeters>784.5999755859375</AltitudeMeters>
            <DistanceMeters>NAN</DistanceMeters>
          </Trackpoint>
          <Trackpoint>
            <Time>2020-12-05T12:56:31.000Z</Time>
            <Position>
              <LatitudeDegrees>36.8271245621144771575927734375</LatitudeDegrees>
              <LongitudeDegrees>-4.3831296823918819427490234375</LongitudeDegrees>
            </Position>
            <AltitudeMeters>784.5999755859375</AltitudeMeters>
            <DistanceMeters>NAN</DistanceMeters>
          </Trackpoint>
          <Trackpoint>
            <Time>2020-12-05T12:56:32.000Z</Time>
            <Position>
              <LatitudeDegrees>36.8271119892597198486328125</LatitudeDegrees>
              <LongitudeDegrees>-4.38312641344964504241943359375</LongitudeDegrees>
            </Position>
            <AltitudeMeters>784.5999755859375</AltitudeMeters>
            <DistanceMeters>NAN</DistanceMeters>
          </Trackpoint>
          <Trackpoint>
            <Time>2020-12-05T12:56:33.000Z</Time>
            <Position>
              <LatitudeDegrees>36.82709564454853534698486328125</LatitudeDegrees>
              <LongitudeDegrees>-4.38312088139355182647705078125</LongitudeDegrees>
            </Position>
            <AltitudeMeters>784.5999755859375</AltitudeMeters>
            <DistanceMeters>NAN</DistanceMeters>
          </Trackpoint>
          <Trackpoint>
            <Time>2020-12-05T12:56:34.000Z</Time>
            <Position>
              <LatitudeDegrees>36.827077455818653106689453125</LatitudeDegrees>
              <LongitudeDegrees>-4.383116774260997772216796875</LongitudeDegrees>
            </Position>
            <AltitudeMeters>784.5999755859375</AltitudeMeters>
            <DistanceMeters>NAN</DistanceMeters>
          </Trackpoint>
          <Trackpoint>
            <Time>2020-12-05T12:56:35.000Z</Time>
            <Position>
              <LatitudeDegrees>36.82705842889845371246337890625</LatitudeDegrees>
              <LongitudeDegrees>-4.383116103708744049072265625</LongitudeDegrees>
            </Position>
            <AltitudeMeters>784.5999755859375</AltitudeMeters>
            <DistanceMeters>NAN</DistanceMeters>
          </Trackpoint>
          <Trackpoint>
            <Time>2020-12-05T12:56:36.000Z</Time>
            <Position>
              <LatitudeDegrees>36.82704300619661808013916015625</LatitudeDegrees>
              <LongitudeDegrees>-4.38311484642326831817626953125</LongitudeDegrees>
            </Position>
            <AltitudeMeters>784.5999755859375</AltitudeMeters>
            <DistanceMeters>NAN</DistanceMeters>
          </Trackpoint>
          <Trackpoint>
            <Time>2020-12-05T12:56:37.000Z</Time>
            <Position>
              <LatitudeDegrees>36.82702657766640186309814453125</LatitudeDegrees>
              <LongitudeDegrees>-4.3831171095371246337890625</LongitudeDegrees>
            </Position>
            <AltitudeMeters>784.5999755859375</AltitudeMeters>
            <DistanceMeters>NAN</DistanceMeters>
          </Trackpoint>
          <Trackpoint>
            <Time>2020-12-05T12:56:38.000Z</Time>
            <Position>
              <LatitudeDegrees>36.82701216079294681549072265625</LatitudeDegrees>
              <LongitudeDegrees>-4.383121468126773834228515625</LongitudeDegrees>
            </Position>
            <AltitudeMeters>784.5999755859375</AltitudeMeters>
            <DistanceMeters>NAN</DistanceMeters>
          </Trackpoint>
          <Trackpoint>
            <Time>2020-12-05T12:56:39.000Z</Time>
            <Position>
              <LatitudeDegrees>36.82699925266206264495849609375</LatitudeDegrees>
              <LongitudeDegrees>-4.38312423415482044219970703125</LongitudeDegrees>
            </Position>
            <AltitudeMeters>784.5999755859375</AltitudeMeters>
            <DistanceMeters>NAN</DistanceMeters>
          </Trackpoint>
          <Trackpoint>
            <Time>2020-12-05T12:56:40.000Z</Time>
            <Position>
              <LatitudeDegrees>36.82698684744536876678466796875</LatitudeDegrees>
              <LongitudeDegrees>-4.3831256590783596038818359375</LongitudeDegrees>
            </Position>
            <AltitudeMeters>784.5999755859375</AltitudeMeters>
            <DistanceMeters>NAN</DistanceMeters>
          </Trackpoint>
          <Trackpoint>
            <Time>2020-12-05T12:56:41.000Z</Time>
            <Position>
              <LatitudeDegrees>36.82697561569511890411376953125</LatitudeDegrees>
              <LongitudeDegrees>-4.38312473706901073455810546875</LongitudeDegrees>
            </Position>
            <AltitudeMeters>784.5999755859375</AltitudeMeters>
            <DistanceMeters>NAN</DistanceMeters>
          </Trackpoint>
          <Trackpoint>
            <Time>2020-12-05T12:56:42.000Z</Time>
            <Position>
              <LatitudeDegrees>36.8269639648497104644775390625</LatitudeDegrees>
              <LongitudeDegrees>-4.3831206299364566802978515625</LongitudeDegrees>
            </Position>
            <AltitudeMeters>784.5999755859375</AltitudeMeters>
            <DistanceMeters>NAN</DistanceMeters>
          </Trackpoint>
          <Trackpoint>
            <Time>2020-12-05T12:56:43.000Z</Time>
            <Position>
              <LatitudeDegrees>36.8269535712897777557373046875</LatitudeDegrees>
              <LongitudeDegrees>-4.383117444813251495361328125</LongitudeDegrees>
            </Position>
            <AltitudeMeters>784.5999755859375</AltitudeMeters>
            <DistanceMeters>NAN</DistanceMeters>
          </Trackpoint>
          <Trackpoint>
            <Time>2020-12-05T12:56:44.000Z</Time>
            <Position>
              <LatitudeDegrees>36.82694502174854278564453125</LatitudeDegrees>
              <LongitudeDegrees>-4.38311819918453693389892578125</LongitudeDegrees>
            </Position>
            <AltitudeMeters>784.5999755859375</AltitudeMeters>
            <DistanceMeters>NAN</DistanceMeters>
          </Trackpoint>
          <Trackpoint>
            <Time>2020-12-05T12:56:45.000Z</Time>
            <Position>
              <LatitudeDegrees>36.8269371427595615386962890625</LatitudeDegrees>
              <LongitudeDegrees>-4.3831197917461395263671875</LongitudeDegrees>
            </Position>
            <AltitudeMeters>784.5999755859375</AltitudeMeters>
            <DistanceMeters>NAN</DistanceMeters>
          </Trackpoint>
          <Trackpoint>
            <Time>2020-12-05T12:56:46.000Z</Time>
            <Position>
              <LatitudeDegrees>36.826926581561565399169921875</LatitudeDegrees>
              <LongitudeDegrees>-4.3831216357648372650146484375</LongitudeDegrees>
            </Position>
            <AltitudeMeters>784.5999755859375</AltitudeMeters>
            <DistanceMeters>NAN</DistanceMeters>
          </Trackpoint>
          <Trackpoint>
            <Time>2020-12-05T12:56:47.000Z</Time>
            <Position>
              <LatitudeDegrees>36.82691493071615695953369140625</LatitudeDegrees>
              <LongitudeDegrees>-4.3831171095371246337890625</LongitudeDegrees>
            </Position>
            <AltitudeMeters>784.5999755859375</AltitudeMeters>
            <DistanceMeters>NAN</DistanceMeters>
          </Trackpoint>
          <Trackpoint>
            <Time>2020-12-05T12:56:48.000Z</Time>
            <Position>
              <LatitudeDegrees>36.82690185494720935821533203125</LatitudeDegrees>
              <LongitudeDegrees>-4.383113421499729156494140625</LongitudeDegrees>
            </Position>
            <AltitudeMeters>784.5999755859375</AltitudeMeters>
            <DistanceMeters>NAN</DistanceMeters>
          </Trackpoint>
          <Trackpoint>
            <Time>2020-12-05T12:56:49.000Z</Time>
            <Position>
              <LatitudeDegrees>36.8268878571689128875732421875</LatitudeDegrees>
              <LongitudeDegrees>-4.383110068738460540771484375</LongitudeDegrees>
            </Position>
            <AltitudeMeters>784.5999755859375</AltitudeMeters>
            <DistanceMeters>NAN</DistanceMeters>
          </Trackpoint>
          <Trackpoint>
            <Time>2020-12-05T12:56:50.000Z</Time>
            <Position>
              <LatitudeDegrees>36.826874949038028717041015625</LatitudeDegrees>
              <LongitudeDegrees>-4.38310545869171619415283203125</LongitudeDegrees>
            </Position>
            <AltitudeMeters>784.5999755859375</AltitudeMeters>
            <DistanceMeters>NAN</DistanceMeters>
          </Trackpoint>
          <Trackpoint>
            <Time>2020-12-05T12:56:51.000Z</Time>
            <Position>
              <LatitudeDegrees>36.82686380110681056976318359375</LatitudeDegrees>
              <LongitudeDegrees>-4.3831036984920501708984375</LongitudeDegrees>
            </Position>
            <AltitudeMeters>784.5999755859375</AltitudeMeters>
            <DistanceMeters>NAN</DistanceMeters>
          </Trackpoint>
          <Trackpoint>
            <Time>2020-12-05T12:56:52.000Z</Time>
            <Position>
              <LatitudeDegrees>36.82685424573719501495361328125</LatitudeDegrees>
              <LongitudeDegrees>-4.3831018544733524322509765625</LongitudeDegrees>
            </Position>
            <AltitudeMeters>784.5999755859375</AltitudeMeters>
            <DistanceMeters>NAN</DistanceMeters>
          </Trackpoint>
          <Trackpoint>
            <Time>2020-12-05T12:56:53.000Z</Time>
            <Position>
              <LatitudeDegrees>36.82684452272951602935791015625</LatitudeDegrees>
              <LongitudeDegrees>-4.3830983340740203857421875</LongitudeDegrees>
            </Position>
            <AltitudeMeters>784.5999755859375</AltitudeMeters>
            <DistanceMeters>NAN</DistanceMeters>
          </Trackpoint>
          <Trackpoint>
            <Time>2020-12-05T12:56:54.000Z</Time>
            <Position>
              <LatitudeDegrees>36.82682507671415805816650390625</LatitudeDegrees>
              <LongitudeDegrees>-4.3831018544733524322509765625</LongitudeDegrees>
            </Position>
            <AltitudeMeters>784.5999755859375</AltitudeMeters>
            <DistanceMeters>NAN</DistanceMeters>
          </Trackpoint>
          <Trackpoint>
            <Time>2020-12-05T12:56:55.000Z</Time>
            <Position>
              <LatitudeDegrees>36.82680831290781497955322265625</LatitudeDegrees>
              <LongitudeDegrees>-4.3831025250256061553955078125</LongitudeDegrees>
            </Position>
            <AltitudeMeters>784.5999755859375</AltitudeMeters>
            <DistanceMeters>NAN</DistanceMeters>
          </Trackpoint>
          <Trackpoint>
            <Time>2020-12-05T12:56:56.000Z</Time>
            <Position>
              <LatitudeDegrees>36.82679356075823307037353515625</LatitudeDegrees>
              <LongitudeDegrees>-4.3830998428165912628173828125</LongitudeDegrees>
            </Position>
            <AltitudeMeters>784.5999755859375</AltitudeMeters>
            <DistanceMeters>NAN</DistanceMeters>
          </Trackpoint>
          <Trackpoint>
            <Time>2020-12-05T12:56:57.000Z</Time>
            <Position>
              <LatitudeDegrees>36.82677813805639743804931640625</LatitudeDegrees>
              <LongitudeDegrees>-4.3830954842269420623779296875</LongitudeDegrees>
            </Position>
            <AltitudeMeters>784.5999755859375</AltitudeMeters>
            <DistanceMeters>NAN</DistanceMeters>
          </Trackpoint>
          <Trackpoint>
            <Time>2020-12-05T12:56:58.000Z</Time>
            <Position>
              <LatitudeDegrees>36.826766319572925567626953125</LatitudeDegrees>
              <LongitudeDegrees>-4.38309053890407085418701171875</LongitudeDegrees>
            </Position>
            <AltitudeMeters>784.5999755859375</AltitudeMeters>
            <DistanceMeters>NAN</DistanceMeters>
          </Trackpoint>
          <Trackpoint>
            <Time>2020-12-05T12:56:59.000Z</Time>
            <Position>
              <LatitudeDegrees>36.82675533927977085113525390625</LatitudeDegrees>
              <LongitudeDegrees>-4.38308265991508960723876953125</LongitudeDegrees>
            </Position>
            <AltitudeMeters>784.5999755859375</AltitudeMeters>
            <DistanceMeters>NAN</DistanceMeters>
          </Trackpoint>
          <Trackpoint>
            <Time>2020-12-05T12:57:00.000Z</Time>
            <Position>
              <LatitudeDegrees>36.82674444280564785003662109375</LatitudeDegrees>
              <LongitudeDegrees>-4.3830746971070766448974609375</LongitudeDegrees>
            </Position>
            <AltitudeMeters>779.4000244140625</AltitudeMeters>
            <DistanceMeters>NAN</DistanceMeters>
          </Trackpoint>
          <Trackpoint>
            <Time>2020-12-05T12:57:01.000Z</Time>
            <Position>
              <LatitudeDegrees>36.826734133064746856689453125</LatitudeDegrees>
              <LongitudeDegrees>-4.38307226635515689849853515625</LongitudeDegrees>
            </Position>
            <AltitudeMeters>779.4000244140625</AltitudeMeters>
            <DistanceMeters>NAN</DistanceMeters>
          </Trackpoint>
          <Trackpoint>
            <Time>2020-12-05T12:57:02.000Z</Time>
            <Position>
              <LatitudeDegrees>36.8267230689525604248046875</LatitudeDegrees>
              <LongitudeDegrees>-4.38307243399322032928466796875</LongitudeDegrees>
            </Position>
            <AltitudeMeters>779.4000244140625</AltitudeMeters>
            <DistanceMeters>NAN</DistanceMeters>
          </Trackpoint>
          <Trackpoint>
            <Time>2020-12-05T12:57:03.000Z</Time>
            <Position>
              <LatitudeDegrees>36.82670974172651767730712890625</LatitudeDegrees>
              <LongitudeDegrees>-4.38307260163128376007080078125</LongitudeDegrees>
            </Position>
            <AltitudeMeters>779.4000244140625</AltitudeMeters>
            <DistanceMeters>NAN</DistanceMeters>
          </Trackpoint>
          <Trackpoint>
            <Time>2020-12-05T12:57:04.000Z</Time>
            <Position>
              <LatitudeDegrees>36.8266957439482212066650390625</LatitudeDegrees>
              <LongitudeDegrees>-4.38307025469839572906494140625</LongitudeDegrees>
            </Position>
            <AltitudeMeters>779.4000244140625</AltitudeMeters>
            <DistanceMeters>NAN</DistanceMeters>
          </Trackpoint>
          <Trackpoint>
            <Time>2020-12-05T12:57:05.000Z</Time>
            <Position>
              <LatitudeDegrees>36.82668350636959075927734375</LatitudeDegrees>
              <LongitudeDegrees>-4.38306748867034912109375</LongitudeDegrees>
            </Position>
            <AltitudeMeters>779.4000244140625</AltitudeMeters>
            <DistanceMeters>NAN</DistanceMeters>
          </Trackpoint>
          <Trackpoint>
            <Time>2020-12-05T12:57:06.000Z</Time>
            <Position>
              <LatitudeDegrees>36.82667034678161144256591796875</LatitudeDegrees>
              <LongitudeDegrees>-4.383065812289714813232421875</LongitudeDegrees>
            </Position>
            <AltitudeMeters>779.4000244140625</AltitudeMeters>
            <DistanceMeters>NAN</DistanceMeters>
          </Trackpoint>
          <Trackpoint>
            <Time>2020-12-05T12:57:07.000Z</Time>
            <Position>
              <LatitudeDegrees>36.82665936648845672607421875</LatitudeDegrees>
              <LongitudeDegrees>-4.383063800632953643798828125</LongitudeDegrees>
            </Position>
            <AltitudeMeters>779.4000244140625</AltitudeMeters>
            <DistanceMeters>NAN</DistanceMeters>
          </Trackpoint>
          <Trackpoint>
            <Time>2020-12-05T12:57:08.000Z</Time>
            <Position>
              <LatitudeDegrees>36.82664687745273113250732421875</LatitudeDegrees>
              <LongitudeDegrees>-4.3830616213381290435791015625</LongitudeDegrees>
            </Position>
            <AltitudeMeters>779.4000244140625</AltitudeMeters>
            <DistanceMeters>NAN</DistanceMeters>
          </Trackpoint>
          <Trackpoint>
            <Time>2020-12-05T12:57:09.000Z</Time>
            <Position>
              <LatitudeDegrees>36.8266350589692592620849609375</LatitudeDegrees>
              <LongitudeDegrees>-4.3830596096813678741455078125</LongitudeDegrees>
            </Position>
            <AltitudeMeters>779.4000244140625</AltitudeMeters>
            <DistanceMeters>NAN</DistanceMeters>
          </Trackpoint>
          <Trackpoint>
            <Time>2020-12-05T12:57:10.000Z</Time>
            <Position>
              <LatitudeDegrees>36.82662256993353366851806640625</LatitudeDegrees>
              <LongitudeDegrees>-4.38305214978754520416259765625</LongitudeDegrees>
            </Position>
            <AltitudeMeters>779.4000244140625</AltitudeMeters>
            <DistanceMeters>NAN</DistanceMeters>
          </Trackpoint>
          <Trackpoint>
            <Time>2020-12-05T12:57:11.000Z</Time>
            <Position>
              <LatitudeDegrees>36.82660815306007862091064453125</LatitudeDegrees>
              <LongitudeDegrees>-4.38304611481726169586181640625</LongitudeDegrees>
            </Position>
            <AltitudeMeters>779.4000244140625</AltitudeMeters>
            <DistanceMeters>NAN</DistanceMeters>
          </Trackpoint>
          <Trackpoint>
            <Time>2020-12-05T12:57:12.000Z</Time>
            <Position>
              <LatitudeDegrees>36.82659340091049671173095703125</LatitudeDegrees>
              <LongitudeDegrees>-4.38303756527602672576904296875</LongitudeDegrees>
            </Position>
            <AltitudeMeters>779.4000244140625</AltitudeMeters>
            <DistanceMeters>NAN</DistanceMeters>
          </Trackpoint>
          <Trackpoint>
            <Time>2020-12-05T12:57:13.000Z</Time>
            <Position>
              <LatitudeDegrees>36.82658049277961254119873046875</LatitudeDegrees>
              <LongitudeDegrees>-4.3830358050763607025146484375</LongitudeDegrees>
            </Position>
            <AltitudeMeters>779.4000244140625</AltitudeMeters>
            <DistanceMeters>NAN</DistanceMeters>
          </Trackpoint>
          <Trackpoint>
            <Time>2020-12-05T12:57:14.000Z</Time>
            <Position>
              <LatitudeDegrees>36.82656791992485523223876953125</LatitudeDegrees>
              <LongitudeDegrees>-4.38303488306701183319091796875</LongitudeDegrees>
            </Position>
            <AltitudeMeters>779.4000244140625</AltitudeMeters>
            <DistanceMeters>NAN</DistanceMeters>
          </Trackpoint>
          <Trackpoint>
            <Time>2020-12-05T12:57:15.000Z</Time>
            <Position>
              <LatitudeDegrees>36.8265549279749393463134765625</LatitudeDegrees>
              <LongitudeDegrees>-4.38303002156317234039306640625</LongitudeDegrees>
            </Position>
            <AltitudeMeters>779.4000244140625</AltitudeMeters>
            <DistanceMeters>NAN</DistanceMeters>
          </Trackpoint>
          <Trackpoint>
            <Time>2020-12-05T12:57:16.000Z</Time>
            <Position>
              <LatitudeDegrees>36.8265415169298648834228515625</LatitudeDegrees>
              <LongitudeDegrees>-4.38302784226834774017333984375</LongitudeDegrees>
            </Position>
            <AltitudeMeters>779.4000244140625</AltitudeMeters>
            <DistanceMeters>NAN</DistanceMeters>
          </Trackpoint>
          <Trackpoint>
            <Time>2020-12-05T12:57:17.000Z</Time>
            <Position>
              <LatitudeDegrees>36.82652793824672698974609375</LatitudeDegrees>
              <LongitudeDegrees>-4.38302549533545970916748046875</LongitudeDegrees>
            </Position>
            <AltitudeMeters>779.4000244140625</AltitudeMeters>
            <DistanceMeters>NAN</DistanceMeters>
          </Trackpoint>
          <Trackpoint>
            <Time>2020-12-05T12:57:18.000Z</Time>
            <Position>
              <LatitudeDegrees>36.8265140242874622344970703125</LatitudeDegrees>
              <LongitudeDegrees>-4.383023567497730255126953125</LongitudeDegrees>
            </Position>
            <AltitudeMeters>779.4000244140625</AltitudeMeters>
            <DistanceMeters>NAN</DistanceMeters>
          </Trackpoint>
          <Trackpoint>
            <Time>2020-12-05T12:57:19.000Z</Time>
            <Position>
              <LatitudeDegrees>36.8265022896230220794677734375</LatitudeDegrees>
              <LongitudeDegrees>-4.383023567497730255126953125</LongitudeDegrees>
            </Position>
            <AltitudeMeters>779.4000244140625</AltitudeMeters>
            <DistanceMeters>NAN</DistanceMeters>
          </Trackpoint>
          <Trackpoint>
            <Time>2020-12-05T12:57:20.000Z</Time>
            <Position>
              <LatitudeDegrees>36.82649130932986736297607421875</LatitudeDegrees>
              <LongitudeDegrees>-4.38302717171609401702880859375</LongitudeDegrees>
            </Position>
            <AltitudeMeters>779.4000244140625</AltitudeMeters>
            <DistanceMeters>NAN</DistanceMeters>
          </Trackpoint>
          <Trackpoint>
            <Time>2020-12-05T12:57:21.000Z</Time>
            <Position>
              <LatitudeDegrees>36.82648024521768093109130859375</LatitudeDegrees>
              <LongitudeDegrees>-4.383029602468013763427734375</LongitudeDegrees>
            </Position>
            <AltitudeMeters>779.4000244140625</AltitudeMeters>
            <DistanceMeters>NAN</DistanceMeters>
          </Trackpoint>
          <Trackpoint>
            <Time>2020-12-05T12:57:22.000Z</Time>
            <Position>
              <LatitudeDegrees>36.82647119276225566864013671875</LatitudeDegrees>
              <LongitudeDegrees>-4.3830311112105846405029296875</LongitudeDegrees>
            </Position>
            <AltitudeMeters>779.4000244140625</AltitudeMeters>
            <DistanceMeters>NAN</DistanceMeters>
          </Trackpoint>
          <Trackpoint>
            <Time>2020-12-05T12:57:23.000Z</Time>
            <Position>
              <LatitudeDegrees>36.82646515779197216033935546875</LatitudeDegrees>
              <LongitudeDegrees>-4.38302968628704547882080078125</LongitudeDegrees>
            </Position>
            <AltitudeMeters>779.4000244140625</AltitudeMeters>
            <DistanceMeters>NAN</DistanceMeters>
          </Trackpoint>
          <Trackpoint>
            <Time>2020-12-05T12:57:24.000Z</Time>
            <Position>
              <LatitudeDegrees>36.826459206640720367431640625</LatitudeDegrees>
              <LongitudeDegrees>-4.383029602468013763427734375</LongitudeDegrees>
            </Position>
            <AltitudeMeters>779.4000244140625</AltitudeMeters>
            <DistanceMeters>NAN</DistanceMeters>
          </Trackpoint>
          <Trackpoint>
            <Time>2020-12-05T12:57:25.000Z</Time>
            <Position>
              <LatitudeDegrees>36.82644923217594623565673828125</LatitudeDegrees>
              <LongitudeDegrees>-4.38302985392510890960693359375</LongitudeDegrees>
            </Position>
            <AltitudeMeters>779.4000244140625</AltitudeMeters>
            <DistanceMeters>NAN</DistanceMeters>
          </Trackpoint>
          <Trackpoint>
            <Time>2020-12-05T12:57:26.000Z</Time>
            <Position>
              <LatitudeDegrees>36.8264365755021572113037109375</LatitudeDegrees>
              <LongitudeDegrees>-4.3830341286957263946533203125</LongitudeDegrees>
            </Position>
            <AltitudeMeters>779.4000244140625</AltitudeMeters>
            <DistanceMeters>NAN</DistanceMeters>
          </Trackpoint>
          <Trackpoint>
            <Time>2020-12-05T12:57:27.000Z</Time>
            <Position>
              <LatitudeDegrees>36.826423667371273040771484375</LatitudeDegrees>
              <LongitudeDegrees>-4.383039660751819610595703125</LongitudeDegrees>
            </Position>
            <AltitudeMeters>779.4000244140625</AltitudeMeters>
            <DistanceMeters>NAN</DistanceMeters>
          </Trackpoint>
          <Trackpoint>
            <Time>2020-12-05T12:57:28.000Z</Time>
            <Position>
              <LatitudeDegrees>36.8264097534120082855224609375</LatitudeDegrees>
              <LongitudeDegrees>-4.3830445222556591033935546875</LongitudeDegrees>
            </Position>
            <AltitudeMeters>779.4000244140625</AltitudeMeters>
            <DistanceMeters>NAN</DistanceMeters>
          </Trackpoint>
          <Trackpoint>
            <Time>2020-12-05T12:57:29.000Z</Time>
            <Position>
              <LatitudeDegrees>36.826396845281124114990234375</LatitudeDegrees>
              <LongitudeDegrees>-4.383045695722103118896484375</LongitudeDegrees>
            </Position>
            <AltitudeMeters>779.4000244140625</AltitudeMeters>
            <DistanceMeters>NAN</DistanceMeters>
          </Trackpoint>
          <Trackpoint>
            <Time>2020-12-05T12:57:30.000Z</Time>
            <Position>
              <LatitudeDegrees>36.8263851106166839599609375</LatitudeDegrees>
              <LongitudeDegrees>-4.38304695300757884979248046875</LongitudeDegrees>
            </Position>
            <AltitudeMeters>779.4000244140625</AltitudeMeters>
            <DistanceMeters>NAN</DistanceMeters>
          </Trackpoint>
          <Trackpoint>
            <Time>2020-12-05T12:57:31.000Z</Time>
            <Position>
              <LatitudeDegrees>36.82637379504740238189697265625</LatitudeDegrees>
              <LongitudeDegrees>-4.38304645009338855743408203125</LongitudeDegrees>
            </Position>
            <AltitudeMeters>779.4000244140625</AltitudeMeters>
            <DistanceMeters>NAN</DistanceMeters>
          </Trackpoint>
          <Trackpoint>
            <Time>2020-12-05T12:57:32.000Z</Time>
            <Position>
              <LatitudeDegrees>36.82636373676359653472900390625</LatitudeDegrees>
              <LongitudeDegrees>-4.38304645009338855743408203125</LongitudeDegrees>
            </Position>
            <AltitudeMeters>779.4000244140625</AltitudeMeters>
            <DistanceMeters>NAN</DistanceMeters>
          </Trackpoint>
          <Trackpoint>
            <Time>2020-12-05T12:57:33.000Z</Time>
            <Position>
              <LatitudeDegrees>36.82635049335658550262451171875</LatitudeDegrees>
              <LongitudeDegrees>-4.38304527662694454193115234375</LongitudeDegrees>
            </Position>
            <AltitudeMeters>779.4000244140625</AltitudeMeters>
            <DistanceMeters>NAN</DistanceMeters>
          </Trackpoint>
          <Trackpoint>
            <Time>2020-12-05T12:57:34.000Z</Time>
            <Position>
              <LatitudeDegrees>36.82633607648313045501708984375</LatitudeDegrees>
              <LongitudeDegrees>-4.38304561190307140350341796875</LongitudeDegrees>
            </Position>
            <AltitudeMeters>779.4000244140625</AltitudeMeters>
            <DistanceMeters>NAN</DistanceMeters>
          </Trackpoint>
          <Trackpoint>
            <Time>2020-12-05T12:57:35.000Z</Time>
            <Position>
              <LatitudeDegrees>36.82632367126643657684326171875</LatitudeDegrees>
              <LongitudeDegrees>-4.38304527662694454193115234375</LongitudeDegrees>
            </Position>
            <AltitudeMeters>779.4000244140625</AltitudeMeters>
            <DistanceMeters>NAN</DistanceMeters>
          </Trackpoint>
          <Trackpoint>
            <Time>2020-12-05T12:57:36.000Z</Time>
            <Position>
              <LatitudeDegrees>36.82631067931652069091796875</LatitudeDegrees>
              <LongitudeDegrees>-4.3830458633601665496826171875</LongitudeDegrees>
            </Position>
            <AltitudeMeters>779.4000244140625</AltitudeMeters>
            <DistanceMeters>NAN</DistanceMeters>
          </Trackpoint>
          <Trackpoint>
            <Time>2020-12-05T12:57:37.000Z</Time>
            <Position>
              <LatitudeDegrees>36.82629768736660480499267578125</LatitudeDegrees>
              <LongitudeDegrees>-4.38304594717919826507568359375</LongitudeDegrees>
            </Position>
            <AltitudeMeters>779.4000244140625</AltitudeMeters>
            <DistanceMeters>NAN</DistanceMeters>
          </Trackpoint>
          <Trackpoint>
            <Time>2020-12-05T12:57:38.000Z</Time>
            <Position>
              <LatitudeDegrees>36.82628394104540348052978515625</LatitudeDegrees>
              <LongitudeDegrees>-4.38304494135081768035888671875</LongitudeDegrees>
            </Position>
            <AltitudeMeters>779.4000244140625</AltitudeMeters>
            <DistanceMeters>NAN</DistanceMeters>
          </Trackpoint>
          <Trackpoint>
            <Time>2020-12-05T12:57:39.000Z</Time>
            <Position>
              <LatitudeDegrees>36.82626902125775814056396484375</LatitudeDegrees>
              <LongitudeDegrees>-4.38304494135081768035888671875</LongitudeDegrees>
            </Position>
            <AltitudeMeters>779.4000244140625</AltitudeMeters>
            <DistanceMeters>NAN</DistanceMeters>
          </Trackpoint>
          <Trackpoint>
            <Time>2020-12-05T12:57:40.000Z</Time>
            <Position>
              <LatitudeDegrees>36.8262551911175251007080078125</LatitudeDegrees>
              <LongitudeDegrees>-4.38304393552243709564208984375</LongitudeDegrees>
            </Position>
            <AltitudeMeters>779.4000244140625</AltitudeMeters>
            <DistanceMeters>NAN</DistanceMeters>
          </Trackpoint>
          <Trackpoint>
            <Time>2020-12-05T12:57:41.000Z</Time>
            <Position>
              <LatitudeDegrees>36.82624437846243381500244140625</LatitudeDegrees>
              <LongitudeDegrees>-4.38304142095148563385009765625</LongitudeDegrees>
            </Position>
            <AltitudeMeters>779.4000244140625</AltitudeMeters>
            <DistanceMeters>NAN</DistanceMeters>
          </Trackpoint>
          <Trackpoint>
            <Time>2020-12-05T12:57:42.000Z</Time>
            <Position>
              <LatitudeDegrees>36.826233230531215667724609375</LatitudeDegrees>
              <LongitudeDegrees>-4.3830404989421367645263671875</LongitudeDegrees>
            </Position>
            <AltitudeMeters>779.4000244140625</AltitudeMeters>
            <DistanceMeters>NAN</DistanceMeters>
          </Trackpoint>
          <Trackpoint>
            <Time>2020-12-05T12:57:43.000Z</Time>
            <Position>
              <LatitudeDegrees>36.8262206576764583587646484375</LatitudeDegrees>
              <LongitudeDegrees>-4.3830388225615024566650390625</LongitudeDegrees>
            </Position>
            <AltitudeMeters>779.4000244140625</AltitudeMeters>
            <DistanceMeters>NAN</DistanceMeters>
          </Trackpoint>
          <Trackpoint>
            <Time>2020-12-05T12:57:44.000Z</Time>
            <Position>
              <LatitudeDegrees>36.82620682753622531890869140625</LatitudeDegrees>
              <LongitudeDegrees>-4.38303999602794647216796875</LongitudeDegrees>
            </Position>
            <AltitudeMeters>779.4000244140625</AltitudeMeters>
            <DistanceMeters>NAN</DistanceMeters>
          </Trackpoint>
          <Trackpoint>
            <Time>2020-12-05T12:57:45.000Z</Time>
            <Position>
              <LatitudeDegrees>36.8261945061385631561279296875</LatitudeDegrees>
              <LongitudeDegrees>-4.3830425105988979339599609375</LongitudeDegrees>
            </Position>
            <AltitudeMeters>779.4000244140625</AltitudeMeters>
            <DistanceMeters>NAN</DistanceMeters>
          </Trackpoint>
          <Trackpoint>
            <Time>2020-12-05T12:57:46.000Z</Time>
            <Position>
              <LatitudeDegrees>36.82618134655058383941650390625</LatitudeDegrees>
              <LongitudeDegrees>-4.38304544426500797271728515625</LongitudeDegrees>
            </Position>
            <AltitudeMeters>779.4000244140625</AltitudeMeters>
            <DistanceMeters>NAN</DistanceMeters>
          </Trackpoint>
          <Trackpoint>
            <Time>2020-12-05T12:57:47.000Z</Time>
            <Position>
              <LatitudeDegrees>36.82616692967712879180908203125</LatitudeDegrees>
              <LongitudeDegrees>-4.38304712064564228057861328125</LongitudeDegrees>
            </Position>
            <AltitudeMeters>779.4000244140625</AltitudeMeters>
            <DistanceMeters>NAN</DistanceMeters>
          </Trackpoint>
          <Trackpoint>
            <Time>2020-12-05T12:57:48.000Z</Time>
            <Position>
              <LatitudeDegrees>36.826153434813022613525390625</LatitudeDegrees>
              <LongitudeDegrees>-4.383049048483371734619140625</LongitudeDegrees>
            </Position>
            <AltitudeMeters>779.4000244140625</AltitudeMeters>
            <DistanceMeters>NAN</DistanceMeters>
          </Trackpoint>
          <Trackpoint>
            <Time>2020-12-05T12:57:49.000Z</Time>
            <Position>
              <LatitudeDegrees>36.82613910175859928131103515625</LatitudeDegrees>
              <LongitudeDegrees>-4.3830552510917186737060546875</LongitudeDegrees>
            </Position>
            <AltitudeMeters>779.4000244140625</AltitudeMeters>
            <DistanceMeters>NAN</DistanceMeters>
          </Trackpoint>
          <Trackpoint>
            <Time>2020-12-05T12:57:50.000Z</Time>
            <Position>
              <LatitudeDegrees>36.8261244334280490875244140625</LatitudeDegrees>
              <LongitudeDegrees>-4.3830622918903827667236328125</LongitudeDegrees>
            </Position>
            <AltitudeMeters>779.4000244140625</AltitudeMeters>
            <DistanceMeters>NAN</DistanceMeters>
          </Trackpoint>
          <Trackpoint>
            <Time>2020-12-05T12:57:51.000Z</Time>
            <Position>
              <LatitudeDegrees>36.82611043564975261688232421875</LatitudeDegrees>
              <LongitudeDegrees>-4.38306924887001514434814453125</LongitudeDegrees>
            </Position>
            <AltitudeMeters>779.4000244140625</AltitudeMeters>
            <DistanceMeters>NAN</DistanceMeters>
          </Trackpoint>
          <Trackpoint>
            <Time>2020-12-05T12:57:52.000Z</Time>
            <Position>
              <LatitudeDegrees>36.826097108423709869384765625</LatitudeDegrees>
              <LongitudeDegrees>-4.3830757029354572296142578125</LongitudeDegrees>
            </Position>
            <AltitudeMeters>779.4000244140625</AltitudeMeters>
            <DistanceMeters>NAN</DistanceMeters>
          </Trackpoint>
          <Trackpoint>
            <Time>2020-12-05T12:57:53.000Z</Time>
            <Position>
              <LatitudeDegrees>36.8260862119495868682861328125</LatitudeDegrees>
              <LongitudeDegrees>-4.38308534212410449981689453125</LongitudeDegrees>
            </Position>
            <AltitudeMeters>779.4000244140625</AltitudeMeters>
            <DistanceMeters>NAN</DistanceMeters>
          </Trackpoint>
          <Trackpoint>
            <Time>2020-12-05T12:57:54.000Z</Time>
            <Position>
              <LatitudeDegrees>36.82607254944741725921630859375</LatitudeDegrees>
              <LongitudeDegrees>-4.38308953307569026947021484375</LongitudeDegrees>
            </Position>
            <AltitudeMeters>779.4000244140625</AltitudeMeters>
            <DistanceMeters>NAN</DistanceMeters>
          </Trackpoint>
          <Trackpoint>
            <Time>2020-12-05T12:57:55.000Z</Time>
            <Position>
              <LatitudeDegrees>36.8260577134788036346435546875</LatitudeDegrees>
              <LongitudeDegrees>-4.3830897845327854156494140625</LongitudeDegrees>
            </Position>
            <AltitudeMeters>779.4000244140625</AltitudeMeters>
            <DistanceMeters>NAN</DistanceMeters>
          </Trackpoint>
          <Trackpoint>
            <Time>2020-12-05T12:57:56.000Z</Time>
            <Position>
              <LatitudeDegrees>36.82604338042438030242919921875</LatitudeDegrees>
              <LongitudeDegrees>-4.383089281618595123291015625</LongitudeDegrees>
            </Position>
            <AltitudeMeters>779.4000244140625</AltitudeMeters>
            <DistanceMeters>NAN</DistanceMeters>
          </Trackpoint>
          <Trackpoint>
            <Time>2020-12-05T12:57:57.000Z</Time>
            <Position>
              <LatitudeDegrees>36.82603416033089160919189453125</LatitudeDegrees>
              <LongitudeDegrees>-4.38308651559054851531982421875</LongitudeDegrees>
            </Position>
            <AltitudeMeters>779.4000244140625</AltitudeMeters>
            <DistanceMeters>NAN</DistanceMeters>
          </Trackpoint>
          <Trackpoint>
            <Time>2020-12-05T12:57:58.000Z</Time>
            <Position>
              <LatitudeDegrees>36.8260255269706249237060546875</LatitudeDegrees>
              <LongitudeDegrees>-4.38308349810540676116943359375</LongitudeDegrees>
            </Position>
            <AltitudeMeters>779.4000244140625</AltitudeMeters>
            <DistanceMeters>NAN</DistanceMeters>
          </Trackpoint>
          <Trackpoint>
            <Time>2020-12-05T12:57:59.000Z</Time>
            <Position>
              <LatitudeDegrees>36.82601404376327991485595703125</LatitudeDegrees>
              <LongitudeDegrees>-4.3830807320773601531982421875</LongitudeDegrees>
            </Position>
            <AltitudeMeters>779.4000244140625</AltitudeMeters>
            <DistanceMeters>NAN</DistanceMeters>
          </Trackpoint>
          <Trackpoint>
            <Time>2020-12-05T12:58:00.000Z</Time>
            <Position>
              <LatitudeDegrees>36.82600314728915691375732421875</LatitudeDegrees>
              <LongitudeDegrees>-4.38308249227702617645263671875</LongitudeDegrees>
            </Position>
            <AltitudeMeters>782.20001220703125</AltitudeMeters>
            <DistanceMeters>NAN</DistanceMeters>
          </Trackpoint>
          <Trackpoint>
            <Time>2020-12-05T12:58:01.000Z</Time>
            <Position>
              <LatitudeDegrees>36.82599141262471675872802734375</LatitudeDegrees>
              <LongitudeDegrees>-4.3830864317715167999267578125</LongitudeDegrees>
            </Position>
            <AltitudeMeters>782.20001220703125</AltitudeMeters>
            <DistanceMeters>NAN</DistanceMeters>
          </Trackpoint>
          <Trackpoint>
            <Time>2020-12-05T12:58:02.000Z</Time>
            <Position>
              <LatitudeDegrees>36.825978755950927734375</LatitudeDegrees>
              <LongitudeDegrees>-4.3830891139805316925048828125</LongitudeDegrees>
            </Position>
            <AltitudeMeters>782.20001220703125</AltitudeMeters>
            <DistanceMeters>NAN</DistanceMeters>
          </Trackpoint>
          <Trackpoint>
            <Time>2020-12-05T12:58:03.000Z</Time>
            <Position>
              <LatitudeDegrees>36.8259651772677898406982421875</LatitudeDegrees>
              <LongitudeDegrees>-4.383091628551483154296875</LongitudeDegrees>
            </Position>
            <AltitudeMeters>782.20001220703125</AltitudeMeters>
            <DistanceMeters>NAN</DistanceMeters>
          </Trackpoint>
          <Trackpoint>
            <Time>2020-12-05T12:58:04.000Z</Time>
            <Position>
              <LatitudeDegrees>36.825948916375637054443359375</LatitudeDegrees>
              <LongitudeDegrees>-4.383091628551483154296875</LongitudeDegrees>
            </Position>
            <AltitudeMeters>782.20001220703125</AltitudeMeters>
            <DistanceMeters>NAN</DistanceMeters>
          </Trackpoint>
          <Trackpoint>
            <Time>2020-12-05T12:58:05.000Z</Time>
            <Position>
              <LatitudeDegrees>36.8259319849312305450439453125</LatitudeDegrees>
              <LongitudeDegrees>-4.383091628551483154296875</LongitudeDegrees>
            </Position>
            <AltitudeMeters>782.20001220703125</AltitudeMeters>
            <DistanceMeters>NAN</DistanceMeters>
          </Trackpoint>
          <Trackpoint>
            <Time>2020-12-05T12:58:06.000Z</Time>
            <Position>
              <LatitudeDegrees>36.82591748423874378204345703125</LatitudeDegrees>
              <LongitudeDegrees>-4.38308869488537311553955078125</LongitudeDegrees>
            </Position>
            <AltitudeMeters>782.20001220703125</AltitudeMeters>
            <DistanceMeters>NAN</DistanceMeters>
          </Trackpoint>
          <Trackpoint>
            <Time>2020-12-05T12:58:07.000Z</Time>
            <Position>
              <LatitudeDegrees>36.82590474374592304229736328125</LatitudeDegrees>
              <LongitudeDegrees>-4.38308961689472198486328125</LongitudeDegrees>
            </Position>
            <AltitudeMeters>782.20001220703125</AltitudeMeters>
            <DistanceMeters>NAN</DistanceMeters>
          </Trackpoint>
          <Trackpoint>
            <Time>2020-12-05T12:58:08.000Z</Time>
            <Position>
              <LatitudeDegrees>36.82589183561503887176513671875</LatitudeDegrees>
              <LongitudeDegrees>-4.38308970071375370025634765625</LongitudeDegrees>
            </Position>
            <AltitudeMeters>782.20001220703125</AltitudeMeters>
            <DistanceMeters>NAN</DistanceMeters>
          </Trackpoint>
          <Trackpoint>
            <Time>2020-12-05T12:58:09.000Z</Time>
            <Position>
              <LatitudeDegrees>36.82587875984609127044677734375</LatitudeDegrees>
              <LongitudeDegrees>-4.3830931372940540313720703125</LongitudeDegrees>
            </Position>
            <AltitudeMeters>782.20001220703125</AltitudeMeters>
            <DistanceMeters>NAN</DistanceMeters>
          </Trackpoint>
          <Trackpoint>
            <Time>2020-12-05T12:58:10.000Z</Time>
            <Position>
              <LatitudeDegrees>36.825863756239414215087890625</LatitudeDegrees>
              <LongitudeDegrees>-4.38309338875114917755126953125</LongitudeDegrees>
            </Position>
            <AltitudeMeters>782.20001220703125</AltitudeMeters>
            <DistanceMeters>NAN</DistanceMeters>
          </Trackpoint>
          <Trackpoint>
            <Time>2020-12-05T12:58:11.000Z</Time>
            <Position>
              <LatitudeDegrees>36.82584372349083423614501953125</LatitudeDegrees>
              <LongitudeDegrees>-4.38309590332210063934326171875</LongitudeDegrees>
            </Position>
            <AltitudeMeters>782.20001220703125</AltitudeMeters>
            <DistanceMeters>NAN</DistanceMeters>
          </Trackpoint>
          <Trackpoint>
            <Time>2020-12-05T12:58:12.000Z</Time>
            <Position>
              <LatitudeDegrees>36.82582930661737918853759765625</LatitudeDegrees>
              <LongitudeDegrees>-4.38309791497886180877685546875</LongitudeDegrees>
            </Position>
            <AltitudeMeters>782.20001220703125</AltitudeMeters>
            <DistanceMeters>NAN</DistanceMeters>
          </Trackpoint>
          <Trackpoint>
            <Time>2020-12-05T12:58:13.000Z</Time>
            <Position>
              <LatitudeDegrees>36.82581773959100246429443359375</LatitudeDegrees>
              <LongitudeDegrees>-4.38310076482594013214111328125</LongitudeDegrees>
            </Position>
            <AltitudeMeters>782.20001220703125</AltitudeMeters>
            <DistanceMeters>NAN</DistanceMeters>
          </Trackpoint>
          <Trackpoint>
            <Time>2020-12-05T12:58:14.000Z</Time>
            <Position>
              <LatitudeDegrees>36.82580751366913318634033203125</LatitudeDegrees>
              <LongitudeDegrees>-4.38310445286333560943603515625</LongitudeDegrees>
            </Position>
            <AltitudeMeters>782.20001220703125</AltitudeMeters>
            <DistanceMeters>NAN</DistanceMeters>
          </Trackpoint>
          <Trackpoint>
            <Time>2020-12-05T12:58:15.000Z</Time>
            <Position>
              <LatitudeDegrees>36.8257988803088665008544921875</LatitudeDegrees>
              <LongitudeDegrees>-4.38310713507235050201416015625</LongitudeDegrees>
            </Position>
            <AltitudeMeters>782.20001220703125</AltitudeMeters>
            <DistanceMeters>NAN</DistanceMeters>
          </Trackpoint>
          <Trackpoint>
            <Time>2020-12-05T12:58:16.000Z</Time>
            <Position>
              <LatitudeDegrees>36.82578857056796550750732421875</LatitudeDegrees>
              <LongitudeDegrees>-4.3831065483391284942626953125</LongitudeDegrees>
            </Position>
            <AltitudeMeters>782.20001220703125</AltitudeMeters>
            <DistanceMeters>NAN</DistanceMeters>
          </Trackpoint>
          <Trackpoint>
            <Time>2020-12-05T12:58:17.000Z</Time>
            <Position>
              <LatitudeDegrees>36.82577784173190593719482421875</LatitudeDegrees>
              <LongitudeDegrees>-4.38310981728136539459228515625</LongitudeDegrees>
            </Position>
            <AltitudeMeters>782.20001220703125</AltitudeMeters>
            <DistanceMeters>NAN</DistanceMeters>
          </Trackpoint>
          <Trackpoint>
            <Time>2020-12-05T12:58:18.000Z</Time>
            <Position>
              <LatitudeDegrees>36.8257673643529415130615234375</LatitudeDegrees>
              <LongitudeDegrees>-4.3831156007945537567138671875</LongitudeDegrees>
            </Position>
            <AltitudeMeters>782.20001220703125</AltitudeMeters>
            <DistanceMeters>NAN</DistanceMeters>
          </Trackpoint>
          <Trackpoint>
            <Time>2020-12-05T12:58:19.000Z</Time>
            <Position>
              <LatitudeDegrees>36.82575370185077190399169921875</LatitudeDegrees>
              <LongitudeDegrees>-4.38312289305031299591064453125</LongitudeDegrees>
            </Position>
            <AltitudeMeters>782.20001220703125</AltitudeMeters>
            <DistanceMeters>NAN</DistanceMeters>
          </Trackpoint>
          <Trackpoint>
            <Time>2020-12-05T12:58:20.000Z</Time>
            <Position>
              <LatitudeDegrees>36.8257398717105388641357421875</LatitudeDegrees>
              <LongitudeDegrees>-4.3831278383731842041015625</LongitudeDegrees>
            </Position>
            <AltitudeMeters>782.20001220703125</AltitudeMeters>
            <DistanceMeters>NAN</DistanceMeters>
          </Trackpoint>
          <Trackpoint>
            <Time>2020-12-05T12:58:21.000Z</Time>
            <Position>
              <LatitudeDegrees>36.82572788558900356292724609375</LatitudeDegrees>
              <LongitudeDegrees>-4.38313060440123081207275390625</LongitudeDegrees>
            </Position>
            <AltitudeMeters>782.20001220703125</AltitudeMeters>
            <DistanceMeters>NAN</DistanceMeters>
          </Trackpoint>
          <Trackpoint>
            <Time>2020-12-05T12:58:22.000Z</Time>
            <Position>
              <LatitudeDegrees>36.82571497745811939239501953125</LatitudeDegrees>
              <LongitudeDegrees>-4.383132867515087127685546875</LongitudeDegrees>
            </Position>
            <AltitudeMeters>782.20001220703125</AltitudeMeters>
            <DistanceMeters>NAN</DistanceMeters>
          </Trackpoint>
          <Trackpoint>
            <Time>2020-12-05T12:58:23.000Z</Time>
            <Position>
              <LatitudeDegrees>36.8257033266127109527587890625</LatitudeDegrees>
              <LongitudeDegrees>-4.383137561380863189697265625</LongitudeDegrees>
            </Position>
            <AltitudeMeters>782.20001220703125</AltitudeMeters>
            <DistanceMeters>NAN</DistanceMeters>
          </Trackpoint>
          <Trackpoint>
            <Time>2020-12-05T12:58:24.000Z</Time>
            <Position>
              <LatitudeDegrees>36.82569284923374652862548828125</LatitudeDegrees>
              <LongitudeDegrees>-4.3831427581608295440673828125</LongitudeDegrees>
            </Position>
            <AltitudeMeters>782.20001220703125</AltitudeMeters>
            <DistanceMeters>NAN</DistanceMeters>
          </Trackpoint>
          <Trackpoint>
            <Time>2020-12-05T12:58:25.000Z</Time>
            <Position>
              <LatitudeDegrees>36.82568480260670185089111328125</LatitudeDegrees>
              <LongitudeDegrees>-4.383146949112415313720703125</LongitudeDegrees>
            </Position>
            <AltitudeMeters>782.20001220703125</AltitudeMeters>
            <DistanceMeters>NAN</DistanceMeters>
          </Trackpoint>
          <Trackpoint>
            <Time>2020-12-05T12:58:26.000Z</Time>
            <Position>
              <LatitudeDegrees>36.82567608542740345001220703125</LatitudeDegrees>
              <LongitudeDegrees>-4.3831524811685085296630859375</LongitudeDegrees>
            </Position>
            <AltitudeMeters>782.20001220703125</AltitudeMeters>
            <DistanceMeters>NAN</DistanceMeters>
          </Trackpoint>
          <Trackpoint>
            <Time>2020-12-05T12:58:27.000Z</Time>
            <Position>
              <LatitudeDegrees>36.82566736824810504913330078125</LatitudeDegrees>
              <LongitudeDegrees>-4.38315801322460174560546875</LongitudeDegrees>
            </Position>
            <AltitudeMeters>782.20001220703125</AltitudeMeters>
            <DistanceMeters>NAN</DistanceMeters>
          </Trackpoint>
          <Trackpoint>
            <Time>2020-12-05T12:58:28.000Z</Time>
            <Position>
              <LatitudeDegrees>36.825659573078155517578125</LatitudeDegrees>
              <LongitudeDegrees>-4.38316446729004383087158203125</LongitudeDegrees>
            </Position>
            <AltitudeMeters>782.20001220703125</AltitudeMeters>
            <DistanceMeters>NAN</DistanceMeters>
          </Trackpoint>
          <Trackpoint>
            <Time>2020-12-05T12:58:29.000Z</Time>
            <Position>
              <LatitudeDegrees>36.82565194554626941680908203125</LatitudeDegrees>
              <LongitudeDegrees>-4.38316882587969303131103515625</LongitudeDegrees>
            </Position>
            <AltitudeMeters>782.20001220703125</AltitudeMeters>
            <DistanceMeters>NAN</DistanceMeters>
          </Trackpoint>
          <Trackpoint>
            <Time>2020-12-05T12:58:30.000Z</Time>
            <Position>
              <LatitudeDegrees>36.82564222253859043121337890625</LatitudeDegrees>
              <LongitudeDegrees>-4.383171759545803070068359375</LongitudeDegrees>
            </Position>
            <AltitudeMeters>782.20001220703125</AltitudeMeters>
            <DistanceMeters>NAN</DistanceMeters>
          </Trackpoint>
          <Trackpoint>
            <Time>2020-12-05T12:58:31.000Z</Time>
            <Position>
              <LatitudeDegrees>36.8256309069693088531494140625</LatitudeDegrees>
              <LongitudeDegrees>-4.38317419029772281646728515625</LongitudeDegrees>
            </Position>
            <AltitudeMeters>782.20001220703125</AltitudeMeters>
            <DistanceMeters>NAN</DistanceMeters>
          </Trackpoint>
          <Trackpoint>
            <Time>2020-12-05T12:58:32.000Z</Time>
            <Position>
              <LatitudeDegrees>36.825619004666805267333984375</LatitudeDegrees>
              <LongitudeDegrees>-4.3831739388406276702880859375</LongitudeDegrees>
            </Position>
            <AltitudeMeters>782.20001220703125</AltitudeMeters>
            <DistanceMeters>NAN</DistanceMeters>
          </Trackpoint>
          <Trackpoint>
            <Time>2020-12-05T12:58:33.000Z</Time>
            <Position>
              <LatitudeDegrees>36.82560752145946025848388671875</LatitudeDegrees>
              <LongitudeDegrees>-4.38317477703094482421875</LongitudeDegrees>
            </Position>
            <AltitudeMeters>782.20001220703125</AltitudeMeters>
            <DistanceMeters>NAN</DistanceMeters>
          </Trackpoint>
          <Trackpoint>
            <Time>2020-12-05T12:58:34.000Z</Time>
            <Position>
              <LatitudeDegrees>36.82559318840503692626953125</LatitudeDegrees>
              <LongitudeDegrees>-4.383173771202564239501953125</LongitudeDegrees>
            </Position>
            <AltitudeMeters>782.20001220703125</AltitudeMeters>
            <DistanceMeters>NAN</DistanceMeters>
          </Trackpoint>
          <Trackpoint>
            <Time>2020-12-05T12:58:35.000Z</Time>
            <Position>
              <LatitudeDegrees>36.82557734660804271697998046875</LatitudeDegrees>
              <LongitudeDegrees>-4.3831719271838665008544921875</LongitudeDegrees>
            </Position>
            <AltitudeMeters>782.20001220703125</AltitudeMeters>
            <DistanceMeters>NAN</DistanceMeters>
          </Trackpoint>
          <Trackpoint>
            <Time>2020-12-05T12:58:36.000Z</Time>
            <Position>
              <LatitudeDegrees>36.82556292973458766937255859375</LatitudeDegrees>
              <LongitudeDegrees>-4.383172430098056793212890625</LongitudeDegrees>
            </Position>
            <AltitudeMeters>782.20001220703125</AltitudeMeters>
            <DistanceMeters>NAN</DistanceMeters>
          </Trackpoint>
          <Trackpoint>
            <Time>2020-12-05T12:58:37.000Z</Time>
            <Position>
              <LatitudeDegrees>36.82554935105144977569580078125</LatitudeDegrees>
              <LongitudeDegrees>-4.38317620195448398590087890625</LongitudeDegrees>
            </Position>
            <AltitudeMeters>782.20001220703125</AltitudeMeters>
            <DistanceMeters>NAN</DistanceMeters>
          </Trackpoint>
          <Trackpoint>
            <Time>2020-12-05T12:58:38.000Z</Time>
            <Position>
              <LatitudeDegrees>36.8255363591015338897705078125</LatitudeDegrees>
              <LongitudeDegrees>-4.38317704014480113983154296875</LongitudeDegrees>
            </Position>
            <AltitudeMeters>782.20001220703125</AltitudeMeters>
            <DistanceMeters>NAN</DistanceMeters>
          </Trackpoint>
          <Trackpoint>
            <Time>2020-12-05T12:58:39.000Z</Time>
            <Position>
              <LatitudeDegrees>36.8255246244370937347412109375</LatitudeDegrees>
              <LongitudeDegrees>-4.3831769563257694244384765625</LongitudeDegrees>
            </Position>
            <AltitudeMeters>782.20001220703125</AltitudeMeters>
            <DistanceMeters>NAN</DistanceMeters>
          </Trackpoint>
          <Trackpoint>
            <Time>2020-12-05T12:58:40.000Z</Time>
            <Position>
              <LatitudeDegrees>36.8255132250487804412841796875</LatitudeDegrees>
              <LongitudeDegrees>-4.38317603431642055511474609375</LongitudeDegrees>
            </Position>
            <AltitudeMeters>782.20001220703125</AltitudeMeters>
            <DistanceMeters>NAN</DistanceMeters>
          </Trackpoint>
          <Trackpoint>
            <Time>2020-12-05T12:58:41.000Z</Time>
            <Position>
              <LatitudeDegrees>36.82550157420337200164794921875</LatitudeDegrees>
              <LongitudeDegrees>-4.38317486084997653961181640625</LongitudeDegrees>
            </Position>
            <AltitudeMeters>782.20001220703125</AltitudeMeters>
            <DistanceMeters>NAN</DistanceMeters>
          </Trackpoint>
          <Trackpoint>
            <Time>2020-12-05T12:58:42.000Z</Time>
            <Position>
              <LatitudeDegrees>36.82549118064343929290771484375</LatitudeDegrees>
              <LongitudeDegrees>-4.383172094821929931640625</LongitudeDegrees>
            </Position>
            <AltitudeMeters>782.20001220703125</AltitudeMeters>
            <DistanceMeters>NAN</DistanceMeters>
          </Trackpoint>
          <Trackpoint>
            <Time>2020-12-05T12:58:43.000Z</Time>
            <Position>
              <LatitudeDegrees>36.82548028416931629180908203125</LatitudeDegrees>
              <LongitudeDegrees>-4.38316832296550273895263671875</LongitudeDegrees>
            </Position>
            <AltitudeMeters>782.20001220703125</AltitudeMeters>
            <DistanceMeters>NAN</DistanceMeters>
          </Trackpoint>
          <Trackpoint>
            <Time>2020-12-05T12:58:44.000Z</Time>
            <Position>
              <LatitudeDegrees>36.82547106407582759857177734375</LatitudeDegrees>
              <LongitudeDegrees>-4.3831652216613292694091796875</LongitudeDegrees>
            </Position>
            <AltitudeMeters>782.20001220703125</AltitudeMeters>
            <DistanceMeters>NAN</DistanceMeters>
          </Trackpoint>
          <Trackpoint>
            <Time>2020-12-05T12:58:45.000Z</Time>
            <Position>
              <LatitudeDegrees>36.825460754334926605224609375</LatitudeDegrees>
              <LongitudeDegrees>-4.38316362909972667694091796875</LongitudeDegrees>
            </Position>
            <AltitudeMeters>782.20001220703125</AltitudeMeters>
            <DistanceMeters>NAN</DistanceMeters>
          </Trackpoint>
          <Trackpoint>
            <Time>2020-12-05T12:58:46.000Z</Time>
            <Position>
              <LatitudeDegrees>36.825449354946613311767578125</LatitudeDegrees>
              <LongitudeDegrees>-4.3831598572432994842529296875</LongitudeDegrees>
            </Position>
            <AltitudeMeters>782.20001220703125</AltitudeMeters>
            <DistanceMeters>NAN</DistanceMeters>
          </Trackpoint>
          <Trackpoint>
            <Time>2020-12-05T12:58:47.000Z</Time>
            <Position>
              <LatitudeDegrees>36.82543359696865081787109375</LatitudeDegrees>
              <LongitudeDegrees>-4.38315072096884250640869140625</LongitudeDegrees>
            </Position>
            <AltitudeMeters>782.20001220703125</AltitudeMeters>
            <DistanceMeters>NAN</DistanceMeters>
          </Trackpoint>
          <Trackpoint>
            <Time>2020-12-05T12:58:48.000Z</Time>
            <Position>
              <LatitudeDegrees>36.82541993446648120880126953125</LatitudeDegrees>
              <LongitudeDegrees>-4.3831439316272735595703125</LongitudeDegrees>
            </Position>
            <AltitudeMeters>782.20001220703125</AltitudeMeters>
            <DistanceMeters>NAN</DistanceMeters>
          </Trackpoint>
          <Trackpoint>
            <Time>2020-12-05T12:58:49.000Z</Time>
            <Position>
              <LatitudeDegrees>36.82540451176464557647705078125</LatitudeDegrees>
              <LongitudeDegrees>-4.3831380642950534820556640625</LongitudeDegrees>
            </Position>
            <AltitudeMeters>782.20001220703125</AltitudeMeters>
            <DistanceMeters>NAN</DistanceMeters>
          </Trackpoint>
          <Trackpoint>
            <Time>2020-12-05T12:58:50.000Z</Time>
            <Position>
              <LatitudeDegrees>36.8253851495683193206787109375</LatitudeDegrees>
              <LongitudeDegrees>-4.383136890828609466552734375</LongitudeDegrees>
            </Position>
            <AltitudeMeters>782.20001220703125</AltitudeMeters>
            <DistanceMeters>NAN</DistanceMeters>
          </Trackpoint>
          <Trackpoint>
            <Time>2020-12-05T12:58:51.000Z</Time>
            <Position>
              <LatitudeDegrees>36.825367547571659088134765625</LatitudeDegrees>
              <LongitudeDegrees>-4.38313311897218227386474609375</LongitudeDegrees>
            </Position>
            <AltitudeMeters>782.20001220703125</AltitudeMeters>
            <DistanceMeters>NAN</DistanceMeters>
          </Trackpoint>
          <Trackpoint>
            <Time>2020-12-05T12:58:52.000Z</Time>
            <Position>
              <LatitudeDegrees>36.825353465974330902099609375</LatitudeDegrees>
              <LongitudeDegrees>-4.38312859274446964263916015625</LongitudeDegrees>
            </Position>
            <AltitudeMeters>782.20001220703125</AltitudeMeters>
            <DistanceMeters>NAN</DistanceMeters>
          </Trackpoint>
          <Trackpoint>
            <Time>2020-12-05T12:58:53.000Z</Time>
            <Position>
              <LatitudeDegrees>36.82534248568117618560791015625</LatitudeDegrees>
              <LongitudeDegrees>-4.3831280060112476348876953125</LongitudeDegrees>
            </Position>
            <AltitudeMeters>782.20001220703125</AltitudeMeters>
            <DistanceMeters>NAN</DistanceMeters>
          </Trackpoint>
          <Trackpoint>
            <Time>2020-12-05T12:58:54.000Z</Time>
            <Position>
              <LatitudeDegrees>36.82533477433025836944580078125</LatitudeDegrees>
              <LongitudeDegrees>-4.38312389887869358062744140625</LongitudeDegrees>
            </Position>
            <AltitudeMeters>782.20001220703125</AltitudeMeters>
            <DistanceMeters>NAN</DistanceMeters>
          </Trackpoint>
          <Trackpoint>
            <Time>2020-12-05T12:58:55.000Z</Time>
            <Position>
              <LatitudeDegrees>36.82532773353159427642822265625</LatitudeDegrees>
              <LongitudeDegrees>-4.3831192888319492340087890625</LongitudeDegrees>
            </Position>
            <AltitudeMeters>782.20001220703125</AltitudeMeters>
            <DistanceMeters>NAN</DistanceMeters>
          </Trackpoint>
          <Trackpoint>
            <Time>2020-12-05T12:58:56.000Z</Time>
            <Position>
              <LatitudeDegrees>36.8253204412758350372314453125</LatitudeDegrees>
              <LongitudeDegrees>-4.38311367295682430267333984375</LongitudeDegrees>
            </Position>
            <AltitudeMeters>782.20001220703125</AltitudeMeters>
            <DistanceMeters>NAN</DistanceMeters>
          </Trackpoint>
          <Trackpoint>
            <Time>2020-12-05T12:58:57.000Z</Time>
            <Position>
              <LatitudeDegrees>36.8253127299249172210693359375</LatitudeDegrees>
              <LongitudeDegrees>-4.38310462050139904022216796875</LongitudeDegrees>
            </Position>
            <AltitudeMeters>782.20001220703125</AltitudeMeters>
            <DistanceMeters>NAN</DistanceMeters>
          </Trackpoint>
          <Trackpoint>
            <Time>2020-12-05T12:58:58.000Z</Time>
            <Position>
              <LatitudeDegrees>36.82530459947884082794189453125</LatitudeDegrees>
              <LongitudeDegrees>-4.383097328245639801025390625</LongitudeDegrees>
            </Position>
            <AltitudeMeters>782.20001220703125</AltitudeMeters>
            <DistanceMeters>NAN</DistanceMeters>
          </Trackpoint>
          <Trackpoint>
            <Time>2020-12-05T12:58:59.000Z</Time>
            <Position>
              <LatitudeDegrees>36.825297810137271881103515625</LatitudeDegrees>
              <LongitudeDegrees>-4.3830929696559906005859375</LongitudeDegrees>
            </Position>
            <AltitudeMeters>782.20001220703125</AltitudeMeters>
            <DistanceMeters>NAN</DistanceMeters>
          </Trackpoint>
          <Trackpoint>
            <Time>2020-12-05T12:59:00.000Z</Time>
            <Position>
              <LatitudeDegrees>36.82529018260538578033447265625</LatitudeDegrees>
              <LongitudeDegrees>-4.38309120945632457733154296875</LongitudeDegrees>
            </Position>
            <AltitudeMeters>786.5999755859375</AltitudeMeters>
            <DistanceMeters>NAN</DistanceMeters>
          </Trackpoint>
          <Trackpoint>
            <Time>2020-12-05T12:59:01.000Z</Time>
            <Position>
              <LatitudeDegrees>36.82527861557900905609130859375</LatitudeDegrees>
              <LongitudeDegrees>-4.38308852724730968475341796875</LongitudeDegrees>
            </Position>
            <AltitudeMeters>786.5999755859375</AltitudeMeters>
            <DistanceMeters>NAN</DistanceMeters>
          </Trackpoint>
          <Trackpoint>
            <Time>2020-12-05T12:59:02.000Z</Time>
            <Position>
              <LatitudeDegrees>36.82526595890522003173828125</LatitudeDegrees>
              <LongitudeDegrees>-4.38308559358119964599609375</LongitudeDegrees>
            </Position>
            <AltitudeMeters>786.5999755859375</AltitudeMeters>
            <DistanceMeters>NAN</DistanceMeters>
          </Trackpoint>
          <Trackpoint>
            <Time>2020-12-05T12:59:03.000Z</Time>
            <Position>
              <LatitudeDegrees>36.82525120675563812255859375</LatitudeDegrees>
              <LongitudeDegrees>-4.38308291137218475341796875</LongitudeDegrees>
            </Position>
            <AltitudeMeters>786.5999755859375</AltitudeMeters>
            <DistanceMeters>NAN</DistanceMeters>
          </Trackpoint>
          <Trackpoint>
            <Time>2020-12-05T12:59:04.000Z</Time>
            <Position>
              <LatitudeDegrees>36.8252396397292613983154296875</LatitudeDegrees>
              <LongitudeDegrees>-4.38308249227702617645263671875</LongitudeDegrees>
            </Position>
            <AltitudeMeters>786.5999755859375</AltitudeMeters>
            <DistanceMeters>NAN</DistanceMeters>
          </Trackpoint>
          <Trackpoint>
            <Time>2020-12-05T12:59:05.000Z</Time>
            <Position>
              <LatitudeDegrees>36.8252248875796794891357421875</LatitudeDegrees>
              <LongitudeDegrees>-4.38308249227702617645263671875</LongitudeDegrees>
            </Position>
            <AltitudeMeters>786.5999755859375</AltitudeMeters>
            <DistanceMeters>NAN</DistanceMeters>
          </Trackpoint>
          <Trackpoint>
            <Time>2020-12-05T12:59:06.000Z</Time>
            <Position>
              <LatitudeDegrees>36.8252121470868587493896484375</LatitudeDegrees>
              <LongitudeDegrees>-4.38307427801191806793212890625</LongitudeDegrees>
            </Position>
            <AltitudeMeters>786.5999755859375</AltitudeMeters>
            <DistanceMeters>NAN</DistanceMeters>
          </Trackpoint>
          <Trackpoint>
            <Time>2020-12-05T12:59:07.000Z</Time>
            <Position>
              <LatitudeDegrees>36.82519697584211826324462890625</LatitudeDegrees>
              <LongitudeDegrees>-4.383070506155490875244140625</LongitudeDegrees>
            </Position>
            <AltitudeMeters>786.5999755859375</AltitudeMeters>
            <DistanceMeters>NAN</DistanceMeters>
          </Trackpoint>
          <Trackpoint>
            <Time>2020-12-05T12:59:08.000Z</Time>
            <Position>
              <LatitudeDegrees>36.825185157358646392822265625</LatitudeDegrees>
              <LongitudeDegrees>-4.383069835603237152099609375</LongitudeDegrees>
            </Position>
            <AltitudeMeters>786.5999755859375</AltitudeMeters>
            <DistanceMeters>NAN</DistanceMeters>
          </Trackpoint>
          <Trackpoint>
            <Time>2020-12-05T12:59:09.000Z</Time>
            <Position>
              <LatitudeDegrees>36.8251745961606502532958984375</LatitudeDegrees>
              <LongitudeDegrees>-4.38306455500423908233642578125</LongitudeDegrees>
            </Position>
            <AltitudeMeters>786.5999755859375</AltitudeMeters>
            <DistanceMeters>NAN</DistanceMeters>
          </Trackpoint>
          <Trackpoint>
            <Time>2020-12-05T12:59:10.000Z</Time>
            <Position>
              <LatitudeDegrees>36.82516160421073436737060546875</LatitudeDegrees>
              <LongitudeDegrees>-4.3830626271665096282958984375</LongitudeDegrees>
            </Position>
            <AltitudeMeters>786.5999755859375</AltitudeMeters>
            <DistanceMeters>NAN</DistanceMeters>
          </Trackpoint>
          <Trackpoint>
            <Time>2020-12-05T12:59:11.000Z</Time>
            <Position>
              <LatitudeDegrees>36.82515070773661136627197265625</LatitudeDegrees>
              <LongitudeDegrees>-4.38305743038654327392578125</LongitudeDegrees>
            </Position>
            <AltitudeMeters>786.5999755859375</AltitudeMeters>
            <DistanceMeters>NAN</DistanceMeters>
          </Trackpoint>
          <Trackpoint>
            <Time>2020-12-05T12:59:12.000Z</Time>
            <Position>
              <LatitudeDegrees>36.82514064945280551910400390625</LatitudeDegrees>
              <LongitudeDegrees>-4.3830518983304500579833984375</LongitudeDegrees>
            </Position>
            <AltitudeMeters>786.5999755859375</AltitudeMeters>
            <DistanceMeters>NAN</DistanceMeters>
          </Trackpoint>
          <Trackpoint>
            <Time>2020-12-05T12:59:13.000Z</Time>
            <Position>
              <LatitudeDegrees>36.82513126172125339508056640625</LatitudeDegrees>
              <LongitudeDegrees>-4.3830472044646739959716796875</LongitudeDegrees>
            </Position>
            <AltitudeMeters>786.5999755859375</AltitudeMeters>
            <DistanceMeters>NAN</DistanceMeters>
          </Trackpoint>
          <Trackpoint>
            <Time>2020-12-05T12:59:14.000Z</Time>
            <Position>
              <LatitudeDegrees>36.8251216225326061248779296875</LatitudeDegrees>
              <LongitudeDegrees>-4.38304401934146881103515625</LongitudeDegrees>
            </Position>
            <AltitudeMeters>786.5999755859375</AltitudeMeters>
            <DistanceMeters>NAN</DistanceMeters>
          </Trackpoint>
          <Trackpoint>
            <Time>2020-12-05T12:59:15.000Z</Time>
            <Position>
              <LatitudeDegrees>36.8251105584204196929931640625</LatitudeDegrees>
              <LongitudeDegrees>-4.38304024748504161834716796875</LongitudeDegrees>
            </Position>
            <AltitudeMeters>786.5999755859375</AltitudeMeters>
            <DistanceMeters>NAN</DistanceMeters>
          </Trackpoint>
          <Trackpoint>
            <Time>2020-12-05T12:59:16.000Z</Time>
            <Position>
              <LatitudeDegrees>36.8250961415469646453857421875</LatitudeDegrees>
              <LongitudeDegrees>-4.38303622417151927947998046875</LongitudeDegrees>
            </Position>
            <AltitudeMeters>786.5999755859375</AltitudeMeters>
            <DistanceMeters>NAN</DistanceMeters>
          </Trackpoint>
          <Trackpoint>
            <Time>2020-12-05T12:59:17.000Z</Time>
            <Position>
              <LatitudeDegrees>36.82507778517901897430419921875</LatitudeDegrees>
              <LongitudeDegrees>-4.3830337934195995330810546875</LongitudeDegrees>
            </Position>
            <AltitudeMeters>786.5999755859375</AltitudeMeters>
            <DistanceMeters>NAN</DistanceMeters>
          </Trackpoint>
          <Trackpoint>
            <Time>2020-12-05T12:59:18.000Z</Time>
            <Position>
              <LatitudeDegrees>36.8250575847923755645751953125</LatitudeDegrees>
              <LongitudeDegrees>-4.38303421251475811004638671875</LongitudeDegrees>
            </Position>
            <AltitudeMeters>786.5999755859375</AltitudeMeters>
            <DistanceMeters>NAN</DistanceMeters>
          </Trackpoint>
          <Trackpoint>
            <Time>2020-12-05T12:59:19.000Z</Time>
            <Position>
              <LatitudeDegrees>36.8250386416912078857421875</LatitudeDegrees>
              <LongitudeDegrees>-4.38303873874247074127197265625</LongitudeDegrees>
            </Position>
            <AltitudeMeters>786.5999755859375</AltitudeMeters>
            <DistanceMeters>NAN</DistanceMeters>
          </Trackpoint>
          <Trackpoint>
            <Time>2020-12-05T12:59:20.000Z</Time>
            <Position>
              <LatitudeDegrees>36.82502330280840396881103515625</LatitudeDegrees>
              <LongitudeDegrees>-4.38304133713245391845703125</LongitudeDegrees>
            </Position>
            <AltitudeMeters>786.5999755859375</AltitudeMeters>
            <DistanceMeters>NAN</DistanceMeters>
          </Trackpoint>
          <Trackpoint>
            <Time>2020-12-05T12:59:21.000Z</Time>
            <Position>
              <LatitudeDegrees>36.8250091373920440673828125</LatitudeDegrees>
              <LongitudeDegrees>-4.38304158858954906463623046875</LongitudeDegrees>
            </Position>
            <AltitudeMeters>786.5999755859375</AltitudeMeters>
            <DistanceMeters>NAN</DistanceMeters>
          </Trackpoint>
          <Trackpoint>
            <Time>2020-12-05T12:59:22.000Z</Time>
            <Position>
              <LatitudeDegrees>36.82499413378536701202392578125</LatitudeDegrees>
              <LongitudeDegrees>-4.3830438517034053802490234375</LongitudeDegrees>
            </Position>
            <AltitudeMeters>786.5999755859375</AltitudeMeters>
            <DistanceMeters>NAN</DistanceMeters>
          </Trackpoint>
          <Trackpoint>
            <Time>2020-12-05T12:59:23.000Z</Time>
            <Position>
              <LatitudeDegrees>36.82497921399772167205810546875</LatitudeDegrees>
              <LongitudeDegrees>-4.3830435164272785186767578125</LongitudeDegrees>
            </Position>
            <AltitudeMeters>786.5999755859375</AltitudeMeters>
            <DistanceMeters>NAN</DistanceMeters>
          </Trackpoint>
          <Trackpoint>
            <Time>2020-12-05T12:59:24.000Z</Time>
            <Position>
              <LatitudeDegrees>36.8249670602381229400634765625</LatitudeDegrees>
              <LongitudeDegrees>-4.38304125331342220306396484375</LongitudeDegrees>
            </Position>
            <AltitudeMeters>786.5999755859375</AltitudeMeters>
            <DistanceMeters>NAN</DistanceMeters>
          </Trackpoint>
          <Trackpoint>
            <Time>2020-12-05T12:59:25.000Z</Time>
            <Position>
              <LatitudeDegrees>36.824953816831111907958984375</LatitudeDegrees>
              <LongitudeDegrees>-4.3830404989421367645263671875</LongitudeDegrees>
            </Position>
            <AltitudeMeters>786.5999755859375</AltitudeMeters>
            <DistanceMeters>NAN</DistanceMeters>
          </Trackpoint>
          <Trackpoint>
            <Time>2020-12-05T12:59:26.000Z</Time>
            <Position>
              <LatitudeDegrees>36.82494350709021091461181640625</LatitudeDegrees>
              <LongitudeDegrees>-4.38304007984697818756103515625</LongitudeDegrees>
            </Position>
            <AltitudeMeters>786.5999755859375</AltitudeMeters>
            <DistanceMeters>NAN</DistanceMeters>
          </Trackpoint>
          <Trackpoint>
            <Time>2020-12-05T12:59:27.000Z</Time>
            <Position>
              <LatitudeDegrees>36.82493244297802448272705078125</LatitudeDegrees>
              <LongitudeDegrees>-4.38304561190307140350341796875</LongitudeDegrees>
            </Position>
            <AltitudeMeters>786.5999755859375</AltitudeMeters>
            <DistanceMeters>NAN</DistanceMeters>
          </Trackpoint>
          <Trackpoint>
            <Time>2020-12-05T12:59:28.000Z</Time>
            <Position>
              <LatitudeDegrees>36.82492221705615520477294921875</LatitudeDegrees>
              <LongitudeDegrees>-4.38304997049272060394287109375</LongitudeDegrees>
            </Position>
            <AltitudeMeters>786.5999755859375</AltitudeMeters>
            <DistanceMeters>NAN</DistanceMeters>
          </Trackpoint>
          <Trackpoint>
            <Time>2020-12-05T12:59:29.000Z</Time>
            <Position>
              <LatitudeDegrees>36.824914254248142242431640625</LatitudeDegrees>
              <LongitudeDegrees>-4.383056424558162689208984375</LongitudeDegrees>
            </Position>
            <AltitudeMeters>786.5999755859375</AltitudeMeters>
            <DistanceMeters>NAN</DistanceMeters>
          </Trackpoint>
          <Trackpoint>
            <Time>2020-12-05T12:59:30.000Z</Time>
            <Position>
              <LatitudeDegrees>36.824903525412082672119140625</LatitudeDegrees>
              <LongitudeDegrees>-4.383065141737461090087890625</LongitudeDegrees>
            </Position>
            <AltitudeMeters>786.5999755859375</AltitudeMeters>
            <DistanceMeters>NAN</DistanceMeters>
          </Trackpoint>
          <Trackpoint>
            <Time>2020-12-05T12:59:31.000Z</Time>
            <Position>
              <LatitudeDegrees>36.8248919583857059478759765625</LatitudeDegrees>
              <LongitudeDegrees>-4.38307243399322032928466796875</LongitudeDegrees>
            </Position>
            <AltitudeMeters>786.5999755859375</AltitudeMeters>
            <DistanceMeters>NAN</DistanceMeters>
          </Trackpoint>
          <Trackpoint>
            <Time>2020-12-05T12:59:32.000Z</Time>
            <Position>
              <LatitudeDegrees>36.82488181628286838531494140625</LatitudeDegrees>
              <LongitudeDegrees>-4.383077882230281829833984375</LongitudeDegrees>
            </Position>
            <AltitudeMeters>786.5999755859375</AltitudeMeters>
            <DistanceMeters>NAN</DistanceMeters>
          </Trackpoint>
          <Trackpoint>
            <Time>2020-12-05T12:59:33.000Z</Time>
            <Position>
              <LatitudeDegrees>36.82487209327518939971923828125</LatitudeDegrees>
              <LongitudeDegrees>-4.383081234991550445556640625</LongitudeDegrees>
            </Position>
            <AltitudeMeters>786.5999755859375</AltitudeMeters>
            <DistanceMeters>NAN</DistanceMeters>
          </Trackpoint>
          <Trackpoint>
            <Time>2020-12-05T12:59:34.000Z</Time>
            <Position>
              <LatitudeDegrees>36.8248641304671764373779296875</LatitudeDegrees>
              <LongitudeDegrees>-4.38308198936283588409423828125</LongitudeDegrees>
            </Position>
            <AltitudeMeters>786.5999755859375</AltitudeMeters>
            <DistanceMeters>NAN</DistanceMeters>
          </Trackpoint>
          <Trackpoint>
            <Time>2020-12-05T12:59:35.000Z</Time>
            <Position>
              <LatitudeDegrees>36.82485868223011493682861328125</LatitudeDegrees>
              <LongitudeDegrees>-4.3830800615251064300537109375</LongitudeDegrees>
            </Position>
            <AltitudeMeters>786.5999755859375</AltitudeMeters>
            <DistanceMeters>NAN</DistanceMeters>
          </Trackpoint>
          <Trackpoint>
            <Time>2020-12-05T12:59:36.000Z</Time>
            <Position>
              <LatitudeDegrees>36.8248557485640048980712890625</LatitudeDegrees>
              <LongitudeDegrees>-4.38308157026767730712890625</LongitudeDegrees>
            </Position>
            <AltitudeMeters>786.5999755859375</AltitudeMeters>
            <DistanceMeters>NAN</DistanceMeters>
          </Trackpoint>
          <Trackpoint>
            <Time>2020-12-05T12:59:37.000Z</Time>
            <Position>
              <LatitudeDegrees>36.824854575097560882568359375</LatitudeDegrees>
              <LongitudeDegrees>-4.383082576096057891845703125</LongitudeDegrees>
            </Position>
            <AltitudeMeters>786.5999755859375</AltitudeMeters>
            <DistanceMeters>NAN</DistanceMeters>
          </Trackpoint>
          <Trackpoint>
            <Time>2020-12-05T12:59:38.000Z</Time>
            <Position>
              <LatitudeDegrees>36.8248463608324527740478515625</LatitudeDegrees>
              <LongitudeDegrees>-4.383085928857326507568359375</LongitudeDegrees>
            </Position>
            <AltitudeMeters>786.5999755859375</AltitudeMeters>
            <DistanceMeters>NAN</DistanceMeters>
          </Trackpoint>
          <Trackpoint>
            <Time>2020-12-05T12:59:39.000Z</Time>
            <Position>
              <LatitudeDegrees>36.8248359672725200653076171875</LatitudeDegrees>
              <LongitudeDegrees>-4.3830891139805316925048828125</LongitudeDegrees>
            </Position>
            <AltitudeMeters>786.5999755859375</AltitudeMeters>
            <DistanceMeters>NAN</DistanceMeters>
          </Trackpoint>
          <Trackpoint>
            <Time>2020-12-05T12:59:40.000Z</Time>
            <Position>
              <LatitudeDegrees>36.82482331059873104095458984375</LatitudeDegrees>
              <LongitudeDegrees>-4.38309439457952976226806640625</LongitudeDegrees>
            </Position>
            <AltitudeMeters>786.5999755859375</AltitudeMeters>
            <DistanceMeters>NAN</DistanceMeters>
          </Trackpoint>
          <Trackpoint>
            <Time>2020-12-05T12:59:41.000Z</Time>
            <Position>
              <LatitudeDegrees>36.82480721734464168548583984375</LatitudeDegrees>
              <LongitudeDegrees>-4.38309875316917896270751953125</LongitudeDegrees>
            </Position>
            <AltitudeMeters>786.5999755859375</AltitudeMeters>
            <DistanceMeters>NAN</DistanceMeters>
          </Trackpoint>
          <Trackpoint>
            <Time>2020-12-05T12:59:42.000Z</Time>
            <Position>
              <LatitudeDegrees>36.82479162700474262237548828125</LatitudeDegrees>
              <LongitudeDegrees>-4.38310143537819385528564453125</LongitudeDegrees>
            </Position>
            <AltitudeMeters>786.5999755859375</AltitudeMeters>
            <DistanceMeters>NAN</DistanceMeters>
          </Trackpoint>
          <Trackpoint>
            <Time>2020-12-05T12:59:43.000Z</Time>
            <Position>
              <LatitudeDegrees>36.82477838359773159027099609375</LatitudeDegrees>
              <LongitudeDegrees>-4.3831058777868747711181640625</LongitudeDegrees>
            </Position>
            <AltitudeMeters>786.5999755859375</AltitudeMeters>
            <DistanceMeters>NAN</DistanceMeters>
          </Trackpoint>
          <Trackpoint>
            <Time>2020-12-05T12:59:44.000Z</Time>
            <Position>
              <LatitudeDegrees>36.824766062200069427490234375</LatitudeDegrees>
              <LongitudeDegrees>-4.38310998491942882537841796875</LongitudeDegrees>
            </Position>
            <AltitudeMeters>786.5999755859375</AltitudeMeters>
            <DistanceMeters>NAN</DistanceMeters>
          </Trackpoint>
          <Trackpoint>
            <Time>2020-12-05T12:59:45.000Z</Time>
            <Position>
              <LatitudeDegrees>36.8247551657259464263916015625</LatitudeDegrees>
              <LongitudeDegrees>-4.38311375677585601806640625</LongitudeDegrees>
            </Position>
            <AltitudeMeters>786.5999755859375</AltitudeMeters>
            <DistanceMeters>NAN</DistanceMeters>
          </Trackpoint>
          <Trackpoint>
            <Time>2020-12-05T12:59:46.000Z</Time>
            <Position>
              <LatitudeDegrees>36.8247435986995697021484375</LatitudeDegrees>
              <LongitudeDegrees>-4.38311987556517124176025390625</LongitudeDegrees>
            </Position>
            <AltitudeMeters>786.5999755859375</AltitudeMeters>
            <DistanceMeters>NAN</DistanceMeters>
          </Trackpoint>
          <Trackpoint>
            <Time>2020-12-05T12:59:47.000Z</Time>
            <Position>
              <LatitudeDegrees>36.82472876273095607757568359375</LatitudeDegrees>
              <LongitudeDegrees>-4.3831283412873744964599609375</LongitudeDegrees>
            </Position>
            <AltitudeMeters>786.5999755859375</AltitudeMeters>
            <DistanceMeters>NAN</DistanceMeters>
          </Trackpoint>
          <Trackpoint>
            <Time>2020-12-05T12:59:48.000Z</Time>
            <Position>
              <LatitudeDegrees>36.824717782437801361083984375</LatitudeDegrees>
              <LongitudeDegrees>-4.38313798047602176666259765625</LongitudeDegrees>
            </Position>
            <AltitudeMeters>786.5999755859375</AltitudeMeters>
            <DistanceMeters>NAN</DistanceMeters>
          </Trackpoint>
          <Trackpoint>
            <Time>2020-12-05T12:59:49.000Z</Time>
            <Position>
              <LatitudeDegrees>36.82470747269690036773681640625</LatitudeDegrees>
              <LongitudeDegrees>-4.383146949112415313720703125</LongitudeDegrees>
            </Position>
            <AltitudeMeters>786.5999755859375</AltitudeMeters>
            <DistanceMeters>NAN</DistanceMeters>
          </Trackpoint>
          <Trackpoint>
            <Time>2020-12-05T12:59:50.000Z</Time>
            <Position>
              <LatitudeDegrees>36.824698336422443389892578125</LatitudeDegrees>
              <LongitudeDegrees>-4.3831546604633331298828125</LongitudeDegrees>
            </Position>
            <AltitudeMeters>786.5999755859375</AltitudeMeters>
            <DistanceMeters>NAN</DistanceMeters>
          </Trackpoint>
          <Trackpoint>
            <Time>2020-12-05T12:59:51.000Z</Time>
            <Position>
              <LatitudeDegrees>36.82468852959573268890380859375</LatitudeDegrees>
              <LongitudeDegrees>-4.38316228799521923065185546875</LongitudeDegrees>
            </Position>
            <AltitudeMeters>786.5999755859375</AltitudeMeters>
            <DistanceMeters>NAN</DistanceMeters>
          </Trackpoint>
          <Trackpoint>
            <Time>2020-12-05T12:59:52.000Z</Time>
            <Position>
              <LatitudeDegrees>36.82467847131192684173583984375</LatitudeDegrees>
              <LongitudeDegrees>-4.3831715919077396392822265625</LongitudeDegrees>
            </Position>
            <AltitudeMeters>786.5999755859375</AltitudeMeters>
            <DistanceMeters>NAN</DistanceMeters>
          </Trackpoint>
          <Trackpoint>
            <Time>2020-12-05T12:59:53.000Z</Time>
            <Position>
              <LatitudeDegrees>36.82466640137135982513427734375</LatitudeDegrees>
              <LongitudeDegrees>-4.3831814825534820556640625</LongitudeDegrees>
            </Position>
            <AltitudeMeters>786.5999755859375</AltitudeMeters>
            <DistanceMeters>NAN</DistanceMeters>
          </Trackpoint>
          <Trackpoint>
            <Time>2020-12-05T12:59:54.000Z</Time>
            <Position>
              <LatitudeDegrees>36.82465164922177791595458984375</LatitudeDegrees>
              <LongitudeDegrees>-4.38319212757050991058349609375</LongitudeDegrees>
            </Position>
            <AltitudeMeters>786.5999755859375</AltitudeMeters>
            <DistanceMeters>NAN</DistanceMeters>
          </Trackpoint>
          <Trackpoint>
            <Time>2020-12-05T12:59:55.000Z</Time>
            <Position>
              <LatitudeDegrees>36.8246376514434814453125</LatitudeDegrees>
              <LongitudeDegrees>-4.383195899426937103271484375</LongitudeDegrees>
            </Position>
            <AltitudeMeters>786.5999755859375</AltitudeMeters>
            <DistanceMeters>NAN</DistanceMeters>
          </Trackpoint>
          <Trackpoint>
            <Time>2020-12-05T12:59:56.000Z</Time>
            <Position>
              <LatitudeDegrees>36.82462533004581928253173828125</LatitudeDegrees>
              <LongitudeDegrees>-4.38320235349237918853759765625</LongitudeDegrees>
            </Position>
            <AltitudeMeters>786.5999755859375</AltitudeMeters>
            <DistanceMeters>NAN</DistanceMeters>
          </Trackpoint>
          <Trackpoint>
            <Time>2020-12-05T12:59:57.000Z</Time>
            <Position>
              <LatitudeDegrees>36.824613511562347412109375</LatitudeDegrees>
              <LongitudeDegrees>-4.38320704735815525054931640625</LongitudeDegrees>
            </Position>
            <AltitudeMeters>786.5999755859375</AltitudeMeters>
            <DistanceMeters>NAN</DistanceMeters>
          </Trackpoint>
          <Trackpoint>
            <Time>2020-12-05T12:59:58.000Z</Time>
            <Position>
              <LatitudeDegrees>36.82459951378405094146728515625</LatitudeDegrees>
              <LongitudeDegrees>-4.38320696353912353515625</LongitudeDegrees>
            </Position>
            <AltitudeMeters>786.5999755859375</AltitudeMeters>
            <DistanceMeters>NAN</DistanceMeters>
          </Trackpoint>
          <Trackpoint>
            <Time>2020-12-05T12:59:59.000Z</Time>
            <Position>
              <LatitudeDegrees>36.82458601891994476318359375</LatitudeDegrees>
              <LongitudeDegrees>-4.38320721499621868133544921875</LongitudeDegrees>
            </Position>
            <AltitudeMeters>786.5999755859375</AltitudeMeters>
            <DistanceMeters>NAN</DistanceMeters>
          </Trackpoint>
          <Trackpoint>
            <Time>2020-12-05T13:00:00.000Z</Time>
            <Position>
              <LatitudeDegrees>36.82456992566585540771484375</LatitudeDegrees>
              <LongitudeDegrees>-4.3832131661474704742431640625</LongitudeDegrees>
            </Position>
            <AltitudeMeters>793</AltitudeMeters>
            <DistanceMeters>NAN</DistanceMeters>
          </Trackpoint>
          <Trackpoint>
            <Time>2020-12-05T13:00:01.000Z</Time>
            <Position>
              <LatitudeDegrees>36.8245613761246204376220703125</LatitudeDegrees>
              <LongitudeDegrees>-4.38322230242192745208740234375</LongitudeDegrees>
            </Position>
            <AltitudeMeters>793</AltitudeMeters>
            <DistanceMeters>NAN</DistanceMeters>
          </Trackpoint>
          <Trackpoint>
            <Time>2020-12-05T13:00:02.000Z</Time>
            <Position>
              <LatitudeDegrees>36.8245536647737026214599609375</LatitudeDegrees>
              <LongitudeDegrees>-4.38323386944830417633056640625</LongitudeDegrees>
            </Position>
            <AltitudeMeters>793</AltitudeMeters>
            <DistanceMeters>NAN</DistanceMeters>
          </Trackpoint>
          <Trackpoint>
            <Time>2020-12-05T13:00:03.000Z</Time>
            <Position>
              <LatitudeDegrees>36.82454519905149936676025390625</LatitudeDegrees>
              <LongitudeDegrees>-4.383247531950473785400390625</LongitudeDegrees>
            </Position>
            <AltitudeMeters>793</AltitudeMeters>
            <DistanceMeters>NAN</DistanceMeters>
          </Trackpoint>
          <Trackpoint>
            <Time>2020-12-05T13:00:04.000Z</Time>
            <Position>
              <LatitudeDegrees>36.82453639805316925048828125</LatitudeDegrees>
              <LongitudeDegrees>-4.383260942995548248291015625</LongitudeDegrees>
            </Position>
            <AltitudeMeters>793</AltitudeMeters>
            <DistanceMeters>NAN</DistanceMeters>
          </Trackpoint>
          <Trackpoint>
            <Time>2020-12-05T13:00:05.000Z</Time>
            <Position>
              <LatitudeDegrees>36.82452776469290256500244140625</LatitudeDegrees>
              <LongitudeDegrees>-4.3832715041935443878173828125</LongitudeDegrees>
            </Position>
            <AltitudeMeters>793</AltitudeMeters>
            <DistanceMeters>NAN</DistanceMeters>
          </Trackpoint>
          <Trackpoint>
            <Time>2020-12-05T13:00:06.000Z</Time>
            <Position>
              <LatitudeDegrees>36.82451762259006500244140625</LatitudeDegrees>
              <LongitudeDegrees>-4.383280389010906219482421875</LongitudeDegrees>
            </Position>
            <AltitudeMeters>793</AltitudeMeters>
            <DistanceMeters>NAN</DistanceMeters>
          </Trackpoint>
          <Trackpoint>
            <Time>2020-12-05T13:00:07.000Z</Time>
            <Position>
              <LatitudeDegrees>36.8245084024965763092041015625</LatitudeDegrees>
              <LongitudeDegrees>-4.38328541815280914306640625</LongitudeDegrees>
            </Position>
            <AltitudeMeters>793</AltitudeMeters>
            <DistanceMeters>NAN</DistanceMeters>
          </Trackpoint>
          <Trackpoint>
            <Time>2020-12-05T13:00:08.000Z</Time>
            <Position>
              <LatitudeDegrees>36.824499852955341339111328125</LatitudeDegrees>
              <LongitudeDegrees>-4.38329438678920269012451171875</LongitudeDegrees>
            </Position>
            <AltitudeMeters>793</AltitudeMeters>
            <DistanceMeters>NAN</DistanceMeters>
          </Trackpoint>
          <Trackpoint>
            <Time>2020-12-05T13:00:09.000Z</Time>
            <Position>
              <LatitudeDegrees>36.82449256069958209991455078125</LatitudeDegrees>
              <LongitudeDegrees>-4.3833021819591522216796875</LongitudeDegrees>
            </Position>
            <AltitudeMeters>793</AltitudeMeters>
            <DistanceMeters>NAN</DistanceMeters>
          </Trackpoint>
          <Trackpoint>
            <Time>2020-12-05T13:00:10.000Z</Time>
            <Position>
              <LatitudeDegrees>36.82448669336736202239990234375</LatitudeDegrees>
              <LongitudeDegrees>-4.3833129107952117919921875</LongitudeDegrees>
            </Position>
            <AltitudeMeters>793</AltitudeMeters>
            <DistanceMeters>NAN</DistanceMeters>
          </Trackpoint>
          <Trackpoint>
            <Time>2020-12-05T13:00:11.000Z</Time>
            <Position>
              <LatitudeDegrees>36.82448250241577625274658203125</LatitudeDegrees>
              <LongitudeDegrees>-4.3833236396312713623046875</LongitudeDegrees>
            </Position>
            <AltitudeMeters>793</AltitudeMeters>
            <DistanceMeters>NAN</DistanceMeters>
          </Trackpoint>
          <Trackpoint>
            <Time>2020-12-05T13:00:12.000Z</Time>
            <Position>
              <LatitudeDegrees>36.824480406939983367919921875</LatitudeDegrees>
              <LongitudeDegrees>-4.3833342008292675018310546875</LongitudeDegrees>
            </Position>
            <AltitudeMeters>793</AltitudeMeters>
            <DistanceMeters>NAN</DistanceMeters>
          </Trackpoint>
          <Trackpoint>
            <Time>2020-12-05T13:00:13.000Z</Time>
            <Position>
              <LatitudeDegrees>36.8244772218167781829833984375</LatitudeDegrees>
              <LongitudeDegrees>-4.3833435885608196258544921875</LongitudeDegrees>
            </Position>
            <AltitudeMeters>793</AltitudeMeters>
            <DistanceMeters>NAN</DistanceMeters>
          </Trackpoint>
          <Trackpoint>
            <Time>2020-12-05T13:00:14.000Z</Time>
            <Position>
              <LatitudeDegrees>36.8244762159883975982666015625</LatitudeDegrees>
              <LongitudeDegrees>-4.3833506293594837188720703125</LongitudeDegrees>
            </Position>
            <AltitudeMeters>793</AltitudeMeters>
            <DistanceMeters>NAN</DistanceMeters>
          </Trackpoint>
          <Trackpoint>
            <Time>2020-12-05T13:00:15.000Z</Time>
            <Position>
              <LatitudeDegrees>36.82447479106485843658447265625</LatitudeDegrees>
              <LongitudeDegrees>-4.38335590995848178863525390625</LongitudeDegrees>
            </Position>
            <AltitudeMeters>793</AltitudeMeters>
            <DistanceMeters>NAN</DistanceMeters>
          </Trackpoint>
          <Trackpoint>
            <Time>2020-12-05T13:00:16.000Z</Time>
            <Position>
              <LatitudeDegrees>36.8244731985032558441162109375</LatitudeDegrees>
              <LongitudeDegrees>-4.3833563290536403656005859375</LongitudeDegrees>
            </Position>
            <AltitudeMeters>793</AltitudeMeters>
            <DistanceMeters>NAN</DistanceMeters>
          </Trackpoint>
          <Trackpoint>
            <Time>2020-12-05T13:00:17.000Z</Time>
            <Position>
              <LatitudeDegrees>36.82447210885584354400634765625</LatitudeDegrees>
              <LongitudeDegrees>-4.38335272483527660369873046875</LongitudeDegrees>
            </Position>
            <AltitudeMeters>793</AltitudeMeters>
            <DistanceMeters>NAN</DistanceMeters>
          </Trackpoint>
          <Trackpoint>
            <Time>2020-12-05T13:00:18.000Z</Time>
            <Position>
              <LatitudeDegrees>36.82446758262813091278076171875</LatitudeDegrees>
              <LongitudeDegrees>-4.38334836624562740325927734375</LongitudeDegrees>
            </Position>
            <AltitudeMeters>793</AltitudeMeters>
            <DistanceMeters>NAN</DistanceMeters>
          </Trackpoint>
          <Trackpoint>
            <Time>2020-12-05T13:00:19.000Z</Time>
            <Position>
              <LatitudeDegrees>36.8244587816298007965087890625</LatitudeDegrees>
              <LongitudeDegrees>-4.3833409063518047332763671875</LongitudeDegrees>
            </Position>
            <AltitudeMeters>793</AltitudeMeters>
            <DistanceMeters>NAN</DistanceMeters>
          </Trackpoint>
          <Trackpoint>
            <Time>2020-12-05T13:00:20.000Z</Time>
            <Position>
              <LatitudeDegrees>36.82444914244115352630615234375</LatitudeDegrees>
              <LongitudeDegrees>-4.38332908786833286285400390625</LongitudeDegrees>
            </Position>
            <AltitudeMeters>793</AltitudeMeters>
            <DistanceMeters>NAN</DistanceMeters>
          </Trackpoint>
          <Trackpoint>
            <Time>2020-12-05T13:00:21.000Z</Time>
            <Position>
              <LatitudeDegrees>36.824441514909267425537109375</LatitudeDegrees>
              <LongitudeDegrees>-4.38331852667033672332763671875</LongitudeDegrees>
            </Position>
            <AltitudeMeters>793</AltitudeMeters>
            <DistanceMeters>NAN</DistanceMeters>
          </Trackpoint>
          <Trackpoint>
            <Time>2020-12-05T13:00:22.000Z</Time>
            <Position>
              <LatitudeDegrees>36.82442986406385898590087890625</LatitudeDegrees>
              <LongitudeDegrees>-4.38331316225230693817138671875</LongitudeDegrees>
            </Position>
            <AltitudeMeters>793</AltitudeMeters>
            <DistanceMeters>NAN</DistanceMeters>
          </Trackpoint>
          <Trackpoint>
            <Time>2020-12-05T13:00:23.000Z</Time>
            <Position>
              <LatitudeDegrees>36.82441812939941883087158203125</LatitudeDegrees>
              <LongitudeDegrees>-4.3833100609481334686279296875</LongitudeDegrees>
            </Position>
            <AltitudeMeters>793</AltitudeMeters>
            <DistanceMeters>NAN</DistanceMeters>
          </Trackpoint>
          <Trackpoint>
            <Time>2020-12-05T13:00:24.000Z</Time>
            <Position>
              <LatitudeDegrees>36.8244051374495029449462890625</LatitudeDegrees>
              <LongitudeDegrees>-4.3833110667765140533447265625</LongitudeDegrees>
            </Position>
            <AltitudeMeters>793</AltitudeMeters>
            <DistanceMeters>NAN</DistanceMeters>
          </Trackpoint>
          <Trackpoint>
            <Time>2020-12-05T13:00:25.000Z</Time>
            <Position>
              <LatitudeDegrees>36.82438979856669902801513671875</LatitudeDegrees>
              <LongitudeDegrees>-4.38331752084195613861083984375</LongitudeDegrees>
            </Position>
            <AltitudeMeters>793</AltitudeMeters>
            <DistanceMeters>NAN</DistanceMeters>
          </Trackpoint>
          <Trackpoint>
            <Time>2020-12-05T13:00:26.000Z</Time>
            <Position>
              <LatitudeDegrees>36.82437387295067310333251953125</LatitudeDegrees>
              <LongitudeDegrees>-4.38332539983093738555908203125</LongitudeDegrees>
            </Position>
            <AltitudeMeters>793</AltitudeMeters>
            <DistanceMeters>NAN</DistanceMeters>
          </Trackpoint>
          <Trackpoint>
            <Time>2020-12-05T13:00:27.000Z</Time>
            <Position>
              <LatitudeDegrees>36.824361719191074371337890625</LatitudeDegrees>
              <LongitudeDegrees>-4.38333763740956783294677734375</LongitudeDegrees>
            </Position>
            <AltitudeMeters>793</AltitudeMeters>
            <DistanceMeters>NAN</DistanceMeters>
          </Trackpoint>
          <Trackpoint>
            <Time>2020-12-05T13:00:28.000Z</Time>
            <Position>
              <LatitudeDegrees>36.82435132563114166259765625</LatitudeDegrees>
              <LongitudeDegrees>-4.3833539821207523345947265625</LongitudeDegrees>
            </Position>
            <AltitudeMeters>793</AltitudeMeters>
            <DistanceMeters>NAN</DistanceMeters>
          </Trackpoint>
          <Trackpoint>
            <Time>2020-12-05T13:00:29.000Z</Time>
            <Position>
              <LatitudeDegrees>36.8243427760899066925048828125</LatitudeDegrees>
              <LongitudeDegrees>-4.38336965627968311309814453125</LongitudeDegrees>
            </Position>
            <AltitudeMeters>793</AltitudeMeters>
            <DistanceMeters>NAN</DistanceMeters>
          </Trackpoint>
          <Trackpoint>
            <Time>2020-12-05T13:00:30.000Z</Time>
            <Position>
              <LatitudeDegrees>36.82433481328189373016357421875</LatitudeDegrees>
              <LongitudeDegrees>-4.38338507898151874542236328125</LongitudeDegrees>
            </Position>
            <AltitudeMeters>793</AltitudeMeters>
            <DistanceMeters>NAN</DistanceMeters>
          </Trackpoint>
          <Trackpoint>
            <Time>2020-12-05T13:00:31.000Z</Time>
            <Position>
              <LatitudeDegrees>36.824328862130641937255859375</LatitudeDegrees>
              <LongitudeDegrees>-4.38339832238852977752685546875</LongitudeDegrees>
            </Position>
            <AltitudeMeters>793</AltitudeMeters>
            <DistanceMeters>NAN</DistanceMeters>
          </Trackpoint>
          <Trackpoint>
            <Time>2020-12-05T13:00:32.000Z</Time>
            <Position>
              <LatitudeDegrees>36.824325509369373321533203125</LatitudeDegrees>
              <LongitudeDegrees>-4.383405782282352447509765625</LongitudeDegrees>
            </Position>
            <AltitudeMeters>793</AltitudeMeters>
            <DistanceMeters>NAN</DistanceMeters>
          </Trackpoint>
          <Trackpoint>
            <Time>2020-12-05T13:00:33.000Z</Time>
            <Position>
              <LatitudeDegrees>36.82432190515100955963134765625</LatitudeDegrees>
              <LongitudeDegrees>-4.38341542147099971771240234375</LongitudeDegrees>
            </Position>
            <AltitudeMeters>793</AltitudeMeters>
            <DistanceMeters>NAN</DistanceMeters>
          </Trackpoint>
          <Trackpoint>
            <Time>2020-12-05T13:00:34.000Z</Time>
            <Position>
              <LatitudeDegrees>36.82431486435234546661376953125</LatitudeDegrees>
              <LongitudeDegrees>-4.38342296518385410308837890625</LongitudeDegrees>
            </Position>
            <AltitudeMeters>793</AltitudeMeters>
            <DistanceMeters>NAN</DistanceMeters>
          </Trackpoint>
          <Trackpoint>
            <Time>2020-12-05T13:00:35.000Z</Time>
            <Position>
              <LatitudeDegrees>36.82430597953498363494873046875</LatitudeDegrees>
              <LongitudeDegrees>-4.383428581058979034423828125</LongitudeDegrees>
            </Position>
            <AltitudeMeters>793</AltitudeMeters>
            <DistanceMeters>NAN</DistanceMeters>
          </Trackpoint>
          <Trackpoint>
            <Time>2020-12-05T13:00:36.000Z</Time>
            <Position>
              <LatitudeDegrees>36.82429642416536808013916015625</LatitudeDegrees>
              <LongitudeDegrees>-4.38342866487801074981689453125</LongitudeDegrees>
            </Position>
            <AltitudeMeters>793</AltitudeMeters>
            <DistanceMeters>NAN</DistanceMeters>
          </Trackpoint>
          <Trackpoint>
            <Time>2020-12-05T13:00:37.000Z</Time>
            <Position>
              <LatitudeDegrees>36.82428720407187938690185546875</LatitudeDegrees>
              <LongitudeDegrees>-4.38342648558318614959716796875</LongitudeDegrees>
            </Position>
            <AltitudeMeters>793</AltitudeMeters>
            <DistanceMeters>NAN</DistanceMeters>
          </Trackpoint>
          <Trackpoint>
            <Time>2020-12-05T13:00:38.000Z</Time>
            <Position>
              <LatitudeDegrees>36.82428024709224700927734375</LatitudeDegrees>
              <LongitudeDegrees>-4.3834196962416172027587890625</LongitudeDegrees>
            </Position>
            <AltitudeMeters>793</AltitudeMeters>
            <DistanceMeters>NAN</DistanceMeters>
          </Trackpoint>
          <Trackpoint>
            <Time>2020-12-05T13:00:39.000Z</Time>
            <Position>
              <LatitudeDegrees>36.8242763914167881011962890625</LatitudeDegrees>
              <LongitudeDegrees>-4.38341709785163402557373046875</LongitudeDegrees>
            </Position>
            <AltitudeMeters>793</AltitudeMeters>
            <DistanceMeters>NAN</DistanceMeters>
          </Trackpoint>
          <Trackpoint>
            <Time>2020-12-05T13:00:40.000Z</Time>
            <Position>
              <LatitudeDegrees>36.82427463121712207794189453125</LatitudeDegrees>
              <LongitudeDegrees>-4.3834129907190799713134765625</LongitudeDegrees>
            </Position>
            <AltitudeMeters>793</AltitudeMeters>
            <DistanceMeters>NAN</DistanceMeters>
          </Trackpoint>
          <Trackpoint>
            <Time>2020-12-05T13:00:41.000Z</Time>
            <Position>
              <LatitudeDegrees>36.824278570711612701416015625</LatitudeDegrees>
              <LongitudeDegrees>-4.383411817252635955810546875</LongitudeDegrees>
            </Position>
            <AltitudeMeters>793</AltitudeMeters>
            <DistanceMeters>NAN</DistanceMeters>
          </Trackpoint>
          <Trackpoint>
            <Time>2020-12-05T13:00:42.000Z</Time>
            <Position>
              <LatitudeDegrees>36.8242837674915790557861328125</LatitudeDegrees>
              <LongitudeDegrees>-4.38341089524328708648681640625</LongitudeDegrees>
            </Position>
            <AltitudeMeters>793</AltitudeMeters>
            <DistanceMeters>NAN</DistanceMeters>
          </Trackpoint>
          <Trackpoint>
            <Time>2020-12-05T13:00:43.000Z</Time>
            <Position>
              <LatitudeDegrees>36.8242857791483402252197265625</LatitudeDegrees>
              <LongitudeDegrees>-4.383413828909397125244140625</LongitudeDegrees>
            </Position>
            <AltitudeMeters>793</AltitudeMeters>
            <DistanceMeters>NAN</DistanceMeters>
          </Trackpoint>
          <Trackpoint>
            <Time>2020-12-05T13:00:44.000Z</Time>
            <Position>
              <LatitudeDegrees>36.82428787462413311004638671875</LatitudeDegrees>
              <LongitudeDegrees>-4.38341776840388774871826171875</LongitudeDegrees>
            </Position>
            <AltitudeMeters>793</AltitudeMeters>
            <DistanceMeters>NAN</DistanceMeters>
          </Trackpoint>
          <Trackpoint>
            <Time>2020-12-05T13:00:45.000Z</Time>
            <Position>
              <LatitudeDegrees>36.82429105974733829498291015625</LatitudeDegrees>
              <LongitudeDegrees>-4.38342355191707611083984375</LongitudeDegrees>
            </Position>
            <AltitudeMeters>793</AltitudeMeters>
            <DistanceMeters>NAN</DistanceMeters>
          </Trackpoint>
          <Trackpoint>
            <Time>2020-12-05T13:00:46.000Z</Time>
            <Position>
              <LatitudeDegrees>36.8242965079843997955322265625</LatitudeDegrees>
              <LongitudeDegrees>-4.3834294192492961883544921875</LongitudeDegrees>
            </Position>
            <AltitudeMeters>793</AltitudeMeters>
            <DistanceMeters>NAN</DistanceMeters>
          </Trackpoint>
          <Trackpoint>
            <Time>2020-12-05T13:00:47.000Z</Time>
            <Position>
              <LatitudeDegrees>36.82429910637438297271728515625</LatitudeDegrees>
              <LongitudeDegrees>-4.38343050889670848846435546875</LongitudeDegrees>
            </Position>
            <AltitudeMeters>793</AltitudeMeters>
            <DistanceMeters>NAN</DistanceMeters>
          </Trackpoint>
          <Trackpoint>
            <Time>2020-12-05T13:00:48.000Z</Time>
            <Position>
              <LatitudeDegrees>36.824301369488239288330078125</LatitudeDegrees>
              <LongitudeDegrees>-4.3834317661821842193603515625</LongitudeDegrees>
            </Position>
            <AltitudeMeters>793</AltitudeMeters>
            <DistanceMeters>NAN</DistanceMeters>
          </Trackpoint>
          <Trackpoint>
            <Time>2020-12-05T13:00:49.000Z</Time>
            <Position>
              <LatitudeDegrees>36.82430128566920757293701171875</LatitudeDegrees>
              <LongitudeDegrees>-4.3834344483911991119384765625</LongitudeDegrees>
            </Position>
            <AltitudeMeters>793</AltitudeMeters>
            <DistanceMeters>NAN</DistanceMeters>
          </Trackpoint>
          <Trackpoint>
            <Time>2020-12-05T13:00:50.000Z</Time>
            <Position>
              <LatitudeDegrees>36.82430145330727100372314453125</LatitudeDegrees>
              <LongitudeDegrees>-4.38343788497149944305419921875</LongitudeDegrees>
            </Position>
            <AltitudeMeters>793</AltitudeMeters>
            <DistanceMeters>NAN</DistanceMeters>
          </Trackpoint>
          <Trackpoint>
            <Time>2020-12-05T13:00:51.000Z</Time>
            <Position>
              <LatitudeDegrees>36.82430346496403217315673828125</LatitudeDegrees>
              <LongitudeDegrees>-4.38343637622892856597900390625</LongitudeDegrees>
            </Position>
            <AltitudeMeters>793</AltitudeMeters>
            <DistanceMeters>NAN</DistanceMeters>
          </Trackpoint>
          <Trackpoint>
            <Time>2020-12-05T13:00:52.000Z</Time>
            <Position>
              <LatitudeDegrees>36.8243065662682056427001953125</LatitudeDegrees>
              <LongitudeDegrees>-4.383434951305389404296875</LongitudeDegrees>
            </Position>
            <AltitudeMeters>793</AltitudeMeters>
            <DistanceMeters>NAN</DistanceMeters>
          </Trackpoint>
          <Trackpoint>
            <Time>2020-12-05T13:00:53.000Z</Time>
            <Position>
              <LatitudeDegrees>36.8243072368204593658447265625</LatitudeDegrees>
              <LongitudeDegrees>-4.38343570567667484283447265625</LongitudeDegrees>
            </Position>
            <AltitudeMeters>793</AltitudeMeters>
            <DistanceMeters>NAN</DistanceMeters>
          </Trackpoint>
          <Trackpoint>
            <Time>2020-12-05T13:00:54.000Z</Time>
            <Position>
              <LatitudeDegrees>36.82430782355368137359619140625</LatitudeDegrees>
              <LongitudeDegrees>-4.3834362924098968505859375</LongitudeDegrees>
            </Position>
            <AltitudeMeters>793</AltitudeMeters>
            <DistanceMeters>NAN</DistanceMeters>
          </Trackpoint>
          <Trackpoint>
            <Time>2020-12-05T13:00:55.000Z</Time>
            <Position>
              <LatitudeDegrees>36.824306733906269073486328125</LatitudeDegrees>
              <LongitudeDegrees>-4.38343159854412078857421875</LongitudeDegrees>
            </Position>
            <AltitudeMeters>793</AltitudeMeters>
            <DistanceMeters>NAN</DistanceMeters>
          </Trackpoint>
          <Trackpoint>
            <Time>2020-12-05T13:00:56.000Z</Time>
            <Position>
              <LatitudeDegrees>36.824307404458522796630859375</LatitudeDegrees>
              <LongitudeDegrees>-4.38343151472508907318115234375</LongitudeDegrees>
            </Position>
            <AltitudeMeters>793</AltitudeMeters>
            <DistanceMeters>NAN</DistanceMeters>
          </Trackpoint>
          <Trackpoint>
            <Time>2020-12-05T13:00:57.000Z</Time>
            <Position>
              <LatitudeDegrees>36.82430648244917392730712890625</LatitudeDegrees>
              <LongitudeDegrees>-4.38343218527734279632568359375</LongitudeDegrees>
            </Position>
            <AltitudeMeters>793</AltitudeMeters>
            <DistanceMeters>NAN</DistanceMeters>
          </Trackpoint>
          <Trackpoint>
            <Time>2020-12-05T13:00:58.000Z</Time>
            <Position>
              <LatitudeDegrees>36.824304722249507904052734375</LatitudeDegrees>
              <LongitudeDegrees>-4.38343687914311885833740234375</LongitudeDegrees>
            </Position>
            <AltitudeMeters>793</AltitudeMeters>
            <DistanceMeters>NAN</DistanceMeters>
          </Trackpoint>
          <Trackpoint>
            <Time>2020-12-05T13:00:59.000Z</Time>
            <Position>
              <LatitudeDegrees>36.8243008665740489959716796875</LatitudeDegrees>
              <LongitudeDegrees>-4.38344190828502178192138671875</LongitudeDegrees>
            </Position>
            <AltitudeMeters>793</AltitudeMeters>
            <DistanceMeters>NAN</DistanceMeters>
          </Trackpoint>
          <Trackpoint>
            <Time>2020-12-05T13:01:00.000Z</Time>
            <Position>
              <LatitudeDegrees>36.82429910637438297271728515625</LatitudeDegrees>
              <LongitudeDegrees>-4.38344576396048069000244140625</LongitudeDegrees>
            </Position>
            <AltitudeMeters>791.4000244140625</AltitudeMeters>
            <DistanceMeters>NAN</DistanceMeters>
          </Trackpoint>
          <Trackpoint>
            <Time>2020-12-05T13:01:01.000Z</Time>
            <Position>
              <LatitudeDegrees>36.82429558597505092620849609375</LatitudeDegrees>
              <LongitudeDegrees>-4.3834485299885272979736328125</LongitudeDegrees>
            </Position>
            <AltitudeMeters>791.4000244140625</AltitudeMeters>
            <DistanceMeters>NAN</DistanceMeters>
          </Trackpoint>
          <Trackpoint>
            <Time>2020-12-05T13:01:02.000Z</Time>
            <Position>
              <LatitudeDegrees>36.82429173029959201812744140625</LatitudeDegrees>
              <LongitudeDegrees>-4.38345062546432018280029296875</LongitudeDegrees>
            </Position>
            <AltitudeMeters>791.4000244140625</AltitudeMeters>
            <DistanceMeters>NAN</DistanceMeters>
          </Trackpoint>
          <Trackpoint>
            <Time>2020-12-05T13:01:03.000Z</Time>
            <Position>
              <LatitudeDegrees>36.8242871202528476715087890625</LatitudeDegrees>
              <LongitudeDegrees>-4.38344911672174930572509765625</LongitudeDegrees>
            </Position>
            <AltitudeMeters>791.4000244140625</AltitudeMeters>
            <DistanceMeters>NAN</DistanceMeters>
          </Trackpoint>
          <Trackpoint>
            <Time>2020-12-05T13:01:04.000Z</Time>
            <Position>
              <LatitudeDegrees>36.82428401894867420196533203125</LatitudeDegrees>
              <LongitudeDegrees>-4.38344903290271759033203125</LongitudeDegrees>
            </Position>
            <AltitudeMeters>791.4000244140625</AltitudeMeters>
            <DistanceMeters>NAN</DistanceMeters>
          </Trackpoint>
          <Trackpoint>
            <Time>2020-12-05T13:01:05.000Z</Time>
            <Position>
              <LatitudeDegrees>36.82428251020610332489013671875</LatitudeDegrees>
              <LongitudeDegrees>-4.3834522180259227752685546875</LongitudeDegrees>
            </Position>
            <AltitudeMeters>791.4000244140625</AltitudeMeters>
            <DistanceMeters>NAN</DistanceMeters>
          </Trackpoint>
          <Trackpoint>
            <Time>2020-12-05T13:01:06.000Z</Time>
            <Position>
              <LatitudeDegrees>36.82428334839642047882080078125</LatitudeDegrees>
              <LongitudeDegrees>-4.38345414586365222930908203125</LongitudeDegrees>
            </Position>
            <AltitudeMeters>791.4000244140625</AltitudeMeters>
            <DistanceMeters>NAN</DistanceMeters>
          </Trackpoint>
          <Trackpoint>
            <Time>2020-12-05T13:01:07.000Z</Time>
            <Position>
              <LatitudeDegrees>36.82428334839642047882080078125</LatitudeDegrees>
              <LongitudeDegrees>-4.3834559060633182525634765625</LongitudeDegrees>
            </Position>
            <AltitudeMeters>791.4000244140625</AltitudeMeters>
            <DistanceMeters>NAN</DistanceMeters>
          </Trackpoint>
          <Trackpoint>
            <Time>2020-12-05T13:01:08.000Z</Time>
            <Position>
              <LatitudeDegrees>36.82428737170994281768798828125</LatitudeDegrees>
              <LongitudeDegrees>-4.3834579177200794219970703125</LongitudeDegrees>
            </Position>
            <AltitudeMeters>791.4000244140625</AltitudeMeters>
            <DistanceMeters>NAN</DistanceMeters>
          </Trackpoint>
          <Trackpoint>
            <Time>2020-12-05T13:01:09.000Z</Time>
            <Position>
              <LatitudeDegrees>36.82429424487054347991943359375</LatitudeDegrees>
              <LongitudeDegrees>-4.38346034847199916839599609375</LongitudeDegrees>
            </Position>
            <AltitudeMeters>791.4000244140625</AltitudeMeters>
            <DistanceMeters>NAN</DistanceMeters>
          </Trackpoint>
          <Trackpoint>
            <Time>2020-12-05T13:01:10.000Z</Time>
            <Position>
              <LatitudeDegrees>36.82430430315434932708740234375</LatitudeDegrees>
              <LongitudeDegrees>-4.38346336595714092254638671875</LongitudeDegrees>
            </Position>
            <AltitudeMeters>791.4000244140625</AltitudeMeters>
            <DistanceMeters>NAN</DistanceMeters>
          </Trackpoint>
          <Trackpoint>
            <Time>2020-12-05T13:01:11.000Z</Time>
            <Position>
              <LatitudeDegrees>36.824311427772045135498046875</LatitudeDegrees>
              <LongitudeDegrees>-4.3834703229367733001708984375</LongitudeDegrees>
            </Position>
            <AltitudeMeters>791.4000244140625</AltitudeMeters>
            <DistanceMeters>NAN</DistanceMeters>
          </Trackpoint>
          <Trackpoint>
            <Time>2020-12-05T13:01:12.000Z</Time>
            <Position>
              <LatitudeDegrees>36.82431821711361408233642578125</LatitudeDegrees>
              <LongitudeDegrees>-4.383476860821247100830078125</LongitudeDegrees>
            </Position>
            <AltitudeMeters>791.4000244140625</AltitudeMeters>
            <DistanceMeters>NAN</DistanceMeters>
          </Trackpoint>
          <Trackpoint>
            <Time>2020-12-05T13:01:13.000Z</Time>
            <Position>
              <LatitudeDegrees>36.82432525791227817535400390625</LatitudeDegrees>
              <LongitudeDegrees>-4.3834823928773403167724609375</LongitudeDegrees>
            </Position>
            <AltitudeMeters>791.4000244140625</AltitudeMeters>
            <DistanceMeters>NAN</DistanceMeters>
          </Trackpoint>
          <Trackpoint>
            <Time>2020-12-05T13:01:14.000Z</Time>
            <Position>
              <LatitudeDegrees>36.8243323825299739837646484375</LatitudeDegrees>
              <LongitudeDegrees>-4.3834887631237506866455078125</LongitudeDegrees>
            </Position>
            <AltitudeMeters>791.4000244140625</AltitudeMeters>
            <DistanceMeters>NAN</DistanceMeters>
          </Trackpoint>
          <Trackpoint>
            <Time>2020-12-05T13:01:15.000Z</Time>
            <Position>
              <LatitudeDegrees>36.8243400938808917999267578125</LatitudeDegrees>
              <LongitudeDegrees>-4.38349463045597076416015625</LongitudeDegrees>
            </Position>
            <AltitudeMeters>791.4000244140625</AltitudeMeters>
            <DistanceMeters>NAN</DistanceMeters>
          </Trackpoint>
          <Trackpoint>
            <Time>2020-12-05T13:01:16.000Z</Time>
            <Position>
              <LatitudeDegrees>36.824346967041492462158203125</LatitudeDegrees>
              <LongitudeDegrees>-4.383498318493366241455078125</LongitudeDegrees>
            </Position>
            <AltitudeMeters>791.4000244140625</AltitudeMeters>
            <DistanceMeters>NAN</DistanceMeters>
          </Trackpoint>
          <Trackpoint>
            <Time>2020-12-05T13:01:17.000Z</Time>
            <Position>
              <LatitudeDegrees>36.82435375638306140899658203125</LatitudeDegrees>
              <LongitudeDegrees>-4.3835015036165714263916015625</LongitudeDegrees>
            </Position>
            <AltitudeMeters>791.4000244140625</AltitudeMeters>
            <DistanceMeters>NAN</DistanceMeters>
          </Trackpoint>
          <Trackpoint>
            <Time>2020-12-05T13:01:18.000Z</Time>
            <Position>
              <LatitudeDegrees>36.82435878552496433258056640625</LatitudeDegrees>
              <LongitudeDegrees>-4.38350695185363292694091796875</LongitudeDegrees>
            </Position>
            <AltitudeMeters>791.4000244140625</AltitudeMeters>
            <DistanceMeters>NAN</DistanceMeters>
          </Trackpoint>
          <Trackpoint>
            <Time>2020-12-05T13:01:19.000Z</Time>
            <Position>
              <LatitudeDegrees>36.82435912080109119415283203125</LatitudeDegrees>
              <LongitudeDegrees>-4.38350938260555267333984375</LongitudeDegrees>
            </Position>
            <AltitudeMeters>791.4000244140625</AltitudeMeters>
            <DistanceMeters>NAN</DistanceMeters>
          </Trackpoint>
          <Trackpoint>
            <Time>2020-12-05T13:01:20.000Z</Time>
            <Position>
              <LatitudeDegrees>36.82435543276369571685791015625</LatitudeDegrees>
              <LongitudeDegrees>-4.383502341806888580322265625</LongitudeDegrees>
            </Position>
            <AltitudeMeters>791.4000244140625</AltitudeMeters>
            <DistanceMeters>NAN</DistanceMeters>
          </Trackpoint>
          <Trackpoint>
            <Time>2020-12-05T13:01:21.000Z</Time>
            <Position>
              <LatitudeDegrees>36.824344284832477569580078125</LatitudeDegrees>
              <LongitudeDegrees>-4.38349035568535327911376953125</LongitudeDegrees>
            </Position>
            <AltitudeMeters>791.4000244140625</AltitudeMeters>
            <DistanceMeters>NAN</DistanceMeters>
          </Trackpoint>
          <Trackpoint>
            <Time>2020-12-05T13:01:22.000Z</Time>
            <Position>
              <LatitudeDegrees>36.8243297003209590911865234375</LatitudeDegrees>
              <LongitudeDegrees>-4.38348197378218173980712890625</LongitudeDegrees>
            </Position>
            <AltitudeMeters>791.4000244140625</AltitudeMeters>
            <DistanceMeters>NAN</DistanceMeters>
          </Trackpoint>
          <Trackpoint>
            <Time>2020-12-05T13:01:23.000Z</Time>
            <Position>
              <LatitudeDegrees>36.82431436143815517425537109375</LatitudeDegrees>
              <LongitudeDegrees>-4.38347183167934417724609375</LongitudeDegrees>
            </Position>
            <AltitudeMeters>791.4000244140625</AltitudeMeters>
            <DistanceMeters>NAN</DistanceMeters>
          </Trackpoint>
          <Trackpoint>
            <Time>2020-12-05T13:01:24.000Z</Time>
            <Position>
              <LatitudeDegrees>36.82429994456470012664794921875</LatitudeDegrees>
              <LongitudeDegrees>-4.38346034847199916839599609375</LongitudeDegrees>
            </Position>
            <AltitudeMeters>791.4000244140625</AltitudeMeters>
            <DistanceMeters>NAN</DistanceMeters>
          </Trackpoint>
          <Trackpoint>
            <Time>2020-12-05T13:01:25.000Z</Time>
            <Position>
              <LatitudeDegrees>36.8242847733199596405029296875</LatitudeDegrees>
              <LongitudeDegrees>-4.38345565460622310638427734375</LongitudeDegrees>
            </Position>
            <AltitudeMeters>791.4000244140625</AltitudeMeters>
            <DistanceMeters>NAN</DistanceMeters>
          </Trackpoint>
          <Trackpoint>
            <Time>2020-12-05T13:01:26.000Z</Time>
            <Position>
              <LatitudeDegrees>36.8242767266929149627685546875</LatitudeDegrees>
              <LongitudeDegrees>-4.38345029018819332122802734375</LongitudeDegrees>
            </Position>
            <AltitudeMeters>791.4000244140625</AltitudeMeters>
            <DistanceMeters>NAN</DistanceMeters>
          </Trackpoint>
          <Trackpoint>
            <Time>2020-12-05T13:01:27.000Z</Time>
            <Position>
              <LatitudeDegrees>36.82427396066486835479736328125</LatitudeDegrees>
              <LongitudeDegrees>-4.38344995491206645965576171875</LongitudeDegrees>
            </Position>
            <AltitudeMeters>791.4000244140625</AltitudeMeters>
            <DistanceMeters>NAN</DistanceMeters>
          </Trackpoint>
          <Trackpoint>
            <Time>2020-12-05T13:01:28.000Z</Time>
            <Position>
              <LatitudeDegrees>36.8242686800658702850341796875</LatitudeDegrees>
              <LongitudeDegrees>-4.38344542868435382843017578125</LongitudeDegrees>
            </Position>
            <AltitudeMeters>791.4000244140625</AltitudeMeters>
            <DistanceMeters>NAN</DistanceMeters>
          </Trackpoint>
          <Trackpoint>
            <Time>2020-12-05T13:01:29.000Z</Time>
            <Position>
              <LatitudeDegrees>36.824261136353015899658203125</LatitudeDegrees>
              <LongitudeDegrees>-4.38344693742692470550537109375</LongitudeDegrees>
            </Position>
            <AltitudeMeters>791.4000244140625</AltitudeMeters>
            <DistanceMeters>NAN</DistanceMeters>
          </Trackpoint>
          <Trackpoint>
            <Time>2020-12-05T13:01:30.000Z</Time>
            <Position>
              <LatitudeDegrees>36.8242576159536838531494140625</LatitudeDegrees>
              <LongitudeDegrees>-4.38344861380755901336669921875</LongitudeDegrees>
            </Position>
            <AltitudeMeters>791.4000244140625</AltitudeMeters>
            <DistanceMeters>NAN</DistanceMeters>
          </Trackpoint>
          <Trackpoint>
            <Time>2020-12-05T13:01:31.000Z</Time>
            <Position>
              <LatitudeDegrees>36.82425669394433498382568359375</LatitudeDegrees>
              <LongitudeDegrees>-4.383453391492366790771484375</LongitudeDegrees>
            </Position>
            <AltitudeMeters>791.4000244140625</AltitudeMeters>
            <DistanceMeters>NAN</DistanceMeters>
          </Trackpoint>
          <Trackpoint>
            <Time>2020-12-05T13:01:32.000Z</Time>
            <Position>
              <LatitudeDegrees>36.82426088489592075347900390625</LatitudeDegrees>
              <LongitudeDegrees>-4.383458085358142852783203125</LongitudeDegrees>
            </Position>
            <AltitudeMeters>791.4000244140625</AltitudeMeters>
            <DistanceMeters>NAN</DistanceMeters>
          </Trackpoint>
          <Trackpoint>
            <Time>2020-12-05T13:01:33.000Z</Time>
            <Position>
              <LatitudeDegrees>36.8242646567523479461669921875</LatitudeDegrees>
              <LongitudeDegrees>-4.38346722163259983062744140625</LongitudeDegrees>
            </Position>
            <AltitudeMeters>791.4000244140625</AltitudeMeters>
            <DistanceMeters>NAN</DistanceMeters>
          </Trackpoint>
          <Trackpoint>
            <Time>2020-12-05T13:01:34.000Z</Time>
            <Position>
              <LatitudeDegrees>36.82427161373198032379150390625</LatitudeDegrees>
              <LongitudeDegrees>-4.38346873037517070770263671875</LongitudeDegrees>
            </Position>
            <AltitudeMeters>791.4000244140625</AltitudeMeters>
            <DistanceMeters>NAN</DistanceMeters>
          </Trackpoint>
          <Trackpoint>
            <Time>2020-12-05T13:01:35.000Z</Time>
            <Position>
              <LatitudeDegrees>36.82427815161645412445068359375</LatitudeDegrees>
              <LongitudeDegrees>-4.38346512615680694580078125</LongitudeDegrees>
            </Position>
            <AltitudeMeters>791.4000244140625</AltitudeMeters>
            <DistanceMeters>NAN</DistanceMeters>
          </Trackpoint>
          <Trackpoint>
            <Time>2020-12-05T13:01:36.000Z</Time>
            <Position>
              <LatitudeDegrees>36.82429055683314800262451171875</LatitudeDegrees>
              <LongitudeDegrees>-4.38346236012876033782958984375</LongitudeDegrees>
            </Position>
            <AltitudeMeters>791.4000244140625</AltitudeMeters>
            <DistanceMeters>NAN</DistanceMeters>
          </Trackpoint>
          <Trackpoint>
            <Time>2020-12-05T13:01:37.000Z</Time>
            <Position>
              <LatitudeDegrees>36.8242965079843997955322265625</LatitudeDegrees>
              <LongitudeDegrees>-4.3834652937948703765869140625</LongitudeDegrees>
            </Position>
            <AltitudeMeters>791.4000244140625</AltitudeMeters>
            <DistanceMeters>NAN</DistanceMeters>
          </Trackpoint>
          <Trackpoint>
            <Time>2020-12-05T13:01:38.000Z</Time>
            <Position>
              <LatitudeDegrees>36.82430329732596874237060546875</LatitudeDegrees>
              <LongitudeDegrees>-4.3834629468619823455810546875</LongitudeDegrees>
            </Position>
            <AltitudeMeters>791.4000244140625</AltitudeMeters>
            <DistanceMeters>NAN</DistanceMeters>
          </Trackpoint>
          <Trackpoint>
            <Time>2020-12-05T13:01:39.000Z</Time>
            <Position>
              <LatitudeDegrees>36.8243069015443325042724609375</LatitudeDegrees>
              <LongitudeDegrees>-4.383465461432933807373046875</LongitudeDegrees>
            </Position>
            <AltitudeMeters>791.4000244140625</AltitudeMeters>
            <DistanceMeters>NAN</DistanceMeters>
          </Trackpoint>
          <Trackpoint>
            <Time>2020-12-05T13:01:40.000Z</Time>
            <Position>
              <LatitudeDegrees>36.82430866174399852752685546875</LatitudeDegrees>
              <LongitudeDegrees>-4.38346571289002895355224609375</LongitudeDegrees>
            </Position>
            <AltitudeMeters>791.4000244140625</AltitudeMeters>
            <DistanceMeters>NAN</DistanceMeters>
          </Trackpoint>
          <Trackpoint>
            <Time>2020-12-05T13:01:41.000Z</Time>
            <Position>
              <LatitudeDegrees>36.82430430315434932708740234375</LatitudeDegrees>
              <LongitudeDegrees>-4.38346202485263347625732421875</LongitudeDegrees>
            </Position>
            <AltitudeMeters>791.4000244140625</AltitudeMeters>
            <DistanceMeters>NAN</DistanceMeters>
          </Trackpoint>
          <Trackpoint>
            <Time>2020-12-05T13:01:42.000Z</Time>
            <Position>
              <LatitudeDegrees>36.8242956697940826416015625</LatitudeDegrees>
              <LongitudeDegrees>-4.38346118666231632232666015625</LongitudeDegrees>
            </Position>
            <AltitudeMeters>791.4000244140625</AltitudeMeters>
            <DistanceMeters>NAN</DistanceMeters>
          </Trackpoint>
          <Trackpoint>
            <Time>2020-12-05T13:01:43.000Z</Time>
            <Position>
              <LatitudeDegrees>36.8242877908051013946533203125</LatitudeDegrees>
              <LongitudeDegrees>-4.38346445560455322265625</LongitudeDegrees>
            </Position>
            <AltitudeMeters>791.4000244140625</AltitudeMeters>
            <DistanceMeters>NAN</DistanceMeters>
          </Trackpoint>
          <Trackpoint>
            <Time>2020-12-05T13:01:44.000Z</Time>
            <Position>
              <LatitudeDegrees>36.82427982799708843231201171875</LatitudeDegrees>
              <LongitudeDegrees>-4.3834676407277584075927734375</LongitudeDegrees>
            </Position>
            <AltitudeMeters>791.4000244140625</AltitudeMeters>
            <DistanceMeters>NAN</DistanceMeters>
          </Trackpoint>
          <Trackpoint>
            <Time>2020-12-05T13:01:45.000Z</Time>
            <Position>
              <LatitudeDegrees>36.82427127845585346221923828125</LatitudeDegrees>
              <LongitudeDegrees>-4.3834756873548030853271484375</LongitudeDegrees>
            </Position>
            <AltitudeMeters>791.4000244140625</AltitudeMeters>
            <DistanceMeters>NAN</DistanceMeters>
          </Trackpoint>
          <Trackpoint>
            <Time>2020-12-05T13:01:46.000Z</Time>
            <Position>
              <LatitudeDegrees>36.82426122017204761505126953125</LatitudeDegrees>
              <LongitudeDegrees>-4.38348432071506977081298828125</LongitudeDegrees>
            </Position>
            <AltitudeMeters>791.4000244140625</AltitudeMeters>
            <DistanceMeters>NAN</DistanceMeters>
          </Trackpoint>
          <Trackpoint>
            <Time>2020-12-05T13:01:47.000Z</Time>
            <Position>
              <LatitudeDegrees>36.82424915023148059844970703125</LatitudeDegrees>
              <LongitudeDegrees>-4.38349622301757335662841796875</LongitudeDegrees>
            </Position>
            <AltitudeMeters>791.4000244140625</AltitudeMeters>
            <DistanceMeters>NAN</DistanceMeters>
          </Trackpoint>
          <Trackpoint>
            <Time>2020-12-05T13:01:48.000Z</Time>
            <Position>
              <LatitudeDegrees>36.82423506863415241241455078125</LatitudeDegrees>
              <LongitudeDegrees>-4.3835001625120639801025390625</LongitudeDegrees>
            </Position>
            <AltitudeMeters>791.4000244140625</AltitudeMeters>
            <DistanceMeters>NAN</DistanceMeters>
          </Trackpoint>
          <Trackpoint>
            <Time>2020-12-05T13:01:49.000Z</Time>
            <Position>
              <LatitudeDegrees>36.8242183886468410491943359375</LatitudeDegrees>
              <LongitudeDegrees>-4.3835058622062206268310546875</LongitudeDegrees>
            </Position>
            <AltitudeMeters>791.4000244140625</AltitudeMeters>
            <DistanceMeters>NAN</DistanceMeters>
          </Trackpoint>
          <Trackpoint>
            <Time>2020-12-05T13:01:50.000Z</Time>
            <Position>
              <LatitudeDegrees>36.82420388795435428619384765625</LatitudeDegrees>
              <LongitudeDegrees>-4.3835179321467876434326171875</LongitudeDegrees>
            </Position>
            <AltitudeMeters>791.4000244140625</AltitudeMeters>
            <DistanceMeters>NAN</DistanceMeters>
          </Trackpoint>
          <Trackpoint>
            <Time>2020-12-05T13:01:51.000Z</Time>
            <Position>
              <LatitudeDegrees>36.82419148273766040802001953125</LatitudeDegrees>
              <LongitudeDegrees>-4.383533187210559844970703125</LongitudeDegrees>
            </Position>
            <AltitudeMeters>791.4000244140625</AltitudeMeters>
            <DistanceMeters>NAN</DistanceMeters>
          </Trackpoint>
          <Trackpoint>
            <Time>2020-12-05T13:01:52.000Z</Time>
            <Position>
              <LatitudeDegrees>36.8241776525974273681640625</LatitudeDegrees>
              <LongitudeDegrees>-4.383547604084014892578125</LongitudeDegrees>
            </Position>
            <AltitudeMeters>791.4000244140625</AltitudeMeters>
            <DistanceMeters>NAN</DistanceMeters>
          </Trackpoint>
          <Trackpoint>
            <Time>2020-12-05T13:01:53.000Z</Time>
            <Position>
              <LatitudeDegrees>36.82416834868490695953369140625</LatitudeDegrees>
              <LongitudeDegrees>-4.3835564889013767242431640625</LongitudeDegrees>
            </Position>
            <AltitudeMeters>791.4000244140625</AltitudeMeters>
            <DistanceMeters>NAN</DistanceMeters>
          </Trackpoint>
          <Trackpoint>
            <Time>2020-12-05T13:01:54.000Z</Time>
            <Position>
              <LatitudeDegrees>36.8241634033620357513427734375</LatitudeDegrees>
              <LongitudeDegrees>-4.3835635297000408172607421875</LongitudeDegrees>
            </Position>
            <AltitudeMeters>791.4000244140625</AltitudeMeters>
            <DistanceMeters>NAN</DistanceMeters>
          </Trackpoint>
          <Trackpoint>
            <Time>2020-12-05T13:01:55.000Z</Time>
            <Position>
              <LatitudeDegrees>36.82415795512497425079345703125</LatitudeDegrees>
              <LongitudeDegrees>-4.383564703166484832763671875</LongitudeDegrees>
            </Position>
            <AltitudeMeters>791.4000244140625</AltitudeMeters>
            <DistanceMeters>NAN</DistanceMeters>
          </Trackpoint>
          <Trackpoint>
            <Time>2020-12-05T13:01:56.000Z</Time>
            <Position>
              <LatitudeDegrees>36.82414772920310497283935546875</LatitudeDegrees>
              <LongitudeDegrees>-4.3835662119090557098388671875</LongitudeDegrees>
            </Position>
            <AltitudeMeters>791.4000244140625</AltitudeMeters>
            <DistanceMeters>NAN</DistanceMeters>
          </Trackpoint>
          <Trackpoint>
            <Time>2020-12-05T13:01:57.000Z</Time>
            <Position>
              <LatitudeDegrees>36.82413834147155284881591796875</LatitudeDegrees>
              <LongitudeDegrees>-4.383567385375499725341796875</LongitudeDegrees>
            </Position>
            <AltitudeMeters>791.4000244140625</AltitudeMeters>
            <DistanceMeters>NAN</DistanceMeters>
          </Trackpoint>
          <Trackpoint>
            <Time>2020-12-05T13:01:58.000Z</Time>
            <Position>
              <LatitudeDegrees>36.82412710972130298614501953125</LatitudeDegrees>
              <LongitudeDegrees>-4.3835655413568019866943359375</LongitudeDegrees>
            </Position>
            <AltitudeMeters>791.4000244140625</AltitudeMeters>
            <DistanceMeters>NAN</DistanceMeters>
          </Trackpoint>
          <Trackpoint>
            <Time>2020-12-05T13:01:59.000Z</Time>
            <Position>
              <LatitudeDegrees>36.8241154588758945465087890625</LatitudeDegrees>
              <LongitudeDegrees>-4.3835625238716602325439453125</LongitudeDegrees>
            </Position>
            <AltitudeMeters>791.4000244140625</AltitudeMeters>
            <DistanceMeters>NAN</DistanceMeters>
          </Trackpoint>
          <Trackpoint>
            <Time>2020-12-05T13:02:00.000Z</Time>
            <Position>
              <LatitudeDegrees>36.8241025507450103759765625</LatitudeDegrees>
              <LongitudeDegrees>-4.3835605122148990631103515625</LongitudeDegrees>
            </Position>
            <AltitudeMeters>789.4000244140625</AltitudeMeters>
            <DistanceMeters>NAN</DistanceMeters>
          </Trackpoint>
          <Trackpoint>
            <Time>2020-12-05T13:02:01.000Z</Time>
            <Position>
              <LatitudeDegrees>36.8240886367857456207275390625</LatitudeDegrees>
              <LongitudeDegrees>-4.38356034457683563232421875</LongitudeDegrees>
            </Position>
            <AltitudeMeters>789.4000244140625</AltitudeMeters>
            <DistanceMeters>NAN</DistanceMeters>
          </Trackpoint>
          <Trackpoint>
            <Time>2020-12-05T13:02:02.000Z</Time>
            <Position>
              <LatitudeDegrees>36.82407413609325885772705078125</LatitudeDegrees>
              <LongitudeDegrees>-4.383560009300708770751953125</LongitudeDegrees>
            </Position>
            <AltitudeMeters>789.4000244140625</AltitudeMeters>
            <DistanceMeters>NAN</DistanceMeters>
          </Trackpoint>
          <Trackpoint>
            <Time>2020-12-05T13:02:03.000Z</Time>
            <Position>
              <LatitudeDegrees>36.82406357489526271820068359375</LatitudeDegrees>
              <LongitudeDegrees>-4.38356101512908935546875</LongitudeDegrees>
            </Position>
            <AltitudeMeters>789.4000244140625</AltitudeMeters>
            <DistanceMeters>NAN</DistanceMeters>
          </Trackpoint>
          <Trackpoint>
            <Time>2020-12-05T13:02:04.000Z</Time>
            <Position>
              <LatitudeDegrees>36.82405569590628147125244140625</LatitudeDegrees>
              <LongitudeDegrees>-4.38356344588100910186767578125</LongitudeDegrees>
            </Position>
            <AltitudeMeters>789.4000244140625</AltitudeMeters>
            <DistanceMeters>NAN</DistanceMeters>
          </Trackpoint>
          <Trackpoint>
            <Time>2020-12-05T13:02:05.000Z</Time>
            <Position>
              <LatitudeDegrees>36.82404764927923679351806640625</LatitudeDegrees>
              <LongitudeDegrees>-4.38356528989970684051513671875</LongitudeDegrees>
            </Position>
            <AltitudeMeters>789.4000244140625</AltitudeMeters>
            <DistanceMeters>NAN</DistanceMeters>
          </Trackpoint>
          <Trackpoint>
            <Time>2020-12-05T13:02:06.000Z</Time>
            <Position>
              <LatitudeDegrees>36.8240390159189701080322265625</LatitudeDegrees>
              <LongitudeDegrees>-4.38357048667967319488525390625</LongitudeDegrees>
            </Position>
            <AltitudeMeters>789.4000244140625</AltitudeMeters>
            <DistanceMeters>NAN</DistanceMeters>
          </Trackpoint>
          <Trackpoint>
            <Time>2020-12-05T13:02:07.000Z</Time>
            <Position>
              <LatitudeDegrees>36.82402619160711765289306640625</LatitudeDegrees>
              <LongitudeDegrees>-4.383581466972827911376953125</LongitudeDegrees>
            </Position>
            <AltitudeMeters>789.4000244140625</AltitudeMeters>
            <DistanceMeters>NAN</DistanceMeters>
          </Trackpoint>
          <Trackpoint>
            <Time>2020-12-05T13:02:08.000Z</Time>
            <Position>
              <LatitudeDegrees>36.8240158818662166595458984375</LatitudeDegrees>
              <LongitudeDegrees>-4.383584149181842803955078125</LongitudeDegrees>
            </Position>
            <AltitudeMeters>789.4000244140625</AltitudeMeters>
            <DistanceMeters>NAN</DistanceMeters>
          </Trackpoint>
          <Trackpoint>
            <Time>2020-12-05T13:02:09.000Z</Time>
            <Position>
              <LatitudeDegrees>36.8240054883062839508056640625</LatitudeDegrees>
              <LongitudeDegrees>-4.38358046114444732666015625</LongitudeDegrees>
            </Position>
            <AltitudeMeters>789.4000244140625</AltitudeMeters>
            <DistanceMeters>NAN</DistanceMeters>
          </Trackpoint>
          <Trackpoint>
            <Time>2020-12-05T13:02:10.000Z</Time>
            <Position>
              <LatitudeDegrees>36.8239954300224781036376953125</LatitudeDegrees>
              <LongitudeDegrees>-4.3835782818496227264404296875</LongitudeDegrees>
            </Position>
            <AltitudeMeters>789.4000244140625</AltitudeMeters>
            <DistanceMeters>NAN</DistanceMeters>
          </Trackpoint>
          <Trackpoint>
            <Time>2020-12-05T13:02:11.000Z</Time>
            <Position>
              <LatitudeDegrees>36.8239845335483551025390625</LatitudeDegrees>
              <LongitudeDegrees>-4.3835809640586376190185546875</LongitudeDegrees>
            </Position>
            <AltitudeMeters>789.4000244140625</AltitudeMeters>
            <DistanceMeters>NAN</DistanceMeters>
          </Trackpoint>
          <Trackpoint>
            <Time>2020-12-05T13:02:12.000Z</Time>
            <Position>
              <LatitudeDegrees>36.8239722959697246551513671875</LatitudeDegrees>
              <LongitudeDegrees>-4.38358020968735218048095703125</LongitudeDegrees>
            </Position>
            <AltitudeMeters>789.4000244140625</AltitudeMeters>
            <DistanceMeters>NAN</DistanceMeters>
          </Trackpoint>
          <Trackpoint>
            <Time>2020-12-05T13:02:13.000Z</Time>
            <Position>
              <LatitudeDegrees>36.82396098040044307708740234375</LatitudeDegrees>
              <LongitudeDegrees>-4.383582137525081634521484375</LongitudeDegrees>
            </Position>
            <AltitudeMeters>789.4000244140625</AltitudeMeters>
            <DistanceMeters>NAN</DistanceMeters>
          </Trackpoint>
          <Trackpoint>
            <Time>2020-12-05T13:02:14.000Z</Time>
            <Position>
              <LatitudeDegrees>36.82394857518374919891357421875</LatitudeDegrees>
              <LongitudeDegrees>-4.38358440063893795013427734375</LongitudeDegrees>
            </Position>
            <AltitudeMeters>789.4000244140625</AltitudeMeters>
            <DistanceMeters>NAN</DistanceMeters>
          </Trackpoint>
          <Trackpoint>
            <Time>2020-12-05T13:02:15.000Z</Time>
            <Position>
              <LatitudeDegrees>36.82393684051930904388427734375</LatitudeDegrees>
              <LongitudeDegrees>-4.3835906870663166046142578125</LongitudeDegrees>
            </Position>
            <AltitudeMeters>789.4000244140625</AltitudeMeters>
            <DistanceMeters>NAN</DistanceMeters>
          </Trackpoint>
          <Trackpoint>
            <Time>2020-12-05T13:02:16.000Z</Time>
            <Position>
              <LatitudeDegrees>36.8239287100732326507568359375</LatitudeDegrees>
              <LongitudeDegrees>-4.3835999071598052978515625</LongitudeDegrees>
            </Position>
            <AltitudeMeters>789.4000244140625</AltitudeMeters>
            <DistanceMeters>NAN</DistanceMeters>
          </Trackpoint>
          <Trackpoint>
            <Time>2020-12-05T13:02:17.000Z</Time>
            <Position>
              <LatitudeDegrees>36.8239189870655536651611328125</LatitudeDegrees>
              <LongitudeDegrees>-4.38360854052007198333740234375</LongitudeDegrees>
            </Position>
            <AltitudeMeters>789.4000244140625</AltitudeMeters>
            <DistanceMeters>NAN</DistanceMeters>
          </Trackpoint>
          <Trackpoint>
            <Time>2020-12-05T13:02:18.000Z</Time>
            <Position>
              <LatitudeDegrees>36.82390683330595493316650390625</LatitudeDegrees>
              <LongitudeDegrees>-4.38361558131873607635498046875</LongitudeDegrees>
            </Position>
            <AltitudeMeters>789.4000244140625</AltitudeMeters>
            <DistanceMeters>NAN</DistanceMeters>
          </Trackpoint>
          <Trackpoint>
            <Time>2020-12-05T13:02:19.000Z</Time>
            <Position>
              <LatitudeDegrees>36.82389358989894390106201171875</LatitudeDegrees>
              <LongitudeDegrees>-4.38362077809870243072509765625</LongitudeDegrees>
            </Position>
            <AltitudeMeters>789.4000244140625</AltitudeMeters>
            <DistanceMeters>NAN</DistanceMeters>
          </Trackpoint>
          <Trackpoint>
            <Time>2020-12-05T13:02:20.000Z</Time>
            <Position>
              <LatitudeDegrees>36.82388001121580600738525390625</LatitudeDegrees>
              <LongitudeDegrees>-4.38362538814544677734375</LongitudeDegrees>
            </Position>
            <AltitudeMeters>789.4000244140625</AltitudeMeters>
            <DistanceMeters>NAN</DistanceMeters>
          </Trackpoint>
          <Trackpoint>
            <Time>2020-12-05T13:02:21.000Z</Time>
            <Position>
              <LatitudeDegrees>36.823868863284587860107421875</LatitudeDegrees>
              <LongitudeDegrees>-4.38362916000187397003173828125</LongitudeDegrees>
            </Position>
            <AltitudeMeters>789.4000244140625</AltitudeMeters>
            <DistanceMeters>NAN</DistanceMeters>
          </Trackpoint>
          <Trackpoint>
            <Time>2020-12-05T13:02:22.000Z</Time>
            <Position>
              <LatitudeDegrees>36.8238583020865917205810546875</LatitudeDegrees>
              <LongitudeDegrees>-4.3836307525634765625</LongitudeDegrees>
            </Position>
            <AltitudeMeters>789.4000244140625</AltitudeMeters>
            <DistanceMeters>NAN</DistanceMeters>
          </Trackpoint>
          <Trackpoint>
            <Time>2020-12-05T13:02:23.000Z</Time>
            <Position>
              <LatitudeDegrees>36.8238465674221515655517578125</LatitudeDegrees>
              <LongitudeDegrees>-4.3836329318583011627197265625</LongitudeDegrees>
            </Position>
            <AltitudeMeters>789.4000244140625</AltitudeMeters>
            <DistanceMeters>NAN</DistanceMeters>
          </Trackpoint>
          <Trackpoint>
            <Time>2020-12-05T13:02:24.000Z</Time>
            <Position>
              <LatitudeDegrees>36.8238328211009502410888671875</LatitudeDegrees>
              <LongitudeDegrees>-4.38363553024828433990478515625</LongitudeDegrees>
            </Position>
            <AltitudeMeters>789.4000244140625</AltitudeMeters>
            <DistanceMeters>NAN</DistanceMeters>
          </Trackpoint>
          <Trackpoint>
            <Time>2020-12-05T13:02:25.000Z</Time>
            <Position>
              <LatitudeDegrees>36.82381832040846347808837890625</LatitudeDegrees>
              <LongitudeDegrees>-4.383637793362140655517578125</LongitudeDegrees>
            </Position>
            <AltitudeMeters>789.4000244140625</AltitudeMeters>
            <DistanceMeters>NAN</DistanceMeters>
          </Trackpoint>
          <Trackpoint>
            <Time>2020-12-05T13:02:26.000Z</Time>
            <Position>
              <LatitudeDegrees>36.82380155660212039947509765625</LatitudeDegrees>
              <LongitudeDegrees>-4.3836406432092189788818359375</LongitudeDegrees>
            </Position>
            <AltitudeMeters>789.4000244140625</AltitudeMeters>
            <DistanceMeters>NAN</DistanceMeters>
          </Trackpoint>
          <Trackpoint>
            <Time>2020-12-05T13:02:27.000Z</Time>
            <Position>
              <LatitudeDegrees>36.8237872235476970672607421875</LatitudeDegrees>
              <LongitudeDegrees>-4.383644163608551025390625</LongitudeDegrees>
            </Position>
            <AltitudeMeters>789.4000244140625</AltitudeMeters>
            <DistanceMeters>NAN</DistanceMeters>
          </Trackpoint>
          <Trackpoint>
            <Time>2020-12-05T13:02:28.000Z</Time>
            <Position>
              <LatitudeDegrees>36.8237744830548763275146484375</LatitudeDegrees>
              <LongitudeDegrees>-4.38364977948367595672607421875</LongitudeDegrees>
            </Position>
            <AltitudeMeters>789.4000244140625</AltitudeMeters>
            <DistanceMeters>NAN</DistanceMeters>
          </Trackpoint>
          <Trackpoint>
            <Time>2020-12-05T13:02:29.000Z</Time>
            <Position>
              <LatitudeDegrees>36.8237647600471973419189453125</LatitudeDegrees>
              <LongitudeDegrees>-4.3836550600826740264892578125</LongitudeDegrees>
            </Position>
            <AltitudeMeters>789.4000244140625</AltitudeMeters>
            <DistanceMeters>NAN</DistanceMeters>
          </Trackpoint>
          <Trackpoint>
            <Time>2020-12-05T13:02:30.000Z</Time>
            <Position>
              <LatitudeDegrees>36.8237565457820892333984375</LatitudeDegrees>
              <LongitudeDegrees>-4.3836610950529575347900390625</LongitudeDegrees>
            </Position>
            <AltitudeMeters>789.4000244140625</AltitudeMeters>
            <DistanceMeters>NAN</DistanceMeters>
          </Trackpoint>
          <Trackpoint>
            <Time>2020-12-05T13:02:31.000Z</Time>
            <Position>
              <LatitudeDegrees>36.8237476609647274017333984375</LatitudeDegrees>
              <LongitudeDegrees>-4.3836647830903530120849609375</LongitudeDegrees>
            </Position>
            <AltitudeMeters>789.4000244140625</AltitudeMeters>
            <DistanceMeters>NAN</DistanceMeters>
          </Trackpoint>
          <Trackpoint>
            <Time>2020-12-05T13:02:32.000Z</Time>
            <Position>
              <LatitudeDegrees>36.8237406201660633087158203125</LatitudeDegrees>
              <LongitudeDegrees>-4.38367006368935108184814453125</LongitudeDegrees>
            </Position>
            <AltitudeMeters>789.4000244140625</AltitudeMeters>
            <DistanceMeters>NAN</DistanceMeters>
          </Trackpoint>
          <Trackpoint>
            <Time>2020-12-05T13:02:33.000Z</Time>
            <Position>
              <LatitudeDegrees>36.823733747005462646484375</LatitudeDegrees>
              <LongitudeDegrees>-4.3836735002696514129638671875</LongitudeDegrees>
            </Position>
            <AltitudeMeters>789.4000244140625</AltitudeMeters>
            <DistanceMeters>NAN</DistanceMeters>
          </Trackpoint>
          <Trackpoint>
            <Time>2020-12-05T13:02:34.000Z</Time>
            <Position>
              <LatitudeDegrees>36.8237255327403545379638671875</LatitudeDegrees>
              <LongitudeDegrees>-4.38367526046931743621826171875</LongitudeDegrees>
            </Position>
            <AltitudeMeters>789.4000244140625</AltitudeMeters>
            <DistanceMeters>NAN</DistanceMeters>
          </Trackpoint>
          <Trackpoint>
            <Time>2020-12-05T13:02:35.000Z</Time>
            <Position>
              <LatitudeDegrees>36.823717989027500152587890625</LatitudeDegrees>
              <LongitudeDegrees>-4.38368028961122035980224609375</LongitudeDegrees>
            </Position>
            <AltitudeMeters>789.4000244140625</AltitudeMeters>
            <DistanceMeters>NAN</DistanceMeters>
          </Trackpoint>
          <Trackpoint>
            <Time>2020-12-05T13:02:36.000Z</Time>
            <Position>
              <LatitudeDegrees>36.8237107805907726287841796875</LatitudeDegrees>
              <LongitudeDegrees>-4.383684061467647552490234375</LongitudeDegrees>
            </Position>
            <AltitudeMeters>789.4000244140625</AltitudeMeters>
            <DistanceMeters>NAN</DistanceMeters>
          </Trackpoint>
          <Trackpoint>
            <Time>2020-12-05T13:02:37.000Z</Time>
            <Position>
              <LatitudeDegrees>36.8237027339637279510498046875</LatitudeDegrees>
              <LongitudeDegrees>-4.38368833623826503753662109375</LongitudeDegrees>
            </Position>
            <AltitudeMeters>789.4000244140625</AltitudeMeters>
            <DistanceMeters>NAN</DistanceMeters>
          </Trackpoint>
          <Trackpoint>
            <Time>2020-12-05T13:02:38.000Z</Time>
            <Position>
              <LatitudeDegrees>36.8236916698515415191650390625</LatitudeDegrees>
              <LongitudeDegrees>-4.38369353301823139190673828125</LongitudeDegrees>
            </Position>
            <AltitudeMeters>789.4000244140625</AltitudeMeters>
            <DistanceMeters>NAN</DistanceMeters>
          </Trackpoint>
          <Trackpoint>
            <Time>2020-12-05T13:02:39.000Z</Time>
            <Position>
              <LatitudeDegrees>36.82368219830095767974853515625</LatitudeDegrees>
              <LongitudeDegrees>-4.38369705341756343841552734375</LongitudeDegrees>
            </Position>
            <AltitudeMeters>789.4000244140625</AltitudeMeters>
            <DistanceMeters>NAN</DistanceMeters>
          </Trackpoint>
          <Trackpoint>
            <Time>2020-12-05T13:02:40.000Z</Time>
            <Position>
              <LatitudeDegrees>36.8236722238361835479736328125</LatitudeDegrees>
              <LongitudeDegrees>-4.38369789160788059234619140625</LongitudeDegrees>
            </Position>
            <AltitudeMeters>789.4000244140625</AltitudeMeters>
            <DistanceMeters>NAN</DistanceMeters>
          </Trackpoint>
          <Trackpoint>
            <Time>2020-12-05T13:02:41.000Z</Time>
            <Position>
              <LatitudeDegrees>36.82366157881915569305419921875</LatitudeDegrees>
              <LongitudeDegrees>-4.3836986459791660308837890625</LongitudeDegrees>
            </Position>
            <AltitudeMeters>789.4000244140625</AltitudeMeters>
            <DistanceMeters>NAN</DistanceMeters>
          </Trackpoint>
          <Trackpoint>
            <Time>2020-12-05T13:02:42.000Z</Time>
            <Position>
              <LatitudeDegrees>36.82364867068827152252197265625</LatitudeDegrees>
              <LongitudeDegrees>-4.3837040103971958160400390625</LongitudeDegrees>
            </Position>
            <AltitudeMeters>789.4000244140625</AltitudeMeters>
            <DistanceMeters>NAN</DistanceMeters>
          </Trackpoint>
          <Trackpoint>
            <Time>2020-12-05T13:02:43.000Z</Time>
            <Position>
              <LatitudeDegrees>36.8236373551189899444580078125</LatitudeDegrees>
              <LongitudeDegrees>-4.38371197320520877838134765625</LongitudeDegrees>
            </Position>
            <AltitudeMeters>789.4000244140625</AltitudeMeters>
            <DistanceMeters>NAN</DistanceMeters>
          </Trackpoint>
          <Trackpoint>
            <Time>2020-12-05T13:02:44.000Z</Time>
            <Position>
              <LatitudeDegrees>36.82363039813935756683349609375</LatitudeDegrees>
              <LongitudeDegrees>-4.38371951691806316375732421875</LongitudeDegrees>
            </Position>
            <AltitudeMeters>789.4000244140625</AltitudeMeters>
            <DistanceMeters>NAN</DistanceMeters>
          </Trackpoint>
          <Trackpoint>
            <Time>2020-12-05T13:02:45.000Z</Time>
            <Position>
              <LatitudeDegrees>36.823623441159725189208984375</LatitudeDegrees>
              <LongitudeDegrees>-4.38372706063091754913330078125</LongitudeDegrees>
            </Position>
            <AltitudeMeters>789.4000244140625</AltitudeMeters>
            <DistanceMeters>NAN</DistanceMeters>
          </Trackpoint>
          <Trackpoint>
            <Time>2020-12-05T13:02:46.000Z</Time>
            <Position>
              <LatitudeDegrees>36.82361832819879055023193359375</LatitudeDegrees>
              <LongitudeDegrees>-4.3837340176105499267578125</LongitudeDegrees>
            </Position>
            <AltitudeMeters>789.4000244140625</AltitudeMeters>
            <DistanceMeters>NAN</DistanceMeters>
          </Trackpoint>
          <Trackpoint>
            <Time>2020-12-05T13:02:47.000Z</Time>
            <Position>
              <LatitudeDegrees>36.82361279614269733428955078125</LatitudeDegrees>
              <LongitudeDegrees>-4.38373628072440624237060546875</LongitudeDegrees>
            </Position>
            <AltitudeMeters>789.4000244140625</AltitudeMeters>
            <DistanceMeters>NAN</DistanceMeters>
          </Trackpoint>
          <Trackpoint>
            <Time>2020-12-05T13:02:48.000Z</Time>
            <Position>
              <LatitudeDegrees>36.8236051686108112335205078125</LatitudeDegrees>
              <LongitudeDegrees>-4.38374013639986515045166015625</LongitudeDegrees>
            </Position>
            <AltitudeMeters>789.4000244140625</AltitudeMeters>
            <DistanceMeters>NAN</DistanceMeters>
          </Trackpoint>
          <Trackpoint>
            <Time>2020-12-05T13:02:49.000Z</Time>
            <Position>
              <LatitudeDegrees>36.823593936860561370849609375</LatitudeDegrees>
              <LongitudeDegrees>-4.38374030403792858123779296875</LongitudeDegrees>
            </Position>
            <AltitudeMeters>789.4000244140625</AltitudeMeters>
            <DistanceMeters>NAN</DistanceMeters>
          </Trackpoint>
          <Trackpoint>
            <Time>2020-12-05T13:02:50.000Z</Time>
            <Position>
              <LatitudeDegrees>36.82358413003385066986083984375</LatitudeDegrees>
              <LongitudeDegrees>-4.38373871147632598876953125</LongitudeDegrees>
            </Position>
            <AltitudeMeters>789.4000244140625</AltitudeMeters>
            <DistanceMeters>NAN</DistanceMeters>
          </Trackpoint>
          <Trackpoint>
            <Time>2020-12-05T13:02:51.000Z</Time>
            <Position>
              <LatitudeDegrees>36.82357591576874256134033203125</LatitudeDegrees>
              <LongitudeDegrees>-4.3837372027337551116943359375</LongitudeDegrees>
            </Position>
            <AltitudeMeters>789.4000244140625</AltitudeMeters>
            <DistanceMeters>NAN</DistanceMeters>
          </Trackpoint>
          <Trackpoint>
            <Time>2020-12-05T13:02:52.000Z</Time>
            <Position>
              <LatitudeDegrees>36.82356786914169788360595703125</LatitudeDegrees>
              <LongitudeDegrees>-4.38373812474310398101806640625</LongitudeDegrees>
            </Position>
            <AltitudeMeters>789.4000244140625</AltitudeMeters>
            <DistanceMeters>NAN</DistanceMeters>
          </Trackpoint>
          <Trackpoint>
            <Time>2020-12-05T13:02:53.000Z</Time>
            <Position>
              <LatitudeDegrees>36.82356367819011211395263671875</LatitudeDegrees>
              <LongitudeDegrees>-4.38374097459018230438232421875</LongitudeDegrees>
            </Position>
            <AltitudeMeters>789.4000244140625</AltitudeMeters>
            <DistanceMeters>NAN</DistanceMeters>
          </Trackpoint>
          <Trackpoint>
            <Time>2020-12-05T13:02:54.000Z</Time>
            <Position>
              <LatitudeDegrees>36.82355965487658977508544921875</LatitudeDegrees>
              <LongitudeDegrees>-4.38374483026564121246337890625</LongitudeDegrees>
            </Position>
            <AltitudeMeters>789.4000244140625</AltitudeMeters>
            <DistanceMeters>NAN</DistanceMeters>
          </Trackpoint>
          <Trackpoint>
            <Time>2020-12-05T13:02:55.000Z</Time>
            <Position>
              <LatitudeDegrees>36.8235572241246700286865234375</LatitudeDegrees>
              <LongitudeDegrees>-4.38374516554176807403564453125</LongitudeDegrees>
            </Position>
            <AltitudeMeters>789.4000244140625</AltitudeMeters>
            <DistanceMeters>NAN</DistanceMeters>
          </Trackpoint>
          <Trackpoint>
            <Time>2020-12-05T13:02:56.000Z</Time>
            <Position>
              <LatitudeDegrees>36.82355429045855998992919921875</LatitudeDegrees>
              <LongitudeDegrees>-4.38374399207532405853271484375</LongitudeDegrees>
            </Position>
            <AltitudeMeters>789.4000244140625</AltitudeMeters>
            <DistanceMeters>NAN</DistanceMeters>
          </Trackpoint>
          <Trackpoint>
            <Time>2020-12-05T13:02:57.000Z</Time>
            <Position>
              <LatitudeDegrees>36.8235495127737522125244140625</LatitudeDegrees>
              <LongitudeDegrees>-4.38374130986630916595458984375</LongitudeDegrees>
            </Position>
            <AltitudeMeters>789.4000244140625</AltitudeMeters>
            <DistanceMeters>NAN</DistanceMeters>
          </Trackpoint>
          <Trackpoint>
            <Time>2020-12-05T13:02:58.000Z</Time>
            <Position>
              <LatitudeDegrees>36.82354423217475414276123046875</LatitudeDegrees>
              <LongitudeDegrees>-4.38374164514243602752685546875</LongitudeDegrees>
            </Position>
            <AltitudeMeters>789.4000244140625</AltitudeMeters>
            <DistanceMeters>NAN</DistanceMeters>
          </Trackpoint>
          <Trackpoint>
            <Time>2020-12-05T13:02:59.000Z</Time>
            <Position>
              <LatitudeDegrees>36.823538281023502349853515625</LatitudeDegrees>
              <LongitudeDegrees>-4.3837425671517848968505859375</LongitudeDegrees>
            </Position>
            <AltitudeMeters>789.4000244140625</AltitudeMeters>
            <DistanceMeters>NAN</DistanceMeters>
          </Trackpoint>
          <Trackpoint>
            <Time>2020-12-05T13:03:00.000Z</Time>
            <Position>
              <LatitudeDegrees>36.82353459298610687255859375</LatitudeDegrees>
              <LongitudeDegrees>-4.38374382443726062774658203125</LongitudeDegrees>
            </Position>
            <AltitudeMeters>788.79998779296875</AltitudeMeters>
            <DistanceMeters>NAN</DistanceMeters>
          </Trackpoint>
          <Trackpoint>
            <Time>2020-12-05T13:03:01.000Z</Time>
            <Position>
              <LatitudeDegrees>36.823530904948711395263671875</LatitudeDegrees>
              <LongitudeDegrees>-4.383743740618228912353515625</LongitudeDegrees>
            </Position>
            <AltitudeMeters>788.79998779296875</AltitudeMeters>
            <DistanceMeters>NAN</DistanceMeters>
          </Trackpoint>
          <Trackpoint>
            <Time>2020-12-05T13:03:02.000Z</Time>
            <Position>
              <LatitudeDegrees>36.82352914474904537200927734375</LatitudeDegrees>
              <LongitudeDegrees>-4.38374298624694347381591796875</LongitudeDegrees>
            </Position>
            <AltitudeMeters>788.79998779296875</AltitudeMeters>
            <DistanceMeters>NAN</DistanceMeters>
          </Trackpoint>
          <Trackpoint>
            <Time>2020-12-05T13:03:03.000Z</Time>
            <Position>
              <LatitudeDegrees>36.82352679781615734100341796875</LatitudeDegrees>
              <LongitudeDegrees>-4.3837429024279117584228515625</LongitudeDegrees>
            </Position>
            <AltitudeMeters>788.79998779296875</AltitudeMeters>
            <DistanceMeters>NAN</DistanceMeters>
          </Trackpoint>
          <Trackpoint>
            <Time>2020-12-05T13:03:04.000Z</Time>
            <Position>
              <LatitudeDegrees>36.82352059520781040191650390625</LatitudeDegrees>
              <LongitudeDegrees>-4.383745081722736358642578125</LongitudeDegrees>
            </Position>
            <AltitudeMeters>788.79998779296875</AltitudeMeters>
            <DistanceMeters>NAN</DistanceMeters>
          </Trackpoint>
          <Trackpoint>
            <Time>2020-12-05T13:03:05.000Z</Time>
            <Position>
              <LatitudeDegrees>36.823516823351383209228515625</LatitudeDegrees>
              <LongitudeDegrees>-4.38374784775078296661376953125</LongitudeDegrees>
            </Position>
            <AltitudeMeters>788.79998779296875</AltitudeMeters>
            <DistanceMeters>NAN</DistanceMeters>
          </Trackpoint>
          <Trackpoint>
            <Time>2020-12-05T13:03:06.000Z</Time>
            <Position>
              <LatitudeDegrees>36.82351305149495601654052734375</LatitudeDegrees>
              <LongitudeDegrees>-4.3837501108646392822265625</LongitudeDegrees>
            </Position>
            <AltitudeMeters>788.79998779296875</AltitudeMeters>
            <DistanceMeters>NAN</DistanceMeters>
          </Trackpoint>
          <Trackpoint>
            <Time>2020-12-05T13:03:07.000Z</Time>
            <Position>
              <LatitudeDegrees>36.8235092796385288238525390625</LatitudeDegrees>
              <LongitudeDegrees>-4.3837519548833370208740234375</LongitudeDegrees>
            </Position>
            <AltitudeMeters>788.79998779296875</AltitudeMeters>
            <DistanceMeters>NAN</DistanceMeters>
          </Trackpoint>
          <Trackpoint>
            <Time>2020-12-05T13:03:08.000Z</Time>
            <Position>
              <LatitudeDegrees>36.82350500486791133880615234375</LatitudeDegrees>
              <LongitudeDegrees>-4.38375539146363735198974609375</LongitudeDegrees>
            </Position>
            <AltitudeMeters>788.79998779296875</AltitudeMeters>
            <DistanceMeters>NAN</DistanceMeters>
          </Trackpoint>
          <Trackpoint>
            <Time>2020-12-05T13:03:09.000Z</Time>
            <Position>
              <LatitudeDegrees>36.82349980808794498443603515625</LatitudeDegrees>
              <LongitudeDegrees>-4.3837573193013668060302734375</LongitudeDegrees>
            </Position>
            <AltitudeMeters>788.79998779296875</AltitudeMeters>
            <DistanceMeters>NAN</DistanceMeters>
          </Trackpoint>
          <Trackpoint>
            <Time>2020-12-05T13:03:10.000Z</Time>
            <Position>
              <LatitudeDegrees>36.82349570095539093017578125</LatitudeDegrees>
              <LongitudeDegrees>-4.38376746140420436859130859375</LongitudeDegrees>
            </Position>
            <AltitudeMeters>788.79998779296875</AltitudeMeters>
            <DistanceMeters>NAN</DistanceMeters>
          </Trackpoint>
          <Trackpoint>
            <Time>2020-12-05T13:03:11.000Z</Time>
            <Position>
              <LatitudeDegrees>36.82348974980413913726806640625</LatitudeDegrees>
              <LongitudeDegrees>-4.383777268230915069580078125</LongitudeDegrees>
            </Position>
            <AltitudeMeters>788.79998779296875</AltitudeMeters>
            <DistanceMeters>NAN</DistanceMeters>
          </Trackpoint>
          <Trackpoint>
            <Time>2020-12-05T13:03:12.000Z</Time>
            <Position>
              <LatitudeDegrees>36.823481954634189605712890625</LatitudeDegrees>
              <LongitudeDegrees>-4.38378841616213321685791015625</LongitudeDegrees>
            </Position>
            <AltitudeMeters>788.79998779296875</AltitudeMeters>
            <DistanceMeters>NAN</DistanceMeters>
          </Trackpoint>
          <Trackpoint>
            <Time>2020-12-05T13:03:13.000Z</Time>
            <Position>
              <LatitudeDegrees>36.82347248308360576629638671875</LatitudeDegrees>
              <LongitudeDegrees>-4.38379562459886074066162109375</LongitudeDegrees>
            </Position>
            <AltitudeMeters>788.79998779296875</AltitudeMeters>
            <DistanceMeters>NAN</DistanceMeters>
          </Trackpoint>
          <Trackpoint>
            <Time>2020-12-05T13:03:14.000Z</Time>
            <Position>
              <LatitudeDegrees>36.8234653584659099578857421875</LatitudeDegrees>
              <LongitudeDegrees>-4.3837998993694782257080078125</LongitudeDegrees>
            </Position>
            <AltitudeMeters>788.79998779296875</AltitudeMeters>
            <DistanceMeters>NAN</DistanceMeters>
          </Trackpoint>
          <Trackpoint>
            <Time>2020-12-05T13:03:15.000Z</Time>
            <Position>
              <LatitudeDegrees>36.8234573118388652801513671875</LatitudeDegrees>
              <LongitudeDegrees>-4.38380652107298374176025390625</LongitudeDegrees>
            </Position>
            <AltitudeMeters>788.79998779296875</AltitudeMeters>
            <DistanceMeters>NAN</DistanceMeters>
          </Trackpoint>
          <Trackpoint>
            <Time>2020-12-05T13:03:16.000Z</Time>
            <Position>
              <LatitudeDegrees>36.82345211505889892578125</LatitudeDegrees>
              <LongitudeDegrees>-4.3838119693100452423095703125</LongitudeDegrees>
            </Position>
            <AltitudeMeters>788.79998779296875</AltitudeMeters>
            <DistanceMeters>NAN</DistanceMeters>
          </Trackpoint>
          <Trackpoint>
            <Time>2020-12-05T13:03:17.000Z</Time>
            <Position>
              <LatitudeDegrees>36.8234454095363616943359375</LatitudeDegrees>
              <LongitudeDegrees>-4.38381641171872615814208984375</LongitudeDegrees>
            </Position>
            <AltitudeMeters>788.79998779296875</AltitudeMeters>
            <DistanceMeters>NAN</DistanceMeters>
          </Trackpoint>
          <Trackpoint>
            <Time>2020-12-05T13:03:18.000Z</Time>
            <Position>
              <LatitudeDegrees>36.82343669235706329345703125</LatitudeDegrees>
              <LongitudeDegrees>-4.3838210217654705047607421875</LongitudeDegrees>
            </Position>
            <AltitudeMeters>788.79998779296875</AltitudeMeters>
            <DistanceMeters>NAN</DistanceMeters>
          </Trackpoint>
          <Trackpoint>
            <Time>2020-12-05T13:03:19.000Z</Time>
            <Position>
              <LatitudeDegrees>36.82342973537743091583251953125</LatitudeDegrees>
              <LongitudeDegrees>-4.38382764346897602081298828125</LongitudeDegrees>
            </Position>
            <AltitudeMeters>788.79998779296875</AltitudeMeters>
            <DistanceMeters>NAN</DistanceMeters>
          </Trackpoint>
          <Trackpoint>
            <Time>2020-12-05T13:03:20.000Z</Time>
            <Position>
              <LatitudeDegrees>36.82342252694070339202880859375</LatitudeDegrees>
              <LongitudeDegrees>-4.38383485190570354461669921875</LongitudeDegrees>
            </Position>
            <AltitudeMeters>788.79998779296875</AltitudeMeters>
            <DistanceMeters>NAN</DistanceMeters>
          </Trackpoint>
          <Trackpoint>
            <Time>2020-12-05T13:03:21.000Z</Time>
            <Position>
              <LatitudeDegrees>36.8234137259423732757568359375</LatitudeDegrees>
              <LongitudeDegrees>-4.38384641893208026885986328125</LongitudeDegrees>
            </Position>
            <AltitudeMeters>788.79998779296875</AltitudeMeters>
            <DistanceMeters>NAN</DistanceMeters>
          </Trackpoint>
          <Trackpoint>
            <Time>2020-12-05T13:03:22.000Z</Time>
            <Position>
              <LatitudeDegrees>36.8234078586101531982421875</LatitudeDegrees>
              <LongitudeDegrees>-4.383857063949108123779296875</LongitudeDegrees>
            </Position>
            <AltitudeMeters>788.79998779296875</AltitudeMeters>
            <DistanceMeters>NAN</DistanceMeters>
          </Trackpoint>
          <Trackpoint>
            <Time>2020-12-05T13:03:23.000Z</Time>
            <Position>
              <LatitudeDegrees>36.82340023107826709747314453125</LatitudeDegrees>
              <LongitudeDegrees>-4.38386854715645313262939453125</LongitudeDegrees>
            </Position>
            <AltitudeMeters>788.79998779296875</AltitudeMeters>
            <DistanceMeters>NAN</DistanceMeters>
          </Trackpoint>
          <Trackpoint>
            <Time>2020-12-05T13:03:24.000Z</Time>
            <Position>
              <LatitudeDegrees>36.82339235208928585052490234375</LatitudeDegrees>
              <LongitudeDegrees>-4.38388396985828876495361328125</LongitudeDegrees>
            </Position>
            <AltitudeMeters>788.79998779296875</AltitudeMeters>
            <DistanceMeters>NAN</DistanceMeters>
          </Trackpoint>
          <Trackpoint>
            <Time>2020-12-05T13:03:25.000Z</Time>
            <Position>
              <LatitudeDegrees>36.8233855627477169036865234375</LatitudeDegrees>
              <LongitudeDegrees>-4.3838917650282382965087890625</LongitudeDegrees>
            </Position>
            <AltitudeMeters>788.79998779296875</AltitudeMeters>
            <DistanceMeters>NAN</DistanceMeters>
          </Trackpoint>
          <Trackpoint>
            <Time>2020-12-05T13:03:26.000Z</Time>
            <Position>
              <LatitudeDegrees>36.823378019034862518310546875</LatitudeDegrees>
              <LongitudeDegrees>-4.3838954530656337738037109375</LongitudeDegrees>
            </Position>
            <AltitudeMeters>788.79998779296875</AltitudeMeters>
            <DistanceMeters>NAN</DistanceMeters>
          </Trackpoint>
          <Trackpoint>
            <Time>2020-12-05T13:03:27.000Z</Time>
            <Position>
              <LatitudeDegrees>36.82337156496942043304443359375</LatitudeDegrees>
              <LongitudeDegrees>-4.38389117829501628875732421875</LongitudeDegrees>
            </Position>
            <AltitudeMeters>788.79998779296875</AltitudeMeters>
            <DistanceMeters>NAN</DistanceMeters>
          </Trackpoint>
          <Trackpoint>
            <Time>2020-12-05T13:03:28.000Z</Time>
            <Position>
              <LatitudeDegrees>36.82336628437042236328125</LatitudeDegrees>
              <LongitudeDegrees>-4.38388732261955738067626953125</LongitudeDegrees>
            </Position>
            <AltitudeMeters>788.79998779296875</AltitudeMeters>
            <DistanceMeters>NAN</DistanceMeters>
          </Trackpoint>
          <Trackpoint>
            <Time>2020-12-05T13:03:29.000Z</Time>
            <Position>
              <LatitudeDegrees>36.82336150668561458587646484375</LatitudeDegrees>
              <LongitudeDegrees>-4.383885562419891357421875</LongitudeDegrees>
            </Position>
            <AltitudeMeters>788.79998779296875</AltitudeMeters>
            <DistanceMeters>NAN</DistanceMeters>
          </Trackpoint>
          <Trackpoint>
            <Time>2020-12-05T13:03:30.000Z</Time>
            <Position>
              <LatitudeDegrees>36.82335714809596538543701171875</LatitudeDegrees>
              <LongitudeDegrees>-4.3838843889534473419189453125</LongitudeDegrees>
            </Position>
            <AltitudeMeters>788.79998779296875</AltitudeMeters>
            <DistanceMeters>NAN</DistanceMeters>
          </Trackpoint>
          <Trackpoint>
            <Time>2020-12-05T13:03:31.000Z</Time>
            <Position>
              <LatitudeDegrees>36.8233537115156650543212890625</LatitudeDegrees>
              <LongitudeDegrees>-4.3838840536773204803466796875</LongitudeDegrees>
            </Position>
            <AltitudeMeters>788.79998779296875</AltitudeMeters>
            <DistanceMeters>NAN</DistanceMeters>
          </Trackpoint>
          <Trackpoint>
            <Time>2020-12-05T13:03:32.000Z</Time>
            <Position>
              <LatitudeDegrees>36.8233500234782695770263671875</LatitudeDegrees>
              <LongitudeDegrees>-4.38388497568666934967041015625</LongitudeDegrees>
            </Position>
            <AltitudeMeters>788.79998779296875</AltitudeMeters>
            <DistanceMeters>NAN</DistanceMeters>
          </Trackpoint>
          <Trackpoint>
            <Time>2020-12-05T13:03:33.000Z</Time>
            <Position>
              <LatitudeDegrees>36.82334541343152523040771484375</LatitudeDegrees>
              <LongitudeDegrees>-4.38388598151504993438720703125</LongitudeDegrees>
            </Position>
            <AltitudeMeters>788.79998779296875</AltitudeMeters>
            <DistanceMeters>NAN</DistanceMeters>
          </Trackpoint>
          <Trackpoint>
            <Time>2020-12-05T13:03:34.000Z</Time>
            <Position>
              <LatitudeDegrees>36.8233396299183368682861328125</LatitudeDegrees>
              <LongitudeDegrees>-4.38388531096279621124267578125</LongitudeDegrees>
            </Position>
            <AltitudeMeters>788.79998779296875</AltitudeMeters>
            <DistanceMeters>NAN</DistanceMeters>
          </Trackpoint>
          <Trackpoint>
            <Time>2020-12-05T13:03:35.000Z</Time>
            <Position>
              <LatitudeDegrees>36.8233315832912921905517578125</LatitudeDegrees>
              <LongitudeDegrees>-4.38388246111571788787841796875</LongitudeDegrees>
            </Position>
            <AltitudeMeters>788.79998779296875</AltitudeMeters>
            <DistanceMeters>NAN</DistanceMeters>
          </Trackpoint>
          <Trackpoint>
            <Time>2020-12-05T13:03:36.000Z</Time>
            <Position>
              <LatitudeDegrees>36.82332294993102550506591796875</LatitudeDegrees>
              <LongitudeDegrees>-4.3838763423264026641845703125</LongitudeDegrees>
            </Position>
            <AltitudeMeters>788.79998779296875</AltitudeMeters>
            <DistanceMeters>NAN</DistanceMeters>
          </Trackpoint>
          <Trackpoint>
            <Time>2020-12-05T13:03:37.000Z</Time>
            <Position>
              <LatitudeDegrees>36.823316328227519989013671875</LatitudeDegrees>
              <LongitudeDegrees>-4.38387290574610233306884765625</LongitudeDegrees>
            </Position>
            <AltitudeMeters>788.79998779296875</AltitudeMeters>
            <DistanceMeters>NAN</DistanceMeters>
          </Trackpoint>
          <Trackpoint>
            <Time>2020-12-05T13:03:38.000Z</Time>
            <Position>
              <LatitudeDegrees>36.8233112990856170654296875</LatitudeDegrees>
              <LongitudeDegrees>-4.3838719837367534637451171875</LongitudeDegrees>
            </Position>
            <AltitudeMeters>788.79998779296875</AltitudeMeters>
            <DistanceMeters>NAN</DistanceMeters>
          </Trackpoint>
          <Trackpoint>
            <Time>2020-12-05T13:03:39.000Z</Time>
            <Position>
              <LatitudeDegrees>36.8233091197907924652099609375</LatitudeDegrees>
              <LongitudeDegrees>-4.38387659378349781036376953125</LongitudeDegrees>
            </Position>
            <AltitudeMeters>788.79998779296875</AltitudeMeters>
            <DistanceMeters>NAN</DistanceMeters>
          </Trackpoint>
          <Trackpoint>
            <Time>2020-12-05T13:03:40.000Z</Time>
            <Position>
              <LatitudeDegrees>36.8233094550669193267822265625</LatitudeDegrees>
              <LongitudeDegrees>-4.3838827125728130340576171875</LongitudeDegrees>
            </Position>
            <AltitudeMeters>788.79998779296875</AltitudeMeters>
            <DistanceMeters>NAN</DistanceMeters>
          </Trackpoint>
          <Trackpoint>
            <Time>2020-12-05T13:03:41.000Z</Time>
            <Position>
              <LatitudeDegrees>36.8233074434101581573486328125</LatitudeDegrees>
              <LongitudeDegrees>-4.38388648442924022674560546875</LongitudeDegrees>
            </Position>
            <AltitudeMeters>788.79998779296875</AltitudeMeters>
            <DistanceMeters>NAN</DistanceMeters>
          </Trackpoint>
          <Trackpoint>
            <Time>2020-12-05T13:03:42.000Z</Time>
            <Position>
              <LatitudeDegrees>36.82330551557242870330810546875</LatitudeDegrees>
              <LongitudeDegrees>-4.3838890828192234039306640625</LongitudeDegrees>
            </Position>
            <AltitudeMeters>788.79998779296875</AltitudeMeters>
            <DistanceMeters>NAN</DistanceMeters>
          </Trackpoint>
          <Trackpoint>
            <Time>2020-12-05T13:03:43.000Z</Time>
            <Position>
              <LatitudeDegrees>36.823302917182445526123046875</LatitudeDegrees>
              <LongitudeDegrees>-4.3838907591998577117919921875</LongitudeDegrees>
            </Position>
            <AltitudeMeters>788.79998779296875</AltitudeMeters>
            <DistanceMeters>NAN</DistanceMeters>
          </Trackpoint>
          <Trackpoint>
            <Time>2020-12-05T13:03:44.000Z</Time>
            <Position>
              <LatitudeDegrees>36.82329881004989147186279296875</LatitudeDegrees>
              <LongitudeDegrees>-4.38389151357114315032958984375</LongitudeDegrees>
            </Position>
            <AltitudeMeters>788.79998779296875</AltitudeMeters>
            <DistanceMeters>NAN</DistanceMeters>
          </Trackpoint>
          <Trackpoint>
            <Time>2020-12-05T13:03:45.000Z</Time>
            <Position>
              <LatitudeDegrees>36.82329512201249599456787109375</LatitudeDegrees>
              <LongitudeDegrees>-4.383892603218555450439453125</LongitudeDegrees>
            </Position>
            <AltitudeMeters>788.79998779296875</AltitudeMeters>
            <DistanceMeters>NAN</DistanceMeters>
          </Trackpoint>
          <Trackpoint>
            <Time>2020-12-05T13:03:46.000Z</Time>
            <Position>
              <LatitudeDegrees>36.82329009287059307098388671875</LatitudeDegrees>
              <LongitudeDegrees>-4.3838977999985218048095703125</LongitudeDegrees>
            </Position>
            <AltitudeMeters>788.79998779296875</AltitudeMeters>
            <DistanceMeters>NAN</DistanceMeters>
          </Trackpoint>
          <Trackpoint>
            <Time>2020-12-05T13:03:47.000Z</Time>
            <Position>
              <LatitudeDegrees>36.8232839740812778472900390625</LatitudeDegrees>
              <LongitudeDegrees>-4.383901655673980712890625</LongitudeDegrees>
            </Position>
            <AltitudeMeters>788.79998779296875</AltitudeMeters>
            <DistanceMeters>NAN</DistanceMeters>
          </Trackpoint>
          <Trackpoint>
            <Time>2020-12-05T13:03:48.000Z</Time>
            <Position>
              <LatitudeDegrees>36.82327399961650371551513671875</LatitudeDegrees>
              <LongitudeDegrees>-4.38390232622623443603515625</LongitudeDegrees>
            </Position>
            <AltitudeMeters>788.79998779296875</AltitudeMeters>
            <DistanceMeters>NAN</DistanceMeters>
          </Trackpoint>
          <Trackpoint>
            <Time>2020-12-05T13:03:49.000Z</Time>
            <Position>
              <LatitudeDegrees>36.82325907982885837554931640625</LatitudeDegrees>
              <LongitudeDegrees>-4.383910037577152252197265625</LongitudeDegrees>
            </Position>
            <AltitudeMeters>788.79998779296875</AltitudeMeters>
            <DistanceMeters>NAN</DistanceMeters>
          </Trackpoint>
          <Trackpoint>
            <Time>2020-12-05T13:03:50.000Z</Time>
            <Position>
              <LatitudeDegrees>36.8232474289834499359130859375</LatitudeDegrees>
              <LongitudeDegrees>-4.3839165754616260528564453125</LongitudeDegrees>
            </Position>
            <AltitudeMeters>788.79998779296875</AltitudeMeters>
            <DistanceMeters>NAN</DistanceMeters>
          </Trackpoint>
          <Trackpoint>
            <Time>2020-12-05T13:03:51.000Z</Time>
            <Position>
              <LatitudeDegrees>36.82323628105223178863525390625</LatitudeDegrees>
              <LongitudeDegrees>-4.3839199282228946685791015625</LongitudeDegrees>
            </Position>
            <AltitudeMeters>788.79998779296875</AltitudeMeters>
            <DistanceMeters>NAN</DistanceMeters>
          </Trackpoint>
          <Trackpoint>
            <Time>2020-12-05T13:03:52.000Z</Time>
            <Position>
              <LatitudeDegrees>36.82322706095874309539794921875</LatitudeDegrees>
              <LongitudeDegrees>-4.3839216046035289764404296875</LongitudeDegrees>
            </Position>
            <AltitudeMeters>788.79998779296875</AltitudeMeters>
            <DistanceMeters>NAN</DistanceMeters>
          </Trackpoint>
          <Trackpoint>
            <Time>2020-12-05T13:03:53.000Z</Time>
            <Position>
              <LatitudeDegrees>36.8232206068933010101318359375</LatitudeDegrees>
              <LongitudeDegrees>-4.38392386771738529205322265625</LongitudeDegrees>
            </Position>
            <AltitudeMeters>788.79998779296875</AltitudeMeters>
            <DistanceMeters>NAN</DistanceMeters>
          </Trackpoint>
          <Trackpoint>
            <Time>2020-12-05T13:03:54.000Z</Time>
            <Position>
              <LatitudeDegrees>36.82321582920849323272705078125</LatitudeDegrees>
              <LongitudeDegrees>-4.383921436965465545654296875</LongitudeDegrees>
            </Position>
            <AltitudeMeters>788.79998779296875</AltitudeMeters>
            <DistanceMeters>NAN</DistanceMeters>
          </Trackpoint>
          <Trackpoint>
            <Time>2020-12-05T13:03:55.000Z</Time>
            <Position>
              <LatitudeDegrees>36.8232088722288608551025390625</LatitudeDegrees>
              <LongitudeDegrees>-4.38392034731805324554443359375</LongitudeDegrees>
            </Position>
            <AltitudeMeters>788.79998779296875</AltitudeMeters>
            <DistanceMeters>NAN</DistanceMeters>
          </Trackpoint>
          <Trackpoint>
            <Time>2020-12-05T13:03:56.000Z</Time>
            <Position>
              <LatitudeDegrees>36.8231991492211818695068359375</LatitudeDegrees>
              <LongitudeDegrees>-4.38392051495611667633056640625</LongitudeDegrees>
            </Position>
            <AltitudeMeters>788.79998779296875</AltitudeMeters>
            <DistanceMeters>NAN</DistanceMeters>
          </Trackpoint>
          <Trackpoint>
            <Time>2020-12-05T13:03:57.000Z</Time>
            <Position>
              <LatitudeDegrees>36.82319001294672489166259765625</LatitudeDegrees>
              <LongitudeDegrees>-4.3839212693274021148681640625</LongitudeDegrees>
            </Position>
            <AltitudeMeters>788.79998779296875</AltitudeMeters>
            <DistanceMeters>NAN</DistanceMeters>
          </Trackpoint>
          <Trackpoint>
            <Time>2020-12-05T13:03:58.000Z</Time>
            <Position>
              <LatitudeDegrees>36.82318565435707569122314453125</LatitudeDegrees>
              <LongitudeDegrees>-4.38392470590770244598388671875</LongitudeDegrees>
            </Position>
            <AltitudeMeters>788.79998779296875</AltitudeMeters>
            <DistanceMeters>NAN</DistanceMeters>
          </Trackpoint>
          <Trackpoint>
            <Time>2020-12-05T13:03:59.000Z</Time>
            <Position>
              <LatitudeDegrees>36.82318163104355335235595703125</LatitudeDegrees>
              <LongitudeDegrees>-4.3839262984693050384521484375</LongitudeDegrees>
            </Position>
            <AltitudeMeters>788.79998779296875</AltitudeMeters>
            <DistanceMeters>NAN</DistanceMeters>
          </Trackpoint>
          <Trackpoint>
            <Time>2020-12-05T13:04:00.000Z</Time>
            <Position>
              <LatitudeDegrees>36.82317827828228473663330078125</LatitudeDegrees>
              <LongitudeDegrees>-4.38392646610736846923828125</LongitudeDegrees>
            </Position>
            <AltitudeMeters>787.79998779296875</AltitudeMeters>
            <DistanceMeters>NAN</DistanceMeters>
          </Trackpoint>
          <Trackpoint>
            <Time>2020-12-05T13:04:01.000Z</Time>
            <Position>
              <LatitudeDegrees>36.82317475788295269012451171875</LatitudeDegrees>
              <LongitudeDegrees>-4.3839244544506072998046875</LongitudeDegrees>
            </Position>
            <AltitudeMeters>787.79998779296875</AltitudeMeters>
            <DistanceMeters>NAN</DistanceMeters>
          </Trackpoint>
          <Trackpoint>
            <Time>2020-12-05T13:04:02.000Z</Time>
            <Position>
              <LatitudeDegrees>36.82317391969263553619384765625</LatitudeDegrees>
              <LongitudeDegrees>-4.38392101787030696868896484375</LongitudeDegrees>
            </Position>
            <AltitudeMeters>787.79998779296875</AltitudeMeters>
            <DistanceMeters>NAN</DistanceMeters>
          </Trackpoint>
          <Trackpoint>
            <Time>2020-12-05T13:04:03.000Z</Time>
            <Position>
              <LatitudeDegrees>36.8231783621013164520263671875</LatitudeDegrees>
              <LongitudeDegrees>-4.383922107517719268798828125</LongitudeDegrees>
            </Position>
            <AltitudeMeters>787.79998779296875</AltitudeMeters>
            <DistanceMeters>NAN</DistanceMeters>
          </Trackpoint>
          <Trackpoint>
            <Time>2020-12-05T13:04:04.000Z</Time>
            <Position>
              <LatitudeDegrees>36.8231837265193462371826171875</LatitudeDegrees>
              <LongitudeDegrees>-4.3839262984693050384521484375</LongitudeDegrees>
            </Position>
            <AltitudeMeters>787.79998779296875</AltitudeMeters>
            <DistanceMeters>NAN</DistanceMeters>
          </Trackpoint>
          <Trackpoint>
            <Time>2020-12-05T13:04:05.000Z</Time>
            <Position>
              <LatitudeDegrees>36.82318431325256824493408203125</LatitudeDegrees>
              <LongitudeDegrees>-4.38393048942089080810546875</LongitudeDegrees>
            </Position>
            <AltitudeMeters>787.79998779296875</AltitudeMeters>
            <DistanceMeters>NAN</DistanceMeters>
          </Trackpoint>
          <Trackpoint>
            <Time>2020-12-05T13:04:06.000Z</Time>
            <Position>
              <LatitudeDegrees>36.82318850420415401458740234375</LatitudeDegrees>
              <LongitudeDegrees>-4.38393359072506427764892578125</LongitudeDegrees>
            </Position>
            <AltitudeMeters>787.79998779296875</AltitudeMeters>
            <DistanceMeters>NAN</DistanceMeters>
          </Trackpoint>
          <Trackpoint>
            <Time>2020-12-05T13:04:07.000Z</Time>
            <Position>
              <LatitudeDegrees>36.8231941200792789459228515625</LatitudeDegrees>
              <LongitudeDegrees>-4.38393224962055683135986328125</LongitudeDegrees>
            </Position>
            <AltitudeMeters>787.79998779296875</AltitudeMeters>
            <DistanceMeters>NAN</DistanceMeters>
          </Trackpoint>
          <Trackpoint>
            <Time>2020-12-05T13:04:08.000Z</Time>
            <Position>
              <LatitudeDegrees>36.82319889776408672332763671875</LatitudeDegrees>
              <LongitudeDegrees>-4.3839309923350811004638671875</LongitudeDegrees>
            </Position>
            <AltitudeMeters>787.79998779296875</AltitudeMeters>
            <DistanceMeters>NAN</DistanceMeters>
          </Trackpoint>
          <Trackpoint>
            <Time>2020-12-05T13:04:09.000Z</Time>
            <Position>
              <LatitudeDegrees>36.82320225052535533905029296875</LatitudeDegrees>
              <LongitudeDegrees>-4.38393141143023967742919921875</LongitudeDegrees>
            </Position>
            <AltitudeMeters>787.79998779296875</AltitudeMeters>
            <DistanceMeters>NAN</DistanceMeters>
          </Trackpoint>
          <Trackpoint>
            <Time>2020-12-05T13:04:10.000Z</Time>
            <Position>
              <LatitudeDegrees>36.82320459745824337005615234375</LatitudeDegrees>
              <LongitudeDegrees>-4.3839313276112079620361328125</LongitudeDegrees>
            </Position>
            <AltitudeMeters>787.79998779296875</AltitudeMeters>
            <DistanceMeters>NAN</DistanceMeters>
          </Trackpoint>
          <Trackpoint>
            <Time>2020-12-05T13:04:11.000Z</Time>
            <Position>
              <LatitudeDegrees>36.82320761494338512420654296875</LatitudeDegrees>
              <LongitudeDegrees>-4.383929483592510223388671875</LongitudeDegrees>
            </Position>
            <AltitudeMeters>787.79998779296875</AltitudeMeters>
            <DistanceMeters>NAN</DistanceMeters>
          </Trackpoint>
          <Trackpoint>
            <Time>2020-12-05T13:04:12.000Z</Time>
            <Position>
              <LatitudeDegrees>36.82320895604789257049560546875</LatitudeDegrees>
              <LongitudeDegrees>-4.38392554409801959991455078125</LongitudeDegrees>
            </Position>
            <AltitudeMeters>787.79998779296875</AltitudeMeters>
            <DistanceMeters>NAN</DistanceMeters>
          </Trackpoint>
          <Trackpoint>
            <Time>2020-12-05T13:04:13.000Z</Time>
            <Position>
              <LatitudeDegrees>36.82320862077176570892333984375</LatitudeDegrees>
              <LongitudeDegrees>-4.3839256279170513153076171875</LongitudeDegrees>
            </Position>
            <AltitudeMeters>787.79998779296875</AltitudeMeters>
            <DistanceMeters>NAN</DistanceMeters>
          </Trackpoint>
          <Trackpoint>
            <Time>2020-12-05T13:04:14.000Z</Time>
            <Position>
              <LatitudeDegrees>36.82320736348628997802734375</LatitudeDegrees>
              <LongitudeDegrees>-4.38392889685928821563720703125</LongitudeDegrees>
            </Position>
            <AltitudeMeters>787.79998779296875</AltitudeMeters>
            <DistanceMeters>NAN</DistanceMeters>
          </Trackpoint>
          <Trackpoint>
            <Time>2020-12-05T13:04:15.000Z</Time>
            <Position>
              <LatitudeDegrees>36.82320778258144855499267578125</LatitudeDegrees>
              <LongitudeDegrees>-4.3839351832866668701171875</LongitudeDegrees>
            </Position>
            <AltitudeMeters>787.79998779296875</AltitudeMeters>
            <DistanceMeters>NAN</DistanceMeters>
          </Trackpoint>
          <Trackpoint>
            <Time>2020-12-05T13:04:16.000Z</Time>
            <Position>
              <LatitudeDegrees>36.8232152424752712249755859375</LatitudeDegrees>
              <LongitudeDegrees>-4.38394767232239246368408203125</LongitudeDegrees>
            </Position>
            <AltitudeMeters>787.79998779296875</AltitudeMeters>
            <DistanceMeters>NAN</DistanceMeters>
          </Trackpoint>
          <Trackpoint>
            <Time>2020-12-05T13:04:17.000Z</Time>
            <Position>
              <LatitudeDegrees>36.82323141954839229583740234375</LatitudeDegrees>
              <LongitudeDegrees>-4.38396996818482875823974609375</LongitudeDegrees>
            </Position>
            <AltitudeMeters>787.79998779296875</AltitudeMeters>
            <DistanceMeters>NAN</DistanceMeters>
          </Trackpoint>
          <Trackpoint>
            <Time>2020-12-05T13:04:18.000Z</Time>
            <Position>
              <LatitudeDegrees>36.82324416004121303558349609375</LatitudeDegrees>
              <LongitudeDegrees>-4.38398991711437702178955078125</LongitudeDegrees>
            </Position>
            <AltitudeMeters>787.79998779296875</AltitudeMeters>
            <DistanceMeters>NAN</DistanceMeters>
          </Trackpoint>
          <Trackpoint>
            <Time>2020-12-05T13:04:19.000Z</Time>
            <Position>
              <LatitudeDegrees>36.82325170375406742095947265625</LatitudeDegrees>
              <LongitudeDegrees>-4.38400282524526119232177734375</LongitudeDegrees>
            </Position>
            <AltitudeMeters>787.79998779296875</AltitudeMeters>
            <DistanceMeters>NAN</DistanceMeters>
          </Trackpoint>
          <Trackpoint>
            <Time>2020-12-05T13:04:20.000Z</Time>
            <Position>
              <LatitudeDegrees>36.82325706817209720611572265625</LatitudeDegrees>
              <LongitudeDegrees>-4.3840144760906696319580078125</LongitudeDegrees>
            </Position>
            <AltitudeMeters>787.79998779296875</AltitudeMeters>
            <DistanceMeters>NAN</DistanceMeters>
          </Trackpoint>
          <Trackpoint>
            <Time>2020-12-05T13:04:21.000Z</Time>
            <Position>
              <LatitudeDegrees>36.82326159439980983734130859375</LatitudeDegrees>
              <LongitudeDegrees>-4.38402126543223857879638671875</LongitudeDegrees>
            </Position>
            <AltitudeMeters>787.79998779296875</AltitudeMeters>
            <DistanceMeters>NAN</DistanceMeters>
          </Trackpoint>
          <Trackpoint>
            <Time>2020-12-05T13:04:22.000Z</Time>
            <Position>
              <LatitudeDegrees>36.8232648633420467376708984375</LatitudeDegrees>
              <LongitudeDegrees>-4.38402612693607807159423828125</LongitudeDegrees>
            </Position>
            <AltitudeMeters>787.79998779296875</AltitudeMeters>
            <DistanceMeters>NAN</DistanceMeters>
          </Trackpoint>
          <Trackpoint>
            <Time>2020-12-05T13:04:23.000Z</Time>
            <Position>
              <LatitudeDegrees>36.8232683837413787841796875</LatitudeDegrees>
              <LongitudeDegrees>-4.38403266482055187225341796875</LongitudeDegrees>
            </Position>
            <AltitudeMeters>787.79998779296875</AltitudeMeters>
            <DistanceMeters>NAN</DistanceMeters>
          </Trackpoint>
          <Trackpoint>
            <Time>2020-12-05T13:04:24.000Z</Time>
            <Position>
              <LatitudeDegrees>36.8232682161033153533935546875</LatitudeDegrees>
              <LongitudeDegrees>-4.3840349279344081878662109375</LongitudeDegrees>
            </Position>
            <AltitudeMeters>787.79998779296875</AltitudeMeters>
            <DistanceMeters>NAN</DistanceMeters>
          </Trackpoint>
          <Trackpoint>
            <Time>2020-12-05T13:04:25.000Z</Time>
            <Position>
              <LatitudeDegrees>36.82326444424688816070556640625</LatitudeDegrees>
              <LongitudeDegrees>-4.38403283245861530303955078125</LongitudeDegrees>
            </Position>
            <AltitudeMeters>787.79998779296875</AltitudeMeters>
            <DistanceMeters>NAN</DistanceMeters>
          </Trackpoint>
          <Trackpoint>
            <Time>2020-12-05T13:04:26.000Z</Time>
            <Position>
              <LatitudeDegrees>36.82322748005390167236328125</LatitudeDegrees>
              <LongitudeDegrees>-4.3839782662689685821533203125</LongitudeDegrees>
            </Position>
            <AltitudeMeters>787.79998779296875</AltitudeMeters>
            <DistanceMeters>NAN</DistanceMeters>
          </Trackpoint>
          <Trackpoint>
            <Time>2020-12-05T13:04:27.000Z</Time>
            <Position>
              <LatitudeDegrees>36.82322136126458644866943359375</LatitudeDegrees>
              <LongitudeDegrees>-4.38396594487130641937255859375</LongitudeDegrees>
            </Position>
            <AltitudeMeters>787.79998779296875</AltitudeMeters>
            <DistanceMeters>NAN</DistanceMeters>
          </Trackpoint>
          <Trackpoint>
            <Time>2020-12-05T13:04:28.000Z</Time>
            <Position>
              <LatitudeDegrees>36.82321809232234954833984375</LatitudeDegrees>
              <LongitudeDegrees>-4.383958987891674041748046875</LongitudeDegrees>
            </Position>
            <AltitudeMeters>787.79998779296875</AltitudeMeters>
            <DistanceMeters>NAN</DistanceMeters>
          </Trackpoint>
          <Trackpoint>
            <Time>2020-12-05T13:04:29.000Z</Time>
            <Position>
              <LatitudeDegrees>36.8232201039791107177734375</LatitudeDegrees>
              <LongitudeDegrees>-4.38395370729267597198486328125</LongitudeDegrees>
            </Position>
            <AltitudeMeters>787.79998779296875</AltitudeMeters>
            <DistanceMeters>NAN</DistanceMeters>
          </Trackpoint>
          <Trackpoint>
            <Time>2020-12-05T13:04:30.000Z</Time>
            <Position>
              <LatitudeDegrees>36.8232222832739353179931640625</LatitudeDegrees>
              <LongitudeDegrees>-4.38395136035978794097900390625</LongitudeDegrees>
            </Position>
            <AltitudeMeters>787.79998779296875</AltitudeMeters>
            <DistanceMeters>NAN</DistanceMeters>
          </Trackpoint>
          <Trackpoint>
            <Time>2020-12-05T13:04:31.000Z</Time>
            <Position>
              <LatitudeDegrees>36.82322345674037933349609375</LatitudeDegrees>
              <LongitudeDegrees>-4.38394800759851932525634765625</LongitudeDegrees>
            </Position>
            <AltitudeMeters>787.79998779296875</AltitudeMeters>
            <DistanceMeters>NAN</DistanceMeters>
          </Trackpoint>
          <Trackpoint>
            <Time>2020-12-05T13:04:32.000Z</Time>
            <Position>
              <LatitudeDegrees>36.82322270236909389495849609375</LatitudeDegrees>
              <LongitudeDegrees>-4.383946247398853302001953125</LongitudeDegrees>
            </Position>
            <AltitudeMeters>787.79998779296875</AltitudeMeters>
            <DistanceMeters>NAN</DistanceMeters>
          </Trackpoint>
          <Trackpoint>
            <Time>2020-12-05T13:04:33.000Z</Time>
            <Position>
              <LatitudeDegrees>36.823218762874603271484375</LatitudeDegrees>
              <LongitudeDegrees>-4.38394448719918727874755859375</LongitudeDegrees>
            </Position>
            <AltitudeMeters>787.79998779296875</AltitudeMeters>
            <DistanceMeters>NAN</DistanceMeters>
          </Trackpoint>
          <Trackpoint>
            <Time>2020-12-05T13:04:34.000Z</Time>
            <Position>
              <LatitudeDegrees>36.82321649976074695587158203125</LatitudeDegrees>
              <LongitudeDegrees>-4.38393962569534778594970703125</LongitudeDegrees>
            </Position>
            <AltitudeMeters>787.79998779296875</AltitudeMeters>
            <DistanceMeters>NAN</DistanceMeters>
          </Trackpoint>
          <Trackpoint>
            <Time>2020-12-05T13:04:35.000Z</Time>
            <Position>
              <LatitudeDegrees>36.82321314699947834014892578125</LatitudeDegrees>
              <LongitudeDegrees>-4.383938200771808624267578125</LongitudeDegrees>
            </Position>
            <AltitudeMeters>787.79998779296875</AltitudeMeters>
            <DistanceMeters>NAN</DistanceMeters>
          </Trackpoint>
          <Trackpoint>
            <Time>2020-12-05T13:04:36.000Z</Time>
            <Position>
              <LatitudeDegrees>36.82320945896208286285400390625</LatitudeDegrees>
              <LongitudeDegrees>-4.38393711112439632415771484375</LongitudeDegrees>
            </Position>
            <AltitudeMeters>787.79998779296875</AltitudeMeters>
            <DistanceMeters>NAN</DistanceMeters>
          </Trackpoint>
          <Trackpoint>
            <Time>2020-12-05T13:04:37.000Z</Time>
            <Position>
              <LatitudeDegrees>36.82320510037243366241455078125</LatitudeDegrees>
              <LongitudeDegrees>-4.38393644057214260101318359375</LongitudeDegrees>
            </Position>
            <AltitudeMeters>787.79998779296875</AltitudeMeters>
            <DistanceMeters>NAN</DistanceMeters>
          </Trackpoint>
          <Trackpoint>
            <Time>2020-12-05T13:04:38.000Z</Time>
            <Position>
              <LatitudeDegrees>36.82319923304021358489990234375</LatitudeDegrees>
              <LongitudeDegrees>-4.3839350156486034393310546875</LongitudeDegrees>
            </Position>
            <AltitudeMeters>787.79998779296875</AltitudeMeters>
            <DistanceMeters>NAN</DistanceMeters>
          </Trackpoint>
          <Trackpoint>
            <Time>2020-12-05T13:04:39.000Z</Time>
            <Position>
              <LatitudeDegrees>36.82319554500281810760498046875</LatitudeDegrees>
              <LongitudeDegrees>-4.38393241725862026214599609375</LongitudeDegrees>
            </Position>
            <AltitudeMeters>787.79998779296875</AltitudeMeters>
            <DistanceMeters>NAN</DistanceMeters>
          </Trackpoint>
          <Trackpoint>
            <Time>2020-12-05T13:04:40.000Z</Time>
            <Position>
              <LatitudeDegrees>36.82319303043186664581298828125</LatitudeDegrees>
              <LongitudeDegrees>-4.3839309923350811004638671875</LongitudeDegrees>
            </Position>
            <AltitudeMeters>787.79998779296875</AltitudeMeters>
            <DistanceMeters>NAN</DistanceMeters>
          </Trackpoint>
          <Trackpoint>
            <Time>2020-12-05T13:04:41.000Z</Time>
            <Position>
              <LatitudeDegrees>36.82319135405123233795166015625</LatitudeDegrees>
              <LongitudeDegrees>-4.38392906449735164642333984375</LongitudeDegrees>
            </Position>
            <AltitudeMeters>787.79998779296875</AltitudeMeters>
            <DistanceMeters>NAN</DistanceMeters>
          </Trackpoint>
          <Trackpoint>
            <Time>2020-12-05T13:04:42.000Z</Time>
            <Position>
              <LatitudeDegrees>36.82319001294672489166259765625</LatitudeDegrees>
              <LongitudeDegrees>-4.38392738811671733856201171875</LongitudeDegrees>
            </Position>
            <AltitudeMeters>787.79998779296875</AltitudeMeters>
            <DistanceMeters>NAN</DistanceMeters>
          </Trackpoint>
          <Trackpoint>
            <Time>2020-12-05T13:04:43.000Z</Time>
            <Position>
              <LatitudeDegrees>36.8231887556612491607666015625</LatitudeDegrees>
              <LongitudeDegrees>-4.38392822630703449249267578125</LongitudeDegrees>
            </Position>
            <AltitudeMeters>787.79998779296875</AltitudeMeters>
            <DistanceMeters>NAN</DistanceMeters>
          </Trackpoint>
          <Trackpoint>
            <Time>2020-12-05T13:04:44.000Z</Time>
            <Position>
              <LatitudeDegrees>36.8231880851089954376220703125</LatitudeDegrees>
              <LongitudeDegrees>-4.3839296512305736541748046875</LongitudeDegrees>
            </Position>
            <AltitudeMeters>787.79998779296875</AltitudeMeters>
            <DistanceMeters>NAN</DistanceMeters>
          </Trackpoint>
          <Trackpoint>
            <Time>2020-12-05T13:04:45.000Z</Time>
            <Position>
              <LatitudeDegrees>36.823190264403820037841796875</LatitudeDegrees>
              <LongitudeDegrees>-4.3839306570589542388916015625</LongitudeDegrees>
            </Position>
            <AltitudeMeters>787.79998779296875</AltitudeMeters>
            <DistanceMeters>NAN</DistanceMeters>
          </Trackpoint>
          <Trackpoint>
            <Time>2020-12-05T13:04:46.000Z</Time>
            <Position>
              <LatitudeDegrees>36.82319537736475467681884765625</LatitudeDegrees>
              <LongitudeDegrees>-4.38393048942089080810546875</LongitudeDegrees>
            </Position>
            <AltitudeMeters>787.79998779296875</AltitudeMeters>
            <DistanceMeters>NAN</DistanceMeters>
          </Trackpoint>
          <Trackpoint>
            <Time>2020-12-05T13:04:47.000Z</Time>
            <Position>
              <LatitudeDegrees>36.82319973595440387725830078125</LatitudeDegrees>
              <LongitudeDegrees>-4.383929483592510223388671875</LongitudeDegrees>
            </Position>
            <AltitudeMeters>787.79998779296875</AltitudeMeters>
            <DistanceMeters>NAN</DistanceMeters>
          </Trackpoint>
          <Trackpoint>
            <Time>2020-12-05T13:04:48.000Z</Time>
            <Position>
              <LatitudeDegrees>36.8232040107250213623046875</LatitudeDegrees>
              <LongitudeDegrees>-4.38392906449735164642333984375</LongitudeDegrees>
            </Position>
            <AltitudeMeters>787.79998779296875</AltitudeMeters>
            <DistanceMeters>NAN</DistanceMeters>
          </Trackpoint>
          <Trackpoint>
            <Time>2020-12-05T13:04:49.000Z</Time>
            <Position>
              <LatitudeDegrees>36.8232082016766071319580078125</LatitudeDegrees>
              <LongitudeDegrees>-4.38392956741154193878173828125</LongitudeDegrees>
            </Position>
            <AltitudeMeters>787.79998779296875</AltitudeMeters>
            <DistanceMeters>NAN</DistanceMeters>
          </Trackpoint>
          <Trackpoint>
            <Time>2020-12-05T13:04:50.000Z</Time>
            <Position>
              <LatitudeDegrees>36.823211051523685455322265625</LatitudeDegrees>
              <LongitudeDegrees>-4.38393048942089080810546875</LongitudeDegrees>
            </Position>
            <AltitudeMeters>787.79998779296875</AltitudeMeters>
            <DistanceMeters>NAN</DistanceMeters>
          </Trackpoint>
          <Trackpoint>
            <Time>2020-12-05T13:04:51.000Z</Time>
            <Position>
              <LatitudeDegrees>36.8232122249901294708251953125</LatitudeDegrees>
              <LongitudeDegrees>-4.38393359072506427764892578125</LongitudeDegrees>
            </Position>
            <AltitudeMeters>787.79998779296875</AltitudeMeters>
            <DistanceMeters>NAN</DistanceMeters>
          </Trackpoint>
          <Trackpoint>
            <Time>2020-12-05T13:04:52.000Z</Time>
            <Position>
              <LatitudeDegrees>36.82321214117109775543212890625</LatitudeDegrees>
              <LongitudeDegrees>-4.38393476419150829315185546875</LongitudeDegrees>
            </Position>
            <AltitudeMeters>787.79998779296875</AltitudeMeters>
            <DistanceMeters>NAN</DistanceMeters>
          </Trackpoint>
          <Trackpoint>
            <Time>2020-12-05T13:04:53.000Z</Time>
            <Position>
              <LatitudeDegrees>36.82321096770465373992919921875</LatitudeDegrees>
              <LongitudeDegrees>-4.38393593765795230865478515625</LongitudeDegrees>
            </Position>
            <AltitudeMeters>787.79998779296875</AltitudeMeters>
            <DistanceMeters>NAN</DistanceMeters>
          </Trackpoint>
          <Trackpoint>
            <Time>2020-12-05T13:04:54.000Z</Time>
            <Position>
              <LatitudeDegrees>36.82321247644722461700439453125</LatitudeDegrees>
              <LongitudeDegrees>-4.3839378654956817626953125</LongitudeDegrees>
            </Position>
            <AltitudeMeters>787.79998779296875</AltitudeMeters>
            <DistanceMeters>NAN</DistanceMeters>
          </Trackpoint>
          <Trackpoint>
            <Time>2020-12-05T13:04:55.000Z</Time>
            <Position>
              <LatitudeDegrees>36.8232149071991443634033203125</LatitudeDegrees>
              <LongitudeDegrees>-4.38393878750503063201904296875</LongitudeDegrees>
            </Position>
            <AltitudeMeters>787.79998779296875</AltitudeMeters>
            <DistanceMeters>NAN</DistanceMeters>
          </Trackpoint>
          <Trackpoint>
            <Time>2020-12-05T13:04:56.000Z</Time>
            <Position>
              <LatitudeDegrees>36.8232159130275249481201171875</LatitudeDegrees>
              <LongitudeDegrees>-4.383940212428569793701171875</LongitudeDegrees>
            </Position>
            <AltitudeMeters>787.79998779296875</AltitudeMeters>
            <DistanceMeters>NAN</DistanceMeters>
          </Trackpoint>
          <Trackpoint>
            <Time>2020-12-05T13:04:57.000Z</Time>
            <Position>
              <LatitudeDegrees>36.823213063180446624755859375</LatitudeDegrees>
              <LongitudeDegrees>-4.3839433975517749786376953125</LongitudeDegrees>
            </Position>
            <AltitudeMeters>787.79998779296875</AltitudeMeters>
            <DistanceMeters>NAN</DistanceMeters>
          </Trackpoint>
          <Trackpoint>
            <Time>2020-12-05T13:04:58.000Z</Time>
            <Position>
              <LatitudeDegrees>36.823208034038543701171875</LatitudeDegrees>
              <LongitudeDegrees>-4.383944571018218994140625</LongitudeDegrees>
            </Position>
            <AltitudeMeters>787.79998779296875</AltitudeMeters>
            <DistanceMeters>NAN</DistanceMeters>
          </Trackpoint>
          <Trackpoint>
            <Time>2020-12-05T13:04:59.000Z</Time>
            <Position>
              <LatitudeDegrees>36.82320174761116504669189453125</LatitudeDegrees>
              <LongitudeDegrees>-4.38394666649401187896728515625</LongitudeDegrees>
            </Position>
            <AltitudeMeters>787.79998779296875</AltitudeMeters>
            <DistanceMeters>NAN</DistanceMeters>
          </Trackpoint>
          <Trackpoint>
            <Time>2020-12-05T13:05:00.000Z</Time>
            <Position>
              <LatitudeDegrees>36.8231951259076595306396484375</LatitudeDegrees>
              <LongitudeDegrees>-4.383946247398853302001953125</LongitudeDegrees>
            </Position>
            <AltitudeMeters>782.20001220703125</AltitudeMeters>
            <DistanceMeters>NAN</DistanceMeters>
          </Trackpoint>
          <Trackpoint>
            <Time>2020-12-05T13:05:01.000Z</Time>
            <Position>
              <LatitudeDegrees>36.82318783365190029144287109375</LatitudeDegrees>
              <LongitudeDegrees>-4.38394649885594844818115234375</LongitudeDegrees>
            </Position>
            <AltitudeMeters>782.20001220703125</AltitudeMeters>
            <DistanceMeters>NAN</DistanceMeters>
          </Trackpoint>
          <Trackpoint>
            <Time>2020-12-05T13:05:02.000Z</Time>
            <Position>
              <LatitudeDegrees>36.82318163104355335235595703125</LatitudeDegrees>
              <LongitudeDegrees>-4.3839427269995212554931640625</LongitudeDegrees>
            </Position>
            <AltitudeMeters>782.20001220703125</AltitudeMeters>
            <DistanceMeters>NAN</DistanceMeters>
          </Trackpoint>
          <Trackpoint>
            <Time>2020-12-05T13:05:03.000Z</Time>
            <Position>
              <LatitudeDegrees>36.8231797032058238983154296875</LatitudeDegrees>
              <LongitudeDegrees>-4.38393878750503063201904296875</LongitudeDegrees>
            </Position>
            <AltitudeMeters>782.20001220703125</AltitudeMeters>
            <DistanceMeters>NAN</DistanceMeters>
          </Trackpoint>
          <Trackpoint>
            <Time>2020-12-05T13:05:04.000Z</Time>
            <Position>
              <LatitudeDegrees>36.823179535567760467529296875</LatitudeDegrees>
              <LongitudeDegrees>-4.38393585383892059326171875</LongitudeDegrees>
            </Position>
            <AltitudeMeters>782.20001220703125</AltitudeMeters>
            <DistanceMeters>NAN</DistanceMeters>
          </Trackpoint>
          <Trackpoint>
            <Time>2020-12-05T13:05:05.000Z</Time>
            <Position>
              <LatitudeDegrees>36.82318188250064849853515625</LatitudeDegrees>
              <LongitudeDegrees>-4.383932165801525115966796875</LongitudeDegrees>
            </Position>
            <AltitudeMeters>782.20001220703125</AltitudeMeters>
            <DistanceMeters>NAN</DistanceMeters>
          </Trackpoint>
          <Trackpoint>
            <Time>2020-12-05T13:05:06.000Z</Time>
            <Position>
              <LatitudeDegrees>36.82318313978612422943115234375</LatitudeDegrees>
              <LongitudeDegrees>-4.38393074087798595428466796875</LongitudeDegrees>
            </Position>
            <AltitudeMeters>782.20001220703125</AltitudeMeters>
            <DistanceMeters>NAN</DistanceMeters>
          </Trackpoint>
          <Trackpoint>
            <Time>2020-12-05T13:05:07.000Z</Time>
            <Position>
              <LatitudeDegrees>36.82318448089063167572021484375</LatitudeDegrees>
              <LongitudeDegrees>-4.3839273042976856231689453125</LongitudeDegrees>
            </Position>
            <AltitudeMeters>782.20001220703125</AltitudeMeters>
            <DistanceMeters>NAN</DistanceMeters>
          </Trackpoint>
          <Trackpoint>
            <Time>2020-12-05T13:05:08.000Z</Time>
            <Position>
              <LatitudeDegrees>36.8231870792806148529052734375</LatitudeDegrees>
              <LongitudeDegrees>-4.38392512500286102294921875</LongitudeDegrees>
            </Position>
            <AltitudeMeters>782.20001220703125</AltitudeMeters>
            <DistanceMeters>NAN</DistanceMeters>
          </Trackpoint>
          <Trackpoint>
            <Time>2020-12-05T13:05:09.000Z</Time>
            <Position>
              <LatitudeDegrees>36.8231914378702640533447265625</LatitudeDegrees>
              <LongitudeDegrees>-4.38392319716513156890869140625</LongitudeDegrees>
            </Position>
            <AltitudeMeters>782.20001220703125</AltitudeMeters>
            <DistanceMeters>NAN</DistanceMeters>
          </Trackpoint>
          <Trackpoint>
            <Time>2020-12-05T13:05:10.000Z</Time>
            <Position>
              <LatitudeDegrees>36.8231961317360401153564453125</LatitudeDegrees>
              <LongitudeDegrees>-4.38391976058483123779296875</LongitudeDegrees>
            </Position>
            <AltitudeMeters>782.20001220703125</AltitudeMeters>
            <DistanceMeters>NAN</DistanceMeters>
          </Trackpoint>
          <Trackpoint>
            <Time>2020-12-05T13:05:11.000Z</Time>
            <Position>
              <LatitudeDegrees>36.823197305202484130859375</LatitudeDegrees>
              <LongitudeDegrees>-4.3839190900325775146484375</LongitudeDegrees>
            </Position>
            <AltitudeMeters>782.20001220703125</AltitudeMeters>
            <DistanceMeters>NAN</DistanceMeters>
          </Trackpoint>
          <Trackpoint>
            <Time>2020-12-05T13:05:12.000Z</Time>
            <Position>
              <LatitudeDegrees>36.823196969926357269287109375</LatitudeDegrees>
              <LongitudeDegrees>-4.3839190900325775146484375</LongitudeDegrees>
            </Position>
            <AltitudeMeters>782.20001220703125</AltitudeMeters>
            <DistanceMeters>NAN</DistanceMeters>
          </Trackpoint>
          <Trackpoint>
            <Time>2020-12-05T13:05:13.000Z</Time>
            <Position>
              <LatitudeDegrees>36.82319906540215015411376953125</LatitudeDegrees>
              <LongitudeDegrees>-4.38392034731805324554443359375</LongitudeDegrees>
            </Position>
            <AltitudeMeters>782.20001220703125</AltitudeMeters>
            <DistanceMeters>NAN</DistanceMeters>
          </Trackpoint>
          <Trackpoint>
            <Time>2020-12-05T13:05:14.000Z</Time>
            <Position>
              <LatitudeDegrees>36.82320157997310161590576171875</LatitudeDegrees>
              <LongitudeDegrees>-4.3839216046035289764404296875</LongitudeDegrees>
            </Position>
            <AltitudeMeters>782.20001220703125</AltitudeMeters>
            <DistanceMeters>NAN</DistanceMeters>
          </Trackpoint>
          <Trackpoint>
            <Time>2020-12-05T13:05:15.000Z</Time>
            <Position>
              <LatitudeDegrees>36.823203004896640777587890625</LatitudeDegrees>
              <LongitudeDegrees>-4.3839205987751483917236328125</LongitudeDegrees>
            </Position>
            <AltitudeMeters>782.20001220703125</AltitudeMeters>
            <DistanceMeters>NAN</DistanceMeters>
          </Trackpoint>
          <Trackpoint>
            <Time>2020-12-05T13:05:16.000Z</Time>
            <Position>
              <LatitudeDegrees>36.82320342399179935455322265625</LatitudeDegrees>
              <LongitudeDegrees>-4.3839185871183872222900390625</LongitudeDegrees>
            </Position>
            <AltitudeMeters>782.20001220703125</AltitudeMeters>
            <DistanceMeters>NAN</DistanceMeters>
          </Trackpoint>
          <Trackpoint>
            <Time>2020-12-05T13:05:17.000Z</Time>
            <Position>
              <LatitudeDegrees>36.8232035078108310699462890625</LatitudeDegrees>
              <LongitudeDegrees>-4.38391917385160923004150390625</LongitudeDegrees>
            </Position>
            <AltitudeMeters>782.20001220703125</AltitudeMeters>
            <DistanceMeters>NAN</DistanceMeters>
          </Trackpoint>
          <Trackpoint>
            <Time>2020-12-05T13:05:18.000Z</Time>
            <Position>
              <LatitudeDegrees>36.8232028372585773468017578125</LatitudeDegrees>
              <LongitudeDegrees>-4.383922778069972991943359375</LongitudeDegrees>
            </Position>
            <AltitudeMeters>782.20001220703125</AltitudeMeters>
            <DistanceMeters>NAN</DistanceMeters>
          </Trackpoint>
          <Trackpoint>
            <Time>2020-12-05T13:05:19.000Z</Time>
            <Position>
              <LatitudeDegrees>36.82320107705891132354736328125</LatitudeDegrees>
              <LongitudeDegrees>-4.38392604701220989227294921875</LongitudeDegrees>
            </Position>
            <AltitudeMeters>782.20001220703125</AltitudeMeters>
            <DistanceMeters>NAN</DistanceMeters>
          </Trackpoint>
          <Trackpoint>
            <Time>2020-12-05T13:05:20.000Z</Time>
            <Position>
              <LatitudeDegrees>36.8231991492211818695068359375</LatitudeDegrees>
              <LongitudeDegrees>-4.38392621465027332305908203125</LongitudeDegrees>
            </Position>
            <AltitudeMeters>782.20001220703125</AltitudeMeters>
            <DistanceMeters>NAN</DistanceMeters>
          </Trackpoint>
          <Trackpoint>
            <Time>2020-12-05T13:05:21.000Z</Time>
            <Position>
              <LatitudeDegrees>36.8231954611837863922119140625</LatitudeDegrees>
              <LongitudeDegrees>-4.3839289806783199310302734375</LongitudeDegrees>
            </Position>
            <AltitudeMeters>782.20001220703125</AltitudeMeters>
            <DistanceMeters>NAN</DistanceMeters>
          </Trackpoint>
          <Trackpoint>
            <Time>2020-12-05T13:05:22.000Z</Time>
            <Position>
              <LatitudeDegrees>36.82319269515573978424072265625</LatitudeDegrees>
              <LongitudeDegrees>-4.38393317162990570068359375</LongitudeDegrees>
            </Position>
            <AltitudeMeters>782.20001220703125</AltitudeMeters>
            <DistanceMeters>NAN</DistanceMeters>
          </Trackpoint>
          <Trackpoint>
            <Time>2020-12-05T13:05:23.000Z</Time>
            <Position>
              <LatitudeDegrees>36.82319202460348606109619140625</LatitudeDegrees>
              <LongitudeDegrees>-4.38393711112439632415771484375</LongitudeDegrees>
            </Position>
            <AltitudeMeters>782.20001220703125</AltitudeMeters>
            <DistanceMeters>NAN</DistanceMeters>
          </Trackpoint>
          <Trackpoint>
            <Time>2020-12-05T13:05:24.000Z</Time>
            <Position>
              <LatitudeDegrees>36.823189593851566314697265625</LatitudeDegrees>
              <LongitudeDegrees>-4.38394012860953807830810546875</LongitudeDegrees>
            </Position>
            <AltitudeMeters>782.20001220703125</AltitudeMeters>
            <DistanceMeters>NAN</DistanceMeters>
          </Trackpoint>
          <Trackpoint>
            <Time>2020-12-05T13:05:25.000Z</Time>
            <Position>
              <LatitudeDegrees>36.8231887556612491607666015625</LatitudeDegrees>
              <LongitudeDegrees>-4.38394230790436267852783203125</LongitudeDegrees>
            </Position>
            <AltitudeMeters>782.20001220703125</AltitudeMeters>
            <DistanceMeters>NAN</DistanceMeters>
          </Trackpoint>
          <Trackpoint>
            <Time>2020-12-05T13:05:26.000Z</Time>
            <Position>
              <LatitudeDegrees>36.82318666018545627593994140625</LatitudeDegrees>
              <LongitudeDegrees>-4.383944571018218994140625</LongitudeDegrees>
            </Position>
            <AltitudeMeters>782.20001220703125</AltitudeMeters>
            <DistanceMeters>NAN</DistanceMeters>
          </Trackpoint>
          <Trackpoint>
            <Time>2020-12-05T13:05:27.000Z</Time>
            <Position>
              <LatitudeDegrees>36.82318381033837795257568359375</LatitudeDegrees>
              <LongitudeDegrees>-4.3839477561414241790771484375</LongitudeDegrees>
            </Position>
            <AltitudeMeters>782.20001220703125</AltitudeMeters>
            <DistanceMeters>NAN</DistanceMeters>
          </Trackpoint>
          <Trackpoint>
            <Time>2020-12-05T13:05:28.000Z</Time>
            <Position>
              <LatitudeDegrees>36.82318129576742649078369140625</LatitudeDegrees>
              <LongitudeDegrees>-4.38395060598850250244140625</LongitudeDegrees>
            </Position>
            <AltitudeMeters>782.20001220703125</AltitudeMeters>
            <DistanceMeters>NAN</DistanceMeters>
          </Trackpoint>
          <Trackpoint>
            <Time>2020-12-05T13:05:29.000Z</Time>
            <Position>
              <LatitudeDegrees>36.823180876672267913818359375</LatitudeDegrees>
              <LongitudeDegrees>-4.38395035453140735626220703125</LongitudeDegrees>
            </Position>
            <AltitudeMeters>782.20001220703125</AltitudeMeters>
            <DistanceMeters>NAN</DistanceMeters>
          </Trackpoint>
          <Trackpoint>
            <Time>2020-12-05T13:05:30.000Z</Time>
            <Position>
              <LatitudeDegrees>36.8231783621013164520263671875</LatitudeDegrees>
              <LongitudeDegrees>-4.383947588503360748291015625</LongitudeDegrees>
            </Position>
            <AltitudeMeters>782.20001220703125</AltitudeMeters>
            <DistanceMeters>NAN</DistanceMeters>
          </Trackpoint>
          <Trackpoint>
            <Time>2020-12-05T13:05:31.000Z</Time>
            <Position>
              <LatitudeDegrees>36.82317710481584072113037109375</LatitudeDegrees>
              <LongitudeDegrees>-4.38394633121788501739501953125</LongitudeDegrees>
            </Position>
            <AltitudeMeters>782.20001220703125</AltitudeMeters>
            <DistanceMeters>NAN</DistanceMeters>
          </Trackpoint>
          <Trackpoint>
            <Time>2020-12-05T13:05:32.000Z</Time>
            <Position>
              <LatitudeDegrees>36.8231756798923015594482421875</LatitudeDegrees>
              <LongitudeDegrees>-4.38394566066563129425048828125</LongitudeDegrees>
            </Position>
            <AltitudeMeters>782.20001220703125</AltitudeMeters>
            <DistanceMeters>NAN</DistanceMeters>
          </Trackpoint>
          <Trackpoint>
            <Time>2020-12-05T13:05:33.000Z</Time>
            <Position>
              <LatitudeDegrees>36.8231753446161746978759765625</LatitudeDegrees>
              <LongitudeDegrees>-4.3839454092085361480712890625</LongitudeDegrees>
            </Position>
            <AltitudeMeters>782.20001220703125</AltitudeMeters>
            <DistanceMeters>NAN</DistanceMeters>
          </Trackpoint>
          <Trackpoint>
            <Time>2020-12-05T13:05:34.000Z</Time>
            <Position>
              <LatitudeDegrees>36.82317777536809444427490234375</LatitudeDegrees>
              <LongitudeDegrees>-4.38394431956112384796142578125</LongitudeDegrees>
            </Position>
            <AltitudeMeters>782.20001220703125</AltitudeMeters>
            <DistanceMeters>NAN</DistanceMeters>
          </Trackpoint>
          <Trackpoint>
            <Time>2020-12-05T13:05:35.000Z</Time>
            <Position>
              <LatitudeDegrees>36.82318054139614105224609375</LatitudeDegrees>
              <LongitudeDegrees>-4.3839459121227264404296875</LongitudeDegrees>
            </Position>
            <AltitudeMeters>782.20001220703125</AltitudeMeters>
            <DistanceMeters>NAN</DistanceMeters>
          </Trackpoint>
          <Trackpoint>
            <Time>2020-12-05T13:05:36.000Z</Time>
            <Position>
              <LatitudeDegrees>36.82318448089063167572021484375</LatitudeDegrees>
              <LongitudeDegrees>-4.38395186327397823333740234375</LongitudeDegrees>
            </Position>
            <AltitudeMeters>782.20001220703125</AltitudeMeters>
            <DistanceMeters>NAN</DistanceMeters>
          </Trackpoint>
          <Trackpoint>
            <Time>2020-12-05T13:05:37.000Z</Time>
            <Position>
              <LatitudeDegrees>36.82318951003253459930419921875</LatitudeDegrees>
              <LongitudeDegrees>-4.38395923934876918792724609375</LongitudeDegrees>
            </Position>
            <AltitudeMeters>782.20001220703125</AltitudeMeters>
            <DistanceMeters>NAN</DistanceMeters>
          </Trackpoint>
          <Trackpoint>
            <Time>2020-12-05T13:05:38.000Z</Time>
            <Position>
              <LatitudeDegrees>36.82319168932735919952392578125</LatitudeDegrees>
              <LongitudeDegrees>-4.38396535813808441162109375</LongitudeDegrees>
            </Position>
            <AltitudeMeters>782.20001220703125</AltitudeMeters>
            <DistanceMeters>NAN</DistanceMeters>
          </Trackpoint>
          <Trackpoint>
            <Time>2020-12-05T13:05:39.000Z</Time>
            <Position>
              <LatitudeDegrees>36.8231924436986446380615234375</LatitudeDegrees>
              <LongitudeDegrees>-4.38396728597581386566162109375</LongitudeDegrees>
            </Position>
            <AltitudeMeters>782.20001220703125</AltitudeMeters>
            <DistanceMeters>NAN</DistanceMeters>
          </Trackpoint>
          <Trackpoint>
            <Time>2020-12-05T13:05:40.000Z</Time>
            <Position>
              <LatitudeDegrees>36.8231924436986446380615234375</LatitudeDegrees>
              <LongitudeDegrees>-4.38396812416613101959228515625</LongitudeDegrees>
            </Position>
            <AltitudeMeters>782.20001220703125</AltitudeMeters>
            <DistanceMeters>NAN</DistanceMeters>
          </Trackpoint>
          <Trackpoint>
            <Time>2020-12-05T13:05:41.000Z</Time>
            <Position>
              <LatitudeDegrees>36.82318951003253459930419921875</LatitudeDegrees>
              <LongitudeDegrees>-4.38397072255611419677734375</LongitudeDegrees>
            </Position>
            <AltitudeMeters>782.20001220703125</AltitudeMeters>
            <DistanceMeters>NAN</DistanceMeters>
          </Trackpoint>
          <Trackpoint>
            <Time>2020-12-05T13:05:42.000Z</Time>
            <Position>
              <LatitudeDegrees>36.8231874145567417144775390625</LatitudeDegrees>
              <LongitudeDegrees>-4.383970387279987335205078125</LongitudeDegrees>
            </Position>
            <AltitudeMeters>782.20001220703125</AltitudeMeters>
            <DistanceMeters>NAN</DistanceMeters>
          </Trackpoint>
          <Trackpoint>
            <Time>2020-12-05T13:05:43.000Z</Time>
            <Position>
              <LatitudeDegrees>36.82318531908094882965087890625</LatitudeDegrees>
              <LongitudeDegrees>-4.383970387279987335205078125</LongitudeDegrees>
            </Position>
            <AltitudeMeters>782.20001220703125</AltitudeMeters>
            <DistanceMeters>NAN</DistanceMeters>
          </Trackpoint>
          <Trackpoint>
            <Time>2020-12-05T13:05:44.000Z</Time>
            <Position>
              <LatitudeDegrees>36.823183558881282806396484375</LatitudeDegrees>
              <LongitudeDegrees>-4.38397047109901905059814453125</LongitudeDegrees>
            </Position>
            <AltitudeMeters>782.20001220703125</AltitudeMeters>
            <DistanceMeters>NAN</DistanceMeters>
          </Trackpoint>
          <Trackpoint>
            <Time>2020-12-05T13:05:45.000Z</Time>
            <Position>
              <LatitudeDegrees>36.82318263687193393707275390625</LatitudeDegrees>
              <LongitudeDegrees>-4.3839708901941776275634765625</LongitudeDegrees>
            </Position>
            <AltitudeMeters>782.20001220703125</AltitudeMeters>
            <DistanceMeters>NAN</DistanceMeters>
          </Trackpoint>
          <Trackpoint>
            <Time>2020-12-05T13:05:46.000Z</Time>
            <Position>
              <LatitudeDegrees>36.8231833912432193756103515625</LatitudeDegrees>
              <LongitudeDegrees>-4.38396896235644817352294921875</LongitudeDegrees>
            </Position>
            <AltitudeMeters>782.20001220703125</AltitudeMeters>
            <DistanceMeters>NAN</DistanceMeters>
          </Trackpoint>
          <Trackpoint>
            <Time>2020-12-05T13:05:47.000Z</Time>
            <Position>
              <LatitudeDegrees>36.8231864087283611297607421875</LatitudeDegrees>
              <LongitudeDegrees>-4.3839668668806552886962890625</LongitudeDegrees>
            </Position>
            <AltitudeMeters>782.20001220703125</AltitudeMeters>
            <DistanceMeters>NAN</DistanceMeters>
          </Trackpoint>
          <Trackpoint>
            <Time>2020-12-05T13:05:48.000Z</Time>
            <Position>
              <LatitudeDegrees>36.8231907673180103302001953125</LatitudeDegrees>
              <LongitudeDegrees>-4.383965693414211273193359375</LongitudeDegrees>
            </Position>
            <AltitudeMeters>782.20001220703125</AltitudeMeters>
            <DistanceMeters>NAN</DistanceMeters>
          </Trackpoint>
          <Trackpoint>
            <Time>2020-12-05T13:05:49.000Z</Time>
            <Position>
              <LatitudeDegrees>36.82319437153637409210205078125</LatitudeDegrees>
              <LongitudeDegrees>-4.38396401703357696533203125</LongitudeDegrees>
            </Position>
            <AltitudeMeters>782.20001220703125</AltitudeMeters>
            <DistanceMeters>NAN</DistanceMeters>
          </Trackpoint>
          <Trackpoint>
            <Time>2020-12-05T13:05:50.000Z</Time>
            <Position>
              <LatitudeDegrees>36.82319655083119869232177734375</LatitudeDegrees>
              <LongitudeDegrees>-4.38396393321454524993896484375</LongitudeDegrees>
            </Position>
            <AltitudeMeters>782.20001220703125</AltitudeMeters>
            <DistanceMeters>NAN</DistanceMeters>
          </Trackpoint>
          <Trackpoint>
            <Time>2020-12-05T13:05:51.000Z</Time>
            <Position>
              <LatitudeDegrees>36.82319663465023040771484375</LatitudeDegrees>
              <LongitudeDegrees>-4.3839651905000209808349609375</LongitudeDegrees>
            </Position>
            <AltitudeMeters>782.20001220703125</AltitudeMeters>
            <DistanceMeters>NAN</DistanceMeters>
          </Trackpoint>
          <Trackpoint>
            <Time>2020-12-05T13:05:52.000Z</Time>
            <Position>
              <LatitudeDegrees>36.823198981583118438720703125</LatitudeDegrees>
              <LongitudeDegrees>-4.38396292738616466522216796875</LongitudeDegrees>
            </Position>
            <AltitudeMeters>782.20001220703125</AltitudeMeters>
            <DistanceMeters>NAN</DistanceMeters>
          </Trackpoint>
          <Trackpoint>
            <Time>2020-12-05T13:05:53.000Z</Time>
            <Position>
              <LatitudeDegrees>36.8232001550495624542236328125</LatitudeDegrees>
              <LongitudeDegrees>-4.3839598260819911956787109375</LongitudeDegrees>
            </Position>
            <AltitudeMeters>782.20001220703125</AltitudeMeters>
            <DistanceMeters>NAN</DistanceMeters>
          </Trackpoint>
          <Trackpoint>
            <Time>2020-12-05T13:05:54.000Z</Time>
            <Position>
              <LatitudeDegrees>36.82320023886859416961669921875</LatitudeDegrees>
              <LongitudeDegrees>-4.38395789824426174163818359375</LongitudeDegrees>
            </Position>
            <AltitudeMeters>782.20001220703125</AltitudeMeters>
            <DistanceMeters>NAN</DistanceMeters>
          </Trackpoint>
          <Trackpoint>
            <Time>2020-12-05T13:05:55.000Z</Time>
            <Position>
              <LatitudeDegrees>36.82320007123053073883056640625</LatitudeDegrees>
              <LongitudeDegrees>-4.38396108336746692657470703125</LongitudeDegrees>
            </Position>
            <AltitudeMeters>782.20001220703125</AltitudeMeters>
            <DistanceMeters>NAN</DistanceMeters>
          </Trackpoint>
          <Trackpoint>
            <Time>2020-12-05T13:05:56.000Z</Time>
            <Position>
              <LatitudeDegrees>36.82319923304021358489990234375</LatitudeDegrees>
              <LongitudeDegrees>-4.38397063873708248138427734375</LongitudeDegrees>
            </Position>
            <AltitudeMeters>782.20001220703125</AltitudeMeters>
            <DistanceMeters>NAN</DistanceMeters>
          </Trackpoint>
          <Trackpoint>
            <Time>2020-12-05T13:05:57.000Z</Time>
            <Position>
              <LatitudeDegrees>36.82319671846926212310791015625</LatitudeDegrees>
              <LongitudeDegrees>-4.38398036174476146697998046875</LongitudeDegrees>
            </Position>
            <AltitudeMeters>782.20001220703125</AltitudeMeters>
            <DistanceMeters>NAN</DistanceMeters>
          </Trackpoint>
          <Trackpoint>
            <Time>2020-12-05T13:05:58.000Z</Time>
            <Position>
              <LatitudeDegrees>36.82320074178278446197509765625</LatitudeDegrees>
              <LongitudeDegrees>-4.383982121944427490234375</LongitudeDegrees>
            </Position>
            <AltitudeMeters>782.20001220703125</AltitudeMeters>
            <DistanceMeters>NAN</DistanceMeters>
          </Trackpoint>
          <Trackpoint>
            <Time>2020-12-05T13:05:59.000Z</Time>
            <Position>
              <LatitudeDegrees>36.8232018314301967620849609375</LatitudeDegrees>
              <LongitudeDegrees>-4.3839807808399200439453125</LongitudeDegrees>
            </Position>
            <AltitudeMeters>782.20001220703125</AltitudeMeters>
            <DistanceMeters>NAN</DistanceMeters>
          </Trackpoint>
          <Trackpoint>
            <Time>2020-12-05T13:06:00.000Z</Time>
            <Position>
              <LatitudeDegrees>36.823202334344387054443359375</LatitudeDegrees>
              <LongitudeDegrees>-4.38397943973541259765625</LongitudeDegrees>
            </Position>
            <AltitudeMeters>778.20001220703125</AltitudeMeters>
            <DistanceMeters>NAN</DistanceMeters>
          </Trackpoint>
          <Trackpoint>
            <Time>2020-12-05T13:06:01.000Z</Time>
            <Position>
              <LatitudeDegrees>36.82320191524922847747802734375</LatitudeDegrees>
              <LongitudeDegrees>-4.38397382386028766632080078125</LongitudeDegrees>
            </Position>
            <AltitudeMeters>778.20001220703125</AltitudeMeters>
            <DistanceMeters>NAN</DistanceMeters>
          </Trackpoint>
          <Trackpoint>
            <Time>2020-12-05T13:06:02.000Z</Time>
            <Position>
              <LatitudeDegrees>36.8231984786689281463623046875</LatitudeDegrees>
              <LongitudeDegrees>-4.383963681757450103759765625</LongitudeDegrees>
            </Position>
            <AltitudeMeters>778.20001220703125</AltitudeMeters>
            <DistanceMeters>NAN</DistanceMeters>
          </Trackpoint>
          <Trackpoint>
            <Time>2020-12-05T13:06:03.000Z</Time>
            <Position>
              <LatitudeDegrees>36.8231907673180103302001953125</LatitudeDegrees>
              <LongitudeDegrees>-4.38394951634109020233154296875</LongitudeDegrees>
            </Position>
            <AltitudeMeters>778.20001220703125</AltitudeMeters>
            <DistanceMeters>NAN</DistanceMeters>
          </Trackpoint>
          <Trackpoint>
            <Time>2020-12-05T13:06:04.000Z</Time>
            <Position>
              <LatitudeDegrees>36.82318456470966339111328125</LatitudeDegrees>
              <LongitudeDegrees>-4.383945576846599578857421875</LongitudeDegrees>
            </Position>
            <AltitudeMeters>778.20001220703125</AltitudeMeters>
            <DistanceMeters>NAN</DistanceMeters>
          </Trackpoint>
          <Trackpoint>
            <Time>2020-12-05T13:06:05.000Z</Time>
            <Position>
              <LatitudeDegrees>36.82317249476909637451171875</LatitudeDegrees>
              <LongitudeDegrees>-4.38394063152372837066650390625</LongitudeDegrees>
            </Position>
            <AltitudeMeters>778.20001220703125</AltitudeMeters>
            <DistanceMeters>NAN</DistanceMeters>
          </Trackpoint>
          <Trackpoint>
            <Time>2020-12-05T13:06:06.000Z</Time>
            <Position>
              <LatitudeDegrees>36.82316151447594165802001953125</LatitudeDegrees>
              <LongitudeDegrees>-4.38393761403858661651611328125</LongitudeDegrees>
            </Position>
            <AltitudeMeters>778.20001220703125</AltitudeMeters>
            <DistanceMeters>NAN</DistanceMeters>
          </Trackpoint>
          <Trackpoint>
            <Time>2020-12-05T13:06:07.000Z</Time>
            <Position>
              <LatitudeDegrees>36.8231495283544063568115234375</LatitudeDegrees>
              <LongitudeDegrees>-4.383931495249271392822265625</LongitudeDegrees>
            </Position>
            <AltitudeMeters>778.20001220703125</AltitudeMeters>
            <DistanceMeters>NAN</DistanceMeters>
          </Trackpoint>
          <Trackpoint>
            <Time>2020-12-05T13:06:08.000Z</Time>
            <Position>
              <LatitudeDegrees>36.82313620112836360931396484375</LatitudeDegrees>
              <LongitudeDegrees>-4.38392722047865390777587890625</LongitudeDegrees>
            </Position>
            <AltitudeMeters>778.20001220703125</AltitudeMeters>
            <DistanceMeters>NAN</DistanceMeters>
          </Trackpoint>
          <Trackpoint>
            <Time>2020-12-05T13:06:09.000Z</Time>
            <Position>
              <LatitudeDegrees>36.823122538626194000244140625</LatitudeDegrees>
              <LongitudeDegrees>-4.383914731442928314208984375</LongitudeDegrees>
            </Position>
            <AltitudeMeters>778.20001220703125</AltitudeMeters>
            <DistanceMeters>NAN</DistanceMeters>
          </Trackpoint>
          <Trackpoint>
            <Time>2020-12-05T13:06:10.000Z</Time>
            <Position>
              <LatitudeDegrees>36.82311457581818103790283203125</LatitudeDegrees>
              <LongitudeDegrees>-4.38390844501554965972900390625</LongitudeDegrees>
            </Position>
            <AltitudeMeters>778.20001220703125</AltitudeMeters>
            <DistanceMeters>NAN</DistanceMeters>
          </Trackpoint>
          <Trackpoint>
            <Time>2020-12-05T13:06:11.000Z</Time>
            <Position>
              <LatitudeDegrees>36.8231047689914703369140625</LatitudeDegrees>
              <LongitudeDegrees>-4.38390098512172698974609375</LongitudeDegrees>
            </Position>
            <AltitudeMeters>778.20001220703125</AltitudeMeters>
            <DistanceMeters>NAN</DistanceMeters>
          </Trackpoint>
          <Trackpoint>
            <Time>2020-12-05T13:06:12.000Z</Time>
            <Position>
              <LatitudeDegrees>36.82309311814606189727783203125</LatitudeDegrees>
              <LongitudeDegrees>-4.38389360904693603515625</LongitudeDegrees>
            </Position>
            <AltitudeMeters>778.20001220703125</AltitudeMeters>
            <DistanceMeters>NAN</DistanceMeters>
          </Trackpoint>
          <Trackpoint>
            <Time>2020-12-05T13:06:13.000Z</Time>
            <Position>
              <LatitudeDegrees>36.8230797909200191497802734375</LatitudeDegrees>
              <LongitudeDegrees>-4.383886568248271942138671875</LongitudeDegrees>
            </Position>
            <AltitudeMeters>778.20001220703125</AltitudeMeters>
            <DistanceMeters>NAN</DistanceMeters>
          </Trackpoint>
          <Trackpoint>
            <Time>2020-12-05T13:06:14.000Z</Time>
            <Position>
              <LatitudeDegrees>36.82306277565658092498779296875</LatitudeDegrees>
              <LongitudeDegrees>-4.38388044945895671844482421875</LongitudeDegrees>
            </Position>
            <AltitudeMeters>778.20001220703125</AltitudeMeters>
            <DistanceMeters>NAN</DistanceMeters>
          </Trackpoint>
          <Trackpoint>
            <Time>2020-12-05T13:06:15.000Z</Time>
            <Position>
              <LatitudeDegrees>36.8230536393821239471435546875</LatitudeDegrees>
              <LongitudeDegrees>-4.38388145528733730316162109375</LongitudeDegrees>
            </Position>
            <AltitudeMeters>778.20001220703125</AltitudeMeters>
            <DistanceMeters>NAN</DistanceMeters>
          </Trackpoint>
          <Trackpoint>
            <Time>2020-12-05T13:06:16.000Z</Time>
            <Position>
              <LatitudeDegrees>36.82304400019347667694091796875</LatitudeDegrees>
              <LongitudeDegrees>-4.38388581387698650360107421875</LongitudeDegrees>
            </Position>
            <AltitudeMeters>778.20001220703125</AltitudeMeters>
            <DistanceMeters>NAN</DistanceMeters>
          </Trackpoint>
          <Trackpoint>
            <Time>2020-12-05T13:06:17.000Z</Time>
            <Position>
              <LatitudeDegrees>36.82303461246192455291748046875</LatitudeDegrees>
              <LongitudeDegrees>-4.38388782553374767303466796875</LongitudeDegrees>
            </Position>
            <AltitudeMeters>778.20001220703125</AltitudeMeters>
            <DistanceMeters>NAN</DistanceMeters>
          </Trackpoint>
          <Trackpoint>
            <Time>2020-12-05T13:06:18.000Z</Time>
            <Position>
              <LatitudeDegrees>36.823025308549404144287109375</LatitudeDegrees>
              <LongitudeDegrees>-4.3838887475430965423583984375</LongitudeDegrees>
            </Position>
            <AltitudeMeters>778.20001220703125</AltitudeMeters>
            <DistanceMeters>NAN</DistanceMeters>
          </Trackpoint>
          <Trackpoint>
            <Time>2020-12-05T13:06:19.000Z</Time>
            <Position>
              <LatitudeDegrees>36.82301801629364490509033203125</LatitudeDegrees>
              <LongitudeDegrees>-4.38388782553374767303466796875</LongitudeDegrees>
            </Position>
            <AltitudeMeters>778.20001220703125</AltitudeMeters>
            <DistanceMeters>NAN</DistanceMeters>
          </Trackpoint>
          <Trackpoint>
            <Time>2020-12-05T13:06:20.000Z</Time>
            <Position>
              <LatitudeDegrees>36.8230117298662662506103515625</LatitudeDegrees>
              <LongitudeDegrees>-4.3838907591998577117919921875</LongitudeDegrees>
            </Position>
            <AltitudeMeters>778.20001220703125</AltitudeMeters>
            <DistanceMeters>NAN</DistanceMeters>
          </Trackpoint>
          <Trackpoint>
            <Time>2020-12-05T13:06:21.000Z</Time>
            <Position>
              <LatitudeDegrees>36.8230056948959827423095703125</LatitudeDegrees>
              <LongitudeDegrees>-4.38389419578015804290771484375</LongitudeDegrees>
            </Position>
            <AltitudeMeters>778.20001220703125</AltitudeMeters>
            <DistanceMeters>NAN</DistanceMeters>
          </Trackpoint>
          <Trackpoint>
            <Time>2020-12-05T13:06:22.000Z</Time>
            <Position>
              <LatitudeDegrees>36.822999157011508941650390625</LatitudeDegrees>
              <LongitudeDegrees>-4.38389687798917293548583984375</LongitudeDegrees>
            </Position>
            <AltitudeMeters>778.20001220703125</AltitudeMeters>
            <DistanceMeters>NAN</DistanceMeters>
          </Trackpoint>
          <Trackpoint>
            <Time>2020-12-05T13:06:23.000Z</Time>
            <Position>
              <LatitudeDegrees>36.82299253530800342559814453125</LatitudeDegrees>
              <LongitudeDegrees>-4.38389872200787067413330078125</LongitudeDegrees>
            </Position>
            <AltitudeMeters>778.20001220703125</AltitudeMeters>
            <DistanceMeters>NAN</DistanceMeters>
          </Trackpoint>
          <Trackpoint>
            <Time>2020-12-05T13:06:24.000Z</Time>
            <Position>
              <LatitudeDegrees>36.8229849077761173248291015625</LatitudeDegrees>
              <LongitudeDegrees>-4.38389721326529979705810546875</LongitudeDegrees>
            </Position>
            <AltitudeMeters>778.20001220703125</AltitudeMeters>
            <DistanceMeters>NAN</DistanceMeters>
          </Trackpoint>
          <Trackpoint>
            <Time>2020-12-05T13:06:25.000Z</Time>
            <Position>
              <LatitudeDegrees>36.822977028787136077880859375</LatitudeDegrees>
              <LongitudeDegrees>-4.3838984705507755279541015625</LongitudeDegrees>
            </Position>
            <AltitudeMeters>778.20001220703125</AltitudeMeters>
            <DistanceMeters>NAN</DistanceMeters>
          </Trackpoint>
          <Trackpoint>
            <Time>2020-12-05T13:06:26.000Z</Time>
            <Position>
              <LatitudeDegrees>36.822967641055583953857421875</LatitudeDegrees>
              <LongitudeDegrees>-4.383895285427570343017578125</LongitudeDegrees>
            </Position>
            <AltitudeMeters>778.20001220703125</AltitudeMeters>
            <DistanceMeters>NAN</DistanceMeters>
          </Trackpoint>
          <Trackpoint>
            <Time>2020-12-05T13:06:27.000Z</Time>
            <Position>
              <LatitudeDegrees>36.822956912219524383544921875</LatitudeDegrees>
              <LongitudeDegrees>-4.3838907591998577117919921875</LongitudeDegrees>
            </Position>
            <AltitudeMeters>778.20001220703125</AltitudeMeters>
            <DistanceMeters>NAN</DistanceMeters>
          </Trackpoint>
          <Trackpoint>
            <Time>2020-12-05T13:06:28.000Z</Time>
            <Position>
              <LatitudeDegrees>36.82294777594506740570068359375</LatitudeDegrees>
              <LongitudeDegrees>-4.38389235176146030426025390625</LongitudeDegrees>
            </Position>
            <AltitudeMeters>778.20001220703125</AltitudeMeters>
            <DistanceMeters>NAN</DistanceMeters>
          </Trackpoint>
          <Trackpoint>
            <Time>2020-12-05T13:06:29.000Z</Time>
            <Position>
              <LatitudeDegrees>36.822941489517688751220703125</LatitudeDegrees>
              <LongitudeDegrees>-4.3838964588940143585205078125</LongitudeDegrees>
            </Position>
            <AltitudeMeters>778.20001220703125</AltitudeMeters>
            <DistanceMeters>NAN</DistanceMeters>
          </Trackpoint>
          <Trackpoint>
            <Time>2020-12-05T13:06:30.000Z</Time>
            <Position>
              <LatitudeDegrees>36.8229342810809612274169921875</LatitudeDegrees>
              <LongitudeDegrees>-4.383898638188838958740234375</LongitudeDegrees>
            </Position>
            <AltitudeMeters>778.20001220703125</AltitudeMeters>
            <DistanceMeters>NAN</DistanceMeters>
          </Trackpoint>
          <Trackpoint>
            <Time>2020-12-05T13:06:31.000Z</Time>
            <Position>
              <LatitudeDegrees>36.8229245580732822418212890625</LatitudeDegrees>
              <LongitudeDegrees>-4.38390341587364673614501953125</LongitudeDegrees>
            </Position>
            <AltitudeMeters>778.20001220703125</AltitudeMeters>
            <DistanceMeters>NAN</DistanceMeters>
          </Trackpoint>
          <Trackpoint>
            <Time>2020-12-05T13:06:32.000Z</Time>
            <Position>
              <LatitudeDegrees>36.82291408069431781768798828125</LatitudeDegrees>
              <LongitudeDegrees>-4.3839041702449321746826171875</LongitudeDegrees>
            </Position>
            <AltitudeMeters>778.20001220703125</AltitudeMeters>
            <DistanceMeters>NAN</DistanceMeters>
          </Trackpoint>
          <Trackpoint>
            <Time>2020-12-05T13:06:33.000Z</Time>
            <Position>
              <LatitudeDegrees>36.82290427386760711669921875</LatitudeDegrees>
              <LongitudeDegrees>-4.38390710391104221343994140625</LongitudeDegrees>
            </Position>
            <AltitudeMeters>778.20001220703125</AltitudeMeters>
            <DistanceMeters>NAN</DistanceMeters>
          </Trackpoint>
          <Trackpoint>
            <Time>2020-12-05T13:06:34.000Z</Time>
            <Position>
              <LatitudeDegrees>36.822893209755420684814453125</LatitudeDegrees>
              <LongitudeDegrees>-4.383908025920391082763671875</LongitudeDegrees>
            </Position>
            <AltitudeMeters>778.20001220703125</AltitudeMeters>
            <DistanceMeters>NAN</DistanceMeters>
          </Trackpoint>
          <Trackpoint>
            <Time>2020-12-05T13:06:35.000Z</Time>
            <Position>
              <LatitudeDegrees>36.82288507930934429168701171875</LatitudeDegrees>
              <LongitudeDegrees>-4.38391062431037425994873046875</LongitudeDegrees>
            </Position>
            <AltitudeMeters>778.20001220703125</AltitudeMeters>
            <DistanceMeters>NAN</DistanceMeters>
          </Trackpoint>
          <Trackpoint>
            <Time>2020-12-05T13:06:36.000Z</Time>
            <Position>
              <LatitudeDegrees>36.82287351228296756744384765625</LatitudeDegrees>
              <LongitudeDegrees>-4.383912049233913421630859375</LongitudeDegrees>
            </Position>
            <AltitudeMeters>778.20001220703125</AltitudeMeters>
            <DistanceMeters>NAN</DistanceMeters>
          </Trackpoint>
          <Trackpoint>
            <Time>2020-12-05T13:06:37.000Z</Time>
            <Position>
              <LatitudeDegrees>36.8228615261614322662353515625</LatitudeDegrees>
              <LongitudeDegrees>-4.38391548581421375274658203125</LongitudeDegrees>
            </Position>
            <AltitudeMeters>778.20001220703125</AltitudeMeters>
            <DistanceMeters>NAN</DistanceMeters>
          </Trackpoint>
          <Trackpoint>
            <Time>2020-12-05T13:06:38.000Z</Time>
            <Position>
              <LatitudeDegrees>36.8228487856686115264892578125</LatitudeDegrees>
              <LongitudeDegrees>-4.38391917385160923004150390625</LongitudeDegrees>
            </Position>
            <AltitudeMeters>778.20001220703125</AltitudeMeters>
            <DistanceMeters>NAN</DistanceMeters>
          </Trackpoint>
          <Trackpoint>
            <Time>2020-12-05T13:06:39.000Z</Time>
            <Position>
              <LatitudeDegrees>36.82283696718513965606689453125</LatitudeDegrees>
              <LongitudeDegrees>-4.3839229457080364227294921875</LongitudeDegrees>
            </Position>
            <AltitudeMeters>778.20001220703125</AltitudeMeters>
            <DistanceMeters>NAN</DistanceMeters>
          </Trackpoint>
          <Trackpoint>
            <Time>2020-12-05T13:06:40.000Z</Time>
            <Position>
              <LatitudeDegrees>36.8228258192539215087890625</LatitudeDegrees>
              <LongitudeDegrees>-4.3839249573647975921630859375</LongitudeDegrees>
            </Position>
            <AltitudeMeters>778.20001220703125</AltitudeMeters>
            <DistanceMeters>NAN</DistanceMeters>
          </Trackpoint>
          <Trackpoint>
            <Time>2020-12-05T13:06:41.000Z</Time>
            <Position>
              <LatitudeDegrees>36.82281550951302051544189453125</LatitudeDegrees>
              <LongitudeDegrees>-4.38392378389835357666015625</LongitudeDegrees>
            </Position>
            <AltitudeMeters>778.20001220703125</AltitudeMeters>
            <DistanceMeters>NAN</DistanceMeters>
          </Trackpoint>
          <Trackpoint>
            <Time>2020-12-05T13:06:42.000Z</Time>
            <Position>
              <LatitudeDegrees>36.8228065408766269683837890625</LatitudeDegrees>
              <LongitudeDegrees>-4.38392252661287784576416015625</LongitudeDegrees>
            </Position>
            <AltitudeMeters>778.20001220703125</AltitudeMeters>
            <DistanceMeters>NAN</DistanceMeters>
          </Trackpoint>
          <Trackpoint>
            <Time>2020-12-05T13:06:43.000Z</Time>
            <Position>
              <LatitudeDegrees>36.82279790751636028289794921875</LatitudeDegrees>
              <LongitudeDegrees>-4.38392001204192638397216796875</LongitudeDegrees>
            </Position>
            <AltitudeMeters>778.20001220703125</AltitudeMeters>
            <DistanceMeters>NAN</DistanceMeters>
          </Trackpoint>
          <Trackpoint>
            <Time>2020-12-05T13:06:44.000Z</Time>
            <Position>
              <LatitudeDegrees>36.82278885506093502044677734375</LatitudeDegrees>
              <LongitudeDegrees>-4.3839212693274021148681640625</LongitudeDegrees>
            </Position>
            <AltitudeMeters>778.20001220703125</AltitudeMeters>
            <DistanceMeters>NAN</DistanceMeters>
          </Trackpoint>
          <Trackpoint>
            <Time>2020-12-05T13:06:45.000Z</Time>
            <Position>
              <LatitudeDegrees>36.822783239185810089111328125</LatitudeDegrees>
              <LongitudeDegrees>-4.3839209340512752532958984375</LongitudeDegrees>
            </Position>
            <AltitudeMeters>778.20001220703125</AltitudeMeters>
            <DistanceMeters>NAN</DistanceMeters>
          </Trackpoint>
          <Trackpoint>
            <Time>2020-12-05T13:06:46.000Z</Time>
            <Position>
              <LatitudeDegrees>36.82277619838714599609375</LatitudeDegrees>
              <LongitudeDegrees>-4.38392051495611667633056640625</LongitudeDegrees>
            </Position>
            <AltitudeMeters>778.20001220703125</AltitudeMeters>
            <DistanceMeters>NAN</DistanceMeters>
          </Trackpoint>
          <Trackpoint>
            <Time>2020-12-05T13:06:47.000Z</Time>
            <Position>
              <LatitudeDegrees>36.82276940904557704925537109375</LatitudeDegrees>
              <LongitudeDegrees>-4.3839212693274021148681640625</LongitudeDegrees>
            </Position>
            <AltitudeMeters>778.20001220703125</AltitudeMeters>
            <DistanceMeters>NAN</DistanceMeters>
          </Trackpoint>
          <Trackpoint>
            <Time>2020-12-05T13:06:48.000Z</Time>
            <Position>
              <LatitudeDegrees>36.82276454754173755645751953125</LatitudeDegrees>
              <LongitudeDegrees>-4.3839182518422603607177734375</LongitudeDegrees>
            </Position>
            <AltitudeMeters>778.20001220703125</AltitudeMeters>
            <DistanceMeters>NAN</DistanceMeters>
          </Trackpoint>
          <Trackpoint>
            <Time>2020-12-05T13:06:49.000Z</Time>
            <Position>
              <LatitudeDegrees>36.8227582611143589019775390625</LatitudeDegrees>
              <LongitudeDegrees>-4.3839169107377529144287109375</LongitudeDegrees>
            </Position>
            <AltitudeMeters>778.20001220703125</AltitudeMeters>
            <DistanceMeters>NAN</DistanceMeters>
          </Trackpoint>
          <Trackpoint>
            <Time>2020-12-05T13:06:50.000Z</Time>
            <Position>
              <LatitudeDegrees>36.82275063358247280120849609375</LatitudeDegrees>
              <LongitudeDegrees>-4.38391431234776973724365234375</LongitudeDegrees>
            </Position>
            <AltitudeMeters>778.20001220703125</AltitudeMeters>
            <DistanceMeters>NAN</DistanceMeters>
          </Trackpoint>
          <Trackpoint>
            <Time>2020-12-05T13:06:51.000Z</Time>
            <Position>
              <LatitudeDegrees>36.82274359278380870819091796875</LatitudeDegrees>
              <LongitudeDegrees>-4.38391481526196002960205078125</LongitudeDegrees>
            </Position>
            <AltitudeMeters>778.20001220703125</AltitudeMeters>
            <DistanceMeters>NAN</DistanceMeters>
          </Trackpoint>
          <Trackpoint>
            <Time>2020-12-05T13:06:52.000Z</Time>
            <Position>
              <LatitudeDegrees>36.822735629975795745849609375</LatitudeDegrees>
              <LongitudeDegrees>-4.38391783274710178375244140625</LongitudeDegrees>
            </Position>
            <AltitudeMeters>778.20001220703125</AltitudeMeters>
            <DistanceMeters>NAN</DistanceMeters>
          </Trackpoint>
          <Trackpoint>
            <Time>2020-12-05T13:06:53.000Z</Time>
            <Position>
              <LatitudeDegrees>36.8227270804345607757568359375</LatitudeDegrees>
              <LongitudeDegrees>-4.38392386771738529205322265625</LongitudeDegrees>
            </Position>
            <AltitudeMeters>778.20001220703125</AltitudeMeters>
            <DistanceMeters>NAN</DistanceMeters>
          </Trackpoint>
          <Trackpoint>
            <Time>2020-12-05T13:06:54.000Z</Time>
            <Position>
              <LatitudeDegrees>36.822714842855930328369140625</LatitudeDegrees>
              <LongitudeDegrees>-4.3839299865067005157470703125</LongitudeDegrees>
            </Position>
            <AltitudeMeters>778.20001220703125</AltitudeMeters>
            <DistanceMeters>NAN</DistanceMeters>
          </Trackpoint>
          <Trackpoint>
            <Time>2020-12-05T13:06:55.000Z</Time>
            <Position>
              <LatitudeDegrees>36.82270185090601444244384765625</LatitudeDegrees>
              <LongitudeDegrees>-4.38393828459084033966064453125</LongitudeDegrees>
            </Position>
            <AltitudeMeters>778.20001220703125</AltitudeMeters>
            <DistanceMeters>NAN</DistanceMeters>
          </Trackpoint>
          <Trackpoint>
            <Time>2020-12-05T13:06:56.000Z</Time>
            <Position>
              <LatitudeDegrees>36.82268575765192508697509765625</LatitudeDegrees>
              <LongitudeDegrees>-4.3839460797607898712158203125</LongitudeDegrees>
            </Position>
            <AltitudeMeters>778.20001220703125</AltitudeMeters>
            <DistanceMeters>NAN</DistanceMeters>
          </Trackpoint>
          <Trackpoint>
            <Time>2020-12-05T13:06:57.000Z</Time>
            <Position>
              <LatitudeDegrees>36.82267234660685062408447265625</LatitudeDegrees>
              <LongitudeDegrees>-4.38395219855010509490966796875</LongitudeDegrees>
            </Position>
            <AltitudeMeters>778.20001220703125</AltitudeMeters>
            <DistanceMeters>NAN</DistanceMeters>
          </Trackpoint>
          <Trackpoint>
            <Time>2020-12-05T13:06:58.000Z</Time>
            <Position>
              <LatitudeDegrees>36.82265776209533214569091796875</LatitudeDegrees>
              <LongitudeDegrees>-4.38395890407264232635498046875</LongitudeDegrees>
            </Position>
            <AltitudeMeters>778.20001220703125</AltitudeMeters>
            <DistanceMeters>NAN</DistanceMeters>
          </Trackpoint>
          <Trackpoint>
            <Time>2020-12-05T13:06:59.000Z</Time>
            <Position>
              <LatitudeDegrees>36.822645775973796844482421875</LatitudeDegrees>
              <LongitudeDegrees>-4.3839628435671329498291015625</LongitudeDegrees>
            </Position>
            <AltitudeMeters>778.20001220703125</AltitudeMeters>
            <DistanceMeters>NAN</DistanceMeters>
          </Trackpoint>
          <Trackpoint>
            <Time>2020-12-05T13:07:00.000Z</Time>
            <Position>
              <LatitudeDegrees>36.82263563387095928192138671875</LatitudeDegrees>
              <LongitudeDegrees>-4.38396309502422809600830078125</LongitudeDegrees>
            </Position>
            <AltitudeMeters>778.20001220703125</AltitudeMeters>
            <DistanceMeters>NAN</DistanceMeters>
          </Trackpoint>
          <Trackpoint>
            <Time>2020-12-05T13:07:01.000Z</Time>
            <Position>
              <LatitudeDegrees>36.82262239046394824981689453125</LatitudeDegrees>
              <LongitudeDegrees>-4.3839655257761478424072265625</LongitudeDegrees>
            </Position>
            <AltitudeMeters>778.20001220703125</AltitudeMeters>
            <DistanceMeters>NAN</DistanceMeters>
          </Trackpoint>
          <Trackpoint>
            <Time>2020-12-05T13:07:02.000Z</Time>
            <Position>
              <LatitudeDegrees>36.82261048816144466400146484375</LatitudeDegrees>
              <LongitudeDegrees>-4.3839675374329090118408203125</LongitudeDegrees>
            </Position>
            <AltitudeMeters>778.20001220703125</AltitudeMeters>
            <DistanceMeters>NAN</DistanceMeters>
          </Trackpoint>
          <Trackpoint>
            <Time>2020-12-05T13:07:03.000Z</Time>
            <Position>
              <LatitudeDegrees>36.82259892113506793975830078125</LatitudeDegrees>
              <LongitudeDegrees>-4.383966028690338134765625</LongitudeDegrees>
            </Position>
            <AltitudeMeters>778.20001220703125</AltitudeMeters>
            <DistanceMeters>NAN</DistanceMeters>
          </Trackpoint>
          <Trackpoint>
            <Time>2020-12-05T13:07:04.000Z</Time>
            <Position>
              <LatitudeDegrees>36.82258316315710544586181640625</LatitudeDegrees>
              <LongitudeDegrees>-4.3839618377387523651123046875</LongitudeDegrees>
            </Position>
            <AltitudeMeters>778.20001220703125</AltitudeMeters>
            <DistanceMeters>NAN</DistanceMeters>
          </Trackpoint>
          <Trackpoint>
            <Time>2020-12-05T13:07:05.000Z</Time>
            <Position>
              <LatitudeDegrees>36.8225708417594432830810546875</LatitudeDegrees>
              <LongitudeDegrees>-4.38396208919584751129150390625</LongitudeDegrees>
            </Position>
            <AltitudeMeters>778.20001220703125</AltitudeMeters>
            <DistanceMeters>NAN</DistanceMeters>
          </Trackpoint>
          <Trackpoint>
            <Time>2020-12-05T13:07:06.000Z</Time>
            <Position>
              <LatitudeDegrees>36.82255784980952739715576171875</LatitudeDegrees>
              <LongitudeDegrees>-4.3839601613581180572509765625</LongitudeDegrees>
            </Position>
            <AltitudeMeters>778.20001220703125</AltitudeMeters>
            <DistanceMeters>NAN</DistanceMeters>
          </Trackpoint>
          <Trackpoint>
            <Time>2020-12-05T13:07:07.000Z</Time>
            <Position>
              <LatitudeDegrees>36.82254619896411895751953125</LatitudeDegrees>
              <LongitudeDegrees>-4.38395638950169086456298828125</LongitudeDegrees>
            </Position>
            <AltitudeMeters>778.20001220703125</AltitudeMeters>
            <DistanceMeters>NAN</DistanceMeters>
          </Trackpoint>
          <Trackpoint>
            <Time>2020-12-05T13:07:08.000Z</Time>
            <Position>
              <LatitudeDegrees>36.822537817060947418212890625</LatitudeDegrees>
              <LongitudeDegrees>-4.38395504839718341827392578125</LongitudeDegrees>
            </Position>
            <AltitudeMeters>778.20001220703125</AltitudeMeters>
            <DistanceMeters>NAN</DistanceMeters>
          </Trackpoint>
          <Trackpoint>
            <Time>2020-12-05T13:07:09.000Z</Time>
            <Position>
              <LatitudeDegrees>36.8225299380719661712646484375</LatitudeDegrees>
              <LongitudeDegrees>-4.38395454548299312591552734375</LongitudeDegrees>
            </Position>
            <AltitudeMeters>778.20001220703125</AltitudeMeters>
            <DistanceMeters>NAN</DistanceMeters>
          </Trackpoint>
          <Trackpoint>
            <Time>2020-12-05T13:07:10.000Z</Time>
            <Position>
              <LatitudeDegrees>36.8225208856165409088134765625</LatitudeDegrees>
              <LongitudeDegrees>-4.38395337201654911041259765625</LongitudeDegrees>
            </Position>
            <AltitudeMeters>778.20001220703125</AltitudeMeters>
            <DistanceMeters>NAN</DistanceMeters>
          </Trackpoint>
          <Trackpoint>
            <Time>2020-12-05T13:07:11.000Z</Time>
            <Position>
              <LatitudeDegrees>36.82251258753240108489990234375</LatitudeDegrees>
              <LongitudeDegrees>-4.38395521603524684906005859375</LongitudeDegrees>
            </Position>
            <AltitudeMeters>778.20001220703125</AltitudeMeters>
            <DistanceMeters>NAN</DistanceMeters>
          </Trackpoint>
          <Trackpoint>
            <Time>2020-12-05T13:07:12.000Z</Time>
            <Position>
              <LatitudeDegrees>36.8225031159818172454833984375</LatitudeDegrees>
              <LongitudeDegrees>-4.38395555131137371063232421875</LongitudeDegrees>
            </Position>
            <AltitudeMeters>778.20001220703125</AltitudeMeters>
            <DistanceMeters>NAN</DistanceMeters>
          </Trackpoint>
          <Trackpoint>
            <Time>2020-12-05T13:07:13.000Z</Time>
            <Position>
              <LatitudeDegrees>36.82249381206929683685302734375</LatitudeDegrees>
              <LongitudeDegrees>-4.38395605422556400299072265625</LongitudeDegrees>
            </Position>
            <AltitudeMeters>778.20001220703125</AltitudeMeters>
            <DistanceMeters>NAN</DistanceMeters>
          </Trackpoint>
          <Trackpoint>
            <Time>2020-12-05T13:07:14.000Z</Time>
            <Position>
              <LatitudeDegrees>36.8224850110709667205810546875</LatitudeDegrees>
              <LongitudeDegrees>-4.3839568085968494415283203125</LongitudeDegrees>
            </Position>
            <AltitudeMeters>778.20001220703125</AltitudeMeters>
            <DistanceMeters>NAN</DistanceMeters>
          </Trackpoint>
          <Trackpoint>
            <Time>2020-12-05T13:07:15.000Z</Time>
            <Position>
              <LatitudeDegrees>36.82247537188231945037841796875</LatitudeDegrees>
              <LongitudeDegrees>-4.38394901342689990997314453125</LongitudeDegrees>
            </Position>
            <AltitudeMeters>778.20001220703125</AltitudeMeters>
            <DistanceMeters>NAN</DistanceMeters>
          </Trackpoint>
          <Trackpoint>
            <Time>2020-12-05T13:07:16.000Z</Time>
            <Position>
              <LatitudeDegrees>36.82246983982622623443603515625</LatitudeDegrees>
              <LongitudeDegrees>-4.38394415192306041717529296875</LongitudeDegrees>
            </Position>
            <AltitudeMeters>778.20001220703125</AltitudeMeters>
            <DistanceMeters>NAN</DistanceMeters>
          </Trackpoint>
          <Trackpoint>
            <Time>2020-12-05T13:07:17.000Z</Time>
            <Position>
              <LatitudeDegrees>36.822462715208530426025390625</LatitudeDegrees>
              <LongitudeDegrees>-4.3839407153427600860595703125</LongitudeDegrees>
            </Position>
            <AltitudeMeters>778.20001220703125</AltitudeMeters>
            <DistanceMeters>NAN</DistanceMeters>
          </Trackpoint>
          <Trackpoint>
            <Time>2020-12-05T13:07:18.000Z</Time>
            <Position>
              <LatitudeDegrees>36.82245290838181972503662109375</LatitudeDegrees>
              <LongitudeDegrees>-4.38393828459084033966064453125</LongitudeDegrees>
            </Position>
            <AltitudeMeters>778.20001220703125</AltitudeMeters>
            <DistanceMeters>NAN</DistanceMeters>
          </Trackpoint>
          <Trackpoint>
            <Time>2020-12-05T13:07:19.000Z</Time>
            <Position>
              <LatitudeDegrees>36.82244050316512584686279296875</LatitudeDegrees>
              <LongitudeDegrees>-4.38393660821020603179931640625</LongitudeDegrees>
            </Position>
            <AltitudeMeters>778.20001220703125</AltitudeMeters>
            <DistanceMeters>NAN</DistanceMeters>
          </Trackpoint>
          <Trackpoint>
            <Time>2020-12-05T13:07:20.000Z</Time>
            <Position>
              <LatitudeDegrees>36.82242927141487598419189453125</LatitudeDegrees>
              <LongitudeDegrees>-4.383933842182159423828125</LongitudeDegrees>
            </Position>
            <AltitudeMeters>778.20001220703125</AltitudeMeters>
            <DistanceMeters>NAN</DistanceMeters>
          </Trackpoint>
          <Trackpoint>
            <Time>2020-12-05T13:07:21.000Z</Time>
            <Position>
              <LatitudeDegrees>36.82241636328399181365966796875</LatitudeDegrees>
              <LongitudeDegrees>-4.38392738811671733856201171875</LongitudeDegrees>
            </Position>
            <AltitudeMeters>778.20001220703125</AltitudeMeters>
            <DistanceMeters>NAN</DistanceMeters>
          </Trackpoint>
          <Trackpoint>
            <Time>2020-12-05T13:07:22.000Z</Time>
            <Position>
              <LatitudeDegrees>36.82240630500018596649169921875</LatitudeDegrees>
              <LongitudeDegrees>-4.38392085023224353790283203125</LongitudeDegrees>
            </Position>
            <AltitudeMeters>778.20001220703125</AltitudeMeters>
            <DistanceMeters>NAN</DistanceMeters>
          </Trackpoint>
          <Trackpoint>
            <Time>2020-12-05T13:07:23.000Z</Time>
            <Position>
              <LatitudeDegrees>36.822400353848934173583984375</LatitudeDegrees>
              <LongitudeDegrees>-4.3839145638048648834228515625</LongitudeDegrees>
            </Position>
            <AltitudeMeters>778.20001220703125</AltitudeMeters>
            <DistanceMeters>NAN</DistanceMeters>
          </Trackpoint>
          <Trackpoint>
            <Time>2020-12-05T13:07:24.000Z</Time>
            <Position>
              <LatitudeDegrees>36.82239339686930179595947265625</LatitudeDegrees>
              <LongitudeDegrees>-4.38390257768332958221435546875</LongitudeDegrees>
            </Position>
            <AltitudeMeters>778.20001220703125</AltitudeMeters>
            <DistanceMeters>NAN</DistanceMeters>
          </Trackpoint>
          <Trackpoint>
            <Time>2020-12-05T13:07:25.000Z</Time>
            <Position>
              <LatitudeDegrees>36.82238350622355937957763671875</LatitudeDegrees>
              <LongitudeDegrees>-4.38389235176146030426025390625</LongitudeDegrees>
            </Position>
            <AltitudeMeters>778.20001220703125</AltitudeMeters>
            <DistanceMeters>NAN</DistanceMeters>
          </Trackpoint>
          <Trackpoint>
            <Time>2020-12-05T13:07:26.000Z</Time>
            <Position>
              <LatitudeDegrees>36.82237260974943637847900390625</LatitudeDegrees>
              <LongitudeDegrees>-4.38388246111571788787841796875</LongitudeDegrees>
            </Position>
            <AltitudeMeters>778.20001220703125</AltitudeMeters>
            <DistanceMeters>NAN</DistanceMeters>
          </Trackpoint>
          <Trackpoint>
            <Time>2020-12-05T13:07:27.000Z</Time>
            <Position>
              <LatitudeDegrees>36.82236590422689914703369140625</LatitudeDegrees>
              <LongitudeDegrees>-4.3838763423264026641845703125</LongitudeDegrees>
            </Position>
            <AltitudeMeters>778.20001220703125</AltitudeMeters>
            <DistanceMeters>NAN</DistanceMeters>
          </Trackpoint>
          <Trackpoint>
            <Time>2020-12-05T13:07:28.000Z</Time>
            <Position>
              <LatitudeDegrees>36.82235735468566417694091796875</LatitudeDegrees>
              <LongitudeDegrees>-4.38386536203324794769287109375</LongitudeDegrees>
            </Position>
            <AltitudeMeters>778.20001220703125</AltitudeMeters>
            <DistanceMeters>NAN</DistanceMeters>
          </Trackpoint>
          <Trackpoint>
            <Time>2020-12-05T13:07:29.000Z</Time>
            <Position>
              <LatitudeDegrees>36.82234578765928745269775390625</LatitudeDegrees>
              <LongitudeDegrees>-4.38385362736880779266357421875</LongitudeDegrees>
            </Position>
            <AltitudeMeters>778.20001220703125</AltitudeMeters>
            <DistanceMeters>NAN</DistanceMeters>
          </Trackpoint>
          <Trackpoint>
            <Time>2020-12-05T13:07:30.000Z</Time>
            <Position>
              <LatitudeDegrees>36.82233639992773532867431640625</LatitudeDegrees>
              <LongitudeDegrees>-4.38384465873241424560546875</LongitudeDegrees>
            </Position>
            <AltitudeMeters>778.20001220703125</AltitudeMeters>
            <DistanceMeters>NAN</DistanceMeters>
          </Trackpoint>
          <Trackpoint>
            <Time>2020-12-05T13:07:31.000Z</Time>
            <Position>
              <LatitudeDegrees>36.82232600636780261993408203125</LatitudeDegrees>
              <LongitudeDegrees>-4.38383124768733978271484375</LongitudeDegrees>
            </Position>
            <AltitudeMeters>778.20001220703125</AltitudeMeters>
            <DistanceMeters>NAN</DistanceMeters>
          </Trackpoint>
          <Trackpoint>
            <Time>2020-12-05T13:07:32.000Z</Time>
            <Position>
              <LatitudeDegrees>36.82231779210269451141357421875</LatitudeDegrees>
              <LongitudeDegrees>-4.3838196806609630584716796875</LongitudeDegrees>
            </Position>
            <AltitudeMeters>778.20001220703125</AltitudeMeters>
            <DistanceMeters>NAN</DistanceMeters>
          </Trackpoint>
          <Trackpoint>
            <Time>2020-12-05T13:07:33.000Z</Time>
            <Position>
              <LatitudeDegrees>36.82230941019952297210693359375</LatitudeDegrees>
              <LongitudeDegrees>-4.38380970619618892669677734375</LongitudeDegrees>
            </Position>
            <AltitudeMeters>778.20001220703125</AltitudeMeters>
            <DistanceMeters>NAN</DistanceMeters>
          </Trackpoint>
          <Trackpoint>
            <Time>2020-12-05T13:07:34.000Z</Time>
            <Position>
              <LatitudeDegrees>36.82229951955378055572509765625</LatitudeDegrees>
              <LongitudeDegrees>-4.383799731731414794921875</LongitudeDegrees>
            </Position>
            <AltitudeMeters>778.20001220703125</AltitudeMeters>
            <DistanceMeters>NAN</DistanceMeters>
          </Trackpoint>
          <Trackpoint>
            <Time>2020-12-05T13:07:35.000Z</Time>
            <Position>
              <LatitudeDegrees>36.822289042174816131591796875</LatitudeDegrees>
              <LongitudeDegrees>-4.38379160128533840179443359375</LongitudeDegrees>
            </Position>
            <AltitudeMeters>778.20001220703125</AltitudeMeters>
            <DistanceMeters>NAN</DistanceMeters>
          </Trackpoint>
          <Trackpoint>
            <Time>2020-12-05T13:07:36.000Z</Time>
            <Position>
              <LatitudeDegrees>36.82227705605328083038330078125</LatitudeDegrees>
              <LongitudeDegrees>-4.38378556631505489349365234375</LongitudeDegrees>
            </Position>
            <AltitudeMeters>778.20001220703125</AltitudeMeters>
            <DistanceMeters>NAN</DistanceMeters>
          </Trackpoint>
          <Trackpoint>
            <Time>2020-12-05T13:07:37.000Z</Time>
            <Position>
              <LatitudeDegrees>36.82226498611271381378173828125</LatitudeDegrees>
              <LongitudeDegrees>-4.383779279887676239013671875</LongitudeDegrees>
            </Position>
            <AltitudeMeters>778.20001220703125</AltitudeMeters>
            <DistanceMeters>NAN</DistanceMeters>
          </Trackpoint>
          <Trackpoint>
            <Time>2020-12-05T13:07:38.000Z</Time>
            <Position>
              <LatitudeDegrees>36.82225157506763935089111328125</LatitudeDegrees>
              <LongitudeDegrees>-4.3837702274322509765625</LongitudeDegrees>
            </Position>
            <AltitudeMeters>778.20001220703125</AltitudeMeters>
            <DistanceMeters>NAN</DistanceMeters>
          </Trackpoint>
          <Trackpoint>
            <Time>2020-12-05T13:07:39.000Z</Time>
            <Position>
              <LatitudeDegrees>36.822239421308040618896484375</LatitudeDegrees>
              <LongitudeDegrees>-4.38376125879585742950439453125</LongitudeDegrees>
            </Position>
            <AltitudeMeters>778.20001220703125</AltitudeMeters>
            <DistanceMeters>NAN</DistanceMeters>
          </Trackpoint>
          <Trackpoint>
            <Time>2020-12-05T13:07:40.000Z</Time>
            <Position>
              <LatitudeDegrees>36.8222308717668056488037109375</LatitudeDegrees>
              <LongitudeDegrees>-4.383755140006542205810546875</LongitudeDegrees>
            </Position>
            <AltitudeMeters>778.20001220703125</AltitudeMeters>
            <DistanceMeters>NAN</DistanceMeters>
          </Trackpoint>
          <Trackpoint>
            <Time>2020-12-05T13:07:41.000Z</Time>
            <Position>
              <LatitudeDegrees>36.82222031056880950927734375</LatitudeDegrees>
              <LongitudeDegrees>-4.3837486021220684051513671875</LongitudeDegrees>
            </Position>
            <AltitudeMeters>778.20001220703125</AltitudeMeters>
            <DistanceMeters>NAN</DistanceMeters>
          </Trackpoint>
          <Trackpoint>
            <Time>2020-12-05T13:07:42.000Z</Time>
            <Position>
              <LatitudeDegrees>36.8222110904753208160400390625</LatitudeDegrees>
              <LongitudeDegrees>-4.38374114222824573516845703125</LongitudeDegrees>
            </Position>
            <AltitudeMeters>778.20001220703125</AltitudeMeters>
            <DistanceMeters>NAN</DistanceMeters>
          </Trackpoint>
          <Trackpoint>
            <Time>2020-12-05T13:07:43.000Z</Time>
            <Position>
              <LatitudeDegrees>36.822202205657958984375</LatitudeDegrees>
              <LongitudeDegrees>-4.38373192213475704193115234375</LongitudeDegrees>
            </Position>
            <AltitudeMeters>778.20001220703125</AltitudeMeters>
            <DistanceMeters>NAN</DistanceMeters>
          </Trackpoint>
          <Trackpoint>
            <Time>2020-12-05T13:07:44.000Z</Time>
            <Position>
              <LatitudeDegrees>36.82219256646931171417236328125</LatitudeDegrees>
              <LongitudeDegrees>-4.383725635707378387451171875</LongitudeDegrees>
            </Position>
            <AltitudeMeters>778.20001220703125</AltitudeMeters>
            <DistanceMeters>NAN</DistanceMeters>
          </Trackpoint>
          <Trackpoint>
            <Time>2020-12-05T13:07:45.000Z</Time>
            <Position>
              <LatitudeDegrees>36.82218141853809356689453125</LatitudeDegrees>
              <LongitudeDegrees>-4.38371784053742885589599609375</LongitudeDegrees>
            </Position>
            <AltitudeMeters>778.20001220703125</AltitudeMeters>
            <DistanceMeters>NAN</DistanceMeters>
          </Trackpoint>
          <Trackpoint>
            <Time>2020-12-05T13:07:46.000Z</Time>
            <Position>
              <LatitudeDegrees>36.82217177934944629669189453125</LatitudeDegrees>
              <LongitudeDegrees>-4.383712224662303924560546875</LongitudeDegrees>
            </Position>
            <AltitudeMeters>778.20001220703125</AltitudeMeters>
            <DistanceMeters>NAN</DistanceMeters>
          </Trackpoint>
          <Trackpoint>
            <Time>2020-12-05T13:07:47.000Z</Time>
            <Position>
              <LatitudeDegrees>36.8221594579517841339111328125</LatitudeDegrees>
              <LongitudeDegrees>-4.38369981944561004638671875</LongitudeDegrees>
            </Position>
            <AltitudeMeters>778.20001220703125</AltitudeMeters>
            <DistanceMeters>NAN</DistanceMeters>
          </Trackpoint>
          <Trackpoint>
            <Time>2020-12-05T13:07:48.000Z</Time>
            <Position>
              <LatitudeDegrees>36.8221514113247394561767578125</LatitudeDegrees>
              <LongitudeDegrees>-4.38369688577950000762939453125</LongitudeDegrees>
            </Position>
            <AltitudeMeters>778.20001220703125</AltitudeMeters>
            <DistanceMeters>NAN</DistanceMeters>
          </Trackpoint>
          <Trackpoint>
            <Time>2020-12-05T13:07:49.000Z</Time>
            <Position>
              <LatitudeDegrees>36.82214378379285335540771484375</LatitudeDegrees>
              <LongitudeDegrees>-4.38369789160788059234619140625</LongitudeDegrees>
            </Position>
            <AltitudeMeters>778.20001220703125</AltitudeMeters>
            <DistanceMeters>NAN</DistanceMeters>
          </Trackpoint>
          <Trackpoint>
            <Time>2020-12-05T13:07:50.000Z</Time>
            <Position>
              <LatitudeDegrees>36.8221349827945232391357421875</LatitudeDegrees>
              <LongitudeDegrees>-4.3836989812552928924560546875</LongitudeDegrees>
            </Position>
            <AltitudeMeters>778.20001220703125</AltitudeMeters>
            <DistanceMeters>NAN</DistanceMeters>
          </Trackpoint>
          <Trackpoint>
            <Time>2020-12-05T13:07:51.000Z</Time>
            <Position>
              <LatitudeDegrees>36.82212349958717823028564453125</LatitudeDegrees>
              <LongitudeDegrees>-4.383695125579833984375</LongitudeDegrees>
            </Position>
            <AltitudeMeters>778.20001220703125</AltitudeMeters>
            <DistanceMeters>NAN</DistanceMeters>
          </Trackpoint>
          <Trackpoint>
            <Time>2020-12-05T13:07:52.000Z</Time>
            <Position>
              <LatitudeDegrees>36.82211310602724552154541015625</LatitudeDegrees>
              <LongitudeDegrees>-4.38368900679051876068115234375</LongitudeDegrees>
            </Position>
            <AltitudeMeters>778.20001220703125</AltitudeMeters>
            <DistanceMeters>NAN</DistanceMeters>
          </Trackpoint>
          <Trackpoint>
            <Time>2020-12-05T13:07:53.000Z</Time>
            <Position>
              <LatitudeDegrees>36.8220987729728221893310546875</LatitudeDegrees>
              <LongitudeDegrees>-4.3836838938295841217041015625</LongitudeDegrees>
            </Position>
            <AltitudeMeters>778.20001220703125</AltitudeMeters>
            <DistanceMeters>NAN</DistanceMeters>
          </Trackpoint>
          <Trackpoint>
            <Time>2020-12-05T13:07:54.000Z</Time>
            <Position>
              <LatitudeDegrees>36.82208678685128688812255859375</LatitudeDegrees>
              <LongitudeDegrees>-4.38367894850671291351318359375</LongitudeDegrees>
            </Position>
            <AltitudeMeters>778.20001220703125</AltitudeMeters>
            <DistanceMeters>NAN</DistanceMeters>
          </Trackpoint>
          <Trackpoint>
            <Time>2020-12-05T13:07:55.000Z</Time>
            <Position>
              <LatitudeDegrees>36.82207052595913410186767578125</LatitudeDegrees>
              <LongitudeDegrees>-4.3836701475083827972412109375</LongitudeDegrees>
            </Position>
            <AltitudeMeters>778.20001220703125</AltitudeMeters>
            <DistanceMeters>NAN</DistanceMeters>
          </Trackpoint>
          <Trackpoint>
            <Time>2020-12-05T13:07:56.000Z</Time>
            <Position>
              <LatitudeDegrees>36.82205401360988616943359375</LatitudeDegrees>
              <LongitudeDegrees>-4.38366226851940155029296875</LongitudeDegrees>
            </Position>
            <AltitudeMeters>778.20001220703125</AltitudeMeters>
            <DistanceMeters>NAN</DistanceMeters>
          </Trackpoint>
          <Trackpoint>
            <Time>2020-12-05T13:07:57.000Z</Time>
            <Position>
              <LatitudeDegrees>36.8220350705087184906005859375</LatitudeDegrees>
              <LongitudeDegrees>-4.3836547248065471649169921875</LongitudeDegrees>
            </Position>
            <AltitudeMeters>778.20001220703125</AltitudeMeters>
            <DistanceMeters>NAN</DistanceMeters>
          </Trackpoint>
          <Trackpoint>
            <Time>2020-12-05T13:07:58.000Z</Time>
            <Position>
              <LatitudeDegrees>36.82201302610337734222412109375</LatitudeDegrees>
              <LongitudeDegrees>-4.3836503662168979644775390625</LongitudeDegrees>
            </Position>
            <AltitudeMeters>778.20001220703125</AltitudeMeters>
            <DistanceMeters>NAN</DistanceMeters>
          </Trackpoint>
          <Trackpoint>
            <Time>2020-12-05T13:07:59.000Z</Time>
            <Position>
              <LatitudeDegrees>36.8219951726496219635009765625</LatitudeDegrees>
              <LongitudeDegrees>-4.383649528026580810546875</LongitudeDegrees>
            </Position>
            <AltitudeMeters>778.20001220703125</AltitudeMeters>
            <DistanceMeters>NAN</DistanceMeters>
          </Trackpoint>
          <Trackpoint>
            <Time>2020-12-05T13:08:00.000Z</Time>
            <Position>
              <LatitudeDegrees>36.821980588138103485107421875</LatitudeDegrees>
              <LongitudeDegrees>-4.38364760018885135650634765625</LongitudeDegrees>
            </Position>
            <AltitudeMeters>779.5999755859375</AltitudeMeters>
            <DistanceMeters>NAN</DistanceMeters>
          </Trackpoint>
          <Trackpoint>
            <Time>2020-12-05T13:08:01.000Z</Time>
            <Position>
              <LatitudeDegrees>36.82196239940822124481201171875</LatitudeDegrees>
              <LongitudeDegrees>-4.383647851645946502685546875</LongitudeDegrees>
            </Position>
            <AltitudeMeters>779.5999755859375</AltitudeMeters>
            <DistanceMeters>NAN</DistanceMeters>
          </Trackpoint>
          <Trackpoint>
            <Time>2020-12-05T13:08:02.000Z</Time>
            <Position>
              <LatitudeDegrees>36.821943707764148712158203125</LatitudeDegrees>
              <LongitudeDegrees>-4.38364659436047077178955078125</LongitudeDegrees>
            </Position>
            <AltitudeMeters>779.5999755859375</AltitudeMeters>
            <DistanceMeters>NAN</DistanceMeters>
          </Trackpoint>
          <Trackpoint>
            <Time>2020-12-05T13:08:03.000Z</Time>
            <Position>
              <LatitudeDegrees>36.8219299614429473876953125</LatitudeDegrees>
              <LongitudeDegrees>-4.38364122994244098663330078125</LongitudeDegrees>
            </Position>
            <AltitudeMeters>779.5999755859375</AltitudeMeters>
            <DistanceMeters>NAN</DistanceMeters>
          </Trackpoint>
          <Trackpoint>
            <Time>2020-12-05T13:08:04.000Z</Time>
            <Position>
              <LatitudeDegrees>36.82191629894077777862548828125</LatitudeDegrees>
              <LongitudeDegrees>-4.38363435678184032440185546875</LongitudeDegrees>
            </Position>
            <AltitudeMeters>779.5999755859375</AltitudeMeters>
            <DistanceMeters>NAN</DistanceMeters>
          </Trackpoint>
          <Trackpoint>
            <Time>2020-12-05T13:08:05.000Z</Time>
            <Position>
              <LatitudeDegrees>36.8219029717147350311279296875</LatitudeDegrees>
              <LongitudeDegrees>-4.38362874090671539306640625</LongitudeDegrees>
            </Position>
            <AltitudeMeters>779.5999755859375</AltitudeMeters>
            <DistanceMeters>NAN</DistanceMeters>
          </Trackpoint>
          <Trackpoint>
            <Time>2020-12-05T13:08:06.000Z</Time>
            <Position>
              <LatitudeDegrees>36.82189014740288257598876953125</LatitudeDegrees>
              <LongitudeDegrees>-4.38361759297549724578857421875</LongitudeDegrees>
            </Position>
            <AltitudeMeters>779.5999755859375</AltitudeMeters>
            <DistanceMeters>NAN</DistanceMeters>
          </Trackpoint>
          <Trackpoint>
            <Time>2020-12-05T13:08:07.000Z</Time>
            <Position>
              <LatitudeDegrees>36.82187539525330066680908203125</LatitudeDegrees>
              <LongitudeDegrees>-4.383609294891357421875</LongitudeDegrees>
            </Position>
            <AltitudeMeters>779.5999755859375</AltitudeMeters>
            <DistanceMeters>NAN</DistanceMeters>
          </Trackpoint>
          <Trackpoint>
            <Time>2020-12-05T13:08:08.000Z</Time>
            <Position>
              <LatitudeDegrees>36.82186148129403591156005859375</LatitudeDegrees>
              <LongitudeDegrees>-4.38360418193042278289794921875</LongitudeDegrees>
            </Position>
            <AltitudeMeters>779.5999755859375</AltitudeMeters>
            <DistanceMeters>NAN</DistanceMeters>
          </Trackpoint>
          <Trackpoint>
            <Time>2020-12-05T13:08:09.000Z</Time>
            <Position>
              <LatitudeDegrees>36.821847818791866302490234375</LatitudeDegrees>
              <LongitudeDegrees>-4.3836010806262493133544921875</LongitudeDegrees>
            </Position>
            <AltitudeMeters>779.5999755859375</AltitudeMeters>
            <DistanceMeters>NAN</DistanceMeters>
          </Trackpoint>
          <Trackpoint>
            <Time>2020-12-05T13:08:10.000Z</Time>
            <Position>
              <LatitudeDegrees>36.82183382101356983184814453125</LatitudeDegrees>
              <LongitudeDegrees>-4.38359730876982212066650390625</LongitudeDegrees>
            </Position>
            <AltitudeMeters>779.5999755859375</AltitudeMeters>
            <DistanceMeters>NAN</DistanceMeters>
          </Trackpoint>
          <Trackpoint>
            <Time>2020-12-05T13:08:11.000Z</Time>
            <Position>
              <LatitudeDegrees>36.8218211643397808074951171875</LatitudeDegrees>
              <LongitudeDegrees>-4.3835937045514583587646484375</LongitudeDegrees>
            </Position>
            <AltitudeMeters>779.5999755859375</AltitudeMeters>
            <DistanceMeters>NAN</DistanceMeters>
          </Trackpoint>
          <Trackpoint>
            <Time>2020-12-05T13:08:12.000Z</Time>
            <Position>
              <LatitudeDegrees>36.8218080885708332061767578125</LatitudeDegrees>
              <LongitudeDegrees>-4.383590854704380035400390625</LongitudeDegrees>
            </Position>
            <AltitudeMeters>779.5999755859375</AltitudeMeters>
            <DistanceMeters>NAN</DistanceMeters>
          </Trackpoint>
          <Trackpoint>
            <Time>2020-12-05T13:08:13.000Z</Time>
            <Position>
              <LatitudeDegrees>36.82179710827767848968505859375</LatitudeDegrees>
              <LongitudeDegrees>-4.3835880048573017120361328125</LongitudeDegrees>
            </Position>
            <AltitudeMeters>779.5999755859375</AltitudeMeters>
            <DistanceMeters>NAN</DistanceMeters>
          </Trackpoint>
          <Trackpoint>
            <Time>2020-12-05T13:08:14.000Z</Time>
            <Position>
              <LatitudeDegrees>36.8217879720032215118408203125</LatitudeDegrees>
              <LongitudeDegrees>-4.383585155010223388671875</LongitudeDegrees>
            </Position>
            <AltitudeMeters>779.5999755859375</AltitudeMeters>
            <DistanceMeters>NAN</DistanceMeters>
          </Trackpoint>
          <Trackpoint>
            <Time>2020-12-05T13:08:15.000Z</Time>
            <Position>
              <LatitudeDegrees>36.8217789195477962493896484375</LatitudeDegrees>
              <LongitudeDegrees>-4.38358305953443050384521484375</LongitudeDegrees>
            </Position>
            <AltitudeMeters>779.5999755859375</AltitudeMeters>
            <DistanceMeters>NAN</DistanceMeters>
          </Trackpoint>
          <Trackpoint>
            <Time>2020-12-05T13:08:16.000Z</Time>
            <Position>
              <LatitudeDegrees>36.82177112437784671783447265625</LatitudeDegrees>
              <LongitudeDegrees>-4.383579455316066741943359375</LongitudeDegrees>
            </Position>
            <AltitudeMeters>779.5999755859375</AltitudeMeters>
            <DistanceMeters>NAN</DistanceMeters>
          </Trackpoint>
          <Trackpoint>
            <Time>2020-12-05T13:08:17.000Z</Time>
            <Position>
              <LatitudeDegrees>36.8217623233795166015625</LatitudeDegrees>
              <LongitudeDegrees>-4.38357777893543243408203125</LongitudeDegrees>
            </Position>
            <AltitudeMeters>779.5999755859375</AltitudeMeters>
            <DistanceMeters>NAN</DistanceMeters>
          </Trackpoint>
          <Trackpoint>
            <Time>2020-12-05T13:08:18.000Z</Time>
            <Position>
              <LatitudeDegrees>36.8217547796666622161865234375</LatitudeDegrees>
              <LongitudeDegrees>-4.383577443659305572509765625</LongitudeDegrees>
            </Position>
            <AltitudeMeters>779.5999755859375</AltitudeMeters>
            <DistanceMeters>NAN</DistanceMeters>
          </Trackpoint>
          <Trackpoint>
            <Time>2020-12-05T13:08:19.000Z</Time>
            <Position>
              <LatitudeDegrees>36.82174623012542724609375</LatitudeDegrees>
              <LongitudeDegrees>-4.38357509672641754150390625</LongitudeDegrees>
            </Position>
            <AltitudeMeters>779.5999755859375</AltitudeMeters>
            <DistanceMeters>NAN</DistanceMeters>
          </Trackpoint>
          <Trackpoint>
            <Time>2020-12-05T13:08:20.000Z</Time>
            <Position>
              <LatitudeDegrees>36.82173424400389194488525390625</LatitudeDegrees>
              <LongitudeDegrees>-4.38357316888868808746337890625</LongitudeDegrees>
            </Position>
            <AltitudeMeters>779.5999755859375</AltitudeMeters>
            <DistanceMeters>NAN</DistanceMeters>
          </Trackpoint>
          <Trackpoint>
            <Time>2020-12-05T13:08:21.000Z</Time>
            <Position>
              <LatitudeDegrees>36.8217192403972148895263671875</LatitudeDegrees>
              <LongitudeDegrees>-4.38357668928802013397216796875</LongitudeDegrees>
            </Position>
            <AltitudeMeters>779.5999755859375</AltitudeMeters>
            <DistanceMeters>NAN</DistanceMeters>
          </Trackpoint>
          <Trackpoint>
            <Time>2020-12-05T13:08:22.000Z</Time>
            <Position>
              <LatitudeDegrees>36.82170624844729900360107421875</LatitudeDegrees>
              <LongitudeDegrees>-4.38357668928802013397216796875</LongitudeDegrees>
            </Position>
            <AltitudeMeters>779.5999755859375</AltitudeMeters>
            <DistanceMeters>NAN</DistanceMeters>
          </Trackpoint>
          <Trackpoint>
            <Time>2020-12-05T13:08:23.000Z</Time>
            <Position>
              <LatitudeDegrees>36.821693591773509979248046875</LatitudeDegrees>
              <LongitudeDegrees>-4.38357719220221042633056640625</LongitudeDegrees>
            </Position>
            <AltitudeMeters>779.5999755859375</AltitudeMeters>
            <DistanceMeters>NAN</DistanceMeters>
          </Trackpoint>
          <Trackpoint>
            <Time>2020-12-05T13:08:24.000Z</Time>
            <Position>
              <LatitudeDegrees>36.82168026454746723175048828125</LatitudeDegrees>
              <LongitudeDegrees>-4.383582137525081634521484375</LongitudeDegrees>
            </Position>
            <AltitudeMeters>779.5999755859375</AltitudeMeters>
            <DistanceMeters>NAN</DistanceMeters>
          </Trackpoint>
          <Trackpoint>
            <Time>2020-12-05T13:08:25.000Z</Time>
            <Position>
              <LatitudeDegrees>36.8216645903885364532470703125</LatitudeDegrees>
              <LongitudeDegrees>-4.3835789524018764495849609375</LongitudeDegrees>
            </Position>
            <AltitudeMeters>779.5999755859375</AltitudeMeters>
            <DistanceMeters>NAN</DistanceMeters>
          </Trackpoint>
          <Trackpoint>
            <Time>2020-12-05T13:08:26.000Z</Time>
            <Position>
              <LatitudeDegrees>36.82164975441992282867431640625</LatitudeDegrees>
              <LongitudeDegrees>-4.3835769407451152801513671875</LongitudeDegrees>
            </Position>
            <AltitudeMeters>779.5999755859375</AltitudeMeters>
            <DistanceMeters>NAN</DistanceMeters>
          </Trackpoint>
          <Trackpoint>
            <Time>2020-12-05T13:08:27.000Z</Time>
            <Position>
              <LatitudeDegrees>36.82163399644196033477783203125</LatitudeDegrees>
              <LongitudeDegrees>-4.3835742585361003875732421875</LongitudeDegrees>
            </Position>
            <AltitudeMeters>779.5999755859375</AltitudeMeters>
            <DistanceMeters>NAN</DistanceMeters>
          </Trackpoint>
          <Trackpoint>
            <Time>2020-12-05T13:08:28.000Z</Time>
            <Position>
              <LatitudeDegrees>36.82162108831107616424560546875</LatitudeDegrees>
              <LongitudeDegrees>-4.38357509672641754150390625</LongitudeDegrees>
            </Position>
            <AltitudeMeters>779.5999755859375</AltitudeMeters>
            <DistanceMeters>NAN</DistanceMeters>
          </Trackpoint>
          <Trackpoint>
            <Time>2020-12-05T13:08:29.000Z</Time>
            <Position>
              <LatitudeDegrees>36.8216089345514774322509765625</LatitudeDegrees>
              <LongitudeDegrees>-4.38357643783092498779296875</LongitudeDegrees>
            </Position>
            <AltitudeMeters>779.5999755859375</AltitudeMeters>
            <DistanceMeters>NAN</DistanceMeters>
          </Trackpoint>
          <Trackpoint>
            <Time>2020-12-05T13:08:30.000Z</Time>
            <Position>
              <LatitudeDegrees>36.8215978704392910003662109375</LatitudeDegrees>
              <LongitudeDegrees>-4.38358088023960590362548828125</LongitudeDegrees>
            </Position>
            <AltitudeMeters>779.5999755859375</AltitudeMeters>
            <DistanceMeters>NAN</DistanceMeters>
          </Trackpoint>
          <Trackpoint>
            <Time>2020-12-05T13:08:31.000Z</Time>
            <Position>
              <LatitudeDegrees>36.821586303412914276123046875</LatitudeDegrees>
              <LongitudeDegrees>-4.38358557410538196563720703125</LongitudeDegrees>
            </Position>
            <AltitudeMeters>779.5999755859375</AltitudeMeters>
            <DistanceMeters>NAN</DistanceMeters>
          </Trackpoint>
          <Trackpoint>
            <Time>2020-12-05T13:08:32.000Z</Time>
            <Position>
              <LatitudeDegrees>36.82157482020556926727294921875</LatitudeDegrees>
              <LongitudeDegrees>-4.38359043560922145843505859375</LongitudeDegrees>
            </Position>
            <AltitudeMeters>779.5999755859375</AltitudeMeters>
            <DistanceMeters>NAN</DistanceMeters>
          </Trackpoint>
          <Trackpoint>
            <Time>2020-12-05T13:08:33.000Z</Time>
            <Position>
              <LatitudeDegrees>36.82156844995915889739990234375</LatitudeDegrees>
              <LongitudeDegrees>-4.3835937045514583587646484375</LongitudeDegrees>
            </Position>
            <AltitudeMeters>779.5999755859375</AltitudeMeters>
            <DistanceMeters>NAN</DistanceMeters>
          </Trackpoint>
          <Trackpoint>
            <Time>2020-12-05T13:08:34.000Z</Time>
            <Position>
              <LatitudeDegrees>36.82155906222760677337646484375</LatitudeDegrees>
              <LongitudeDegrees>-4.38359881751239299774169921875</LongitudeDegrees>
            </Position>
            <AltitudeMeters>779.5999755859375</AltitudeMeters>
            <DistanceMeters>NAN</DistanceMeters>
          </Trackpoint>
          <Trackpoint>
            <Time>2020-12-05T13:08:35.000Z</Time>
            <Position>
              <LatitudeDegrees>36.82155017741024494171142578125</LatitudeDegrees>
              <LongitudeDegrees>-4.383606947958469390869140625</LongitudeDegrees>
            </Position>
            <AltitudeMeters>779.5999755859375</AltitudeMeters>
            <DistanceMeters>NAN</DistanceMeters>
          </Trackpoint>
          <Trackpoint>
            <Time>2020-12-05T13:08:36.000Z</Time>
            <Position>
              <LatitudeDegrees>36.8215415440499782562255859375</LatitudeDegrees>
              <LongitudeDegrees>-4.38361457549035549163818359375</LongitudeDegrees>
            </Position>
            <AltitudeMeters>779.5999755859375</AltitudeMeters>
            <DistanceMeters>NAN</DistanceMeters>
          </Trackpoint>
          <Trackpoint>
            <Time>2020-12-05T13:08:37.000Z</Time>
            <Position>
              <LatitudeDegrees>36.82153492234647274017333984375</LatitudeDegrees>
              <LongitudeDegrees>-4.38362061046063899993896484375</LongitudeDegrees>
            </Position>
            <AltitudeMeters>779.5999755859375</AltitudeMeters>
            <DistanceMeters>NAN</DistanceMeters>
          </Trackpoint>
          <Trackpoint>
            <Time>2020-12-05T13:08:38.000Z</Time>
            <Position>
              <LatitudeDegrees>36.82151698507368564605712890625</LatitudeDegrees>
              <LongitudeDegrees>-4.383643828332424163818359375</LongitudeDegrees>
            </Position>
            <AltitudeMeters>779.5999755859375</AltitudeMeters>
            <DistanceMeters>NAN</DistanceMeters>
          </Trackpoint>
          <Trackpoint>
            <Time>2020-12-05T13:08:39.000Z</Time>
            <Position>
              <LatitudeDegrees>36.82150457985699176788330078125</LatitudeDegrees>
              <LongitudeDegrees>-4.383651204407215118408203125</LongitudeDegrees>
            </Position>
            <AltitudeMeters>779.5999755859375</AltitudeMeters>
            <DistanceMeters>NAN</DistanceMeters>
          </Trackpoint>
          <Trackpoint>
            <Time>2020-12-05T13:08:40.000Z</Time>
            <Position>
              <LatitudeDegrees>36.82149284519255161285400390625</LatitudeDegrees>
              <LongitudeDegrees>-4.383655227720737457275390625</LongitudeDegrees>
            </Position>
            <AltitudeMeters>779.5999755859375</AltitudeMeters>
            <DistanceMeters>NAN</DistanceMeters>
          </Trackpoint>
          <Trackpoint>
            <Time>2020-12-05T13:08:41.000Z</Time>
            <Position>
              <LatitudeDegrees>36.821483038365840911865234375</LatitudeDegrees>
              <LongitudeDegrees>-4.38366101123392581939697265625</LongitudeDegrees>
            </Position>
            <AltitudeMeters>779.5999755859375</AltitudeMeters>
            <DistanceMeters>NAN</DistanceMeters>
          </Trackpoint>
          <Trackpoint>
            <Time>2020-12-05T13:08:42.000Z</Time>
            <Position>
              <LatitudeDegrees>36.8214751593768596649169921875</LatitudeDegrees>
              <LongitudeDegrees>-4.38366495072841644287109375</LongitudeDegrees>
            </Position>
            <AltitudeMeters>779.5999755859375</AltitudeMeters>
            <DistanceMeters>NAN</DistanceMeters>
          </Trackpoint>
          <Trackpoint>
            <Time>2020-12-05T13:08:43.000Z</Time>
            <Position>
              <LatitudeDegrees>36.82147155515849590301513671875</LatitudeDegrees>
              <LongitudeDegrees>-4.38367023132741451263427734375</LongitudeDegrees>
            </Position>
            <AltitudeMeters>779.5999755859375</AltitudeMeters>
            <DistanceMeters>NAN</DistanceMeters>
          </Trackpoint>
          <Trackpoint>
            <Time>2020-12-05T13:08:44.000Z</Time>
            <Position>
              <LatitudeDegrees>36.82146920822560787200927734375</LatitudeDegrees>
              <LongitudeDegrees>-4.3836765177547931671142578125</LongitudeDegrees>
            </Position>
            <AltitudeMeters>779.5999755859375</AltitudeMeters>
            <DistanceMeters>NAN</DistanceMeters>
          </Trackpoint>
          <Trackpoint>
            <Time>2020-12-05T13:08:45.000Z</Time>
            <Position>
              <LatitudeDegrees>36.8214651010930538177490234375</LatitudeDegrees>
              <LongitudeDegrees>-4.3836791999638080596923828125</LongitudeDegrees>
            </Position>
            <AltitudeMeters>779.5999755859375</AltitudeMeters>
            <DistanceMeters>NAN</DistanceMeters>
          </Trackpoint>
          <Trackpoint>
            <Time>2020-12-05T13:08:46.000Z</Time>
            <Position>
              <LatitudeDegrees>36.82146350853145122528076171875</LatitudeDegrees>
              <LongitudeDegrees>-4.383682049810886383056640625</LongitudeDegrees>
            </Position>
            <AltitudeMeters>779.5999755859375</AltitudeMeters>
            <DistanceMeters>NAN</DistanceMeters>
          </Trackpoint>
          <Trackpoint>
            <Time>2020-12-05T13:08:47.000Z</Time>
            <Position>
              <LatitudeDegrees>36.82146049104630947113037109375</LatitudeDegrees>
              <LongitudeDegrees>-4.38368381001055240631103515625</LongitudeDegrees>
            </Position>
            <AltitudeMeters>779.5999755859375</AltitudeMeters>
            <DistanceMeters>NAN</DistanceMeters>
          </Trackpoint>
          <Trackpoint>
            <Time>2020-12-05T13:08:48.000Z</Time>
            <Position>
              <LatitudeDegrees>36.8214607425034046173095703125</LatitudeDegrees>
              <LongitudeDegrees>-4.3836862407624721527099609375</LongitudeDegrees>
            </Position>
            <AltitudeMeters>779.5999755859375</AltitudeMeters>
            <DistanceMeters>NAN</DistanceMeters>
          </Trackpoint>
          <Trackpoint>
            <Time>2020-12-05T13:08:49.000Z</Time>
            <Position>
              <LatitudeDegrees>36.821460239589214324951171875</LatitudeDegrees>
              <LongitudeDegrees>-4.383692108094692230224609375</LongitudeDegrees>
            </Position>
            <AltitudeMeters>779.5999755859375</AltitudeMeters>
            <DistanceMeters>NAN</DistanceMeters>
          </Trackpoint>
          <Trackpoint>
            <Time>2020-12-05T13:08:50.000Z</Time>
            <Position>
              <LatitudeDegrees>36.82145914994180202484130859375</LatitudeDegrees>
              <LongitudeDegrees>-4.38369923271238803863525390625</LongitudeDegrees>
            </Position>
            <AltitudeMeters>779.5999755859375</AltitudeMeters>
            <DistanceMeters>NAN</DistanceMeters>
          </Trackpoint>
          <Trackpoint>
            <Time>2020-12-05T13:08:51.000Z</Time>
            <Position>
              <LatitudeDegrees>36.82145990431308746337890625</LatitudeDegrees>
              <LongitudeDegrees>-4.38370459713041782379150390625</LongitudeDegrees>
            </Position>
            <AltitudeMeters>779.5999755859375</AltitudeMeters>
            <DistanceMeters>NAN</DistanceMeters>
          </Trackpoint>
          <Trackpoint>
            <Time>2020-12-05T13:08:52.000Z</Time>
            <Position>
              <LatitudeDegrees>36.82146032340824604034423828125</LatitudeDegrees>
              <LongitudeDegrees>-4.3837070278823375701904296875</LongitudeDegrees>
            </Position>
            <AltitudeMeters>779.5999755859375</AltitudeMeters>
            <DistanceMeters>NAN</DistanceMeters>
          </Trackpoint>
          <Trackpoint>
            <Time>2020-12-05T13:08:53.000Z</Time>
            <Position>
              <LatitudeDegrees>36.82146300561726093292236328125</LatitudeDegrees>
              <LongitudeDegrees>-4.38370878808200359344482421875</LongitudeDegrees>
            </Position>
            <AltitudeMeters>779.5999755859375</AltitudeMeters>
            <DistanceMeters>NAN</DistanceMeters>
          </Trackpoint>
          <Trackpoint>
            <Time>2020-12-05T13:08:54.000Z</Time>
            <Position>
              <LatitudeDegrees>36.821464262902736663818359375</LatitudeDegrees>
              <LongitudeDegrees>-4.38371163792908191680908203125</LongitudeDegrees>
            </Position>
            <AltitudeMeters>779.5999755859375</AltitudeMeters>
            <DistanceMeters>NAN</DistanceMeters>
          </Trackpoint>
          <Trackpoint>
            <Time>2020-12-05T13:08:55.000Z</Time>
            <Position>
              <LatitudeDegrees>36.82146702893078327178955078125</LatitudeDegrees>
              <LongitudeDegrees>-4.38371247611939907073974609375</LongitudeDegrees>
            </Position>
            <AltitudeMeters>779.5999755859375</AltitudeMeters>
            <DistanceMeters>NAN</DistanceMeters>
          </Trackpoint>
          <Trackpoint>
            <Time>2020-12-05T13:08:56.000Z</Time>
            <Position>
              <LatitudeDegrees>36.821472309529781341552734375</LatitudeDegrees>
              <LongitudeDegrees>-4.38371348194777965545654296875</LongitudeDegrees>
            </Position>
            <AltitudeMeters>779.5999755859375</AltitudeMeters>
            <DistanceMeters>NAN</DistanceMeters>
          </Trackpoint>
          <Trackpoint>
            <Time>2020-12-05T13:08:57.000Z</Time>
            <Position>
              <LatitudeDegrees>36.8214748241007328033447265625</LatitudeDegrees>
              <LongitudeDegrees>-4.3837147392332553863525390625</LongitudeDegrees>
            </Position>
            <AltitudeMeters>779.5999755859375</AltitudeMeters>
            <DistanceMeters>NAN</DistanceMeters>
          </Trackpoint>
          <Trackpoint>
            <Time>2020-12-05T13:08:58.000Z</Time>
            <Position>
              <LatitudeDegrees>36.82147524319589138031005859375</LatitudeDegrees>
              <LongitudeDegrees>-4.38371616415679454803466796875</LongitudeDegrees>
            </Position>
            <AltitudeMeters>779.5999755859375</AltitudeMeters>
            <DistanceMeters>NAN</DistanceMeters>
          </Trackpoint>
          <Trackpoint>
            <Time>2020-12-05T13:08:59.000Z</Time>
            <Position>
              <LatitudeDegrees>36.82147423736751079559326171875</LatitudeDegrees>
              <LongitudeDegrees>-4.3837167508900165557861328125</LongitudeDegrees>
            </Position>
            <AltitudeMeters>779.5999755859375</AltitudeMeters>
            <DistanceMeters>NAN</DistanceMeters>
          </Trackpoint>
          <Trackpoint>
            <Time>2020-12-05T13:09:00.000Z</Time>
            <Position>
              <LatitudeDegrees>36.82147465646266937255859375</LatitudeDegrees>
              <LongitudeDegrees>-4.38371851108968257904052734375</LongitudeDegrees>
            </Position>
            <AltitudeMeters>781.4000244140625</AltitudeMeters>
            <DistanceMeters>NAN</DistanceMeters>
          </Trackpoint>
          <Trackpoint>
            <Time>2020-12-05T13:09:01.000Z</Time>
            <Position>
              <LatitudeDegrees>36.82147205807268619537353515625</LatitudeDegrees>
              <LongitudeDegrees>-4.3837206065654754638671875</LongitudeDegrees>
            </Position>
            <AltitudeMeters>781.4000244140625</AltitudeMeters>
            <DistanceMeters>NAN</DistanceMeters>
          </Trackpoint>
          <Trackpoint>
            <Time>2020-12-05T13:09:02.000Z</Time>
            <Position>
              <LatitudeDegrees>36.82147390209138393402099609375</LatitudeDegrees>
              <LongitudeDegrees>-4.38372404314577579498291015625</LongitudeDegrees>
            </Position>
            <AltitudeMeters>781.4000244140625</AltitudeMeters>
            <DistanceMeters>NAN</DistanceMeters>
          </Trackpoint>
          <Trackpoint>
            <Time>2020-12-05T13:09:03.000Z</Time>
            <Position>
              <LatitudeDegrees>36.821472309529781341552734375</LatitudeDegrees>
              <LongitudeDegrees>-4.38373309560120105743408203125</LongitudeDegrees>
            </Position>
            <AltitudeMeters>781.4000244140625</AltitudeMeters>
            <DistanceMeters>NAN</DistanceMeters>
          </Trackpoint>
          <Trackpoint>
            <Time>2020-12-05T13:09:04.000Z</Time>
            <Position>
              <LatitudeDegrees>36.82146837003529071807861328125</LatitudeDegrees>
              <LongitudeDegrees>-4.38373737037181854248046875</LongitudeDegrees>
            </Position>
            <AltitudeMeters>781.4000244140625</AltitudeMeters>
            <DistanceMeters>NAN</DistanceMeters>
          </Trackpoint>
          <Trackpoint>
            <Time>2020-12-05T13:09:05.000Z</Time>
            <Position>
              <LatitudeDegrees>36.82146535255014896392822265625</LatitudeDegrees>
              <LongitudeDegrees>-4.38373745419085025787353515625</LongitudeDegrees>
            </Position>
            <AltitudeMeters>781.4000244140625</AltitudeMeters>
            <DistanceMeters>NAN</DistanceMeters>
          </Trackpoint>
          <Trackpoint>
            <Time>2020-12-05T13:09:06.000Z</Time>
            <Position>
              <LatitudeDegrees>36.82146124541759490966796875</LatitudeDegrees>
              <LongitudeDegrees>-4.38373778946697711944580078125</LongitudeDegrees>
            </Position>
            <AltitudeMeters>781.4000244140625</AltitudeMeters>
            <DistanceMeters>NAN</DistanceMeters>
          </Trackpoint>
          <Trackpoint>
            <Time>2020-12-05T13:09:07.000Z</Time>
            <Position>
              <LatitudeDegrees>36.82146501727402210235595703125</LatitudeDegrees>
              <LongitudeDegrees>-4.38373913057148456573486328125</LongitudeDegrees>
            </Position>
            <AltitudeMeters>781.4000244140625</AltitudeMeters>
            <DistanceMeters>NAN</DistanceMeters>
          </Trackpoint>
          <Trackpoint>
            <Time>2020-12-05T13:09:08.000Z</Time>
            <Position>
              <LatitudeDegrees>36.82146652601659297943115234375</LatitudeDegrees>
              <LongitudeDegrees>-4.38373871147632598876953125</LongitudeDegrees>
            </Position>
            <AltitudeMeters>781.4000244140625</AltitudeMeters>
            <DistanceMeters>NAN</DistanceMeters>
          </Trackpoint>
          <Trackpoint>
            <Time>2020-12-05T13:09:09.000Z</Time>
            <Position>
              <LatitudeDegrees>36.82146468199789524078369140625</LatitudeDegrees>
              <LongitudeDegrees>-4.3837375380098819732666015625</LongitudeDegrees>
            </Position>
            <AltitudeMeters>781.4000244140625</AltitudeMeters>
            <DistanceMeters>NAN</DistanceMeters>
          </Trackpoint>
          <Trackpoint>
            <Time>2020-12-05T13:09:10.000Z</Time>
            <Position>
              <LatitudeDegrees>36.82146434672176837921142578125</LatitudeDegrees>
              <LongitudeDegrees>-4.38373896293342113494873046875</LongitudeDegrees>
            </Position>
            <AltitudeMeters>781.4000244140625</AltitudeMeters>
            <DistanceMeters>NAN</DistanceMeters>
          </Trackpoint>
          <Trackpoint>
            <Time>2020-12-05T13:09:11.000Z</Time>
            <Position>
              <LatitudeDegrees>36.82146334089338779449462890625</LatitudeDegrees>
              <LongitudeDegrees>-4.38374139368534088134765625</LongitudeDegrees>
            </Position>
            <AltitudeMeters>781.4000244140625</AltitudeMeters>
            <DistanceMeters>NAN</DistanceMeters>
          </Trackpoint>
          <Trackpoint>
            <Time>2020-12-05T13:09:12.000Z</Time>
            <Position>
              <LatitudeDegrees>36.82146132923662662506103515625</LatitudeDegrees>
              <LongitudeDegrees>-4.38374114222824573516845703125</LongitudeDegrees>
            </Position>
            <AltitudeMeters>781.4000244140625</AltitudeMeters>
            <DistanceMeters>NAN</DistanceMeters>
          </Trackpoint>
          <Trackpoint>
            <Time>2020-12-05T13:09:13.000Z</Time>
            <Position>
              <LatitudeDegrees>36.82145931757986545562744140625</LatitudeDegrees>
              <LongitudeDegrees>-4.38374214805662631988525390625</LongitudeDegrees>
            </Position>
            <AltitudeMeters>781.4000244140625</AltitudeMeters>
            <DistanceMeters>NAN</DistanceMeters>
          </Trackpoint>
          <Trackpoint>
            <Time>2020-12-05T13:09:14.000Z</Time>
            <Position>
              <LatitudeDegrees>36.82145588099956512451171875</LatitudeDegrees>
              <LongitudeDegrees>-4.38374449498951435089111328125</LongitudeDegrees>
            </Position>
            <AltitudeMeters>781.4000244140625</AltitudeMeters>
            <DistanceMeters>NAN</DistanceMeters>
          </Trackpoint>
          <Trackpoint>
            <Time>2020-12-05T13:09:15.000Z</Time>
            <Position>
              <LatitudeDegrees>36.82145596481859683990478515625</LatitudeDegrees>
              <LongitudeDegrees>-4.38374583609402179718017578125</LongitudeDegrees>
            </Position>
            <AltitudeMeters>781.4000244140625</AltitudeMeters>
            <DistanceMeters>NAN</DistanceMeters>
          </Trackpoint>
          <Trackpoint>
            <Time>2020-12-05T13:09:16.000Z</Time>
            <Position>
              <LatitudeDegrees>36.821456886827945709228515625</LatitudeDegrees>
              <LongitudeDegrees>-4.38374675810337066650390625</LongitudeDegrees>
            </Position>
            <AltitudeMeters>781.4000244140625</AltitudeMeters>
            <DistanceMeters>NAN</DistanceMeters>
          </Trackpoint>
          <Trackpoint>
            <Time>2020-12-05T13:09:17.000Z</Time>
            <Position>
              <LatitudeDegrees>36.82145512662827968597412109375</LatitudeDegrees>
              <LongitudeDegrees>-4.3837472610175609588623046875</LongitudeDegrees>
            </Position>
            <AltitudeMeters>781.4000244140625</AltitudeMeters>
            <DistanceMeters>NAN</DistanceMeters>
          </Trackpoint>
          <Trackpoint>
            <Time>2020-12-05T13:09:18.000Z</Time>
            <Position>
              <LatitudeDegrees>36.82145328260958194732666015625</LatitudeDegrees>
              <LongitudeDegrees>-4.3837492726743221282958984375</LongitudeDegrees>
            </Position>
            <AltitudeMeters>781.4000244140625</AltitudeMeters>
            <DistanceMeters>NAN</DistanceMeters>
          </Trackpoint>
          <Trackpoint>
            <Time>2020-12-05T13:09:19.000Z</Time>
            <Position>
              <LatitudeDegrees>36.8214530311524868011474609375</LatitudeDegrees>
              <LongitudeDegrees>-4.38375270925462245941162109375</LongitudeDegrees>
            </Position>
            <AltitudeMeters>781.4000244140625</AltitudeMeters>
            <DistanceMeters>NAN</DistanceMeters>
          </Trackpoint>
          <Trackpoint>
            <Time>2020-12-05T13:09:20.000Z</Time>
            <Position>
              <LatitudeDegrees>36.82145428843796253204345703125</LatitudeDegrees>
              <LongitudeDegrees>-4.38375622965395450592041015625</LongitudeDegrees>
            </Position>
            <AltitudeMeters>781.4000244140625</AltitudeMeters>
            <DistanceMeters>NAN</DistanceMeters>
          </Trackpoint>
          <Trackpoint>
            <Time>2020-12-05T13:09:21.000Z</Time>
            <Position>
              <LatitudeDegrees>36.8214506842195987701416015625</LatitudeDegrees>
              <LongitudeDegrees>-4.3837657012045383453369140625</LongitudeDegrees>
            </Position>
            <AltitudeMeters>781.4000244140625</AltitudeMeters>
            <DistanceMeters>NAN</DistanceMeters>
          </Trackpoint>
          <Trackpoint>
            <Time>2020-12-05T13:09:22.000Z</Time>
            <Position>
              <LatitudeDegrees>36.82144842110574245452880859375</LatitudeDegrees>
              <LongitudeDegrees>-4.38376419246196746826171875</LongitudeDegrees>
            </Position>
            <AltitudeMeters>781.4000244140625</AltitudeMeters>
            <DistanceMeters>NAN</DistanceMeters>
          </Trackpoint>
          <Trackpoint>
            <Time>2020-12-05T13:09:23.000Z</Time>
            <Position>
              <LatitudeDegrees>36.82144942693412303924560546875</LatitudeDegrees>
              <LongitudeDegrees>-4.38376553356647491455078125</LongitudeDegrees>
            </Position>
            <AltitudeMeters>781.4000244140625</AltitudeMeters>
            <DistanceMeters>NAN</DistanceMeters>
          </Trackpoint>
          <Trackpoint>
            <Time>2020-12-05T13:09:24.000Z</Time>
            <Position>
              <LatitudeDegrees>36.82145261205732822418212890625</LatitudeDegrees>
              <LongitudeDegrees>-4.38377215526998043060302734375</LongitudeDegrees>
            </Position>
            <AltitudeMeters>781.4000244140625</AltitudeMeters>
            <DistanceMeters>NAN</DistanceMeters>
          </Trackpoint>
          <Trackpoint>
            <Time>2020-12-05T13:09:25.000Z</Time>
            <Position>
              <LatitudeDegrees>36.8214573897421360015869140625</LatitudeDegrees>
              <LongitudeDegrees>-4.38378372229635715484619140625</LongitudeDegrees>
            </Position>
            <AltitudeMeters>781.4000244140625</AltitudeMeters>
            <DistanceMeters>NAN</DistanceMeters>
          </Trackpoint>
          <Trackpoint>
            <Time>2020-12-05T13:09:26.000Z</Time>
            <Position>
              <LatitudeDegrees>36.82146032340824604034423828125</LatitudeDegrees>
              <LongitudeDegrees>-4.38379906117916107177734375</LongitudeDegrees>
            </Position>
            <AltitudeMeters>781.4000244140625</AltitudeMeters>
            <DistanceMeters>NAN</DistanceMeters>
          </Trackpoint>
          <Trackpoint>
            <Time>2020-12-05T13:09:27.000Z</Time>
            <Position>
              <LatitudeDegrees>36.82146350853145122528076171875</LatitudeDegrees>
              <LongitudeDegrees>-4.38381875865161418914794921875</LongitudeDegrees>
            </Position>
            <AltitudeMeters>781.4000244140625</AltitudeMeters>
            <DistanceMeters>NAN</DistanceMeters>
          </Trackpoint>
          <Trackpoint>
            <Time>2020-12-05T13:09:28.000Z</Time>
            <Position>
              <LatitudeDegrees>36.82146552018821239471435546875</LatitudeDegrees>
              <LongitudeDegrees>-4.38383367843925952911376953125</LongitudeDegrees>
            </Position>
            <AltitudeMeters>781.4000244140625</AltitudeMeters>
            <DistanceMeters>NAN</DistanceMeters>
          </Trackpoint>
          <Trackpoint>
            <Time>2020-12-05T13:09:29.000Z</Time>
            <Position>
              <LatitudeDegrees>36.82146887294948101043701171875</LatitudeDegrees>
              <LongitudeDegrees>-4.3838466703891754150390625</LongitudeDegrees>
            </Position>
            <AltitudeMeters>781.4000244140625</AltitudeMeters>
            <DistanceMeters>NAN</DistanceMeters>
          </Trackpoint>
          <Trackpoint>
            <Time>2020-12-05T13:09:30.000Z</Time>
            <Position>
              <LatitudeDegrees>36.8214671127498149871826171875</LatitudeDegrees>
              <LongitudeDegrees>-4.38385538756847381591796875</LongitudeDegrees>
            </Position>
            <AltitudeMeters>781.4000244140625</AltitudeMeters>
            <DistanceMeters>NAN</DistanceMeters>
          </Trackpoint>
          <Trackpoint>
            <Time>2020-12-05T13:09:31.000Z</Time>
            <Position>
              <LatitudeDegrees>36.82146526873111724853515625</LatitudeDegrees>
              <LongitudeDegrees>-4.38386075198650360107421875</LongitudeDegrees>
            </Position>
            <AltitudeMeters>781.4000244140625</AltitudeMeters>
            <DistanceMeters>NAN</DistanceMeters>
          </Trackpoint>
          <Trackpoint>
            <Time>2020-12-05T13:09:32.000Z</Time>
            <Position>
              <LatitudeDegrees>36.82146258652210235595703125</LatitudeDegrees>
              <LongitudeDegrees>-4.38386787660419940948486328125</LongitudeDegrees>
            </Position>
            <AltitudeMeters>781.4000244140625</AltitudeMeters>
            <DistanceMeters>NAN</DistanceMeters>
          </Trackpoint>
          <Trackpoint>
            <Time>2020-12-05T13:09:33.000Z</Time>
            <Position>
              <LatitudeDegrees>36.821460239589214324951171875</LatitudeDegrees>
              <LongitudeDegrees>-4.3838766776025295257568359375</LongitudeDegrees>
            </Position>
            <AltitudeMeters>781.4000244140625</AltitudeMeters>
            <DistanceMeters>NAN</DistanceMeters>
          </Trackpoint>
          <Trackpoint>
            <Time>2020-12-05T13:09:34.000Z</Time>
            <Position>
              <LatitudeDegrees>36.82145562954246997833251953125</LatitudeDegrees>
              <LongitudeDegrees>-4.38387609086930751800537109375</LongitudeDegrees>
            </Position>
            <AltitudeMeters>781.4000244140625</AltitudeMeters>
            <DistanceMeters>NAN</DistanceMeters>
          </Trackpoint>
          <Trackpoint>
            <Time>2020-12-05T13:09:35.000Z</Time>
            <Position>
              <LatitudeDegrees>36.82145185768604278564453125</LatitudeDegrees>
              <LongitudeDegrees>-4.3838763423264026641845703125</LongitudeDegrees>
            </Position>
            <AltitudeMeters>781.4000244140625</AltitudeMeters>
            <DistanceMeters>NAN</DistanceMeters>
          </Trackpoint>
          <Trackpoint>
            <Time>2020-12-05T13:09:36.000Z</Time>
            <Position>
              <LatitudeDegrees>36.82144875638186931610107421875</LatitudeDegrees>
              <LongitudeDegrees>-4.3838761746883392333984375</LongitudeDegrees>
            </Position>
            <AltitudeMeters>781.4000244140625</AltitudeMeters>
            <DistanceMeters>NAN</DistanceMeters>
          </Trackpoint>
          <Trackpoint>
            <Time>2020-12-05T13:09:37.000Z</Time>
            <Position>
              <LatitudeDegrees>36.8214449845254421234130859375</LatitudeDegrees>
              <LongitudeDegrees>-4.3838734924793243408203125</LongitudeDegrees>
            </Position>
            <AltitudeMeters>781.4000244140625</AltitudeMeters>
            <DistanceMeters>NAN</DistanceMeters>
          </Trackpoint>
          <Trackpoint>
            <Time>2020-12-05T13:09:38.000Z</Time>
            <Position>
              <LatitudeDegrees>36.82144255377352237701416015625</LatitudeDegrees>
              <LongitudeDegrees>-4.38386879861354827880859375</LongitudeDegrees>
            </Position>
            <AltitudeMeters>781.4000244140625</AltitudeMeters>
            <DistanceMeters>NAN</DistanceMeters>
          </Trackpoint>
          <Trackpoint>
            <Time>2020-12-05T13:09:39.000Z</Time>
            <Position>
              <LatitudeDegrees>36.82143802754580974578857421875</LatitudeDegrees>
              <LongitudeDegrees>-4.383865110576152801513671875</LongitudeDegrees>
            </Position>
            <AltitudeMeters>781.4000244140625</AltitudeMeters>
            <DistanceMeters>NAN</DistanceMeters>
          </Trackpoint>
          <Trackpoint>
            <Time>2020-12-05T13:09:40.000Z</Time>
            <Position>
              <LatitudeDegrees>36.82143216021358966827392578125</LatitudeDegrees>
              <LongitudeDegrees>-4.383856393396854400634765625</LongitudeDegrees>
            </Position>
            <AltitudeMeters>781.4000244140625</AltitudeMeters>
            <DistanceMeters>NAN</DistanceMeters>
          </Trackpoint>
          <Trackpoint>
            <Time>2020-12-05T13:09:41.000Z</Time>
            <Position>
              <LatitudeDegrees>36.82142914272844791412353515625</LatitudeDegrees>
              <LongitudeDegrees>-4.3838468380272388458251953125</LongitudeDegrees>
            </Position>
            <AltitudeMeters>781.4000244140625</AltitudeMeters>
            <DistanceMeters>NAN</DistanceMeters>
          </Trackpoint>
          <Trackpoint>
            <Time>2020-12-05T13:09:42.000Z</Time>
            <Position>
              <LatitudeDegrees>36.82142771780490875244140625</LatitudeDegrees>
              <LongitudeDegrees>-4.38383795320987701416015625</LongitudeDegrees>
            </Position>
            <AltitudeMeters>781.4000244140625</AltitudeMeters>
            <DistanceMeters>NAN</DistanceMeters>
          </Trackpoint>
          <Trackpoint>
            <Time>2020-12-05T13:09:43.000Z</Time>
            <Position>
              <LatitudeDegrees>36.821426041424274444580078125</LatitudeDegrees>
              <LongitudeDegrees>-4.38383183442056179046630859375</LongitudeDegrees>
            </Position>
            <AltitudeMeters>781.4000244140625</AltitudeMeters>
            <DistanceMeters>NAN</DistanceMeters>
          </Trackpoint>
          <Trackpoint>
            <Time>2020-12-05T13:09:44.000Z</Time>
            <Position>
              <LatitudeDegrees>36.82142478413879871368408203125</LatitudeDegrees>
              <LongitudeDegrees>-4.383823871612548828125</LongitudeDegrees>
            </Position>
            <AltitudeMeters>781.4000244140625</AltitudeMeters>
            <DistanceMeters>NAN</DistanceMeters>
          </Trackpoint>
          <Trackpoint>
            <Time>2020-12-05T13:09:45.000Z</Time>
            <Position>
              <LatitudeDegrees>36.82142025791108608245849609375</LatitudeDegrees>
              <LongitudeDegrees>-4.3838203512132167816162109375</LongitudeDegrees>
            </Position>
            <AltitudeMeters>781.4000244140625</AltitudeMeters>
            <DistanceMeters>NAN</DistanceMeters>
          </Trackpoint>
          <Trackpoint>
            <Time>2020-12-05T13:09:46.000Z</Time>
            <Position>
              <LatitudeDegrees>36.82141564786434173583984375</LatitudeDegrees>
              <LongitudeDegrees>-4.383818171918392181396484375</LongitudeDegrees>
            </Position>
            <AltitudeMeters>781.4000244140625</AltitudeMeters>
            <DistanceMeters>NAN</DistanceMeters>
          </Trackpoint>
          <Trackpoint>
            <Time>2020-12-05T13:09:47.000Z</Time>
            <Position>
              <LatitudeDegrees>36.821410953998565673828125</LatitudeDegrees>
              <LongitudeDegrees>-4.3838171660900115966796875</LongitudeDegrees>
            </Position>
            <AltitudeMeters>781.4000244140625</AltitudeMeters>
            <DistanceMeters>NAN</DistanceMeters>
          </Trackpoint>
          <Trackpoint>
            <Time>2020-12-05T13:09:48.000Z</Time>
            <Position>
              <LatitudeDegrees>36.82140667922794818878173828125</LatitudeDegrees>
              <LongitudeDegrees>-4.38381724990904331207275390625</LongitudeDegrees>
            </Position>
            <AltitudeMeters>781.4000244140625</AltitudeMeters>
            <DistanceMeters>NAN</DistanceMeters>
          </Trackpoint>
          <Trackpoint>
            <Time>2020-12-05T13:09:49.000Z</Time>
            <Position>
              <LatitudeDegrees>36.82140382938086986541748046875</LatitudeDegrees>
              <LongitudeDegrees>-4.3838198482990264892578125</LongitudeDegrees>
            </Position>
            <AltitudeMeters>781.4000244140625</AltitudeMeters>
            <DistanceMeters>NAN</DistanceMeters>
          </Trackpoint>
          <Trackpoint>
            <Time>2020-12-05T13:09:50.000Z</Time>
            <Position>
              <LatitudeDegrees>36.8214007280766963958740234375</LatitudeDegrees>
              <LongitudeDegrees>-4.38382462598383426666259765625</LongitudeDegrees>
            </Position>
            <AltitudeMeters>781.4000244140625</AltitudeMeters>
            <DistanceMeters>NAN</DistanceMeters>
          </Trackpoint>
          <Trackpoint>
            <Time>2020-12-05T13:09:51.000Z</Time>
            <Position>
              <LatitudeDegrees>36.82139812968671321868896484375</LatitudeDegrees>
              <LongitudeDegrees>-4.3838305771350860595703125</LongitudeDegrees>
            </Position>
            <AltitudeMeters>781.4000244140625</AltitudeMeters>
            <DistanceMeters>NAN</DistanceMeters>
          </Trackpoint>
          <Trackpoint>
            <Time>2020-12-05T13:09:52.000Z</Time>
            <Position>
              <LatitudeDegrees>36.8213963694870471954345703125</LatitudeDegrees>
              <LongitudeDegrees>-4.38383770175278186798095703125</LongitudeDegrees>
            </Position>
            <AltitudeMeters>781.4000244140625</AltitudeMeters>
            <DistanceMeters>NAN</DistanceMeters>
          </Trackpoint>
          <Trackpoint>
            <Time>2020-12-05T13:09:53.000Z</Time>
            <Position>
              <LatitudeDegrees>36.8213967047631740570068359375</LatitudeDegrees>
              <LongitudeDegrees>-4.383844994008541107177734375</LongitudeDegrees>
            </Position>
            <AltitudeMeters>781.4000244140625</AltitudeMeters>
            <DistanceMeters>NAN</DistanceMeters>
          </Trackpoint>
          <Trackpoint>
            <Time>2020-12-05T13:09:54.000Z</Time>
            <Position>
              <LatitudeDegrees>36.82139779441058635711669921875</LatitudeDegrees>
              <LongitudeDegrees>-4.383851028978824615478515625</LongitudeDegrees>
            </Position>
            <AltitudeMeters>781.4000244140625</AltitudeMeters>
            <DistanceMeters>NAN</DistanceMeters>
          </Trackpoint>
          <Trackpoint>
            <Time>2020-12-05T13:09:55.000Z</Time>
            <Position>
              <LatitudeDegrees>36.821399219334125518798828125</LatitudeDegrees>
              <LongitudeDegrees>-4.38385630957782268524169921875</LongitudeDegrees>
            </Position>
            <AltitudeMeters>781.4000244140625</AltitudeMeters>
            <DistanceMeters>NAN</DistanceMeters>
          </Trackpoint>
          <Trackpoint>
            <Time>2020-12-05T13:09:56.000Z</Time>
            <Position>
              <LatitudeDegrees>36.82139963842928409576416015625</LatitudeDegrees>
              <LongitudeDegrees>-4.3838615901768207550048828125</LongitudeDegrees>
            </Position>
            <AltitudeMeters>781.4000244140625</AltitudeMeters>
            <DistanceMeters>NAN</DistanceMeters>
          </Trackpoint>
          <Trackpoint>
            <Time>2020-12-05T13:09:57.000Z</Time>
            <Position>
              <LatitudeDegrees>36.82139963842928409576416015625</LatitudeDegrees>
              <LongitudeDegrees>-4.3838676251471042633056640625</LongitudeDegrees>
            </Position>
            <AltitudeMeters>781.4000244140625</AltitudeMeters>
            <DistanceMeters>NAN</DistanceMeters>
          </Trackpoint>
          <Trackpoint>
            <Time>2020-12-05T13:09:58.000Z</Time>
            <Position>
              <LatitudeDegrees>36.82139913551509380340576171875</LatitudeDegrees>
              <LongitudeDegrees>-4.38387542031705379486083984375</LongitudeDegrees>
            </Position>
            <AltitudeMeters>781.4000244140625</AltitudeMeters>
            <DistanceMeters>NAN</DistanceMeters>
          </Trackpoint>
          <Trackpoint>
            <Time>2020-12-05T13:09:59.000Z</Time>
            <Position>
              <LatitudeDegrees>36.8213973753154277801513671875</LatitudeDegrees>
              <LongitudeDegrees>-4.3838830478489398956298828125</LongitudeDegrees>
            </Position>
            <AltitudeMeters>781.4000244140625</AltitudeMeters>
            <DistanceMeters>NAN</DistanceMeters>
          </Trackpoint>
          <Trackpoint>
            <Time>2020-12-05T13:10:00.000Z</Time>
            <Position>
              <LatitudeDegrees>36.8213935196399688720703125</LatitudeDegrees>
              <LongitudeDegrees>-4.38389159739017486572265625</LongitudeDegrees>
            </Position>
            <AltitudeMeters>783</AltitudeMeters>
            <DistanceMeters>NAN</DistanceMeters>
          </Trackpoint>
          <Trackpoint>
            <Time>2020-12-05T13:10:01.000Z</Time>
            <Position>
              <LatitudeDegrees>36.82139025069773197174072265625</LatitudeDegrees>
              <LongitudeDegrees>-4.383899979293346405029296875</LongitudeDegrees>
            </Position>
            <AltitudeMeters>783</AltitudeMeters>
            <DistanceMeters>NAN</DistanceMeters>
          </Trackpoint>
          <Trackpoint>
            <Time>2020-12-05T13:10:02.000Z</Time>
            <Position>
              <LatitudeDegrees>36.82138589210808277130126953125</LatitudeDegrees>
              <LongitudeDegrees>-4.383909367024898529052734375</LongitudeDegrees>
            </Position>
            <AltitudeMeters>783</AltitudeMeters>
            <DistanceMeters>NAN</DistanceMeters>
          </Trackpoint>
          <Trackpoint>
            <Time>2020-12-05T13:10:03.000Z</Time>
            <Position>
              <LatitudeDegrees>36.82138320989906787872314453125</LatitudeDegrees>
              <LongitudeDegrees>-4.38391984440386295318603515625</LongitudeDegrees>
            </Position>
            <AltitudeMeters>783</AltitudeMeters>
            <DistanceMeters>NAN</DistanceMeters>
          </Trackpoint>
          <Trackpoint>
            <Time>2020-12-05T13:10:04.000Z</Time>
            <Position>
              <LatitudeDegrees>36.8213816173374652862548828125</LatitudeDegrees>
              <LongitudeDegrees>-4.38393727876245975494384765625</LongitudeDegrees>
            </Position>
            <AltitudeMeters>783</AltitudeMeters>
            <DistanceMeters>NAN</DistanceMeters>
          </Trackpoint>
          <Trackpoint>
            <Time>2020-12-05T13:10:05.000Z</Time>
            <Position>
              <LatitudeDegrees>36.82138002477586269378662109375</LatitudeDegrees>
              <LongitudeDegrees>-4.38395462930202484130859375</LongitudeDegrees>
            </Position>
            <AltitudeMeters>783</AltitudeMeters>
            <DistanceMeters>NAN</DistanceMeters>
          </Trackpoint>
          <Trackpoint>
            <Time>2020-12-05T13:10:06.000Z</Time>
            <Position>
              <LatitudeDegrees>36.8213775940239429473876953125</LatitudeDegrees>
              <LongitudeDegrees>-4.383966363966464996337890625</LongitudeDegrees>
            </Position>
            <AltitudeMeters>783</AltitudeMeters>
            <DistanceMeters>NAN</DistanceMeters>
          </Trackpoint>
          <Trackpoint>
            <Time>2020-12-05T13:10:07.000Z</Time>
            <Position>
              <LatitudeDegrees>36.8213739059865474700927734375</LatitudeDegrees>
              <LongitudeDegrees>-4.38398304395377635955810546875</LongitudeDegrees>
            </Position>
            <AltitudeMeters>783</AltitudeMeters>
            <DistanceMeters>NAN</DistanceMeters>
          </Trackpoint>
          <Trackpoint>
            <Time>2020-12-05T13:10:08.000Z</Time>
            <Position>
              <LatitudeDegrees>36.821368373930454254150390625</LatitudeDegrees>
              <LongitudeDegrees>-4.383997879922389984130859375</LongitudeDegrees>
            </Position>
            <AltitudeMeters>783</AltitudeMeters>
            <DistanceMeters>NAN</DistanceMeters>
          </Trackpoint>
          <Trackpoint>
            <Time>2020-12-05T13:10:09.000Z</Time>
            <Position>
              <LatitudeDegrees>36.82135957293212413787841796875</LatitudeDegrees>
              <LongitudeDegrees>-4.38401355408132076263427734375</LongitudeDegrees>
            </Position>
            <AltitudeMeters>783</AltitudeMeters>
            <DistanceMeters>NAN</DistanceMeters>
          </Trackpoint>
          <Trackpoint>
            <Time>2020-12-05T13:10:10.000Z</Time>
            <Position>
              <LatitudeDegrees>36.821351610124111175537109375</LatitudeDegrees>
              <LongitudeDegrees>-4.3840238638222217559814453125</LongitudeDegrees>
            </Position>
            <AltitudeMeters>783</AltitudeMeters>
            <DistanceMeters>NAN</DistanceMeters>
          </Trackpoint>
          <Trackpoint>
            <Time>2020-12-05T13:10:11.000Z</Time>
            <Position>
              <LatitudeDegrees>36.82134264148771762847900390625</LatitudeDegrees>
              <LongitudeDegrees>-4.38403685577213764190673828125</LongitudeDegrees>
            </Position>
            <AltitudeMeters>783</AltitudeMeters>
            <DistanceMeters>NAN</DistanceMeters>
          </Trackpoint>
          <Trackpoint>
            <Time>2020-12-05T13:10:12.000Z</Time>
            <Position>
              <LatitudeDegrees>36.82133794762194156646728515625</LatitudeDegrees>
              <LongitudeDegrees>-4.38404724933207035064697265625</LongitudeDegrees>
            </Position>
            <AltitudeMeters>783</AltitudeMeters>
            <DistanceMeters>NAN</DistanceMeters>
          </Trackpoint>
          <Trackpoint>
            <Time>2020-12-05T13:10:13.000Z</Time>
            <Position>
              <LatitudeDegrees>36.8213326670229434967041015625</LatitudeDegrees>
              <LongitudeDegrees>-4.38406066037714481353759765625</LongitudeDegrees>
            </Position>
            <AltitudeMeters>783</AltitudeMeters>
            <DistanceMeters>NAN</DistanceMeters>
          </Trackpoint>
          <Trackpoint>
            <Time>2020-12-05T13:10:14.000Z</Time>
            <Position>
              <LatitudeDegrees>36.82132721878588199615478515625</LatitudeDegrees>
              <LongitudeDegrees>-4.384074993431568145751953125</LongitudeDegrees>
            </Position>
            <AltitudeMeters>783</AltitudeMeters>
            <DistanceMeters>NAN</DistanceMeters>
          </Trackpoint>
          <Trackpoint>
            <Time>2020-12-05T13:10:15.000Z</Time>
            <Position>
              <LatitudeDegrees>36.8213239498436450958251953125</LatitudeDegrees>
              <LongitudeDegrees>-4.3840838782489299774169921875</LongitudeDegrees>
            </Position>
            <AltitudeMeters>783</AltitudeMeters>
            <DistanceMeters>NAN</DistanceMeters>
          </Trackpoint>
          <Trackpoint>
            <Time>2020-12-05T13:10:16.000Z</Time>
            <Position>
              <LatitudeDegrees>36.82132202200591564178466796875</LatitudeDegrees>
              <LongitudeDegrees>-4.38409267924726009368896484375</LongitudeDegrees>
            </Position>
            <AltitudeMeters>783</AltitudeMeters>
            <DistanceMeters>NAN</DistanceMeters>
          </Trackpoint>
          <Trackpoint>
            <Time>2020-12-05T13:10:17.000Z</Time>
            <Position>
              <LatitudeDegrees>36.82132118381559848785400390625</LatitudeDegrees>
              <LongitudeDegrees>-4.38409812748432159423828125</LongitudeDegrees>
            </Position>
            <AltitudeMeters>783</AltitudeMeters>
            <DistanceMeters>NAN</DistanceMeters>
          </Trackpoint>
          <Trackpoint>
            <Time>2020-12-05T13:10:18.000Z</Time>
            <Position>
              <LatitudeDegrees>36.82132051326334476470947265625</LatitudeDegrees>
              <LongitudeDegrees>-4.38410592265427112579345703125</LongitudeDegrees>
            </Position>
            <AltitudeMeters>783</AltitudeMeters>
            <DistanceMeters>NAN</DistanceMeters>
          </Trackpoint>
          <Trackpoint>
            <Time>2020-12-05T13:10:19.000Z</Time>
            <Position>
              <LatitudeDegrees>36.82131917215883731842041015625</LatitudeDegrees>
              <LongitudeDegrees>-4.3841153942048549652099609375</LongitudeDegrees>
            </Position>
            <AltitudeMeters>783</AltitudeMeters>
            <DistanceMeters>NAN</DistanceMeters>
          </Trackpoint>
          <Trackpoint>
            <Time>2020-12-05T13:10:20.000Z</Time>
            <Position>
              <LatitudeDegrees>36.8213157355785369873046875</LatitudeDegrees>
              <LongitudeDegrees>-4.384123943746089935302734375</LongitudeDegrees>
            </Position>
            <AltitudeMeters>783</AltitudeMeters>
            <DistanceMeters>NAN</DistanceMeters>
          </Trackpoint>
          <Trackpoint>
            <Time>2020-12-05T13:10:21.000Z</Time>
            <Position>
              <LatitudeDegrees>36.82131112553179264068603515625</LatitudeDegrees>
              <LongitudeDegrees>-4.3841341696679592132568359375</LongitudeDegrees>
            </Position>
            <AltitudeMeters>783</AltitudeMeters>
            <DistanceMeters>NAN</DistanceMeters>
          </Trackpoint>
          <Trackpoint>
            <Time>2020-12-05T13:10:22.000Z</Time>
            <Position>
              <LatitudeDegrees>36.82130676694214344024658203125</LatitudeDegrees>
              <LongitudeDegrees>-4.384140707552433013916015625</LongitudeDegrees>
            </Position>
            <AltitudeMeters>783</AltitudeMeters>
            <DistanceMeters>NAN</DistanceMeters>
          </Trackpoint>
          <Trackpoint>
            <Time>2020-12-05T13:10:23.000Z</Time>
            <Position>
              <LatitudeDegrees>36.8213008157908916473388671875</LatitudeDegrees>
              <LongitudeDegrees>-4.384146742522716522216796875</LongitudeDegrees>
            </Position>
            <AltitudeMeters>783</AltitudeMeters>
            <DistanceMeters>NAN</DistanceMeters>
          </Trackpoint>
          <Trackpoint>
            <Time>2020-12-05T13:10:24.000Z</Time>
            <Position>
              <LatitudeDegrees>36.82129285298287868499755859375</LatitudeDegrees>
              <LongitudeDegrees>-4.3841529451310634613037109375</LongitudeDegrees>
            </Position>
            <AltitudeMeters>783</AltitudeMeters>
            <DistanceMeters>NAN</DistanceMeters>
          </Trackpoint>
          <Trackpoint>
            <Time>2020-12-05T13:10:25.000Z</Time>
            <Position>
              <LatitudeDegrees>36.821285896003246307373046875</LatitudeDegrees>
              <LongitudeDegrees>-4.38415889628231525421142578125</LongitudeDegrees>
            </Position>
            <AltitudeMeters>783</AltitudeMeters>
            <DistanceMeters>NAN</DistanceMeters>
          </Trackpoint>
          <Trackpoint>
            <Time>2020-12-05T13:10:26.000Z</Time>
            <Position>
              <LatitudeDegrees>36.82127893902361392974853515625</LatitudeDegrees>
              <LongitudeDegrees>-4.384166188538074493408203125</LongitudeDegrees>
            </Position>
            <AltitudeMeters>783</AltitudeMeters>
            <DistanceMeters>NAN</DistanceMeters>
          </Trackpoint>
          <Trackpoint>
            <Time>2020-12-05T13:10:27.000Z</Time>
            <Position>
              <LatitudeDegrees>36.82127323932945728302001953125</LatitudeDegrees>
              <LongitudeDegrees>-4.38417448662221431732177734375</LongitudeDegrees>
            </Position>
            <AltitudeMeters>783</AltitudeMeters>
            <DistanceMeters>NAN</DistanceMeters>
          </Trackpoint>
          <Trackpoint>
            <Time>2020-12-05T13:10:28.000Z</Time>
            <Position>
              <LatitudeDegrees>36.82126653380692005157470703125</LatitudeDegrees>
              <LongitudeDegrees>-4.3841821141541004180908203125</LongitudeDegrees>
            </Position>
            <AltitudeMeters>783</AltitudeMeters>
            <DistanceMeters>NAN</DistanceMeters>
          </Trackpoint>
          <Trackpoint>
            <Time>2020-12-05T13:10:29.000Z</Time>
            <Position>
              <LatitudeDegrees>36.82125966064631938934326171875</LatitudeDegrees>
              <LongitudeDegrees>-4.3841888196766376495361328125</LongitudeDegrees>
            </Position>
            <AltitudeMeters>783</AltitudeMeters>
            <DistanceMeters>NAN</DistanceMeters>
          </Trackpoint>
          <Trackpoint>
            <Time>2020-12-05T13:10:30.000Z</Time>
            <Position>
              <LatitudeDegrees>36.82125245220959186553955078125</LatitudeDegrees>
              <LongitudeDegrees>-4.38419745303690433502197265625</LongitudeDegrees>
            </Position>
            <AltitudeMeters>783</AltitudeMeters>
            <DistanceMeters>NAN</DistanceMeters>
          </Trackpoint>
          <Trackpoint>
            <Time>2020-12-05T13:10:31.000Z</Time>
            <Position>
              <LatitudeDegrees>36.821243651211261749267578125</LatitudeDegrees>
              <LongitudeDegrees>-4.3842082656919956207275390625</LongitudeDegrees>
            </Position>
            <AltitudeMeters>783</AltitudeMeters>
            <DistanceMeters>NAN</DistanceMeters>
          </Trackpoint>
          <Trackpoint>
            <Time>2020-12-05T13:10:32.000Z</Time>
            <Position>
              <LatitudeDegrees>36.82123619131743907928466796875</LatitudeDegrees>
              <LongitudeDegrees>-4.384219832718372344970703125</LongitudeDegrees>
            </Position>
            <AltitudeMeters>783</AltitudeMeters>
            <DistanceMeters>NAN</DistanceMeters>
          </Trackpoint>
          <Trackpoint>
            <Time>2020-12-05T13:10:33.000Z</Time>
            <Position>
              <LatitudeDegrees>36.8212290666997432708740234375</LatitudeDegrees>
              <LongitudeDegrees>-4.38423232175409793853759765625</LongitudeDegrees>
            </Position>
            <AltitudeMeters>783</AltitudeMeters>
            <DistanceMeters>NAN</DistanceMeters>
          </Trackpoint>
          <Trackpoint>
            <Time>2020-12-05T13:10:34.000Z</Time>
            <Position>
              <LatitudeDegrees>36.82122194208204746246337890625</LatitudeDegrees>
              <LongitudeDegrees>-4.384240619838237762451171875</LongitudeDegrees>
            </Position>
            <AltitudeMeters>783</AltitudeMeters>
            <DistanceMeters>NAN</DistanceMeters>
          </Trackpoint>
          <Trackpoint>
            <Time>2020-12-05T13:10:35.000Z</Time>
            <Position>
              <LatitudeDegrees>36.82121473364531993865966796875</LatitudeDegrees>
              <LongitudeDegrees>-4.38424640335142612457275390625</LongitudeDegrees>
            </Position>
            <AltitudeMeters>783</AltitudeMeters>
            <DistanceMeters>NAN</DistanceMeters>
          </Trackpoint>
          <Trackpoint>
            <Time>2020-12-05T13:10:36.000Z</Time>
            <Position>
              <LatitudeDegrees>36.82120786048471927642822265625</LatitudeDegrees>
              <LongitudeDegrees>-4.3842505104839801788330078125</LongitudeDegrees>
            </Position>
            <AltitudeMeters>783</AltitudeMeters>
            <DistanceMeters>NAN</DistanceMeters>
          </Trackpoint>
          <Trackpoint>
            <Time>2020-12-05T13:10:37.000Z</Time>
            <Position>
              <LatitudeDegrees>36.821202076971530914306640625</LatitudeDegrees>
              <LongitudeDegrees>-4.38425746746361255645751953125</LongitudeDegrees>
            </Position>
            <AltitudeMeters>783</AltitudeMeters>
            <DistanceMeters>NAN</DistanceMeters>
          </Trackpoint>
          <Trackpoint>
            <Time>2020-12-05T13:10:38.000Z</Time>
            <Position>
              <LatitudeDegrees>36.8211945332586765289306640625</LatitudeDegrees>
              <LongitudeDegrees>-4.38426467590034008026123046875</LongitudeDegrees>
            </Position>
            <AltitudeMeters>783</AltitudeMeters>
            <DistanceMeters>NAN</DistanceMeters>
          </Trackpoint>
          <Trackpoint>
            <Time>2020-12-05T13:10:39.000Z</Time>
            <Position>
              <LatitudeDegrees>36.82118506170809268951416015625</LatitudeDegrees>
              <LongitudeDegrees>-4.384270794689655303955078125</LongitudeDegrees>
            </Position>
            <AltitudeMeters>783</AltitudeMeters>
            <DistanceMeters>NAN</DistanceMeters>
          </Trackpoint>
          <Trackpoint>
            <Time>2020-12-05T13:10:40.000Z</Time>
            <Position>
              <LatitudeDegrees>36.82117290794849395751953125</LatitudeDegrees>
              <LongitudeDegrees>-4.38428026624023914337158203125</LongitudeDegrees>
            </Position>
            <AltitudeMeters>783</AltitudeMeters>
            <DistanceMeters>NAN</DistanceMeters>
          </Trackpoint>
          <Trackpoint>
            <Time>2020-12-05T13:10:41.000Z</Time>
            <Position>
              <LatitudeDegrees>36.82115874253213405609130859375</LatitudeDegrees>
              <LongitudeDegrees>-4.3842940963804721832275390625</LongitudeDegrees>
            </Position>
            <AltitudeMeters>783</AltitudeMeters>
            <DistanceMeters>NAN</DistanceMeters>
          </Trackpoint>
          <Trackpoint>
            <Time>2020-12-05T13:10:42.000Z</Time>
            <Position>
              <LatitudeDegrees>36.82114399038255214691162109375</LatitudeDegrees>
              <LongitudeDegrees>-4.38430205918848514556884765625</LongitudeDegrees>
            </Position>
            <AltitudeMeters>783</AltitudeMeters>
            <DistanceMeters>NAN</DistanceMeters>
          </Trackpoint>
          <Trackpoint>
            <Time>2020-12-05T13:10:43.000Z</Time>
            <Position>
              <LatitudeDegrees>36.82113091461360454559326171875</LatitudeDegrees>
              <LongitudeDegrees>-4.38431060872972011566162109375</LongitudeDegrees>
            </Position>
            <AltitudeMeters>783</AltitudeMeters>
            <DistanceMeters>NAN</DistanceMeters>
          </Trackpoint>
          <Trackpoint>
            <Time>2020-12-05T13:10:44.000Z</Time>
            <Position>
              <LatitudeDegrees>36.821116916835308074951171875</LatitudeDegrees>
              <LongitudeDegrees>-4.3843173980712890625</LongitudeDegrees>
            </Position>
            <AltitudeMeters>783</AltitudeMeters>
            <DistanceMeters>NAN</DistanceMeters>
          </Trackpoint>
          <Trackpoint>
            <Time>2020-12-05T13:10:45.000Z</Time>
            <Position>
              <LatitudeDegrees>36.8211030028760433197021484375</LatitudeDegrees>
              <LongitudeDegrees>-4.38432234339416027069091796875</LongitudeDegrees>
            </Position>
            <AltitudeMeters>783</AltitudeMeters>
            <DistanceMeters>NAN</DistanceMeters>
          </Trackpoint>
          <Trackpoint>
            <Time>2020-12-05T13:10:46.000Z</Time>
            <Position>
              <LatitudeDegrees>36.821090765297412872314453125</LatitudeDegrees>
              <LongitudeDegrees>-4.3843256123363971710205078125</LongitudeDegrees>
            </Position>
            <AltitudeMeters>783</AltitudeMeters>
            <DistanceMeters>NAN</DistanceMeters>
          </Trackpoint>
          <Trackpoint>
            <Time>2020-12-05T13:10:47.000Z</Time>
            <Position>
              <LatitudeDegrees>36.8210808746516704559326171875</LatitudeDegrees>
              <LongitudeDegrees>-4.384333826601505279541015625</LongitudeDegrees>
            </Position>
            <AltitudeMeters>783</AltitudeMeters>
            <DistanceMeters>NAN</DistanceMeters>
          </Trackpoint>
          <Trackpoint>
            <Time>2020-12-05T13:10:48.000Z</Time>
            <Position>
              <LatitudeDegrees>36.82106955908238887786865234375</LatitudeDegrees>
              <LongitudeDegrees>-4.38434220850467681884765625</LongitudeDegrees>
            </Position>
            <AltitudeMeters>783</AltitudeMeters>
            <DistanceMeters>NAN</DistanceMeters>
          </Trackpoint>
          <Trackpoint>
            <Time>2020-12-05T13:10:49.000Z</Time>
            <Position>
              <LatitudeDegrees>36.82105815969407558441162109375</LatitudeDegrees>
              <LongitudeDegrees>-4.38435033895075321197509765625</LongitudeDegrees>
            </Position>
            <AltitudeMeters>783</AltitudeMeters>
            <DistanceMeters>NAN</DistanceMeters>
          </Trackpoint>
          <Trackpoint>
            <Time>2020-12-05T13:10:50.000Z</Time>
            <Position>
              <LatitudeDegrees>36.82104407809674739837646484375</LatitudeDegrees>
              <LongitudeDegrees>-4.38436098396778106689453125</LongitudeDegrees>
            </Position>
            <AltitudeMeters>783</AltitudeMeters>
            <DistanceMeters>NAN</DistanceMeters>
          </Trackpoint>
          <Trackpoint>
            <Time>2020-12-05T13:10:51.000Z</Time>
            <Position>
              <LatitudeDegrees>36.8210322596132755279541015625</LatitudeDegrees>
              <LongitudeDegrees>-4.3843688629567623138427734375</LongitudeDegrees>
            </Position>
            <AltitudeMeters>783</AltitudeMeters>
            <DistanceMeters>NAN</DistanceMeters>
          </Trackpoint>
          <Trackpoint>
            <Time>2020-12-05T13:10:52.000Z</Time>
            <Position>
              <LatitudeDegrees>36.8210252188146114349365234375</LatitudeDegrees>
              <LongitudeDegrees>-4.38437833450734615325927734375</LongitudeDegrees>
            </Position>
            <AltitudeMeters>783</AltitudeMeters>
            <DistanceMeters>NAN</DistanceMeters>
          </Trackpoint>
          <Trackpoint>
            <Time>2020-12-05T13:10:53.000Z</Time>
            <Position>
              <LatitudeDegrees>36.8210144899785518646240234375</LatitudeDegrees>
              <LongitudeDegrees>-4.3843866325914859771728515625</LongitudeDegrees>
            </Position>
            <AltitudeMeters>783</AltitudeMeters>
            <DistanceMeters>NAN</DistanceMeters>
          </Trackpoint>
          <Trackpoint>
            <Time>2020-12-05T13:10:54.000Z</Time>
            <Position>
              <LatitudeDegrees>36.8210030905902385711669921875</LatitudeDegrees>
              <LongitudeDegrees>-4.38439593650400638580322265625</LongitudeDegrees>
            </Position>
            <AltitudeMeters>783</AltitudeMeters>
            <DistanceMeters>NAN</DistanceMeters>
          </Trackpoint>
          <Trackpoint>
            <Time>2020-12-05T13:10:55.000Z</Time>
            <Position>
              <LatitudeDegrees>36.82099378667771816253662109375</LatitudeDegrees>
              <LongitudeDegrees>-4.384405575692653656005859375</LongitudeDegrees>
            </Position>
            <AltitudeMeters>783</AltitudeMeters>
            <DistanceMeters>NAN</DistanceMeters>
          </Trackpoint>
          <Trackpoint>
            <Time>2020-12-05T13:10:56.000Z</Time>
            <Position>
              <LatitudeDegrees>36.82098456658422946929931640625</LatitudeDegrees>
              <LongitudeDegrees>-4.3844126164913177490234375</LongitudeDegrees>
            </Position>
            <AltitudeMeters>783</AltitudeMeters>
            <DistanceMeters>NAN</DistanceMeters>
          </Trackpoint>
          <Trackpoint>
            <Time>2020-12-05T13:10:57.000Z</Time>
            <Position>
              <LatitudeDegrees>36.82097685523331165313720703125</LatitudeDegrees>
              <LongitudeDegrees>-4.38441722653806209564208984375</LongitudeDegrees>
            </Position>
            <AltitudeMeters>783</AltitudeMeters>
            <DistanceMeters>NAN</DistanceMeters>
          </Trackpoint>
          <Trackpoint>
            <Time>2020-12-05T13:10:58.000Z</Time>
            <Position>
              <LatitudeDegrees>36.8209683895111083984375</LatitudeDegrees>
              <LongitudeDegrees>-4.3844231776893138885498046875</LongitudeDegrees>
            </Position>
            <AltitudeMeters>783</AltitudeMeters>
            <DistanceMeters>NAN</DistanceMeters>
          </Trackpoint>
          <Trackpoint>
            <Time>2020-12-05T13:10:59.000Z</Time>
            <Position>
              <LatitudeDegrees>36.82095942087471485137939453125</LatitudeDegrees>
              <LongitudeDegrees>-4.38442929647862911224365234375</LongitudeDegrees>
            </Position>
            <AltitudeMeters>783</AltitudeMeters>
            <DistanceMeters>NAN</DistanceMeters>
          </Trackpoint>
          <Trackpoint>
            <Time>2020-12-05T13:11:00.000Z</Time>
            <Position>
              <LatitudeDegrees>36.8209507875144481658935546875</LatitudeDegrees>
              <LongitudeDegrees>-4.38443633727729320526123046875</LongitudeDegrees>
            </Position>
            <AltitudeMeters>784.4000244140625</AltitudeMeters>
            <DistanceMeters>NAN</DistanceMeters>
          </Trackpoint>
          <Trackpoint>
            <Time>2020-12-05T13:11:01.000Z</Time>
            <Position>
              <LatitudeDegrees>36.8209417350590229034423828125</LatitudeDegrees>
              <LongitudeDegrees>-4.384441785514354705810546875</LongitudeDegrees>
            </Position>
            <AltitudeMeters>784.4000244140625</AltitudeMeters>
            <DistanceMeters>NAN</DistanceMeters>
          </Trackpoint>
          <Trackpoint>
            <Time>2020-12-05T13:11:02.000Z</Time>
            <Position>
              <LatitudeDegrees>36.8209340237081050872802734375</LatitudeDegrees>
              <LongitudeDegrees>-4.38444706611335277557373046875</LongitudeDegrees>
            </Position>
            <AltitudeMeters>784.4000244140625</AltitudeMeters>
            <DistanceMeters>NAN</DistanceMeters>
          </Trackpoint>
          <Trackpoint>
            <Time>2020-12-05T13:11:03.000Z</Time>
            <Position>
              <LatitudeDegrees>36.82092748582363128662109375</LatitudeDegrees>
              <LongitudeDegrees>-4.38445595093071460723876953125</LongitudeDegrees>
            </Position>
            <AltitudeMeters>784.4000244140625</AltitudeMeters>
            <DistanceMeters>NAN</DistanceMeters>
          </Trackpoint>
          <Trackpoint>
            <Time>2020-12-05T13:11:04.000Z</Time>
            <Position>
              <LatitudeDegrees>36.820919774472713470458984375</LatitudeDegrees>
              <LongitudeDegrees>-4.38446584157645702362060546875</LongitudeDegrees>
            </Position>
            <AltitudeMeters>784.4000244140625</AltitudeMeters>
            <DistanceMeters>NAN</DistanceMeters>
          </Trackpoint>
          <Trackpoint>
            <Time>2020-12-05T13:11:05.000Z</Time>
            <Position>
              <LatitudeDegrees>36.82091382332146167755126953125</LatitudeDegrees>
              <LongitudeDegrees>-4.38447623513638973236083984375</LongitudeDegrees>
            </Position>
            <AltitudeMeters>784.4000244140625</AltitudeMeters>
            <DistanceMeters>NAN</DistanceMeters>
          </Trackpoint>
          <Trackpoint>
            <Time>2020-12-05T13:11:06.000Z</Time>
            <Position>
              <LatitudeDegrees>36.820909716188907623291015625</LatitudeDegrees>
              <LongitudeDegrees>-4.3844878859817981719970703125</LongitudeDegrees>
            </Position>
            <AltitudeMeters>784.4000244140625</AltitudeMeters>
            <DistanceMeters>NAN</DistanceMeters>
          </Trackpoint>
          <Trackpoint>
            <Time>2020-12-05T13:11:07.000Z</Time>
            <Position>
              <LatitudeDegrees>36.8209061957895755767822265625</LatitudeDegrees>
              <LongitudeDegrees>-4.38449869863688945770263671875</LongitudeDegrees>
            </Position>
            <AltitudeMeters>784.4000244140625</AltitudeMeters>
            <DistanceMeters>NAN</DistanceMeters>
          </Trackpoint>
          <Trackpoint>
            <Time>2020-12-05T13:11:08.000Z</Time>
            <Position>
              <LatitudeDegrees>36.82090066373348236083984375</LatitudeDegrees>
              <LongitudeDegrees>-4.38450925983488559722900390625</LongitudeDegrees>
            </Position>
            <AltitudeMeters>784.4000244140625</AltitudeMeters>
            <DistanceMeters>NAN</DistanceMeters>
          </Trackpoint>
          <Trackpoint>
            <Time>2020-12-05T13:11:09.000Z</Time>
            <Position>
              <LatitudeDegrees>36.820894964039325714111328125</LatitudeDegrees>
              <LongitudeDegrees>-4.38452082686126232147216796875</LongitudeDegrees>
            </Position>
            <AltitudeMeters>784.4000244140625</AltitudeMeters>
            <DistanceMeters>NAN</DistanceMeters>
          </Trackpoint>
          <Trackpoint>
            <Time>2020-12-05T13:11:10.000Z</Time>
            <Position>
              <LatitudeDegrees>36.82089052163064479827880859375</LatitudeDegrees>
              <LongitudeDegrees>-4.3845344893634319305419921875</LongitudeDegrees>
            </Position>
            <AltitudeMeters>784.4000244140625</AltitudeMeters>
            <DistanceMeters>NAN</DistanceMeters>
          </Trackpoint>
          <Trackpoint>
            <Time>2020-12-05T13:11:11.000Z</Time>
            <Position>
              <LatitudeDegrees>36.82088465429842472076416015625</LatitudeDegrees>
              <LongitudeDegrees>-4.38454982824623584747314453125</LongitudeDegrees>
            </Position>
            <AltitudeMeters>784.4000244140625</AltitudeMeters>
            <DistanceMeters>NAN</DistanceMeters>
          </Trackpoint>
          <Trackpoint>
            <Time>2020-12-05T13:11:12.000Z</Time>
            <Position>
              <LatitudeDegrees>36.820879541337490081787109375</LatitudeDegrees>
              <LongitudeDegrees>-4.3845639936625957489013671875</LongitudeDegrees>
            </Position>
            <AltitudeMeters>784.4000244140625</AltitudeMeters>
            <DistanceMeters>NAN</DistanceMeters>
          </Trackpoint>
          <Trackpoint>
            <Time>2020-12-05T13:11:13.000Z</Time>
            <Position>
              <LatitudeDegrees>36.8208730034530162811279296875</LatitudeDegrees>
              <LongitudeDegrees>-4.38458628952503204345703125</LongitudeDegrees>
            </Position>
            <AltitudeMeters>784.4000244140625</AltitudeMeters>
            <DistanceMeters>NAN</DistanceMeters>
          </Trackpoint>
          <Trackpoint>
            <Time>2020-12-05T13:11:14.000Z</Time>
            <Position>
              <LatitudeDegrees>36.82086981832981109619140625</LatitudeDegrees>
              <LongitudeDegrees>-4.3846065737307071685791015625</LongitudeDegrees>
            </Position>
            <AltitudeMeters>784.4000244140625</AltitudeMeters>
            <DistanceMeters>NAN</DistanceMeters>
          </Trackpoint>
          <Trackpoint>
            <Time>2020-12-05T13:11:15.000Z</Time>
            <Position>
              <LatitudeDegrees>36.820869147777557373046875</LatitudeDegrees>
              <LongitudeDegrees>-4.3846300430595874786376953125</LongitudeDegrees>
            </Position>
            <AltitudeMeters>784.4000244140625</AltitudeMeters>
            <DistanceMeters>NAN</DistanceMeters>
          </Trackpoint>
          <Trackpoint>
            <Time>2020-12-05T13:11:16.000Z</Time>
            <Position>
              <LatitudeDegrees>36.8208731710910797119140625</LatitudeDegrees>
              <LongitudeDegrees>-4.38465510495007038116455078125</LongitudeDegrees>
            </Position>
            <AltitudeMeters>784.4000244140625</AltitudeMeters>
            <DistanceMeters>NAN</DistanceMeters>
          </Trackpoint>
          <Trackpoint>
            <Time>2020-12-05T13:11:17.000Z</Time>
            <Position>
              <LatitudeDegrees>36.82087593711912631988525390625</LatitudeDegrees>
              <LongitudeDegrees>-4.38467471860349178314208984375</LongitudeDegrees>
            </Position>
            <AltitudeMeters>784.4000244140625</AltitudeMeters>
            <DistanceMeters>NAN</DistanceMeters>
          </Trackpoint>
          <Trackpoint>
            <Time>2020-12-05T13:11:18.000Z</Time>
            <Position>
              <LatitudeDegrees>36.820877529680728912353515625</LatitudeDegrees>
              <LongitudeDegrees>-4.3846950866281986236572265625</LongitudeDegrees>
            </Position>
            <AltitudeMeters>784.4000244140625</AltitudeMeters>
            <DistanceMeters>NAN</DistanceMeters>
          </Trackpoint>
          <Trackpoint>
            <Time>2020-12-05T13:11:19.000Z</Time>
            <Position>
              <LatitudeDegrees>36.8208783678710460662841796875</LatitudeDegrees>
              <LongitudeDegrees>-4.38471444882452487945556640625</LongitudeDegrees>
            </Position>
            <AltitudeMeters>784.4000244140625</AltitudeMeters>
            <DistanceMeters>NAN</DistanceMeters>
          </Trackpoint>
          <Trackpoint>
            <Time>2020-12-05T13:11:20.000Z</Time>
            <Position>
              <LatitudeDegrees>36.8208807148039340972900390625</LatitudeDegrees>
              <LongitudeDegrees>-4.3847326375544071197509765625</LongitudeDegrees>
            </Position>
            <AltitudeMeters>784.4000244140625</AltitudeMeters>
            <DistanceMeters>NAN</DistanceMeters>
          </Trackpoint>
          <Trackpoint>
            <Time>2020-12-05T13:11:21.000Z</Time>
            <Position>
              <LatitudeDegrees>36.820879541337490081787109375</LatitudeDegrees>
              <LongitudeDegrees>-4.3847477249801158905029296875</LongitudeDegrees>
            </Position>
            <AltitudeMeters>784.4000244140625</AltitudeMeters>
            <DistanceMeters>NAN</DistanceMeters>
          </Trackpoint>
          <Trackpoint>
            <Time>2020-12-05T13:11:22.000Z</Time>
            <Position>
              <LatitudeDegrees>36.8208803795278072357177734375</LatitudeDegrees>
              <LongitudeDegrees>-4.3847611360251903533935546875</LongitudeDegrees>
            </Position>
            <AltitudeMeters>784.4000244140625</AltitudeMeters>
            <DistanceMeters>NAN</DistanceMeters>
          </Trackpoint>
          <Trackpoint>
            <Time>2020-12-05T13:11:23.000Z</Time>
            <Position>
              <LatitudeDegrees>36.8208827264606952667236328125</LatitudeDegrees>
              <LongitudeDegrees>-4.38477463088929653167724609375</LongitudeDegrees>
            </Position>
            <AltitudeMeters>784.4000244140625</AltitudeMeters>
            <DistanceMeters>NAN</DistanceMeters>
          </Trackpoint>
          <Trackpoint>
            <Time>2020-12-05T13:11:24.000Z</Time>
            <Position>
              <LatitudeDegrees>36.82088482193648815155029296875</LatitudeDegrees>
              <LongitudeDegrees>-4.38478955067694187164306640625</LongitudeDegrees>
            </Position>
            <AltitudeMeters>784.4000244140625</AltitudeMeters>
            <DistanceMeters>NAN</DistanceMeters>
          </Trackpoint>
          <Trackpoint>
            <Time>2020-12-05T13:11:25.000Z</Time>
            <Position>
              <LatitudeDegrees>36.8208857439458370208740234375</LatitudeDegrees>
              <LongitudeDegrees>-4.3848023749887943267822265625</LongitudeDegrees>
            </Position>
            <AltitudeMeters>784.4000244140625</AltitudeMeters>
            <DistanceMeters>NAN</DistanceMeters>
          </Trackpoint>
          <Trackpoint>
            <Time>2020-12-05T13:11:26.000Z</Time>
            <Position>
              <LatitudeDegrees>36.82088532485067844390869140625</LatitudeDegrees>
              <LongitudeDegrees>-4.3848131038248538970947265625</LongitudeDegrees>
            </Position>
            <AltitudeMeters>784.4000244140625</AltitudeMeters>
            <DistanceMeters>NAN</DistanceMeters>
          </Trackpoint>
          <Trackpoint>
            <Time>2020-12-05T13:11:27.000Z</Time>
            <Position>
              <LatitudeDegrees>36.8208830617368221282958984375</LatitudeDegrees>
              <LongitudeDegrees>-4.38482492230832576751708984375</LongitudeDegrees>
            </Position>
            <AltitudeMeters>784.4000244140625</AltitudeMeters>
            <DistanceMeters>NAN</DistanceMeters>
          </Trackpoint>
          <Trackpoint>
            <Time>2020-12-05T13:11:28.000Z</Time>
            <Position>
              <LatitudeDegrees>36.8208807148039340972900390625</LatitudeDegrees>
              <LongitudeDegrees>-4.38483573496341705322265625</LongitudeDegrees>
            </Position>
            <AltitudeMeters>784.4000244140625</AltitudeMeters>
            <DistanceMeters>NAN</DistanceMeters>
          </Trackpoint>
          <Trackpoint>
            <Time>2020-12-05T13:11:29.000Z</Time>
            <Position>
              <LatitudeDegrees>36.82087845169007778167724609375</LatitudeDegrees>
              <LongitudeDegrees>-4.3848442845046520233154296875</LongitudeDegrees>
            </Position>
            <AltitudeMeters>784.4000244140625</AltitudeMeters>
            <DistanceMeters>NAN</DistanceMeters>
          </Trackpoint>
          <Trackpoint>
            <Time>2020-12-05T13:11:30.000Z</Time>
            <Position>
              <LatitudeDegrees>36.82087786495685577392578125</LatitudeDegrees>
              <LongitudeDegrees>-4.38486046157777309417724609375</LongitudeDegrees>
            </Position>
            <AltitudeMeters>784.4000244140625</AltitudeMeters>
            <DistanceMeters>NAN</DistanceMeters>
          </Trackpoint>
          <Trackpoint>
            <Time>2020-12-05T13:11:31.000Z</Time>
            <Position>
              <LatitudeDegrees>36.820878870785236358642578125</LatitudeDegrees>
              <LongitudeDegrees>-4.3848747946321964263916015625</LongitudeDegrees>
            </Position>
            <AltitudeMeters>784.4000244140625</AltitudeMeters>
            <DistanceMeters>NAN</DistanceMeters>
          </Trackpoint>
          <Trackpoint>
            <Time>2020-12-05T13:11:32.000Z</Time>
            <Position>
              <LatitudeDegrees>36.82088063098490238189697265625</LatitudeDegrees>
              <LongitudeDegrees>-4.38489315100014209747314453125</LongitudeDegrees>
            </Position>
            <AltitudeMeters>784.4000244140625</AltitudeMeters>
            <DistanceMeters>NAN</DistanceMeters>
          </Trackpoint>
          <Trackpoint>
            <Time>2020-12-05T13:11:33.000Z</Time>
            <Position>
              <LatitudeDegrees>36.82088457047939300537109375</LatitudeDegrees>
              <LongitudeDegrees>-4.38491175882518291473388671875</LongitudeDegrees>
            </Position>
            <AltitudeMeters>784.4000244140625</AltitudeMeters>
            <DistanceMeters>NAN</DistanceMeters>
          </Trackpoint>
          <Trackpoint>
            <Time>2020-12-05T13:11:34.000Z</Time>
            <Position>
              <LatitudeDegrees>36.8208880908787250518798828125</LatitudeDegrees>
              <LongitudeDegrees>-4.3849291093647480010986328125</LongitudeDegrees>
            </Position>
            <AltitudeMeters>784.4000244140625</AltitudeMeters>
            <DistanceMeters>NAN</DistanceMeters>
          </Trackpoint>
          <Trackpoint>
            <Time>2020-12-05T13:11:35.000Z</Time>
            <Position>
              <LatitudeDegrees>36.82088985107839107513427734375</LatitudeDegrees>
              <LongitudeDegrees>-4.3849435262382030487060546875</LongitudeDegrees>
            </Position>
            <AltitudeMeters>784.4000244140625</AltitudeMeters>
            <DistanceMeters>NAN</DistanceMeters>
          </Trackpoint>
          <Trackpoint>
            <Time>2020-12-05T13:11:36.000Z</Time>
            <Position>
              <LatitudeDegrees>36.82089001871645450592041015625</LatitudeDegrees>
              <LongitudeDegrees>-4.38495551235973834991455078125</LongitudeDegrees>
            </Position>
            <AltitudeMeters>784.4000244140625</AltitudeMeters>
            <DistanceMeters>NAN</DistanceMeters>
          </Trackpoint>
          <Trackpoint>
            <Time>2020-12-05T13:11:37.000Z</Time>
            <Position>
              <LatitudeDegrees>36.82088901288807392120361328125</LatitudeDegrees>
              <LongitudeDegrees>-4.38496942631900310516357421875</LongitudeDegrees>
            </Position>
            <AltitudeMeters>784.4000244140625</AltitudeMeters>
            <DistanceMeters>NAN</DistanceMeters>
          </Trackpoint>
          <Trackpoint>
            <Time>2020-12-05T13:11:38.000Z</Time>
            <Position>
              <LatitudeDegrees>36.82088725268840789794921875</LatitudeDegrees>
              <LongitudeDegrees>-4.38498325645923614501953125</LongitudeDegrees>
            </Position>
            <AltitudeMeters>784.4000244140625</AltitudeMeters>
            <DistanceMeters>NAN</DistanceMeters>
          </Trackpoint>
          <Trackpoint>
            <Time>2020-12-05T13:11:39.000Z</Time>
            <Position>
              <LatitudeDegrees>36.8208847381174564361572265625</LatitudeDegrees>
              <LongitudeDegrees>-4.38499800860881805419921875</LongitudeDegrees>
            </Position>
            <AltitudeMeters>784.4000244140625</AltitudeMeters>
            <DistanceMeters>NAN</DistanceMeters>
          </Trackpoint>
          <Trackpoint>
            <Time>2020-12-05T13:11:40.000Z</Time>
            <Position>
              <LatitudeDegrees>36.82088322937488555908203125</LatitudeDegrees>
              <LongitudeDegrees>-4.38501334749162197113037109375</LongitudeDegrees>
            </Position>
            <AltitudeMeters>784.4000244140625</AltitudeMeters>
            <DistanceMeters>NAN</DistanceMeters>
          </Trackpoint>
          <Trackpoint>
            <Time>2020-12-05T13:11:41.000Z</Time>
            <Position>
              <LatitudeDegrees>36.820879876613616943359375</LatitudeDegrees>
              <LongitudeDegrees>-4.38502944074571132659912109375</LongitudeDegrees>
            </Position>
            <AltitudeMeters>784.4000244140625</AltitudeMeters>
            <DistanceMeters>NAN</DistanceMeters>
          </Trackpoint>
          <Trackpoint>
            <Time>2020-12-05T13:11:42.000Z</Time>
            <Position>
              <LatitudeDegrees>36.8208763562142848968505859375</LatitudeDegrees>
              <LongitudeDegrees>-4.38504486344754695892333984375</LongitudeDegrees>
            </Position>
            <AltitudeMeters>784.4000244140625</AltitudeMeters>
            <DistanceMeters>NAN</DistanceMeters>
          </Trackpoint>
          <Trackpoint>
            <Time>2020-12-05T13:11:43.000Z</Time>
            <Position>
              <LatitudeDegrees>36.8208753503859043121337890625</LatitudeDegrees>
              <LongitudeDegrees>-4.38506045378744602203369140625</LongitudeDegrees>
            </Position>
            <AltitudeMeters>784.4000244140625</AltitudeMeters>
            <DistanceMeters>NAN</DistanceMeters>
          </Trackpoint>
          <Trackpoint>
            <Time>2020-12-05T13:11:44.000Z</Time>
            <Position>
              <LatitudeDegrees>36.8208758533000946044921875</LatitudeDegrees>
              <LongitudeDegrees>-4.38507311046123504638671875</LongitudeDegrees>
            </Position>
            <AltitudeMeters>784.4000244140625</AltitudeMeters>
            <DistanceMeters>NAN</DistanceMeters>
          </Trackpoint>
          <Trackpoint>
            <Time>2020-12-05T13:11:45.000Z</Time>
            <Position>
              <LatitudeDegrees>36.82087644003331661224365234375</LatitudeDegrees>
              <LongitudeDegrees>-4.38508358784019947052001953125</LongitudeDegrees>
            </Position>
            <AltitudeMeters>784.4000244140625</AltitudeMeters>
            <DistanceMeters>NAN</DistanceMeters>
          </Trackpoint>
          <Trackpoint>
            <Time>2020-12-05T13:11:46.000Z</Time>
            <Position>
              <LatitudeDegrees>36.82087610475718975067138671875</LatitudeDegrees>
              <LongitudeDegrees>-4.38509783707559108734130859375</LongitudeDegrees>
            </Position>
            <AltitudeMeters>784.4000244140625</AltitudeMeters>
            <DistanceMeters>NAN</DistanceMeters>
          </Trackpoint>
          <Trackpoint>
            <Time>2020-12-05T13:11:47.000Z</Time>
            <Position>
              <LatitudeDegrees>36.8208760209381580352783203125</LatitudeDegrees>
              <LongitudeDegrees>-4.3851101584732532501220703125</LongitudeDegrees>
            </Position>
            <AltitudeMeters>784.4000244140625</AltitudeMeters>
            <DistanceMeters>NAN</DistanceMeters>
          </Trackpoint>
          <Trackpoint>
            <Time>2020-12-05T13:11:48.000Z</Time>
            <Position>
              <LatitudeDegrees>36.82087861932814121246337890625</LatitudeDegrees>
              <LongitudeDegrees>-4.385123737156391143798828125</LongitudeDegrees>
            </Position>
            <AltitudeMeters>784.4000244140625</AltitudeMeters>
            <DistanceMeters>NAN</DistanceMeters>
          </Trackpoint>
          <Trackpoint>
            <Time>2020-12-05T13:11:49.000Z</Time>
            <Position>
              <LatitudeDegrees>36.8208793736994266510009765625</LatitudeDegrees>
              <LongitudeDegrees>-4.38513790257275104522705078125</LongitudeDegrees>
            </Position>
            <AltitudeMeters>784.4000244140625</AltitudeMeters>
            <DistanceMeters>NAN</DistanceMeters>
          </Trackpoint>
          <Trackpoint>
            <Time>2020-12-05T13:11:50.000Z</Time>
            <Position>
              <LatitudeDegrees>36.82088130153715610504150390625</LatitudeDegrees>
              <LongitudeDegrees>-4.385152570903301239013671875</LongitudeDegrees>
            </Position>
            <AltitudeMeters>784.4000244140625</AltitudeMeters>
            <DistanceMeters>NAN</DistanceMeters>
          </Trackpoint>
          <Trackpoint>
            <Time>2020-12-05T13:11:51.000Z</Time>
            <Position>
              <LatitudeDegrees>36.8208850733935832977294921875</LatitudeDegrees>
              <LongitudeDegrees>-4.38516573049128055572509765625</LongitudeDegrees>
            </Position>
            <AltitudeMeters>784.4000244140625</AltitudeMeters>
            <DistanceMeters>NAN</DistanceMeters>
          </Trackpoint>
          <Trackpoint>
            <Time>2020-12-05T13:11:52.000Z</Time>
            <Position>
              <LatitudeDegrees>36.8208894319832324981689453125</LatitudeDegrees>
              <LongitudeDegrees>-4.38518199138343334197998046875</LongitudeDegrees>
            </Position>
            <AltitudeMeters>784.4000244140625</AltitudeMeters>
            <DistanceMeters>NAN</DistanceMeters>
          </Trackpoint>
          <Trackpoint>
            <Time>2020-12-05T13:11:53.000Z</Time>
            <Position>
              <LatitudeDegrees>36.82089328765869140625</LatitudeDegrees>
              <LongitudeDegrees>-4.385197162628173828125</LongitudeDegrees>
            </Position>
            <AltitudeMeters>784.4000244140625</AltitudeMeters>
            <DistanceMeters>NAN</DistanceMeters>
          </Trackpoint>
          <Trackpoint>
            <Time>2020-12-05T13:11:54.000Z</Time>
            <Position>
              <LatitudeDegrees>36.82089529931545257568359375</LatitudeDegrees>
              <LongitudeDegrees>-4.38521350733935832977294921875</LongitudeDegrees>
            </Position>
            <AltitudeMeters>784.4000244140625</AltitudeMeters>
            <DistanceMeters>NAN</DistanceMeters>
          </Trackpoint>
          <Trackpoint>
            <Time>2020-12-05T13:11:55.000Z</Time>
            <Position>
              <LatitudeDegrees>36.82089890353381633758544921875</LatitudeDegrees>
              <LongitudeDegrees>-4.38523270189762115478515625</LongitudeDegrees>
            </Position>
            <AltitudeMeters>784.4000244140625</AltitudeMeters>
            <DistanceMeters>NAN</DistanceMeters>
          </Trackpoint>
          <Trackpoint>
            <Time>2020-12-05T13:11:56.000Z</Time>
            <Position>
              <LatitudeDegrees>36.82090141810476779937744140625</LatitudeDegrees>
              <LongitudeDegrees>-4.385247118771076202392578125</LongitudeDegrees>
            </Position>
            <AltitudeMeters>784.4000244140625</AltitudeMeters>
            <DistanceMeters>NAN</DistanceMeters>
          </Trackpoint>
          <Trackpoint>
            <Time>2020-12-05T13:11:57.000Z</Time>
            <Position>
              <LatitudeDegrees>36.820903010666370391845703125</LatitudeDegrees>
              <LongitudeDegrees>-4.385258853435516357421875</LongitudeDegrees>
            </Position>
            <AltitudeMeters>784.4000244140625</AltitudeMeters>
            <DistanceMeters>NAN</DistanceMeters>
          </Trackpoint>
          <Trackpoint>
            <Time>2020-12-05T13:11:58.000Z</Time>
            <Position>
              <LatitudeDegrees>36.8209040164947509765625</LatitudeDegrees>
              <LongitudeDegrees>-4.38527016900479793548583984375</LongitudeDegrees>
            </Position>
            <AltitudeMeters>784.4000244140625</AltitudeMeters>
            <DistanceMeters>NAN</DistanceMeters>
          </Trackpoint>
          <Trackpoint>
            <Time>2020-12-05T13:11:59.000Z</Time>
            <Position>
              <LatitudeDegrees>36.82090426795184612274169921875</LatitudeDegrees>
              <LongitudeDegrees>-4.3852843344211578369140625</LongitudeDegrees>
            </Position>
            <AltitudeMeters>784.4000244140625</AltitudeMeters>
            <DistanceMeters>NAN</DistanceMeters>
          </Trackpoint>
          <Trackpoint>
            <Time>2020-12-05T13:12:00.000Z</Time>
            <Position>
              <LatitudeDegrees>36.8209041841328144073486328125</LatitudeDegrees>
              <LongitudeDegrees>-4.3852995894849300384521484375</LongitudeDegrees>
            </Position>
            <AltitudeMeters>786.20001220703125</AltitudeMeters>
            <DistanceMeters>NAN</DistanceMeters>
          </Trackpoint>
          <Trackpoint>
            <Time>2020-12-05T13:12:01.000Z</Time>
            <Position>
              <LatitudeDegrees>36.8209041841328144073486328125</LatitudeDegrees>
              <LongitudeDegrees>-4.38531526364386081695556640625</LongitudeDegrees>
            </Position>
            <AltitudeMeters>786.20001220703125</AltitudeMeters>
            <DistanceMeters>NAN</DistanceMeters>
          </Trackpoint>
          <Trackpoint>
            <Time>2020-12-05T13:12:02.000Z</Time>
            <Position>
              <LatitudeDegrees>36.8209053575992584228515625</LatitudeDegrees>
              <LongitudeDegrees>-4.3853311054408550262451171875</LongitudeDegrees>
            </Position>
            <AltitudeMeters>786.20001220703125</AltitudeMeters>
            <DistanceMeters>NAN</DistanceMeters>
          </Trackpoint>
          <Trackpoint>
            <Time>2020-12-05T13:12:03.000Z</Time>
            <Position>
              <LatitudeDegrees>36.8209075368940830230712890625</LatitudeDegrees>
              <LongitudeDegrees>-4.3853465281426906585693359375</LongitudeDegrees>
            </Position>
            <AltitudeMeters>786.20001220703125</AltitudeMeters>
            <DistanceMeters>NAN</DistanceMeters>
          </Trackpoint>
          <Trackpoint>
            <Time>2020-12-05T13:12:04.000Z</Time>
            <Position>
              <LatitudeDegrees>36.820909716188907623291015625</LatitudeDegrees>
              <LongitudeDegrees>-4.38536203466355800628662109375</LongitudeDegrees>
            </Position>
            <AltitudeMeters>786.20001220703125</AltitudeMeters>
            <DistanceMeters>NAN</DistanceMeters>
          </Trackpoint>
          <Trackpoint>
            <Time>2020-12-05T13:12:05.000Z</Time>
            <Position>
              <LatitudeDegrees>36.8209122307598590850830078125</LatitudeDegrees>
              <LongitudeDegrees>-4.38537896610796451568603515625</LongitudeDegrees>
            </Position>
            <AltitudeMeters>786.20001220703125</AltitudeMeters>
            <DistanceMeters>NAN</DistanceMeters>
          </Trackpoint>
          <Trackpoint>
            <Time>2020-12-05T13:12:06.000Z</Time>
            <Position>
              <LatitudeDegrees>36.82090845890343189239501953125</LatitudeDegrees>
              <LongitudeDegrees>-4.38539472408592700958251953125</LongitudeDegrees>
            </Position>
            <AltitudeMeters>786.20001220703125</AltitudeMeters>
            <DistanceMeters>NAN</DistanceMeters>
          </Trackpoint>
          <Trackpoint>
            <Time>2020-12-05T13:12:07.000Z</Time>
            <Position>
              <LatitudeDegrees>36.8209085427224636077880859375</LatitudeDegrees>
              <LongitudeDegrees>-4.385411404073238372802734375</LongitudeDegrees>
            </Position>
            <AltitudeMeters>786.20001220703125</AltitudeMeters>
            <DistanceMeters>NAN</DistanceMeters>
          </Trackpoint>
          <Trackpoint>
            <Time>2020-12-05T13:12:08.000Z</Time>
            <Position>
              <LatitudeDegrees>36.82091030292212963104248046875</LatitudeDegrees>
              <LongitudeDegrees>-4.3854286707937717437744140625</LongitudeDegrees>
            </Position>
            <AltitudeMeters>786.20001220703125</AltitudeMeters>
            <DistanceMeters>NAN</DistanceMeters>
          </Trackpoint>
          <Trackpoint>
            <Time>2020-12-05T13:12:09.000Z</Time>
            <Position>
              <LatitudeDegrees>36.82091130875051021575927734375</LatitudeDegrees>
              <LongitudeDegrees>-4.3854383938014507293701171875</LongitudeDegrees>
            </Position>
            <AltitudeMeters>786.20001220703125</AltitudeMeters>
            <DistanceMeters>NAN</DistanceMeters>
          </Trackpoint>
          <Trackpoint>
            <Time>2020-12-05T13:12:10.000Z</Time>
            <Position>
              <LatitudeDegrees>36.820911727845668792724609375</LatitudeDegrees>
              <LongitudeDegrees>-4.385450966656208038330078125</LongitudeDegrees>
            </Position>
            <AltitudeMeters>786.20001220703125</AltitudeMeters>
            <DistanceMeters>NAN</DistanceMeters>
          </Trackpoint>
          <Trackpoint>
            <Time>2020-12-05T13:12:11.000Z</Time>
            <Position>
              <LatitudeDegrees>36.82091197930276393890380859375</LatitudeDegrees>
              <LongitudeDegrees>-4.38546462915837764739990234375</LongitudeDegrees>
            </Position>
            <AltitudeMeters>786.20001220703125</AltitudeMeters>
            <DistanceMeters>NAN</DistanceMeters>
          </Trackpoint>
          <Trackpoint>
            <Time>2020-12-05T13:12:12.000Z</Time>
            <Position>
              <LatitudeDegrees>36.820913068950176239013671875</LatitudeDegrees>
              <LongitudeDegrees>-4.385474435985088348388671875</LongitudeDegrees>
            </Position>
            <AltitudeMeters>786.20001220703125</AltitudeMeters>
            <DistanceMeters>NAN</DistanceMeters>
          </Trackpoint>
          <Trackpoint>
            <Time>2020-12-05T13:12:13.000Z</Time>
            <Position>
              <LatitudeDegrees>36.8209142424166202545166015625</LatitudeDegrees>
              <LongitudeDegrees>-4.38548482954502105712890625</LongitudeDegrees>
            </Position>
            <AltitudeMeters>786.20001220703125</AltitudeMeters>
            <DistanceMeters>NAN</DistanceMeters>
          </Trackpoint>
          <Trackpoint>
            <Time>2020-12-05T13:12:14.000Z</Time>
            <Position>
              <LatitudeDegrees>36.82091264985501766204833984375</LatitudeDegrees>
              <LongitudeDegrees>-4.38550016842782497406005859375</LongitudeDegrees>
            </Position>
            <AltitudeMeters>786.20001220703125</AltitudeMeters>
            <DistanceMeters>NAN</DistanceMeters>
          </Trackpoint>
          <Trackpoint>
            <Time>2020-12-05T13:12:15.000Z</Time>
            <Position>
              <LatitudeDegrees>36.82091013528406620025634765625</LatitudeDegrees>
              <LongitudeDegrees>-4.385519362986087799072265625</LongitudeDegrees>
            </Position>
            <AltitudeMeters>786.20001220703125</AltitudeMeters>
            <DistanceMeters>NAN</DistanceMeters>
          </Trackpoint>
          <Trackpoint>
            <Time>2020-12-05T13:12:16.000Z</Time>
            <Position>
              <LatitudeDegrees>36.82090602815151214599609375</LatitudeDegrees>
              <LongitudeDegrees>-4.3855336122214794158935546875</LongitudeDegrees>
            </Position>
            <AltitudeMeters>786.20001220703125</AltitudeMeters>
            <DistanceMeters>NAN</DistanceMeters>
          </Trackpoint>
          <Trackpoint>
            <Time>2020-12-05T13:12:17.000Z</Time>
            <Position>
              <LatitudeDegrees>36.820901334285736083984375</LatitudeDegrees>
              <LongitudeDegrees>-4.3855486996471881866455078125</LongitudeDegrees>
            </Position>
            <AltitudeMeters>786.20001220703125</AltitudeMeters>
            <DistanceMeters>NAN</DistanceMeters>
          </Trackpoint>
          <Trackpoint>
            <Time>2020-12-05T13:12:18.000Z</Time>
            <Position>
              <LatitudeDegrees>36.82089588604867458343505859375</LatitudeDegrees>
              <LongitudeDegrees>-4.385562278330326080322265625</LongitudeDegrees>
            </Position>
            <AltitudeMeters>786.20001220703125</AltitudeMeters>
            <DistanceMeters>NAN</DistanceMeters>
          </Trackpoint>
          <Trackpoint>
            <Time>2020-12-05T13:12:19.000Z</Time>
            <Position>
              <LatitudeDegrees>36.82089035399258136749267578125</LatitudeDegrees>
              <LongitudeDegrees>-4.3855748511850833892822265625</LongitudeDegrees>
            </Position>
            <AltitudeMeters>786.20001220703125</AltitudeMeters>
            <DistanceMeters>NAN</DistanceMeters>
          </Trackpoint>
          <Trackpoint>
            <Time>2020-12-05T13:12:20.000Z</Time>
            <Position>
              <LatitudeDegrees>36.82088515721261501312255859375</LatitudeDegrees>
              <LongitudeDegrees>-4.385586418211460113525390625</LongitudeDegrees>
            </Position>
            <AltitudeMeters>786.20001220703125</AltitudeMeters>
            <DistanceMeters>NAN</DistanceMeters>
          </Trackpoint>
          <Trackpoint>
            <Time>2020-12-05T13:12:21.000Z</Time>
            <Position>
              <LatitudeDegrees>36.82088113389909267425537109375</LatitudeDegrees>
              <LongitudeDegrees>-4.38559790141880512237548828125</LongitudeDegrees>
            </Position>
            <AltitudeMeters>786.20001220703125</AltitudeMeters>
            <DistanceMeters>NAN</DistanceMeters>
          </Trackpoint>
          <Trackpoint>
            <Time>2020-12-05T13:12:22.000Z</Time>
            <Position>
              <LatitudeDegrees>36.82087644003331661224365234375</LatitudeDegrees>
              <LongitudeDegrees>-4.3856077082455158233642578125</LongitudeDegrees>
            </Position>
            <AltitudeMeters>786.20001220703125</AltitudeMeters>
            <DistanceMeters>NAN</DistanceMeters>
          </Trackpoint>
          <Trackpoint>
            <Time>2020-12-05T13:12:23.000Z</Time>
            <Position>
              <LatitudeDegrees>36.82087040506303310394287109375</LatitudeDegrees>
              <LongitudeDegrees>-4.38561449758708477020263671875</LongitudeDegrees>
            </Position>
            <AltitudeMeters>786.20001220703125</AltitudeMeters>
            <DistanceMeters>NAN</DistanceMeters>
          </Trackpoint>
          <Trackpoint>
            <Time>2020-12-05T13:12:24.000Z</Time>
            <Position>
              <LatitudeDegrees>36.82086470536887645721435546875</LatitudeDegrees>
              <LongitudeDegrees>-4.38562120310962200164794921875</LongitudeDegrees>
            </Position>
            <AltitudeMeters>786.20001220703125</AltitudeMeters>
            <DistanceMeters>NAN</DistanceMeters>
          </Trackpoint>
          <Trackpoint>
            <Time>2020-12-05T13:12:25.000Z</Time>
            <Position>
              <LatitudeDegrees>36.82085984386503696441650390625</LatitudeDegrees>
              <LongitudeDegrees>-4.385628998279571533203125</LongitudeDegrees>
            </Position>
            <AltitudeMeters>786.20001220703125</AltitudeMeters>
            <DistanceMeters>NAN</DistanceMeters>
          </Trackpoint>
          <Trackpoint>
            <Time>2020-12-05T13:12:26.000Z</Time>
            <Position>
              <LatitudeDegrees>36.82085665874183177947998046875</LatitudeDegrees>
              <LongitudeDegrees>-4.3856442533433437347412109375</LongitudeDegrees>
            </Position>
            <AltitudeMeters>786.20001220703125</AltitudeMeters>
            <DistanceMeters>NAN</DistanceMeters>
          </Trackpoint>
          <Trackpoint>
            <Time>2020-12-05T13:12:27.000Z</Time>
            <Position>
              <LatitudeDegrees>36.8208518810570240020751953125</LatitudeDegrees>
              <LongitudeDegrees>-4.385663531720638275146484375</LongitudeDegrees>
            </Position>
            <AltitudeMeters>786.20001220703125</AltitudeMeters>
            <DistanceMeters>NAN</DistanceMeters>
          </Trackpoint>
          <Trackpoint>
            <Time>2020-12-05T13:12:28.000Z</Time>
            <Position>
              <LatitudeDegrees>36.82084257714450359344482421875</LatitudeDegrees>
              <LongitudeDegrees>-4.38568138517439365386962890625</LongitudeDegrees>
            </Position>
            <AltitudeMeters>786.20001220703125</AltitudeMeters>
            <DistanceMeters>NAN</DistanceMeters>
          </Trackpoint>
          <Trackpoint>
            <Time>2020-12-05T13:12:29.000Z</Time>
            <Position>
              <LatitudeDegrees>36.8208384700119495391845703125</LatitudeDegrees>
              <LongitudeDegrees>-4.38569563440978527069091796875</LongitudeDegrees>
            </Position>
            <AltitudeMeters>786.20001220703125</AltitudeMeters>
            <DistanceMeters>NAN</DistanceMeters>
          </Trackpoint>
          <Trackpoint>
            <Time>2020-12-05T13:12:30.000Z</Time>
            <Position>
              <LatitudeDegrees>36.8208307586610317230224609375</LatitudeDegrees>
              <LongitudeDegrees>-4.38570988364517688751220703125</LongitudeDegrees>
            </Position>
            <AltitudeMeters>786.20001220703125</AltitudeMeters>
            <DistanceMeters>NAN</DistanceMeters>
          </Trackpoint>
          <Trackpoint>
            <Time>2020-12-05T13:12:31.000Z</Time>
            <Position>
              <LatitudeDegrees>36.82082028128206729888916015625</LatitudeDegrees>
              <LongitudeDegrees>-4.38572631217539310455322265625</LongitudeDegrees>
            </Position>
            <AltitudeMeters>786.20001220703125</AltitudeMeters>
            <DistanceMeters>NAN</DistanceMeters>
          </Trackpoint>
          <Trackpoint>
            <Time>2020-12-05T13:12:32.000Z</Time>
            <Position>
              <LatitudeDegrees>36.82081215083599090576171875</LatitudeDegrees>
              <LongitudeDegrees>-4.3857384659349918365478515625</LongitudeDegrees>
            </Position>
            <AltitudeMeters>786.20001220703125</AltitudeMeters>
            <DistanceMeters>NAN</DistanceMeters>
          </Trackpoint>
          <Trackpoint>
            <Time>2020-12-05T13:12:33.000Z</Time>
            <Position>
              <LatitudeDegrees>36.82080502621829509735107421875</LatitudeDegrees>
              <LongitudeDegrees>-4.38574659638106822967529296875</LongitudeDegrees>
            </Position>
            <AltitudeMeters>786.20001220703125</AltitudeMeters>
            <DistanceMeters>NAN</DistanceMeters>
          </Trackpoint>
          <Trackpoint>
            <Time>2020-12-05T13:12:34.000Z</Time>
            <Position>
              <LatitudeDegrees>36.82079848833382129669189453125</LatitudeDegrees>
              <LongitudeDegrees>-4.38575682230293750762939453125</LongitudeDegrees>
            </Position>
            <AltitudeMeters>786.20001220703125</AltitudeMeters>
            <DistanceMeters>NAN</DistanceMeters>
          </Trackpoint>
          <Trackpoint>
            <Time>2020-12-05T13:12:35.000Z</Time>
            <Position>
              <LatitudeDegrees>36.8207927048206329345703125</LatitudeDegrees>
              <LongitudeDegrees>-4.38576688058674335479736328125</LongitudeDegrees>
            </Position>
            <AltitudeMeters>786.20001220703125</AltitudeMeters>
            <DistanceMeters>NAN</DistanceMeters>
          </Trackpoint>
          <Trackpoint>
            <Time>2020-12-05T13:12:36.000Z</Time>
            <Position>
              <LatitudeDegrees>36.820782981812953948974609375</LatitudeDegrees>
              <LongitudeDegrees>-4.38578213565051555633544921875</LongitudeDegrees>
            </Position>
            <AltitudeMeters>786.20001220703125</AltitudeMeters>
            <DistanceMeters>NAN</DistanceMeters>
          </Trackpoint>
          <Trackpoint>
            <Time>2020-12-05T13:12:37.000Z</Time>
            <Position>
              <LatitudeDegrees>36.8207694031298160552978515625</LatitudeDegrees>
              <LongitudeDegrees>-4.38579906709492206573486328125</LongitudeDegrees>
            </Position>
            <AltitudeMeters>786.20001220703125</AltitudeMeters>
            <DistanceMeters>NAN</DistanceMeters>
          </Trackpoint>
          <Trackpoint>
            <Time>2020-12-05T13:12:38.000Z</Time>
            <Position>
              <LatitudeDegrees>36.82075850665569305419921875</LatitudeDegrees>
              <LongitudeDegrees>-4.38581398688256740570068359375</LongitudeDegrees>
            </Position>
            <AltitudeMeters>786.20001220703125</AltitudeMeters>
            <DistanceMeters>NAN</DistanceMeters>
          </Trackpoint>
          <Trackpoint>
            <Time>2020-12-05T13:12:39.000Z</Time>
            <Position>
              <LatitudeDegrees>36.82074777781963348388671875</LatitudeDegrees>
              <LongitudeDegrees>-4.385830499231815338134765625</LongitudeDegrees>
            </Position>
            <AltitudeMeters>786.20001220703125</AltitudeMeters>
            <DistanceMeters>NAN</DistanceMeters>
          </Trackpoint>
          <Trackpoint>
            <Time>2020-12-05T13:12:40.000Z</Time>
            <Position>
              <LatitudeDegrees>36.8207390606403350830078125</LatitudeDegrees>
              <LongitudeDegrees>-4.3858440779149532318115234375</LongitudeDegrees>
            </Position>
            <AltitudeMeters>786.20001220703125</AltitudeMeters>
            <DistanceMeters>NAN</DistanceMeters>
          </Trackpoint>
          <Trackpoint>
            <Time>2020-12-05T13:12:41.000Z</Time>
            <Position>
              <LatitudeDegrees>36.8207328580319881439208984375</LatitudeDegrees>
              <LongitudeDegrees>-4.38585606403648853302001953125</LongitudeDegrees>
            </Position>
            <AltitudeMeters>786.20001220703125</AltitudeMeters>
            <DistanceMeters>NAN</DistanceMeters>
          </Trackpoint>
          <Trackpoint>
            <Time>2020-12-05T13:12:42.000Z</Time>
            <Position>
              <LatitudeDegrees>36.82072632014751434326171875</LatitudeDegrees>
              <LongitudeDegrees>-4.38586545176804065704345703125</LongitudeDegrees>
            </Position>
            <AltitudeMeters>786.20001220703125</AltitudeMeters>
            <DistanceMeters>NAN</DistanceMeters>
          </Trackpoint>
          <Trackpoint>
            <Time>2020-12-05T13:12:43.000Z</Time>
            <Position>
              <LatitudeDegrees>36.8207221291959285736083984375</LatitudeDegrees>
              <LongitudeDegrees>-4.38587835989892482757568359375</LongitudeDegrees>
            </Position>
            <AltitudeMeters>786.20001220703125</AltitudeMeters>
            <DistanceMeters>NAN</DistanceMeters>
          </Trackpoint>
          <Trackpoint>
            <Time>2020-12-05T13:12:44.000Z</Time>
            <Position>
              <LatitudeDegrees>36.8207171000540256500244140625</LatitudeDegrees>
              <LongitudeDegrees>-4.38589042983949184417724609375</LongitudeDegrees>
            </Position>
            <AltitudeMeters>786.20001220703125</AltitudeMeters>
            <DistanceMeters>NAN</DistanceMeters>
          </Trackpoint>
          <Trackpoint>
            <Time>2020-12-05T13:12:45.000Z</Time>
            <Position>
              <LatitudeDegrees>36.8207117356359958648681640625</LatitudeDegrees>
              <LongitudeDegrees>-4.38590199686586856842041015625</LongitudeDegrees>
            </Position>
            <AltitudeMeters>786.20001220703125</AltitudeMeters>
            <DistanceMeters>NAN</DistanceMeters>
          </Trackpoint>
          <Trackpoint>
            <Time>2020-12-05T13:12:46.000Z</Time>
            <Position>
              <LatitudeDegrees>36.82070679031312465667724609375</LatitudeDegrees>
              <LongitudeDegrees>-4.38591155223548412322998046875</LongitudeDegrees>
            </Position>
            <AltitudeMeters>786.20001220703125</AltitudeMeters>
            <DistanceMeters>NAN</DistanceMeters>
          </Trackpoint>
          <Trackpoint>
            <Time>2020-12-05T13:12:47.000Z</Time>
            <Position>
              <LatitudeDegrees>36.82070226408541202545166015625</LatitudeDegrees>
              <LongitudeDegrees>-4.3859238736331462860107421875</LongitudeDegrees>
            </Position>
            <AltitudeMeters>786.20001220703125</AltitudeMeters>
            <DistanceMeters>NAN</DistanceMeters>
          </Trackpoint>
          <Trackpoint>
            <Time>2020-12-05T13:12:48.000Z</Time>
            <Position>
              <LatitudeDegrees>36.8207016773521900177001953125</LatitudeDegrees>
              <LongitudeDegrees>-4.38594055362045764923095703125</LongitudeDegrees>
            </Position>
            <AltitudeMeters>786.20001220703125</AltitudeMeters>
            <DistanceMeters>NAN</DistanceMeters>
          </Trackpoint>
          <Trackpoint>
            <Time>2020-12-05T13:12:49.000Z</Time>
            <Position>
              <LatitudeDegrees>36.82069815695285797119140625</LatitudeDegrees>
              <LongitudeDegrees>-4.38595480285584926605224609375</LongitudeDegrees>
            </Position>
            <AltitudeMeters>786.20001220703125</AltitudeMeters>
            <DistanceMeters>NAN</DistanceMeters>
          </Trackpoint>
          <Trackpoint>
            <Time>2020-12-05T13:12:50.000Z</Time>
            <Position>
              <LatitudeDegrees>36.82069480419158935546875</LatitudeDegrees>
              <LongitudeDegrees>-4.38596335239708423614501953125</LongitudeDegrees>
            </Position>
            <AltitudeMeters>786.20001220703125</AltitudeMeters>
            <DistanceMeters>NAN</DistanceMeters>
          </Trackpoint>
          <Trackpoint>
            <Time>2020-12-05T13:12:51.000Z</Time>
            <Position>
              <LatitudeDegrees>36.82069136761128902435302734375</LatitudeDegrees>
              <LongitudeDegrees>-4.38597173430025577545166015625</LongitudeDegrees>
            </Position>
            <AltitudeMeters>786.20001220703125</AltitudeMeters>
            <DistanceMeters>NAN</DistanceMeters>
          </Trackpoint>
          <Trackpoint>
            <Time>2020-12-05T13:12:52.000Z</Time>
            <Position>
              <LatitudeDegrees>36.820688433945178985595703125</LatitudeDegrees>
              <LongitudeDegrees>-4.3859817087650299072265625</LongitudeDegrees>
            </Position>
            <AltitudeMeters>786.20001220703125</AltitudeMeters>
            <DistanceMeters>NAN</DistanceMeters>
          </Trackpoint>
          <Trackpoint>
            <Time>2020-12-05T13:12:53.000Z</Time>
            <Position>
              <LatitudeDegrees>36.8206825666129589080810546875</LatitudeDegrees>
              <LongitudeDegrees>-4.385993443429470062255859375</LongitudeDegrees>
            </Position>
            <AltitudeMeters>786.20001220703125</AltitudeMeters>
            <DistanceMeters>NAN</DistanceMeters>
          </Trackpoint>
          <Trackpoint>
            <Time>2020-12-05T13:12:54.000Z</Time>
            <Position>
              <LatitudeDegrees>36.82067678309977054595947265625</LatitudeDegrees>
              <LongitudeDegrees>-4.38600677065551280975341796875</LongitudeDegrees>
            </Position>
            <AltitudeMeters>786.20001220703125</AltitudeMeters>
            <DistanceMeters>NAN</DistanceMeters>
          </Trackpoint>
          <Trackpoint>
            <Time>2020-12-05T13:12:55.000Z</Time>
            <Position>
              <LatitudeDegrees>36.8206704966723918914794921875</LatitudeDegrees>
              <LongitudeDegrees>-4.38601766712963581085205078125</LongitudeDegrees>
            </Position>
            <AltitudeMeters>786.20001220703125</AltitudeMeters>
            <DistanceMeters>NAN</DistanceMeters>
          </Trackpoint>
          <Trackpoint>
            <Time>2020-12-05T13:12:56.000Z</Time>
            <Position>
              <LatitudeDegrees>36.82066462934017181396484375</LatitudeDegrees>
              <LongitudeDegrees>-4.38603065907955169677734375</LongitudeDegrees>
            </Position>
            <AltitudeMeters>786.20001220703125</AltitudeMeters>
            <DistanceMeters>NAN</DistanceMeters>
          </Trackpoint>
          <Trackpoint>
            <Time>2020-12-05T13:12:57.000Z</Time>
            <Position>
              <LatitudeDegrees>36.8206567503511905670166015625</LatitudeDegrees>
              <LongitudeDegrees>-4.38604080118238925933837890625</LongitudeDegrees>
            </Position>
            <AltitudeMeters>786.20001220703125</AltitudeMeters>
            <DistanceMeters>NAN</DistanceMeters>
          </Trackpoint>
          <Trackpoint>
            <Time>2020-12-05T13:12:58.000Z</Time>
            <Position>
              <LatitudeDegrees>36.8206483684480190277099609375</LatitudeDegrees>
              <LongitudeDegrees>-4.38604985363781452178955078125</LongitudeDegrees>
            </Position>
            <AltitudeMeters>786.20001220703125</AltitudeMeters>
            <DistanceMeters>NAN</DistanceMeters>
          </Trackpoint>
          <Trackpoint>
            <Time>2020-12-05T13:12:59.000Z</Time>
            <Position>
              <LatitudeDegrees>36.82063789106905460357666015625</LatitudeDegrees>
              <LongitudeDegrees>-4.3860616721212863922119140625</LongitudeDegrees>
            </Position>
            <AltitudeMeters>786.20001220703125</AltitudeMeters>
            <DistanceMeters>NAN</DistanceMeters>
          </Trackpoint>
          <Trackpoint>
            <Time>2020-12-05T13:13:00.000Z</Time>
            <Position>
              <LatitudeDegrees>36.82062850333750247955322265625</LatitudeDegrees>
              <LongitudeDegrees>-4.38607382588088512420654296875</LongitudeDegrees>
            </Position>
            <AltitudeMeters>787.20001220703125</AltitudeMeters>
            <DistanceMeters>NAN</DistanceMeters>
          </Trackpoint>
          <Trackpoint>
            <Time>2020-12-05T13:13:01.000Z</Time>
            <Position>
              <LatitudeDegrees>36.82061660103499889373779296875</LatitudeDegrees>
              <LongitudeDegrees>-4.386087991297245025634765625</LongitudeDegrees>
            </Position>
            <AltitudeMeters>787.20001220703125</AltitudeMeters>
            <DistanceMeters>NAN</DistanceMeters>
          </Trackpoint>
          <Trackpoint>
            <Time>2020-12-05T13:13:02.000Z</Time>
            <Position>
              <LatitudeDegrees>36.82060553692281246185302734375</LatitudeDegrees>
              <LongitudeDegrees>-4.38610249198973178863525390625</LongitudeDegrees>
            </Position>
            <AltitudeMeters>787.20001220703125</AltitudeMeters>
            <DistanceMeters>NAN</DistanceMeters>
          </Trackpoint>
          <Trackpoint>
            <Time>2020-12-05T13:13:03.000Z</Time>
            <Position>
              <LatitudeDegrees>36.82059531100094318389892578125</LatitudeDegrees>
              <LongitudeDegrees>-4.3861186690628528594970703125</LongitudeDegrees>
            </Position>
            <AltitudeMeters>787.20001220703125</AltitudeMeters>
            <DistanceMeters>NAN</DistanceMeters>
          </Trackpoint>
          <Trackpoint>
            <Time>2020-12-05T13:13:04.000Z</Time>
            <Position>
              <LatitudeDegrees>36.82058575563132762908935546875</LatitudeDegrees>
              <LongitudeDegrees>-4.38613585196435451507568359375</LongitudeDegrees>
            </Position>
            <AltitudeMeters>787.20001220703125</AltitudeMeters>
            <DistanceMeters>NAN</DistanceMeters>
          </Trackpoint>
          <Trackpoint>
            <Time>2020-12-05T13:13:05.000Z</Time>
            <Position>
              <LatitudeDegrees>36.82057611644268035888671875</LatitudeDegrees>
              <LongitudeDegrees>-4.38614859245717525482177734375</LongitudeDegrees>
            </Position>
            <AltitudeMeters>787.20001220703125</AltitudeMeters>
            <DistanceMeters>NAN</DistanceMeters>
          </Trackpoint>
          <Trackpoint>
            <Time>2020-12-05T13:13:06.000Z</Time>
            <Position>
              <LatitudeDegrees>36.82056832127273082733154296875</LatitudeDegrees>
              <LongitudeDegrees>-4.3861602433025836944580078125</LongitudeDegrees>
            </Position>
            <AltitudeMeters>787.20001220703125</AltitudeMeters>
            <DistanceMeters>NAN</DistanceMeters>
          </Trackpoint>
          <Trackpoint>
            <Time>2020-12-05T13:13:07.000Z</Time>
            <Position>
              <LatitudeDegrees>36.8205618672072887420654296875</LatitudeDegrees>
              <LongitudeDegrees>-4.38616971485316753387451171875</LongitudeDegrees>
            </Position>
            <AltitudeMeters>787.20001220703125</AltitudeMeters>
            <DistanceMeters>NAN</DistanceMeters>
          </Trackpoint>
          <Trackpoint>
            <Time>2020-12-05T13:13:08.000Z</Time>
            <Position>
              <LatitudeDegrees>36.82055574841797351837158203125</LatitudeDegrees>
              <LongitudeDegrees>-4.38617876730859279632568359375</LongitudeDegrees>
            </Position>
            <AltitudeMeters>787.20001220703125</AltitudeMeters>
            <DistanceMeters>NAN</DistanceMeters>
          </Trackpoint>
          <Trackpoint>
            <Time>2020-12-05T13:13:09.000Z</Time>
            <Position>
              <LatitudeDegrees>36.82055055163800716400146484375</LatitudeDegrees>
              <LongitudeDegrees>-4.3861894123256206512451171875</LongitudeDegrees>
            </Position>
            <AltitudeMeters>787.20001220703125</AltitudeMeters>
            <DistanceMeters>NAN</DistanceMeters>
          </Trackpoint>
          <Trackpoint>
            <Time>2020-12-05T13:13:10.000Z</Time>
            <Position>
              <LatitudeDegrees>36.82054518721997737884521484375</LatitudeDegrees>
              <LongitudeDegrees>-4.3862008117139339447021484375</LongitudeDegrees>
            </Position>
            <AltitudeMeters>787.20001220703125</AltitudeMeters>
            <DistanceMeters>NAN</DistanceMeters>
          </Trackpoint>
          <Trackpoint>
            <Time>2020-12-05T13:13:11.000Z</Time>
            <Position>
              <LatitudeDegrees>36.82053898461163043975830078125</LatitudeDegrees>
              <LongitudeDegrees>-4.386210031807422637939453125</LongitudeDegrees>
            </Position>
            <AltitudeMeters>787.20001220703125</AltitudeMeters>
            <DistanceMeters>NAN</DistanceMeters>
          </Trackpoint>
          <Trackpoint>
            <Time>2020-12-05T13:13:12.000Z</Time>
            <Position>
              <LatitudeDegrees>36.82053185999393463134765625</LatitudeDegrees>
              <LongitudeDegrees>-4.3862212635576725006103515625</LongitudeDegrees>
            </Position>
            <AltitudeMeters>787.20001220703125</AltitudeMeters>
            <DistanceMeters>NAN</DistanceMeters>
          </Trackpoint>
          <Trackpoint>
            <Time>2020-12-05T13:13:13.000Z</Time>
            <Position>
              <LatitudeDegrees>36.8205244839191436767578125</LatitudeDegrees>
              <LongitudeDegrees>-4.386234171688556671142578125</LongitudeDegrees>
            </Position>
            <AltitudeMeters>787.20001220703125</AltitudeMeters>
            <DistanceMeters>NAN</DistanceMeters>
          </Trackpoint>
          <Trackpoint>
            <Time>2020-12-05T13:13:14.000Z</Time>
            <Position>
              <LatitudeDegrees>36.82051719166338443756103515625</LatitudeDegrees>
              <LongitudeDegrees>-4.3862437270581722259521484375</LongitudeDegrees>
            </Position>
            <AltitudeMeters>787.20001220703125</AltitudeMeters>
            <DistanceMeters>NAN</DistanceMeters>
          </Trackpoint>
          <Trackpoint>
            <Time>2020-12-05T13:13:15.000Z</Time>
            <Position>
              <LatitudeDegrees>36.8205095641314983367919921875</LatitudeDegrees>
              <LongitudeDegrees>-4.38625001348555088043212890625</LongitudeDegrees>
            </Position>
            <AltitudeMeters>787.20001220703125</AltitudeMeters>
            <DistanceMeters>NAN</DistanceMeters>
          </Trackpoint>
          <Trackpoint>
            <Time>2020-12-05T13:13:16.000Z</Time>
            <Position>
              <LatitudeDegrees>36.820501349866390228271484375</LatitudeDegrees>
              <LongitudeDegrees>-4.3862561322748661041259765625</LongitudeDegrees>
            </Position>
            <AltitudeMeters>787.20001220703125</AltitudeMeters>
            <DistanceMeters>NAN</DistanceMeters>
          </Trackpoint>
          <Trackpoint>
            <Time>2020-12-05T13:13:17.000Z</Time>
            <Position>
              <LatitudeDegrees>36.82049506343901157379150390625</LatitudeDegrees>
              <LongitudeDegrees>-4.38626225106418132781982421875</LongitudeDegrees>
            </Position>
            <AltitudeMeters>787.20001220703125</AltitudeMeters>
            <DistanceMeters>NAN</DistanceMeters>
          </Trackpoint>
          <Trackpoint>
            <Time>2020-12-05T13:13:18.000Z</Time>
            <Position>
              <LatitudeDegrees>36.8204881064593791961669921875</LatitudeDegrees>
              <LongitudeDegrees>-4.386269710958003997802734375</LongitudeDegrees>
            </Position>
            <AltitudeMeters>787.20001220703125</AltitudeMeters>
            <DistanceMeters>NAN</DistanceMeters>
          </Trackpoint>
          <Trackpoint>
            <Time>2020-12-05T13:13:19.000Z</Time>
            <Position>
              <LatitudeDegrees>36.820482574403285980224609375</LatitudeDegrees>
              <LongitudeDegrees>-4.3862789310514926910400390625</LongitudeDegrees>
            </Position>
            <AltitudeMeters>787.20001220703125</AltitudeMeters>
            <DistanceMeters>NAN</DistanceMeters>
          </Trackpoint>
          <Trackpoint>
            <Time>2020-12-05T13:13:20.000Z</Time>
            <Position>
              <LatitudeDegrees>36.82047612033784389495849609375</LatitudeDegrees>
              <LongitudeDegrees>-4.3862893246114253997802734375</LongitudeDegrees>
            </Position>
            <AltitudeMeters>787.20001220703125</AltitudeMeters>
            <DistanceMeters>NAN</DistanceMeters>
          </Trackpoint>
          <Trackpoint>
            <Time>2020-12-05T13:13:21.000Z</Time>
            <Position>
              <LatitudeDegrees>36.82046907953917980194091796875</LatitudeDegrees>
              <LongitudeDegrees>-4.386299885809421539306640625</LongitudeDegrees>
            </Position>
            <AltitudeMeters>787.20001220703125</AltitudeMeters>
            <DistanceMeters>NAN</DistanceMeters>
          </Trackpoint>
          <Trackpoint>
            <Time>2020-12-05T13:13:22.000Z</Time>
            <Position>
              <LatitudeDegrees>36.820461452007293701171875</LatitudeDegrees>
              <LongitudeDegrees>-4.3863127939403057098388671875</LongitudeDegrees>
            </Position>
            <AltitudeMeters>787.20001220703125</AltitudeMeters>
            <DistanceMeters>NAN</DistanceMeters>
          </Trackpoint>
          <Trackpoint>
            <Time>2020-12-05T13:13:23.000Z</Time>
            <Position>
              <LatitudeDegrees>36.82045466266572475433349609375</LatitudeDegrees>
              <LongitudeDegrees>-4.38632863573729991912841796875</LongitudeDegrees>
            </Position>
            <AltitudeMeters>787.20001220703125</AltitudeMeters>
            <DistanceMeters>NAN</DistanceMeters>
          </Trackpoint>
          <Trackpoint>
            <Time>2020-12-05T13:13:24.000Z</Time>
            <Position>
              <LatitudeDegrees>36.8204466998577117919921875</LatitudeDegrees>
              <LongitudeDegrees>-4.38634271733462810516357421875</LongitudeDegrees>
            </Position>
            <AltitudeMeters>787.20001220703125</AltitudeMeters>
            <DistanceMeters>NAN</DistanceMeters>
          </Trackpoint>
          <Trackpoint>
            <Time>2020-12-05T13:13:25.000Z</Time>
            <Position>
              <LatitudeDegrees>36.82044141925871372222900390625</LatitudeDegrees>
              <LongitudeDegrees>-4.3863553740084171295166015625</LongitudeDegrees>
            </Position>
            <AltitudeMeters>787.20001220703125</AltitudeMeters>
            <DistanceMeters>NAN</DistanceMeters>
          </Trackpoint>
          <Trackpoint>
            <Time>2020-12-05T13:13:26.000Z</Time>
            <Position>
              <LatitudeDegrees>36.820434294641017913818359375</LatitudeDegrees>
              <LongitudeDegrees>-4.38636350445449352264404296875</LongitudeDegrees>
            </Position>
            <AltitudeMeters>787.20001220703125</AltitudeMeters>
            <DistanceMeters>NAN</DistanceMeters>
          </Trackpoint>
          <Trackpoint>
            <Time>2020-12-05T13:13:27.000Z</Time>
            <Position>
              <LatitudeDegrees>36.82042934931814670562744140625</LatitudeDegrees>
              <LongitudeDegrees>-4.386372305452823638916015625</LongitudeDegrees>
            </Position>
            <AltitudeMeters>787.20001220703125</AltitudeMeters>
            <DistanceMeters>NAN</DistanceMeters>
          </Trackpoint>
          <Trackpoint>
            <Time>2020-12-05T13:13:28.000Z</Time>
            <Position>
              <LatitudeDegrees>36.82042281143367290496826171875</LatitudeDegrees>
              <LongitudeDegrees>-4.3863818608224391937255859375</LongitudeDegrees>
            </Position>
            <AltitudeMeters>787.20001220703125</AltitudeMeters>
            <DistanceMeters>NAN</DistanceMeters>
          </Trackpoint>
          <Trackpoint>
            <Time>2020-12-05T13:13:29.000Z</Time>
            <Position>
              <LatitudeDegrees>36.8204153515398502349853515625</LatitudeDegrees>
              <LongitudeDegrees>-4.38638999126851558685302734375</LongitudeDegrees>
            </Position>
            <AltitudeMeters>787.20001220703125</AltitudeMeters>
            <DistanceMeters>NAN</DistanceMeters>
          </Trackpoint>
          <Trackpoint>
            <Time>2020-12-05T13:13:30.000Z</Time>
            <Position>
              <LatitudeDegrees>36.82040839456021785736083984375</LatitudeDegrees>
              <LongitudeDegrees>-4.38639619387686252593994140625</LongitudeDegrees>
            </Position>
            <AltitudeMeters>787.20001220703125</AltitudeMeters>
            <DistanceMeters>NAN</DistanceMeters>
          </Trackpoint>
          <Trackpoint>
            <Time>2020-12-05T13:13:31.000Z</Time>
            <Position>
              <LatitudeDegrees>36.8204012699425220489501953125</LatitudeDegrees>
              <LongitudeDegrees>-4.3864023126661777496337890625</LongitudeDegrees>
            </Position>
            <AltitudeMeters>787.20001220703125</AltitudeMeters>
            <DistanceMeters>NAN</DistanceMeters>
          </Trackpoint>
          <Trackpoint>
            <Time>2020-12-05T13:13:32.000Z</Time>
            <Position>
              <LatitudeDegrees>36.82039448060095310211181640625</LatitudeDegrees>
              <LongitudeDegrees>-4.38640859909355640411376953125</LongitudeDegrees>
            </Position>
            <AltitudeMeters>787.20001220703125</AltitudeMeters>
            <DistanceMeters>NAN</DistanceMeters>
          </Trackpoint>
          <Trackpoint>
            <Time>2020-12-05T13:13:33.000Z</Time>
            <Position>
              <LatitudeDegrees>36.82038626633584499359130859375</LatitudeDegrees>
              <LongitudeDegrees>-4.38641664572060108184814453125</LongitudeDegrees>
            </Position>
            <AltitudeMeters>787.20001220703125</AltitudeMeters>
            <DistanceMeters>NAN</DistanceMeters>
          </Trackpoint>
          <Trackpoint>
            <Time>2020-12-05T13:13:34.000Z</Time>
            <Position>
              <LatitudeDegrees>36.820378638803958892822265625</LatitudeDegrees>
              <LongitudeDegrees>-4.386425279080867767333984375</LongitudeDegrees>
            </Position>
            <AltitudeMeters>787.20001220703125</AltitudeMeters>
            <DistanceMeters>NAN</DistanceMeters>
          </Trackpoint>
          <Trackpoint>
            <Time>2020-12-05T13:13:35.000Z</Time>
            <Position>
              <LatitudeDegrees>36.82037117891013622283935546875</LatitudeDegrees>
              <LongitudeDegrees>-4.38643567264080047607421875</LongitudeDegrees>
            </Position>
            <AltitudeMeters>787.20001220703125</AltitudeMeters>
            <DistanceMeters>NAN</DistanceMeters>
          </Trackpoint>
          <Trackpoint>
            <Time>2020-12-05T13:13:36.000Z</Time>
            <Position>
              <LatitudeDegrees>36.8203620426356792449951171875</LatitudeDegrees>
              <LongitudeDegrees>-4.38644631765782833099365234375</LongitudeDegrees>
            </Position>
            <AltitudeMeters>787.20001220703125</AltitudeMeters>
            <DistanceMeters>NAN</DistanceMeters>
          </Trackpoint>
          <Trackpoint>
            <Time>2020-12-05T13:13:37.000Z</Time>
            <Position>
              <LatitudeDegrees>36.820351146161556243896484375</LatitudeDegrees>
              <LongitudeDegrees>-4.38645780086517333984375</LongitudeDegrees>
            </Position>
            <AltitudeMeters>787.20001220703125</AltitudeMeters>
            <DistanceMeters>NAN</DistanceMeters>
          </Trackpoint>
          <Trackpoint>
            <Time>2020-12-05T13:13:38.000Z</Time>
            <Position>
              <LatitudeDegrees>36.820341087877750396728515625</LatitudeDegrees>
              <LongitudeDegrees>-4.38647297210991382598876953125</LongitudeDegrees>
            </Position>
            <AltitudeMeters>787.20001220703125</AltitudeMeters>
            <DistanceMeters>NAN</DistanceMeters>
          </Trackpoint>
          <Trackpoint>
            <Time>2020-12-05T13:13:39.000Z</Time>
            <Position>
              <LatitudeDegrees>36.82032977230846881866455078125</LatitudeDegrees>
              <LongitudeDegrees>-4.38649199903011322021484375</LongitudeDegrees>
            </Position>
            <AltitudeMeters>787.20001220703125</AltitudeMeters>
            <DistanceMeters>NAN</DistanceMeters>
          </Trackpoint>
          <Trackpoint>
            <Time>2020-12-05T13:13:40.000Z</Time>
            <Position>
              <LatitudeDegrees>36.820316277444362640380859375</LatitudeDegrees>
              <LongitudeDegrees>-4.38650599680840969085693359375</LongitudeDegrees>
            </Position>
            <AltitudeMeters>787.20001220703125</AltitudeMeters>
            <DistanceMeters>NAN</DistanceMeters>
          </Trackpoint>
          <Trackpoint>
            <Time>2020-12-05T13:13:41.000Z</Time>
            <Position>
              <LatitudeDegrees>36.82030831463634967803955078125</LatitudeDegrees>
              <LongitudeDegrees>-4.38651840202510356903076171875</LongitudeDegrees>
            </Position>
            <AltitudeMeters>787.20001220703125</AltitudeMeters>
            <DistanceMeters>NAN</DistanceMeters>
          </Trackpoint>
          <Trackpoint>
            <Time>2020-12-05T13:13:42.000Z</Time>
            <Position>
              <LatitudeDegrees>36.8203018605709075927734375</LatitudeDegrees>
              <LongitudeDegrees>-4.3865307234227657318115234375</LongitudeDegrees>
            </Position>
            <AltitudeMeters>787.20001220703125</AltitudeMeters>
            <DistanceMeters>NAN</DistanceMeters>
          </Trackpoint>
          <Trackpoint>
            <Time>2020-12-05T13:13:43.000Z</Time>
            <Position>
              <LatitudeDegrees>36.82029657997190952301025390625</LatitudeDegrees>
              <LongitudeDegrees>-4.38654203899204730987548828125</LongitudeDegrees>
            </Position>
            <AltitudeMeters>787.20001220703125</AltitudeMeters>
            <DistanceMeters>NAN</DistanceMeters>
          </Trackpoint>
          <Trackpoint>
            <Time>2020-12-05T13:13:44.000Z</Time>
            <Position>
              <LatitudeDegrees>36.820294149219989776611328125</LatitudeDegrees>
              <LongitudeDegrees>-4.38655637204647064208984375</LongitudeDegrees>
            </Position>
            <AltitudeMeters>787.20001220703125</AltitudeMeters>
            <DistanceMeters>NAN</DistanceMeters>
          </Trackpoint>
          <Trackpoint>
            <Time>2020-12-05T13:13:45.000Z</Time>
            <Position>
              <LatitudeDegrees>36.82029305957257747650146484375</LatitudeDegrees>
              <LongitudeDegrees>-4.38657590188086032867431640625</LongitudeDegrees>
            </Position>
            <AltitudeMeters>787.20001220703125</AltitudeMeters>
            <DistanceMeters>NAN</DistanceMeters>
          </Trackpoint>
          <Trackpoint>
            <Time>2020-12-05T13:13:46.000Z</Time>
            <Position>
              <LatitudeDegrees>36.820290125906467437744140625</LatitudeDegrees>
              <LongitudeDegrees>-4.3865944258868694305419921875</LongitudeDegrees>
            </Position>
            <AltitudeMeters>787.20001220703125</AltitudeMeters>
            <DistanceMeters>NAN</DistanceMeters>
          </Trackpoint>
          <Trackpoint>
            <Time>2020-12-05T13:13:47.000Z</Time>
            <Position>
              <LatitudeDegrees>36.8202889524400234222412109375</LatitudeDegrees>
              <LongitudeDegrees>-4.386613033711910247802734375</LongitudeDegrees>
            </Position>
            <AltitudeMeters>787.20001220703125</AltitudeMeters>
            <DistanceMeters>NAN</DistanceMeters>
          </Trackpoint>
          <Trackpoint>
            <Time>2020-12-05T13:13:48.000Z</Time>
            <Position>
              <LatitudeDegrees>36.82028702460229396820068359375</LatitudeDegrees>
              <LongitudeDegrees>-4.38662719912827014923095703125</LongitudeDegrees>
            </Position>
            <AltitudeMeters>787.20001220703125</AltitudeMeters>
            <DistanceMeters>NAN</DistanceMeters>
          </Trackpoint>
          <Trackpoint>
            <Time>2020-12-05T13:13:49.000Z</Time>
            <Position>
              <LatitudeDegrees>36.82028643786907196044921875</LatitudeDegrees>
              <LongitudeDegrees>-4.3866396881639957427978515625</LongitudeDegrees>
            </Position>
            <AltitudeMeters>787.20001220703125</AltitudeMeters>
            <DistanceMeters>NAN</DistanceMeters>
          </Trackpoint>
          <Trackpoint>
            <Time>2020-12-05T13:13:50.000Z</Time>
            <Position>
              <LatitudeDegrees>36.82028635405004024505615234375</LatitudeDegrees>
              <LongitudeDegrees>-4.38665159046649932861328125</LongitudeDegrees>
            </Position>
            <AltitudeMeters>787.20001220703125</AltitudeMeters>
            <DistanceMeters>NAN</DistanceMeters>
          </Trackpoint>
          <Trackpoint>
            <Time>2020-12-05T13:13:51.000Z</Time>
            <Position>
              <LatitudeDegrees>36.8202859349548816680908203125</LatitudeDegrees>
              <LongitudeDegrees>-4.38666240312159061431884765625</LongitudeDegrees>
            </Position>
            <AltitudeMeters>787.20001220703125</AltitudeMeters>
            <DistanceMeters>NAN</DistanceMeters>
          </Trackpoint>
          <Trackpoint>
            <Time>2020-12-05T13:13:52.000Z</Time>
            <Position>
              <LatitudeDegrees>36.82028618641197681427001953125</LatitudeDegrees>
              <LongitudeDegrees>-4.38667480833828449249267578125</LongitudeDegrees>
            </Position>
            <AltitudeMeters>787.20001220703125</AltitudeMeters>
            <DistanceMeters>NAN</DistanceMeters>
          </Trackpoint>
          <Trackpoint>
            <Time>2020-12-05T13:13:53.000Z</Time>
            <Position>
              <LatitudeDegrees>36.82028752751648426055908203125</LatitudeDegrees>
              <LongitudeDegrees>-4.386686123907566070556640625</LongitudeDegrees>
            </Position>
            <AltitudeMeters>787.20001220703125</AltitudeMeters>
            <DistanceMeters>NAN</DistanceMeters>
          </Trackpoint>
          <Trackpoint>
            <Time>2020-12-05T13:13:54.000Z</Time>
            <Position>
              <LatitudeDegrees>36.82028937153518199920654296875</LatitudeDegrees>
              <LongitudeDegrees>-4.38669710420072078704833984375</LongitudeDegrees>
            </Position>
            <AltitudeMeters>787.20001220703125</AltitudeMeters>
            <DistanceMeters>NAN</DistanceMeters>
          </Trackpoint>
          <Trackpoint>
            <Time>2020-12-05T13:13:55.000Z</Time>
            <Position>
              <LatitudeDegrees>36.82029155083000659942626953125</LatitudeDegrees>
              <LongitudeDegrees>-4.38670791685581207275390625</LongitudeDegrees>
            </Position>
            <AltitudeMeters>787.20001220703125</AltitudeMeters>
            <DistanceMeters>NAN</DistanceMeters>
          </Trackpoint>
          <Trackpoint>
            <Time>2020-12-05T13:13:56.000Z</Time>
            <Position>
              <LatitudeDegrees>36.8202943168580532073974609375</LatitudeDegrees>
              <LongitudeDegrees>-4.386719651520252227783203125</LongitudeDegrees>
            </Position>
            <AltitudeMeters>787.20001220703125</AltitudeMeters>
            <DistanceMeters>NAN</DistanceMeters>
          </Trackpoint>
          <Trackpoint>
            <Time>2020-12-05T13:13:57.000Z</Time>
            <Position>
              <LatitudeDegrees>36.82029741816222667694091796875</LatitudeDegrees>
              <LongitudeDegrees>-4.3867335654795169830322265625</LongitudeDegrees>
            </Position>
            <AltitudeMeters>787.20001220703125</AltitudeMeters>
            <DistanceMeters>NAN</DistanceMeters>
          </Trackpoint>
          <Trackpoint>
            <Time>2020-12-05T13:13:58.000Z</Time>
            <Position>
              <LatitudeDegrees>36.820300184190273284912109375</LatitudeDegrees>
              <LongitudeDegrees>-4.38674689270555973052978515625</LongitudeDegrees>
            </Position>
            <AltitudeMeters>787.20001220703125</AltitudeMeters>
            <DistanceMeters>NAN</DistanceMeters>
          </Trackpoint>
          <Trackpoint>
            <Time>2020-12-05T13:13:59.000Z</Time>
            <Position>
              <LatitudeDegrees>36.820302866399288177490234375</LatitudeDegrees>
              <LongitudeDegrees>-4.38675929792225360870361328125</LongitudeDegrees>
            </Position>
            <AltitudeMeters>787.20001220703125</AltitudeMeters>
            <DistanceMeters>NAN</DistanceMeters>
          </Trackpoint>
          <Trackpoint>
            <Time>2020-12-05T13:14:00.000Z</Time>
            <Position>
              <LatitudeDegrees>36.82030462659895420074462890625</LatitudeDegrees>
              <LongitudeDegrees>-4.3867694400250911712646484375</LongitudeDegrees>
            </Position>
            <AltitudeMeters>787.79998779296875</AltitudeMeters>
            <DistanceMeters>NAN</DistanceMeters>
          </Trackpoint>
          <Trackpoint>
            <Time>2020-12-05T13:14:01.000Z</Time>
            <Position>
              <LatitudeDegrees>36.82030563242733478546142578125</LatitudeDegrees>
              <LongitudeDegrees>-4.3867810070514678955078125</LongitudeDegrees>
            </Position>
            <AltitudeMeters>787.79998779296875</AltitudeMeters>
            <DistanceMeters>NAN</DistanceMeters>
          </Trackpoint>
          <Trackpoint>
            <Time>2020-12-05T13:14:02.000Z</Time>
            <Position>
              <LatitudeDegrees>36.820306889712810516357421875</LatitudeDegrees>
              <LongitudeDegrees>-4.3867942504584789276123046875</LongitudeDegrees>
            </Position>
            <AltitudeMeters>787.79998779296875</AltitudeMeters>
            <DistanceMeters>NAN</DistanceMeters>
          </Trackpoint>
          <Trackpoint>
            <Time>2020-12-05T13:14:03.000Z</Time>
            <Position>
              <LatitudeDegrees>36.82030864991247653961181640625</LatitudeDegrees>
              <LongitudeDegrees>-4.38680523075163364410400390625</LongitudeDegrees>
            </Position>
            <AltitudeMeters>787.79998779296875</AltitudeMeters>
            <DistanceMeters>NAN</DistanceMeters>
          </Trackpoint>
          <Trackpoint>
            <Time>2020-12-05T13:14:04.000Z</Time>
            <Position>
              <LatitudeDegrees>36.82031049393117427825927734375</LatitudeDegrees>
              <LongitudeDegrees>-4.3868185579776763916015625</LongitudeDegrees>
            </Position>
            <AltitudeMeters>787.79998779296875</AltitudeMeters>
            <DistanceMeters>NAN</DistanceMeters>
          </Trackpoint>
          <Trackpoint>
            <Time>2020-12-05T13:14:05.000Z</Time>
            <Position>
              <LatitudeDegrees>36.82030923664569854736328125</LatitudeDegrees>
              <LongitudeDegrees>-4.3868361599743366241455078125</LongitudeDegrees>
            </Position>
            <AltitudeMeters>787.79998779296875</AltitudeMeters>
            <DistanceMeters>NAN</DistanceMeters>
          </Trackpoint>
          <Trackpoint>
            <Time>2020-12-05T13:14:06.000Z</Time>
            <Position>
              <LatitudeDegrees>36.820306219160556793212890625</LatitudeDegrees>
              <LongitudeDegrees>-4.38685535453259944915771484375</LongitudeDegrees>
            </Position>
            <AltitudeMeters>787.79998779296875</AltitudeMeters>
            <DistanceMeters>NAN</DistanceMeters>
          </Trackpoint>
          <Trackpoint>
            <Time>2020-12-05T13:14:07.000Z</Time>
            <Position>
              <LatitudeDegrees>36.8203030340373516082763671875</LatitudeDegrees>
              <LongitudeDegrees>-4.3868750520050525665283203125</LongitudeDegrees>
            </Position>
            <AltitudeMeters>787.79998779296875</AltitudeMeters>
            <DistanceMeters>NAN</DistanceMeters>
          </Trackpoint>
          <Trackpoint>
            <Time>2020-12-05T13:14:08.000Z</Time>
            <Position>
              <LatitudeDegrees>36.82030295021831989288330078125</LatitudeDegrees>
              <LongitudeDegrees>-4.386891312897205352783203125</LongitudeDegrees>
            </Position>
            <AltitudeMeters>787.79998779296875</AltitudeMeters>
            <DistanceMeters>NAN</DistanceMeters>
          </Trackpoint>
          <Trackpoint>
            <Time>2020-12-05T13:14:09.000Z</Time>
            <Position>
              <LatitudeDegrees>36.82030253112316131591796875</LatitudeDegrees>
              <LongitudeDegrees>-4.38690447248518466949462890625</LongitudeDegrees>
            </Position>
            <AltitudeMeters>787.79998779296875</AltitudeMeters>
            <DistanceMeters>NAN</DistanceMeters>
          </Trackpoint>
          <Trackpoint>
            <Time>2020-12-05T13:14:10.000Z</Time>
            <Position>
              <LatitudeDegrees>36.8203013576567173004150390625</LatitudeDegrees>
              <LongitudeDegrees>-4.38691838644444942474365234375</LongitudeDegrees>
            </Position>
            <AltitudeMeters>787.79998779296875</AltitudeMeters>
            <DistanceMeters>NAN</DistanceMeters>
          </Trackpoint>
          <Trackpoint>
            <Time>2020-12-05T13:14:11.000Z</Time>
            <Position>
              <LatitudeDegrees>36.82030227966606616973876953125</LatitudeDegrees>
              <LongitudeDegrees>-4.3869313783943653106689453125</LongitudeDegrees>
            </Position>
            <AltitudeMeters>787.79998779296875</AltitudeMeters>
            <DistanceMeters>NAN</DistanceMeters>
          </Trackpoint>
          <Trackpoint>
            <Time>2020-12-05T13:14:12.000Z</Time>
            <Position>
              <LatitudeDegrees>36.82030160911381244659423828125</LatitudeDegrees>
              <LongitudeDegrees>-4.386944286525249481201171875</LongitudeDegrees>
            </Position>
            <AltitudeMeters>787.79998779296875</AltitudeMeters>
            <DistanceMeters>NAN</DistanceMeters>
          </Trackpoint>
          <Trackpoint>
            <Time>2020-12-05T13:14:13.000Z</Time>
            <Position>
              <LatitudeDegrees>36.82030160911381244659423828125</LatitudeDegrees>
              <LongitudeDegrees>-4.38695141114294528961181640625</LongitudeDegrees>
            </Position>
            <AltitudeMeters>787.79998779296875</AltitudeMeters>
            <DistanceMeters>NAN</DistanceMeters>
          </Trackpoint>
          <Trackpoint>
            <Time>2020-12-05T13:14:14.000Z</Time>
            <Position>
              <LatitudeDegrees>36.82030010037124156951904296875</LatitudeDegrees>
              <LongitudeDegrees>-4.3869558535516262054443359375</LongitudeDegrees>
            </Position>
            <AltitudeMeters>787.79998779296875</AltitudeMeters>
            <DistanceMeters>NAN</DistanceMeters>
          </Trackpoint>
          <Trackpoint>
            <Time>2020-12-05T13:14:15.000Z</Time>
            <Position>
              <LatitudeDegrees>36.82029582560062408447265625</LatitudeDegrees>
              <LongitudeDegrees>-4.38696448691189289093017578125</LongitudeDegrees>
            </Position>
            <AltitudeMeters>787.79998779296875</AltitudeMeters>
            <DistanceMeters>NAN</DistanceMeters>
          </Trackpoint>
          <Trackpoint>
            <Time>2020-12-05T13:14:16.000Z</Time>
            <Position>
              <LatitudeDegrees>36.820289790630340576171875</LatitudeDegrees>
              <LongitudeDegrees>-4.38697588630020618438720703125</LongitudeDegrees>
            </Position>
            <AltitudeMeters>787.79998779296875</AltitudeMeters>
            <DistanceMeters>NAN</DistanceMeters>
          </Trackpoint>
          <Trackpoint>
            <Time>2020-12-05T13:14:17.000Z</Time>
            <Position>
              <LatitudeDegrees>36.82028082199394702911376953125</LatitudeDegrees>
              <LongitudeDegrees>-4.3869903869926929473876953125</LongitudeDegrees>
            </Position>
            <AltitudeMeters>787.79998779296875</AltitudeMeters>
            <DistanceMeters>NAN</DistanceMeters>
          </Trackpoint>
          <Trackpoint>
            <Time>2020-12-05T13:14:18.000Z</Time>
            <Position>
              <LatitudeDegrees>36.8202671594917774200439453125</LatitudeDegrees>
              <LongitudeDegrees>-4.38700807280838489532470703125</LongitudeDegrees>
            </Position>
            <AltitudeMeters>787.79998779296875</AltitudeMeters>
            <DistanceMeters>NAN</DistanceMeters>
          </Trackpoint>
          <Trackpoint>
            <Time>2020-12-05T13:14:19.000Z</Time>
            <Position>
              <LatitudeDegrees>36.82025534100830554962158203125</LatitudeDegrees>
              <LongitudeDegrees>-4.387016035616397857666015625</LongitudeDegrees>
            </Position>
            <AltitudeMeters>787.79998779296875</AltitudeMeters>
            <DistanceMeters>NAN</DistanceMeters>
          </Trackpoint>
          <Trackpoint>
            <Time>2020-12-05T13:14:20.000Z</Time>
            <Position>
              <LatitudeDegrees>36.82024352252483367919921875</LatitudeDegrees>
              <LongitudeDegrees>-4.38702651299536228179931640625</LongitudeDegrees>
            </Position>
            <AltitudeMeters>787.79998779296875</AltitudeMeters>
            <DistanceMeters>NAN</DistanceMeters>
          </Trackpoint>
          <Trackpoint>
            <Time>2020-12-05T13:14:21.000Z</Time>
            <Position>
              <LatitudeDegrees>36.82023321278393268585205078125</LatitudeDegrees>
              <LongitudeDegrees>-4.38703338615596294403076171875</LongitudeDegrees>
            </Position>
            <AltitudeMeters>787.79998779296875</AltitudeMeters>
            <DistanceMeters>NAN</DistanceMeters>
          </Trackpoint>
          <Trackpoint>
            <Time>2020-12-05T13:14:22.000Z</Time>
            <Position>
              <LatitudeDegrees>36.82022147811949253082275390625</LatitudeDegrees>
              <LongitudeDegrees>-4.3870463781058788299560546875</LongitudeDegrees>
            </Position>
            <AltitudeMeters>787.79998779296875</AltitudeMeters>
            <DistanceMeters>NAN</DistanceMeters>
          </Trackpoint>
          <Trackpoint>
            <Time>2020-12-05T13:14:23.000Z</Time>
            <Position>
              <LatitudeDegrees>36.8202091567218303680419921875</LatitudeDegrees>
              <LongitudeDegrees>-4.38705886714160442352294921875</LongitudeDegrees>
            </Position>
            <AltitudeMeters>787.79998779296875</AltitudeMeters>
            <DistanceMeters>NAN</DistanceMeters>
          </Trackpoint>
          <Trackpoint>
            <Time>2020-12-05T13:14:24.000Z</Time>
            <Position>
              <LatitudeDegrees>36.82019918225705623626708984375</LatitudeDegrees>
              <LongitudeDegrees>-4.387071020901203155517578125</LongitudeDegrees>
            </Position>
            <AltitudeMeters>787.79998779296875</AltitudeMeters>
            <DistanceMeters>NAN</DistanceMeters>
          </Trackpoint>
          <Trackpoint>
            <Time>2020-12-05T13:14:25.000Z</Time>
            <Position>
              <LatitudeDegrees>36.82018979452550411224365234375</LatitudeDegrees>
              <LongitudeDegrees>-4.38708334229886531829833984375</LongitudeDegrees>
            </Position>
            <AltitudeMeters>787.79998779296875</AltitudeMeters>
            <DistanceMeters>NAN</DistanceMeters>
          </Trackpoint>
          <Trackpoint>
            <Time>2020-12-05T13:14:26.000Z</Time>
            <Position>
              <LatitudeDegrees>36.8201786465942859649658203125</LatitudeDegrees>
              <LongitudeDegrees>-4.38709557987749576568603515625</LongitudeDegrees>
            </Position>
            <AltitudeMeters>787.79998779296875</AltitudeMeters>
            <DistanceMeters>NAN</DistanceMeters>
          </Trackpoint>
          <Trackpoint>
            <Time>2020-12-05T13:14:27.000Z</Time>
            <Position>
              <LatitudeDegrees>36.82016632519662380218505859375</LatitudeDegrees>
              <LongitudeDegrees>-4.38710379414260387420654296875</LongitudeDegrees>
            </Position>
            <AltitudeMeters>787.79998779296875</AltitudeMeters>
            <DistanceMeters>NAN</DistanceMeters>
          </Trackpoint>
          <Trackpoint>
            <Time>2020-12-05T13:14:28.000Z</Time>
            <Position>
              <LatitudeDegrees>36.82015308178961277008056640625</LatitudeDegrees>
              <LongitudeDegrees>-4.3871114216744899749755859375</LongitudeDegrees>
            </Position>
            <AltitudeMeters>787.79998779296875</AltitudeMeters>
            <DistanceMeters>NAN</DistanceMeters>
          </Trackpoint>
          <Trackpoint>
            <Time>2020-12-05T13:14:29.000Z</Time>
            <Position>
              <LatitudeDegrees>36.820140592753887176513671875</LatitudeDegrees>
              <LongitudeDegrees>-4.387117959558963775634765625</LongitudeDegrees>
            </Position>
            <AltitudeMeters>787.79998779296875</AltitudeMeters>
            <DistanceMeters>NAN</DistanceMeters>
          </Trackpoint>
          <Trackpoint>
            <Time>2020-12-05T13:14:30.000Z</Time>
            <Position>
              <LatitudeDegrees>36.82012827135622501373291015625</LatitudeDegrees>
              <LongitudeDegrees>-4.387122653424739837646484375</LongitudeDegrees>
            </Position>
            <AltitudeMeters>787.79998779296875</AltitudeMeters>
            <DistanceMeters>NAN</DistanceMeters>
          </Trackpoint>
          <Trackpoint>
            <Time>2020-12-05T13:14:31.000Z</Time>
            <Position>
              <LatitudeDegrees>36.820117793977260589599609375</LatitudeDegrees>
              <LongitudeDegrees>-4.38712575472891330718994140625</LongitudeDegrees>
            </Position>
            <AltitudeMeters>787.79998779296875</AltitudeMeters>
            <DistanceMeters>NAN</DistanceMeters>
          </Trackpoint>
          <Trackpoint>
            <Time>2020-12-05T13:14:32.000Z</Time>
            <Position>
              <LatitudeDegrees>36.82010647840797901153564453125</LatitudeDegrees>
              <LongitudeDegrees>-4.38712676055729389190673828125</LongitudeDegrees>
            </Position>
            <AltitudeMeters>787.79998779296875</AltitudeMeters>
            <DistanceMeters>NAN</DistanceMeters>
          </Trackpoint>
          <Trackpoint>
            <Time>2020-12-05T13:14:33.000Z</Time>
            <Position>
              <LatitudeDegrees>36.8200965039432048797607421875</LatitudeDegrees>
              <LongitudeDegrees>-4.38712961040437221527099609375</LongitudeDegrees>
            </Position>
            <AltitudeMeters>787.79998779296875</AltitudeMeters>
            <DistanceMeters>NAN</DistanceMeters>
          </Trackpoint>
          <Trackpoint>
            <Time>2020-12-05T13:14:34.000Z</Time>
            <Position>
              <LatitudeDegrees>36.82008527219295501708984375</LatitudeDegrees>
              <LongitudeDegrees>-4.38712826929986476898193359375</LongitudeDegrees>
            </Position>
            <AltitudeMeters>787.79998779296875</AltitudeMeters>
            <DistanceMeters>NAN</DistanceMeters>
          </Trackpoint>
          <Trackpoint>
            <Time>2020-12-05T13:14:35.000Z</Time>
            <Position>
              <LatitudeDegrees>36.8200750462710857391357421875</LatitudeDegrees>
              <LongitudeDegrees>-4.3871278502047061920166015625</LongitudeDegrees>
            </Position>
            <AltitudeMeters>787.79998779296875</AltitudeMeters>
            <DistanceMeters>NAN</DistanceMeters>
          </Trackpoint>
          <Trackpoint>
            <Time>2020-12-05T13:14:36.000Z</Time>
            <Position>
              <LatitudeDegrees>36.82006389833986759185791015625</LatitudeDegrees>
              <LongitudeDegrees>-4.38712592236697673797607421875</LongitudeDegrees>
            </Position>
            <AltitudeMeters>787.79998779296875</AltitudeMeters>
            <DistanceMeters>NAN</DistanceMeters>
          </Trackpoint>
          <Trackpoint>
            <Time>2020-12-05T13:14:37.000Z</Time>
            <Position>
              <LatitudeDegrees>36.8200505711138248443603515625</LatitudeDegrees>
              <LongitudeDegrees>-4.38712122850120067596435546875</LongitudeDegrees>
            </Position>
            <AltitudeMeters>787.79998779296875</AltitudeMeters>
            <DistanceMeters>NAN</DistanceMeters>
          </Trackpoint>
          <Trackpoint>
            <Time>2020-12-05T13:14:38.000Z</Time>
            <Position>
              <LatitudeDegrees>36.82004109956324100494384765625</LatitudeDegrees>
              <LongitudeDegrees>-4.38712256960570812225341796875</LongitudeDegrees>
            </Position>
            <AltitudeMeters>787.79998779296875</AltitudeMeters>
            <DistanceMeters>NAN</DistanceMeters>
          </Trackpoint>
          <Trackpoint>
            <Time>2020-12-05T13:14:39.000Z</Time>
            <Position>
              <LatitudeDegrees>36.8200336396694183349609375</LatitudeDegrees>
              <LongitudeDegrees>-4.3871251679956912994384765625</LongitudeDegrees>
            </Position>
            <AltitudeMeters>787.79998779296875</AltitudeMeters>
            <DistanceMeters>NAN</DistanceMeters>
          </Trackpoint>
          <Trackpoint>
            <Time>2020-12-05T13:14:40.000Z</Time>
            <Position>
              <LatitudeDegrees>36.82002492249011993408203125</LatitudeDegrees>
              <LongitudeDegrees>-4.3871281854808330535888671875</LongitudeDegrees>
            </Position>
            <AltitudeMeters>787.79998779296875</AltitudeMeters>
            <DistanceMeters>NAN</DistanceMeters>
          </Trackpoint>
          <Trackpoint>
            <Time>2020-12-05T13:14:41.000Z</Time>
            <Position>
              <LatitudeDegrees>36.82001327164471149444580078125</LatitudeDegrees>
              <LongitudeDegrees>-4.38712843693792819976806640625</LongitudeDegrees>
            </Position>
            <AltitudeMeters>787.79998779296875</AltitudeMeters>
            <DistanceMeters>NAN</DistanceMeters>
          </Trackpoint>
          <Trackpoint>
            <Time>2020-12-05T13:14:42.000Z</Time>
            <Position>
              <LatitudeDegrees>36.8200027942657470703125</LatitudeDegrees>
              <LongitudeDegrees>-4.3871271796524524688720703125</LongitudeDegrees>
            </Position>
            <AltitudeMeters>787.79998779296875</AltitudeMeters>
            <DistanceMeters>NAN</DistanceMeters>
          </Trackpoint>
          <Trackpoint>
            <Time>2020-12-05T13:14:43.000Z</Time>
            <Position>
              <LatitudeDegrees>36.81999298743903636932373046875</LatitudeDegrees>
              <LongitudeDegrees>-4.38712902367115020751953125</LongitudeDegrees>
            </Position>
            <AltitudeMeters>787.79998779296875</AltitudeMeters>
            <DistanceMeters>NAN</DistanceMeters>
          </Trackpoint>
          <Trackpoint>
            <Time>2020-12-05T13:14:44.000Z</Time>
            <Position>
              <LatitudeDegrees>36.8199811689555644989013671875</LatitudeDegrees>
              <LongitudeDegrees>-4.38712893985211849212646484375</LongitudeDegrees>
            </Position>
            <AltitudeMeters>787.79998779296875</AltitudeMeters>
            <DistanceMeters>NAN</DistanceMeters>
          </Trackpoint>
          <Trackpoint>
            <Time>2020-12-05T13:14:45.000Z</Time>
            <Position>
              <LatitudeDegrees>36.81996767409145832061767578125</LatitudeDegrees>
              <LongitudeDegrees>-4.38712743110954761505126953125</LongitudeDegrees>
            </Position>
            <AltitudeMeters>787.79998779296875</AltitudeMeters>
            <DistanceMeters>NAN</DistanceMeters>
          </Trackpoint>
          <Trackpoint>
            <Time>2020-12-05T13:14:46.000Z</Time>
            <Position>
              <LatitudeDegrees>36.81995426304638385772705078125</LatitudeDegrees>
              <LongitudeDegrees>-4.38713111914694309234619140625</LongitudeDegrees>
            </Position>
            <AltitudeMeters>787.79998779296875</AltitudeMeters>
            <DistanceMeters>NAN</DistanceMeters>
          </Trackpoint>
          <Trackpoint>
            <Time>2020-12-05T13:14:47.000Z</Time>
            <Position>
              <LatitudeDegrees>36.819941103458404541015625</LatitudeDegrees>
              <LongitudeDegrees>-4.387132711708545684814453125</LongitudeDegrees>
            </Position>
            <AltitudeMeters>787.79998779296875</AltitudeMeters>
            <DistanceMeters>NAN</DistanceMeters>
          </Trackpoint>
          <Trackpoint>
            <Time>2020-12-05T13:14:48.000Z</Time>
            <Position>
              <LatitudeDegrees>36.81992970407009124755859375</LatitudeDegrees>
              <LongitudeDegrees>-4.3871350586414337158203125</LongitudeDegrees>
            </Position>
            <AltitudeMeters>787.79998779296875</AltitudeMeters>
            <DistanceMeters>NAN</DistanceMeters>
          </Trackpoint>
          <Trackpoint>
            <Time>2020-12-05T13:14:49.000Z</Time>
            <Position>
              <LatitudeDegrees>36.8199201487004756927490234375</LatitudeDegrees>
              <LongitudeDegrees>-4.38713933341205120086669921875</LongitudeDegrees>
            </Position>
            <AltitudeMeters>787.79998779296875</AltitudeMeters>
            <DistanceMeters>NAN</DistanceMeters>
          </Trackpoint>
          <Trackpoint>
            <Time>2020-12-05T13:14:50.000Z</Time>
            <Position>
              <LatitudeDegrees>36.81990958750247955322265625</LatitudeDegrees>
              <LongitudeDegrees>-4.38714168034493923187255859375</LongitudeDegrees>
            </Position>
            <AltitudeMeters>787.79998779296875</AltitudeMeters>
            <DistanceMeters>NAN</DistanceMeters>
          </Trackpoint>
          <Trackpoint>
            <Time>2020-12-05T13:14:51.000Z</Time>
            <Position>
              <LatitudeDegrees>36.8199007026851177215576171875</LatitudeDegrees>
              <LongitudeDegrees>-4.38714134506881237030029296875</LongitudeDegrees>
            </Position>
            <AltitudeMeters>787.79998779296875</AltitudeMeters>
            <DistanceMeters>NAN</DistanceMeters>
          </Trackpoint>
          <Trackpoint>
            <Time>2020-12-05T13:14:52.000Z</Time>
            <Position>
              <LatitudeDegrees>36.8198882974684238433837890625</LatitudeDegrees>
              <LongitudeDegrees>-4.38713866285979747772216796875</LongitudeDegrees>
            </Position>
            <AltitudeMeters>787.79998779296875</AltitudeMeters>
            <DistanceMeters>NAN</DistanceMeters>
          </Trackpoint>
          <Trackpoint>
            <Time>2020-12-05T13:14:53.000Z</Time>
            <Position>
              <LatitudeDegrees>36.819874383509159088134765625</LatitudeDegrees>
              <LongitudeDegrees>-4.3871392495930194854736328125</LongitudeDegrees>
            </Position>
            <AltitudeMeters>787.79998779296875</AltitudeMeters>
            <DistanceMeters>NAN</DistanceMeters>
          </Trackpoint>
          <Trackpoint>
            <Time>2020-12-05T13:14:54.000Z</Time>
            <Position>
              <LatitudeDegrees>36.81986122392117977142333984375</LatitudeDegrees>
              <LongitudeDegrees>-4.38714084215462207794189453125</LongitudeDegrees>
            </Position>
            <AltitudeMeters>787.79998779296875</AltitudeMeters>
            <DistanceMeters>NAN</DistanceMeters>
          </Trackpoint>
          <Trackpoint>
            <Time>2020-12-05T13:14:55.000Z</Time>
            <Position>
              <LatitudeDegrees>36.8198477290570735931396484375</LatitudeDegrees>
              <LongitudeDegrees>-4.38714318908751010894775390625</LongitudeDegrees>
            </Position>
            <AltitudeMeters>787.79998779296875</AltitudeMeters>
            <DistanceMeters>NAN</DistanceMeters>
          </Trackpoint>
          <Trackpoint>
            <Time>2020-12-05T13:14:56.000Z</Time>
            <Position>
              <LatitudeDegrees>36.81983540765941143035888671875</LatitudeDegrees>
              <LongitudeDegrees>-4.38714788295328617095947265625</LongitudeDegrees>
            </Position>
            <AltitudeMeters>787.79998779296875</AltitudeMeters>
            <DistanceMeters>NAN</DistanceMeters>
          </Trackpoint>
          <Trackpoint>
            <Time>2020-12-05T13:14:57.000Z</Time>
            <Position>
              <LatitudeDegrees>36.81982367299497127532958984375</LatitudeDegrees>
              <LongitudeDegrees>-4.3871509842574596405029296875</LongitudeDegrees>
            </Position>
            <AltitudeMeters>787.79998779296875</AltitudeMeters>
            <DistanceMeters>NAN</DistanceMeters>
          </Trackpoint>
          <Trackpoint>
            <Time>2020-12-05T13:14:58.000Z</Time>
            <Position>
              <LatitudeDegrees>36.819810681045055389404296875</LatitudeDegrees>
              <LongitudeDegrees>-4.38715324737131595611572265625</LongitudeDegrees>
            </Position>
            <AltitudeMeters>787.79998779296875</AltitudeMeters>
            <DistanceMeters>NAN</DistanceMeters>
          </Trackpoint>
          <Trackpoint>
            <Time>2020-12-05T13:14:59.000Z</Time>
            <Position>
              <LatitudeDegrees>36.8197974376380443572998046875</LatitudeDegrees>
              <LongitudeDegrees>-4.3871573545038700103759765625</LongitudeDegrees>
            </Position>
            <AltitudeMeters>787.79998779296875</AltitudeMeters>
            <DistanceMeters>NAN</DistanceMeters>
          </Trackpoint>
          <Trackpoint>
            <Time>2020-12-05T13:15:00.000Z</Time>
            <Position>
              <LatitudeDegrees>36.81978394277393817901611328125</LatitudeDegrees>
              <LongitudeDegrees>-4.3871605396270751953125</LongitudeDegrees>
            </Position>
            <AltitudeMeters>788.4000244140625</AltitudeMeters>
            <DistanceMeters>NAN</DistanceMeters>
          </Trackpoint>
          <Trackpoint>
            <Time>2020-12-05T13:15:01.000Z</Time>
            <Position>
              <LatitudeDegrees>36.81977237574756145477294921875</LatitudeDegrees>
              <LongitudeDegrees>-4.38716246746480464935302734375</LongitudeDegrees>
            </Position>
            <AltitudeMeters>788.4000244140625</AltitudeMeters>
            <DistanceMeters>NAN</DistanceMeters>
          </Trackpoint>
          <Trackpoint>
            <Time>2020-12-05T13:15:02.000Z</Time>
            <Position>
              <LatitudeDegrees>36.819764077663421630859375</LatitudeDegrees>
              <LongitudeDegrees>-4.38716255128383636474609375</LongitudeDegrees>
            </Position>
            <AltitudeMeters>788.4000244140625</AltitudeMeters>
            <DistanceMeters>NAN</DistanceMeters>
          </Trackpoint>
          <Trackpoint>
            <Time>2020-12-05T13:15:03.000Z</Time>
            <Position>
              <LatitudeDegrees>36.81975326500833034515380859375</LatitudeDegrees>
              <LongitudeDegrees>-4.3871650658547878265380859375</LongitudeDegrees>
            </Position>
            <AltitudeMeters>788.4000244140625</AltitudeMeters>
            <DistanceMeters>NAN</DistanceMeters>
          </Trackpoint>
          <Trackpoint>
            <Time>2020-12-05T13:15:04.000Z</Time>
            <Position>
              <LatitudeDegrees>36.81974169798195362091064453125</LatitudeDegrees>
              <LongitudeDegrees>-4.38716749660670757293701171875</LongitudeDegrees>
            </Position>
            <AltitudeMeters>788.4000244140625</AltitudeMeters>
            <DistanceMeters>NAN</DistanceMeters>
          </Trackpoint>
          <Trackpoint>
            <Time>2020-12-05T13:15:05.000Z</Time>
            <Position>
              <LatitudeDegrees>36.81972962804138660430908203125</LatitudeDegrees>
              <LongitudeDegrees>-4.3871677480638027191162109375</LongitudeDegrees>
            </Position>
            <AltitudeMeters>788.4000244140625</AltitudeMeters>
            <DistanceMeters>NAN</DistanceMeters>
          </Trackpoint>
          <Trackpoint>
            <Time>2020-12-05T13:15:06.000Z</Time>
            <Position>
              <LatitudeDegrees>36.8197169713675975799560546875</LatitudeDegrees>
              <LongitudeDegrees>-4.3871657364070415496826171875</LongitudeDegrees>
            </Position>
            <AltitudeMeters>788.4000244140625</AltitudeMeters>
            <DistanceMeters>NAN</DistanceMeters>
          </Trackpoint>
          <Trackpoint>
            <Time>2020-12-05T13:15:07.000Z</Time>
            <Position>
              <LatitudeDegrees>36.81970448233187198638916015625</LatitudeDegrees>
              <LongitudeDegrees>-4.387161545455455780029296875</LongitudeDegrees>
            </Position>
            <AltitudeMeters>788.4000244140625</AltitudeMeters>
            <DistanceMeters>NAN</DistanceMeters>
          </Trackpoint>
          <Trackpoint>
            <Time>2020-12-05T13:15:08.000Z</Time>
            <Position>
              <LatitudeDegrees>36.8196924962103366851806640625</LatitudeDegrees>
              <LongitudeDegrees>-4.38715509139001369476318359375</LongitudeDegrees>
            </Position>
            <AltitudeMeters>788.4000244140625</AltitudeMeters>
            <DistanceMeters>NAN</DistanceMeters>
          </Trackpoint>
          <Trackpoint>
            <Time>2020-12-05T13:15:09.000Z</Time>
            <Position>
              <LatitudeDegrees>36.81967983953654766082763671875</LatitudeDegrees>
              <LongitudeDegrees>-4.387152157723903656005859375</LongitudeDegrees>
            </Position>
            <AltitudeMeters>788.4000244140625</AltitudeMeters>
            <DistanceMeters>NAN</DistanceMeters>
          </Trackpoint>
          <Trackpoint>
            <Time>2020-12-05T13:15:10.000Z</Time>
            <Position>
              <LatitudeDegrees>36.81966827251017093658447265625</LatitudeDegrees>
              <LongitudeDegrees>-4.38715006224811077117919921875</LongitudeDegrees>
            </Position>
            <AltitudeMeters>788.4000244140625</AltitudeMeters>
            <DistanceMeters>NAN</DistanceMeters>
          </Trackpoint>
          <Trackpoint>
            <Time>2020-12-05T13:15:11.000Z</Time>
            <Position>
              <LatitudeDegrees>36.81965905241668224334716796875</LatitudeDegrees>
              <LongitudeDegrees>-4.3871479667723178863525390625</LongitudeDegrees>
            </Position>
            <AltitudeMeters>788.4000244140625</AltitudeMeters>
            <DistanceMeters>NAN</DistanceMeters>
          </Trackpoint>
          <Trackpoint>
            <Time>2020-12-05T13:15:12.000Z</Time>
            <Position>
              <LatitudeDegrees>36.819649077951908111572265625</LatitudeDegrees>
              <LongitudeDegrees>-4.38714620657265186309814453125</LongitudeDegrees>
            </Position>
            <AltitudeMeters>788.4000244140625</AltitudeMeters>
            <DistanceMeters>NAN</DistanceMeters>
          </Trackpoint>
          <Trackpoint>
            <Time>2020-12-05T13:15:13.000Z</Time>
            <Position>
              <LatitudeDegrees>36.81963826529681682586669921875</LatitudeDegrees>
              <LongitudeDegrees>-4.38714738003909587860107421875</LongitudeDegrees>
            </Position>
            <AltitudeMeters>788.4000244140625</AltitudeMeters>
            <DistanceMeters>NAN</DistanceMeters>
          </Trackpoint>
          <Trackpoint>
            <Time>2020-12-05T13:15:14.000Z</Time>
            <Position>
              <LatitudeDegrees>36.819627285003662109375</LatitudeDegrees>
              <LongitudeDegrees>-4.3871466256678104400634765625</LongitudeDegrees>
            </Position>
            <AltitudeMeters>788.4000244140625</AltitudeMeters>
            <DistanceMeters>NAN</DistanceMeters>
          </Trackpoint>
          <Trackpoint>
            <Time>2020-12-05T13:15:15.000Z</Time>
            <Position>
              <LatitudeDegrees>36.81961647234857082366943359375</LatitudeDegrees>
              <LongitudeDegrees>-4.38714377582073211669921875</LongitudeDegrees>
            </Position>
            <AltitudeMeters>788.4000244140625</AltitudeMeters>
            <DistanceMeters>NAN</DistanceMeters>
          </Trackpoint>
          <Trackpoint>
            <Time>2020-12-05T13:15:16.000Z</Time>
            <Position>
              <LatitudeDegrees>36.81960783898830413818359375</LatitudeDegrees>
              <LongitudeDegrees>-4.38714444637298583984375</LongitudeDegrees>
            </Position>
            <AltitudeMeters>788.4000244140625</AltitudeMeters>
            <DistanceMeters>NAN</DistanceMeters>
          </Trackpoint>
          <Trackpoint>
            <Time>2020-12-05T13:15:17.000Z</Time>
            <Position>
              <LatitudeDegrees>36.81960104964673519134521484375</LatitudeDegrees>
              <LongitudeDegrees>-4.3871484696865081787109375</LongitudeDegrees>
            </Position>
            <AltitudeMeters>788.4000244140625</AltitudeMeters>
            <DistanceMeters>NAN</DistanceMeters>
          </Trackpoint>
          <Trackpoint>
            <Time>2020-12-05T13:15:18.000Z</Time>
            <Position>
              <LatitudeDegrees>36.81959467940032482147216796875</LatitudeDegrees>
              <LongitudeDegrees>-4.38715291209518909454345703125</LongitudeDegrees>
            </Position>
            <AltitudeMeters>788.4000244140625</AltitudeMeters>
            <DistanceMeters>NAN</DistanceMeters>
          </Trackpoint>
          <Trackpoint>
            <Time>2020-12-05T13:15:19.000Z</Time>
            <Position>
              <LatitudeDegrees>36.819588728249073028564453125</LatitudeDegrees>
              <LongitudeDegrees>-4.38715559430420398712158203125</LongitudeDegrees>
            </Position>
            <AltitudeMeters>788.4000244140625</AltitudeMeters>
            <DistanceMeters>NAN</DistanceMeters>
          </Trackpoint>
          <Trackpoint>
            <Time>2020-12-05T13:15:20.000Z</Time>
            <Position>
              <LatitudeDegrees>36.819582693278789520263671875</LatitudeDegrees>
              <LongitudeDegrees>-4.38715676777064800262451171875</LongitudeDegrees>
            </Position>
            <AltitudeMeters>788.4000244140625</AltitudeMeters>
            <DistanceMeters>NAN</DistanceMeters>
          </Trackpoint>
          <Trackpoint>
            <Time>2020-12-05T13:15:21.000Z</Time>
            <Position>
              <LatitudeDegrees>36.81957473047077655792236328125</LatitudeDegrees>
              <LongitudeDegrees>-4.3871583603322505950927734375</LongitudeDegrees>
            </Position>
            <AltitudeMeters>788.4000244140625</AltitudeMeters>
            <DistanceMeters>NAN</DistanceMeters>
          </Trackpoint>
          <Trackpoint>
            <Time>2020-12-05T13:15:22.000Z</Time>
            <Position>
              <LatitudeDegrees>36.81956601329147815704345703125</LatitudeDegrees>
              <LongitudeDegrees>-4.38716062344610691070556640625</LongitudeDegrees>
            </Position>
            <AltitudeMeters>788.4000244140625</AltitudeMeters>
            <DistanceMeters>NAN</DistanceMeters>
          </Trackpoint>
          <Trackpoint>
            <Time>2020-12-05T13:15:23.000Z</Time>
            <Position>
              <LatitudeDegrees>36.81955746375024318695068359375</LatitudeDegrees>
              <LongitudeDegrees>-4.38716523349285125732421875</LongitudeDegrees>
            </Position>
            <AltitudeMeters>788.4000244140625</AltitudeMeters>
            <DistanceMeters>NAN</DistanceMeters>
          </Trackpoint>
          <Trackpoint>
            <Time>2020-12-05T13:15:24.000Z</Time>
            <Position>
              <LatitudeDegrees>36.8195473216474056243896484375</LatitudeDegrees>
              <LongitudeDegrees>-4.38717034645378589630126953125</LongitudeDegrees>
            </Position>
            <AltitudeMeters>788.4000244140625</AltitudeMeters>
            <DistanceMeters>NAN</DistanceMeters>
          </Trackpoint>
          <Trackpoint>
            <Time>2020-12-05T13:15:25.000Z</Time>
            <Position>
              <LatitudeDegrees>36.81953650899231433868408203125</LatitudeDegrees>
              <LongitudeDegrees>-4.38717084936797618865966796875</LongitudeDegrees>
            </Position>
            <AltitudeMeters>788.4000244140625</AltitudeMeters>
            <DistanceMeters>NAN</DistanceMeters>
          </Trackpoint>
          <Trackpoint>
            <Time>2020-12-05T13:15:26.000Z</Time>
            <Position>
              <LatitudeDegrees>36.819525696337223052978515625</LatitudeDegrees>
              <LongitudeDegrees>-4.387171268463134765625</LongitudeDegrees>
            </Position>
            <AltitudeMeters>788.4000244140625</AltitudeMeters>
            <DistanceMeters>NAN</DistanceMeters>
          </Trackpoint>
          <Trackpoint>
            <Time>2020-12-05T13:15:27.000Z</Time>
            <Position>
              <LatitudeDegrees>36.81951639242470264434814453125</LatitudeDegrees>
              <LongitudeDegrees>-4.3871704302728176116943359375</LongitudeDegrees>
            </Position>
            <AltitudeMeters>788.4000244140625</AltitudeMeters>
            <DistanceMeters>NAN</DistanceMeters>
          </Trackpoint>
          <Trackpoint>
            <Time>2020-12-05T13:15:28.000Z</Time>
            <Position>
              <LatitudeDegrees>36.81950700469315052032470703125</LatitudeDegrees>
              <LongitudeDegrees>-4.3871700949966907501220703125</LongitudeDegrees>
            </Position>
            <AltitudeMeters>788.4000244140625</AltitudeMeters>
            <DistanceMeters>NAN</DistanceMeters>
          </Trackpoint>
          <Trackpoint>
            <Time>2020-12-05T13:15:29.000Z</Time>
            <Position>
              <LatitudeDegrees>36.81949409656226634979248046875</LatitudeDegrees>
              <LongitudeDegrees>-4.3871726095676422119140625</LongitudeDegrees>
            </Position>
            <AltitudeMeters>788.4000244140625</AltitudeMeters>
            <DistanceMeters>NAN</DistanceMeters>
          </Trackpoint>
          <Trackpoint>
            <Time>2020-12-05T13:15:30.000Z</Time>
            <Position>
              <LatitudeDegrees>36.819477081298828125</LatitudeDegrees>
              <LongitudeDegrees>-4.3871747888624668121337890625</LongitudeDegrees>
            </Position>
            <AltitudeMeters>788.4000244140625</AltitudeMeters>
            <DistanceMeters>NAN</DistanceMeters>
          </Trackpoint>
          <Trackpoint>
            <Time>2020-12-05T13:15:31.000Z</Time>
            <Position>
              <LatitudeDegrees>36.819458641111850738525390625</LatitudeDegrees>
              <LongitudeDegrees>-4.38717822544276714324951171875</LongitudeDegrees>
            </Position>
            <AltitudeMeters>788.4000244140625</AltitudeMeters>
            <DistanceMeters>NAN</DistanceMeters>
          </Trackpoint>
          <Trackpoint>
            <Time>2020-12-05T13:15:32.000Z</Time>
            <Position>
              <LatitudeDegrees>36.8194380216300487518310546875</LatitudeDegrees>
              <LongitudeDegrees>-4.38718107528984546661376953125</LongitudeDegrees>
            </Position>
            <AltitudeMeters>788.4000244140625</AltitudeMeters>
            <DistanceMeters>NAN</DistanceMeters>
          </Trackpoint>
          <Trackpoint>
            <Time>2020-12-05T13:15:33.000Z</Time>
            <Position>
              <LatitudeDegrees>36.8194172345101833343505859375</LatitudeDegrees>
              <LongitudeDegrees>-4.38718241639435291290283203125</LongitudeDegrees>
            </Position>
            <AltitudeMeters>788.4000244140625</AltitudeMeters>
            <DistanceMeters>NAN</DistanceMeters>
          </Trackpoint>
          <Trackpoint>
            <Time>2020-12-05T13:15:34.000Z</Time>
            <Position>
              <LatitudeDegrees>36.81939988397061824798583984375</LatitudeDegrees>
              <LongitudeDegrees>-4.38718928955495357513427734375</LongitudeDegrees>
            </Position>
            <AltitudeMeters>788.4000244140625</AltitudeMeters>
            <DistanceMeters>NAN</DistanceMeters>
          </Trackpoint>
          <Trackpoint>
            <Time>2020-12-05T13:15:35.000Z</Time>
            <Position>
              <LatitudeDegrees>36.81938781403005123138427734375</LatitudeDegrees>
              <LongitudeDegrees>-4.38719113357365131378173828125</LongitudeDegrees>
            </Position>
            <AltitudeMeters>788.4000244140625</AltitudeMeters>
            <DistanceMeters>NAN</DistanceMeters>
          </Trackpoint>
          <Trackpoint>
            <Time>2020-12-05T13:15:36.000Z</Time>
            <Position>
              <LatitudeDegrees>36.81937524117529392242431640625</LatitudeDegrees>
              <LongitudeDegrees>-4.38719398342072963714599609375</LongitudeDegrees>
            </Position>
            <AltitudeMeters>788.4000244140625</AltitudeMeters>
            <DistanceMeters>NAN</DistanceMeters>
          </Trackpoint>
          <Trackpoint>
            <Time>2020-12-05T13:15:37.000Z</Time>
            <Position>
              <LatitudeDegrees>36.81936183013021945953369140625</LatitudeDegrees>
              <LongitudeDegrees>-4.38719700090587139129638671875</LongitudeDegrees>
            </Position>
            <AltitudeMeters>788.4000244140625</AltitudeMeters>
            <DistanceMeters>NAN</DistanceMeters>
          </Trackpoint>
          <Trackpoint>
            <Time>2020-12-05T13:15:38.000Z</Time>
            <Position>
              <LatitudeDegrees>36.81935076601803302764892578125</LatitudeDegrees>
              <LongitudeDegrees>-4.387199096381664276123046875</LongitudeDegrees>
            </Position>
            <AltitudeMeters>788.4000244140625</AltitudeMeters>
            <DistanceMeters>NAN</DistanceMeters>
          </Trackpoint>
          <Trackpoint>
            <Time>2020-12-05T13:15:39.000Z</Time>
            <Position>
              <LatitudeDegrees>36.8193387798964977264404296875</LatitudeDegrees>
              <LongitudeDegrees>-4.3872012756764888763427734375</LongitudeDegrees>
            </Position>
            <AltitudeMeters>788.4000244140625</AltitudeMeters>
            <DistanceMeters>NAN</DistanceMeters>
          </Trackpoint>
          <Trackpoint>
            <Time>2020-12-05T13:15:40.000Z</Time>
            <Position>
              <LatitudeDegrees>36.81932796724140644073486328125</LatitudeDegrees>
              <LongitudeDegrees>-4.38720337115228176116943359375</LongitudeDegrees>
            </Position>
            <AltitudeMeters>788.4000244140625</AltitudeMeters>
            <DistanceMeters>NAN</DistanceMeters>
          </Trackpoint>
          <Trackpoint>
            <Time>2020-12-05T13:15:41.000Z</Time>
            <Position>
              <LatitudeDegrees>36.81931723840534687042236328125</LatitudeDegrees>
              <LongitudeDegrees>-4.38720789737999439239501953125</LongitudeDegrees>
            </Position>
            <AltitudeMeters>788.4000244140625</AltitudeMeters>
            <DistanceMeters>NAN</DistanceMeters>
          </Trackpoint>
          <Trackpoint>
            <Time>2020-12-05T13:15:42.000Z</Time>
            <Position>
              <LatitudeDegrees>36.819308102130889892578125</LatitudeDegrees>
              <LongitudeDegrees>-4.387211501598358154296875</LongitudeDegrees>
            </Position>
            <AltitudeMeters>788.4000244140625</AltitudeMeters>
            <DistanceMeters>NAN</DistanceMeters>
          </Trackpoint>
          <Trackpoint>
            <Time>2020-12-05T13:15:43.000Z</Time>
            <Position>
              <LatitudeDegrees>36.81929963640868663787841796875</LatitudeDegrees>
              <LongitudeDegrees>-4.38721292652189731597900390625</LongitudeDegrees>
            </Position>
            <AltitudeMeters>788.4000244140625</AltitudeMeters>
            <DistanceMeters>NAN</DistanceMeters>
          </Trackpoint>
          <Trackpoint>
            <Time>2020-12-05T13:15:44.000Z</Time>
            <Position>
              <LatitudeDegrees>36.81929226033389568328857421875</LatitudeDegrees>
              <LongitudeDegrees>-4.3872130103409290313720703125</LongitudeDegrees>
            </Position>
            <AltitudeMeters>788.4000244140625</AltitudeMeters>
            <DistanceMeters>NAN</DistanceMeters>
          </Trackpoint>
          <Trackpoint>
            <Time>2020-12-05T13:15:45.000Z</Time>
            <Position>
              <LatitudeDegrees>36.81928236968815326690673828125</LatitudeDegrees>
              <LongitudeDegrees>-4.387213177978992462158203125</LongitudeDegrees>
            </Position>
            <AltitudeMeters>788.4000244140625</AltitudeMeters>
            <DistanceMeters>NAN</DistanceMeters>
          </Trackpoint>
          <Trackpoint>
            <Time>2020-12-05T13:15:46.000Z</Time>
            <Position>
              <LatitudeDegrees>36.8192730657756328582763671875</LatitudeDegrees>
              <LongitudeDegrees>-4.38721275888383388519287109375</LongitudeDegrees>
            </Position>
            <AltitudeMeters>788.4000244140625</AltitudeMeters>
            <DistanceMeters>NAN</DistanceMeters>
          </Trackpoint>
          <Trackpoint>
            <Time>2020-12-05T13:15:47.000Z</Time>
            <Position>
              <LatitudeDegrees>36.8192630074918270111083984375</LatitudeDegrees>
              <LongitudeDegrees>-4.38721577636897563934326171875</LongitudeDegrees>
            </Position>
            <AltitudeMeters>788.4000244140625</AltitudeMeters>
            <DistanceMeters>NAN</DistanceMeters>
          </Trackpoint>
          <Trackpoint>
            <Time>2020-12-05T13:15:48.000Z</Time>
            <Position>
              <LatitudeDegrees>36.81925269775092601776123046875</LatitudeDegrees>
              <LongitudeDegrees>-4.38721929676830768585205078125</LongitudeDegrees>
            </Position>
            <AltitudeMeters>788.4000244140625</AltitudeMeters>
            <DistanceMeters>NAN</DistanceMeters>
          </Trackpoint>
          <Trackpoint>
            <Time>2020-12-05T13:15:49.000Z</Time>
            <Position>
              <LatitudeDegrees>36.81924196891486644744873046875</LatitudeDegrees>
              <LongitudeDegrees>-4.38722415827214717864990234375</LongitudeDegrees>
            </Position>
            <AltitudeMeters>788.4000244140625</AltitudeMeters>
            <DistanceMeters>NAN</DistanceMeters>
          </Trackpoint>
          <Trackpoint>
            <Time>2020-12-05T13:15:50.000Z</Time>
            <Position>
              <LatitudeDegrees>36.81922872550785541534423828125</LatitudeDegrees>
              <LongitudeDegrees>-4.38722985796630382537841796875</LongitudeDegrees>
            </Position>
            <AltitudeMeters>788.4000244140625</AltitudeMeters>
            <DistanceMeters>NAN</DistanceMeters>
          </Trackpoint>
          <Trackpoint>
            <Time>2020-12-05T13:15:51.000Z</Time>
            <Position>
              <LatitudeDegrees>36.819212548434734344482421875</LatitudeDegrees>
              <LongitudeDegrees>-4.387238658964633941650390625</LongitudeDegrees>
            </Position>
            <AltitudeMeters>788.4000244140625</AltitudeMeters>
            <DistanceMeters>NAN</DistanceMeters>
          </Trackpoint>
          <Trackpoint>
            <Time>2020-12-05T13:15:52.000Z</Time>
            <Position>
              <LatitudeDegrees>36.819197125732898712158203125</LatitudeDegrees>
              <LongitudeDegrees>-4.3872475437819957733154296875</LongitudeDegrees>
            </Position>
            <AltitudeMeters>788.4000244140625</AltitudeMeters>
            <DistanceMeters>NAN</DistanceMeters>
          </Trackpoint>
          <Trackpoint>
            <Time>2020-12-05T13:15:53.000Z</Time>
            <Position>
              <LatitudeDegrees>36.819184385240077972412109375</LatitudeDegrees>
              <LongitudeDegrees>-4.38725374639034271240234375</LongitudeDegrees>
            </Position>
            <AltitudeMeters>788.4000244140625</AltitudeMeters>
            <DistanceMeters>NAN</DistanceMeters>
          </Trackpoint>
          <Trackpoint>
            <Time>2020-12-05T13:15:54.000Z</Time>
            <Position>
              <LatitudeDegrees>36.8191744945943355560302734375</LatitudeDegrees>
              <LongitudeDegrees>-4.38725911080837249755859375</LongitudeDegrees>
            </Position>
            <AltitudeMeters>788.4000244140625</AltitudeMeters>
            <DistanceMeters>NAN</DistanceMeters>
          </Trackpoint>
          <Trackpoint>
            <Time>2020-12-05T13:15:55.000Z</Time>
            <Position>
              <LatitudeDegrees>36.81916468776762485504150390625</LatitudeDegrees>
              <LongitudeDegrees>-4.38726439140737056732177734375</LongitudeDegrees>
            </Position>
            <AltitudeMeters>788.4000244140625</AltitudeMeters>
            <DistanceMeters>NAN</DistanceMeters>
          </Trackpoint>
          <Trackpoint>
            <Time>2020-12-05T13:15:56.000Z</Time>
            <Position>
              <LatitudeDegrees>36.8191530369222164154052734375</LatitudeDegrees>
              <LongitudeDegrees>-4.38726690597832202911376953125</LongitudeDegrees>
            </Position>
            <AltitudeMeters>788.4000244140625</AltitudeMeters>
            <DistanceMeters>NAN</DistanceMeters>
          </Trackpoint>
          <Trackpoint>
            <Time>2020-12-05T13:15:57.000Z</Time>
            <Position>
              <LatitudeDegrees>36.819142140448093414306640625</LatitudeDegrees>
              <LongitudeDegrees>-4.38727193512022495269775390625</LongitudeDegrees>
            </Position>
            <AltitudeMeters>788.4000244140625</AltitudeMeters>
            <DistanceMeters>NAN</DistanceMeters>
          </Trackpoint>
          <Trackpoint>
            <Time>2020-12-05T13:15:58.000Z</Time>
            <Position>
              <LatitudeDegrees>36.81912898086011409759521484375</LatitudeDegrees>
              <LongitudeDegrees>-4.38727813772857189178466796875</LongitudeDegrees>
            </Position>
            <AltitudeMeters>788.4000244140625</AltitudeMeters>
            <DistanceMeters>NAN</DistanceMeters>
          </Trackpoint>
          <Trackpoint>
            <Time>2020-12-05T13:15:59.000Z</Time>
            <Position>
              <LatitudeDegrees>36.81911523453891277313232421875</LatitudeDegrees>
              <LongitudeDegrees>-4.38728350214660167694091796875</LongitudeDegrees>
            </Position>
            <AltitudeMeters>788.4000244140625</AltitudeMeters>
            <DistanceMeters>NAN</DistanceMeters>
          </Trackpoint>
          <Trackpoint>
            <Time>2020-12-05T13:16:00.000Z</Time>
            <Position>
              <LatitudeDegrees>36.81909847073256969451904296875</LatitudeDegrees>
              <LongitudeDegrees>-4.38729020766913890838623046875</LongitudeDegrees>
            </Position>
            <AltitudeMeters>791.20001220703125</AltitudeMeters>
            <DistanceMeters>NAN</DistanceMeters>
          </Trackpoint>
          <Trackpoint>
            <Time>2020-12-05T13:16:01.000Z</Time>
            <Position>
              <LatitudeDegrees>36.81908220984041690826416015625</LatitudeDegrees>
              <LongitudeDegrees>-4.38729523681104183197021484375</LongitudeDegrees>
            </Position>
            <AltitudeMeters>791.20001220703125</AltitudeMeters>
            <DistanceMeters>NAN</DistanceMeters>
          </Trackpoint>
          <Trackpoint>
            <Time>2020-12-05T13:16:02.000Z</Time>
            <Position>
              <LatitudeDegrees>36.81906661950051784515380859375</LatitudeDegrees>
              <LongitudeDegrees>-4.3872974999248981475830078125</LongitudeDegrees>
            </Position>
            <AltitudeMeters>791.20001220703125</AltitudeMeters>
            <DistanceMeters>NAN</DistanceMeters>
          </Trackpoint>
          <Trackpoint>
            <Time>2020-12-05T13:16:03.000Z</Time>
            <Position>
              <LatitudeDegrees>36.819053627550601959228515625</LatitudeDegrees>
              <LongitudeDegrees>-4.38729926012456417083740234375</LongitudeDegrees>
            </Position>
            <AltitudeMeters>791.20001220703125</AltitudeMeters>
            <DistanceMeters>NAN</DistanceMeters>
          </Trackpoint>
          <Trackpoint>
            <Time>2020-12-05T13:16:04.000Z</Time>
            <Position>
              <LatitudeDegrees>36.81904457509517669677734375</LatitudeDegrees>
              <LongitudeDegrees>-4.38730068504810333251953125</LongitudeDegrees>
            </Position>
            <AltitudeMeters>791.20001220703125</AltitudeMeters>
            <DistanceMeters>NAN</DistanceMeters>
          </Trackpoint>
          <Trackpoint>
            <Time>2020-12-05T13:16:05.000Z</Time>
            <Position>
              <LatitudeDegrees>36.819035522639751434326171875</LatitudeDegrees>
              <LongitudeDegrees>-4.387305714190006256103515625</LongitudeDegrees>
            </Position>
            <AltitudeMeters>791.20001220703125</AltitudeMeters>
            <DistanceMeters>NAN</DistanceMeters>
          </Trackpoint>
          <Trackpoint>
            <Time>2020-12-05T13:16:06.000Z</Time>
            <Position>
              <LatitudeDegrees>36.81902554817497730255126953125</LatitudeDegrees>
              <LongitudeDegrees>-4.38730998896062374114990234375</LongitudeDegrees>
            </Position>
            <AltitudeMeters>791.20001220703125</AltitudeMeters>
            <DistanceMeters>NAN</DistanceMeters>
          </Trackpoint>
          <Trackpoint>
            <Time>2020-12-05T13:16:07.000Z</Time>
            <Position>
              <LatitudeDegrees>36.81901800446212291717529296875</LatitudeDegrees>
              <LongitudeDegrees>-4.387315772473812103271484375</LongitudeDegrees>
            </Position>
            <AltitudeMeters>791.20001220703125</AltitudeMeters>
            <DistanceMeters>NAN</DistanceMeters>
          </Trackpoint>
          <Trackpoint>
            <Time>2020-12-05T13:16:08.000Z</Time>
            <Position>
              <LatitudeDegrees>36.8190088681876659393310546875</LatitudeDegrees>
              <LongitudeDegrees>-4.3873182870447635650634765625</LongitudeDegrees>
            </Position>
            <AltitudeMeters>791.20001220703125</AltitudeMeters>
            <DistanceMeters>NAN</DistanceMeters>
          </Trackpoint>
          <Trackpoint>
            <Time>2020-12-05T13:16:09.000Z</Time>
            <Position>
              <LatitudeDegrees>36.8190018273890018463134765625</LatitudeDegrees>
              <LongitudeDegrees>-4.387322477996349334716796875</LongitudeDegrees>
            </Position>
            <AltitudeMeters>791.20001220703125</AltitudeMeters>
            <DistanceMeters>NAN</DistanceMeters>
          </Trackpoint>
          <Trackpoint>
            <Time>2020-12-05T13:16:10.000Z</Time>
            <Position>
              <LatitudeDegrees>36.81899352930486202239990234375</LatitudeDegrees>
              <LongitudeDegrees>-4.38732658512890338897705078125</LongitudeDegrees>
            </Position>
            <AltitudeMeters>791.20001220703125</AltitudeMeters>
            <DistanceMeters>NAN</DistanceMeters>
          </Trackpoint>
          <Trackpoint>
            <Time>2020-12-05T13:16:11.000Z</Time>
            <Position>
              <LatitudeDegrees>36.8189870752394199371337890625</LatitudeDegrees>
              <LongitudeDegrees>-4.3873259983956813812255859375</LongitudeDegrees>
            </Position>
            <AltitudeMeters>791.20001220703125</AltitudeMeters>
            <DistanceMeters>NAN</DistanceMeters>
          </Trackpoint>
          <Trackpoint>
            <Time>2020-12-05T13:16:12.000Z</Time>
            <Position>
              <LatitudeDegrees>36.8189793638885021209716796875</LatitudeDegrees>
              <LongitudeDegrees>-4.3873259983956813812255859375</LongitudeDegrees>
            </Position>
            <AltitudeMeters>791.20001220703125</AltitudeMeters>
            <DistanceMeters>NAN</DistanceMeters>
          </Trackpoint>
          <Trackpoint>
            <Time>2020-12-05T13:16:13.000Z</Time>
            <Position>
              <LatitudeDegrees>36.81897022761404514312744140625</LatitudeDegrees>
              <LongitudeDegrees>-4.3873270042240619659423828125</LongitudeDegrees>
            </Position>
            <AltitudeMeters>791.20001220703125</AltitudeMeters>
            <DistanceMeters>NAN</DistanceMeters>
          </Trackpoint>
          <Trackpoint>
            <Time>2020-12-05T13:16:14.000Z</Time>
            <Position>
              <LatitudeDegrees>36.81896050460636615753173828125</LatitudeDegrees>
              <LongitudeDegrees>-4.387327842414379119873046875</LongitudeDegrees>
            </Position>
            <AltitudeMeters>791.20001220703125</AltitudeMeters>
            <DistanceMeters>NAN</DistanceMeters>
          </Trackpoint>
          <Trackpoint>
            <Time>2020-12-05T13:16:15.000Z</Time>
            <Position>
              <LatitudeDegrees>36.81895128451287746429443359375</LatitudeDegrees>
              <LongitudeDegrees>-4.3873300217092037200927734375</LongitudeDegrees>
            </Position>
            <AltitudeMeters>791.20001220703125</AltitudeMeters>
            <DistanceMeters>NAN</DistanceMeters>
          </Trackpoint>
          <Trackpoint>
            <Time>2020-12-05T13:16:16.000Z</Time>
            <Position>
              <LatitudeDegrees>36.8189421482384204864501953125</LatitudeDegrees>
              <LongitudeDegrees>-4.3873353861272335052490234375</LongitudeDegrees>
            </Position>
            <AltitudeMeters>791.20001220703125</AltitudeMeters>
            <DistanceMeters>NAN</DistanceMeters>
          </Trackpoint>
          <Trackpoint>
            <Time>2020-12-05T13:16:17.000Z</Time>
            <Position>
              <LatitudeDegrees>36.81893100030720233917236328125</LatitudeDegrees>
              <LongitudeDegrees>-4.387341924011707305908203125</LongitudeDegrees>
            </Position>
            <AltitudeMeters>791.20001220703125</AltitudeMeters>
            <DistanceMeters>NAN</DistanceMeters>
          </Trackpoint>
          <Trackpoint>
            <Time>2020-12-05T13:16:18.000Z</Time>
            <Position>
              <LatitudeDegrees>36.8189166672527790069580078125</LatitudeDegrees>
              <LongitudeDegrees>-4.38734787516295909881591796875</LongitudeDegrees>
            </Position>
            <AltitudeMeters>791.20001220703125</AltitudeMeters>
            <DistanceMeters>NAN</DistanceMeters>
          </Trackpoint>
          <Trackpoint>
            <Time>2020-12-05T13:16:19.000Z</Time>
            <Position>
              <LatitudeDegrees>36.818897724151611328125</LatitudeDegrees>
              <LongitudeDegrees>-4.38734770752489566802978515625</LongitudeDegrees>
            </Position>
            <AltitudeMeters>791.20001220703125</AltitudeMeters>
            <DistanceMeters>NAN</DistanceMeters>
          </Trackpoint>
          <Trackpoint>
            <Time>2020-12-05T13:16:20.000Z</Time>
            <Position>
              <LatitudeDegrees>36.81887903250753879547119140625</LatitudeDegrees>
              <LongitudeDegrees>-4.3873469531536102294921875</LongitudeDegrees>
            </Position>
            <AltitudeMeters>791.20001220703125</AltitudeMeters>
            <DistanceMeters>NAN</DistanceMeters>
          </Trackpoint>
          <Trackpoint>
            <Time>2020-12-05T13:16:21.000Z</Time>
            <Position>
              <LatitudeDegrees>36.81886344216763973236083984375</LatitudeDegrees>
              <LongitudeDegrees>-4.38734787516295909881591796875</LongitudeDegrees>
            </Position>
            <AltitudeMeters>791.20001220703125</AltitudeMeters>
            <DistanceMeters>NAN</DistanceMeters>
          </Trackpoint>
          <Trackpoint>
            <Time>2020-12-05T13:16:22.000Z</Time>
            <Position>
              <LatitudeDegrees>36.8188512884080410003662109375</LatitudeDegrees>
              <LongitudeDegrees>-4.3873498030006885528564453125</LongitudeDegrees>
            </Position>
            <AltitudeMeters>791.20001220703125</AltitudeMeters>
            <DistanceMeters>NAN</DistanceMeters>
          </Trackpoint>
          <Trackpoint>
            <Time>2020-12-05T13:16:23.000Z</Time>
            <Position>
              <LatitudeDegrees>36.81884215213358402252197265625</LatitudeDegrees>
              <LongitudeDegrees>-4.38735608942806720733642578125</LongitudeDegrees>
            </Position>
            <AltitudeMeters>791.20001220703125</AltitudeMeters>
            <DistanceMeters>NAN</DistanceMeters>
          </Trackpoint>
          <Trackpoint>
            <Time>2020-12-05T13:16:24.000Z</Time>
            <Position>
              <LatitudeDegrees>36.81883309967815876007080078125</LatitudeDegrees>
              <LongitudeDegrees>-4.38736237585544586181640625</LongitudeDegrees>
            </Position>
            <AltitudeMeters>791.20001220703125</AltitudeMeters>
            <DistanceMeters>NAN</DistanceMeters>
          </Trackpoint>
          <Trackpoint>
            <Time>2020-12-05T13:16:25.000Z</Time>
            <Position>
              <LatitudeDegrees>36.81882387958467006683349609375</LatitudeDegrees>
              <LongitudeDegrees>-4.3873689137399196624755859375</LongitudeDegrees>
            </Position>
            <AltitudeMeters>791.20001220703125</AltitudeMeters>
            <DistanceMeters>NAN</DistanceMeters>
          </Trackpoint>
          <Trackpoint>
            <Time>2020-12-05T13:16:26.000Z</Time>
            <Position>
              <LatitudeDegrees>36.81881348602473735809326171875</LatitudeDegrees>
              <LongitudeDegrees>-4.38737469725310802459716796875</LongitudeDegrees>
            </Position>
            <AltitudeMeters>791.20001220703125</AltitudeMeters>
            <DistanceMeters>NAN</DistanceMeters>
          </Trackpoint>
          <Trackpoint>
            <Time>2020-12-05T13:16:27.000Z</Time>
            <Position>
              <LatitudeDegrees>36.818804852664470672607421875</LatitudeDegrees>
              <LongitudeDegrees>-4.38737805001437664031982421875</LongitudeDegrees>
            </Position>
            <AltitudeMeters>791.20001220703125</AltitudeMeters>
            <DistanceMeters>NAN</DistanceMeters>
          </Trackpoint>
          <Trackpoint>
            <Time>2020-12-05T13:16:28.000Z</Time>
            <Position>
              <LatitudeDegrees>36.8187973089516162872314453125</LatitudeDegrees>
              <LongitudeDegrees>-4.38738056458532810211181640625</LongitudeDegrees>
            </Position>
            <AltitudeMeters>791.20001220703125</AltitudeMeters>
            <DistanceMeters>NAN</DistanceMeters>
          </Trackpoint>
          <Trackpoint>
            <Time>2020-12-05T13:16:29.000Z</Time>
            <Position>
              <LatitudeDegrees>36.81878850795328617095947265625</LatitudeDegrees>
              <LongitudeDegrees>-4.38738249242305755615234375</LongitudeDegrees>
            </Position>
            <AltitudeMeters>791.20001220703125</AltitudeMeters>
            <DistanceMeters>NAN</DistanceMeters>
          </Trackpoint>
          <Trackpoint>
            <Time>2020-12-05T13:16:30.000Z</Time>
            <Position>
              <LatitudeDegrees>36.81877861730754375457763671875</LatitudeDegrees>
              <LongitudeDegrees>-4.3873870186507701873779296875</LongitudeDegrees>
            </Position>
            <AltitudeMeters>791.20001220703125</AltitudeMeters>
            <DistanceMeters>NAN</DistanceMeters>
          </Trackpoint>
          <Trackpoint>
            <Time>2020-12-05T13:16:31.000Z</Time>
            <Position>
              <LatitudeDegrees>36.8187681399285793304443359375</LatitudeDegrees>
              <LongitudeDegrees>-4.3873917125165462493896484375</LongitudeDegrees>
            </Position>
            <AltitudeMeters>791.20001220703125</AltitudeMeters>
            <DistanceMeters>NAN</DistanceMeters>
          </Trackpoint>
          <Trackpoint>
            <Time>2020-12-05T13:16:32.000Z</Time>
            <Position>
              <LatitudeDegrees>36.8187584169209003448486328125</LatitudeDegrees>
              <LongitudeDegrees>-4.38739280216395854949951171875</LongitudeDegrees>
            </Position>
            <AltitudeMeters>791.20001220703125</AltitudeMeters>
            <DistanceMeters>NAN</DistanceMeters>
          </Trackpoint>
          <Trackpoint>
            <Time>2020-12-05T13:16:33.000Z</Time>
            <Position>
              <LatitudeDegrees>36.818749867379665374755859375</LatitudeDegrees>
              <LongitudeDegrees>-4.387392885982990264892578125</LongitudeDegrees>
            </Position>
            <AltitudeMeters>791.20001220703125</AltitudeMeters>
            <DistanceMeters>NAN</DistanceMeters>
          </Trackpoint>
          <Trackpoint>
            <Time>2020-12-05T13:16:34.000Z</Time>
            <Position>
              <LatitudeDegrees>36.81874140165746212005615234375</LatitudeDegrees>
              <LongitudeDegrees>-4.38739263452589511871337890625</LongitudeDegrees>
            </Position>
            <AltitudeMeters>791.20001220703125</AltitudeMeters>
            <DistanceMeters>NAN</DistanceMeters>
          </Trackpoint>
          <Trackpoint>
            <Time>2020-12-05T13:16:35.000Z</Time>
            <Position>
              <LatitudeDegrees>36.81873167864978313446044921875</LatitudeDegrees>
              <LongitudeDegrees>-4.387390203773975372314453125</LongitudeDegrees>
            </Position>
            <AltitudeMeters>791.20001220703125</AltitudeMeters>
            <DistanceMeters>NAN</DistanceMeters>
          </Trackpoint>
          <Trackpoint>
            <Time>2020-12-05T13:16:36.000Z</Time>
            <Position>
              <LatitudeDegrees>36.8187238834798336029052734375</LatitudeDegrees>
              <LongitudeDegrees>-4.3873860128223896026611328125</LongitudeDegrees>
            </Position>
            <AltitudeMeters>791.20001220703125</AltitudeMeters>
            <DistanceMeters>NAN</DistanceMeters>
          </Trackpoint>
          <Trackpoint>
            <Time>2020-12-05T13:16:37.000Z</Time>
            <Position>
              <LatitudeDegrees>36.81871742941439151763916015625</LatitudeDegrees>
              <LongitudeDegrees>-4.3873829953372478485107421875</LongitudeDegrees>
            </Position>
            <AltitudeMeters>791.20001220703125</AltitudeMeters>
            <DistanceMeters>NAN</DistanceMeters>
          </Trackpoint>
          <Trackpoint>
            <Time>2020-12-05T13:16:38.000Z</Time>
            <Position>
              <LatitudeDegrees>36.818712316453456878662109375</LatitudeDegrees>
              <LongitudeDegrees>-4.38737872056663036346435546875</LongitudeDegrees>
            </Position>
            <AltitudeMeters>791.20001220703125</AltitudeMeters>
            <DistanceMeters>NAN</DistanceMeters>
          </Trackpoint>
          <Trackpoint>
            <Time>2020-12-05T13:16:39.000Z</Time>
            <Position>
              <LatitudeDegrees>36.8187041021883487701416015625</LatitudeDegrees>
              <LongitudeDegrees>-4.3873736076056957244873046875</LongitudeDegrees>
            </Position>
            <AltitudeMeters>791.20001220703125</AltitudeMeters>
            <DistanceMeters>NAN</DistanceMeters>
          </Trackpoint>
          <Trackpoint>
            <Time>2020-12-05T13:16:40.000Z</Time>
            <Position>
              <LatitudeDegrees>36.8186947144567966461181640625</LatitudeDegrees>
              <LongitudeDegrees>-4.3873682431876659393310546875</LongitudeDegrees>
            </Position>
            <AltitudeMeters>791.20001220703125</AltitudeMeters>
            <DistanceMeters>NAN</DistanceMeters>
          </Trackpoint>
          <Trackpoint>
            <Time>2020-12-05T13:16:41.000Z</Time>
            <Position>
              <LatitudeDegrees>36.81868541054427623748779296875</LatitudeDegrees>
              <LongitudeDegrees>-4.3873635493218898773193359375</LongitudeDegrees>
            </Position>
            <AltitudeMeters>791.20001220703125</AltitudeMeters>
            <DistanceMeters>NAN</DistanceMeters>
          </Trackpoint>
          <Trackpoint>
            <Time>2020-12-05T13:16:42.000Z</Time>
            <Position>
              <LatitudeDegrees>36.818679459393024444580078125</LatitudeDegrees>
              <LongitudeDegrees>-4.3873603641986846923828125</LongitudeDegrees>
            </Position>
            <AltitudeMeters>791.20001220703125</AltitudeMeters>
            <DistanceMeters>NAN</DistanceMeters>
          </Trackpoint>
          <Trackpoint>
            <Time>2020-12-05T13:16:43.000Z</Time>
            <Position>
              <LatitudeDegrees>36.8186749331653118133544921875</LatitudeDegrees>
              <LongitudeDegrees>-4.3873551674187183380126953125</LongitudeDegrees>
            </Position>
            <AltitudeMeters>791.20001220703125</AltitudeMeters>
            <DistanceMeters>NAN</DistanceMeters>
          </Trackpoint>
          <Trackpoint>
            <Time>2020-12-05T13:16:44.000Z</Time>
            <Position>
              <LatitudeDegrees>36.8186712451279163360595703125</LatitudeDegrees>
              <LongitudeDegrees>-4.38734469003975391387939453125</LongitudeDegrees>
            </Position>
            <AltitudeMeters>791.20001220703125</AltitudeMeters>
            <DistanceMeters>NAN</DistanceMeters>
          </Trackpoint>
          <Trackpoint>
            <Time>2020-12-05T13:16:45.000Z</Time>
            <Position>
              <LatitudeDegrees>36.81867116130888462066650390625</LatitudeDegrees>
              <LongitudeDegrees>-4.38733161427080631256103515625</LongitudeDegrees>
            </Position>
            <AltitudeMeters>791.20001220703125</AltitudeMeters>
            <DistanceMeters>NAN</DistanceMeters>
          </Trackpoint>
          <Trackpoint>
            <Time>2020-12-05T13:16:46.000Z</Time>
            <Position>
              <LatitudeDegrees>36.8186776153743267059326171875</LatitudeDegrees>
              <LongitudeDegrees>-4.3873179517686367034912109375</LongitudeDegrees>
            </Position>
            <AltitudeMeters>791.20001220703125</AltitudeMeters>
            <DistanceMeters>NAN</DistanceMeters>
          </Trackpoint>
          <Trackpoint>
            <Time>2020-12-05T13:16:47.000Z</Time>
            <Position>
              <LatitudeDegrees>36.81868842802941799163818359375</LatitudeDegrees>
              <LongitudeDegrees>-4.38730479218065738677978515625</LongitudeDegrees>
            </Position>
            <AltitudeMeters>791.20001220703125</AltitudeMeters>
            <DistanceMeters>NAN</DistanceMeters>
          </Trackpoint>
          <Trackpoint>
            <Time>2020-12-05T13:16:48.000Z</Time>
            <Position>
              <LatitudeDegrees>36.8186994083225727081298828125</LatitudeDegrees>
              <LongitudeDegrees>-4.38729054294526576995849609375</LongitudeDegrees>
            </Position>
            <AltitudeMeters>791.20001220703125</AltitudeMeters>
            <DistanceMeters>NAN</DistanceMeters>
          </Trackpoint>
          <Trackpoint>
            <Time>2020-12-05T13:16:49.000Z</Time>
            <Position>
              <LatitudeDegrees>36.818704940378665924072265625</LatitudeDegrees>
              <LongitudeDegrees>-4.387274868786334991455078125</LongitudeDegrees>
            </Position>
            <AltitudeMeters>791.20001220703125</AltitudeMeters>
            <DistanceMeters>NAN</DistanceMeters>
          </Trackpoint>
          <Trackpoint>
            <Time>2020-12-05T13:16:50.000Z</Time>
            <Position>
              <LatitudeDegrees>36.8187087960541248321533203125</LatitudeDegrees>
              <LongitudeDegrees>-4.38725936226546764373779296875</LongitudeDegrees>
            </Position>
            <AltitudeMeters>791.20001220703125</AltitudeMeters>
            <DistanceMeters>NAN</DistanceMeters>
          </Trackpoint>
          <Trackpoint>
            <Time>2020-12-05T13:16:51.000Z</Time>
            <Position>
              <LatitudeDegrees>36.81871189735829830169677734375</LatitudeDegrees>
              <LongitudeDegrees>-4.38724276609718799591064453125</LongitudeDegrees>
            </Position>
            <AltitudeMeters>791.20001220703125</AltitudeMeters>
            <DistanceMeters>NAN</DistanceMeters>
          </Trackpoint>
          <Trackpoint>
            <Time>2020-12-05T13:16:52.000Z</Time>
            <Position>
              <LatitudeDegrees>36.818713657557964324951171875</LatitudeDegrees>
              <LongitudeDegrees>-4.38723388127982616424560546875</LongitudeDegrees>
            </Position>
            <AltitudeMeters>791.20001220703125</AltitudeMeters>
            <DistanceMeters>NAN</DistanceMeters>
          </Trackpoint>
          <Trackpoint>
            <Time>2020-12-05T13:16:53.000Z</Time>
            <Position>
              <LatitudeDegrees>36.81871600449085235595703125</LatitudeDegrees>
              <LongitudeDegrees>-4.3872247450053691864013671875</LongitudeDegrees>
            </Position>
            <AltitudeMeters>791.20001220703125</AltitudeMeters>
            <DistanceMeters>NAN</DistanceMeters>
          </Trackpoint>
          <Trackpoint>
            <Time>2020-12-05T13:16:54.000Z</Time>
            <Position>
              <LatitudeDegrees>36.8187165074050426483154296875</LatitudeDegrees>
              <LongitudeDegrees>-4.38721678219735622406005859375</LongitudeDegrees>
            </Position>
            <AltitudeMeters>791.20001220703125</AltitudeMeters>
            <DistanceMeters>NAN</DistanceMeters>
          </Trackpoint>
          <Trackpoint>
            <Time>2020-12-05T13:16:55.000Z</Time>
            <Position>
              <LatitudeDegrees>36.81871642358601093292236328125</LatitudeDegrees>
              <LongitudeDegrees>-4.387206472456455230712890625</LongitudeDegrees>
            </Position>
            <AltitudeMeters>791.20001220703125</AltitudeMeters>
            <DistanceMeters>NAN</DistanceMeters>
          </Trackpoint>
          <Trackpoint>
            <Time>2020-12-05T13:16:56.000Z</Time>
            <Position>
              <LatitudeDegrees>36.81871122680604457855224609375</LatitudeDegrees>
              <LongitudeDegrees>-4.38720152713358402252197265625</LongitudeDegrees>
            </Position>
            <AltitudeMeters>791.20001220703125</AltitudeMeters>
            <DistanceMeters>NAN</DistanceMeters>
          </Trackpoint>
          <Trackpoint>
            <Time>2020-12-05T13:16:57.000Z</Time>
            <Position>
              <LatitudeDegrees>36.81870552711188793182373046875</LatitudeDegrees>
              <LongitudeDegrees>-4.38719205558300018310546875</LongitudeDegrees>
            </Position>
            <AltitudeMeters>791.20001220703125</AltitudeMeters>
            <DistanceMeters>NAN</DistanceMeters>
          </Trackpoint>
          <Trackpoint>
            <Time>2020-12-05T13:16:58.000Z</Time>
            <Position>
              <LatitudeDegrees>36.81870125234127044677734375</LatitudeDegrees>
              <LongitudeDegrees>-4.387180320918560028076171875</LongitudeDegrees>
            </Position>
            <AltitudeMeters>791.20001220703125</AltitudeMeters>
            <DistanceMeters>NAN</DistanceMeters>
          </Trackpoint>
          <Trackpoint>
            <Time>2020-12-05T13:16:59.000Z</Time>
            <Position>
              <LatitudeDegrees>36.8186967261135578155517578125</LatitudeDegrees>
              <LongitudeDegrees>-4.38716632314026355743408203125</LongitudeDegrees>
            </Position>
            <AltitudeMeters>791.20001220703125</AltitudeMeters>
            <DistanceMeters>NAN</DistanceMeters>
          </Trackpoint>
          <Trackpoint>
            <Time>2020-12-05T13:17:00.000Z</Time>
            <Position>
              <LatitudeDegrees>36.81869362480938434600830078125</LatitudeDegrees>
              <LongitudeDegrees>-4.38715517520904541015625</LongitudeDegrees>
            </Position>
            <AltitudeMeters>795</AltitudeMeters>
            <DistanceMeters>NAN</DistanceMeters>
          </Trackpoint>
          <Trackpoint>
            <Time>2020-12-05T13:17:01.000Z</Time>
            <Position>
              <LatitudeDegrees>36.81868758983910083770751953125</LatitudeDegrees>
              <LongitudeDegrees>-4.38713883049786090850830078125</LongitudeDegrees>
            </Position>
            <AltitudeMeters>795</AltitudeMeters>
            <DistanceMeters>NAN</DistanceMeters>
          </Trackpoint>
          <Trackpoint>
            <Time>2020-12-05T13:17:02.000Z</Time>
            <Position>
              <LatitudeDegrees>36.8186792917549610137939453125</LatitudeDegrees>
              <LongitudeDegrees>-4.38712424598634243011474609375</LongitudeDegrees>
            </Position>
            <AltitudeMeters>795</AltitudeMeters>
            <DistanceMeters>NAN</DistanceMeters>
          </Trackpoint>
          <Trackpoint>
            <Time>2020-12-05T13:17:03.000Z</Time>
            <Position>
              <LatitudeDegrees>36.81866982020437717437744140625</LatitudeDegrees>
              <LongitudeDegrees>-4.387104548513889312744140625</LongitudeDegrees>
            </Position>
            <AltitudeMeters>795</AltitudeMeters>
            <DistanceMeters>NAN</DistanceMeters>
          </Trackpoint>
          <Trackpoint>
            <Time>2020-12-05T13:17:04.000Z</Time>
            <Position>
              <LatitudeDegrees>36.818665377795696258544921875</LatitudeDegrees>
              <LongitudeDegrees>-4.38709809444844722747802734375</LongitudeDegrees>
            </Position>
            <AltitudeMeters>795</AltitudeMeters>
            <DistanceMeters>NAN</DistanceMeters>
          </Trackpoint>
          <Trackpoint>
            <Time>2020-12-05T13:17:05.000Z</Time>
            <Position>
              <LatitudeDegrees>36.818664707243442535400390625</LatitudeDegrees>
              <LongitudeDegrees>-4.38708971254527568817138671875</LongitudeDegrees>
            </Position>
            <AltitudeMeters>795</AltitudeMeters>
            <DistanceMeters>NAN</DistanceMeters>
          </Trackpoint>
          <Trackpoint>
            <Time>2020-12-05T13:17:06.000Z</Time>
            <Position>
              <LatitudeDegrees>36.8186657130718231201171875</LatitudeDegrees>
              <LongitudeDegrees>-4.38708200119435787200927734375</LongitudeDegrees>
            </Position>
            <AltitudeMeters>795</AltitudeMeters>
            <DistanceMeters>NAN</DistanceMeters>
          </Trackpoint>
          <Trackpoint>
            <Time>2020-12-05T13:17:07.000Z</Time>
            <Position>
              <LatitudeDegrees>36.81866747327148914337158203125</LatitudeDegrees>
              <LongitudeDegrees>-4.38707998953759670257568359375</LongitudeDegrees>
            </Position>
            <AltitudeMeters>795</AltitudeMeters>
            <DistanceMeters>NAN</DistanceMeters>
          </Trackpoint>
          <Trackpoint>
            <Time>2020-12-05T13:17:08.000Z</Time>
            <Position>
              <LatitudeDegrees>36.81866579689085483551025390625</LatitudeDegrees>
              <LongitudeDegrees>-4.38708267174661159515380859375</LongitudeDegrees>
            </Position>
            <AltitudeMeters>795</AltitudeMeters>
            <DistanceMeters>NAN</DistanceMeters>
          </Trackpoint>
          <Trackpoint>
            <Time>2020-12-05T13:17:09.000Z</Time>
            <Position>
              <LatitudeDegrees>36.8186685629189014434814453125</LatitudeDegrees>
              <LongitudeDegrees>-4.38707931898534297943115234375</LongitudeDegrees>
            </Position>
            <AltitudeMeters>795</AltitudeMeters>
            <DistanceMeters>NAN</DistanceMeters>
          </Trackpoint>
          <Trackpoint>
            <Time>2020-12-05T13:17:10.000Z</Time>
            <Position>
              <LatitudeDegrees>36.81866847909986972808837890625</LatitudeDegrees>
              <LongitudeDegrees>-4.38707630150020122528076171875</LongitudeDegrees>
            </Position>
            <AltitudeMeters>795</AltitudeMeters>
            <DistanceMeters>NAN</DistanceMeters>
          </Trackpoint>
          <Trackpoint>
            <Time>2020-12-05T13:17:11.000Z</Time>
            <Position>
              <LatitudeDegrees>36.8186715804040431976318359375</LatitudeDegrees>
              <LongitudeDegrees>-4.38707278110086917877197265625</LongitudeDegrees>
            </Position>
            <AltitudeMeters>795</AltitudeMeters>
            <DistanceMeters>NAN</DistanceMeters>
          </Trackpoint>
          <Trackpoint>
            <Time>2020-12-05T13:17:12.000Z</Time>
            <Position>
              <LatitudeDegrees>36.81867384351789951324462890625</LatitudeDegrees>
              <LongitudeDegrees>-4.38706825487315654754638671875</LongitudeDegrees>
            </Position>
            <AltitudeMeters>795</AltitudeMeters>
            <DistanceMeters>NAN</DistanceMeters>
          </Trackpoint>
          <Trackpoint>
            <Time>2020-12-05T13:17:13.000Z</Time>
            <Position>
              <LatitudeDegrees>36.81867166422307491302490234375</LatitudeDegrees>
              <LongitudeDegrees>-4.38706473447382450103759765625</LongitudeDegrees>
            </Position>
            <AltitudeMeters>795</AltitudeMeters>
            <DistanceMeters>NAN</DistanceMeters>
          </Trackpoint>
          <Trackpoint>
            <Time>2020-12-05T13:17:14.000Z</Time>
            <Position>
              <LatitudeDegrees>36.81867250241339206695556640625</LatitudeDegrees>
              <LongitudeDegrees>-4.3870654888451099395751953125</LongitudeDegrees>
            </Position>
            <AltitudeMeters>795</AltitudeMeters>
            <DistanceMeters>NAN</DistanceMeters>
          </Trackpoint>
          <Trackpoint>
            <Time>2020-12-05T13:17:15.000Z</Time>
            <Position>
              <LatitudeDegrees>36.81867652572691440582275390625</LatitudeDegrees>
              <LongitudeDegrees>-4.387075044214725494384765625</LongitudeDegrees>
            </Position>
            <AltitudeMeters>795</AltitudeMeters>
            <DistanceMeters>NAN</DistanceMeters>
          </Trackpoint>
          <Trackpoint>
            <Time>2020-12-05T13:17:16.000Z</Time>
            <Position>
              <LatitudeDegrees>36.81868473999202251434326171875</LatitudeDegrees>
              <LongitudeDegrees>-4.3870993517339229583740234375</LongitudeDegrees>
            </Position>
            <AltitudeMeters>795</AltitudeMeters>
            <DistanceMeters>NAN</DistanceMeters>
          </Trackpoint>
          <Trackpoint>
            <Time>2020-12-05T13:17:17.000Z</Time>
            <Position>
              <LatitudeDegrees>36.81869664229452610015869140625</LatitudeDegrees>
              <LongitudeDegrees>-4.38712039031088352203369140625</LongitudeDegrees>
            </Position>
            <AltitudeMeters>795</AltitudeMeters>
            <DistanceMeters>NAN</DistanceMeters>
          </Trackpoint>
          <Trackpoint>
            <Time>2020-12-05T13:17:18.000Z</Time>
            <Position>
              <LatitudeDegrees>36.81870250962674617767333984375</LatitudeDegrees>
              <LongitudeDegrees>-4.38713195733726024627685546875</LongitudeDegrees>
            </Position>
            <AltitudeMeters>795</AltitudeMeters>
            <DistanceMeters>NAN</DistanceMeters>
          </Trackpoint>
          <Trackpoint>
            <Time>2020-12-05T13:17:19.000Z</Time>
            <Position>
              <LatitudeDegrees>36.81870586238801479339599609375</LatitudeDegrees>
              <LongitudeDegrees>-4.3871372379362583160400390625</LongitudeDegrees>
            </Position>
            <AltitudeMeters>795</AltitudeMeters>
            <DistanceMeters>NAN</DistanceMeters>
          </Trackpoint>
          <Trackpoint>
            <Time>2020-12-05T13:17:20.000Z</Time>
            <Position>
              <LatitudeDegrees>36.8187046051025390625</LatitudeDegrees>
              <LongitudeDegrees>-4.38714587129652500152587890625</LongitudeDegrees>
            </Position>
            <AltitudeMeters>795</AltitudeMeters>
            <DistanceMeters>NAN</DistanceMeters>
          </Trackpoint>
          <Trackpoint>
            <Time>2020-12-05T13:17:21.000Z</Time>
            <Position>
              <LatitudeDegrees>36.81870535947382450103759765625</LatitudeDegrees>
              <LongitudeDegrees>-4.3871486373245716094970703125</LongitudeDegrees>
            </Position>
            <AltitudeMeters>795</AltitudeMeters>
            <DistanceMeters>NAN</DistanceMeters>
          </Trackpoint>
          <Trackpoint>
            <Time>2020-12-05T13:17:22.000Z</Time>
            <Position>
              <LatitudeDegrees>36.81870452128350734710693359375</LatitudeDegrees>
              <LongitudeDegrees>-4.3871516548097133636474609375</LongitudeDegrees>
            </Position>
            <AltitudeMeters>795</AltitudeMeters>
            <DistanceMeters>NAN</DistanceMeters>
          </Trackpoint>
          <Trackpoint>
            <Time>2020-12-05T13:17:23.000Z</Time>
            <Position>
              <LatitudeDegrees>36.81870385073125362396240234375</LatitudeDegrees>
              <LongitudeDegrees>-4.38715676777064800262451171875</LongitudeDegrees>
            </Position>
            <AltitudeMeters>795</AltitudeMeters>
            <DistanceMeters>NAN</DistanceMeters>
          </Trackpoint>
          <Trackpoint>
            <Time>2020-12-05T13:17:24.000Z</Time>
            <Position>
              <LatitudeDegrees>36.81870452128350734710693359375</LatitudeDegrees>
              <LongitudeDegrees>-4.387159533798694610595703125</LongitudeDegrees>
            </Position>
            <AltitudeMeters>795</AltitudeMeters>
            <DistanceMeters>NAN</DistanceMeters>
          </Trackpoint>
          <Trackpoint>
            <Time>2020-12-05T13:17:25.000Z</Time>
            <Position>
              <LatitudeDegrees>36.81870468892157077789306640625</LatitudeDegrees>
              <LongitudeDegrees>-4.3871630541980266571044921875</LongitudeDegrees>
            </Position>
            <AltitudeMeters>795</AltitudeMeters>
            <DistanceMeters>NAN</DistanceMeters>
          </Trackpoint>
          <Trackpoint>
            <Time>2020-12-05T13:17:26.000Z</Time>
            <Position>
              <LatitudeDegrees>36.8187054432928562164306640625</LatitudeDegrees>
              <LongitudeDegrees>-4.38716816715896129608154296875</LongitudeDegrees>
            </Position>
            <AltitudeMeters>795</AltitudeMeters>
            <DistanceMeters>NAN</DistanceMeters>
          </Trackpoint>
          <Trackpoint>
            <Time>2020-12-05T13:17:27.000Z</Time>
            <Position>
              <LatitudeDegrees>36.81870603002607822418212890625</LatitudeDegrees>
              <LongitudeDegrees>-4.3871726095676422119140625</LongitudeDegrees>
            </Position>
            <AltitudeMeters>795</AltitudeMeters>
            <DistanceMeters>NAN</DistanceMeters>
          </Trackpoint>
          <Trackpoint>
            <Time>2020-12-05T13:17:28.000Z</Time>
            <Position>
              <LatitudeDegrees>36.818704940378665924072265625</LatitudeDegrees>
              <LongitudeDegrees>-4.387179650366306304931640625</LongitudeDegrees>
            </Position>
            <AltitudeMeters>795</AltitudeMeters>
            <DistanceMeters>NAN</DistanceMeters>
          </Trackpoint>
          <Trackpoint>
            <Time>2020-12-05T13:17:29.000Z</Time>
            <Position>
              <LatitudeDegrees>36.818703599274158477783203125</LatitudeDegrees>
              <LongitudeDegrees>-4.38718928955495357513427734375</LongitudeDegrees>
            </Position>
            <AltitudeMeters>795</AltitudeMeters>
            <DistanceMeters>NAN</DistanceMeters>
          </Trackpoint>
          <Trackpoint>
            <Time>2020-12-05T13:17:30.000Z</Time>
            <Position>
              <LatitudeDegrees>36.8187005817890167236328125</LatitudeDegrees>
              <LongitudeDegrees>-4.38719532452523708343505859375</LongitudeDegrees>
            </Position>
            <AltitudeMeters>795</AltitudeMeters>
            <DistanceMeters>NAN</DistanceMeters>
          </Trackpoint>
          <Trackpoint>
            <Time>2020-12-05T13:17:31.000Z</Time>
            <Position>
              <LatitudeDegrees>36.81869714520871639251708984375</LatitudeDegrees>
              <LongitudeDegrees>-4.38719901256263256072998046875</LongitudeDegrees>
            </Position>
            <AltitudeMeters>795</AltitudeMeters>
            <DistanceMeters>NAN</DistanceMeters>
          </Trackpoint>
          <Trackpoint>
            <Time>2020-12-05T13:17:32.000Z</Time>
            <Position>
              <LatitudeDegrees>36.81869580410420894622802734375</LatitudeDegrees>
              <LongitudeDegrees>-4.3872039578855037689208984375</LongitudeDegrees>
            </Position>
            <AltitudeMeters>795</AltitudeMeters>
            <DistanceMeters>NAN</DistanceMeters>
          </Trackpoint>
          <Trackpoint>
            <Time>2020-12-05T13:17:33.000Z</Time>
            <Position>
              <LatitudeDegrees>36.8186957202851772308349609375</LatitudeDegrees>
              <LongitudeDegrees>-4.38720286823809146881103515625</LongitudeDegrees>
            </Position>
            <AltitudeMeters>795</AltitudeMeters>
            <DistanceMeters>NAN</DistanceMeters>
          </Trackpoint>
          <Trackpoint>
            <Time>2020-12-05T13:17:34.000Z</Time>
            <Position>
              <LatitudeDegrees>36.8186960555613040924072265625</LatitudeDegrees>
              <LongitudeDegrees>-4.38720144331455230712890625</LongitudeDegrees>
            </Position>
            <AltitudeMeters>795</AltitudeMeters>
            <DistanceMeters>NAN</DistanceMeters>
          </Trackpoint>
          <Trackpoint>
            <Time>2020-12-05T13:17:35.000Z</Time>
            <Position>
              <LatitudeDegrees>36.81869748048484325408935546875</LatitudeDegrees>
              <LongitudeDegrees>-4.3871989287436008453369140625</LongitudeDegrees>
            </Position>
            <AltitudeMeters>795</AltitudeMeters>
            <DistanceMeters>NAN</DistanceMeters>
          </Trackpoint>
          <Trackpoint>
            <Time>2020-12-05T13:17:36.000Z</Time>
            <Position>
              <LatitudeDegrees>36.818699575960636138916015625</LatitudeDegrees>
              <LongitudeDegrees>-4.38719809055328369140625</LongitudeDegrees>
            </Position>
            <AltitudeMeters>795</AltitudeMeters>
            <DistanceMeters>NAN</DistanceMeters>
          </Trackpoint>
          <Trackpoint>
            <Time>2020-12-05T13:17:37.000Z</Time>
            <Position>
              <LatitudeDegrees>36.81870217435061931610107421875</LatitudeDegrees>
              <LongitudeDegrees>-4.38719649799168109893798828125</LongitudeDegrees>
            </Position>
            <AltitudeMeters>795</AltitudeMeters>
            <DistanceMeters>NAN</DistanceMeters>
          </Trackpoint>
          <Trackpoint>
            <Time>2020-12-05T13:17:38.000Z</Time>
            <Position>
              <LatitudeDegrees>36.81870351545512676239013671875</LatitudeDegrees>
              <LongitudeDegrees>-4.3871985934674739837646484375</LongitudeDegrees>
            </Position>
            <AltitudeMeters>795</AltitudeMeters>
            <DistanceMeters>NAN</DistanceMeters>
          </Trackpoint>
          <Trackpoint>
            <Time>2020-12-05T13:17:39.000Z</Time>
            <Position>
              <LatitudeDegrees>36.8187047727406024932861328125</LatitudeDegrees>
              <LongitudeDegrees>-4.38719985075294971466064453125</LongitudeDegrees>
            </Position>
            <AltitudeMeters>795</AltitudeMeters>
            <DistanceMeters>NAN</DistanceMeters>
          </Trackpoint>
          <Trackpoint>
            <Time>2020-12-05T13:17:40.000Z</Time>
            <Position>
              <LatitudeDegrees>36.81870586238801479339599609375</LatitudeDegrees>
              <LongitudeDegrees>-4.38719934783875942230224609375</LongitudeDegrees>
            </Position>
            <AltitudeMeters>795</AltitudeMeters>
            <DistanceMeters>NAN</DistanceMeters>
          </Trackpoint>
          <Trackpoint>
            <Time>2020-12-05T13:17:41.000Z</Time>
            <Position>
              <LatitudeDegrees>36.818707622587680816650390625</LatitudeDegrees>
              <LongitudeDegrees>-4.38719633035361766815185546875</LongitudeDegrees>
            </Position>
            <AltitudeMeters>795</AltitudeMeters>
            <DistanceMeters>NAN</DistanceMeters>
          </Trackpoint>
          <Trackpoint>
            <Time>2020-12-05T13:17:42.000Z</Time>
            <Position>
              <LatitudeDegrees>36.818709634244441986083984375</LatitudeDegrees>
              <LongitudeDegrees>-4.38719029538333415985107421875</LongitudeDegrees>
            </Position>
            <AltitudeMeters>795</AltitudeMeters>
            <DistanceMeters>NAN</DistanceMeters>
          </Trackpoint>
          <Trackpoint>
            <Time>2020-12-05T13:17:43.000Z</Time>
            <Position>
              <LatitudeDegrees>36.81871122680604457855224609375</LatitudeDegrees>
              <LongitudeDegrees>-4.387184344232082366943359375</LongitudeDegrees>
            </Position>
            <AltitudeMeters>795</AltitudeMeters>
            <DistanceMeters>NAN</DistanceMeters>
          </Trackpoint>
          <Trackpoint>
            <Time>2020-12-05T13:17:44.000Z</Time>
            <Position>
              <LatitudeDegrees>36.8187131546437740325927734375</LatitudeDegrees>
              <LongitudeDegrees>-4.38718006946146488189697265625</LongitudeDegrees>
            </Position>
            <AltitudeMeters>795</AltitudeMeters>
            <DistanceMeters>NAN</DistanceMeters>
          </Trackpoint>
          <Trackpoint>
            <Time>2020-12-05T13:17:45.000Z</Time>
            <Position>
              <LatitudeDegrees>36.81871474720537662506103515625</LatitudeDegrees>
              <LongitudeDegrees>-4.38717328011989593505859375</LongitudeDegrees>
            </Position>
            <AltitudeMeters>795</AltitudeMeters>
            <DistanceMeters>NAN</DistanceMeters>
          </Trackpoint>
          <Trackpoint>
            <Time>2020-12-05T13:17:46.000Z</Time>
            <Position>
              <LatitudeDegrees>36.81871390901505947113037109375</LatitudeDegrees>
              <LongitudeDegrees>-4.38716699369251728057861328125</LongitudeDegrees>
            </Position>
            <AltitudeMeters>795</AltitudeMeters>
            <DistanceMeters>NAN</DistanceMeters>
          </Trackpoint>
          <Trackpoint>
            <Time>2020-12-05T13:17:47.000Z</Time>
            <Position>
              <LatitudeDegrees>36.81871105916798114776611328125</LatitudeDegrees>
              <LongitudeDegrees>-4.3871519900858402252197265625</LongitudeDegrees>
            </Position>
            <AltitudeMeters>795</AltitudeMeters>
            <DistanceMeters>NAN</DistanceMeters>
          </Trackpoint>
          <Trackpoint>
            <Time>2020-12-05T13:17:48.000Z</Time>
            <Position>
              <LatitudeDegrees>36.81870820932090282440185546875</LatitudeDegrees>
              <LongitudeDegrees>-4.387140087783336639404296875</LongitudeDegrees>
            </Position>
            <AltitudeMeters>795</AltitudeMeters>
            <DistanceMeters>NAN</DistanceMeters>
          </Trackpoint>
          <Trackpoint>
            <Time>2020-12-05T13:17:49.000Z</Time>
            <Position>
              <LatitudeDegrees>36.8187071196734905242919921875</LatitudeDegrees>
              <LongitudeDegrees>-4.3871405906975269317626953125</LongitudeDegrees>
            </Position>
            <AltitudeMeters>795</AltitudeMeters>
            <DistanceMeters>NAN</DistanceMeters>
          </Trackpoint>
          <Trackpoint>
            <Time>2020-12-05T13:17:50.000Z</Time>
            <Position>
              <LatitudeDegrees>36.81870636530220508575439453125</LatitudeDegrees>
              <LongitudeDegrees>-4.3871462903916835784912109375</LongitudeDegrees>
            </Position>
            <AltitudeMeters>795</AltitudeMeters>
            <DistanceMeters>NAN</DistanceMeters>
          </Trackpoint>
          <Trackpoint>
            <Time>2020-12-05T13:17:51.000Z</Time>
            <Position>
              <LatitudeDegrees>36.81870552711188793182373046875</LatitudeDegrees>
              <LongitudeDegrees>-4.38714704476296901702880859375</LongitudeDegrees>
            </Position>
            <AltitudeMeters>795</AltitudeMeters>
            <DistanceMeters>NAN</DistanceMeters>
          </Trackpoint>
          <Trackpoint>
            <Time>2020-12-05T13:17:52.000Z</Time>
            <Position>
              <LatitudeDegrees>36.81870527565479278564453125</LatitudeDegrees>
              <LongitudeDegrees>-4.38714905641973018646240234375</LongitudeDegrees>
            </Position>
            <AltitudeMeters>795</AltitudeMeters>
            <DistanceMeters>NAN</DistanceMeters>
          </Trackpoint>
          <Trackpoint>
            <Time>2020-12-05T13:17:53.000Z</Time>
            <Position>
              <LatitudeDegrees>36.81870401836931705474853515625</LatitudeDegrees>
              <LongitudeDegrees>-4.3871526606380939483642578125</LongitudeDegrees>
            </Position>
            <AltitudeMeters>795</AltitudeMeters>
            <DistanceMeters>NAN</DistanceMeters>
          </Trackpoint>
          <Trackpoint>
            <Time>2020-12-05T13:17:54.000Z</Time>
            <Position>
              <LatitudeDegrees>36.81870301254093647003173828125</LatitudeDegrees>
              <LongitudeDegrees>-4.38715475611388683319091796875</LongitudeDegrees>
            </Position>
            <AltitudeMeters>795</AltitudeMeters>
            <DistanceMeters>NAN</DistanceMeters>
          </Trackpoint>
          <Trackpoint>
            <Time>2020-12-05T13:17:55.000Z</Time>
            <Position>
              <LatitudeDegrees>36.81870167143642902374267578125</LatitudeDegrees>
              <LongitudeDegrees>-4.38715584576129913330078125</LongitudeDegrees>
            </Position>
            <AltitudeMeters>795</AltitudeMeters>
            <DistanceMeters>NAN</DistanceMeters>
          </Trackpoint>
          <Trackpoint>
            <Time>2020-12-05T13:17:56.000Z</Time>
            <Position>
              <LatitudeDegrees>36.81870301254093647003173828125</LatitudeDegrees>
              <LongitudeDegrees>-4.38715961761772632598876953125</LongitudeDegrees>
            </Position>
            <AltitudeMeters>795</AltitudeMeters>
            <DistanceMeters>NAN</DistanceMeters>
          </Trackpoint>
          <Trackpoint>
            <Time>2020-12-05T13:17:57.000Z</Time>
            <Position>
              <LatitudeDegrees>36.81870535947382450103759765625</LatitudeDegrees>
              <LongitudeDegrees>-4.3871620483696460723876953125</LongitudeDegrees>
            </Position>
            <AltitudeMeters>795</AltitudeMeters>
            <DistanceMeters>NAN</DistanceMeters>
          </Trackpoint>
          <Trackpoint>
            <Time>2020-12-05T13:17:58.000Z</Time>
            <Position>
              <LatitudeDegrees>36.81870703585445880889892578125</LatitudeDegrees>
              <LongitudeDegrees>-4.38716297037899494171142578125</LongitudeDegrees>
            </Position>
            <AltitudeMeters>795</AltitudeMeters>
            <DistanceMeters>NAN</DistanceMeters>
          </Trackpoint>
          <Trackpoint>
            <Time>2020-12-05T13:17:59.000Z</Time>
            <Position>
              <LatitudeDegrees>36.81870921514928340911865234375</LatitudeDegrees>
              <LongitudeDegrees>-4.387165568768978118896484375</LongitudeDegrees>
            </Position>
            <AltitudeMeters>795</AltitudeMeters>
            <DistanceMeters>NAN</DistanceMeters>
          </Trackpoint>
          <Trackpoint>
            <Time>2020-12-05T13:18:00.000Z</Time>
            <Position>
              <LatitudeDegrees>36.81870971806347370147705078125</LatitudeDegrees>
              <LongitudeDegrees>-4.3871654011309146881103515625</LongitudeDegrees>
            </Position>
            <AltitudeMeters>798</AltitudeMeters>
            <DistanceMeters>NAN</DistanceMeters>
          </Trackpoint>
          <Trackpoint>
            <Time>2020-12-05T13:18:01.000Z</Time>
            <Position>
              <LatitudeDegrees>36.81871055625379085540771484375</LatitudeDegrees>
              <LongitudeDegrees>-4.38716665841639041900634765625</LongitudeDegrees>
            </Position>
            <AltitudeMeters>798</AltitudeMeters>
            <DistanceMeters>NAN</DistanceMeters>
          </Trackpoint>
          <Trackpoint>
            <Time>2020-12-05T13:18:02.000Z</Time>
            <Position>
              <LatitudeDegrees>36.81871072389185428619384765625</LatitudeDegrees>
              <LongitudeDegrees>-4.3871664069592952728271484375</LongitudeDegrees>
            </Position>
            <AltitudeMeters>798</AltitudeMeters>
            <DistanceMeters>NAN</DistanceMeters>
          </Trackpoint>
          <Trackpoint>
            <Time>2020-12-05T13:18:03.000Z</Time>
            <Position>
              <LatitudeDegrees>36.8187111429870128631591796875</LatitudeDegrees>
              <LongitudeDegrees>-4.38716649077832698822021484375</LongitudeDegrees>
            </Position>
            <AltitudeMeters>798</AltitudeMeters>
            <DistanceMeters>NAN</DistanceMeters>
          </Trackpoint>
          <Trackpoint>
            <Time>2020-12-05T13:18:04.000Z</Time>
            <Position>
              <LatitudeDegrees>36.81871390901505947113037109375</LatitudeDegrees>
              <LongitudeDegrees>-4.38717252574861049652099609375</LongitudeDegrees>
            </Position>
            <AltitudeMeters>798</AltitudeMeters>
            <DistanceMeters>NAN</DistanceMeters>
          </Trackpoint>
          <Trackpoint>
            <Time>2020-12-05T13:18:05.000Z</Time>
            <Position>
              <LatitudeDegrees>36.81871558539569377899169921875</LatitudeDegrees>
              <LongitudeDegrees>-4.3871747888624668121337890625</LongitudeDegrees>
            </Position>
            <AltitudeMeters>798</AltitudeMeters>
            <DistanceMeters>NAN</DistanceMeters>
          </Trackpoint>
          <Trackpoint>
            <Time>2020-12-05T13:18:06.000Z</Time>
            <Position>
              <LatitudeDegrees>36.818714998662471771240234375</LatitudeDegrees>
              <LongitudeDegrees>-4.38717604614794254302978515625</LongitudeDegrees>
            </Position>
            <AltitudeMeters>798</AltitudeMeters>
            <DistanceMeters>NAN</DistanceMeters>
          </Trackpoint>
          <Trackpoint>
            <Time>2020-12-05T13:18:07.000Z</Time>
            <Position>
              <LatitudeDegrees>36.8187144957482814788818359375</LatitudeDegrees>
              <LongitudeDegrees>-4.3871781416237354278564453125</LongitudeDegrees>
            </Position>
            <AltitudeMeters>798</AltitudeMeters>
            <DistanceMeters>NAN</DistanceMeters>
          </Trackpoint>
          <Trackpoint>
            <Time>2020-12-05T13:18:08.000Z</Time>
            <Position>
              <LatitudeDegrees>36.8187161721289157867431640625</LatitudeDegrees>
              <LongitudeDegrees>-4.387181662023067474365234375</LongitudeDegrees>
            </Position>
            <AltitudeMeters>798</AltitudeMeters>
            <DistanceMeters>NAN</DistanceMeters>
          </Trackpoint>
          <Trackpoint>
            <Time>2020-12-05T13:18:09.000Z</Time>
            <Position>
              <LatitudeDegrees>36.8187166750431060791015625</LatitudeDegrees>
              <LongitudeDegrees>-4.38718509860336780548095703125</LongitudeDegrees>
            </Position>
            <AltitudeMeters>798</AltitudeMeters>
            <DistanceMeters>NAN</DistanceMeters>
          </Trackpoint>
          <Trackpoint>
            <Time>2020-12-05T13:18:10.000Z</Time>
            <Position>
              <LatitudeDegrees>36.81872078217566013336181640625</LatitudeDegrees>
              <LongitudeDegrees>-4.3871835060417652130126953125</LongitudeDegrees>
            </Position>
            <AltitudeMeters>798</AltitudeMeters>
            <DistanceMeters>NAN</DistanceMeters>
          </Trackpoint>
          <Trackpoint>
            <Time>2020-12-05T13:18:11.000Z</Time>
            <Position>
              <LatitudeDegrees>36.818722374737262725830078125</LatitudeDegrees>
              <LongitudeDegrees>-4.38718224875628948211669921875</LongitudeDegrees>
            </Position>
            <AltitudeMeters>798</AltitudeMeters>
            <DistanceMeters>NAN</DistanceMeters>
          </Trackpoint>
          <Trackpoint>
            <Time>2020-12-05T13:18:12.000Z</Time>
            <Position>
              <LatitudeDegrees>36.818720363080501556396484375</LatitudeDegrees>
              <LongitudeDegrees>-4.38718090765178203582763671875</LongitudeDegrees>
            </Position>
            <AltitudeMeters>798</AltitudeMeters>
            <DistanceMeters>NAN</DistanceMeters>
          </Trackpoint>
          <Trackpoint>
            <Time>2020-12-05T13:18:13.000Z</Time>
            <Position>
              <LatitudeDegrees>36.81871776469051837921142578125</LatitudeDegrees>
              <LongitudeDegrees>-4.387178979814052581787109375</LongitudeDegrees>
            </Position>
            <AltitudeMeters>798</AltitudeMeters>
            <DistanceMeters>NAN</DistanceMeters>
          </Trackpoint>
          <Trackpoint>
            <Time>2020-12-05T13:18:14.000Z</Time>
            <Position>
              <LatitudeDegrees>36.818712987005710601806640625</LatitudeDegrees>
              <LongitudeDegrees>-4.387170933187007904052734375</LongitudeDegrees>
            </Position>
            <AltitudeMeters>798</AltitudeMeters>
            <DistanceMeters>NAN</DistanceMeters>
          </Trackpoint>
          <Trackpoint>
            <Time>2020-12-05T13:18:15.000Z</Time>
            <Position>
              <LatitudeDegrees>36.81870854459702968597412109375</LatitudeDegrees>
              <LongitudeDegrees>-4.38716255128383636474609375</LongitudeDegrees>
            </Position>
            <AltitudeMeters>798</AltitudeMeters>
            <DistanceMeters>NAN</DistanceMeters>
          </Trackpoint>
          <Trackpoint>
            <Time>2020-12-05T13:18:16.000Z</Time>
            <Position>
              <LatitudeDegrees>36.81870485655963420867919921875</LatitudeDegrees>
              <LongitudeDegrees>-4.38715760596096515655517578125</LongitudeDegrees>
            </Position>
            <AltitudeMeters>798</AltitudeMeters>
            <DistanceMeters>NAN</DistanceMeters>
          </Trackpoint>
          <Trackpoint>
            <Time>2020-12-05T13:18:17.000Z</Time>
            <Position>
              <LatitudeDegrees>36.818703599274158477783203125</LatitudeDegrees>
              <LongitudeDegrees>-4.38715626485645771026611328125</LongitudeDegrees>
            </Position>
            <AltitudeMeters>798</AltitudeMeters>
            <DistanceMeters>NAN</DistanceMeters>
          </Trackpoint>
          <Trackpoint>
            <Time>2020-12-05T13:18:18.000Z</Time>
            <Position>
              <LatitudeDegrees>36.8187014199793338775634765625</LatitudeDegrees>
              <LongitudeDegrees>-4.3871560133993625640869140625</LongitudeDegrees>
            </Position>
            <AltitudeMeters>798</AltitudeMeters>
            <DistanceMeters>NAN</DistanceMeters>
          </Trackpoint>
          <Trackpoint>
            <Time>2020-12-05T13:18:19.000Z</Time>
            <Position>
              <LatitudeDegrees>36.81870016269385814666748046875</LatitudeDegrees>
              <LongitudeDegrees>-4.38715525902807712554931640625</LongitudeDegrees>
            </Position>
            <AltitudeMeters>798</AltitudeMeters>
            <DistanceMeters>NAN</DistanceMeters>
          </Trackpoint>
          <Trackpoint>
            <Time>2020-12-05T13:18:20.000Z</Time>
            <Position>
              <LatitudeDegrees>36.8186984024941921234130859375</LatitudeDegrees>
              <LongitudeDegrees>-4.38715559430420398712158203125</LongitudeDegrees>
            </Position>
            <AltitudeMeters>798</AltitudeMeters>
            <DistanceMeters>NAN</DistanceMeters>
          </Trackpoint>
          <Trackpoint>
            <Time>2020-12-05T13:18:21.000Z</Time>
            <Position>
              <LatitudeDegrees>36.8186973966658115386962890625</LatitudeDegrees>
              <LongitudeDegrees>-4.38715324737131595611572265625</LongitudeDegrees>
            </Position>
            <AltitudeMeters>798</AltitudeMeters>
            <DistanceMeters>NAN</DistanceMeters>
          </Trackpoint>
          <Trackpoint>
            <Time>2020-12-05T13:18:22.000Z</Time>
            <Position>
              <LatitudeDegrees>36.81869764812290668487548828125</LatitudeDegrees>
              <LongitudeDegrees>-4.387153498828411102294921875</LongitudeDegrees>
            </Position>
            <AltitudeMeters>798</AltitudeMeters>
            <DistanceMeters>NAN</DistanceMeters>
          </Trackpoint>
          <Trackpoint>
            <Time>2020-12-05T13:18:23.000Z</Time>
            <Position>
              <LatitudeDegrees>36.818698234856128692626953125</LatitudeDegrees>
              <LongitudeDegrees>-4.38715458847582340240478515625</LongitudeDegrees>
            </Position>
            <AltitudeMeters>798</AltitudeMeters>
            <DistanceMeters>NAN</DistanceMeters>
          </Trackpoint>
          <Trackpoint>
            <Time>2020-12-05T13:18:24.000Z</Time>
            <Position>
              <LatitudeDegrees>36.81870125234127044677734375</LatitudeDegrees>
              <LongitudeDegrees>-4.38715492375195026397705078125</LongitudeDegrees>
            </Position>
            <AltitudeMeters>798</AltitudeMeters>
            <DistanceMeters>NAN</DistanceMeters>
          </Trackpoint>
          <Trackpoint>
            <Time>2020-12-05T13:18:25.000Z</Time>
            <Position>
              <LatitudeDegrees>36.8187032639980316162109375</LatitudeDegrees>
              <LongitudeDegrees>-4.38715794123709201812744140625</LongitudeDegrees>
            </Position>
            <AltitudeMeters>798</AltitudeMeters>
            <DistanceMeters>NAN</DistanceMeters>
          </Trackpoint>
          <Trackpoint>
            <Time>2020-12-05T13:18:26.000Z</Time>
            <Position>
              <LatitudeDegrees>36.81870653294026851654052734375</LatitudeDegrees>
              <LongitudeDegrees>-4.3871610425412654876708984375</LongitudeDegrees>
            </Position>
            <AltitudeMeters>798</AltitudeMeters>
            <DistanceMeters>NAN</DistanceMeters>
          </Trackpoint>
          <Trackpoint>
            <Time>2020-12-05T13:18:27.000Z</Time>
            <Position>
              <LatitudeDegrees>36.8187098018825054168701171875</LatitudeDegrees>
              <LongitudeDegrees>-4.3871640600264072418212890625</LongitudeDegrees>
            </Position>
            <AltitudeMeters>798</AltitudeMeters>
            <DistanceMeters>NAN</DistanceMeters>
          </Trackpoint>
          <Trackpoint>
            <Time>2020-12-05T13:18:28.000Z</Time>
            <Position>
              <LatitudeDegrees>36.8187124840915203094482421875</LatitudeDegrees>
              <LongitudeDegrees>-4.3871637247502803802490234375</LongitudeDegrees>
            </Position>
            <AltitudeMeters>798</AltitudeMeters>
            <DistanceMeters>NAN</DistanceMeters>
          </Trackpoint>
          <Trackpoint>
            <Time>2020-12-05T13:18:29.000Z</Time>
            <Position>
              <LatitudeDegrees>36.8187155015766620635986328125</LatitudeDegrees>
              <LongitudeDegrees>-4.38716380856931209564208984375</LongitudeDegrees>
            </Position>
            <AltitudeMeters>798</AltitudeMeters>
            <DistanceMeters>NAN</DistanceMeters>
          </Trackpoint>
          <Trackpoint>
            <Time>2020-12-05T13:18:30.000Z</Time>
            <Position>
              <LatitudeDegrees>36.81872027926146984100341796875</LatitudeDegrees>
              <LongitudeDegrees>-4.38716263510286808013916015625</LongitudeDegrees>
            </Position>
            <AltitudeMeters>798</AltitudeMeters>
            <DistanceMeters>NAN</DistanceMeters>
          </Trackpoint>
          <Trackpoint>
            <Time>2020-12-05T13:18:31.000Z</Time>
            <Position>
              <LatitudeDegrees>36.81872480548918247222900390625</LatitudeDegrees>
              <LongitudeDegrees>-4.387160204350948333740234375</LongitudeDegrees>
            </Position>
            <AltitudeMeters>798</AltitudeMeters>
            <DistanceMeters>NAN</DistanceMeters>
          </Trackpoint>
          <Trackpoint>
            <Time>2020-12-05T13:18:32.000Z</Time>
            <Position>
              <LatitudeDegrees>36.8187292478978633880615234375</LatitudeDegrees>
              <LongitudeDegrees>-4.3871640600264072418212890625</LongitudeDegrees>
            </Position>
            <AltitudeMeters>798</AltitudeMeters>
            <DistanceMeters>NAN</DistanceMeters>
          </Trackpoint>
          <Trackpoint>
            <Time>2020-12-05T13:18:33.000Z</Time>
            <Position>
              <LatitudeDegrees>36.818734109401702880859375</LatitudeDegrees>
              <LongitudeDegrees>-4.38716766424477100372314453125</LongitudeDegrees>
            </Position>
            <AltitudeMeters>798</AltitudeMeters>
            <DistanceMeters>NAN</DistanceMeters>
          </Trackpoint>
          <Trackpoint>
            <Time>2020-12-05T13:18:34.000Z</Time>
            <Position>
              <LatitudeDegrees>36.81873612105846405029296875</LatitudeDegrees>
              <LongitudeDegrees>-4.387167580425739288330078125</LongitudeDegrees>
            </Position>
            <AltitudeMeters>798</AltitudeMeters>
            <DistanceMeters>NAN</DistanceMeters>
          </Trackpoint>
          <Trackpoint>
            <Time>2020-12-05T13:18:35.000Z</Time>
            <Position>
              <LatitudeDegrees>36.8187356181442737579345703125</LatitudeDegrees>
              <LongitudeDegrees>-4.387167580425739288330078125</LongitudeDegrees>
            </Position>
            <AltitudeMeters>798</AltitudeMeters>
            <DistanceMeters>NAN</DistanceMeters>
          </Trackpoint>
          <Trackpoint>
            <Time>2020-12-05T13:18:36.000Z</Time>
            <Position>
              <LatitudeDegrees>36.8187346123158931732177734375</LatitudeDegrees>
              <LongitudeDegrees>-4.38716397620737552642822265625</LongitudeDegrees>
            </Position>
            <AltitudeMeters>798</AltitudeMeters>
            <DistanceMeters>NAN</DistanceMeters>
          </Trackpoint>
          <Trackpoint>
            <Time>2020-12-05T13:18:37.000Z</Time>
            <Position>
              <LatitudeDegrees>36.8187369592487812042236328125</LatitudeDegrees>
              <LongitudeDegrees>-4.387160204350948333740234375</LongitudeDegrees>
            </Position>
            <AltitudeMeters>798</AltitudeMeters>
            <DistanceMeters>NAN</DistanceMeters>
          </Trackpoint>
          <Trackpoint>
            <Time>2020-12-05T13:18:38.000Z</Time>
            <Position>
              <LatitudeDegrees>36.81873754598200321197509765625</LatitudeDegrees>
              <LongitudeDegrees>-4.38715475611388683319091796875</LongitudeDegrees>
            </Position>
            <AltitudeMeters>798</AltitudeMeters>
            <DistanceMeters>NAN</DistanceMeters>
          </Trackpoint>
          <Trackpoint>
            <Time>2020-12-05T13:18:39.000Z</Time>
            <Position>
              <LatitudeDegrees>36.81873788125813007354736328125</LatitudeDegrees>
              <LongitudeDegrees>-4.3871503137052059173583984375</LongitudeDegrees>
            </Position>
            <AltitudeMeters>798</AltitudeMeters>
            <DistanceMeters>NAN</DistanceMeters>
          </Trackpoint>
          <Trackpoint>
            <Time>2020-12-05T13:18:40.000Z</Time>
            <Position>
              <LatitudeDegrees>36.8187376298010349273681640625</LatitudeDegrees>
              <LongitudeDegrees>-4.38714511692523956298828125</LongitudeDegrees>
            </Position>
            <AltitudeMeters>798</AltitudeMeters>
            <DistanceMeters>NAN</DistanceMeters>
          </Trackpoint>
          <Trackpoint>
            <Time>2020-12-05T13:18:41.000Z</Time>
            <Position>
              <LatitudeDegrees>36.8187372945249080657958984375</LatitudeDegrees>
              <LongitudeDegrees>-4.38713648356497287750244140625</LongitudeDegrees>
            </Position>
            <AltitudeMeters>798</AltitudeMeters>
            <DistanceMeters>NAN</DistanceMeters>
          </Trackpoint>
          <Trackpoint>
            <Time>2020-12-05T13:18:42.000Z</Time>
            <Position>
              <LatitudeDegrees>36.81873654015362262725830078125</LatitudeDegrees>
              <LongitudeDegrees>-4.38712776638567447662353515625</LongitudeDegrees>
            </Position>
            <AltitudeMeters>798</AltitudeMeters>
            <DistanceMeters>NAN</DistanceMeters>
          </Trackpoint>
          <Trackpoint>
            <Time>2020-12-05T13:18:43.000Z</Time>
            <Position>
              <LatitudeDegrees>36.8187376298010349273681640625</LatitudeDegrees>
              <LongitudeDegrees>-4.38711837865412235260009765625</LongitudeDegrees>
            </Position>
            <AltitudeMeters>798</AltitudeMeters>
            <DistanceMeters>NAN</DistanceMeters>
          </Trackpoint>
          <Trackpoint>
            <Time>2020-12-05T13:18:44.000Z</Time>
            <Position>
              <LatitudeDegrees>36.81873788125813007354736328125</LatitudeDegrees>
              <LongitudeDegrees>-4.387112595140933990478515625</LongitudeDegrees>
            </Position>
            <AltitudeMeters>798</AltitudeMeters>
            <DistanceMeters>NAN</DistanceMeters>
          </Trackpoint>
          <Trackpoint>
            <Time>2020-12-05T13:18:45.000Z</Time>
            <Position>
              <LatitudeDegrees>36.818736456334590911865234375</LatitudeDegrees>
              <LongitudeDegrees>-4.38710798509418964385986328125</LongitudeDegrees>
            </Position>
            <AltitudeMeters>798</AltitudeMeters>
            <DistanceMeters>NAN</DistanceMeters>
          </Trackpoint>
          <Trackpoint>
            <Time>2020-12-05T13:18:46.000Z</Time>
            <Position>
              <LatitudeDegrees>36.81873477995395660400390625</LatitudeDegrees>
              <LongitudeDegrees>-4.387103207409381866455078125</LongitudeDegrees>
            </Position>
            <AltitudeMeters>798</AltitudeMeters>
            <DistanceMeters>NAN</DistanceMeters>
          </Trackpoint>
          <Trackpoint>
            <Time>2020-12-05T13:18:47.000Z</Time>
            <Position>
              <LatitudeDegrees>36.818733103573322296142578125</LatitudeDegrees>
              <LongitudeDegrees>-4.38709608279168605804443359375</LongitudeDegrees>
            </Position>
            <AltitudeMeters>798</AltitudeMeters>
            <DistanceMeters>NAN</DistanceMeters>
          </Trackpoint>
          <Trackpoint>
            <Time>2020-12-05T13:18:48.000Z</Time>
            <Position>
              <LatitudeDegrees>36.81873855181038379669189453125</LatitudeDegrees>
              <LongitudeDegrees>-4.3870892934501171112060546875</LongitudeDegrees>
            </Position>
            <AltitudeMeters>798</AltitudeMeters>
            <DistanceMeters>NAN</DistanceMeters>
          </Trackpoint>
          <Trackpoint>
            <Time>2020-12-05T13:18:49.000Z</Time>
            <Position>
              <LatitudeDegrees>36.81873721070587635040283203125</LatitudeDegrees>
              <LongitudeDegrees>-4.38709457404911518096923828125</LongitudeDegrees>
            </Position>
            <AltitudeMeters>798</AltitudeMeters>
            <DistanceMeters>NAN</DistanceMeters>
          </Trackpoint>
          <Trackpoint>
            <Time>2020-12-05T13:18:50.000Z</Time>
            <Position>
              <LatitudeDegrees>36.81873285211622714996337890625</LatitudeDegrees>
              <LongitudeDegrees>-4.387095831334590911865234375</LongitudeDegrees>
            </Position>
            <AltitudeMeters>798</AltitudeMeters>
            <DistanceMeters>NAN</DistanceMeters>
          </Trackpoint>
          <Trackpoint>
            <Time>2020-12-05T13:18:51.000Z</Time>
            <Position>
              <LatitudeDegrees>36.81872807443141937255859375</LatitudeDegrees>
              <LongitudeDegrees>-4.38709013164043426513671875</LongitudeDegrees>
            </Position>
            <AltitudeMeters>798</AltitudeMeters>
            <DistanceMeters>NAN</DistanceMeters>
          </Trackpoint>
          <Trackpoint>
            <Time>2020-12-05T13:18:52.000Z</Time>
            <Position>
              <LatitudeDegrees>36.81872748769819736480712890625</LatitudeDegrees>
              <LongitudeDegrees>-4.38709080219268798828125</LongitudeDegrees>
            </Position>
            <AltitudeMeters>798</AltitudeMeters>
            <DistanceMeters>NAN</DistanceMeters>
          </Trackpoint>
          <Trackpoint>
            <Time>2020-12-05T13:18:53.000Z</Time>
            <Position>
              <LatitudeDegrees>36.81872530840337276458740234375</LatitudeDegrees>
              <LongitudeDegrees>-4.38709273003041744232177734375</LongitudeDegrees>
            </Position>
            <AltitudeMeters>798</AltitudeMeters>
            <DistanceMeters>NAN</DistanceMeters>
          </Trackpoint>
          <Trackpoint>
            <Time>2020-12-05T13:18:54.000Z</Time>
            <Position>
              <LatitudeDegrees>36.81872178800404071807861328125</LatitudeDegrees>
              <LongitudeDegrees>-4.38709373585879802703857421875</LongitudeDegrees>
            </Position>
            <AltitudeMeters>798</AltitudeMeters>
            <DistanceMeters>NAN</DistanceMeters>
          </Trackpoint>
          <Trackpoint>
            <Time>2020-12-05T13:18:55.000Z</Time>
            <Position>
              <LatitudeDegrees>36.81871809996664524078369140625</LatitudeDegrees>
              <LongitudeDegrees>-4.38709071837365627288818359375</LongitudeDegrees>
            </Position>
            <AltitudeMeters>798</AltitudeMeters>
            <DistanceMeters>NAN</DistanceMeters>
          </Trackpoint>
          <Trackpoint>
            <Time>2020-12-05T13:18:56.000Z</Time>
            <Position>
              <LatitudeDegrees>36.81871273554861545562744140625</LatitudeDegrees>
              <LongitudeDegrees>-4.38709256239235401153564453125</LongitudeDegrees>
            </Position>
            <AltitudeMeters>798</AltitudeMeters>
            <DistanceMeters>NAN</DistanceMeters>
          </Trackpoint>
          <Trackpoint>
            <Time>2020-12-05T13:18:57.000Z</Time>
            <Position>
              <LatitudeDegrees>36.81870603002607822418212890625</LatitudeDegrees>
              <LongitudeDegrees>-4.3871010281145572662353515625</LongitudeDegrees>
            </Position>
            <AltitudeMeters>798</AltitudeMeters>
            <DistanceMeters>NAN</DistanceMeters>
          </Trackpoint>
          <Trackpoint>
            <Time>2020-12-05T13:18:58.000Z</Time>
            <Position>
              <LatitudeDegrees>36.818700917065143585205078125</LatitudeDegrees>
              <LongitudeDegrees>-4.3871097452938556671142578125</LongitudeDegrees>
            </Position>
            <AltitudeMeters>798</AltitudeMeters>
            <DistanceMeters>NAN</DistanceMeters>
          </Trackpoint>
          <Trackpoint>
            <Time>2020-12-05T13:18:59.000Z</Time>
            <Position>
              <LatitudeDegrees>36.81869680993258953094482421875</LatitudeDegrees>
              <LongitudeDegrees>-4.38711469061672687530517578125</LongitudeDegrees>
            </Position>
            <AltitudeMeters>798</AltitudeMeters>
            <DistanceMeters>NAN</DistanceMeters>
          </Trackpoint>
          <Trackpoint>
            <Time>2020-12-05T13:19:00.000Z</Time>
            <Position>
              <LatitudeDegrees>36.81869362480938434600830078125</LatitudeDegrees>
              <LongitudeDegrees>-4.3871141038835048675537109375</LongitudeDegrees>
            </Position>
            <AltitudeMeters>801.79998779296875</AltitudeMeters>
            <DistanceMeters>NAN</DistanceMeters>
          </Trackpoint>
          <Trackpoint>
            <Time>2020-12-05T13:19:01.000Z</Time>
            <Position>
              <LatitudeDegrees>36.81869127787649631500244140625</LatitudeDegrees>
              <LongitudeDegrees>-4.3871144391596317291259765625</LongitudeDegrees>
            </Position>
            <AltitudeMeters>801.79998779296875</AltitudeMeters>
            <DistanceMeters>NAN</DistanceMeters>
          </Trackpoint>
          <Trackpoint>
            <Time>2020-12-05T13:19:02.000Z</Time>
            <Position>
              <LatitudeDegrees>36.81868725456297397613525390625</LatitudeDegrees>
              <LongitudeDegrees>-4.3871171213686466217041015625</LongitudeDegrees>
            </Position>
            <AltitudeMeters>801.79998779296875</AltitudeMeters>
            <DistanceMeters>NAN</DistanceMeters>
          </Trackpoint>
          <Trackpoint>
            <Time>2020-12-05T13:19:03.000Z</Time>
            <Position>
              <LatitudeDegrees>36.818685494363307952880859375</LatitudeDegrees>
              <LongitudeDegrees>-4.38712273724377155303955078125</LongitudeDegrees>
            </Position>
            <AltitudeMeters>801.79998779296875</AltitudeMeters>
            <DistanceMeters>NAN</DistanceMeters>
          </Trackpoint>
          <Trackpoint>
            <Time>2020-12-05T13:19:04.000Z</Time>
            <Position>
              <LatitudeDegrees>36.81868222542107105255126953125</LatitudeDegrees>
              <LongitudeDegrees>-4.3871308676898479461669921875</LongitudeDegrees>
            </Position>
            <AltitudeMeters>801.79998779296875</AltitudeMeters>
            <DistanceMeters>NAN</DistanceMeters>
          </Trackpoint>
          <Trackpoint>
            <Time>2020-12-05T13:19:05.000Z</Time>
            <Position>
              <LatitudeDegrees>36.8186802975833415985107421875</LatitudeDegrees>
              <LongitudeDegrees>-4.38713581301271915435791015625</LongitudeDegrees>
            </Position>
            <AltitudeMeters>801.79998779296875</AltitudeMeters>
            <DistanceMeters>NAN</DistanceMeters>
          </Trackpoint>
          <Trackpoint>
            <Time>2020-12-05T13:19:06.000Z</Time>
            <Position>
              <LatitudeDegrees>36.81867954321205615997314453125</LatitudeDegrees>
              <LongitudeDegrees>-4.387138076126575469970703125</LongitudeDegrees>
            </Position>
            <AltitudeMeters>801.79998779296875</AltitudeMeters>
            <DistanceMeters>NAN</DistanceMeters>
          </Trackpoint>
          <Trackpoint>
            <Time>2020-12-05T13:19:07.000Z</Time>
            <Position>
              <LatitudeDegrees>36.81868021376430988311767578125</LatitudeDegrees>
              <LongitudeDegrees>-4.38713681884109973907470703125</LongitudeDegrees>
            </Position>
            <AltitudeMeters>801.79998779296875</AltitudeMeters>
            <DistanceMeters>NAN</DistanceMeters>
          </Trackpoint>
          <Trackpoint>
            <Time>2020-12-05T13:19:08.000Z</Time>
            <Position>
              <LatitudeDegrees>36.81868239305913448333740234375</LatitudeDegrees>
              <LongitudeDegrees>-4.38713799230754375457763671875</LongitudeDegrees>
            </Position>
            <AltitudeMeters>801.79998779296875</AltitudeMeters>
            <DistanceMeters>NAN</DistanceMeters>
          </Trackpoint>
          <Trackpoint>
            <Time>2020-12-05T13:19:09.000Z</Time>
            <Position>
              <LatitudeDegrees>36.81868490763008594512939453125</LatitudeDegrees>
              <LongitudeDegrees>-4.3871332146227359771728515625</LongitudeDegrees>
            </Position>
            <AltitudeMeters>801.79998779296875</AltitudeMeters>
            <DistanceMeters>NAN</DistanceMeters>
          </Trackpoint>
          <Trackpoint>
            <Time>2020-12-05T13:19:10.000Z</Time>
            <Position>
              <LatitudeDegrees>36.81868608109652996063232421875</LatitudeDegrees>
              <LongitudeDegrees>-4.38712575472891330718994140625</LongitudeDegrees>
            </Position>
            <AltitudeMeters>801.79998779296875</AltitudeMeters>
            <DistanceMeters>NAN</DistanceMeters>
          </Trackpoint>
          <Trackpoint>
            <Time>2020-12-05T13:19:11.000Z</Time>
            <Position>
              <LatitudeDegrees>36.818686835467815399169921875</LatitudeDegrees>
              <LongitudeDegrees>-4.387119971215724945068359375</LongitudeDegrees>
            </Position>
            <AltitudeMeters>801.79998779296875</AltitudeMeters>
            <DistanceMeters>NAN</DistanceMeters>
          </Trackpoint>
          <Trackpoint>
            <Time>2020-12-05T13:19:12.000Z</Time>
            <Position>
              <LatitudeDegrees>36.81869111023843288421630859375</LatitudeDegrees>
              <LongitudeDegrees>-4.38711804337799549102783203125</LongitudeDegrees>
            </Position>
            <AltitudeMeters>801.79998779296875</AltitudeMeters>
            <DistanceMeters>NAN</DistanceMeters>
          </Trackpoint>
          <Trackpoint>
            <Time>2020-12-05T13:19:13.000Z</Time>
            <Position>
              <LatitudeDegrees>36.81869228370487689971923828125</LatitudeDegrees>
              <LongitudeDegrees>-4.38711971975862979888916015625</LongitudeDegrees>
            </Position>
            <AltitudeMeters>801.79998779296875</AltitudeMeters>
            <DistanceMeters>NAN</DistanceMeters>
          </Trackpoint>
          <Trackpoint>
            <Time>2020-12-05T13:19:14.000Z</Time>
            <Position>
              <LatitudeDegrees>36.81869245134294033050537109375</LatitudeDegrees>
              <LongitudeDegrees>-4.3871174566447734832763671875</LongitudeDegrees>
            </Position>
            <AltitudeMeters>801.79998779296875</AltitudeMeters>
            <DistanceMeters>NAN</DistanceMeters>
          </Trackpoint>
          <Trackpoint>
            <Time>2020-12-05T13:19:15.000Z</Time>
            <Position>
              <LatitudeDegrees>36.81869245134294033050537109375</LatitudeDegrees>
              <LongitudeDegrees>-4.3871147744357585906982421875</LongitudeDegrees>
            </Position>
            <AltitudeMeters>801.79998779296875</AltitudeMeters>
            <DistanceMeters>NAN</DistanceMeters>
          </Trackpoint>
          <Trackpoint>
            <Time>2020-12-05T13:19:16.000Z</Time>
            <Position>
              <LatitudeDegrees>36.818692870438098907470703125</LatitudeDegrees>
              <LongitudeDegrees>-4.38711435534060001373291015625</LongitudeDegrees>
            </Position>
            <AltitudeMeters>801.79998779296875</AltitudeMeters>
            <DistanceMeters>NAN</DistanceMeters>
          </Trackpoint>
          <Trackpoint>
            <Time>2020-12-05T13:19:17.000Z</Time>
            <Position>
              <LatitudeDegrees>36.8186950497329235076904296875</LatitudeDegrees>
              <LongitudeDegrees>-4.3871174566447734832763671875</LongitudeDegrees>
            </Position>
            <AltitudeMeters>801.79998779296875</AltitudeMeters>
            <DistanceMeters>NAN</DistanceMeters>
          </Trackpoint>
          <Trackpoint>
            <Time>2020-12-05T13:19:18.000Z</Time>
            <Position>
              <LatitudeDegrees>36.8186947144567966461181640625</LatitudeDegrees>
              <LongitudeDegrees>-4.3871198035776615142822265625</LongitudeDegrees>
            </Position>
            <AltitudeMeters>801.79998779296875</AltitudeMeters>
            <DistanceMeters>NAN</DistanceMeters>
          </Trackpoint>
          <Trackpoint>
            <Time>2020-12-05T13:19:19.000Z</Time>
            <Position>
              <LatitudeDegrees>36.81869060732424259185791015625</LatitudeDegrees>
              <LongitudeDegrees>-4.38712106086313724517822265625</LongitudeDegrees>
            </Position>
            <AltitudeMeters>801.79998779296875</AltitudeMeters>
            <DistanceMeters>NAN</DistanceMeters>
          </Trackpoint>
          <Trackpoint>
            <Time>2020-12-05T13:19:20.000Z</Time>
            <Position>
              <LatitudeDegrees>36.818686164915561676025390625</LatitudeDegrees>
              <LongitudeDegrees>-4.38711963593959808349609375</LongitudeDegrees>
            </Position>
            <AltitudeMeters>801.79998779296875</AltitudeMeters>
            <DistanceMeters>NAN</DistanceMeters>
          </Trackpoint>
          <Trackpoint>
            <Time>2020-12-05T13:19:21.000Z</Time>
            <Position>
              <LatitudeDegrees>36.818680465221405029296875</LatitudeDegrees>
              <LongitudeDegrees>-4.387119971215724945068359375</LongitudeDegrees>
            </Position>
            <AltitudeMeters>801.79998779296875</AltitudeMeters>
            <DistanceMeters>NAN</DistanceMeters>
          </Trackpoint>
          <Trackpoint>
            <Time>2020-12-05T13:19:22.000Z</Time>
            <Position>
              <LatitudeDegrees>36.8186732567846775054931640625</LatitudeDegrees>
              <LongitudeDegrees>-4.387117959558963775634765625</LongitudeDegrees>
            </Position>
            <AltitudeMeters>801.79998779296875</AltitudeMeters>
            <DistanceMeters>NAN</DistanceMeters>
          </Trackpoint>
          <Trackpoint>
            <Time>2020-12-05T13:19:23.000Z</Time>
            <Position>
              <LatitudeDegrees>36.81866311468183994293212890625</LatitudeDegrees>
              <LongitudeDegrees>-4.38711569644510746002197265625</LongitudeDegrees>
            </Position>
            <AltitudeMeters>801.79998779296875</AltitudeMeters>
            <DistanceMeters>NAN</DistanceMeters>
          </Trackpoint>
          <Trackpoint>
            <Time>2020-12-05T13:19:24.000Z</Time>
            <Position>
              <LatitudeDegrees>36.8186534754931926727294921875</LatitudeDegrees>
              <LongitudeDegrees>-4.387114942073822021484375</LongitudeDegrees>
            </Position>
            <AltitudeMeters>801.79998779296875</AltitudeMeters>
            <DistanceMeters>NAN</DistanceMeters>
          </Trackpoint>
          <Trackpoint>
            <Time>2020-12-05T13:19:25.000Z</Time>
            <Position>
              <LatitudeDegrees>36.81864819489419460296630859375</LatitudeDegrees>
              <LongitudeDegrees>-4.3871134333312511444091796875</LongitudeDegrees>
            </Position>
            <AltitudeMeters>801.79998779296875</AltitudeMeters>
            <DistanceMeters>NAN</DistanceMeters>
          </Trackpoint>
          <Trackpoint>
            <Time>2020-12-05T13:19:26.000Z</Time>
            <Position>
              <LatitudeDegrees>36.818647272884845733642578125</LatitudeDegrees>
              <LongitudeDegrees>-4.3871097452938556671142578125</LongitudeDegrees>
            </Position>
            <AltitudeMeters>801.79998779296875</AltitudeMeters>
            <DistanceMeters>NAN</DistanceMeters>
          </Trackpoint>
          <Trackpoint>
            <Time>2020-12-05T13:19:27.000Z</Time>
            <Position>
              <LatitudeDegrees>36.81864752434194087982177734375</LatitudeDegrees>
              <LongitudeDegrees>-4.3871094100177288055419921875</LongitudeDegrees>
            </Position>
            <AltitudeMeters>801.79998779296875</AltitudeMeters>
            <DistanceMeters>NAN</DistanceMeters>
          </Trackpoint>
          <Trackpoint>
            <Time>2020-12-05T13:19:28.000Z</Time>
            <Position>
              <LatitudeDegrees>36.81865272112190723419189453125</LatitudeDegrees>
              <LongitudeDegrees>-4.38710949383676052093505859375</LongitudeDegrees>
            </Position>
            <AltitudeMeters>801.79998779296875</AltitudeMeters>
            <DistanceMeters>NAN</DistanceMeters>
          </Trackpoint>
          <Trackpoint>
            <Time>2020-12-05T13:19:29.000Z</Time>
            <Position>
              <LatitudeDegrees>36.81866378523409366607666015625</LatitudeDegrees>
              <LongitudeDegrees>-4.38711117021739482879638671875</LongitudeDegrees>
            </Position>
            <AltitudeMeters>801.79998779296875</AltitudeMeters>
            <DistanceMeters>NAN</DistanceMeters>
          </Trackpoint>
          <Trackpoint>
            <Time>2020-12-05T13:19:30.000Z</Time>
            <Position>
              <LatitudeDegrees>36.81867350824177265167236328125</LatitudeDegrees>
              <LongitudeDegrees>-4.38711963593959808349609375</LongitudeDegrees>
            </Position>
            <AltitudeMeters>801.79998779296875</AltitudeMeters>
            <DistanceMeters>NAN</DistanceMeters>
          </Trackpoint>
          <Trackpoint>
            <Time>2020-12-05T13:19:31.000Z</Time>
            <Position>
              <LatitudeDegrees>36.81868054904043674468994140625</LatitudeDegrees>
              <LongitudeDegrees>-4.3871211446821689605712890625</LongitudeDegrees>
            </Position>
            <AltitudeMeters>801.79998779296875</AltitudeMeters>
            <DistanceMeters>NAN</DistanceMeters>
          </Trackpoint>
          <Trackpoint>
            <Time>2020-12-05T13:19:32.000Z</Time>
            <Position>
              <LatitudeDegrees>36.81868658401072025299072265625</LatitudeDegrees>
              <LongitudeDegrees>-4.38711695373058319091796875</LongitudeDegrees>
            </Position>
            <AltitudeMeters>801.79998779296875</AltitudeMeters>
            <DistanceMeters>NAN</DistanceMeters>
          </Trackpoint>
          <Trackpoint>
            <Time>2020-12-05T13:19:33.000Z</Time>
            <Position>
              <LatitudeDegrees>36.8186923675239086151123046875</LatitudeDegrees>
              <LongitudeDegrees>-4.3871104158461093902587890625</LongitudeDegrees>
            </Position>
            <AltitudeMeters>801.79998779296875</AltitudeMeters>
            <DistanceMeters>NAN</DistanceMeters>
          </Trackpoint>
          <Trackpoint>
            <Time>2020-12-05T13:19:34.000Z</Time>
            <Position>
              <LatitudeDegrees>36.81869613938033580780029296875</LatitudeDegrees>
              <LongitudeDegrees>-4.38710446469485759735107421875</LongitudeDegrees>
            </Position>
            <AltitudeMeters>801.79998779296875</AltitudeMeters>
            <DistanceMeters>NAN</DistanceMeters>
          </Trackpoint>
          <Trackpoint>
            <Time>2020-12-05T13:19:35.000Z</Time>
            <Position>
              <LatitudeDegrees>36.8186980672180652618408203125</LatitudeDegrees>
              <LongitudeDegrees>-4.3871043808758258819580078125</LongitudeDegrees>
            </Position>
            <AltitudeMeters>801.79998779296875</AltitudeMeters>
            <DistanceMeters>NAN</DistanceMeters>
          </Trackpoint>
          <Trackpoint>
            <Time>2020-12-05T13:19:36.000Z</Time>
            <Position>
              <LatitudeDegrees>36.81870569474995136260986328125</LatitudeDegrees>
              <LongitudeDegrees>-4.3871060572564601898193359375</LongitudeDegrees>
            </Position>
            <AltitudeMeters>801.79998779296875</AltitudeMeters>
            <DistanceMeters>NAN</DistanceMeters>
          </Trackpoint>
          <Trackpoint>
            <Time>2020-12-05T13:19:37.000Z</Time>
            <Position>
              <LatitudeDegrees>36.8187138251960277557373046875</LatitudeDegrees>
              <LongitudeDegrees>-4.38710228540003299713134765625</LongitudeDegrees>
            </Position>
            <AltitudeMeters>801.79998779296875</AltitudeMeters>
            <DistanceMeters>NAN</DistanceMeters>
          </Trackpoint>
          <Trackpoint>
            <Time>2020-12-05T13:19:38.000Z</Time>
            <Position>
              <LatitudeDegrees>36.81871759705245494842529296875</LatitudeDegrees>
              <LongitudeDegrees>-4.38710915856063365936279296875</LongitudeDegrees>
            </Position>
            <AltitudeMeters>801.79998779296875</AltitudeMeters>
            <DistanceMeters>NAN</DistanceMeters>
          </Trackpoint>
          <Trackpoint>
            <Time>2020-12-05T13:19:39.000Z</Time>
            <Position>
              <LatitudeDegrees>36.8187225423753261566162109375</LatitudeDegrees>
              <LongitudeDegrees>-4.3871214799582958221435546875</LongitudeDegrees>
            </Position>
            <AltitudeMeters>801.79998779296875</AltitudeMeters>
            <DistanceMeters>NAN</DistanceMeters>
          </Trackpoint>
          <Trackpoint>
            <Time>2020-12-05T13:19:40.000Z</Time>
            <Position>
              <LatitudeDegrees>36.818725727498531341552734375</LatitudeDegrees>
              <LongitudeDegrees>-4.38712877221405506134033203125</LongitudeDegrees>
            </Position>
            <AltitudeMeters>801.79998779296875</AltitudeMeters>
            <DistanceMeters>NAN</DistanceMeters>
          </Trackpoint>
          <Trackpoint>
            <Time>2020-12-05T13:19:41.000Z</Time>
            <Position>
              <LatitudeDegrees>36.81872681714594364166259765625</LatitudeDegrees>
              <LongitudeDegrees>-4.38713430427014827728271484375</LongitudeDegrees>
            </Position>
            <AltitudeMeters>801.79998779296875</AltitudeMeters>
            <DistanceMeters>NAN</DistanceMeters>
          </Trackpoint>
          <Trackpoint>
            <Time>2020-12-05T13:19:42.000Z</Time>
            <Position>
              <LatitudeDegrees>36.81872933171689510345458984375</LatitudeDegrees>
              <LongitudeDegrees>-4.387136399745941162109375</LongitudeDegrees>
            </Position>
            <AltitudeMeters>801.79998779296875</AltitudeMeters>
            <DistanceMeters>NAN</DistanceMeters>
          </Trackpoint>
          <Trackpoint>
            <Time>2020-12-05T13:19:43.000Z</Time>
            <Position>
              <LatitudeDegrees>36.81872941553592681884765625</LatitudeDegrees>
              <LongitudeDegrees>-4.38713614828884601593017578125</LongitudeDegrees>
            </Position>
            <AltitudeMeters>801.79998779296875</AltitudeMeters>
            <DistanceMeters>NAN</DistanceMeters>
          </Trackpoint>
          <Trackpoint>
            <Time>2020-12-05T13:19:44.000Z</Time>
            <Position>
              <LatitudeDegrees>36.81873075664043426513671875</LatitudeDegrees>
              <LongitudeDegrees>-4.38713648356497287750244140625</LongitudeDegrees>
            </Position>
            <AltitudeMeters>801.79998779296875</AltitudeMeters>
            <DistanceMeters>NAN</DistanceMeters>
          </Trackpoint>
          <Trackpoint>
            <Time>2020-12-05T13:19:45.000Z</Time>
            <Position>
              <LatitudeDegrees>36.81872866116464138031005859375</LatitudeDegrees>
              <LongitudeDegrees>-4.38712902367115020751953125</LongitudeDegrees>
            </Position>
            <AltitudeMeters>801.79998779296875</AltitudeMeters>
            <DistanceMeters>NAN</DistanceMeters>
          </Trackpoint>
          <Trackpoint>
            <Time>2020-12-05T13:19:46.000Z</Time>
            <Position>
              <LatitudeDegrees>36.8187269009649753570556640625</LatitudeDegrees>
              <LongitudeDegrees>-4.38712365925312042236328125</LongitudeDegrees>
            </Position>
            <AltitudeMeters>801.79998779296875</AltitudeMeters>
            <DistanceMeters>NAN</DistanceMeters>
          </Trackpoint>
          <Trackpoint>
            <Time>2020-12-05T13:19:47.000Z</Time>
            <Position>
              <LatitudeDegrees>36.81872405111789703369140625</LatitudeDegrees>
              <LongitudeDegrees>-4.3871114216744899749755859375</LongitudeDegrees>
            </Position>
            <AltitudeMeters>801.79998779296875</AltitudeMeters>
            <DistanceMeters>NAN</DistanceMeters>
          </Trackpoint>
          <Trackpoint>
            <Time>2020-12-05T13:19:48.000Z</Time>
            <Position>
              <LatitudeDegrees>36.81872136890888214111328125</LatitudeDegrees>
              <LongitudeDegrees>-4.3871003575623035430908203125</LongitudeDegrees>
            </Position>
            <AltitudeMeters>801.79998779296875</AltitudeMeters>
            <DistanceMeters>NAN</DistanceMeters>
          </Trackpoint>
          <Trackpoint>
            <Time>2020-12-05T13:19:49.000Z</Time>
            <Position>
              <LatitudeDegrees>36.818718016147613525390625</LatitudeDegrees>
              <LongitudeDegrees>-4.38708619214594364166259765625</LongitudeDegrees>
            </Position>
            <AltitudeMeters>801.79998779296875</AltitudeMeters>
            <DistanceMeters>NAN</DistanceMeters>
          </Trackpoint>
          <Trackpoint>
            <Time>2020-12-05T13:19:50.000Z</Time>
            <Position>
              <LatitudeDegrees>36.8187141604721546173095703125</LatitudeDegrees>
              <LongitudeDegrees>-4.3870732001960277557373046875</LongitudeDegrees>
            </Position>
            <AltitudeMeters>801.79998779296875</AltitudeMeters>
            <DistanceMeters>NAN</DistanceMeters>
          </Trackpoint>
          <Trackpoint>
            <Time>2020-12-05T13:19:51.000Z</Time>
            <Position>
              <LatitudeDegrees>36.8187111429870128631591796875</LatitudeDegrees>
              <LongitudeDegrees>-4.38706062734127044677734375</LongitudeDegrees>
            </Position>
            <AltitudeMeters>801.79998779296875</AltitudeMeters>
            <DistanceMeters>NAN</DistanceMeters>
          </Trackpoint>
          <Trackpoint>
            <Time>2020-12-05T13:19:52.000Z</Time>
            <Position>
              <LatitudeDegrees>36.818707622587680816650390625</LatitudeDegrees>
              <LongitudeDegrees>-4.38704646192491054534912109375</LongitudeDegrees>
            </Position>
            <AltitudeMeters>801.79998779296875</AltitudeMeters>
            <DistanceMeters>NAN</DistanceMeters>
          </Trackpoint>
          <Trackpoint>
            <Time>2020-12-05T13:19:53.000Z</Time>
            <Position>
              <LatitudeDegrees>36.8187046051025390625</LatitudeDegrees>
              <LongitudeDegrees>-4.38702844083309173583984375</LongitudeDegrees>
            </Position>
            <AltitudeMeters>801.79998779296875</AltitudeMeters>
            <DistanceMeters>NAN</DistanceMeters>
          </Trackpoint>
          <Trackpoint>
            <Time>2020-12-05T13:19:54.000Z</Time>
            <Position>
              <LatitudeDegrees>36.818701922893524169921875</LatitudeDegrees>
              <LongitudeDegrees>-4.38701109029352664947509765625</LongitudeDegrees>
            </Position>
            <AltitudeMeters>801.79998779296875</AltitudeMeters>
            <DistanceMeters>NAN</DistanceMeters>
          </Trackpoint>
          <Trackpoint>
            <Time>2020-12-05T13:19:55.000Z</Time>
            <Position>
              <LatitudeDegrees>36.81869714520871639251708984375</LatitudeDegrees>
              <LongitudeDegrees>-4.3869955837726593017578125</LongitudeDegrees>
            </Position>
            <AltitudeMeters>801.79998779296875</AltitudeMeters>
            <DistanceMeters>NAN</DistanceMeters>
          </Trackpoint>
          <Trackpoint>
            <Time>2020-12-05T13:19:56.000Z</Time>
            <Position>
              <LatitudeDegrees>36.818691529333591461181640625</LatitudeDegrees>
              <LongitudeDegrees>-4.386980496346950531005859375</LongitudeDegrees>
            </Position>
            <AltitudeMeters>801.79998779296875</AltitudeMeters>
            <DistanceMeters>NAN</DistanceMeters>
          </Trackpoint>
          <Trackpoint>
            <Time>2020-12-05T13:19:57.000Z</Time>
            <Position>
              <LatitudeDegrees>36.818689517676830291748046875</LatitudeDegrees>
              <LongitudeDegrees>-4.386963732540607452392578125</LongitudeDegrees>
            </Position>
            <AltitudeMeters>801.79998779296875</AltitudeMeters>
            <DistanceMeters>NAN</DistanceMeters>
          </Trackpoint>
          <Trackpoint>
            <Time>2020-12-05T13:19:58.000Z</Time>
            <Position>
              <LatitudeDegrees>36.81868507526814937591552734375</LatitudeDegrees>
              <LongitudeDegrees>-4.38694722019135951995849609375</LongitudeDegrees>
            </Position>
            <AltitudeMeters>801.79998779296875</AltitudeMeters>
            <DistanceMeters>NAN</DistanceMeters>
          </Trackpoint>
          <Trackpoint>
            <Time>2020-12-05T13:19:59.000Z</Time>
            <Position>
              <LatitudeDegrees>36.81868121959269046783447265625</LatitudeDegrees>
              <LongitudeDegrees>-4.38693054020404815673828125</LongitudeDegrees>
            </Position>
            <AltitudeMeters>801.79998779296875</AltitudeMeters>
            <DistanceMeters>NAN</DistanceMeters>
          </Trackpoint>
          <Trackpoint>
            <Time>2020-12-05T13:20:00.000Z</Time>
            <Position>
              <LatitudeDegrees>36.81867551989853382110595703125</LatitudeDegrees>
              <LongitudeDegrees>-4.3869139440357685089111328125</LongitudeDegrees>
            </Position>
            <AltitudeMeters>804.20001220703125</AltitudeMeters>
            <DistanceMeters>NAN</DistanceMeters>
          </Trackpoint>
          <Trackpoint>
            <Time>2020-12-05T13:20:01.000Z</Time>
            <Position>
              <LatitudeDegrees>36.81867401115596294403076171875</LatitudeDegrees>
              <LongitudeDegrees>-4.3868995271623134613037109375</LongitudeDegrees>
            </Position>
            <AltitudeMeters>804.20001220703125</AltitudeMeters>
            <DistanceMeters>NAN</DistanceMeters>
          </Trackpoint>
          <Trackpoint>
            <Time>2020-12-05T13:20:02.000Z</Time>
            <Position>
              <LatitudeDegrees>36.8186724185943603515625</LatitudeDegrees>
              <LongitudeDegrees>-4.38688619993627071380615234375</LongitudeDegrees>
            </Position>
            <AltitudeMeters>804.20001220703125</AltitudeMeters>
            <DistanceMeters>NAN</DistanceMeters>
          </Trackpoint>
          <Trackpoint>
            <Time>2020-12-05T13:20:03.000Z</Time>
            <Position>
              <LatitudeDegrees>36.81867769919335842132568359375</LatitudeDegrees>
              <LongitudeDegrees>-4.3868670053780078887939453125</LongitudeDegrees>
            </Position>
            <AltitudeMeters>804.20001220703125</AltitudeMeters>
            <DistanceMeters>NAN</DistanceMeters>
          </Trackpoint>
          <Trackpoint>
            <Time>2020-12-05T13:20:04.000Z</Time>
            <Position>
              <LatitudeDegrees>36.818680129945278167724609375</LatitudeDegrees>
              <LongitudeDegrees>-4.38684982247650623321533203125</LongitudeDegrees>
            </Position>
            <AltitudeMeters>804.20001220703125</AltitudeMeters>
            <DistanceMeters>NAN</DistanceMeters>
          </Trackpoint>
          <Trackpoint>
            <Time>2020-12-05T13:20:05.000Z</Time>
            <Position>
              <LatitudeDegrees>36.8186813034117221832275390625</LatitudeDegrees>
              <LongitudeDegrees>-4.38683691434562206268310546875</LongitudeDegrees>
            </Position>
            <AltitudeMeters>804.20001220703125</AltitudeMeters>
            <DistanceMeters>NAN</DistanceMeters>
          </Trackpoint>
          <Trackpoint>
            <Time>2020-12-05T13:20:06.000Z</Time>
            <Position>
              <LatitudeDegrees>36.81868381798267364501953125</LatitudeDegrees>
              <LongitudeDegrees>-4.38682618550956249237060546875</LongitudeDegrees>
            </Position>
            <AltitudeMeters>804.20001220703125</AltitudeMeters>
            <DistanceMeters>NAN</DistanceMeters>
          </Trackpoint>
          <Trackpoint>
            <Time>2020-12-05T13:20:07.000Z</Time>
            <Position>
              <LatitudeDegrees>36.81868390180170536041259765625</LatitudeDegrees>
              <LongitudeDegrees>-4.386815540492534637451171875</LongitudeDegrees>
            </Position>
            <AltitudeMeters>804.20001220703125</AltitudeMeters>
            <DistanceMeters>NAN</DistanceMeters>
          </Trackpoint>
          <Trackpoint>
            <Time>2020-12-05T13:20:08.000Z</Time>
            <Position>
              <LatitudeDegrees>36.81868306361138820648193359375</LatitudeDegrees>
              <LongitudeDegrees>-4.386798106133937835693359375</LongitudeDegrees>
            </Position>
            <AltitudeMeters>804.20001220703125</AltitudeMeters>
            <DistanceMeters>NAN</DistanceMeters>
          </Trackpoint>
          <Trackpoint>
            <Time>2020-12-05T13:20:09.000Z</Time>
            <Position>
              <LatitudeDegrees>36.81868004612624645233154296875</LatitudeDegrees>
              <LongitudeDegrees>-4.38677891157567501068115234375</LongitudeDegrees>
            </Position>
            <AltitudeMeters>804.20001220703125</AltitudeMeters>
            <DistanceMeters>NAN</DistanceMeters>
          </Trackpoint>
          <Trackpoint>
            <Time>2020-12-05T13:20:10.000Z</Time>
            <Position>
              <LatitudeDegrees>36.81867845356464385986328125</LatitudeDegrees>
              <LongitudeDegrees>-4.3867637403309345245361328125</LongitudeDegrees>
            </Position>
            <AltitudeMeters>804.20001220703125</AltitudeMeters>
            <DistanceMeters>NAN</DistanceMeters>
          </Trackpoint>
          <Trackpoint>
            <Time>2020-12-05T13:20:11.000Z</Time>
            <Position>
              <LatitudeDegrees>36.8186772800981998443603515625</LatitudeDegrees>
              <LongitudeDegrees>-4.3867488205432891845703125</LongitudeDegrees>
            </Position>
            <AltitudeMeters>804.20001220703125</AltitudeMeters>
            <DistanceMeters>NAN</DistanceMeters>
          </Trackpoint>
          <Trackpoint>
            <Time>2020-12-05T13:20:12.000Z</Time>
            <Position>
              <LatitudeDegrees>36.818675436079502105712890625</LatitudeDegrees>
              <LongitudeDegrees>-4.386735074222087860107421875</LongitudeDegrees>
            </Position>
            <AltitudeMeters>804.20001220703125</AltitudeMeters>
            <DistanceMeters>NAN</DistanceMeters>
          </Trackpoint>
          <Trackpoint>
            <Time>2020-12-05T13:20:13.000Z</Time>
            <Position>
              <LatitudeDegrees>36.81867551989853382110595703125</LatitudeDegrees>
              <LongitudeDegrees>-4.38671973533928394317626953125</LongitudeDegrees>
            </Position>
            <AltitudeMeters>804.20001220703125</AltitudeMeters>
            <DistanceMeters>NAN</DistanceMeters>
          </Trackpoint>
          <Trackpoint>
            <Time>2020-12-05T13:20:14.000Z</Time>
            <Position>
              <LatitudeDegrees>36.81867635808885097503662109375</LatitudeDegrees>
              <LongitudeDegrees>-4.38670414499938488006591796875</LongitudeDegrees>
            </Position>
            <AltitudeMeters>804.20001220703125</AltitudeMeters>
            <DistanceMeters>NAN</DistanceMeters>
          </Trackpoint>
          <Trackpoint>
            <Time>2020-12-05T13:20:15.000Z</Time>
            <Position>
              <LatitudeDegrees>36.8186779506504535675048828125</LatitudeDegrees>
              <LongitudeDegrees>-4.38668939284980297088623046875</LongitudeDegrees>
            </Position>
            <AltitudeMeters>804.20001220703125</AltitudeMeters>
            <DistanceMeters>NAN</DistanceMeters>
          </Trackpoint>
          <Trackpoint>
            <Time>2020-12-05T13:20:16.000Z</Time>
            <Position>
              <LatitudeDegrees>36.81867635808885097503662109375</LatitudeDegrees>
              <LongitudeDegrees>-4.3866785801947116851806640625</LongitudeDegrees>
            </Position>
            <AltitudeMeters>804.20001220703125</AltitudeMeters>
            <DistanceMeters>NAN</DistanceMeters>
          </Trackpoint>
          <Trackpoint>
            <Time>2020-12-05T13:20:17.000Z</Time>
            <Position>
              <LatitudeDegrees>36.818674094974994659423828125</LatitudeDegrees>
              <LongitudeDegrees>-4.386673383414745330810546875</LongitudeDegrees>
            </Position>
            <AltitudeMeters>804.20001220703125</AltitudeMeters>
            <DistanceMeters>NAN</DistanceMeters>
          </Trackpoint>
          <Trackpoint>
            <Time>2020-12-05T13:20:18.000Z</Time>
            <Position>
              <LatitudeDegrees>36.81867174804210662841796875</LatitudeDegrees>
              <LongitudeDegrees>-4.38666324131190776824951171875</LongitudeDegrees>
            </Position>
            <AltitudeMeters>804.20001220703125</AltitudeMeters>
            <DistanceMeters>NAN</DistanceMeters>
          </Trackpoint>
          <Trackpoint>
            <Time>2020-12-05T13:20:19.000Z</Time>
            <Position>
              <LatitudeDegrees>36.8186683952808380126953125</LatitudeDegrees>
              <LongitudeDegrees>-4.38665318302810192108154296875</LongitudeDegrees>
            </Position>
            <AltitudeMeters>804.20001220703125</AltitudeMeters>
            <DistanceMeters>NAN</DistanceMeters>
          </Trackpoint>
          <Trackpoint>
            <Time>2020-12-05T13:20:20.000Z</Time>
            <Position>
              <LatitudeDegrees>36.81866395287215709686279296875</LatitudeDegrees>
              <LongitudeDegrees>-4.386641867458820343017578125</LongitudeDegrees>
            </Position>
            <AltitudeMeters>804.20001220703125</AltitudeMeters>
            <DistanceMeters>NAN</DistanceMeters>
          </Trackpoint>
          <Trackpoint>
            <Time>2020-12-05T13:20:21.000Z</Time>
            <Position>
              <LatitudeDegrees>36.8186585046350955963134765625</LatitudeDegrees>
              <LongitudeDegrees>-4.38662837259471416473388671875</LongitudeDegrees>
            </Position>
            <AltitudeMeters>804.20001220703125</AltitudeMeters>
            <DistanceMeters>NAN</DistanceMeters>
          </Trackpoint>
          <Trackpoint>
            <Time>2020-12-05T13:20:22.000Z</Time>
            <Position>
              <LatitudeDegrees>36.8186523020267486572265625</LatitudeDegrees>
              <LongitudeDegrees>-4.38661613501608371734619140625</LongitudeDegrees>
            </Position>
            <AltitudeMeters>804.20001220703125</AltitudeMeters>
            <DistanceMeters>NAN</DistanceMeters>
          </Trackpoint>
          <Trackpoint>
            <Time>2020-12-05T13:20:23.000Z</Time>
            <Position>
              <LatitudeDegrees>36.81864735670387744903564453125</LatitudeDegrees>
              <LongitudeDegrees>-4.3866044841706752777099609375</LongitudeDegrees>
            </Position>
            <AltitudeMeters>804.20001220703125</AltitudeMeters>
            <DistanceMeters>NAN</DistanceMeters>
          </Trackpoint>
          <Trackpoint>
            <Time>2020-12-05T13:20:24.000Z</Time>
            <Position>
              <LatitudeDegrees>36.81864232756197452545166015625</LatitudeDegrees>
              <LongitudeDegrees>-4.38659182749688625335693359375</LongitudeDegrees>
            </Position>
            <AltitudeMeters>804.20001220703125</AltitudeMeters>
            <DistanceMeters>NAN</DistanceMeters>
          </Trackpoint>
          <Trackpoint>
            <Time>2020-12-05T13:20:25.000Z</Time>
            <Position>
              <LatitudeDegrees>36.8186397291719913482666015625</LatitudeDegrees>
              <LongitudeDegrees>-4.38658093102276325225830078125</LongitudeDegrees>
            </Position>
            <AltitudeMeters>804.20001220703125</AltitudeMeters>
            <DistanceMeters>NAN</DistanceMeters>
          </Trackpoint>
          <Trackpoint>
            <Time>2020-12-05T13:20:26.000Z</Time>
            <Position>
              <LatitudeDegrees>36.8186363764107227325439453125</LatitudeDegrees>
              <LongitudeDegrees>-4.38656969927251338958740234375</LongitudeDegrees>
            </Position>
            <AltitudeMeters>804.20001220703125</AltitudeMeters>
            <DistanceMeters>NAN</DistanceMeters>
          </Trackpoint>
          <Trackpoint>
            <Time>2020-12-05T13:20:27.000Z</Time>
            <Position>
              <LatitudeDegrees>36.81863461621105670928955078125</LatitudeDegrees>
              <LongitudeDegrees>-4.38655637204647064208984375</LongitudeDegrees>
            </Position>
            <AltitudeMeters>804.20001220703125</AltitudeMeters>
            <DistanceMeters>NAN</DistanceMeters>
          </Trackpoint>
          <Trackpoint>
            <Time>2020-12-05T13:20:28.000Z</Time>
            <Position>
              <LatitudeDegrees>36.81863419711589813232421875</LatitudeDegrees>
              <LongitudeDegrees>-4.38654002733528614044189453125</LongitudeDegrees>
            </Position>
            <AltitudeMeters>804.20001220703125</AltitudeMeters>
            <DistanceMeters>NAN</DistanceMeters>
          </Trackpoint>
          <Trackpoint>
            <Time>2020-12-05T13:20:29.000Z</Time>
            <Position>
              <LatitudeDegrees>36.818635202944278717041015625</LatitudeDegrees>
              <LongitudeDegrees>-4.3865206651389598846435546875</LongitudeDegrees>
            </Position>
            <AltitudeMeters>804.20001220703125</AltitudeMeters>
            <DistanceMeters>NAN</DistanceMeters>
          </Trackpoint>
          <Trackpoint>
            <Time>2020-12-05T13:20:30.000Z</Time>
            <Position>
              <LatitudeDegrees>36.818635202944278717041015625</LatitudeDegrees>
              <LongitudeDegrees>-4.38650616444647312164306640625</LongitudeDegrees>
            </Position>
            <AltitudeMeters>804.20001220703125</AltitudeMeters>
            <DistanceMeters>NAN</DistanceMeters>
          </Trackpoint>
          <Trackpoint>
            <Time>2020-12-05T13:20:31.000Z</Time>
            <Position>
              <LatitudeDegrees>36.8186390586197376251220703125</LatitudeDegrees>
              <LongitudeDegrees>-4.3864971958100795745849609375</LongitudeDegrees>
            </Position>
            <AltitudeMeters>804.20001220703125</AltitudeMeters>
            <DistanceMeters>NAN</DistanceMeters>
          </Trackpoint>
          <Trackpoint>
            <Time>2020-12-05T13:20:32.000Z</Time>
            <Position>
              <LatitudeDegrees>36.8186437524855136871337890625</LatitudeDegrees>
              <LongitudeDegrees>-4.38648588024079799652099609375</LongitudeDegrees>
            </Position>
            <AltitudeMeters>804.20001220703125</AltitudeMeters>
            <DistanceMeters>NAN</DistanceMeters>
          </Trackpoint>
          <Trackpoint>
            <Time>2020-12-05T13:20:33.000Z</Time>
            <Position>
              <LatitudeDegrees>36.81864886544644832611083984375</LatitudeDegrees>
              <LongitudeDegrees>-4.38646710477769374847412109375</LongitudeDegrees>
            </Position>
            <AltitudeMeters>804.20001220703125</AltitudeMeters>
            <DistanceMeters>NAN</DistanceMeters>
          </Trackpoint>
          <Trackpoint>
            <Time>2020-12-05T13:20:34.000Z</Time>
            <Position>
              <LatitudeDegrees>36.8186509609222412109375</LatitudeDegrees>
              <LongitudeDegrees>-4.38644774258136749267578125</LongitudeDegrees>
            </Position>
            <AltitudeMeters>804.20001220703125</AltitudeMeters>
            <DistanceMeters>NAN</DistanceMeters>
          </Trackpoint>
          <Trackpoint>
            <Time>2020-12-05T13:20:35.000Z</Time>
            <Position>
              <LatitudeDegrees>36.8186605162918567657470703125</LatitudeDegrees>
              <LongitudeDegrees>-4.3864277936518192291259765625</LongitudeDegrees>
            </Position>
            <AltitudeMeters>804.20001220703125</AltitudeMeters>
            <DistanceMeters>NAN</DistanceMeters>
          </Trackpoint>
          <Trackpoint>
            <Time>2020-12-05T13:20:36.000Z</Time>
            <Position>
              <LatitudeDegrees>36.81866294704377651214599609375</LatitudeDegrees>
              <LongitudeDegrees>-4.3864153884351253509521484375</LongitudeDegrees>
            </Position>
            <AltitudeMeters>804.20001220703125</AltitudeMeters>
            <DistanceMeters>NAN</DistanceMeters>
          </Trackpoint>
          <Trackpoint>
            <Time>2020-12-05T13:20:37.000Z</Time>
            <Position>
              <LatitudeDegrees>36.818662695586681365966796875</LatitudeDegrees>
              <LongitudeDegrees>-4.386405833065509796142578125</LongitudeDegrees>
            </Position>
            <AltitudeMeters>804.20001220703125</AltitudeMeters>
            <DistanceMeters>NAN</DistanceMeters>
          </Trackpoint>
          <Trackpoint>
            <Time>2020-12-05T13:20:38.000Z</Time>
            <Position>
              <LatitudeDegrees>36.81866378523409366607666015625</LatitudeDegrees>
              <LongitudeDegrees>-4.386399127542972564697265625</LongitudeDegrees>
            </Position>
            <AltitudeMeters>804.20001220703125</AltitudeMeters>
            <DistanceMeters>NAN</DistanceMeters>
          </Trackpoint>
          <Trackpoint>
            <Time>2020-12-05T13:20:39.000Z</Time>
            <Position>
              <LatitudeDegrees>36.81866579689085483551025390625</LatitudeDegrees>
              <LongitudeDegrees>-4.386395774781703948974609375</LongitudeDegrees>
            </Position>
            <AltitudeMeters>804.20001220703125</AltitudeMeters>
            <DistanceMeters>NAN</DistanceMeters>
          </Trackpoint>
          <Trackpoint>
            <Time>2020-12-05T13:20:40.000Z</Time>
            <Position>
              <LatitudeDegrees>36.818667389452457427978515625</LatitudeDegrees>
              <LongitudeDegrees>-4.386389069259166717529296875</LongitudeDegrees>
            </Position>
            <AltitudeMeters>804.20001220703125</AltitudeMeters>
            <DistanceMeters>NAN</DistanceMeters>
          </Trackpoint>
          <Trackpoint>
            <Time>2020-12-05T13:20:41.000Z</Time>
            <Position>
              <LatitudeDegrees>36.81866831146180629730224609375</LatitudeDegrees>
              <LongitudeDegrees>-4.38638261519372463226318359375</LongitudeDegrees>
            </Position>
            <AltitudeMeters>804.20001220703125</AltitudeMeters>
            <DistanceMeters>NAN</DistanceMeters>
          </Trackpoint>
          <Trackpoint>
            <Time>2020-12-05T13:20:42.000Z</Time>
            <Position>
              <LatitudeDegrees>36.81866713799536228179931640625</LatitudeDegrees>
              <LongitudeDegrees>-4.38637959770858287811279296875</LongitudeDegrees>
            </Position>
            <AltitudeMeters>804.20001220703125</AltitudeMeters>
            <DistanceMeters>NAN</DistanceMeters>
          </Trackpoint>
          <Trackpoint>
            <Time>2020-12-05T13:20:43.000Z</Time>
            <Position>
              <LatitudeDegrees>36.81866629980504512786865234375</LatitudeDegrees>
              <LongitudeDegrees>-4.3863751552999019622802734375</LongitudeDegrees>
            </Position>
            <AltitudeMeters>804.20001220703125</AltitudeMeters>
            <DistanceMeters>NAN</DistanceMeters>
          </Trackpoint>
          <Trackpoint>
            <Time>2020-12-05T13:20:44.000Z</Time>
            <Position>
              <LatitudeDegrees>36.81866512633860111236572265625</LatitudeDegrees>
              <LongitudeDegrees>-4.38636970706284046173095703125</LongitudeDegrees>
            </Position>
            <AltitudeMeters>804.20001220703125</AltitudeMeters>
            <DistanceMeters>NAN</DistanceMeters>
          </Trackpoint>
          <Trackpoint>
            <Time>2020-12-05T13:20:45.000Z</Time>
            <Position>
              <LatitudeDegrees>36.81866395287215709686279296875</LatitudeDegrees>
              <LongitudeDegrees>-4.38636015169322490692138671875</LongitudeDegrees>
            </Position>
            <AltitudeMeters>804.20001220703125</AltitudeMeters>
            <DistanceMeters>NAN</DistanceMeters>
          </Trackpoint>
          <Trackpoint>
            <Time>2020-12-05T13:20:46.000Z</Time>
            <Position>
              <LatitudeDegrees>36.81866713799536228179931640625</LatitudeDegrees>
              <LongitudeDegrees>-4.38634372316300868988037109375</LongitudeDegrees>
            </Position>
            <AltitudeMeters>804.20001220703125</AltitudeMeters>
            <DistanceMeters>NAN</DistanceMeters>
          </Trackpoint>
          <Trackpoint>
            <Time>2020-12-05T13:20:47.000Z</Time>
            <Position>
              <LatitudeDegrees>36.81867015548050403594970703125</LatitudeDegrees>
              <LongitudeDegrees>-4.38632897101342678070068359375</LongitudeDegrees>
            </Position>
            <AltitudeMeters>804.20001220703125</AltitudeMeters>
            <DistanceMeters>NAN</DistanceMeters>
          </Trackpoint>
          <Trackpoint>
            <Time>2020-12-05T13:20:48.000Z</Time>
            <Position>
              <LatitudeDegrees>36.81867166422307491302490234375</LatitudeDegrees>
              <LongitudeDegrees>-4.38631237484514713287353515625</LongitudeDegrees>
            </Position>
            <AltitudeMeters>804.20001220703125</AltitudeMeters>
            <DistanceMeters>NAN</DistanceMeters>
          </Trackpoint>
          <Trackpoint>
            <Time>2020-12-05T13:20:49.000Z</Time>
            <Position>
              <LatitudeDegrees>36.81867568753659725189208984375</LatitudeDegrees>
              <LongitudeDegrees>-4.386295862495899200439453125</LongitudeDegrees>
            </Position>
            <AltitudeMeters>804.20001220703125</AltitudeMeters>
            <DistanceMeters>NAN</DistanceMeters>
          </Trackpoint>
          <Trackpoint>
            <Time>2020-12-05T13:20:50.000Z</Time>
            <Position>
              <LatitudeDegrees>36.81868054904043674468994140625</LatitudeDegrees>
              <LongitudeDegrees>-4.3862792663276195526123046875</LongitudeDegrees>
            </Position>
            <AltitudeMeters>804.20001220703125</AltitudeMeters>
            <DistanceMeters>NAN</DistanceMeters>
          </Trackpoint>
          <Trackpoint>
            <Time>2020-12-05T13:20:51.000Z</Time>
            <Position>
              <LatitudeDegrees>36.8186839856207370758056640625</LatitudeDegrees>
              <LongitudeDegrees>-4.38626401126384735107421875</LongitudeDegrees>
            </Position>
            <AltitudeMeters>804.20001220703125</AltitudeMeters>
            <DistanceMeters>NAN</DistanceMeters>
          </Trackpoint>
          <Trackpoint>
            <Time>2020-12-05T13:20:52.000Z</Time>
            <Position>
              <LatitudeDegrees>36.81868909858167171478271484375</LatitudeDegrees>
              <LongitudeDegrees>-4.386248253285884857177734375</LongitudeDegrees>
            </Position>
            <AltitudeMeters>804.20001220703125</AltitudeMeters>
            <DistanceMeters>NAN</DistanceMeters>
          </Trackpoint>
          <Trackpoint>
            <Time>2020-12-05T13:20:53.000Z</Time>
            <Position>
              <LatitudeDegrees>36.8186963908374309539794921875</LatitudeDegrees>
              <LongitudeDegrees>-4.38623207621276378631591796875</LongitudeDegrees>
            </Position>
            <AltitudeMeters>804.20001220703125</AltitudeMeters>
            <DistanceMeters>NAN</DistanceMeters>
          </Trackpoint>
          <Trackpoint>
            <Time>2020-12-05T13:20:54.000Z</Time>
            <Position>
              <LatitudeDegrees>36.81870250962674617767333984375</LatitudeDegrees>
              <LongitudeDegrees>-4.38621841371059417724609375</LongitudeDegrees>
            </Position>
            <AltitudeMeters>804.20001220703125</AltitudeMeters>
            <DistanceMeters>NAN</DistanceMeters>
          </Trackpoint>
          <Trackpoint>
            <Time>2020-12-05T13:20:55.000Z</Time>
            <Position>
              <LatitudeDegrees>36.81870871223509311676025390625</LatitudeDegrees>
              <LongitudeDegrees>-4.38620458357036113739013671875</LongitudeDegrees>
            </Position>
            <AltitudeMeters>804.20001220703125</AltitudeMeters>
            <DistanceMeters>NAN</DistanceMeters>
          </Trackpoint>
          <Trackpoint>
            <Time>2020-12-05T13:20:56.000Z</Time>
            <Position>
              <LatitudeDegrees>36.81871474720537662506103515625</LatitudeDegrees>
              <LongitudeDegrees>-4.38618865795433521270751953125</LongitudeDegrees>
            </Position>
            <AltitudeMeters>804.20001220703125</AltitudeMeters>
            <DistanceMeters>NAN</DistanceMeters>
          </Trackpoint>
          <Trackpoint>
            <Time>2020-12-05T13:20:57.000Z</Time>
            <Position>
              <LatitudeDegrees>36.81872002780437469482421875</LatitudeDegrees>
              <LongitudeDegrees>-4.3861734867095947265625</LongitudeDegrees>
            </Position>
            <AltitudeMeters>804.20001220703125</AltitudeMeters>
            <DistanceMeters>NAN</DistanceMeters>
          </Trackpoint>
          <Trackpoint>
            <Time>2020-12-05T13:20:58.000Z</Time>
            <Position>
              <LatitudeDegrees>36.8187245540320873260498046875</LatitudeDegrees>
              <LongitudeDegrees>-4.38615739345550537109375</LongitudeDegrees>
            </Position>
            <AltitudeMeters>804.20001220703125</AltitudeMeters>
            <DistanceMeters>NAN</DistanceMeters>
          </Trackpoint>
          <Trackpoint>
            <Time>2020-12-05T13:20:59.000Z</Time>
            <Position>
              <LatitudeDegrees>36.8187300860881805419921875</LatitudeDegrees>
              <LongitudeDegrees>-4.3861424736678600311279296875</LongitudeDegrees>
            </Position>
            <AltitudeMeters>804.20001220703125</AltitudeMeters>
            <DistanceMeters>NAN</DistanceMeters>
          </Trackpoint>
          <Trackpoint>
            <Time>2020-12-05T13:21:00.000Z</Time>
            <Position>
              <LatitudeDegrees>36.8187367916107177734375</LatitudeDegrees>
              <LongitudeDegrees>-4.3861293978989124298095703125</LongitudeDegrees>
            </Position>
            <AltitudeMeters>804.20001220703125</AltitudeMeters>
            <DistanceMeters>NAN</DistanceMeters>
          </Trackpoint>
          <Trackpoint>
            <Time>2020-12-05T13:21:01.000Z</Time>
            <Position>
              <LatitudeDegrees>36.81874425150454044342041015625</LatitudeDegrees>
              <LongitudeDegrees>-4.3861179985105991363525390625</LongitudeDegrees>
            </Position>
            <AltitudeMeters>804.20001220703125</AltitudeMeters>
            <DistanceMeters>NAN</DistanceMeters>
          </Trackpoint>
          <Trackpoint>
            <Time>2020-12-05T13:21:02.000Z</Time>
            <Position>
              <LatitudeDegrees>36.8187450058758258819580078125</LatitudeDegrees>
              <LongitudeDegrees>-4.38610366545617580413818359375</LongitudeDegrees>
            </Position>
            <AltitudeMeters>804.20001220703125</AltitudeMeters>
            <DistanceMeters>NAN</DistanceMeters>
          </Trackpoint>
          <Trackpoint>
            <Time>2020-12-05T13:21:03.000Z</Time>
            <Position>
              <LatitudeDegrees>36.818749196827411651611328125</LatitudeDegrees>
              <LongitudeDegrees>-4.3860878236591815948486328125</LongitudeDegrees>
            </Position>
            <AltitudeMeters>804.20001220703125</AltitudeMeters>
            <DistanceMeters>NAN</DistanceMeters>
          </Trackpoint>
          <Trackpoint>
            <Time>2020-12-05T13:21:04.000Z</Time>
            <Position>
              <LatitudeDegrees>36.81875397451221942901611328125</LatitudeDegrees>
              <LongitudeDegrees>-4.38607047311961650848388671875</LongitudeDegrees>
            </Position>
            <AltitudeMeters>804.20001220703125</AltitudeMeters>
            <DistanceMeters>NAN</DistanceMeters>
          </Trackpoint>
          <Trackpoint>
            <Time>2020-12-05T13:21:05.000Z</Time>
            <Position>
              <LatitudeDegrees>36.81875900365412235260009765625</LatitudeDegrees>
              <LongitudeDegrees>-4.38605622388422489166259765625</LongitudeDegrees>
            </Position>
            <AltitudeMeters>804.20001220703125</AltitudeMeters>
            <DistanceMeters>NAN</DistanceMeters>
          </Trackpoint>
          <Trackpoint>
            <Time>2020-12-05T13:21:06.000Z</Time>
            <Position>
              <LatitudeDegrees>36.818762607872486114501953125</LatitudeDegrees>
              <LongitudeDegrees>-4.38604013063013553619384765625</LongitudeDegrees>
            </Position>
            <AltitudeMeters>804.20001220703125</AltitudeMeters>
            <DistanceMeters>NAN</DistanceMeters>
          </Trackpoint>
          <Trackpoint>
            <Time>2020-12-05T13:21:07.000Z</Time>
            <Position>
              <LatitudeDegrees>36.818763948976993560791015625</LatitudeDegrees>
              <LongitudeDegrees>-4.38602261245250701904296875</LongitudeDegrees>
            </Position>
            <AltitudeMeters>804.20001220703125</AltitudeMeters>
            <DistanceMeters>NAN</DistanceMeters>
          </Trackpoint>
          <Trackpoint>
            <Time>2020-12-05T13:21:08.000Z</Time>
            <Position>
              <LatitudeDegrees>36.81876696646213531494140625</LatitudeDegrees>
              <LongitudeDegrees>-4.386010207235813140869140625</LongitudeDegrees>
            </Position>
            <AltitudeMeters>804.20001220703125</AltitudeMeters>
            <DistanceMeters>NAN</DistanceMeters>
          </Trackpoint>
          <Trackpoint>
            <Time>2020-12-05T13:21:09.000Z</Time>
            <Position>
              <LatitudeDegrees>36.81876855902373790740966796875</LatitudeDegrees>
              <LongitudeDegrees>-4.38599646091461181640625</LongitudeDegrees>
            </Position>
            <AltitudeMeters>804.20001220703125</AltitudeMeters>
            <DistanceMeters>NAN</DistanceMeters>
          </Trackpoint>
          <Trackpoint>
            <Time>2020-12-05T13:21:10.000Z</Time>
            <Position>
              <LatitudeDegrees>36.818767972290515899658203125</LatitudeDegrees>
              <LongitudeDegrees>-4.38597894273698329925537109375</LongitudeDegrees>
            </Position>
            <AltitudeMeters>804.20001220703125</AltitudeMeters>
            <DistanceMeters>NAN</DistanceMeters>
          </Trackpoint>
          <Trackpoint>
            <Time>2020-12-05T13:21:11.000Z</Time>
            <Position>
              <LatitudeDegrees>36.8187667988240718841552734375</LatitudeDegrees>
              <LongitudeDegrees>-4.38596318475902080535888671875</LongitudeDegrees>
            </Position>
            <AltitudeMeters>804.20001220703125</AltitudeMeters>
            <DistanceMeters>NAN</DistanceMeters>
          </Trackpoint>
          <Trackpoint>
            <Time>2020-12-05T13:21:12.000Z</Time>
            <Position>
              <LatitudeDegrees>36.8187644518911838531494140625</LatitudeDegrees>
              <LongitudeDegrees>-4.38595061190426349639892578125</LongitudeDegrees>
            </Position>
            <AltitudeMeters>804.20001220703125</AltitudeMeters>
            <DistanceMeters>NAN</DistanceMeters>
          </Trackpoint>
          <Trackpoint>
            <Time>2020-12-05T13:21:13.000Z</Time>
            <Position>
              <LatitudeDegrees>36.81876160204410552978515625</LatitudeDegrees>
              <LongitudeDegrees>-4.38593653030693531036376953125</LongitudeDegrees>
            </Position>
            <AltitudeMeters>804.20001220703125</AltitudeMeters>
            <DistanceMeters>NAN</DistanceMeters>
          </Trackpoint>
          <Trackpoint>
            <Time>2020-12-05T13:21:14.000Z</Time>
            <Position>
              <LatitudeDegrees>36.8187587521970272064208984375</LatitudeDegrees>
              <LongitudeDegrees>-4.38592194579541683197021484375</LongitudeDegrees>
            </Position>
            <AltitudeMeters>804.20001220703125</AltitudeMeters>
            <DistanceMeters>NAN</DistanceMeters>
          </Trackpoint>
          <Trackpoint>
            <Time>2020-12-05T13:21:15.000Z</Time>
            <Position>
              <LatitudeDegrees>36.818756572902202606201171875</LatitudeDegrees>
              <LongitudeDegrees>-4.3859087862074375152587890625</LongitudeDegrees>
            </Position>
            <AltitudeMeters>804.20001220703125</AltitudeMeters>
            <DistanceMeters>NAN</DistanceMeters>
          </Trackpoint>
          <Trackpoint>
            <Time>2020-12-05T13:21:16.000Z</Time>
            <Position>
              <LatitudeDegrees>36.81875447742640972137451171875</LatitudeDegrees>
              <LongitudeDegrees>-4.38589294441044330596923828125</LongitudeDegrees>
            </Position>
            <AltitudeMeters>804.20001220703125</AltitudeMeters>
            <DistanceMeters>NAN</DistanceMeters>
          </Trackpoint>
          <Trackpoint>
            <Time>2020-12-05T13:21:17.000Z</Time>
            <Position>
              <LatitudeDegrees>36.818752549588680267333984375</LatitudeDegrees>
              <LongitudeDegrees>-4.3858752585947513580322265625</LongitudeDegrees>
            </Position>
            <AltitudeMeters>804.20001220703125</AltitudeMeters>
            <DistanceMeters>NAN</DistanceMeters>
          </Trackpoint>
          <Trackpoint>
            <Time>2020-12-05T13:21:18.000Z</Time>
            <Position>
              <LatitudeDegrees>36.81874953210353851318359375</LatitudeDegrees>
              <LongitudeDegrees>-4.385860674083232879638671875</LongitudeDegrees>
            </Position>
            <AltitudeMeters>804.20001220703125</AltitudeMeters>
            <DistanceMeters>NAN</DistanceMeters>
          </Trackpoint>
          <Trackpoint>
            <Time>2020-12-05T13:21:19.000Z</Time>
            <Position>
              <LatitudeDegrees>36.8187466822564601898193359375</LatitudeDegrees>
              <LongitudeDegrees>-4.385848939418792724609375</LongitudeDegrees>
            </Position>
            <AltitudeMeters>804.20001220703125</AltitudeMeters>
            <DistanceMeters>NAN</DistanceMeters>
          </Trackpoint>
          <Trackpoint>
            <Time>2020-12-05T13:21:20.000Z</Time>
            <Position>
              <LatitudeDegrees>36.818743161857128143310546875</LatitudeDegrees>
              <LongitudeDegrees>-4.38583494164049625396728515625</LongitudeDegrees>
            </Position>
            <AltitudeMeters>804.20001220703125</AltitudeMeters>
            <DistanceMeters>NAN</DistanceMeters>
          </Trackpoint>
          <Trackpoint>
            <Time>2020-12-05T13:21:21.000Z</Time>
            <Position>
              <LatitudeDegrees>36.8187399767339229583740234375</LatitudeDegrees>
              <LongitudeDegrees>-4.3858246318995952606201171875</LongitudeDegrees>
            </Position>
            <AltitudeMeters>804.20001220703125</AltitudeMeters>
            <DistanceMeters>NAN</DistanceMeters>
          </Trackpoint>
          <Trackpoint>
            <Time>2020-12-05T13:21:22.000Z</Time>
            <Position>
              <LatitudeDegrees>36.81873746216297149658203125</LatitudeDegrees>
              <LongitudeDegrees>-4.38581365160644054412841796875</LongitudeDegrees>
            </Position>
            <AltitudeMeters>804.20001220703125</AltitudeMeters>
            <DistanceMeters>NAN</DistanceMeters>
          </Trackpoint>
          <Trackpoint>
            <Time>2020-12-05T13:21:23.000Z</Time>
            <Position>
              <LatitudeDegrees>36.81873612105846405029296875</LatitudeDegrees>
              <LongitudeDegrees>-4.38580359332263469696044921875</LongitudeDegrees>
            </Position>
            <AltitudeMeters>804.20001220703125</AltitudeMeters>
            <DistanceMeters>NAN</DistanceMeters>
          </Trackpoint>
          <Trackpoint>
            <Time>2020-12-05T13:21:24.000Z</Time>
            <Position>
              <LatitudeDegrees>36.81873670779168605804443359375</LatitudeDegrees>
              <LongitudeDegrees>-4.38579537905752658843994140625</LongitudeDegrees>
            </Position>
            <AltitudeMeters>804.20001220703125</AltitudeMeters>
            <DistanceMeters>NAN</DistanceMeters>
          </Trackpoint>
          <Trackpoint>
            <Time>2020-12-05T13:21:25.000Z</Time>
            <Position>
              <LatitudeDegrees>36.81873553432524204254150390625</LatitudeDegrees>
              <LongitudeDegrees>-4.38578783534467220306396484375</LongitudeDegrees>
            </Position>
            <AltitudeMeters>804.20001220703125</AltitudeMeters>
            <DistanceMeters>NAN</DistanceMeters>
          </Trackpoint>
          <Trackpoint>
            <Time>2020-12-05T13:21:26.000Z</Time>
            <Position>
              <LatitudeDegrees>36.8187332712113857269287109375</LatitudeDegrees>
              <LongitudeDegrees>-4.385776519775390625</LongitudeDegrees>
            </Position>
            <AltitudeMeters>804.20001220703125</AltitudeMeters>
            <DistanceMeters>NAN</DistanceMeters>
          </Trackpoint>
          <Trackpoint>
            <Time>2020-12-05T13:21:27.000Z</Time>
            <Position>
              <LatitudeDegrees>36.8187332712113857269287109375</LatitudeDegrees>
              <LongitudeDegrees>-4.385762102901935577392578125</LongitudeDegrees>
            </Position>
            <AltitudeMeters>804.20001220703125</AltitudeMeters>
            <DistanceMeters>NAN</DistanceMeters>
          </Trackpoint>
          <Trackpoint>
            <Time>2020-12-05T13:21:28.000Z</Time>
            <Position>
              <LatitudeDegrees>36.81873620487749576568603515625</LatitudeDegrees>
              <LongitudeDegrees>-4.38574475236237049102783203125</LongitudeDegrees>
            </Position>
            <AltitudeMeters>804.20001220703125</AltitudeMeters>
            <DistanceMeters>NAN</DistanceMeters>
          </Trackpoint>
          <Trackpoint>
            <Time>2020-12-05T13:21:29.000Z</Time>
            <Position>
              <LatitudeDegrees>36.818734109401702880859375</LatitudeDegrees>
              <LongitudeDegrees>-4.38572916202247142791748046875</LongitudeDegrees>
            </Position>
            <AltitudeMeters>804.20001220703125</AltitudeMeters>
            <DistanceMeters>NAN</DistanceMeters>
          </Trackpoint>
          <Trackpoint>
            <Time>2020-12-05T13:21:30.000Z</Time>
            <Position>
              <LatitudeDegrees>36.818731762468814849853515625</LatitudeDegrees>
              <LongitudeDegrees>-4.3857134878635406494140625</LongitudeDegrees>
            </Position>
            <AltitudeMeters>804.20001220703125</AltitudeMeters>
            <DistanceMeters>NAN</DistanceMeters>
          </Trackpoint>
          <Trackpoint>
            <Time>2020-12-05T13:21:31.000Z</Time>
            <Position>
              <LatitudeDegrees>36.81872933171689510345458984375</LatitudeDegrees>
              <LongitudeDegrees>-4.38570099882781505584716796875</LongitudeDegrees>
            </Position>
            <AltitudeMeters>804.20001220703125</AltitudeMeters>
            <DistanceMeters>NAN</DistanceMeters>
          </Trackpoint>
          <Trackpoint>
            <Time>2020-12-05T13:21:32.000Z</Time>
            <Position>
              <LatitudeDegrees>36.81872748769819736480712890625</LatitudeDegrees>
              <LongitudeDegrees>-4.3856878392398357391357421875</LongitudeDegrees>
            </Position>
            <AltitudeMeters>804.20001220703125</AltitudeMeters>
            <DistanceMeters>NAN</DistanceMeters>
          </Trackpoint>
          <Trackpoint>
            <Time>2020-12-05T13:21:33.000Z</Time>
            <Position>
              <LatitudeDegrees>36.8187242187559604644775390625</LatitudeDegrees>
              <LongitudeDegrees>-4.38567635603249073028564453125</LongitudeDegrees>
            </Position>
            <AltitudeMeters>804.20001220703125</AltitudeMeters>
            <DistanceMeters>NAN</DistanceMeters>
          </Trackpoint>
          <Trackpoint>
            <Time>2020-12-05T13:21:34.000Z</Time>
            <Position>
              <LatitudeDegrees>36.81871877051889896392822265625</LatitudeDegrees>
              <LongitudeDegrees>-4.3856663815677165985107421875</LongitudeDegrees>
            </Position>
            <AltitudeMeters>804.20001220703125</AltitudeMeters>
            <DistanceMeters>NAN</DistanceMeters>
          </Trackpoint>
          <Trackpoint>
            <Time>2020-12-05T13:21:35.000Z</Time>
            <Position>
              <LatitudeDegrees>36.818711645901203155517578125</LatitudeDegrees>
              <LongitudeDegrees>-4.38565338961780071258544921875</LongitudeDegrees>
            </Position>
            <AltitudeMeters>804.20001220703125</AltitudeMeters>
            <DistanceMeters>NAN</DistanceMeters>
          </Trackpoint>
          <Trackpoint>
            <Time>2020-12-05T13:21:36.000Z</Time>
            <Position>
              <LatitudeDegrees>36.8187030963599681854248046875</LatitudeDegrees>
              <LongitudeDegrees>-4.38564240932464599609375</LongitudeDegrees>
            </Position>
            <AltitudeMeters>804.20001220703125</AltitudeMeters>
            <DistanceMeters>NAN</DistanceMeters>
          </Trackpoint>
          <Trackpoint>
            <Time>2020-12-05T13:21:37.000Z</Time>
            <Position>
              <LatitudeDegrees>36.8186943791806697845458984375</LatitudeDegrees>
              <LongitudeDegrees>-4.385632686316967010498046875</LongitudeDegrees>
            </Position>
            <AltitudeMeters>804.20001220703125</AltitudeMeters>
            <DistanceMeters>NAN</DistanceMeters>
          </Trackpoint>
          <Trackpoint>
            <Time>2020-12-05T13:21:38.000Z</Time>
            <Position>
              <LatitudeDegrees>36.81868574582040309906005859375</LatitudeDegrees>
              <LongitudeDegrees>-4.38562388531863689422607421875</LongitudeDegrees>
            </Position>
            <AltitudeMeters>804.20001220703125</AltitudeMeters>
            <DistanceMeters>NAN</DistanceMeters>
          </Trackpoint>
          <Trackpoint>
            <Time>2020-12-05T13:21:39.000Z</Time>
            <Position>
              <LatitudeDegrees>36.81867669336497783660888671875</LatitudeDegrees>
              <LongitudeDegrees>-4.385613910853862762451171875</LongitudeDegrees>
            </Position>
            <AltitudeMeters>804.20001220703125</AltitudeMeters>
            <DistanceMeters>NAN</DistanceMeters>
          </Trackpoint>
          <Trackpoint>
            <Time>2020-12-05T13:21:40.000Z</Time>
            <Position>
              <LatitudeDegrees>36.818669401109218597412109375</LatitudeDegrees>
              <LongitudeDegrees>-4.3856048583984375</LongitudeDegrees>
            </Position>
            <AltitudeMeters>804.20001220703125</AltitudeMeters>
            <DistanceMeters>NAN</DistanceMeters>
          </Trackpoint>
          <Trackpoint>
            <Time>2020-12-05T13:21:41.000Z</Time>
            <Position>
              <LatitudeDegrees>36.81866311468183994293212890625</LatitudeDegrees>
              <LongitudeDegrees>-4.385591447353363037109375</LongitudeDegrees>
            </Position>
            <AltitudeMeters>804.20001220703125</AltitudeMeters>
            <DistanceMeters>NAN</DistanceMeters>
          </Trackpoint>
          <Trackpoint>
            <Time>2020-12-05T13:21:42.000Z</Time>
            <Position>
              <LatitudeDegrees>36.8186551518738269805908203125</LatitudeDegrees>
              <LongitudeDegrees>-4.3855785392224788665771484375</LongitudeDegrees>
            </Position>
            <AltitudeMeters>804.20001220703125</AltitudeMeters>
            <DistanceMeters>NAN</DistanceMeters>
          </Trackpoint>
          <Trackpoint>
            <Time>2020-12-05T13:21:43.000Z</Time>
            <Position>
              <LatitudeDegrees>36.81864894926548004150390625</LatitudeDegrees>
              <LongitudeDegrees>-4.38557007350027561187744140625</LongitudeDegrees>
            </Position>
            <AltitudeMeters>804.20001220703125</AltitudeMeters>
            <DistanceMeters>NAN</DistanceMeters>
          </Trackpoint>
          <Trackpoint>
            <Time>2020-12-05T13:21:44.000Z</Time>
            <Position>
              <LatitudeDegrees>36.81864299811422824859619140625</LatitudeDegrees>
              <LongitudeDegrees>-4.38555859029293060302734375</LongitudeDegrees>
            </Position>
            <AltitudeMeters>804.20001220703125</AltitudeMeters>
            <DistanceMeters>NAN</DistanceMeters>
          </Trackpoint>
          <Trackpoint>
            <Time>2020-12-05T13:21:45.000Z</Time>
            <Position>
              <LatitudeDegrees>36.818636544048786163330078125</LatitudeDegrees>
              <LongitudeDegrees>-4.385549537837505340576171875</LongitudeDegrees>
            </Position>
            <AltitudeMeters>804.20001220703125</AltitudeMeters>
            <DistanceMeters>NAN</DistanceMeters>
          </Trackpoint>
          <Trackpoint>
            <Time>2020-12-05T13:21:46.000Z</Time>
            <Position>
              <LatitudeDegrees>36.818629838526248931884765625</LatitudeDegrees>
              <LongitudeDegrees>-4.3855419941246509552001953125</LongitudeDegrees>
            </Position>
            <AltitudeMeters>804.20001220703125</AltitudeMeters>
            <DistanceMeters>NAN</DistanceMeters>
          </Trackpoint>
          <Trackpoint>
            <Time>2020-12-05T13:21:47.000Z</Time>
            <Position>
              <LatitudeDegrees>36.81862304918467998504638671875</LatitudeDegrees>
              <LongitudeDegrees>-4.38553704880177974700927734375</LongitudeDegrees>
            </Position>
            <AltitudeMeters>804.20001220703125</AltitudeMeters>
            <DistanceMeters>NAN</DistanceMeters>
          </Trackpoint>
          <Trackpoint>
            <Time>2020-12-05T13:21:48.000Z</Time>
            <Position>
              <LatitudeDegrees>36.81861542165279388427734375</LatitudeDegrees>
              <LongitudeDegrees>-4.385532438755035400390625</LongitudeDegrees>
            </Position>
            <AltitudeMeters>804.20001220703125</AltitudeMeters>
            <DistanceMeters>NAN</DistanceMeters>
          </Trackpoint>
          <Trackpoint>
            <Time>2020-12-05T13:21:49.000Z</Time>
            <Position>
              <LatitudeDegrees>36.81860695593059062957763671875</LatitudeDegrees>
              <LongitudeDegrees>-4.38552816398441791534423828125</LongitudeDegrees>
            </Position>
            <AltitudeMeters>804.20001220703125</AltitudeMeters>
            <DistanceMeters>NAN</DistanceMeters>
          </Trackpoint>
          <Trackpoint>
            <Time>2020-12-05T13:21:50.000Z</Time>
            <Position>
              <LatitudeDegrees>36.81859656237065792083740234375</LatitudeDegrees>
              <LongitudeDegrees>-4.38552103936672210693359375</LongitudeDegrees>
            </Position>
            <AltitudeMeters>804.20001220703125</AltitudeMeters>
            <DistanceMeters>NAN</DistanceMeters>
          </Trackpoint>
          <Trackpoint>
            <Time>2020-12-05T13:21:51.000Z</Time>
            <Position>
              <LatitudeDegrees>36.8185860849916934967041015625</LatitudeDegrees>
              <LongitudeDegrees>-4.3855123221874237060546875</LongitudeDegrees>
            </Position>
            <AltitudeMeters>804.20001220703125</AltitudeMeters>
            <DistanceMeters>NAN</DistanceMeters>
          </Trackpoint>
          <Trackpoint>
            <Time>2020-12-05T13:21:52.000Z</Time>
            <Position>
              <LatitudeDegrees>36.818577535450458526611328125</LatitudeDegrees>
              <LongitudeDegrees>-4.38550167717039585113525390625</LongitudeDegrees>
            </Position>
            <AltitudeMeters>804.20001220703125</AltitudeMeters>
            <DistanceMeters>NAN</DistanceMeters>
          </Trackpoint>
          <Trackpoint>
            <Time>2020-12-05T13:21:53.000Z</Time>
            <Position>
              <LatitudeDegrees>36.81856982409954071044921875</LatitudeDegrees>
              <LongitudeDegrees>-4.385490529239177703857421875</LongitudeDegrees>
            </Position>
            <AltitudeMeters>804.20001220703125</AltitudeMeters>
            <DistanceMeters>NAN</DistanceMeters>
          </Trackpoint>
          <Trackpoint>
            <Time>2020-12-05T13:21:54.000Z</Time>
            <Position>
              <LatitudeDegrees>36.818563453853130340576171875</LatitudeDegrees>
              <LongitudeDegrees>-4.38547804020345211029052734375</LongitudeDegrees>
            </Position>
            <AltitudeMeters>804.20001220703125</AltitudeMeters>
            <DistanceMeters>NAN</DistanceMeters>
          </Trackpoint>
          <Trackpoint>
            <Time>2020-12-05T13:21:55.000Z</Time>
            <Position>
              <LatitudeDegrees>36.81855699978768825531005859375</LatitudeDegrees>
              <LongitudeDegrees>-4.3854665569961071014404296875</LongitudeDegrees>
            </Position>
            <AltitudeMeters>804.20001220703125</AltitudeMeters>
            <DistanceMeters>NAN</DistanceMeters>
          </Trackpoint>
          <Trackpoint>
            <Time>2020-12-05T13:21:56.000Z</Time>
            <Position>
              <LatitudeDegrees>36.81854979135096073150634765625</LatitudeDegrees>
              <LongitudeDegrees>-4.38545289449393749237060546875</LongitudeDegrees>
            </Position>
            <AltitudeMeters>804.20001220703125</AltitudeMeters>
            <DistanceMeters>NAN</DistanceMeters>
          </Trackpoint>
          <Trackpoint>
            <Time>2020-12-05T13:21:57.000Z</Time>
            <Position>
              <LatitudeDegrees>36.81854090653359889984130859375</LatitudeDegrees>
              <LongitudeDegrees>-4.38543747179210186004638671875</LongitudeDegrees>
            </Position>
            <AltitudeMeters>804.20001220703125</AltitudeMeters>
            <DistanceMeters>NAN</DistanceMeters>
          </Trackpoint>
          <Trackpoint>
            <Time>2020-12-05T13:21:58.000Z</Time>
            <Position>
              <LatitudeDegrees>36.8185367994010448455810546875</LatitudeDegrees>
              <LongitudeDegrees>-4.385422803461551666259765625</LongitudeDegrees>
            </Position>
            <AltitudeMeters>804.20001220703125</AltitudeMeters>
            <DistanceMeters>NAN</DistanceMeters>
          </Trackpoint>
          <Trackpoint>
            <Time>2020-12-05T13:21:59.000Z</Time>
            <Position>
              <LatitudeDegrees>36.8185300938785076141357421875</LatitudeDegrees>
              <LongitudeDegrees>-4.38541165553033351898193359375</LongitudeDegrees>
            </Position>
            <AltitudeMeters>804.20001220703125</AltitudeMeters>
            <DistanceMeters>NAN</DistanceMeters>
          </Trackpoint>
          <Trackpoint>
            <Time>2020-12-05T13:22:00.000Z</Time>
            <Position>
              <LatitudeDegrees>36.818523220717906951904296875</LatitudeDegrees>
              <LongitudeDegrees>-4.38540109433233737945556640625</LongitudeDegrees>
            </Position>
            <AltitudeMeters>804.20001220703125</AltitudeMeters>
            <DistanceMeters>NAN</DistanceMeters>
          </Trackpoint>
          <Trackpoint>
            <Time>2020-12-05T13:22:01.000Z</Time>
            <Position>
              <LatitudeDegrees>36.8185176886618137359619140625</LatitudeDegrees>
              <LongitudeDegrees>-4.3853921256959438323974609375</LongitudeDegrees>
            </Position>
            <AltitudeMeters>804.20001220703125</AltitudeMeters>
            <DistanceMeters>NAN</DistanceMeters>
          </Trackpoint>
          <Trackpoint>
            <Time>2020-12-05T13:22:02.000Z</Time>
            <Position>
              <LatitudeDegrees>36.81851911358535289764404296875</LatitudeDegrees>
              <LongitudeDegrees>-4.38537645153701305389404296875</LongitudeDegrees>
            </Position>
            <AltitudeMeters>804.20001220703125</AltitudeMeters>
            <DistanceMeters>NAN</DistanceMeters>
          </Trackpoint>
          <Trackpoint>
            <Time>2020-12-05T13:22:03.000Z</Time>
            <Position>
              <LatitudeDegrees>36.81851827539503574371337890625</LatitudeDegrees>
              <LongitudeDegrees>-4.385363794863224029541015625</LongitudeDegrees>
            </Position>
            <AltitudeMeters>804.20001220703125</AltitudeMeters>
            <DistanceMeters>NAN</DistanceMeters>
          </Trackpoint>
          <Trackpoint>
            <Time>2020-12-05T13:22:04.000Z</Time>
            <Position>
              <LatitudeDegrees>36.81852020323276519775390625</LatitudeDegrees>
              <LongitudeDegrees>-4.38534812070429325103759765625</LongitudeDegrees>
            </Position>
            <AltitudeMeters>804.20001220703125</AltitudeMeters>
            <DistanceMeters>NAN</DistanceMeters>
          </Trackpoint>
          <Trackpoint>
            <Time>2020-12-05T13:22:05.000Z</Time>
            <Position>
              <LatitudeDegrees>36.8185257352888584136962890625</LatitudeDegrees>
              <LongitudeDegrees>-4.3853304348886013031005859375</LongitudeDegrees>
            </Position>
            <AltitudeMeters>804.20001220703125</AltitudeMeters>
            <DistanceMeters>NAN</DistanceMeters>
          </Trackpoint>
          <Trackpoint>
            <Time>2020-12-05T13:22:06.000Z</Time>
            <Position>
              <LatitudeDegrees>36.81852950714528560638427734375</LatitudeDegrees>
              <LongitudeDegrees>-4.385315515100955963134765625</LongitudeDegrees>
            </Position>
            <AltitudeMeters>804.20001220703125</AltitudeMeters>
            <DistanceMeters>NAN</DistanceMeters>
          </Trackpoint>
          <Trackpoint>
            <Time>2020-12-05T13:22:07.000Z</Time>
            <Position>
              <LatitudeDegrees>36.81853151880204677581787109375</LatitudeDegrees>
              <LongitudeDegrees>-4.38530084677040576934814453125</LongitudeDegrees>
            </Position>
            <AltitudeMeters>804.20001220703125</AltitudeMeters>
            <DistanceMeters>NAN</DistanceMeters>
          </Trackpoint>
          <Trackpoint>
            <Time>2020-12-05T13:22:08.000Z</Time>
            <Position>
              <LatitudeDegrees>36.81853051297366619110107421875</LatitudeDegrees>
              <LongitudeDegrees>-4.3852885253727436065673828125</LongitudeDegrees>
            </Position>
            <AltitudeMeters>804.20001220703125</AltitudeMeters>
            <DistanceMeters>NAN</DistanceMeters>
          </Trackpoint>
          <Trackpoint>
            <Time>2020-12-05T13:22:09.000Z</Time>
            <Position>
              <LatitudeDegrees>36.818528585135936737060546875</LatitudeDegrees>
              <LongitudeDegrees>-4.38528073020279407501220703125</LongitudeDegrees>
            </Position>
            <AltitudeMeters>804.20001220703125</AltitudeMeters>
            <DistanceMeters>NAN</DistanceMeters>
          </Trackpoint>
          <Trackpoint>
            <Time>2020-12-05T13:22:10.000Z</Time>
            <Position>
              <LatitudeDegrees>36.8185284174978733062744140625</LatitudeDegrees>
              <LongitudeDegrees>-4.38526916317641735076904296875</LongitudeDegrees>
            </Position>
            <AltitudeMeters>804.20001220703125</AltitudeMeters>
            <DistanceMeters>NAN</DistanceMeters>
          </Trackpoint>
          <Trackpoint>
            <Time>2020-12-05T13:22:11.000Z</Time>
            <Position>
              <LatitudeDegrees>36.8185264058411121368408203125</LatitudeDegrees>
              <LongitudeDegrees>-4.38525290228426456451416015625</LongitudeDegrees>
            </Position>
            <AltitudeMeters>804.20001220703125</AltitudeMeters>
            <DistanceMeters>NAN</DistanceMeters>
          </Trackpoint>
          <Trackpoint>
            <Time>2020-12-05T13:22:12.000Z</Time>
            <Position>
              <LatitudeDegrees>36.8185280822217464447021484375</LatitudeDegrees>
              <LongitudeDegrees>-4.38523630611598491668701171875</LongitudeDegrees>
            </Position>
            <AltitudeMeters>804.20001220703125</AltitudeMeters>
            <DistanceMeters>NAN</DistanceMeters>
          </Trackpoint>
          <Trackpoint>
            <Time>2020-12-05T13:22:13.000Z</Time>
            <Position>
              <LatitudeDegrees>36.81852732785046100616455078125</LatitudeDegrees>
              <LongitudeDegrees>-4.385221637785434722900390625</LongitudeDegrees>
            </Position>
            <AltitudeMeters>804.20001220703125</AltitudeMeters>
            <DistanceMeters>NAN</DistanceMeters>
          </Trackpoint>
          <Trackpoint>
            <Time>2020-12-05T13:22:14.000Z</Time>
            <Position>
              <LatitudeDegrees>36.818524897098541259765625</LatitudeDegrees>
              <LongitudeDegrees>-4.38520587980747222900390625</LongitudeDegrees>
            </Position>
            <AltitudeMeters>804.20001220703125</AltitudeMeters>
            <DistanceMeters>NAN</DistanceMeters>
          </Trackpoint>
          <Trackpoint>
            <Time>2020-12-05T13:22:15.000Z</Time>
            <Position>
              <LatitudeDegrees>36.81852154433727264404296875</LatitudeDegrees>
              <LongitudeDegrees>-4.38518584705889225006103515625</LongitudeDegrees>
            </Position>
            <AltitudeMeters>804.20001220703125</AltitudeMeters>
            <DistanceMeters>NAN</DistanceMeters>
          </Trackpoint>
          <Trackpoint>
            <Time>2020-12-05T13:22:16.000Z</Time>
            <Position>
              <LatitudeDegrees>36.818518526852130889892578125</LatitudeDegrees>
              <LongitudeDegrees>-4.385169334709644317626953125</LongitudeDegrees>
            </Position>
            <AltitudeMeters>804.20001220703125</AltitudeMeters>
            <DistanceMeters>NAN</DistanceMeters>
          </Trackpoint>
          <Trackpoint>
            <Time>2020-12-05T13:22:17.000Z</Time>
            <Position>
              <LatitudeDegrees>36.81851559318602085113525390625</LatitudeDegrees>
              <LongitudeDegrees>-4.38515014015138149261474609375</LongitudeDegrees>
            </Position>
            <AltitudeMeters>804.20001220703125</AltitudeMeters>
            <DistanceMeters>NAN</DistanceMeters>
          </Trackpoint>
          <Trackpoint>
            <Time>2020-12-05T13:22:18.000Z</Time>
            <Position>
              <LatitudeDegrees>36.81851341389119625091552734375</LatitudeDegrees>
              <LongitudeDegrees>-4.385129772126674652099609375</LongitudeDegrees>
            </Position>
            <AltitudeMeters>804.20001220703125</AltitudeMeters>
            <DistanceMeters>NAN</DistanceMeters>
          </Trackpoint>
          <Trackpoint>
            <Time>2020-12-05T13:22:19.000Z</Time>
            <Position>
              <LatitudeDegrees>36.8185086362063884735107421875</LatitudeDegrees>
              <LongitudeDegrees>-4.38511208631098270416259765625</LongitudeDegrees>
            </Position>
            <AltitudeMeters>804.20001220703125</AltitudeMeters>
            <DistanceMeters>NAN</DistanceMeters>
          </Trackpoint>
          <Trackpoint>
            <Time>2020-12-05T13:22:20.000Z</Time>
            <Position>
              <LatitudeDegrees>36.81850587017834186553955078125</LatitudeDegrees>
              <LongitudeDegrees>-4.38509699888527393341064453125</LongitudeDegrees>
            </Position>
            <AltitudeMeters>804.20001220703125</AltitudeMeters>
            <DistanceMeters>NAN</DistanceMeters>
          </Trackpoint>
          <Trackpoint>
            <Time>2020-12-05T13:22:21.000Z</Time>
            <Position>
              <LatitudeDegrees>36.81850402615964412689208984375</LatitudeDegrees>
              <LongitudeDegrees>-4.3850850127637386322021484375</LongitudeDegrees>
            </Position>
            <AltitudeMeters>804.20001220703125</AltitudeMeters>
            <DistanceMeters>NAN</DistanceMeters>
          </Trackpoint>
          <Trackpoint>
            <Time>2020-12-05T13:22:22.000Z</Time>
            <Position>
              <LatitudeDegrees>36.8185032717883586883544921875</LatitudeDegrees>
              <LongitudeDegrees>-4.38507378101348876953125</LongitudeDegrees>
            </Position>
            <AltitudeMeters>804.20001220703125</AltitudeMeters>
            <DistanceMeters>NAN</DistanceMeters>
          </Trackpoint>
          <Trackpoint>
            <Time>2020-12-05T13:22:23.000Z</Time>
            <Position>
              <LatitudeDegrees>36.81850419379770755767822265625</LatitudeDegrees>
              <LongitudeDegrees>-4.38506162725389003753662109375</LongitudeDegrees>
            </Position>
            <AltitudeMeters>804.20001220703125</AltitudeMeters>
            <DistanceMeters>NAN</DistanceMeters>
          </Trackpoint>
          <Trackpoint>
            <Time>2020-12-05T13:22:24.000Z</Time>
            <Position>
              <LatitudeDegrees>36.8185056187212467193603515625</LatitudeDegrees>
              <LongitudeDegrees>-4.3850494734942913055419921875</LongitudeDegrees>
            </Position>
            <AltitudeMeters>804.20001220703125</AltitudeMeters>
            <DistanceMeters>NAN</DistanceMeters>
          </Trackpoint>
          <Trackpoint>
            <Time>2020-12-05T13:22:25.000Z</Time>
            <Position>
              <LatitudeDegrees>36.81850721128284931182861328125</LatitudeDegrees>
              <LongitudeDegrees>-4.3850397504866123199462890625</LongitudeDegrees>
            </Position>
            <AltitudeMeters>804.20001220703125</AltitudeMeters>
            <DistanceMeters>NAN</DistanceMeters>
          </Trackpoint>
          <Trackpoint>
            <Time>2020-12-05T13:22:26.000Z</Time>
            <Position>
              <LatitudeDegrees>36.8185093067586421966552734375</LatitudeDegrees>
              <LongitudeDegrees>-4.3850323744118213653564453125</LongitudeDegrees>
            </Position>
            <AltitudeMeters>804.20001220703125</AltitudeMeters>
            <DistanceMeters>NAN</DistanceMeters>
          </Trackpoint>
          <Trackpoint>
            <Time>2020-12-05T13:22:27.000Z</Time>
            <Position>
              <LatitudeDegrees>36.81851106695830821990966796875</LatitudeDegrees>
              <LongitudeDegrees>-4.38502592034637928009033203125</LongitudeDegrees>
            </Position>
            <AltitudeMeters>804.20001220703125</AltitudeMeters>
            <DistanceMeters>NAN</DistanceMeters>
          </Trackpoint>
          <Trackpoint>
            <Time>2020-12-05T13:22:28.000Z</Time>
            <Position>
              <LatitudeDegrees>36.81851576082408428192138671875</LatitudeDegrees>
              <LongitudeDegrees>-4.38502038829028606414794921875</LongitudeDegrees>
            </Position>
            <AltitudeMeters>804.20001220703125</AltitudeMeters>
            <DistanceMeters>NAN</DistanceMeters>
          </Trackpoint>
          <Trackpoint>
            <Time>2020-12-05T13:22:29.000Z</Time>
            <Position>
              <LatitudeDegrees>36.81852020323276519775390625</LatitudeDegrees>
              <LongitudeDegrees>-4.38501016236841678619384765625</LongitudeDegrees>
            </Position>
            <AltitudeMeters>804.20001220703125</AltitudeMeters>
            <DistanceMeters>NAN</DistanceMeters>
          </Trackpoint>
          <Trackpoint>
            <Time>2020-12-05T13:22:30.000Z</Time>
            <Position>
              <LatitudeDegrees>36.81853017769753932952880859375</LatitudeDegrees>
              <LongitudeDegrees>-4.38499264419078826904296875</LongitudeDegrees>
            </Position>
            <AltitudeMeters>804.20001220703125</AltitudeMeters>
            <DistanceMeters>NAN</DistanceMeters>
          </Trackpoint>
          <Trackpoint>
            <Time>2020-12-05T13:22:31.000Z</Time>
            <Position>
              <LatitudeDegrees>36.81853621266782283782958984375</LatitudeDegrees>
              <LongitudeDegrees>-4.384978227317333221435546875</LongitudeDegrees>
            </Position>
            <AltitudeMeters>804.20001220703125</AltitudeMeters>
            <DistanceMeters>NAN</DistanceMeters>
          </Trackpoint>
          <Trackpoint>
            <Time>2020-12-05T13:22:32.000Z</Time>
            <Position>
              <LatitudeDegrees>36.81854492984712123870849609375</LatitudeDegrees>
              <LongitudeDegrees>-4.3849629722535610198974609375</LongitudeDegrees>
            </Position>
            <AltitudeMeters>804.20001220703125</AltitudeMeters>
            <DistanceMeters>NAN</DistanceMeters>
          </Trackpoint>
          <Trackpoint>
            <Time>2020-12-05T13:22:33.000Z</Time>
            <Position>
              <LatitudeDegrees>36.81855817325413227081298828125</LatitudeDegrees>
              <LongitudeDegrees>-4.38494947738945484161376953125</LongitudeDegrees>
            </Position>
            <AltitudeMeters>804.20001220703125</AltitudeMeters>
            <DistanceMeters>NAN</DistanceMeters>
          </Trackpoint>
          <Trackpoint>
            <Time>2020-12-05T13:22:34.000Z</Time>
            <Position>
              <LatitudeDegrees>36.81856940500438213348388671875</LatitudeDegrees>
              <LongitudeDegrees>-4.38493707217276096343994140625</LongitudeDegrees>
            </Position>
            <AltitudeMeters>804.20001220703125</AltitudeMeters>
            <DistanceMeters>NAN</DistanceMeters>
          </Trackpoint>
          <Trackpoint>
            <Time>2020-12-05T13:22:35.000Z</Time>
            <Position>
              <LatitudeDegrees>36.81857678107917308807373046875</LatitudeDegrees>
              <LongitudeDegrees>-4.38492064364254474639892578125</LongitudeDegrees>
            </Position>
            <AltitudeMeters>804.20001220703125</AltitudeMeters>
            <DistanceMeters>NAN</DistanceMeters>
          </Trackpoint>
          <Trackpoint>
            <Time>2020-12-05T13:22:36.000Z</Time>
            <Position>
              <LatitudeDegrees>36.81858750991523265838623046875</LatitudeDegrees>
              <LongitudeDegrees>-4.38490505330264568328857421875</LongitudeDegrees>
            </Position>
            <AltitudeMeters>804.20001220703125</AltitudeMeters>
            <DistanceMeters>NAN</DistanceMeters>
          </Trackpoint>
          <Trackpoint>
            <Time>2020-12-05T13:22:37.000Z</Time>
            <Position>
              <LatitudeDegrees>36.81860041804611682891845703125</LatitudeDegrees>
              <LongitudeDegrees>-4.3848875351250171661376953125</LongitudeDegrees>
            </Position>
            <AltitudeMeters>804.20001220703125</AltitudeMeters>
            <DistanceMeters>NAN</DistanceMeters>
          </Trackpoint>
          <Trackpoint>
            <Time>2020-12-05T13:22:38.000Z</Time>
            <Position>
              <LatitudeDegrees>36.81861030869185924530029296875</LatitudeDegrees>
              <LongitudeDegrees>-4.3848707713186740875244140625</LongitudeDegrees>
            </Position>
            <AltitudeMeters>804.20001220703125</AltitudeMeters>
            <DistanceMeters>NAN</DistanceMeters>
          </Trackpoint>
          <Trackpoint>
            <Time>2020-12-05T13:22:39.000Z</Time>
            <Position>
              <LatitudeDegrees>36.81861449964344501495361328125</LatitudeDegrees>
              <LongitudeDegrees>-4.38485853374004364013671875</LongitudeDegrees>
            </Position>
            <AltitudeMeters>804.20001220703125</AltitudeMeters>
            <DistanceMeters>NAN</DistanceMeters>
          </Trackpoint>
          <Trackpoint>
            <Time>2020-12-05T13:22:40.000Z</Time>
            <Position>
              <LatitudeDegrees>36.8186187744140625</LatitudeDegrees>
              <LongitudeDegrees>-4.3848432786762714385986328125</LongitudeDegrees>
            </Position>
            <AltitudeMeters>804.20001220703125</AltitudeMeters>
            <DistanceMeters>NAN</DistanceMeters>
          </Trackpoint>
          <Trackpoint>
            <Time>2020-12-05T13:22:41.000Z</Time>
            <Position>
              <LatitudeDegrees>36.818625144660472869873046875</LatitudeDegrees>
              <LongitudeDegrees>-4.384826011955738067626953125</LongitudeDegrees>
            </Position>
            <AltitudeMeters>804.20001220703125</AltitudeMeters>
            <DistanceMeters>NAN</DistanceMeters>
          </Trackpoint>
          <Trackpoint>
            <Time>2020-12-05T13:22:42.000Z</Time>
            <Position>
              <LatitudeDegrees>36.81862304918467998504638671875</LatitudeDegrees>
              <LongitudeDegrees>-4.38480514101684093475341796875</LongitudeDegrees>
            </Position>
            <AltitudeMeters>804.20001220703125</AltitudeMeters>
            <DistanceMeters>NAN</DistanceMeters>
          </Trackpoint>
          <Trackpoint>
            <Time>2020-12-05T13:22:43.000Z</Time>
            <Position>
              <LatitudeDegrees>36.8186192773282527923583984375</LatitudeDegrees>
              <LongitudeDegrees>-4.3847832642495632171630859375</LongitudeDegrees>
            </Position>
            <AltitudeMeters>804.20001220703125</AltitudeMeters>
            <DistanceMeters>NAN</DistanceMeters>
          </Trackpoint>
          <Trackpoint>
            <Time>2020-12-05T13:22:44.000Z</Time>
            <Position>
              <LatitudeDegrees>36.81861408054828643798828125</LatitudeDegrees>
              <LongitudeDegrees>-4.384760297834873199462890625</LongitudeDegrees>
            </Position>
            <AltitudeMeters>804.20001220703125</AltitudeMeters>
            <DistanceMeters>NAN</DistanceMeters>
          </Trackpoint>
          <Trackpoint>
            <Time>2020-12-05T13:22:45.000Z</Time>
            <Position>
              <LatitudeDegrees>36.8186092190444469451904296875</LatitudeDegrees>
              <LongitudeDegrees>-4.38474076800048351287841796875</LongitudeDegrees>
            </Position>
            <AltitudeMeters>804.20001220703125</AltitudeMeters>
            <DistanceMeters>NAN</DistanceMeters>
          </Trackpoint>
          <Trackpoint>
            <Time>2020-12-05T13:22:46.000Z</Time>
            <Position>
              <LatitudeDegrees>36.81860494427382946014404296875</LatitudeDegrees>
              <LongitudeDegrees>-4.38472039997577667236328125</LongitudeDegrees>
            </Position>
            <AltitudeMeters>804.20001220703125</AltitudeMeters>
            <DistanceMeters>NAN</DistanceMeters>
          </Trackpoint>
          <Trackpoint>
            <Time>2020-12-05T13:22:47.000Z</Time>
            <Position>
              <LatitudeDegrees>36.8186008371412754058837890625</LatitudeDegrees>
              <LongitudeDegrees>-4.38470019958913326263427734375</LongitudeDegrees>
            </Position>
            <AltitudeMeters>804.20001220703125</AltitudeMeters>
            <DistanceMeters>NAN</DistanceMeters>
          </Trackpoint>
          <Trackpoint>
            <Time>2020-12-05T13:22:48.000Z</Time>
            <Position>
              <LatitudeDegrees>36.81859572418034076690673828125</LatitudeDegrees>
              <LongitudeDegrees>-4.38468410633504390716552734375</LongitudeDegrees>
            </Position>
            <AltitudeMeters>804.20001220703125</AltitudeMeters>
            <DistanceMeters>NAN</DistanceMeters>
          </Trackpoint>
          <Trackpoint>
            <Time>2020-12-05T13:22:49.000Z</Time>
            <Position>
              <LatitudeDegrees>36.81858885101974010467529296875</LatitudeDegrees>
              <LongitudeDegrees>-4.3846685998141765594482421875</LongitudeDegrees>
            </Position>
            <AltitudeMeters>804.20001220703125</AltitudeMeters>
            <DistanceMeters>NAN</DistanceMeters>
          </Trackpoint>
          <Trackpoint>
            <Time>2020-12-05T13:22:50.000Z</Time>
            <Position>
              <LatitudeDegrees>36.81858197785913944244384765625</LatitudeDegrees>
              <LongitudeDegrees>-4.3846484832465648651123046875</LongitudeDegrees>
            </Position>
            <AltitudeMeters>804.20001220703125</AltitudeMeters>
            <DistanceMeters>NAN</DistanceMeters>
          </Trackpoint>
          <Trackpoint>
            <Time>2020-12-05T13:22:51.000Z</Time>
            <Position>
              <LatitudeDegrees>36.81857393123209476470947265625</LatitudeDegrees>
              <LongitudeDegrees>-4.38462962396442890167236328125</LongitudeDegrees>
            </Position>
            <AltitudeMeters>804.20001220703125</AltitudeMeters>
            <DistanceMeters>NAN</DistanceMeters>
          </Trackpoint>
          <Trackpoint>
            <Time>2020-12-05T13:22:52.000Z</Time>
            <Position>
              <LatitudeDegrees>36.81856605224311351776123046875</LatitudeDegrees>
              <LongitudeDegrees>-4.38461017794907093048095703125</LongitudeDegrees>
            </Position>
            <AltitudeMeters>804.20001220703125</AltitudeMeters>
            <DistanceMeters>NAN</DistanceMeters>
          </Trackpoint>
          <Trackpoint>
            <Time>2020-12-05T13:22:53.000Z</Time>
            <Position>
              <LatitudeDegrees>36.818558759987354278564453125</LatitudeDegrees>
              <LongitudeDegrees>-4.3845924921333789825439453125</LongitudeDegrees>
            </Position>
            <AltitudeMeters>804.20001220703125</AltitudeMeters>
            <DistanceMeters>NAN</DistanceMeters>
          </Trackpoint>
          <Trackpoint>
            <Time>2020-12-05T13:22:54.000Z</Time>
            <Position>
              <LatitudeDegrees>36.81855130009353160858154296875</LatitudeDegrees>
              <LongitudeDegrees>-4.3845730461180210113525390625</LongitudeDegrees>
            </Position>
            <AltitudeMeters>804.20001220703125</AltitudeMeters>
            <DistanceMeters>NAN</DistanceMeters>
          </Trackpoint>
          <Trackpoint>
            <Time>2020-12-05T13:22:55.000Z</Time>
            <Position>
              <LatitudeDegrees>36.8185450136661529541015625</LatitudeDegrees>
              <LongitudeDegrees>-4.38455452211201190948486328125</LongitudeDegrees>
            </Position>
            <AltitudeMeters>804.20001220703125</AltitudeMeters>
            <DistanceMeters>NAN</DistanceMeters>
          </Trackpoint>
          <Trackpoint>
            <Time>2020-12-05T13:22:56.000Z</Time>
            <Position>
              <LatitudeDegrees>36.818539984524250030517578125</LatitudeDegrees>
              <LongitudeDegrees>-4.38453935086727142333984375</LongitudeDegrees>
            </Position>
            <AltitudeMeters>804.20001220703125</AltitudeMeters>
            <DistanceMeters>NAN</DistanceMeters>
          </Trackpoint>
          <Trackpoint>
            <Time>2020-12-05T13:22:57.000Z</Time>
            <Position>
              <LatitudeDegrees>36.81853436864912509918212890625</LatitudeDegrees>
              <LongitudeDegrees>-4.38452661037445068359375</LongitudeDegrees>
            </Position>
            <AltitudeMeters>804.20001220703125</AltitudeMeters>
            <DistanceMeters>NAN</DistanceMeters>
          </Trackpoint>
          <Trackpoint>
            <Time>2020-12-05T13:22:58.000Z</Time>
            <Position>
              <LatitudeDegrees>36.81853051297366619110107421875</LatitudeDegrees>
              <LongitudeDegrees>-4.38451311551034450531005859375</LongitudeDegrees>
            </Position>
            <AltitudeMeters>804.20001220703125</AltitudeMeters>
            <DistanceMeters>NAN</DistanceMeters>
          </Trackpoint>
          <Trackpoint>
            <Time>2020-12-05T13:22:59.000Z</Time>
            <Position>
              <LatitudeDegrees>36.8185250647366046905517578125</LatitudeDegrees>
              <LongitudeDegrees>-4.38450037501752376556396484375</LongitudeDegrees>
            </Position>
            <AltitudeMeters>804.20001220703125</AltitudeMeters>
            <DistanceMeters>NAN</DistanceMeters>
          </Trackpoint>
          <Trackpoint>
            <Time>2020-12-05T13:23:00.000Z</Time>
            <Position>
              <LatitudeDegrees>36.81851886212825775146484375</LatitudeDegrees>
              <LongitudeDegrees>-4.38448796980082988739013671875</LongitudeDegrees>
            </Position>
            <AltitudeMeters>802.79998779296875</AltitudeMeters>
            <DistanceMeters>NAN</DistanceMeters>
          </Trackpoint>
          <Trackpoint>
            <Time>2020-12-05T13:23:01.000Z</Time>
            <Position>
              <LatitudeDegrees>36.81851156987249851226806640625</LatitudeDegrees>
              <LongitudeDegrees>-4.38447791151702404022216796875</LongitudeDegrees>
            </Position>
            <AltitudeMeters>802.79998779296875</AltitudeMeters>
            <DistanceMeters>NAN</DistanceMeters>
          </Trackpoint>
          <Trackpoint>
            <Time>2020-12-05T13:23:02.000Z</Time>
            <Position>
              <LatitudeDegrees>36.81850251741707324981689453125</LatitudeDegrees>
              <LongitudeDegrees>-4.3844670988619327545166015625</LongitudeDegrees>
            </Position>
            <AltitudeMeters>802.79998779296875</AltitudeMeters>
            <DistanceMeters>NAN</DistanceMeters>
          </Trackpoint>
          <Trackpoint>
            <Time>2020-12-05T13:23:03.000Z</Time>
            <Position>
              <LatitudeDegrees>36.8184932135045528411865234375</LatitudeDegrees>
              <LongitudeDegrees>-4.3844590522348880767822265625</LongitudeDegrees>
            </Position>
            <AltitudeMeters>802.79998779296875</AltitudeMeters>
            <DistanceMeters>NAN</DistanceMeters>
          </Trackpoint>
          <Trackpoint>
            <Time>2020-12-05T13:23:04.000Z</Time>
            <Position>
              <LatitudeDegrees>36.81848491542041301727294921875</LatitudeDegrees>
              <LongitudeDegrees>-4.384451173245906829833984375</LongitudeDegrees>
            </Position>
            <AltitudeMeters>802.79998779296875</AltitudeMeters>
            <DistanceMeters>NAN</DistanceMeters>
          </Trackpoint>
          <Trackpoint>
            <Time>2020-12-05T13:23:05.000Z</Time>
            <Position>
              <LatitudeDegrees>36.81847737170755863189697265625</LatitudeDegrees>
              <LongitudeDegrees>-4.38444522209465503692626953125</LongitudeDegrees>
            </Position>
            <AltitudeMeters>802.79998779296875</AltitudeMeters>
            <DistanceMeters>NAN</DistanceMeters>
          </Trackpoint>
          <Trackpoint>
            <Time>2020-12-05T13:23:06.000Z</Time>
            <Position>
              <LatitudeDegrees>36.8184694088995456695556640625</LatitudeDegrees>
              <LongitudeDegrees>-4.3844396062195301055908203125</LongitudeDegrees>
            </Position>
            <AltitudeMeters>802.79998779296875</AltitudeMeters>
            <DistanceMeters>NAN</DistanceMeters>
          </Trackpoint>
          <Trackpoint>
            <Time>2020-12-05T13:23:07.000Z</Time>
            <Position>
              <LatitudeDegrees>36.81846119463443756103515625</LatitudeDegrees>
              <LongitudeDegrees>-4.38443130813539028167724609375</LongitudeDegrees>
            </Position>
            <AltitudeMeters>802.79998779296875</AltitudeMeters>
            <DistanceMeters>NAN</DistanceMeters>
          </Trackpoint>
          <Trackpoint>
            <Time>2020-12-05T13:23:08.000Z</Time>
            <Position>
              <LatitudeDegrees>36.81845373474061489105224609375</LatitudeDegrees>
              <LongitudeDegrees>-4.384422339498996734619140625</LongitudeDegrees>
            </Position>
            <AltitudeMeters>802.79998779296875</AltitudeMeters>
            <DistanceMeters>NAN</DistanceMeters>
          </Trackpoint>
          <Trackpoint>
            <Time>2020-12-05T13:23:09.000Z</Time>
            <Position>
              <LatitudeDegrees>36.81844568811357021331787109375</LatitudeDegrees>
              <LongitudeDegrees>-4.38441404141485691070556640625</LongitudeDegrees>
            </Position>
            <AltitudeMeters>802.79998779296875</AltitudeMeters>
            <DistanceMeters>NAN</DistanceMeters>
          </Trackpoint>
          <Trackpoint>
            <Time>2020-12-05T13:23:10.000Z</Time>
            <Position>
              <LatitudeDegrees>36.81843747384846210479736328125</LatitudeDegrees>
              <LongitudeDegrees>-4.3844044022262096405029296875</LongitudeDegrees>
            </Position>
            <AltitudeMeters>802.79998779296875</AltitudeMeters>
            <DistanceMeters>NAN</DistanceMeters>
          </Trackpoint>
          <Trackpoint>
            <Time>2020-12-05T13:23:11.000Z</Time>
            <Position>
              <LatitudeDegrees>36.8184271641075611114501953125</LatitudeDegrees>
              <LongitudeDegrees>-4.3843960203230381011962890625</LongitudeDegrees>
            </Position>
            <AltitudeMeters>802.79998779296875</AltitudeMeters>
            <DistanceMeters>NAN</DistanceMeters>
          </Trackpoint>
          <Trackpoint>
            <Time>2020-12-05T13:23:12.000Z</Time>
            <Position>
              <LatitudeDegrees>36.81841987185180187225341796875</LatitudeDegrees>
              <LongitudeDegrees>-4.38438453711569309234619140625</LongitudeDegrees>
            </Position>
            <AltitudeMeters>802.79998779296875</AltitudeMeters>
            <DistanceMeters>NAN</DistanceMeters>
          </Trackpoint>
          <Trackpoint>
            <Time>2020-12-05T13:23:13.000Z</Time>
            <Position>
              <LatitudeDegrees>36.8184137530624866485595703125</LatitudeDegrees>
              <LongitudeDegrees>-4.38437380827963352203369140625</LongitudeDegrees>
            </Position>
            <AltitudeMeters>802.79998779296875</AltitudeMeters>
            <DistanceMeters>NAN</DistanceMeters>
          </Trackpoint>
          <Trackpoint>
            <Time>2020-12-05T13:23:14.000Z</Time>
            <Position>
              <LatitudeDegrees>36.81840847246348857879638671875</LatitudeDegrees>
              <LongitudeDegrees>-4.384364001452922821044921875</LongitudeDegrees>
            </Position>
            <AltitudeMeters>802.79998779296875</AltitudeMeters>
            <DistanceMeters>NAN</DistanceMeters>
          </Trackpoint>
          <Trackpoint>
            <Time>2020-12-05T13:23:15.000Z</Time>
            <Position>
              <LatitudeDegrees>36.8184036947786808013916015625</LatitudeDegrees>
              <LongitudeDegrees>-4.3843571282923221588134765625</LongitudeDegrees>
            </Position>
            <AltitudeMeters>802.79998779296875</AltitudeMeters>
            <DistanceMeters>NAN</DistanceMeters>
          </Trackpoint>
          <Trackpoint>
            <Time>2020-12-05T13:23:16.000Z</Time>
            <Position>
              <LatitudeDegrees>36.81839740835130214691162109375</LatitudeDegrees>
              <LongitudeDegrees>-4.38435017131268978118896484375</LongitudeDegrees>
            </Position>
            <AltitudeMeters>802.79998779296875</AltitudeMeters>
            <DistanceMeters>NAN</DistanceMeters>
          </Trackpoint>
          <Trackpoint>
            <Time>2020-12-05T13:23:17.000Z</Time>
            <Position>
              <LatitudeDegrees>36.8183899484574794769287109375</LatitudeDegrees>
              <LongitudeDegrees>-4.3843460641801357269287109375</LongitudeDegrees>
            </Position>
            <AltitudeMeters>802.79998779296875</AltitudeMeters>
            <DistanceMeters>NAN</DistanceMeters>
          </Trackpoint>
          <Trackpoint>
            <Time>2020-12-05T13:23:18.000Z</Time>
            <Position>
              <LatitudeDegrees>36.8183795548975467681884765625</LatitudeDegrees>
              <LongitudeDegrees>-4.384340532124042510986328125</LongitudeDegrees>
            </Position>
            <AltitudeMeters>802.79998779296875</AltitudeMeters>
            <DistanceMeters>NAN</DistanceMeters>
          </Trackpoint>
          <Trackpoint>
            <Time>2020-12-05T13:23:19.000Z</Time>
            <Position>
              <LatitudeDegrees>36.818364970386028289794921875</LatitudeDegrees>
              <LongitudeDegrees>-4.384335167706012725830078125</LongitudeDegrees>
            </Position>
            <AltitudeMeters>802.79998779296875</AltitudeMeters>
            <DistanceMeters>NAN</DistanceMeters>
          </Trackpoint>
          <Trackpoint>
            <Time>2020-12-05T13:23:20.000Z</Time>
            <Position>
              <LatitudeDegrees>36.81835164315998554229736328125</LatitudeDegrees>
              <LongitudeDegrees>-4.3843281269073486328125</LongitudeDegrees>
            </Position>
            <AltitudeMeters>802.79998779296875</AltitudeMeters>
            <DistanceMeters>NAN</DistanceMeters>
          </Trackpoint>
          <Trackpoint>
            <Time>2020-12-05T13:23:21.000Z</Time>
            <Position>
              <LatitudeDegrees>36.818337477743625640869140625</LatitudeDegrees>
              <LongitudeDegrees>-4.384321756660938262939453125</LongitudeDegrees>
            </Position>
            <AltitudeMeters>802.79998779296875</AltitudeMeters>
            <DistanceMeters>NAN</DistanceMeters>
          </Trackpoint>
          <Trackpoint>
            <Time>2020-12-05T13:23:22.000Z</Time>
            <Position>
              <LatitudeDegrees>36.8183225579559803009033203125</LatitudeDegrees>
              <LongitudeDegrees>-4.38431664370000362396240234375</LongitudeDegrees>
            </Position>
            <AltitudeMeters>802.79998779296875</AltitudeMeters>
            <DistanceMeters>NAN</DistanceMeters>
          </Trackpoint>
          <Trackpoint>
            <Time>2020-12-05T13:23:23.000Z</Time>
            <Position>
              <LatitudeDegrees>36.81830428540706634521484375</LatitudeDegrees>
              <LongitudeDegrees>-4.3843118660151958465576171875</LongitudeDegrees>
            </Position>
            <AltitudeMeters>802.79998779296875</AltitudeMeters>
            <DistanceMeters>NAN</DistanceMeters>
          </Trackpoint>
          <Trackpoint>
            <Time>2020-12-05T13:23:24.000Z</Time>
            <Position>
              <LatitudeDegrees>36.81828659959137439727783203125</LatitudeDegrees>
              <LongitudeDegrees>-4.38430876471102237701416015625</LongitudeDegrees>
            </Position>
            <AltitudeMeters>802.79998779296875</AltitudeMeters>
            <DistanceMeters>NAN</DistanceMeters>
          </Trackpoint>
          <Trackpoint>
            <Time>2020-12-05T13:23:25.000Z</Time>
            <Position>
              <LatitudeDegrees>36.8182736076414585113525390625</LatitudeDegrees>
              <LongitudeDegrees>-4.38430071808397769927978515625</LongitudeDegrees>
            </Position>
            <AltitudeMeters>802.79998779296875</AltitudeMeters>
            <DistanceMeters>NAN</DistanceMeters>
          </Trackpoint>
          <Trackpoint>
            <Time>2020-12-05T13:23:26.000Z</Time>
            <Position>
              <LatitudeDegrees>36.8182605318725109100341796875</LatitudeDegrees>
              <LongitudeDegrees>-4.38429401256144046783447265625</LongitudeDegrees>
            </Position>
            <AltitudeMeters>802.79998779296875</AltitudeMeters>
            <DistanceMeters>NAN</DistanceMeters>
          </Trackpoint>
          <Trackpoint>
            <Time>2020-12-05T13:23:27.000Z</Time>
            <Position>
              <LatitudeDegrees>36.81824862957000732421875</LatitudeDegrees>
              <LongitudeDegrees>-4.38428764231503009796142578125</LongitudeDegrees>
            </Position>
            <AltitudeMeters>802.79998779296875</AltitudeMeters>
            <DistanceMeters>NAN</DistanceMeters>
          </Trackpoint>
          <Trackpoint>
            <Time>2020-12-05T13:23:28.000Z</Time>
            <Position>
              <LatitudeDegrees>36.818238906562328338623046875</LatitudeDegrees>
              <LongitudeDegrees>-4.3842810206115245819091796875</LongitudeDegrees>
            </Position>
            <AltitudeMeters>802.79998779296875</AltitudeMeters>
            <DistanceMeters>NAN</DistanceMeters>
          </Trackpoint>
          <Trackpoint>
            <Time>2020-12-05T13:23:29.000Z</Time>
            <Position>
              <LatitudeDegrees>36.818231530487537384033203125</LatitudeDegrees>
              <LongitudeDegrees>-4.384274147450923919677734375</LongitudeDegrees>
            </Position>
            <AltitudeMeters>802.79998779296875</AltitudeMeters>
            <DistanceMeters>NAN</DistanceMeters>
          </Trackpoint>
          <Trackpoint>
            <Time>2020-12-05T13:23:30.000Z</Time>
            <Position>
              <LatitudeDegrees>36.81822323240339756011962890625</LatitudeDegrees>
              <LongitudeDegrees>-4.384266100823879241943359375</LongitudeDegrees>
            </Position>
            <AltitudeMeters>802.79998779296875</AltitudeMeters>
            <DistanceMeters>NAN</DistanceMeters>
          </Trackpoint>
          <Trackpoint>
            <Time>2020-12-05T13:23:31.000Z</Time>
            <Position>
              <LatitudeDegrees>36.81821669451892375946044921875</LatitudeDegrees>
              <LongitudeDegrees>-4.3842592276632785797119140625</LongitudeDegrees>
            </Position>
            <AltitudeMeters>802.79998779296875</AltitudeMeters>
            <DistanceMeters>NAN</DistanceMeters>
          </Trackpoint>
          <Trackpoint>
            <Time>2020-12-05T13:23:32.000Z</Time>
            <Position>
              <LatitudeDegrees>36.8182122521102428436279296875</LatitudeDegrees>
              <LongitudeDegrees>-4.38425512053072452545166015625</LongitudeDegrees>
            </Position>
            <AltitudeMeters>802.79998779296875</AltitudeMeters>
            <DistanceMeters>NAN</DistanceMeters>
          </Trackpoint>
          <Trackpoint>
            <Time>2020-12-05T13:23:33.000Z</Time>
            <Position>
              <LatitudeDegrees>36.818209402263164520263671875</LatitudeDegrees>
              <LongitudeDegrees>-4.38425009138882160186767578125</LongitudeDegrees>
            </Position>
            <AltitudeMeters>802.79998779296875</AltitudeMeters>
            <DistanceMeters>NAN</DistanceMeters>
          </Trackpoint>
          <Trackpoint>
            <Time>2020-12-05T13:23:34.000Z</Time>
            <Position>
              <LatitudeDegrees>36.81820772588253021240234375</LatitudeDegrees>
              <LongitudeDegrees>-4.38423894345760345458984375</LongitudeDegrees>
            </Position>
            <AltitudeMeters>802.79998779296875</AltitudeMeters>
            <DistanceMeters>NAN</DistanceMeters>
          </Trackpoint>
          <Trackpoint>
            <Time>2020-12-05T13:23:35.000Z</Time>
            <Position>
              <LatitudeDegrees>36.81820982135832309722900390625</LatitudeDegrees>
              <LongitudeDegrees>-4.38422410748898983001708984375</LongitudeDegrees>
            </Position>
            <AltitudeMeters>802.79998779296875</AltitudeMeters>
            <DistanceMeters>NAN</DistanceMeters>
          </Trackpoint>
          <Trackpoint>
            <Time>2020-12-05T13:23:36.000Z</Time>
            <Position>
              <LatitudeDegrees>36.81821334175765514373779296875</LatitudeDegrees>
              <LongitudeDegrees>-4.3842049129307270050048828125</LongitudeDegrees>
            </Position>
            <AltitudeMeters>802.79998779296875</AltitudeMeters>
            <DistanceMeters>NAN</DistanceMeters>
          </Trackpoint>
          <Trackpoint>
            <Time>2020-12-05T13:23:37.000Z</Time>
            <Position>
              <LatitudeDegrees>36.8182179518043994903564453125</LatitudeDegrees>
              <LongitudeDegrees>-4.38418420962989330291748046875</LongitudeDegrees>
            </Position>
            <AltitudeMeters>802.79998779296875</AltitudeMeters>
            <DistanceMeters>NAN</DistanceMeters>
          </Trackpoint>
          <Trackpoint>
            <Time>2020-12-05T13:23:38.000Z</Time>
            <Position>
              <LatitudeDegrees>36.81821644306182861328125</LatitudeDegrees>
              <LongitudeDegrees>-4.3841710500419139862060546875</LongitudeDegrees>
            </Position>
            <AltitudeMeters>802.79998779296875</AltitudeMeters>
            <DistanceMeters>NAN</DistanceMeters>
          </Trackpoint>
          <Trackpoint>
            <Time>2020-12-05T13:23:39.000Z</Time>
            <Position>
              <LatitudeDegrees>36.81821451522409915924072265625</LatitudeDegrees>
              <LongitudeDegrees>-4.38415847718715667724609375</LongitudeDegrees>
            </Position>
            <AltitudeMeters>802.79998779296875</AltitudeMeters>
            <DistanceMeters>NAN</DistanceMeters>
          </Trackpoint>
          <Trackpoint>
            <Time>2020-12-05T13:23:40.000Z</Time>
            <Position>
              <LatitudeDegrees>36.818212755024433135986328125</LatitudeDegrees>
              <LongitudeDegrees>-4.38414640724658966064453125</LongitudeDegrees>
            </Position>
            <AltitudeMeters>802.79998779296875</AltitudeMeters>
            <DistanceMeters>NAN</DistanceMeters>
          </Trackpoint>
          <Trackpoint>
            <Time>2020-12-05T13:23:41.000Z</Time>
            <Position>
              <LatitudeDegrees>36.8182085640728473663330078125</LatitudeDegrees>
              <LongitudeDegrees>-4.38413442112505435943603515625</LongitudeDegrees>
            </Position>
            <AltitudeMeters>802.79998779296875</AltitudeMeters>
            <DistanceMeters>NAN</DistanceMeters>
          </Trackpoint>
          <Trackpoint>
            <Time>2020-12-05T13:23:42.000Z</Time>
            <Position>
              <LatitudeDegrees>36.8182042054831981658935546875</LatitudeDegrees>
              <LongitudeDegrees>-4.3841197527945041656494140625</LongitudeDegrees>
            </Position>
            <AltitudeMeters>802.79998779296875</AltitudeMeters>
            <DistanceMeters>NAN</DistanceMeters>
          </Trackpoint>
          <Trackpoint>
            <Time>2020-12-05T13:23:43.000Z</Time>
            <Position>
              <LatitudeDegrees>36.81819825433194637298583984375</LatitudeDegrees>
              <LongitudeDegrees>-4.3841019831597805023193359375</LongitudeDegrees>
            </Position>
            <AltitudeMeters>802.79998779296875</AltitudeMeters>
            <DistanceMeters>NAN</DistanceMeters>
          </Trackpoint>
          <Trackpoint>
            <Time>2020-12-05T13:23:44.000Z</Time>
            <Position>
              <LatitudeDegrees>36.81819221936166286468505859375</LatitudeDegrees>
              <LongitudeDegrees>-4.3840862251818180084228515625</LongitudeDegrees>
            </Position>
            <AltitudeMeters>802.79998779296875</AltitudeMeters>
            <DistanceMeters>NAN</DistanceMeters>
          </Trackpoint>
          <Trackpoint>
            <Time>2020-12-05T13:23:45.000Z</Time>
            <Position>
              <LatitudeDegrees>36.81818618439137935638427734375</LatitudeDegrees>
              <LongitudeDegrees>-4.384072311222553253173828125</LongitudeDegrees>
            </Position>
            <AltitudeMeters>802.79998779296875</AltitudeMeters>
            <DistanceMeters>NAN</DistanceMeters>
          </Trackpoint>
          <Trackpoint>
            <Time>2020-12-05T13:23:46.000Z</Time>
            <Position>
              <LatitudeDegrees>36.8181802332401275634765625</LatitudeDegrees>
              <LongitudeDegrees>-4.38405596651136875152587890625</LongitudeDegrees>
            </Position>
            <AltitudeMeters>802.79998779296875</AltitudeMeters>
            <DistanceMeters>NAN</DistanceMeters>
          </Trackpoint>
          <Trackpoint>
            <Time>2020-12-05T13:23:47.000Z</Time>
            <Position>
              <LatitudeDegrees>36.81817495264112949371337890625</LatitudeDegrees>
              <LongitudeDegrees>-4.38404087908565998077392578125</LongitudeDegrees>
            </Position>
            <AltitudeMeters>802.79998779296875</AltitudeMeters>
            <DistanceMeters>NAN</DistanceMeters>
          </Trackpoint>
          <Trackpoint>
            <Time>2020-12-05T13:23:48.000Z</Time>
            <Position>
              <LatitudeDegrees>36.818169839680194854736328125</LatitudeDegrees>
              <LongitudeDegrees>-4.3840275518596172332763671875</LongitudeDegrees>
            </Position>
            <AltitudeMeters>802.79998779296875</AltitudeMeters>
            <DistanceMeters>NAN</DistanceMeters>
          </Trackpoint>
          <Trackpoint>
            <Time>2020-12-05T13:23:49.000Z</Time>
            <Position>
              <LatitudeDegrees>36.81816556490957736968994140625</LatitudeDegrees>
              <LongitudeDegrees>-4.3840168230235576629638671875</LongitudeDegrees>
            </Position>
            <AltitudeMeters>802.79998779296875</AltitudeMeters>
            <DistanceMeters>NAN</DistanceMeters>
          </Trackpoint>
          <Trackpoint>
            <Time>2020-12-05T13:23:50.000Z</Time>
            <Position>
              <LatitudeDegrees>36.8181619606912136077880859375</LatitudeDegrees>
              <LongitudeDegrees>-4.384003579616546630859375</LongitudeDegrees>
            </Position>
            <AltitudeMeters>802.79998779296875</AltitudeMeters>
            <DistanceMeters>NAN</DistanceMeters>
          </Trackpoint>
          <Trackpoint>
            <Time>2020-12-05T13:23:51.000Z</Time>
            <Position>
              <LatitudeDegrees>36.8181582726538181304931640625</LatitudeDegrees>
              <LongitudeDegrees>-4.3839889951050281524658203125</LongitudeDegrees>
            </Position>
            <AltitudeMeters>802.79998779296875</AltitudeMeters>
            <DistanceMeters>NAN</DistanceMeters>
          </Trackpoint>
          <Trackpoint>
            <Time>2020-12-05T13:23:52.000Z</Time>
            <Position>
              <LatitudeDegrees>36.81815500371158123016357421875</LatitudeDegrees>
              <LongitudeDegrees>-4.3839742429554462432861328125</LongitudeDegrees>
            </Position>
            <AltitudeMeters>802.79998779296875</AltitudeMeters>
            <DistanceMeters>NAN</DistanceMeters>
          </Trackpoint>
          <Trackpoint>
            <Time>2020-12-05T13:23:53.000Z</Time>
            <Position>
              <LatitudeDegrees>36.818152405321598052978515625</LatitudeDegrees>
              <LongitudeDegrees>-4.38395990990102291107177734375</LongitudeDegrees>
            </Position>
            <AltitudeMeters>802.79998779296875</AltitudeMeters>
            <DistanceMeters>NAN</DistanceMeters>
          </Trackpoint>
          <Trackpoint>
            <Time>2020-12-05T13:23:54.000Z</Time>
            <Position>
              <LatitudeDegrees>36.81815265677869319915771484375</LatitudeDegrees>
              <LongitudeDegrees>-4.38394658267498016357421875</LongitudeDegrees>
            </Position>
            <AltitudeMeters>802.79998779296875</AltitudeMeters>
            <DistanceMeters>NAN</DistanceMeters>
          </Trackpoint>
          <Trackpoint>
            <Time>2020-12-05T13:23:55.000Z</Time>
            <Position>
              <LatitudeDegrees>36.818153746426105499267578125</LatitudeDegrees>
              <LongitudeDegrees>-4.383932836353778839111328125</LongitudeDegrees>
            </Position>
            <AltitudeMeters>802.79998779296875</AltitudeMeters>
            <DistanceMeters>NAN</DistanceMeters>
          </Trackpoint>
          <Trackpoint>
            <Time>2020-12-05T13:23:56.000Z</Time>
            <Position>
              <LatitudeDegrees>36.818155087530612945556640625</LatitudeDegrees>
              <LongitudeDegrees>-4.38391397707164287567138671875</LongitudeDegrees>
            </Position>
            <AltitudeMeters>802.79998779296875</AltitudeMeters>
            <DistanceMeters>NAN</DistanceMeters>
          </Trackpoint>
          <Trackpoint>
            <Time>2020-12-05T13:23:57.000Z</Time>
            <Position>
              <LatitudeDegrees>36.81815248914062976837158203125</LatitudeDegrees>
              <LongitudeDegrees>-4.38389503397047519683837890625</LongitudeDegrees>
            </Position>
            <AltitudeMeters>802.79998779296875</AltitudeMeters>
            <DistanceMeters>NAN</DistanceMeters>
          </Trackpoint>
          <Trackpoint>
            <Time>2020-12-05T13:23:58.000Z</Time>
            <Position>
              <LatitudeDegrees>36.81815081275999546051025390625</LatitudeDegrees>
              <LongitudeDegrees>-4.383876509964466094970703125</LongitudeDegrees>
            </Position>
            <AltitudeMeters>802.79998779296875</AltitudeMeters>
            <DistanceMeters>NAN</DistanceMeters>
          </Trackpoint>
          <Trackpoint>
            <Time>2020-12-05T13:23:59.000Z</Time>
            <Position>
              <LatitudeDegrees>36.81814963929355144500732421875</LatitudeDegrees>
              <LongitudeDegrees>-4.38385848887264728546142578125</LongitudeDegrees>
            </Position>
            <AltitudeMeters>802.79998779296875</AltitudeMeters>
            <DistanceMeters>NAN</DistanceMeters>
          </Trackpoint>
          <Trackpoint>
            <Time>2020-12-05T13:24:00.000Z</Time>
            <Position>
              <LatitudeDegrees>36.8181495554745197296142578125</LatitudeDegrees>
              <LongitudeDegrees>-4.38384071923792362213134765625</LongitudeDegrees>
            </Position>
            <AltitudeMeters>797</AltitudeMeters>
            <DistanceMeters>NAN</DistanceMeters>
          </Trackpoint>
          <Trackpoint>
            <Time>2020-12-05T13:24:01.000Z</Time>
            <Position>
              <LatitudeDegrees>36.8181498907506465911865234375</LatitudeDegrees>
              <LongitudeDegrees>-4.38382429070770740509033203125</LongitudeDegrees>
            </Position>
            <AltitudeMeters>797</AltitudeMeters>
            <DistanceMeters>NAN</DistanceMeters>
          </Trackpoint>
          <Trackpoint>
            <Time>2020-12-05T13:24:02.000Z</Time>
            <Position>
              <LatitudeDegrees>36.818149052560329437255859375</LatitudeDegrees>
              <LongitudeDegrees>-4.38380853272974491119384765625</LongitudeDegrees>
            </Position>
            <AltitudeMeters>797</AltitudeMeters>
            <DistanceMeters>NAN</DistanceMeters>
          </Trackpoint>
          <Trackpoint>
            <Time>2020-12-05T13:24:03.000Z</Time>
            <Position>
              <LatitudeDegrees>36.81814796291291713714599609375</LatitudeDegrees>
              <LongitudeDegrees>-4.3837938643991947174072265625</LongitudeDegrees>
            </Position>
            <AltitudeMeters>797</AltitudeMeters>
            <DistanceMeters>NAN</DistanceMeters>
          </Trackpoint>
          <Trackpoint>
            <Time>2020-12-05T13:24:04.000Z</Time>
            <Position>
              <LatitudeDegrees>36.81814528070390224456787109375</LatitudeDegrees>
              <LongitudeDegrees>-4.3837767653167247772216796875</LongitudeDegrees>
            </Position>
            <AltitudeMeters>797</AltitudeMeters>
            <DistanceMeters>NAN</DistanceMeters>
          </Trackpoint>
          <Trackpoint>
            <Time>2020-12-05T13:24:05.000Z</Time>
            <Position>
              <LatitudeDegrees>36.818141005933284759521484375</LatitudeDegrees>
              <LongitudeDegrees>-4.38375975005328655242919921875</LongitudeDegrees>
            </Position>
            <AltitudeMeters>797</AltitudeMeters>
            <DistanceMeters>NAN</DistanceMeters>
          </Trackpoint>
          <Trackpoint>
            <Time>2020-12-05T13:24:06.000Z</Time>
            <Position>
              <LatitudeDegrees>36.8181378208100795745849609375</LatitudeDegrees>
              <LongitudeDegrees>-4.38374466262757778167724609375</LongitudeDegrees>
            </Position>
            <AltitudeMeters>797</AltitudeMeters>
            <DistanceMeters>NAN</DistanceMeters>
          </Trackpoint>
          <Trackpoint>
            <Time>2020-12-05T13:24:07.000Z</Time>
            <Position>
              <LatitudeDegrees>36.81813337840139865875244140625</LatitudeDegrees>
              <LongitudeDegrees>-4.38373091630637645721435546875</LongitudeDegrees>
            </Position>
            <AltitudeMeters>797</AltitudeMeters>
            <DistanceMeters>NAN</DistanceMeters>
          </Trackpoint>
          <Trackpoint>
            <Time>2020-12-05T13:24:08.000Z</Time>
            <Position>
              <LatitudeDegrees>36.8181291036307811737060546875</LatitudeDegrees>
              <LongitudeDegrees>-4.38371750526130199432373046875</LongitudeDegrees>
            </Position>
            <AltitudeMeters>797</AltitudeMeters>
            <DistanceMeters>NAN</DistanceMeters>
          </Trackpoint>
          <Trackpoint>
            <Time>2020-12-05T13:24:09.000Z</Time>
            <Position>
              <LatitudeDegrees>36.81812549941241741180419921875</LatitudeDegrees>
              <LongitudeDegrees>-4.383706189692020416259765625</LongitudeDegrees>
            </Position>
            <AltitudeMeters>797</AltitudeMeters>
            <DistanceMeters>NAN</DistanceMeters>
          </Trackpoint>
          <Trackpoint>
            <Time>2020-12-05T13:24:10.000Z</Time>
            <Position>
              <LatitudeDegrees>36.818123571574687957763671875</LatitudeDegrees>
              <LongitudeDegrees>-4.3836919404566287994384765625</LongitudeDegrees>
            </Position>
            <AltitudeMeters>797</AltitudeMeters>
            <DistanceMeters>NAN</DistanceMeters>
          </Trackpoint>
          <Trackpoint>
            <Time>2020-12-05T13:24:11.000Z</Time>
            <Position>
              <LatitudeDegrees>36.81812189519405364990234375</LatitudeDegrees>
              <LongitudeDegrees>-4.38367794267833232879638671875</LongitudeDegrees>
            </Position>
            <AltitudeMeters>797</AltitudeMeters>
            <DistanceMeters>NAN</DistanceMeters>
          </Trackpoint>
          <Trackpoint>
            <Time>2020-12-05T13:24:12.000Z</Time>
            <Position>
              <LatitudeDegrees>36.81812030263245105743408203125</LatitudeDegrees>
              <LongitudeDegrees>-4.3836641125380992889404296875</LongitudeDegrees>
            </Position>
            <AltitudeMeters>797</AltitudeMeters>
            <DistanceMeters>NAN</DistanceMeters>
          </Trackpoint>
          <Trackpoint>
            <Time>2020-12-05T13:24:13.000Z</Time>
            <Position>
              <LatitudeDegrees>36.81811787188053131103515625</LatitudeDegrees>
              <LongitudeDegrees>-4.3836523778736591339111328125</LongitudeDegrees>
            </Position>
            <AltitudeMeters>797</AltitudeMeters>
            <DistanceMeters>NAN</DistanceMeters>
          </Trackpoint>
          <Trackpoint>
            <Time>2020-12-05T13:24:14.000Z</Time>
            <Position>
              <LatitudeDegrees>36.81811384856700897216796875</LatitudeDegrees>
              <LongitudeDegrees>-4.38363636843860149383544921875</LongitudeDegrees>
            </Position>
            <AltitudeMeters>797</AltitudeMeters>
            <DistanceMeters>NAN</DistanceMeters>
          </Trackpoint>
          <Trackpoint>
            <Time>2020-12-05T13:24:15.000Z</Time>
            <Position>
              <LatitudeDegrees>36.818110160529613494873046875</LatitudeDegrees>
              <LongitudeDegrees>-4.383620359003543853759765625</LongitudeDegrees>
            </Position>
            <AltitudeMeters>797</AltitudeMeters>
            <DistanceMeters>NAN</DistanceMeters>
          </Trackpoint>
          <Trackpoint>
            <Time>2020-12-05T13:24:16.000Z</Time>
            <Position>
              <LatitudeDegrees>36.81810622103512287139892578125</LatitudeDegrees>
              <LongitudeDegrees>-4.3836027570068836212158203125</LongitudeDegrees>
            </Position>
            <AltitudeMeters>797</AltitudeMeters>
            <DistanceMeters>NAN</DistanceMeters>
          </Trackpoint>
          <Trackpoint>
            <Time>2020-12-05T13:24:17.000Z</Time>
            <Position>
              <LatitudeDegrees>36.81810186244547367095947265625</LatitudeDegrees>
              <LongitudeDegrees>-4.38358473591506481170654296875</LongitudeDegrees>
            </Position>
            <AltitudeMeters>797</AltitudeMeters>
            <DistanceMeters>NAN</DistanceMeters>
          </Trackpoint>
          <Trackpoint>
            <Time>2020-12-05T13:24:18.000Z</Time>
            <Position>
              <LatitudeDegrees>36.8180972523987293243408203125</LatitudeDegrees>
              <LongitudeDegrees>-4.38356881029903888702392578125</LongitudeDegrees>
            </Position>
            <AltitudeMeters>797</AltitudeMeters>
            <DistanceMeters>NAN</DistanceMeters>
          </Trackpoint>
          <Trackpoint>
            <Time>2020-12-05T13:24:19.000Z</Time>
            <Position>
              <LatitudeDegrees>36.8180935643613338470458984375</LatitudeDegrees>
              <LongitudeDegrees>-4.38355539925396442413330078125</LongitudeDegrees>
            </Position>
            <AltitudeMeters>797</AltitudeMeters>
            <DistanceMeters>NAN</DistanceMeters>
          </Trackpoint>
          <Trackpoint>
            <Time>2020-12-05T13:24:20.000Z</Time>
            <Position>
              <LatitudeDegrees>36.81808794848620891571044921875</LatitudeDegrees>
              <LongitudeDegrees>-4.38354232348501682281494140625</LongitudeDegrees>
            </Position>
            <AltitudeMeters>797</AltitudeMeters>
            <DistanceMeters>NAN</DistanceMeters>
          </Trackpoint>
          <Trackpoint>
            <Time>2020-12-05T13:24:21.000Z</Time>
            <Position>
              <LatitudeDegrees>36.81807923130691051483154296875</LatitudeDegrees>
              <LongitudeDegrees>-4.38352589495480060577392578125</LongitudeDegrees>
            </Position>
            <AltitudeMeters>797</AltitudeMeters>
            <DistanceMeters>NAN</DistanceMeters>
          </Trackpoint>
          <Trackpoint>
            <Time>2020-12-05T13:24:22.000Z</Time>
            <Position>
              <LatitudeDegrees>36.81806984357535839080810546875</LatitudeDegrees>
              <LongitudeDegrees>-4.38350913114845752716064453125</LongitudeDegrees>
            </Position>
            <AltitudeMeters>797</AltitudeMeters>
            <DistanceMeters>NAN</DistanceMeters>
          </Trackpoint>
          <Trackpoint>
            <Time>2020-12-05T13:24:23.000Z</Time>
            <Position>
              <LatitudeDegrees>36.81806045584380626678466796875</LatitudeDegrees>
              <LongitudeDegrees>-4.38349555246531963348388671875</LongitudeDegrees>
            </Position>
            <AltitudeMeters>797</AltitudeMeters>
            <DistanceMeters>NAN</DistanceMeters>
          </Trackpoint>
          <Trackpoint>
            <Time>2020-12-05T13:24:24.000Z</Time>
            <Position>
              <LatitudeDegrees>36.81805307976901531219482421875</LatitudeDegrees>
              <LongitudeDegrees>-4.3834850750863552093505859375</LongitudeDegrees>
            </Position>
            <AltitudeMeters>797</AltitudeMeters>
            <DistanceMeters>NAN</DistanceMeters>
          </Trackpoint>
          <Trackpoint>
            <Time>2020-12-05T13:24:25.000Z</Time>
            <Position>
              <LatitudeDegrees>36.81804637424647808074951171875</LatitudeDegrees>
              <LongitudeDegrees>-4.38347074203193187713623046875</LongitudeDegrees>
            </Position>
            <AltitudeMeters>797</AltitudeMeters>
            <DistanceMeters>NAN</DistanceMeters>
          </Trackpoint>
          <Trackpoint>
            <Time>2020-12-05T13:24:26.000Z</Time>
            <Position>
              <LatitudeDegrees>36.8180389143526554107666015625</LatitudeDegrees>
              <LongitudeDegrees>-4.3834604322910308837890625</LongitudeDegrees>
            </Position>
            <AltitudeMeters>797</AltitudeMeters>
            <DistanceMeters>NAN</DistanceMeters>
          </Trackpoint>
          <Trackpoint>
            <Time>2020-12-05T13:24:27.000Z</Time>
            <Position>
              <LatitudeDegrees>36.81803162209689617156982421875</LatitudeDegrees>
              <LongitudeDegrees>-4.38345364294946193695068359375</LongitudeDegrees>
            </Position>
            <AltitudeMeters>797</AltitudeMeters>
            <DistanceMeters>NAN</DistanceMeters>
          </Trackpoint>
          <Trackpoint>
            <Time>2020-12-05T13:24:28.000Z</Time>
            <Position>
              <LatitudeDegrees>36.81802240200340747833251953125</LatitudeDegrees>
              <LongitudeDegrees>-4.3834488652646541595458984375</LongitudeDegrees>
            </Position>
            <AltitudeMeters>797</AltitudeMeters>
            <DistanceMeters>NAN</DistanceMeters>
          </Trackpoint>
          <Trackpoint>
            <Time>2020-12-05T13:24:29.000Z</Time>
            <Position>
              <LatitudeDegrees>36.81801284663379192352294921875</LatitudeDegrees>
              <LongitudeDegrees>-4.38344039954245090484619140625</LongitudeDegrees>
            </Position>
            <AltitudeMeters>797</AltitudeMeters>
            <DistanceMeters>NAN</DistanceMeters>
          </Trackpoint>
          <Trackpoint>
            <Time>2020-12-05T13:24:30.000Z</Time>
            <Position>
              <LatitudeDegrees>36.817999184131622314453125</LatitudeDegrees>
              <LongitudeDegrees>-4.3834374658763408660888671875</LongitudeDegrees>
            </Position>
            <AltitudeMeters>797</AltitudeMeters>
            <DistanceMeters>NAN</DistanceMeters>
          </Trackpoint>
          <Trackpoint>
            <Time>2020-12-05T13:24:31.000Z</Time>
            <Position>
              <LatitudeDegrees>36.81798778474330902099609375</LatitudeDegrees>
              <LongitudeDegrees>-4.38343402929604053497314453125</LongitudeDegrees>
            </Position>
            <AltitudeMeters>797</AltitudeMeters>
            <DistanceMeters>NAN</DistanceMeters>
          </Trackpoint>
          <Trackpoint>
            <Time>2020-12-05T13:24:32.000Z</Time>
            <Position>
              <LatitudeDegrees>36.81797630153596401214599609375</LatitudeDegrees>
              <LongitudeDegrees>-4.38343319110572338104248046875</LongitudeDegrees>
            </Position>
            <AltitudeMeters>797</AltitudeMeters>
            <DistanceMeters>NAN</DistanceMeters>
          </Trackpoint>
          <Trackpoint>
            <Time>2020-12-05T13:24:33.000Z</Time>
            <Position>
              <LatitudeDegrees>36.8179661594331264495849609375</LatitudeDegrees>
              <LongitudeDegrees>-4.3834327720105648040771484375</LongitudeDegrees>
            </Position>
            <AltitudeMeters>797</AltitudeMeters>
            <DistanceMeters>NAN</DistanceMeters>
          </Trackpoint>
          <Trackpoint>
            <Time>2020-12-05T13:24:34.000Z</Time>
            <Position>
              <LatitudeDegrees>36.817956268787384033203125</LatitudeDegrees>
              <LongitudeDegrees>-4.38343386165797710418701171875</LongitudeDegrees>
            </Position>
            <AltitudeMeters>797</AltitudeMeters>
            <DistanceMeters>NAN</DistanceMeters>
          </Trackpoint>
          <Trackpoint>
            <Time>2020-12-05T13:24:35.000Z</Time>
            <Position>
              <LatitudeDegrees>36.81794755160808563232421875</LatitudeDegrees>
              <LongitudeDegrees>-4.38343562185764312744140625</LongitudeDegrees>
            </Position>
            <AltitudeMeters>797</AltitudeMeters>
            <DistanceMeters>NAN</DistanceMeters>
          </Trackpoint>
          <Trackpoint>
            <Time>2020-12-05T13:24:36.000Z</Time>
            <Position>
              <LatitudeDegrees>36.8179388344287872314453125</LatitudeDegrees>
              <LongitudeDegrees>-4.3834394775331020355224609375</LongitudeDegrees>
            </Position>
            <AltitudeMeters>797</AltitudeMeters>
            <DistanceMeters>NAN</DistanceMeters>
          </Trackpoint>
          <Trackpoint>
            <Time>2020-12-05T13:24:37.000Z</Time>
            <Position>
              <LatitudeDegrees>36.81792885996401309967041015625</LatitudeDegrees>
              <LongitudeDegrees>-4.3834445066750049591064453125</LongitudeDegrees>
            </Position>
            <AltitudeMeters>797</AltitudeMeters>
            <DistanceMeters>NAN</DistanceMeters>
          </Trackpoint>
          <Trackpoint>
            <Time>2020-12-05T13:24:38.000Z</Time>
            <Position>
              <LatitudeDegrees>36.81791813112795352935791015625</LatitudeDegrees>
              <LongitudeDegrees>-4.3834488652646541595458984375</LongitudeDegrees>
            </Position>
            <AltitudeMeters>797</AltitudeMeters>
            <DistanceMeters>NAN</DistanceMeters>
          </Trackpoint>
          <Trackpoint>
            <Time>2020-12-05T13:24:39.000Z</Time>
            <Position>
              <LatitudeDegrees>36.81790673173964023590087890625</LatitudeDegrees>
              <LongitudeDegrees>-4.38345414586365222930908203125</LongitudeDegrees>
            </Position>
            <AltitudeMeters>797</AltitudeMeters>
            <DistanceMeters>NAN</DistanceMeters>
          </Trackpoint>
          <Trackpoint>
            <Time>2020-12-05T13:24:40.000Z</Time>
            <Position>
              <LatitudeDegrees>36.81789147667586803436279296875</LatitudeDegrees>
              <LongitudeDegrees>-4.38346001319587230682373046875</LongitudeDegrees>
            </Position>
            <AltitudeMeters>797</AltitudeMeters>
            <DistanceMeters>NAN</DistanceMeters>
          </Trackpoint>
          <Trackpoint>
            <Time>2020-12-05T13:24:41.000Z</Time>
            <Position>
              <LatitudeDegrees>36.817876137793064117431640625</LatitudeDegrees>
              <LongitudeDegrees>-4.3834642879664897918701171875</LongitudeDegrees>
            </Position>
            <AltitudeMeters>797</AltitudeMeters>
            <DistanceMeters>NAN</DistanceMeters>
          </Trackpoint>
          <Trackpoint>
            <Time>2020-12-05T13:24:42.000Z</Time>
            <Position>
              <LatitudeDegrees>36.81786130182445049285888671875</LatitudeDegrees>
              <LongitudeDegrees>-4.3834673054516315460205078125</LongitudeDegrees>
            </Position>
            <AltitudeMeters>797</AltitudeMeters>
            <DistanceMeters>NAN</DistanceMeters>
          </Trackpoint>
          <Trackpoint>
            <Time>2020-12-05T13:24:43.000Z</Time>
            <Position>
              <LatitudeDegrees>36.8178462982177734375</LatitudeDegrees>
              <LongitudeDegrees>-4.383464120328426361083984375</LongitudeDegrees>
            </Position>
            <AltitudeMeters>797</AltitudeMeters>
            <DistanceMeters>NAN</DistanceMeters>
          </Trackpoint>
          <Trackpoint>
            <Time>2020-12-05T13:24:44.000Z</Time>
            <Position>
              <LatitudeDegrees>36.81783330626785755157470703125</LatitudeDegrees>
              <LongitudeDegrees>-4.38346353359520435333251953125</LongitudeDegrees>
            </Position>
            <AltitudeMeters>797</AltitudeMeters>
            <DistanceMeters>NAN</DistanceMeters>
          </Trackpoint>
          <Trackpoint>
            <Time>2020-12-05T13:24:45.000Z</Time>
            <Position>
              <LatitudeDegrees>36.81781972758471965789794921875</LatitudeDegrees>
              <LongitudeDegrees>-4.3834656290709972381591796875</LongitudeDegrees>
            </Position>
            <AltitudeMeters>797</AltitudeMeters>
            <DistanceMeters>NAN</DistanceMeters>
          </Trackpoint>
          <Trackpoint>
            <Time>2020-12-05T13:24:46.000Z</Time>
            <Position>
              <LatitudeDegrees>36.817805059254169464111328125</LatitudeDegrees>
              <LongitudeDegrees>-4.383469484746456146240234375</LongitudeDegrees>
            </Position>
            <AltitudeMeters>797</AltitudeMeters>
            <DistanceMeters>NAN</DistanceMeters>
          </Trackpoint>
          <Trackpoint>
            <Time>2020-12-05T13:24:47.000Z</Time>
            <Position>
              <LatitudeDegrees>36.8177918158471584320068359375</LatitudeDegrees>
              <LongitudeDegrees>-4.38347275368869304656982421875</LongitudeDegrees>
            </Position>
            <AltitudeMeters>797</AltitudeMeters>
            <DistanceMeters>NAN</DistanceMeters>
          </Trackpoint>
          <Trackpoint>
            <Time>2020-12-05T13:24:48.000Z</Time>
            <Position>
              <LatitudeDegrees>36.81777630932629108428955078125</LatitudeDegrees>
              <LongitudeDegrees>-4.38347811810672283172607421875</LongitudeDegrees>
            </Position>
            <AltitudeMeters>797</AltitudeMeters>
            <DistanceMeters>NAN</DistanceMeters>
          </Trackpoint>
          <Trackpoint>
            <Time>2020-12-05T13:24:49.000Z</Time>
            <Position>
              <LatitudeDegrees>36.81776256300508975982666015625</LatitudeDegrees>
              <LongitudeDegrees>-4.38348390161991119384765625</LongitudeDegrees>
            </Position>
            <AltitudeMeters>797</AltitudeMeters>
            <DistanceMeters>NAN</DistanceMeters>
          </Trackpoint>
          <Trackpoint>
            <Time>2020-12-05T13:24:50.000Z</Time>
            <Position>
              <LatitudeDegrees>36.8177502416074275970458984375</LatitudeDegrees>
              <LongitudeDegrees>-4.38349169678986072540283203125</LongitudeDegrees>
            </Position>
            <AltitudeMeters>797</AltitudeMeters>
            <DistanceMeters>NAN</DistanceMeters>
          </Trackpoint>
          <Trackpoint>
            <Time>2020-12-05T13:24:51.000Z</Time>
            <Position>
              <LatitudeDegrees>36.817738004028797149658203125</LatitudeDegrees>
              <LongitudeDegrees>-4.383496977388858795166015625</LongitudeDegrees>
            </Position>
            <AltitudeMeters>797</AltitudeMeters>
            <DistanceMeters>NAN</DistanceMeters>
          </Trackpoint>
          <Trackpoint>
            <Time>2020-12-05T13:24:52.000Z</Time>
            <Position>
              <LatitudeDegrees>36.8177230842411518096923828125</LatitudeDegrees>
              <LongitudeDegrees>-4.38349940814077854156494140625</LongitudeDegrees>
            </Position>
            <AltitudeMeters>797</AltitudeMeters>
            <DistanceMeters>NAN</DistanceMeters>
          </Trackpoint>
          <Trackpoint>
            <Time>2020-12-05T13:24:53.000Z</Time>
            <Position>
              <LatitudeDegrees>36.81770875118672847747802734375</LatitudeDegrees>
              <LongitudeDegrees>-4.38350225798785686492919921875</LongitudeDegrees>
            </Position>
            <AltitudeMeters>797</AltitudeMeters>
            <DistanceMeters>NAN</DistanceMeters>
          </Trackpoint>
          <Trackpoint>
            <Time>2020-12-05T13:24:54.000Z</Time>
            <Position>
              <LatitudeDegrees>36.81769274175167083740234375</LatitudeDegrees>
              <LongitudeDegrees>-4.38350410200655460357666015625</LongitudeDegrees>
            </Position>
            <AltitudeMeters>797</AltitudeMeters>
            <DistanceMeters>NAN</DistanceMeters>
          </Trackpoint>
          <Trackpoint>
            <Time>2020-12-05T13:24:55.000Z</Time>
            <Position>
              <LatitudeDegrees>36.81767874397337436676025390625</LatitudeDegrees>
              <LongitudeDegrees>-4.383506365120410919189453125</LongitudeDegrees>
            </Position>
            <AltitudeMeters>797</AltitudeMeters>
            <DistanceMeters>NAN</DistanceMeters>
          </Trackpoint>
          <Trackpoint>
            <Time>2020-12-05T13:24:56.000Z</Time>
            <Position>
              <LatitudeDegrees>36.81766767986118793487548828125</LatitudeDegrees>
              <LongitudeDegrees>-4.38351097516715526580810546875</LongitudeDegrees>
            </Position>
            <AltitudeMeters>797</AltitudeMeters>
            <DistanceMeters>NAN</DistanceMeters>
          </Trackpoint>
          <Trackpoint>
            <Time>2020-12-05T13:24:57.000Z</Time>
            <Position>
              <LatitudeDegrees>36.81765845976769924163818359375</LatitudeDegrees>
              <LongitudeDegrees>-4.383517093956470489501953125</LongitudeDegrees>
            </Position>
            <AltitudeMeters>797</AltitudeMeters>
            <DistanceMeters>NAN</DistanceMeters>
          </Trackpoint>
          <Trackpoint>
            <Time>2020-12-05T13:24:58.000Z</Time>
            <Position>
              <LatitudeDegrees>36.81764957495033740997314453125</LatitudeDegrees>
              <LongitudeDegrees>-4.3835249729454517364501953125</LongitudeDegrees>
            </Position>
            <AltitudeMeters>797</AltitudeMeters>
            <DistanceMeters>NAN</DistanceMeters>
          </Trackpoint>
          <Trackpoint>
            <Time>2020-12-05T13:24:59.000Z</Time>
            <Position>
              <LatitudeDegrees>36.817639768123626708984375</LatitudeDegrees>
              <LongitudeDegrees>-4.38353243283927440643310546875</LongitudeDegrees>
            </Position>
            <AltitudeMeters>797</AltitudeMeters>
            <DistanceMeters>NAN</DistanceMeters>
          </Trackpoint>
          <Trackpoint>
            <Time>2020-12-05T13:25:00.000Z</Time>
            <Position>
              <LatitudeDegrees>36.81763214059174060821533203125</LatitudeDegrees>
              <LongitudeDegrees>-4.383537210524082183837890625</LongitudeDegrees>
            </Position>
            <AltitudeMeters>790.20001220703125</AltitudeMeters>
            <DistanceMeters>NAN</DistanceMeters>
          </Trackpoint>
          <Trackpoint>
            <Time>2020-12-05T13:25:01.000Z</Time>
            <Position>
              <LatitudeDegrees>36.8176255188882350921630859375</LatitudeDegrees>
              <LongitudeDegrees>-4.38354383222758769989013671875</LongitudeDegrees>
            </Position>
            <AltitudeMeters>790.20001220703125</AltitudeMeters>
            <DistanceMeters>NAN</DistanceMeters>
          </Trackpoint>
          <Trackpoint>
            <Time>2020-12-05T13:25:02.000Z</Time>
            <Position>
              <LatitudeDegrees>36.8176164664328098297119140625</LatitudeDegrees>
              <LongitudeDegrees>-4.38355037011206150054931640625</LongitudeDegrees>
            </Position>
            <AltitudeMeters>790.20001220703125</AltitudeMeters>
            <DistanceMeters>NAN</DistanceMeters>
          </Trackpoint>
          <Trackpoint>
            <Time>2020-12-05T13:25:03.000Z</Time>
            <Position>
              <LatitudeDegrees>36.81760489940643310546875</LatitudeDegrees>
              <LongitudeDegrees>-4.38355363905429840087890625</LongitudeDegrees>
            </Position>
            <AltitudeMeters>790.20001220703125</AltitudeMeters>
            <DistanceMeters>NAN</DistanceMeters>
          </Trackpoint>
          <Trackpoint>
            <Time>2020-12-05T13:25:04.000Z</Time>
            <Position>
              <LatitudeDegrees>36.8175933323800563812255859375</LatitudeDegrees>
              <LongitudeDegrees>-4.3835611827671527862548828125</LongitudeDegrees>
            </Position>
            <AltitudeMeters>790.20001220703125</AltitudeMeters>
            <DistanceMeters>NAN</DistanceMeters>
          </Trackpoint>
          <Trackpoint>
            <Time>2020-12-05T13:25:05.000Z</Time>
            <Position>
              <LatitudeDegrees>36.81758143007755279541015625</LatitudeDegrees>
              <LongitudeDegrees>-4.383568726480007171630859375</LongitudeDegrees>
            </Position>
            <AltitudeMeters>790.20001220703125</AltitudeMeters>
            <DistanceMeters>NAN</DistanceMeters>
          </Trackpoint>
          <Trackpoint>
            <Time>2020-12-05T13:25:06.000Z</Time>
            <Position>
              <LatitudeDegrees>36.81757078506052494049072265625</LatitudeDegrees>
              <LongitudeDegrees>-4.383575432002544403076171875</LongitudeDegrees>
            </Position>
            <AltitudeMeters>790.20001220703125</AltitudeMeters>
            <DistanceMeters>NAN</DistanceMeters>
          </Trackpoint>
          <Trackpoint>
            <Time>2020-12-05T13:25:07.000Z</Time>
            <Position>
              <LatitudeDegrees>36.81756039150059223175048828125</LatitudeDegrees>
              <LongitudeDegrees>-4.38357786275446414947509765625</LongitudeDegrees>
            </Position>
            <AltitudeMeters>790.20001220703125</AltitudeMeters>
            <DistanceMeters>NAN</DistanceMeters>
          </Trackpoint>
          <Trackpoint>
            <Time>2020-12-05T13:25:08.000Z</Time>
            <Position>
              <LatitudeDegrees>36.81755066849291324615478515625</LatitudeDegrees>
              <LongitudeDegrees>-4.3835789524018764495849609375</LongitudeDegrees>
            </Position>
            <AltitudeMeters>790.20001220703125</AltitudeMeters>
            <DistanceMeters>NAN</DistanceMeters>
          </Trackpoint>
          <Trackpoint>
            <Time>2020-12-05T13:25:09.000Z</Time>
            <Position>
              <LatitudeDegrees>36.81753960438072681427001953125</LatitudeDegrees>
              <LongitudeDegrees>-4.38358046114444732666015625</LongitudeDegrees>
            </Position>
            <AltitudeMeters>790.20001220703125</AltitudeMeters>
            <DistanceMeters>NAN</DistanceMeters>
          </Trackpoint>
          <Trackpoint>
            <Time>2020-12-05T13:25:10.000Z</Time>
            <Position>
              <LatitudeDegrees>36.81752569042146205902099609375</LatitudeDegrees>
              <LongitudeDegrees>-4.38358247280120849609375</LongitudeDegrees>
            </Position>
            <AltitudeMeters>790.20001220703125</AltitudeMeters>
            <DistanceMeters>NAN</DistanceMeters>
          </Trackpoint>
          <Trackpoint>
            <Time>2020-12-05T13:25:11.000Z</Time>
            <Position>
              <LatitudeDegrees>36.8175115250051021575927734375</LatitudeDegrees>
              <LongitudeDegrees>-4.38358289189636707305908203125</LongitudeDegrees>
            </Position>
            <AltitudeMeters>790.20001220703125</AltitudeMeters>
            <DistanceMeters>NAN</DistanceMeters>
          </Trackpoint>
          <Trackpoint>
            <Time>2020-12-05T13:25:12.000Z</Time>
            <Position>
              <LatitudeDegrees>36.81749752722680568695068359375</LatitudeDegrees>
              <LongitudeDegrees>-4.383584149181842803955078125</LongitudeDegrees>
            </Position>
            <AltitudeMeters>790.20001220703125</AltitudeMeters>
            <DistanceMeters>NAN</DistanceMeters>
          </Trackpoint>
          <Trackpoint>
            <Time>2020-12-05T13:25:13.000Z</Time>
            <Position>
              <LatitudeDegrees>36.817483864724636077880859375</LatitudeDegrees>
              <LongitudeDegrees>-4.3835859932005405426025390625</LongitudeDegrees>
            </Position>
            <AltitudeMeters>790.20001220703125</AltitudeMeters>
            <DistanceMeters>NAN</DistanceMeters>
          </Trackpoint>
          <Trackpoint>
            <Time>2020-12-05T13:25:14.000Z</Time>
            <Position>
              <LatitudeDegrees>36.81747003458440303802490234375</LatitudeDegrees>
              <LongitudeDegrees>-4.3835866637527942657470703125</LongitudeDegrees>
            </Position>
            <AltitudeMeters>790.20001220703125</AltitudeMeters>
            <DistanceMeters>NAN</DistanceMeters>
          </Trackpoint>
          <Trackpoint>
            <Time>2020-12-05T13:25:15.000Z</Time>
            <Position>
              <LatitudeDegrees>36.8174575455486774444580078125</LatitudeDegrees>
              <LongitudeDegrees>-4.38358758576214313507080078125</LongitudeDegrees>
            </Position>
            <AltitudeMeters>790.20001220703125</AltitudeMeters>
            <DistanceMeters>NAN</DistanceMeters>
          </Trackpoint>
          <Trackpoint>
            <Time>2020-12-05T13:25:16.000Z</Time>
            <Position>
              <LatitudeDegrees>36.81744597852230072021484375</LatitudeDegrees>
              <LongitudeDegrees>-4.3835873343050479888916015625</LongitudeDegrees>
            </Position>
            <AltitudeMeters>790.20001220703125</AltitudeMeters>
            <DistanceMeters>NAN</DistanceMeters>
          </Trackpoint>
          <Trackpoint>
            <Time>2020-12-05T13:25:17.000Z</Time>
            <Position>
              <LatitudeDegrees>36.81743550114333629608154296875</LatitudeDegrees>
              <LongitudeDegrees>-4.38358842395246028900146484375</LongitudeDegrees>
            </Position>
            <AltitudeMeters>790.20001220703125</AltitudeMeters>
            <DistanceMeters>NAN</DistanceMeters>
          </Trackpoint>
          <Trackpoint>
            <Time>2020-12-05T13:25:18.000Z</Time>
            <Position>
              <LatitudeDegrees>36.81742426939308643341064453125</LatitudeDegrees>
              <LongitudeDegrees>-4.38359144143760204315185546875</LongitudeDegrees>
            </Position>
            <AltitudeMeters>790.20001220703125</AltitudeMeters>
            <DistanceMeters>NAN</DistanceMeters>
          </Trackpoint>
          <Trackpoint>
            <Time>2020-12-05T13:25:19.000Z</Time>
            <Position>
              <LatitudeDegrees>36.81741303764283657073974609375</LatitudeDegrees>
              <LongitudeDegrees>-4.38359462656080722808837890625</LongitudeDegrees>
            </Position>
            <AltitudeMeters>790.20001220703125</AltitudeMeters>
            <DistanceMeters>NAN</DistanceMeters>
          </Trackpoint>
          <Trackpoint>
            <Time>2020-12-05T13:25:20.000Z</Time>
            <Position>
              <LatitudeDegrees>36.8174018897116184234619140625</LatitudeDegrees>
              <LongitudeDegrees>-4.3835960514843463897705078125</LongitudeDegrees>
            </Position>
            <AltitudeMeters>790.20001220703125</AltitudeMeters>
            <DistanceMeters>NAN</DistanceMeters>
          </Trackpoint>
          <Trackpoint>
            <Time>2020-12-05T13:25:21.000Z</Time>
            <Position>
              <LatitudeDegrees>36.81739233434200286865234375</LatitudeDegrees>
              <LongitudeDegrees>-4.38359194435179233551025390625</LongitudeDegrees>
            </Position>
            <AltitudeMeters>790.20001220703125</AltitudeMeters>
            <DistanceMeters>NAN</DistanceMeters>
          </Trackpoint>
          <Trackpoint>
            <Time>2020-12-05T13:25:22.000Z</Time>
            <Position>
              <LatitudeDegrees>36.81738168932497501373291015625</LatitudeDegrees>
              <LongitudeDegrees>-4.383587501943111419677734375</LongitudeDegrees>
            </Position>
            <AltitudeMeters>790.20001220703125</AltitudeMeters>
            <DistanceMeters>NAN</DistanceMeters>
          </Trackpoint>
          <Trackpoint>
            <Time>2020-12-05T13:25:23.000Z</Time>
            <Position>
              <LatitudeDegrees>36.81737146340310573577880859375</LatitudeDegrees>
              <LongitudeDegrees>-4.38358255662024021148681640625</LongitudeDegrees>
            </Position>
            <AltitudeMeters>790.20001220703125</AltitudeMeters>
            <DistanceMeters>NAN</DistanceMeters>
          </Trackpoint>
          <Trackpoint>
            <Time>2020-12-05T13:25:24.000Z</Time>
            <Position>
              <LatitudeDegrees>36.8173609860241413116455078125</LatitudeDegrees>
              <LongitudeDegrees>-4.38357853330671787261962890625</LongitudeDegrees>
            </Position>
            <AltitudeMeters>790.20001220703125</AltitudeMeters>
            <DistanceMeters>NAN</DistanceMeters>
          </Trackpoint>
          <Trackpoint>
            <Time>2020-12-05T13:25:25.000Z</Time>
            <Position>
              <LatitudeDegrees>36.81735117919743061065673828125</LatitudeDegrees>
              <LongitudeDegrees>-4.383574761450290679931640625</LongitudeDegrees>
            </Position>
            <AltitudeMeters>790.20001220703125</AltitudeMeters>
            <DistanceMeters>NAN</DistanceMeters>
          </Trackpoint>
          <Trackpoint>
            <Time>2020-12-05T13:25:26.000Z</Time>
            <Position>
              <LatitudeDegrees>36.817341037094593048095703125</LatitudeDegrees>
              <LongitudeDegrees>-4.383574761450290679931640625</LongitudeDegrees>
            </Position>
            <AltitudeMeters>790.20001220703125</AltitudeMeters>
            <DistanceMeters>NAN</DistanceMeters>
          </Trackpoint>
          <Trackpoint>
            <Time>2020-12-05T13:25:27.000Z</Time>
            <Position>
              <LatitudeDegrees>36.81733257137238979339599609375</LatitudeDegrees>
              <LongitudeDegrees>-4.38357501290738582611083984375</LongitudeDegrees>
            </Position>
            <AltitudeMeters>790.20001220703125</AltitudeMeters>
            <DistanceMeters>NAN</DistanceMeters>
          </Trackpoint>
          <Trackpoint>
            <Time>2020-12-05T13:25:28.000Z</Time>
            <Position>
              <LatitudeDegrees>36.81732402183115482330322265625</LatitudeDegrees>
              <LongitudeDegrees>-4.3835729174315929412841796875</LongitudeDegrees>
            </Position>
            <AltitudeMeters>790.20001220703125</AltitudeMeters>
            <DistanceMeters>NAN</DistanceMeters>
          </Trackpoint>
          <Trackpoint>
            <Time>2020-12-05T13:25:29.000Z</Time>
            <Position>
              <LatitudeDegrees>36.81731463409960269927978515625</LatitudeDegrees>
              <LongitudeDegrees>-4.3835709057748317718505859375</LongitudeDegrees>
            </Position>
            <AltitudeMeters>790.20001220703125</AltitudeMeters>
            <DistanceMeters>NAN</DistanceMeters>
          </Trackpoint>
          <Trackpoint>
            <Time>2020-12-05T13:25:30.000Z</Time>
            <Position>
              <LatitudeDegrees>36.81730608455836772918701171875</LatitudeDegrees>
              <LongitudeDegrees>-4.38356830738484859466552734375</LongitudeDegrees>
            </Position>
            <AltitudeMeters>790.20001220703125</AltitudeMeters>
            <DistanceMeters>NAN</DistanceMeters>
          </Trackpoint>
          <Trackpoint>
            <Time>2020-12-05T13:25:31.000Z</Time>
            <Position>
              <LatitudeDegrees>36.8172972835600376129150390625</LatitudeDegrees>
              <LongitudeDegrees>-4.38356461934745311737060546875</LongitudeDegrees>
            </Position>
            <AltitudeMeters>790.20001220703125</AltitudeMeters>
            <DistanceMeters>NAN</DistanceMeters>
          </Trackpoint>
          <Trackpoint>
            <Time>2020-12-05T13:25:32.000Z</Time>
            <Position>
              <LatitudeDegrees>36.8172870576381683349609375</LatitudeDegrees>
              <LongitudeDegrees>-4.3835608474910259246826171875</LongitudeDegrees>
            </Position>
            <AltitudeMeters>790.20001220703125</AltitudeMeters>
            <DistanceMeters>NAN</DistanceMeters>
          </Trackpoint>
          <Trackpoint>
            <Time>2020-12-05T13:25:33.000Z</Time>
            <Position>
              <LatitudeDegrees>36.81727641262114048004150390625</LatitudeDegrees>
              <LongitudeDegrees>-4.38355858437716960906982421875</LongitudeDegrees>
            </Position>
            <AltitudeMeters>790.20001220703125</AltitudeMeters>
            <DistanceMeters>NAN</DistanceMeters>
          </Trackpoint>
          <Trackpoint>
            <Time>2020-12-05T13:25:34.000Z</Time>
            <Position>
              <LatitudeDegrees>36.81726769544184207916259765625</LatitudeDegrees>
              <LongitudeDegrees>-4.3835571594536304473876953125</LongitudeDegrees>
            </Position>
            <AltitudeMeters>790.20001220703125</AltitudeMeters>
            <DistanceMeters>NAN</DistanceMeters>
          </Trackpoint>
          <Trackpoint>
            <Time>2020-12-05T13:25:35.000Z</Time>
            <Position>
              <LatitudeDegrees>36.817259900271892547607421875</LatitudeDegrees>
              <LongitudeDegrees>-4.383553974330425262451171875</LongitudeDegrees>
            </Position>
            <AltitudeMeters>790.20001220703125</AltitudeMeters>
            <DistanceMeters>NAN</DistanceMeters>
          </Trackpoint>
          <Trackpoint>
            <Time>2020-12-05T13:25:36.000Z</Time>
            <Position>
              <LatitudeDegrees>36.81725084781646728515625</LatitudeDegrees>
              <LongitudeDegrees>-4.38354416750371456146240234375</LongitudeDegrees>
            </Position>
            <AltitudeMeters>790.20001220703125</AltitudeMeters>
            <DistanceMeters>NAN</DistanceMeters>
          </Trackpoint>
          <Trackpoint>
            <Time>2020-12-05T13:25:37.000Z</Time>
            <Position>
              <LatitudeDegrees>36.817242801189422607421875</LatitudeDegrees>
              <LongitudeDegrees>-4.38353352248668670654296875</LongitudeDegrees>
            </Position>
            <AltitudeMeters>790.20001220703125</AltitudeMeters>
            <DistanceMeters>NAN</DistanceMeters>
          </Trackpoint>
          <Trackpoint>
            <Time>2020-12-05T13:25:38.000Z</Time>
            <Position>
              <LatitudeDegrees>36.8172379396855831146240234375</LatitudeDegrees>
              <LongitudeDegrees>-4.383523799479007720947265625</LongitudeDegrees>
            </Position>
            <AltitudeMeters>790.20001220703125</AltitudeMeters>
            <DistanceMeters>NAN</DistanceMeters>
          </Trackpoint>
          <Trackpoint>
            <Time>2020-12-05T13:25:39.000Z</Time>
            <Position>
              <LatitudeDegrees>36.81723768822848796844482421875</LatitudeDegrees>
              <LongitudeDegrees>-4.3835165910422801971435546875</LongitudeDegrees>
            </Position>
            <AltitudeMeters>790.20001220703125</AltitudeMeters>
            <DistanceMeters>NAN</DistanceMeters>
          </Trackpoint>
          <Trackpoint>
            <Time>2020-12-05T13:25:40.000Z</Time>
            <Position>
              <LatitudeDegrees>36.817237101495265960693359375</LatitudeDegrees>
              <LongitudeDegrees>-4.383512400090694427490234375</LongitudeDegrees>
            </Position>
            <AltitudeMeters>790.20001220703125</AltitudeMeters>
            <DistanceMeters>NAN</DistanceMeters>
          </Trackpoint>
          <Trackpoint>
            <Time>2020-12-05T13:25:41.000Z</Time>
            <Position>
              <LatitudeDegrees>36.81723752059042453765869140625</LatitudeDegrees>
              <LongitudeDegrees>-4.38351533375680446624755859375</LongitudeDegrees>
            </Position>
            <AltitudeMeters>790.20001220703125</AltitudeMeters>
            <DistanceMeters>NAN</DistanceMeters>
          </Trackpoint>
          <Trackpoint>
            <Time>2020-12-05T13:25:42.000Z</Time>
            <Position>
              <LatitudeDegrees>36.81723718531429767608642578125</LatitudeDegrees>
              <LongitudeDegrees>-4.3835159204900264739990234375</LongitudeDegrees>
            </Position>
            <AltitudeMeters>790.20001220703125</AltitudeMeters>
            <DistanceMeters>NAN</DistanceMeters>
          </Trackpoint>
          <Trackpoint>
            <Time>2020-12-05T13:25:43.000Z</Time>
            <Position>
              <LatitudeDegrees>36.8172345869243144989013671875</LatitudeDegrees>
              <LongitudeDegrees>-4.38351851888000965118408203125</LongitudeDegrees>
            </Position>
            <AltitudeMeters>790.20001220703125</AltitudeMeters>
            <DistanceMeters>NAN</DistanceMeters>
          </Trackpoint>
          <Trackpoint>
            <Time>2020-12-05T13:25:44.000Z</Time>
            <Position>
              <LatitudeDegrees>36.81723140180110931396484375</LatitudeDegrees>
              <LongitudeDegrees>-4.38351801596581935882568359375</LongitudeDegrees>
            </Position>
            <AltitudeMeters>790.20001220703125</AltitudeMeters>
            <DistanceMeters>NAN</DistanceMeters>
          </Trackpoint>
          <Trackpoint>
            <Time>2020-12-05T13:25:45.000Z</Time>
            <Position>
              <LatitudeDegrees>36.81723047979176044464111328125</LatitudeDegrees>
              <LongitudeDegrees>-4.3835155852138996124267578125</LongitudeDegrees>
            </Position>
            <AltitudeMeters>790.20001220703125</AltitudeMeters>
            <DistanceMeters>NAN</DistanceMeters>
          </Trackpoint>
          <Trackpoint>
            <Time>2020-12-05T13:25:46.000Z</Time>
            <Position>
              <LatitudeDegrees>36.8172295577824115753173828125</LatitudeDegrees>
              <LongitudeDegrees>-4.3835113942623138427734375</LongitudeDegrees>
            </Position>
            <AltitudeMeters>790.20001220703125</AltitudeMeters>
            <DistanceMeters>NAN</DistanceMeters>
          </Trackpoint>
          <Trackpoint>
            <Time>2020-12-05T13:25:47.000Z</Time>
            <Position>
              <LatitudeDegrees>36.81722796522080898284912109375</LatitudeDegrees>
              <LongitudeDegrees>-4.38350711949169635772705078125</LongitudeDegrees>
            </Position>
            <AltitudeMeters>790.20001220703125</AltitudeMeters>
            <DistanceMeters>NAN</DistanceMeters>
          </Trackpoint>
          <Trackpoint>
            <Time>2020-12-05T13:25:48.000Z</Time>
            <Position>
              <LatitudeDegrees>36.8172262050211429595947265625</LatitudeDegrees>
              <LongitudeDegrees>-4.38350410200655460357666015625</LongitudeDegrees>
            </Position>
            <AltitudeMeters>790.20001220703125</AltitudeMeters>
            <DistanceMeters>NAN</DistanceMeters>
          </Trackpoint>
          <Trackpoint>
            <Time>2020-12-05T13:25:49.000Z</Time>
            <Position>
              <LatitudeDegrees>36.81722595356404781341552734375</LatitudeDegrees>
              <LongitudeDegrees>-4.38349999487400054931640625</LongitudeDegrees>
            </Position>
            <AltitudeMeters>790.20001220703125</AltitudeMeters>
            <DistanceMeters>NAN</DistanceMeters>
          </Trackpoint>
          <Trackpoint>
            <Time>2020-12-05T13:25:50.000Z</Time>
            <Position>
              <LatitudeDegrees>36.8172253668308258056640625</LatitudeDegrees>
              <LongitudeDegrees>-4.3834953010082244873046875</LongitudeDegrees>
            </Position>
            <AltitudeMeters>790.20001220703125</AltitudeMeters>
            <DistanceMeters>NAN</DistanceMeters>
          </Trackpoint>
          <Trackpoint>
            <Time>2020-12-05T13:25:51.000Z</Time>
            <Position>
              <LatitudeDegrees>36.8172245286405086517333984375</LatitudeDegrees>
              <LongitudeDegrees>-4.383492283523082733154296875</LongitudeDegrees>
            </Position>
            <AltitudeMeters>790.20001220703125</AltitudeMeters>
            <DistanceMeters>NAN</DistanceMeters>
          </Trackpoint>
          <Trackpoint>
            <Time>2020-12-05T13:25:52.000Z</Time>
            <Position>
              <LatitudeDegrees>36.8172231875360012054443359375</LatitudeDegrees>
              <LongitudeDegrees>-4.383493624627590179443359375</LongitudeDegrees>
            </Position>
            <AltitudeMeters>790.20001220703125</AltitudeMeters>
            <DistanceMeters>NAN</DistanceMeters>
          </Trackpoint>
          <Trackpoint>
            <Time>2020-12-05T13:25:53.000Z</Time>
            <Position>
              <LatitudeDegrees>36.8172215111553668975830078125</LatitudeDegrees>
              <LongitudeDegrees>-4.38349597156047821044921875</LongitudeDegrees>
            </Position>
            <AltitudeMeters>790.20001220703125</AltitudeMeters>
            <DistanceMeters>NAN</DistanceMeters>
          </Trackpoint>
          <Trackpoint>
            <Time>2020-12-05T13:25:54.000Z</Time>
            <Position>
              <LatitudeDegrees>36.81721723638474941253662109375</LatitudeDegrees>
              <LongitudeDegrees>-4.38349488191306591033935546875</LongitudeDegrees>
            </Position>
            <AltitudeMeters>790.20001220703125</AltitudeMeters>
            <DistanceMeters>NAN</DistanceMeters>
          </Trackpoint>
          <Trackpoint>
            <Time>2020-12-05T13:25:55.000Z</Time>
            <Position>
              <LatitudeDegrees>36.81721455417573451995849609375</LatitudeDegrees>
              <LongitudeDegrees>-4.383495636284351348876953125</LongitudeDegrees>
            </Position>
            <AltitudeMeters>790.20001220703125</AltitudeMeters>
            <DistanceMeters>NAN</DistanceMeters>
          </Trackpoint>
          <Trackpoint>
            <Time>2020-12-05T13:25:56.000Z</Time>
            <Position>
              <LatitudeDegrees>36.81721405126154422760009765625</LatitudeDegrees>
              <LongitudeDegrees>-4.383503012359142303466796875</LongitudeDegrees>
            </Position>
            <AltitudeMeters>790.20001220703125</AltitudeMeters>
            <DistanceMeters>NAN</DistanceMeters>
          </Trackpoint>
          <Trackpoint>
            <Time>2020-12-05T13:25:57.000Z</Time>
            <Position>
              <LatitudeDegrees>36.8172111175954341888427734375</LatitudeDegrees>
              <LongitudeDegrees>-4.3835087120532989501953125</LongitudeDegrees>
            </Position>
            <AltitudeMeters>790.20001220703125</AltitudeMeters>
            <DistanceMeters>NAN</DistanceMeters>
          </Trackpoint>
          <Trackpoint>
            <Time>2020-12-05T13:25:58.000Z</Time>
            <Position>
              <LatitudeDegrees>36.81720583699643611907958984375</LatitudeDegrees>
              <LongitudeDegrees>-4.38351382501423358917236328125</LongitudeDegrees>
            </Position>
            <AltitudeMeters>790.20001220703125</AltitudeMeters>
            <DistanceMeters>NAN</DistanceMeters>
          </Trackpoint>
          <Trackpoint>
            <Time>2020-12-05T13:25:59.000Z</Time>
            <Position>
              <LatitudeDegrees>36.81719929911196231842041015625</LatitudeDegrees>
              <LongitudeDegrees>-4.3835142441093921661376953125</LongitudeDegrees>
            </Position>
            <AltitudeMeters>790.20001220703125</AltitudeMeters>
            <DistanceMeters>NAN</DistanceMeters>
          </Trackpoint>
          <Trackpoint>
            <Time>2020-12-05T13:26:00.000Z</Time>
            <Position>
              <LatitudeDegrees>36.8171903304755687713623046875</LatitudeDegrees>
              <LongitudeDegrees>-4.38351181335747241973876953125</LongitudeDegrees>
            </Position>
            <AltitudeMeters>782.4000244140625</AltitudeMeters>
            <DistanceMeters>NAN</DistanceMeters>
          </Trackpoint>
          <Trackpoint>
            <Time>2020-12-05T13:26:01.000Z</Time>
            <Position>
              <LatitudeDegrees>36.817181445658206939697265625</LatitudeDegrees>
              <LongitudeDegrees>-4.38350426964461803436279296875</LongitudeDegrees>
            </Position>
            <AltitudeMeters>782.4000244140625</AltitudeMeters>
            <DistanceMeters>NAN</DistanceMeters>
          </Trackpoint>
          <Trackpoint>
            <Time>2020-12-05T13:26:02.000Z</Time>
            <Position>
              <LatitudeDegrees>36.817176751792430877685546875</LatitudeDegrees>
              <LongitudeDegrees>-4.3834994919598102569580078125</LongitudeDegrees>
            </Position>
            <AltitudeMeters>782.4000244140625</AltitudeMeters>
            <DistanceMeters>NAN</DistanceMeters>
          </Trackpoint>
          <Trackpoint>
            <Time>2020-12-05T13:26:03.000Z</Time>
            <Position>
              <LatitudeDegrees>36.8171742372214794158935546875</LatitudeDegrees>
              <LongitudeDegrees>-4.38348532654345035552978515625</LongitudeDegrees>
            </Position>
            <AltitudeMeters>782.4000244140625</AltitudeMeters>
            <DistanceMeters>NAN</DistanceMeters>
          </Trackpoint>
          <Trackpoint>
            <Time>2020-12-05T13:26:04.000Z</Time>
            <Position>
              <LatitudeDegrees>36.8171712197363376617431640625</LatitudeDegrees>
              <LongitudeDegrees>-4.383468143641948699951171875</LongitudeDegrees>
            </Position>
            <AltitudeMeters>782.4000244140625</AltitudeMeters>
            <DistanceMeters>NAN</DistanceMeters>
          </Trackpoint>
          <Trackpoint>
            <Time>2020-12-05T13:26:05.000Z</Time>
            <Position>
              <LatitudeDegrees>36.81716945953667163848876953125</LatitudeDegrees>
              <LongitudeDegrees>-4.38345163129270076751708984375</LongitudeDegrees>
            </Position>
            <AltitudeMeters>782.4000244140625</AltitudeMeters>
            <DistanceMeters>NAN</DistanceMeters>
          </Trackpoint>
          <Trackpoint>
            <Time>2020-12-05T13:26:06.000Z</Time>
            <Position>
              <LatitudeDegrees>36.8171698786318302154541015625</LatitudeDegrees>
              <LongitudeDegrees>-4.3834341131150722503662109375</LongitudeDegrees>
            </Position>
            <AltitudeMeters>782.4000244140625</AltitudeMeters>
            <DistanceMeters>NAN</DistanceMeters>
          </Trackpoint>
          <Trackpoint>
            <Time>2020-12-05T13:26:07.000Z</Time>
            <Position>
              <LatitudeDegrees>36.8171663582324981689453125</LatitudeDegrees>
              <LongitudeDegrees>-4.383417181670665740966796875</LongitudeDegrees>
            </Position>
            <AltitudeMeters>782.4000244140625</AltitudeMeters>
            <DistanceMeters>NAN</DistanceMeters>
          </Trackpoint>
          <Trackpoint>
            <Time>2020-12-05T13:26:08.000Z</Time>
            <Position>
              <LatitudeDegrees>36.81716174818575382232666015625</LatitudeDegrees>
              <LongitudeDegrees>-4.38340133987367153167724609375</LongitudeDegrees>
            </Position>
            <AltitudeMeters>782.4000244140625</AltitudeMeters>
            <DistanceMeters>NAN</DistanceMeters>
          </Trackpoint>
          <Trackpoint>
            <Time>2020-12-05T13:26:09.000Z</Time>
            <Position>
              <LatitudeDegrees>36.817157976329326629638671875</LatitudeDegrees>
              <LongitudeDegrees>-4.3833880126476287841796875</LongitudeDegrees>
            </Position>
            <AltitudeMeters>782.4000244140625</AltitudeMeters>
            <DistanceMeters>NAN</DistanceMeters>
          </Trackpoint>
          <Trackpoint>
            <Time>2020-12-05T13:26:10.000Z</Time>
            <Position>
              <LatitudeDegrees>36.8171544559299945831298828125</LatitudeDegrees>
              <LongitudeDegrees>-4.383377619087696075439453125</LongitudeDegrees>
            </Position>
            <AltitudeMeters>782.4000244140625</AltitudeMeters>
            <DistanceMeters>NAN</DistanceMeters>
          </Trackpoint>
          <Trackpoint>
            <Time>2020-12-05T13:26:11.000Z</Time>
            <Position>
              <LatitudeDegrees>36.8171511031687259674072265625</LatitudeDegrees>
              <LongitudeDegrees>-4.38337049447000026702880859375</LongitudeDegrees>
            </Position>
            <AltitudeMeters>782.4000244140625</AltitudeMeters>
            <DistanceMeters>NAN</DistanceMeters>
          </Trackpoint>
          <Trackpoint>
            <Time>2020-12-05T13:26:12.000Z</Time>
            <Position>
              <LatitudeDegrees>36.81714749895036220550537109375</LatitudeDegrees>
              <LongitudeDegrees>-4.38335943035781383514404296875</LongitudeDegrees>
            </Position>
            <AltitudeMeters>782.4000244140625</AltitudeMeters>
            <DistanceMeters>NAN</DistanceMeters>
          </Trackpoint>
          <Trackpoint>
            <Time>2020-12-05T13:26:13.000Z</Time>
            <Position>
              <LatitudeDegrees>36.81714280508458614349365234375</LatitudeDegrees>
              <LongitudeDegrees>-4.38334551639854907989501953125</LongitudeDegrees>
            </Position>
            <AltitudeMeters>782.4000244140625</AltitudeMeters>
            <DistanceMeters>NAN</DistanceMeters>
          </Trackpoint>
          <Trackpoint>
            <Time>2020-12-05T13:26:14.000Z</Time>
            <Position>
              <LatitudeDegrees>36.8171368539333343505859375</LatitudeDegrees>
              <LongitudeDegrees>-4.38333311118185520172119140625</LongitudeDegrees>
            </Position>
            <AltitudeMeters>782.4000244140625</AltitudeMeters>
            <DistanceMeters>NAN</DistanceMeters>
          </Trackpoint>
          <Trackpoint>
            <Time>2020-12-05T13:26:15.000Z</Time>
            <Position>
              <LatitudeDegrees>36.81713081896305084228515625</LatitudeDegrees>
              <LongitudeDegrees>-4.38331970013678073883056640625</LongitudeDegrees>
            </Position>
            <AltitudeMeters>782.4000244140625</AltitudeMeters>
            <DistanceMeters>NAN</DistanceMeters>
          </Trackpoint>
          <Trackpoint>
            <Time>2020-12-05T13:26:16.000Z</Time>
            <Position>
              <LatitudeDegrees>36.817124448716640472412109375</LatitudeDegrees>
              <LongitudeDegrees>-4.383305869996547698974609375</LongitudeDegrees>
            </Position>
            <AltitudeMeters>782.4000244140625</AltitudeMeters>
            <DistanceMeters>NAN</DistanceMeters>
          </Trackpoint>
          <Trackpoint>
            <Time>2020-12-05T13:26:17.000Z</Time>
            <Position>
              <LatitudeDegrees>36.8171195872128009796142578125</LatitudeDegrees>
              <LongitudeDegrees>-4.38329589553177356719970703125</LongitudeDegrees>
            </Position>
            <AltitudeMeters>782.4000244140625</AltitudeMeters>
            <DistanceMeters>NAN</DistanceMeters>
          </Trackpoint>
          <Trackpoint>
            <Time>2020-12-05T13:26:18.000Z</Time>
            <Position>
              <LatitudeDegrees>36.81711204349994659423828125</LatitudeDegrees>
              <LongitudeDegrees>-4.38328483141958713531494140625</LongitudeDegrees>
            </Position>
            <AltitudeMeters>782.4000244140625</AltitudeMeters>
            <DistanceMeters>NAN</DistanceMeters>
          </Trackpoint>
          <Trackpoint>
            <Time>2020-12-05T13:26:19.000Z</Time>
            <Position>
              <LatitudeDegrees>36.81710408069193363189697265625</LatitudeDegrees>
              <LongitudeDegrees>-4.38327334821224212646484375</LongitudeDegrees>
            </Position>
            <AltitudeMeters>782.4000244140625</AltitudeMeters>
            <DistanceMeters>NAN</DistanceMeters>
          </Trackpoint>
          <Trackpoint>
            <Time>2020-12-05T13:26:20.000Z</Time>
            <Position>
              <LatitudeDegrees>36.8170977942645549774169921875</LatitudeDegrees>
              <LongitudeDegrees>-4.38326530158519744873046875</LongitudeDegrees>
            </Position>
            <AltitudeMeters>782.4000244140625</AltitudeMeters>
            <DistanceMeters>NAN</DistanceMeters>
          </Trackpoint>
          <Trackpoint>
            <Time>2020-12-05T13:26:21.000Z</Time>
            <Position>
              <LatitudeDegrees>36.81709134019911289215087890625</LatitudeDegrees>
              <LongitudeDegrees>-4.38325733877718448638916015625</LongitudeDegrees>
            </Position>
            <AltitudeMeters>782.4000244140625</AltitudeMeters>
            <DistanceMeters>NAN</DistanceMeters>
          </Trackpoint>
          <Trackpoint>
            <Time>2020-12-05T13:26:22.000Z</Time>
            <Position>
              <LatitudeDegrees>36.81708463467657566070556640625</LatitudeDegrees>
              <LongitudeDegrees>-4.38324728049337863922119140625</LongitudeDegrees>
            </Position>
            <AltitudeMeters>782.4000244140625</AltitudeMeters>
            <DistanceMeters>NAN</DistanceMeters>
          </Trackpoint>
          <Trackpoint>
            <Time>2020-12-05T13:26:23.000Z</Time>
            <Position>
              <LatitudeDegrees>36.81707658804953098297119140625</LatitudeDegrees>
              <LongitudeDegrees>-4.3832351267337799072265625</LongitudeDegrees>
            </Position>
            <AltitudeMeters>782.4000244140625</AltitudeMeters>
            <DistanceMeters>NAN</DistanceMeters>
          </Trackpoint>
          <Trackpoint>
            <Time>2020-12-05T13:26:24.000Z</Time>
            <Position>
              <LatitudeDegrees>36.81706803850829601287841796875</LatitudeDegrees>
              <LongitudeDegrees>-4.38322682864964008331298828125</LongitudeDegrees>
            </Position>
            <AltitudeMeters>782.4000244140625</AltitudeMeters>
            <DistanceMeters>NAN</DistanceMeters>
          </Trackpoint>
          <Trackpoint>
            <Time>2020-12-05T13:26:25.000Z</Time>
            <Position>
              <LatitudeDegrees>36.8170602433383464813232421875</LatitudeDegrees>
              <LongitudeDegrees>-4.3832148425281047821044921875</LongitudeDegrees>
            </Position>
            <AltitudeMeters>782.4000244140625</AltitudeMeters>
            <DistanceMeters>NAN</DistanceMeters>
          </Trackpoint>
          <Trackpoint>
            <Time>2020-12-05T13:26:26.000Z</Time>
            <Position>
              <LatitudeDegrees>36.8170548789203166961669921875</LatitudeDegrees>
              <LongitudeDegrees>-4.38319849781692028045654296875</LongitudeDegrees>
            </Position>
            <AltitudeMeters>782.4000244140625</AltitudeMeters>
            <DistanceMeters>NAN</DistanceMeters>
          </Trackpoint>
          <Trackpoint>
            <Time>2020-12-05T13:26:27.000Z</Time>
            <Position>
              <LatitudeDegrees>36.817051358520984649658203125</LatitudeDegrees>
              <LongitudeDegrees>-4.38318374566733837127685546875</LongitudeDegrees>
            </Position>
            <AltitudeMeters>782.4000244140625</AltitudeMeters>
            <DistanceMeters>NAN</DistanceMeters>
          </Trackpoint>
          <Trackpoint>
            <Time>2020-12-05T13:26:28.000Z</Time>
            <Position>
              <LatitudeDegrees>36.81704691611230373382568359375</LatitudeDegrees>
              <LongitudeDegrees>-4.38316882587969303131103515625</LongitudeDegrees>
            </Position>
            <AltitudeMeters>782.4000244140625</AltitudeMeters>
            <DistanceMeters>NAN</DistanceMeters>
          </Trackpoint>
          <Trackpoint>
            <Time>2020-12-05T13:26:29.000Z</Time>
            <Position>
              <LatitudeDegrees>36.8170397914946079254150390625</LatitudeDegrees>
              <LongitudeDegrees>-4.3831578455865383148193359375</LongitudeDegrees>
            </Position>
            <AltitudeMeters>782.4000244140625</AltitudeMeters>
            <DistanceMeters>NAN</DistanceMeters>
          </Trackpoint>
          <Trackpoint>
            <Time>2020-12-05T13:26:30.000Z</Time>
            <Position>
              <LatitudeDegrees>36.817032583057880401611328125</LatitudeDegrees>
              <LongitudeDegrees>-4.38314720056951045989990234375</LongitudeDegrees>
            </Position>
            <AltitudeMeters>782.4000244140625</AltitudeMeters>
            <DistanceMeters>NAN</DistanceMeters>
          </Trackpoint>
          <Trackpoint>
            <Time>2020-12-05T13:26:31.000Z</Time>
            <Position>
              <LatitudeDegrees>36.81702554225921630859375</LatitudeDegrees>
              <LongitudeDegrees>-4.38313663937151432037353515625</LongitudeDegrees>
            </Position>
            <AltitudeMeters>782.4000244140625</AltitudeMeters>
            <DistanceMeters>NAN</DistanceMeters>
          </Trackpoint>
          <Trackpoint>
            <Time>2020-12-05T13:26:32.000Z</Time>
            <Position>
              <LatitudeDegrees>36.81701724417507648468017578125</LatitudeDegrees>
              <LongitudeDegrees>-4.3831276707351207733154296875</LongitudeDegrees>
            </Position>
            <AltitudeMeters>782.4000244140625</AltitudeMeters>
            <DistanceMeters>NAN</DistanceMeters>
          </Trackpoint>
          <Trackpoint>
            <Time>2020-12-05T13:26:33.000Z</Time>
            <Position>
              <LatitudeDegrees>36.817010454833507537841796875</LatitudeDegrees>
              <LongitudeDegrees>-4.38312289305031299591064453125</LongitudeDegrees>
            </Position>
            <AltitudeMeters>782.4000244140625</AltitudeMeters>
            <DistanceMeters>NAN</DistanceMeters>
          </Trackpoint>
          <Trackpoint>
            <Time>2020-12-05T13:26:34.000Z</Time>
            <Position>
              <LatitudeDegrees>36.81700517423450946807861328125</LatitudeDegrees>
              <LongitudeDegrees>-4.3831159360706806182861328125</LongitudeDegrees>
            </Position>
            <AltitudeMeters>782.4000244140625</AltitudeMeters>
            <DistanceMeters>NAN</DistanceMeters>
          </Trackpoint>
          <Trackpoint>
            <Time>2020-12-05T13:26:35.000Z</Time>
            <Position>
              <LatitudeDegrees>36.816999055445194244384765625</LatitudeDegrees>
              <LongitudeDegrees>-4.383103363215923309326171875</LongitudeDegrees>
            </Position>
            <AltitudeMeters>782.4000244140625</AltitudeMeters>
            <DistanceMeters>NAN</DistanceMeters>
          </Trackpoint>
          <Trackpoint>
            <Time>2020-12-05T13:26:36.000Z</Time>
            <Position>
              <LatitudeDegrees>36.81699109263718128204345703125</LatitudeDegrees>
              <LongitudeDegrees>-4.3830881081521511077880859375</LongitudeDegrees>
            </Position>
            <AltitudeMeters>782.4000244140625</AltitudeMeters>
            <DistanceMeters>NAN</DistanceMeters>
          </Trackpoint>
          <Trackpoint>
            <Time>2020-12-05T13:26:37.000Z</Time>
            <Position>
              <LatitudeDegrees>36.8169854767620563507080078125</LatitudeDegrees>
              <LongitudeDegrees>-4.3830760382115840911865234375</LongitudeDegrees>
            </Position>
            <AltitudeMeters>782.4000244140625</AltitudeMeters>
            <DistanceMeters>NAN</DistanceMeters>
          </Trackpoint>
          <Trackpoint>
            <Time>2020-12-05T13:26:38.000Z</Time>
            <Position>
              <LatitudeDegrees>36.81698019616305828094482421875</LatitudeDegrees>
              <LongitudeDegrees>-4.38306254334747791290283203125</LongitudeDegrees>
            </Position>
            <AltitudeMeters>782.4000244140625</AltitudeMeters>
            <DistanceMeters>NAN</DistanceMeters>
          </Trackpoint>
          <Trackpoint>
            <Time>2020-12-05T13:26:39.000Z</Time>
            <Position>
              <LatitudeDegrees>36.81697499938309192657470703125</LatitudeDegrees>
              <LongitudeDegrees>-4.38304443843662738800048828125</LongitudeDegrees>
            </Position>
            <AltitudeMeters>782.4000244140625</AltitudeMeters>
            <DistanceMeters>NAN</DistanceMeters>
          </Trackpoint>
          <Trackpoint>
            <Time>2020-12-05T13:26:40.000Z</Time>
            <Position>
              <LatitudeDegrees>36.8169680424034595489501953125</LatitudeDegrees>
              <LongitudeDegrees>-4.38302926719188690185546875</LongitudeDegrees>
            </Position>
            <AltitudeMeters>782.4000244140625</AltitudeMeters>
            <DistanceMeters>NAN</DistanceMeters>
          </Trackpoint>
          <Trackpoint>
            <Time>2020-12-05T13:26:41.000Z</Time>
            <Position>
              <LatitudeDegrees>36.8169610016047954559326171875</LatitudeDegrees>
              <LongitudeDegrees>-4.38302096910774707794189453125</LongitudeDegrees>
            </Position>
            <AltitudeMeters>782.4000244140625</AltitudeMeters>
            <DistanceMeters>NAN</DistanceMeters>
          </Trackpoint>
          <Trackpoint>
            <Time>2020-12-05T13:26:42.000Z</Time>
            <Position>
              <LatitudeDegrees>36.81695370934903621673583984375</LatitudeDegrees>
              <LongitudeDegrees>-4.3830109946429729461669921875</LongitudeDegrees>
            </Position>
            <AltitudeMeters>782.4000244140625</AltitudeMeters>
            <DistanceMeters>NAN</DistanceMeters>
          </Trackpoint>
          <Trackpoint>
            <Time>2020-12-05T13:26:43.000Z</Time>
            <Position>
              <LatitudeDegrees>36.81694633327424526214599609375</LatitudeDegrees>
              <LongitudeDegrees>-4.38300118781626224517822265625</LongitudeDegrees>
            </Position>
            <AltitudeMeters>782.4000244140625</AltitudeMeters>
            <DistanceMeters>NAN</DistanceMeters>
          </Trackpoint>
          <Trackpoint>
            <Time>2020-12-05T13:26:44.000Z</Time>
            <Position>
              <LatitudeDegrees>36.81694080121815204620361328125</LatitudeDegrees>
              <LongitudeDegrees>-4.38299213536083698272705078125</LongitudeDegrees>
            </Position>
            <AltitudeMeters>782.4000244140625</AltitudeMeters>
            <DistanceMeters>NAN</DistanceMeters>
          </Trackpoint>
          <Trackpoint>
            <Time>2020-12-05T13:26:45.000Z</Time>
            <Position>
              <LatitudeDegrees>36.81693593971431255340576171875</LatitudeDegrees>
              <LongitudeDegrees>-4.3829824961721897125244140625</LongitudeDegrees>
            </Position>
            <AltitudeMeters>782.4000244140625</AltitudeMeters>
            <DistanceMeters>NAN</DistanceMeters>
          </Trackpoint>
          <Trackpoint>
            <Time>2020-12-05T13:26:46.000Z</Time>
            <Position>
              <LatitudeDegrees>36.81692772544920444488525390625</LatitudeDegrees>
              <LongitudeDegrees>-4.3829724378883838653564453125</LongitudeDegrees>
            </Position>
            <AltitudeMeters>782.4000244140625</AltitudeMeters>
            <DistanceMeters>NAN</DistanceMeters>
          </Trackpoint>
          <Trackpoint>
            <Time>2020-12-05T13:26:47.000Z</Time>
            <Position>
              <LatitudeDegrees>36.816919259727001190185546875</LatitudeDegrees>
              <LongitudeDegrees>-4.38296330161392688751220703125</LongitudeDegrees>
            </Position>
            <AltitudeMeters>782.4000244140625</AltitudeMeters>
            <DistanceMeters>NAN</DistanceMeters>
          </Trackpoint>
          <Trackpoint>
            <Time>2020-12-05T13:26:48.000Z</Time>
            <Position>
              <LatitudeDegrees>36.8169080279767513275146484375</LatitudeDegrees>
              <LongitudeDegrees>-4.38295458443462848663330078125</LongitudeDegrees>
            </Position>
            <AltitudeMeters>782.4000244140625</AltitudeMeters>
            <DistanceMeters>NAN</DistanceMeters>
          </Trackpoint>
          <Trackpoint>
            <Time>2020-12-05T13:26:49.000Z</Time>
            <Position>
              <LatitudeDegrees>36.81689822115004062652587890625</LatitudeDegrees>
              <LongitudeDegrees>-4.38294469378888607025146484375</LongitudeDegrees>
            </Position>
            <AltitudeMeters>782.4000244140625</AltitudeMeters>
            <DistanceMeters>NAN</DistanceMeters>
          </Trackpoint>
          <Trackpoint>
            <Time>2020-12-05T13:26:50.000Z</Time>
            <Position>
              <LatitudeDegrees>36.8168872408568859100341796875</LatitudeDegrees>
              <LongitudeDegrees>-4.38293932937085628509521484375</LongitudeDegrees>
            </Position>
            <AltitudeMeters>782.4000244140625</AltitudeMeters>
            <DistanceMeters>NAN</DistanceMeters>
          </Trackpoint>
          <Trackpoint>
            <Time>2020-12-05T13:26:51.000Z</Time>
            <Position>
              <LatitudeDegrees>36.816875003278255462646484375</LatitudeDegrees>
              <LongitudeDegrees>-4.38293564133346080780029296875</LongitudeDegrees>
            </Position>
            <AltitudeMeters>782.4000244140625</AltitudeMeters>
            <DistanceMeters>NAN</DistanceMeters>
          </Trackpoint>
          <Trackpoint>
            <Time>2020-12-05T13:26:52.000Z</Time>
            <Position>
              <LatitudeDegrees>36.8168614245951175689697265625</LatitudeDegrees>
              <LongitudeDegrees>-4.38293597660958766937255859375</LongitudeDegrees>
            </Position>
            <AltitudeMeters>782.4000244140625</AltitudeMeters>
            <DistanceMeters>NAN</DistanceMeters>
          </Trackpoint>
          <Trackpoint>
            <Time>2020-12-05T13:26:53.000Z</Time>
            <Position>
              <LatitudeDegrees>36.8168444931507110595703125</LatitudeDegrees>
              <LongitudeDegrees>-4.38294033519923686981201171875</LongitudeDegrees>
            </Position>
            <AltitudeMeters>782.4000244140625</AltitudeMeters>
            <DistanceMeters>NAN</DistanceMeters>
          </Trackpoint>
          <Trackpoint>
            <Time>2020-12-05T13:26:54.000Z</Time>
            <Position>
              <LatitudeDegrees>36.8168275617063045501708984375</LatitudeDegrees>
              <LongitudeDegrees>-4.3829456157982349395751953125</LongitudeDegrees>
            </Position>
            <AltitudeMeters>782.4000244140625</AltitudeMeters>
            <DistanceMeters>NAN</DistanceMeters>
          </Trackpoint>
          <Trackpoint>
            <Time>2020-12-05T13:26:55.000Z</Time>
            <Position>
              <LatitudeDegrees>36.8168128095567226409912109375</LatitudeDegrees>
              <LongitudeDegrees>-4.38294771127402782440185546875</LongitudeDegrees>
            </Position>
            <AltitudeMeters>782.4000244140625</AltitudeMeters>
            <DistanceMeters>NAN</DistanceMeters>
          </Trackpoint>
          <Trackpoint>
            <Time>2020-12-05T13:26:56.000Z</Time>
            <Position>
              <LatitudeDegrees>36.81679763831198215484619140625</LatitudeDegrees>
              <LongitudeDegrees>-4.38295206986367702484130859375</LongitudeDegrees>
            </Position>
            <AltitudeMeters>782.4000244140625</AltitudeMeters>
            <DistanceMeters>NAN</DistanceMeters>
          </Trackpoint>
          <Trackpoint>
            <Time>2020-12-05T13:26:57.000Z</Time>
            <Position>
              <LatitudeDegrees>36.81678372435271739959716796875</LatitudeDegrees>
              <LongitudeDegrees>-4.382957518100738525390625</LongitudeDegrees>
            </Position>
            <AltitudeMeters>782.4000244140625</AltitudeMeters>
            <DistanceMeters>NAN</DistanceMeters>
          </Trackpoint>
          <Trackpoint>
            <Time>2020-12-05T13:26:58.000Z</Time>
            <Position>
              <LatitudeDegrees>36.8167715705931186676025390625</LatitudeDegrees>
              <LongitudeDegrees>-4.382967911660671234130859375</LongitudeDegrees>
            </Position>
            <AltitudeMeters>782.4000244140625</AltitudeMeters>
            <DistanceMeters>NAN</DistanceMeters>
          </Trackpoint>
          <Trackpoint>
            <Time>2020-12-05T13:26:59.000Z</Time>
            <Position>
              <LatitudeDegrees>36.8167611770331859588623046875</LatitudeDegrees>
              <LongitudeDegrees>-4.38297838903963565826416015625</LongitudeDegrees>
            </Position>
            <AltitudeMeters>782.4000244140625</AltitudeMeters>
            <DistanceMeters>NAN</DistanceMeters>
          </Trackpoint>
          <Trackpoint>
            <Time>2020-12-05T13:27:00.000Z</Time>
            <Position>
              <LatitudeDegrees>36.816751956939697265625</LatitudeDegrees>
              <LongitudeDegrees>-4.38298895023763179779052734375</LongitudeDegrees>
            </Position>
            <AltitudeMeters>772</AltitudeMeters>
            <DistanceMeters>NAN</DistanceMeters>
          </Trackpoint>
          <Trackpoint>
            <Time>2020-12-05T13:27:01.000Z</Time>
            <Position>
              <LatitudeDegrees>36.8167437426745891571044921875</LatitudeDegrees>
              <LongitudeDegrees>-4.382997415959835052490234375</LongitudeDegrees>
            </Position>
            <AltitudeMeters>772</AltitudeMeters>
            <DistanceMeters>NAN</DistanceMeters>
          </Trackpoint>
          <Trackpoint>
            <Time>2020-12-05T13:27:02.000Z</Time>
            <Position>
              <LatitudeDegrees>36.81673519313335418701171875</LatitudeDegrees>
              <LongitudeDegrees>-4.38300755806267261505126953125</LongitudeDegrees>
            </Position>
            <AltitudeMeters>772</AltitudeMeters>
            <DistanceMeters>NAN</DistanceMeters>
          </Trackpoint>
          <Trackpoint>
            <Time>2020-12-05T13:27:03.000Z</Time>
            <Position>
              <LatitudeDegrees>36.81672471575438976287841796875</LatitudeDegrees>
              <LongitudeDegrees>-4.38301258720457553863525390625</LongitudeDegrees>
            </Position>
            <AltitudeMeters>772</AltitudeMeters>
            <DistanceMeters>NAN</DistanceMeters>
          </Trackpoint>
          <Trackpoint>
            <Time>2020-12-05T13:27:04.000Z</Time>
            <Position>
              <LatitudeDegrees>36.816713400185108184814453125</LatitudeDegrees>
              <LongitudeDegrees>-4.38301996327936649322509765625</LongitudeDegrees>
            </Position>
            <AltitudeMeters>772</AltitudeMeters>
            <DistanceMeters>NAN</DistanceMeters>
          </Trackpoint>
          <Trackpoint>
            <Time>2020-12-05T13:27:05.000Z</Time>
            <Position>
              <LatitudeDegrees>36.81670141406357288360595703125</LatitudeDegrees>
              <LongitudeDegrees>-4.38302683643996715545654296875</LongitudeDegrees>
            </Position>
            <AltitudeMeters>772</AltitudeMeters>
            <DistanceMeters>NAN</DistanceMeters>
          </Trackpoint>
          <Trackpoint>
            <Time>2020-12-05T13:27:06.000Z</Time>
            <Position>
              <LatitudeDegrees>36.8166887573897838592529296875</LatitudeDegrees>
              <LongitudeDegrees>-4.38303538598120212554931640625</LongitudeDegrees>
            </Position>
            <AltitudeMeters>772</AltitudeMeters>
            <DistanceMeters>NAN</DistanceMeters>
          </Trackpoint>
          <Trackpoint>
            <Time>2020-12-05T13:27:07.000Z</Time>
            <Position>
              <LatitudeDegrees>36.81667618453502655029296875</LatitudeDegrees>
              <LongitudeDegrees>-4.383047707378864288330078125</LongitudeDegrees>
            </Position>
            <AltitudeMeters>772</AltitudeMeters>
            <DistanceMeters>NAN</DistanceMeters>
          </Trackpoint>
          <Trackpoint>
            <Time>2020-12-05T13:27:08.000Z</Time>
            <Position>
              <LatitudeDegrees>36.81666302494704723358154296875</LatitudeDegrees>
              <LongitudeDegrees>-4.38305818475782871246337890625</LongitudeDegrees>
            </Position>
            <AltitudeMeters>772</AltitudeMeters>
            <DistanceMeters>NAN</DistanceMeters>
          </Trackpoint>
          <Trackpoint>
            <Time>2020-12-05T13:27:09.000Z</Time>
            <Position>
              <LatitudeDegrees>36.81664936244487762451171875</LatitudeDegrees>
              <LongitudeDegrees>-4.38307008706033229827880859375</LongitudeDegrees>
            </Position>
            <AltitudeMeters>772</AltitudeMeters>
            <DistanceMeters>NAN</DistanceMeters>
          </Trackpoint>
          <Trackpoint>
            <Time>2020-12-05T13:27:10.000Z</Time>
            <Position>
              <LatitudeDegrees>36.81663653813302516937255859375</LatitudeDegrees>
              <LongitudeDegrees>-4.38308198936283588409423828125</LongitudeDegrees>
            </Position>
            <AltitudeMeters>772</AltitudeMeters>
            <DistanceMeters>NAN</DistanceMeters>
          </Trackpoint>
          <Trackpoint>
            <Time>2020-12-05T13:27:11.000Z</Time>
            <Position>
              <LatitudeDegrees>36.81662446819245815277099609375</LatitudeDegrees>
              <LongitudeDegrees>-4.38309255056083202362060546875</LongitudeDegrees>
            </Position>
            <AltitudeMeters>772</AltitudeMeters>
            <DistanceMeters>NAN</DistanceMeters>
          </Trackpoint>
          <Trackpoint>
            <Time>2020-12-05T13:27:12.000Z</Time>
            <Position>
              <LatitudeDegrees>36.81661524809896945953369140625</LatitudeDegrees>
              <LongitudeDegrees>-4.3831045366823673248291015625</LongitudeDegrees>
            </Position>
            <AltitudeMeters>772</AltitudeMeters>
            <DistanceMeters>NAN</DistanceMeters>
          </Trackpoint>
          <Trackpoint>
            <Time>2020-12-05T13:27:13.000Z</Time>
            <Position>
              <LatitudeDegrees>36.8166059441864490509033203125</LatitudeDegrees>
              <LongitudeDegrees>-4.38311551697552204132080078125</LongitudeDegrees>
            </Position>
            <AltitudeMeters>772</AltitudeMeters>
            <DistanceMeters>NAN</DistanceMeters>
          </Trackpoint>
          <Trackpoint>
            <Time>2020-12-05T13:27:14.000Z</Time>
            <Position>
              <LatitudeDegrees>36.81659571826457977294921875</LatitudeDegrees>
              <LongitudeDegrees>-4.38312725163996219635009765625</LongitudeDegrees>
            </Position>
            <AltitudeMeters>772</AltitudeMeters>
            <DistanceMeters>NAN</DistanceMeters>
          </Trackpoint>
          <Trackpoint>
            <Time>2020-12-05T13:27:15.000Z</Time>
            <Position>
              <LatitudeDegrees>36.816583983600139617919921875</LatitudeDegrees>
              <LongitudeDegrees>-4.3831358850002288818359375</LongitudeDegrees>
            </Position>
            <AltitudeMeters>772</AltitudeMeters>
            <DistanceMeters>NAN</DistanceMeters>
          </Trackpoint>
          <Trackpoint>
            <Time>2020-12-05T13:27:16.000Z</Time>
            <Position>
              <LatitudeDegrees>36.81657317094504833221435546875</LatitudeDegrees>
              <LongitudeDegrees>-4.3831447698175907135009765625</LongitudeDegrees>
            </Position>
            <AltitudeMeters>772</AltitudeMeters>
            <DistanceMeters>NAN</DistanceMeters>
          </Trackpoint>
          <Trackpoint>
            <Time>2020-12-05T13:27:17.000Z</Time>
            <Position>
              <LatitudeDegrees>36.81656487286090850830078125</LatitudeDegrees>
              <LongitudeDegrees>-4.38315533101558685302734375</LongitudeDegrees>
            </Position>
            <AltitudeMeters>772</AltitudeMeters>
            <DistanceMeters>NAN</DistanceMeters>
          </Trackpoint>
          <Trackpoint>
            <Time>2020-12-05T13:27:18.000Z</Time>
            <Position>
              <LatitudeDegrees>36.81655724532902240753173828125</LatitudeDegrees>
              <LongitudeDegrees>-4.38316597603261470794677734375</LongitudeDegrees>
            </Position>
            <AltitudeMeters>772</AltitudeMeters>
            <DistanceMeters>NAN</DistanceMeters>
          </Trackpoint>
          <Trackpoint>
            <Time>2020-12-05T13:27:19.000Z</Time>
            <Position>
              <LatitudeDegrees>36.8165506236255168914794921875</LatitudeDegrees>
              <LongitudeDegrees>-4.3831752799451351165771484375</LongitudeDegrees>
            </Position>
            <AltitudeMeters>772</AltitudeMeters>
            <DistanceMeters>NAN</DistanceMeters>
          </Trackpoint>
          <Trackpoint>
            <Time>2020-12-05T13:27:20.000Z</Time>
            <Position>
              <LatitudeDegrees>36.81654450483620166778564453125</LatitudeDegrees>
              <LongitudeDegrees>-4.3831823207437992095947265625</LongitudeDegrees>
            </Position>
            <AltitudeMeters>772</AltitudeMeters>
            <DistanceMeters>NAN</DistanceMeters>
          </Trackpoint>
          <Trackpoint>
            <Time>2020-12-05T13:27:21.000Z</Time>
            <Position>
              <LatitudeDegrees>36.8165387213230133056640625</LatitudeDegrees>
              <LongitudeDegrees>-4.3831841647624969482421875</LongitudeDegrees>
            </Position>
            <AltitudeMeters>772</AltitudeMeters>
            <DistanceMeters>NAN</DistanceMeters>
          </Trackpoint>
          <Trackpoint>
            <Time>2020-12-05T13:27:22.000Z</Time>
            <Position>
              <LatitudeDegrees>36.8165328539907932281494140625</LatitudeDegrees>
              <LongitudeDegrees>-4.3831866793334484100341796875</LongitudeDegrees>
            </Position>
            <AltitudeMeters>772</AltitudeMeters>
            <DistanceMeters>NAN</DistanceMeters>
          </Trackpoint>
          <Trackpoint>
            <Time>2020-12-05T13:27:23.000Z</Time>
            <Position>
              <LatitudeDegrees>36.8165274895727634429931640625</LatitudeDegrees>
              <LongitudeDegrees>-4.38318885862827301025390625</LongitudeDegrees>
            </Position>
            <AltitudeMeters>772</AltitudeMeters>
            <DistanceMeters>NAN</DistanceMeters>
          </Trackpoint>
          <Trackpoint>
            <Time>2020-12-05T13:27:24.000Z</Time>
            <Position>
              <LatitudeDegrees>36.81652128696441650390625</LatitudeDegrees>
              <LongitudeDegrees>-4.383191876113414764404296875</LongitudeDegrees>
            </Position>
            <AltitudeMeters>772</AltitudeMeters>
            <DistanceMeters>NAN</DistanceMeters>
          </Trackpoint>
          <Trackpoint>
            <Time>2020-12-05T13:27:25.000Z</Time>
            <Position>
              <LatitudeDegrees>36.8165144138038158416748046875</LatitudeDegrees>
              <LongitudeDegrees>-4.38319983892142772674560546875</LongitudeDegrees>
            </Position>
            <AltitudeMeters>772</AltitudeMeters>
            <DistanceMeters>NAN</DistanceMeters>
          </Trackpoint>
          <Trackpoint>
            <Time>2020-12-05T13:27:26.000Z</Time>
            <Position>
              <LatitudeDegrees>36.8165050260722637176513671875</LatitudeDegrees>
              <LongitudeDegrees>-4.3832083046436309814453125</LongitudeDegrees>
            </Position>
            <AltitudeMeters>772</AltitudeMeters>
            <DistanceMeters>NAN</DistanceMeters>
          </Trackpoint>
          <Trackpoint>
            <Time>2020-12-05T13:27:27.000Z</Time>
            <Position>
              <LatitudeDegrees>36.81649647653102874755859375</LatitudeDegrees>
              <LongitudeDegrees>-4.38321861438453197479248046875</LongitudeDegrees>
            </Position>
            <AltitudeMeters>772</AltitudeMeters>
            <DistanceMeters>NAN</DistanceMeters>
          </Trackpoint>
          <Trackpoint>
            <Time>2020-12-05T13:27:28.000Z</Time>
            <Position>
              <LatitudeDegrees>36.81648650206625461578369140625</LatitudeDegrees>
              <LongitudeDegrees>-4.3832270801067352294921875</LongitudeDegrees>
            </Position>
            <AltitudeMeters>772</AltitudeMeters>
            <DistanceMeters>NAN</DistanceMeters>
          </Trackpoint>
          <Trackpoint>
            <Time>2020-12-05T13:27:29.000Z</Time>
            <Position>
              <LatitudeDegrees>36.81647594086825847625732421875</LatitudeDegrees>
              <LongitudeDegrees>-4.3832373060286045074462890625</LongitudeDegrees>
            </Position>
            <AltitudeMeters>772</AltitudeMeters>
            <DistanceMeters>NAN</DistanceMeters>
          </Trackpoint>
          <Trackpoint>
            <Time>2020-12-05T13:27:30.000Z</Time>
            <Position>
              <LatitudeDegrees>36.81646370328962802886962890625</LatitudeDegrees>
              <LongitudeDegrees>-4.38324878923594951629638671875</LongitudeDegrees>
            </Position>
            <AltitudeMeters>772</AltitudeMeters>
            <DistanceMeters>NAN</DistanceMeters>
          </Trackpoint>
          <Trackpoint>
            <Time>2020-12-05T13:27:31.000Z</Time>
            <Position>
              <LatitudeDegrees>36.8164503760635852813720703125</LatitudeDegrees>
              <LongitudeDegrees>-4.3832594342529773712158203125</LongitudeDegrees>
            </Position>
            <AltitudeMeters>772</AltitudeMeters>
            <DistanceMeters>NAN</DistanceMeters>
          </Trackpoint>
          <Trackpoint>
            <Time>2020-12-05T13:27:32.000Z</Time>
            <Position>
              <LatitudeDegrees>36.8164379708468914031982421875</LatitudeDegrees>
              <LongitudeDegrees>-4.3832691572606563568115234375</LongitudeDegrees>
            </Position>
            <AltitudeMeters>772</AltitudeMeters>
            <DistanceMeters>NAN</DistanceMeters>
          </Trackpoint>
          <Trackpoint>
            <Time>2020-12-05T13:27:33.000Z</Time>
            <Position>
              <LatitudeDegrees>36.81642514653503894805908203125</LatitudeDegrees>
              <LongitudeDegrees>-4.38328047282993793487548828125</LongitudeDegrees>
            </Position>
            <AltitudeMeters>772</AltitudeMeters>
            <DistanceMeters>NAN</DistanceMeters>
          </Trackpoint>
          <Trackpoint>
            <Time>2020-12-05T13:27:34.000Z</Time>
            <Position>
              <LatitudeDegrees>36.81641357950866222381591796875</LatitudeDegrees>
              <LongitudeDegrees>-4.38329203985631465911865234375</LongitudeDegrees>
            </Position>
            <AltitudeMeters>772</AltitudeMeters>
            <DistanceMeters>NAN</DistanceMeters>
          </Trackpoint>
          <Trackpoint>
            <Time>2020-12-05T13:27:35.000Z</Time>
            <Position>
              <LatitudeDegrees>36.81640368886291980743408203125</LatitudeDegrees>
              <LongitudeDegrees>-4.3833053670823574066162109375</LongitudeDegrees>
            </Position>
            <AltitudeMeters>772</AltitudeMeters>
            <DistanceMeters>NAN</DistanceMeters>
          </Trackpoint>
          <Trackpoint>
            <Time>2020-12-05T13:27:36.000Z</Time>
            <Position>
              <LatitudeDegrees>36.81639379821717739105224609375</LatitudeDegrees>
              <LongitudeDegrees>-4.3833197839558124542236328125</LongitudeDegrees>
            </Position>
            <AltitudeMeters>772</AltitudeMeters>
            <DistanceMeters>NAN</DistanceMeters>
          </Trackpoint>
          <Trackpoint>
            <Time>2020-12-05T13:27:37.000Z</Time>
            <Position>
              <LatitudeDegrees>36.8163823150098323822021484375</LatitudeDegrees>
              <LongitudeDegrees>-4.3833301775157451629638671875</LongitudeDegrees>
            </Position>
            <AltitudeMeters>772</AltitudeMeters>
            <DistanceMeters>NAN</DistanceMeters>
          </Trackpoint>
          <Trackpoint>
            <Time>2020-12-05T13:27:38.000Z</Time>
            <Position>
              <LatitudeDegrees>36.81637066416442394256591796875</LatitudeDegrees>
              <LongitudeDegrees>-4.3833422474563121795654296875</LongitudeDegrees>
            </Position>
            <AltitudeMeters>772</AltitudeMeters>
            <DistanceMeters>NAN</DistanceMeters>
          </Trackpoint>
          <Trackpoint>
            <Time>2020-12-05T13:27:39.000Z</Time>
            <Position>
              <LatitudeDegrees>36.81636127643287181854248046875</LatitudeDegrees>
              <LongitudeDegrees>-4.38335507176816463470458984375</LongitudeDegrees>
            </Position>
            <AltitudeMeters>772</AltitudeMeters>
            <DistanceMeters>NAN</DistanceMeters>
          </Trackpoint>
          <Trackpoint>
            <Time>2020-12-05T13:27:40.000Z</Time>
            <Position>
              <LatitudeDegrees>36.816351972520351409912109375</LatitudeDegrees>
              <LongitudeDegrees>-4.38336730934679508209228515625</LongitudeDegrees>
            </Position>
            <AltitudeMeters>772</AltitudeMeters>
            <DistanceMeters>NAN</DistanceMeters>
          </Trackpoint>
          <Trackpoint>
            <Time>2020-12-05T13:27:41.000Z</Time>
            <Position>
              <LatitudeDegrees>36.81634266860783100128173828125</LatitudeDegrees>
              <LongitudeDegrees>-4.38337736763060092926025390625</LongitudeDegrees>
            </Position>
            <AltitudeMeters>772</AltitudeMeters>
            <DistanceMeters>NAN</DistanceMeters>
          </Trackpoint>
          <Trackpoint>
            <Time>2020-12-05T13:27:42.000Z</Time>
            <Position>
              <LatitudeDegrees>36.81633277796208858489990234375</LatitudeDegrees>
              <LongitudeDegrees>-4.383387006819248199462890625</LongitudeDegrees>
            </Position>
            <AltitudeMeters>772</AltitudeMeters>
            <DistanceMeters>NAN</DistanceMeters>
          </Trackpoint>
          <Trackpoint>
            <Time>2020-12-05T13:27:43.000Z</Time>
            <Position>
              <LatitudeDegrees>36.816323138773441314697265625</LatitudeDegrees>
              <LongitudeDegrees>-4.38339748419821262359619140625</LongitudeDegrees>
            </Position>
            <AltitudeMeters>772</AltitudeMeters>
            <DistanceMeters>NAN</DistanceMeters>
          </Trackpoint>
          <Trackpoint>
            <Time>2020-12-05T13:27:44.000Z</Time>
            <Position>
              <LatitudeDegrees>36.816312409937381744384765625</LatitudeDegrees>
              <LongitudeDegrees>-4.3834103085100650787353515625</LongitudeDegrees>
            </Position>
            <AltitudeMeters>772</AltitudeMeters>
            <DistanceMeters>NAN</DistanceMeters>
          </Trackpoint>
          <Trackpoint>
            <Time>2020-12-05T13:27:45.000Z</Time>
            <Position>
              <LatitudeDegrees>36.8163028545677661895751953125</LatitudeDegrees>
              <LongitudeDegrees>-4.38342355191707611083984375</LongitudeDegrees>
            </Position>
            <AltitudeMeters>772</AltitudeMeters>
            <DistanceMeters>NAN</DistanceMeters>
          </Trackpoint>
          <Trackpoint>
            <Time>2020-12-05T13:27:46.000Z</Time>
            <Position>
              <LatitudeDegrees>36.81629355065524578094482421875</LatitudeDegrees>
              <LongitudeDegrees>-4.38343838788568973541259765625</LongitudeDegrees>
            </Position>
            <AltitudeMeters>772</AltitudeMeters>
            <DistanceMeters>NAN</DistanceMeters>
          </Trackpoint>
          <Trackpoint>
            <Time>2020-12-05T13:27:47.000Z</Time>
            <Position>
              <LatitudeDegrees>36.81628525257110595703125</LatitudeDegrees>
              <LongitudeDegrees>-4.38345171511173248291015625</LongitudeDegrees>
            </Position>
            <AltitudeMeters>772</AltitudeMeters>
            <DistanceMeters>NAN</DistanceMeters>
          </Trackpoint>
          <Trackpoint>
            <Time>2020-12-05T13:27:48.000Z</Time>
            <Position>
              <LatitudeDegrees>36.81627578102052211761474609375</LatitudeDegrees>
              <LongitudeDegrees>-4.38346303068101406097412109375</LongitudeDegrees>
            </Position>
            <AltitudeMeters>772</AltitudeMeters>
            <DistanceMeters>NAN</DistanceMeters>
          </Trackpoint>
          <Trackpoint>
            <Time>2020-12-05T13:27:49.000Z</Time>
            <Position>
              <LatitudeDegrees>36.81626555509865283966064453125</LatitudeDegrees>
              <LongitudeDegrees>-4.3834740109741687774658203125</LongitudeDegrees>
            </Position>
            <AltitudeMeters>772</AltitudeMeters>
            <DistanceMeters>NAN</DistanceMeters>
          </Trackpoint>
          <Trackpoint>
            <Time>2020-12-05T13:27:50.000Z</Time>
            <Position>
              <LatitudeDegrees>36.81625465862452983856201171875</LatitudeDegrees>
              <LongitudeDegrees>-4.38348398543894290924072265625</LongitudeDegrees>
            </Position>
            <AltitudeMeters>772</AltitudeMeters>
            <DistanceMeters>NAN</DistanceMeters>
          </Trackpoint>
          <Trackpoint>
            <Time>2020-12-05T13:27:51.000Z</Time>
            <Position>
              <LatitudeDegrees>36.8162421695888042449951171875</LatitudeDegrees>
              <LongitudeDegrees>-4.38349890522658824920654296875</LongitudeDegrees>
            </Position>
            <AltitudeMeters>772</AltitudeMeters>
            <DistanceMeters>NAN</DistanceMeters>
          </Trackpoint>
          <Trackpoint>
            <Time>2020-12-05T13:27:52.000Z</Time>
            <Position>
              <LatitudeDegrees>36.816233955323696136474609375</LatitudeDegrees>
              <LongitudeDegrees>-4.38351885415613651275634765625</LongitudeDegrees>
            </Position>
            <AltitudeMeters>772</AltitudeMeters>
            <DistanceMeters>NAN</DistanceMeters>
          </Trackpoint>
          <Trackpoint>
            <Time>2020-12-05T13:27:53.000Z</Time>
            <Position>
              <LatitudeDegrees>36.81622691452503204345703125</LatitudeDegrees>
              <LongitudeDegrees>-4.38353612087666988372802734375</LongitudeDegrees>
            </Position>
            <AltitudeMeters>772</AltitudeMeters>
            <DistanceMeters>NAN</DistanceMeters>
          </Trackpoint>
          <Trackpoint>
            <Time>2020-12-05T13:27:54.000Z</Time>
            <Position>
              <LatitudeDegrees>36.816221885383129119873046875</LatitudeDegrees>
              <LongitudeDegrees>-4.3835517950356006622314453125</LongitudeDegrees>
            </Position>
            <AltitudeMeters>772</AltitudeMeters>
            <DistanceMeters>NAN</DistanceMeters>
          </Trackpoint>
          <Trackpoint>
            <Time>2020-12-05T13:27:55.000Z</Time>
            <Position>
              <LatitudeDegrees>36.81621626950800418853759765625</LatitudeDegrees>
              <LongitudeDegrees>-4.38356897793710231781005859375</LongitudeDegrees>
            </Position>
            <AltitudeMeters>772</AltitudeMeters>
            <DistanceMeters>NAN</DistanceMeters>
          </Trackpoint>
          <Trackpoint>
            <Time>2020-12-05T13:27:56.000Z</Time>
            <Position>
              <LatitudeDegrees>36.81620755232870578765869140625</LatitudeDegrees>
              <LongitudeDegrees>-4.38358222134411334991455078125</LongitudeDegrees>
            </Position>
            <AltitudeMeters>772</AltitudeMeters>
            <DistanceMeters>NAN</DistanceMeters>
          </Trackpoint>
          <Trackpoint>
            <Time>2020-12-05T13:27:57.000Z</Time>
            <Position>
              <LatitudeDegrees>36.8161972425878047943115234375</LatitudeDegrees>
              <LongitudeDegrees>-4.38359613530337810516357421875</LongitudeDegrees>
            </Position>
            <AltitudeMeters>772</AltitudeMeters>
            <DistanceMeters>NAN</DistanceMeters>
          </Trackpoint>
          <Trackpoint>
            <Time>2020-12-05T13:27:58.000Z</Time>
            <Position>
              <LatitudeDegrees>36.81618760339915752410888671875</LatitudeDegrees>
              <LongitudeDegrees>-4.3836052715778350830078125</LongitudeDegrees>
            </Position>
            <AltitudeMeters>772</AltitudeMeters>
            <DistanceMeters>NAN</DistanceMeters>
          </Trackpoint>
          <Trackpoint>
            <Time>2020-12-05T13:27:59.000Z</Time>
            <Position>
              <LatitudeDegrees>36.81617922149598598480224609375</LatitudeDegrees>
              <LongitudeDegrees>-4.38361491076648235321044921875</LongitudeDegrees>
            </Position>
            <AltitudeMeters>772</AltitudeMeters>
            <DistanceMeters>NAN</DistanceMeters>
          </Trackpoint>
          <Trackpoint>
            <Time>2020-12-05T13:28:00.000Z</Time>
            <Position>
              <LatitudeDegrees>36.81617067195475101470947265625</LatitudeDegrees>
              <LongitudeDegrees>-4.38362195156514644622802734375</LongitudeDegrees>
            </Position>
            <AltitudeMeters>762.4000244140625</AltitudeMeters>
            <DistanceMeters>NAN</DistanceMeters>
          </Trackpoint>
          <Trackpoint>
            <Time>2020-12-05T13:28:01.000Z</Time>
            <Position>
              <LatitudeDegrees>36.81616396643221378326416015625</LatitudeDegrees>
              <LongitudeDegrees>-4.38362865708768367767333984375</LongitudeDegrees>
            </Position>
            <AltitudeMeters>762.4000244140625</AltitudeMeters>
            <DistanceMeters>NAN</DistanceMeters>
          </Trackpoint>
          <Trackpoint>
            <Time>2020-12-05T13:28:02.000Z</Time>
            <Position>
              <LatitudeDegrees>36.8161570094525814056396484375</LatitudeDegrees>
              <LongitudeDegrees>-4.38363469205796718597412109375</LongitudeDegrees>
            </Position>
            <AltitudeMeters>762.4000244140625</AltitudeMeters>
            <DistanceMeters>NAN</DistanceMeters>
          </Trackpoint>
          <Trackpoint>
            <Time>2020-12-05T13:28:03.000Z</Time>
            <Position>
              <LatitudeDegrees>36.81614904664456844329833984375</LatitudeDegrees>
              <LongitudeDegrees>-4.38364081084728240966796875</LongitudeDegrees>
            </Position>
            <AltitudeMeters>762.4000244140625</AltitudeMeters>
            <DistanceMeters>NAN</DistanceMeters>
          </Trackpoint>
          <Trackpoint>
            <Time>2020-12-05T13:28:04.000Z</Time>
            <Position>
              <LatitudeDegrees>36.8161409161984920501708984375</LatitudeDegrees>
              <LongitudeDegrees>-4.38364860601723194122314453125</LongitudeDegrees>
            </Position>
            <AltitudeMeters>762.4000244140625</AltitudeMeters>
            <DistanceMeters>NAN</DistanceMeters>
          </Trackpoint>
          <Trackpoint>
            <Time>2020-12-05T13:28:05.000Z</Time>
            <Position>
              <LatitudeDegrees>36.81613177992403507232666015625</LatitudeDegrees>
              <LongitudeDegrees>-4.38365547917783260345458984375</LongitudeDegrees>
            </Position>
            <AltitudeMeters>762.4000244140625</AltitudeMeters>
            <DistanceMeters>NAN</DistanceMeters>
          </Trackpoint>
          <Trackpoint>
            <Time>2020-12-05T13:28:06.000Z</Time>
            <Position>
              <LatitudeDegrees>36.81612138636410236358642578125</LatitudeDegrees>
              <LongitudeDegrees>-4.38366226851940155029296875</LongitudeDegrees>
            </Position>
            <AltitudeMeters>762.4000244140625</AltitudeMeters>
            <DistanceMeters>NAN</DistanceMeters>
          </Trackpoint>
          <Trackpoint>
            <Time>2020-12-05T13:28:07.000Z</Time>
            <Position>
              <LatitudeDegrees>36.8161107413470745086669921875</LatitudeDegrees>
              <LongitudeDegrees>-4.383668638765811920166015625</LongitudeDegrees>
            </Position>
            <AltitudeMeters>762.4000244140625</AltitudeMeters>
            <DistanceMeters>NAN</DistanceMeters>
          </Trackpoint>
          <Trackpoint>
            <Time>2020-12-05T13:28:08.000Z</Time>
            <Position>
              <LatitudeDegrees>36.81609959341585636138916015625</LatitudeDegrees>
              <LongitudeDegrees>-4.38367433845996856689453125</LongitudeDegrees>
            </Position>
            <AltitudeMeters>762.4000244140625</AltitudeMeters>
            <DistanceMeters>NAN</DistanceMeters>
          </Trackpoint>
          <Trackpoint>
            <Time>2020-12-05T13:28:09.000Z</Time>
            <Position>
              <LatitudeDegrees>36.81608609855175018310546875</LatitudeDegrees>
              <LongitudeDegrees>-4.38367995433509349822998046875</LongitudeDegrees>
            </Position>
            <AltitudeMeters>762.4000244140625</AltitudeMeters>
            <DistanceMeters>NAN</DistanceMeters>
          </Trackpoint>
          <Trackpoint>
            <Time>2020-12-05T13:28:10.000Z</Time>
            <Position>
              <LatitudeDegrees>36.81607277132570743560791015625</LatitudeDegrees>
              <LongitudeDegrees>-4.38368615694344043731689453125</LongitudeDegrees>
            </Position>
            <AltitudeMeters>762.4000244140625</AltitudeMeters>
            <DistanceMeters>NAN</DistanceMeters>
          </Trackpoint>
          <Trackpoint>
            <Time>2020-12-05T13:28:11.000Z</Time>
            <Position>
              <LatitudeDegrees>36.81605701334774494171142578125</LatitudeDegrees>
              <LongitudeDegrees>-4.38369311392307281494140625</LongitudeDegrees>
            </Position>
            <AltitudeMeters>762.4000244140625</AltitudeMeters>
            <DistanceMeters>NAN</DistanceMeters>
          </Trackpoint>
          <Trackpoint>
            <Time>2020-12-05T13:28:12.000Z</Time>
            <Position>
              <LatitudeDegrees>36.816042177379131317138671875</LatitudeDegrees>
              <LongitudeDegrees>-4.38370023854076862335205078125</LongitudeDegrees>
            </Position>
            <AltitudeMeters>762.4000244140625</AltitudeMeters>
            <DistanceMeters>NAN</DistanceMeters>
          </Trackpoint>
          <Trackpoint>
            <Time>2020-12-05T13:28:13.000Z</Time>
            <Position>
              <LatitudeDegrees>36.81602708995342254638671875</LatitudeDegrees>
              <LongitudeDegrees>-4.38370811752974987030029296875</LongitudeDegrees>
            </Position>
            <AltitudeMeters>762.4000244140625</AltitudeMeters>
            <DistanceMeters>NAN</DistanceMeters>
          </Trackpoint>
          <Trackpoint>
            <Time>2020-12-05T13:28:14.000Z</Time>
            <Position>
              <LatitudeDegrees>36.816011331975460052490234375</LatitudeDegrees>
              <LongitudeDegrees>-4.38371750526130199432373046875</LongitudeDegrees>
            </Position>
            <AltitudeMeters>762.4000244140625</AltitudeMeters>
            <DistanceMeters>NAN</DistanceMeters>
          </Trackpoint>
          <Trackpoint>
            <Time>2020-12-05T13:28:15.000Z</Time>
            <Position>
              <LatitudeDegrees>36.815996579825878143310546875</LatitudeDegrees>
              <LongitudeDegrees>-4.38372488133609294891357421875</LongitudeDegrees>
            </Position>
            <AltitudeMeters>762.4000244140625</AltitudeMeters>
            <DistanceMeters>NAN</DistanceMeters>
          </Trackpoint>
          <Trackpoint>
            <Time>2020-12-05T13:28:16.000Z</Time>
            <Position>
              <LatitudeDegrees>36.81597881019115447998046875</LatitudeDegrees>
              <LongitudeDegrees>-4.3837348558008670806884765625</LongitudeDegrees>
            </Position>
            <AltitudeMeters>762.4000244140625</AltitudeMeters>
            <DistanceMeters>NAN</DistanceMeters>
          </Trackpoint>
          <Trackpoint>
            <Time>2020-12-05T13:28:17.000Z</Time>
            <Position>
              <LatitudeDegrees>36.81596179492771625518798828125</LatitudeDegrees>
              <LongitudeDegrees>-4.383743070065975189208984375</LongitudeDegrees>
            </Position>
            <AltitudeMeters>762.4000244140625</AltitudeMeters>
            <DistanceMeters>NAN</DistanceMeters>
          </Trackpoint>
          <Trackpoint>
            <Time>2020-12-05T13:28:18.000Z</Time>
            <Position>
              <LatitudeDegrees>36.81594721041619777679443359375</LatitudeDegrees>
              <LongitudeDegrees>-4.38375187106430530548095703125</LongitudeDegrees>
            </Position>
            <AltitudeMeters>762.4000244140625</AltitudeMeters>
            <DistanceMeters>NAN</DistanceMeters>
          </Trackpoint>
          <Trackpoint>
            <Time>2020-12-05T13:28:19.000Z</Time>
            <Position>
              <LatitudeDegrees>36.81593229062855243682861328125</LatitudeDegrees>
              <LongitudeDegrees>-4.38375891186296939849853515625</LongitudeDegrees>
            </Position>
            <AltitudeMeters>762.4000244140625</AltitudeMeters>
            <DistanceMeters>NAN</DistanceMeters>
          </Trackpoint>
          <Trackpoint>
            <Time>2020-12-05T13:28:20.000Z</Time>
            <Position>
              <LatitudeDegrees>36.8159166164696216583251953125</LatitudeDegrees>
              <LongitudeDegrees>-4.38376712612807750701904296875</LongitudeDegrees>
            </Position>
            <AltitudeMeters>762.4000244140625</AltitudeMeters>
            <DistanceMeters>NAN</DistanceMeters>
          </Trackpoint>
          <Trackpoint>
            <Time>2020-12-05T13:28:21.000Z</Time>
            <Position>
              <LatitudeDegrees>36.81590446271002292633056640625</LatitudeDegrees>
              <LongitudeDegrees>-4.38377567566931247711181640625</LongitudeDegrees>
            </Position>
            <AltitudeMeters>762.4000244140625</AltitudeMeters>
            <DistanceMeters>NAN</DistanceMeters>
          </Trackpoint>
          <Trackpoint>
            <Time>2020-12-05T13:28:22.000Z</Time>
            <Position>
              <LatitudeDegrees>36.8158928118646144866943359375</LatitudeDegrees>
              <LongitudeDegrees>-4.38378565013408660888671875</LongitudeDegrees>
            </Position>
            <AltitudeMeters>762.4000244140625</AltitudeMeters>
            <DistanceMeters>NAN</DistanceMeters>
          </Trackpoint>
          <Trackpoint>
            <Time>2020-12-05T13:28:23.000Z</Time>
            <Position>
              <LatitudeDegrees>36.81588082574307918548583984375</LatitudeDegrees>
              <LongitudeDegrees>-4.38379495404660701751708984375</LongitudeDegrees>
            </Position>
            <AltitudeMeters>762.4000244140625</AltitudeMeters>
            <DistanceMeters>NAN</DistanceMeters>
          </Trackpoint>
          <Trackpoint>
            <Time>2020-12-05T13:28:24.000Z</Time>
            <Position>
              <LatitudeDegrees>36.81586883962154388427734375</LatitudeDegrees>
              <LongitudeDegrees>-4.38380300067365169525146484375</LongitudeDegrees>
            </Position>
            <AltitudeMeters>762.4000244140625</AltitudeMeters>
            <DistanceMeters>NAN</DistanceMeters>
          </Trackpoint>
          <Trackpoint>
            <Time>2020-12-05T13:28:25.000Z</Time>
            <Position>
              <LatitudeDegrees>36.8158586136996746063232421875</LatitudeDegrees>
              <LongitudeDegrees>-4.3838076107203960418701171875</LongitudeDegrees>
            </Position>
            <AltitudeMeters>762.4000244140625</AltitudeMeters>
            <DistanceMeters>NAN</DistanceMeters>
          </Trackpoint>
          <Trackpoint>
            <Time>2020-12-05T13:28:26.000Z</Time>
            <Position>
              <LatitudeDegrees>36.81584947742521762847900390625</LatitudeDegrees>
              <LongitudeDegrees>-4.38381071202456951141357421875</LongitudeDegrees>
            </Position>
            <AltitudeMeters>762.4000244140625</AltitudeMeters>
            <DistanceMeters>NAN</DistanceMeters>
          </Trackpoint>
          <Trackpoint>
            <Time>2020-12-05T13:28:27.000Z</Time>
            <Position>
              <LatitudeDegrees>36.8158378265798091888427734375</LatitudeDegrees>
              <LongitudeDegrees>-4.38381607644259929656982421875</LongitudeDegrees>
            </Position>
            <AltitudeMeters>762.4000244140625</AltitudeMeters>
            <DistanceMeters>NAN</DistanceMeters>
          </Trackpoint>
          <Trackpoint>
            <Time>2020-12-05T13:28:28.000Z</Time>
            <Position>
              <LatitudeDegrees>36.81582835502922534942626953125</LatitudeDegrees>
              <LongitudeDegrees>-4.3838216923177242279052734375</LongitudeDegrees>
            </Position>
            <AltitudeMeters>762.4000244140625</AltitudeMeters>
            <DistanceMeters>NAN</DistanceMeters>
          </Trackpoint>
          <Trackpoint>
            <Time>2020-12-05T13:28:29.000Z</Time>
            <Position>
              <LatitudeDegrees>36.8158190511167049407958984375</LatitudeDegrees>
              <LongitudeDegrees>-4.38382647000253200531005859375</LongitudeDegrees>
            </Position>
            <AltitudeMeters>762.4000244140625</AltitudeMeters>
            <DistanceMeters>NAN</DistanceMeters>
          </Trackpoint>
          <Trackpoint>
            <Time>2020-12-05T13:28:30.000Z</Time>
            <Position>
              <LatitudeDegrees>36.81581226177513599395751953125</LatitudeDegrees>
              <LongitudeDegrees>-4.3838346004486083984375</LongitudeDegrees>
            </Position>
            <AltitudeMeters>762.4000244140625</AltitudeMeters>
            <DistanceMeters>NAN</DistanceMeters>
          </Trackpoint>
          <Trackpoint>
            <Time>2020-12-05T13:28:31.000Z</Time>
            <Position>
              <LatitudeDegrees>36.81580421514809131622314453125</LatitudeDegrees>
              <LongitudeDegrees>-4.38384340144693851470947265625</LongitudeDegrees>
            </Position>
            <AltitudeMeters>762.4000244140625</AltitudeMeters>
            <DistanceMeters>NAN</DistanceMeters>
          </Trackpoint>
          <Trackpoint>
            <Time>2020-12-05T13:28:32.000Z</Time>
            <Position>
              <LatitudeDegrees>36.8157918937504291534423828125</LatitudeDegrees>
              <LongitudeDegrees>-4.38384608365595340728759765625</LongitudeDegrees>
            </Position>
            <AltitudeMeters>762.4000244140625</AltitudeMeters>
            <DistanceMeters>NAN</DistanceMeters>
          </Trackpoint>
          <Trackpoint>
            <Time>2020-12-05T13:28:33.000Z</Time>
            <Position>
              <LatitudeDegrees>36.81578032672405242919921875</LatitudeDegrees>
              <LongitudeDegrees>-4.38385278917849063873291015625</LongitudeDegrees>
            </Position>
            <AltitudeMeters>762.4000244140625</AltitudeMeters>
            <DistanceMeters>NAN</DistanceMeters>
          </Trackpoint>
          <Trackpoint>
            <Time>2020-12-05T13:28:34.000Z</Time>
            <Position>
              <LatitudeDegrees>36.8157662451267242431640625</LatitudeDegrees>
              <LongitudeDegrees>-4.3838625960052013397216796875</LongitudeDegrees>
            </Position>
            <AltitudeMeters>762.4000244140625</AltitudeMeters>
            <DistanceMeters>NAN</DistanceMeters>
          </Trackpoint>
          <Trackpoint>
            <Time>2020-12-05T13:28:35.000Z</Time>
            <Position>
              <LatitudeDegrees>36.8157528340816497802734375</LatitudeDegrees>
              <LongitudeDegrees>-4.38387273810803890228271484375</LongitudeDegrees>
            </Position>
            <AltitudeMeters>762.4000244140625</AltitudeMeters>
            <DistanceMeters>NAN</DistanceMeters>
          </Trackpoint>
          <Trackpoint>
            <Time>2020-12-05T13:28:36.000Z</Time>
            <Position>
              <LatitudeDegrees>36.81574084796011447906494140625</LatitudeDegrees>
              <LongitudeDegrees>-4.38388891518115997314453125</LongitudeDegrees>
            </Position>
            <AltitudeMeters>762.4000244140625</AltitudeMeters>
            <DistanceMeters>NAN</DistanceMeters>
          </Trackpoint>
          <Trackpoint>
            <Time>2020-12-05T13:28:37.000Z</Time>
            <Position>
              <LatitudeDegrees>36.81573112495243549346923828125</LatitudeDegrees>
              <LongitudeDegrees>-4.383907355368137359619140625</LongitudeDegrees>
            </Position>
            <AltitudeMeters>762.4000244140625</AltitudeMeters>
            <DistanceMeters>NAN</DistanceMeters>
          </Trackpoint>
          <Trackpoint>
            <Time>2020-12-05T13:28:38.000Z</Time>
            <Position>
              <LatitudeDegrees>36.815723665058612823486328125</LatitudeDegrees>
              <LongitudeDegrees>-4.3839249573647975921630859375</LongitudeDegrees>
            </Position>
            <AltitudeMeters>762.4000244140625</AltitudeMeters>
            <DistanceMeters>NAN</DistanceMeters>
          </Trackpoint>
          <Trackpoint>
            <Time>2020-12-05T13:28:39.000Z</Time>
            <Position>
              <LatitudeDegrees>36.81571436114609241485595703125</LatitudeDegrees>
              <LongitudeDegrees>-4.383936859667301177978515625</LongitudeDegrees>
            </Position>
            <AltitudeMeters>762.4000244140625</AltitudeMeters>
            <DistanceMeters>NAN</DistanceMeters>
          </Trackpoint>
          <Trackpoint>
            <Time>2020-12-05T13:28:40.000Z</Time>
            <Position>
              <LatitudeDegrees>36.8157037161290645599365234375</LatitudeDegrees>
              <LongitudeDegrees>-4.38394515775144100189208984375</LongitudeDegrees>
            </Position>
            <AltitudeMeters>762.4000244140625</AltitudeMeters>
            <DistanceMeters>NAN</DistanceMeters>
          </Trackpoint>
          <Trackpoint>
            <Time>2020-12-05T13:28:41.000Z</Time>
            <Position>
              <LatitudeDegrees>36.81569206528365612030029296875</LatitudeDegrees>
              <LongitudeDegrees>-4.38395504839718341827392578125</LongitudeDegrees>
            </Position>
            <AltitudeMeters>762.4000244140625</AltitudeMeters>
            <DistanceMeters>NAN</DistanceMeters>
          </Trackpoint>
          <Trackpoint>
            <Time>2020-12-05T13:28:42.000Z</Time>
            <Position>
              <LatitudeDegrees>36.81568016298115253448486328125</LatitudeDegrees>
              <LongitudeDegrees>-4.38396292738616466522216796875</LongitudeDegrees>
            </Position>
            <AltitudeMeters>762.4000244140625</AltitudeMeters>
            <DistanceMeters>NAN</DistanceMeters>
          </Trackpoint>
          <Trackpoint>
            <Time>2020-12-05T13:28:43.000Z</Time>
            <Position>
              <LatitudeDegrees>36.81566926650702953338623046875</LatitudeDegrees>
              <LongitudeDegrees>-4.38397147692739963531494140625</LongitudeDegrees>
            </Position>
            <AltitudeMeters>762.4000244140625</AltitudeMeters>
            <DistanceMeters>NAN</DistanceMeters>
          </Trackpoint>
          <Trackpoint>
            <Time>2020-12-05T13:28:44.000Z</Time>
            <Position>
              <LatitudeDegrees>36.8156594596803188323974609375</LatitudeDegrees>
              <LongitudeDegrees>-4.38398337922990322113037109375</LongitudeDegrees>
            </Position>
            <AltitudeMeters>762.4000244140625</AltitudeMeters>
            <DistanceMeters>NAN</DistanceMeters>
          </Trackpoint>
          <Trackpoint>
            <Time>2020-12-05T13:28:45.000Z</Time>
            <Position>
              <LatitudeDegrees>36.81565367616713047027587890625</LatitudeDegrees>
              <LongitudeDegrees>-4.38400316052138805389404296875</LongitudeDegrees>
            </Position>
            <AltitudeMeters>762.4000244140625</AltitudeMeters>
            <DistanceMeters>NAN</DistanceMeters>
          </Trackpoint>
          <Trackpoint>
            <Time>2020-12-05T13:28:46.000Z</Time>
            <Position>
              <LatitudeDegrees>36.815649569034576416015625</LatitudeDegrees>
              <LongitudeDegrees>-4.38401657156646251678466796875</LongitudeDegrees>
            </Position>
            <AltitudeMeters>762.4000244140625</AltitudeMeters>
            <DistanceMeters>NAN</DistanceMeters>
          </Trackpoint>
          <Trackpoint>
            <Time>2020-12-05T13:28:47.000Z</Time>
            <Position>
              <LatitudeDegrees>36.8156453780829906463623046875</LatitudeDegrees>
              <LongitudeDegrees>-4.38403283245861530303955078125</LongitudeDegrees>
            </Position>
            <AltitudeMeters>762.4000244140625</AltitudeMeters>
            <DistanceMeters>NAN</DistanceMeters>
          </Trackpoint>
          <Trackpoint>
            <Time>2020-12-05T13:28:48.000Z</Time>
            <Position>
              <LatitudeDegrees>36.815638840198516845703125</LatitudeDegrees>
              <LongitudeDegrees>-4.38404238782823085784912109375</LongitudeDegrees>
            </Position>
            <AltitudeMeters>762.4000244140625</AltitudeMeters>
            <DistanceMeters>NAN</DistanceMeters>
          </Trackpoint>
          <Trackpoint>
            <Time>2020-12-05T13:28:49.000Z</Time>
            <Position>
              <LatitudeDegrees>36.81562936864793300628662109375</LatitudeDegrees>
              <LongitudeDegrees>-4.38405144028365612030029296875</LongitudeDegrees>
            </Position>
            <AltitudeMeters>762.4000244140625</AltitudeMeters>
            <DistanceMeters>NAN</DistanceMeters>
          </Trackpoint>
          <Trackpoint>
            <Time>2020-12-05T13:28:50.000Z</Time>
            <Position>
              <LatitudeDegrees>36.815617717802524566650390625</LatitudeDegrees>
              <LongitudeDegrees>-4.3840610794723033905029296875</LongitudeDegrees>
            </Position>
            <AltitudeMeters>762.4000244140625</AltitudeMeters>
            <DistanceMeters>NAN</DistanceMeters>
          </Trackpoint>
          <Trackpoint>
            <Time>2020-12-05T13:28:51.000Z</Time>
            <Position>
              <LatitudeDegrees>36.81560707278549671173095703125</LatitudeDegrees>
              <LongitudeDegrees>-4.38407138921320438385009765625</LongitudeDegrees>
            </Position>
            <AltitudeMeters>762.4000244140625</AltitudeMeters>
            <DistanceMeters>NAN</DistanceMeters>
          </Trackpoint>
          <Trackpoint>
            <Time>2020-12-05T13:28:52.000Z</Time>
            <Position>
              <LatitudeDegrees>36.81559533812105655670166015625</LatitudeDegrees>
              <LongitudeDegrees>-4.3840800225734710693359375</LongitudeDegrees>
            </Position>
            <AltitudeMeters>762.4000244140625</AltitudeMeters>
            <DistanceMeters>NAN</DistanceMeters>
          </Trackpoint>
          <Trackpoint>
            <Time>2020-12-05T13:28:53.000Z</Time>
            <Position>
              <LatitudeDegrees>36.81558477692306041717529296875</LatitudeDegrees>
              <LongitudeDegrees>-4.38408932648599147796630859375</LongitudeDegrees>
            </Position>
            <AltitudeMeters>762.4000244140625</AltitudeMeters>
            <DistanceMeters>NAN</DistanceMeters>
          </Trackpoint>
          <Trackpoint>
            <Time>2020-12-05T13:28:54.000Z</Time>
            <Position>
              <LatitudeDegrees>36.81557455100119113922119140625</LatitudeDegrees>
              <LongitudeDegrees>-4.38409670256078243255615234375</LongitudeDegrees>
            </Position>
            <AltitudeMeters>762.4000244140625</AltitudeMeters>
            <DistanceMeters>NAN</DistanceMeters>
          </Trackpoint>
          <Trackpoint>
            <Time>2020-12-05T13:28:55.000Z</Time>
            <Position>
              <LatitudeDegrees>36.81556600145995616912841796875</LatitudeDegrees>
              <LongitudeDegrees>-4.3841026537120342254638671875</LongitudeDegrees>
            </Position>
            <AltitudeMeters>762.4000244140625</AltitudeMeters>
            <DistanceMeters>NAN</DistanceMeters>
          </Trackpoint>
          <Trackpoint>
            <Time>2020-12-05T13:28:56.000Z</Time>
            <Position>
              <LatitudeDegrees>36.81555845774710178375244140625</LatitudeDegrees>
              <LongitudeDegrees>-4.38410977832973003387451171875</LongitudeDegrees>
            </Position>
            <AltitudeMeters>762.4000244140625</AltitudeMeters>
            <DistanceMeters>NAN</DistanceMeters>
          </Trackpoint>
          <Trackpoint>
            <Time>2020-12-05T13:28:57.000Z</Time>
            <Position>
              <LatitudeDegrees>36.81554890237748622894287109375</LatitudeDegrees>
              <LongitudeDegrees>-4.38411765731871128082275390625</LongitudeDegrees>
            </Position>
            <AltitudeMeters>762.4000244140625</AltitudeMeters>
            <DistanceMeters>NAN</DistanceMeters>
          </Trackpoint>
          <Trackpoint>
            <Time>2020-12-05T13:28:58.000Z</Time>
            <Position>
              <LatitudeDegrees>36.81554026901721954345703125</LatitudeDegrees>
              <LongitudeDegrees>-4.38412939198315143585205078125</LongitudeDegrees>
            </Position>
            <AltitudeMeters>762.4000244140625</AltitudeMeters>
            <DistanceMeters>NAN</DistanceMeters>
          </Trackpoint>
          <Trackpoint>
            <Time>2020-12-05T13:28:59.000Z</Time>
            <Position>
              <LatitudeDegrees>36.81553012691438198089599609375</LatitudeDegrees>
              <LongitudeDegrees>-4.38414079137146472930908203125</LongitudeDegrees>
            </Position>
            <AltitudeMeters>762.4000244140625</AltitudeMeters>
            <DistanceMeters>NAN</DistanceMeters>
          </Trackpoint>
          <Trackpoint>
            <Time>2020-12-05T13:29:00.000Z</Time>
            <Position>
              <LatitudeDegrees>36.815518476068973541259765625</LatitudeDegrees>
              <LongitudeDegrees>-4.3841505981981754302978515625</LongitudeDegrees>
            </Position>
            <AltitudeMeters>755.20001220703125</AltitudeMeters>
            <DistanceMeters>NAN</DistanceMeters>
          </Trackpoint>
          <Trackpoint>
            <Time>2020-12-05T13:29:01.000Z</Time>
            <Position>
              <LatitudeDegrees>36.81551068089902400970458984375</LatitudeDegrees>
              <LongitudeDegrees>-4.38416006974875926971435546875</LongitudeDegrees>
            </Position>
            <AltitudeMeters>755.20001220703125</AltitudeMeters>
            <DistanceMeters>NAN</DistanceMeters>
          </Trackpoint>
          <Trackpoint>
            <Time>2020-12-05T13:29:02.000Z</Time>
            <Position>
              <LatitudeDegrees>36.81550246663391590118408203125</LatitudeDegrees>
              <LongitudeDegrees>-4.38416576944291591644287109375</LongitudeDegrees>
            </Position>
            <AltitudeMeters>755.20001220703125</AltitudeMeters>
            <DistanceMeters>NAN</DistanceMeters>
          </Trackpoint>
          <Trackpoint>
            <Time>2020-12-05T13:29:03.000Z</Time>
            <Position>
              <LatitudeDegrees>36.81549794040620326995849609375</LatitudeDegrees>
              <LongitudeDegrees>-4.38417934812605381011962890625</LongitudeDegrees>
            </Position>
            <AltitudeMeters>755.20001220703125</AltitudeMeters>
            <DistanceMeters>NAN</DistanceMeters>
          </Trackpoint>
          <Trackpoint>
            <Time>2020-12-05T13:29:04.000Z</Time>
            <Position>
              <LatitudeDegrees>36.8154938332736492156982421875</LatitudeDegrees>
              <LongitudeDegrees>-4.38419401645660400390625</LongitudeDegrees>
            </Position>
            <AltitudeMeters>755.20001220703125</AltitudeMeters>
            <DistanceMeters>NAN</DistanceMeters>
          </Trackpoint>
          <Trackpoint>
            <Time>2020-12-05T13:29:05.000Z</Time>
            <Position>
              <LatitudeDegrees>36.8154934979975223541259765625</LatitudeDegrees>
              <LongitudeDegrees>-4.38419778831303119659423828125</LongitudeDegrees>
            </Position>
            <AltitudeMeters>755.20001220703125</AltitudeMeters>
            <DistanceMeters>NAN</DistanceMeters>
          </Trackpoint>
          <Trackpoint>
            <Time>2020-12-05T13:29:06.000Z</Time>
            <Position>
              <LatitudeDegrees>36.81548452936112880706787109375</LatitudeDegrees>
              <LongitudeDegrees>-4.3842082656919956207275390625</LongitudeDegrees>
            </Position>
            <AltitudeMeters>755.20001220703125</AltitudeMeters>
            <DistanceMeters>NAN</DistanceMeters>
          </Trackpoint>
          <Trackpoint>
            <Time>2020-12-05T13:29:07.000Z</Time>
            <Position>
              <LatitudeDegrees>36.81547212414443492889404296875</LatitudeDegrees>
              <LongitudeDegrees>-4.38422326929867267608642578125</LongitudeDegrees>
            </Position>
            <AltitudeMeters>755.20001220703125</AltitudeMeters>
            <DistanceMeters>NAN</DistanceMeters>
          </Trackpoint>
          <Trackpoint>
            <Time>2020-12-05T13:29:08.000Z</Time>
            <Position>
              <LatitudeDegrees>36.81545804254710674285888671875</LatitudeDegrees>
              <LongitudeDegrees>-4.38424003310501575469970703125</LongitudeDegrees>
            </Position>
            <AltitudeMeters>755.20001220703125</AltitudeMeters>
            <DistanceMeters>NAN</DistanceMeters>
          </Trackpoint>
          <Trackpoint>
            <Time>2020-12-05T13:29:09.000Z</Time>
            <Position>
              <LatitudeDegrees>36.8154458887875080108642578125</LatitudeDegrees>
              <LongitudeDegrees>-4.38425964675843715667724609375</LongitudeDegrees>
            </Position>
            <AltitudeMeters>755.20001220703125</AltitudeMeters>
            <DistanceMeters>NAN</DistanceMeters>
          </Trackpoint>
          <Trackpoint>
            <Time>2020-12-05T13:29:10.000Z</Time>
            <Position>
              <LatitudeDegrees>36.8154375068843364715576171875</LatitudeDegrees>
              <LongitudeDegrees>-4.38427708111703395843505859375</LongitudeDegrees>
            </Position>
            <AltitudeMeters>755.20001220703125</AltitudeMeters>
            <DistanceMeters>NAN</DistanceMeters>
          </Trackpoint>
          <Trackpoint>
            <Time>2020-12-05T13:29:11.000Z</Time>
            <Position>
              <LatitudeDegrees>36.81543138809502124786376953125</LatitudeDegrees>
              <LongitudeDegrees>-4.38429065980017185211181640625</LongitudeDegrees>
            </Position>
            <AltitudeMeters>755.20001220703125</AltitudeMeters>
            <DistanceMeters>NAN</DistanceMeters>
          </Trackpoint>
          <Trackpoint>
            <Time>2020-12-05T13:29:12.000Z</Time>
            <Position>
              <LatitudeDegrees>36.81542895734310150146484375</LatitudeDegrees>
              <LongitudeDegrees>-4.38430457375943660736083984375</LongitudeDegrees>
            </Position>
            <AltitudeMeters>755.20001220703125</AltitudeMeters>
            <DistanceMeters>NAN</DistanceMeters>
          </Trackpoint>
          <Trackpoint>
            <Time>2020-12-05T13:29:13.000Z</Time>
            <Position>
              <LatitudeDegrees>36.81542837060987949371337890625</LatitudeDegrees>
              <LongitudeDegrees>-4.3843195773661136627197265625</LongitudeDegrees>
            </Position>
            <AltitudeMeters>755.20001220703125</AltitudeMeters>
            <DistanceMeters>NAN</DistanceMeters>
          </Trackpoint>
          <Trackpoint>
            <Time>2020-12-05T13:29:14.000Z</Time>
            <Position>
              <LatitudeDegrees>36.8154256045818328857421875</LatitudeDegrees>
              <LongitudeDegrees>-4.38433550298213958740234375</LongitudeDegrees>
            </Position>
            <AltitudeMeters>755.20001220703125</AltitudeMeters>
            <DistanceMeters>NAN</DistanceMeters>
          </Trackpoint>
          <Trackpoint>
            <Time>2020-12-05T13:29:15.000Z</Time>
            <Position>
              <LatitudeDegrees>36.81542434729635715484619140625</LatitudeDegrees>
              <LongitudeDegrees>-4.38434966839849948883056640625</LongitudeDegrees>
            </Position>
            <AltitudeMeters>755.20001220703125</AltitudeMeters>
            <DistanceMeters>NAN</DistanceMeters>
          </Trackpoint>
          <Trackpoint>
            <Time>2020-12-05T13:29:16.000Z</Time>
            <Position>
              <LatitudeDegrees>36.8154244311153888702392578125</LatitudeDegrees>
              <LongitudeDegrees>-4.384368024766445159912109375</LongitudeDegrees>
            </Position>
            <AltitudeMeters>755.20001220703125</AltitudeMeters>
            <DistanceMeters>NAN</DistanceMeters>
          </Trackpoint>
          <Trackpoint>
            <Time>2020-12-05T13:29:17.000Z</Time>
            <Position>
              <LatitudeDegrees>36.815423928201198577880859375</LatitudeDegrees>
              <LongitudeDegrees>-4.3843849562108516693115234375</LongitudeDegrees>
            </Position>
            <AltitudeMeters>755.20001220703125</AltitudeMeters>
            <DistanceMeters>NAN</DistanceMeters>
          </Trackpoint>
          <Trackpoint>
            <Time>2020-12-05T13:29:18.000Z</Time>
            <Position>
              <LatitudeDegrees>36.81542283855378627777099609375</LatitudeDegrees>
              <LongitudeDegrees>-4.3843983672559261322021484375</LongitudeDegrees>
            </Position>
            <AltitudeMeters>755.20001220703125</AltitudeMeters>
            <DistanceMeters>NAN</DistanceMeters>
          </Trackpoint>
          <Trackpoint>
            <Time>2020-12-05T13:29:19.000Z</Time>
            <Position>
              <LatitudeDegrees>36.8154210783541202545166015625</LatitudeDegrees>
              <LongitudeDegrees>-4.384410269558429718017578125</LongitudeDegrees>
            </Position>
            <AltitudeMeters>755.20001220703125</AltitudeMeters>
            <DistanceMeters>NAN</DistanceMeters>
          </Trackpoint>
          <Trackpoint>
            <Time>2020-12-05T13:29:20.000Z</Time>
            <Position>
              <LatitudeDegrees>36.815417893230915069580078125</LatitudeDegrees>
              <LongitudeDegrees>-4.3844278715550899505615234375</LongitudeDegrees>
            </Position>
            <AltitudeMeters>755.20001220703125</AltitudeMeters>
            <DistanceMeters>NAN</DistanceMeters>
          </Trackpoint>
          <Trackpoint>
            <Time>2020-12-05T13:29:21.000Z</Time>
            <Position>
              <LatitudeDegrees>36.81541529484093189239501953125</LatitudeDegrees>
              <LongitudeDegrees>-4.38445075415074825286865234375</LongitudeDegrees>
            </Position>
            <AltitudeMeters>755.20001220703125</AltitudeMeters>
            <DistanceMeters>NAN</DistanceMeters>
          </Trackpoint>
          <Trackpoint>
            <Time>2020-12-05T13:29:22.000Z</Time>
            <Position>
              <LatitudeDegrees>36.8154121935367584228515625</LatitudeDegrees>
              <LongitudeDegrees>-4.38447003252804279327392578125</LongitudeDegrees>
            </Position>
            <AltitudeMeters>755.20001220703125</AltitudeMeters>
            <DistanceMeters>NAN</DistanceMeters>
          </Trackpoint>
          <Trackpoint>
            <Time>2020-12-05T13:29:23.000Z</Time>
            <Position>
              <LatitudeDegrees>36.815407834947109222412109375</LatitudeDegrees>
              <LongitudeDegrees>-4.3844875507056713104248046875</LongitudeDegrees>
            </Position>
            <AltitudeMeters>755.20001220703125</AltitudeMeters>
            <DistanceMeters>NAN</DistanceMeters>
          </Trackpoint>
          <Trackpoint>
            <Time>2020-12-05T13:29:24.000Z</Time>
            <Position>
              <LatitudeDegrees>36.81540372781455516815185546875</LatitudeDegrees>
              <LongitudeDegrees>-4.3845016323029994964599609375</LongitudeDegrees>
            </Position>
            <AltitudeMeters>755.20001220703125</AltitudeMeters>
            <DistanceMeters>NAN</DistanceMeters>
          </Trackpoint>
          <Trackpoint>
            <Time>2020-12-05T13:29:25.000Z</Time>
            <Position>
              <LatitudeDegrees>36.81540012359619140625</LatitudeDegrees>
              <LongitudeDegrees>-4.38451378606259822845458984375</LongitudeDegrees>
            </Position>
            <AltitudeMeters>755.20001220703125</AltitudeMeters>
            <DistanceMeters>NAN</DistanceMeters>
          </Trackpoint>
          <Trackpoint>
            <Time>2020-12-05T13:29:26.000Z</Time>
            <Position>
              <LatitudeDegrees>36.8153966031968593597412109375</LatitudeDegrees>
              <LongitudeDegrees>-4.38452702946960926055908203125</LongitudeDegrees>
            </Position>
            <AltitudeMeters>755.20001220703125</AltitudeMeters>
            <DistanceMeters>NAN</DistanceMeters>
          </Trackpoint>
          <Trackpoint>
            <Time>2020-12-05T13:29:27.000Z</Time>
            <Position>
              <LatitudeDegrees>36.8153915740549564361572265625</LatitudeDegrees>
              <LongitudeDegrees>-4.3845401890575885772705078125</LongitudeDegrees>
            </Position>
            <AltitudeMeters>755.20001220703125</AltitudeMeters>
            <DistanceMeters>NAN</DistanceMeters>
          </Trackpoint>
          <Trackpoint>
            <Time>2020-12-05T13:29:28.000Z</Time>
            <Position>
              <LatitudeDegrees>36.81538470089435577392578125</LatitudeDegrees>
              <LongitudeDegrees>-4.3845512531697750091552734375</LongitudeDegrees>
            </Position>
            <AltitudeMeters>755.20001220703125</AltitudeMeters>
            <DistanceMeters>NAN</DistanceMeters>
          </Trackpoint>
          <Trackpoint>
            <Time>2020-12-05T13:29:29.000Z</Time>
            <Position>
              <LatitudeDegrees>36.81536936201155185699462890625</LatitudeDegrees>
              <LongitudeDegrees>-4.384577237069606781005859375</LongitudeDegrees>
            </Position>
            <AltitudeMeters>755.20001220703125</AltitudeMeters>
            <DistanceMeters>NAN</DistanceMeters>
          </Trackpoint>
          <Trackpoint>
            <Time>2020-12-05T13:29:30.000Z</Time>
            <Position>
              <LatitudeDegrees>36.8153573758900165557861328125</LatitudeDegrees>
              <LongitudeDegrees>-4.3845938332378864288330078125</LongitudeDegrees>
            </Position>
            <AltitudeMeters>755.20001220703125</AltitudeMeters>
            <DistanceMeters>NAN</DistanceMeters>
          </Trackpoint>
          <Trackpoint>
            <Time>2020-12-05T13:29:31.000Z</Time>
            <Position>
              <LatitudeDegrees>36.8153530173003673553466796875</LatitudeDegrees>
              <LongitudeDegrees>-4.3846069090068340301513671875</LongitudeDegrees>
            </Position>
            <AltitudeMeters>755.20001220703125</AltitudeMeters>
            <DistanceMeters>NAN</DistanceMeters>
          </Trackpoint>
          <Trackpoint>
            <Time>2020-12-05T13:29:32.000Z</Time>
            <Position>
              <LatitudeDegrees>36.81534706614911556243896484375</LatitudeDegrees>
              <LongitudeDegrees>-4.3846139498054981231689453125</LongitudeDegrees>
            </Position>
            <AltitudeMeters>755.20001220703125</AltitudeMeters>
            <DistanceMeters>NAN</DistanceMeters>
          </Trackpoint>
          <Trackpoint>
            <Time>2020-12-05T13:29:33.000Z</Time>
            <Position>
              <LatitudeDegrees>36.81534388102591037750244140625</LatitudeDegrees>
              <LongitudeDegrees>-4.38462476246058940887451171875</LongitudeDegrees>
            </Position>
            <AltitudeMeters>755.20001220703125</AltitudeMeters>
            <DistanceMeters>NAN</DistanceMeters>
          </Trackpoint>
          <Trackpoint>
            <Time>2020-12-05T13:29:34.000Z</Time>
            <Position>
              <LatitudeDegrees>36.81534337811172008514404296875</LatitudeDegrees>
              <LongitudeDegrees>-4.384636916220188140869140625</LongitudeDegrees>
            </Position>
            <AltitudeMeters>755.20001220703125</AltitudeMeters>
            <DistanceMeters>NAN</DistanceMeters>
          </Trackpoint>
          <Trackpoint>
            <Time>2020-12-05T13:29:35.000Z</Time>
            <Position>
              <LatitudeDegrees>36.81534404866397380828857421875</LatitudeDegrees>
              <LongitudeDegrees>-4.38465359620749950408935546875</LongitudeDegrees>
            </Position>
            <AltitudeMeters>755.20001220703125</AltitudeMeters>
            <DistanceMeters>NAN</DistanceMeters>
          </Trackpoint>
          <Trackpoint>
            <Time>2020-12-05T13:29:36.000Z</Time>
            <Position>
              <LatitudeDegrees>36.81534354574978351593017578125</LatitudeDegrees>
              <LongitudeDegrees>-4.38466918654739856719970703125</LongitudeDegrees>
            </Position>
            <AltitudeMeters>755.20001220703125</AltitudeMeters>
            <DistanceMeters>NAN</DistanceMeters>
          </Trackpoint>
          <Trackpoint>
            <Time>2020-12-05T13:29:37.000Z</Time>
            <Position>
              <LatitudeDegrees>36.81534388102591037750244140625</LatitudeDegrees>
              <LongitudeDegrees>-4.3846873752772808074951171875</LongitudeDegrees>
            </Position>
            <AltitudeMeters>755.20001220703125</AltitudeMeters>
            <DistanceMeters>NAN</DistanceMeters>
          </Trackpoint>
          <Trackpoint>
            <Time>2020-12-05T13:29:38.000Z</Time>
            <Position>
              <LatitudeDegrees>36.8153483234345912933349609375</LatitudeDegrees>
              <LongitudeDegrees>-4.3847017921507358551025390625</LongitudeDegrees>
            </Position>
            <AltitudeMeters>755.20001220703125</AltitudeMeters>
            <DistanceMeters>NAN</DistanceMeters>
          </Trackpoint>
          <Trackpoint>
            <Time>2020-12-05T13:29:39.000Z</Time>
            <Position>
              <LatitudeDegrees>36.81535142473876476287841796875</LatitudeDegrees>
              <LongitudeDegrees>-4.38471763394773006439208984375</LongitudeDegrees>
            </Position>
            <AltitudeMeters>755.20001220703125</AltitudeMeters>
            <DistanceMeters>NAN</DistanceMeters>
          </Trackpoint>
          <Trackpoint>
            <Time>2020-12-05T13:29:40.000Z</Time>
            <Position>
              <LatitudeDegrees>36.81535226292908191680908203125</LatitudeDegrees>
              <LongitudeDegrees>-4.384738504886627197265625</LongitudeDegrees>
            </Position>
            <AltitudeMeters>755.20001220703125</AltitudeMeters>
            <DistanceMeters>NAN</DistanceMeters>
          </Trackpoint>
          <Trackpoint>
            <Time>2020-12-05T13:29:41.000Z</Time>
            <Position>
              <LatitudeDegrees>36.81535477750003337860107421875</LatitudeDegrees>
              <LongitudeDegrees>-4.38476004637777805328369140625</LongitudeDegrees>
            </Position>
            <AltitudeMeters>755.20001220703125</AltitudeMeters>
            <DistanceMeters>NAN</DistanceMeters>
          </Trackpoint>
          <Trackpoint>
            <Time>2020-12-05T13:29:42.000Z</Time>
            <Position>
              <LatitudeDegrees>36.81535360403358936309814453125</LatitudeDegrees>
              <LongitudeDegrees>-4.384777061641216278076171875</LongitudeDegrees>
            </Position>
            <AltitudeMeters>755.20001220703125</AltitudeMeters>
            <DistanceMeters>NAN</DistanceMeters>
          </Trackpoint>
          <Trackpoint>
            <Time>2020-12-05T13:29:43.000Z</Time>
            <Position>
              <LatitudeDegrees>36.81535092182457447052001953125</LatitudeDegrees>
              <LongitudeDegrees>-4.3847936578094959259033203125</LongitudeDegrees>
            </Position>
            <AltitudeMeters>755.20001220703125</AltitudeMeters>
            <DistanceMeters>NAN</DistanceMeters>
          </Trackpoint>
          <Trackpoint>
            <Time>2020-12-05T13:29:44.000Z</Time>
            <Position>
              <LatitudeDegrees>36.81534723378717899322509765625</LatitudeDegrees>
              <LongitudeDegrees>-4.38480748794972896575927734375</LongitudeDegrees>
            </Position>
            <AltitudeMeters>755.20001220703125</AltitudeMeters>
            <DistanceMeters>NAN</DistanceMeters>
          </Trackpoint>
          <Trackpoint>
            <Time>2020-12-05T13:29:45.000Z</Time>
            <Position>
              <LatitudeDegrees>36.81534706614911556243896484375</LatitudeDegrees>
              <LongitudeDegrees>-4.38481888733804225921630859375</LongitudeDegrees>
            </Position>
            <AltitudeMeters>755.20001220703125</AltitudeMeters>
            <DistanceMeters>NAN</DistanceMeters>
          </Trackpoint>
          <Trackpoint>
            <Time>2020-12-05T13:29:46.000Z</Time>
            <Position>
              <LatitudeDegrees>36.81534840725362300872802734375</LatitudeDegrees>
              <LongitudeDegrees>-4.384828023612499237060546875</LongitudeDegrees>
            </Position>
            <AltitudeMeters>755.20001220703125</AltitudeMeters>
            <DistanceMeters>NAN</DistanceMeters>
          </Trackpoint>
          <Trackpoint>
            <Time>2020-12-05T13:29:47.000Z</Time>
            <Position>
              <LatitudeDegrees>36.8153478205204010009765625</LatitudeDegrees>
              <LongitudeDegrees>-4.38483565114438533782958984375</LongitudeDegrees>
            </Position>
            <AltitudeMeters>755.20001220703125</AltitudeMeters>
            <DistanceMeters>NAN</DistanceMeters>
          </Trackpoint>
          <Trackpoint>
            <Time>2020-12-05T13:29:48.000Z</Time>
            <Position>
              <LatitudeDegrees>36.81534706614911556243896484375</LatitudeDegrees>
              <LongitudeDegrees>-4.3848419375717639923095703125</LongitudeDegrees>
            </Position>
            <AltitudeMeters>755.20001220703125</AltitudeMeters>
            <DistanceMeters>NAN</DistanceMeters>
          </Trackpoint>
          <Trackpoint>
            <Time>2020-12-05T13:29:49.000Z</Time>
            <Position>
              <LatitudeDegrees>36.81534974835813045501708984375</LatitudeDegrees>
              <LongitudeDegrees>-4.3848462961614131927490234375</LongitudeDegrees>
            </Position>
            <AltitudeMeters>755.20001220703125</AltitudeMeters>
            <DistanceMeters>NAN</DistanceMeters>
          </Trackpoint>
          <Trackpoint>
            <Time>2020-12-05T13:29:50.000Z</Time>
            <Position>
              <LatitudeDegrees>36.81534941308200359344482421875</LatitudeDegrees>
              <LongitudeDegrees>-4.3848590366542339324951171875</LongitudeDegrees>
            </Position>
            <AltitudeMeters>755.20001220703125</AltitudeMeters>
            <DistanceMeters>NAN</DistanceMeters>
          </Trackpoint>
          <Trackpoint>
            <Time>2020-12-05T13:29:51.000Z</Time>
            <Position>
              <LatitudeDegrees>36.81534689851105213165283203125</LatitudeDegrees>
              <LongitudeDegrees>-4.3848724476993083953857421875</LongitudeDegrees>
            </Position>
            <AltitudeMeters>755.20001220703125</AltitudeMeters>
            <DistanceMeters>NAN</DistanceMeters>
          </Trackpoint>
          <Trackpoint>
            <Time>2020-12-05T13:29:52.000Z</Time>
            <Position>
              <LatitudeDegrees>36.81534740142524242401123046875</LatitudeDegrees>
              <LongitudeDegrees>-4.38488594256341457366943359375</LongitudeDegrees>
            </Position>
            <AltitudeMeters>755.20001220703125</AltitudeMeters>
            <DistanceMeters>NAN</DistanceMeters>
          </Trackpoint>
          <Trackpoint>
            <Time>2020-12-05T13:29:53.000Z</Time>
            <Position>
              <LatitudeDegrees>36.81534714996814727783203125</LatitudeDegrees>
              <LongitudeDegrees>-4.384897761046886444091796875</LongitudeDegrees>
            </Position>
            <AltitudeMeters>755.20001220703125</AltitudeMeters>
            <DistanceMeters>NAN</DistanceMeters>
          </Trackpoint>
          <Trackpoint>
            <Time>2020-12-05T13:29:54.000Z</Time>
            <Position>
              <LatitudeDegrees>36.81534622795879840850830078125</LatitudeDegrees>
              <LongitudeDegrees>-4.3849106691777706146240234375</LongitudeDegrees>
            </Position>
            <AltitudeMeters>755.20001220703125</AltitudeMeters>
            <DistanceMeters>NAN</DistanceMeters>
          </Trackpoint>
          <Trackpoint>
            <Time>2020-12-05T13:29:55.000Z</Time>
            <Position>
              <LatitudeDegrees>36.815344132483005523681640625</LatitudeDegrees>
              <LongitudeDegrees>-4.3849217332899570465087890625</LongitudeDegrees>
            </Position>
            <AltitudeMeters>755.20001220703125</AltitudeMeters>
            <DistanceMeters>NAN</DistanceMeters>
          </Trackpoint>
          <Trackpoint>
            <Time>2020-12-05T13:29:56.000Z</Time>
            <Position>
              <LatitudeDegrees>36.815342120826244354248046875</LatitudeDegrees>
              <LongitudeDegrees>-4.38492885790765285491943359375</LongitudeDegrees>
            </Position>
            <AltitudeMeters>755.20001220703125</AltitudeMeters>
            <DistanceMeters>NAN</DistanceMeters>
          </Trackpoint>
          <Trackpoint>
            <Time>2020-12-05T13:29:57.000Z</Time>
            <Position>
              <LatitudeDegrees>36.81533910334110260009765625</LatitudeDegrees>
              <LongitudeDegrees>-4.38493623398244380950927734375</LongitudeDegrees>
            </Position>
            <AltitudeMeters>755.20001220703125</AltitudeMeters>
            <DistanceMeters>NAN</DistanceMeters>
          </Trackpoint>
          <Trackpoint>
            <Time>2020-12-05T13:29:58.000Z</Time>
            <Position>
              <LatitudeDegrees>36.81533516384661197662353515625</LatitudeDegrees>
              <LongitudeDegrees>-4.3849425204098224639892578125</LongitudeDegrees>
            </Position>
            <AltitudeMeters>755.20001220703125</AltitudeMeters>
            <DistanceMeters>NAN</DistanceMeters>
          </Trackpoint>
          <Trackpoint>
            <Time>2020-12-05T13:29:59.000Z</Time>
            <Position>
              <LatitudeDegrees>36.81533097289502620697021484375</LatitudeDegrees>
              <LongitudeDegrees>-4.38494763337075710296630859375</LongitudeDegrees>
            </Position>
            <AltitudeMeters>755.20001220703125</AltitudeMeters>
            <DistanceMeters>NAN</DistanceMeters>
          </Trackpoint>
          <Trackpoint>
            <Time>2020-12-05T13:30:00.000Z</Time>
            <Position>
              <LatitudeDegrees>36.8153250217437744140625</LatitudeDegrees>
              <LongitudeDegrees>-4.3849544227123260498046875</LongitudeDegrees>
            </Position>
            <AltitudeMeters>746.20001220703125</AltitudeMeters>
            <DistanceMeters>NAN</DistanceMeters>
          </Trackpoint>
          <Trackpoint>
            <Time>2020-12-05T13:30:01.000Z</Time>
            <Position>
              <LatitudeDegrees>36.8153208307921886444091796875</LatitudeDegrees>
              <LongitudeDegrees>-4.3849629722535610198974609375</LongitudeDegrees>
            </Position>
            <AltitudeMeters>746.20001220703125</AltitudeMeters>
            <DistanceMeters>NAN</DistanceMeters>
          </Trackpoint>
          <Trackpoint>
            <Time>2020-12-05T13:30:02.000Z</Time>
            <Position>
              <LatitudeDegrees>36.81530348025262355804443359375</LatitudeDegrees>
              <LongitudeDegrees>-4.384988285601139068603515625</LongitudeDegrees>
            </Position>
            <AltitudeMeters>746.20001220703125</AltitudeMeters>
            <DistanceMeters>NAN</DistanceMeters>
          </Trackpoint>
          <Trackpoint>
            <Time>2020-12-05T13:30:03.000Z</Time>
            <Position>
              <LatitudeDegrees>36.81529962457716464996337890625</LatitudeDegrees>
              <LongitudeDegrees>-4.38499960117042064666748046875</LongitudeDegrees>
            </Position>
            <AltitudeMeters>746.20001220703125</AltitudeMeters>
            <DistanceMeters>NAN</DistanceMeters>
          </Trackpoint>
          <Trackpoint>
            <Time>2020-12-05T13:30:04.000Z</Time>
            <Position>
              <LatitudeDegrees>36.81529082357883453369140625</LatitudeDegrees>
              <LongitudeDegrees>-4.38500412739813327789306640625</LongitudeDegrees>
            </Position>
            <AltitudeMeters>746.20001220703125</AltitudeMeters>
            <DistanceMeters>NAN</DistanceMeters>
          </Trackpoint>
          <Trackpoint>
            <Time>2020-12-05T13:30:05.000Z</Time>
            <Position>
              <LatitudeDegrees>36.8152792565524578094482421875</LatitudeDegrees>
              <LongitudeDegrees>-4.3850152753293514251708984375</LongitudeDegrees>
            </Position>
            <AltitudeMeters>746.20001220703125</AltitudeMeters>
            <DistanceMeters>NAN</DistanceMeters>
          </Trackpoint>
          <Trackpoint>
            <Time>2020-12-05T13:30:06.000Z</Time>
            <Position>
              <LatitudeDegrees>36.81527397595345973968505859375</LatitudeDegrees>
              <LongitudeDegrees>-4.38503731973469257354736328125</LongitudeDegrees>
            </Position>
            <AltitudeMeters>746.20001220703125</AltitudeMeters>
            <DistanceMeters>NAN</DistanceMeters>
          </Trackpoint>
          <Trackpoint>
            <Time>2020-12-05T13:30:07.000Z</Time>
            <Position>
              <LatitudeDegrees>36.815279424190521240234375</LatitudeDegrees>
              <LongitudeDegrees>-4.38504788093268871307373046875</LongitudeDegrees>
            </Position>
            <AltitudeMeters>746.20001220703125</AltitudeMeters>
            <DistanceMeters>NAN</DistanceMeters>
          </Trackpoint>
          <Trackpoint>
            <Time>2020-12-05T13:30:08.000Z</Time>
            <Position>
              <LatitudeDegrees>36.81528814136981964111328125</LatitudeDegrees>
              <LongitudeDegrees>-4.38504788093268871307373046875</LongitudeDegrees>
            </Position>
            <AltitudeMeters>746.20001220703125</AltitudeMeters>
            <DistanceMeters>NAN</DistanceMeters>
          </Trackpoint>
          <Trackpoint>
            <Time>2020-12-05T13:30:09.000Z</Time>
            <Position>
              <LatitudeDegrees>36.81528839282691478729248046875</LatitudeDegrees>
              <LongitudeDegrees>-4.38505374826490879058837890625</LongitudeDegrees>
            </Position>
            <AltitudeMeters>746.20001220703125</AltitudeMeters>
            <DistanceMeters>NAN</DistanceMeters>
          </Trackpoint>
          <Trackpoint>
            <Time>2020-12-05T13:31:22.000Z</Time>
            <Position>
              <LatitudeDegrees>36.81520457379519939422607421875</LatitudeDegrees>
              <LongitudeDegrees>-4.385240077972412109375</LongitudeDegrees>
            </Position>
            <AltitudeMeters>729.5999755859375</AltitudeMeters>
            <DistanceMeters>NAN</DistanceMeters>
          </Trackpoint>
          <Trackpoint>
            <Time>2020-12-05T13:31:23.000Z</Time>
            <Position>
              <LatitudeDegrees>36.815220080316066741943359375</LatitudeDegrees>
              <LongitudeDegrees>-4.38523362390697002410888671875</LongitudeDegrees>
            </Position>
            <AltitudeMeters>729</AltitudeMeters>
            <DistanceMeters>NAN</DistanceMeters>
          </Trackpoint>
          <Trackpoint>
            <Time>2020-12-05T13:31:24.000Z</Time>
            <Position>
              <LatitudeDegrees>36.81523374281823635101318359375</LatitudeDegrees>
              <LongitudeDegrees>-4.3852268345654010772705078125</LongitudeDegrees>
            </Position>
            <AltitudeMeters>728.4000244140625</AltitudeMeters>
            <DistanceMeters>NAN</DistanceMeters>
          </Trackpoint>
          <Trackpoint>
            <Time>2020-12-05T13:31:25.000Z</Time>
            <Position>
              <LatitudeDegrees>36.81524229235947132110595703125</LatitudeDegrees>
              <LongitudeDegrees>-4.3852221406996250152587890625</LongitudeDegrees>
            </Position>
            <AltitudeMeters>727.4000244140625</AltitudeMeters>
            <DistanceMeters>NAN</DistanceMeters>
          </Trackpoint>
          <Trackpoint>
            <Time>2020-12-05T13:31:26.000Z</Time>
            <Position>
              <LatitudeDegrees>36.81524715386331081390380859375</LatitudeDegrees>
              <LongitudeDegrees>-4.385215602815151214599609375</LongitudeDegrees>
            </Position>
            <AltitudeMeters>726.79998779296875</AltitudeMeters>
            <DistanceMeters>NAN</DistanceMeters>
          </Trackpoint>
          <Trackpoint>
            <Time>2020-12-05T13:31:27.000Z</Time>
            <Position>
              <LatitudeDegrees>36.8152512609958648681640625</LatitudeDegrees>
              <LongitudeDegrees>-4.3852057121694087982177734375</LongitudeDegrees>
            </Position>
            <AltitudeMeters>724.5999755859375</AltitudeMeters>
            <DistanceMeters>NAN</DistanceMeters>
          </Trackpoint>
          <Trackpoint>
            <Time>2020-12-05T13:31:28.000Z</Time>
            <Position>
              <LatitudeDegrees>36.81525603868067264556884765625</LatitudeDegrees>
              <LongitudeDegrees>-4.38519422896206378936767578125</LongitudeDegrees>
            </Position>
            <AltitudeMeters>725.5999755859375</AltitudeMeters>
            <DistanceMeters>NAN</DistanceMeters>
          </Trackpoint>
          <Trackpoint>
            <Time>2020-12-05T13:31:29.000Z</Time>
            <Position>
              <LatitudeDegrees>36.81526257656514644622802734375</LatitudeDegrees>
              <LongitudeDegrees>-4.38517863862216472625732421875</LongitudeDegrees>
            </Position>
            <AltitudeMeters>726</AltitudeMeters>
            <DistanceMeters>NAN</DistanceMeters>
          </Trackpoint>
          <Trackpoint>
            <Time>2020-12-05T13:31:30.000Z</Time>
            <Position>
              <LatitudeDegrees>36.81527112610638141632080078125</LatitudeDegrees>
              <LongitudeDegrees>-4.385162629187107086181640625</LongitudeDegrees>
            </Position>
            <AltitudeMeters>726</AltitudeMeters>
            <DistanceMeters>NAN</DistanceMeters>
          </Trackpoint>
          <Trackpoint>
            <Time>2020-12-05T13:31:31.000Z</Time>
            <Position>
              <LatitudeDegrees>36.81528151966631412506103515625</LatitudeDegrees>
              <LongitudeDegrees>-4.38514284789562225341796875</LongitudeDegrees>
            </Position>
            <AltitudeMeters>725.79998779296875</AltitudeMeters>
            <DistanceMeters>NAN</DistanceMeters>
          </Trackpoint>
          <Trackpoint>
            <Time>2020-12-05T13:31:32.000Z</Time>
            <Position>
              <LatitudeDegrees>36.81529350578784942626953125</LatitudeDegrees>
              <LongitudeDegrees>-4.385127760469913482666015625</LongitudeDegrees>
            </Position>
            <AltitudeMeters>725.79998779296875</AltitudeMeters>
            <DistanceMeters>NAN</DistanceMeters>
          </Trackpoint>
          <Trackpoint>
            <Time>2020-12-05T13:31:33.000Z</Time>
            <Position>
              <LatitudeDegrees>36.81530423462390899658203125</LatitudeDegrees>
              <LongitudeDegrees>-4.3851101584732532501220703125</LongitudeDegrees>
            </Position>
            <AltitudeMeters>725.79998779296875</AltitudeMeters>
            <DistanceMeters>NAN</DistanceMeters>
          </Trackpoint>
          <Trackpoint>
            <Time>2020-12-05T13:31:34.000Z</Time>
            <Position>
              <LatitudeDegrees>36.81531303562223911285400390625</LatitudeDegrees>
              <LongitudeDegrees>-4.38509431667625904083251953125</LongitudeDegrees>
            </Position>
            <AltitudeMeters>725.5999755859375</AltitudeMeters>
            <DistanceMeters>NAN</DistanceMeters>
          </Trackpoint>
          <Trackpoint>
            <Time>2020-12-05T13:31:35.000Z</Time>
            <Position>
              <LatitudeDegrees>36.8153183162212371826171875</LatitudeDegrees>
              <LongitudeDegrees>-4.38508342020213603973388671875</LongitudeDegrees>
            </Position>
            <AltitudeMeters>725.4000244140625</AltitudeMeters>
            <DistanceMeters>NAN</DistanceMeters>
          </Trackpoint>
          <Trackpoint>
            <Time>2020-12-05T13:31:36.000Z</Time>
            <Position>
              <LatitudeDegrees>36.815322004258632659912109375</LatitudeDegrees>
              <LongitudeDegrees>-4.38507051207125186920166015625</LongitudeDegrees>
            </Position>
            <AltitudeMeters>725</AltitudeMeters>
            <DistanceMeters>NAN</DistanceMeters>
          </Trackpoint>
          <Trackpoint>
            <Time>2020-12-05T13:31:37.000Z</Time>
            <Position>
              <LatitudeDegrees>36.815322339534759521484375</LatitudeDegrees>
              <LongitudeDegrees>-4.38505156897008419036865234375</LongitudeDegrees>
            </Position>
            <AltitudeMeters>724.5999755859375</AltitudeMeters>
            <DistanceMeters>NAN</DistanceMeters>
          </Trackpoint>
          <Trackpoint>
            <Time>2020-12-05T13:31:38.000Z</Time>
            <Position>
              <LatitudeDegrees>36.8153211660683155059814453125</LatitudeDegrees>
              <LongitudeDegrees>-4.385035894811153411865234375</LongitudeDegrees>
            </Position>
            <AltitudeMeters>724.4000244140625</AltitudeMeters>
            <DistanceMeters>NAN</DistanceMeters>
          </Trackpoint>
          <Trackpoint>
            <Time>2020-12-05T13:31:39.000Z</Time>
            <Position>
              <LatitudeDegrees>36.8153147958219051361083984375</LatitudeDegrees>
              <LongitudeDegrees>-4.3850209750235080718994140625</LongitudeDegrees>
            </Position>
            <AltitudeMeters>724.4000244140625</AltitudeMeters>
            <DistanceMeters>NAN</DistanceMeters>
          </Trackpoint>
          <Trackpoint>
            <Time>2020-12-05T13:31:40.000Z</Time>
            <Position>
              <LatitudeDegrees>36.81530750356614589691162109375</LatitudeDegrees>
              <LongitudeDegrees>-4.38500932417809963226318359375</LongitudeDegrees>
            </Position>
            <AltitudeMeters>724.20001220703125</AltitudeMeters>
            <DistanceMeters>NAN</DistanceMeters>
          </Trackpoint>
          <Trackpoint>
            <Time>2020-12-05T13:31:41.000Z</Time>
            <Position>
              <LatitudeDegrees>36.815302558243274688720703125</LatitudeDegrees>
              <LongitudeDegrees>-4.38499943353235721588134765625</LongitudeDegrees>
            </Position>
            <AltitudeMeters>724.5999755859375</AltitudeMeters>
            <DistanceMeters>NAN</DistanceMeters>
          </Trackpoint>
          <Trackpoint>
            <Time>2020-12-05T13:31:42.000Z</Time>
            <Position>
              <LatitudeDegrees>36.81530213914811611175537109375</LatitudeDegrees>
              <LongitudeDegrees>-4.3849874474108219146728515625</LongitudeDegrees>
            </Position>
            <AltitudeMeters>725</AltitudeMeters>
            <DistanceMeters>NAN</DistanceMeters>
          </Trackpoint>
          <Trackpoint>
            <Time>2020-12-05T13:31:43.000Z</Time>
            <Position>
              <LatitudeDegrees>36.8153037317097187042236328125</LatitudeDegrees>
              <LongitudeDegrees>-4.384974874556064605712890625</LongitudeDegrees>
            </Position>
            <AltitudeMeters>725.4000244140625</AltitudeMeters>
            <DistanceMeters>NAN</DistanceMeters>
          </Trackpoint>
          <Trackpoint>
            <Time>2020-12-05T13:31:44.000Z</Time>
            <Position>
              <LatitudeDegrees>36.8153087608516216278076171875</LatitudeDegrees>
              <LongitudeDegrees>-4.38496221788227558135986328125</LongitudeDegrees>
            </Position>
            <AltitudeMeters>725.5999755859375</AltitudeMeters>
            <DistanceMeters>NAN</DistanceMeters>
          </Trackpoint>
          <Trackpoint>
            <Time>2020-12-05T13:31:45.000Z</Time>
            <Position>
              <LatitudeDegrees>36.81531169451773166656494140625</LatitudeDegrees>
              <LongitudeDegrees>-4.38494998030364513397216796875</LongitudeDegrees>
            </Position>
            <AltitudeMeters>726</AltitudeMeters>
            <DistanceMeters>NAN</DistanceMeters>
          </Trackpoint>
          <Trackpoint>
            <Time>2020-12-05T13:31:46.000Z</Time>
            <Position>
              <LatitudeDegrees>36.81531638838350772857666015625</LatitudeDegrees>
              <LongitudeDegrees>-4.38493388704955577850341796875</LongitudeDegrees>
            </Position>
            <AltitudeMeters>726.79998779296875</AltitudeMeters>
            <DistanceMeters>NAN</DistanceMeters>
          </Trackpoint>
          <Trackpoint>
            <Time>2020-12-05T13:31:47.000Z</Time>
            <Position>
              <LatitudeDegrees>36.81532166898250579833984375</LatitudeDegrees>
              <LongitudeDegrees>-4.384908489882946014404296875</LongitudeDegrees>
            </Position>
            <AltitudeMeters>728</AltitudeMeters>
            <DistanceMeters>NAN</DistanceMeters>
          </Trackpoint>
          <Trackpoint>
            <Time>2020-12-05T13:31:48.000Z</Time>
            <Position>
              <LatitudeDegrees>36.8153282068669795989990234375</LatitudeDegrees>
              <LongitudeDegrees>-4.384888373315334320068359375</LongitudeDegrees>
            </Position>
            <AltitudeMeters>728.79998779296875</AltitudeMeters>
            <DistanceMeters>NAN</DistanceMeters>
          </Trackpoint>
          <Trackpoint>
            <Time>2020-12-05T13:31:49.000Z</Time>
            <Position>
              <LatitudeDegrees>36.81533164344727993011474609375</LatitudeDegrees>
              <LongitudeDegrees>-4.3848714418709278106689453125</LongitudeDegrees>
            </Position>
            <AltitudeMeters>729.5999755859375</AltitudeMeters>
            <DistanceMeters>NAN</DistanceMeters>
          </Trackpoint>
          <Trackpoint>
            <Time>2020-12-05T13:31:50.000Z</Time>
            <Position>
              <LatitudeDegrees>36.81533516384661197662353515625</LatitudeDegrees>
              <LongitudeDegrees>-4.38485979102551937103271484375</LongitudeDegrees>
            </Position>
            <AltitudeMeters>730.20001220703125</AltitudeMeters>
            <DistanceMeters>NAN</DistanceMeters>
          </Trackpoint>
          <Trackpoint>
            <Time>2020-12-05T13:31:51.000Z</Time>
            <Position>
              <LatitudeDegrees>36.81533776223659515380859375</LatitudeDegrees>
              <LongitudeDegrees>-4.38484906218945980072021484375</LongitudeDegrees>
            </Position>
            <AltitudeMeters>730.79998779296875</AltitudeMeters>
            <DistanceMeters>NAN</DistanceMeters>
          </Trackpoint>
          <Trackpoint>
            <Time>2020-12-05T13:31:52.000Z</Time>
            <Position>
              <LatitudeDegrees>36.8153412826359272003173828125</LatitudeDegrees>
              <LongitudeDegrees>-4.38483707606792449951171875</LongitudeDegrees>
            </Position>
            <AltitudeMeters>731.4000244140625</AltitudeMeters>
            <DistanceMeters>NAN</DistanceMeters>
          </Trackpoint>
          <Trackpoint>
            <Time>2020-12-05T13:31:53.000Z</Time>
            <Position>
              <LatitudeDegrees>36.81534656323492527008056640625</LatitudeDegrees>
              <LongitudeDegrees>-4.3848238326609134674072265625</LongitudeDegrees>
            </Position>
            <AltitudeMeters>731.5999755859375</AltitudeMeters>
            <DistanceMeters>NAN</DistanceMeters>
          </Trackpoint>
          <Trackpoint>
            <Time>2020-12-05T13:31:54.000Z</Time>
            <Position>
              <LatitudeDegrees>36.8153530173003673553466796875</LatitudeDegrees>
              <LongitudeDegrees>-4.3848100863397121429443359375</LongitudeDegrees>
            </Position>
            <AltitudeMeters>732.20001220703125</AltitudeMeters>
            <DistanceMeters>NAN</DistanceMeters>
          </Trackpoint>
          <Trackpoint>
            <Time>2020-12-05T13:31:55.000Z</Time>
            <Position>
              <LatitudeDegrees>36.815358884632587432861328125</LatitudeDegrees>
              <LongitudeDegrees>-4.38479675911366939544677734375</LongitudeDegrees>
            </Position>
            <AltitudeMeters>732.4000244140625</AltitudeMeters>
            <DistanceMeters>NAN</DistanceMeters>
          </Trackpoint>
          <Trackpoint>
            <Time>2020-12-05T13:31:56.000Z</Time>
            <Position>
              <LatitudeDegrees>36.81536517105996608734130859375</LatitudeDegrees>
              <LongitudeDegrees>-4.38478410243988037109375</LongitudeDegrees>
            </Position>
            <AltitudeMeters>732.5999755859375</AltitudeMeters>
            <DistanceMeters>NAN</DistanceMeters>
          </Trackpoint>
          <Trackpoint>
            <Time>2020-12-05T13:31:57.000Z</Time>
            <Position>
              <LatitudeDegrees>36.8153721280395984649658203125</LatitudeDegrees>
              <LongitudeDegrees>-4.3847747147083282470703125</LongitudeDegrees>
            </Position>
            <AltitudeMeters>732.4000244140625</AltitudeMeters>
            <DistanceMeters>NAN</DistanceMeters>
          </Trackpoint>
          <Trackpoint>
            <Time>2020-12-05T13:31:58.000Z</Time>
            <Position>
              <LatitudeDegrees>36.81538394652307033538818359375</LatitudeDegrees>
              <LongitudeDegrees>-4.3847618065774440765380859375</LongitudeDegrees>
            </Position>
            <AltitudeMeters>732.20001220703125</AltitudeMeters>
            <DistanceMeters>NAN</DistanceMeters>
          </Trackpoint>
          <Trackpoint>
            <Time>2020-12-05T13:31:59.000Z</Time>
            <Position>
              <LatitudeDegrees>36.815392076969146728515625</LatitudeDegrees>
              <LongitudeDegrees>-4.38474780879914760589599609375</LongitudeDegrees>
            </Position>
            <AltitudeMeters>732.4000244140625</AltitudeMeters>
            <DistanceMeters>NAN</DistanceMeters>
          </Trackpoint>
          <Trackpoint>
            <Time>2020-12-05T13:32:00.000Z</Time>
            <Position>
              <LatitudeDegrees>36.81539819575846195220947265625</LatitudeDegrees>
              <LongitudeDegrees>-4.38473288901150226593017578125</LongitudeDegrees>
            </Position>
            <AltitudeMeters>732.4000244140625</AltitudeMeters>
            <DistanceMeters>NAN</DistanceMeters>
          </Trackpoint>
          <Trackpoint>
            <Time>2020-12-05T13:32:01.000Z</Time>
            <Position>
              <LatitudeDegrees>36.8154041469097137451171875</LatitudeDegrees>
              <LongitudeDegrees>-4.38471830449998378753662109375</LongitudeDegrees>
            </Position>
            <AltitudeMeters>732.5999755859375</AltitudeMeters>
            <DistanceMeters>NAN</DistanceMeters>
          </Trackpoint>
          <Trackpoint>
            <Time>2020-12-05T13:32:02.000Z</Time>
            <Position>
              <LatitudeDegrees>36.8154080025851726531982421875</LatitudeDegrees>
              <LongitudeDegrees>-4.38470170833170413970947265625</LongitudeDegrees>
            </Position>
            <AltitudeMeters>732.5999755859375</AltitudeMeters>
            <DistanceMeters>NAN</DistanceMeters>
          </Trackpoint>
          <Trackpoint>
            <Time>2020-12-05T13:32:03.000Z</Time>
            <Position>
              <LatitudeDegrees>36.81541160680353641510009765625</LatitudeDegrees>
              <LongitudeDegrees>-4.38468662090599536895751953125</LongitudeDegrees>
            </Position>
            <AltitudeMeters>732.5999755859375</AltitudeMeters>
            <DistanceMeters>NAN</DistanceMeters>
          </Trackpoint>
          <Trackpoint>
            <Time>2020-12-05T13:32:04.000Z</Time>
            <Position>
              <LatitudeDegrees>36.815414540469646453857421875</LatitudeDegrees>
              <LongitudeDegrees>-4.3846716172993183135986328125</LongitudeDegrees>
            </Position>
            <AltitudeMeters>732.5999755859375</AltitudeMeters>
            <DistanceMeters>NAN</DistanceMeters>
          </Trackpoint>
          <Trackpoint>
            <Time>2020-12-05T13:32:05.000Z</Time>
            <Position>
              <LatitudeDegrees>36.81541646830737590789794921875</LatitudeDegrees>
              <LongitudeDegrees>-4.38465468585491180419921875</LongitudeDegrees>
            </Position>
            <AltitudeMeters>732.5999755859375</AltitudeMeters>
            <DistanceMeters>NAN</DistanceMeters>
          </Trackpoint>
          <Trackpoint>
            <Time>2020-12-05T13:32:06.000Z</Time>
            <Position>
              <LatitudeDegrees>36.81541931815445423126220703125</LatitudeDegrees>
              <LongitudeDegrees>-4.38464052043855190277099609375</LongitudeDegrees>
            </Position>
            <AltitudeMeters>732.5999755859375</AltitudeMeters>
            <DistanceMeters>NAN</DistanceMeters>
          </Trackpoint>
          <Trackpoint>
            <Time>2020-12-05T13:32:07.000Z</Time>
            <Position>
              <LatitudeDegrees>36.8154202401638031005859375</LatitudeDegrees>
              <LongitudeDegrees>-4.3846236728131771087646484375</LongitudeDegrees>
            </Position>
            <AltitudeMeters>732.5999755859375</AltitudeMeters>
            <DistanceMeters>NAN</DistanceMeters>
          </Trackpoint>
          <Trackpoint>
            <Time>2020-12-05T13:32:08.000Z</Time>
            <Position>
              <LatitudeDegrees>36.81541780941188335418701171875</LatitudeDegrees>
              <LongitudeDegrees>-4.38460598699748516082763671875</LongitudeDegrees>
            </Position>
            <AltitudeMeters>732.5999755859375</AltitudeMeters>
            <DistanceMeters>NAN</DistanceMeters>
          </Trackpoint>
          <Trackpoint>
            <Time>2020-12-05T13:32:09.000Z</Time>
            <Position>
              <LatitudeDegrees>36.81541630066931247711181640625</LatitudeDegrees>
              <LongitudeDegrees>-4.3845877982676029205322265625</LongitudeDegrees>
            </Position>
            <AltitudeMeters>732.5999755859375</AltitudeMeters>
            <DistanceMeters>NAN</DistanceMeters>
          </Trackpoint>
          <Trackpoint>
            <Time>2020-12-05T13:32:10.000Z</Time>
            <Position>
              <LatitudeDegrees>36.8154126964509487152099609375</LatitudeDegrees>
              <LongitudeDegrees>-4.38457145355641841888427734375</LongitudeDegrees>
            </Position>
            <AltitudeMeters>732.5999755859375</AltitudeMeters>
            <DistanceMeters>NAN</DistanceMeters>
          </Trackpoint>
          <Trackpoint>
            <Time>2020-12-05T13:32:11.000Z</Time>
            <Position>
              <LatitudeDegrees>36.81540892459452152252197265625</LatitudeDegrees>
              <LongitudeDegrees>-4.38455871306359767913818359375</LongitudeDegrees>
            </Position>
            <AltitudeMeters>732.79998779296875</AltitudeMeters>
            <DistanceMeters>NAN</DistanceMeters>
          </Trackpoint>
          <Trackpoint>
            <Time>2020-12-05T13:32:12.000Z</Time>
            <Position>
              <LatitudeDegrees>36.81540356017649173736572265625</LatitudeDegrees>
              <LongitudeDegrees>-4.38455033116042613983154296875</LongitudeDegrees>
            </Position>
            <AltitudeMeters>733.20001220703125</AltitudeMeters>
            <DistanceMeters>NAN</DistanceMeters>
          </Trackpoint>
          <Trackpoint>
            <Time>2020-12-05T13:32:13.000Z</Time>
            <Position>
              <LatitudeDegrees>36.815400458872318267822265625</LatitudeDegrees>
              <LongitudeDegrees>-4.3845422007143497467041015625</LongitudeDegrees>
            </Position>
            <AltitudeMeters>733.4000244140625</AltitudeMeters>
            <DistanceMeters>NAN</DistanceMeters>
          </Trackpoint>
          <Trackpoint>
            <Time>2020-12-05T13:32:14.000Z</Time>
            <Position>
              <LatitudeDegrees>36.8153949268162250518798828125</LatitudeDegrees>
              <LongitudeDegrees>-4.38453742302954196929931640625</LongitudeDegrees>
            </Position>
            <AltitudeMeters>733.5999755859375</AltitudeMeters>
            <DistanceMeters>NAN</DistanceMeters>
          </Trackpoint>
          <Trackpoint>
            <Time>2020-12-05T13:32:15.000Z</Time>
            <Position>
              <LatitudeDegrees>36.81539316661655902862548828125</LatitudeDegrees>
              <LongitudeDegrees>-4.38452568836510181427001953125</LongitudeDegrees>
            </Position>
            <AltitudeMeters>733.5999755859375</AltitudeMeters>
            <DistanceMeters>NAN</DistanceMeters>
          </Trackpoint>
          <Trackpoint>
            <Time>2020-12-05T13:32:16.000Z</Time>
            <Position>
              <LatitudeDegrees>36.815391071140766143798828125</LatitudeDegrees>
              <LongitudeDegrees>-4.38451563008129596710205078125</LongitudeDegrees>
            </Position>
            <AltitudeMeters>733.79998779296875</AltitudeMeters>
            <DistanceMeters>NAN</DistanceMeters>
          </Trackpoint>
          <Trackpoint>
            <Time>2020-12-05T13:32:17.000Z</Time>
            <Position>
              <LatitudeDegrees>36.81538931094110012054443359375</LatitudeDegrees>
              <LongitudeDegrees>-4.384503476321697235107421875</LongitudeDegrees>
            </Position>
            <AltitudeMeters>733.79998779296875</AltitudeMeters>
            <DistanceMeters>NAN</DistanceMeters>
          </Trackpoint>
          <Trackpoint>
            <Time>2020-12-05T13:32:18.000Z</Time>
            <Position>
              <LatitudeDegrees>36.8153880536556243896484375</LatitudeDegrees>
              <LongitudeDegrees>-4.38449241220951080322265625</LongitudeDegrees>
            </Position>
            <AltitudeMeters>733.79998779296875</AltitudeMeters>
            <DistanceMeters>NAN</DistanceMeters>
          </Trackpoint>
          <Trackpoint>
            <Time>2020-12-05T13:32:19.000Z</Time>
            <Position>
              <LatitudeDegrees>36.81538545526564121246337890625</LatitudeDegrees>
              <LongitudeDegrees>-4.38448813743889331817626953125</LongitudeDegrees>
            </Position>
            <AltitudeMeters>733.79998779296875</AltitudeMeters>
            <DistanceMeters>NAN</DistanceMeters>
          </Trackpoint>
          <Trackpoint>
            <Time>2020-12-05T13:32:20.000Z</Time>
            <Position>
              <LatitudeDegrees>36.8153902329504489898681640625</LatitudeDegrees>
              <LongitudeDegrees>-4.3844748102128505706787109375</LongitudeDegrees>
            </Position>
            <AltitudeMeters>733.5999755859375</AltitudeMeters>
            <DistanceMeters>NAN</DistanceMeters>
          </Trackpoint>
          <Trackpoint>
            <Time>2020-12-05T13:32:21.000Z</Time>
            <Position>
              <LatitudeDegrees>36.81539501063525676727294921875</LatitudeDegrees>
              <LongitudeDegrees>-4.38445880077779293060302734375</LongitudeDegrees>
            </Position>
            <AltitudeMeters>733.20001220703125</AltitudeMeters>
            <DistanceMeters>NAN</DistanceMeters>
          </Trackpoint>
          <Trackpoint>
            <Time>2020-12-05T13:32:22.000Z</Time>
            <Position>
              <LatitudeDegrees>36.8153966031968593597412109375</LatitudeDegrees>
              <LongitudeDegrees>-4.38444321043789386749267578125</LongitudeDegrees>
            </Position>
            <AltitudeMeters>733</AltitudeMeters>
            <DistanceMeters>NAN</DistanceMeters>
          </Trackpoint>
          <Trackpoint>
            <Time>2020-12-05T13:32:23.000Z</Time>
            <Position>
              <LatitudeDegrees>36.815400458872318267822265625</LatitudeDegrees>
              <LongitudeDegrees>-4.38442963175475597381591796875</LongitudeDegrees>
            </Position>
            <AltitudeMeters>733</AltitudeMeters>
            <DistanceMeters>NAN</DistanceMeters>
          </Trackpoint>
          <Trackpoint>
            <Time>2020-12-05T13:32:24.000Z</Time>
            <Position>
              <LatitudeDegrees>36.8154068291187286376953125</LatitudeDegrees>
              <LongitudeDegrees>-4.3844161368906497955322265625</LongitudeDegrees>
            </Position>
            <AltitudeMeters>732.79998779296875</AltitudeMeters>
            <DistanceMeters>NAN</DistanceMeters>
          </Trackpoint>
          <Trackpoint>
            <Time>2020-12-05T13:32:25.000Z</Time>
            <Position>
              <LatitudeDegrees>36.81541529484093189239501953125</LatitudeDegrees>
              <LongitudeDegrees>-4.3843990378081798553466796875</LongitudeDegrees>
            </Position>
            <AltitudeMeters>733</AltitudeMeters>
            <DistanceMeters>NAN</DistanceMeters>
          </Trackpoint>
          <Trackpoint>
            <Time>2020-12-05T13:32:26.000Z</Time>
            <Position>
              <LatitudeDegrees>36.81542501784861087799072265625</LatitudeDegrees>
              <LongitudeDegrees>-4.38438621349632740020751953125</LongitudeDegrees>
            </Position>
            <AltitudeMeters>733</AltitudeMeters>
            <DistanceMeters>NAN</DistanceMeters>
          </Trackpoint>
          <Trackpoint>
            <Time>2020-12-05T13:32:27.000Z</Time>
            <Position>
              <LatitudeDegrees>36.81543541140854358673095703125</LatitudeDegrees>
              <LongitudeDegrees>-4.38437313772737979888916015625</LongitudeDegrees>
            </Position>
            <AltitudeMeters>733.20001220703125</AltitudeMeters>
            <DistanceMeters>NAN</DistanceMeters>
          </Trackpoint>
          <Trackpoint>
            <Time>2020-12-05T13:32:28.000Z</Time>
            <Position>
              <LatitudeDegrees>36.815444044768810272216796875</LatitudeDegrees>
              <LongitudeDegrees>-4.3843601457774639129638671875</LongitudeDegrees>
            </Position>
            <AltitudeMeters>733.5999755859375</AltitudeMeters>
            <DistanceMeters>NAN</DistanceMeters>
          </Trackpoint>
          <Trackpoint>
            <Time>2020-12-05T13:32:29.000Z</Time>
            <Position>
              <LatitudeDegrees>36.81545083411037921905517578125</LatitudeDegrees>
              <LongitudeDegrees>-4.38434447161853313446044921875</LongitudeDegrees>
            </Position>
            <AltitudeMeters>734</AltitudeMeters>
            <DistanceMeters>NAN</DistanceMeters>
          </Trackpoint>
          <Trackpoint>
            <Time>2020-12-05T13:32:30.000Z</Time>
            <Position>
              <LatitudeDegrees>36.8154566176235675811767578125</LatitudeDegrees>
              <LongitudeDegrees>-4.38432686962187290191650390625</LongitudeDegrees>
            </Position>
            <AltitudeMeters>734.5999755859375</AltitudeMeters>
            <DistanceMeters>NAN</DistanceMeters>
          </Trackpoint>
          <Trackpoint>
            <Time>2020-12-05T13:32:31.000Z</Time>
            <Position>
              <LatitudeDegrees>36.81546541862189769744873046875</LatitudeDegrees>
              <LongitudeDegrees>-4.38431161455810070037841796875</LongitudeDegrees>
            </Position>
            <AltitudeMeters>734.79998779296875</AltitudeMeters>
            <DistanceMeters>NAN</DistanceMeters>
          </Trackpoint>
          <Trackpoint>
            <Time>2020-12-05T13:32:32.000Z</Time>
            <Position>
              <LatitudeDegrees>36.81548000313341617584228515625</LatitudeDegrees>
              <LongitudeDegrees>-4.3843008019030094146728515625</LongitudeDegrees>
            </Position>
            <AltitudeMeters>735.20001220703125</AltitudeMeters>
            <DistanceMeters>NAN</DistanceMeters>
          </Trackpoint>
          <Trackpoint>
            <Time>2020-12-05T13:32:33.000Z</Time>
            <Position>
              <LatitudeDegrees>36.8155038915574550628662109375</LatitudeDegrees>
              <LongitudeDegrees>-4.38428110443055629730224609375</LongitudeDegrees>
            </Position>
            <AltitudeMeters>735.79998779296875</AltitudeMeters>
            <DistanceMeters>NAN</DistanceMeters>
          </Trackpoint>
          <Trackpoint>
            <Time>2020-12-05T13:32:34.000Z</Time>
            <Position>
              <LatitudeDegrees>36.81551520712673664093017578125</LatitudeDegrees>
              <LongitudeDegrees>-4.38426853157579898834228515625</LongitudeDegrees>
            </Position>
            <AltitudeMeters>736.20001220703125</AltitudeMeters>
            <DistanceMeters>NAN</DistanceMeters>
          </Trackpoint>
          <Trackpoint>
            <Time>2020-12-05T13:32:35.000Z</Time>
            <Position>
              <LatitudeDegrees>36.8155219964683055877685546875</LatitudeDegrees>
              <LongitudeDegrees>-4.38425595872104167938232421875</LongitudeDegrees>
            </Position>
            <AltitudeMeters>736.5999755859375</AltitudeMeters>
            <DistanceMeters>NAN</DistanceMeters>
          </Trackpoint>
          <Trackpoint>
            <Time>2020-12-05T13:32:36.000Z</Time>
            <Position>
              <LatitudeDegrees>36.81552945636212825775146484375</LatitudeDegrees>
              <LongitudeDegrees>-4.38424740917980670928955078125</LongitudeDegrees>
            </Position>
            <AltitudeMeters>737</AltitudeMeters>
            <DistanceMeters>NAN</DistanceMeters>
          </Trackpoint>
          <Trackpoint>
            <Time>2020-12-05T13:32:37.000Z</Time>
            <Position>
              <LatitudeDegrees>36.8155384249985218048095703125</LatitudeDegrees>
              <LongitudeDegrees>-4.3842404522001743316650390625</LongitudeDegrees>
            </Position>
            <AltitudeMeters>737.20001220703125</AltitudeMeters>
            <DistanceMeters>NAN</DistanceMeters>
          </Trackpoint>
          <Trackpoint>
            <Time>2020-12-05T13:32:38.000Z</Time>
            <Position>
              <LatitudeDegrees>36.81554823182523250579833984375</LatitudeDegrees>
              <LongitudeDegrees>-4.38423399813473224639892578125</LongitudeDegrees>
            </Position>
            <AltitudeMeters>737.4000244140625</AltitudeMeters>
            <DistanceMeters>NAN</DistanceMeters>
          </Trackpoint>
          <Trackpoint>
            <Time>2020-12-05T13:32:39.000Z</Time>
            <Position>
              <LatitudeDegrees>36.81555711664259433746337890625</LatitudeDegrees>
              <LongitudeDegrees>-4.38422477804124355316162109375</LongitudeDegrees>
            </Position>
            <AltitudeMeters>737.4000244140625</AltitudeMeters>
            <DistanceMeters>NAN</DistanceMeters>
          </Trackpoint>
          <Trackpoint>
            <Time>2020-12-05T13:32:40.000Z</Time>
            <Position>
              <LatitudeDegrees>36.81556566618382930755615234375</LatitudeDegrees>
              <LongitudeDegrees>-4.384214468300342559814453125</LongitudeDegrees>
            </Position>
            <AltitudeMeters>737.5999755859375</AltitudeMeters>
            <DistanceMeters>NAN</DistanceMeters>
          </Trackpoint>
          <Trackpoint>
            <Time>2020-12-05T13:32:41.000Z</Time>
            <Position>
              <LatitudeDegrees>36.8155704438686370849609375</LatitudeDegrees>
              <LongitudeDegrees>-4.3842034041881561279296875</LongitudeDegrees>
            </Position>
            <AltitudeMeters>737.79998779296875</AltitudeMeters>
            <DistanceMeters>NAN</DistanceMeters>
          </Trackpoint>
          <Trackpoint>
            <Time>2020-12-05T13:32:42.000Z</Time>
            <Position>
              <LatitudeDegrees>36.8155756406486034393310546875</LatitudeDegrees>
              <LongitudeDegrees>-4.38419074751436710357666015625</LongitudeDegrees>
            </Position>
            <AltitudeMeters>737.79998779296875</AltitudeMeters>
            <DistanceMeters>NAN</DistanceMeters>
          </Trackpoint>
          <Trackpoint>
            <Time>2020-12-05T13:32:43.000Z</Time>
            <Position>
              <LatitudeDegrees>36.81558142416179180145263671875</LatitudeDegrees>
              <LongitudeDegrees>-4.3841765820980072021484375</LongitudeDegrees>
            </Position>
            <AltitudeMeters>737.79998779296875</AltitudeMeters>
            <DistanceMeters>NAN</DistanceMeters>
          </Trackpoint>
          <Trackpoint>
            <Time>2020-12-05T13:32:44.000Z</Time>
            <Position>
              <LatitudeDegrees>36.81559064425528049468994140625</LatitudeDegrees>
              <LongitudeDegrees>-4.3841643445193767547607421875</LongitudeDegrees>
            </Position>
            <AltitudeMeters>737.79998779296875</AltitudeMeters>
            <DistanceMeters>NAN</DistanceMeters>
          </Trackpoint>
          <Trackpoint>
            <Time>2020-12-05T13:32:45.000Z</Time>
            <Position>
              <LatitudeDegrees>36.8156007863581180572509765625</LatitudeDegrees>
              <LongitudeDegrees>-4.3841516040265560150146484375</LongitudeDegrees>
            </Position>
            <AltitudeMeters>738</AltitudeMeters>
            <DistanceMeters>NAN</DistanceMeters>
          </Trackpoint>
          <Trackpoint>
            <Time>2020-12-05T13:32:46.000Z</Time>
            <Position>
              <LatitudeDegrees>36.81561025790870189666748046875</LatitudeDegrees>
              <LongitudeDegrees>-4.3841408751904964447021484375</LongitudeDegrees>
            </Position>
            <AltitudeMeters>738</AltitudeMeters>
            <DistanceMeters>NAN</DistanceMeters>
          </Trackpoint>
          <Trackpoint>
            <Time>2020-12-05T13:32:47.000Z</Time>
            <Position>
              <LatitudeDegrees>36.81561729870736598968505859375</LatitudeDegrees>
              <LongitudeDegrees>-4.384133331477642059326171875</LongitudeDegrees>
            </Position>
            <AltitudeMeters>738</AltitudeMeters>
            <DistanceMeters>NAN</DistanceMeters>
          </Trackpoint>
          <Trackpoint>
            <Time>2020-12-05T13:32:48.000Z</Time>
            <Position>
              <LatitudeDegrees>36.81562232784926891326904296875</LatitudeDegrees>
              <LongitudeDegrees>-4.38412369228899478912353515625</LongitudeDegrees>
            </Position>
            <AltitudeMeters>738</AltitudeMeters>
            <DistanceMeters>NAN</DistanceMeters>
          </Trackpoint>
          <Trackpoint>
            <Time>2020-12-05T13:32:49.000Z</Time>
            <Position>
              <LatitudeDegrees>36.8156254291534423828125</LatitudeDegrees>
              <LongitudeDegrees>-4.38411329872906208038330078125</LongitudeDegrees>
            </Position>
            <AltitudeMeters>738</AltitudeMeters>
            <DistanceMeters>NAN</DistanceMeters>
          </Trackpoint>
          <Trackpoint>
            <Time>2020-12-05T13:32:50.000Z</Time>
            <Position>
              <LatitudeDegrees>36.81562836281955242156982421875</LatitudeDegrees>
              <LongitudeDegrees>-4.384107179939746856689453125</LongitudeDegrees>
            </Position>
            <AltitudeMeters>737.79998779296875</AltitudeMeters>
            <DistanceMeters>NAN</DistanceMeters>
          </Trackpoint>
          <Trackpoint>
            <Time>2020-12-05T13:32:51.000Z</Time>
            <Position>
              <LatitudeDegrees>36.8156309612095355987548828125</LatitudeDegrees>
              <LongitudeDegrees>-4.38410055823624134063720703125</LongitudeDegrees>
            </Position>
            <AltitudeMeters>737.5999755859375</AltitudeMeters>
            <DistanceMeters>NAN</DistanceMeters>
          </Trackpoint>
          <Trackpoint>
            <Time>2020-12-05T13:32:52.000Z</Time>
            <Position>
              <LatitudeDegrees>36.8156369961798191070556640625</LatitudeDegrees>
              <LongitudeDegrees>-4.38409410417079925537109375</LongitudeDegrees>
            </Position>
            <AltitudeMeters>737.4000244140625</AltitudeMeters>
            <DistanceMeters>NAN</DistanceMeters>
          </Trackpoint>
          <Trackpoint>
            <Time>2020-12-05T13:32:53.000Z</Time>
            <Position>
              <LatitudeDegrees>36.81564143858850002288818359375</LatitudeDegrees>
              <LongitudeDegrees>-4.38408832065761089324951171875</LongitudeDegrees>
            </Position>
            <AltitudeMeters>737.4000244140625</AltitudeMeters>
            <DistanceMeters>NAN</DistanceMeters>
          </Trackpoint>
          <Trackpoint>
            <Time>2020-12-05T13:32:54.000Z</Time>
            <Position>
              <LatitudeDegrees>36.81564462371170520782470703125</LatitudeDegrees>
              <LongitudeDegrees>-4.38408379442989826202392578125</LongitudeDegrees>
            </Position>
            <AltitudeMeters>737.4000244140625</AltitudeMeters>
            <DistanceMeters>NAN</DistanceMeters>
          </Trackpoint>
          <Trackpoint>
            <Time>2020-12-05T13:32:55.000Z</Time>
            <Position>
              <LatitudeDegrees>36.8156497366726398468017578125</LatitudeDegrees>
              <LongitudeDegrees>-4.384079016745090484619140625</LongitudeDegrees>
            </Position>
            <AltitudeMeters>737.4000244140625</AltitudeMeters>
            <DistanceMeters>NAN</DistanceMeters>
          </Trackpoint>
          <Trackpoint>
            <Time>2020-12-05T13:32:56.000Z</Time>
            <Position>
              <LatitudeDegrees>36.8156574480235576629638671875</LatitudeDegrees>
              <LongitudeDegrees>-4.38407524488866329193115234375</LongitudeDegrees>
            </Position>
            <AltitudeMeters>737.4000244140625</AltitudeMeters>
            <DistanceMeters>NAN</DistanceMeters>
          </Trackpoint>
          <Trackpoint>
            <Time>2020-12-05T13:32:57.000Z</Time>
            <Position>
              <LatitudeDegrees>36.8156675063073635101318359375</LatitudeDegrees>
              <LongitudeDegrees>-4.38407004810869693756103515625</LongitudeDegrees>
            </Position>
            <AltitudeMeters>737.4000244140625</AltitudeMeters>
            <DistanceMeters>NAN</DistanceMeters>
          </Trackpoint>
          <Trackpoint>
            <Time>2020-12-05T13:32:58.000Z</Time>
            <Position>
              <LatitudeDegrees>36.81568100117146968841552734375</LatitudeDegrees>
              <LongitudeDegrees>-4.384064264595508575439453125</LongitudeDegrees>
            </Position>
            <AltitudeMeters>737.5999755859375</AltitudeMeters>
            <DistanceMeters>NAN</DistanceMeters>
          </Trackpoint>
          <Trackpoint>
            <Time>2020-12-05T13:32:59.000Z</Time>
            <Position>
              <LatitudeDegrees>36.81569608859717845916748046875</LatitudeDegrees>
              <LongitudeDegrees>-4.38405521214008331298828125</LongitudeDegrees>
            </Position>
            <AltitudeMeters>738</AltitudeMeters>
            <DistanceMeters>NAN</DistanceMeters>
          </Trackpoint>
          <Trackpoint>
            <Time>2020-12-05T13:33:00.000Z</Time>
            <Position>
              <LatitudeDegrees>36.81570698507130146026611328125</LatitudeDegrees>
              <LongitudeDegrees>-4.3840463273227214813232421875</LongitudeDegrees>
            </Position>
            <AltitudeMeters>738.5999755859375</AltitudeMeters>
            <DistanceMeters>NAN</DistanceMeters>
          </Trackpoint>
          <Trackpoint>
            <Time>2020-12-05T13:33:01.000Z</Time>
            <Position>
              <LatitudeDegrees>36.81571939028799533843994140625</LatitudeDegrees>
              <LongitudeDegrees>-4.38404222019016742706298828125</LongitudeDegrees>
            </Position>
            <AltitudeMeters>738.79998779296875</AltitudeMeters>
            <DistanceMeters>NAN</DistanceMeters>
          </Trackpoint>
          <Trackpoint>
            <Time>2020-12-05T13:33:02.000Z</Time>
            <Position>
              <LatitudeDegrees>36.81573129259049892425537109375</LatitudeDegrees>
              <LongitudeDegrees>-4.38403635285794734954833984375</LongitudeDegrees>
            </Position>
            <AltitudeMeters>739</AltitudeMeters>
            <DistanceMeters>NAN</DistanceMeters>
          </Trackpoint>
          <Trackpoint>
            <Time>2020-12-05T13:33:03.000Z</Time>
            <Position>
              <LatitudeDegrees>36.81574545800685882568359375</LatitudeDegrees>
              <LongitudeDegrees>-4.3840272165834903717041015625</LongitudeDegrees>
            </Position>
            <AltitudeMeters>739.20001220703125</AltitudeMeters>
            <DistanceMeters>NAN</DistanceMeters>
          </Trackpoint>
          <Trackpoint>
            <Time>2020-12-05T13:33:04.000Z</Time>
            <Position>
              <LatitudeDegrees>36.81575794704258441925048828125</LatitudeDegrees>
              <LongitudeDegrees>-4.384019337594509124755859375</LongitudeDegrees>
            </Position>
            <AltitudeMeters>739</AltitudeMeters>
            <DistanceMeters>NAN</DistanceMeters>
          </Trackpoint>
          <Trackpoint>
            <Time>2020-12-05T13:33:05.000Z</Time>
            <Position>
              <LatitudeDegrees>36.815766580402851104736328125</LatitudeDegrees>
              <LongitudeDegrees>-4.38401254825294017791748046875</LongitudeDegrees>
            </Position>
            <AltitudeMeters>738.79998779296875</AltitudeMeters>
            <DistanceMeters>NAN</DistanceMeters>
          </Trackpoint>
          <Trackpoint>
            <Time>2020-12-05T13:33:06.000Z</Time>
            <Position>
              <LatitudeDegrees>36.815777309238910675048828125</LatitudeDegrees>
              <LongitudeDegrees>-4.3840044178068637847900390625</LongitudeDegrees>
            </Position>
            <AltitudeMeters>738.79998779296875</AltitudeMeters>
            <DistanceMeters>NAN</DistanceMeters>
          </Trackpoint>
          <Trackpoint>
            <Time>2020-12-05T13:33:07.000Z</Time>
            <Position>
              <LatitudeDegrees>36.81579046882688999176025390625</LatitudeDegrees>
              <LongitudeDegrees>-4.383992850780487060546875</LongitudeDegrees>
            </Position>
            <AltitudeMeters>738.79998779296875</AltitudeMeters>
            <DistanceMeters>NAN</DistanceMeters>
          </Trackpoint>
          <Trackpoint>
            <Time>2020-12-05T13:33:08.000Z</Time>
            <Position>
              <LatitudeDegrees>36.8158046342432498931884765625</LatitudeDegrees>
              <LongitudeDegrees>-4.38398019410669803619384765625</LongitudeDegrees>
            </Position>
            <AltitudeMeters>739.20001220703125</AltitudeMeters>
            <DistanceMeters>NAN</DistanceMeters>
          </Trackpoint>
          <Trackpoint>
            <Time>2020-12-05T13:33:09.000Z</Time>
            <Position>
              <LatitudeDegrees>36.815818883478641510009765625</LatitudeDegrees>
              <LongitudeDegrees>-4.383964352309703826904296875</LongitudeDegrees>
            </Position>
            <AltitudeMeters>739.5999755859375</AltitudeMeters>
            <DistanceMeters>NAN</DistanceMeters>
          </Trackpoint>
          <Trackpoint>
            <Time>2020-12-05T13:33:10.000Z</Time>
            <Position>
              <LatitudeDegrees>36.815831959247589111328125</LatitudeDegrees>
              <LongitudeDegrees>-4.383948259055614471435546875</LongitudeDegrees>
            </Position>
            <AltitudeMeters>739.79998779296875</AltitudeMeters>
            <DistanceMeters>NAN</DistanceMeters>
          </Trackpoint>
          <Trackpoint>
            <Time>2020-12-05T13:33:11.000Z</Time>
            <Position>
              <LatitudeDegrees>36.81584310717880725860595703125</LatitudeDegrees>
              <LongitudeDegrees>-4.38393241725862026214599609375</LongitudeDegrees>
            </Position>
            <AltitudeMeters>740.20001220703125</AltitudeMeters>
            <DistanceMeters>NAN</DistanceMeters>
          </Trackpoint>
          <Trackpoint>
            <Time>2020-12-05T13:33:12.000Z</Time>
            <Position>
              <LatitudeDegrees>36.81585350073873996734619140625</LatitudeDegrees>
              <LongitudeDegrees>-4.3839195929467678070068359375</LongitudeDegrees>
            </Position>
            <AltitudeMeters>740.5999755859375</AltitudeMeters>
            <DistanceMeters>NAN</DistanceMeters>
          </Trackpoint>
          <Trackpoint>
            <Time>2020-12-05T13:33:13.000Z</Time>
            <Position>
              <LatitudeDegrees>36.81586003862321376800537109375</LatitudeDegrees>
              <LongitudeDegrees>-4.38390777446329593658447265625</LongitudeDegrees>
            </Position>
            <AltitudeMeters>740.79998779296875</AltitudeMeters>
            <DistanceMeters>NAN</DistanceMeters>
          </Trackpoint>
          <Trackpoint>
            <Time>2020-12-05T13:33:14.000Z</Time>
            <Position>
              <LatitudeDegrees>36.81586607359349727630615234375</LatitudeDegrees>
              <LongitudeDegrees>-4.38389872200787067413330078125</LongitudeDegrees>
            </Position>
            <AltitudeMeters>741.20001220703125</AltitudeMeters>
            <DistanceMeters>NAN</DistanceMeters>
          </Trackpoint>
          <Trackpoint>
            <Time>2020-12-05T13:33:15.000Z</Time>
            <Position>
              <LatitudeDegrees>36.81587026454508304595947265625</LatitudeDegrees>
              <LongitudeDegrees>-4.38389386050403118133544921875</LongitudeDegrees>
            </Position>
            <AltitudeMeters>741.4000244140625</AltitudeMeters>
            <DistanceMeters>NAN</DistanceMeters>
          </Trackpoint>
          <Trackpoint>
            <Time>2020-12-05T13:33:16.000Z</Time>
            <Position>
              <LatitudeDegrees>36.81587663479149341583251953125</LatitudeDegrees>
              <LongitudeDegrees>-4.3838914297521114349365234375</LongitudeDegrees>
            </Position>
            <AltitudeMeters>741.79998779296875</AltitudeMeters>
            <DistanceMeters>NAN</DistanceMeters>
          </Trackpoint>
          <Trackpoint>
            <Time>2020-12-05T13:33:17.000Z</Time>
            <Position>
              <LatitudeDegrees>36.81588384322822093963623046875</LatitudeDegrees>
              <LongitudeDegrees>-4.38388799317181110382080078125</LongitudeDegrees>
            </Position>
            <AltitudeMeters>742.20001220703125</AltitudeMeters>
            <DistanceMeters>NAN</DistanceMeters>
          </Trackpoint>
          <Trackpoint>
            <Time>2020-12-05T13:33:18.000Z</Time>
            <Position>
              <LatitudeDegrees>36.81589163839817047119140625</LatitudeDegrees>
              <LongitudeDegrees>-4.3838820420205593109130859375</LongitudeDegrees>
            </Position>
            <AltitudeMeters>742.5999755859375</AltitudeMeters>
            <DistanceMeters>NAN</DistanceMeters>
          </Trackpoint>
          <Trackpoint>
            <Time>2020-12-05T13:33:19.000Z</Time>
            <Position>
              <LatitudeDegrees>36.81589960120618343353271484375</LatitudeDegrees>
              <LongitudeDegrees>-4.38387407921254634857177734375</LongitudeDegrees>
            </Position>
            <AltitudeMeters>742.79998779296875</AltitudeMeters>
            <DistanceMeters>NAN</DistanceMeters>
          </Trackpoint>
          <Trackpoint>
            <Time>2020-12-05T13:33:20.000Z</Time>
            <Position>
              <LatitudeDegrees>36.8159055523574352264404296875</LatitudeDegrees>
              <LongitudeDegrees>-4.38386318273842334747314453125</LongitudeDegrees>
            </Position>
            <AltitudeMeters>743.20001220703125</AltitudeMeters>
            <DistanceMeters>NAN</DistanceMeters>
          </Trackpoint>
          <Trackpoint>
            <Time>2020-12-05T13:33:21.000Z</Time>
            <Position>
              <LatitudeDegrees>36.8159119226038455963134765625</LatitudeDegrees>
              <LongitudeDegrees>-4.3838538788259029388427734375</LongitudeDegrees>
            </Position>
            <AltitudeMeters>743.4000244140625</AltitudeMeters>
            <DistanceMeters>NAN</DistanceMeters>
          </Trackpoint>
          <Trackpoint>
            <Time>2020-12-05T13:33:22.000Z</Time>
            <Position>
              <LatitudeDegrees>36.81591770611703395843505859375</LatitudeDegrees>
              <LongitudeDegrees>-4.38384725712239742279052734375</LongitudeDegrees>
            </Position>
            <AltitudeMeters>743.5999755859375</AltitudeMeters>
            <DistanceMeters>NAN</DistanceMeters>
          </Trackpoint>
          <Trackpoint>
            <Time>2020-12-05T13:33:23.000Z</Time>
            <Position>
              <LatitudeDegrees>36.8159233219921588897705078125</LatitudeDegrees>
              <LongitudeDegrees>-4.38384105451405048370361328125</LongitudeDegrees>
            </Position>
            <AltitudeMeters>743.5999755859375</AltitudeMeters>
            <DistanceMeters>NAN</DistanceMeters>
          </Trackpoint>
          <Trackpoint>
            <Time>2020-12-05T13:33:24.000Z</Time>
            <Position>
              <LatitudeDegrees>36.8159303627908229827880859375</LatitudeDegrees>
              <LongitudeDegrees>-4.38383367843925952911376953125</LongitudeDegrees>
            </Position>
            <AltitudeMeters>743.79998779296875</AltitudeMeters>
            <DistanceMeters>NAN</DistanceMeters>
          </Trackpoint>
          <Trackpoint>
            <Time>2020-12-05T13:33:25.000Z</Time>
            <Position>
              <LatitudeDegrees>36.81593857705593109130859375</LatitudeDegrees>
              <LongitudeDegrees>-4.383826218545436859130859375</LongitudeDegrees>
            </Position>
            <AltitudeMeters>743.79998779296875</AltitudeMeters>
            <DistanceMeters>NAN</DistanceMeters>
          </Trackpoint>
          <Trackpoint>
            <Time>2020-12-05T13:33:26.000Z</Time>
            <Position>
              <LatitudeDegrees>36.8159472942352294921875</LatitudeDegrees>
              <LongitudeDegrees>-4.3838198482990264892578125</LongitudeDegrees>
            </Position>
            <AltitudeMeters>744</AltitudeMeters>
            <DistanceMeters>NAN</DistanceMeters>
          </Trackpoint>
          <Trackpoint>
            <Time>2020-12-05T13:33:27.000Z</Time>
            <Position>
              <LatitudeDegrees>36.81595575995743274688720703125</LatitudeDegrees>
              <LongitudeDegrees>-4.38381247222423553466796875</LongitudeDegrees>
            </Position>
            <AltitudeMeters>744</AltitudeMeters>
            <DistanceMeters>NAN</DistanceMeters>
          </Trackpoint>
          <Trackpoint>
            <Time>2020-12-05T13:33:28.000Z</Time>
            <Position>
              <LatitudeDegrees>36.81596539914608001708984375</LatitudeDegrees>
              <LongitudeDegrees>-4.38380618579685688018798828125</LongitudeDegrees>
            </Position>
            <AltitudeMeters>744</AltitudeMeters>
            <DistanceMeters>NAN</DistanceMeters>
          </Trackpoint>
          <Trackpoint>
            <Time>2020-12-05T13:33:29.000Z</Time>
            <Position>
              <LatitudeDegrees>36.8159746192395687103271484375</LatitudeDegrees>
              <LongitudeDegrees>-4.38380082137882709503173828125</LongitudeDegrees>
            </Position>
            <AltitudeMeters>744</AltitudeMeters>
            <DistanceMeters>NAN</DistanceMeters>
          </Trackpoint>
          <Trackpoint>
            <Time>2020-12-05T13:33:30.000Z</Time>
            <Position>
              <LatitudeDegrees>36.81598417460918426513671875</LatitudeDegrees>
              <LongitudeDegrees>-4.38379478640854358673095703125</LongitudeDegrees>
            </Position>
            <AltitudeMeters>744</AltitudeMeters>
            <DistanceMeters>NAN</DistanceMeters>
          </Trackpoint>
          <Trackpoint>
            <Time>2020-12-05T13:33:31.000Z</Time>
            <Position>
              <LatitudeDegrees>36.8159944005310535430908203125</LatitudeDegrees>
              <LongitudeDegrees>-4.383788667619228363037109375</LongitudeDegrees>
            </Position>
            <AltitudeMeters>743.79998779296875</AltitudeMeters>
            <DistanceMeters>NAN</DistanceMeters>
          </Trackpoint>
          <Trackpoint>
            <Time>2020-12-05T13:33:32.000Z</Time>
            <Position>
              <LatitudeDegrees>36.81600286625325679779052734375</LatitudeDegrees>
              <LongitudeDegrees>-4.3837834708392620086669921875</LongitudeDegrees>
            </Position>
            <AltitudeMeters>743.79998779296875</AltitudeMeters>
            <DistanceMeters>NAN</DistanceMeters>
          </Trackpoint>
          <Trackpoint>
            <Time>2020-12-05T13:33:33.000Z</Time>
            <Position>
              <LatitudeDegrees>36.81600990705192089080810546875</LatitudeDegrees>
              <LongitudeDegrees>-4.38377735204994678497314453125</LongitudeDegrees>
            </Position>
            <AltitudeMeters>743.79998779296875</AltitudeMeters>
            <DistanceMeters>NAN</DistanceMeters>
          </Trackpoint>
          <Trackpoint>
            <Time>2020-12-05T13:33:34.000Z</Time>
            <Position>
              <LatitudeDegrees>36.816018037497997283935546875</LatitudeDegrees>
              <LongitudeDegrees>-4.38377165235579013824462890625</LongitudeDegrees>
            </Position>
            <AltitudeMeters>743.5999755859375</AltitudeMeters>
            <DistanceMeters>NAN</DistanceMeters>
          </Trackpoint>
          <Trackpoint>
            <Time>2020-12-05T13:33:35.000Z</Time>
            <Position>
              <LatitudeDegrees>36.81602583266794681549072265625</LatitudeDegrees>
              <LongitudeDegrees>-4.38376486301422119140625</LongitudeDegrees>
            </Position>
            <AltitudeMeters>743.5999755859375</AltitudeMeters>
            <DistanceMeters>NAN</DistanceMeters>
          </Trackpoint>
          <Trackpoint>
            <Time>2020-12-05T13:33:36.000Z</Time>
            <Position>
              <LatitudeDegrees>36.8160349689424037933349609375</LatitudeDegrees>
              <LongitudeDegrees>-4.3837596662342548370361328125</LongitudeDegrees>
            </Position>
            <AltitudeMeters>743.5999755859375</AltitudeMeters>
            <DistanceMeters>NAN</DistanceMeters>
          </Trackpoint>
          <Trackpoint>
            <Time>2020-12-05T13:33:37.000Z</Time>
            <Position>
              <LatitudeDegrees>36.8160433508455753326416015625</LatitudeDegrees>
              <LongitudeDegrees>-4.38375371508300304412841796875</LongitudeDegrees>
            </Position>
            <AltitudeMeters>743.5999755859375</AltitudeMeters>
            <DistanceMeters>NAN</DistanceMeters>
          </Trackpoint>
          <Trackpoint>
            <Time>2020-12-05T13:33:38.000Z</Time>
            <Position>
              <LatitudeDegrees>36.81605198420584201812744140625</LatitudeDegrees>
              <LongitudeDegrees>-4.38374650664627552032470703125</LongitudeDegrees>
            </Position>
            <AltitudeMeters>743.5999755859375</AltitudeMeters>
            <DistanceMeters>NAN</DistanceMeters>
          </Trackpoint>
          <Trackpoint>
            <Time>2020-12-05T13:33:39.000Z</Time>
            <Position>
              <LatitudeDegrees>36.81606053374707698822021484375</LatitudeDegrees>
              <LongitudeDegrees>-4.3837420642375946044921875</LongitudeDegrees>
            </Position>
            <AltitudeMeters>743.5999755859375</AltitudeMeters>
            <DistanceMeters>NAN</DistanceMeters>
          </Trackpoint>
          <Trackpoint>
            <Time>2020-12-05T13:33:40.000Z</Time>
            <Position>
              <LatitudeDegrees>36.81606874801218509674072265625</LatitudeDegrees>
              <LongitudeDegrees>-4.38373678363859653472900390625</LongitudeDegrees>
            </Position>
            <AltitudeMeters>743.5999755859375</AltitudeMeters>
            <DistanceMeters>NAN</DistanceMeters>
          </Trackpoint>
          <Trackpoint>
            <Time>2020-12-05T13:33:41.000Z</Time>
            <Position>
              <LatitudeDegrees>36.81607830338180065155029296875</LatitudeDegrees>
              <LongitudeDegrees>-4.38373175449669361114501953125</LongitudeDegrees>
            </Position>
            <AltitudeMeters>743.5999755859375</AltitudeMeters>
            <DistanceMeters>NAN</DistanceMeters>
          </Trackpoint>
          <Trackpoint>
            <Time>2020-12-05T13:33:42.000Z</Time>
            <Position>
              <LatitudeDegrees>36.81608819402754306793212890625</LatitudeDegrees>
              <LongitudeDegrees>-4.3837271444499492645263671875</LongitudeDegrees>
            </Position>
            <AltitudeMeters>743.79998779296875</AltitudeMeters>
            <DistanceMeters>NAN</DistanceMeters>
          </Trackpoint>
          <Trackpoint>
            <Time>2020-12-05T13:33:43.000Z</Time>
            <Position>
              <LatitudeDegrees>36.81610177271068096160888671875</LatitudeDegrees>
              <LongitudeDegrees>-4.38372102566063404083251953125</LongitudeDegrees>
            </Position>
            <AltitudeMeters>744</AltitudeMeters>
            <DistanceMeters>NAN</DistanceMeters>
          </Trackpoint>
          <Trackpoint>
            <Time>2020-12-05T13:33:44.000Z</Time>
            <Position>
              <LatitudeDegrees>36.81611384265124797821044921875</LatitudeDegrees>
              <LongitudeDegrees>-4.38371767289936542510986328125</LongitudeDegrees>
            </Position>
            <AltitudeMeters>744.4000244140625</AltitudeMeters>
            <DistanceMeters>NAN</DistanceMeters>
          </Trackpoint>
          <Trackpoint>
            <Time>2020-12-05T13:33:45.000Z</Time>
            <Position>
              <LatitudeDegrees>36.81612373329699039459228515625</LatitudeDegrees>
              <LongitudeDegrees>-4.38371465541422367095947265625</LongitudeDegrees>
            </Position>
            <AltitudeMeters>745</AltitudeMeters>
            <DistanceMeters>NAN</DistanceMeters>
          </Trackpoint>
          <Trackpoint>
            <Time>2020-12-05T13:33:46.000Z</Time>
            <Position>
              <LatitudeDegrees>36.8161328695714473724365234375</LatitudeDegrees>
              <LongitudeDegrees>-4.38370778225362300872802734375</LongitudeDegrees>
            </Position>
            <AltitudeMeters>745.4000244140625</AltitudeMeters>
            <DistanceMeters>NAN</DistanceMeters>
          </Trackpoint>
          <Trackpoint>
            <Time>2020-12-05T13:33:47.000Z</Time>
            <Position>
              <LatitudeDegrees>36.8161405809223651885986328125</LatitudeDegrees>
              <LongitudeDegrees>-4.38370157964527606964111328125</LongitudeDegrees>
            </Position>
            <AltitudeMeters>745.79998779296875</AltitudeMeters>
            <DistanceMeters>NAN</DistanceMeters>
          </Trackpoint>
          <Trackpoint>
            <Time>2020-12-05T13:33:48.000Z</Time>
            <Position>
              <LatitudeDegrees>36.8161503039300441741943359375</LatitudeDegrees>
              <LongitudeDegrees>-4.38369420357048511505126953125</LongitudeDegrees>
            </Position>
            <AltitudeMeters>746.20001220703125</AltitudeMeters>
            <DistanceMeters>NAN</DistanceMeters>
          </Trackpoint>
          <Trackpoint>
            <Time>2020-12-05T13:33:49.000Z</Time>
            <Position>
              <LatitudeDegrees>36.81615927256643772125244140625</LatitudeDegrees>
              <LongitudeDegrees>-4.38368381001055240631103515625</LongitudeDegrees>
            </Position>
            <AltitudeMeters>746.4000244140625</AltitudeMeters>
            <DistanceMeters>NAN</DistanceMeters>
          </Trackpoint>
          <Trackpoint>
            <Time>2020-12-05T13:33:50.000Z</Time>
            <Position>
              <LatitudeDegrees>36.816169917583465576171875</LatitudeDegrees>
              <LongitudeDegrees>-4.3836785294115543365478515625</LongitudeDegrees>
            </Position>
            <AltitudeMeters>746.5999755859375</AltitudeMeters>
            <DistanceMeters>NAN</DistanceMeters>
          </Trackpoint>
          <Trackpoint>
            <Time>2020-12-05T13:33:51.000Z</Time>
            <Position>
              <LatitudeDegrees>36.81618073023855686187744140625</LatitudeDegrees>
              <LongitudeDegrees>-4.38367559574544429779052734375</LongitudeDegrees>
            </Position>
            <AltitudeMeters>746.79998779296875</AltitudeMeters>
            <DistanceMeters>NAN</DistanceMeters>
          </Trackpoint>
          <Trackpoint>
            <Time>2020-12-05T13:33:52.000Z</Time>
            <Position>
              <LatitudeDegrees>36.81619078852236270904541015625</LatitudeDegrees>
              <LongitudeDegrees>-4.38367324881255626678466796875</LongitudeDegrees>
            </Position>
            <AltitudeMeters>747</AltitudeMeters>
            <DistanceMeters>NAN</DistanceMeters>
          </Trackpoint>
          <Trackpoint>
            <Time>2020-12-05T13:33:53.000Z</Time>
            <Position>
              <LatitudeDegrees>36.81619866751134395599365234375</LatitudeDegrees>
              <LongitudeDegrees>-4.38367123715579509735107421875</LongitudeDegrees>
            </Position>
            <AltitudeMeters>747</AltitudeMeters>
            <DistanceMeters>NAN</DistanceMeters>
          </Trackpoint>
          <Trackpoint>
            <Time>2020-12-05T13:33:54.000Z</Time>
            <Position>
              <LatitudeDegrees>36.8162093125283718109130859375</LatitudeDegrees>
              <LongitudeDegrees>-4.38366922549903392791748046875</LongitudeDegrees>
            </Position>
            <AltitudeMeters>747</AltitudeMeters>
            <DistanceMeters>NAN</DistanceMeters>
          </Trackpoint>
          <Trackpoint>
            <Time>2020-12-05T13:33:55.000Z</Time>
            <Position>
              <LatitudeDegrees>36.8162233941256999969482421875</LatitudeDegrees>
              <LongitudeDegrees>-4.38366436399519443511962890625</LongitudeDegrees>
            </Position>
            <AltitudeMeters>747</AltitudeMeters>
            <DistanceMeters>NAN</DistanceMeters>
          </Trackpoint>
          <Trackpoint>
            <Time>2020-12-05T13:33:56.000Z</Time>
            <Position>
              <LatitudeDegrees>36.8162337876856327056884765625</LatitudeDegrees>
              <LongitudeDegrees>-4.38366084359586238861083984375</LongitudeDegrees>
            </Position>
            <AltitudeMeters>747.20001220703125</AltitudeMeters>
            <DistanceMeters>NAN</DistanceMeters>
          </Trackpoint>
          <Trackpoint>
            <Time>2020-12-05T13:33:57.000Z</Time>
            <Position>
              <LatitudeDegrees>36.8162445165216922760009765625</LatitudeDegrees>
              <LongitudeDegrees>-4.38365665264427661895751953125</LongitudeDegrees>
            </Position>
            <AltitudeMeters>747.4000244140625</AltitudeMeters>
            <DistanceMeters>NAN</DistanceMeters>
          </Trackpoint>
          <Trackpoint>
            <Time>2020-12-05T13:33:58.000Z</Time>
            <Position>
              <LatitudeDegrees>36.8162552453577518463134765625</LatitudeDegrees>
              <LongitudeDegrees>-4.3836513720452785491943359375</LongitudeDegrees>
            </Position>
            <AltitudeMeters>747.5999755859375</AltitudeMeters>
            <DistanceMeters>NAN</DistanceMeters>
          </Trackpoint>
          <Trackpoint>
            <Time>2020-12-05T13:33:59.000Z</Time>
            <Position>
              <LatitudeDegrees>36.8162636272609233856201171875</LatitudeDegrees>
              <LongitudeDegrees>-4.3836439959704875946044921875</LongitudeDegrees>
            </Position>
            <AltitudeMeters>747.79998779296875</AltitudeMeters>
            <DistanceMeters>NAN</DistanceMeters>
          </Trackpoint>
          <Trackpoint>
            <Time>2020-12-05T13:34:00.000Z</Time>
            <Position>
              <LatitudeDegrees>36.81627511046826839447021484375</LatitudeDegrees>
              <LongitudeDegrees>-4.38363620080053806304931640625</LongitudeDegrees>
            </Position>
            <AltitudeMeters>748</AltitudeMeters>
            <DistanceMeters>NAN</DistanceMeters>
          </Trackpoint>
          <Trackpoint>
            <Time>2020-12-05T13:34:01.000Z</Time>
            <Position>
              <LatitudeDegrees>36.81628525257110595703125</LatitudeDegrees>
              <LongitudeDegrees>-4.38362396322190761566162109375</LongitudeDegrees>
            </Position>
            <AltitudeMeters>748.4000244140625</AltitudeMeters>
            <DistanceMeters>NAN</DistanceMeters>
          </Trackpoint>
          <Trackpoint>
            <Time>2020-12-05T13:34:02.000Z</Time>
            <Position>
              <LatitudeDegrees>36.816297657787799835205078125</LatitudeDegrees>
              <LongitudeDegrees>-4.38361507840454578399658203125</LongitudeDegrees>
            </Position>
            <AltitudeMeters>748.5999755859375</AltitudeMeters>
            <DistanceMeters>NAN</DistanceMeters>
          </Trackpoint>
          <Trackpoint>
            <Time>2020-12-05T13:34:03.000Z</Time>
            <Position>
              <LatitudeDegrees>36.8163092248141765594482421875</LatitudeDegrees>
              <LongitudeDegrees>-4.3836030922830104827880859375</LongitudeDegrees>
            </Position>
            <AltitudeMeters>749</AltitudeMeters>
            <DistanceMeters>NAN</DistanceMeters>
          </Trackpoint>
          <Trackpoint>
            <Time>2020-12-05T13:34:04.000Z</Time>
            <Position>
              <LatitudeDegrees>36.81631810963153839111328125</LatitudeDegrees>
              <LongitudeDegrees>-4.38359362073242664337158203125</LongitudeDegrees>
            </Position>
            <AltitudeMeters>749.20001220703125</AltitudeMeters>
            <DistanceMeters>NAN</DistanceMeters>
          </Trackpoint>
          <Trackpoint>
            <Time>2020-12-05T13:34:05.000Z</Time>
            <Position>
              <LatitudeDegrees>36.8163253180682659149169921875</LatitudeDegrees>
              <LongitudeDegrees>-4.383586160838603973388671875</LongitudeDegrees>
            </Position>
            <AltitudeMeters>749.4000244140625</AltitudeMeters>
            <DistanceMeters>NAN</DistanceMeters>
          </Trackpoint>
          <Trackpoint>
            <Time>2020-12-05T13:34:06.000Z</Time>
            <Position>
              <LatitudeDegrees>36.81633395142853260040283203125</LatitudeDegrees>
              <LongitudeDegrees>-4.3835796229541301727294921875</LongitudeDegrees>
            </Position>
            <AltitudeMeters>749.5999755859375</AltitudeMeters>
            <DistanceMeters>NAN</DistanceMeters>
          </Trackpoint>
          <Trackpoint>
            <Time>2020-12-05T13:34:07.000Z</Time>
            <Position>
              <LatitudeDegrees>36.816343925893306732177734375</LatitudeDegrees>
              <LongitudeDegrees>-4.38357065431773662567138671875</LongitudeDegrees>
            </Position>
            <AltitudeMeters>749.79998779296875</AltitudeMeters>
            <DistanceMeters>NAN</DistanceMeters>
          </Trackpoint>
          <Trackpoint>
            <Time>2020-12-05T13:34:08.000Z</Time>
            <Position>
              <LatitudeDegrees>36.8163544870913028717041015625</LatitudeDegrees>
              <LongitudeDegrees>-4.38356378115713596343994140625</LongitudeDegrees>
            </Position>
            <AltitudeMeters>749.79998779296875</AltitudeMeters>
            <DistanceMeters>NAN</DistanceMeters>
          </Trackpoint>
          <Trackpoint>
            <Time>2020-12-05T13:34:09.000Z</Time>
            <Position>
              <LatitudeDegrees>36.8163665570318698883056640625</LatitudeDegrees>
              <LongitudeDegrees>-4.383558332920074462890625</LongitudeDegrees>
            </Position>
            <AltitudeMeters>749.79998779296875</AltitudeMeters>
            <DistanceMeters>NAN</DistanceMeters>
          </Trackpoint>
          <Trackpoint>
            <Time>2020-12-05T13:34:10.000Z</Time>
            <Position>
              <LatitudeDegrees>36.81637770496308803558349609375</LatitudeDegrees>
              <LongitudeDegrees>-4.383551292121410369873046875</LongitudeDegrees>
            </Position>
            <AltitudeMeters>750</AltitudeMeters>
            <DistanceMeters>NAN</DistanceMeters>
          </Trackpoint>
          <Trackpoint>
            <Time>2020-12-05T13:34:11.000Z</Time>
            <Position>
              <LatitudeDegrees>36.81639044545590877532958984375</LatitudeDegrees>
              <LongitudeDegrees>-4.383543245494365692138671875</LongitudeDegrees>
            </Position>
            <AltitudeMeters>750.20001220703125</AltitudeMeters>
            <DistanceMeters>NAN</DistanceMeters>
          </Trackpoint>
          <Trackpoint>
            <Time>2020-12-05T13:34:12.000Z</Time>
            <Position>
              <LatitudeDegrees>36.81640402413904666900634765625</LatitudeDegrees>
              <LongitudeDegrees>-4.3835355341434478759765625</LongitudeDegrees>
            </Position>
            <AltitudeMeters>750.4000244140625</AltitudeMeters>
            <DistanceMeters>NAN</DistanceMeters>
          </Trackpoint>
          <Trackpoint>
            <Time>2020-12-05T13:34:13.000Z</Time>
            <Position>
              <LatitudeDegrees>36.81641743518412113189697265625</LatitudeDegrees>
              <LongitudeDegrees>-4.38352815806865692138671875</LongitudeDegrees>
            </Position>
            <AltitudeMeters>750.4000244140625</AltitudeMeters>
            <DistanceMeters>NAN</DistanceMeters>
          </Trackpoint>
          <Trackpoint>
            <Time>2020-12-05T13:34:14.000Z</Time>
            <Position>
              <LatitudeDegrees>36.81642782874405384063720703125</LatitudeDegrees>
              <LongitudeDegrees>-4.38352203927934169769287109375</LongitudeDegrees>
            </Position>
            <AltitudeMeters>750.5999755859375</AltitudeMeters>
            <DistanceMeters>NAN</DistanceMeters>
          </Trackpoint>
          <Trackpoint>
            <Time>2020-12-05T13:34:15.000Z</Time>
            <Position>
              <LatitudeDegrees>36.816436462104320526123046875</LatitudeDegrees>
              <LongitudeDegrees>-4.38351466320455074310302734375</LongitudeDegrees>
            </Position>
            <AltitudeMeters>750.5999755859375</AltitudeMeters>
            <DistanceMeters>NAN</DistanceMeters>
          </Trackpoint>
          <Trackpoint>
            <Time>2020-12-05T13:34:16.000Z</Time>
            <Position>
              <LatitudeDegrees>36.81644543074071407318115234375</LatitudeDegrees>
              <LongitudeDegrees>-4.38350804150104522705078125</LongitudeDegrees>
            </Position>
            <AltitudeMeters>750.5999755859375</AltitudeMeters>
            <DistanceMeters>NAN</DistanceMeters>
          </Trackpoint>
          <Trackpoint>
            <Time>2020-12-05T13:34:17.000Z</Time>
            <Position>
              <LatitudeDegrees>36.81645330972969532012939453125</LatitudeDegrees>
              <LongitudeDegrees>-4.3834971450269222259521484375</LongitudeDegrees>
            </Position>
            <AltitudeMeters>750.79998779296875</AltitudeMeters>
            <DistanceMeters>NAN</DistanceMeters>
          </Trackpoint>
          <Trackpoint>
            <Time>2020-12-05T13:34:18.000Z</Time>
            <Position>
              <LatitudeDegrees>36.8164634518325328826904296875</LatitudeDegrees>
              <LongitudeDegrees>-4.38348683528602123260498046875</LongitudeDegrees>
            </Position>
            <AltitudeMeters>750.79998779296875</AltitudeMeters>
            <DistanceMeters>NAN</DistanceMeters>
          </Trackpoint>
          <Trackpoint>
            <Time>2020-12-05T13:34:19.000Z</Time>
            <Position>
              <LatitudeDegrees>36.8164728395640850067138671875</LatitudeDegrees>
              <LongitudeDegrees>-4.3834763579070568084716796875</LongitudeDegrees>
            </Position>
            <AltitudeMeters>751</AltitudeMeters>
            <DistanceMeters>NAN</DistanceMeters>
          </Trackpoint>
          <Trackpoint>
            <Time>2020-12-05T13:34:20.000Z</Time>
            <Position>
              <LatitudeDegrees>36.81648147292435169219970703125</LatitudeDegrees>
              <LongitudeDegrees>-4.38346646726131439208984375</LongitudeDegrees>
            </Position>
            <AltitudeMeters>751</AltitudeMeters>
            <DistanceMeters>NAN</DistanceMeters>
          </Trackpoint>
          <Trackpoint>
            <Time>2020-12-05T13:34:21.000Z</Time>
            <Position>
              <LatitudeDegrees>36.81649220176041126251220703125</LatitudeDegrees>
              <LongitudeDegrees>-4.3834572471678256988525390625</LongitudeDegrees>
            </Position>
            <AltitudeMeters>751</AltitudeMeters>
            <DistanceMeters>NAN</DistanceMeters>
          </Trackpoint>
          <Trackpoint>
            <Time>2020-12-05T13:34:22.000Z</Time>
            <Position>
              <LatitudeDegrees>36.8165043555200099945068359375</LatitudeDegrees>
              <LongitudeDegrees>-4.3834443390369415283203125</LongitudeDegrees>
            </Position>
            <AltitudeMeters>751</AltitudeMeters>
            <DistanceMeters>NAN</DistanceMeters>
          </Trackpoint>
          <Trackpoint>
            <Time>2020-12-05T13:34:23.000Z</Time>
            <Position>
              <LatitudeDegrees>36.81651650927960872650146484375</LatitudeDegrees>
              <LongitudeDegrees>-4.38343101181089878082275390625</LongitudeDegrees>
            </Position>
            <AltitudeMeters>751</AltitudeMeters>
            <DistanceMeters>NAN</DistanceMeters>
          </Trackpoint>
          <Trackpoint>
            <Time>2020-12-05T13:34:24.000Z</Time>
            <Position>
              <LatitudeDegrees>36.81652673520147800445556640625</LatitudeDegrees>
              <LongitudeDegrees>-4.38342229463160037994384765625</LongitudeDegrees>
            </Position>
            <AltitudeMeters>751</AltitudeMeters>
            <DistanceMeters>NAN</DistanceMeters>
          </Trackpoint>
          <Trackpoint>
            <Time>2020-12-05T13:34:25.000Z</Time>
            <Position>
              <LatitudeDegrees>36.8165362067520618438720703125</LatitudeDegrees>
              <LongitudeDegrees>-4.3834121525287628173828125</LongitudeDegrees>
            </Position>
            <AltitudeMeters>751</AltitudeMeters>
            <DistanceMeters>NAN</DistanceMeters>
          </Trackpoint>
          <Trackpoint>
            <Time>2020-12-05T13:34:26.000Z</Time>
            <Position>
              <LatitudeDegrees>36.8165462650358676910400390625</LatitudeDegrees>
              <LongitudeDegrees>-4.38340343534946441650390625</LongitudeDegrees>
            </Position>
            <AltitudeMeters>751</AltitudeMeters>
            <DistanceMeters>NAN</DistanceMeters>
          </Trackpoint>
          <Trackpoint>
            <Time>2020-12-05T13:34:27.000Z</Time>
            <Position>
              <LatitudeDegrees>36.8165576644241809844970703125</LatitudeDegrees>
              <LongitudeDegrees>-4.38339178450405597686767578125</LongitudeDegrees>
            </Position>
            <AltitudeMeters>751</AltitudeMeters>
            <DistanceMeters>NAN</DistanceMeters>
          </Trackpoint>
          <Trackpoint>
            <Time>2020-12-05T13:34:28.000Z</Time>
            <Position>
              <LatitudeDegrees>36.81656596250832080841064453125</LatitudeDegrees>
              <LongitudeDegrees>-4.38338273204863071441650390625</LongitudeDegrees>
            </Position>
            <AltitudeMeters>751.20001220703125</AltitudeMeters>
            <DistanceMeters>NAN</DistanceMeters>
          </Trackpoint>
          <Trackpoint>
            <Time>2020-12-05T13:34:29.000Z</Time>
            <Position>
              <LatitudeDegrees>36.81657451204955577850341796875</LatitudeDegrees>
              <LongitudeDegrees>-4.38337418250739574432373046875</LongitudeDegrees>
            </Position>
            <AltitudeMeters>751.20001220703125</AltitudeMeters>
            <DistanceMeters>NAN</DistanceMeters>
          </Trackpoint>
          <Trackpoint>
            <Time>2020-12-05T13:34:30.000Z</Time>
            <Position>
              <LatitudeDegrees>36.81658406741917133331298828125</LatitudeDegrees>
              <LongitudeDegrees>-4.38336462713778018951416015625</LongitudeDegrees>
            </Position>
            <AltitudeMeters>751.5999755859375</AltitudeMeters>
            <DistanceMeters>NAN</DistanceMeters>
          </Trackpoint>
          <Trackpoint>
            <Time>2020-12-05T13:34:31.000Z</Time>
            <Position>
              <LatitudeDegrees>36.816596053540706634521484375</LatitudeDegrees>
              <LongitudeDegrees>-4.3833529762923717498779296875</LongitudeDegrees>
            </Position>
            <AltitudeMeters>751.79998779296875</AltitudeMeters>
            <DistanceMeters>NAN</DistanceMeters>
          </Trackpoint>
          <Trackpoint>
            <Time>2020-12-05T13:34:32.000Z</Time>
            <Position>
              <LatitudeDegrees>36.8166066147387027740478515625</LatitudeDegrees>
              <LongitudeDegrees>-4.383341409265995025634765625</LongitudeDegrees>
            </Position>
            <AltitudeMeters>752.20001220703125</AltitudeMeters>
            <DistanceMeters>NAN</DistanceMeters>
          </Trackpoint>
          <Trackpoint>
            <Time>2020-12-05T13:34:33.000Z</Time>
            <Position>
              <LatitudeDegrees>36.81661373935639858245849609375</LatitudeDegrees>
              <LongitudeDegrees>-4.38333277590572834014892578125</LongitudeDegrees>
            </Position>
            <AltitudeMeters>752.4000244140625</AltitudeMeters>
            <DistanceMeters>NAN</DistanceMeters>
          </Trackpoint>
          <Trackpoint>
            <Time>2020-12-05T13:34:34.000Z</Time>
            <Position>
              <LatitudeDegrees>36.81662681512534618377685546875</LatitudeDegrees>
              <LongitudeDegrees>-4.383319951593875885009765625</LongitudeDegrees>
            </Position>
            <AltitudeMeters>752.79998779296875</AltitudeMeters>
            <DistanceMeters>NAN</DistanceMeters>
          </Trackpoint>
          <Trackpoint>
            <Time>2020-12-05T13:34:35.000Z</Time>
            <Position>
              <LatitudeDegrees>36.81663955561816692352294921875</LatitudeDegrees>
              <LongitudeDegrees>-4.38330821692943572998046875</LongitudeDegrees>
            </Position>
            <AltitudeMeters>753</AltitudeMeters>
            <DistanceMeters>NAN</DistanceMeters>
          </Trackpoint>
          <Trackpoint>
            <Time>2020-12-05T13:34:36.000Z</Time>
            <Position>
              <LatitudeDegrees>36.816651038825511932373046875</LatitudeDegrees>
              <LongitudeDegrees>-4.38329882919788360595703125</LongitudeDegrees>
            </Position>
            <AltitudeMeters>753.20001220703125</AltitudeMeters>
            <DistanceMeters>NAN</DistanceMeters>
          </Trackpoint>
          <Trackpoint>
            <Time>2020-12-05T13:34:37.000Z</Time>
            <Position>
              <LatitudeDegrees>36.81666076183319091796875</LatitudeDegrees>
              <LongitudeDegrees>-4.383288435637950897216796875</LongitudeDegrees>
            </Position>
            <AltitudeMeters>753.4000244140625</AltitudeMeters>
            <DistanceMeters>NAN</DistanceMeters>
          </Trackpoint>
          <Trackpoint>
            <Time>2020-12-05T13:34:38.000Z</Time>
            <Position>
              <LatitudeDegrees>36.81666813790798187255859375</LatitudeDegrees>
              <LongitudeDegrees>-4.38327644951641559600830078125</LongitudeDegrees>
            </Position>
            <AltitudeMeters>753.4000244140625</AltitudeMeters>
            <DistanceMeters>NAN</DistanceMeters>
          </Trackpoint>
          <Trackpoint>
            <Time>2020-12-05T13:34:39.000Z</Time>
            <Position>
              <LatitudeDegrees>36.816674172878265380859375</LatitudeDegrees>
              <LongitudeDegrees>-4.3832644633948802947998046875</LongitudeDegrees>
            </Position>
            <AltitudeMeters>753.4000244140625</AltitudeMeters>
            <DistanceMeters>NAN</DistanceMeters>
          </Trackpoint>
          <Trackpoint>
            <Time>2020-12-05T13:34:40.000Z</Time>
            <Position>
              <LatitudeDegrees>36.81668163277208805084228515625</LatitudeDegrees>
              <LongitudeDegrees>-4.3832517229020595550537109375</LongitudeDegrees>
            </Position>
            <AltitudeMeters>753.4000244140625</AltitudeMeters>
            <DistanceMeters>NAN</DistanceMeters>
          </Trackpoint>
          <Trackpoint>
            <Time>2020-12-05T13:34:41.000Z</Time>
            <Position>
              <LatitudeDegrees>36.816689260303974151611328125</LatitudeDegrees>
              <LongitudeDegrees>-4.38324158079922199249267578125</LongitudeDegrees>
            </Position>
            <AltitudeMeters>753.4000244140625</AltitudeMeters>
            <DistanceMeters>NAN</DistanceMeters>
          </Trackpoint>
          <Trackpoint>
            <Time>2020-12-05T13:34:42.000Z</Time>
            <Position>
              <LatitudeDegrees>36.81669822894036769866943359375</LatitudeDegrees>
              <LongitudeDegrees>-4.38322951085865497589111328125</LongitudeDegrees>
            </Position>
            <AltitudeMeters>753.4000244140625</AltitudeMeters>
            <DistanceMeters>NAN</DistanceMeters>
          </Trackpoint>
          <Trackpoint>
            <Time>2020-12-05T13:34:43.000Z</Time>
            <Position>
              <LatitudeDegrees>36.81670644320547580718994140625</LatitudeDegrees>
              <LongitudeDegrees>-4.3832185305655002593994140625</LongitudeDegrees>
            </Position>
            <AltitudeMeters>753.5999755859375</AltitudeMeters>
            <DistanceMeters>NAN</DistanceMeters>
          </Trackpoint>
          <Trackpoint>
            <Time>2020-12-05T13:34:44.000Z</Time>
            <Position>
              <LatitudeDegrees>36.8167115561664104461669921875</LatitudeDegrees>
              <LongitudeDegrees>-4.3832098133862018585205078125</LongitudeDegrees>
            </Position>
            <AltitudeMeters>753.79998779296875</AltitudeMeters>
            <DistanceMeters>NAN</DistanceMeters>
          </Trackpoint>
          <Trackpoint>
            <Time>2020-12-05T13:34:45.000Z</Time>
            <Position>
              <LatitudeDegrees>36.81671432219445705413818359375</LatitudeDegrees>
              <LongitudeDegrees>-4.3832041136920452117919921875</LongitudeDegrees>
            </Position>
            <AltitudeMeters>753.79998779296875</AltitudeMeters>
            <DistanceMeters>NAN</DistanceMeters>
          </Trackpoint>
          <Trackpoint>
            <Time>2020-12-05T13:34:46.000Z</Time>
            <Position>
              <LatitudeDegrees>36.81671549566090106964111328125</LatitudeDegrees>
              <LongitudeDegrees>-4.38319933600723743438720703125</LongitudeDegrees>
            </Position>
            <AltitudeMeters>754</AltitudeMeters>
            <DistanceMeters>NAN</DistanceMeters>
          </Trackpoint>
          <Trackpoint>
            <Time>2020-12-05T13:34:47.000Z</Time>
            <Position>
              <LatitudeDegrees>36.8167095445096492767333984375</LatitudeDegrees>
              <LongitudeDegrees>-4.3831943906843662261962890625</LongitudeDegrees>
            </Position>
            <AltitudeMeters>754</AltitudeMeters>
            <DistanceMeters>NAN</DistanceMeters>
          </Trackpoint>
          <Trackpoint>
            <Time>2020-12-05T13:34:48.000Z</Time>
            <Position>
              <LatitudeDegrees>36.816710717976093292236328125</LatitudeDegrees>
              <LongitudeDegrees>-4.3831895291805267333984375</LongitudeDegrees>
            </Position>
            <AltitudeMeters>754.20001220703125</AltitudeMeters>
            <DistanceMeters>NAN</DistanceMeters>
          </Trackpoint>
          <Trackpoint>
            <Time>2020-12-05T13:34:49.000Z</Time>
            <Position>
              <LatitudeDegrees>36.81671465747058391571044921875</LatitudeDegrees>
              <LongitudeDegrees>-4.38318676315248012542724609375</LongitudeDegrees>
            </Position>
            <AltitudeMeters>754.4000244140625</AltitudeMeters>
            <DistanceMeters>NAN</DistanceMeters>
          </Trackpoint>
          <Trackpoint>
            <Time>2020-12-05T13:34:50.000Z</Time>
            <Position>
              <LatitudeDegrees>36.81672069244086742401123046875</LatitudeDegrees>
              <LongitudeDegrees>-4.38318424858152866363525390625</LongitudeDegrees>
            </Position>
            <AltitudeMeters>754.79998779296875</AltitudeMeters>
            <DistanceMeters>NAN</DistanceMeters>
          </Trackpoint>
          <Trackpoint>
            <Time>2020-12-05T13:34:51.000Z</Time>
            <Position>
              <LatitudeDegrees>36.8167264759540557861328125</LatitudeDegrees>
              <LongitudeDegrees>-4.38318190164864063262939453125</LongitudeDegrees>
            </Position>
            <AltitudeMeters>754.79998779296875</AltitudeMeters>
            <DistanceMeters>NAN</DistanceMeters>
          </Trackpoint>
          <Trackpoint>
            <Time>2020-12-05T13:34:52.000Z</Time>
            <Position>
              <LatitudeDegrees>36.8167313374578952789306640625</LatitudeDegrees>
              <LongitudeDegrees>-4.38317419029772281646728515625</LongitudeDegrees>
            </Position>
            <AltitudeMeters>755</AltitudeMeters>
            <DistanceMeters>NAN</DistanceMeters>
          </Trackpoint>
          <Trackpoint>
            <Time>2020-12-05T13:34:53.000Z</Time>
            <Position>
              <LatitudeDegrees>36.816734187304973602294921875</LatitudeDegrees>
              <LongitudeDegrees>-4.383163042366504669189453125</LongitudeDegrees>
            </Position>
            <AltitudeMeters>755.20001220703125</AltitudeMeters>
            <DistanceMeters>NAN</DistanceMeters>
          </Trackpoint>
          <Trackpoint>
            <Time>2020-12-05T13:34:54.000Z</Time>
            <Position>
              <LatitudeDegrees>36.81673561222851276397705078125</LatitudeDegrees>
              <LongitudeDegrees>-4.3831511400640010833740234375</LongitudeDegrees>
            </Position>
            <AltitudeMeters>755.20001220703125</AltitudeMeters>
            <DistanceMeters>NAN</DistanceMeters>
          </Trackpoint>
          <Trackpoint>
            <Time>2020-12-05T13:34:55.000Z</Time>
            <Position>
              <LatitudeDegrees>36.8167380429804325103759765625</LatitudeDegrees>
              <LongitudeDegrees>-4.38314116559922695159912109375</LongitudeDegrees>
            </Position>
            <AltitudeMeters>755.20001220703125</AltitudeMeters>
            <DistanceMeters>NAN</DistanceMeters>
          </Trackpoint>
          <Trackpoint>
            <Time>2020-12-05T13:34:56.000Z</Time>
            <Position>
              <LatitudeDegrees>36.8167417310178279876708984375</LatitudeDegrees>
              <LongitudeDegrees>-4.38313077203929424285888671875</LongitudeDegrees>
            </Position>
            <AltitudeMeters>755.4000244140625</AltitudeMeters>
            <DistanceMeters>NAN</DistanceMeters>
          </Trackpoint>
          <Trackpoint>
            <Time>2020-12-05T13:34:57.000Z</Time>
            <Position>
              <LatitudeDegrees>36.81674567051231861114501953125</LatitudeDegrees>
              <LongitudeDegrees>-4.38311937265098094940185546875</LongitudeDegrees>
            </Position>
            <AltitudeMeters>755.4000244140625</AltitudeMeters>
            <DistanceMeters>NAN</DistanceMeters>
          </Trackpoint>
          <Trackpoint>
            <Time>2020-12-05T13:34:58.000Z</Time>
            <Position>
              <LatitudeDegrees>36.8167501129209995269775390625</LatitudeDegrees>
              <LongitudeDegrees>-4.38311032019555568695068359375</LongitudeDegrees>
            </Position>
            <AltitudeMeters>755.4000244140625</AltitudeMeters>
            <DistanceMeters>NAN</DistanceMeters>
          </Trackpoint>
          <Trackpoint>
            <Time>2020-12-05T13:34:59.000Z</Time>
            <Position>
              <LatitudeDegrees>36.81675254367291927337646484375</LatitudeDegrees>
              <LongitudeDegrees>-4.38309875316917896270751953125</LongitudeDegrees>
            </Position>
            <AltitudeMeters>755.4000244140625</AltitudeMeters>
            <DistanceMeters>NAN</DistanceMeters>
          </Trackpoint>
          <Trackpoint>
            <Time>2020-12-05T13:35:00.000Z</Time>
            <Position>
              <LatitudeDegrees>36.8167531304061412811279296875</LatitudeDegrees>
              <LongitudeDegrees>-4.38309087418019771575927734375</LongitudeDegrees>
            </Position>
            <AltitudeMeters>755.4000244140625</AltitudeMeters>
            <DistanceMeters>NAN</DistanceMeters>
          </Trackpoint>
          <Trackpoint>
            <Time>2020-12-05T13:35:01.000Z</Time>
            <Position>
              <LatitudeDegrees>36.81675371713936328887939453125</LatitudeDegrees>
              <LongitudeDegrees>-4.383086264133453369140625</LongitudeDegrees>
            </Position>
            <AltitudeMeters>755.4000244140625</AltitudeMeters>
            <DistanceMeters>NAN</DistanceMeters>
          </Trackpoint>
          <Trackpoint>
            <Time>2020-12-05T13:35:02.000Z</Time>
            <Position>
              <LatitudeDegrees>36.81675489060580730438232421875</LatitudeDegrees>
              <LongitudeDegrees>-4.38308299519121646881103515625</LongitudeDegrees>
            </Position>
            <AltitudeMeters>755.4000244140625</AltitudeMeters>
            <DistanceMeters>NAN</DistanceMeters>
          </Trackpoint>
          <Trackpoint>
            <Time>2020-12-05T13:35:03.000Z</Time>
            <Position>
              <LatitudeDegrees>36.81675639934837818145751953125</LatitudeDegrees>
              <LongitudeDegrees>-4.3830810673534870147705078125</LongitudeDegrees>
            </Position>
            <AltitudeMeters>755.20001220703125</AltitudeMeters>
            <DistanceMeters>NAN</DistanceMeters>
          </Trackpoint>
          <Trackpoint>
            <Time>2020-12-05T13:35:04.000Z</Time>
            <Position>
              <LatitudeDegrees>36.81675606407225131988525390625</LatitudeDegrees>
              <LongitudeDegrees>-4.3830790556967258453369140625</LongitudeDegrees>
            </Position>
            <AltitudeMeters>755.20001220703125</AltitudeMeters>
            <DistanceMeters>NAN</DistanceMeters>
          </Trackpoint>
          <Trackpoint>
            <Time>2020-12-05T13:35:05.000Z</Time>
            <Position>
              <LatitudeDegrees>36.81675271131098270416259765625</LatitudeDegrees>
              <LongitudeDegrees>-4.38307846896350383758544921875</LongitudeDegrees>
            </Position>
            <AltitudeMeters>755.4000244140625</AltitudeMeters>
            <DistanceMeters>NAN</DistanceMeters>
          </Trackpoint>
          <Trackpoint>
            <Time>2020-12-05T13:35:06.000Z</Time>
            <Position>
              <LatitudeDegrees>36.81674860417842864990234375</LatitudeDegrees>
              <LongitudeDegrees>-4.38307796604931354522705078125</LongitudeDegrees>
            </Position>
            <AltitudeMeters>755.4000244140625</AltitudeMeters>
            <DistanceMeters>NAN</DistanceMeters>
          </Trackpoint>
          <Trackpoint>
            <Time>2020-12-05T13:35:07.000Z</Time>
            <Position>
              <LatitudeDegrees>36.8167444132268428802490234375</LatitudeDegrees>
              <LongitudeDegrees>-4.38307763077318668365478515625</LongitudeDegrees>
            </Position>
            <AltitudeMeters>755.4000244140625</AltitudeMeters>
            <DistanceMeters>NAN</DistanceMeters>
          </Trackpoint>
          <Trackpoint>
            <Time>2020-12-05T13:35:08.000Z</Time>
            <Position>
              <LatitudeDegrees>36.81674147956073284149169921875</LatitudeDegrees>
              <LongitudeDegrees>-4.38307478092610836029052734375</LongitudeDegrees>
            </Position>
            <AltitudeMeters>755.5999755859375</AltitudeMeters>
            <DistanceMeters>NAN</DistanceMeters>
          </Trackpoint>
          <Trackpoint>
            <Time>2020-12-05T13:35:09.000Z</Time>
            <Position>
              <LatitudeDegrees>36.8167400546371936798095703125</LatitudeDegrees>
              <LongitudeDegrees>-4.3830706737935543060302734375</LongitudeDegrees>
            </Position>
            <AltitudeMeters>755.5999755859375</AltitudeMeters>
            <DistanceMeters>NAN</DistanceMeters>
          </Trackpoint>
          <Trackpoint>
            <Time>2020-12-05T13:35:10.000Z</Time>
            <Position>
              <LatitudeDegrees>36.8167407251894474029541015625</LatitudeDegrees>
              <LongitudeDegrees>-4.38306706957519054412841796875</LongitudeDegrees>
            </Position>
            <AltitudeMeters>755.5999755859375</AltitudeMeters>
            <DistanceMeters>NAN</DistanceMeters>
          </Trackpoint>
          <Trackpoint>
            <Time>2020-12-05T13:35:11.000Z</Time>
            <Position>
              <LatitudeDegrees>36.81674013845622539520263671875</LatitudeDegrees>
              <LongitudeDegrees>-4.383063800632953643798828125</LongitudeDegrees>
            </Position>
            <AltitudeMeters>755.79998779296875</AltitudeMeters>
            <DistanceMeters>NAN</DistanceMeters>
          </Trackpoint>
          <Trackpoint>
            <Time>2020-12-05T13:35:12.000Z</Time>
            <Position>
              <LatitudeDegrees>36.81673896498978137969970703125</LatitudeDegrees>
              <LongitudeDegrees>-4.383062459528446197509765625</LongitudeDegrees>
            </Position>
            <AltitudeMeters>755.79998779296875</AltitudeMeters>
            <DistanceMeters>NAN</DistanceMeters>
          </Trackpoint>
          <Trackpoint>
            <Time>2020-12-05T13:35:13.000Z</Time>
            <Position>
              <LatitudeDegrees>36.81673561222851276397705078125</LatitudeDegrees>
              <LongitudeDegrees>-4.38306145370006561279296875</LongitudeDegrees>
            </Position>
            <AltitudeMeters>756</AltitudeMeters>
            <DistanceMeters>NAN</DistanceMeters>
          </Trackpoint>
          <Trackpoint>
            <Time>2020-12-05T13:35:14.000Z</Time>
            <Position>
              <LatitudeDegrees>36.81673116981983184814453125</LatitudeDegrees>
              <LongitudeDegrees>-4.38306069932878017425537109375</LongitudeDegrees>
            </Position>
            <AltitudeMeters>756</AltitudeMeters>
            <DistanceMeters>NAN</DistanceMeters>
          </Trackpoint>
          <Trackpoint>
            <Time>2020-12-05T13:35:15.000Z</Time>
            <Position>
              <LatitudeDegrees>36.81672857142984867095947265625</LatitudeDegrees>
              <LongitudeDegrees>-4.38306011259555816650390625</LongitudeDegrees>
            </Position>
            <AltitudeMeters>756.20001220703125</AltitudeMeters>
            <DistanceMeters>NAN</DistanceMeters>
          </Trackpoint>
          <Trackpoint>
            <Time>2020-12-05T13:35:16.000Z</Time>
            <Position>
              <LatitudeDegrees>36.81672739796340465545654296875</LatitudeDegrees>
              <LongitudeDegrees>-4.38305969350039958953857421875</LongitudeDegrees>
            </Position>
            <AltitudeMeters>756.20001220703125</AltitudeMeters>
            <DistanceMeters>NAN</DistanceMeters>
          </Trackpoint>
          <Trackpoint>
            <Time>2020-12-05T13:35:17.000Z</Time>
            <Position>
              <LatitudeDegrees>36.8167283199727535247802734375</LatitudeDegrees>
              <LongitudeDegrees>-4.38305852003395557403564453125</LongitudeDegrees>
            </Position>
            <AltitudeMeters>756.20001220703125</AltitudeMeters>
            <DistanceMeters>NAN</DistanceMeters>
          </Trackpoint>
          <Trackpoint>
            <Time>2020-12-05T13:35:18.000Z</Time>
            <Position>
              <LatitudeDegrees>36.81672873906791210174560546875</LatitudeDegrees>
              <LongitudeDegrees>-4.38305784948170185089111328125</LongitudeDegrees>
            </Position>
            <AltitudeMeters>756.4000244140625</AltitudeMeters>
            <DistanceMeters>NAN</DistanceMeters>
          </Trackpoint>
          <Trackpoint>
            <Time>2020-12-05T13:35:19.000Z</Time>
            <Position>
              <LatitudeDegrees>36.8167313374578952789306640625</LatitudeDegrees>
              <LongitudeDegrees>-4.38305483199656009674072265625</LongitudeDegrees>
            </Position>
            <AltitudeMeters>756.4000244140625</AltitudeMeters>
            <DistanceMeters>NAN</DistanceMeters>
          </Trackpoint>
          <Trackpoint>
            <Time>2020-12-05T13:35:20.000Z</Time>
            <Position>
              <LatitudeDegrees>36.81672806851565837860107421875</LatitudeDegrees>
              <LongitudeDegrees>-4.383050389587879180908203125</LongitudeDegrees>
            </Position>
            <AltitudeMeters>756.4000244140625</AltitudeMeters>
            <DistanceMeters>NAN</DistanceMeters>
          </Trackpoint>
          <Trackpoint>
            <Time>2020-12-05T13:35:21.000Z</Time>
            <Position>
              <LatitudeDegrees>36.81673251092433929443359375</LatitudeDegrees>
              <LongitudeDegrees>-4.383048377931118011474609375</LongitudeDegrees>
            </Position>
            <AltitudeMeters>756.4000244140625</AltitudeMeters>
            <DistanceMeters>NAN</DistanceMeters>
          </Trackpoint>
          <Trackpoint>
            <Time>2020-12-05T13:35:22.000Z</Time>
            <Position>
              <LatitudeDegrees>36.81674432940781116485595703125</LatitudeDegrees>
              <LongitudeDegrees>-4.3830458633601665496826171875</LongitudeDegrees>
            </Position>
            <AltitudeMeters>756.20001220703125</AltitudeMeters>
            <DistanceMeters>NAN</DistanceMeters>
          </Trackpoint>
          <Trackpoint>
            <Time>2020-12-05T13:35:23.000Z</Time>
            <Position>
              <LatitudeDegrees>36.816761009395122528076171875</LatitudeDegrees>
              <LongitudeDegrees>-4.38304628245532512664794921875</LongitudeDegrees>
            </Position>
            <AltitudeMeters>756.20001220703125</AltitudeMeters>
            <DistanceMeters>NAN</DistanceMeters>
          </Trackpoint>
          <Trackpoint>
            <Time>2020-12-05T13:35:24.000Z</Time>
            <Position>
              <LatitudeDegrees>36.816773079335689544677734375</LatitudeDegrees>
              <LongitudeDegrees>-4.383044354617595672607421875</LongitudeDegrees>
            </Position>
            <AltitudeMeters>756.20001220703125</AltitudeMeters>
            <DistanceMeters>NAN</DistanceMeters>
          </Trackpoint>
          <Trackpoint>
            <Time>2020-12-05T13:35:25.000Z</Time>
            <Position>
              <LatitudeDegrees>36.8167863227427005767822265625</LatitudeDegrees>
              <LongitudeDegrees>-4.38304024748504161834716796875</LongitudeDegrees>
            </Position>
            <AltitudeMeters>756.4000244140625</AltitudeMeters>
            <DistanceMeters>NAN</DistanceMeters>
          </Trackpoint>
          <Trackpoint>
            <Time>2020-12-05T13:35:26.000Z</Time>
            <Position>
              <LatitudeDegrees>36.8167990632355213165283203125</LatitudeDegrees>
              <LongitudeDegrees>-4.3830368109047412872314453125</LongitudeDegrees>
            </Position>
            <AltitudeMeters>756.4000244140625</AltitudeMeters>
            <DistanceMeters>NAN</DistanceMeters>
          </Trackpoint>
          <Trackpoint>
            <Time>2020-12-05T13:35:27.000Z</Time>
            <Position>
              <LatitudeDegrees>36.81681121699512004852294921875</LatitudeDegrees>
              <LongitudeDegrees>-4.38303270377218723297119140625</LongitudeDegrees>
            </Position>
            <AltitudeMeters>756.4000244140625</AltitudeMeters>
            <DistanceMeters>NAN</DistanceMeters>
          </Trackpoint>
          <Trackpoint>
            <Time>2020-12-05T13:35:28.000Z</Time>
            <Position>
              <LatitudeDegrees>36.81682077236473560333251953125</LatitudeDegrees>
              <LongitudeDegrees>-4.38302901573479175567626953125</LongitudeDegrees>
            </Position>
            <AltitudeMeters>756.79998779296875</AltitudeMeters>
            <DistanceMeters>NAN</DistanceMeters>
          </Trackpoint>
          <Trackpoint>
            <Time>2020-12-05T13:35:29.000Z</Time>
            <Position>
              <LatitudeDegrees>36.8168315850198268890380859375</LatitudeDegrees>
              <LongitudeDegrees>-4.3830223940312862396240234375</LongitudeDegrees>
            </Position>
            <AltitudeMeters>757</AltitudeMeters>
            <DistanceMeters>NAN</DistanceMeters>
          </Trackpoint>
          <Trackpoint>
            <Time>2020-12-05T13:35:30.000Z</Time>
            <Position>
              <LatitudeDegrees>36.816842146217823028564453125</LatitudeDegrees>
              <LongitudeDegrees>-4.3830156885087490081787109375</LongitudeDegrees>
            </Position>
            <AltitudeMeters>757.4000244140625</AltitudeMeters>
            <DistanceMeters>NAN</DistanceMeters>
          </Trackpoint>
          <Trackpoint>
            <Time>2020-12-05T13:35:31.000Z</Time>
            <Position>
              <LatitudeDegrees>36.8168563954532146453857421875</LatitudeDegrees>
              <LongitudeDegrees>-4.38301057554781436920166015625</LongitudeDegrees>
            </Position>
            <AltitudeMeters>757.4000244140625</AltitudeMeters>
            <DistanceMeters>NAN</DistanceMeters>
          </Trackpoint>
          <Trackpoint>
            <Time>2020-12-05T13:35:32.000Z</Time>
            <Position>
              <LatitudeDegrees>36.81687274016439914703369140625</LatitudeDegrees>
              <LongitudeDegrees>-4.3830093182623386383056640625</LongitudeDegrees>
            </Position>
            <AltitudeMeters>757.5999755859375</AltitudeMeters>
            <DistanceMeters>NAN</DistanceMeters>
          </Trackpoint>
          <Trackpoint>
            <Time>2020-12-05T13:35:33.000Z</Time>
            <Position>
              <LatitudeDegrees>36.81689067743718624114990234375</LatitudeDegrees>
              <LongitudeDegrees>-4.38300923444330692291259765625</LongitudeDegrees>
            </Position>
            <AltitudeMeters>757.5999755859375</AltitudeMeters>
            <DistanceMeters>NAN</DistanceMeters>
          </Trackpoint>
          <Trackpoint>
            <Time>2020-12-05T13:35:34.000Z</Time>
            <Position>
              <LatitudeDegrees>36.8169073574244976043701171875</LatitudeDegrees>
              <LongitudeDegrees>-4.3830150179564952850341796875</LongitudeDegrees>
            </Position>
            <AltitudeMeters>757.79998779296875</AltitudeMeters>
            <DistanceMeters>NAN</DistanceMeters>
          </Trackpoint>
          <Trackpoint>
            <Time>2020-12-05T13:35:35.000Z</Time>
            <Position>
              <LatitudeDegrees>36.81692562997341156005859375</LatitudeDegrees>
              <LongitudeDegrees>-4.38301560468971729278564453125</LongitudeDegrees>
            </Position>
            <AltitudeMeters>757.5999755859375</AltitudeMeters>
            <DistanceMeters>NAN</DistanceMeters>
          </Trackpoint>
          <Trackpoint>
            <Time>2020-12-05T13:35:36.000Z</Time>
            <Position>
              <LatitudeDegrees>36.81694314815104007720947265625</LatitudeDegrees>
              <LongitudeDegrees>-4.383014179766178131103515625</LongitudeDegrees>
            </Position>
            <AltitudeMeters>757.79998779296875</AltitudeMeters>
            <DistanceMeters>NAN</DistanceMeters>
          </Trackpoint>
          <Trackpoint>
            <Time>2020-12-05T13:35:37.000Z</Time>
            <Position>
              <LatitudeDegrees>36.8169549666345119476318359375</LatitudeDegrees>
              <LongitudeDegrees>-4.383017532527446746826171875</LongitudeDegrees>
            </Position>
            <AltitudeMeters>757.79998779296875</AltitudeMeters>
            <DistanceMeters>NAN</DistanceMeters>
          </Trackpoint>
          <Trackpoint>
            <Time>2020-12-05T13:35:38.000Z</Time>
            <Position>
              <LatitudeDegrees>36.81696494109928607940673828125</LatitudeDegrees>
              <LongitudeDegrees>-4.3830247409641742706298828125</LongitudeDegrees>
            </Position>
            <AltitudeMeters>757.79998779296875</AltitudeMeters>
            <DistanceMeters>NAN</DistanceMeters>
          </Trackpoint>
          <Trackpoint>
            <Time>2020-12-05T13:35:39.000Z</Time>
            <Position>
              <LatitudeDegrees>36.8169757537543773651123046875</LatitudeDegrees>
              <LongitudeDegrees>-4.38303404487669467926025390625</LongitudeDegrees>
            </Position>
            <AltitudeMeters>758</AltitudeMeters>
            <DistanceMeters>NAN</DistanceMeters>
          </Trackpoint>
          <Trackpoint>
            <Time>2020-12-05T13:35:40.000Z</Time>
            <Position>
              <LatitudeDegrees>36.81698522530496120452880859375</LatitudeDegrees>
              <LongitudeDegrees>-4.383044354617595672607421875</LongitudeDegrees>
            </Position>
            <AltitudeMeters>758</AltitudeMeters>
            <DistanceMeters>NAN</DistanceMeters>
          </Trackpoint>
          <Trackpoint>
            <Time>2020-12-05T13:35:41.000Z</Time>
            <Position>
              <LatitudeDegrees>36.8169938586652278900146484375</LatitudeDegrees>
              <LongitudeDegrees>-4.38305667601525783538818359375</LongitudeDegrees>
            </Position>
            <AltitudeMeters>758.20001220703125</AltitudeMeters>
            <DistanceMeters>NAN</DistanceMeters>
          </Trackpoint>
          <Trackpoint>
            <Time>2020-12-05T13:35:42.000Z</Time>
            <Position>
              <LatitudeDegrees>36.81700165383517742156982421875</LatitudeDegrees>
              <LongitudeDegrees>-4.383064471185207366943359375</LongitudeDegrees>
            </Position>
            <AltitudeMeters>758.20001220703125</AltitudeMeters>
            <DistanceMeters>NAN</DistanceMeters>
          </Trackpoint>
          <Trackpoint>
            <Time>2020-12-05T13:35:43.000Z</Time>
            <Position>
              <LatitudeDegrees>36.81700902990996837615966796875</LatitudeDegrees>
              <LongitudeDegrees>-4.3830743618309497833251953125</LongitudeDegrees>
            </Position>
            <AltitudeMeters>758.4000244140625</AltitudeMeters>
            <DistanceMeters>NAN</DistanceMeters>
          </Trackpoint>
          <Trackpoint>
            <Time>2020-12-05T13:35:44.000Z</Time>
            <Position>
              <LatitudeDegrees>36.8170176632702350616455078125</LatitudeDegrees>
              <LongitudeDegrees>-4.38308433629572391510009765625</LongitudeDegrees>
            </Position>
            <AltitudeMeters>758.5999755859375</AltitudeMeters>
            <DistanceMeters>NAN</DistanceMeters>
          </Trackpoint>
          <Trackpoint>
            <Time>2020-12-05T13:35:45.000Z</Time>
            <Position>
              <LatitudeDegrees>36.81702545844018459320068359375</LatitudeDegrees>
              <LongitudeDegrees>-4.38308819197118282318115234375</LongitudeDegrees>
            </Position>
            <AltitudeMeters>758.79998779296875</AltitudeMeters>
            <DistanceMeters>NAN</DistanceMeters>
          </Trackpoint>
          <Trackpoint>
            <Time>2020-12-05T13:35:46.000Z</Time>
            <Position>
              <LatitudeDegrees>36.817033253610134124755859375</LatitudeDegrees>
              <LongitudeDegrees>-4.3830941431224346160888671875</LongitudeDegrees>
            </Position>
            <AltitudeMeters>759</AltitudeMeters>
            <DistanceMeters>NAN</DistanceMeters>
          </Trackpoint>
          <Trackpoint>
            <Time>2020-12-05T13:35:47.000Z</Time>
            <Position>
              <LatitudeDegrees>36.81703970767557621002197265625</LatitudeDegrees>
              <LongitudeDegrees>-4.3830978311598300933837890625</LongitudeDegrees>
            </Position>
            <AltitudeMeters>759.20001220703125</AltitudeMeters>
            <DistanceMeters>NAN</DistanceMeters>
          </Trackpoint>
          <Trackpoint>
            <Time>2020-12-05T13:35:48.000Z</Time>
            <Position>
              <LatitudeDegrees>36.8170461617410182952880859375</LatitudeDegrees>
              <LongitudeDegrees>-4.3831018544733524322509765625</LongitudeDegrees>
            </Position>
            <AltitudeMeters>759.4000244140625</AltitudeMeters>
            <DistanceMeters>NAN</DistanceMeters>
          </Trackpoint>
          <Trackpoint>
            <Time>2020-12-05T13:35:49.000Z</Time>
            <Position>
              <LatitudeDegrees>36.817052364349365234375</LatitudeDegrees>
              <LongitudeDegrees>-4.3831031955778598785400390625</LongitudeDegrees>
            </Position>
            <AltitudeMeters>759.79998779296875</AltitudeMeters>
            <DistanceMeters>NAN</DistanceMeters>
          </Trackpoint>
          <Trackpoint>
            <Time>2020-12-05T13:35:50.000Z</Time>
            <Position>
              <LatitudeDegrees>36.8170578964054584503173828125</LatitudeDegrees>
              <LongitudeDegrees>-4.3831092305481433868408203125</LongitudeDegrees>
            </Position>
            <AltitudeMeters>760</AltitudeMeters>
            <DistanceMeters>NAN</DistanceMeters>
          </Trackpoint>
          <Trackpoint>
            <Time>2020-12-05T13:35:51.000Z</Time>
            <Position>
              <LatitudeDegrees>36.81706510484218597412109375</LatitudeDegrees>
              <LongitudeDegrees>-4.38311652280390262603759765625</LongitudeDegrees>
            </Position>
            <AltitudeMeters>760.4000244140625</AltitudeMeters>
            <DistanceMeters>NAN</DistanceMeters>
          </Trackpoint>
          <Trackpoint>
            <Time>2020-12-05T13:35:52.000Z</Time>
            <Position>
              <LatitudeDegrees>36.81707072071731090545654296875</LatitudeDegrees>
              <LongitudeDegrees>-4.38312725163996219635009765625</LongitudeDegrees>
            </Position>
            <AltitudeMeters>761</AltitudeMeters>
            <DistanceMeters>NAN</DistanceMeters>
          </Trackpoint>
          <Trackpoint>
            <Time>2020-12-05T13:35:53.000Z</Time>
            <Position>
              <LatitudeDegrees>36.81707658804953098297119140625</LatitudeDegrees>
              <LongitudeDegrees>-4.3831394053995609283447265625</LongitudeDegrees>
            </Position>
            <AltitudeMeters>761.5999755859375</AltitudeMeters>
            <DistanceMeters>NAN</DistanceMeters>
          </Trackpoint>
          <Trackpoint>
            <Time>2020-12-05T13:35:54.000Z</Time>
            <Position>
              <LatitudeDegrees>36.8170817010104656219482421875</LatitudeDegrees>
              <LongitudeDegrees>-4.38315172679722309112548828125</LongitudeDegrees>
            </Position>
            <AltitudeMeters>762.4000244140625</AltitudeMeters>
            <DistanceMeters>NAN</DistanceMeters>
          </Trackpoint>
          <Trackpoint>
            <Time>2020-12-05T13:35:55.000Z</Time>
            <Position>
              <LatitudeDegrees>36.81708564050495624542236328125</LatitudeDegrees>
              <LongitudeDegrees>-4.38316329382359981536865234375</LongitudeDegrees>
            </Position>
            <AltitudeMeters>763</AltitudeMeters>
            <DistanceMeters>NAN</DistanceMeters>
          </Trackpoint>
          <Trackpoint>
            <Time>2020-12-05T13:35:56.000Z</Time>
            <Position>
              <LatitudeDegrees>36.81709016673266887664794921875</LatitudeDegrees>
              <LongitudeDegrees>-4.383174441754817962646484375</LongitudeDegrees>
            </Position>
            <AltitudeMeters>763.4000244140625</AltitudeMeters>
            <DistanceMeters>NAN</DistanceMeters>
          </Trackpoint>
          <Trackpoint>
            <Time>2020-12-05T13:35:57.000Z</Time>
            <Position>
              <LatitudeDegrees>36.817090250551700592041015625</LatitudeDegrees>
              <LongitudeDegrees>-4.38318743370473384857177734375</LongitudeDegrees>
            </Position>
            <AltitudeMeters>763.5999755859375</AltitudeMeters>
            <DistanceMeters>NAN</DistanceMeters>
          </Trackpoint>
          <Trackpoint>
            <Time>2020-12-05T13:35:58.000Z</Time>
            <Position>
              <LatitudeDegrees>36.81709838099777698516845703125</LatitudeDegrees>
              <LongitudeDegrees>-4.3831873498857021331787109375</LongitudeDegrees>
            </Position>
            <AltitudeMeters>763.5999755859375</AltitudeMeters>
            <DistanceMeters>NAN</DistanceMeters>
          </Trackpoint>
          <Trackpoint>
            <Time>2020-12-05T13:35:59.000Z</Time>
            <Position>
              <LatitudeDegrees>36.81710558943450450897216796875</LatitudeDegrees>
              <LongitudeDegrees>-4.3831930495798587799072265625</LongitudeDegrees>
            </Position>
            <AltitudeMeters>763.5999755859375</AltitudeMeters>
            <DistanceMeters>NAN</DistanceMeters>
          </Trackpoint>
          <Trackpoint>
            <Time>2020-12-05T13:36:00.000Z</Time>
            <Position>
              <LatitudeDegrees>36.81710944510996341705322265625</LatitudeDegrees>
              <LongitudeDegrees>-4.38320000655949115753173828125</LongitudeDegrees>
            </Position>
            <AltitudeMeters>763.5999755859375</AltitudeMeters>
            <DistanceMeters>NAN</DistanceMeters>
          </Trackpoint>
          <Trackpoint>
            <Time>2020-12-05T13:36:01.000Z</Time>
            <Position>
              <LatitudeDegrees>36.817114055156707763671875</LatitudeDegrees>
              <LongitudeDegrees>-4.38320570625364780426025390625</LongitudeDegrees>
            </Position>
            <AltitudeMeters>763.5999755859375</AltitudeMeters>
            <DistanceMeters>NAN</DistanceMeters>
          </Trackpoint>
          <Trackpoint>
            <Time>2020-12-05T13:36:02.000Z</Time>
            <Position>
              <LatitudeDegrees>36.81711832992732524871826171875</LatitudeDegrees>
              <LongitudeDegrees>-4.38320956192910671234130859375</LongitudeDegrees>
            </Position>
            <AltitudeMeters>763.5999755859375</AltitudeMeters>
            <DistanceMeters>NAN</DistanceMeters>
          </Trackpoint>
          <Trackpoint>
            <Time>2020-12-05T13:36:03.000Z</Time>
            <Position>
              <LatitudeDegrees>36.81712168268859386444091796875</LatitudeDegrees>
              <LongitudeDegrees>-4.38321090303361415863037109375</LongitudeDegrees>
            </Position>
            <AltitudeMeters>763.4000244140625</AltitudeMeters>
            <DistanceMeters>NAN</DistanceMeters>
          </Trackpoint>
          <Trackpoint>
            <Time>2020-12-05T13:36:04.000Z</Time>
            <Position>
              <LatitudeDegrees>36.8171242810785770416259765625</LatitudeDegrees>
              <LongitudeDegrees>-4.3832136690616607666015625</LongitudeDegrees>
            </Position>
            <AltitudeMeters>763.4000244140625</AltitudeMeters>
            <DistanceMeters>NAN</DistanceMeters>
          </Trackpoint>
          <Trackpoint>
            <Time>2020-12-05T13:36:05.000Z</Time>
            <Position>
              <LatitudeDegrees>36.81712738238275051116943359375</LatitudeDegrees>
              <LongitudeDegrees>-4.3832148425281047821044921875</LongitudeDegrees>
            </Position>
            <AltitudeMeters>763.20001220703125</AltitudeMeters>
            <DistanceMeters>NAN</DistanceMeters>
          </Trackpoint>
          <Trackpoint>
            <Time>2020-12-05T13:36:06.000Z</Time>
            <Position>
              <LatitudeDegrees>36.817131154239177703857421875</LatitudeDegrees>
              <LongitudeDegrees>-4.38321836292743682861328125</LongitudeDegrees>
            </Position>
            <AltitudeMeters>763.20001220703125</AltitudeMeters>
            <DistanceMeters>NAN</DistanceMeters>
          </Trackpoint>
          <Trackpoint>
            <Time>2020-12-05T13:36:07.000Z</Time>
            <Position>
              <LatitudeDegrees>36.8171350099146366119384765625</LatitudeDegrees>
              <LongitudeDegrees>-4.38322372734546661376953125</LongitudeDegrees>
            </Position>
            <AltitudeMeters>763</AltitudeMeters>
            <DistanceMeters>NAN</DistanceMeters>
          </Trackpoint>
          <Trackpoint>
            <Time>2020-12-05T13:36:08.000Z</Time>
            <Position>
              <LatitudeDegrees>36.8171386979520320892333984375</LatitudeDegrees>
              <LongitudeDegrees>-4.3832376413047313690185546875</LongitudeDegrees>
            </Position>
            <AltitudeMeters>762.79998779296875</AltitudeMeters>
            <DistanceMeters>NAN</DistanceMeters>
          </Trackpoint>
          <Trackpoint>
            <Time>2020-12-05T13:36:09.000Z</Time>
            <Position>
              <LatitudeDegrees>36.81714314036071300506591796875</LatitudeDegrees>
              <LongitudeDegrees>-4.38325415365397930145263671875</LongitudeDegrees>
            </Position>
            <AltitudeMeters>762.5999755859375</AltitudeMeters>
            <DistanceMeters>NAN</DistanceMeters>
          </Trackpoint>
          <Trackpoint>
            <Time>2020-12-05T13:36:10.000Z</Time>
            <Position>
              <LatitudeDegrees>36.81714984588325023651123046875</LatitudeDegrees>
              <LongitudeDegrees>-4.38327066600322723388671875</LongitudeDegrees>
            </Position>
            <AltitudeMeters>762.5999755859375</AltitudeMeters>
            <DistanceMeters>NAN</DistanceMeters>
          </Trackpoint>
          <Trackpoint>
            <Time>2020-12-05T13:36:11.000Z</Time>
            <Position>
              <LatitudeDegrees>36.81715554557740688323974609375</LatitudeDegrees>
              <LongitudeDegrees>-4.38328768126666545867919921875</LongitudeDegrees>
            </Position>
            <AltitudeMeters>762.5999755859375</AltitudeMeters>
            <DistanceMeters>NAN</DistanceMeters>
          </Trackpoint>
          <Trackpoint>
            <Time>2020-12-05T13:36:12.000Z</Time>
            <Position>
              <LatitudeDegrees>36.81716191582381725311279296875</LatitudeDegrees>
              <LongitudeDegrees>-4.38329723663628101348876953125</LongitudeDegrees>
            </Position>
            <AltitudeMeters>762.5999755859375</AltitudeMeters>
            <DistanceMeters>NAN</DistanceMeters>
          </Trackpoint>
          <Trackpoint>
            <Time>2020-12-05T13:36:13.000Z</Time>
            <Position>
              <LatitudeDegrees>36.8171692080795764923095703125</LatitudeDegrees>
              <LongitudeDegrees>-4.383309222757816314697265625</LongitudeDegrees>
            </Position>
            <AltitudeMeters>762.5999755859375</AltitudeMeters>
            <DistanceMeters>NAN</DistanceMeters>
          </Trackpoint>
          <Trackpoint>
            <Time>2020-12-05T13:36:14.000Z</Time>
            <Position>
              <LatitudeDegrees>36.81717448867857456207275390625</LatitudeDegrees>
              <LongitudeDegrees>-4.383322298526763916015625</LongitudeDegrees>
            </Position>
            <AltitudeMeters>762.5999755859375</AltitudeMeters>
            <DistanceMeters>NAN</DistanceMeters>
          </Trackpoint>
          <Trackpoint>
            <Time>2020-12-05T13:36:15.000Z</Time>
            <Position>
              <LatitudeDegrees>36.817177422344684600830078125</LatitudeDegrees>
              <LongitudeDegrees>-4.38333277590572834014892578125</LongitudeDegrees>
            </Position>
            <AltitudeMeters>762.5999755859375</AltitudeMeters>
            <DistanceMeters>NAN</DistanceMeters>
          </Trackpoint>
          <Trackpoint>
            <Time>2020-12-05T13:36:16.000Z</Time>
            <Position>
              <LatitudeDegrees>36.81718253530561923980712890625</LatitudeDegrees>
              <LongitudeDegrees>-4.38334350474178791046142578125</LongitudeDegrees>
            </Position>
            <AltitudeMeters>762.5999755859375</AltitudeMeters>
            <DistanceMeters>NAN</DistanceMeters>
          </Trackpoint>
          <Trackpoint>
            <Time>2020-12-05T13:36:17.000Z</Time>
            <Position>
              <LatitudeDegrees>36.81719024665653705596923828125</LatitudeDegrees>
              <LongitudeDegrees>-4.38335725106298923492431640625</LongitudeDegrees>
            </Position>
            <AltitudeMeters>762.5999755859375</AltitudeMeters>
            <DistanceMeters>NAN</DistanceMeters>
          </Trackpoint>
          <Trackpoint>
            <Time>2020-12-05T13:36:18.000Z</Time>
            <Position>
              <LatitudeDegrees>36.81719787418842315673828125</LatitudeDegrees>
              <LongitudeDegrees>-4.38336932100355625152587890625</LongitudeDegrees>
            </Position>
            <AltitudeMeters>762.5999755859375</AltitudeMeters>
            <DistanceMeters>NAN</DistanceMeters>
          </Trackpoint>
          <Trackpoint>
            <Time>2020-12-05T13:36:19.000Z</Time>
            <Position>
              <LatitudeDegrees>36.81720600463449954986572265625</LatitudeDegrees>
              <LongitudeDegrees>-4.38338072039186954498291015625</LongitudeDegrees>
            </Position>
            <AltitudeMeters>762.5999755859375</AltitudeMeters>
            <DistanceMeters>NAN</DistanceMeters>
          </Trackpoint>
          <Trackpoint>
            <Time>2020-12-05T13:36:20.000Z</Time>
            <Position>
              <LatitudeDegrees>36.81721371598541736602783203125</LatitudeDegrees>
              <LongitudeDegrees>-4.38339195214211940765380859375</LongitudeDegrees>
            </Position>
            <AltitudeMeters>762.79998779296875</AltitudeMeters>
            <DistanceMeters>NAN</DistanceMeters>
          </Trackpoint>
          <Trackpoint>
            <Time>2020-12-05T13:36:21.000Z</Time>
            <Position>
              <LatitudeDegrees>36.81721840985119342803955078125</LatitudeDegrees>
              <LongitudeDegrees>-4.38339932821691036224365234375</LongitudeDegrees>
            </Position>
            <AltitudeMeters>762.79998779296875</AltitudeMeters>
            <DistanceMeters>NAN</DistanceMeters>
          </Trackpoint>
          <Trackpoint>
            <Time>2020-12-05T13:36:22.000Z</Time>
            <Position>
              <LatitudeDegrees>36.81722201406955718994140625</LatitudeDegrees>
              <LongitudeDegrees>-4.3834109790623188018798828125</LongitudeDegrees>
            </Position>
            <AltitudeMeters>762.79998779296875</AltitudeMeters>
            <DistanceMeters>NAN</DistanceMeters>
          </Trackpoint>
          <Trackpoint>
            <Time>2020-12-05T13:36:23.000Z</Time>
            <Position>
              <LatitudeDegrees>36.81722645647823810577392578125</LatitudeDegrees>
              <LongitudeDegrees>-4.38343226909637451171875</LongitudeDegrees>
            </Position>
            <AltitudeMeters>762.79998779296875</AltitudeMeters>
            <DistanceMeters>NAN</DistanceMeters>
          </Trackpoint>
          <Trackpoint>
            <Time>2020-12-05T13:36:24.000Z</Time>
            <Position>
              <LatitudeDegrees>36.81723014451563358306884765625</LatitudeDegrees>
              <LongitudeDegrees>-4.3834428302943706512451171875</LongitudeDegrees>
            </Position>
            <AltitudeMeters>763</AltitudeMeters>
            <DistanceMeters>NAN</DistanceMeters>
          </Trackpoint>
          <Trackpoint>
            <Time>2020-12-05T13:36:25.000Z</Time>
            <Position>
              <LatitudeDegrees>36.81723316200077533721923828125</LatitudeDegrees>
              <LongitudeDegrees>-4.3834505416452884674072265625</LongitudeDegrees>
            </Position>
            <AltitudeMeters>763</AltitudeMeters>
            <DistanceMeters>NAN</DistanceMeters>
          </Trackpoint>
          <Trackpoint>
            <Time>2020-12-05T13:36:26.000Z</Time>
            <Position>
              <LatitudeDegrees>36.8172379396855831146240234375</LatitudeDegrees>
              <LongitudeDegrees>-4.38345573842525482177734375</LongitudeDegrees>
            </Position>
            <AltitudeMeters>763.20001220703125</AltitudeMeters>
            <DistanceMeters>NAN</DistanceMeters>
          </Trackpoint>
          <Trackpoint>
            <Time>2020-12-05T13:36:27.000Z</Time>
            <Position>
              <LatitudeDegrees>36.8172412924468517303466796875</LatitudeDegrees>
              <LongitudeDegrees>-4.38346512615680694580078125</LongitudeDegrees>
            </Position>
            <AltitudeMeters>763.4000244140625</AltitudeMeters>
            <DistanceMeters>NAN</DistanceMeters>
          </Trackpoint>
          <Trackpoint>
            <Time>2020-12-05T13:36:28.000Z</Time>
            <Position>
              <LatitudeDegrees>36.81724439375102519989013671875</LatitudeDegrees>
              <LongitudeDegrees>-4.38347853720188140869140625</LongitudeDegrees>
            </Position>
            <AltitudeMeters>763.5999755859375</AltitudeMeters>
            <DistanceMeters>NAN</DistanceMeters>
          </Trackpoint>
          <Trackpoint>
            <Time>2020-12-05T13:36:29.000Z</Time>
            <Position>
              <LatitudeDegrees>36.817248500883579254150390625</LatitudeDegrees>
              <LongitudeDegrees>-4.38349731266498565673828125</LongitudeDegrees>
            </Position>
            <AltitudeMeters>763.79998779296875</AltitudeMeters>
            <DistanceMeters>NAN</DistanceMeters>
          </Trackpoint>
          <Trackpoint>
            <Time>2020-12-05T13:36:30.000Z</Time>
            <Position>
              <LatitudeDegrees>36.81725294329226016998291015625</LatitudeDegrees>
              <LongitudeDegrees>-4.38351650722324848175048828125</LongitudeDegrees>
            </Position>
            <AltitudeMeters>764.20001220703125</AltitudeMeters>
            <DistanceMeters>NAN</DistanceMeters>
          </Trackpoint>
          <Trackpoint>
            <Time>2020-12-05T13:36:31.000Z</Time>
            <Position>
              <LatitudeDegrees>36.8172562122344970703125</LatitudeDegrees>
              <LongitudeDegrees>-4.3835341930389404296875</LongitudeDegrees>
            </Position>
            <AltitudeMeters>764.4000244140625</AltitudeMeters>
            <DistanceMeters>NAN</DistanceMeters>
          </Trackpoint>
          <Trackpoint>
            <Time>2020-12-05T13:36:32.000Z</Time>
            <Position>
              <LatitudeDegrees>36.8172620795667171478271484375</LatitudeDegrees>
              <LongitudeDegrees>-4.3835491128265857696533203125</LongitudeDegrees>
            </Position>
            <AltitudeMeters>764.4000244140625</AltitudeMeters>
            <DistanceMeters>NAN</DistanceMeters>
          </Trackpoint>
          <Trackpoint>
            <Time>2020-12-05T13:36:33.000Z</Time>
            <Position>
              <LatitudeDegrees>36.81727155111730098724365234375</LatitudeDegrees>
              <LongitudeDegrees>-4.38355791382491588592529296875</LongitudeDegrees>
            </Position>
            <AltitudeMeters>764.5999755859375</AltitudeMeters>
            <DistanceMeters>NAN</DistanceMeters>
          </Trackpoint>
          <Trackpoint>
            <Time>2020-12-05T13:36:34.000Z</Time>
            <Position>
              <LatitudeDegrees>36.8172795139253139495849609375</LatitudeDegrees>
              <LongitudeDegrees>-4.38356378115713596343994140625</LongitudeDegrees>
            </Position>
            <AltitudeMeters>764.79998779296875</AltitudeMeters>
            <DistanceMeters>NAN</DistanceMeters>
          </Trackpoint>
          <Trackpoint>
            <Time>2020-12-05T13:36:35.000Z</Time>
            <Position>
              <LatitudeDegrees>36.81728680618107318878173828125</LatitudeDegrees>
              <LongitudeDegrees>-4.383570738136768341064453125</LongitudeDegrees>
            </Position>
            <AltitudeMeters>765</AltitudeMeters>
            <DistanceMeters>NAN</DistanceMeters>
          </Trackpoint>
          <Trackpoint>
            <Time>2020-12-05T13:36:36.000Z</Time>
            <Position>
              <LatitudeDegrees>36.81729577481746673583984375</LatitudeDegrees>
              <LongitudeDegrees>-4.38357702456414699554443359375</LongitudeDegrees>
            </Position>
            <AltitudeMeters>765.4000244140625</AltitudeMeters>
            <DistanceMeters>NAN</DistanceMeters>
          </Trackpoint>
          <Trackpoint>
            <Time>2020-12-05T13:36:37.000Z</Time>
            <Position>
              <LatitudeDegrees>36.81730608455836772918701171875</LatitudeDegrees>
              <LongitudeDegrees>-4.38358255662024021148681640625</LongitudeDegrees>
            </Position>
            <AltitudeMeters>765.5999755859375</AltitudeMeters>
            <DistanceMeters>NAN</DistanceMeters>
          </Trackpoint>
          <Trackpoint>
            <Time>2020-12-05T13:36:38.000Z</Time>
            <Position>
              <LatitudeDegrees>36.81731631048023700714111328125</LatitudeDegrees>
              <LongitudeDegrees>-4.38358808867633342742919921875</LongitudeDegrees>
            </Position>
            <AltitudeMeters>765.79998779296875</AltitudeMeters>
            <DistanceMeters>NAN</DistanceMeters>
          </Trackpoint>
          <Trackpoint>
            <Time>2020-12-05T13:36:39.000Z</Time>
            <Position>
              <LatitudeDegrees>36.817327626049518585205078125</LatitudeDegrees>
              <LongitudeDegrees>-4.383595548570156097412109375</LongitudeDegrees>
            </Position>
            <AltitudeMeters>766</AltitudeMeters>
            <DistanceMeters>NAN</DistanceMeters>
          </Trackpoint>
          <Trackpoint>
            <Time>2020-12-05T13:36:40.000Z</Time>
            <Position>
              <LatitudeDegrees>36.8173388577997684478759765625</LatitudeDegrees>
              <LongitudeDegrees>-4.38360149972140789031982421875</LongitudeDegrees>
            </Position>
            <AltitudeMeters>766.20001220703125</AltitudeMeters>
            <DistanceMeters>NAN</DistanceMeters>
          </Trackpoint>
          <Trackpoint>
            <Time>2020-12-05T13:36:41.000Z</Time>
            <Position>
              <LatitudeDegrees>36.81734941899776458740234375</LatitudeDegrees>
              <LongitudeDegrees>-4.3836091272532939910888671875</LongitudeDegrees>
            </Position>
            <AltitudeMeters>766.4000244140625</AltitudeMeters>
            <DistanceMeters>NAN</DistanceMeters>
          </Trackpoint>
          <Trackpoint>
            <Time>2020-12-05T13:36:42.000Z</Time>
            <Position>
              <LatitudeDegrees>36.81736190803349018096923828125</LatitudeDegrees>
              <LongitudeDegrees>-4.38361591659486293792724609375</LongitudeDegrees>
            </Position>
            <AltitudeMeters>766.5999755859375</AltitudeMeters>
            <DistanceMeters>NAN</DistanceMeters>
          </Trackpoint>
          <Trackpoint>
            <Time>2020-12-05T13:36:43.000Z</Time>
            <Position>
              <LatitudeDegrees>36.81737624108791351318359375</LatitudeDegrees>
              <LongitudeDegrees>-4.3836191855370998382568359375</LongitudeDegrees>
            </Position>
            <AltitudeMeters>766.79998779296875</AltitudeMeters>
            <DistanceMeters>NAN</DistanceMeters>
          </Trackpoint>
          <Trackpoint>
            <Time>2020-12-05T13:36:44.000Z</Time>
            <Position>
              <LatitudeDegrees>36.817387975752353668212890625</LatitudeDegrees>
              <LongitudeDegrees>-4.38362731598317623138427734375</LongitudeDegrees>
            </Position>
            <AltitudeMeters>767</AltitudeMeters>
            <DistanceMeters>NAN</DistanceMeters>
          </Trackpoint>
          <Trackpoint>
            <Time>2020-12-05T13:36:45.000Z</Time>
            <Position>
              <LatitudeDegrees>36.81739912368357181549072265625</LatitudeDegrees>
              <LongitudeDegrees>-4.3836342729628086090087890625</LongitudeDegrees>
            </Position>
            <AltitudeMeters>767.4000244140625</AltitudeMeters>
            <DistanceMeters>NAN</DistanceMeters>
          </Trackpoint>
          <Trackpoint>
            <Time>2020-12-05T13:36:46.000Z</Time>
            <Position>
              <LatitudeDegrees>36.81741052307188510894775390625</LatitudeDegrees>
              <LongitudeDegrees>-4.38364072702825069427490234375</LongitudeDegrees>
            </Position>
            <AltitudeMeters>767.5999755859375</AltitudeMeters>
            <DistanceMeters>NAN</DistanceMeters>
          </Trackpoint>
          <Trackpoint>
            <Time>2020-12-05T13:36:47.000Z</Time>
            <Position>
              <LatitudeDegrees>36.817420162260532379150390625</LatitudeDegrees>
              <LongitudeDegrees>-4.38364525325596332550048828125</LongitudeDegrees>
            </Position>
            <AltitudeMeters>767.79998779296875</AltitudeMeters>
            <DistanceMeters>NAN</DistanceMeters>
          </Trackpoint>
          <Trackpoint>
            <Time>2020-12-05T13:36:48.000Z</Time>
            <Position>
              <LatitudeDegrees>36.8174283765256404876708984375</LatitudeDegrees>
              <LongitudeDegrees>-4.3836460076272487640380859375</LongitudeDegrees>
            </Position>
            <AltitudeMeters>768</AltitudeMeters>
            <DistanceMeters>NAN</DistanceMeters>
          </Trackpoint>
          <Trackpoint>
            <Time>2020-12-05T13:36:49.000Z</Time>
            <Position>
              <LatitudeDegrees>36.817437596619129180908203125</LatitudeDegrees>
              <LongitudeDegrees>-4.38364575617015361785888671875</LongitudeDegrees>
            </Position>
            <AltitudeMeters>768.20001220703125</AltitudeMeters>
            <DistanceMeters>NAN</DistanceMeters>
          </Trackpoint>
          <Trackpoint>
            <Time>2020-12-05T13:36:50.000Z</Time>
            <Position>
              <LatitudeDegrees>36.81744891218841075897216796875</LatitudeDegrees>
              <LongitudeDegrees>-4.3836523778736591339111328125</LongitudeDegrees>
            </Position>
            <AltitudeMeters>768.5999755859375</AltitudeMeters>
            <DistanceMeters>NAN</DistanceMeters>
          </Trackpoint>
          <Trackpoint>
            <Time>2020-12-05T13:36:51.000Z</Time>
            <Position>
              <LatitudeDegrees>36.8174619041383266448974609375</LatitudeDegrees>
              <LongitudeDegrees>-4.38365145586431026458740234375</LongitudeDegrees>
            </Position>
            <AltitudeMeters>768.79998779296875</AltitudeMeters>
            <DistanceMeters>NAN</DistanceMeters>
          </Trackpoint>
          <Trackpoint>
            <Time>2020-12-05T13:36:52.000Z</Time>
            <Position>
              <LatitudeDegrees>36.81747254915535449981689453125</LatitudeDegrees>
              <LongitudeDegrees>-4.383648522198200225830078125</LongitudeDegrees>
            </Position>
            <AltitudeMeters>769.20001220703125</AltitudeMeters>
            <DistanceMeters>NAN</DistanceMeters>
          </Trackpoint>
          <Trackpoint>
            <Time>2020-12-05T13:36:53.000Z</Time>
            <Position>
              <LatitudeDegrees>36.8174843676388263702392578125</LatitudeDegrees>
              <LongitudeDegrees>-4.38364357687532901763916015625</LongitudeDegrees>
            </Position>
            <AltitudeMeters>769.20001220703125</AltitudeMeters>
            <DistanceMeters>NAN</DistanceMeters>
          </Trackpoint>
          <Trackpoint>
            <Time>2020-12-05T13:36:54.000Z</Time>
            <Position>
              <LatitudeDegrees>36.81749350391328334808349609375</LatitudeDegrees>
              <LongitudeDegrees>-4.38363812863826751708984375</LongitudeDegrees>
            </Position>
            <AltitudeMeters>769.4000244140625</AltitudeMeters>
            <DistanceMeters>NAN</DistanceMeters>
          </Trackpoint>
          <Trackpoint>
            <Time>2020-12-05T13:36:55.000Z</Time>
            <Position>
              <LatitudeDegrees>36.81750507093966007232666015625</LatitudeDegrees>
              <LongitudeDegrees>-4.3836325965821743011474609375</LongitudeDegrees>
            </Position>
            <AltitudeMeters>769.4000244140625</AltitudeMeters>
            <DistanceMeters>NAN</DistanceMeters>
          </Trackpoint>
          <Trackpoint>
            <Time>2020-12-05T13:36:56.000Z</Time>
            <Position>
              <LatitudeDegrees>36.81751932017505168914794921875</LatitudeDegrees>
              <LongitudeDegrees>-4.3836294114589691162109375</LongitudeDegrees>
            </Position>
            <AltitudeMeters>769.5999755859375</AltitudeMeters>
            <DistanceMeters>NAN</DistanceMeters>
          </Trackpoint>
          <Trackpoint>
            <Time>2020-12-05T13:36:57.000Z</Time>
            <Position>
              <LatitudeDegrees>36.81753071956336498260498046875</LatitudeDegrees>
              <LongitudeDegrees>-4.3836294114589691162109375</LongitudeDegrees>
            </Position>
            <AltitudeMeters>769.5999755859375</AltitudeMeters>
            <DistanceMeters>NAN</DistanceMeters>
          </Trackpoint>
          <Trackpoint>
            <Time>2020-12-05T13:36:58.000Z</Time>
            <Position>
              <LatitudeDegrees>36.81754061020910739898681640625</LatitudeDegrees>
              <LongitudeDegrees>-4.38362748362123966217041015625</LongitudeDegrees>
            </Position>
            <AltitudeMeters>769.79998779296875</AltitudeMeters>
            <DistanceMeters>NAN</DistanceMeters>
          </Trackpoint>
          <Trackpoint>
            <Time>2020-12-05T13:36:59.000Z</Time>
            <Position>
              <LatitudeDegrees>36.817550919950008392333984375</LatitudeDegrees>
              <LongitudeDegrees>-4.38362396322190761566162109375</LongitudeDegrees>
            </Position>
            <AltitudeMeters>769.79998779296875</AltitudeMeters>
            <DistanceMeters>NAN</DistanceMeters>
          </Trackpoint>
          <Trackpoint>
            <Time>2020-12-05T13:37:00.000Z</Time>
            <Position>
              <LatitudeDegrees>36.8175601400434970855712890625</LatitudeDegrees>
              <LongitudeDegrees>-4.38361910171806812286376953125</LongitudeDegrees>
            </Position>
            <AltitudeMeters>769.79998779296875</AltitudeMeters>
            <DistanceMeters>NAN</DistanceMeters>
          </Trackpoint>
          <Trackpoint>
            <Time>2020-12-05T13:37:01.000Z</Time>
            <Position>
              <LatitudeDegrees>36.81756877340376377105712890625</LatitudeDegrees>
              <LongitudeDegrees>-4.38361574895679950714111328125</LongitudeDegrees>
            </Position>
            <AltitudeMeters>770</AltitudeMeters>
            <DistanceMeters>NAN</DistanceMeters>
          </Trackpoint>
          <Trackpoint>
            <Time>2020-12-05T13:37:02.000Z</Time>
            <Position>
              <LatitudeDegrees>36.81757614947855472564697265625</LatitudeDegrees>
              <LongitudeDegrees>-4.383613653481006622314453125</LongitudeDegrees>
            </Position>
            <AltitudeMeters>770.4000244140625</AltitudeMeters>
            <DistanceMeters>NAN</DistanceMeters>
          </Trackpoint>
          <Trackpoint>
            <Time>2020-12-05T13:37:03.000Z</Time>
            <Position>
              <LatitudeDegrees>36.8175856210291385650634765625</LatitudeDegrees>
              <LongitudeDegrees>-4.3836106359958648681640625</LongitudeDegrees>
            </Position>
            <AltitudeMeters>770.5999755859375</AltitudeMeters>
            <DistanceMeters>NAN</DistanceMeters>
          </Trackpoint>
          <Trackpoint>
            <Time>2020-12-05T13:37:04.000Z</Time>
            <Position>
              <LatitudeDegrees>36.8175997026264667510986328125</LatitudeDegrees>
              <LongitudeDegrees>-4.38360921107232570648193359375</LongitudeDegrees>
            </Position>
            <AltitudeMeters>770.79998779296875</AltitudeMeters>
            <DistanceMeters>NAN</DistanceMeters>
          </Trackpoint>
          <Trackpoint>
            <Time>2020-12-05T13:37:05.000Z</Time>
            <Position>
              <LatitudeDegrees>36.817610263824462890625</LatitudeDegrees>
              <LongitudeDegrees>-4.3836067803204059600830078125</LongitudeDegrees>
            </Position>
            <AltitudeMeters>770.79998779296875</AltitudeMeters>
            <DistanceMeters>NAN</DistanceMeters>
          </Trackpoint>
          <Trackpoint>
            <Time>2020-12-05T13:37:06.000Z</Time>
            <Position>
              <LatitudeDegrees>36.8176208250224590301513671875</LatitudeDegrees>
              <LongitudeDegrees>-4.383602924644947052001953125</LongitudeDegrees>
            </Position>
            <AltitudeMeters>771</AltitudeMeters>
            <DistanceMeters>NAN</DistanceMeters>
          </Trackpoint>
          <Trackpoint>
            <Time>2020-12-05T13:37:07.000Z</Time>
            <Position>
              <LatitudeDegrees>36.81763063184916973114013671875</LatitudeDegrees>
              <LongitudeDegrees>-4.38360116444528102874755859375</LongitudeDegrees>
            </Position>
            <AltitudeMeters>771</AltitudeMeters>
            <DistanceMeters>NAN</DistanceMeters>
          </Trackpoint>
          <Trackpoint>
            <Time>2020-12-05T13:37:08.000Z</Time>
            <Position>
              <LatitudeDegrees>36.81764136068522930145263671875</LatitudeDegrees>
              <LongitudeDegrees>-4.38359982334077358245849609375</LongitudeDegrees>
            </Position>
            <AltitudeMeters>771</AltitudeMeters>
            <DistanceMeters>NAN</DistanceMeters>
          </Trackpoint>
          <Trackpoint>
            <Time>2020-12-05T13:37:09.000Z</Time>
            <Position>
              <LatitudeDegrees>36.81765091605484485626220703125</LatitudeDegrees>
              <LongitudeDegrees>-4.38359764404594898223876953125</LongitudeDegrees>
            </Position>
            <AltitudeMeters>771</AltitudeMeters>
            <DistanceMeters>NAN</DistanceMeters>
          </Trackpoint>
          <Trackpoint>
            <Time>2020-12-05T13:37:10.000Z</Time>
            <Position>
              <LatitudeDegrees>36.81766214780509471893310546875</LatitudeDegrees>
              <LongitudeDegrees>-4.38359546475112438201904296875</LongitudeDegrees>
            </Position>
            <AltitudeMeters>771</AltitudeMeters>
            <DistanceMeters>NAN</DistanceMeters>
          </Trackpoint>
          <Trackpoint>
            <Time>2020-12-05T13:37:11.000Z</Time>
            <Position>
              <LatitudeDegrees>36.81767128407955169677734375</LatitudeDegrees>
              <LongitudeDegrees>-4.3835896812379360198974609375</LongitudeDegrees>
            </Position>
            <AltitudeMeters>771</AltitudeMeters>
            <DistanceMeters>NAN</DistanceMeters>
          </Trackpoint>
          <Trackpoint>
            <Time>2020-12-05T13:37:12.000Z</Time>
            <Position>
              <LatitudeDegrees>36.817679665982723236083984375</LatitudeDegrees>
              <LongitudeDegrees>-4.3835873343050479888916015625</LongitudeDegrees>
            </Position>
            <AltitudeMeters>771</AltitudeMeters>
            <DistanceMeters>NAN</DistanceMeters>
          </Trackpoint>
          <Trackpoint>
            <Time>2020-12-05T13:37:13.000Z</Time>
            <Position>
              <LatitudeDegrees>36.81768947280943393707275390625</LatitudeDegrees>
              <LongitudeDegrees>-4.3835823051631450653076171875</LongitudeDegrees>
            </Position>
            <AltitudeMeters>771</AltitudeMeters>
            <DistanceMeters>NAN</DistanceMeters>
          </Trackpoint>
          <Trackpoint>
            <Time>2020-12-05T13:37:14.000Z</Time>
            <Position>
              <LatitudeDegrees>36.817704141139984130859375</LatitudeDegrees>
              <LongitudeDegrees>-4.38357643783092498779296875</LongitudeDegrees>
            </Position>
            <AltitudeMeters>771</AltitudeMeters>
            <DistanceMeters>NAN</DistanceMeters>
          </Trackpoint>
          <Trackpoint>
            <Time>2020-12-05T13:37:15.000Z</Time>
            <Position>
              <LatitudeDegrees>36.81771847419440746307373046875</LatitudeDegrees>
              <LongitudeDegrees>-4.3835725821554660797119140625</LongitudeDegrees>
            </Position>
            <AltitudeMeters>771</AltitudeMeters>
            <DistanceMeters>NAN</DistanceMeters>
          </Trackpoint>
          <Trackpoint>
            <Time>2020-12-05T13:37:16.000Z</Time>
            <Position>
              <LatitudeDegrees>36.81772920303046703338623046875</LatitudeDegrees>
              <LongitudeDegrees>-4.383566379547119140625</LongitudeDegrees>
            </Position>
            <AltitudeMeters>771.20001220703125</AltitudeMeters>
            <DistanceMeters>NAN</DistanceMeters>
          </Trackpoint>
          <Trackpoint>
            <Time>2020-12-05T13:37:17.000Z</Time>
            <Position>
              <LatitudeDegrees>36.81773741729557514190673828125</LatitudeDegrees>
              <LongitudeDegrees>-4.38355891965329647064208984375</LongitudeDegrees>
            </Position>
            <AltitudeMeters>771.4000244140625</AltitudeMeters>
            <DistanceMeters>NAN</DistanceMeters>
          </Trackpoint>
          <Trackpoint>
            <Time>2020-12-05T13:37:18.000Z</Time>
            <Position>
              <LatitudeDegrees>36.8177452124655246734619140625</LatitudeDegrees>
              <LongitudeDegrees>-4.3835504539310932159423828125</LongitudeDegrees>
            </Position>
            <AltitudeMeters>771.79998779296875</AltitudeMeters>
            <DistanceMeters>NAN</DistanceMeters>
          </Trackpoint>
          <Trackpoint>
            <Time>2020-12-05T13:37:19.000Z</Time>
            <Position>
              <LatitudeDegrees>36.81775820441544055938720703125</LatitudeDegrees>
              <LongitudeDegrees>-4.38354131765663623809814453125</LongitudeDegrees>
            </Position>
            <AltitudeMeters>772</AltitudeMeters>
            <DistanceMeters>NAN</DistanceMeters>
          </Trackpoint>
          <Trackpoint>
            <Time>2020-12-05T13:37:20.000Z</Time>
            <Position>
              <LatitudeDegrees>36.81777128018438816070556640625</LatitudeDegrees>
              <LongitudeDegrees>-4.38352949917316436767578125</LongitudeDegrees>
            </Position>
            <AltitudeMeters>772</AltitudeMeters>
            <DistanceMeters>NAN</DistanceMeters>
          </Trackpoint>
          <Trackpoint>
            <Time>2020-12-05T13:37:21.000Z</Time>
            <Position>
              <LatitudeDegrees>36.81778502650558948516845703125</LatitudeDegrees>
              <LongitudeDegrees>-4.38352011144161224365234375</LongitudeDegrees>
            </Position>
            <AltitudeMeters>772.20001220703125</AltitudeMeters>
            <DistanceMeters>NAN</DistanceMeters>
          </Trackpoint>
          <Trackpoint>
            <Time>2020-12-05T13:37:22.000Z</Time>
            <Position>
              <LatitudeDegrees>36.81779894046485424041748046875</LatitudeDegrees>
              <LongitudeDegrees>-4.3835172615945339202880859375</LongitudeDegrees>
            </Position>
            <AltitudeMeters>772.4000244140625</AltitudeMeters>
            <DistanceMeters>NAN</DistanceMeters>
          </Trackpoint>
          <Trackpoint>
            <Time>2020-12-05T13:37:23.000Z</Time>
            <Position>
              <LatitudeDegrees>36.81781000457704067230224609375</LatitudeDegrees>
              <LongitudeDegrees>-4.3835132382810115814208984375</LongitudeDegrees>
            </Position>
            <AltitudeMeters>772.79998779296875</AltitudeMeters>
            <DistanceMeters>NAN</DistanceMeters>
          </Trackpoint>
          <Trackpoint>
            <Time>2020-12-05T13:37:24.000Z</Time>
            <Position>
              <LatitudeDegrees>36.81782408617436885833740234375</LatitudeDegrees>
              <LongitudeDegrees>-4.38350846059620380401611328125</LongitudeDegrees>
            </Position>
            <AltitudeMeters>773</AltitudeMeters>
            <DistanceMeters>NAN</DistanceMeters>
          </Trackpoint>
          <Trackpoint>
            <Time>2020-12-05T13:37:25.000Z</Time>
            <Position>
              <LatitudeDegrees>36.81783900596201419830322265625</LatitudeDegrees>
              <LongitudeDegrees>-4.3835072033107280731201171875</LongitudeDegrees>
            </Position>
            <AltitudeMeters>773</AltitudeMeters>
            <DistanceMeters>NAN</DistanceMeters>
          </Trackpoint>
          <Trackpoint>
            <Time>2020-12-05T13:37:26.000Z</Time>
            <Position>
              <LatitudeDegrees>36.8178535066545009613037109375</LatitudeDegrees>
              <LongitudeDegrees>-4.38350879587233066558837890625</LongitudeDegrees>
            </Position>
            <AltitudeMeters>773.20001220703125</AltitudeMeters>
            <DistanceMeters>NAN</DistanceMeters>
          </Trackpoint>
          <Trackpoint>
            <Time>2020-12-05T13:37:27.000Z</Time>
            <Position>
              <LatitudeDegrees>36.81787018664181232452392578125</LatitudeDegrees>
              <LongitudeDegrees>-4.3835125677287578582763671875</LongitudeDegrees>
            </Position>
            <AltitudeMeters>773.20001220703125</AltitudeMeters>
            <DistanceMeters>NAN</DistanceMeters>
          </Trackpoint>
          <Trackpoint>
            <Time>2020-12-05T13:37:28.000Z</Time>
            <Position>
              <LatitudeDegrees>36.81788326241075992584228515625</LatitudeDegrees>
              <LongitudeDegrees>-4.38351030461490154266357421875</LongitudeDegrees>
            </Position>
            <AltitudeMeters>773.4000244140625</AltitudeMeters>
            <DistanceMeters>NAN</DistanceMeters>
          </Trackpoint>
          <Trackpoint>
            <Time>2020-12-05T13:37:29.000Z</Time>
            <Position>
              <LatitudeDegrees>36.81789181195199489593505859375</LatitudeDegrees>
              <LongitudeDegrees>-4.383507706224918365478515625</LongitudeDegrees>
            </Position>
            <AltitudeMeters>773.4000244140625</AltitudeMeters>
            <DistanceMeters>NAN</DistanceMeters>
          </Trackpoint>
          <Trackpoint>
            <Time>2020-12-05T13:37:30.000Z</Time>
            <Position>
              <LatitudeDegrees>36.81790337897837162017822265625</LatitudeDegrees>
              <LongitudeDegrees>-4.383499324321746826171875</LongitudeDegrees>
            </Position>
            <AltitudeMeters>773.4000244140625</AltitudeMeters>
            <DistanceMeters>NAN</DistanceMeters>
          </Trackpoint>
          <Trackpoint>
            <Time>2020-12-05T13:37:31.000Z</Time>
            <Position>
              <LatitudeDegrees>36.81791628710925579071044921875</LatitudeDegrees>
              <LongitudeDegrees>-4.38349370844662189483642578125</LongitudeDegrees>
            </Position>
            <AltitudeMeters>773.5999755859375</AltitudeMeters>
            <DistanceMeters>NAN</DistanceMeters>
          </Trackpoint>
          <Trackpoint>
            <Time>2020-12-05T13:37:32.000Z</Time>
            <Position>
              <LatitudeDegrees>36.8179262615740299224853515625</LatitudeDegrees>
              <LongitudeDegrees>-4.3834890983998775482177734375</LongitudeDegrees>
            </Position>
            <AltitudeMeters>773.79998779296875</AltitudeMeters>
            <DistanceMeters>NAN</DistanceMeters>
          </Trackpoint>
          <Trackpoint>
            <Time>2020-12-05T13:37:33.000Z</Time>
            <Position>
              <LatitudeDegrees>36.81793472729623317718505859375</LatitudeDegrees>
              <LongitudeDegrees>-4.3834827281534671783447265625</LongitudeDegrees>
            </Position>
            <AltitudeMeters>773.79998779296875</AltitudeMeters>
            <DistanceMeters>NAN</DistanceMeters>
          </Trackpoint>
          <Trackpoint>
            <Time>2020-12-05T13:37:34.000Z</Time>
            <Position>
              <LatitudeDegrees>36.8179433606564998626708984375</LatitudeDegrees>
              <LongitudeDegrees>-4.3834818899631500244140625</LongitudeDegrees>
            </Position>
            <AltitudeMeters>773.5999755859375</AltitudeMeters>
            <DistanceMeters>NAN</DistanceMeters>
          </Trackpoint>
          <Trackpoint>
            <Time>2020-12-05T13:37:35.000Z</Time>
            <Position>
              <LatitudeDegrees>36.81795417331159114837646484375</LatitudeDegrees>
              <LongitudeDegrees>-4.38347895629703998565673828125</LongitudeDegrees>
            </Position>
            <AltitudeMeters>773.5999755859375</AltitudeMeters>
            <DistanceMeters>NAN</DistanceMeters>
          </Trackpoint>
          <Trackpoint>
            <Time>2020-12-05T13:37:36.000Z</Time>
            <Position>
              <LatitudeDegrees>36.81796590797603130340576171875</LatitudeDegrees>
              <LongitudeDegrees>-4.38348012976348400115966796875</LongitudeDegrees>
            </Position>
            <AltitudeMeters>773.79998779296875</AltitudeMeters>
            <DistanceMeters>NAN</DistanceMeters>
          </Trackpoint>
          <Trackpoint>
            <Time>2020-12-05T13:37:37.000Z</Time>
            <Position>
              <LatitudeDegrees>36.81797596625983715057373046875</LatitudeDegrees>
              <LongitudeDegrees>-4.38348448835313320159912109375</LongitudeDegrees>
            </Position>
            <AltitudeMeters>773.79998779296875</AltitudeMeters>
            <DistanceMeters>NAN</DistanceMeters>
          </Trackpoint>
          <Trackpoint>
            <Time>2020-12-05T13:37:38.000Z</Time>
            <Position>
              <LatitudeDegrees>36.81798770092427730560302734375</LatitudeDegrees>
              <LongitudeDegrees>-4.3834907747805118560791015625</LongitudeDegrees>
            </Position>
            <AltitudeMeters>773.79998779296875</AltitudeMeters>
            <DistanceMeters>NAN</DistanceMeters>
          </Trackpoint>
          <Trackpoint>
            <Time>2020-12-05T13:37:39.000Z</Time>
            <Position>
              <LatitudeDegrees>36.81800077669322490692138671875</LatitudeDegrees>
              <LongitudeDegrees>-4.38349454663693904876708984375</LongitudeDegrees>
            </Position>
            <AltitudeMeters>773.79998779296875</AltitudeMeters>
            <DistanceMeters>NAN</DistanceMeters>
          </Trackpoint>
          <Trackpoint>
            <Time>2020-12-05T13:37:40.000Z</Time>
            <Position>
              <LatitudeDegrees>36.81801469065248966217041015625</LatitudeDegrees>
              <LongitudeDegrees>-4.38349706120789051055908203125</LongitudeDegrees>
            </Position>
            <AltitudeMeters>774</AltitudeMeters>
            <DistanceMeters>NAN</DistanceMeters>
          </Trackpoint>
          <Trackpoint>
            <Time>2020-12-05T13:37:41.000Z</Time>
            <Position>
              <LatitudeDegrees>36.81802759878337383270263671875</LatitudeDegrees>
              <LongitudeDegrees>-4.3834974803030490875244140625</LongitudeDegrees>
            </Position>
            <AltitudeMeters>774</AltitudeMeters>
            <DistanceMeters>NAN</DistanceMeters>
          </Trackpoint>
          <Trackpoint>
            <Time>2020-12-05T13:37:42.000Z</Time>
            <Position>
              <LatitudeDegrees>36.81803715415298938751220703125</LatitudeDegrees>
              <LongitudeDegrees>-4.38350125215947628021240234375</LongitudeDegrees>
            </Position>
            <AltitudeMeters>774.20001220703125</AltitudeMeters>
            <DistanceMeters>NAN</DistanceMeters>
          </Trackpoint>
          <Trackpoint>
            <Time>2020-12-05T13:37:43.000Z</Time>
            <Position>
              <LatitudeDegrees>36.81804972700774669647216796875</LatitudeDegrees>
              <LongitudeDegrees>-4.3835051916539669036865234375</LongitudeDegrees>
            </Position>
            <AltitudeMeters>774.4000244140625</AltitudeMeters>
            <DistanceMeters>NAN</DistanceMeters>
          </Trackpoint>
          <Trackpoint>
            <Time>2020-12-05T13:37:44.000Z</Time>
            <Position>
              <LatitudeDegrees>36.81805945001542568206787109375</LatitudeDegrees>
              <LongitudeDegrees>-4.38350745476782321929931640625</LongitudeDegrees>
            </Position>
            <AltitudeMeters>774.4000244140625</AltitudeMeters>
            <DistanceMeters>NAN</DistanceMeters>
          </Trackpoint>
          <Trackpoint>
            <Time>2020-12-05T13:37:45.000Z</Time>
            <Position>
              <LatitudeDegrees>36.8180734477937221527099609375</LatitudeDegrees>
              <LongitudeDegrees>-4.38351751305162906646728515625</LongitudeDegrees>
            </Position>
            <AltitudeMeters>774.5999755859375</AltitudeMeters>
            <DistanceMeters>NAN</DistanceMeters>
          </Trackpoint>
          <Trackpoint>
            <Time>2020-12-05T13:37:46.000Z</Time>
            <Position>
              <LatitudeDegrees>36.8180863559246063232421875</LatitudeDegrees>
              <LongitudeDegrees>-4.38352170400321483612060546875</LongitudeDegrees>
            </Position>
            <AltitudeMeters>774.79998779296875</AltitudeMeters>
            <DistanceMeters>NAN</DistanceMeters>
          </Trackpoint>
          <Trackpoint>
            <Time>2020-12-05T13:37:47.000Z</Time>
            <Position>
              <LatitudeDegrees>36.81810043752193450927734375</LatitudeDegrees>
              <LongitudeDegrees>-4.38352673314511775970458984375</LongitudeDegrees>
            </Position>
            <AltitudeMeters>775</AltitudeMeters>
            <DistanceMeters>NAN</DistanceMeters>
          </Trackpoint>
          <Trackpoint>
            <Time>2020-12-05T13:37:48.000Z</Time>
            <Position>
              <LatitudeDegrees>36.8181145191192626953125</LatitudeDegrees>
              <LongitudeDegrees>-4.3835353665053844451904296875</LongitudeDegrees>
            </Position>
            <AltitudeMeters>775.20001220703125</AltitudeMeters>
            <DistanceMeters>NAN</DistanceMeters>
          </Trackpoint>
          <Trackpoint>
            <Time>2020-12-05T13:37:49.000Z</Time>
            <Position>
              <LatitudeDegrees>36.8181250803172588348388671875</LatitudeDegrees>
              <LongitudeDegrees>-4.38353846780955791473388671875</LongitudeDegrees>
            </Position>
            <AltitudeMeters>775.5999755859375</AltitudeMeters>
            <DistanceMeters>NAN</DistanceMeters>
          </Trackpoint>
          <Trackpoint>
            <Time>2020-12-05T13:37:50.000Z</Time>
            <Position>
              <LatitudeDegrees>36.81813337840139865875244140625</LatitudeDegrees>
              <LongitudeDegrees>-4.38354450277984142303466796875</LongitudeDegrees>
            </Position>
            <AltitudeMeters>775.79998779296875</AltitudeMeters>
            <DistanceMeters>NAN</DistanceMeters>
          </Trackpoint>
          <Trackpoint>
            <Time>2020-12-05T13:37:51.000Z</Time>
            <Position>
              <LatitudeDegrees>36.818142347037792205810546875</LatitudeDegrees>
              <LongitudeDegrees>-4.38355321995913982391357421875</LongitudeDegrees>
            </Position>
            <AltitudeMeters>776</AltitudeMeters>
            <DistanceMeters>NAN</DistanceMeters>
          </Trackpoint>
          <Trackpoint>
            <Time>2020-12-05T13:37:52.000Z</Time>
            <Position>
              <LatitudeDegrees>36.81815139949321746826171875</LatitudeDegrees>
              <LongitudeDegrees>-4.38356361351907253265380859375</LongitudeDegrees>
            </Position>
            <AltitudeMeters>776.4000244140625</AltitudeMeters>
            <DistanceMeters>NAN</DistanceMeters>
          </Trackpoint>
          <Trackpoint>
            <Time>2020-12-05T13:37:53.000Z</Time>
            <Position>
              <LatitudeDegrees>36.81816020049154758453369140625</LatitudeDegrees>
              <LongitudeDegrees>-4.38357585109770298004150390625</LongitudeDegrees>
            </Position>
            <AltitudeMeters>776.79998779296875</AltitudeMeters>
            <DistanceMeters>NAN</DistanceMeters>
          </Trackpoint>
          <Trackpoint>
            <Time>2020-12-05T13:37:54.000Z</Time>
            <Position>
              <LatitudeDegrees>36.8181669898331165313720703125</LatitudeDegrees>
              <LongitudeDegrees>-4.3835876695811748504638671875</LongitudeDegrees>
            </Position>
            <AltitudeMeters>777.20001220703125</AltitudeMeters>
            <DistanceMeters>NAN</DistanceMeters>
          </Trackpoint>
          <Trackpoint>
            <Time>2020-12-05T13:37:55.000Z</Time>
            <Position>
              <LatitudeDegrees>36.81816975586116313934326171875</LatitudeDegrees>
              <LongitudeDegrees>-4.3835960514843463897705078125</LongitudeDegrees>
            </Position>
            <AltitudeMeters>777.4000244140625</AltitudeMeters>
            <DistanceMeters>NAN</DistanceMeters>
          </Trackpoint>
          <Trackpoint>
            <Time>2020-12-05T13:37:56.000Z</Time>
            <Position>
              <LatitudeDegrees>36.8181700073182582855224609375</LatitudeDegrees>
              <LongitudeDegrees>-4.38360099680721759796142578125</LongitudeDegrees>
            </Position>
            <AltitudeMeters>777.79998779296875</AltitudeMeters>
            <DistanceMeters>NAN</DistanceMeters>
          </Trackpoint>
          <Trackpoint>
            <Time>2020-12-05T13:37:57.000Z</Time>
            <Position>
              <LatitudeDegrees>36.8181700073182582855224609375</LatitudeDegrees>
              <LongitudeDegrees>-4.38360753469169139862060546875</LongitudeDegrees>
            </Position>
            <AltitudeMeters>778.20001220703125</AltitudeMeters>
            <DistanceMeters>NAN</DistanceMeters>
          </Trackpoint>
          <Trackpoint>
            <Time>2020-12-05T13:37:58.000Z</Time>
            <Position>
              <LatitudeDegrees>36.81817076168954372406005859375</LatitudeDegrees>
              <LongitudeDegrees>-4.38361306674778461456298828125</LongitudeDegrees>
            </Position>
            <AltitudeMeters>778.4000244140625</AltitudeMeters>
            <DistanceMeters>NAN</DistanceMeters>
          </Trackpoint>
          <Trackpoint>
            <Time>2020-12-05T13:37:59.000Z</Time>
            <Position>
              <LatitudeDegrees>36.81817009113729000091552734375</LatitudeDegrees>
              <LongitudeDegrees>-4.38362128101289272308349609375</LongitudeDegrees>
            </Position>
            <AltitudeMeters>778.5999755859375</AltitudeMeters>
            <DistanceMeters>NAN</DistanceMeters>
          </Trackpoint>
          <Trackpoint>
            <Time>2020-12-05T13:38:00.000Z</Time>
            <Position>
              <LatitudeDegrees>36.8181668221950531005859375</LatitudeDegrees>
              <LongitudeDegrees>-4.38363184221088886260986328125</LongitudeDegrees>
            </Position>
            <AltitudeMeters>778.79998779296875</AltitudeMeters>
            <DistanceMeters>NAN</DistanceMeters>
          </Trackpoint>
          <Trackpoint>
            <Time>2020-12-05T13:38:01.000Z</Time>
            <Position>
              <LatitudeDegrees>36.81816187687218189239501953125</LatitudeDegrees>
              <LongitudeDegrees>-4.38364190049469470977783203125</LongitudeDegrees>
            </Position>
            <AltitudeMeters>779</AltitudeMeters>
            <DistanceMeters>NAN</DistanceMeters>
          </Trackpoint>
          <Trackpoint>
            <Time>2020-12-05T13:38:02.000Z</Time>
            <Position>
              <LatitudeDegrees>36.8181587755680084228515625</LatitudeDegrees>
              <LongitudeDegrees>-4.38364743255078792572021484375</LongitudeDegrees>
            </Position>
            <AltitudeMeters>779.20001220703125</AltitudeMeters>
            <DistanceMeters>NAN</DistanceMeters>
          </Trackpoint>
          <Trackpoint>
            <Time>2020-12-05T13:38:03.000Z</Time>
            <Position>
              <LatitudeDegrees>36.81815550662577152252197265625</LatitudeDegrees>
              <LongitudeDegrees>-4.38365296460688114166259765625</LongitudeDegrees>
            </Position>
            <AltitudeMeters>779.4000244140625</AltitudeMeters>
            <DistanceMeters>NAN</DistanceMeters>
          </Trackpoint>
          <Trackpoint>
            <Time>2020-12-05T13:38:04.000Z</Time>
            <Position>
              <LatitudeDegrees>36.818152405321598052978515625</LatitudeDegrees>
              <LongitudeDegrees>-4.3836641125380992889404296875</LongitudeDegrees>
            </Position>
            <AltitudeMeters>779.4000244140625</AltitudeMeters>
            <DistanceMeters>NAN</DistanceMeters>
          </Trackpoint>
          <Trackpoint>
            <Time>2020-12-05T13:38:05.000Z</Time>
            <Position>
              <LatitudeDegrees>36.818149387836456298828125</LatitudeDegrees>
              <LongitudeDegrees>-4.383678697049617767333984375</LongitudeDegrees>
            </Position>
            <AltitudeMeters>779.5999755859375</AltitudeMeters>
            <DistanceMeters>NAN</DistanceMeters>
          </Trackpoint>
          <Trackpoint>
            <Time>2020-12-05T13:38:06.000Z</Time>
            <Position>
              <LatitudeDegrees>36.8181458674371242523193359375</LatitudeDegrees>
              <LongitudeDegrees>-4.3836926110088825225830078125</LongitudeDegrees>
            </Position>
            <AltitudeMeters>779.79998779296875</AltitudeMeters>
            <DistanceMeters>NAN</DistanceMeters>
          </Trackpoint>
          <Trackpoint>
            <Time>2020-12-05T13:38:07.000Z</Time>
            <Position>
              <LatitudeDegrees>36.81814393959939479827880859375</LatitudeDegrees>
              <LongitudeDegrees>-4.38370677642524242401123046875</LongitudeDegrees>
            </Position>
            <AltitudeMeters>780</AltitudeMeters>
            <DistanceMeters>NAN</DistanceMeters>
          </Trackpoint>
          <Trackpoint>
            <Time>2020-12-05T13:38:08.000Z</Time>
            <Position>
              <LatitudeDegrees>36.81814511306583881378173828125</LatitudeDegrees>
              <LongitudeDegrees>-4.383718259632587432861328125</LongitudeDegrees>
            </Position>
            <AltitudeMeters>780.20001220703125</AltitudeMeters>
            <DistanceMeters>NAN</DistanceMeters>
          </Trackpoint>
          <Trackpoint>
            <Time>2020-12-05T13:38:09.000Z</Time>
            <Position>
              <LatitudeDegrees>36.81814737617969512939453125</LatitudeDegrees>
              <LongitudeDegrees>-4.38373175449669361114501953125</LongitudeDegrees>
            </Position>
            <AltitudeMeters>780.4000244140625</AltitudeMeters>
            <DistanceMeters>NAN</DistanceMeters>
          </Trackpoint>
          <Trackpoint>
            <Time>2020-12-05T13:38:10.000Z</Time>
            <Position>
              <LatitudeDegrees>36.81814880110323429107666015625</LatitudeDegrees>
              <LongitudeDegrees>-4.3837449140846729278564453125</LongitudeDegrees>
            </Position>
            <AltitudeMeters>780.4000244140625</AltitudeMeters>
            <DistanceMeters>NAN</DistanceMeters>
          </Trackpoint>
          <Trackpoint>
            <Time>2020-12-05T13:38:11.000Z</Time>
            <Position>
              <LatitudeDegrees>36.81815139949321746826171875</LatitudeDegrees>
              <LongitudeDegrees>-4.38375505618751049041748046875</LongitudeDegrees>
            </Position>
            <AltitudeMeters>780.5999755859375</AltitudeMeters>
            <DistanceMeters>NAN</DistanceMeters>
          </Trackpoint>
          <Trackpoint>
            <Time>2020-12-05T13:38:12.000Z</Time>
            <Position>
              <LatitudeDegrees>36.81815634481608867645263671875</LatitudeDegrees>
              <LongitudeDegrees>-4.3837702274322509765625</LongitudeDegrees>
            </Position>
            <AltitudeMeters>780.5999755859375</AltitudeMeters>
            <DistanceMeters>NAN</DistanceMeters>
          </Trackpoint>
          <Trackpoint>
            <Time>2020-12-05T13:38:13.000Z</Time>
            <Position>
              <LatitudeDegrees>36.8181602843105792999267578125</LatitudeDegrees>
              <LongitudeDegrees>-4.38378757797181606292724609375</LongitudeDegrees>
            </Position>
            <AltitudeMeters>780.5999755859375</AltitudeMeters>
            <DistanceMeters>NAN</DistanceMeters>
          </Trackpoint>
          <Trackpoint>
            <Time>2020-12-05T13:38:14.000Z</Time>
            <Position>
              <LatitudeDegrees>36.8181639723479747772216796875</LatitudeDegrees>
              <LongitudeDegrees>-4.383805096149444580078125</LongitudeDegrees>
            </Position>
            <AltitudeMeters>780.5999755859375</AltitudeMeters>
            <DistanceMeters>NAN</DistanceMeters>
          </Trackpoint>
          <Trackpoint>
            <Time>2020-12-05T13:38:15.000Z</Time>
            <Position>
              <LatitudeDegrees>36.818168163299560546875</LatitudeDegrees>
              <LongitudeDegrees>-4.38382185995578765869140625</LongitudeDegrees>
            </Position>
            <AltitudeMeters>780.79998779296875</AltitudeMeters>
            <DistanceMeters>NAN</DistanceMeters>
          </Trackpoint>
          <Trackpoint>
            <Time>2020-12-05T13:38:16.000Z</Time>
            <Position>
              <LatitudeDegrees>36.818172521889209747314453125</LatitudeDegrees>
              <LongitudeDegrees>-4.3838377855718135833740234375</LongitudeDegrees>
            </Position>
            <AltitudeMeters>780.79998779296875</AltitudeMeters>
            <DistanceMeters>NAN</DistanceMeters>
          </Trackpoint>
          <Trackpoint>
            <Time>2020-12-05T13:38:17.000Z</Time>
            <Position>
              <LatitudeDegrees>36.81817729957401752471923828125</LatitudeDegrees>
              <LongitudeDegrees>-4.3838545493781566619873046875</LongitudeDegrees>
            </Position>
            <AltitudeMeters>780.79998779296875</AltitudeMeters>
            <DistanceMeters>NAN</DistanceMeters>
          </Trackpoint>
          <Trackpoint>
            <Time>2020-12-05T13:38:18.000Z</Time>
            <Position>
              <LatitudeDegrees>36.81817847304046154022216796875</LatitudeDegrees>
              <LongitudeDegrees>-4.383867122232913970947265625</LongitudeDegrees>
            </Position>
            <AltitudeMeters>780.79998779296875</AltitudeMeters>
            <DistanceMeters>NAN</DistanceMeters>
          </Trackpoint>
          <Trackpoint>
            <Time>2020-12-05T13:38:19.000Z</Time>
            <Position>
              <LatitudeDegrees>36.8181807361543178558349609375</LatitudeDegrees>
              <LongitudeDegrees>-4.3838813714683055877685546875</LongitudeDegrees>
            </Position>
            <AltitudeMeters>780.79998779296875</AltitudeMeters>
            <DistanceMeters>NAN</DistanceMeters>
          </Trackpoint>
          <Trackpoint>
            <Time>2020-12-05T13:38:20.000Z</Time>
            <Position>
              <LatitudeDegrees>36.8181834183633327484130859375</LatitudeDegrees>
              <LongitudeDegrees>-4.38389738090336322784423828125</LongitudeDegrees>
            </Position>
            <AltitudeMeters>780.79998779296875</AltitudeMeters>
            <DistanceMeters>NAN</DistanceMeters>
          </Trackpoint>
          <Trackpoint>
            <Time>2020-12-05T13:38:21.000Z</Time>
            <Position>
              <LatitudeDegrees>36.818188615143299102783203125</LatitudeDegrees>
              <LongitudeDegrees>-4.38391397707164287567138671875</LongitudeDegrees>
            </Position>
            <AltitudeMeters>781</AltitudeMeters>
            <DistanceMeters>NAN</DistanceMeters>
          </Trackpoint>
          <Trackpoint>
            <Time>2020-12-05T13:38:22.000Z</Time>
            <Position>
              <LatitudeDegrees>36.81819322519004344940185546875</LatitudeDegrees>
              <LongitudeDegrees>-4.3839286454021930694580078125</LongitudeDegrees>
            </Position>
            <AltitudeMeters>781</AltitudeMeters>
            <DistanceMeters>NAN</DistanceMeters>
          </Trackpoint>
          <Trackpoint>
            <Time>2020-12-05T13:38:23.000Z</Time>
            <Position>
              <LatitudeDegrees>36.81819624267518520355224609375</LatitudeDegrees>
              <LongitudeDegrees>-4.383942894637584686279296875</LongitudeDegrees>
            </Position>
            <AltitudeMeters>781</AltitudeMeters>
            <DistanceMeters>NAN</DistanceMeters>
          </Trackpoint>
          <Trackpoint>
            <Time>2020-12-05T13:38:24.000Z</Time>
            <Position>
              <LatitudeDegrees>36.818198002874851226806640625</LatitudeDegrees>
              <LongitudeDegrees>-4.38395555131137371063232421875</LongitudeDegrees>
            </Position>
            <AltitudeMeters>781</AltitudeMeters>
            <DistanceMeters>NAN</DistanceMeters>
          </Trackpoint>
          <Trackpoint>
            <Time>2020-12-05T13:38:25.000Z</Time>
            <Position>
              <LatitudeDegrees>36.81819808669388294219970703125</LatitudeDegrees>
              <LongitudeDegrees>-4.38396669924259185791015625</LongitudeDegrees>
            </Position>
            <AltitudeMeters>781.20001220703125</AltitudeMeters>
            <DistanceMeters>NAN</DistanceMeters>
          </Trackpoint>
          <Trackpoint>
            <Time>2020-12-05T13:38:26.000Z</Time>
            <Position>
              <LatitudeDegrees>36.81819775141775608062744140625</LatitudeDegrees>
              <LongitudeDegrees>-4.38398036174476146697998046875</LongitudeDegrees>
            </Position>
            <AltitudeMeters>781.20001220703125</AltitudeMeters>
            <DistanceMeters>NAN</DistanceMeters>
          </Trackpoint>
          <Trackpoint>
            <Time>2020-12-05T13:38:27.000Z</Time>
            <Position>
              <LatitudeDegrees>36.818200014531612396240234375</LatitudeDegrees>
              <LongitudeDegrees>-4.383997879922389984130859375</LongitudeDegrees>
            </Position>
            <AltitudeMeters>781.4000244140625</AltitudeMeters>
            <DistanceMeters>NAN</DistanceMeters>
          </Trackpoint>
          <Trackpoint>
            <Time>2020-12-05T13:38:28.000Z</Time>
            <Position>
              <LatitudeDegrees>36.81820076890289783477783203125</LatitudeDegrees>
              <LongitudeDegrees>-4.3840151466429233551025390625</LongitudeDegrees>
            </Position>
            <AltitudeMeters>781.5999755859375</AltitudeMeters>
            <DistanceMeters>NAN</DistanceMeters>
          </Trackpoint>
          <Trackpoint>
            <Time>2020-12-05T13:38:29.000Z</Time>
            <Position>
              <LatitudeDegrees>36.8182018585503101348876953125</LatitudeDegrees>
              <LongitudeDegrees>-4.38403031788766384124755859375</LongitudeDegrees>
            </Position>
            <AltitudeMeters>781.5999755859375</AltitudeMeters>
            <DistanceMeters>NAN</DistanceMeters>
          </Trackpoint>
          <Trackpoint>
            <Time>2020-12-05T13:38:30.000Z</Time>
            <Position>
              <LatitudeDegrees>36.8182058818638324737548828125</LatitudeDegrees>
              <LongitudeDegrees>-4.38404641114175319671630859375</LongitudeDegrees>
            </Position>
            <AltitudeMeters>781.79998779296875</AltitudeMeters>
            <DistanceMeters>NAN</DistanceMeters>
          </Trackpoint>
          <Trackpoint>
            <Time>2020-12-05T13:38:31.000Z</Time>
            <Position>
              <LatitudeDegrees>36.8182122521102428436279296875</LatitudeDegrees>
              <LongitudeDegrees>-4.38406384550034999847412109375</LongitudeDegrees>
            </Position>
            <AltitudeMeters>781.79998779296875</AltitudeMeters>
            <DistanceMeters>NAN</DistanceMeters>
          </Trackpoint>
          <Trackpoint>
            <Time>2020-12-05T13:38:32.000Z</Time>
            <Position>
              <LatitudeDegrees>36.81821870617568492889404296875</LatitudeDegrees>
              <LongitudeDegrees>-4.38407977111637592315673828125</LongitudeDegrees>
            </Position>
            <AltitudeMeters>782</AltitudeMeters>
            <DistanceMeters>NAN</DistanceMeters>
          </Trackpoint>
          <Trackpoint>
            <Time>2020-12-05T13:38:33.000Z</Time>
            <Position>
              <LatitudeDegrees>36.81822524406015872955322265625</LatitudeDegrees>
              <LongitudeDegrees>-4.38409569673240184783935546875</LongitudeDegrees>
            </Position>
            <AltitudeMeters>782</AltitudeMeters>
            <DistanceMeters>NAN</DistanceMeters>
          </Trackpoint>
          <Trackpoint>
            <Time>2020-12-05T13:38:34.000Z</Time>
            <Position>
              <LatitudeDegrees>36.818231530487537384033203125</LatitudeDegrees>
              <LongitudeDegrees>-4.384107179939746856689453125</LongitudeDegrees>
            </Position>
            <AltitudeMeters>782.20001220703125</AltitudeMeters>
            <DistanceMeters>NAN</DistanceMeters>
          </Trackpoint>
          <Trackpoint>
            <Time>2020-12-05T13:38:35.000Z</Time>
            <Position>
              <LatitudeDegrees>36.81823614053428173065185546875</LatitudeDegrees>
              <LongitudeDegrees>-4.3841180764138698577880859375</LongitudeDegrees>
            </Position>
            <AltitudeMeters>782.20001220703125</AltitudeMeters>
            <DistanceMeters>NAN</DistanceMeters>
          </Trackpoint>
          <Trackpoint>
            <Time>2020-12-05T13:38:36.000Z</Time>
            <Position>
              <LatitudeDegrees>36.8182410858571529388427734375</LatitudeDegrees>
              <LongitudeDegrees>-4.3841311521828174591064453125</LongitudeDegrees>
            </Position>
            <AltitudeMeters>782.4000244140625</AltitudeMeters>
            <DistanceMeters>NAN</DistanceMeters>
          </Trackpoint>
          <Trackpoint>
            <Time>2020-12-05T13:38:37.000Z</Time>
            <Position>
              <LatitudeDegrees>36.8182437680661678314208984375</LatitudeDegrees>
              <LongitudeDegrees>-4.38414548523724079132080078125</LongitudeDegrees>
            </Position>
            <AltitudeMeters>782.5999755859375</AltitudeMeters>
            <DistanceMeters>NAN</DistanceMeters>
          </Trackpoint>
          <Trackpoint>
            <Time>2020-12-05T13:38:38.000Z</Time>
            <Position>
              <LatitudeDegrees>36.81824519298970699310302734375</LatitudeDegrees>
              <LongitudeDegrees>-4.38415981829166412353515625</LongitudeDegrees>
            </Position>
            <AltitudeMeters>782.79998779296875</AltitudeMeters>
            <DistanceMeters>NAN</DistanceMeters>
          </Trackpoint>
          <Trackpoint>
            <Time>2020-12-05T13:38:39.000Z</Time>
            <Position>
              <LatitudeDegrees>36.8182454444468021392822265625</LatitudeDegrees>
              <LongitudeDegrees>-4.38417599536478519439697265625</LongitudeDegrees>
            </Position>
            <AltitudeMeters>782.79998779296875</AltitudeMeters>
            <DistanceMeters>NAN</DistanceMeters>
          </Trackpoint>
          <Trackpoint>
            <Time>2020-12-05T13:38:40.000Z</Time>
            <Position>
              <LatitudeDegrees>36.81824787519872188568115234375</LatitudeDegrees>
              <LongitudeDegrees>-4.38419401645660400390625</LongitudeDegrees>
            </Position>
            <AltitudeMeters>783</AltitudeMeters>
            <DistanceMeters>NAN</DistanceMeters>
          </Trackpoint>
          <Trackpoint>
            <Time>2020-12-05T13:38:41.000Z</Time>
            <Position>
              <LatitudeDegrees>36.8182477913796901702880859375</LatitudeDegrees>
              <LongitudeDegrees>-4.3842116184532642364501953125</LongitudeDegrees>
            </Position>
            <AltitudeMeters>783</AltitudeMeters>
            <DistanceMeters>NAN</DistanceMeters>
          </Trackpoint>
          <Trackpoint>
            <Time>2020-12-05T13:38:42.000Z</Time>
            <Position>
              <LatitudeDegrees>36.818250305950641632080078125</LatitudeDegrees>
              <LongitudeDegrees>-4.38422159291803836822509765625</LongitudeDegrees>
            </Position>
            <AltitudeMeters>783</AltitudeMeters>
            <DistanceMeters>NAN</DistanceMeters>
          </Trackpoint>
          <Trackpoint>
            <Time>2020-12-05T13:38:43.000Z</Time>
            <Position>
              <LatitudeDegrees>36.8182526528835296630859375</LatitudeDegrees>
              <LongitudeDegrees>-4.38422729261219501495361328125</LongitudeDegrees>
            </Position>
            <AltitudeMeters>783.20001220703125</AltitudeMeters>
            <DistanceMeters>NAN</DistanceMeters>
          </Trackpoint>
          <Trackpoint>
            <Time>2020-12-05T13:38:44.000Z</Time>
            <Position>
              <LatitudeDegrees>36.81825676001608371734619140625</LatitudeDegrees>
              <LongitudeDegrees>-4.38423693180084228515625</LongitudeDegrees>
            </Position>
            <AltitudeMeters>783.20001220703125</AltitudeMeters>
            <DistanceMeters>NAN</DistanceMeters>
          </Trackpoint>
          <Trackpoint>
            <Time>2020-12-05T13:38:45.000Z</Time>
            <Position>
              <LatitudeDegrees>36.8182601965963840484619140625</LatitudeDegrees>
              <LongitudeDegrees>-4.3842538632452487945556640625</LongitudeDegrees>
            </Position>
            <AltitudeMeters>783.20001220703125</AltitudeMeters>
            <DistanceMeters>NAN</DistanceMeters>
          </Trackpoint>
          <Trackpoint>
            <Time>2020-12-05T13:38:46.000Z</Time>
            <Position>
              <LatitudeDegrees>36.81826447136700153350830078125</LatitudeDegrees>
              <LongitudeDegrees>-4.38426936976611614227294921875</LongitudeDegrees>
            </Position>
            <AltitudeMeters>783.4000244140625</AltitudeMeters>
            <DistanceMeters>NAN</DistanceMeters>
          </Trackpoint>
          <Trackpoint>
            <Time>2020-12-05T13:38:47.000Z</Time>
            <Position>
              <LatitudeDegrees>36.81826849468052387237548828125</LatitudeDegrees>
              <LongitudeDegrees>-4.384282194077968597412109375</LongitudeDegrees>
            </Position>
            <AltitudeMeters>783.5999755859375</AltitudeMeters>
            <DistanceMeters>NAN</DistanceMeters>
          </Trackpoint>
          <Trackpoint>
            <Time>2020-12-05T13:38:48.000Z</Time>
            <Position>
              <LatitudeDegrees>36.81827117688953876495361328125</LatitudeDegrees>
              <LongitudeDegrees>-4.384295940399169921875</LongitudeDegrees>
            </Position>
            <AltitudeMeters>783.79998779296875</AltitudeMeters>
            <DistanceMeters>NAN</DistanceMeters>
          </Trackpoint>
          <Trackpoint>
            <Time>2020-12-05T13:38:49.000Z</Time>
            <Position>
              <LatitudeDegrees>36.818275116384029388427734375</LatitudeDegrees>
              <LongitudeDegrees>-4.38431245274841785430908203125</LongitudeDegrees>
            </Position>
            <AltitudeMeters>784</AltitudeMeters>
            <DistanceMeters>NAN</DistanceMeters>
          </Trackpoint>
          <Trackpoint>
            <Time>2020-12-05T13:38:50.000Z</Time>
            <Position>
              <LatitudeDegrees>36.81828006170690059661865234375</LatitudeDegrees>
              <LongitudeDegrees>-4.3843282945454120635986328125</LongitudeDegrees>
            </Position>
            <AltitudeMeters>784</AltitudeMeters>
            <DistanceMeters>NAN</DistanceMeters>
          </Trackpoint>
          <Trackpoint>
            <Time>2020-12-05T13:38:51.000Z</Time>
            <Position>
              <LatitudeDegrees>36.8182873539626598358154296875</LatitudeDegrees>
              <LongitudeDegrees>-4.3843417055904865264892578125</LongitudeDegrees>
            </Position>
            <AltitudeMeters>784.20001220703125</AltitudeMeters>
            <DistanceMeters>NAN</DistanceMeters>
          </Trackpoint>
          <Trackpoint>
            <Time>2020-12-05T13:38:52.000Z</Time>
            <Position>
              <LatitudeDegrees>36.81829514913260936737060546875</LatitudeDegrees>
              <LongitudeDegrees>-4.384355954825878143310546875</LongitudeDegrees>
            </Position>
            <AltitudeMeters>784.4000244140625</AltitudeMeters>
            <DistanceMeters>NAN</DistanceMeters>
          </Trackpoint>
          <Trackpoint>
            <Time>2020-12-05T13:38:53.000Z</Time>
            <Position>
              <LatitudeDegrees>36.818302609026432037353515625</LatitudeDegrees>
              <LongitudeDegrees>-4.38437196426093578338623046875</LongitudeDegrees>
            </Position>
            <AltitudeMeters>784.79998779296875</AltitudeMeters>
            <DistanceMeters>NAN</DistanceMeters>
          </Trackpoint>
          <Trackpoint>
            <Time>2020-12-05T13:38:54.000Z</Time>
            <Position>
              <LatitudeDegrees>36.81831023655831813812255859375</LatitudeDegrees>
              <LongitudeDegrees>-4.384387470781803131103515625</LongitudeDegrees>
            </Position>
            <AltitudeMeters>785.4000244140625</AltitudeMeters>
            <DistanceMeters>NAN</DistanceMeters>
          </Trackpoint>
          <Trackpoint>
            <Time>2020-12-05T13:38:55.000Z</Time>
            <Position>
              <LatitudeDegrees>36.8183222226798534393310546875</LatitudeDegrees>
              <LongitudeDegrees>-4.38440079800784587860107421875</LongitudeDegrees>
            </Position>
            <AltitudeMeters>785.79998779296875</AltitudeMeters>
            <DistanceMeters>NAN</DistanceMeters>
          </Trackpoint>
          <Trackpoint>
            <Time>2020-12-05T13:38:56.000Z</Time>
            <Position>
              <LatitudeDegrees>36.81833554990589618682861328125</LatitudeDegrees>
              <LongitudeDegrees>-4.38441186212003231048583984375</LongitudeDegrees>
            </Position>
            <AltitudeMeters>786</AltitudeMeters>
            <DistanceMeters>NAN</DistanceMeters>
          </Trackpoint>
          <Trackpoint>
            <Time>2020-12-05T13:38:57.000Z</Time>
            <Position>
              <LatitudeDegrees>36.8183456920087337493896484375</LatitudeDegrees>
              <LongitudeDegrees>-4.38442108221352100372314453125</LongitudeDegrees>
            </Position>
            <AltitudeMeters>786.20001220703125</AltitudeMeters>
            <DistanceMeters>NAN</DistanceMeters>
          </Trackpoint>
          <Trackpoint>
            <Time>2020-12-05T13:38:58.000Z</Time>
            <Position>
              <LatitudeDegrees>36.8183577619493007659912109375</LatitudeDegrees>
              <LongitudeDegrees>-4.3844325654208660125732421875</LongitudeDegrees>
            </Position>
            <AltitudeMeters>786.4000244140625</AltitudeMeters>
            <DistanceMeters>NAN</DistanceMeters>
          </Trackpoint>
          <Trackpoint>
            <Time>2020-12-05T13:38:59.000Z</Time>
            <Position>
              <LatitudeDegrees>36.8183698318898677825927734375</LatitudeDegrees>
              <LongitudeDegrees>-4.3844436295330524444580078125</LongitudeDegrees>
            </Position>
            <AltitudeMeters>786.5999755859375</AltitudeMeters>
            <DistanceMeters>NAN</DistanceMeters>
          </Trackpoint>
          <Trackpoint>
            <Time>2020-12-05T13:39:00.000Z</Time>
            <Position>
              <LatitudeDegrees>36.81838299147784709930419921875</LatitudeDegrees>
              <LongitudeDegrees>-4.38445595093071460723876953125</LongitudeDegrees>
            </Position>
            <AltitudeMeters>787</AltitudeMeters>
            <DistanceMeters>NAN</DistanceMeters>
          </Trackpoint>
          <Trackpoint>
            <Time>2020-12-05T13:39:01.000Z</Time>
            <Position>
              <LatitudeDegrees>36.81839355267584323883056640625</LatitudeDegrees>
              <LongitudeDegrees>-4.38446651212871074676513671875</LongitudeDegrees>
            </Position>
            <AltitudeMeters>787.20001220703125</AltitudeMeters>
            <DistanceMeters>NAN</DistanceMeters>
          </Trackpoint>
          <Trackpoint>
            <Time>2020-12-05T13:39:02.000Z</Time>
            <Position>
              <LatitudeDegrees>36.81840352714061737060546875</LatitudeDegrees>
              <LongitudeDegrees>-4.38447673805058002471923828125</LongitudeDegrees>
            </Position>
            <AltitudeMeters>787.4000244140625</AltitudeMeters>
            <DistanceMeters>NAN</DistanceMeters>
          </Trackpoint>
          <Trackpoint>
            <Time>2020-12-05T13:39:03.000Z</Time>
            <Position>
              <LatitudeDegrees>36.8184107355773448944091796875</LatitudeDegrees>
              <LongitudeDegrees>-4.3844841979444026947021484375</LongitudeDegrees>
            </Position>
            <AltitudeMeters>787.79998779296875</AltitudeMeters>
            <DistanceMeters>NAN</DistanceMeters>
          </Trackpoint>
          <Trackpoint>
            <Time>2020-12-05T13:39:04.000Z</Time>
            <Position>
              <LatitudeDegrees>36.81841769255697727203369140625</LatitudeDegrees>
              <LongitudeDegrees>-4.38449132256209850311279296875</LongitudeDegrees>
            </Position>
            <AltitudeMeters>788.4000244140625</AltitudeMeters>
            <DistanceMeters>NAN</DistanceMeters>
          </Trackpoint>
          <Trackpoint>
            <Time>2020-12-05T13:39:05.000Z</Time>
            <Position>
              <LatitudeDegrees>36.818427331745624542236328125</LatitudeDegrees>
              <LongitudeDegrees>-4.38449702225625514984130859375</LongitudeDegrees>
            </Position>
            <AltitudeMeters>788.79998779296875</AltitudeMeters>
            <DistanceMeters>NAN</DistanceMeters>
          </Trackpoint>
          <Trackpoint>
            <Time>2020-12-05T13:39:06.000Z</Time>
            <Position>
              <LatitudeDegrees>36.8184377253055572509765625</LatitudeDegrees>
              <LongitudeDegrees>-4.3845033086836338043212890625</LongitudeDegrees>
            </Position>
            <AltitudeMeters>789</AltitudeMeters>
            <DistanceMeters>NAN</DistanceMeters>
          </Trackpoint>
          <Trackpoint>
            <Time>2020-12-05T13:39:07.000Z</Time>
            <Position>
              <LatitudeDegrees>36.81844585575163364410400390625</LatitudeDegrees>
              <LongitudeDegrees>-4.3845153786242008209228515625</LongitudeDegrees>
            </Position>
            <AltitudeMeters>789.20001220703125</AltitudeMeters>
            <DistanceMeters>NAN</DistanceMeters>
          </Trackpoint>
          <Trackpoint>
            <Time>2020-12-05T13:39:08.000Z</Time>
            <Position>
              <LatitudeDegrees>36.81845256127417087554931640625</LatitudeDegrees>
              <LongitudeDegrees>-4.38453155569732189178466796875</LongitudeDegrees>
            </Position>
            <AltitudeMeters>789.4000244140625</AltitudeMeters>
            <DistanceMeters>NAN</DistanceMeters>
          </Trackpoint>
          <Trackpoint>
            <Time>2020-12-05T13:39:09.000Z</Time>
            <Position>
              <LatitudeDegrees>36.81846119463443756103515625</LatitudeDegrees>
              <LongitudeDegrees>-4.38454044051468372344970703125</LongitudeDegrees>
            </Position>
            <AltitudeMeters>789.4000244140625</AltitudeMeters>
            <DistanceMeters>NAN</DistanceMeters>
          </Trackpoint>
          <Trackpoint>
            <Time>2020-12-05T13:39:10.000Z</Time>
            <Position>
              <LatitudeDegrees>36.81846915744245052337646484375</LatitudeDegrees>
              <LongitudeDegrees>-4.38454831950366497039794921875</LongitudeDegrees>
            </Position>
            <AltitudeMeters>789.4000244140625</AltitudeMeters>
            <DistanceMeters>NAN</DistanceMeters>
          </Trackpoint>
          <Trackpoint>
            <Time>2020-12-05T13:39:11.000Z</Time>
            <Position>
              <LatitudeDegrees>36.81847753934562206268310546875</LatitudeDegrees>
              <LongitudeDegrees>-4.38455100171267986297607421875</LongitudeDegrees>
            </Position>
            <AltitudeMeters>789.4000244140625</AltitudeMeters>
            <DistanceMeters>NAN</DistanceMeters>
          </Trackpoint>
          <Trackpoint>
            <Time>2020-12-05T13:39:12.000Z</Time>
            <Position>
              <LatitudeDegrees>36.818489693105220794677734375</LatitudeDegrees>
              <LongitudeDegrees>-4.3845519237220287322998046875</LongitudeDegrees>
            </Position>
            <AltitudeMeters>789.5999755859375</AltitudeMeters>
            <DistanceMeters>NAN</DistanceMeters>
          </Trackpoint>
          <Trackpoint>
            <Time>2020-12-05T13:39:13.000Z</Time>
            <Position>
              <LatitudeDegrees>36.81850268505513668060302734375</LatitudeDegrees>
              <LongitudeDegrees>-4.38455536030232906341552734375</LongitudeDegrees>
            </Position>
            <AltitudeMeters>789.79998779296875</AltitudeMeters>
            <DistanceMeters>NAN</DistanceMeters>
          </Trackpoint>
          <Trackpoint>
            <Time>2020-12-05T13:39:14.000Z</Time>
            <Position>
              <LatitudeDegrees>36.81851685047149658203125</LatitudeDegrees>
              <LongitudeDegrees>-4.38455720432102680206298828125</LongitudeDegrees>
            </Position>
            <AltitudeMeters>790</AltitudeMeters>
            <DistanceMeters>NAN</DistanceMeters>
          </Trackpoint>
          <Trackpoint>
            <Time>2020-12-05T13:39:15.000Z</Time>
            <Position>
              <LatitudeDegrees>36.81852816604077816009521484375</LatitudeDegrees>
              <LongitudeDegrees>-4.3845579586923122406005859375</LongitudeDegrees>
            </Position>
            <AltitudeMeters>790.20001220703125</AltitudeMeters>
            <DistanceMeters>NAN</DistanceMeters>
          </Trackpoint>
          <Trackpoint>
            <Time>2020-12-05T13:39:16.000Z</Time>
            <Position>
              <LatitudeDegrees>36.8185351230204105377197265625</LatitudeDegrees>
              <LongitudeDegrees>-4.38456458039581775665283203125</LongitudeDegrees>
            </Position>
            <AltitudeMeters>790.5999755859375</AltitudeMeters>
            <DistanceMeters>NAN</DistanceMeters>
          </Trackpoint>
          <Trackpoint>
            <Time>2020-12-05T13:39:17.000Z</Time>
            <Position>
              <LatitudeDegrees>36.818540655076503753662109375</LatitudeDegrees>
              <LongitudeDegrees>-4.38457430340349674224853515625</LongitudeDegrees>
            </Position>
            <AltitudeMeters>790.79998779296875</AltitudeMeters>
            <DistanceMeters>NAN</DistanceMeters>
          </Trackpoint>
          <Trackpoint>
            <Time>2020-12-05T13:39:18.000Z</Time>
            <Position>
              <LatitudeDegrees>36.8185450136661529541015625</LatitudeDegrees>
              <LongitudeDegrees>-4.3845856189727783203125</LongitudeDegrees>
            </Position>
            <AltitudeMeters>791</AltitudeMeters>
            <DistanceMeters>NAN</DistanceMeters>
          </Trackpoint>
          <Trackpoint>
            <Time>2020-12-05T13:39:19.000Z</Time>
            <Position>
              <LatitudeDegrees>36.81854912079870700836181640625</LatitudeDegrees>
              <LongitudeDegrees>-4.3845945037901401519775390625</LongitudeDegrees>
            </Position>
            <AltitudeMeters>791.20001220703125</AltitudeMeters>
            <DistanceMeters>NAN</DistanceMeters>
          </Trackpoint>
          <Trackpoint>
            <Time>2020-12-05T13:39:20.000Z</Time>
            <Position>
              <LatitudeDegrees>36.818554736673831939697265625</LatitudeDegrees>
              <LongitudeDegrees>-4.3846070766448974609375</LongitudeDegrees>
            </Position>
            <AltitudeMeters>791.20001220703125</AltitudeMeters>
            <DistanceMeters>NAN</DistanceMeters>
          </Trackpoint>
          <Trackpoint>
            <Time>2020-12-05T13:39:21.000Z</Time>
            <Position>
              <LatitudeDegrees>36.81856043636798858642578125</LatitudeDegrees>
              <LongitudeDegrees>-4.38461604528129100799560546875</LongitudeDegrees>
            </Position>
            <AltitudeMeters>791.20001220703125</AltitudeMeters>
            <DistanceMeters>NAN</DistanceMeters>
          </Trackpoint>
          <Trackpoint>
            <Time>2020-12-05T13:39:22.000Z</Time>
            <Position>
              <LatitudeDegrees>36.81856445968151092529296875</LatitudeDegrees>
              <LongitudeDegrees>-4.38462794758379459381103515625</LongitudeDegrees>
            </Position>
            <AltitudeMeters>791.4000244140625</AltitudeMeters>
            <DistanceMeters>NAN</DistanceMeters>
          </Trackpoint>
          <Trackpoint>
            <Time>2020-12-05T13:39:23.000Z</Time>
            <Position>
              <LatitudeDegrees>36.8185696564614772796630859375</LatitudeDegrees>
              <LongitudeDegrees>-4.38463901169598102569580078125</LongitudeDegrees>
            </Position>
            <AltitudeMeters>791.4000244140625</AltitudeMeters>
            <DistanceMeters>NAN</DistanceMeters>
          </Trackpoint>
          <Trackpoint>
            <Time>2020-12-05T13:39:24.000Z</Time>
            <Position>
              <LatitudeDegrees>36.81857460178434848785400390625</LatitudeDegrees>
              <LongitudeDegrees>-4.38464756123721599578857421875</LongitudeDegrees>
            </Position>
            <AltitudeMeters>791.5999755859375</AltitudeMeters>
            <DistanceMeters>NAN</DistanceMeters>
          </Trackpoint>
          <Trackpoint>
            <Time>2020-12-05T13:39:25.000Z</Time>
            <Position>
              <LatitudeDegrees>36.81857879273593425750732421875</LatitudeDegrees>
              <LongitudeDegrees>-4.3846538476645946502685546875</LongitudeDegrees>
            </Position>
            <AltitudeMeters>791.5999755859375</AltitudeMeters>
            <DistanceMeters>NAN</DistanceMeters>
          </Trackpoint>
          <Trackpoint>
            <Time>2020-12-05T13:39:26.000Z</Time>
            <Position>
              <LatitudeDegrees>36.8185800500214099884033203125</LatitudeDegrees>
              <LongitudeDegrees>-4.38465661369264125823974609375</LongitudeDegrees>
            </Position>
            <AltitudeMeters>791.79998779296875</AltitudeMeters>
            <DistanceMeters>NAN</DistanceMeters>
          </Trackpoint>
          <Trackpoint>
            <Time>2020-12-05T13:39:27.000Z</Time>
            <Position>
              <LatitudeDegrees>36.81858046911656856536865234375</LatitudeDegrees>
              <LongitudeDegrees>-4.38465711660683155059814453125</LongitudeDegrees>
            </Position>
            <AltitudeMeters>791.79998779296875</AltitudeMeters>
            <DistanceMeters>NAN</DistanceMeters>
          </Trackpoint>
          <Trackpoint>
            <Time>2020-12-05T13:39:28.000Z</Time>
            <Position>
              <LatitudeDegrees>36.8185823969542980194091796875</LatitudeDegrees>
              <LongitudeDegrees>-4.38466005027294158935546875</LongitudeDegrees>
            </Position>
            <AltitudeMeters>791.79998779296875</AltitudeMeters>
            <DistanceMeters>NAN</DistanceMeters>
          </Trackpoint>
          <Trackpoint>
            <Time>2020-12-05T13:39:29.000Z</Time>
            <Position>
              <LatitudeDegrees>36.81858457624912261962890625</LatitudeDegrees>
              <LongitudeDegrees>-4.3846672587096691131591796875</LongitudeDegrees>
            </Position>
            <AltitudeMeters>792.20001220703125</AltitudeMeters>
            <DistanceMeters>NAN</DistanceMeters>
          </Trackpoint>
          <Trackpoint>
            <Time>2020-12-05T13:39:30.000Z</Time>
            <Position>
              <LatitudeDegrees>36.818588264286518096923828125</LatitudeDegrees>
              <LongitudeDegrees>-4.38467673026025295257568359375</LongitudeDegrees>
            </Position>
            <AltitudeMeters>792.20001220703125</AltitudeMeters>
            <DistanceMeters>NAN</DistanceMeters>
          </Trackpoint>
          <Trackpoint>
            <Time>2020-12-05T13:39:31.000Z</Time>
            <Position>
              <LatitudeDegrees>36.81859153322875499725341796875</LatitudeDegrees>
              <LongitudeDegrees>-4.38468963839113712310791015625</LongitudeDegrees>
            </Position>
            <AltitudeMeters>792.20001220703125</AltitudeMeters>
            <DistanceMeters>NAN</DistanceMeters>
          </Trackpoint>
          <Trackpoint>
            <Time>2020-12-05T13:39:32.000Z</Time>
            <Position>
              <LatitudeDegrees>36.818594634532928466796875</LatitudeDegrees>
              <LongitudeDegrees>-4.384705312550067901611328125</LongitudeDegrees>
            </Position>
            <AltitudeMeters>792.4000244140625</AltitudeMeters>
            <DistanceMeters>NAN</DistanceMeters>
          </Trackpoint>
          <Trackpoint>
            <Time>2020-12-05T13:39:33.000Z</Time>
            <Position>
              <LatitudeDegrees>36.818595640361309051513671875</LatitudeDegrees>
              <LongitudeDegrees>-4.38471897505223751068115234375</LongitudeDegrees>
            </Position>
            <AltitudeMeters>792.4000244140625</AltitudeMeters>
            <DistanceMeters>NAN</DistanceMeters>
          </Trackpoint>
          <Trackpoint>
            <Time>2020-12-05T13:39:34.000Z</Time>
            <Position>
              <LatitudeDegrees>36.8185927905142307281494140625</LatitudeDegrees>
              <LongitudeDegrees>-4.3847323022782802581787109375</LongitudeDegrees>
            </Position>
            <AltitudeMeters>792.4000244140625</AltitudeMeters>
            <DistanceMeters>NAN</DistanceMeters>
          </Trackpoint>
          <Trackpoint>
            <Time>2020-12-05T13:39:35.000Z</Time>
            <Position>
              <LatitudeDegrees>36.81859035976231098175048828125</LatitudeDegrees>
              <LongitudeDegrees>-4.38474562950432300567626953125</LongitudeDegrees>
            </Position>
            <AltitudeMeters>792.5999755859375</AltitudeMeters>
            <DistanceMeters>NAN</DistanceMeters>
          </Trackpoint>
          <Trackpoint>
            <Time>2020-12-05T13:39:36.000Z</Time>
            <Position>
              <LatitudeDegrees>36.81858533062040805816650390625</LatitudeDegrees>
              <LongitudeDegrees>-4.38475568778812885284423828125</LongitudeDegrees>
            </Position>
            <AltitudeMeters>792.5999755859375</AltitudeMeters>
            <DistanceMeters>NAN</DistanceMeters>
          </Trackpoint>
          <Trackpoint>
            <Time>2020-12-05T13:39:37.000Z</Time>
            <Position>
              <LatitudeDegrees>36.818578206002712249755859375</LatitudeDegrees>
              <LongitudeDegrees>-4.38476339913904666900634765625</LongitudeDegrees>
            </Position>
            <AltitudeMeters>792.79998779296875</AltitudeMeters>
            <DistanceMeters>NAN</DistanceMeters>
          </Trackpoint>
          <Trackpoint>
            <Time>2020-12-05T13:39:38.000Z</Time>
            <Position>
              <LatitudeDegrees>36.8185723386704921722412109375</LatitudeDegrees>
              <LongitudeDegrees>-4.384771697223186492919921875</LongitudeDegrees>
            </Position>
            <AltitudeMeters>792.79998779296875</AltitudeMeters>
            <DistanceMeters>NAN</DistanceMeters>
          </Trackpoint>
          <Trackpoint>
            <Time>2020-12-05T13:39:39.000Z</Time>
            <Position>
              <LatitudeDegrees>36.81856571696698665618896484375</LatitudeDegrees>
              <LongitudeDegrees>-4.38477949239313602447509765625</LongitudeDegrees>
            </Position>
            <AltitudeMeters>792.79998779296875</AltitudeMeters>
            <DistanceMeters>NAN</DistanceMeters>
          </Trackpoint>
          <Trackpoint>
            <Time>2020-12-05T13:39:41.000Z</Time>
            <Position>
              <LatitudeDegrees>36.81856043636798858642578125</LatitudeDegrees>
              <LongitudeDegrees>-4.38478837721049785614013671875</LongitudeDegrees>
            </Position>
            <AltitudeMeters>793</AltitudeMeters>
            <DistanceMeters>NAN</DistanceMeters>
          </Trackpoint>
          <Trackpoint>
            <Time>2020-12-05T13:39:42.000Z</Time>
            <Position>
              <LatitudeDegrees>36.8185569159686565399169921875</LatitudeDegrees>
              <LongitudeDegrees>-4.3848003633320331573486328125</LongitudeDegrees>
            </Position>
            <AltitudeMeters>793</AltitudeMeters>
            <DistanceMeters>NAN</DistanceMeters>
          </Trackpoint>
          <Trackpoint>
            <Time>2020-12-05T13:39:43.000Z</Time>
            <Position>
              <LatitudeDegrees>36.8185525573790073394775390625</LatitudeDegrees>
              <LongitudeDegrees>-4.384817965328693389892578125</LongitudeDegrees>
            </Position>
            <AltitudeMeters>793.20001220703125</AltitudeMeters>
            <DistanceMeters>NAN</DistanceMeters>
          </Trackpoint>
          <Trackpoint>
            <Time>2020-12-05T13:39:44.000Z</Time>
            <Position>
              <LatitudeDegrees>36.81854610331356525421142578125</LatitudeDegrees>
              <LongitudeDegrees>-4.38483699224889278411865234375</LongitudeDegrees>
            </Position>
            <AltitudeMeters>793.4000244140625</AltitudeMeters>
            <DistanceMeters>NAN</DistanceMeters>
          </Trackpoint>
          <Trackpoint>
            <Time>2020-12-05T13:39:45.000Z</Time>
            <Position>
              <LatitudeDegrees>36.81854258291423320770263671875</LatitudeDegrees>
              <LongitudeDegrees>-4.3848546780645847320556640625</LongitudeDegrees>
            </Position>
            <AltitudeMeters>793.5999755859375</AltitudeMeters>
            <DistanceMeters>NAN</DistanceMeters>
          </Trackpoint>
          <Trackpoint>
            <Time>2020-12-05T13:39:46.000Z</Time>
            <Position>
              <LatitudeDegrees>36.81853805668652057647705078125</LatitudeDegrees>
              <LongitudeDegrees>-4.3848712742328643798828125</LongitudeDegrees>
            </Position>
            <AltitudeMeters>793.79998779296875</AltitudeMeters>
            <DistanceMeters>NAN</DistanceMeters>
          </Trackpoint>
          <Trackpoint>
            <Time>2020-12-05T13:39:47.000Z</Time>
            <Position>
              <LatitudeDegrees>36.818535625934600830078125</LatitudeDegrees>
              <LongitudeDegrees>-4.38489063642919063568115234375</LongitudeDegrees>
            </Position>
            <AltitudeMeters>794</AltitudeMeters>
            <DistanceMeters>NAN</DistanceMeters>
          </Trackpoint>
          <Trackpoint>
            <Time>2020-12-05T13:39:48.000Z</Time>
            <Position>
              <LatitudeDegrees>36.81853235699236392974853515625</LatitudeDegrees>
              <LongitudeDegrees>-4.38490941189229488372802734375</LongitudeDegrees>
            </Position>
            <AltitudeMeters>794</AltitudeMeters>
            <DistanceMeters>NAN</DistanceMeters>
          </Trackpoint>
          <Trackpoint>
            <Time>2020-12-05T13:39:49.000Z</Time>
            <Position>
              <LatitudeDegrees>36.8185289204120635986328125</LatitudeDegrees>
              <LongitudeDegrees>-4.3849270977079868316650390625</LongitudeDegrees>
            </Position>
            <AltitudeMeters>794.20001220703125</AltitudeMeters>
            <DistanceMeters>NAN</DistanceMeters>
          </Trackpoint>
          <Trackpoint>
            <Time>2020-12-05T13:39:50.000Z</Time>
            <Position>
              <LatitudeDegrees>36.81852598674595355987548828125</LatitudeDegrees>
              <LongitudeDegrees>-4.3849436938762664794921875</LongitudeDegrees>
            </Position>
            <AltitudeMeters>794.4000244140625</AltitudeMeters>
            <DistanceMeters>NAN</DistanceMeters>
          </Trackpoint>
          <Trackpoint>
            <Time>2020-12-05T13:39:51.000Z</Time>
            <Position>
              <LatitudeDegrees>36.81852824985980987548828125</LatitudeDegrees>
              <LongitudeDegrees>-4.3849626369774341583251953125</LongitudeDegrees>
            </Position>
            <AltitudeMeters>794.4000244140625</AltitudeMeters>
            <DistanceMeters>NAN</DistanceMeters>
          </Trackpoint>
          <Trackpoint>
            <Time>2020-12-05T13:39:52.000Z</Time>
            <Position>
              <LatitudeDegrees>36.81852984242141246795654296875</LatitudeDegrees>
              <LongitudeDegrees>-4.38498082570731639862060546875</LongitudeDegrees>
            </Position>
            <AltitudeMeters>794.5999755859375</AltitudeMeters>
            <DistanceMeters>NAN</DistanceMeters>
          </Trackpoint>
          <Trackpoint>
            <Time>2020-12-05T13:39:53.000Z</Time>
            <Position>
              <LatitudeDegrees>36.81853034533560276031494140625</LatitudeDegrees>
              <LongitudeDegrees>-4.3849954940378665924072265625</LongitudeDegrees>
            </Position>
            <AltitudeMeters>794.5999755859375</AltitudeMeters>
            <DistanceMeters>NAN</DistanceMeters>
          </Trackpoint>
          <Trackpoint>
            <Time>2020-12-05T13:39:54.000Z</Time>
            <Position>
              <LatitudeDegrees>36.81852984242141246795654296875</LatitudeDegrees>
              <LongitudeDegrees>-4.3850122578442096710205078125</LongitudeDegrees>
            </Position>
            <AltitudeMeters>794.79998779296875</AltitudeMeters>
            <DistanceMeters>NAN</DistanceMeters>
          </Trackpoint>
          <Trackpoint>
            <Time>2020-12-05T13:39:55.000Z</Time>
            <Position>
              <LatitudeDegrees>36.81853001005947589874267578125</LatitudeDegrees>
              <LongitudeDegrees>-4.38502793200314044952392578125</LongitudeDegrees>
            </Position>
            <AltitudeMeters>794.79998779296875</AltitudeMeters>
            <DistanceMeters>NAN</DistanceMeters>
          </Trackpoint>
          <Trackpoint>
            <Time>2020-12-05T13:39:56.000Z</Time>
            <Position>
              <LatitudeDegrees>36.81852850131690502166748046875</LatitudeDegrees>
              <LongitudeDegrees>-4.38504201360046863555908203125</LongitudeDegrees>
            </Position>
            <AltitudeMeters>795</AltitudeMeters>
            <DistanceMeters>NAN</DistanceMeters>
          </Trackpoint>
          <Trackpoint>
            <Time>2020-12-05T13:39:57.000Z</Time>
            <Position>
              <LatitudeDegrees>36.81852716021239757537841796875</LatitudeDegrees>
              <LongitudeDegrees>-4.38505307771265506744384765625</LongitudeDegrees>
            </Position>
            <AltitudeMeters>795</AltitudeMeters>
            <DistanceMeters>NAN</DistanceMeters>
          </Trackpoint>
          <Trackpoint>
            <Time>2020-12-05T13:39:58.000Z</Time>
            <Position>
              <LatitudeDegrees>36.818526573479175567626953125</LatitudeDegrees>
              <LongitudeDegrees>-4.3850645609200000762939453125</LongitudeDegrees>
            </Position>
            <AltitudeMeters>795.4000244140625</AltitudeMeters>
            <DistanceMeters>NAN</DistanceMeters>
          </Trackpoint>
          <Trackpoint>
            <Time>2020-12-05T13:39:59.000Z</Time>
            <Position>
              <LatitudeDegrees>36.8185262382030487060546875</LatitudeDegrees>
              <LongitudeDegrees>-4.38507654704153537750244140625</LongitudeDegrees>
            </Position>
            <AltitudeMeters>795.5999755859375</AltitudeMeters>
            <DistanceMeters>NAN</DistanceMeters>
          </Trackpoint>
          <Trackpoint>
            <Time>2020-12-05T13:40:00.000Z</Time>
            <Position>
              <LatitudeDegrees>36.81852766312658786773681640625</LatitudeDegrees>
              <LongitudeDegrees>-4.3850910477340221405029296875</LongitudeDegrees>
            </Position>
            <AltitudeMeters>796</AltitudeMeters>
            <DistanceMeters>NAN</DistanceMeters>
          </Trackpoint>
          <Trackpoint>
            <Time>2020-12-05T13:40:01.000Z</Time>
            <Position>
              <LatitudeDegrees>36.8185329437255859375</LatitudeDegrees>
              <LongitudeDegrees>-4.38510420732200145721435546875</LongitudeDegrees>
            </Position>
            <AltitudeMeters>796.20001220703125</AltitudeMeters>
            <DistanceMeters>NAN</DistanceMeters>
          </Trackpoint>
          <Trackpoint>
            <Time>2020-12-05T13:40:02.000Z</Time>
            <Position>
              <LatitudeDegrees>36.8185361288487911224365234375</LatitudeDegrees>
              <LongitudeDegrees>-4.385119713842868804931640625</LongitudeDegrees>
            </Position>
            <AltitudeMeters>796.4000244140625</AltitudeMeters>
            <DistanceMeters>NAN</DistanceMeters>
          </Trackpoint>
          <Trackpoint>
            <Time>2020-12-05T13:40:03.000Z</Time>
            <Position>
              <LatitudeDegrees>36.8185388110578060150146484375</LatitudeDegrees>
              <LongitudeDegrees>-4.3851336278021335601806640625</LongitudeDegrees>
            </Position>
            <AltitudeMeters>796.79998779296875</AltitudeMeters>
            <DistanceMeters>NAN</DistanceMeters>
          </Trackpoint>
          <Trackpoint>
            <Time>2020-12-05T13:40:04.000Z</Time>
            <Position>
              <LatitudeDegrees>36.8185408227145671844482421875</LatitudeDegrees>
              <LongitudeDegrees>-4.3851467035710811614990234375</LongitudeDegrees>
            </Position>
            <AltitudeMeters>797.20001220703125</AltitudeMeters>
            <DistanceMeters>NAN</DistanceMeters>
          </Trackpoint>
          <Trackpoint>
            <Time>2020-12-05T13:40:05.000Z</Time>
            <Position>
              <LatitudeDegrees>36.81854325346648693084716796875</LatitudeDegrees>
              <LongitudeDegrees>-4.3851609528064727783203125</LongitudeDegrees>
            </Position>
            <AltitudeMeters>797.4000244140625</AltitudeMeters>
            <DistanceMeters>NAN</DistanceMeters>
          </Trackpoint>
          <Trackpoint>
            <Time>2020-12-05T13:40:06.000Z</Time>
            <Position>
              <LatitudeDegrees>36.8185465224087238311767578125</LatitudeDegrees>
              <LongitudeDegrees>-4.3851765431463718414306640625</LongitudeDegrees>
            </Position>
            <AltitudeMeters>797.5999755859375</AltitudeMeters>
            <DistanceMeters>NAN</DistanceMeters>
          </Trackpoint>
          <Trackpoint>
            <Time>2020-12-05T13:40:07.000Z</Time>
            <Position>
              <LatitudeDegrees>36.8185488693416118621826171875</LatitudeDegrees>
              <LongitudeDegrees>-4.3851899541914463043212890625</LongitudeDegrees>
            </Position>
            <AltitudeMeters>797.79998779296875</AltitudeMeters>
            <DistanceMeters>NAN</DistanceMeters>
          </Trackpoint>
          <Trackpoint>
            <Time>2020-12-05T13:40:08.000Z</Time>
            <Position>
              <LatitudeDegrees>36.8185503780841827392578125</LatitudeDegrees>
              <LongitudeDegrees>-4.38520227558910846710205078125</LongitudeDegrees>
            </Position>
            <AltitudeMeters>797.79998779296875</AltitudeMeters>
            <DistanceMeters>NAN</DistanceMeters>
          </Trackpoint>
          <Trackpoint>
            <Time>2020-12-05T13:40:09.000Z</Time>
            <Position>
              <LatitudeDegrees>36.81855213828384876251220703125</LatitudeDegrees>
              <LongitudeDegrees>-4.385215938091278076171875</LongitudeDegrees>
            </Position>
            <AltitudeMeters>797.79998779296875</AltitudeMeters>
            <DistanceMeters>NAN</DistanceMeters>
          </Trackpoint>
          <Trackpoint>
            <Time>2020-12-05T13:40:10.000Z</Time>
            <Position>
              <LatitudeDegrees>36.81855314411222934722900390625</LatitudeDegrees>
              <LongitudeDegrees>-4.3852325342595577239990234375</LongitudeDegrees>
            </Position>
            <AltitudeMeters>798</AltitudeMeters>
            <DistanceMeters>NAN</DistanceMeters>
          </Trackpoint>
          <Trackpoint>
            <Time>2020-12-05T13:40:11.000Z</Time>
            <Position>
              <LatitudeDegrees>36.81855364702641963958740234375</LatitudeDegrees>
              <LongitudeDegrees>-4.385249800980091094970703125</LongitudeDegrees>
            </Position>
            <AltitudeMeters>798</AltitudeMeters>
            <DistanceMeters>NAN</DistanceMeters>
          </Trackpoint>
          <Trackpoint>
            <Time>2020-12-05T13:40:12.000Z</Time>
            <Position>
              <LatitudeDegrees>36.81855699978768825531005859375</LatitudeDegrees>
              <LongitudeDegrees>-4.38526757061481475830078125</LongitudeDegrees>
            </Position>
            <AltitudeMeters>798</AltitudeMeters>
            <DistanceMeters>NAN</DistanceMeters>
          </Trackpoint>
          <Trackpoint>
            <Time>2020-12-05T13:40:13.000Z</Time>
            <Position>
              <LatitudeDegrees>36.8185582570731639862060546875</LatitudeDegrees>
              <LongitudeDegrees>-4.385279975831508636474609375</LongitudeDegrees>
            </Position>
            <AltitudeMeters>798</AltitudeMeters>
            <DistanceMeters>NAN</DistanceMeters>
          </Trackpoint>
          <Trackpoint>
            <Time>2020-12-05T13:40:14.000Z</Time>
            <Position>
              <LatitudeDegrees>36.8185609392821788787841796875</LatitudeDegrees>
              <LongitudeDegrees>-4.38529573380947113037109375</LongitudeDegrees>
            </Position>
            <AltitudeMeters>798.20001220703125</AltitudeMeters>
            <DistanceMeters>NAN</DistanceMeters>
          </Trackpoint>
          <Trackpoint>
            <Time>2020-12-05T13:40:15.000Z</Time>
            <Position>
              <LatitudeDegrees>36.8185642920434474945068359375</LatitudeDegrees>
              <LongitudeDegrees>-4.3853109888732433319091796875</LongitudeDegrees>
            </Position>
            <AltitudeMeters>798.20001220703125</AltitudeMeters>
            <DistanceMeters>NAN</DistanceMeters>
          </Trackpoint>
          <Trackpoint>
            <Time>2020-12-05T13:40:16.000Z</Time>
            <Position>
              <LatitudeDegrees>36.81856890209019184112548828125</LatitudeDegrees>
              <LongitudeDegrees>-4.385324902832508087158203125</LongitudeDegrees>
            </Position>
            <AltitudeMeters>798.20001220703125</AltitudeMeters>
            <DistanceMeters>NAN</DistanceMeters>
          </Trackpoint>
          <Trackpoint>
            <Time>2020-12-05T13:40:17.000Z</Time>
            <Position>
              <LatitudeDegrees>36.81857309304177761077880859375</LatitudeDegrees>
              <LongitudeDegrees>-4.3853374756872653961181640625</LongitudeDegrees>
            </Position>
            <AltitudeMeters>798.20001220703125</AltitudeMeters>
            <DistanceMeters>NAN</DistanceMeters>
          </Trackpoint>
          <Trackpoint>
            <Time>2020-12-05T13:40:18.000Z</Time>
            <Position>
              <LatitudeDegrees>36.81857795454561710357666015625</LatitudeDegrees>
              <LongitudeDegrees>-4.38534996472299098968505859375</LongitudeDegrees>
            </Position>
            <AltitudeMeters>798</AltitudeMeters>
            <DistanceMeters>NAN</DistanceMeters>
          </Trackpoint>
          <Trackpoint>
            <Time>2020-12-05T13:40:19.000Z</Time>
            <Position>
              <LatitudeDegrees>36.81858415715396404266357421875</LatitudeDegrees>
              <LongitudeDegrees>-4.38536278903484344482421875</LongitudeDegrees>
            </Position>
            <AltitudeMeters>798</AltitudeMeters>
            <DistanceMeters>NAN</DistanceMeters>
          </Trackpoint>
          <Trackpoint>
            <Time>2020-12-05T13:40:20.000Z</Time>
            <Position>
              <LatitudeDegrees>36.8185917846858501434326171875</LatitudeDegrees>
              <LongitudeDegrees>-4.385375864803791046142578125</LongitudeDegrees>
            </Position>
            <AltitudeMeters>798</AltitudeMeters>
            <DistanceMeters>NAN</DistanceMeters>
          </Trackpoint>
          <Trackpoint>
            <Time>2020-12-05T13:40:21.000Z</Time>
            <Position>
              <LatitudeDegrees>36.81860025040805339813232421875</LatitudeDegrees>
              <LongitudeDegrees>-4.38539019785821437835693359375</LongitudeDegrees>
            </Position>
            <AltitudeMeters>797.79998779296875</AltitudeMeters>
            <DistanceMeters>NAN</DistanceMeters>
          </Trackpoint>
          <Trackpoint>
            <Time>2020-12-05T13:40:22.000Z</Time>
            <Position>
              <LatitudeDegrees>36.81860947050154209136962890625</LatitudeDegrees>
              <LongitudeDegrees>-4.38540427945554256439208984375</LongitudeDegrees>
            </Position>
            <AltitudeMeters>797.79998779296875</AltitudeMeters>
            <DistanceMeters>NAN</DistanceMeters>
          </Trackpoint>
          <Trackpoint>
            <Time>2020-12-05T13:40:23.000Z</Time>
            <Position>
              <LatitudeDegrees>36.8186174333095550537109375</LatitudeDegrees>
              <LongitudeDegrees>-4.38542087562382221221923828125</LongitudeDegrees>
            </Position>
            <AltitudeMeters>797.79998779296875</AltitudeMeters>
            <DistanceMeters>NAN</DistanceMeters>
          </Trackpoint>
          <Trackpoint>
            <Time>2020-12-05T13:40:24.000Z</Time>
            <Position>
              <LatitudeDegrees>36.81862221099436283111572265625</LatitudeDegrees>
              <LongitudeDegrees>-4.38543763943016529083251953125</LongitudeDegrees>
            </Position>
            <AltitudeMeters>798</AltitudeMeters>
            <DistanceMeters>NAN</DistanceMeters>
          </Trackpoint>
          <Trackpoint>
            <Time>2020-12-05T13:40:25.000Z</Time>
            <Position>
              <LatitudeDegrees>36.81862615048885345458984375</LatitudeDegrees>
              <LongitudeDegrees>-4.3854534812271595001220703125</LongitudeDegrees>
            </Position>
            <AltitudeMeters>798</AltitudeMeters>
            <DistanceMeters>NAN</DistanceMeters>
          </Trackpoint>
          <Trackpoint>
            <Time>2020-12-05T13:40:26.000Z</Time>
            <Position>
              <LatitudeDegrees>36.8186286650598049163818359375</LatitudeDegrees>
              <LongitudeDegrees>-4.3854694068431854248046875</LongitudeDegrees>
            </Position>
            <AltitudeMeters>798.20001220703125</AltitudeMeters>
            <DistanceMeters>NAN</DistanceMeters>
          </Trackpoint>
          <Trackpoint>
            <Time>2020-12-05T13:40:27.000Z</Time>
            <Position>
              <LatitudeDegrees>36.81863151490688323974609375</LatitudeDegrees>
              <LongitudeDegrees>-4.38548742793500423431396484375</LongitudeDegrees>
            </Position>
            <AltitudeMeters>798.4000244140625</AltitudeMeters>
            <DistanceMeters>NAN</DistanceMeters>
          </Trackpoint>
          <Trackpoint>
            <Time>2020-12-05T13:40:28.000Z</Time>
            <Position>
              <LatitudeDegrees>36.81863285601139068603515625</LatitudeDegrees>
              <LongitudeDegrees>-4.38550201244652271270751953125</LongitudeDegrees>
            </Position>
            <AltitudeMeters>798.5999755859375</AltitudeMeters>
            <DistanceMeters>NAN</DistanceMeters>
          </Trackpoint>
          <Trackpoint>
            <Time>2020-12-05T13:40:29.000Z</Time>
            <Position>
              <LatitudeDegrees>36.818634532392024993896484375</LatitudeDegrees>
              <LongitudeDegrees>-4.38551299273967742919921875</LongitudeDegrees>
            </Position>
            <AltitudeMeters>799</AltitudeMeters>
            <DistanceMeters>NAN</DistanceMeters>
          </Trackpoint>
          <Trackpoint>
            <Time>2020-12-05T13:40:30.000Z</Time>
            <Position>
              <LatitudeDegrees>36.81863679550588130950927734375</LatitudeDegrees>
              <LongitudeDegrees>-4.385524727404117584228515625</LongitudeDegrees>
            </Position>
            <AltitudeMeters>799.20001220703125</AltitudeMeters>
            <DistanceMeters>NAN</DistanceMeters>
          </Trackpoint>
          <Trackpoint>
            <Time>2020-12-05T13:40:31.000Z</Time>
            <Position>
              <LatitudeDegrees>36.818637214601039886474609375</LatitudeDegrees>
              <LongitudeDegrees>-4.38553319312632083892822265625</LongitudeDegrees>
            </Position>
            <AltitudeMeters>799.4000244140625</AltitudeMeters>
            <DistanceMeters>NAN</DistanceMeters>
          </Trackpoint>
          <Trackpoint>
            <Time>2020-12-05T13:40:32.000Z</Time>
            <Position>
              <LatitudeDegrees>36.81863713078200817108154296875</LatitudeDegrees>
              <LongitudeDegrees>-4.385536797344684600830078125</LongitudeDegrees>
            </Position>
            <AltitudeMeters>799.4000244140625</AltitudeMeters>
            <DistanceMeters>NAN</DistanceMeters>
          </Trackpoint>
          <Trackpoint>
            <Time>2020-12-05T13:40:33.000Z</Time>
            <Position>
              <LatitudeDegrees>36.818640567362308502197265625</LatitudeDegrees>
              <LongitudeDegrees>-4.38554476015269756317138671875</LongitudeDegrees>
            </Position>
            <AltitudeMeters>799.4000244140625</AltitudeMeters>
            <DistanceMeters>NAN</DistanceMeters>
          </Trackpoint>
          <Trackpoint>
            <Time>2020-12-05T13:40:34.000Z</Time>
            <Position>
              <LatitudeDegrees>36.8186481110751628875732421875</LatitudeDegrees>
              <LongitudeDegrees>-4.38554920256137847900390625</LongitudeDegrees>
            </Position>
            <AltitudeMeters>799.4000244140625</AltitudeMeters>
            <DistanceMeters>NAN</DistanceMeters>
          </Trackpoint>
          <Trackpoint>
            <Time>2020-12-05T13:40:35.000Z</Time>
            <Position>
              <LatitudeDegrees>36.81865724734961986541748046875</LatitudeDegrees>
              <LongitudeDegrees>-4.3855584226548671722412109375</LongitudeDegrees>
            </Position>
            <AltitudeMeters>799.4000244140625</AltitudeMeters>
            <DistanceMeters>NAN</DistanceMeters>
          </Trackpoint>
          <Trackpoint>
            <Time>2020-12-05T13:40:36.000Z</Time>
            <Position>
              <LatitudeDegrees>36.81866479106247425079345703125</LatitudeDegrees>
              <LongitudeDegrees>-4.38557225279510021209716796875</LongitudeDegrees>
            </Position>
            <AltitudeMeters>799.4000244140625</AltitudeMeters>
            <DistanceMeters>NAN</DistanceMeters>
          </Trackpoint>
          <Trackpoint>
            <Time>2020-12-05T13:40:37.000Z</Time>
            <Position>
              <LatitudeDegrees>36.81867350824177265167236328125</LatitudeDegrees>
              <LongitudeDegrees>-4.385583736002445220947265625</LongitudeDegrees>
            </Position>
            <AltitudeMeters>799.4000244140625</AltitudeMeters>
            <DistanceMeters>NAN</DistanceMeters>
          </Trackpoint>
          <Trackpoint>
            <Time>2020-12-05T13:40:38.000Z</Time>
            <Position>
              <LatitudeDegrees>36.81868239305913448333740234375</LatitudeDegrees>
              <LongitudeDegrees>-4.3855941295623779296875</LongitudeDegrees>
            </Position>
            <AltitudeMeters>799.5999755859375</AltitudeMeters>
            <DistanceMeters>NAN</DistanceMeters>
          </Trackpoint>
          <Trackpoint>
            <Time>2020-12-05T13:40:39.000Z</Time>
            <Position>
              <LatitudeDegrees>36.818693540990352630615234375</LatitudeDegrees>
              <LongitudeDegrees>-4.385607875883579254150390625</LongitudeDegrees>
            </Position>
            <AltitudeMeters>799.5999755859375</AltitudeMeters>
            <DistanceMeters>NAN</DistanceMeters>
          </Trackpoint>
          <Trackpoint>
            <Time>2020-12-05T13:40:40.000Z</Time>
            <Position>
              <LatitudeDegrees>36.81870619766414165496826171875</LatitudeDegrees>
              <LongitudeDegrees>-4.38562405295670032501220703125</LongitudeDegrees>
            </Position>
            <AltitudeMeters>799.5999755859375</AltitudeMeters>
            <DistanceMeters>NAN</DistanceMeters>
          </Trackpoint>
          <Trackpoint>
            <Time>2020-12-05T13:40:41.000Z</Time>
            <Position>
              <LatitudeDegrees>36.81872078217566013336181640625</LatitudeDegrees>
              <LongitudeDegrees>-4.38564165495336055755615234375</LongitudeDegrees>
            </Position>
            <AltitudeMeters>799.5999755859375</AltitudeMeters>
            <DistanceMeters>NAN</DistanceMeters>
          </Trackpoint>
          <Trackpoint>
            <Time>2020-12-05T13:40:42.000Z</Time>
            <Position>
              <LatitudeDegrees>36.81873343884944915771484375</LatitudeDegrees>
              <LongitudeDegrees>-4.385658837854862213134765625</LongitudeDegrees>
            </Position>
            <AltitudeMeters>799.5999755859375</AltitudeMeters>
            <DistanceMeters>NAN</DistanceMeters>
          </Trackpoint>
          <Trackpoint>
            <Time>2020-12-05T13:40:43.000Z</Time>
            <Position>
              <LatitudeDegrees>36.818743161857128143310546875</LatitudeDegrees>
              <LongitudeDegrees>-4.38567065633833408355712890625</LongitudeDegrees>
            </Position>
            <AltitudeMeters>799.5999755859375</AltitudeMeters>
            <DistanceMeters>NAN</DistanceMeters>
          </Trackpoint>
          <Trackpoint>
            <Time>2020-12-05T13:40:44.000Z</Time>
            <Position>
              <LatitudeDegrees>36.81875145994126796722412109375</LatitudeDegrees>
              <LongitudeDegrees>-4.385682307183742523193359375</LongitudeDegrees>
            </Position>
            <AltitudeMeters>799.79998779296875</AltitudeMeters>
            <DistanceMeters>NAN</DistanceMeters>
          </Trackpoint>
          <Trackpoint>
            <Time>2020-12-05T13:40:45.000Z</Time>
            <Position>
              <LatitudeDegrees>36.8187587521970272064208984375</LatitudeDegrees>
              <LongitudeDegrees>-4.38569311983883380889892578125</LongitudeDegrees>
            </Position>
            <AltitudeMeters>799.79998779296875</AltitudeMeters>
            <DistanceMeters>NAN</DistanceMeters>
          </Trackpoint>
          <Trackpoint>
            <Time>2020-12-05T13:40:46.000Z</Time>
            <Position>
              <LatitudeDegrees>36.8187637813389301300048828125</LatitudeDegrees>
              <LongitudeDegrees>-4.38570736907422542572021484375</LongitudeDegrees>
            </Position>
            <AltitudeMeters>800.20001220703125</AltitudeMeters>
            <DistanceMeters>NAN</DistanceMeters>
          </Trackpoint>
          <Trackpoint>
            <Time>2020-12-05T13:40:47.000Z</Time>
            <Position>
              <LatitudeDegrees>36.8187674693763256072998046875</LatitudeDegrees>
              <LongitudeDegrees>-4.3857215344905853271484375</LongitudeDegrees>
            </Position>
            <AltitudeMeters>800.4000244140625</AltitudeMeters>
            <DistanceMeters>NAN</DistanceMeters>
          </Trackpoint>
          <Trackpoint>
            <Time>2020-12-05T13:40:48.000Z</Time>
            <Position>
              <LatitudeDegrees>36.818769313395023345947265625</LatitudeDegrees>
              <LongitudeDegrees>-4.38574366271495819091796875</LongitudeDegrees>
            </Position>
            <AltitudeMeters>800.5999755859375</AltitudeMeters>
            <DistanceMeters>NAN</DistanceMeters>
          </Trackpoint>
          <Trackpoint>
            <Time>2020-12-05T13:40:49.000Z</Time>
            <Position>
              <LatitudeDegrees>36.81877627037465572357177734375</LatitudeDegrees>
              <LongitudeDegrees>-4.38575363717973232269287109375</LongitudeDegrees>
            </Position>
            <AltitudeMeters>800.5999755859375</AltitudeMeters>
            <DistanceMeters>NAN</DistanceMeters>
          </Trackpoint>
          <Trackpoint>
            <Time>2020-12-05T13:40:50.000Z</Time>
            <Position>
              <LatitudeDegrees>36.81877995841205120086669921875</LatitudeDegrees>
              <LongitudeDegrees>-4.385765455663204193115234375</LongitudeDegrees>
            </Position>
            <AltitudeMeters>800.79998779296875</AltitudeMeters>
            <DistanceMeters>NAN</DistanceMeters>
          </Trackpoint>
          <Trackpoint>
            <Time>2020-12-05T13:40:51.000Z</Time>
            <Position>
              <LatitudeDegrees>36.81878364644944667816162109375</LatitudeDegrees>
              <LongitudeDegrees>-4.385776184499263763427734375</LongitudeDegrees>
            </Position>
            <AltitudeMeters>800.79998779296875</AltitudeMeters>
            <DistanceMeters>NAN</DistanceMeters>
          </Trackpoint>
          <Trackpoint>
            <Time>2020-12-05T13:40:52.000Z</Time>
            <Position>
              <LatitudeDegrees>36.81878733448684215545654296875</LatitudeDegrees>
              <LongitudeDegrees>-4.385787583887577056884765625</LongitudeDegrees>
            </Position>
            <AltitudeMeters>800.79998779296875</AltitudeMeters>
            <DistanceMeters>NAN</DistanceMeters>
          </Trackpoint>
          <Trackpoint>
            <Time>2020-12-05T13:40:53.000Z</Time>
            <Position>
              <LatitudeDegrees>36.81878968141973018646240234375</LatitudeDegrees>
              <LongitudeDegrees>-4.385795630514621734619140625</LongitudeDegrees>
            </Position>
            <AltitudeMeters>800.79998779296875</AltitudeMeters>
            <DistanceMeters>NAN</DistanceMeters>
          </Trackpoint>
          <Trackpoint>
            <Time>2020-12-05T13:40:54.000Z</Time>
            <Position>
              <LatitudeDegrees>36.81879135780036449432373046875</LatitudeDegrees>
              <LongitudeDegrees>-4.38580376096069812774658203125</LongitudeDegrees>
            </Position>
            <AltitudeMeters>800.79998779296875</AltitudeMeters>
            <DistanceMeters>NAN</DistanceMeters>
          </Trackpoint>
          <Trackpoint>
            <Time>2020-12-05T13:40:55.000Z</Time>
            <Position>
              <LatitudeDegrees>36.8187952972948551177978515625</LatitudeDegrees>
              <LongitudeDegrees>-4.38581448979675769805908203125</LongitudeDegrees>
            </Position>
            <AltitudeMeters>801</AltitudeMeters>
            <DistanceMeters>NAN</DistanceMeters>
          </Trackpoint>
          <Trackpoint>
            <Time>2020-12-05T13:40:56.000Z</Time>
            <Position>
              <LatitudeDegrees>36.8187996558845043182373046875</LatitudeDegrees>
              <LongitudeDegrees>-4.38582547008991241455078125</LongitudeDegrees>
            </Position>
            <AltitudeMeters>801</AltitudeMeters>
            <DistanceMeters>NAN</DistanceMeters>
          </Trackpoint>
          <Trackpoint>
            <Time>2020-12-05T13:40:57.000Z</Time>
            <Position>
              <LatitudeDegrees>36.81880510412156581878662109375</LatitudeDegrees>
              <LongitudeDegrees>-4.38583561219274997711181640625</LongitudeDegrees>
            </Position>
            <AltitudeMeters>801</AltitudeMeters>
            <DistanceMeters>NAN</DistanceMeters>
          </Trackpoint>
          <Trackpoint>
            <Time>2020-12-05T13:40:58.000Z</Time>
            <Position>
              <LatitudeDegrees>36.81880963034927845001220703125</LatitudeDegrees>
              <LongitudeDegrees>-4.38584181480109691619873046875</LongitudeDegrees>
            </Position>
            <AltitudeMeters>801.20001220703125</AltitudeMeters>
            <DistanceMeters>NAN</DistanceMeters>
          </Trackpoint>
          <Trackpoint>
            <Time>2020-12-05T13:40:59.000Z</Time>
            <Position>
              <LatitudeDegrees>36.81881331838667392730712890625</LatitudeDegrees>
              <LongitudeDegrees>-4.38584852032363414764404296875</LongitudeDegrees>
            </Position>
            <AltitudeMeters>801.4000244140625</AltitudeMeters>
            <DistanceMeters>NAN</DistanceMeters>
          </Trackpoint>
          <Trackpoint>
            <Time>2020-12-05T13:41:00.000Z</Time>
            <Position>
              <LatitudeDegrees>36.8188150785863399505615234375</LatitudeDegrees>
              <LongitudeDegrees>-4.3858578242361545562744140625</LongitudeDegrees>
            </Position>
            <AltitudeMeters>801.5999755859375</AltitudeMeters>
            <DistanceMeters>NAN</DistanceMeters>
          </Trackpoint>
          <Trackpoint>
            <Time>2020-12-05T13:41:01.000Z</Time>
            <Position>
              <LatitudeDegrees>36.8188185989856719970703125</LatitudeDegrees>
              <LongitudeDegrees>-4.3858685530722141265869140625</LongitudeDegrees>
            </Position>
            <AltitudeMeters>801.79998779296875</AltitudeMeters>
            <DistanceMeters>NAN</DistanceMeters>
          </Trackpoint>
          <Trackpoint>
            <Time>2020-12-05T13:41:02.000Z</Time>
            <Position>
              <LatitudeDegrees>36.8188221193850040435791015625</LatitudeDegrees>
              <LongitudeDegrees>-4.38587333075702190399169921875</LongitudeDegrees>
            </Position>
            <AltitudeMeters>802</AltitudeMeters>
            <DistanceMeters>NAN</DistanceMeters>
          </Trackpoint>
          <Trackpoint>
            <Time>2020-12-05T13:41:03.000Z</Time>
            <Position>
              <LatitudeDegrees>36.8188227899372577667236328125</LatitudeDegrees>
              <LongitudeDegrees>-4.38588204793632030487060546875</LongitudeDegrees>
            </Position>
            <AltitudeMeters>802.20001220703125</AltitudeMeters>
            <DistanceMeters>NAN</DistanceMeters>
          </Trackpoint>
          <Trackpoint>
            <Time>2020-12-05T13:41:04.000Z</Time>
            <Position>
              <LatitudeDegrees>36.81881834752857685089111328125</LatitudeDegrees>
              <LongitudeDegrees>-4.38589646480977535247802734375</LongitudeDegrees>
            </Position>
            <AltitudeMeters>802.4000244140625</AltitudeMeters>
            <DistanceMeters>NAN</DistanceMeters>
          </Trackpoint>
          <Trackpoint>
            <Time>2020-12-05T13:41:05.000Z</Time>
            <Position>
              <LatitudeDegrees>36.81881331838667392730712890625</LatitudeDegrees>
              <LongitudeDegrees>-4.38590937294065952301025390625</LongitudeDegrees>
            </Position>
            <AltitudeMeters>802.4000244140625</AltitudeMeters>
            <DistanceMeters>NAN</DistanceMeters>
          </Trackpoint>
          <Trackpoint>
            <Time>2020-12-05T13:41:06.000Z</Time>
            <Position>
              <LatitudeDegrees>36.81881248019635677337646484375</LatitudeDegrees>
              <LongitudeDegrees>-4.3859188444912433624267578125</LongitudeDegrees>
            </Position>
            <AltitudeMeters>802.5999755859375</AltitudeMeters>
            <DistanceMeters>NAN</DistanceMeters>
          </Trackpoint>
          <Trackpoint>
            <Time>2020-12-05T13:41:07.000Z</Time>
            <Position>
              <LatitudeDegrees>36.8188110552728176116943359375</LatitudeDegrees>
              <LongitudeDegrees>-4.38593208789825439453125</LongitudeDegrees>
            </Position>
            <AltitudeMeters>802.79998779296875</AltitudeMeters>
            <DistanceMeters>NAN</DistanceMeters>
          </Trackpoint>
          <Trackpoint>
            <Time>2020-12-05T13:41:08.000Z</Time>
            <Position>
              <LatitudeDegrees>36.81880812160670757293701171875</LatitudeDegrees>
              <LongitudeDegrees>-4.38594692386686801910400390625</LongitudeDegrees>
            </Position>
            <AltitudeMeters>803</AltitudeMeters>
            <DistanceMeters>NAN</DistanceMeters>
          </Trackpoint>
          <Trackpoint>
            <Time>2020-12-05T13:41:09.000Z</Time>
            <Position>
              <LatitudeDegrees>36.81880393065512180328369140625</LatitudeDegrees>
              <LongitudeDegrees>-4.385961592197418212890625</LongitudeDegrees>
            </Position>
            <AltitudeMeters>803.20001220703125</AltitudeMeters>
            <DistanceMeters>NAN</DistanceMeters>
          </Trackpoint>
          <Trackpoint>
            <Time>2020-12-05T13:41:10.000Z</Time>
            <Position>
              <LatitudeDegrees>36.81880007497966289520263671875</LatitudeDegrees>
              <LongitudeDegrees>-4.38597843982279300689697265625</LongitudeDegrees>
            </Position>
            <AltitudeMeters>803.4000244140625</AltitudeMeters>
            <DistanceMeters>NAN</DistanceMeters>
          </Trackpoint>
          <Trackpoint>
            <Time>2020-12-05T13:41:11.000Z</Time>
            <Position>
              <LatitudeDegrees>36.81879219599068164825439453125</LatitudeDegrees>
              <LongitudeDegrees>-4.3859978020191192626953125</LongitudeDegrees>
            </Position>
            <AltitudeMeters>803.5999755859375</AltitudeMeters>
            <DistanceMeters>NAN</DistanceMeters>
          </Trackpoint>
          <Trackpoint>
            <Time>2020-12-05T13:41:12.000Z</Time>
            <Position>
              <LatitudeDegrees>36.818788088858127593994140625</LatitudeDegrees>
              <LongitudeDegrees>-4.38601179979741573333740234375</LongitudeDegrees>
            </Position>
            <AltitudeMeters>803.79998779296875</AltitudeMeters>
            <DistanceMeters>NAN</DistanceMeters>
          </Trackpoint>
          <Trackpoint>
            <Time>2020-12-05T13:41:13.000Z</Time>
            <Position>
              <LatitudeDegrees>36.81878532283008098602294921875</LatitudeDegrees>
              <LongitudeDegrees>-4.3860257975757122039794921875</LongitudeDegrees>
            </Position>
            <AltitudeMeters>804.20001220703125</AltitudeMeters>
            <DistanceMeters>NAN</DistanceMeters>
          </Trackpoint>
          <Trackpoint>
            <Time>2020-12-05T13:41:14.000Z</Time>
            <Position>
              <LatitudeDegrees>36.8187822215259075164794921875</LatitudeDegrees>
              <LongitudeDegrees>-4.38603962771594524383544921875</LongitudeDegrees>
            </Position>
            <AltitudeMeters>804.5999755859375</AltitudeMeters>
            <DistanceMeters>NAN</DistanceMeters>
          </Trackpoint>
          <Trackpoint>
            <Time>2020-12-05T13:41:15.000Z</Time>
            <Position>
              <LatitudeDegrees>36.8187802098691463470458984375</LatitudeDegrees>
              <LongitudeDegrees>-4.38604968599975109100341796875</LongitudeDegrees>
            </Position>
            <AltitudeMeters>804.79998779296875</AltitudeMeters>
            <DistanceMeters>NAN</DistanceMeters>
          </Trackpoint>
          <Trackpoint>
            <Time>2020-12-05T13:41:16.000Z</Time>
            <Position>
              <LatitudeDegrees>36.8187751807272434234619140625</LatitudeDegrees>
              <LongitudeDegrees>-4.38605873845517635345458984375</LongitudeDegrees>
            </Position>
            <AltitudeMeters>805</AltitudeMeters>
            <DistanceMeters>NAN</DistanceMeters>
          </Trackpoint>
          <Trackpoint>
            <Time>2020-12-05T13:41:17.000Z</Time>
            <Position>
              <LatitudeDegrees>36.8187671341001987457275390625</LatitudeDegrees>
              <LongitudeDegrees>-4.3860690481960773468017578125</LongitudeDegrees>
            </Position>
            <AltitudeMeters>805.20001220703125</AltitudeMeters>
            <DistanceMeters>NAN</DistanceMeters>
          </Trackpoint>
          <Trackpoint>
            <Time>2020-12-05T13:41:18.000Z</Time>
            <Position>
              <LatitudeDegrees>36.81875900365412235260009765625</LatitudeDegrees>
              <LongitudeDegrees>-4.38608027994632720947265625</LongitudeDegrees>
            </Position>
            <AltitudeMeters>805.4000244140625</AltitudeMeters>
            <DistanceMeters>NAN</DistanceMeters>
          </Trackpoint>
          <Trackpoint>
            <Time>2020-12-05T13:41:19.000Z</Time>
            <Position>
              <LatitudeDegrees>36.81874777190387248992919921875</LatitudeDegrees>
              <LongitudeDegrees>-4.386090673506259918212890625</LongitudeDegrees>
            </Position>
            <AltitudeMeters>805.5999755859375</AltitudeMeters>
            <DistanceMeters>NAN</DistanceMeters>
          </Trackpoint>
          <Trackpoint>
            <Time>2020-12-05T13:41:20.000Z</Time>
            <Position>
              <LatitudeDegrees>36.81873821653425693511962890625</LatitudeDegrees>
              <LongitudeDegrees>-4.38609771430492401123046875</LongitudeDegrees>
            </Position>
            <AltitudeMeters>805.79998779296875</AltitudeMeters>
            <DistanceMeters>NAN</DistanceMeters>
          </Trackpoint>
          <Trackpoint>
            <Time>2020-12-05T13:41:21.000Z</Time>
            <Position>
              <LatitudeDegrees>36.81873251684010028839111328125</LatitudeDegrees>
              <LongitudeDegrees>-4.386106096208095550537109375</LongitudeDegrees>
            </Position>
            <AltitudeMeters>806</AltitudeMeters>
            <DistanceMeters>NAN</DistanceMeters>
          </Trackpoint>
          <Trackpoint>
            <Time>2020-12-05T13:41:22.000Z</Time>
            <Position>
              <LatitudeDegrees>36.818726062774658203125</LatitudeDegrees>
              <LongitudeDegrees>-4.38611757941544055938720703125</LongitudeDegrees>
            </Position>
            <AltitudeMeters>806</AltitudeMeters>
            <DistanceMeters>NAN</DistanceMeters>
          </Trackpoint>
          <Trackpoint>
            <Time>2020-12-05T13:41:23.000Z</Time>
            <Position>
              <LatitudeDegrees>36.81871793232858180999755859375</LatitudeDegrees>
              <LongitudeDegrees>-4.38613124191761016845703125</LongitudeDegrees>
            </Position>
            <AltitudeMeters>806.20001220703125</AltitudeMeters>
            <DistanceMeters>NAN</DistanceMeters>
          </Trackpoint>
          <Trackpoint>
            <Time>2020-12-05T13:41:24.000Z</Time>
            <Position>
              <LatitudeDegrees>36.8187118135392665863037109375</LatitudeDegrees>
              <LongitudeDegrees>-4.38614054583013057708740234375</LongitudeDegrees>
            </Position>
            <AltitudeMeters>806.20001220703125</AltitudeMeters>
            <DistanceMeters>NAN</DistanceMeters>
          </Trackpoint>
          <Trackpoint>
            <Time>2020-12-05T13:41:25.000Z</Time>
            <Position>
              <LatitudeDegrees>36.818703599274158477783203125</LatitudeDegrees>
              <LongitudeDegrees>-4.3861475028097629547119140625</LongitudeDegrees>
            </Position>
            <AltitudeMeters>806.4000244140625</AltitudeMeters>
            <DistanceMeters>NAN</DistanceMeters>
          </Trackpoint>
          <Trackpoint>
            <Time>2020-12-05T13:41:26.000Z</Time>
            <Position>
              <LatitudeDegrees>36.818697564303874969482421875</LatitudeDegrees>
              <LongitudeDegrees>-4.38615395687520503997802734375</LongitudeDegrees>
            </Position>
            <AltitudeMeters>806.5999755859375</AltitudeMeters>
            <DistanceMeters>NAN</DistanceMeters>
          </Trackpoint>
          <Trackpoint>
            <Time>2020-12-05T13:41:27.000Z</Time>
            <Position>
              <LatitudeDegrees>36.81869178079068660736083984375</LatitudeDegrees>
              <LongitudeDegrees>-4.38616233877837657928466796875</LongitudeDegrees>
            </Position>
            <AltitudeMeters>806.79998779296875</AltitudeMeters>
            <DistanceMeters>NAN</DistanceMeters>
          </Trackpoint>
          <Trackpoint>
            <Time>2020-12-05T13:41:28.000Z</Time>
            <Position>
              <LatitudeDegrees>36.8186813034117221832275390625</LatitudeDegrees>
              <LongitudeDegrees>-4.3861729837954044342041015625</LongitudeDegrees>
            </Position>
            <AltitudeMeters>806.79998779296875</AltitudeMeters>
            <DistanceMeters>NAN</DistanceMeters>
          </Trackpoint>
          <Trackpoint>
            <Time>2020-12-05T13:41:29.000Z</Time>
            <Position>
              <LatitudeDegrees>36.81867166422307491302490234375</LatitudeDegrees>
              <LongitudeDegrees>-4.38618849031627178192138671875</LongitudeDegrees>
            </Position>
            <AltitudeMeters>807</AltitudeMeters>
            <DistanceMeters>NAN</DistanceMeters>
          </Trackpoint>
          <Trackpoint>
            <Time>2020-12-05T13:41:30.000Z</Time>
            <Position>
              <LatitudeDegrees>36.81866562925279140472412109375</LatitudeDegrees>
              <LongitudeDegrees>-4.3862044997513294219970703125</LongitudeDegrees>
            </Position>
            <AltitudeMeters>807.20001220703125</AltitudeMeters>
            <DistanceMeters>NAN</DistanceMeters>
          </Trackpoint>
          <Trackpoint>
            <Time>2020-12-05T13:41:31.000Z</Time>
            <Position>
              <LatitudeDegrees>36.8186588399112224578857421875</LatitudeDegrees>
              <LongitudeDegrees>-4.38621782697737216949462890625</LongitudeDegrees>
            </Position>
            <AltitudeMeters>807.4000244140625</AltitudeMeters>
            <DistanceMeters>NAN</DistanceMeters>
          </Trackpoint>
          <Trackpoint>
            <Time>2020-12-05T13:41:32.000Z</Time>
            <Position>
              <LatitudeDegrees>36.81865372695028781890869140625</LatitudeDegrees>
              <LongitudeDegrees>-4.38622570596635341644287109375</LongitudeDegrees>
            </Position>
            <AltitudeMeters>807.4000244140625</AltitudeMeters>
            <DistanceMeters>NAN</DistanceMeters>
          </Trackpoint>
          <Trackpoint>
            <Time>2020-12-05T13:41:33.000Z</Time>
            <Position>
              <LatitudeDegrees>36.81865020655095577239990234375</LatitudeDegrees>
              <LongitudeDegrees>-4.386235177516937255859375</LongitudeDegrees>
            </Position>
            <AltitudeMeters>807.4000244140625</AltitudeMeters>
            <DistanceMeters>NAN</DistanceMeters>
          </Trackpoint>
          <Trackpoint>
            <Time>2020-12-05T13:41:34.000Z</Time>
            <Position>
              <LatitudeDegrees>36.818649284541606903076171875</LatitudeDegrees>
              <LongitudeDegrees>-4.38624012283980846405029296875</LongitudeDegrees>
            </Position>
            <AltitudeMeters>807.4000244140625</AltitudeMeters>
            <DistanceMeters>NAN</DistanceMeters>
          </Trackpoint>
          <Trackpoint>
            <Time>2020-12-05T13:41:35.000Z</Time>
            <Position>
              <LatitudeDegrees>36.81864920072257518768310546875</LatitudeDegrees>
              <LongitudeDegrees>-4.38625101931393146514892578125</LongitudeDegrees>
            </Position>
            <AltitudeMeters>807.4000244140625</AltitudeMeters>
            <DistanceMeters>NAN</DistanceMeters>
          </Trackpoint>
          <Trackpoint>
            <Time>2020-12-05T13:41:36.000Z</Time>
            <Position>
              <LatitudeDegrees>36.81864534504711627960205078125</LatitudeDegrees>
              <LongitudeDegrees>-4.38626962713897228240966796875</LongitudeDegrees>
            </Position>
            <AltitudeMeters>807.4000244140625</AltitudeMeters>
            <DistanceMeters>NAN</DistanceMeters>
          </Trackpoint>
          <Trackpoint>
            <Time>2020-12-05T13:41:37.000Z</Time>
            <Position>
              <LatitudeDegrees>36.818639226257801055908203125</LatitudeDegrees>
              <LongitudeDegrees>-4.3862956948578357696533203125</LongitudeDegrees>
            </Position>
            <AltitudeMeters>807.5999755859375</AltitudeMeters>
            <DistanceMeters>NAN</DistanceMeters>
          </Trackpoint>
          <Trackpoint>
            <Time>2020-12-05T13:41:38.000Z</Time>
            <Position>
              <LatitudeDegrees>36.8186388909816741943359375</LatitudeDegrees>
              <LongitudeDegrees>-4.38632008619606494903564453125</LongitudeDegrees>
            </Position>
            <AltitudeMeters>807.5999755859375</AltitudeMeters>
            <DistanceMeters>NAN</DistanceMeters>
          </Trackpoint>
          <Trackpoint>
            <Time>2020-12-05T13:41:39.000Z</Time>
            <Position>
              <LatitudeDegrees>36.8186367116868495941162109375</LatitudeDegrees>
              <LongitudeDegrees>-4.38633534125983715057373046875</LongitudeDegrees>
            </Position>
            <AltitudeMeters>807.5999755859375</AltitudeMeters>
            <DistanceMeters>NAN</DistanceMeters>
          </Trackpoint>
          <Trackpoint>
            <Time>2020-12-05T13:41:40.000Z</Time>
            <Position>
              <LatitudeDegrees>36.81863578967750072479248046875</LatitudeDegrees>
              <LongitudeDegrees>-4.386352859437465667724609375</LongitudeDegrees>
            </Position>
            <AltitudeMeters>807.5999755859375</AltitudeMeters>
            <DistanceMeters>NAN</DistanceMeters>
          </Trackpoint>
          <Trackpoint>
            <Time>2020-12-05T13:41:41.000Z</Time>
            <Position>
              <LatitudeDegrees>36.81863847188651561737060546875</LatitudeDegrees>
              <LongitudeDegrees>-4.38637171871960163116455078125</LongitudeDegrees>
            </Position>
            <AltitudeMeters>807.5999755859375</AltitudeMeters>
            <DistanceMeters>NAN</DistanceMeters>
          </Trackpoint>
          <Trackpoint>
            <Time>2020-12-05T13:41:42.000Z</Time>
            <Position>
              <LatitudeDegrees>36.81864090263843536376953125</LatitudeDegrees>
              <LongitudeDegrees>-4.38638948835432529449462890625</LongitudeDegrees>
            </Position>
            <AltitudeMeters>807.79998779296875</AltitudeMeters>
            <DistanceMeters>NAN</DistanceMeters>
          </Trackpoint>
          <Trackpoint>
            <Time>2020-12-05T13:41:43.000Z</Time>
            <Position>
              <LatitudeDegrees>36.81864358484745025634765625</LatitudeDegrees>
              <LongitudeDegrees>-4.3864086829125881195068359375</LongitudeDegrees>
            </Position>
            <AltitudeMeters>808</AltitudeMeters>
            <DistanceMeters>NAN</DistanceMeters>
          </Trackpoint>
          <Trackpoint>
            <Time>2020-12-05T13:41:44.000Z</Time>
            <Position>
              <LatitudeDegrees>36.81864651851356029510498046875</LatitudeDegrees>
              <LongitudeDegrees>-4.38642318360507488250732421875</LongitudeDegrees>
            </Position>
            <AltitudeMeters>808.20001220703125</AltitudeMeters>
            <DistanceMeters>NAN</DistanceMeters>
          </Trackpoint>
          <Trackpoint>
            <Time>2020-12-05T13:41:45.000Z</Time>
            <Position>
              <LatitudeDegrees>36.81864987127482891082763671875</LatitudeDegrees>
              <LongitudeDegrees>-4.3864371813833713531494140625</LongitudeDegrees>
            </Position>
            <AltitudeMeters>808.5999755859375</AltitudeMeters>
            <DistanceMeters>NAN</DistanceMeters>
          </Trackpoint>
          <Trackpoint>
            <Time>2020-12-05T13:41:46.000Z</Time>
            <Position>
              <LatitudeDegrees>36.8186523020267486572265625</LatitudeDegrees>
              <LongitudeDegrees>-4.38644899986684322357177734375</LongitudeDegrees>
            </Position>
            <AltitudeMeters>808.79998779296875</AltitudeMeters>
            <DistanceMeters>NAN</DistanceMeters>
          </Trackpoint>
          <Trackpoint>
            <Time>2020-12-05T13:41:47.000Z</Time>
            <Position>
              <LatitudeDegrees>36.8186571635305881500244140625</LatitudeDegrees>
              <LongitudeDegrees>-4.38645436428487300872802734375</LongitudeDegrees>
            </Position>
            <AltitudeMeters>809</AltitudeMeters>
            <DistanceMeters>NAN</DistanceMeters>
          </Trackpoint>
          <Trackpoint>
            <Time>2020-12-05T13:41:48.000Z</Time>
            <Position>
              <LatitudeDegrees>36.81865775026381015777587890625</LatitudeDegrees>
              <LongitudeDegrees>-4.38646274618804454803466796875</LongitudeDegrees>
            </Position>
            <AltitudeMeters>809.20001220703125</AltitudeMeters>
            <DistanceMeters>NAN</DistanceMeters>
          </Trackpoint>
          <Trackpoint>
            <Time>2020-12-05T13:41:49.000Z</Time>
            <Position>
              <LatitudeDegrees>36.8186608515679836273193359375</LatitudeDegrees>
              <LongitudeDegrees>-4.38647322356700897216796875</LongitudeDegrees>
            </Position>
            <AltitudeMeters>809.20001220703125</AltitudeMeters>
            <DistanceMeters>NAN</DistanceMeters>
          </Trackpoint>
          <Trackpoint>
            <Time>2020-12-05T13:41:50.000Z</Time>
            <Position>
              <LatitudeDegrees>36.81866328231990337371826171875</LatitudeDegrees>
              <LongitudeDegrees>-4.38648261129856109619140625</LongitudeDegrees>
            </Position>
            <AltitudeMeters>809.20001220703125</AltitudeMeters>
            <DistanceMeters>NAN</DistanceMeters>
          </Trackpoint>
          <Trackpoint>
            <Time>2020-12-05T13:41:51.000Z</Time>
            <Position>
              <LatitudeDegrees>36.81866562925279140472412109375</LatitudeDegrees>
              <LongitudeDegrees>-4.38649325631558895111083984375</LongitudeDegrees>
            </Position>
            <AltitudeMeters>809</AltitudeMeters>
            <DistanceMeters>NAN</DistanceMeters>
          </Trackpoint>
          <Trackpoint>
            <Time>2020-12-05T13:41:52.000Z</Time>
            <Position>
              <LatitudeDegrees>36.8186692334711551666259765625</LatitudeDegrees>
              <LongitudeDegrees>-4.3865028955042362213134765625</LongitudeDegrees>
            </Position>
            <AltitudeMeters>809</AltitudeMeters>
            <DistanceMeters>NAN</DistanceMeters>
          </Trackpoint>
          <Trackpoint>
            <Time>2020-12-05T13:41:53.000Z</Time>
            <Position>
              <LatitudeDegrees>36.8186712451279163360595703125</LatitudeDegrees>
              <LongitudeDegrees>-4.3865186534821987152099609375</LongitudeDegrees>
            </Position>
            <AltitudeMeters>808.79998779296875</AltitudeMeters>
            <DistanceMeters>NAN</DistanceMeters>
          </Trackpoint>
          <Trackpoint>
            <Time>2020-12-05T13:41:54.000Z</Time>
            <Position>
              <LatitudeDegrees>36.81867183186113834381103515625</LatitudeDegrees>
              <LongitudeDegrees>-4.38653416000306606292724609375</LongitudeDegrees>
            </Position>
            <AltitudeMeters>808.79998779296875</AltitudeMeters>
            <DistanceMeters>NAN</DistanceMeters>
          </Trackpoint>
          <Trackpoint>
            <Time>2020-12-05T13:41:55.000Z</Time>
            <Position>
              <LatitudeDegrees>36.81867484934628009796142578125</LatitudeDegrees>
              <LongitudeDegrees>-4.38654991798102855682373046875</LongitudeDegrees>
            </Position>
            <AltitudeMeters>808.79998779296875</AltitudeMeters>
            <DistanceMeters>NAN</DistanceMeters>
          </Trackpoint>
          <Trackpoint>
            <Time>2020-12-05T13:41:56.000Z</Time>
            <Position>
              <LatitudeDegrees>36.81867887265980243682861328125</LatitudeDegrees>
              <LongitudeDegrees>-4.38656735233962535858154296875</LongitudeDegrees>
            </Position>
            <AltitudeMeters>808.79998779296875</AltitudeMeters>
            <DistanceMeters>NAN</DistanceMeters>
          </Trackpoint>
          <Trackpoint>
            <Time>2020-12-05T13:41:57.000Z</Time>
            <Position>
              <LatitudeDegrees>36.81868306361138820648193359375</LatitudeDegrees>
              <LongitudeDegrees>-4.386583529412746429443359375</LongitudeDegrees>
            </Position>
            <AltitudeMeters>808.79998779296875</AltitudeMeters>
            <DistanceMeters>NAN</DistanceMeters>
          </Trackpoint>
          <Trackpoint>
            <Time>2020-12-05T13:41:58.000Z</Time>
            <Position>
              <LatitudeDegrees>36.818685494363307952880859375</LatitudeDegrees>
              <LongitudeDegrees>-4.3866012990474700927734375</LongitudeDegrees>
            </Position>
            <AltitudeMeters>809</AltitudeMeters>
            <DistanceMeters>NAN</DistanceMeters>
          </Trackpoint>
          <Trackpoint>
            <Time>2020-12-05T13:41:59.000Z</Time>
            <Position>
              <LatitudeDegrees>36.81868893094360828399658203125</LatitudeDegrees>
              <LongitudeDegrees>-4.38661873340606689453125</LongitudeDegrees>
            </Position>
            <AltitudeMeters>809.20001220703125</AltitudeMeters>
            <DistanceMeters>NAN</DistanceMeters>
          </Trackpoint>
          <Trackpoint>
            <Time>2020-12-05T13:42:00.000Z</Time>
            <Position>
              <LatitudeDegrees>36.81869379244744777679443359375</LatitudeDegrees>
              <LongitudeDegrees>-4.38663289882242679595947265625</LongitudeDegrees>
            </Position>
            <AltitudeMeters>809.20001220703125</AltitudeMeters>
            <DistanceMeters>NAN</DistanceMeters>
          </Trackpoint>
          <Trackpoint>
            <Time>2020-12-05T13:42:01.000Z</Time>
            <Position>
              <LatitudeDegrees>36.81869865395128726959228515625</LatitudeDegrees>
              <LongitudeDegrees>-4.386646561324596405029296875</LongitudeDegrees>
            </Position>
            <AltitudeMeters>809.4000244140625</AltitudeMeters>
            <DistanceMeters>NAN</DistanceMeters>
          </Trackpoint>
          <Trackpoint>
            <Time>2020-12-05T13:42:02.000Z</Time>
            <Position>
              <LatitudeDegrees>36.81870250962674617767333984375</LatitudeDegrees>
              <LongitudeDegrees>-4.3866598047316074371337890625</LongitudeDegrees>
            </Position>
            <AltitudeMeters>809.4000244140625</AltitudeMeters>
            <DistanceMeters>NAN</DistanceMeters>
          </Trackpoint>
          <Trackpoint>
            <Time>2020-12-05T13:42:03.000Z</Time>
            <Position>
              <LatitudeDegrees>36.818706281483173370361328125</LatitudeDegrees>
              <LongitudeDegrees>-4.38667162321507930755615234375</LongitudeDegrees>
            </Position>
            <AltitudeMeters>809.5999755859375</AltitudeMeters>
            <DistanceMeters>NAN</DistanceMeters>
          </Trackpoint>
          <Trackpoint>
            <Time>2020-12-05T13:42:04.000Z</Time>
            <Position>
              <LatitudeDegrees>36.8187081255018711090087890625</LatitudeDegrees>
              <LongitudeDegrees>-4.38668520189821720123291015625</LongitudeDegrees>
            </Position>
            <AltitudeMeters>809.5999755859375</AltitudeMeters>
            <DistanceMeters>NAN</DistanceMeters>
          </Trackpoint>
          <Trackpoint>
            <Time>2020-12-05T13:42:05.000Z</Time>
            <Position>
              <LatitudeDegrees>36.81870820932090282440185546875</LatitudeDegrees>
              <LongitudeDegrees>-4.3866990320384502410888671875</LongitudeDegrees>
            </Position>
            <AltitudeMeters>810</AltitudeMeters>
            <DistanceMeters>NAN</DistanceMeters>
          </Trackpoint>
          <Trackpoint>
            <Time>2020-12-05T13:42:06.000Z</Time>
            <Position>
              <LatitudeDegrees>36.81871055625379085540771484375</LatitudeDegrees>
              <LongitudeDegrees>-4.38671286217868328094482421875</LongitudeDegrees>
            </Position>
            <AltitudeMeters>810</AltitudeMeters>
            <DistanceMeters>NAN</DistanceMeters>
          </Trackpoint>
          <Trackpoint>
            <Time>2020-12-05T13:42:07.000Z</Time>
            <Position>
              <LatitudeDegrees>36.81871198117733001708984375</LatitudeDegrees>
              <LongitudeDegrees>-4.3867302127182483673095703125</LongitudeDegrees>
            </Position>
            <AltitudeMeters>810.20001220703125</AltitudeMeters>
            <DistanceMeters>NAN</DistanceMeters>
          </Trackpoint>
          <Trackpoint>
            <Time>2020-12-05T13:42:08.000Z</Time>
            <Position>
              <LatitudeDegrees>36.81871457956731319427490234375</LatitudeDegrees>
              <LongitudeDegrees>-4.3867439590394496917724609375</LongitudeDegrees>
            </Position>
            <AltitudeMeters>810.5999755859375</AltitudeMeters>
            <DistanceMeters>NAN</DistanceMeters>
          </Trackpoint>
          <Trackpoint>
            <Time>2020-12-05T13:42:09.000Z</Time>
            <Position>
              <LatitudeDegrees>36.81871625594794750213623046875</LatitudeDegrees>
              <LongitudeDegrees>-4.38675711862742900848388671875</LongitudeDegrees>
            </Position>
            <AltitudeMeters>810.79998779296875</AltitudeMeters>
            <DistanceMeters>NAN</DistanceMeters>
          </Trackpoint>
          <Trackpoint>
            <Time>2020-12-05T13:42:10.000Z</Time>
            <Position>
              <LatitudeDegrees>36.8187195248901844024658203125</LatitudeDegrees>
              <LongitudeDegrees>-4.38677220605313777923583984375</LongitudeDegrees>
            </Position>
            <AltitudeMeters>811</AltitudeMeters>
            <DistanceMeters>NAN</DistanceMeters>
          </Trackpoint>
          <Trackpoint>
            <Time>2020-12-05T13:42:11.000Z</Time>
            <Position>
              <LatitudeDegrees>36.8187215365469455718994140625</LatitudeDegrees>
              <LongitudeDegrees>-4.38678561709821224212646484375</LongitudeDegrees>
            </Position>
            <AltitudeMeters>811.20001220703125</AltitudeMeters>
            <DistanceMeters>NAN</DistanceMeters>
          </Trackpoint>
          <Trackpoint>
            <Time>2020-12-05T13:42:12.000Z</Time>
            <Position>
              <LatitudeDegrees>36.81872245855629444122314453125</LatitudeDegrees>
              <LongitudeDegrees>-4.3868002854287624359130859375</LongitudeDegrees>
            </Position>
            <AltitudeMeters>811.20001220703125</AltitudeMeters>
            <DistanceMeters>NAN</DistanceMeters>
          </Trackpoint>
          <Trackpoint>
            <Time>2020-12-05T13:42:13.000Z</Time>
            <Position>
              <LatitudeDegrees>36.8187232129275798797607421875</LatitudeDegrees>
              <LongitudeDegrees>-4.38681562431156635284423828125</LongitudeDegrees>
            </Position>
            <AltitudeMeters>811.20001220703125</AltitudeMeters>
            <DistanceMeters>NAN</DistanceMeters>
          </Trackpoint>
          <Trackpoint>
            <Time>2020-12-05T13:42:14.000Z</Time>
            <Position>
              <LatitudeDegrees>36.81872530840337276458740234375</LatitudeDegrees>
              <LongitudeDegrees>-4.386836327612400054931640625</LongitudeDegrees>
            </Position>
            <AltitudeMeters>811.20001220703125</AltitudeMeters>
            <DistanceMeters>NAN</DistanceMeters>
          </Trackpoint>
          <Trackpoint>
            <Time>2020-12-05T13:42:15.000Z</Time>
            <Position>
              <LatitudeDegrees>36.81872807443141937255859375</LatitudeDegrees>
              <LongitudeDegrees>-4.38685585744678974151611328125</LongitudeDegrees>
            </Position>
            <AltitudeMeters>811.20001220703125</AltitudeMeters>
            <DistanceMeters>NAN</DistanceMeters>
          </Trackpoint>
          <Trackpoint>
            <Time>2020-12-05T13:42:16.000Z</Time>
            <Position>
              <LatitudeDegrees>36.81872966699302196502685546875</LatitudeDegrees>
              <LongitudeDegrees>-4.38687262125313282012939453125</LongitudeDegrees>
            </Position>
            <AltitudeMeters>811.20001220703125</AltitudeMeters>
            <DistanceMeters>NAN</DistanceMeters>
          </Trackpoint>
          <Trackpoint>
            <Time>2020-12-05T13:42:17.000Z</Time>
            <Position>
              <LatitudeDegrees>36.818731762468814849853515625</LatitudeDegrees>
              <LongitudeDegrees>-4.38688653521239757537841796875</LongitudeDegrees>
            </Position>
            <AltitudeMeters>811.20001220703125</AltitudeMeters>
            <DistanceMeters>NAN</DistanceMeters>
          </Trackpoint>
          <Trackpoint>
            <Time>2020-12-05T13:42:18.000Z</Time>
            <Position>
              <LatitudeDegrees>36.8187352828681468963623046875</LatitudeDegrees>
              <LongitudeDegrees>-4.3868990242481231689453125</LongitudeDegrees>
            </Position>
            <AltitudeMeters>811.20001220703125</AltitudeMeters>
            <DistanceMeters>NAN</DistanceMeters>
          </Trackpoint>
          <Trackpoint>
            <Time>2020-12-05T13:42:19.000Z</Time>
            <Position>
              <LatitudeDegrees>36.8187396414577960968017578125</LatitudeDegrees>
              <LongitudeDegrees>-4.38691453076899051666259765625</LongitudeDegrees>
            </Position>
            <AltitudeMeters>811.20001220703125</AltitudeMeters>
            <DistanceMeters>NAN</DistanceMeters>
          </Trackpoint>
          <Trackpoint>
            <Time>2020-12-05T13:42:20.000Z</Time>
            <Position>
              <LatitudeDegrees>36.8187434971332550048828125</LatitudeDegrees>
              <LongitudeDegrees>-4.38693045638501644134521484375</LongitudeDegrees>
            </Position>
            <AltitudeMeters>811.20001220703125</AltitudeMeters>
            <DistanceMeters>NAN</DistanceMeters>
          </Trackpoint>
          <Trackpoint>
            <Time>2020-12-05T13:42:21.000Z</Time>
            <Position>
              <LatitudeDegrees>36.8187461793422698974609375</LatitudeDegrees>
              <LongitudeDegrees>-4.38694487325847148895263671875</LongitudeDegrees>
            </Position>
            <AltitudeMeters>811.20001220703125</AltitudeMeters>
            <DistanceMeters>NAN</DistanceMeters>
          </Trackpoint>
          <Trackpoint>
            <Time>2020-12-05T13:42:22.000Z</Time>
            <Position>
              <LatitudeDegrees>36.8187503702938556671142578125</LatitudeDegrees>
              <LongitudeDegrees>-4.38696113415062427520751953125</LongitudeDegrees>
            </Position>
            <AltitudeMeters>811.4000244140625</AltitudeMeters>
            <DistanceMeters>NAN</DistanceMeters>
          </Trackpoint>
          <Trackpoint>
            <Time>2020-12-05T13:42:23.000Z</Time>
            <Position>
              <LatitudeDegrees>36.81875447742640972137451171875</LatitudeDegrees>
              <LongitudeDegrees>-4.386976473033428192138671875</LongitudeDegrees>
            </Position>
            <AltitudeMeters>811.5999755859375</AltitudeMeters>
            <DistanceMeters>NAN</DistanceMeters>
          </Trackpoint>
          <Trackpoint>
            <Time>2020-12-05T13:42:24.000Z</Time>
            <Position>
              <LatitudeDegrees>36.818758584558963775634765625</LatitudeDegrees>
              <LongitudeDegrees>-4.38698795624077320098876953125</LongitudeDegrees>
            </Position>
            <AltitudeMeters>811.79998779296875</AltitudeMeters>
            <DistanceMeters>NAN</DistanceMeters>
          </Trackpoint>
          <Trackpoint>
            <Time>2020-12-05T13:42:25.000Z</Time>
            <Position>
              <LatitudeDegrees>36.81876168586313724517822265625</LatitudeDegrees>
              <LongitudeDegrees>-4.386999942362308502197265625</LongitudeDegrees>
            </Position>
            <AltitudeMeters>812</AltitudeMeters>
            <DistanceMeters>NAN</DistanceMeters>
          </Trackpoint>
          <Trackpoint>
            <Time>2020-12-05T13:42:26.000Z</Time>
            <Position>
              <LatitudeDegrees>36.81876361370086669921875</LatitudeDegrees>
              <LongitudeDegrees>-4.38701276667416095733642578125</LongitudeDegrees>
            </Position>
            <AltitudeMeters>812.20001220703125</AltitudeMeters>
            <DistanceMeters>NAN</DistanceMeters>
          </Trackpoint>
          <Trackpoint>
            <Time>2020-12-05T13:42:27.000Z</Time>
            <Position>
              <LatitudeDegrees>36.81876562535762786865234375</LatitudeDegrees>
              <LongitudeDegrees>-4.3870269320905208587646484375</LongitudeDegrees>
            </Position>
            <AltitudeMeters>812.5999755859375</AltitudeMeters>
            <DistanceMeters>NAN</DistanceMeters>
          </Trackpoint>
          <Trackpoint>
            <Time>2020-12-05T13:42:28.000Z</Time>
            <Position>
              <LatitudeDegrees>36.81876922957599163055419921875</LatitudeDegrees>
              <LongitudeDegrees>-4.38704243861138820648193359375</LongitudeDegrees>
            </Position>
            <AltitudeMeters>813</AltitudeMeters>
            <DistanceMeters>NAN</DistanceMeters>
          </Trackpoint>
          <Trackpoint>
            <Time>2020-12-05T13:42:29.000Z</Time>
            <Position>
              <LatitudeDegrees>36.8187738396227359771728515625</LatitudeDegrees>
              <LongitudeDegrees>-4.38705752603709697723388671875</LongitudeDegrees>
            </Position>
            <AltitudeMeters>813.20001220703125</AltitudeMeters>
            <DistanceMeters>NAN</DistanceMeters>
          </Trackpoint>
          <Trackpoint>
            <Time>2020-12-05T13:42:30.000Z</Time>
            <Position>
              <LatitudeDegrees>36.8187778629362583160400390625</LatitudeDegrees>
              <LongitudeDegrees>-4.38706867396831512451171875</LongitudeDegrees>
            </Position>
            <AltitudeMeters>813.4000244140625</AltitudeMeters>
            <DistanceMeters>NAN</DistanceMeters>
          </Trackpoint>
          <Trackpoint>
            <Time>2020-12-05T13:42:31.000Z</Time>
            <Position>
              <LatitudeDegrees>36.818782053887844085693359375</LatitudeDegrees>
              <LongitudeDegrees>-4.38707940280437469482421875</LongitudeDegrees>
            </Position>
            <AltitudeMeters>813.5999755859375</AltitudeMeters>
            <DistanceMeters>NAN</DistanceMeters>
          </Trackpoint>
          <Trackpoint>
            <Time>2020-12-05T13:42:32.000Z</Time>
            <Position>
              <LatitudeDegrees>36.8187879212200641632080078125</LatitudeDegrees>
              <LongitudeDegrees>-4.38709273003041744232177734375</LongitudeDegrees>
            </Position>
            <AltitudeMeters>813.79998779296875</AltitudeMeters>
            <DistanceMeters>NAN</DistanceMeters>
          </Trackpoint>
          <Trackpoint>
            <Time>2020-12-05T13:42:33.000Z</Time>
            <Position>
              <LatitudeDegrees>36.81879504583775997161865234375</LatitudeDegrees>
              <LongitudeDegrees>-4.38710756599903106689453125</LongitudeDegrees>
            </Position>
            <AltitudeMeters>814</AltitudeMeters>
            <DistanceMeters>NAN</DistanceMeters>
          </Trackpoint>
          <Trackpoint>
            <Time>2020-12-05T13:42:34.000Z</Time>
            <Position>
              <LatitudeDegrees>36.81880258955061435699462890625</LatitudeDegrees>
              <LongitudeDegrees>-4.38712189905345439910888671875</LongitudeDegrees>
            </Position>
            <AltitudeMeters>814.20001220703125</AltitudeMeters>
            <DistanceMeters>NAN</DistanceMeters>
          </Trackpoint>
          <Trackpoint>
            <Time>2020-12-05T13:42:35.000Z</Time>
            <Position>
              <LatitudeDegrees>36.8188097141683101654052734375</LatitudeDegrees>
              <LongitudeDegrees>-4.3871271796524524688720703125</LongitudeDegrees>
            </Position>
            <AltitudeMeters>814.4000244140625</AltitudeMeters>
            <DistanceMeters>NAN</DistanceMeters>
          </Trackpoint>
          <Trackpoint>
            <Time>2020-12-05T13:42:36.000Z</Time>
            <Position>
              <LatitudeDegrees>36.8188185989856719970703125</LatitudeDegrees>
              <LongitudeDegrees>-4.387134052813053131103515625</LongitudeDegrees>
            </Position>
            <AltitudeMeters>814.5999755859375</AltitudeMeters>
            <DistanceMeters>NAN</DistanceMeters>
          </Trackpoint>
          <Trackpoint>
            <Time>2020-12-05T13:42:37.000Z</Time>
            <Position>
              <LatitudeDegrees>36.8188264779746532440185546875</LatitudeDegrees>
              <LongitudeDegrees>-4.38713866285979747772216796875</LongitudeDegrees>
            </Position>
            <AltitudeMeters>814.79998779296875</AltitudeMeters>
            <DistanceMeters>NAN</DistanceMeters>
          </Trackpoint>
          <Trackpoint>
            <Time>2020-12-05T13:42:38.000Z</Time>
            <Position>
              <LatitudeDegrees>36.818836368620395660400390625</LatitudeDegrees>
              <LongitudeDegrees>-4.3871439434587955474853515625</LongitudeDegrees>
            </Position>
            <AltitudeMeters>815</AltitudeMeters>
            <DistanceMeters>NAN</DistanceMeters>
          </Trackpoint>
          <Trackpoint>
            <Time>2020-12-05T13:42:39.000Z</Time>
            <Position>
              <LatitudeDegrees>36.818846762180328369140625</LatitudeDegrees>
              <LongitudeDegrees>-4.38715157099068164825439453125</LongitudeDegrees>
            </Position>
            <AltitudeMeters>815.20001220703125</AltitudeMeters>
            <DistanceMeters>NAN</DistanceMeters>
          </Trackpoint>
          <Trackpoint>
            <Time>2020-12-05T13:42:40.000Z</Time>
            <Position>
              <LatitudeDegrees>36.8188569881021976470947265625</LatitudeDegrees>
              <LongitudeDegrees>-4.38715911470353603363037109375</LongitudeDegrees>
            </Position>
            <AltitudeMeters>815.4000244140625</AltitudeMeters>
            <DistanceMeters>NAN</DistanceMeters>
          </Trackpoint>
          <Trackpoint>
            <Time>2020-12-05T13:42:41.000Z</Time>
            <Position>
              <LatitudeDegrees>36.81886662729084491729736328125</LatitudeDegrees>
              <LongitudeDegrees>-4.38716531731188297271728515625</LongitudeDegrees>
            </Position>
            <AltitudeMeters>815.5999755859375</AltitudeMeters>
            <DistanceMeters>NAN</DistanceMeters>
          </Trackpoint>
          <Trackpoint>
            <Time>2020-12-05T13:42:42.000Z</Time>
            <Position>
              <LatitudeDegrees>36.81887584738433361053466796875</LatitudeDegrees>
              <LongitudeDegrees>-4.387168250977993011474609375</LongitudeDegrees>
            </Position>
            <AltitudeMeters>815.79998779296875</AltitudeMeters>
            <DistanceMeters>NAN</DistanceMeters>
          </Trackpoint>
          <Trackpoint>
            <Time>2020-12-05T13:42:43.000Z</Time>
            <Position>
              <LatitudeDegrees>36.81888322345912456512451171875</LatitudeDegrees>
              <LongitudeDegrees>-4.38717302866280078887939453125</LongitudeDegrees>
            </Position>
            <AltitudeMeters>816.20001220703125</AltitudeMeters>
            <DistanceMeters>NAN</DistanceMeters>
          </Trackpoint>
          <Trackpoint>
            <Time>2020-12-05T13:42:44.000Z</Time>
            <Position>
              <LatitudeDegrees>36.81888808496296405792236328125</LatitudeDegrees>
              <LongitudeDegrees>-4.38718266785144805908203125</LongitudeDegrees>
            </Position>
            <AltitudeMeters>816.4000244140625</AltitudeMeters>
            <DistanceMeters>NAN</DistanceMeters>
          </Trackpoint>
          <Trackpoint>
            <Time>2020-12-05T13:42:45.000Z</Time>
            <Position>
              <LatitudeDegrees>36.81889277882874011993408203125</LatitudeDegrees>
              <LongitudeDegrees>-4.38718828372657299041748046875</LongitudeDegrees>
            </Position>
            <AltitudeMeters>816.5999755859375</AltitudeMeters>
            <DistanceMeters>NAN</DistanceMeters>
          </Trackpoint>
          <Trackpoint>
            <Time>2020-12-05T13:42:46.000Z</Time>
            <Position>
              <LatitudeDegrees>36.8188999034464359283447265625</LatitudeDegrees>
              <LongitudeDegrees>-4.3871912173926830291748046875</LongitudeDegrees>
            </Position>
            <AltitudeMeters>816.79998779296875</AltitudeMeters>
            <DistanceMeters>NAN</DistanceMeters>
          </Trackpoint>
          <Trackpoint>
            <Time>2020-12-05T13:42:47.000Z</Time>
            <Position>
              <LatitudeDegrees>36.81890602223575115203857421875</LatitudeDegrees>
              <LongitudeDegrees>-4.38719063065946102142333984375</LongitudeDegrees>
            </Position>
            <AltitudeMeters>816.79998779296875</AltitudeMeters>
            <DistanceMeters>NAN</DistanceMeters>
          </Trackpoint>
          <Trackpoint>
            <Time>2020-12-05T13:42:48.000Z</Time>
            <Position>
              <LatitudeDegrees>36.818910129368305206298828125</LatitudeDegrees>
              <LongitudeDegrees>-4.38718979246914386749267578125</LongitudeDegrees>
            </Position>
            <AltitudeMeters>816.79998779296875</AltitudeMeters>
            <DistanceMeters>NAN</DistanceMeters>
          </Trackpoint>
          <Trackpoint>
            <Time>2020-12-05T13:42:49.000Z</Time>
            <Position>
              <LatitudeDegrees>36.81891121901571750640869140625</LatitudeDegrees>
              <LongitudeDegrees>-4.38718878664076328277587890625</LongitudeDegrees>
            </Position>
            <AltitudeMeters>816.79998779296875</AltitudeMeters>
            <DistanceMeters>NAN</DistanceMeters>
          </Trackpoint>
          <Trackpoint>
            <Time>2020-12-05T13:42:50.000Z</Time>
            <Position>
              <LatitudeDegrees>36.818908117711544036865234375</LatitudeDegrees>
              <LongitudeDegrees>-4.38718174584209918975830078125</LongitudeDegrees>
            </Position>
            <AltitudeMeters>816.5999755859375</AltitudeMeters>
            <DistanceMeters>NAN</DistanceMeters>
          </Trackpoint>
          <Trackpoint>
            <Time>2020-12-05T13:42:51.000Z</Time>
            <Position>
              <LatitudeDegrees>36.81890618987381458282470703125</LatitudeDegrees>
              <LongitudeDegrees>-4.38717621378600597381591796875</LongitudeDegrees>
            </Position>
            <AltitudeMeters>816.20001220703125</AltitudeMeters>
            <DistanceMeters>NAN</DistanceMeters>
          </Trackpoint>
          <Trackpoint>
            <Time>2020-12-05T13:42:52.000Z</Time>
            <Position>
              <LatitudeDegrees>36.818900406360626220703125</LatitudeDegrees>
              <LongitudeDegrees>-4.3871680833399295806884765625</LongitudeDegrees>
            </Position>
            <AltitudeMeters>816</AltitudeMeters>
            <DistanceMeters>NAN</DistanceMeters>
          </Trackpoint>
          <Trackpoint>
            <Time>2020-12-05T13:42:53.000Z</Time>
            <Position>
              <LatitudeDegrees>36.81889898143708705902099609375</LatitudeDegrees>
              <LongitudeDegrees>-4.387166239321231842041015625</LongitudeDegrees>
            </Position>
            <AltitudeMeters>815.79998779296875</AltitudeMeters>
            <DistanceMeters>NAN</DistanceMeters>
          </Trackpoint>
          <Trackpoint>
            <Time>2020-12-05T13:42:54.000Z</Time>
            <Position>
              <LatitudeDegrees>36.81889797560870647430419921875</LatitudeDegrees>
              <LongitudeDegrees>-4.387165568768978118896484375</LongitudeDegrees>
            </Position>
            <AltitudeMeters>815.79998779296875</AltitudeMeters>
            <DistanceMeters>NAN</DistanceMeters>
          </Trackpoint>
          <Trackpoint>
            <Time>2020-12-05T13:42:55.000Z</Time>
            <Position>
              <LatitudeDegrees>36.81889495812356472015380859375</LatitudeDegrees>
              <LongitudeDegrees>-4.3871664069592952728271484375</LongitudeDegrees>
            </Position>
            <AltitudeMeters>815.79998779296875</AltitudeMeters>
            <DistanceMeters>NAN</DistanceMeters>
          </Trackpoint>
          <Trackpoint>
            <Time>2020-12-05T13:42:56.000Z</Time>
            <Position>
              <LatitudeDegrees>36.81889378465712070465087890625</LatitudeDegrees>
              <LongitudeDegrees>-4.38717135228216648101806640625</LongitudeDegrees>
            </Position>
            <AltitudeMeters>815.79998779296875</AltitudeMeters>
            <DistanceMeters>NAN</DistanceMeters>
          </Trackpoint>
          <Trackpoint>
            <Time>2020-12-05T13:42:57.000Z</Time>
            <Position>
              <LatitudeDegrees>36.81888632476329803466796875</LatitudeDegrees>
              <LongitudeDegrees>-4.3871734477579593658447265625</LongitudeDegrees>
            </Position>
            <AltitudeMeters>816</AltitudeMeters>
            <DistanceMeters>NAN</DistanceMeters>
          </Trackpoint>
          <Trackpoint>
            <Time>2020-12-05T13:42:58.000Z</Time>
            <Position>
              <LatitudeDegrees>36.81887685321271419525146484375</LatitudeDegrees>
              <LongitudeDegrees>-4.38716967590153217315673828125</LongitudeDegrees>
            </Position>
            <AltitudeMeters>816</AltitudeMeters>
            <DistanceMeters>NAN</DistanceMeters>
          </Trackpoint>
          <Trackpoint>
            <Time>2020-12-05T13:42:59.000Z</Time>
            <Position>
              <LatitudeDegrees>36.818869225680828094482421875</LatitudeDegrees>
              <LongitudeDegrees>-4.38716590404510498046875</LongitudeDegrees>
            </Position>
            <AltitudeMeters>816</AltitudeMeters>
            <DistanceMeters>NAN</DistanceMeters>
          </Trackpoint>
          <Trackpoint>
            <Time>2020-12-05T13:43:00.000Z</Time>
            <Position>
              <LatitudeDegrees>36.8188653700053691864013671875</LatitudeDegrees>
              <LongitudeDegrees>-4.387162886559963226318359375</LongitudeDegrees>
            </Position>
            <AltitudeMeters>816</AltitudeMeters>
            <DistanceMeters>NAN</DistanceMeters>
          </Trackpoint>
          <Trackpoint>
            <Time>2020-12-05T13:43:01.000Z</Time>
            <Position>
              <LatitudeDegrees>36.8188636936247348785400390625</LatitudeDegrees>
              <LongitudeDegrees>-4.38715928234159946441650390625</LongitudeDegrees>
            </Position>
            <AltitudeMeters>815.79998779296875</AltitudeMeters>
            <DistanceMeters>NAN</DistanceMeters>
          </Trackpoint>
          <Trackpoint>
            <Time>2020-12-05T13:43:02.000Z</Time>
            <Position>
              <LatitudeDegrees>36.81886495091021060943603515625</LatitudeDegrees>
              <LongitudeDegrees>-4.3871565163135528564453125</LongitudeDegrees>
            </Position>
            <AltitudeMeters>815.79998779296875</AltitudeMeters>
            <DistanceMeters>NAN</DistanceMeters>
          </Trackpoint>
          <Trackpoint>
            <Time>2020-12-05T13:43:03.000Z</Time>
            <Position>
              <LatitudeDegrees>36.81886863894760608673095703125</LatitudeDegrees>
              <LongitudeDegrees>-4.38715358264744281768798828125</LongitudeDegrees>
            </Position>
            <AltitudeMeters>815.5999755859375</AltitudeMeters>
            <DistanceMeters>NAN</DistanceMeters>
          </Trackpoint>
          <Trackpoint>
            <Time>2020-12-05T13:43:04.000Z</Time>
            <Position>
              <LatitudeDegrees>36.81887366808950901031494140625</LatitudeDegrees>
              <LongitudeDegrees>-4.38715316355228424072265625</LongitudeDegrees>
            </Position>
            <AltitudeMeters>815.5999755859375</AltitudeMeters>
            <DistanceMeters>NAN</DistanceMeters>
          </Trackpoint>
          <Trackpoint>
            <Time>2020-12-05T13:43:05.000Z</Time>
            <Position>
              <LatitudeDegrees>36.81887752376496791839599609375</LatitudeDegrees>
              <LongitudeDegrees>-4.38715157099068164825439453125</LongitudeDegrees>
            </Position>
            <AltitudeMeters>815.5999755859375</AltitudeMeters>
            <DistanceMeters>NAN</DistanceMeters>
          </Trackpoint>
          <Trackpoint>
            <Time>2020-12-05T13:43:06.000Z</Time>
            <Position>
              <LatitudeDegrees>36.8188834749162197113037109375</LatitudeDegrees>
              <LongitudeDegrees>-4.3871469609439373016357421875</LongitudeDegrees>
            </Position>
            <AltitudeMeters>815.4000244140625</AltitudeMeters>
            <DistanceMeters>NAN</DistanceMeters>
          </Trackpoint>
          <Trackpoint>
            <Time>2020-12-05T13:43:07.000Z</Time>
            <Position>
              <LatitudeDegrees>36.81889194063842296600341796875</LatitudeDegrees>
              <LongitudeDegrees>-4.38713480718433856964111328125</LongitudeDegrees>
            </Position>
            <AltitudeMeters>815.4000244140625</AltitudeMeters>
            <DistanceMeters>NAN</DistanceMeters>
          </Trackpoint>
          <Trackpoint>
            <Time>2020-12-05T13:43:08.000Z</Time>
            <Position>
              <LatitudeDegrees>36.8188995681703090667724609375</LatitudeDegrees>
              <LongitudeDegrees>-4.38712324015796184539794921875</LongitudeDegrees>
            </Position>
            <AltitudeMeters>815.20001220703125</AltitudeMeters>
            <DistanceMeters>NAN</DistanceMeters>
          </Trackpoint>
          <Trackpoint>
            <Time>2020-12-05T13:43:09.000Z</Time>
            <Position>
              <LatitudeDegrees>36.81890644133090972900390625</LatitudeDegrees>
              <LongitudeDegrees>-4.387115947902202606201171875</LongitudeDegrees>
            </Position>
            <AltitudeMeters>815.20001220703125</AltitudeMeters>
            <DistanceMeters>NAN</DistanceMeters>
          </Trackpoint>
          <Trackpoint>
            <Time>2020-12-05T13:43:10.000Z</Time>
            <Position>
              <LatitudeDegrees>36.818911470472812652587890625</LatitudeDegrees>
              <LongitudeDegrees>-4.387113265693187713623046875</LongitudeDegrees>
            </Position>
            <AltitudeMeters>815.20001220703125</AltitudeMeters>
            <DistanceMeters>NAN</DistanceMeters>
          </Trackpoint>
          <Trackpoint>
            <Time>2020-12-05T13:43:11.000Z</Time>
            <Position>
              <LatitudeDegrees>36.818916164338588714599609375</LatitudeDegrees>
              <LongitudeDegrees>-4.38711217604577541351318359375</LongitudeDegrees>
            </Position>
            <AltitudeMeters>815</AltitudeMeters>
            <DistanceMeters>NAN</DistanceMeters>
          </Trackpoint>
          <Trackpoint>
            <Time>2020-12-05T13:43:12.000Z</Time>
            <Position>
              <LatitudeDegrees>36.81892295368015766143798828125</LatitudeDegrees>
              <LongitudeDegrees>-4.387113936245441436767578125</LongitudeDegrees>
            </Position>
            <AltitudeMeters>815</AltitudeMeters>
            <DistanceMeters>NAN</DistanceMeters>
          </Trackpoint>
          <Trackpoint>
            <Time>2020-12-05T13:43:13.000Z</Time>
            <Position>
              <LatitudeDegrees>36.81893100030720233917236328125</LatitudeDegrees>
              <LongitudeDegrees>-4.38712290488183498382568359375</LongitudeDegrees>
            </Position>
            <AltitudeMeters>815.20001220703125</AltitudeMeters>
            <DistanceMeters>NAN</DistanceMeters>
          </Trackpoint>
          <Trackpoint>
            <Time>2020-12-05T13:43:14.000Z</Time>
            <Position>
              <LatitudeDegrees>36.81893737055361270904541015625</LatitudeDegrees>
              <LongitudeDegrees>-4.38714084215462207794189453125</LongitudeDegrees>
            </Position>
            <AltitudeMeters>815</AltitudeMeters>
            <DistanceMeters>NAN</DistanceMeters>
          </Trackpoint>
          <Trackpoint>
            <Time>2020-12-05T13:43:15.000Z</Time>
            <Position>
              <LatitudeDegrees>36.81894491426646709442138671875</LatitudeDegrees>
              <LongitudeDegrees>-4.387146122753620147705078125</LongitudeDegrees>
            </Position>
            <AltitudeMeters>815</AltitudeMeters>
            <DistanceMeters>NAN</DistanceMeters>
          </Trackpoint>
          <Trackpoint>
            <Time>2020-12-05T13:43:16.000Z</Time>
            <Position>
              <LatitudeDegrees>36.81894927285611629486083984375</LatitudeDegrees>
              <LongitudeDegrees>-4.38714779913425445556640625</LongitudeDegrees>
            </Position>
            <AltitudeMeters>815</AltitudeMeters>
            <DistanceMeters>NAN</DistanceMeters>
          </Trackpoint>
          <Trackpoint>
            <Time>2020-12-05T13:43:17.000Z</Time>
            <Position>
              <LatitudeDegrees>36.8189515359699726104736328125</LatitudeDegrees>
              <LongitudeDegrees>-4.38714645802974700927734375</LongitudeDegrees>
            </Position>
            <AltitudeMeters>815</AltitudeMeters>
            <DistanceMeters>NAN</DistanceMeters>
          </Trackpoint>
          <Trackpoint>
            <Time>2020-12-05T13:43:18.000Z</Time>
            <Position>
              <LatitudeDegrees>36.81895346380770206451416015625</LatitudeDegrees>
              <LongitudeDegrees>-4.3871506489813327789306640625</LongitudeDegrees>
            </Position>
            <AltitudeMeters>815</AltitudeMeters>
            <DistanceMeters>NAN</DistanceMeters>
          </Trackpoint>
          <Trackpoint>
            <Time>2020-12-05T13:43:19.000Z</Time>
            <Position>
              <LatitudeDegrees>36.81894793175160884857177734375</LatitudeDegrees>
              <LongitudeDegrees>-4.3871489726006984710693359375</LongitudeDegrees>
            </Position>
            <AltitudeMeters>815</AltitudeMeters>
            <DistanceMeters>NAN</DistanceMeters>
          </Trackpoint>
          <Trackpoint>
            <Time>2020-12-05T13:43:20.000Z</Time>
            <Position>
              <LatitudeDegrees>36.8189394660294055938720703125</LatitudeDegrees>
              <LongitudeDegrees>-4.38714670948684215545654296875</LongitudeDegrees>
            </Position>
            <AltitudeMeters>815.20001220703125</AltitudeMeters>
            <DistanceMeters>NAN</DistanceMeters>
          </Trackpoint>
          <Trackpoint>
            <Time>2020-12-05T13:43:21.000Z</Time>
            <Position>
              <LatitudeDegrees>36.81892789900302886962890625</LatitudeDegrees>
              <LongitudeDegrees>-4.3871415965259075164794921875</LongitudeDegrees>
            </Position>
            <AltitudeMeters>815.20001220703125</AltitudeMeters>
            <DistanceMeters>NAN</DistanceMeters>
          </Trackpoint>
          <Trackpoint>
            <Time>2020-12-05T13:43:22.000Z</Time>
            <Position>
              <LatitudeDegrees>36.81892479769885540008544921875</LatitudeDegrees>
              <LongitudeDegrees>-4.3871457874774932861328125</LongitudeDegrees>
            </Position>
            <AltitudeMeters>815.4000244140625</AltitudeMeters>
            <DistanceMeters>NAN</DistanceMeters>
          </Trackpoint>
          <Trackpoint>
            <Time>2020-12-05T13:43:23.000Z</Time>
            <Position>
              <LatitudeDegrees>36.81892278604209423065185546875</LatitudeDegrees>
              <LongitudeDegrees>-4.38714788295328617095947265625</LongitudeDegrees>
            </Position>
            <AltitudeMeters>815.4000244140625</AltitudeMeters>
            <DistanceMeters>NAN</DistanceMeters>
          </Trackpoint>
          <Trackpoint>
            <Time>2020-12-05T13:43:24.000Z</Time>
            <Position>
              <LatitudeDegrees>36.818922199308872222900390625</LatitudeDegrees>
              <LongitudeDegrees>-4.38714914023876190185546875</LongitudeDegrees>
            </Position>
            <AltitudeMeters>815.4000244140625</AltitudeMeters>
            <DistanceMeters>NAN</DistanceMeters>
          </Trackpoint>
          <Trackpoint>
            <Time>2020-12-05T13:43:25.000Z</Time>
            <Position>
              <LatitudeDegrees>36.8189227022230625152587890625</LatitudeDegrees>
              <LongitudeDegrees>-4.38714788295328617095947265625</LongitudeDegrees>
            </Position>
            <AltitudeMeters>815.4000244140625</AltitudeMeters>
            <DistanceMeters>NAN</DistanceMeters>
          </Trackpoint>
          <Trackpoint>
            <Time>2020-12-05T13:43:26.000Z</Time>
            <Position>
              <LatitudeDegrees>36.818922869861125946044921875</LatitudeDegrees>
              <LongitudeDegrees>-4.3871449492871761322021484375</LongitudeDegrees>
            </Position>
            <AltitudeMeters>815.5999755859375</AltitudeMeters>
            <DistanceMeters>NAN</DistanceMeters>
          </Trackpoint>
          <Trackpoint>
            <Time>2020-12-05T13:43:27.000Z</Time>
            <Position>
              <LatitudeDegrees>36.81892295368015766143798828125</LatitudeDegrees>
              <LongitudeDegrees>-4.38714419491589069366455078125</LongitudeDegrees>
            </Position>
            <AltitudeMeters>815.5999755859375</AltitudeMeters>
            <DistanceMeters>NAN</DistanceMeters>
          </Trackpoint>
          <Trackpoint>
            <Time>2020-12-05T13:43:28.000Z</Time>
            <Position>
              <LatitudeDegrees>36.8189233727753162384033203125</LatitudeDegrees>
              <LongitudeDegrees>-4.38714805059134960174560546875</LongitudeDegrees>
            </Position>
            <AltitudeMeters>815.79998779296875</AltitudeMeters>
            <DistanceMeters>NAN</DistanceMeters>
          </Trackpoint>
          <Trackpoint>
            <Time>2020-12-05T13:43:29.000Z</Time>
            <Position>
              <LatitudeDegrees>36.8189230374991893768310546875</LatitudeDegrees>
              <LongitudeDegrees>-4.3871529959142208099365234375</LongitudeDegrees>
            </Position>
            <AltitudeMeters>815.79998779296875</AltitudeMeters>
            <DistanceMeters>NAN</DistanceMeters>
          </Trackpoint>
          <Trackpoint>
            <Time>2020-12-05T13:43:30.000Z</Time>
            <Position>
              <LatitudeDegrees>36.81892194785177707672119140625</LatitudeDegrees>
              <LongitudeDegrees>-4.38715928234159946441650390625</LongitudeDegrees>
            </Position>
            <AltitudeMeters>816</AltitudeMeters>
            <DistanceMeters>NAN</DistanceMeters>
          </Trackpoint>
          <Trackpoint>
            <Time>2020-12-05T13:43:31.000Z</Time>
            <Position>
              <LatitudeDegrees>36.81891985237598419189453125</LatitudeDegrees>
              <LongitudeDegrees>-4.38716255128383636474609375</LongitudeDegrees>
            </Position>
            <AltitudeMeters>816</AltitudeMeters>
            <DistanceMeters>NAN</DistanceMeters>
          </Trackpoint>
          <Trackpoint>
            <Time>2020-12-05T13:43:32.000Z</Time>
            <Position>
              <LatitudeDegrees>36.8189166672527790069580078125</LatitudeDegrees>
              <LongitudeDegrees>-4.38716079108417034149169921875</LongitudeDegrees>
            </Position>
            <AltitudeMeters>816</AltitudeMeters>
            <DistanceMeters>NAN</DistanceMeters>
          </Trackpoint>
          <Trackpoint>
            <Time>2020-12-05T13:43:33.000Z</Time>
            <Position>
              <LatitudeDegrees>36.81891490705311298370361328125</LatitudeDegrees>
              <LongitudeDegrees>-4.3871640600264072418212890625</LongitudeDegrees>
            </Position>
            <AltitudeMeters>816</AltitudeMeters>
            <DistanceMeters>NAN</DistanceMeters>
          </Trackpoint>
          <Trackpoint>
            <Time>2020-12-05T13:43:34.000Z</Time>
            <Position>
              <LatitudeDegrees>36.81891440413892269134521484375</LatitudeDegrees>
              <LongitudeDegrees>-4.38716950826346874237060546875</LongitudeDegrees>
            </Position>
            <AltitudeMeters>816</AltitudeMeters>
            <DistanceMeters>NAN</DistanceMeters>
          </Trackpoint>
          <Trackpoint>
            <Time>2020-12-05T13:43:35.000Z</Time>
            <Position>
              <LatitudeDegrees>36.81891490705311298370361328125</LatitudeDegrees>
              <LongitudeDegrees>-4.387171603739261627197265625</LongitudeDegrees>
            </Position>
            <AltitudeMeters>816</AltitudeMeters>
            <DistanceMeters>NAN</DistanceMeters>
          </Trackpoint>
          <Trackpoint>
            <Time>2020-12-05T13:43:36.000Z</Time>
            <Position>
              <LatitudeDegrees>36.81891708634793758392333984375</LatitudeDegrees>
              <LongitudeDegrees>-4.38717185519635677337646484375</LongitudeDegrees>
            </Position>
            <AltitudeMeters>816</AltitudeMeters>
            <DistanceMeters>NAN</DistanceMeters>
          </Trackpoint>
          <Trackpoint>
            <Time>2020-12-05T13:43:37.000Z</Time>
            <Position>
              <LatitudeDegrees>36.818919517099857330322265625</LatitudeDegrees>
              <LongitudeDegrees>-4.38716925680637359619140625</LongitudeDegrees>
            </Position>
            <AltitudeMeters>815.79998779296875</AltitudeMeters>
            <DistanceMeters>NAN</DistanceMeters>
          </Trackpoint>
          <Trackpoint>
            <Time>2020-12-05T13:43:38.000Z</Time>
            <Position>
              <LatitudeDegrees>36.8189203552901744842529296875</LatitudeDegrees>
              <LongitudeDegrees>-4.3871667422354221343994140625</LongitudeDegrees>
            </Position>
            <AltitudeMeters>815.79998779296875</AltitudeMeters>
            <DistanceMeters>NAN</DistanceMeters>
          </Trackpoint>
          <Trackpoint>
            <Time>2020-12-05T13:43:39.000Z</Time>
            <Position>
              <LatitudeDegrees>36.81891976855695247650146484375</LatitudeDegrees>
              <LongitudeDegrees>-4.38716816715896129608154296875</LongitudeDegrees>
            </Position>
            <AltitudeMeters>815.79998779296875</AltitudeMeters>
            <DistanceMeters>NAN</DistanceMeters>
          </Trackpoint>
          <Trackpoint>
            <Time>2020-12-05T13:43:40.000Z</Time>
            <Position>
              <LatitudeDegrees>36.81891675107181072235107421875</LatitudeDegrees>
              <LongitudeDegrees>-4.387170262634754180908203125</LongitudeDegrees>
            </Position>
            <AltitudeMeters>815.79998779296875</AltitudeMeters>
            <DistanceMeters>NAN</DistanceMeters>
          </Trackpoint>
          <Trackpoint>
            <Time>2020-12-05T13:43:41.000Z</Time>
            <Position>
              <LatitudeDegrees>36.81891339831054210662841796875</LatitudeDegrees>
              <LongitudeDegrees>-4.38717084936797618865966796875</LongitudeDegrees>
            </Position>
            <AltitudeMeters>815.79998779296875</AltitudeMeters>
            <DistanceMeters>NAN</DistanceMeters>
          </Trackpoint>
          <Trackpoint>
            <Time>2020-12-05T13:43:42.000Z</Time>
            <Position>
              <LatitudeDegrees>36.8189126439392566680908203125</LatitudeDegrees>
              <LongitudeDegrees>-4.38716925680637359619140625</LongitudeDegrees>
            </Position>
            <AltitudeMeters>815.79998779296875</AltitudeMeters>
            <DistanceMeters>NAN</DistanceMeters>
          </Trackpoint>
          <Trackpoint>
            <Time>2020-12-05T13:43:43.000Z</Time>
            <Position>
              <LatitudeDegrees>36.8189126439392566680908203125</LatitudeDegrees>
              <LongitudeDegrees>-4.3871654011309146881103515625</LongitudeDegrees>
            </Position>
            <AltitudeMeters>815.79998779296875</AltitudeMeters>
            <DistanceMeters>NAN</DistanceMeters>
          </Trackpoint>
          <Trackpoint>
            <Time>2020-12-05T13:43:44.000Z</Time>
            <Position>
              <LatitudeDegrees>36.81890803389251232147216796875</LatitudeDegrees>
              <LongitudeDegrees>-4.3871536664664745330810546875</LongitudeDegrees>
            </Position>
            <AltitudeMeters>816</AltitudeMeters>
            <DistanceMeters>NAN</DistanceMeters>
          </Trackpoint>
          <Trackpoint>
            <Time>2020-12-05T13:43:45.000Z</Time>
            <Position>
              <LatitudeDegrees>36.818905770778656005859375</LatitudeDegrees>
              <LongitudeDegrees>-4.38714251853525638580322265625</LongitudeDegrees>
            </Position>
            <AltitudeMeters>816</AltitudeMeters>
            <DistanceMeters>NAN</DistanceMeters>
          </Trackpoint>
          <Trackpoint>
            <Time>2020-12-05T13:43:46.000Z</Time>
            <Position>
              <LatitudeDegrees>36.818902082741260528564453125</LatitudeDegrees>
              <LongitudeDegrees>-4.38712793402373790740966796875</LongitudeDegrees>
            </Position>
            <AltitudeMeters>816</AltitudeMeters>
            <DistanceMeters>NAN</DistanceMeters>
          </Trackpoint>
          <Trackpoint>
            <Time>2020-12-05T13:43:47.000Z</Time>
            <Position>
              <LatitudeDegrees>36.81889730505645275115966796875</LatitudeDegrees>
              <LongitudeDegrees>-4.38711184076964855194091796875</LongitudeDegrees>
            </Position>
            <AltitudeMeters>816</AltitudeMeters>
            <DistanceMeters>NAN</DistanceMeters>
          </Trackpoint>
          <Trackpoint>
            <Time>2020-12-05T13:43:48.000Z</Time>
            <Position>
              <LatitudeDegrees>36.81888992898166179656982421875</LatitudeDegrees>
              <LongitudeDegrees>-4.38709675334393978118896484375</LongitudeDegrees>
            </Position>
            <AltitudeMeters>816</AltitudeMeters>
            <DistanceMeters>NAN</DistanceMeters>
          </Trackpoint>
          <Trackpoint>
            <Time>2020-12-05T13:43:49.000Z</Time>
            <Position>
              <LatitudeDegrees>36.818885989487171173095703125</LatitudeDegrees>
              <LongitudeDegrees>-4.38708870671689510345458984375</LongitudeDegrees>
            </Position>
            <AltitudeMeters>816.20001220703125</AltitudeMeters>
            <DistanceMeters>NAN</DistanceMeters>
          </Trackpoint>
          <Trackpoint>
            <Time>2020-12-05T13:43:50.000Z</Time>
            <Position>
              <LatitudeDegrees>36.8188802897930145263671875</LatitudeDegrees>
              <LongitudeDegrees>-4.38707881607115268707275390625</LongitudeDegrees>
            </Position>
            <AltitudeMeters>816.20001220703125</AltitudeMeters>
            <DistanceMeters>NAN</DistanceMeters>
          </Trackpoint>
          <Trackpoint>
            <Time>2020-12-05T13:43:51.000Z</Time>
            <Position>
              <LatitudeDegrees>36.81887450627982616424560546875</LatitudeDegrees>
              <LongitudeDegrees>-4.38706506974995136260986328125</LongitudeDegrees>
            </Position>
            <AltitudeMeters>816.4000244140625</AltitudeMeters>
            <DistanceMeters>NAN</DistanceMeters>
          </Trackpoint>
          <Trackpoint>
            <Time>2020-12-05T13:43:52.000Z</Time>
            <Position>
              <LatitudeDegrees>36.81887031532824039459228515625</LatitudeDegrees>
              <LongitudeDegrees>-4.3870504014194011688232421875</LongitudeDegrees>
            </Position>
            <AltitudeMeters>816.5999755859375</AltitudeMeters>
            <DistanceMeters>NAN</DistanceMeters>
          </Trackpoint>
          <Trackpoint>
            <Time>2020-12-05T13:43:53.000Z</Time>
            <Position>
              <LatitudeDegrees>36.8188643641769886016845703125</LatitudeDegrees>
              <LongitudeDegrees>-4.3870423547923564910888671875</LongitudeDegrees>
            </Position>
            <AltitudeMeters>816.79998779296875</AltitudeMeters>
            <DistanceMeters>NAN</DistanceMeters>
          </Trackpoint>
          <Trackpoint>
            <Time>2020-12-05T13:43:54.000Z</Time>
            <Position>
              <LatitudeDegrees>36.8188588321208953857421875</LatitudeDegrees>
              <LongitudeDegrees>-4.38703523017466068267822265625</LongitudeDegrees>
            </Position>
            <AltitudeMeters>817.20001220703125</AltitudeMeters>
            <DistanceMeters>NAN</DistanceMeters>
          </Trackpoint>
          <Trackpoint>
            <Time>2020-12-05T13:43:55.000Z</Time>
            <Position>
              <LatitudeDegrees>36.81885371915996074676513671875</LatitudeDegrees>
              <LongitudeDegrees>-4.38702885992825031280517578125</LongitudeDegrees>
            </Position>
            <AltitudeMeters>817.4000244140625</AltitudeMeters>
            <DistanceMeters>NAN</DistanceMeters>
          </Trackpoint>
          <Trackpoint>
            <Time>2020-12-05T13:43:56.000Z</Time>
            <Position>
              <LatitudeDegrees>36.8188472650945186614990234375</LatitudeDegrees>
              <LongitudeDegrees>-4.38702307641506195068359375</LongitudeDegrees>
            </Position>
            <AltitudeMeters>817.79998779296875</AltitudeMeters>
            <DistanceMeters>NAN</DistanceMeters>
          </Trackpoint>
          <Trackpoint>
            <Time>2020-12-05T13:43:57.000Z</Time>
            <Position>
              <LatitudeDegrees>36.81884097866714000701904296875</LatitudeDegrees>
              <LongitudeDegrees>-4.3870172090828418731689453125</LongitudeDegrees>
            </Position>
            <AltitudeMeters>818.20001220703125</AltitudeMeters>
            <DistanceMeters>NAN</DistanceMeters>
          </Trackpoint>
          <Trackpoint>
            <Time>2020-12-05T13:43:58.000Z</Time>
            <Position>
              <LatitudeDegrees>36.81883427314460277557373046875</LatitudeDegrees>
              <LongitudeDegrees>-4.3870089948177337646484375</LongitudeDegrees>
            </Position>
            <AltitudeMeters>818.4000244140625</AltitudeMeters>
            <DistanceMeters>NAN</DistanceMeters>
          </Trackpoint>
          <Trackpoint>
            <Time>2020-12-05T13:43:59.000Z</Time>
            <Position>
              <LatitudeDegrees>36.81882941164076328277587890625</LatitudeDegrees>
              <LongitudeDegrees>-4.38699767924845218658447265625</LongitudeDegrees>
            </Position>
            <AltitudeMeters>818.5999755859375</AltitudeMeters>
            <DistanceMeters>NAN</DistanceMeters>
          </Trackpoint>
          <Trackpoint>
            <Time>2020-12-05T13:44:00.000Z</Time>
            <Position>
              <LatitudeDegrees>36.81883226148784160614013671875</LatitudeDegrees>
              <LongitudeDegrees>-4.386980831623077392578125</LongitudeDegrees>
            </Position>
            <AltitudeMeters>818.5999755859375</AltitudeMeters>
            <DistanceMeters>NAN</DistanceMeters>
          </Trackpoint>
          <Trackpoint>
            <Time>2020-12-05T13:44:01.000Z</Time>
            <Position>
              <LatitudeDegrees>36.818839050829410552978515625</LatitudeDegrees>
              <LongitudeDegrees>-4.38696733675897121429443359375</LongitudeDegrees>
            </Position>
            <AltitudeMeters>818.79998779296875</AltitudeMeters>
            <DistanceMeters>NAN</DistanceMeters>
          </Trackpoint>
          <Trackpoint>
            <Time>2020-12-05T13:44:02.000Z</Time>
            <Position>
              <LatitudeDegrees>36.8188368715345859527587890625</LatitudeDegrees>
              <LongitudeDegrees>-4.3869558535516262054443359375</LongitudeDegrees>
            </Position>
            <AltitudeMeters>818.79998779296875</AltitudeMeters>
            <DistanceMeters>NAN</DistanceMeters>
          </Trackpoint>
          <Trackpoint>
            <Time>2020-12-05T13:44:03.000Z</Time>
            <Position>
              <LatitudeDegrees>36.8188368715345859527587890625</LatitudeDegrees>
              <LongitudeDegrees>-4.3869407661259174346923828125</LongitudeDegrees>
            </Position>
            <AltitudeMeters>818.79998779296875</AltitudeMeters>
            <DistanceMeters>NAN</DistanceMeters>
          </Trackpoint>
          <Trackpoint>
            <Time>2020-12-05T13:44:04.000Z</Time>
            <Position>
              <LatitudeDegrees>36.8188398890197277069091796875</LatitudeDegrees>
              <LongitudeDegrees>-4.38692525960505008697509765625</LongitudeDegrees>
            </Position>
            <AltitudeMeters>818.79998779296875</AltitudeMeters>
            <DistanceMeters>NAN</DistanceMeters>
          </Trackpoint>
          <Trackpoint>
            <Time>2020-12-05T13:44:05.000Z</Time>
            <Position>
              <LatitudeDegrees>36.8188412301242351531982421875</LatitudeDegrees>
              <LongitudeDegrees>-4.38691168092191219329833984375</LongitudeDegrees>
            </Position>
            <AltitudeMeters>818.79998779296875</AltitudeMeters>
            <DistanceMeters>NAN</DistanceMeters>
          </Trackpoint>
          <Trackpoint>
            <Time>2020-12-05T13:44:06.000Z</Time>
            <Position>
              <LatitudeDegrees>36.8188405595719814300537109375</LatitudeDegrees>
              <LongitudeDegrees>-4.38690313138067722320556640625</LongitudeDegrees>
            </Position>
            <AltitudeMeters>818.79998779296875</AltitudeMeters>
            <DistanceMeters>NAN</DistanceMeters>
          </Trackpoint>
          <Trackpoint>
            <Time>2020-12-05T13:44:07.000Z</Time>
            <Position>
              <LatitudeDegrees>36.818842403590679168701171875</LatitudeDegrees>
              <LongitudeDegrees>-4.38689701259136199951171875</LongitudeDegrees>
            </Position>
            <AltitudeMeters>818.5999755859375</AltitudeMeters>
            <DistanceMeters>NAN</DistanceMeters>
          </Trackpoint>
          <Trackpoint>
            <Time>2020-12-05T13:44:08.000Z</Time>
            <Position>
              <LatitudeDegrees>36.81884634308516979217529296875</LatitudeDegrees>
              <LongitudeDegrees>-4.38688854686915874481201171875</LongitudeDegrees>
            </Position>
            <AltitudeMeters>818.5999755859375</AltitudeMeters>
            <DistanceMeters>NAN</DistanceMeters>
          </Trackpoint>
          <Trackpoint>
            <Time>2020-12-05T13:44:09.000Z</Time>
            <Position>
              <LatitudeDegrees>36.81884399615228176116943359375</LatitudeDegrees>
              <LongitudeDegrees>-4.38687949441373348236083984375</LongitudeDegrees>
            </Position>
            <AltitudeMeters>818.4000244140625</AltitudeMeters>
            <DistanceMeters>NAN</DistanceMeters>
          </Trackpoint>
          <Trackpoint>
            <Time>2020-12-05T13:44:10.000Z</Time>
            <Position>
              <LatitudeDegrees>36.81884181685745716094970703125</LatitudeDegrees>
              <LongitudeDegrees>-4.3868703581392765045166015625</LongitudeDegrees>
            </Position>
            <AltitudeMeters>818.20001220703125</AltitudeMeters>
            <DistanceMeters>NAN</DistanceMeters>
          </Trackpoint>
          <Trackpoint>
            <Time>2020-12-05T13:44:11.000Z</Time>
            <Position>
              <LatitudeDegrees>36.81884064339101314544677734375</LatitudeDegrees>
              <LongitudeDegrees>-4.3868614733219146728515625</LongitudeDegrees>
            </Position>
            <AltitudeMeters>818.20001220703125</AltitudeMeters>
            <DistanceMeters>NAN</DistanceMeters>
          </Trackpoint>
          <Trackpoint>
            <Time>2020-12-05T13:44:12.000Z</Time>
            <Position>
              <LatitudeDegrees>36.81883980520069599151611328125</LatitudeDegrees>
              <LongitudeDegrees>-4.38685200177133083343505859375</LongitudeDegrees>
            </Position>
            <AltitudeMeters>818</AltitudeMeters>
            <DistanceMeters>NAN</DistanceMeters>
          </Trackpoint>
          <Trackpoint>
            <Time>2020-12-05T13:44:13.000Z</Time>
            <Position>
              <LatitudeDegrees>36.81883980520069599151611328125</LatitudeDegrees>
              <LongitudeDegrees>-4.3868385069072246551513671875</LongitudeDegrees>
            </Position>
            <AltitudeMeters>817.79998779296875</AltitudeMeters>
            <DistanceMeters>NAN</DistanceMeters>
          </Trackpoint>
          <Trackpoint>
            <Time>2020-12-05T13:44:14.000Z</Time>
            <Position>
              <LatitudeDegrees>36.81883930228650569915771484375</LatitudeDegrees>
              <LongitudeDegrees>-4.3868271075189113616943359375</LongitudeDegrees>
            </Position>
            <AltitudeMeters>817.5999755859375</AltitudeMeters>
            <DistanceMeters>NAN</DistanceMeters>
          </Trackpoint>
          <Trackpoint>
            <Time>2020-12-05T13:44:15.000Z</Time>
            <Position>
              <LatitudeDegrees>36.8188375420868396759033203125</LatitudeDegrees>
              <LongitudeDegrees>-4.38681495375931262969970703125</LongitudeDegrees>
            </Position>
            <AltitudeMeters>817.4000244140625</AltitudeMeters>
            <DistanceMeters>NAN</DistanceMeters>
          </Trackpoint>
          <Trackpoint>
            <Time>2020-12-05T13:44:16.000Z</Time>
            <Position>
              <LatitudeDegrees>36.81883662007749080657958984375</LatitudeDegrees>
              <LongitudeDegrees>-4.3868056498467922210693359375</LongitudeDegrees>
            </Position>
            <AltitudeMeters>817.20001220703125</AltitudeMeters>
            <DistanceMeters>NAN</DistanceMeters>
          </Trackpoint>
          <Trackpoint>
            <Time>2020-12-05T13:44:17.000Z</Time>
            <Position>
              <LatitudeDegrees>36.81883796118199825286865234375</LatitudeDegrees>
              <LongitudeDegrees>-4.38679718412458896636962890625</LongitudeDegrees>
            </Position>
            <AltitudeMeters>817</AltitudeMeters>
            <DistanceMeters>NAN</DistanceMeters>
          </Trackpoint>
          <Trackpoint>
            <Time>2020-12-05T13:44:18.000Z</Time>
            <Position>
              <LatitudeDegrees>36.81883896701037883758544921875</LatitudeDegrees>
              <LongitudeDegrees>-4.38678695820271968841552734375</LongitudeDegrees>
            </Position>
            <AltitudeMeters>816.79998779296875</AltitudeMeters>
            <DistanceMeters>NAN</DistanceMeters>
          </Trackpoint>
          <Trackpoint>
            <Time>2020-12-05T13:44:19.000Z</Time>
            <Position>
              <LatitudeDegrees>36.81883628480136394500732421875</LatitudeDegrees>
              <LongitudeDegrees>-4.38677631318569183349609375</LongitudeDegrees>
            </Position>
            <AltitudeMeters>816.79998779296875</AltitudeMeters>
            <DistanceMeters>NAN</DistanceMeters>
          </Trackpoint>
          <Trackpoint>
            <Time>2020-12-05T13:44:20.000Z</Time>
            <Position>
              <LatitudeDegrees>36.8188355304300785064697265625</LatitudeDegrees>
              <LongitudeDegrees>-4.38676692545413970947265625</LongitudeDegrees>
            </Position>
            <AltitudeMeters>816.79998779296875</AltitudeMeters>
            <DistanceMeters>NAN</DistanceMeters>
          </Trackpoint>
          <Trackpoint>
            <Time>2020-12-05T13:44:21.000Z</Time>
            <Position>
              <LatitudeDegrees>36.8188348598778247833251953125</LatitudeDegrees>
              <LongitudeDegrees>-4.3867590464651584625244140625</LongitudeDegrees>
            </Position>
            <AltitudeMeters>816.79998779296875</AltitudeMeters>
            <DistanceMeters>NAN</DistanceMeters>
          </Trackpoint>
          <Trackpoint>
            <Time>2020-12-05T13:44:22.000Z</Time>
            <Position>
              <LatitudeDegrees>36.81883527897298336029052734375</LatitudeDegrees>
              <LongitudeDegrees>-4.3867486529052257537841796875</LongitudeDegrees>
            </Position>
            <AltitudeMeters>816.5999755859375</AltitudeMeters>
            <DistanceMeters>NAN</DistanceMeters>
          </Trackpoint>
          <Trackpoint>
            <Time>2020-12-05T13:44:23.000Z</Time>
            <Position>
              <LatitudeDegrees>36.81883226148784160614013671875</LatitudeDegrees>
              <LongitudeDegrees>-4.38673817552626132965087890625</LongitudeDegrees>
            </Position>
            <AltitudeMeters>816.5999755859375</AltitudeMeters>
            <DistanceMeters>NAN</DistanceMeters>
          </Trackpoint>
          <Trackpoint>
            <Time>2020-12-05T13:44:24.000Z</Time>
            <Position>
              <LatitudeDegrees>36.81883058510720729827880859375</LatitudeDegrees>
              <LongitudeDegrees>-4.3867265246808528900146484375</LongitudeDegrees>
            </Position>
            <AltitudeMeters>816.4000244140625</AltitudeMeters>
            <DistanceMeters>NAN</DistanceMeters>
          </Trackpoint>
          <Trackpoint>
            <Time>2020-12-05T13:44:25.000Z</Time>
            <Position>
              <LatitudeDegrees>36.8188305012881755828857421875</LatitudeDegrees>
              <LongitudeDegrees>-4.38671336509287357330322265625</LongitudeDegrees>
            </Position>
            <AltitudeMeters>816.20001220703125</AltitudeMeters>
            <DistanceMeters>NAN</DistanceMeters>
          </Trackpoint>
          <Trackpoint>
            <Time>2020-12-05T13:44:26.000Z</Time>
            <Position>
              <LatitudeDegrees>36.8188311718404293060302734375</LatitudeDegrees>
              <LongitudeDegrees>-4.386698864400386810302734375</LongitudeDegrees>
            </Position>
            <AltitudeMeters>816</AltitudeMeters>
            <DistanceMeters>NAN</DistanceMeters>
          </Trackpoint>
          <Trackpoint>
            <Time>2020-12-05T13:44:27.000Z</Time>
            <Position>
              <LatitudeDegrees>36.81882991455495357513427734375</LatitudeDegrees>
              <LongitudeDegrees>-4.38668520189821720123291015625</LongitudeDegrees>
            </Position>
            <AltitudeMeters>816</AltitudeMeters>
            <DistanceMeters>NAN</DistanceMeters>
          </Trackpoint>
          <Trackpoint>
            <Time>2020-12-05T13:44:28.000Z</Time>
            <Position>
              <LatitudeDegrees>36.818824969232082366943359375</LatitudeDegrees>
              <LongitudeDegrees>-4.38666634261608123779296875</LongitudeDegrees>
            </Position>
            <AltitudeMeters>815.79998779296875</AltitudeMeters>
            <DistanceMeters>NAN</DistanceMeters>
          </Trackpoint>
          <Trackpoint>
            <Time>2020-12-05T13:44:29.000Z</Time>
            <Position>
              <LatitudeDegrees>36.8188237957656383514404296875</LatitudeDegrees>
              <LongitudeDegrees>-4.3866504170000553131103515625</LongitudeDegrees>
            </Position>
            <AltitudeMeters>815.5999755859375</AltitudeMeters>
            <DistanceMeters>NAN</DistanceMeters>
          </Trackpoint>
          <Trackpoint>
            <Time>2020-12-05T13:44:30.000Z</Time>
            <Position>
              <LatitudeDegrees>36.8188214488327503204345703125</LatitudeDegrees>
              <LongitudeDegrees>-4.38663524575531482696533203125</LongitudeDegrees>
            </Position>
            <AltitudeMeters>815.5999755859375</AltitudeMeters>
            <DistanceMeters>NAN</DistanceMeters>
          </Trackpoint>
          <Trackpoint>
            <Time>2020-12-05T13:44:31.000Z</Time>
            <Position>
              <LatitudeDegrees>36.8188212811946868896484375</LatitudeDegrees>
              <LongitudeDegrees>-4.386617057025432586669921875</LongitudeDegrees>
            </Position>
            <AltitudeMeters>815.5999755859375</AltitudeMeters>
            <DistanceMeters>NAN</DistanceMeters>
          </Trackpoint>
          <Trackpoint>
            <Time>2020-12-05T13:44:32.000Z</Time>
            <Position>
              <LatitudeDegrees>36.818816922605037689208984375</LatitudeDegrees>
              <LongitudeDegrees>-4.38660590909421443939208984375</LongitudeDegrees>
            </Position>
            <AltitudeMeters>815.5999755859375</AltitudeMeters>
            <DistanceMeters>NAN</DistanceMeters>
          </Trackpoint>
          <Trackpoint>
            <Time>2020-12-05T13:44:33.000Z</Time>
            <Position>
              <LatitudeDegrees>36.818812228739261627197265625</LatitudeDegrees>
              <LongitudeDegrees>-4.38659794628620147705078125</LongitudeDegrees>
            </Position>
            <AltitudeMeters>815.4000244140625</AltitudeMeters>
            <DistanceMeters>NAN</DistanceMeters>
          </Trackpoint>
          <Trackpoint>
            <Time>2020-12-05T13:44:34.000Z</Time>
            <Position>
              <LatitudeDegrees>36.818807534873485565185546875</LatitudeDegrees>
              <LongitudeDegrees>-4.38659182749688625335693359375</LongitudeDegrees>
            </Position>
            <AltitudeMeters>815.4000244140625</AltitudeMeters>
            <DistanceMeters>NAN</DistanceMeters>
          </Trackpoint>
          <Trackpoint>
            <Time>2020-12-05T13:44:35.000Z</Time>
            <Position>
              <LatitudeDegrees>36.8188033439218997955322265625</LatitudeDegrees>
              <LongitudeDegrees>-4.38658059574663639068603515625</LongitudeDegrees>
            </Position>
            <AltitudeMeters>815.20001220703125</AltitudeMeters>
            <DistanceMeters>NAN</DistanceMeters>
          </Trackpoint>
          <Trackpoint>
            <Time>2020-12-05T13:44:36.000Z</Time>
            <Position>
              <LatitudeDegrees>36.81880007497966289520263671875</LatitudeDegrees>
              <LongitudeDegrees>-4.3865676037967205047607421875</LongitudeDegrees>
            </Position>
            <AltitudeMeters>815.20001220703125</AltitudeMeters>
            <DistanceMeters>NAN</DistanceMeters>
          </Trackpoint>
          <Trackpoint>
            <Time>2020-12-05T13:44:37.000Z</Time>
            <Position>
              <LatitudeDegrees>36.81879471056163311004638671875</LatitudeDegrees>
              <LongitudeDegrees>-4.38655712641775608062744140625</LongitudeDegrees>
            </Position>
            <AltitudeMeters>815</AltitudeMeters>
            <DistanceMeters>NAN</DistanceMeters>
          </Trackpoint>
          <Trackpoint>
            <Time>2020-12-05T13:44:38.000Z</Time>
            <Position>
              <LatitudeDegrees>36.81878968141973018646240234375</LatitudeDegrees>
              <LongitudeDegrees>-4.3865448050200939178466796875</LongitudeDegrees>
            </Position>
            <AltitudeMeters>814.79998779296875</AltitudeMeters>
            <DistanceMeters>NAN</DistanceMeters>
          </Trackpoint>
          <Trackpoint>
            <Time>2020-12-05T13:44:39.000Z</Time>
            <Position>
              <LatitudeDegrees>36.818784065544605255126953125</LatitudeDegrees>
              <LongitudeDegrees>-4.38653013668954372406005859375</LongitudeDegrees>
            </Position>
            <AltitudeMeters>814.4000244140625</AltitudeMeters>
            <DistanceMeters>NAN</DistanceMeters>
          </Trackpoint>
          <Trackpoint>
            <Time>2020-12-05T13:44:40.000Z</Time>
            <Position>
              <LatitudeDegrees>36.8187771923840045928955078125</LatitudeDegrees>
              <LongitudeDegrees>-4.3865154683589935302734375</LongitudeDegrees>
            </Position>
            <AltitudeMeters>814.20001220703125</AltitudeMeters>
            <DistanceMeters>NAN</DistanceMeters>
          </Trackpoint>
          <Trackpoint>
            <Time>2020-12-05T13:44:41.000Z</Time>
            <Position>
              <LatitudeDegrees>36.81877367198467254638671875</LatitudeDegrees>
              <LongitudeDegrees>-4.386503063142299652099609375</LongitudeDegrees>
            </Position>
            <AltitudeMeters>814</AltitudeMeters>
            <DistanceMeters>NAN</DistanceMeters>
          </Trackpoint>
          <Trackpoint>
            <Time>2020-12-05T13:44:42.000Z</Time>
            <Position>
              <LatitudeDegrees>36.8187681399285793304443359375</LatitudeDegrees>
              <LongitudeDegrees>-4.3864871375262737274169921875</LongitudeDegrees>
            </Position>
            <AltitudeMeters>813.79998779296875</AltitudeMeters>
            <DistanceMeters>NAN</DistanceMeters>
          </Trackpoint>
          <Trackpoint>
            <Time>2020-12-05T13:44:43.000Z</Time>
            <Position>
              <LatitudeDegrees>36.81876017712056636810302734375</LatitudeDegrees>
              <LongitudeDegrees>-4.3864750675857067108154296875</LongitudeDegrees>
            </Position>
            <AltitudeMeters>813.79998779296875</AltitudeMeters>
            <DistanceMeters>NAN</DistanceMeters>
          </Trackpoint>
          <Trackpoint>
            <Time>2020-12-05T13:44:44.000Z</Time>
            <Position>
              <LatitudeDegrees>36.8187527172267436981201171875</LatitudeDegrees>
              <LongitudeDegrees>-4.3864603154361248016357421875</LongitudeDegrees>
            </Position>
            <AltitudeMeters>813.79998779296875</AltitudeMeters>
            <DistanceMeters>NAN</DistanceMeters>
          </Trackpoint>
          <Trackpoint>
            <Time>2020-12-05T13:44:45.000Z</Time>
            <Position>
              <LatitudeDegrees>36.8187486939132213592529296875</LatitudeDegrees>
              <LongitudeDegrees>-4.38644480891525745391845703125</LongitudeDegrees>
            </Position>
            <AltitudeMeters>813.79998779296875</AltitudeMeters>
            <DistanceMeters>NAN</DistanceMeters>
          </Trackpoint>
          <Trackpoint>
            <Time>2020-12-05T13:44:46.000Z</Time>
            <Position>
              <LatitudeDegrees>36.8187480233609676361083984375</LatitudeDegrees>
              <LongitudeDegrees>-4.3864287994801998138427734375</LongitudeDegrees>
            </Position>
            <AltitudeMeters>813.79998779296875</AltitudeMeters>
            <DistanceMeters>NAN</DistanceMeters>
          </Trackpoint>
          <Trackpoint>
            <Time>2020-12-05T13:44:47.000Z</Time>
            <Position>
              <LatitudeDegrees>36.8187496997416019439697265625</LatitudeDegrees>
              <LongitudeDegrees>-4.38641765154898166656494140625</LongitudeDegrees>
            </Position>
            <AltitudeMeters>813.79998779296875</AltitudeMeters>
            <DistanceMeters>NAN</DistanceMeters>
          </Trackpoint>
          <Trackpoint>
            <Time>2020-12-05T13:44:48.000Z</Time>
            <Position>
              <LatitudeDegrees>36.81875162757933139801025390625</LatitudeDegrees>
              <LongitudeDegrees>-4.3864083476364612579345703125</LongitudeDegrees>
            </Position>
            <AltitudeMeters>813.5999755859375</AltitudeMeters>
            <DistanceMeters>NAN</DistanceMeters>
          </Trackpoint>
          <Trackpoint>
            <Time>2020-12-05T13:44:49.000Z</Time>
            <Position>
              <LatitudeDegrees>36.81875648908317089080810546875</LatitudeDegrees>
              <LongitudeDegrees>-4.38639753498136997222900390625</LongitudeDegrees>
            </Position>
            <AltitudeMeters>813.4000244140625</AltitudeMeters>
            <DistanceMeters>NAN</DistanceMeters>
          </Trackpoint>
          <Trackpoint>
            <Time>2020-12-05T13:44:50.000Z</Time>
            <Position>
              <LatitudeDegrees>36.8187590874731540679931640625</LatitudeDegrees>
              <LongitudeDegrees>-4.3863878957927227020263671875</LongitudeDegrees>
            </Position>
            <AltitudeMeters>813</AltitudeMeters>
            <DistanceMeters>NAN</DistanceMeters>
          </Trackpoint>
          <Trackpoint>
            <Time>2020-12-05T13:44:51.000Z</Time>
            <Position>
              <LatitudeDegrees>36.81876319460570812225341796875</LatitudeDegrees>
              <LongitudeDegrees>-4.3863744847476482391357421875</LongitudeDegrees>
            </Position>
            <AltitudeMeters>812.5999755859375</AltitudeMeters>
            <DistanceMeters>NAN</DistanceMeters>
          </Trackpoint>
          <Trackpoint>
            <Time>2020-12-05T13:44:52.000Z</Time>
            <Position>
              <LatitudeDegrees>36.8187676370143890380859375</LatitudeDegrees>
              <LongitudeDegrees>-4.38635730184614658355712890625</LongitudeDegrees>
            </Position>
            <AltitudeMeters>812.4000244140625</AltitudeMeters>
            <DistanceMeters>NAN</DistanceMeters>
          </Trackpoint>
          <Trackpoint>
            <Time>2020-12-05T13:44:53.000Z</Time>
            <Position>
              <LatitudeDegrees>36.81877207942306995391845703125</LatitudeDegrees>
              <LongitudeDegrees>-4.3863362632691860198974609375</LongitudeDegrees>
            </Position>
            <AltitudeMeters>812.20001220703125</AltitudeMeters>
            <DistanceMeters>NAN</DistanceMeters>
          </Trackpoint>
          <Trackpoint>
            <Time>2020-12-05T13:44:54.000Z</Time>
            <Position>
              <LatitudeDegrees>36.81877710856497287750244140625</LatitudeDegrees>
              <LongitudeDegrees>-4.386315979063510894775390625</LongitudeDegrees>
            </Position>
            <AltitudeMeters>812.20001220703125</AltitudeMeters>
            <DistanceMeters>NAN</DistanceMeters>
          </Trackpoint>
          <Trackpoint>
            <Time>2020-12-05T13:44:55.000Z</Time>
            <Position>
              <LatitudeDegrees>36.81878079660236835479736328125</LatitudeDegrees>
              <LongitudeDegrees>-4.38629795797169208526611328125</LongitudeDegrees>
            </Position>
            <AltitudeMeters>812</AltitudeMeters>
            <DistanceMeters>NAN</DistanceMeters>
          </Trackpoint>
          <Trackpoint>
            <Time>2020-12-05T13:44:56.000Z</Time>
            <Position>
              <LatitudeDegrees>36.81878440082073211669921875</LatitudeDegrees>
              <LongitudeDegrees>-4.3862836249172687530517578125</LongitudeDegrees>
            </Position>
            <AltitudeMeters>812</AltitudeMeters>
            <DistanceMeters>NAN</DistanceMeters>
          </Trackpoint>
          <Trackpoint>
            <Time>2020-12-05T13:44:57.000Z</Time>
            <Position>
              <LatitudeDegrees>36.81878766976296901702880859375</LatitudeDegrees>
              <LongitudeDegrees>-4.38627264462411403656005859375</LongitudeDegrees>
            </Position>
            <AltitudeMeters>812</AltitudeMeters>
            <DistanceMeters>NAN</DistanceMeters>
          </Trackpoint>
          <Trackpoint>
            <Time>2020-12-05T13:44:58.000Z</Time>
            <Position>
              <LatitudeDegrees>36.818794123828411102294921875</LatitudeDegrees>
              <LongitudeDegrees>-4.3862611614167690277099609375</LongitudeDegrees>
            </Position>
            <AltitudeMeters>812.20001220703125</AltitudeMeters>
            <DistanceMeters>NAN</DistanceMeters>
          </Trackpoint>
          <Trackpoint>
            <Time>2020-12-05T13:44:59.000Z</Time>
            <Position>
              <LatitudeDegrees>36.8188025057315826416015625</LatitudeDegrees>
              <LongitudeDegrees>-4.3862487562000751495361328125</LongitudeDegrees>
            </Position>
            <AltitudeMeters>812.20001220703125</AltitudeMeters>
            <DistanceMeters>NAN</DistanceMeters>
          </Trackpoint>
          <Trackpoint>
            <Time>2020-12-05T13:45:00.000Z</Time>
            <Position>
              <LatitudeDegrees>36.818811893463134765625</LatitudeDegrees>
              <LongitudeDegrees>-4.38623542897403240203857421875</LongitudeDegrees>
            </Position>
            <AltitudeMeters>812.20001220703125</AltitudeMeters>
            <DistanceMeters>NAN</DistanceMeters>
          </Trackpoint>
          <Trackpoint>
            <Time>2020-12-05T13:45:01.000Z</Time>
            <Position>
              <LatitudeDegrees>36.81881926953792572021484375</LatitudeDegrees>
              <LongitudeDegrees>-4.3862257897853851318359375</LongitudeDegrees>
            </Position>
            <AltitudeMeters>812.4000244140625</AltitudeMeters>
            <DistanceMeters>NAN</DistanceMeters>
          </Trackpoint>
          <Trackpoint>
            <Time>2020-12-05T13:45:02.000Z</Time>
            <Position>
              <LatitudeDegrees>36.818826980888843536376953125</LatitudeDegrees>
              <LongitudeDegrees>-4.386215396225452423095703125</LongitudeDegrees>
            </Position>
            <AltitudeMeters>812.4000244140625</AltitudeMeters>
            <DistanceMeters>NAN</DistanceMeters>
          </Trackpoint>
          <Trackpoint>
            <Time>2020-12-05T13:45:03.000Z</Time>
            <Position>
              <LatitudeDegrees>36.81883402168750762939453125</LatitudeDegrees>
              <LongitudeDegrees>-4.3862044997513294219970703125</LongitudeDegrees>
            </Position>
            <AltitudeMeters>812.4000244140625</AltitudeMeters>
            <DistanceMeters>NAN</DistanceMeters>
          </Trackpoint>
          <Trackpoint>
            <Time>2020-12-05T13:45:04.000Z</Time>
            <Position>
              <LatitudeDegrees>36.8188415654003620147705078125</LatitudeDegrees>
              <LongitudeDegrees>-4.38619402237236499786376953125</LongitudeDegrees>
            </Position>
            <AltitudeMeters>812.4000244140625</AltitudeMeters>
            <DistanceMeters>NAN</DistanceMeters>
          </Trackpoint>
          <Trackpoint>
            <Time>2020-12-05T13:45:05.000Z</Time>
            <Position>
              <LatitudeDegrees>36.81884952820837497711181640625</LatitudeDegrees>
              <LongitudeDegrees>-4.38618547283113002777099609375</LongitudeDegrees>
            </Position>
            <AltitudeMeters>812.4000244140625</AltitudeMeters>
            <DistanceMeters>NAN</DistanceMeters>
          </Trackpoint>
          <Trackpoint>
            <Time>2020-12-05T13:45:06.000Z</Time>
            <Position>
              <LatitudeDegrees>36.81885975413024425506591796875</LatitudeDegrees>
              <LongitudeDegrees>-4.3861763365566730499267578125</LongitudeDegrees>
            </Position>
            <AltitudeMeters>812.4000244140625</AltitudeMeters>
            <DistanceMeters>NAN</DistanceMeters>
          </Trackpoint>
          <Trackpoint>
            <Time>2020-12-05T13:45:07.000Z</Time>
            <Position>
              <LatitudeDegrees>36.81886947713792324066162109375</LatitudeDegrees>
              <LongitudeDegrees>-4.3861662782728672027587890625</LongitudeDegrees>
            </Position>
            <AltitudeMeters>812.20001220703125</AltitudeMeters>
            <DistanceMeters>NAN</DistanceMeters>
          </Trackpoint>
          <Trackpoint>
            <Time>2020-12-05T13:45:08.000Z</Time>
            <Position>
              <LatitudeDegrees>36.8188787810504436492919921875</LatitudeDegrees>
              <LongitudeDegrees>-4.38615445978939533233642578125</LongitudeDegrees>
            </Position>
            <AltitudeMeters>812.20001220703125</AltitudeMeters>
            <DistanceMeters>NAN</DistanceMeters>
          </Trackpoint>
          <Trackpoint>
            <Time>2020-12-05T13:45:09.000Z</Time>
            <Position>
              <LatitudeDegrees>36.8188861571252346038818359375</LatitudeDegrees>
              <LongitudeDegrees>-4.3861451558768749237060546875</LongitudeDegrees>
            </Position>
            <AltitudeMeters>812.20001220703125</AltitudeMeters>
            <DistanceMeters>NAN</DistanceMeters>
          </Trackpoint>
          <Trackpoint>
            <Time>2020-12-05T13:45:10.000Z</Time>
            <Position>
              <LatitudeDegrees>36.81889160536229610443115234375</LatitudeDegrees>
              <LongitudeDegrees>-4.38613417558372020721435546875</LongitudeDegrees>
            </Position>
            <AltitudeMeters>812.4000244140625</AltitudeMeters>
            <DistanceMeters>NAN</DistanceMeters>
          </Trackpoint>
          <Trackpoint>
            <Time>2020-12-05T13:45:11.000Z</Time>
            <Position>
              <LatitudeDegrees>36.8188968859612941741943359375</LatitudeDegrees>
              <LongitudeDegrees>-4.38612294383347034454345703125</LongitudeDegrees>
            </Position>
            <AltitudeMeters>812.4000244140625</AltitudeMeters>
            <DistanceMeters>NAN</DistanceMeters>
          </Trackpoint>
          <Trackpoint>
            <Time>2020-12-05T13:45:12.000Z</Time>
            <Position>
              <LatitudeDegrees>36.81890233419835567474365234375</LatitudeDegrees>
              <LongitudeDegrees>-4.38610970042645931243896484375</LongitudeDegrees>
            </Position>
            <AltitudeMeters>812.4000244140625</AltitudeMeters>
            <DistanceMeters>NAN</DistanceMeters>
          </Trackpoint>
          <Trackpoint>
            <Time>2020-12-05T13:45:13.000Z</Time>
            <Position>
              <LatitudeDegrees>36.8189071118831634521484375</LatitudeDegrees>
              <LongitudeDegrees>-4.38609545119106769561767578125</LongitudeDegrees>
            </Position>
            <AltitudeMeters>812.5999755859375</AltitudeMeters>
            <DistanceMeters>NAN</DistanceMeters>
          </Trackpoint>
          <Trackpoint>
            <Time>2020-12-05T13:45:14.000Z</Time>
            <Position>
              <LatitudeDegrees>36.8189106322824954986572265625</LatitudeDegrees>
              <LongitudeDegrees>-4.38608405180275440216064453125</LongitudeDegrees>
            </Position>
            <AltitudeMeters>812.5999755859375</AltitudeMeters>
            <DistanceMeters>NAN</DistanceMeters>
          </Trackpoint>
          <Trackpoint>
            <Time>2020-12-05T13:45:15.000Z</Time>
            <Position>
              <LatitudeDegrees>36.81891457177698612213134765625</LatitudeDegrees>
              <LongitudeDegrees>-4.38607147894799709320068359375</LongitudeDegrees>
            </Position>
            <AltitudeMeters>812.5999755859375</AltitudeMeters>
            <DistanceMeters>NAN</DistanceMeters>
          </Trackpoint>
          <Trackpoint>
            <Time>2020-12-05T13:45:16.000Z</Time>
            <Position>
              <LatitudeDegrees>36.81892094202339649200439453125</LatitudeDegrees>
              <LongitudeDegrees>-4.38605882227420806884765625</LongitudeDegrees>
            </Position>
            <AltitudeMeters>812.5999755859375</AltitudeMeters>
            <DistanceMeters>NAN</DistanceMeters>
          </Trackpoint>
          <Trackpoint>
            <Time>2020-12-05T13:45:17.000Z</Time>
            <Position>
              <LatitudeDegrees>36.81892915628850460052490234375</LatitudeDegrees>
              <LongitudeDegrees>-4.38604541122913360595703125</LongitudeDegrees>
            </Position>
            <AltitudeMeters>812.4000244140625</AltitudeMeters>
            <DistanceMeters>NAN</DistanceMeters>
          </Trackpoint>
          <Trackpoint>
            <Time>2020-12-05T13:45:18.000Z</Time>
            <Position>
              <LatitudeDegrees>36.8189357779920101165771484375</LatitudeDegrees>
              <LongitudeDegrees>-4.3860345147550106048583984375</LongitudeDegrees>
            </Position>
            <AltitudeMeters>812.4000244140625</AltitudeMeters>
            <DistanceMeters>NAN</DistanceMeters>
          </Trackpoint>
          <Trackpoint>
            <Time>2020-12-05T13:45:19.000Z</Time>
            <Position>
              <LatitudeDegrees>36.81894399225711822509765625</LatitudeDegrees>
              <LongitudeDegrees>-4.3860227800905704498291015625</LongitudeDegrees>
            </Position>
            <AltitudeMeters>812.20001220703125</AltitudeMeters>
            <DistanceMeters>NAN</DistanceMeters>
          </Trackpoint>
          <Trackpoint>
            <Time>2020-12-05T13:45:20.000Z</Time>
            <Position>
              <LatitudeDegrees>36.81895044632256031036376953125</LatitudeDegrees>
              <LongitudeDegrees>-4.3860117159783840179443359375</LongitudeDegrees>
            </Position>
            <AltitudeMeters>812</AltitudeMeters>
            <DistanceMeters>NAN</DistanceMeters>
          </Trackpoint>
          <Trackpoint>
            <Time>2020-12-05T13:45:21.000Z</Time>
            <Position>
              <LatitudeDegrees>36.8189553916454315185546875</LatitudeDegrees>
              <LongitudeDegrees>-4.38600140623748302459716796875</LongitudeDegrees>
            </Position>
            <AltitudeMeters>812</AltitudeMeters>
            <DistanceMeters>NAN</DistanceMeters>
          </Trackpoint>
          <Trackpoint>
            <Time>2020-12-05T13:45:22.000Z</Time>
            <Position>
              <LatitudeDegrees>36.8189589120447635650634765625</LatitudeDegrees>
              <LongitudeDegrees>-4.38599168322980403900146484375</LongitudeDegrees>
            </Position>
            <AltitudeMeters>812</AltitudeMeters>
            <DistanceMeters>NAN</DistanceMeters>
          </Trackpoint>
          <Trackpoint>
            <Time>2020-12-05T13:45:23.000Z</Time>
            <Position>
              <LatitudeDegrees>36.818963773548603057861328125</LatitudeDegrees>
              <LongitudeDegrees>-4.38598095439374446868896484375</LongitudeDegrees>
            </Position>
            <AltitudeMeters>812</AltitudeMeters>
            <DistanceMeters>NAN</DistanceMeters>
          </Trackpoint>
          <Trackpoint>
            <Time>2020-12-05T13:45:24.000Z</Time>
            <Position>
              <LatitudeDegrees>36.8189669586718082427978515625</LatitudeDegrees>
              <LongitudeDegrees>-4.3859664537012577056884765625</LongitudeDegrees>
            </Position>
            <AltitudeMeters>812</AltitudeMeters>
            <DistanceMeters>NAN</DistanceMeters>
          </Trackpoint>
          <Trackpoint>
            <Time>2020-12-05T13:45:25.000Z</Time>
            <Position>
              <LatitudeDegrees>36.8189662881195545196533203125</LatitudeDegrees>
              <LongitudeDegrees>-4.38595212064683437347412109375</LongitudeDegrees>
            </Position>
            <AltitudeMeters>812</AltitudeMeters>
            <DistanceMeters>NAN</DistanceMeters>
          </Trackpoint>
          <Trackpoint>
            <Time>2020-12-05T13:45:26.000Z</Time>
            <Position>
              <LatitudeDegrees>36.8189622648060321807861328125</LatitudeDegrees>
              <LongitudeDegrees>-4.3859325908124446868896484375</LongitudeDegrees>
            </Position>
            <AltitudeMeters>812</AltitudeMeters>
            <DistanceMeters>NAN</DistanceMeters>
          </Trackpoint>
          <Trackpoint>
            <Time>2020-12-05T13:45:27.000Z</Time>
            <Position>
              <LatitudeDegrees>36.8189589120447635650634765625</LatitudeDegrees>
              <LongitudeDegrees>-4.385917000472545623779296875</LongitudeDegrees>
            </Position>
            <AltitudeMeters>812</AltitudeMeters>
            <DistanceMeters>NAN</DistanceMeters>
          </Trackpoint>
          <Trackpoint>
            <Time>2020-12-05T13:45:28.000Z</Time>
            <Position>
              <LatitudeDegrees>36.81895413435995578765869140625</LatitudeDegrees>
              <LongitudeDegrees>-4.38590182922780513763427734375</LongitudeDegrees>
            </Position>
            <AltitudeMeters>811.79998779296875</AltitudeMeters>
            <DistanceMeters>NAN</DistanceMeters>
          </Trackpoint>
          <Trackpoint>
            <Time>2020-12-05T13:45:29.000Z</Time>
            <Position>
              <LatitudeDegrees>36.8189508654177188873291015625</LatitudeDegrees>
              <LongitudeDegrees>-4.38588489778339862823486328125</LongitudeDegrees>
            </Position>
            <AltitudeMeters>811.79998779296875</AltitudeMeters>
            <DistanceMeters>NAN</DistanceMeters>
          </Trackpoint>
          <Trackpoint>
            <Time>2020-12-05T13:45:30.000Z</Time>
            <Position>
              <LatitudeDegrees>36.81895011104643344879150390625</LatitudeDegrees>
              <LongitudeDegrees>-4.385875426232814788818359375</LongitudeDegrees>
            </Position>
            <AltitudeMeters>811.79998779296875</AltitudeMeters>
            <DistanceMeters>NAN</DistanceMeters>
          </Trackpoint>
          <Trackpoint>
            <Time>2020-12-05T13:45:31.000Z</Time>
            <Position>
              <LatitudeDegrees>36.81894759647548198699951171875</LatitudeDegrees>
              <LongitudeDegrees>-4.38586763106286525726318359375</LongitudeDegrees>
            </Position>
            <AltitudeMeters>811.79998779296875</AltitudeMeters>
            <DistanceMeters>NAN</DistanceMeters>
          </Trackpoint>
          <Trackpoint>
            <Time>2020-12-05T13:45:32.000Z</Time>
            <Position>
              <LatitudeDegrees>36.818944327533245086669921875</LatitudeDegrees>
              <LongitudeDegrees>-4.3858551420271396636962890625</LongitudeDegrees>
            </Position>
            <AltitudeMeters>812</AltitudeMeters>
            <DistanceMeters>NAN</DistanceMeters>
          </Trackpoint>
          <Trackpoint>
            <Time>2020-12-05T13:45:33.000Z</Time>
            <Position>
              <LatitudeDegrees>36.818939633667469024658203125</LatitudeDegrees>
              <LongitudeDegrees>-4.38583888113498687744140625</LongitudeDegrees>
            </Position>
            <AltitudeMeters>812.20001220703125</AltitudeMeters>
            <DistanceMeters>NAN</DistanceMeters>
          </Trackpoint>
          <Trackpoint>
            <Time>2020-12-05T13:45:34.000Z</Time>
            <Position>
              <LatitudeDegrees>36.818934269249439239501953125</LatitudeDegrees>
              <LongitudeDegrees>-4.38582069240510463714599609375</LongitudeDegrees>
            </Position>
            <AltitudeMeters>812.5999755859375</AltitudeMeters>
            <DistanceMeters>NAN</DistanceMeters>
          </Trackpoint>
          <Trackpoint>
            <Time>2020-12-05T13:45:35.000Z</Time>
            <Position>
              <LatitudeDegrees>36.8189330957829952239990234375</LatitudeDegrees>
              <LongitudeDegrees>-4.38580325804650783538818359375</LongitudeDegrees>
            </Position>
            <AltitudeMeters>812.5999755859375</AltitudeMeters>
            <DistanceMeters>NAN</DistanceMeters>
          </Trackpoint>
          <Trackpoint>
            <Time>2020-12-05T13:45:36.000Z</Time>
            <Position>
              <LatitudeDegrees>36.81893334724009037017822265625</LatitudeDegrees>
              <LongitudeDegrees>-4.38579135574400424957275390625</LongitudeDegrees>
            </Position>
            <AltitudeMeters>812.79998779296875</AltitudeMeters>
            <DistanceMeters>NAN</DistanceMeters>
          </Trackpoint>
          <Trackpoint>
            <Time>2020-12-05T13:45:37.000Z</Time>
            <Position>
              <LatitudeDegrees>36.81893468834459781646728515625</LatitudeDegrees>
              <LongitudeDegrees>-4.38577760942280292510986328125</LongitudeDegrees>
            </Position>
            <AltitudeMeters>812.5999755859375</AltitudeMeters>
            <DistanceMeters>NAN</DistanceMeters>
          </Trackpoint>
          <Trackpoint>
            <Time>2020-12-05T13:45:38.000Z</Time>
            <Position>
              <LatitudeDegrees>36.81893720291554927825927734375</LatitudeDegrees>
              <LongitudeDegrees>-4.38576553948223590850830078125</LongitudeDegrees>
            </Position>
            <AltitudeMeters>812.5999755859375</AltitudeMeters>
            <DistanceMeters>NAN</DistanceMeters>
          </Trackpoint>
          <Trackpoint>
            <Time>2020-12-05T13:45:39.000Z</Time>
            <Position>
              <LatitudeDegrees>36.81894307024776935577392578125</LatitudeDegrees>
              <LongitudeDegrees>-4.38575170934200286865234375</LongitudeDegrees>
            </Position>
            <AltitudeMeters>812.4000244140625</AltitudeMeters>
            <DistanceMeters>NAN</DistanceMeters>
          </Trackpoint>
          <Trackpoint>
            <Time>2020-12-05T13:45:40.000Z</Time>
            <Position>
              <LatitudeDegrees>36.818944998085498809814453125</LatitudeDegrees>
              <LongitudeDegrees>-4.38574123196303844451904296875</LongitudeDegrees>
            </Position>
            <AltitudeMeters>812.4000244140625</AltitudeMeters>
            <DistanceMeters>NAN</DistanceMeters>
          </Trackpoint>
          <Trackpoint>
            <Time>2020-12-05T13:45:41.000Z</Time>
            <Position>
              <LatitudeDegrees>36.81894491426646709442138671875</LatitudeDegrees>
              <LongitudeDegrees>-4.38573301769793033599853515625</LongitudeDegrees>
            </Position>
            <AltitudeMeters>812.20001220703125</AltitudeMeters>
            <DistanceMeters>NAN</DistanceMeters>
          </Trackpoint>
          <Trackpoint>
            <Time>2020-12-05T13:45:42.000Z</Time>
            <Position>
              <LatitudeDegrees>36.81894508190453052520751953125</LatitudeDegrees>
              <LongitudeDegrees>-4.38572362996637821197509765625</LongitudeDegrees>
            </Position>
            <AltitudeMeters>812.20001220703125</AltitudeMeters>
            <DistanceMeters>NAN</DistanceMeters>
          </Trackpoint>
          <Trackpoint>
            <Time>2020-12-05T13:45:43.000Z</Time>
            <Position>
              <LatitudeDegrees>36.81894390843808650970458984375</LatitudeDegrees>
              <LongitudeDegrees>-4.3857129849493503570556640625</LongitudeDegrees>
            </Position>
            <AltitudeMeters>812.20001220703125</AltitudeMeters>
            <DistanceMeters>NAN</DistanceMeters>
          </Trackpoint>
          <Trackpoint>
            <Time>2020-12-05T13:45:44.000Z</Time>
            <Position>
              <LatitudeDegrees>36.8189411424100399017333984375</LatitudeDegrees>
              <LongitudeDegrees>-4.3857005797326564788818359375</LongitudeDegrees>
            </Position>
            <AltitudeMeters>812.20001220703125</AltitudeMeters>
            <DistanceMeters>NAN</DistanceMeters>
          </Trackpoint>
          <Trackpoint>
            <Time>2020-12-05T13:45:45.000Z</Time>
            <Position>
              <LatitudeDegrees>36.81893862783908843994140625</LatitudeDegrees>
              <LongitudeDegrees>-4.3856858275830745697021484375</LongitudeDegrees>
            </Position>
            <AltitudeMeters>812</AltitudeMeters>
            <DistanceMeters>NAN</DistanceMeters>
          </Trackpoint>
          <Trackpoint>
            <Time>2020-12-05T13:45:46.000Z</Time>
            <Position>
              <LatitudeDegrees>36.81894256733357906341552734375</LatitudeDegrees>
              <LongitudeDegrees>-4.38566428609192371368408203125</LongitudeDegrees>
            </Position>
            <AltitudeMeters>812</AltitudeMeters>
            <DistanceMeters>NAN</DistanceMeters>
          </Trackpoint>
          <Trackpoint>
            <Time>2020-12-05T13:45:47.000Z</Time>
            <Position>
              <LatitudeDegrees>36.81894273497164249420166015625</LatitudeDegrees>
              <LongitudeDegrees>-4.3856502883136272430419921875</LongitudeDegrees>
            </Position>
            <AltitudeMeters>811.79998779296875</AltitudeMeters>
            <DistanceMeters>NAN</DistanceMeters>
          </Trackpoint>
          <Trackpoint>
            <Time>2020-12-05T13:45:48.000Z</Time>
            <Position>
              <LatitudeDegrees>36.8189421482384204864501953125</LatitudeDegrees>
              <LongitudeDegrees>-4.38563293777406215667724609375</LongitudeDegrees>
            </Position>
            <AltitudeMeters>811.79998779296875</AltitudeMeters>
            <DistanceMeters>NAN</DistanceMeters>
          </Trackpoint>
          <Trackpoint>
            <Time>2020-12-05T13:45:49.000Z</Time>
            <Position>
              <LatitudeDegrees>36.8189401365816593170166015625</LatitudeDegrees>
              <LongitudeDegrees>-4.385619275271892547607421875</LongitudeDegrees>
            </Position>
            <AltitudeMeters>811.79998779296875</AltitudeMeters>
            <DistanceMeters>NAN</DistanceMeters>
          </Trackpoint>
          <Trackpoint>
            <Time>2020-12-05T13:45:50.000Z</Time>
            <Position>
              <LatitudeDegrees>36.81893887929618358612060546875</LatitudeDegrees>
              <LongitudeDegrees>-4.38560510985553264617919921875</LongitudeDegrees>
            </Position>
            <AltitudeMeters>811.5999755859375</AltitudeMeters>
            <DistanceMeters>NAN</DistanceMeters>
          </Trackpoint>
          <Trackpoint>
            <Time>2020-12-05T13:45:51.000Z</Time>
            <Position>
              <LatitudeDegrees>36.81893804110586643218994140625</LatitudeDegrees>
              <LongitudeDegrees>-4.3855906091630458831787109375</LongitudeDegrees>
            </Position>
            <AltitudeMeters>811.5999755859375</AltitudeMeters>
            <DistanceMeters>NAN</DistanceMeters>
          </Trackpoint>
          <Trackpoint>
            <Time>2020-12-05T13:45:52.000Z</Time>
            <Position>
              <LatitudeDegrees>36.8189366161823272705078125</LatitudeDegrees>
              <LongitudeDegrees>-4.3855771981179714202880859375</LongitudeDegrees>
            </Position>
            <AltitudeMeters>811.5999755859375</AltitudeMeters>
            <DistanceMeters>NAN</DistanceMeters>
          </Trackpoint>
          <Trackpoint>
            <Time>2020-12-05T13:45:53.000Z</Time>
            <Position>
              <LatitudeDegrees>36.8189357779920101165771484375</LatitudeDegrees>
              <LongitudeDegrees>-4.38556336797773838043212890625</LongitudeDegrees>
            </Position>
            <AltitudeMeters>811.5999755859375</AltitudeMeters>
            <DistanceMeters>NAN</DistanceMeters>
          </Trackpoint>
          <Trackpoint>
            <Time>2020-12-05T13:45:54.000Z</Time>
            <Position>
              <LatitudeDegrees>36.818934269249439239501953125</LatitudeDegrees>
              <LongitudeDegrees>-4.3855500407516956329345703125</LongitudeDegrees>
            </Position>
            <AltitudeMeters>811.4000244140625</AltitudeMeters>
            <DistanceMeters>NAN</DistanceMeters>
          </Trackpoint>
          <Trackpoint>
            <Time>2020-12-05T13:45:55.000Z</Time>
            <Position>
              <LatitudeDegrees>36.8189320899546146392822265625</LatitudeDegrees>
              <LongitudeDegrees>-4.3855359591543674468994140625</LongitudeDegrees>
            </Position>
            <AltitudeMeters>811.4000244140625</AltitudeMeters>
            <DistanceMeters>NAN</DistanceMeters>
          </Trackpoint>
          <Trackpoint>
            <Time>2020-12-05T13:45:56.000Z</Time>
            <Position>
              <LatitudeDegrees>36.8189297430217266082763671875</LatitudeDegrees>
              <LongitudeDegrees>-4.3855205364525318145751953125</LongitudeDegrees>
            </Position>
            <AltitudeMeters>811.20001220703125</AltitudeMeters>
            <DistanceMeters>NAN</DistanceMeters>
          </Trackpoint>
          <Trackpoint>
            <Time>2020-12-05T13:45:57.000Z</Time>
            <Position>
              <LatitudeDegrees>36.81892781518399715423583984375</LatitudeDegrees>
              <LongitudeDegrees>-4.3855057843029499053955078125</LongitudeDegrees>
            </Position>
            <AltitudeMeters>811.20001220703125</AltitudeMeters>
            <DistanceMeters>NAN</DistanceMeters>
          </Trackpoint>
          <Trackpoint>
            <Time>2020-12-05T13:45:58.000Z</Time>
            <Position>
              <LatitudeDegrees>36.8189258873462677001953125</LatitudeDegrees>
              <LongitudeDegrees>-4.38549145124852657318115234375</LongitudeDegrees>
            </Position>
            <AltitudeMeters>811.20001220703125</AltitudeMeters>
            <DistanceMeters>NAN</DistanceMeters>
          </Trackpoint>
          <Trackpoint>
            <Time>2020-12-05T13:45:59.000Z</Time>
            <Position>
              <LatitudeDegrees>36.818921864032745361328125</LatitudeDegrees>
              <LongitudeDegrees>-4.38547904603183269500732421875</LongitudeDegrees>
            </Position>
            <AltitudeMeters>811.20001220703125</AltitudeMeters>
            <DistanceMeters>NAN</DistanceMeters>
          </Trackpoint>
          <Trackpoint>
            <Time>2020-12-05T13:46:00.000Z</Time>
            <Position>
              <LatitudeDegrees>36.81891859509050846099853515625</LatitudeDegrees>
              <LongitudeDegrees>-4.3854653835296630859375</LongitudeDegrees>
            </Position>
            <AltitudeMeters>811.20001220703125</AltitudeMeters>
            <DistanceMeters>NAN</DistanceMeters>
          </Trackpoint>
          <Trackpoint>
            <Time>2020-12-05T13:46:01.000Z</Time>
            <Position>
              <LatitudeDegrees>36.81891742162406444549560546875</LatitudeDegrees>
              <LongitudeDegrees>-4.38545021228492259979248046875</LongitudeDegrees>
            </Position>
            <AltitudeMeters>811.4000244140625</AltitudeMeters>
            <DistanceMeters>NAN</DistanceMeters>
          </Trackpoint>
          <Trackpoint>
            <Time>2020-12-05T13:46:02.000Z</Time>
            <Position>
              <LatitudeDegrees>36.81891423650085926055908203125</LatitudeDegrees>
              <LongitudeDegrees>-4.38543780706822872161865234375</LongitudeDegrees>
            </Position>
            <AltitudeMeters>811.4000244140625</AltitudeMeters>
            <DistanceMeters>NAN</DistanceMeters>
          </Trackpoint>
          <Trackpoint>
            <Time>2020-12-05T13:46:03.000Z</Time>
            <Position>
              <LatitudeDegrees>36.81891021318733692169189453125</LatitudeDegrees>
              <LongitudeDegrees>-4.38542439602315425872802734375</LongitudeDegrees>
            </Position>
            <AltitudeMeters>811.5999755859375</AltitudeMeters>
            <DistanceMeters>NAN</DistanceMeters>
          </Trackpoint>
          <Trackpoint>
            <Time>2020-12-05T13:46:04.000Z</Time>
            <Position>
              <LatitudeDegrees>36.8189082853496074676513671875</LatitudeDegrees>
              <LongitudeDegrees>-4.3854125775396823883056640625</LongitudeDegrees>
            </Position>
            <AltitudeMeters>811.79998779296875</AltitudeMeters>
            <DistanceMeters>NAN</DistanceMeters>
          </Trackpoint>
          <Trackpoint>
            <Time>2020-12-05T13:46:05.000Z</Time>
            <Position>
              <LatitudeDegrees>36.81890535168349742889404296875</LatitudeDegrees>
              <LongitudeDegrees>-4.3854011781513690948486328125</LongitudeDegrees>
            </Position>
            <AltitudeMeters>811.79998779296875</AltitudeMeters>
            <DistanceMeters>NAN</DistanceMeters>
          </Trackpoint>
          <Trackpoint>
            <Time>2020-12-05T13:46:06.000Z</Time>
            <Position>
              <LatitudeDegrees>36.81890132836997509002685546875</LatitudeDegrees>
              <LongitudeDegrees>-4.3853911198675632476806640625</LongitudeDegrees>
            </Position>
            <AltitudeMeters>812</AltitudeMeters>
            <DistanceMeters>NAN</DistanceMeters>
          </Trackpoint>
          <Trackpoint>
            <Time>2020-12-05T13:46:07.000Z</Time>
            <Position>
              <LatitudeDegrees>36.818897388875484466552734375</LatitudeDegrees>
              <LongitudeDegrees>-4.38538064248859882354736328125</LongitudeDegrees>
            </Position>
            <AltitudeMeters>812</AltitudeMeters>
            <DistanceMeters>NAN</DistanceMeters>
          </Trackpoint>
          <Trackpoint>
            <Time>2020-12-05T13:46:08.000Z</Time>
            <Position>
              <LatitudeDegrees>36.8188921920955181121826171875</LatitudeDegrees>
              <LongitudeDegrees>-4.38536639325320720672607421875</LongitudeDegrees>
            </Position>
            <AltitudeMeters>812</AltitudeMeters>
            <DistanceMeters>NAN</DistanceMeters>
          </Trackpoint>
          <Trackpoint>
            <Time>2020-12-05T13:46:09.000Z</Time>
            <Position>
              <LatitudeDegrees>36.81888640858232975006103515625</LatitudeDegrees>
              <LongitudeDegrees>-4.38535206019878387451171875</LongitudeDegrees>
            </Position>
            <AltitudeMeters>812</AltitudeMeters>
            <DistanceMeters>NAN</DistanceMeters>
          </Trackpoint>
          <Trackpoint>
            <Time>2020-12-05T13:46:10.000Z</Time>
            <Position>
              <LatitudeDegrees>36.818883307278156280517578125</LatitudeDegrees>
              <LongitudeDegrees>-4.38533999025821685791015625</LongitudeDegrees>
            </Position>
            <AltitudeMeters>812.20001220703125</AltitudeMeters>
            <DistanceMeters>NAN</DistanceMeters>
          </Trackpoint>
          <Trackpoint>
            <Time>2020-12-05T13:46:11.000Z</Time>
            <Position>
              <LatitudeDegrees>36.81887920014560222625732421875</LatitudeDegrees>
              <LongitudeDegrees>-4.38532616011798381805419921875</LongitudeDegrees>
            </Position>
            <AltitudeMeters>812.4000244140625</AltitudeMeters>
            <DistanceMeters>NAN</DistanceMeters>
          </Trackpoint>
          <Trackpoint>
            <Time>2020-12-05T13:46:12.000Z</Time>
            <Position>
              <LatitudeDegrees>36.818876601755619049072265625</LatitudeDegrees>
              <LongitudeDegrees>-4.38531191088259220123291015625</LongitudeDegrees>
            </Position>
            <AltitudeMeters>812.4000244140625</AltitudeMeters>
            <DistanceMeters>NAN</DistanceMeters>
          </Trackpoint>
          <Trackpoint>
            <Time>2020-12-05T13:46:13.000Z</Time>
            <Position>
              <LatitudeDegrees>36.81887425482273101806640625</LatitudeDegrees>
              <LongitudeDegrees>-4.3853042833507061004638671875</LongitudeDegrees>
            </Position>
            <AltitudeMeters>812.5999755859375</AltitudeMeters>
            <DistanceMeters>NAN</DistanceMeters>
          </Trackpoint>
          <Trackpoint>
            <Time>2020-12-05T13:46:14.000Z</Time>
            <Position>
              <LatitudeDegrees>36.81887215934693813323974609375</LatitudeDegrees>
              <LongitudeDegrees>-4.3852955661714076995849609375</LongitudeDegrees>
            </Position>
            <AltitudeMeters>812.79998779296875</AltitudeMeters>
            <DistanceMeters>NAN</DistanceMeters>
          </Trackpoint>
          <Trackpoint>
            <Time>2020-12-05T13:46:15.000Z</Time>
            <Position>
              <LatitudeDegrees>36.818869896233081817626953125</LatitudeDegrees>
              <LongitudeDegrees>-4.38528592698276042938232421875</LongitudeDegrees>
            </Position>
            <AltitudeMeters>812.79998779296875</AltitudeMeters>
            <DistanceMeters>NAN</DistanceMeters>
          </Trackpoint>
          <Trackpoint>
            <Time>2020-12-05T13:46:16.000Z</Time>
            <Position>
              <LatitudeDegrees>36.818867214024066925048828125</LatitudeDegrees>
              <LongitudeDegrees>-4.3852727673947811126708984375</LongitudeDegrees>
            </Position>
            <AltitudeMeters>813</AltitudeMeters>
            <DistanceMeters>NAN</DistanceMeters>
          </Trackpoint>
          <Trackpoint>
            <Time>2020-12-05T13:46:17.000Z</Time>
            <Position>
              <LatitudeDegrees>36.8188640289008617401123046875</LatitudeDegrees>
              <LongitudeDegrees>-4.3852590210735797882080078125</LongitudeDegrees>
            </Position>
            <AltitudeMeters>813.20001220703125</AltitudeMeters>
            <DistanceMeters>NAN</DistanceMeters>
          </Trackpoint>
          <Trackpoint>
            <Time>2020-12-05T13:46:18.000Z</Time>
            <Position>
              <LatitudeDegrees>36.81886109523475170135498046875</LatitudeDegrees>
              <LongitudeDegrees>-4.38524435274302959442138671875</LongitudeDegrees>
            </Position>
            <AltitudeMeters>813.20001220703125</AltitudeMeters>
            <DistanceMeters>NAN</DistanceMeters>
          </Trackpoint>
          <Trackpoint>
            <Time>2020-12-05T13:46:19.000Z</Time>
            <Position>
              <LatitudeDegrees>36.81885858066380023956298828125</LatitudeDegrees>
              <LongitudeDegrees>-4.38523362390697002410888671875</LongitudeDegrees>
            </Position>
            <AltitudeMeters>813.4000244140625</AltitudeMeters>
            <DistanceMeters>NAN</DistanceMeters>
          </Trackpoint>
          <Trackpoint>
            <Time>2020-12-05T13:46:20.000Z</Time>
            <Position>
              <LatitudeDegrees>36.8188553117215633392333984375</LatitudeDegrees>
              <LongitudeDegrees>-4.38522188924252986907958984375</LongitudeDegrees>
            </Position>
            <AltitudeMeters>813.4000244140625</AltitudeMeters>
            <DistanceMeters>NAN</DistanceMeters>
          </Trackpoint>
          <Trackpoint>
            <Time>2020-12-05T13:46:21.000Z</Time>
            <Position>
              <LatitudeDegrees>36.81885321624577045440673828125</LatitudeDegrees>
              <LongitudeDegrees>-4.38521082513034343719482421875</LongitudeDegrees>
            </Position>
            <AltitudeMeters>813.5999755859375</AltitudeMeters>
            <DistanceMeters>NAN</DistanceMeters>
          </Trackpoint>
          <Trackpoint>
            <Time>2020-12-05T13:46:22.000Z</Time>
            <Position>
              <LatitudeDegrees>36.818851120769977569580078125</LatitudeDegrees>
              <LongitudeDegrees>-4.38519573770463466644287109375</LongitudeDegrees>
            </Position>
            <AltitudeMeters>813.79998779296875</AltitudeMeters>
            <DistanceMeters>NAN</DistanceMeters>
          </Trackpoint>
          <Trackpoint>
            <Time>2020-12-05T13:46:23.000Z</Time>
            <Position>
              <LatitudeDegrees>36.8188472650945186614990234375</LatitudeDegrees>
              <LongitudeDegrees>-4.3851775489747524261474609375</LongitudeDegrees>
            </Position>
            <AltitudeMeters>813.79998779296875</AltitudeMeters>
            <DistanceMeters>NAN</DistanceMeters>
          </Trackpoint>
          <Trackpoint>
            <Time>2020-12-05T13:46:24.000Z</Time>
            <Position>
              <LatitudeDegrees>36.8188459239900112152099609375</LatitudeDegrees>
              <LongitudeDegrees>-4.38515567220747470855712890625</LongitudeDegrees>
            </Position>
            <AltitudeMeters>813.79998779296875</AltitudeMeters>
            <DistanceMeters>NAN</DistanceMeters>
          </Trackpoint>
          <Trackpoint>
            <Time>2020-12-05T13:46:25.000Z</Time>
            <Position>
              <LatitudeDegrees>36.81884299032390117645263671875</LatitudeDegrees>
              <LongitudeDegrees>-4.385137148201465606689453125</LongitudeDegrees>
            </Position>
            <AltitudeMeters>813.79998779296875</AltitudeMeters>
            <DistanceMeters>NAN</DistanceMeters>
          </Trackpoint>
          <Trackpoint>
            <Time>2020-12-05T13:46:26.000Z</Time>
            <Position>
              <LatitudeDegrees>36.81884081102907657623291015625</LatitudeDegrees>
              <LongitudeDegrees>-4.38511929474771022796630859375</LongitudeDegrees>
            </Position>
            <AltitudeMeters>813.79998779296875</AltitudeMeters>
            <DistanceMeters>NAN</DistanceMeters>
          </Trackpoint>
          <Trackpoint>
            <Time>2020-12-05T13:46:27.000Z</Time>
            <Position>
              <LatitudeDegrees>36.818839050829410552978515625</LatitudeDegrees>
              <LongitudeDegrees>-4.3850992619991302490234375</LongitudeDegrees>
            </Position>
            <AltitudeMeters>813.79998779296875</AltitudeMeters>
            <DistanceMeters>NAN</DistanceMeters>
          </Trackpoint>
          <Trackpoint>
            <Time>2020-12-05T13:46:28.000Z</Time>
            <Position>
              <LatitudeDegrees>36.81883745826780796051025390625</LatitudeDegrees>
              <LongitudeDegrees>-4.385081492364406585693359375</LongitudeDegrees>
            </Position>
            <AltitudeMeters>813.5999755859375</AltitudeMeters>
            <DistanceMeters>NAN</DistanceMeters>
          </Trackpoint>
          <Trackpoint>
            <Time>2020-12-05T13:46:29.000Z</Time>
            <Position>
              <LatitudeDegrees>36.818836368620395660400390625</LatitudeDegrees>
              <LongitudeDegrees>-4.38506665639579296112060546875</LongitudeDegrees>
            </Position>
            <AltitudeMeters>813.5999755859375</AltitudeMeters>
            <DistanceMeters>NAN</DistanceMeters>
          </Trackpoint>
          <Trackpoint>
            <Time>2020-12-05T13:46:30.000Z</Time>
            <Position>
              <LatitudeDegrees>36.8188372068107128143310546875</LatitudeDegrees>
              <LongitudeDegrees>-4.3850528262555599212646484375</LongitudeDegrees>
            </Position>
            <AltitudeMeters>813.4000244140625</AltitudeMeters>
            <DistanceMeters>NAN</DistanceMeters>
          </Trackpoint>
          <Trackpoint>
            <Time>2020-12-05T13:46:31.000Z</Time>
            <Position>
              <LatitudeDegrees>36.8188435770571231842041015625</LatitudeDegrees>
              <LongitudeDegrees>-4.38503162004053592681884765625</LongitudeDegrees>
            </Position>
            <AltitudeMeters>813.20001220703125</AltitudeMeters>
            <DistanceMeters>NAN</DistanceMeters>
          </Trackpoint>
          <Trackpoint>
            <Time>2020-12-05T13:46:32.000Z</Time>
            <Position>
              <LatitudeDegrees>36.81885086931288242340087890625</LatitudeDegrees>
              <LongitudeDegrees>-4.38500932417809963226318359375</LongitudeDegrees>
            </Position>
            <AltitudeMeters>813.20001220703125</AltitudeMeters>
            <DistanceMeters>NAN</DistanceMeters>
          </Trackpoint>
          <Trackpoint>
            <Time>2020-12-05T13:46:33.000Z</Time>
            <Position>
              <LatitudeDegrees>36.8188522942364215850830078125</LatitudeDegrees>
              <LongitudeDegrees>-4.384994991123676300048828125</LongitudeDegrees>
            </Position>
            <AltitudeMeters>813</AltitudeMeters>
            <DistanceMeters>NAN</DistanceMeters>
          </Trackpoint>
          <Trackpoint>
            <Time>2020-12-05T13:46:34.000Z</Time>
            <Position>
              <LatitudeDegrees>36.81885589845478534698486328125</LatitudeDegrees>
              <LongitudeDegrees>-4.38498250208795070648193359375</LongitudeDegrees>
            </Position>
            <AltitudeMeters>813</AltitudeMeters>
            <DistanceMeters>NAN</DistanceMeters>
          </Trackpoint>
          <Trackpoint>
            <Time>2020-12-05T13:46:35.000Z</Time>
            <Position>
              <LatitudeDegrees>36.81885925121605396270751953125</LatitudeDegrees>
              <LongitudeDegrees>-4.38497160561382770538330078125</LongitudeDegrees>
            </Position>
            <AltitudeMeters>812.79998779296875</AltitudeMeters>
            <DistanceMeters>NAN</DistanceMeters>
          </Trackpoint>
          <Trackpoint>
            <Time>2020-12-05T13:46:36.000Z</Time>
            <Position>
              <LatitudeDegrees>36.81886293925344944000244140625</LatitudeDegrees>
              <LongitudeDegrees>-4.38496003858745098114013671875</LongitudeDegrees>
            </Position>
            <AltitudeMeters>812.4000244140625</AltitudeMeters>
            <DistanceMeters>NAN</DistanceMeters>
          </Trackpoint>
          <Trackpoint>
            <Time>2020-12-05T13:46:37.000Z</Time>
            <Position>
              <LatitudeDegrees>36.81886645965278148651123046875</LatitudeDegrees>
              <LongitudeDegrees>-4.38494411297142505645751953125</LongitudeDegrees>
            </Position>
            <AltitudeMeters>812.20001220703125</AltitudeMeters>
            <DistanceMeters>NAN</DistanceMeters>
          </Trackpoint>
          <Trackpoint>
            <Time>2020-12-05T13:46:38.000Z</Time>
            <Position>
              <LatitudeDegrees>36.81887735612690448760986328125</LatitudeDegrees>
              <LongitudeDegrees>-4.38492801971733570098876953125</LongitudeDegrees>
            </Position>
            <AltitudeMeters>812.20001220703125</AltitudeMeters>
            <DistanceMeters>NAN</DistanceMeters>
          </Trackpoint>
          <Trackpoint>
            <Time>2020-12-05T13:46:39.000Z</Time>
            <Position>
              <LatitudeDegrees>36.81888188235461711883544921875</LatitudeDegrees>
              <LongitudeDegrees>-4.38491628505289554595947265625</LongitudeDegrees>
            </Position>
            <AltitudeMeters>812</AltitudeMeters>
            <DistanceMeters>NAN</DistanceMeters>
          </Trackpoint>
          <Trackpoint>
            <Time>2020-12-05T13:46:40.000Z</Time>
            <Position>
              <LatitudeDegrees>36.8188881687819957733154296875</LatitudeDegrees>
              <LongitudeDegrees>-4.3849076516926288604736328125</LongitudeDegrees>
            </Position>
            <AltitudeMeters>812.20001220703125</AltitudeMeters>
            <DistanceMeters>NAN</DistanceMeters>
          </Trackpoint>
          <Trackpoint>
            <Time>2020-12-05T13:46:41.000Z</Time>
            <Position>
              <LatitudeDegrees>36.8188931979238986968994140625</LatitudeDegrees>
              <LongitudeDegrees>-4.38490102998912334442138671875</LongitudeDegrees>
            </Position>
            <AltitudeMeters>812.20001220703125</AltitudeMeters>
            <DistanceMeters>NAN</DistanceMeters>
          </Trackpoint>
          <Trackpoint>
            <Time>2020-12-05T13:46:42.000Z</Time>
            <Position>
              <LatitudeDegrees>36.8188968859612941741943359375</LatitudeDegrees>
              <LongitudeDegrees>-4.384891726076602935791015625</LongitudeDegrees>
            </Position>
            <AltitudeMeters>812.20001220703125</AltitudeMeters>
            <DistanceMeters>NAN</DistanceMeters>
          </Trackpoint>
          <Trackpoint>
            <Time>2020-12-05T13:46:43.000Z</Time>
            <Position>
              <LatitudeDegrees>36.81889881379902362823486328125</LatitudeDegrees>
              <LongitudeDegrees>-4.38488326035439968109130859375</LongitudeDegrees>
            </Position>
            <AltitudeMeters>812.4000244140625</AltitudeMeters>
            <DistanceMeters>NAN</DistanceMeters>
          </Trackpoint>
          <Trackpoint>
            <Time>2020-12-05T13:46:44.000Z</Time>
            <Position>
              <LatitudeDegrees>36.81890233419835567474365234375</LatitudeDegrees>
              <LongitudeDegrees>-4.38487269915640354156494140625</LongitudeDegrees>
            </Position>
            <AltitudeMeters>812.4000244140625</AltitudeMeters>
            <DistanceMeters>NAN</DistanceMeters>
          </Trackpoint>
          <Trackpoint>
            <Time>2020-12-05T13:46:45.000Z</Time>
            <Position>
              <LatitudeDegrees>36.81890049017965793609619140625</LatitudeDegrees>
              <LongitudeDegrees>-4.38485878519713878631591796875</LongitudeDegrees>
            </Position>
            <AltitudeMeters>812.4000244140625</AltitudeMeters>
            <DistanceMeters>NAN</DistanceMeters>
          </Trackpoint>
          <Trackpoint>
            <Time>2020-12-05T13:46:46.000Z</Time>
            <Position>
              <LatitudeDegrees>36.8189002387225627899169921875</LatitudeDegrees>
              <LongitudeDegrees>-4.38484780490398406982421875</LongitudeDegrees>
            </Position>
            <AltitudeMeters>812.4000244140625</AltitudeMeters>
            <DistanceMeters>NAN</DistanceMeters>
          </Trackpoint>
          <Trackpoint>
            <Time>2020-12-05T13:46:47.000Z</Time>
            <Position>
              <LatitudeDegrees>36.81889839470386505126953125</LatitudeDegrees>
              <LongitudeDegrees>-4.3848342262208461761474609375</LongitudeDegrees>
            </Position>
            <AltitudeMeters>812.4000244140625</AltitudeMeters>
            <DistanceMeters>NAN</DistanceMeters>
          </Trackpoint>
          <Trackpoint>
            <Time>2020-12-05T13:46:48.000Z</Time>
            <Position>
              <LatitudeDegrees>36.8188955448567867279052734375</LatitudeDegrees>
              <LongitudeDegrees>-4.384818635880947113037109375</LongitudeDegrees>
            </Position>
            <AltitudeMeters>812.4000244140625</AltitudeMeters>
            <DistanceMeters>NAN</DistanceMeters>
          </Trackpoint>
          <Trackpoint>
            <Time>2020-12-05T13:46:49.000Z</Time>
            <Position>
              <LatitudeDegrees>36.81889059953391551971435546875</LatitudeDegrees>
              <LongitudeDegrees>-4.38479952514171600341796875</LongitudeDegrees>
            </Position>
            <AltitudeMeters>812.4000244140625</AltitudeMeters>
            <DistanceMeters>NAN</DistanceMeters>
          </Trackpoint>
          <Trackpoint>
            <Time>2020-12-05T13:46:50.000Z</Time>
            <Position>
              <LatitudeDegrees>36.818888001143932342529296875</LatitudeDegrees>
              <LongitudeDegrees>-4.38478385098278522491455078125</LongitudeDegrees>
            </Position>
            <AltitudeMeters>812.4000244140625</AltitudeMeters>
            <DistanceMeters>NAN</DistanceMeters>
          </Trackpoint>
          <Trackpoint>
            <Time>2020-12-05T13:46:51.000Z</Time>
            <Position>
              <LatitudeDegrees>36.818885989487171173095703125</LatitudeDegrees>
              <LongitudeDegrees>-4.38477060757577419281005859375</LongitudeDegrees>
            </Position>
            <AltitudeMeters>812.4000244140625</AltitudeMeters>
            <DistanceMeters>NAN</DistanceMeters>
          </Trackpoint>
          <Trackpoint>
            <Time>2020-12-05T13:46:52.000Z</Time>
            <Position>
              <LatitudeDegrees>36.81888573803007602691650390625</LatitudeDegrees>
              <LongitudeDegrees>-4.38475736416876316070556640625</LongitudeDegrees>
            </Position>
            <AltitudeMeters>812.4000244140625</AltitudeMeters>
            <DistanceMeters>NAN</DistanceMeters>
          </Trackpoint>
          <Trackpoint>
            <Time>2020-12-05T13:46:53.000Z</Time>
            <Position>
              <LatitudeDegrees>36.818886660039424896240234375</LatitudeDegrees>
              <LongitudeDegrees>-4.38474395312368869781494140625</LongitudeDegrees>
            </Position>
            <AltitudeMeters>812.20001220703125</AltitudeMeters>
            <DistanceMeters>NAN</DistanceMeters>
          </Trackpoint>
          <Trackpoint>
            <Time>2020-12-05T13:46:54.000Z</Time>
            <Position>
              <LatitudeDegrees>36.8188874982297420501708984375</LatitudeDegrees>
              <LongitudeDegrees>-4.38473205082118511199951171875</LongitudeDegrees>
            </Position>
            <AltitudeMeters>812.20001220703125</AltitudeMeters>
            <DistanceMeters>NAN</DistanceMeters>
          </Trackpoint>
          <Trackpoint>
            <Time>2020-12-05T13:46:55.000Z</Time>
            <Position>
              <LatitudeDegrees>36.81889235973358154296875</LatitudeDegrees>
              <LongitudeDegrees>-4.3847178854048252105712890625</LongitudeDegrees>
            </Position>
            <AltitudeMeters>812.20001220703125</AltitudeMeters>
            <DistanceMeters>NAN</DistanceMeters>
          </Trackpoint>
          <Trackpoint>
            <Time>2020-12-05T13:46:56.000Z</Time>
            <Position>
              <LatitudeDegrees>36.818897724151611328125</LatitudeDegrees>
              <LongitudeDegrees>-4.38470304943621158599853515625</LongitudeDegrees>
            </Position>
            <AltitudeMeters>812.20001220703125</AltitudeMeters>
            <DistanceMeters>NAN</DistanceMeters>
          </Trackpoint>
          <Trackpoint>
            <Time>2020-12-05T13:46:57.000Z</Time>
            <Position>
              <LatitudeDegrees>36.81890686042606830596923828125</LatitudeDegrees>
              <LongitudeDegrees>-4.38468913547694683074951171875</LongitudeDegrees>
            </Position>
            <AltitudeMeters>812</AltitudeMeters>
            <DistanceMeters>NAN</DistanceMeters>
          </Trackpoint>
          <Trackpoint>
            <Time>2020-12-05T13:46:58.000Z</Time>
            <Position>
              <LatitudeDegrees>36.81891423650085926055908203125</LatitudeDegrees>
              <LongitudeDegrees>-4.38468108884990215301513671875</LongitudeDegrees>
            </Position>
            <AltitudeMeters>811.79998779296875</AltitudeMeters>
            <DistanceMeters>NAN</DistanceMeters>
          </Trackpoint>
          <Trackpoint>
            <Time>2020-12-05T13:46:59.000Z</Time>
            <Position>
              <LatitudeDegrees>36.81892043910920619964599609375</LatitudeDegrees>
              <LongitudeDegrees>-4.38467069528996944427490234375</LongitudeDegrees>
            </Position>
            <AltitudeMeters>811.5999755859375</AltitudeMeters>
            <DistanceMeters>NAN</DistanceMeters>
          </Trackpoint>
          <Trackpoint>
            <Time>2020-12-05T13:47:00.000Z</Time>
            <Position>
              <LatitudeDegrees>36.8189284019172191619873046875</LatitudeDegrees>
              <LongitudeDegrees>-4.38465929590165615081787109375</LongitudeDegrees>
            </Position>
            <AltitudeMeters>811.4000244140625</AltitudeMeters>
            <DistanceMeters>NAN</DistanceMeters>
          </Trackpoint>
          <Trackpoint>
            <Time>2020-12-05T13:47:01.000Z</Time>
            <Position>
              <LatitudeDegrees>36.8189337663352489471435546875</LatitudeDegrees>
              <LongitudeDegrees>-4.38464974053204059600830078125</LongitudeDegrees>
            </Position>
            <AltitudeMeters>811.20001220703125</AltitudeMeters>
            <DistanceMeters>NAN</DistanceMeters>
          </Trackpoint>
          <Trackpoint>
            <Time>2020-12-05T13:47:02.000Z</Time>
            <Position>
              <LatitudeDegrees>36.818940639495849609375</LatitudeDegrees>
              <LongitudeDegrees>-4.38464035280048847198486328125</LongitudeDegrees>
            </Position>
            <AltitudeMeters>811.20001220703125</AltitudeMeters>
            <DistanceMeters>NAN</DistanceMeters>
          </Trackpoint>
          <Trackpoint>
            <Time>2020-12-05T13:47:03.000Z</Time>
            <Position>
              <LatitudeDegrees>36.81894944049417972564697265625</LatitudeDegrees>
              <LongitudeDegrees>-4.38462979160249233245849609375</LongitudeDegrees>
            </Position>
            <AltitudeMeters>811</AltitudeMeters>
            <DistanceMeters>NAN</DistanceMeters>
          </Trackpoint>
          <Trackpoint>
            <Time>2020-12-05T13:47:04.000Z</Time>
            <Position>
              <LatitudeDegrees>36.818957738578319549560546875</LatitudeDegrees>
              <LongitudeDegrees>-4.3846162967383861541748046875</LongitudeDegrees>
            </Position>
            <AltitudeMeters>811</AltitudeMeters>
            <DistanceMeters>NAN</DistanceMeters>
          </Trackpoint>
          <Trackpoint>
            <Time>2020-12-05T13:47:05.000Z</Time>
            <Position>
              <LatitudeDegrees>36.818964444100856781005859375</LatitudeDegrees>
              <LongitudeDegrees>-4.38460104167461395263671875</LongitudeDegrees>
            </Position>
            <AltitudeMeters>811</AltitudeMeters>
            <DistanceMeters>NAN</DistanceMeters>
          </Trackpoint>
          <Trackpoint>
            <Time>2020-12-05T13:47:06.000Z</Time>
            <Position>
              <LatitudeDegrees>36.81896486319601535797119140625</LatitudeDegrees>
              <LongitudeDegrees>-4.3845869600772857666015625</LongitudeDegrees>
            </Position>
            <AltitudeMeters>811.20001220703125</AltitudeMeters>
            <DistanceMeters>NAN</DistanceMeters>
          </Trackpoint>
          <Trackpoint>
            <Time>2020-12-05T13:47:07.000Z</Time>
            <Position>
              <LatitudeDegrees>36.81896285153925418853759765625</LatitudeDegrees>
              <LongitudeDegrees>-4.38457514159381389617919921875</LongitudeDegrees>
            </Position>
            <AltitudeMeters>811.4000244140625</AltitudeMeters>
            <DistanceMeters>NAN</DistanceMeters>
          </Trackpoint>
          <Trackpoint>
            <Time>2020-12-05T13:47:08.000Z</Time>
            <Position>
              <LatitudeDegrees>36.81896436028182506561279296875</LatitudeDegrees>
              <LongitudeDegrees>-4.384565167129039764404296875</LongitudeDegrees>
            </Position>
            <AltitudeMeters>811.5999755859375</AltitudeMeters>
            <DistanceMeters>NAN</DistanceMeters>
          </Trackpoint>
          <Trackpoint>
            <Time>2020-12-05T13:47:09.000Z</Time>
            <Position>
              <LatitudeDegrees>36.81896804831922054290771484375</LatitudeDegrees>
              <LongitudeDegrees>-4.3845549412071704864501953125</LongitudeDegrees>
            </Position>
            <AltitudeMeters>811.79998779296875</AltitudeMeters>
            <DistanceMeters>NAN</DistanceMeters>
          </Trackpoint>
          <Trackpoint>
            <Time>2020-12-05T13:47:10.000Z</Time>
            <Position>
              <LatitudeDegrees>36.81897073052823543548583984375</LatitudeDegrees>
              <LongitudeDegrees>-4.38454345799982547760009765625</LongitudeDegrees>
            </Position>
            <AltitudeMeters>811.79998779296875</AltitudeMeters>
            <DistanceMeters>NAN</DistanceMeters>
          </Trackpoint>
          <Trackpoint>
            <Time>2020-12-05T13:47:11.000Z</Time>
            <Position>
              <LatitudeDegrees>36.81897089816629886627197265625</LatitudeDegrees>
              <LongitudeDegrees>-4.38453122042119503021240234375</LongitudeDegrees>
            </Position>
            <AltitudeMeters>812</AltitudeMeters>
            <DistanceMeters>NAN</DistanceMeters>
          </Trackpoint>
          <Trackpoint>
            <Time>2020-12-05T13:47:12.000Z</Time>
            <Position>
              <LatitudeDegrees>36.818968467414379119873046875</LatitudeDegrees>
              <LongitudeDegrees>-4.384517557919025421142578125</LongitudeDegrees>
            </Position>
            <AltitudeMeters>812</AltitudeMeters>
            <DistanceMeters>NAN</DistanceMeters>
          </Trackpoint>
          <Trackpoint>
            <Time>2020-12-05T13:47:13.000Z</Time>
            <Position>
              <LatitudeDegrees>36.81896620430052280426025390625</LatitudeDegrees>
              <LongitudeDegrees>-4.384501464664936065673828125</LongitudeDegrees>
            </Position>
            <AltitudeMeters>812</AltitudeMeters>
            <DistanceMeters>NAN</DistanceMeters>
          </Trackpoint>
          <Trackpoint>
            <Time>2020-12-05T13:47:14.000Z</Time>
            <Position>
              <LatitudeDegrees>36.8189629353582859039306640625</LatitudeDegrees>
              <LongitudeDegrees>-4.38449165783822536468505859375</LongitudeDegrees>
            </Position>
            <AltitudeMeters>812.20001220703125</AltitudeMeters>
            <DistanceMeters>NAN</DistanceMeters>
          </Trackpoint>
          <Trackpoint>
            <Time>2020-12-05T13:47:15.000Z</Time>
            <Position>
              <LatitudeDegrees>36.81896201334893703460693359375</LatitudeDegrees>
              <LongitudeDegrees>-4.384479336440563201904296875</LongitudeDegrees>
            </Position>
            <AltitudeMeters>812.20001220703125</AltitudeMeters>
            <DistanceMeters>NAN</DistanceMeters>
          </Trackpoint>
          <Trackpoint>
            <Time>2020-12-05T13:47:16.000Z</Time>
            <Position>
              <LatitudeDegrees>36.8189595825970172882080078125</LatitudeDegrees>
              <LongitudeDegrees>-4.3844674341380596160888671875</LongitudeDegrees>
            </Position>
            <AltitudeMeters>812.20001220703125</AltitudeMeters>
            <DistanceMeters>NAN</DistanceMeters>
          </Trackpoint>
          <Trackpoint>
            <Time>2020-12-05T13:47:17.000Z</Time>
            <Position>
              <LatitudeDegrees>36.81895463727414608001708984375</LatitudeDegrees>
              <LongitudeDegrees>-4.384456537663936614990234375</LongitudeDegrees>
            </Position>
            <AltitudeMeters>812.4000244140625</AltitudeMeters>
            <DistanceMeters>NAN</DistanceMeters>
          </Trackpoint>
          <Trackpoint>
            <Time>2020-12-05T13:47:18.000Z</Time>
            <Position>
              <LatitudeDegrees>36.81894659064710140228271484375</LatitudeDegrees>
              <LongitudeDegrees>-4.38444572500884532928466796875</LongitudeDegrees>
            </Position>
            <AltitudeMeters>812.5999755859375</AltitudeMeters>
            <DistanceMeters>NAN</DistanceMeters>
          </Trackpoint>
          <Trackpoint>
            <Time>2020-12-05T13:47:19.000Z</Time>
            <Position>
              <LatitudeDegrees>36.81893728673458099365234375</LatitudeDegrees>
              <LongitudeDegrees>-4.38443315215408802032470703125</LongitudeDegrees>
            </Position>
            <AltitudeMeters>812.5999755859375</AltitudeMeters>
            <DistanceMeters>NAN</DistanceMeters>
          </Trackpoint>
          <Trackpoint>
            <Time>2020-12-05T13:47:20.000Z</Time>
            <Position>
              <LatitudeDegrees>36.8189290724694728851318359375</LatitudeDegrees>
              <LongitudeDegrees>-4.38441990874707698822021484375</LongitudeDegrees>
            </Position>
            <AltitudeMeters>812.4000244140625</AltitudeMeters>
            <DistanceMeters>NAN</DistanceMeters>
          </Trackpoint>
          <Trackpoint>
            <Time>2020-12-05T13:47:21.000Z</Time>
            <Position>
              <LatitudeDegrees>36.818922199308872222900390625</LatitudeDegrees>
              <LongitudeDegrees>-4.384406246244907379150390625</LongitudeDegrees>
            </Position>
            <AltitudeMeters>812.4000244140625</AltitudeMeters>
            <DistanceMeters>NAN</DistanceMeters>
          </Trackpoint>
          <Trackpoint>
            <Time>2020-12-05T13:47:22.000Z</Time>
            <Position>
              <LatitudeDegrees>36.81891205720603466033935546875</LatitudeDegrees>
              <LongitudeDegrees>-4.38438805751502513885498046875</LongitudeDegrees>
            </Position>
            <AltitudeMeters>812.20001220703125</AltitudeMeters>
            <DistanceMeters>NAN</DistanceMeters>
          </Trackpoint>
          <Trackpoint>
            <Time>2020-12-05T13:47:23.000Z</Time>
            <Position>
              <LatitudeDegrees>36.81890602223575115203857421875</LatitudeDegrees>
              <LongitudeDegrees>-4.38437347300350666046142578125</LongitudeDegrees>
            </Position>
            <AltitudeMeters>812</AltitudeMeters>
            <DistanceMeters>NAN</DistanceMeters>
          </Trackpoint>
          <Trackpoint>
            <Time>2020-12-05T13:47:24.000Z</Time>
            <Position>
              <LatitudeDegrees>36.81890065781772136688232421875</LatitudeDegrees>
              <LongitudeDegrees>-4.38435469754040241241455078125</LongitudeDegrees>
            </Position>
            <AltitudeMeters>811.79998779296875</AltitudeMeters>
            <DistanceMeters>NAN</DistanceMeters>
          </Trackpoint>
          <Trackpoint>
            <Time>2020-12-05T13:47:25.000Z</Time>
            <Position>
              <LatitudeDegrees>36.81889127008616924285888671875</LatitudeDegrees>
              <LongitudeDegrees>-4.38434354960918426513671875</LongitudeDegrees>
            </Position>
            <AltitudeMeters>811.79998779296875</AltitudeMeters>
            <DistanceMeters>NAN</DistanceMeters>
          </Trackpoint>
          <Trackpoint>
            <Time>2020-12-05T13:47:26.000Z</Time>
            <Position>
              <LatitudeDegrees>36.81888288818299770355224609375</LatitudeDegrees>
              <LongitudeDegrees>-4.38433357514441013336181640625</LongitudeDegrees>
            </Position>
            <AltitudeMeters>811.79998779296875</AltitudeMeters>
            <DistanceMeters>NAN</DistanceMeters>
          </Trackpoint>
          <Trackpoint>
            <Time>2020-12-05T13:47:27.000Z</Time>
            <Position>
              <LatitudeDegrees>36.81887366808950901031494140625</LatitudeDegrees>
              <LongitudeDegrees>-4.38431949354708194732666015625</LongitudeDegrees>
            </Position>
            <AltitudeMeters>811.79998779296875</AltitudeMeters>
            <DistanceMeters>NAN</DistanceMeters>
          </Trackpoint>
          <Trackpoint>
            <Time>2020-12-05T13:47:28.000Z</Time>
            <Position>
              <LatitudeDegrees>36.81886545382440090179443359375</LatitudeDegrees>
              <LongitudeDegrees>-4.384304992854595184326171875</LongitudeDegrees>
            </Position>
            <AltitudeMeters>812</AltitudeMeters>
            <DistanceMeters>NAN</DistanceMeters>
          </Trackpoint>
          <Trackpoint>
            <Time>2020-12-05T13:47:29.000Z</Time>
            <Position>
              <LatitudeDegrees>36.8188589997589588165283203125</LatitudeDegrees>
              <LongitudeDegrees>-4.384291581809520721435546875</LongitudeDegrees>
            </Position>
            <AltitudeMeters>812.20001220703125</AltitudeMeters>
            <DistanceMeters>NAN</DistanceMeters>
          </Trackpoint>
          <Trackpoint>
            <Time>2020-12-05T13:47:30.000Z</Time>
            <Position>
              <LatitudeDegrees>36.81885455735027790069580078125</LatitudeDegrees>
              <LongitudeDegrees>-4.3842769972980022430419921875</LongitudeDegrees>
            </Position>
            <AltitudeMeters>812.4000244140625</AltitudeMeters>
            <DistanceMeters>NAN</DistanceMeters>
          </Trackpoint>
          <Trackpoint>
            <Time>2020-12-05T13:47:31.000Z</Time>
            <Position>
              <LatitudeDegrees>36.818849109113216400146484375</LatitudeDegrees>
              <LongitudeDegrees>-4.38426710665225982666015625</LongitudeDegrees>
            </Position>
            <AltitudeMeters>812.79998779296875</AltitudeMeters>
            <DistanceMeters>NAN</DistanceMeters>
          </Trackpoint>
          <Trackpoint>
            <Time>2020-12-05T13:47:32.000Z</Time>
            <Position>
              <LatitudeDegrees>36.81884332560002803802490234375</LatitudeDegrees>
              <LongitudeDegrees>-4.38425595872104167938232421875</LongitudeDegrees>
            </Position>
            <AltitudeMeters>813</AltitudeMeters>
            <DistanceMeters>NAN</DistanceMeters>
          </Trackpoint>
          <Trackpoint>
            <Time>2020-12-05T13:47:33.000Z</Time>
            <Position>
              <LatitudeDegrees>36.81883804500102996826171875</LatitudeDegrees>
              <LongitudeDegrees>-4.38424154184758663177490234375</LongitudeDegrees>
            </Position>
            <AltitudeMeters>813.20001220703125</AltitudeMeters>
            <DistanceMeters>NAN</DistanceMeters>
          </Trackpoint>
          <Trackpoint>
            <Time>2020-12-05T13:47:34.000Z</Time>
            <Position>
              <LatitudeDegrees>36.8188346922397613525390625</LatitudeDegrees>
              <LongitudeDegrees>-4.3842275440692901611328125</LongitudeDegrees>
            </Position>
            <AltitudeMeters>813.4000244140625</AltitudeMeters>
            <DistanceMeters>NAN</DistanceMeters>
          </Trackpoint>
          <Trackpoint>
            <Time>2020-12-05T13:47:35.000Z</Time>
            <Position>
              <LatitudeDegrees>36.81882890872657299041748046875</LatitudeDegrees>
              <LongitudeDegrees>-4.38421304337680339813232421875</LongitudeDegrees>
            </Position>
            <AltitudeMeters>813.5999755859375</AltitudeMeters>
            <DistanceMeters>NAN</DistanceMeters>
          </Trackpoint>
          <Trackpoint>
            <Time>2020-12-05T13:47:36.000Z</Time>
            <Position>
              <LatitudeDegrees>36.81882086209952831268310546875</LatitudeDegrees>
              <LongitudeDegrees>-4.38420248217880725860595703125</LongitudeDegrees>
            </Position>
            <AltitudeMeters>813.5999755859375</AltitudeMeters>
            <DistanceMeters>NAN</DistanceMeters>
          </Trackpoint>
          <Trackpoint>
            <Time>2020-12-05T13:47:37.000Z</Time>
            <Position>
              <LatitudeDegrees>36.8188127316534519195556640625</LatitudeDegrees>
              <LongitudeDegrees>-4.38419359736144542694091796875</LongitudeDegrees>
            </Position>
            <AltitudeMeters>813.79998779296875</AltitudeMeters>
            <DistanceMeters>NAN</DistanceMeters>
          </Trackpoint>
          <Trackpoint>
            <Time>2020-12-05T13:47:38.000Z</Time>
            <Position>
              <LatitudeDegrees>36.8188046850264072418212890625</LatitudeDegrees>
              <LongitudeDegrees>-4.38418622128665447235107421875</LongitudeDegrees>
            </Position>
            <AltitudeMeters>813.79998779296875</AltitudeMeters>
            <DistanceMeters>NAN</DistanceMeters>
          </Trackpoint>
          <Trackpoint>
            <Time>2020-12-05T13:47:39.000Z</Time>
            <Position>
              <LatitudeDegrees>36.8187979795038700103759765625</LatitudeDegrees>
              <LongitudeDegrees>-4.3841770850121974945068359375</LongitudeDegrees>
            </Position>
            <AltitudeMeters>813.79998779296875</AltitudeMeters>
            <DistanceMeters>NAN</DistanceMeters>
          </Trackpoint>
          <Trackpoint>
            <Time>2020-12-05T13:47:40.000Z</Time>
            <Position>
              <LatitudeDegrees>36.81879202835261821746826171875</LatitudeDegrees>
              <LongitudeDegrees>-4.38416694290935993194580078125</LongitudeDegrees>
            </Position>
            <AltitudeMeters>813.79998779296875</AltitudeMeters>
            <DistanceMeters>NAN</DistanceMeters>
          </Trackpoint>
          <Trackpoint>
            <Time>2020-12-05T13:47:41.000Z</Time>
            <Position>
              <LatitudeDegrees>36.8187855742871761322021484375</LatitudeDegrees>
              <LongitudeDegrees>-4.384156800806522369384765625</LongitudeDegrees>
            </Position>
            <AltitudeMeters>813.79998779296875</AltitudeMeters>
            <DistanceMeters>NAN</DistanceMeters>
          </Trackpoint>
          <Trackpoint>
            <Time>2020-12-05T13:47:42.000Z</Time>
            <Position>
              <LatitudeDegrees>36.81877895258367061614990234375</LatitudeDegrees>
              <LongitudeDegrees>-4.3841479159891605377197265625</LongitudeDegrees>
            </Position>
            <AltitudeMeters>813.79998779296875</AltitudeMeters>
            <DistanceMeters>NAN</DistanceMeters>
          </Trackpoint>
          <Trackpoint>
            <Time>2020-12-05T13:47:43.000Z</Time>
            <Position>
              <LatitudeDegrees>36.81877224706113338470458984375</LatitudeDegrees>
              <LongitudeDegrees>-4.38414079137146472930908203125</LongitudeDegrees>
            </Position>
            <AltitudeMeters>813.79998779296875</AltitudeMeters>
            <DistanceMeters>NAN</DistanceMeters>
          </Trackpoint>
          <Trackpoint>
            <Time>2020-12-05T13:47:44.000Z</Time>
            <Position>
              <LatitudeDegrees>36.81876420043408870697021484375</LatitudeDegrees>
              <LongitudeDegrees>-4.38413173891603946685791015625</LongitudeDegrees>
            </Position>
            <AltitudeMeters>813.79998779296875</AltitudeMeters>
            <DistanceMeters>NAN</DistanceMeters>
          </Trackpoint>
          <Trackpoint>
            <Time>2020-12-05T13:47:45.000Z</Time>
            <Position>
              <LatitudeDegrees>36.8187584169209003448486328125</LatitudeDegrees>
              <LongitudeDegrees>-4.384121932089328765869140625</LongitudeDegrees>
            </Position>
            <AltitudeMeters>813.5999755859375</AltitudeMeters>
            <DistanceMeters>NAN</DistanceMeters>
          </Trackpoint>
          <Trackpoint>
            <Time>2020-12-05T13:47:46.000Z</Time>
            <Position>
              <LatitudeDegrees>36.81875213049352169036865234375</LatitudeDegrees>
              <LongitudeDegrees>-4.38411648385226726531982421875</LongitudeDegrees>
            </Position>
            <AltitudeMeters>813.5999755859375</AltitudeMeters>
            <DistanceMeters>NAN</DistanceMeters>
          </Trackpoint>
          <Trackpoint>
            <Time>2020-12-05T13:47:47.000Z</Time>
            <Position>
              <LatitudeDegrees>36.81874643079936504364013671875</LatitudeDegrees>
              <LongitudeDegrees>-4.384111873805522918701171875</LongitudeDegrees>
            </Position>
            <AltitudeMeters>813.4000244140625</AltitudeMeters>
            <DistanceMeters>NAN</DistanceMeters>
          </Trackpoint>
          <Trackpoint>
            <Time>2020-12-05T13:47:48.000Z</Time>
            <Position>
              <LatitudeDegrees>36.81874106638133525848388671875</LatitudeDegrees>
              <LongitudeDegrees>-4.3841095268726348876953125</LongitudeDegrees>
            </Position>
            <AltitudeMeters>813.4000244140625</AltitudeMeters>
            <DistanceMeters>NAN</DistanceMeters>
          </Trackpoint>
          <Trackpoint>
            <Time>2020-12-05T13:47:49.000Z</Time>
            <Position>
              <LatitudeDegrees>36.81873586960136890411376953125</LatitudeDegrees>
              <LongitudeDegrees>-4.38410751521587371826171875</LongitudeDegrees>
            </Position>
            <AltitudeMeters>813.4000244140625</AltitudeMeters>
            <DistanceMeters>NAN</DistanceMeters>
          </Trackpoint>
          <Trackpoint>
            <Time>2020-12-05T13:47:50.000Z</Time>
            <Position>
              <LatitudeDegrees>36.8187326006591320037841796875</LatitudeDegrees>
              <LongitudeDegrees>-4.38410106115043163299560546875</LongitudeDegrees>
            </Position>
            <AltitudeMeters>813.4000244140625</AltitudeMeters>
            <DistanceMeters>NAN</DistanceMeters>
          </Trackpoint>
          <Trackpoint>
            <Time>2020-12-05T13:47:51.000Z</Time>
            <Position>
              <LatitudeDegrees>36.8187258951365947723388671875</LatitudeDegrees>
              <LongitudeDegrees>-4.38409519381821155548095703125</LongitudeDegrees>
            </Position>
            <AltitudeMeters>813.20001220703125</AltitudeMeters>
            <DistanceMeters>NAN</DistanceMeters>
          </Trackpoint>
          <Trackpoint>
            <Time>2020-12-05T13:47:52.000Z</Time>
            <Position>
              <LatitudeDegrees>36.81871960870921611785888671875</LatitudeDegrees>
              <LongitudeDegrees>-4.3840862251818180084228515625</LongitudeDegrees>
            </Position>
            <AltitudeMeters>813.20001220703125</AltitudeMeters>
            <DistanceMeters>NAN</DistanceMeters>
          </Trackpoint>
          <Trackpoint>
            <Time>2020-12-05T13:47:53.000Z</Time>
            <Position>
              <LatitudeDegrees>36.8187141604721546173095703125</LatitudeDegrees>
              <LongitudeDegrees>-4.384074322879314422607421875</LongitudeDegrees>
            </Position>
            <AltitudeMeters>812.79998779296875</AltitudeMeters>
            <DistanceMeters>NAN</DistanceMeters>
          </Trackpoint>
          <Trackpoint>
            <Time>2020-12-05T13:47:54.000Z</Time>
            <Position>
              <LatitudeDegrees>36.81870787404477596282958984375</LatitudeDegrees>
              <LongitudeDegrees>-4.384060241281986236572265625</LongitudeDegrees>
            </Position>
            <AltitudeMeters>812.5999755859375</AltitudeMeters>
            <DistanceMeters>NAN</DistanceMeters>
          </Trackpoint>
          <Trackpoint>
            <Time>2020-12-05T13:47:55.000Z</Time>
            <Position>
              <LatitudeDegrees>36.81870125234127044677734375</LatitudeDegrees>
              <LongitudeDegrees>-4.3840510211884975433349609375</LongitudeDegrees>
            </Position>
            <AltitudeMeters>812.4000244140625</AltitudeMeters>
            <DistanceMeters>NAN</DistanceMeters>
          </Trackpoint>
          <Trackpoint>
            <Time>2020-12-05T13:47:56.000Z</Time>
            <Position>
              <LatitudeDegrees>36.81869513355195522308349609375</LatitudeDegrees>
              <LongitudeDegrees>-4.38404222019016742706298828125</LongitudeDegrees>
            </Position>
            <AltitudeMeters>812.20001220703125</AltitudeMeters>
            <DistanceMeters>NAN</DistanceMeters>
          </Trackpoint>
          <Trackpoint>
            <Time>2020-12-05T13:47:57.000Z</Time>
            <Position>
              <LatitudeDegrees>36.81869010441005229949951171875</LatitudeDegrees>
              <LongitudeDegrees>-4.384031407535076141357421875</LongitudeDegrees>
            </Position>
            <AltitudeMeters>812.20001220703125</AltitudeMeters>
            <DistanceMeters>NAN</DistanceMeters>
          </Trackpoint>
          <Trackpoint>
            <Time>2020-12-05T13:47:58.000Z</Time>
            <Position>
              <LatitudeDegrees>36.8186873383820056915283203125</LatitudeDegrees>
              <LongitudeDegrees>-4.38401606865227222442626953125</LongitudeDegrees>
            </Position>
            <AltitudeMeters>812</AltitudeMeters>
            <DistanceMeters>NAN</DistanceMeters>
          </Trackpoint>
          <Trackpoint>
            <Time>2020-12-05T13:47:59.000Z</Time>
            <Position>
              <LatitudeDegrees>36.81868624873459339141845703125</LatitudeDegrees>
              <LongitudeDegrees>-4.38399611972272396087646484375</LongitudeDegrees>
            </Position>
            <AltitudeMeters>812</AltitudeMeters>
            <DistanceMeters>NAN</DistanceMeters>
          </Trackpoint>
          <Trackpoint>
            <Time>2020-12-05T13:48:00.000Z</Time>
            <Position>
              <LatitudeDegrees>36.81868339888751506805419921875</LatitudeDegrees>
              <LongitudeDegrees>-4.38397876918315887451171875</LongitudeDegrees>
            </Position>
            <AltitudeMeters>812</AltitudeMeters>
            <DistanceMeters>NAN</DistanceMeters>
          </Trackpoint>
          <Trackpoint>
            <Time>2020-12-05T13:48:01.000Z</Time>
            <Position>
              <LatitudeDegrees>36.8186802975833415985107421875</LatitudeDegrees>
              <LongitudeDegrees>-4.38396426849067211151123046875</LongitudeDegrees>
            </Position>
            <AltitudeMeters>811.79998779296875</AltitudeMeters>
            <DistanceMeters>NAN</DistanceMeters>
          </Trackpoint>
          <Trackpoint>
            <Time>2020-12-05T13:48:02.000Z</Time>
            <Position>
              <LatitudeDegrees>36.8186796270310878753662109375</LatitudeDegrees>
              <LongitudeDegrees>-4.38394951634109020233154296875</LongitudeDegrees>
            </Position>
            <AltitudeMeters>811.79998779296875</AltitudeMeters>
            <DistanceMeters>NAN</DistanceMeters>
          </Trackpoint>
          <Trackpoint>
            <Time>2020-12-05T13:48:03.000Z</Time>
            <Position>
              <LatitudeDegrees>36.8186816386878490447998046875</LatitudeDegrees>
              <LongitudeDegrees>-4.3839356862008571624755859375</LongitudeDegrees>
            </Position>
            <AltitudeMeters>811.5999755859375</AltitudeMeters>
            <DistanceMeters>NAN</DistanceMeters>
          </Trackpoint>
          <Trackpoint>
            <Time>2020-12-05T13:48:04.000Z</Time>
            <Position>
              <LatitudeDegrees>36.81868650019168853759765625</LatitudeDegrees>
              <LongitudeDegrees>-4.38391967676579952239990234375</LongitudeDegrees>
            </Position>
            <AltitudeMeters>811.5999755859375</AltitudeMeters>
            <DistanceMeters>NAN</DistanceMeters>
          </Trackpoint>
          <Trackpoint>
            <Time>2020-12-05T13:48:05.000Z</Time>
            <Position>
              <LatitudeDegrees>36.81868725456297397613525390625</LatitudeDegrees>
              <LongitudeDegrees>-4.383909702301025390625</LongitudeDegrees>
            </Position>
            <AltitudeMeters>811.5999755859375</AltitudeMeters>
            <DistanceMeters>NAN</DistanceMeters>
          </Trackpoint>
          <Trackpoint>
            <Time>2020-12-05T13:48:06.000Z</Time>
            <Position>
              <LatitudeDegrees>36.81868809275329113006591796875</LatitudeDegrees>
              <LongitudeDegrees>-4.38389503397047519683837890625</LongitudeDegrees>
            </Position>
            <AltitudeMeters>811.5999755859375</AltitudeMeters>
            <DistanceMeters>NAN</DistanceMeters>
          </Trackpoint>
          <Trackpoint>
            <Time>2020-12-05T13:48:07.000Z</Time>
            <Position>
              <LatitudeDegrees>36.81868926621973514556884765625</LatitudeDegrees>
              <LongitudeDegrees>-4.38388011418282985687255859375</LongitudeDegrees>
            </Position>
            <AltitudeMeters>812</AltitudeMeters>
            <DistanceMeters>NAN</DistanceMeters>
          </Trackpoint>
          <Trackpoint>
            <Time>2020-12-05T13:48:08.000Z</Time>
            <Position>
              <LatitudeDegrees>36.8186870031058788299560546875</LatitudeDegrees>
              <LongitudeDegrees>-4.38386988826096057891845703125</LongitudeDegrees>
            </Position>
            <AltitudeMeters>812.20001220703125</AltitudeMeters>
            <DistanceMeters>NAN</DistanceMeters>
          </Trackpoint>
          <Trackpoint>
            <Time>2020-12-05T13:48:09.000Z</Time>
            <Position>
              <LatitudeDegrees>36.81868507526814937591552734375</LatitudeDegrees>
              <LongitudeDegrees>-4.3838575668632984161376953125</LongitudeDegrees>
            </Position>
            <AltitudeMeters>812.5999755859375</AltitudeMeters>
            <DistanceMeters>NAN</DistanceMeters>
          </Trackpoint>
          <Trackpoint>
            <Time>2020-12-05T13:48:10.000Z</Time>
            <Position>
              <LatitudeDegrees>36.81868515908718109130859375</LatitudeDegrees>
              <LongitudeDegrees>-4.38384289853274822235107421875</LongitudeDegrees>
            </Position>
            <AltitudeMeters>812.79998779296875</AltitudeMeters>
            <DistanceMeters>NAN</DistanceMeters>
          </Trackpoint>
          <Trackpoint>
            <Time>2020-12-05T13:48:11.000Z</Time>
            <Position>
              <LatitudeDegrees>36.8186846561729907989501953125</LatitudeDegrees>
              <LongitudeDegrees>-4.3838283978402614593505859375</LongitudeDegrees>
            </Position>
            <AltitudeMeters>813</AltitudeMeters>
            <DistanceMeters>NAN</DistanceMeters>
          </Trackpoint>
          <Trackpoint>
            <Time>2020-12-05T13:48:12.000Z</Time>
            <Position>
              <LatitudeDegrees>36.81868339888751506805419921875</LatitudeDegrees>
              <LongitudeDegrees>-4.38381574116647243499755859375</LongitudeDegrees>
            </Position>
            <AltitudeMeters>813.20001220703125</AltitudeMeters>
            <DistanceMeters>NAN</DistanceMeters>
          </Trackpoint>
          <Trackpoint>
            <Time>2020-12-05T13:48:13.000Z</Time>
            <Position>
              <LatitudeDegrees>36.81868272833526134490966796875</LatitudeDegrees>
              <LongitudeDegrees>-4.38380400650203227996826171875</LongitudeDegrees>
            </Position>
            <AltitudeMeters>813.20001220703125</AltitudeMeters>
            <DistanceMeters>NAN</DistanceMeters>
          </Trackpoint>
          <Trackpoint>
            <Time>2020-12-05T13:48:14.000Z</Time>
            <Position>
              <LatitudeDegrees>36.8186836503446102142333984375</LatitudeDegrees>
              <LongitudeDegrees>-4.38379327766597270965576171875</LongitudeDegrees>
            </Position>
            <AltitudeMeters>813.20001220703125</AltitudeMeters>
            <DistanceMeters>NAN</DistanceMeters>
          </Trackpoint>
          <Trackpoint>
            <Time>2020-12-05T13:48:15.000Z</Time>
            <Position>
              <LatitudeDegrees>36.81868490763008594512939453125</LatitudeDegrees>
              <LongitudeDegrees>-4.38378606922924518585205078125</LongitudeDegrees>
            </Position>
            <AltitudeMeters>813.20001220703125</AltitudeMeters>
            <DistanceMeters>NAN</DistanceMeters>
          </Trackpoint>
          <Trackpoint>
            <Time>2020-12-05T13:48:16.000Z</Time>
            <Position>
              <LatitudeDegrees>36.81868876330554485321044921875</LatitudeDegrees>
              <LongitudeDegrees>-4.3837727420032024383544921875</LongitudeDegrees>
            </Position>
            <AltitudeMeters>813.20001220703125</AltitudeMeters>
            <DistanceMeters>NAN</DistanceMeters>
          </Trackpoint>
          <Trackpoint>
            <Time>2020-12-05T13:48:17.000Z</Time>
            <Position>
              <LatitudeDegrees>36.818690858781337738037109375</LatitudeDegrees>
              <LongitudeDegrees>-4.38376243226230144500732421875</LongitudeDegrees>
            </Position>
            <AltitudeMeters>813.20001220703125</AltitudeMeters>
            <DistanceMeters>NAN</DistanceMeters>
          </Trackpoint>
          <Trackpoint>
            <Time>2020-12-05T13:48:18.000Z</Time>
            <Position>
              <LatitudeDegrees>36.81869345717132091522216796875</LatitudeDegrees>
              <LongitudeDegrees>-4.38375254161655902862548828125</LongitudeDegrees>
            </Position>
            <AltitudeMeters>813.20001220703125</AltitudeMeters>
            <DistanceMeters>NAN</DistanceMeters>
          </Trackpoint>
          <Trackpoint>
            <Time>2020-12-05T13:48:19.000Z</Time>
            <Position>
              <LatitudeDegrees>36.8186994083225727081298828125</LatitudeDegrees>
              <LongitudeDegrees>-4.3837395496666431427001953125</LongitudeDegrees>
            </Position>
            <AltitudeMeters>813.20001220703125</AltitudeMeters>
            <DistanceMeters>NAN</DistanceMeters>
          </Trackpoint>
          <Trackpoint>
            <Time>2020-12-05T13:48:20.000Z</Time>
            <Position>
              <LatitudeDegrees>36.81870200671255588531494140625</LatitudeDegrees>
              <LongitudeDegrees>-4.3837301619350910186767578125</LongitudeDegrees>
            </Position>
            <AltitudeMeters>813.20001220703125</AltitudeMeters>
            <DistanceMeters>NAN</DistanceMeters>
          </Trackpoint>
          <Trackpoint>
            <Time>2020-12-05T13:48:21.000Z</Time>
            <Position>
              <LatitudeDegrees>36.81870502419769763946533203125</LatitudeDegrees>
              <LongitudeDegrees>-4.38372219912707805633544921875</LongitudeDegrees>
            </Position>
            <AltitudeMeters>813.20001220703125</AltitudeMeters>
            <DistanceMeters>NAN</DistanceMeters>
          </Trackpoint>
          <Trackpoint>
            <Time>2020-12-05T13:48:22.000Z</Time>
            <Position>
              <LatitudeDegrees>36.8187081255018711090087890625</LatitudeDegrees>
              <LongitudeDegrees>-4.38371297903358936309814453125</LongitudeDegrees>
            </Position>
            <AltitudeMeters>813.20001220703125</AltitudeMeters>
            <DistanceMeters>NAN</DistanceMeters>
          </Trackpoint>
          <Trackpoint>
            <Time>2020-12-05T13:48:23.000Z</Time>
            <Position>
              <LatitudeDegrees>36.81871105916798114776611328125</LatitudeDegrees>
              <LongitudeDegrees>-4.38370392657816410064697265625</LongitudeDegrees>
            </Position>
            <AltitudeMeters>813.20001220703125</AltitudeMeters>
            <DistanceMeters>NAN</DistanceMeters>
          </Trackpoint>
          <Trackpoint>
            <Time>2020-12-05T13:48:24.000Z</Time>
            <Position>
              <LatitudeDegrees>36.8187124840915203094482421875</LatitudeDegrees>
              <LongitudeDegrees>-4.38369311392307281494140625</LongitudeDegrees>
            </Position>
            <AltitudeMeters>813.4000244140625</AltitudeMeters>
            <DistanceMeters>NAN</DistanceMeters>
          </Trackpoint>
          <Trackpoint>
            <Time>2020-12-05T13:48:25.000Z</Time>
            <Position>
              <LatitudeDegrees>36.8187118135392665863037109375</LatitudeDegrees>
              <LongitudeDegrees>-4.38367660157382488250732421875</LongitudeDegrees>
            </Position>
            <AltitudeMeters>813.4000244140625</AltitudeMeters>
            <DistanceMeters>NAN</DistanceMeters>
          </Trackpoint>
          <Trackpoint>
            <Time>2020-12-05T13:48:26.000Z</Time>
            <Position>
              <LatitudeDegrees>36.81871189735829830169677734375</LatitudeDegrees>
              <LongitudeDegrees>-4.3836642801761627197265625</LongitudeDegrees>
            </Position>
            <AltitudeMeters>813.5999755859375</AltitudeMeters>
            <DistanceMeters>NAN</DistanceMeters>
          </Trackpoint>
          <Trackpoint>
            <Time>2020-12-05T13:48:27.000Z</Time>
            <Position>
              <LatitudeDegrees>36.81871223263442516326904296875</LatitudeDegrees>
              <LongitudeDegrees>-4.3836537189781665802001953125</LongitudeDegrees>
            </Position>
            <AltitudeMeters>813.5999755859375</AltitudeMeters>
            <DistanceMeters>NAN</DistanceMeters>
          </Trackpoint>
          <Trackpoint>
            <Time>2020-12-05T13:48:28.000Z</Time>
            <Position>
              <LatitudeDegrees>36.81871558539569377899169921875</LatitudeDegrees>
              <LongitudeDegrees>-4.38364055939018726348876953125</LongitudeDegrees>
            </Position>
            <AltitudeMeters>813.5999755859375</AltitudeMeters>
            <DistanceMeters>NAN</DistanceMeters>
          </Trackpoint>
          <Trackpoint>
            <Time>2020-12-05T13:48:29.000Z</Time>
            <Position>
              <LatitudeDegrees>36.818718016147613525390625</LatitudeDegrees>
              <LongitudeDegrees>-4.38363200984895229339599609375</LongitudeDegrees>
            </Position>
            <AltitudeMeters>813.79998779296875</AltitudeMeters>
            <DistanceMeters>NAN</DistanceMeters>
          </Trackpoint>
          <Trackpoint>
            <Time>2020-12-05T13:48:30.000Z</Time>
            <Position>
              <LatitudeDegrees>36.8187208659946918487548828125</LatitudeDegrees>
              <LongitudeDegrees>-4.3836235441267490386962890625</LongitudeDegrees>
            </Position>
            <AltitudeMeters>813.79998779296875</AltitudeMeters>
            <DistanceMeters>NAN</DistanceMeters>
          </Trackpoint>
          <Trackpoint>
            <Time>2020-12-05T13:48:31.000Z</Time>
            <Position>
              <LatitudeDegrees>36.81872581131756305694580078125</LatitudeDegrees>
              <LongitudeDegrees>-4.38361457549035549163818359375</LongitudeDegrees>
            </Position>
            <AltitudeMeters>813.79998779296875</AltitudeMeters>
            <DistanceMeters>NAN</DistanceMeters>
          </Trackpoint>
          <Trackpoint>
            <Time>2020-12-05T13:48:32.000Z</Time>
            <Position>
              <LatitudeDegrees>36.81873209774494171142578125</LatitudeDegrees>
              <LongitudeDegrees>-4.383602254092693328857421875</LongitudeDegrees>
            </Position>
            <AltitudeMeters>814</AltitudeMeters>
            <DistanceMeters>NAN</DistanceMeters>
          </Trackpoint>
          <Trackpoint>
            <Time>2020-12-05T13:48:33.000Z</Time>
            <Position>
              <LatitudeDegrees>36.81873804889619350433349609375</LatitudeDegrees>
              <LongitudeDegrees>-4.383590184152126312255859375</LongitudeDegrees>
            </Position>
            <AltitudeMeters>814.20001220703125</AltitudeMeters>
            <DistanceMeters>NAN</DistanceMeters>
          </Trackpoint>
          <Trackpoint>
            <Time>2020-12-05T13:48:34.000Z</Time>
            <Position>
              <LatitudeDegrees>36.81874458678066730499267578125</LatitudeDegrees>
              <LongitudeDegrees>-4.38357912003993988037109375</LongitudeDegrees>
            </Position>
            <AltitudeMeters>814.4000244140625</AltitudeMeters>
            <DistanceMeters>NAN</DistanceMeters>
          </Trackpoint>
          <Trackpoint>
            <Time>2020-12-05T13:48:35.000Z</Time>
            <Position>
              <LatitudeDegrees>36.81875179521739482879638671875</LatitudeDegrees>
              <LongitudeDegrees>-4.38356461934745311737060546875</LongitudeDegrees>
            </Position>
            <AltitudeMeters>814.5999755859375</AltitudeMeters>
            <DistanceMeters>NAN</DistanceMeters>
          </Trackpoint>
          <Trackpoint>
            <Time>2020-12-05T13:48:36.000Z</Time>
            <Position>
              <LatitudeDegrees>36.8187607638537883758544921875</LatitudeDegrees>
              <LongitudeDegrees>-4.38354953192174434661865234375</LongitudeDegrees>
            </Position>
            <AltitudeMeters>814.5999755859375</AltitudeMeters>
            <DistanceMeters>NAN</DistanceMeters>
          </Trackpoint>
          <Trackpoint>
            <Time>2020-12-05T13:48:37.000Z</Time>
            <Position>
              <LatitudeDegrees>36.818769313395023345947265625</LatitudeDegrees>
              <LongitudeDegrees>-4.38353494741022586822509765625</LongitudeDegrees>
            </Position>
            <AltitudeMeters>814.79998779296875</AltitudeMeters>
            <DistanceMeters>NAN</DistanceMeters>
          </Trackpoint>
          <Trackpoint>
            <Time>2020-12-05T13:48:38.000Z</Time>
            <Position>
              <LatitudeDegrees>36.81877526454627513885498046875</LatitudeDegrees>
              <LongitudeDegrees>-4.3835221230983734130859375</LongitudeDegrees>
            </Position>
            <AltitudeMeters>814.79998779296875</AltitudeMeters>
            <DistanceMeters>NAN</DistanceMeters>
          </Trackpoint>
          <Trackpoint>
            <Time>2020-12-05T13:48:39.000Z</Time>
            <Position>
              <LatitudeDegrees>36.81878037750720977783203125</LatitudeDegrees>
              <LongitudeDegrees>-4.38351131044328212738037109375</LongitudeDegrees>
            </Position>
            <AltitudeMeters>814.79998779296875</AltitudeMeters>
            <DistanceMeters>NAN</DistanceMeters>
          </Trackpoint>
          <Trackpoint>
            <Time>2020-12-05T13:48:40.000Z</Time>
            <Position>
              <LatitudeDegrees>36.81878465227782726287841796875</LatitudeDegrees>
              <LongitudeDegrees>-4.38349940814077854156494140625</LongitudeDegrees>
            </Position>
            <AltitudeMeters>815</AltitudeMeters>
            <DistanceMeters>NAN</DistanceMeters>
          </Trackpoint>
          <Trackpoint>
            <Time>2020-12-05T13:48:41.000Z</Time>
            <Position>
              <LatitudeDegrees>36.818788759410381317138671875</LatitudeDegrees>
              <LongitudeDegrees>-4.3834860809147357940673828125</LongitudeDegrees>
            </Position>
            <AltitudeMeters>815</AltitudeMeters>
            <DistanceMeters>NAN</DistanceMeters>
          </Trackpoint>
          <Trackpoint>
            <Time>2020-12-05T13:48:42.000Z</Time>
            <Position>
              <LatitudeDegrees>36.81879286654293537139892578125</LatitudeDegrees>
              <LongitudeDegrees>-4.38347258605062961578369140625</LongitudeDegrees>
            </Position>
            <AltitudeMeters>815</AltitudeMeters>
            <DistanceMeters>NAN</DistanceMeters>
          </Trackpoint>
          <Trackpoint>
            <Time>2020-12-05T13:48:43.000Z</Time>
            <Position>
              <LatitudeDegrees>36.81879739277064800262451171875</LatitudeDegrees>
              <LongitudeDegrees>-4.3834609352052211761474609375</LongitudeDegrees>
            </Position>
            <AltitudeMeters>815</AltitudeMeters>
            <DistanceMeters>NAN</DistanceMeters>
          </Trackpoint>
          <Trackpoint>
            <Time>2020-12-05T13:48:44.000Z</Time>
            <Position>
              <LatitudeDegrees>36.818800829350948333740234375</LatitudeDegrees>
              <LongitudeDegrees>-4.3834515474736690521240234375</LongitudeDegrees>
            </Position>
            <AltitudeMeters>814.79998779296875</AltitudeMeters>
            <DistanceMeters>NAN</DistanceMeters>
          </Trackpoint>
          <Trackpoint>
            <Time>2020-12-05T13:48:45.000Z</Time>
            <Position>
              <LatitudeDegrees>36.8188030086457729339599609375</LatitudeDegrees>
              <LongitudeDegrees>-4.383441992104053497314453125</LongitudeDegrees>
            </Position>
            <AltitudeMeters>814.79998779296875</AltitudeMeters>
            <DistanceMeters>NAN</DistanceMeters>
          </Trackpoint>
          <Trackpoint>
            <Time>2020-12-05T13:48:46.000Z</Time>
            <Position>
              <LatitudeDegrees>36.8188073672354221343994140625</LatitudeDegrees>
              <LongitudeDegrees>-4.38343293964862823486328125</LongitudeDegrees>
            </Position>
            <AltitudeMeters>814.79998779296875</AltitudeMeters>
            <DistanceMeters>NAN</DistanceMeters>
          </Trackpoint>
          <Trackpoint>
            <Time>2020-12-05T13:48:47.000Z</Time>
            <Position>
              <LatitudeDegrees>36.81881130672991275787353515625</LatitudeDegrees>
              <LongitudeDegrees>-4.38342489302158355712890625</LongitudeDegrees>
            </Position>
            <AltitudeMeters>814.79998779296875</AltitudeMeters>
            <DistanceMeters>NAN</DistanceMeters>
          </Trackpoint>
          <Trackpoint>
            <Time>2020-12-05T13:48:48.000Z</Time>
            <Position>
              <LatitudeDegrees>36.81881650350987911224365234375</LatitudeDegrees>
              <LongitudeDegrees>-4.38341776840388774871826171875</LongitudeDegrees>
            </Position>
            <AltitudeMeters>814.79998779296875</AltitudeMeters>
            <DistanceMeters>NAN</DistanceMeters>
          </Trackpoint>
          <Trackpoint>
            <Time>2020-12-05T13:48:49.000Z</Time>
            <Position>
              <LatitudeDegrees>36.818825639784336090087890625</LatitudeDegrees>
              <LongitudeDegrees>-4.3834139965474605560302734375</LongitudeDegrees>
            </Position>
            <AltitudeMeters>814.79998779296875</AltitudeMeters>
            <DistanceMeters>NAN</DistanceMeters>
          </Trackpoint>
          <Trackpoint>
            <Time>2020-12-05T13:48:50.000Z</Time>
            <Position>
              <LatitudeDegrees>36.81883511133491992950439453125</LatitudeDegrees>
              <LongitudeDegrees>-4.38340972177684307098388671875</LongitudeDegrees>
            </Position>
            <AltitudeMeters>814.5999755859375</AltitudeMeters>
            <DistanceMeters>NAN</DistanceMeters>
          </Trackpoint>
          <Trackpoint>
            <Time>2020-12-05T13:48:51.000Z</Time>
            <Position>
              <LatitudeDegrees>36.81884181685745716094970703125</LatitudeDegrees>
              <LongitudeDegrees>-4.3834032677114009857177734375</LongitudeDegrees>
            </Position>
            <AltitudeMeters>814.79998779296875</AltitudeMeters>
            <DistanceMeters>NAN</DistanceMeters>
          </Trackpoint>
          <Trackpoint>
            <Time>2020-12-05T13:48:52.000Z</Time>
            <Position>
              <LatitudeDegrees>36.8188476003706455230712890625</LatitudeDegrees>
              <LongitudeDegrees>-4.38339346088469028472900390625</LongitudeDegrees>
            </Position>
            <AltitudeMeters>814.79998779296875</AltitudeMeters>
            <DistanceMeters>NAN</DistanceMeters>
          </Trackpoint>
          <Trackpoint>
            <Time>2020-12-05T13:48:53.000Z</Time>
            <Position>
              <LatitudeDegrees>36.8188529647886753082275390625</LatitudeDegrees>
              <LongitudeDegrees>-4.3833854980766773223876953125</LongitudeDegrees>
            </Position>
            <AltitudeMeters>814.79998779296875</AltitudeMeters>
            <DistanceMeters>NAN</DistanceMeters>
          </Trackpoint>
          <Trackpoint>
            <Time>2020-12-05T13:48:54.000Z</Time>
            <Position>
              <LatitudeDegrees>36.81885824538767337799072265625</LatitudeDegrees>
              <LongitudeDegrees>-4.38337736763060092926025390625</LongitudeDegrees>
            </Position>
            <AltitudeMeters>814.79998779296875</AltitudeMeters>
            <DistanceMeters>NAN</DistanceMeters>
          </Trackpoint>
          <Trackpoint>
            <Time>2020-12-05T13:48:55.000Z</Time>
            <Position>
              <LatitudeDegrees>36.81886344216763973236083984375</LatitudeDegrees>
              <LongitudeDegrees>-4.383368901908397674560546875</LongitudeDegrees>
            </Position>
            <AltitudeMeters>815</AltitudeMeters>
            <DistanceMeters>NAN</DistanceMeters>
          </Trackpoint>
          <Trackpoint>
            <Time>2020-12-05T13:48:56.000Z</Time>
            <Position>
              <LatitudeDegrees>36.818867884576320648193359375</LatitudeDegrees>
              <LongitudeDegrees>-4.38335842452943325042724609375</LongitudeDegrees>
            </Position>
            <AltitudeMeters>815</AltitudeMeters>
            <DistanceMeters>NAN</DistanceMeters>
          </Trackpoint>
          <Trackpoint>
            <Time>2020-12-05T13:48:57.000Z</Time>
            <Position>
              <LatitudeDegrees>36.8188727460801601409912109375</LatitudeDegrees>
              <LongitudeDegrees>-4.38334585167467594146728515625</LongitudeDegrees>
            </Position>
            <AltitudeMeters>815.20001220703125</AltitudeMeters>
            <DistanceMeters>NAN</DistanceMeters>
          </Trackpoint>
          <Trackpoint>
            <Time>2020-12-05T13:48:58.000Z</Time>
            <Position>
              <LatitudeDegrees>36.8188776075839996337890625</LatitudeDegrees>
              <LongitudeDegrees>-4.38333579339087009429931640625</LongitudeDegrees>
            </Position>
            <AltitudeMeters>815.20001220703125</AltitudeMeters>
            <DistanceMeters>NAN</DistanceMeters>
          </Trackpoint>
          <Trackpoint>
            <Time>2020-12-05T13:48:59.000Z</Time>
            <Position>
              <LatitudeDegrees>36.81888498365879058837890625</LatitudeDegrees>
              <LongitudeDegrees>-4.38332590274512767791748046875</LongitudeDegrees>
            </Position>
            <AltitudeMeters>815</AltitudeMeters>
            <DistanceMeters>NAN</DistanceMeters>
          </Trackpoint>
          <Trackpoint>
            <Time>2020-12-05T13:49:00.000Z</Time>
            <Position>
              <LatitudeDegrees>36.81888976134359836578369140625</LatitudeDegrees>
              <LongitudeDegrees>-4.3833182752132415771484375</LongitudeDegrees>
            </Position>
            <AltitudeMeters>815</AltitudeMeters>
            <DistanceMeters>NAN</DistanceMeters>
          </Trackpoint>
          <Trackpoint>
            <Time>2020-12-05T13:49:01.000Z</Time>
            <Position>
              <LatitudeDegrees>36.81889596395194530487060546875</LatitudeDegrees>
              <LongitudeDegrees>-4.383309893310070037841796875</LongitudeDegrees>
            </Position>
            <AltitudeMeters>815</AltitudeMeters>
            <DistanceMeters>NAN</DistanceMeters>
          </Trackpoint>
          <Trackpoint>
            <Time>2020-12-05T13:49:02.000Z</Time>
            <Position>
              <LatitudeDegrees>36.81890308856964111328125</LatitudeDegrees>
              <LongitudeDegrees>-4.3833000026643276214599609375</LongitudeDegrees>
            </Position>
            <AltitudeMeters>814.79998779296875</AltitudeMeters>
            <DistanceMeters>NAN</DistanceMeters>
          </Trackpoint>
          <Trackpoint>
            <Time>2020-12-05T13:49:03.000Z</Time>
            <Position>
              <LatitudeDegrees>36.8189082853496074676513671875</LatitudeDegrees>
              <LongitudeDegrees>-4.38328944146633148193359375</LongitudeDegrees>
            </Position>
            <AltitudeMeters>814.79998779296875</AltitudeMeters>
            <DistanceMeters>NAN</DistanceMeters>
          </Trackpoint>
          <Trackpoint>
            <Time>2020-12-05T13:49:04.000Z</Time>
            <Position>
              <LatitudeDegrees>36.8189136497676372528076171875</LatitudeDegrees>
              <LongitudeDegrees>-4.38327862881124019622802734375</LongitudeDegrees>
            </Position>
            <AltitudeMeters>814.79998779296875</AltitudeMeters>
            <DistanceMeters>NAN</DistanceMeters>
          </Trackpoint>
          <Trackpoint>
            <Time>2020-12-05T13:49:05.000Z</Time>
            <Position>
              <LatitudeDegrees>36.81892127729952335357666015625</LatitudeDegrees>
              <LongitudeDegrees>-4.3832671456038951873779296875</LongitudeDegrees>
            </Position>
            <AltitudeMeters>814.5999755859375</AltitudeMeters>
            <DistanceMeters>NAN</DistanceMeters>
          </Trackpoint>
          <Trackpoint>
            <Time>2020-12-05T13:49:06.000Z</Time>
            <Position>
              <LatitudeDegrees>36.8189294077455997467041015625</LatitudeDegrees>
              <LongitudeDegrees>-4.3832560814917087554931640625</LongitudeDegrees>
            </Position>
            <AltitudeMeters>814.5999755859375</AltitudeMeters>
            <DistanceMeters>NAN</DistanceMeters>
          </Trackpoint>
          <Trackpoint>
            <Time>2020-12-05T13:49:07.000Z</Time>
            <Position>
              <LatitudeDegrees>36.81893837638199329376220703125</LatitudeDegrees>
              <LongitudeDegrees>-4.383242838084697723388671875</LongitudeDegrees>
            </Position>
            <AltitudeMeters>814.5999755859375</AltitudeMeters>
            <DistanceMeters>NAN</DistanceMeters>
          </Trackpoint>
          <Trackpoint>
            <Time>2020-12-05T13:49:08.000Z</Time>
            <Position>
              <LatitudeDegrees>36.81894558481872081756591796875</LatitudeDegrees>
              <LongitudeDegrees>-4.38323177397251129150390625</LongitudeDegrees>
            </Position>
            <AltitudeMeters>814.5999755859375</AltitudeMeters>
            <DistanceMeters>NAN</DistanceMeters>
          </Trackpoint>
          <Trackpoint>
            <Time>2020-12-05T13:49:09.000Z</Time>
            <Position>
              <LatitudeDegrees>36.81894994340837001800537109375</LatitudeDegrees>
              <LongitudeDegrees>-4.383220039308071136474609375</LongitudeDegrees>
            </Position>
            <AltitudeMeters>814.5999755859375</AltitudeMeters>
            <DistanceMeters>NAN</DistanceMeters>
          </Trackpoint>
          <Trackpoint>
            <Time>2020-12-05T13:49:10.000Z</Time>
            <Position>
              <LatitudeDegrees>36.8189535476267337799072265625</LatitudeDegrees>
              <LongitudeDegrees>-4.38321107067167758941650390625</LongitudeDegrees>
            </Position>
            <AltitudeMeters>814.4000244140625</AltitudeMeters>
            <DistanceMeters>NAN</DistanceMeters>
          </Trackpoint>
          <Trackpoint>
            <Time>2020-12-05T13:49:11.000Z</Time>
            <Position>
              <LatitudeDegrees>36.81895673274993896484375</LatitudeDegrees>
              <LongitudeDegrees>-4.38320092856884002685546875</LongitudeDegrees>
            </Position>
            <AltitudeMeters>814.4000244140625</AltitudeMeters>
            <DistanceMeters>NAN</DistanceMeters>
          </Trackpoint>
          <Trackpoint>
            <Time>2020-12-05T13:49:12.000Z</Time>
            <Position>
              <LatitudeDegrees>36.8189622648060321807861328125</LatitudeDegrees>
              <LongitudeDegrees>-4.38319028355181217193603515625</LongitudeDegrees>
            </Position>
            <AltitudeMeters>814</AltitudeMeters>
            <DistanceMeters>NAN</DistanceMeters>
          </Trackpoint>
          <Trackpoint>
            <Time>2020-12-05T13:49:13.000Z</Time>
            <Position>
              <LatitudeDegrees>36.81896536611020565032958984375</LatitudeDegrees>
              <LongitudeDegrees>-4.38317955471575260162353515625</LongitudeDegrees>
            </Position>
            <AltitudeMeters>814</AltitudeMeters>
            <DistanceMeters>NAN</DistanceMeters>
          </Trackpoint>
          <Trackpoint>
            <Time>2020-12-05T13:49:14.000Z</Time>
            <Position>
              <LatitudeDegrees>36.81896519847214221954345703125</LatitudeDegrees>
              <LongitudeDegrees>-4.3831702508032321929931640625</LongitudeDegrees>
            </Position>
            <AltitudeMeters>813.79998779296875</AltitudeMeters>
            <DistanceMeters>NAN</DistanceMeters>
          </Trackpoint>
          <Trackpoint>
            <Time>2020-12-05T13:49:15.000Z</Time>
            <Position>
              <LatitudeDegrees>36.818965114653110504150390625</LatitudeDegrees>
              <LongitudeDegrees>-4.38315591774880886077880859375</LongitudeDegrees>
            </Position>
            <AltitudeMeters>813.79998779296875</AltitudeMeters>
            <DistanceMeters>NAN</DistanceMeters>
          </Trackpoint>
          <Trackpoint>
            <Time>2020-12-05T13:49:16.000Z</Time>
            <Position>
              <LatitudeDegrees>36.818965785205364227294921875</LatitudeDegrees>
              <LongitudeDegrees>-4.38314300961792469024658203125</LongitudeDegrees>
            </Position>
            <AltitudeMeters>813.5999755859375</AltitudeMeters>
            <DistanceMeters>NAN</DistanceMeters>
          </Trackpoint>
          <Trackpoint>
            <Time>2020-12-05T13:49:17.000Z</Time>
            <Position>
              <LatitudeDegrees>36.81896922178566455841064453125</LatitudeDegrees>
              <LongitudeDegrees>-4.3831259943544864654541015625</LongitudeDegrees>
            </Position>
            <AltitudeMeters>813.4000244140625</AltitudeMeters>
            <DistanceMeters>NAN</DistanceMeters>
          </Trackpoint>
          <Trackpoint>
            <Time>2020-12-05T13:49:18.000Z</Time>
            <Position>
              <LatitudeDegrees>36.8189739994704723358154296875</LatitudeDegrees>
              <LongitudeDegrees>-4.3831082247197628021240234375</LongitudeDegrees>
            </Position>
            <AltitudeMeters>813.4000244140625</AltitudeMeters>
            <DistanceMeters>NAN</DistanceMeters>
          </Trackpoint>
          <Trackpoint>
            <Time>2020-12-05T13:49:19.000Z</Time>
            <Position>
              <LatitudeDegrees>36.81897626258432865142822265625</LatitudeDegrees>
              <LongitudeDegrees>-4.38309707678854465484619140625</LongitudeDegrees>
            </Position>
            <AltitudeMeters>813.20001220703125</AltitudeMeters>
            <DistanceMeters>NAN</DistanceMeters>
          </Trackpoint>
          <Trackpoint>
            <Time>2020-12-05T13:49:20.000Z</Time>
            <Position>
              <LatitudeDegrees>36.81897886097431182861328125</LatitudeDegrees>
              <LongitudeDegrees>-4.3830849230289459228515625</LongitudeDegrees>
            </Position>
            <AltitudeMeters>813.20001220703125</AltitudeMeters>
            <DistanceMeters>NAN</DistanceMeters>
          </Trackpoint>
          <Trackpoint>
            <Time>2020-12-05T13:49:21.000Z</Time>
            <Position>
              <LatitudeDegrees>36.8189837224781513214111328125</LatitudeDegrees>
              <LongitudeDegrees>-4.38307092525064945220947265625</LongitudeDegrees>
            </Position>
            <AltitudeMeters>813.20001220703125</AltitudeMeters>
            <DistanceMeters>NAN</DistanceMeters>
          </Trackpoint>
          <Trackpoint>
            <Time>2020-12-05T13:49:22.000Z</Time>
            <Position>
              <LatitudeDegrees>36.81899017654359340667724609375</LatitudeDegrees>
              <LongitudeDegrees>-4.383059106767177581787109375</LongitudeDegrees>
            </Position>
            <AltitudeMeters>813.20001220703125</AltitudeMeters>
            <DistanceMeters>NAN</DistanceMeters>
          </Trackpoint>
          <Trackpoint>
            <Time>2020-12-05T13:49:23.000Z</Time>
            <Position>
              <LatitudeDegrees>36.81899587623775005340576171875</LatitudeDegrees>
              <LongitudeDegrees>-4.38304536044597625732421875</LongitudeDegrees>
            </Position>
            <AltitudeMeters>813</AltitudeMeters>
            <DistanceMeters>NAN</DistanceMeters>
          </Trackpoint>
          <Trackpoint>
            <Time>2020-12-05T13:49:24.000Z</Time>
            <Position>
              <LatitudeDegrees>36.81900434195995330810546875</LatitudeDegrees>
              <LongitudeDegrees>-4.3830290995538234710693359375</LongitudeDegrees>
            </Position>
            <AltitudeMeters>813.20001220703125</AltitudeMeters>
            <DistanceMeters>NAN</DistanceMeters>
          </Trackpoint>
          <Trackpoint>
            <Time>2020-12-05T13:49:25.000Z</Time>
            <Position>
              <LatitudeDegrees>36.81900962255895137786865234375</LatitudeDegrees>
              <LongitudeDegrees>-4.38301644288003444671630859375</LongitudeDegrees>
            </Position>
            <AltitudeMeters>813.20001220703125</AltitudeMeters>
            <DistanceMeters>NAN</DistanceMeters>
          </Trackpoint>
          <Trackpoint>
            <Time>2020-12-05T13:49:26.000Z</Time>
            <Position>
              <LatitudeDegrees>36.8190162442624568939208984375</LatitudeDegrees>
              <LongitudeDegrees>-4.383006803691387176513671875</LongitudeDegrees>
            </Position>
            <AltitudeMeters>813.4000244140625</AltitudeMeters>
            <DistanceMeters>NAN</DistanceMeters>
          </Trackpoint>
          <Trackpoint>
            <Time>2020-12-05T13:49:27.000Z</Time>
            <Position>
              <LatitudeDegrees>36.81902370415627956390380859375</LatitudeDegrees>
              <LongitudeDegrees>-4.38299649395048618316650390625</LongitudeDegrees>
            </Position>
            <AltitudeMeters>813.79998779296875</AltitudeMeters>
            <DistanceMeters>NAN</DistanceMeters>
          </Trackpoint>
          <Trackpoint>
            <Time>2020-12-05T13:49:28.000Z</Time>
            <Position>
              <LatitudeDegrees>36.819030158221721649169921875</LatitudeDegrees>
              <LongitudeDegrees>-4.38298995606601238250732421875</LongitudeDegrees>
            </Position>
            <AltitudeMeters>813.79998779296875</AltitudeMeters>
            <DistanceMeters>NAN</DistanceMeters>
          </Trackpoint>
          <Trackpoint>
            <Time>2020-12-05T13:49:29.000Z</Time>
            <Position>
              <LatitudeDegrees>36.8190333433449268341064453125</LatitudeDegrees>
              <LongitudeDegrees>-4.38298392109572887420654296875</LongitudeDegrees>
            </Position>
            <AltitudeMeters>814</AltitudeMeters>
            <DistanceMeters>NAN</DistanceMeters>
          </Trackpoint>
          <Trackpoint>
            <Time>2020-12-05T13:49:30.000Z</Time>
            <Position>
              <LatitudeDegrees>36.81903711520135402679443359375</LatitudeDegrees>
              <LongitudeDegrees>-4.38297830522060394287109375</LongitudeDegrees>
            </Position>
            <AltitudeMeters>814</AltitudeMeters>
            <DistanceMeters>NAN</DistanceMeters>
          </Trackpoint>
          <Trackpoint>
            <Time>2020-12-05T13:49:31.000Z</Time>
            <Position>
              <LatitudeDegrees>36.81904097087681293487548828125</LatitudeDegrees>
              <LongitudeDegrees>-4.38297084532678127288818359375</LongitudeDegrees>
            </Position>
            <AltitudeMeters>814.20001220703125</AltitudeMeters>
            <DistanceMeters>NAN</DistanceMeters>
          </Trackpoint>
          <Trackpoint>
            <Time>2020-12-05T13:49:32.000Z</Time>
            <Position>
              <LatitudeDegrees>36.81904432363808155059814453125</LatitudeDegrees>
              <LongitudeDegrees>-4.38296128995716571807861328125</LongitudeDegrees>
            </Position>
            <AltitudeMeters>814.20001220703125</AltitudeMeters>
            <DistanceMeters>NAN</DistanceMeters>
          </Trackpoint>
          <Trackpoint>
            <Time>2020-12-05T13:49:33.000Z</Time>
            <Position>
              <LatitudeDegrees>36.81904817931354045867919921875</LatitudeDegrees>
              <LongitudeDegrees>-4.3829516507685184478759765625</LongitudeDegrees>
            </Position>
            <AltitudeMeters>814.4000244140625</AltitudeMeters>
            <DistanceMeters>NAN</DistanceMeters>
          </Trackpoint>
          <Trackpoint>
            <Time>2020-12-05T13:49:34.000Z</Time>
            <Position>
              <LatitudeDegrees>36.81905522011220455169677734375</LatitudeDegrees>
              <LongitudeDegrees>-4.382941424846649169921875</LongitudeDegrees>
            </Position>
            <AltitudeMeters>814.5999755859375</AltitudeMeters>
            <DistanceMeters>NAN</DistanceMeters>
          </Trackpoint>
          <Trackpoint>
            <Time>2020-12-05T13:49:35.000Z</Time>
            <Position>
              <LatitudeDegrees>36.81905974633991718292236328125</LatitudeDegrees>
              <LongitudeDegrees>-4.3829315342009067535400390625</LongitudeDegrees>
            </Position>
            <AltitudeMeters>814.79998779296875</AltitudeMeters>
            <DistanceMeters>NAN</DistanceMeters>
          </Trackpoint>
          <Trackpoint>
            <Time>2020-12-05T13:49:36.000Z</Time>
            <Position>
              <LatitudeDegrees>36.81906444020569324493408203125</LatitudeDegrees>
              <LongitudeDegrees>-4.382919631898403167724609375</LongitudeDegrees>
            </Position>
            <AltitudeMeters>814.79998779296875</AltitudeMeters>
            <DistanceMeters>NAN</DistanceMeters>
          </Trackpoint>
          <Trackpoint>
            <Time>2020-12-05T13:49:37.000Z</Time>
            <Position>
              <LatitudeDegrees>36.81907081045210361480712890625</LatitudeDegrees>
              <LongitudeDegrees>-4.382910244166851043701171875</LongitudeDegrees>
            </Position>
            <AltitudeMeters>814.79998779296875</AltitudeMeters>
            <DistanceMeters>NAN</DistanceMeters>
          </Trackpoint>
          <Trackpoint>
            <Time>2020-12-05T13:49:38.000Z</Time>
            <Position>
              <LatitudeDegrees>36.81907416321337223052978515625</LatitudeDegrees>
              <LongitudeDegrees>-4.38290328718721866607666015625</LongitudeDegrees>
            </Position>
            <AltitudeMeters>814.79998779296875</AltitudeMeters>
            <DistanceMeters>NAN</DistanceMeters>
          </Trackpoint>
          <Trackpoint>
            <Time>2020-12-05T13:49:39.000Z</Time>
            <Position>
              <LatitudeDegrees>36.81907718069851398468017578125</LatitudeDegrees>
              <LongitudeDegrees>-4.38289825804531574249267578125</LongitudeDegrees>
            </Position>
            <AltitudeMeters>814.5999755859375</AltitudeMeters>
            <DistanceMeters>NAN</DistanceMeters>
          </Trackpoint>
          <Trackpoint>
            <Time>2020-12-05T13:49:40.000Z</Time>
            <Position>
              <LatitudeDegrees>36.81908103637397289276123046875</LatitudeDegrees>
              <LongitudeDegrees>-4.38288979232311248779296875</LongitudeDegrees>
            </Position>
            <AltitudeMeters>814.4000244140625</AltitudeMeters>
            <DistanceMeters>NAN</DistanceMeters>
          </Trackpoint>
          <Trackpoint>
            <Time>2020-12-05T13:49:41.000Z</Time>
            <Position>
              <LatitudeDegrees>36.81908489204943180084228515625</LatitudeDegrees>
              <LongitudeDegrees>-4.38288216479122638702392578125</LongitudeDegrees>
            </Position>
            <AltitudeMeters>814.4000244140625</AltitudeMeters>
            <DistanceMeters>NAN</DistanceMeters>
          </Trackpoint>
          <Trackpoint>
            <Time>2020-12-05T13:49:42.000Z</Time>
            <Position>
              <LatitudeDegrees>36.81908589787781238555908203125</LatitudeDegrees>
              <LongitudeDegrees>-4.38287663273513317108154296875</LongitudeDegrees>
            </Position>
            <AltitudeMeters>814.4000244140625</AltitudeMeters>
            <DistanceMeters>NAN</DistanceMeters>
          </Trackpoint>
          <Trackpoint>
            <Time>2020-12-05T13:49:43.000Z</Time>
            <Position>
              <LatitudeDegrees>36.81908841244876384735107421875</LatitudeDegrees>
              <LongitudeDegrees>-4.382869340479373931884765625</LongitudeDegrees>
            </Position>
            <AltitudeMeters>814.4000244140625</AltitudeMeters>
            <DistanceMeters>NAN</DistanceMeters>
          </Trackpoint>
          <Trackpoint>
            <Time>2020-12-05T13:49:44.000Z</Time>
            <Position>
              <LatitudeDegrees>36.8190943636000156402587890625</LatitudeDegrees>
              <LongitudeDegrees>-4.3828628025949001312255859375</LongitudeDegrees>
            </Position>
            <AltitudeMeters>814.5999755859375</AltitudeMeters>
            <DistanceMeters>NAN</DistanceMeters>
          </Trackpoint>
          <Trackpoint>
            <Time>2020-12-05T13:49:45.000Z</Time>
            <Position>
              <LatitudeDegrees>36.8190975487232208251953125</LatitudeDegrees>
              <LongitudeDegrees>-4.38285886310040950775146484375</LongitudeDegrees>
            </Position>
            <AltitudeMeters>814.79998779296875</AltitudeMeters>
            <DistanceMeters>NAN</DistanceMeters>
          </Trackpoint>
          <Trackpoint>
            <Time>2020-12-05T13:49:46.000Z</Time>
            <Position>
              <LatitudeDegrees>36.81910224258899688720703125</LatitudeDegrees>
              <LongitudeDegrees>-4.38285668380558490753173828125</LongitudeDegrees>
            </Position>
            <AltitudeMeters>815</AltitudeMeters>
            <DistanceMeters>NAN</DistanceMeters>
          </Trackpoint>
          <Trackpoint>
            <Time>2020-12-05T13:49:47.000Z</Time>
            <Position>
              <LatitudeDegrees>36.81910601444542407989501953125</LatitudeDegrees>
              <LongitudeDegrees>-4.3828557617962360382080078125</LongitudeDegrees>
            </Position>
            <AltitudeMeters>815.20001220703125</AltitudeMeters>
            <DistanceMeters>NAN</DistanceMeters>
          </Trackpoint>
          <Trackpoint>
            <Time>2020-12-05T13:49:48.000Z</Time>
            <Position>
              <LatitudeDegrees>36.81910693645477294921875</LatitudeDegrees>
              <LongitudeDegrees>-4.38285249285399913787841796875</LongitudeDegrees>
            </Position>
            <AltitudeMeters>815.20001220703125</AltitudeMeters>
            <DistanceMeters>NAN</DistanceMeters>
          </Trackpoint>
          <Trackpoint>
            <Time>2020-12-05T13:49:49.000Z</Time>
            <Position>
              <LatitudeDegrees>36.81910836137831211090087890625</LatitudeDegrees>
              <LongitudeDegrees>-4.38285115174949169158935546875</LongitudeDegrees>
            </Position>
            <AltitudeMeters>815.20001220703125</AltitudeMeters>
            <DistanceMeters>NAN</DistanceMeters>
          </Trackpoint>
          <Trackpoint>
            <Time>2020-12-05T13:49:50.000Z</Time>
            <Position>
              <LatitudeDegrees>36.8191107921302318572998046875</LatitudeDegrees>
              <LongitudeDegrees>-4.38284763135015964508056640625</LongitudeDegrees>
            </Position>
            <AltitudeMeters>815.20001220703125</AltitudeMeters>
            <DistanceMeters>NAN</DistanceMeters>
          </Trackpoint>
          <Trackpoint>
            <Time>2020-12-05T13:49:51.000Z</Time>
            <Position>
              <LatitudeDegrees>36.81911271996796131134033203125</LatitudeDegrees>
              <LongitudeDegrees>-4.382842518389225006103515625</LongitudeDegrees>
            </Position>
            <AltitudeMeters>815.20001220703125</AltitudeMeters>
            <DistanceMeters>NAN</DistanceMeters>
          </Trackpoint>
          <Trackpoint>
            <Time>2020-12-05T13:49:52.000Z</Time>
            <Position>
              <LatitudeDegrees>36.819116659462451934814453125</LatitudeDegrees>
              <LongitudeDegrees>-4.382836483418941497802734375</LongitudeDegrees>
            </Position>
            <AltitudeMeters>815.20001220703125</AltitudeMeters>
            <DistanceMeters>NAN</DistanceMeters>
          </Trackpoint>
          <Trackpoint>
            <Time>2020-12-05T13:49:53.000Z</Time>
            <Position>
              <LatitudeDegrees>36.81911892257630825042724609375</LatitudeDegrees>
              <LongitudeDegrees>-4.38283120281994342803955078125</LongitudeDegrees>
            </Position>
            <AltitudeMeters>815</AltitudeMeters>
            <DistanceMeters>NAN</DistanceMeters>
          </Trackpoint>
          <Trackpoint>
            <Time>2020-12-05T13:49:54.000Z</Time>
            <Position>
              <LatitudeDegrees>36.81911942549049854278564453125</LatitudeDegrees>
              <LongitudeDegrees>-4.382826425135135650634765625</LongitudeDegrees>
            </Position>
            <AltitudeMeters>815</AltitudeMeters>
            <DistanceMeters>NAN</DistanceMeters>
          </Trackpoint>
          <Trackpoint>
            <Time>2020-12-05T13:49:55.000Z</Time>
            <Position>
              <LatitudeDegrees>36.8191178329288959503173828125</LatitudeDegrees>
              <LongitudeDegrees>-4.382815696299076080322265625</LongitudeDegrees>
            </Position>
            <AltitudeMeters>814.79998779296875</AltitudeMeters>
            <DistanceMeters>NAN</DistanceMeters>
          </Trackpoint>
          <Trackpoint>
            <Time>2020-12-05T13:49:56.000Z</Time>
            <Position>
              <LatitudeDegrees>36.81911909021437168121337890625</LatitudeDegrees>
              <LongitudeDegrees>-4.38280790112912654876708984375</LongitudeDegrees>
            </Position>
            <AltitudeMeters>814.79998779296875</AltitudeMeters>
            <DistanceMeters>NAN</DistanceMeters>
          </Trackpoint>
          <Trackpoint>
            <Time>2020-12-05T13:49:57.000Z</Time>
            <Position>
              <LatitudeDegrees>36.819120682775974273681640625</LatitudeDegrees>
              <LongitudeDegrees>-4.3827994354069232940673828125</LongitudeDegrees>
            </Position>
            <AltitudeMeters>814.79998779296875</AltitudeMeters>
            <DistanceMeters>NAN</DistanceMeters>
          </Trackpoint>
          <Trackpoint>
            <Time>2020-12-05T13:49:58.000Z</Time>
            <Position>
              <LatitudeDegrees>36.819120682775974273681640625</LatitudeDegrees>
              <LongitudeDegrees>-4.3827860243618488311767578125</LongitudeDegrees>
            </Position>
            <AltitudeMeters>814.79998779296875</AltitudeMeters>
            <DistanceMeters>NAN</DistanceMeters>
          </Trackpoint>
          <Trackpoint>
            <Time>2020-12-05T13:49:59.000Z</Time>
            <Position>
              <LatitudeDegrees>36.81912043131887912750244140625</LatitudeDegrees>
              <LongitudeDegrees>-4.38276783563196659088134765625</LongitudeDegrees>
            </Position>
            <AltitudeMeters>814.79998779296875</AltitudeMeters>
            <DistanceMeters>NAN</DistanceMeters>
          </Trackpoint>
          <Trackpoint>
            <Time>2020-12-05T13:50:00.000Z</Time>
            <Position>
              <LatitudeDegrees>36.819117330014705657958984375</LatitudeDegrees>
              <LongitudeDegrees>-4.38275291584432125091552734375</LongitudeDegrees>
            </Position>
            <AltitudeMeters>814.79998779296875</AltitudeMeters>
            <DistanceMeters>NAN</DistanceMeters>
          </Trackpoint>
          <Trackpoint>
            <Time>2020-12-05T13:50:01.000Z</Time>
            <Position>
              <LatitudeDegrees>36.81911389343440532684326171875</LatitudeDegrees>
              <LongitudeDegrees>-4.38273665495216846466064453125</LongitudeDegrees>
            </Position>
            <AltitudeMeters>814.79998779296875</AltitudeMeters>
            <DistanceMeters>NAN</DistanceMeters>
          </Trackpoint>
          <Trackpoint>
            <Time>2020-12-05T13:50:02.000Z</Time>
            <Position>
              <LatitudeDegrees>36.81910970248281955718994140625</LatitudeDegrees>
              <LongitudeDegrees>-4.38272039406001567840576171875</LongitudeDegrees>
            </Position>
            <AltitudeMeters>814.79998779296875</AltitudeMeters>
            <DistanceMeters>NAN</DistanceMeters>
          </Trackpoint>
          <Trackpoint>
            <Time>2020-12-05T13:50:03.000Z</Time>
            <Position>
              <LatitudeDegrees>36.819109618663787841796875</LatitudeDegrees>
              <LongitudeDegrees>-4.3827109225094318389892578125</LongitudeDegrees>
            </Position>
            <AltitudeMeters>814.5999755859375</AltitudeMeters>
            <DistanceMeters>NAN</DistanceMeters>
          </Trackpoint>
          <Trackpoint>
            <Time>2020-12-05T13:50:04.000Z</Time>
            <Position>
              <LatitudeDegrees>36.81910936720669269561767578125</LatitudeDegrees>
              <LongitudeDegrees>-4.38269667327404022216796875</LongitudeDegrees>
            </Position>
            <AltitudeMeters>814.5999755859375</AltitudeMeters>
            <DistanceMeters>NAN</DistanceMeters>
          </Trackpoint>
          <Trackpoint>
            <Time>2020-12-05T13:50:05.000Z</Time>
            <Position>
              <LatitudeDegrees>36.81911028921604156494140625</LatitudeDegrees>
              <LongitudeDegrees>-4.38268083147704601287841796875</LongitudeDegrees>
            </Position>
            <AltitudeMeters>814.5999755859375</AltitudeMeters>
            <DistanceMeters>NAN</DistanceMeters>
          </Trackpoint>
          <Trackpoint>
            <Time>2020-12-05T13:50:06.000Z</Time>
            <Position>
              <LatitudeDegrees>36.819109953939914703369140625</LatitudeDegrees>
              <LongitudeDegrees>-4.3826666660606861114501953125</LongitudeDegrees>
            </Position>
            <AltitudeMeters>814.5999755859375</AltitudeMeters>
            <DistanceMeters>NAN</DistanceMeters>
          </Trackpoint>
          <Trackpoint>
            <Time>2020-12-05T13:50:07.000Z</Time>
            <Position>
              <LatitudeDegrees>36.8191082775592803955078125</LatitudeDegrees>
              <LongitudeDegrees>-4.3826465494930744171142578125</LongitudeDegrees>
            </Position>
            <AltitudeMeters>814.5999755859375</AltitudeMeters>
            <DistanceMeters>NAN</DistanceMeters>
          </Trackpoint>
          <Trackpoint>
            <Time>2020-12-05T13:50:08.000Z</Time>
            <Position>
              <LatitudeDegrees>36.81910886429250240325927734375</LatitudeDegrees>
              <LongitudeDegrees>-4.3826321326196193695068359375</LongitudeDegrees>
            </Position>
            <AltitudeMeters>814.5999755859375</AltitudeMeters>
            <DistanceMeters>NAN</DistanceMeters>
          </Trackpoint>
          <Trackpoint>
            <Time>2020-12-05T13:50:09.000Z</Time>
            <Position>
              <LatitudeDegrees>36.81910534389317035675048828125</LatitudeDegrees>
              <LongitudeDegrees>-4.38261696137487888336181640625</LongitudeDegrees>
            </Position>
            <AltitudeMeters>814.5999755859375</AltitudeMeters>
            <DistanceMeters>NAN</DistanceMeters>
          </Trackpoint>
          <Trackpoint>
            <Time>2020-12-05T13:50:10.000Z</Time>
            <Position>
              <LatitudeDegrees>36.81910358369350433349609375</LatitudeDegrees>
              <LongitudeDegrees>-4.38260640017688274383544921875</LongitudeDegrees>
            </Position>
            <AltitudeMeters>814.79998779296875</AltitudeMeters>
            <DistanceMeters>NAN</DistanceMeters>
          </Trackpoint>
          <Trackpoint>
            <Time>2020-12-05T13:50:11.000Z</Time>
            <Position>
              <LatitudeDegrees>36.81910165585577487945556640625</LatitudeDegrees>
              <LongitudeDegrees>-4.3825965933501720428466796875</LongitudeDegrees>
            </Position>
            <AltitudeMeters>814.79998779296875</AltitudeMeters>
            <DistanceMeters>NAN</DistanceMeters>
          </Trackpoint>
          <Trackpoint>
            <Time>2020-12-05T13:50:12.000Z</Time>
            <Position>
              <LatitudeDegrees>36.819098889827728271484375</LatitudeDegrees>
              <LongitudeDegrees>-4.38258678652346134185791015625</LongitudeDegrees>
            </Position>
            <AltitudeMeters>814.79998779296875</AltitudeMeters>
            <DistanceMeters>NAN</DistanceMeters>
          </Trackpoint>
          <Trackpoint>
            <Time>2020-12-05T13:50:13.000Z</Time>
            <Position>
              <LatitudeDegrees>36.81909712962806224822998046875</LatitudeDegrees>
              <LongitudeDegrees>-4.38257941044867038726806640625</LongitudeDegrees>
            </Position>
            <AltitudeMeters>815</AltitudeMeters>
            <DistanceMeters>NAN</DistanceMeters>
          </Trackpoint>
          <Trackpoint>
            <Time>2020-12-05T13:50:14.000Z</Time>
            <Position>
              <LatitudeDegrees>36.8190933577716350555419921875</LatitudeDegrees>
              <LongitudeDegrees>-4.38257236965000629425048828125</LongitudeDegrees>
            </Position>
            <AltitudeMeters>815</AltitudeMeters>
            <DistanceMeters>NAN</DistanceMeters>
          </Trackpoint>
          <Trackpoint>
            <Time>2020-12-05T13:50:15.000Z</Time>
            <Position>
              <LatitudeDegrees>36.81908807717263698577880859375</LatitudeDegrees>
              <LongitudeDegrees>-4.3825650773942470550537109375</LongitudeDegrees>
            </Position>
            <AltitudeMeters>815.20001220703125</AltitudeMeters>
            <DistanceMeters>NAN</DistanceMeters>
          </Trackpoint>
          <Trackpoint>
            <Time>2020-12-05T13:50:16.000Z</Time>
            <Position>
              <LatitudeDegrees>36.81908187456429004669189453125</LatitudeDegrees>
              <LongitudeDegrees>-4.382557533681392669677734375</LongitudeDegrees>
            </Position>
            <AltitudeMeters>815.20001220703125</AltitudeMeters>
            <DistanceMeters>NAN</DistanceMeters>
          </Trackpoint>
          <Trackpoint>
            <Time>2020-12-05T13:50:17.000Z</Time>
            <Position>
              <LatitudeDegrees>36.81907667778432369232177734375</LatitudeDegrees>
              <LongitudeDegrees>-4.382549487054347991943359375</LongitudeDegrees>
            </Position>
            <AltitudeMeters>815.20001220703125</AltitudeMeters>
            <DistanceMeters>NAN</DistanceMeters>
          </Trackpoint>
          <Trackpoint>
            <Time>2020-12-05T13:50:18.000Z</Time>
            <Position>
              <LatitudeDegrees>36.81907047517597675323486328125</LatitudeDegrees>
              <LongitudeDegrees>-4.38254102133214473724365234375</LongitudeDegrees>
            </Position>
            <AltitudeMeters>815.20001220703125</AltitudeMeters>
            <DistanceMeters>NAN</DistanceMeters>
          </Trackpoint>
          <Trackpoint>
            <Time>2020-12-05T13:50:19.000Z</Time>
            <Position>
              <LatitudeDegrees>36.81906460784375667572021484375</LatitudeDegrees>
              <LongitudeDegrees>-4.3825323879718780517578125</LongitudeDegrees>
            </Position>
            <AltitudeMeters>815.20001220703125</AltitudeMeters>
            <DistanceMeters>NAN</DistanceMeters>
          </Trackpoint>
          <Trackpoint>
            <Time>2020-12-05T13:50:20.000Z</Time>
            <Position>
              <LatitudeDegrees>36.81905857287347316741943359375</LatitudeDegrees>
              <LongitudeDegrees>-4.3825245089828968048095703125</LongitudeDegrees>
            </Position>
            <AltitudeMeters>815</AltitudeMeters>
            <DistanceMeters>NAN</DistanceMeters>
          </Trackpoint>
          <Trackpoint>
            <Time>2020-12-05T13:50:21.000Z</Time>
            <Position>
              <LatitudeDegrees>36.81905262172222137451171875</LatitudeDegrees>
              <LongitudeDegrees>-4.38251520507037639617919921875</LongitudeDegrees>
            </Position>
            <AltitudeMeters>815</AltitudeMeters>
            <DistanceMeters>NAN</DistanceMeters>
          </Trackpoint>
          <Trackpoint>
            <Time>2020-12-05T13:50:22.000Z</Time>
            <Position>
              <LatitudeDegrees>36.819046251475811004638671875</LatitudeDegrees>
              <LongitudeDegrees>-4.38250564970076084136962890625</LongitudeDegrees>
            </Position>
            <AltitudeMeters>815</AltitudeMeters>
            <DistanceMeters>NAN</DistanceMeters>
          </Trackpoint>
          <Trackpoint>
            <Time>2020-12-05T13:50:23.000Z</Time>
            <Position>
              <LatitudeDegrees>36.819039881229400634765625</LatitudeDegrees>
              <LongitudeDegrees>-4.3824948370456695556640625</LongitudeDegrees>
            </Position>
            <AltitudeMeters>815</AltitudeMeters>
            <DistanceMeters>NAN</DistanceMeters>
          </Trackpoint>
          <Trackpoint>
            <Time>2020-12-05T13:50:24.000Z</Time>
            <Position>
              <LatitudeDegrees>36.81903376244008541107177734375</LatitudeDegrees>
              <LongitudeDegrees>-4.3824815936386585235595703125</LongitudeDegrees>
            </Position>
            <AltitudeMeters>815</AltitudeMeters>
            <DistanceMeters>NAN</DistanceMeters>
          </Trackpoint>
          <Trackpoint>
            <Time>2020-12-05T13:50:25.000Z</Time>
            <Position>
              <LatitudeDegrees>36.81902621872723102569580078125</LatitudeDegrees>
              <LongitudeDegrees>-4.38246575184166431427001953125</LongitudeDegrees>
            </Position>
            <AltitudeMeters>815</AltitudeMeters>
            <DistanceMeters>NAN</DistanceMeters>
          </Trackpoint>
          <Trackpoint>
            <Time>2020-12-05T13:50:26.000Z</Time>
            <Position>
              <LatitudeDegrees>36.81901775300502777099609375</LatitudeDegrees>
              <LongitudeDegrees>-4.38245083205401897430419921875</LongitudeDegrees>
            </Position>
            <AltitudeMeters>815</AltitudeMeters>
            <DistanceMeters>NAN</DistanceMeters>
          </Trackpoint>
          <Trackpoint>
            <Time>2020-12-05T13:50:27.000Z</Time>
            <Position>
              <LatitudeDegrees>36.81900861673057079315185546875</LatitudeDegrees>
              <LongitudeDegrees>-4.38243591226637363433837890625</LongitudeDegrees>
            </Position>
            <AltitudeMeters>815</AltitudeMeters>
            <DistanceMeters>NAN</DistanceMeters>
          </Trackpoint>
          <Trackpoint>
            <Time>2020-12-05T13:50:28.000Z</Time>
            <Position>
              <LatitudeDegrees>36.8189967982470989227294921875</LatitudeDegrees>
              <LongitudeDegrees>-4.38242283649742603302001953125</LongitudeDegrees>
            </Position>
            <AltitudeMeters>815</AltitudeMeters>
            <DistanceMeters>NAN</DistanceMeters>
          </Trackpoint>
          <Trackpoint>
            <Time>2020-12-05T13:50:29.000Z</Time>
            <Position>
              <LatitudeDegrees>36.8189857341349124908447265625</LatitudeDegrees>
              <LongitudeDegrees>-4.38241730444133281707763671875</LongitudeDegrees>
            </Position>
            <AltitudeMeters>815.20001220703125</AltitudeMeters>
            <DistanceMeters>NAN</DistanceMeters>
          </Trackpoint>
          <Trackpoint>
            <Time>2020-12-05T13:50:30.000Z</Time>
            <Position>
              <LatitudeDegrees>36.81897559203207492828369140625</LatitudeDegrees>
              <LongitudeDegrees>-4.38241646625101566314697265625</LongitudeDegrees>
            </Position>
            <AltitudeMeters>815.4000244140625</AltitudeMeters>
            <DistanceMeters>NAN</DistanceMeters>
          </Trackpoint>
          <Trackpoint>
            <Time>2020-12-05T13:50:31.000Z</Time>
            <Position>
              <LatitudeDegrees>36.8189652822911739349365234375</LatitudeDegrees>
              <LongitudeDegrees>-4.3824145384132862091064453125</LongitudeDegrees>
            </Position>
            <AltitudeMeters>815.20001220703125</AltitudeMeters>
            <DistanceMeters>NAN</DistanceMeters>
          </Trackpoint>
          <Trackpoint>
            <Time>2020-12-05T13:50:32.000Z</Time>
            <Position>
              <LatitudeDegrees>36.8189538829028606414794921875</LatitudeDegrees>
              <LongitudeDegrees>-4.3824145384132862091064453125</LongitudeDegrees>
            </Position>
            <AltitudeMeters>815.20001220703125</AltitudeMeters>
            <DistanceMeters>NAN</DistanceMeters>
          </Trackpoint>
          <Trackpoint>
            <Time>2020-12-05T13:50:33.000Z</Time>
            <Position>
              <LatitudeDegrees>36.81894290260970592498779296875</LatitudeDegrees>
              <LongitudeDegrees>-4.38241546042263507843017578125</LongitudeDegrees>
            </Position>
            <AltitudeMeters>815.20001220703125</AltitudeMeters>
            <DistanceMeters>NAN</DistanceMeters>
          </Trackpoint>
          <Trackpoint>
            <Time>2020-12-05T13:50:34.000Z</Time>
            <Position>
              <LatitudeDegrees>36.81893116794526576995849609375</LatitudeDegrees>
              <LongitudeDegrees>-4.38241772353649139404296875</LongitudeDegrees>
            </Position>
            <AltitudeMeters>815.20001220703125</AltitudeMeters>
            <DistanceMeters>NAN</DistanceMeters>
          </Trackpoint>
          <Trackpoint>
            <Time>2020-12-05T13:50:35.000Z</Time>
            <Position>
              <LatitudeDegrees>36.81892094202339649200439453125</LatitudeDegrees>
              <LongitudeDegrees>-4.38241881318390369415283203125</LongitudeDegrees>
            </Position>
            <AltitudeMeters>815.20001220703125</AltitudeMeters>
            <DistanceMeters>NAN</DistanceMeters>
          </Trackpoint>
          <Trackpoint>
            <Time>2020-12-05T13:50:36.000Z</Time>
            <Position>
              <LatitudeDegrees>36.8189102970063686370849609375</LatitudeDegrees>
              <LongitudeDegrees>-4.382421411573886871337890625</LongitudeDegrees>
            </Position>
            <AltitudeMeters>815</AltitudeMeters>
            <DistanceMeters>NAN</DistanceMeters>
          </Trackpoint>
          <Trackpoint>
            <Time>2020-12-05T13:50:37.000Z</Time>
            <Position>
              <LatitudeDegrees>36.81889881379902362823486328125</LatitudeDegrees>
              <LongitudeDegrees>-4.382416047155857086181640625</LongitudeDegrees>
            </Position>
            <AltitudeMeters>815</AltitudeMeters>
            <DistanceMeters>NAN</DistanceMeters>
          </Trackpoint>
          <Trackpoint>
            <Time>2020-12-05T13:50:38.000Z</Time>
            <Position>
              <LatitudeDegrees>36.81888959370553493499755859375</LatitudeDegrees>
              <LongitudeDegrees>-4.38241629861295223236083984375</LongitudeDegrees>
            </Position>
            <AltitudeMeters>815.20001220703125</AltitudeMeters>
            <DistanceMeters>NAN</DistanceMeters>
          </Trackpoint>
          <Trackpoint>
            <Time>2020-12-05T13:50:39.000Z</Time>
            <Position>
              <LatitudeDegrees>36.81887467391788959503173828125</LatitudeDegrees>
              <LongitudeDegrees>-4.3824175558984279632568359375</LongitudeDegrees>
            </Position>
            <AltitudeMeters>815.4000244140625</AltitudeMeters>
            <DistanceMeters>NAN</DistanceMeters>
          </Trackpoint>
          <Trackpoint>
            <Time>2020-12-05T13:50:40.000Z</Time>
            <Position>
              <LatitudeDegrees>36.818862520158290863037109375</LatitudeDegrees>
              <LongitudeDegrees>-4.3824185617268085479736328125</LongitudeDegrees>
            </Position>
            <AltitudeMeters>815.79998779296875</AltitudeMeters>
            <DistanceMeters>NAN</DistanceMeters>
          </Trackpoint>
          <Trackpoint>
            <Time>2020-12-05T13:50:41.000Z</Time>
            <Position>
              <LatitudeDegrees>36.81884885765612125396728515625</LatitudeDegrees>
              <LongitudeDegrees>-4.38242174685001373291015625</LongitudeDegrees>
            </Position>
            <AltitudeMeters>816.20001220703125</AltitudeMeters>
            <DistanceMeters>NAN</DistanceMeters>
          </Trackpoint>
          <Trackpoint>
            <Time>2020-12-05T13:50:42.000Z</Time>
            <Position>
              <LatitudeDegrees>36.818833686411380767822265625</LatitudeDegrees>
              <LongitudeDegrees>-4.38242719508707523345947265625</LongitudeDegrees>
            </Position>
            <AltitudeMeters>816.4000244140625</AltitudeMeters>
            <DistanceMeters>NAN</DistanceMeters>
          </Trackpoint>
          <Trackpoint>
            <Time>2020-12-05T13:50:43.000Z</Time>
            <Position>
              <LatitudeDegrees>36.81881926953792572021484375</LatitudeDegrees>
              <LongitudeDegrees>-4.38243859447538852691650390625</LongitudeDegrees>
            </Position>
            <AltitudeMeters>816.4000244140625</AltitudeMeters>
            <DistanceMeters>NAN</DistanceMeters>
          </Trackpoint>
          <Trackpoint>
            <Time>2020-12-05T13:50:44.000Z</Time>
            <Position>
              <LatitudeDegrees>36.81880728341639041900634765625</LatitudeDegrees>
              <LongitudeDegrees>-4.38244831748306751251220703125</LongitudeDegrees>
            </Position>
            <AltitudeMeters>816.20001220703125</AltitudeMeters>
            <DistanceMeters>NAN</DistanceMeters>
          </Trackpoint>
          <Trackpoint>
            <Time>2020-12-05T13:50:45.000Z</Time>
            <Position>
              <LatitudeDegrees>36.8187959678471088409423828125</LatitudeDegrees>
              <LongitudeDegrees>-4.38245250843465328216552734375</LongitudeDegrees>
            </Position>
            <AltitudeMeters>816</AltitudeMeters>
            <DistanceMeters>NAN</DistanceMeters>
          </Trackpoint>
          <Trackpoint>
            <Time>2020-12-05T13:50:46.000Z</Time>
            <Position>
              <LatitudeDegrees>36.8187855742871761322021484375</LatitudeDegrees>
              <LongitudeDegrees>-4.382453262805938720703125</LongitudeDegrees>
            </Position>
            <AltitudeMeters>815.5999755859375</AltitudeMeters>
            <DistanceMeters>NAN</DistanceMeters>
          </Trackpoint>
          <Trackpoint>
            <Time>2020-12-05T13:50:47.000Z</Time>
            <Position>
              <LatitudeDegrees>36.81877912022173404693603515625</LatitudeDegrees>
              <LongitudeDegrees>-4.382453598082065582275390625</LongitudeDegrees>
            </Position>
            <AltitudeMeters>815.4000244140625</AltitudeMeters>
            <DistanceMeters>NAN</DistanceMeters>
          </Trackpoint>
          <Trackpoint>
            <Time>2020-12-05T13:50:48.000Z</Time>
            <Position>
              <LatitudeDegrees>36.8187731690704822540283203125</LatitudeDegrees>
              <LongitudeDegrees>-4.38245502300560474395751953125</LongitudeDegrees>
            </Position>
            <AltitudeMeters>815.20001220703125</AltitudeMeters>
            <DistanceMeters>NAN</DistanceMeters>
          </Trackpoint>
          <Trackpoint>
            <Time>2020-12-05T13:50:49.000Z</Time>
            <Position>
              <LatitudeDegrees>36.8187651224434375762939453125</LatitudeDegrees>
              <LongitudeDegrees>-4.382451586425304412841796875</LongitudeDegrees>
            </Position>
            <AltitudeMeters>815.20001220703125</AltitudeMeters>
            <DistanceMeters>NAN</DistanceMeters>
          </Trackpoint>
          <Trackpoint>
            <Time>2020-12-05T13:50:50.000Z</Time>
            <Position>
              <LatitudeDegrees>36.818757914006710052490234375</LatitudeDegrees>
              <LongitudeDegrees>-4.3824463896453380584716796875</LongitudeDegrees>
            </Position>
            <AltitudeMeters>815.4000244140625</AltitudeMeters>
            <DistanceMeters>NAN</DistanceMeters>
          </Trackpoint>
          <Trackpoint>
            <Time>2020-12-05T13:50:51.000Z</Time>
            <Position>
              <LatitudeDegrees>36.8187480233609676361083984375</LatitudeDegrees>
              <LongitudeDegrees>-4.3824393488466739654541015625</LongitudeDegrees>
            </Position>
            <AltitudeMeters>815.5999755859375</AltitudeMeters>
            <DistanceMeters>NAN</DistanceMeters>
          </Trackpoint>
          <Trackpoint>
            <Time>2020-12-05T13:50:52.000Z</Time>
            <Position>
              <LatitudeDegrees>36.81873285211622714996337890625</LatitudeDegrees>
              <LongitudeDegrees>-4.382429458200931549072265625</LongitudeDegrees>
            </Position>
            <AltitudeMeters>815.5999755859375</AltitudeMeters>
            <DistanceMeters>NAN</DistanceMeters>
          </Trackpoint>
          <Trackpoint>
            <Time>2020-12-05T13:50:53.000Z</Time>
            <Position>
              <LatitudeDegrees>36.81871541775763034820556640625</LatitudeDegrees>
              <LongitudeDegrees>-4.3824232555925846099853515625</LongitudeDegrees>
            </Position>
            <AltitudeMeters>815.79998779296875</AltitudeMeters>
            <DistanceMeters>NAN</DistanceMeters>
          </Trackpoint>
          <Trackpoint>
            <Time>2020-12-05T13:50:54.000Z</Time>
            <Position>
              <LatitudeDegrees>36.8186997435986995697021484375</LatitudeDegrees>
              <LongitudeDegrees>-4.38242367468774318695068359375</LongitudeDegrees>
            </Position>
            <AltitudeMeters>816</AltitudeMeters>
            <DistanceMeters>NAN</DistanceMeters>
          </Trackpoint>
          <Trackpoint>
            <Time>2020-12-05T13:50:55.000Z</Time>
            <Position>
              <LatitudeDegrees>36.81868541054427623748779296875</LatitudeDegrees>
              <LongitudeDegrees>-4.38242417760193347930908203125</LongitudeDegrees>
            </Position>
            <AltitudeMeters>816</AltitudeMeters>
            <DistanceMeters>NAN</DistanceMeters>
          </Trackpoint>
          <Trackpoint>
            <Time>2020-12-05T13:50:56.000Z</Time>
            <Position>
              <LatitudeDegrees>36.81867040693759918212890625</LatitudeDegrees>
              <LongitudeDegrees>-4.38242652453482151031494140625</LongitudeDegrees>
            </Position>
            <AltitudeMeters>816.20001220703125</AltitudeMeters>
            <DistanceMeters>NAN</DistanceMeters>
          </Trackpoint>
          <Trackpoint>
            <Time>2020-12-05T13:50:57.000Z</Time>
            <Position>
              <LatitudeDegrees>36.81865624152123928070068359375</LatitudeDegrees>
              <LongitudeDegrees>-4.38242845237255096435546875</LongitudeDegrees>
            </Position>
            <AltitudeMeters>816.20001220703125</AltitudeMeters>
            <DistanceMeters>NAN</DistanceMeters>
          </Trackpoint>
          <Trackpoint>
            <Time>2020-12-05T13:50:58.000Z</Time>
            <Position>
              <LatitudeDegrees>36.8186427466571331024169921875</LatitudeDegrees>
              <LongitudeDegrees>-4.38243054784834384918212890625</LongitudeDegrees>
            </Position>
            <AltitudeMeters>816.20001220703125</AltitudeMeters>
            <DistanceMeters>NAN</DistanceMeters>
          </Trackpoint>
          <Trackpoint>
            <Time>2020-12-05T13:50:59.000Z</Time>
            <Position>
              <LatitudeDegrees>36.81863143108785152435302734375</LatitudeDegrees>
              <LongitudeDegrees>-4.3824306316673755645751953125</LongitudeDegrees>
            </Position>
            <AltitudeMeters>816.20001220703125</AltitudeMeters>
            <DistanceMeters>NAN</DistanceMeters>
          </Trackpoint>
          <Trackpoint>
            <Time>2020-12-05T13:51:00.000Z</Time>
            <Position>
              <LatitudeDegrees>36.81862271390855312347412109375</LatitudeDegrees>
              <LongitudeDegrees>-4.3824259378015995025634765625</LongitudeDegrees>
            </Position>
            <AltitudeMeters>816.4000244140625</AltitudeMeters>
            <DistanceMeters>NAN</DistanceMeters>
          </Trackpoint>
          <Trackpoint>
            <Time>2020-12-05T13:51:01.000Z</Time>
            <Position>
              <LatitudeDegrees>36.818615086376667022705078125</LatitudeDegrees>
              <LongitudeDegrees>-4.38242535106837749481201171875</LongitudeDegrees>
            </Position>
            <AltitudeMeters>816.4000244140625</AltitudeMeters>
            <DistanceMeters>NAN</DistanceMeters>
          </Trackpoint>
          <Trackpoint>
            <Time>2020-12-05T13:51:02.000Z</Time>
            <Position>
              <LatitudeDegrees>36.8186068721115589141845703125</LatitudeDegrees>
              <LongitudeDegrees>-4.38242568634450435638427734375</LongitudeDegrees>
            </Position>
            <AltitudeMeters>816.4000244140625</AltitudeMeters>
            <DistanceMeters>NAN</DistanceMeters>
          </Trackpoint>
          <Trackpoint>
            <Time>2020-12-05T13:51:03.000Z</Time>
            <Position>
              <LatitudeDegrees>36.818599998950958251953125</LatitudeDegrees>
              <LongitudeDegrees>-4.3824256025254726409912109375</LongitudeDegrees>
            </Position>
            <AltitudeMeters>816.4000244140625</AltitudeMeters>
            <DistanceMeters>NAN</DistanceMeters>
          </Trackpoint>
          <Trackpoint>
            <Time>2020-12-05T13:51:04.000Z</Time>
            <Position>
              <LatitudeDegrees>36.81859304197132587432861328125</LatitudeDegrees>
              <LongitudeDegrees>-4.38242602162063121795654296875</LongitudeDegrees>
            </Position>
            <AltitudeMeters>816.4000244140625</AltitudeMeters>
            <DistanceMeters>NAN</DistanceMeters>
          </Trackpoint>
          <Trackpoint>
            <Time>2020-12-05T13:51:05.000Z</Time>
            <Position>
              <LatitudeDegrees>36.81858616881072521209716796875</LatitudeDegrees>
              <LongitudeDegrees>-4.38242669217288494110107421875</LongitudeDegrees>
            </Position>
            <AltitudeMeters>816.4000244140625</AltitudeMeters>
            <DistanceMeters>NAN</DistanceMeters>
          </Trackpoint>
          <Trackpoint>
            <Time>2020-12-05T13:51:06.000Z</Time>
            <Position>
              <LatitudeDegrees>36.81857761926949024200439453125</LatitudeDegrees>
              <LongitudeDegrees>-4.3824249319732189178466796875</LongitudeDegrees>
            </Position>
            <AltitudeMeters>816.4000244140625</AltitudeMeters>
            <DistanceMeters>NAN</DistanceMeters>
          </Trackpoint>
          <Trackpoint>
            <Time>2020-12-05T13:51:07.000Z</Time>
            <Position>
              <LatitudeDegrees>36.81856856681406497955322265625</LatitudeDegrees>
              <LongitudeDegrees>-4.3824215792119503021240234375</LongitudeDegrees>
            </Position>
            <AltitudeMeters>816.20001220703125</AltitudeMeters>
            <DistanceMeters>NAN</DistanceMeters>
          </Trackpoint>
          <Trackpoint>
            <Time>2020-12-05T13:51:08.000Z</Time>
            <Position>
              <LatitudeDegrees>36.818560101091861724853515625</LatitudeDegrees>
              <LongitudeDegrees>-4.38241914846003055572509765625</LongitudeDegrees>
            </Position>
            <AltitudeMeters>816.4000244140625</AltitudeMeters>
            <DistanceMeters>NAN</DistanceMeters>
          </Trackpoint>
          <Trackpoint>
            <Time>2020-12-05T13:51:09.000Z</Time>
            <Position>
              <LatitudeDegrees>36.81855029426515102386474609375</LatitudeDegrees>
              <LongitudeDegrees>-4.38241478987038135528564453125</LongitudeDegrees>
            </Position>
            <AltitudeMeters>816.20001220703125</AltitudeMeters>
            <DistanceMeters>NAN</DistanceMeters>
          </Trackpoint>
          <Trackpoint>
            <Time>2020-12-05T13:51:10.000Z</Time>
            <Position>
              <LatitudeDegrees>36.81853990070521831512451171875</LatitudeDegrees>
              <LongitudeDegrees>-4.3824121914803981781005859375</LongitudeDegrees>
            </Position>
            <AltitudeMeters>816</AltitudeMeters>
            <DistanceMeters>NAN</DistanceMeters>
          </Trackpoint>
          <Trackpoint>
            <Time>2020-12-05T13:51:11.000Z</Time>
            <Position>
              <LatitudeDegrees>36.818529926240444183349609375</LatitudeDegrees>
              <LongitudeDegrees>-4.38240942545235157012939453125</LongitudeDegrees>
            </Position>
            <AltitudeMeters>816</AltitudeMeters>
            <DistanceMeters>NAN</DistanceMeters>
          </Trackpoint>
          <Trackpoint>
            <Time>2020-12-05T13:51:12.000Z</Time>
            <Position>
              <LatitudeDegrees>36.81852078996598720550537109375</LatitudeDegrees>
              <LongitudeDegrees>-4.382408671081066131591796875</LongitudeDegrees>
            </Position>
            <AltitudeMeters>815.79998779296875</AltitudeMeters>
            <DistanceMeters>NAN</DistanceMeters>
          </Trackpoint>
          <Trackpoint>
            <Time>2020-12-05T13:51:13.000Z</Time>
            <Position>
              <LatitudeDegrees>36.8185109831392765045166015625</LatitudeDegrees>
              <LongitudeDegrees>-4.38240774907171726226806640625</LongitudeDegrees>
            </Position>
            <AltitudeMeters>816</AltitudeMeters>
            <DistanceMeters>NAN</DistanceMeters>
          </Trackpoint>
          <Trackpoint>
            <Time>2020-12-05T13:51:14.000Z</Time>
            <Position>
              <LatitudeDegrees>36.81849983520805835723876953125</LatitudeDegrees>
              <LongitudeDegrees>-4.382407665252685546875</LongitudeDegrees>
            </Position>
            <AltitudeMeters>816</AltitudeMeters>
            <DistanceMeters>NAN</DistanceMeters>
          </Trackpoint>
          <Trackpoint>
            <Time>2020-12-05T13:51:15.000Z</Time>
            <Position>
              <LatitudeDegrees>36.81848935782909393310546875</LatitudeDegrees>
              <LongitudeDegrees>-4.3824048154056072235107421875</LongitudeDegrees>
            </Position>
            <AltitudeMeters>815.79998779296875</AltitudeMeters>
            <DistanceMeters>NAN</DistanceMeters>
          </Trackpoint>
          <Trackpoint>
            <Time>2020-12-05T13:51:16.000Z</Time>
            <Position>
              <LatitudeDegrees>36.8184792995452880859375</LatitudeDegrees>
              <LongitudeDegrees>-4.382404983043670654296875</LongitudeDegrees>
            </Position>
            <AltitudeMeters>815.79998779296875</AltitudeMeters>
            <DistanceMeters>NAN</DistanceMeters>
          </Trackpoint>
          <Trackpoint>
            <Time>2020-12-05T13:51:17.000Z</Time>
            <Position>
              <LatitudeDegrees>36.81846865452826023101806640625</LatitudeDegrees>
              <LongitudeDegrees>-4.38240389339625835418701171875</LongitudeDegrees>
            </Position>
            <AltitudeMeters>816</AltitudeMeters>
            <DistanceMeters>NAN</DistanceMeters>
          </Trackpoint>
          <Trackpoint>
            <Time>2020-12-05T13:51:18.000Z</Time>
            <Position>
              <LatitudeDegrees>36.81845717132091522216796875</LatitudeDegrees>
              <LongitudeDegrees>-4.382399618625640869140625</LongitudeDegrees>
            </Position>
            <AltitudeMeters>816.20001220703125</AltitudeMeters>
            <DistanceMeters>NAN</DistanceMeters>
          </Trackpoint>
          <Trackpoint>
            <Time>2020-12-05T13:51:19.000Z</Time>
            <Position>
              <LatitudeDegrees>36.8184462748467922210693359375</LatitudeDegrees>
              <LongitudeDegrees>-4.3823929131031036376953125</LongitudeDegrees>
            </Position>
            <AltitudeMeters>816.20001220703125</AltitudeMeters>
            <DistanceMeters>NAN</DistanceMeters>
          </Trackpoint>
          <Trackpoint>
            <Time>2020-12-05T13:51:20.000Z</Time>
            <Position>
              <LatitudeDegrees>36.81843345053493976593017578125</LatitudeDegrees>
              <LongitudeDegrees>-4.38238780014216899871826171875</LongitudeDegrees>
            </Position>
            <AltitudeMeters>816</AltitudeMeters>
            <DistanceMeters>NAN</DistanceMeters>
          </Trackpoint>
          <Trackpoint>
            <Time>2020-12-05T13:51:21.000Z</Time>
            <Position>
              <LatitudeDegrees>36.8184194527566432952880859375</LatitudeDegrees>
              <LongitudeDegrees>-4.3823846988379955291748046875</LongitudeDegrees>
            </Position>
            <AltitudeMeters>816</AltitudeMeters>
            <DistanceMeters>NAN</DistanceMeters>
          </Trackpoint>
          <Trackpoint>
            <Time>2020-12-05T13:51:22.000Z</Time>
            <Position>
              <LatitudeDegrees>36.818406879901885986328125</LatitudeDegrees>
              <LongitudeDegrees>-4.3823843635618686676025390625</LongitudeDegrees>
            </Position>
            <AltitudeMeters>816</AltitudeMeters>
            <DistanceMeters>NAN</DistanceMeters>
          </Trackpoint>
          <Trackpoint>
            <Time>2020-12-05T13:51:23.000Z</Time>
            <Position>
              <LatitudeDegrees>36.81839623488485813140869140625</LatitudeDegrees>
              <LongitudeDegrees>-4.38238193280994892120361328125</LongitudeDegrees>
            </Position>
            <AltitudeMeters>816</AltitudeMeters>
            <DistanceMeters>NAN</DistanceMeters>
          </Trackpoint>
          <Trackpoint>
            <Time>2020-12-05T13:51:24.000Z</Time>
            <Position>
              <LatitudeDegrees>36.818385757505893707275390625</LatitudeDegrees>
              <LongitudeDegrees>-4.38237883150577545166015625</LongitudeDegrees>
            </Position>
            <AltitudeMeters>816</AltitudeMeters>
            <DistanceMeters>NAN</DistanceMeters>
          </Trackpoint>
          <Trackpoint>
            <Time>2020-12-05T13:51:25.000Z</Time>
            <Position>
              <LatitudeDegrees>36.8183751963078975677490234375</LatitudeDegrees>
              <LongitudeDegrees>-4.38237489201128482818603515625</LongitudeDegrees>
            </Position>
            <AltitudeMeters>815.79998779296875</AltitudeMeters>
            <DistanceMeters>NAN</DistanceMeters>
          </Trackpoint>
          <Trackpoint>
            <Time>2020-12-05T13:51:26.000Z</Time>
            <Position>
              <LatitudeDegrees>36.8183653056621551513671875</LatitudeDegrees>
              <LongitudeDegrees>-4.382368437945842742919921875</LongitudeDegrees>
            </Position>
            <AltitudeMeters>815.79998779296875</AltitudeMeters>
            <DistanceMeters>NAN</DistanceMeters>
          </Trackpoint>
          <Trackpoint>
            <Time>2020-12-05T13:51:27.000Z</Time>
            <Position>
              <LatitudeDegrees>36.818358935415744781494140625</LatitudeDegrees>
              <LongitudeDegrees>-4.382362402975559234619140625</LongitudeDegrees>
            </Position>
            <AltitudeMeters>816</AltitudeMeters>
            <DistanceMeters>NAN</DistanceMeters>
          </Trackpoint>
          <Trackpoint>
            <Time>2020-12-05T13:51:28.000Z</Time>
            <Position>
              <LatitudeDegrees>36.8183550797402858734130859375</LatitudeDegrees>
              <LongitudeDegrees>-4.38235678710043430328369140625</LongitudeDegrees>
            </Position>
            <AltitudeMeters>816</AltitudeMeters>
            <DistanceMeters>NAN</DistanceMeters>
          </Trackpoint>
          <Trackpoint>
            <Time>2020-12-05T13:51:29.000Z</Time>
            <Position>
              <LatitudeDegrees>36.8183503858745098114013671875</LatitudeDegrees>
              <LongitudeDegrees>-4.38235024921596050262451171875</LongitudeDegrees>
            </Position>
            <AltitudeMeters>816.20001220703125</AltitudeMeters>
            <DistanceMeters>NAN</DistanceMeters>
          </Trackpoint>
          <Trackpoint>
            <Time>2020-12-05T13:51:30.000Z</Time>
            <Position>
              <LatitudeDegrees>36.818346194922924041748046875</LatitudeDegrees>
              <LongitudeDegrees>-4.38234488479793071746826171875</LongitudeDegrees>
            </Position>
            <AltitudeMeters>816.4000244140625</AltitudeMeters>
            <DistanceMeters>NAN</DistanceMeters>
          </Trackpoint>
          <Trackpoint>
            <Time>2020-12-05T13:51:31.000Z</Time>
            <Position>
              <LatitudeDegrees>36.81833990849554538726806640625</LatitudeDegrees>
              <LongitudeDegrees>-4.3823384307324886322021484375</LongitudeDegrees>
            </Position>
            <AltitudeMeters>816.4000244140625</AltitudeMeters>
            <DistanceMeters>NAN</DistanceMeters>
          </Trackpoint>
          <Trackpoint>
            <Time>2020-12-05T13:51:32.000Z</Time>
            <Position>
              <LatitudeDegrees>36.81833420880138874053955078125</LatitudeDegrees>
              <LongitudeDegrees>-4.38233365304768085479736328125</LongitudeDegrees>
            </Position>
            <AltitudeMeters>816.4000244140625</AltitudeMeters>
            <DistanceMeters>NAN</DistanceMeters>
          </Trackpoint>
          <Trackpoint>
            <Time>2020-12-05T13:51:33.000Z</Time>
            <Position>
              <LatitudeDegrees>36.8183289282023906707763671875</LatitudeDegrees>
              <LongitudeDegrees>-4.3823303841054439544677734375</LongitudeDegrees>
            </Position>
            <AltitudeMeters>816.4000244140625</AltitudeMeters>
            <DistanceMeters>NAN</DistanceMeters>
          </Trackpoint>
          <Trackpoint>
            <Time>2020-12-05T13:51:34.000Z</Time>
            <Position>
              <LatitudeDegrees>36.81832230649888515472412109375</LatitudeDegrees>
              <LongitudeDegrees>-4.3823285400867462158203125</LongitudeDegrees>
            </Position>
            <AltitudeMeters>816.4000244140625</AltitudeMeters>
            <DistanceMeters>NAN</DistanceMeters>
          </Trackpoint>
          <Trackpoint>
            <Time>2020-12-05T13:51:35.000Z</Time>
            <Position>
              <LatitudeDegrees>36.818315349519252777099609375</LatitudeDegrees>
              <LongitudeDegrees>-4.38232091255486011505126953125</LongitudeDegrees>
            </Position>
            <AltitudeMeters>816.20001220703125</AltitudeMeters>
            <DistanceMeters>NAN</DistanceMeters>
          </Trackpoint>
          <Trackpoint>
            <Time>2020-12-05T13:51:36.000Z</Time>
            <Position>
              <LatitudeDegrees>36.8183074705302715301513671875</LatitudeDegrees>
              <LongitudeDegrees>-4.38231118954718112945556640625</LongitudeDegrees>
            </Position>
            <AltitudeMeters>815.79998779296875</AltitudeMeters>
            <DistanceMeters>NAN</DistanceMeters>
          </Trackpoint>
          <Trackpoint>
            <Time>2020-12-05T13:51:37.000Z</Time>
            <Position>
              <LatitudeDegrees>36.81830160319805145263671875</LatitudeDegrees>
              <LongitudeDegrees>-4.3823062442243099212646484375</LongitudeDegrees>
            </Position>
            <AltitudeMeters>815.5999755859375</AltitudeMeters>
            <DistanceMeters>NAN</DistanceMeters>
          </Trackpoint>
          <Trackpoint>
            <Time>2020-12-05T13:51:38.000Z</Time>
            <Position>
              <LatitudeDegrees>36.818295903503894805908203125</LatitudeDegrees>
              <LongitudeDegrees>-4.38230037689208984375</LongitudeDegrees>
            </Position>
            <AltitudeMeters>815.4000244140625</AltitudeMeters>
            <DistanceMeters>NAN</DistanceMeters>
          </Trackpoint>
          <Trackpoint>
            <Time>2020-12-05T13:51:39.000Z</Time>
            <Position>
              <LatitudeDegrees>36.8182907067239284515380859375</LatitudeDegrees>
              <LongitudeDegrees>-4.382295347750186920166015625</LongitudeDegrees>
            </Position>
            <AltitudeMeters>815.4000244140625</AltitudeMeters>
            <DistanceMeters>NAN</DistanceMeters>
          </Trackpoint>
          <Trackpoint>
            <Time>2020-12-05T13:51:40.000Z</Time>
            <Position>
              <LatitudeDegrees>36.81828693486750125885009765625</LatitudeDegrees>
              <LongitudeDegrees>-4.38228922896087169647216796875</LongitudeDegrees>
            </Position>
            <AltitudeMeters>815.4000244140625</AltitudeMeters>
            <DistanceMeters>NAN</DistanceMeters>
          </Trackpoint>
          <Trackpoint>
            <Time>2020-12-05T13:51:41.000Z</Time>
            <Position>
              <LatitudeDegrees>36.81828123517334461212158203125</LatitudeDegrees>
              <LongitudeDegrees>-4.382281936705112457275390625</LongitudeDegrees>
            </Position>
            <AltitudeMeters>815.4000244140625</AltitudeMeters>
            <DistanceMeters>NAN</DistanceMeters>
          </Trackpoint>
          <Trackpoint>
            <Time>2020-12-05T13:51:42.000Z</Time>
            <Position>
              <LatitudeDegrees>36.81827478110790252685546875</LatitudeDegrees>
              <LongitudeDegrees>-4.3822720460593700408935546875</LongitudeDegrees>
            </Position>
            <AltitudeMeters>815.4000244140625</AltitudeMeters>
            <DistanceMeters>NAN</DistanceMeters>
          </Trackpoint>
          <Trackpoint>
            <Time>2020-12-05T13:51:43.000Z</Time>
            <Position>
              <LatitudeDegrees>36.818268410861492156982421875</LatitudeDegrees>
              <LongitudeDegrees>-4.38226106576621532440185546875</LongitudeDegrees>
            </Position>
            <AltitudeMeters>815.5999755859375</AltitudeMeters>
            <DistanceMeters>NAN</DistanceMeters>
          </Trackpoint>
          <Trackpoint>
            <Time>2020-12-05T13:51:44.000Z</Time>
            <Position>
              <LatitudeDegrees>36.81826279498636722564697265625</LatitudeDegrees>
              <LongitudeDegrees>-4.38224296085536479949951171875</LongitudeDegrees>
            </Position>
            <AltitudeMeters>815.79998779296875</AltitudeMeters>
            <DistanceMeters>NAN</DistanceMeters>
          </Trackpoint>
          <Trackpoint>
            <Time>2020-12-05T13:51:45.000Z</Time>
            <Position>
              <LatitudeDegrees>36.8182565085589885711669921875</LatitudeDegrees>
              <LongitudeDegrees>-4.3822254426777362823486328125</LongitudeDegrees>
            </Position>
            <AltitudeMeters>815.79998779296875</AltitudeMeters>
            <DistanceMeters>NAN</DistanceMeters>
          </Trackpoint>
          <Trackpoint>
            <Time>2020-12-05T13:51:46.000Z</Time>
            <Position>
              <LatitudeDegrees>36.81825038976967334747314453125</LatitudeDegrees>
              <LongitudeDegrees>-4.3822096846997737884521484375</LongitudeDegrees>
            </Position>
            <AltitudeMeters>815.79998779296875</AltitudeMeters>
            <DistanceMeters>NAN</DistanceMeters>
          </Trackpoint>
          <Trackpoint>
            <Time>2020-12-05T13:51:47.000Z</Time>
            <Position>
              <LatitudeDegrees>36.8182451091706752777099609375</LatitudeDegrees>
              <LongitudeDegrees>-4.382196776568889617919921875</LongitudeDegrees>
            </Position>
            <AltitudeMeters>816</AltitudeMeters>
            <DistanceMeters>NAN</DistanceMeters>
          </Trackpoint>
          <Trackpoint>
            <Time>2020-12-05T13:51:48.000Z</Time>
            <Position>
              <LatitudeDegrees>36.818240247666835784912109375</LatitudeDegrees>
              <LongitudeDegrees>-4.382188729941844940185546875</LongitudeDegrees>
            </Position>
            <AltitudeMeters>816.20001220703125</AltitudeMeters>
            <DistanceMeters>NAN</DistanceMeters>
          </Trackpoint>
          <Trackpoint>
            <Time>2020-12-05T13:51:49.000Z</Time>
            <Position>
              <LatitudeDegrees>36.81823278777301311492919921875</LatitudeDegrees>
              <LongitudeDegrees>-4.38218076713383197784423828125</LongitudeDegrees>
            </Position>
            <AltitudeMeters>816.20001220703125</AltitudeMeters>
            <DistanceMeters>NAN</DistanceMeters>
          </Trackpoint>
          <Trackpoint>
            <Time>2020-12-05T13:51:50.000Z</Time>
            <Position>
              <LatitudeDegrees>36.81822390295565128326416015625</LatitudeDegrees>
              <LongitudeDegrees>-4.38217221759259700775146484375</LongitudeDegrees>
            </Position>
            <AltitudeMeters>816.4000244140625</AltitudeMeters>
            <DistanceMeters>NAN</DistanceMeters>
          </Trackpoint>
          <Trackpoint>
            <Time>2020-12-05T13:51:51.000Z</Time>
            <Position>
              <LatitudeDegrees>36.81821434758603572845458984375</LatitudeDegrees>
              <LongitudeDegrees>-4.38216425478458404541015625</LongitudeDegrees>
            </Position>
            <AltitudeMeters>816.4000244140625</AltitudeMeters>
            <DistanceMeters>NAN</DistanceMeters>
          </Trackpoint>
          <Trackpoint>
            <Time>2020-12-05T13:51:52.000Z</Time>
            <Position>
              <LatitudeDegrees>36.81820906698703765869140625</LatitudeDegrees>
              <LongitudeDegrees>-4.38215159811079502105712890625</LongitudeDegrees>
            </Position>
            <AltitudeMeters>816.5999755859375</AltitudeMeters>
            <DistanceMeters>NAN</DistanceMeters>
          </Trackpoint>
          <Trackpoint>
            <Time>2020-12-05T13:51:53.000Z</Time>
            <Position>
              <LatitudeDegrees>36.81820504367351531982421875</LatitudeDegrees>
              <LongitudeDegrees>-4.38213743269443511962890625</LongitudeDegrees>
            </Position>
            <AltitudeMeters>816.5999755859375</AltitudeMeters>
            <DistanceMeters>NAN</DistanceMeters>
          </Trackpoint>
          <Trackpoint>
            <Time>2020-12-05T13:51:54.000Z</Time>
            <Position>
              <LatitudeDegrees>36.8182003498077392578125</LatitudeDegrees>
              <LongitudeDegrees>-4.3821268714964389801025390625</LongitudeDegrees>
            </Position>
            <AltitudeMeters>816.5999755859375</AltitudeMeters>
            <DistanceMeters>NAN</DistanceMeters>
          </Trackpoint>
          <Trackpoint>
            <Time>2020-12-05T13:51:55.000Z</Time>
            <Position>
              <LatitudeDegrees>36.81819791905581951141357421875</LatitudeDegrees>
              <LongitudeDegrees>-4.382123015820980072021484375</LongitudeDegrees>
            </Position>
            <AltitudeMeters>816.79998779296875</AltitudeMeters>
            <DistanceMeters>NAN</DistanceMeters>
          </Trackpoint>
          <Trackpoint>
            <Time>2020-12-05T13:51:56.000Z</Time>
            <Position>
              <LatitudeDegrees>36.81819557212293148040771484375</LatitudeDegrees>
              <LongitudeDegrees>-4.382123015820980072021484375</LongitudeDegrees>
            </Position>
            <AltitudeMeters>816.79998779296875</AltitudeMeters>
            <DistanceMeters>NAN</DistanceMeters>
          </Trackpoint>
          <Trackpoint>
            <Time>2020-12-05T13:51:57.000Z</Time>
            <Position>
              <LatitudeDegrees>36.818193309009075164794921875</LatitudeDegrees>
              <LongitudeDegrees>-4.3821181543171405792236328125</LongitudeDegrees>
            </Position>
            <AltitudeMeters>817</AltitudeMeters>
            <DistanceMeters>NAN</DistanceMeters>
          </Trackpoint>
          <Trackpoint>
            <Time>2020-12-05T13:51:58.000Z</Time>
            <Position>
              <LatitudeDegrees>36.81819054298102855682373046875</LatitudeDegrees>
              <LongitudeDegrees>-4.38211865723133087158203125</LongitudeDegrees>
            </Position>
            <AltitudeMeters>817</AltitudeMeters>
            <DistanceMeters>NAN</DistanceMeters>
          </Trackpoint>
          <Trackpoint>
            <Time>2020-12-05T13:51:59.000Z</Time>
            <Position>
              <LatitudeDegrees>36.818186938762664794921875</LatitudeDegrees>
              <LongitudeDegrees>-4.382118321955204010009765625</LongitudeDegrees>
            </Position>
            <AltitudeMeters>817</AltitudeMeters>
            <DistanceMeters>NAN</DistanceMeters>
          </Trackpoint>
          <Trackpoint>
            <Time>2020-12-05T13:52:00.000Z</Time>
            <Position>
              <LatitudeDegrees>36.81818517856299877166748046875</LatitudeDegrees>
              <LongitudeDegrees>-4.38211731612682342529296875</LongitudeDegrees>
            </Position>
            <AltitudeMeters>817</AltitudeMeters>
            <DistanceMeters>NAN</DistanceMeters>
          </Trackpoint>
          <Trackpoint>
            <Time>2020-12-05T13:52:01.000Z</Time>
            <Position>
              <LatitudeDegrees>36.8181824125349521636962890625</LatitudeDegrees>
              <LongitudeDegrees>-4.382114969193935394287109375</LongitudeDegrees>
            </Position>
            <AltitudeMeters>817</AltitudeMeters>
            <DistanceMeters>NAN</DistanceMeters>
          </Trackpoint>
          <Trackpoint>
            <Time>2020-12-05T13:52:02.000Z</Time>
            <Position>
              <LatitudeDegrees>36.81818081997334957122802734375</LatitudeDegrees>
              <LongitudeDegrees>-4.38211287371814250946044921875</LongitudeDegrees>
            </Position>
            <AltitudeMeters>816.79998779296875</AltitudeMeters>
            <DistanceMeters>NAN</DistanceMeters>
          </Trackpoint>
          <Trackpoint>
            <Time>2020-12-05T13:52:03.000Z</Time>
            <Position>
              <LatitudeDegrees>36.81817956268787384033203125</LatitudeDegrees>
              <LongitudeDegrees>-4.382107593119144439697265625</LongitudeDegrees>
            </Position>
            <AltitudeMeters>816.79998779296875</AltitudeMeters>
            <DistanceMeters>NAN</DistanceMeters>
          </Trackpoint>
          <Trackpoint>
            <Time>2020-12-05T13:52:04.000Z</Time>
            <Position>
              <LatitudeDegrees>36.8181800656020641326904296875</LatitudeDegrees>
              <LongitudeDegrees>-4.38210130669176578521728515625</LongitudeDegrees>
            </Position>
            <AltitudeMeters>816.79998779296875</AltitudeMeters>
            <DistanceMeters>NAN</DistanceMeters>
          </Trackpoint>
          <Trackpoint>
            <Time>2020-12-05T13:52:05.000Z</Time>
            <Position>
              <LatitudeDegrees>36.818181239068508148193359375</LatitudeDegrees>
              <LongitudeDegrees>-4.38209678046405315399169921875</LongitudeDegrees>
            </Position>
            <AltitudeMeters>816.5999755859375</AltitudeMeters>
            <DistanceMeters>NAN</DistanceMeters>
          </Trackpoint>
          <Trackpoint>
            <Time>2020-12-05T13:52:06.000Z</Time>
            <Position>
              <LatitudeDegrees>36.81818048469722270965576171875</LatitudeDegrees>
              <LongitudeDegrees>-4.38209460116922855377197265625</LongitudeDegrees>
            </Position>
            <AltitudeMeters>816.5999755859375</AltitudeMeters>
            <DistanceMeters>NAN</DistanceMeters>
          </Trackpoint>
          <Trackpoint>
            <Time>2020-12-05T13:52:07.000Z</Time>
            <Position>
              <LatitudeDegrees>36.8181788921356201171875</LatitudeDegrees>
              <LongitudeDegrees>-4.38209208659827709197998046875</LongitudeDegrees>
            </Position>
            <AltitudeMeters>816.4000244140625</AltitudeMeters>
            <DistanceMeters>NAN</DistanceMeters>
          </Trackpoint>
          <Trackpoint>
            <Time>2020-12-05T13:52:08.000Z</Time>
            <Position>
              <LatitudeDegrees>36.818177886307239532470703125</LatitudeDegrees>
              <LongitudeDegrees>-4.38208722509443759918212890625</LongitudeDegrees>
            </Position>
            <AltitudeMeters>816.5999755859375</AltitudeMeters>
            <DistanceMeters>NAN</DistanceMeters>
          </Trackpoint>
          <Trackpoint>
            <Time>2020-12-05T13:52:09.000Z</Time>
            <Position>
              <LatitudeDegrees>36.8181797303259372711181640625</LatitudeDegrees>
              <LongitudeDegrees>-4.3820799328386783599853515625</LongitudeDegrees>
            </Position>
            <AltitudeMeters>816.5999755859375</AltitudeMeters>
            <DistanceMeters>NAN</DistanceMeters>
          </Trackpoint>
          <Trackpoint>
            <Time>2020-12-05T13:52:10.000Z</Time>
            <Position>
              <LatitudeDegrees>36.818181239068508148193359375</LatitudeDegrees>
              <LongitudeDegrees>-4.382076747715473175048828125</LongitudeDegrees>
            </Position>
            <AltitudeMeters>816.5999755859375</AltitudeMeters>
            <DistanceMeters>NAN</DistanceMeters>
          </Trackpoint>
          <Trackpoint>
            <Time>2020-12-05T13:52:11.000Z</Time>
            <Position>
              <LatitudeDegrees>36.818181574344635009765625</LatitudeDegrees>
              <LongitudeDegrees>-4.38208169303834438323974609375</LongitudeDegrees>
            </Position>
            <AltitudeMeters>816.5999755859375</AltitudeMeters>
            <DistanceMeters>NAN</DistanceMeters>
          </Trackpoint>
          <Trackpoint>
            <Time>2020-12-05T13:52:12.000Z</Time>
            <Position>
              <LatitudeDegrees>36.81818534620106220245361328125</LatitudeDegrees>
              <LongitudeDegrees>-4.3820819444954395294189453125</LongitudeDegrees>
            </Position>
            <AltitudeMeters>816.5999755859375</AltitudeMeters>
            <DistanceMeters>NAN</DistanceMeters>
          </Trackpoint>
          <Trackpoint>
            <Time>2020-12-05T13:52:13.000Z</Time>
            <Position>
              <LatitudeDegrees>36.8181884475052356719970703125</LatitudeDegrees>
              <LongitudeDegrees>-4.38207213766872882843017578125</LongitudeDegrees>
            </Position>
            <AltitudeMeters>816.5999755859375</AltitudeMeters>
            <DistanceMeters>NAN</DistanceMeters>
          </Trackpoint>
          <Trackpoint>
            <Time>2020-12-05T13:52:14.000Z</Time>
            <Position>
              <LatitudeDegrees>36.81818735785782337188720703125</LatitudeDegrees>
              <LongitudeDegrees>-4.38206367194652557373046875</LongitudeDegrees>
            </Position>
            <AltitudeMeters>816.5999755859375</AltitudeMeters>
            <DistanceMeters>NAN</DistanceMeters>
          </Trackpoint>
          <Trackpoint>
            <Time>2020-12-05T13:52:15.000Z</Time>
            <Position>
              <LatitudeDegrees>36.81818668730556964874267578125</LatitudeDegrees>
              <LongitudeDegrees>-4.3820536136627197265625</LongitudeDegrees>
            </Position>
            <AltitudeMeters>816.4000244140625</AltitudeMeters>
            <DistanceMeters>NAN</DistanceMeters>
          </Trackpoint>
          <Trackpoint>
            <Time>2020-12-05T13:52:16.000Z</Time>
            <Position>
              <LatitudeDegrees>36.818186938762664794921875</LatitudeDegrees>
              <LongitudeDegrees>-4.38204363919794559478759765625</LongitudeDegrees>
            </Position>
            <AltitudeMeters>816</AltitudeMeters>
            <DistanceMeters>NAN</DistanceMeters>
          </Trackpoint>
          <Trackpoint>
            <Time>2020-12-05T13:52:17.000Z</Time>
            <Position>
              <LatitudeDegrees>36.81819020770490169525146484375</LatitudeDegrees>
              <LongitudeDegrees>-4.3820360116660594940185546875</LongitudeDegrees>
            </Position>
            <AltitudeMeters>815.5999755859375</AltitudeMeters>
            <DistanceMeters>NAN</DistanceMeters>
          </Trackpoint>
          <Trackpoint>
            <Time>2020-12-05T13:52:18.000Z</Time>
            <Position>
              <LatitudeDegrees>36.818194650113582611083984375</LatitudeDegrees>
              <LongitudeDegrees>-4.3820281326770782470703125</LongitudeDegrees>
            </Position>
            <AltitudeMeters>815.4000244140625</AltitudeMeters>
            <DistanceMeters>NAN</DistanceMeters>
          </Trackpoint>
          <Trackpoint>
            <Time>2020-12-05T13:52:19.000Z</Time>
            <Position>
              <LatitudeDegrees>36.81819674558937549591064453125</LatitudeDegrees>
              <LongitudeDegrees>-4.38202084042131900787353515625</LongitudeDegrees>
            </Position>
            <AltitudeMeters>815.20001220703125</AltitudeMeters>
            <DistanceMeters>NAN</DistanceMeters>
          </Trackpoint>
          <Trackpoint>
            <Time>2020-12-05T13:52:20.000Z</Time>
            <Position>
              <LatitudeDegrees>36.81820110417902469635009765625</LatitudeDegrees>
              <LongitudeDegrees>-4.38201329670846462249755859375</LongitudeDegrees>
            </Position>
            <AltitudeMeters>815.20001220703125</AltitudeMeters>
            <DistanceMeters>NAN</DistanceMeters>
          </Trackpoint>
          <Trackpoint>
            <Time>2020-12-05T13:52:21.000Z</Time>
            <Position>
              <LatitudeDegrees>36.81820730678737163543701171875</LatitudeDegrees>
              <LongitudeDegrees>-4.38200390897691249847412109375</LongitudeDegrees>
            </Position>
            <AltitudeMeters>815</AltitudeMeters>
            <DistanceMeters>NAN</DistanceMeters>
          </Trackpoint>
          <Trackpoint>
            <Time>2020-12-05T13:52:22.000Z</Time>
            <Position>
              <LatitudeDegrees>36.81821065954864025115966796875</LatitudeDegrees>
              <LongitudeDegrees>-4.38199602998793125152587890625</LongitudeDegrees>
            </Position>
            <AltitudeMeters>815</AltitudeMeters>
            <DistanceMeters>NAN</DistanceMeters>
          </Trackpoint>
          <Trackpoint>
            <Time>2020-12-05T13:52:23.000Z</Time>
            <Position>
              <LatitudeDegrees>36.8182135932147502899169921875</LatitudeDegrees>
              <LongitudeDegrees>-4.38198647461831569671630859375</LongitudeDegrees>
            </Position>
            <AltitudeMeters>815</AltitudeMeters>
            <DistanceMeters>NAN</DistanceMeters>
          </Trackpoint>
          <Trackpoint>
            <Time>2020-12-05T13:52:24.000Z</Time>
            <Position>
              <LatitudeDegrees>36.81821535341441631317138671875</LatitudeDegrees>
              <LongitudeDegrees>-4.38197557814419269561767578125</LongitudeDegrees>
            </Position>
            <AltitudeMeters>815</AltitudeMeters>
            <DistanceMeters>NAN</DistanceMeters>
          </Trackpoint>
          <Trackpoint>
            <Time>2020-12-05T13:52:25.000Z</Time>
            <Position>
              <LatitudeDegrees>36.8182149343192577362060546875</LatitudeDegrees>
              <LongitudeDegrees>-4.381964094936847686767578125</LongitudeDegrees>
            </Position>
            <AltitudeMeters>815.20001220703125</AltitudeMeters>
            <DistanceMeters>NAN</DistanceMeters>
          </Trackpoint>
          <Trackpoint>
            <Time>2020-12-05T13:52:26.000Z</Time>
            <Position>
              <LatitudeDegrees>36.818215437233448028564453125</LatitudeDegrees>
              <LongitudeDegrees>-4.381951354444026947021484375</LongitudeDegrees>
            </Position>
            <AltitudeMeters>815.20001220703125</AltitudeMeters>
            <DistanceMeters>NAN</DistanceMeters>
          </Trackpoint>
          <Trackpoint>
            <Time>2020-12-05T13:52:27.000Z</Time>
            <Position>
              <LatitudeDegrees>36.81821644306182861328125</LatitudeDegrees>
              <LongitudeDegrees>-4.381938613951206207275390625</LongitudeDegrees>
            </Position>
            <AltitudeMeters>815.20001220703125</AltitudeMeters>
            <DistanceMeters>NAN</DistanceMeters>
          </Trackpoint>
          <Trackpoint>
            <Time>2020-12-05T13:52:28.000Z</Time>
            <Position>
              <LatitudeDegrees>36.81821870617568492889404296875</LatitudeDegrees>
              <LongitudeDegrees>-4.38192511908710002899169921875</LongitudeDegrees>
            </Position>
            <AltitudeMeters>815.20001220703125</AltitudeMeters>
            <DistanceMeters>NAN</DistanceMeters>
          </Trackpoint>
          <Trackpoint>
            <Time>2020-12-05T13:52:29.000Z</Time>
            <Position>
              <LatitudeDegrees>36.81821954436600208282470703125</LatitudeDegrees>
              <LongitudeDegrees>-4.38191254623234272003173828125</LongitudeDegrees>
            </Position>
            <AltitudeMeters>815.4000244140625</AltitudeMeters>
            <DistanceMeters>NAN</DistanceMeters>
          </Trackpoint>
          <Trackpoint>
            <Time>2020-12-05T13:52:30.000Z</Time>
            <Position>
              <LatitudeDegrees>36.81821971200406551361083984375</LatitudeDegrees>
              <LongitudeDegrees>-4.381900392472743988037109375</LongitudeDegrees>
            </Position>
            <AltitudeMeters>815.4000244140625</AltitudeMeters>
            <DistanceMeters>NAN</DistanceMeters>
          </Trackpoint>
          <Trackpoint>
            <Time>2020-12-05T13:52:31.000Z</Time>
            <Position>
              <LatitudeDegrees>36.81822247803211212158203125</LatitudeDegrees>
              <LongitudeDegrees>-4.38188974745571613311767578125</LongitudeDegrees>
            </Position>
            <AltitudeMeters>815.5999755859375</AltitudeMeters>
            <DistanceMeters>NAN</DistanceMeters>
          </Trackpoint>
          <Trackpoint>
            <Time>2020-12-05T13:52:32.000Z</Time>
            <Position>
              <LatitudeDegrees>36.818224824965000152587890625</LatitudeDegrees>
              <LongitudeDegrees>-4.381878264248371124267578125</LongitudeDegrees>
            </Position>
            <AltitudeMeters>815.79998779296875</AltitudeMeters>
            <DistanceMeters>NAN</DistanceMeters>
          </Trackpoint>
          <Trackpoint>
            <Time>2020-12-05T13:52:33.000Z</Time>
            <Position>
              <LatitudeDegrees>36.81822658516466617584228515625</LatitudeDegrees>
              <LongitudeDegrees>-4.38186778686940670013427734375</LongitudeDegrees>
            </Position>
            <AltitudeMeters>815.79998779296875</AltitudeMeters>
            <DistanceMeters>NAN</DistanceMeters>
          </Trackpoint>
          <Trackpoint>
            <Time>2020-12-05T13:52:34.000Z</Time>
            <Position>
              <LatitudeDegrees>36.8182303570210933685302734375</LatitudeDegrees>
              <LongitudeDegrees>-4.38185621984302997589111328125</LongitudeDegrees>
            </Position>
            <AltitudeMeters>816</AltitudeMeters>
            <DistanceMeters>NAN</DistanceMeters>
          </Trackpoint>
          <Trackpoint>
            <Time>2020-12-05T13:52:35.000Z</Time>
            <Position>
              <LatitudeDegrees>36.81824066676199436187744140625</LatitudeDegrees>
              <LongitudeDegrees>-4.38183811493217945098876953125</LongitudeDegrees>
            </Position>
            <AltitudeMeters>816.20001220703125</AltitudeMeters>
            <DistanceMeters>NAN</DistanceMeters>
          </Trackpoint>
          <Trackpoint>
            <Time>2020-12-05T13:52:36.000Z</Time>
            <Position>
              <LatitudeDegrees>36.818245947360992431640625</LatitudeDegrees>
              <LongitudeDegrees>-4.38181799836456775665283203125</LongitudeDegrees>
            </Position>
            <AltitudeMeters>816.20001220703125</AltitudeMeters>
            <DistanceMeters>NAN</DistanceMeters>
          </Trackpoint>
          <Trackpoint>
            <Time>2020-12-05T13:52:37.000Z</Time>
            <Position>
              <LatitudeDegrees>36.8182419240474700927734375</LatitudeDegrees>
              <LongitudeDegrees>-4.38179989345371723175048828125</LongitudeDegrees>
            </Position>
            <AltitudeMeters>816.4000244140625</AltitudeMeters>
            <DistanceMeters>NAN</DistanceMeters>
          </Trackpoint>
          <Trackpoint>
            <Time>2020-12-05T13:52:38.000Z</Time>
            <Position>
              <LatitudeDegrees>36.81823865510523319244384765625</LatitudeDegrees>
              <LongitudeDegrees>-4.381783716380596160888671875</LongitudeDegrees>
            </Position>
            <AltitudeMeters>816.5999755859375</AltitudeMeters>
            <DistanceMeters>NAN</DistanceMeters>
          </Trackpoint>
          <Trackpoint>
            <Time>2020-12-05T13:52:39.000Z</Time>
            <Position>
              <LatitudeDegrees>36.818234212696552276611328125</LatitudeDegrees>
              <LongitudeDegrees>-4.3817698024213314056396484375</LongitudeDegrees>
            </Position>
            <AltitudeMeters>816.5999755859375</AltitudeMeters>
            <DistanceMeters>NAN</DistanceMeters>
          </Trackpoint>
          <Trackpoint>
            <Time>2020-12-05T13:52:40.000Z</Time>
            <Position>
              <LatitudeDegrees>36.81823052465915679931640625</LatitudeDegrees>
              <LongitudeDegrees>-4.38175815157592296600341796875</LongitudeDegrees>
            </Position>
            <AltitudeMeters>816.79998779296875</AltitudeMeters>
            <DistanceMeters>NAN</DistanceMeters>
          </Trackpoint>
          <Trackpoint>
            <Time>2020-12-05T13:52:41.000Z</Time>
            <Position>
              <LatitudeDegrees>36.8182270042598247528076171875</LatitudeDegrees>
              <LongitudeDegrees>-4.38175077550113201141357421875</LongitudeDegrees>
            </Position>
            <AltitudeMeters>816.79998779296875</AltitudeMeters>
            <DistanceMeters>NAN</DistanceMeters>
          </Trackpoint>
          <Trackpoint>
            <Time>2020-12-05T13:52:42.000Z</Time>
            <Position>
              <LatitudeDegrees>36.81822381913661956787109375</LatitudeDegrees>
              <LongitudeDegrees>-4.38174272887408733367919921875</LongitudeDegrees>
            </Position>
            <AltitudeMeters>817</AltitudeMeters>
            <DistanceMeters>NAN</DistanceMeters>
          </Trackpoint>
          <Trackpoint>
            <Time>2020-12-05T13:52:43.000Z</Time>
            <Position>
              <LatitudeDegrees>36.81822247803211212158203125</LatitudeDegrees>
              <LongitudeDegrees>-4.38173300586640834808349609375</LongitudeDegrees>
            </Position>
            <AltitudeMeters>817</AltitudeMeters>
            <DistanceMeters>NAN</DistanceMeters>
          </Trackpoint>
          <Trackpoint>
            <Time>2020-12-05T13:52:44.000Z</Time>
            <Position>
              <LatitudeDegrees>36.81821803562343120574951171875</LatitudeDegrees>
              <LongitudeDegrees>-4.38172529451549053192138671875</LongitudeDegrees>
            </Position>
            <AltitudeMeters>817.20001220703125</AltitudeMeters>
            <DistanceMeters>NAN</DistanceMeters>
          </Trackpoint>
          <Trackpoint>
            <Time>2020-12-05T13:52:45.000Z</Time>
            <Position>
              <LatitudeDegrees>36.818214766681194305419921875</LatitudeDegrees>
              <LongitudeDegrees>-4.38171255402266979217529296875</LongitudeDegrees>
            </Position>
            <AltitudeMeters>817.20001220703125</AltitudeMeters>
            <DistanceMeters>NAN</DistanceMeters>
          </Trackpoint>
          <Trackpoint>
            <Time>2020-12-05T13:52:46.000Z</Time>
            <Position>
              <LatitudeDegrees>36.818209402263164520263671875</LatitudeDegrees>
              <LongitudeDegrees>-4.3816970475018024444580078125</LongitudeDegrees>
            </Position>
            <AltitudeMeters>817.4000244140625</AltitudeMeters>
            <DistanceMeters>NAN</DistanceMeters>
          </Trackpoint>
          <Trackpoint>
            <Time>2020-12-05T13:52:47.000Z</Time>
            <Position>
              <LatitudeDegrees>36.81820504367351531982421875</LatitudeDegrees>
              <LongitudeDegrees>-4.3816869892179965972900390625</LongitudeDegrees>
            </Position>
            <AltitudeMeters>817.5999755859375</AltitudeMeters>
            <DistanceMeters>NAN</DistanceMeters>
          </Trackpoint>
          <Trackpoint>
            <Time>2020-12-05T13:52:48.000Z</Time>
            <Position>
              <LatitudeDegrees>36.8181990087032318115234375</LatitudeDegrees>
              <LongitudeDegrees>-4.3816769309341907501220703125</LongitudeDegrees>
            </Position>
            <AltitudeMeters>817.79998779296875</AltitudeMeters>
            <DistanceMeters>NAN</DistanceMeters>
          </Trackpoint>
          <Trackpoint>
            <Time>2020-12-05T13:52:49.000Z</Time>
            <Position>
              <LatitudeDegrees>36.81818895041942596435546875</LatitudeDegrees>
              <LongitudeDegrees>-4.3816678784787654876708984375</LongitudeDegrees>
            </Position>
            <AltitudeMeters>817.79998779296875</AltitudeMeters>
            <DistanceMeters>NAN</DistanceMeters>
          </Trackpoint>
          <Trackpoint>
            <Time>2020-12-05T13:52:50.000Z</Time>
            <Position>
              <LatitudeDegrees>36.818177215754985809326171875</LatitudeDegrees>
              <LongitudeDegrees>-4.38165890984237194061279296875</LongitudeDegrees>
            </Position>
            <AltitudeMeters>818</AltitudeMeters>
            <DistanceMeters>NAN</DistanceMeters>
          </Trackpoint>
          <Trackpoint>
            <Time>2020-12-05T13:52:51.000Z</Time>
            <Position>
              <LatitudeDegrees>36.81816657073795795440673828125</LatitudeDegrees>
              <LongitudeDegrees>-4.38164801336824893951416015625</LongitudeDegrees>
            </Position>
            <AltitudeMeters>818.20001220703125</AltitudeMeters>
            <DistanceMeters>NAN</DistanceMeters>
          </Trackpoint>
          <Trackpoint>
            <Time>2020-12-05T13:52:52.000Z</Time>
            <Position>
              <LatitudeDegrees>36.8181519024074077606201171875</LatitudeDegrees>
              <LongitudeDegrees>-4.38163510523736476898193359375</LongitudeDegrees>
            </Position>
            <AltitudeMeters>818.20001220703125</AltitudeMeters>
            <DistanceMeters>NAN</DistanceMeters>
          </Trackpoint>
          <Trackpoint>
            <Time>2020-12-05T13:52:53.000Z</Time>
            <Position>
              <LatitudeDegrees>36.8181426823139190673828125</LatitudeDegrees>
              <LongitudeDegrees>-4.38162923790514469146728515625</LongitudeDegrees>
            </Position>
            <AltitudeMeters>818.20001220703125</AltitudeMeters>
            <DistanceMeters>NAN</DistanceMeters>
          </Trackpoint>
          <Trackpoint>
            <Time>2020-12-05T13:52:54.000Z</Time>
            <Position>
              <LatitudeDegrees>36.8181341327726840972900390625</LatitudeDegrees>
              <LongitudeDegrees>-4.3816266395151615142822265625</LongitudeDegrees>
            </Position>
            <AltitudeMeters>818.20001220703125</AltitudeMeters>
            <DistanceMeters>NAN</DistanceMeters>
          </Trackpoint>
          <Trackpoint>
            <Time>2020-12-05T13:52:55.000Z</Time>
            <Position>
              <LatitudeDegrees>36.81812348775565624237060546875</LatitudeDegrees>
              <LongitudeDegrees>-4.38162454403936862945556640625</LongitudeDegrees>
            </Position>
            <AltitudeMeters>818.20001220703125</AltitudeMeters>
            <DistanceMeters>NAN</DistanceMeters>
          </Trackpoint>
          <Trackpoint>
            <Time>2020-12-05T13:52:56.000Z</Time>
            <Position>
              <LatitudeDegrees>36.81811074726283550262451171875</LatitudeDegrees>
              <LongitudeDegrees>-4.38162244856357574462890625</LongitudeDegrees>
            </Position>
            <AltitudeMeters>818.20001220703125</AltitudeMeters>
            <DistanceMeters>NAN</DistanceMeters>
          </Trackpoint>
          <Trackpoint>
            <Time>2020-12-05T13:52:57.000Z</Time>
            <Position>
              <LatitudeDegrees>36.81809842586517333984375</LatitudeDegrees>
              <LongitudeDegrees>-4.3816244602203369140625</LongitudeDegrees>
            </Position>
            <AltitudeMeters>818.20001220703125</AltitudeMeters>
            <DistanceMeters>NAN</DistanceMeters>
          </Trackpoint>
          <Trackpoint>
            <Time>2020-12-05T13:52:58.000Z</Time>
            <Position>
              <LatitudeDegrees>36.8180868588387966156005859375</LatitudeDegrees>
              <LongitudeDegrees>-4.3816279806196689605712890625</LongitudeDegrees>
            </Position>
            <AltitudeMeters>818.20001220703125</AltitudeMeters>
            <DistanceMeters>NAN</DistanceMeters>
          </Trackpoint>
          <Trackpoint>
            <Time>2020-12-05T13:52:59.000Z</Time>
            <Position>
              <LatitudeDegrees>36.81807805784046649932861328125</LatitudeDegrees>
              <LongitudeDegrees>-4.38163175247609615325927734375</LongitudeDegrees>
            </Position>
            <AltitudeMeters>818.20001220703125</AltitudeMeters>
            <DistanceMeters>NAN</DistanceMeters>
          </Trackpoint>
          <Trackpoint>
            <Time>2020-12-05T13:53:00.000Z</Time>
            <Position>
              <LatitudeDegrees>36.81806716136634349822998046875</LatitudeDegrees>
              <LongitudeDegrees>-4.381634183228015899658203125</LongitudeDegrees>
            </Position>
            <AltitudeMeters>818.20001220703125</AltitudeMeters>
            <DistanceMeters>NAN</DistanceMeters>
          </Trackpoint>
          <Trackpoint>
            <Time>2020-12-05T13:53:01.000Z</Time>
            <Position>
              <LatitudeDegrees>36.81805928237736225128173828125</LatitudeDegrees>
              <LongitudeDegrees>-4.3816365301609039306640625</LongitudeDegrees>
            </Position>
            <AltitudeMeters>818.4000244140625</AltitudeMeters>
            <DistanceMeters>NAN</DistanceMeters>
          </Trackpoint>
          <Trackpoint>
            <Time>2020-12-05T13:53:02.000Z</Time>
            <Position>
              <LatitudeDegrees>36.8180486373603343963623046875</LatitudeDegrees>
              <LongitudeDegrees>-4.38163594342768192291259765625</LongitudeDegrees>
            </Position>
            <AltitudeMeters>818.4000244140625</AltitudeMeters>
            <DistanceMeters>NAN</DistanceMeters>
          </Trackpoint>
          <Trackpoint>
            <Time>2020-12-05T13:53:03.000Z</Time>
            <Position>
              <LatitudeDegrees>36.81803698651492595672607421875</LatitudeDegrees>
              <LongitudeDegrees>-4.38163594342768192291259765625</LongitudeDegrees>
            </Position>
            <AltitudeMeters>818.4000244140625</AltitudeMeters>
            <DistanceMeters>NAN</DistanceMeters>
          </Trackpoint>
          <Trackpoint>
            <Time>2020-12-05T13:53:04.000Z</Time>
            <Position>
              <LatitudeDegrees>36.818026341497898101806640625</LatitudeDegrees>
              <LongitudeDegrees>-4.381636865437030792236328125</LongitudeDegrees>
            </Position>
            <AltitudeMeters>818.4000244140625</AltitudeMeters>
            <DistanceMeters>NAN</DistanceMeters>
          </Trackpoint>
          <Trackpoint>
            <Time>2020-12-05T13:53:05.000Z</Time>
            <Position>
              <LatitudeDegrees>36.81801619939506053924560546875</LatitudeDegrees>
              <LongitudeDegrees>-4.381636865437030792236328125</LongitudeDegrees>
            </Position>
            <AltitudeMeters>818.5999755859375</AltitudeMeters>
            <DistanceMeters>NAN</DistanceMeters>
          </Trackpoint>
          <Trackpoint>
            <Time>2020-12-05T13:53:06.000Z</Time>
            <Position>
              <LatitudeDegrees>36.81800480000674724578857421875</LatitudeDegrees>
              <LongitudeDegrees>-4.3816336803138256072998046875</LongitudeDegrees>
            </Position>
            <AltitudeMeters>818.5999755859375</AltitudeMeters>
            <DistanceMeters>NAN</DistanceMeters>
          </Trackpoint>
          <Trackpoint>
            <Time>2020-12-05T13:53:07.000Z</Time>
            <Position>
              <LatitudeDegrees>36.81799373589456081390380859375</LatitudeDegrees>
              <LongitudeDegrees>-4.38163158483803272247314453125</LongitudeDegrees>
            </Position>
            <AltitudeMeters>818.5999755859375</AltitudeMeters>
            <DistanceMeters>NAN</DistanceMeters>
          </Trackpoint>
          <Trackpoint>
            <Time>2020-12-05T13:53:08.000Z</Time>
            <Position>
              <LatitudeDegrees>36.8179856054484844207763671875</LatitudeDegrees>
              <LongitudeDegrees>-4.3816231191158294677734375</LongitudeDegrees>
            </Position>
            <AltitudeMeters>818.5999755859375</AltitudeMeters>
            <DistanceMeters>NAN</DistanceMeters>
          </Trackpoint>
          <Trackpoint>
            <Time>2020-12-05T13:53:09.000Z</Time>
            <Position>
              <LatitudeDegrees>36.817972697317600250244140625</LatitudeDegrees>
              <LongitudeDegrees>-4.38162085600197315216064453125</LongitudeDegrees>
            </Position>
            <AltitudeMeters>818.5999755859375</AltitudeMeters>
            <DistanceMeters>NAN</DistanceMeters>
          </Trackpoint>
          <Trackpoint>
            <Time>2020-12-05T13:53:10.000Z</Time>
            <Position>
              <LatitudeDegrees>36.81796272285282611846923828125</LatitudeDegrees>
              <LongitudeDegrees>-4.38162387348711490631103515625</LongitudeDegrees>
            </Position>
            <AltitudeMeters>818.4000244140625</AltitudeMeters>
            <DistanceMeters>NAN</DistanceMeters>
          </Trackpoint>
          <Trackpoint>
            <Time>2020-12-05T13:53:11.000Z</Time>
            <Position>
              <LatitudeDegrees>36.8179504014551639556884765625</LatitudeDegrees>
              <LongitudeDegrees>-4.38162320293486118316650390625</LongitudeDegrees>
            </Position>
            <AltitudeMeters>818.4000244140625</AltitudeMeters>
            <DistanceMeters>NAN</DistanceMeters>
          </Trackpoint>
          <Trackpoint>
            <Time>2020-12-05T13:53:12.000Z</Time>
            <Position>
              <LatitudeDegrees>36.81794126518070697784423828125</LatitudeDegrees>
              <LongitudeDegrees>-4.38162085600197315216064453125</LongitudeDegrees>
            </Position>
            <AltitudeMeters>818.20001220703125</AltitudeMeters>
            <DistanceMeters>NAN</DistanceMeters>
          </Trackpoint>
          <Trackpoint>
            <Time>2020-12-05T13:53:13.000Z</Time>
            <Position>
              <LatitudeDegrees>36.81793288327753543853759765625</LatitudeDegrees>
              <LongitudeDegrees>-4.381620772182941436767578125</LongitudeDegrees>
            </Position>
            <AltitudeMeters>818</AltitudeMeters>
            <DistanceMeters>NAN</DistanceMeters>
          </Trackpoint>
          <Trackpoint>
            <Time>2020-12-05T13:53:14.000Z</Time>
            <Position>
              <LatitudeDegrees>36.81792433373630046844482421875</LatitudeDegrees>
              <LongitudeDegrees>-4.3816185928881168365478515625</LongitudeDegrees>
            </Position>
            <AltitudeMeters>818</AltitudeMeters>
            <DistanceMeters>NAN</DistanceMeters>
          </Trackpoint>
          <Trackpoint>
            <Time>2020-12-05T13:53:15.000Z</Time>
            <Position>
              <LatitudeDegrees>36.8179158680140972137451171875</LatitudeDegrees>
              <LongitudeDegrees>-4.381615407764911651611328125</LongitudeDegrees>
            </Position>
            <AltitudeMeters>818</AltitudeMeters>
            <DistanceMeters>NAN</DistanceMeters>
          </Trackpoint>
          <Trackpoint>
            <Time>2020-12-05T13:53:16.000Z</Time>
            <Position>
              <LatitudeDegrees>36.81790639646351337432861328125</LatitudeDegrees>
              <LongitudeDegrees>-4.3816155754029750823974609375</LongitudeDegrees>
            </Position>
            <AltitudeMeters>818</AltitudeMeters>
            <DistanceMeters>NAN</DistanceMeters>
          </Trackpoint>
          <Trackpoint>
            <Time>2020-12-05T13:53:17.000Z</Time>
            <Position>
              <LatitudeDegrees>36.8178987689316272735595703125</LatitudeDegrees>
              <LongitudeDegrees>-4.381618760526180267333984375</LongitudeDegrees>
            </Position>
            <AltitudeMeters>818</AltitudeMeters>
            <DistanceMeters>NAN</DistanceMeters>
          </Trackpoint>
          <Trackpoint>
            <Time>2020-12-05T13:53:18.000Z</Time>
            <Position>
              <LatitudeDegrees>36.81789231486618518829345703125</LatitudeDegrees>
              <LongitudeDegrees>-4.38162085600197315216064453125</LongitudeDegrees>
            </Position>
            <AltitudeMeters>818</AltitudeMeters>
            <DistanceMeters>NAN</DistanceMeters>
          </Trackpoint>
          <Trackpoint>
            <Time>2020-12-05T13:53:19.000Z</Time>
            <Position>
              <LatitudeDegrees>36.81788644753396511077880859375</LatitudeDegrees>
              <LongitudeDegrees>-4.38162152655422687530517578125</LongitudeDegrees>
            </Position>
            <AltitudeMeters>818</AltitudeMeters>
            <DistanceMeters>NAN</DistanceMeters>
          </Trackpoint>
          <Trackpoint>
            <Time>2020-12-05T13:53:20.000Z</Time>
            <Position>
              <LatitudeDegrees>36.81787957437336444854736328125</LatitudeDegrees>
              <LongitudeDegrees>-4.38162169419229030609130859375</LongitudeDegrees>
            </Position>
            <AltitudeMeters>818</AltitudeMeters>
            <DistanceMeters>NAN</DistanceMeters>
          </Trackpoint>
          <Trackpoint>
            <Time>2020-12-05T13:53:21.000Z</Time>
            <Position>
              <LatitudeDegrees>36.817870438098907470703125</LatitudeDegrees>
              <LongitudeDegrees>-4.38162219710648059844970703125</LongitudeDegrees>
            </Position>
            <AltitudeMeters>818</AltitudeMeters>
            <DistanceMeters>NAN</DistanceMeters>
          </Trackpoint>
          <Trackpoint>
            <Time>2020-12-05T13:53:22.000Z</Time>
            <Position>
              <LatitudeDegrees>36.817862056195735931396484375</LatitudeDegrees>
              <LongitudeDegrees>-4.38162521459162235260009765625</LongitudeDegrees>
            </Position>
            <AltitudeMeters>818</AltitudeMeters>
            <DistanceMeters>NAN</DistanceMeters>
          </Trackpoint>
          <Trackpoint>
            <Time>2020-12-05T13:53:23.000Z</Time>
            <Position>
              <LatitudeDegrees>36.81785308755934238433837890625</LatitudeDegrees>
              <LongitudeDegrees>-4.3816286511719226837158203125</LongitudeDegrees>
            </Position>
            <AltitudeMeters>817.79998779296875</AltitudeMeters>
            <DistanceMeters>NAN</DistanceMeters>
          </Trackpoint>
          <Trackpoint>
            <Time>2020-12-05T13:53:24.000Z</Time>
            <Position>
              <LatitudeDegrees>36.81784403510391712188720703125</LatitudeDegrees>
              <LongitudeDegrees>-4.38163057900965213775634765625</LongitudeDegrees>
            </Position>
            <AltitudeMeters>817.79998779296875</AltitudeMeters>
            <DistanceMeters>NAN</DistanceMeters>
          </Trackpoint>
          <Trackpoint>
            <Time>2020-12-05T13:53:25.000Z</Time>
            <Position>
              <LatitudeDegrees>36.81783280335366725921630859375</LatitudeDegrees>
              <LongitudeDegrees>-4.3816330097615718841552734375</LongitudeDegrees>
            </Position>
            <AltitudeMeters>817.79998779296875</AltitudeMeters>
            <DistanceMeters>NAN</DistanceMeters>
          </Trackpoint>
          <Trackpoint>
            <Time>2020-12-05T13:53:26.000Z</Time>
            <Position>
              <LatitudeDegrees>36.81781972758471965789794921875</LatitudeDegrees>
              <LongitudeDegrees>-4.38163493759930133819580078125</LongitudeDegrees>
            </Position>
            <AltitudeMeters>817.79998779296875</AltitudeMeters>
            <DistanceMeters>NAN</DistanceMeters>
          </Trackpoint>
          <Trackpoint>
            <Time>2020-12-05T13:53:27.000Z</Time>
            <Position>
              <LatitudeDegrees>36.817806065082550048828125</LatitudeDegrees>
              <LongitudeDegrees>-4.3816320039331912994384765625</LongitudeDegrees>
            </Position>
            <AltitudeMeters>817.5999755859375</AltitudeMeters>
            <DistanceMeters>NAN</DistanceMeters>
          </Trackpoint>
          <Trackpoint>
            <Time>2020-12-05T13:53:28.000Z</Time>
            <Position>
              <LatitudeDegrees>36.817792989313602447509765625</LatitudeDegrees>
              <LongitudeDegrees>-4.381630830466747283935546875</LongitudeDegrees>
            </Position>
            <AltitudeMeters>817.5999755859375</AltitudeMeters>
            <DistanceMeters>NAN</DistanceMeters>
          </Trackpoint>
          <Trackpoint>
            <Time>2020-12-05T13:53:29.000Z</Time>
            <Position>
              <LatitudeDegrees>36.81777882389724254608154296875</LatitudeDegrees>
              <LongitudeDegrees>-4.3816293217241764068603515625</LongitudeDegrees>
            </Position>
            <AltitudeMeters>817.5999755859375</AltitudeMeters>
            <DistanceMeters>NAN</DistanceMeters>
          </Trackpoint>
          <Trackpoint>
            <Time>2020-12-05T13:53:30.000Z</Time>
            <Position>
              <LatitudeDegrees>36.81776910088956356048583984375</LatitudeDegrees>
              <LongitudeDegrees>-4.3816289864480495452880859375</LongitudeDegrees>
            </Position>
            <AltitudeMeters>817.5999755859375</AltitudeMeters>
            <DistanceMeters>NAN</DistanceMeters>
          </Trackpoint>
          <Trackpoint>
            <Time>2020-12-05T13:53:31.000Z</Time>
            <Position>
              <LatitudeDegrees>36.81775703094899654388427734375</LatitudeDegrees>
              <LongitudeDegrees>-4.38162647187709808349609375</LongitudeDegrees>
            </Position>
            <AltitudeMeters>817.5999755859375</AltitudeMeters>
            <DistanceMeters>NAN</DistanceMeters>
          </Trackpoint>
          <Trackpoint>
            <Time>2020-12-05T13:53:32.000Z</Time>
            <Position>
              <LatitudeDegrees>36.81774395518004894256591796875</LatitudeDegrees>
              <LongitudeDegrees>-4.38162588514387607574462890625</LongitudeDegrees>
            </Position>
            <AltitudeMeters>817.5999755859375</AltitudeMeters>
            <DistanceMeters>NAN</DistanceMeters>
          </Trackpoint>
          <Trackpoint>
            <Time>2020-12-05T13:53:33.000Z</Time>
            <Position>
              <LatitudeDegrees>36.81773163378238677978515625</LatitudeDegrees>
              <LongitudeDegrees>-4.38162605278193950653076171875</LongitudeDegrees>
            </Position>
            <AltitudeMeters>817.5999755859375</AltitudeMeters>
            <DistanceMeters>NAN</DistanceMeters>
          </Trackpoint>
          <Trackpoint>
            <Time>2020-12-05T13:53:34.000Z</Time>
            <Position>
              <LatitudeDegrees>36.81771948002278804779052734375</LatitudeDegrees>
              <LongitudeDegrees>-4.381626136600971221923828125</LongitudeDegrees>
            </Position>
            <AltitudeMeters>817.5999755859375</AltitudeMeters>
            <DistanceMeters>NAN</DistanceMeters>
          </Trackpoint>
          <Trackpoint>
            <Time>2020-12-05T13:53:35.000Z</Time>
            <Position>
              <LatitudeDegrees>36.81770673952996730804443359375</LatitudeDegrees>
              <LongitudeDegrees>-4.38162772916257381439208984375</LongitudeDegrees>
            </Position>
            <AltitudeMeters>817.5999755859375</AltitudeMeters>
            <DistanceMeters>NAN</DistanceMeters>
          </Trackpoint>
          <Trackpoint>
            <Time>2020-12-05T13:53:36.000Z</Time>
            <Position>
              <LatitudeDegrees>36.8176942504942417144775390625</LatitudeDegrees>
              <LongitudeDegrees>-4.3816311657428741455078125</LongitudeDegrees>
            </Position>
            <AltitudeMeters>817.4000244140625</AltitudeMeters>
            <DistanceMeters>NAN</DistanceMeters>
          </Trackpoint>
          <Trackpoint>
            <Time>2020-12-05T13:53:37.000Z</Time>
            <Position>
              <LatitudeDegrees>36.8176818452775478363037109375</LatitudeDegrees>
              <LongitudeDegrees>-4.3816340155899524688720703125</LongitudeDegrees>
            </Position>
            <AltitudeMeters>817.4000244140625</AltitudeMeters>
            <DistanceMeters>NAN</DistanceMeters>
          </Trackpoint>
          <Trackpoint>
            <Time>2020-12-05T13:53:38.000Z</Time>
            <Position>
              <LatitudeDegrees>36.8176717869937419891357421875</LatitudeDegrees>
              <LongitudeDegrees>-4.38163451850414276123046875</LongitudeDegrees>
            </Position>
            <AltitudeMeters>817.4000244140625</AltitudeMeters>
            <DistanceMeters>NAN</DistanceMeters>
          </Trackpoint>
          <Trackpoint>
            <Time>2020-12-05T13:53:39.000Z</Time>
            <Position>
              <LatitudeDegrees>36.8176620639860630035400390625</LatitudeDegrees>
              <LongitudeDegrees>-4.38163183629512786865234375</LongitudeDegrees>
            </Position>
            <AltitudeMeters>817.4000244140625</AltitudeMeters>
            <DistanceMeters>NAN</DistanceMeters>
          </Trackpoint>
          <Trackpoint>
            <Time>2020-12-05T13:53:40.000Z</Time>
            <Position>
              <LatitudeDegrees>36.81765091605484485626220703125</LatitudeDegrees>
              <LongitudeDegrees>-4.3816258013248443603515625</LongitudeDegrees>
            </Position>
            <AltitudeMeters>817.20001220703125</AltitudeMeters>
            <DistanceMeters>NAN</DistanceMeters>
          </Trackpoint>
          <Trackpoint>
            <Time>2020-12-05T13:53:41.000Z</Time>
            <Position>
              <LatitudeDegrees>36.81763884611427783966064453125</LatitudeDegrees>
              <LongitudeDegrees>-4.38161901198327541351318359375</LongitudeDegrees>
            </Position>
            <AltitudeMeters>817.20001220703125</AltitudeMeters>
            <DistanceMeters>NAN</DistanceMeters>
          </Trackpoint>
          <Trackpoint>
            <Time>2020-12-05T13:53:42.000Z</Time>
            <Position>
              <LatitudeDegrees>36.8176276981830596923828125</LatitudeDegrees>
              <LongitudeDegrees>-4.38161113299429416656494140625</LongitudeDegrees>
            </Position>
            <AltitudeMeters>817</AltitudeMeters>
            <DistanceMeters>NAN</DistanceMeters>
          </Trackpoint>
          <Trackpoint>
            <Time>2020-12-05T13:53:43.000Z</Time>
            <Position>
              <LatitudeDegrees>36.81761805899441242218017578125</LatitudeDegrees>
              <LongitudeDegrees>-4.381601996719837188720703125</LongitudeDegrees>
            </Position>
            <AltitudeMeters>817</AltitudeMeters>
            <DistanceMeters>NAN</DistanceMeters>
          </Trackpoint>
          <Trackpoint>
            <Time>2020-12-05T13:53:44.000Z</Time>
            <Position>
              <LatitudeDegrees>36.81760833598673343658447265625</LatitudeDegrees>
              <LongitudeDegrees>-4.3815924413502216339111328125</LongitudeDegrees>
            </Position>
            <AltitudeMeters>817</AltitudeMeters>
            <DistanceMeters>NAN</DistanceMeters>
          </Trackpoint>
          <Trackpoint>
            <Time>2020-12-05T13:53:45.000Z</Time>
            <Position>
              <LatitudeDegrees>36.81760012172162532806396484375</LatitudeDegrees>
              <LongitudeDegrees>-4.38158213160932064056396484375</LongitudeDegrees>
            </Position>
            <AltitudeMeters>816.79998779296875</AltitudeMeters>
            <DistanceMeters>NAN</DistanceMeters>
          </Trackpoint>
          <Trackpoint>
            <Time>2020-12-05T13:53:46.000Z</Time>
            <Position>
              <LatitudeDegrees>36.81759350001811981201171875</LatitudeDegrees>
              <LongitudeDegrees>-4.381569810211658477783203125</LongitudeDegrees>
            </Position>
            <AltitudeMeters>816.79998779296875</AltitudeMeters>
            <DistanceMeters>NAN</DistanceMeters>
          </Trackpoint>
          <Trackpoint>
            <Time>2020-12-05T13:53:47.000Z</Time>
            <Position>
              <LatitudeDegrees>36.81759006343781948089599609375</LatitudeDegrees>
              <LongitudeDegrees>-4.381557069718837738037109375</LongitudeDegrees>
            </Position>
            <AltitudeMeters>816.5999755859375</AltitudeMeters>
            <DistanceMeters>NAN</DistanceMeters>
          </Trackpoint>
          <Trackpoint>
            <Time>2020-12-05T13:53:48.000Z</Time>
            <Position>
              <LatitudeDegrees>36.8175906501710414886474609375</LatitudeDegrees>
              <LongitudeDegrees>-4.3815455026924610137939453125</LongitudeDegrees>
            </Position>
            <AltitudeMeters>816.4000244140625</AltitudeMeters>
            <DistanceMeters>NAN</DistanceMeters>
          </Trackpoint>
          <Trackpoint>
            <Time>2020-12-05T13:53:49.000Z</Time>
            <Position>
              <LatitudeDegrees>36.81759291328489780426025390625</LatitudeDegrees>
              <LongitudeDegrees>-4.38153267838060855865478515625</LongitudeDegrees>
            </Position>
            <AltitudeMeters>816.20001220703125</AltitudeMeters>
            <DistanceMeters>NAN</DistanceMeters>
          </Trackpoint>
          <Trackpoint>
            <Time>2020-12-05T13:53:50.000Z</Time>
            <Position>
              <LatitudeDegrees>36.81759291328489780426025390625</LatitudeDegrees>
              <LongitudeDegrees>-4.38151909969747066497802734375</LongitudeDegrees>
            </Position>
            <AltitudeMeters>816.20001220703125</AltitudeMeters>
            <DistanceMeters>NAN</DistanceMeters>
          </Trackpoint>
          <Trackpoint>
            <Time>2020-12-05T13:53:51.000Z</Time>
            <Position>
              <LatitudeDegrees>36.81758939288556575775146484375</LatitudeDegrees>
              <LongitudeDegrees>-4.381509460508823394775390625</LongitudeDegrees>
            </Position>
            <AltitudeMeters>816.20001220703125</AltitudeMeters>
            <DistanceMeters>NAN</DistanceMeters>
          </Trackpoint>
          <Trackpoint>
            <Time>2020-12-05T13:53:52.000Z</Time>
            <Position>
              <LatitudeDegrees>36.81758838705718517303466796875</LatitudeDegrees>
              <LongitudeDegrees>-4.381498061120510101318359375</LongitudeDegrees>
            </Position>
            <AltitudeMeters>816.20001220703125</AltitudeMeters>
            <DistanceMeters>NAN</DistanceMeters>
          </Trackpoint>
          <Trackpoint>
            <Time>2020-12-05T13:53:53.000Z</Time>
            <Position>
              <LatitudeDegrees>36.81759039871394634246826171875</LatitudeDegrees>
              <LongitudeDegrees>-4.38148758374154567718505859375</LongitudeDegrees>
            </Position>
            <AltitudeMeters>816</AltitudeMeters>
            <DistanceMeters>NAN</DistanceMeters>
          </Trackpoint>
          <Trackpoint>
            <Time>2020-12-05T13:53:54.000Z</Time>
            <Position>
              <LatitudeDegrees>36.817589811980724334716796875</LatitudeDegrees>
              <LongitudeDegrees>-4.38148020766675472259521484375</LongitudeDegrees>
            </Position>
            <AltitudeMeters>815.79998779296875</AltitudeMeters>
            <DistanceMeters>NAN</DistanceMeters>
          </Trackpoint>
          <Trackpoint>
            <Time>2020-12-05T13:53:55.000Z</Time>
            <Position>
              <LatitudeDegrees>36.81759006343781948089599609375</LatitudeDegrees>
              <LongitudeDegrees>-4.38147132284939289093017578125</LongitudeDegrees>
            </Position>
            <AltitudeMeters>815.79998779296875</AltitudeMeters>
            <DistanceMeters>NAN</DistanceMeters>
          </Trackpoint>
          <Trackpoint>
            <Time>2020-12-05T13:53:56.000Z</Time>
            <Position>
              <LatitudeDegrees>36.81759157218039035797119140625</LatitudeDegrees>
              <LongitudeDegrees>-4.38146176747977733612060546875</LongitudeDegrees>
            </Position>
            <AltitudeMeters>815.79998779296875</AltitudeMeters>
            <DistanceMeters>NAN</DistanceMeters>
          </Trackpoint>
          <Trackpoint>
            <Time>2020-12-05T13:53:57.000Z</Time>
            <Position>
              <LatitudeDegrees>36.81759576313197612762451171875</LatitudeDegrees>
              <LongitudeDegrees>-4.38145103864371776580810546875</LongitudeDegrees>
            </Position>
            <AltitudeMeters>815.5999755859375</AltitudeMeters>
            <DistanceMeters>NAN</DistanceMeters>
          </Trackpoint>
          <Trackpoint>
            <Time>2020-12-05T13:53:58.000Z</Time>
            <Position>
              <LatitudeDegrees>36.81759894825518131256103515625</LatitudeDegrees>
              <LongitudeDegrees>-4.38144366256892681121826171875</LongitudeDegrees>
            </Position>
            <AltitudeMeters>815.5999755859375</AltitudeMeters>
            <DistanceMeters>NAN</DistanceMeters>
          </Trackpoint>
          <Trackpoint>
            <Time>2020-12-05T13:53:59.000Z</Time>
            <Position>
              <LatitudeDegrees>36.817602552473545074462890625</LatitudeDegrees>
              <LongitudeDegrees>-4.38143528066575527191162109375</LongitudeDegrees>
            </Position>
            <AltitudeMeters>815.5999755859375</AltitudeMeters>
            <DistanceMeters>NAN</DistanceMeters>
          </Trackpoint>
          <Trackpoint>
            <Time>2020-12-05T13:54:00.000Z</Time>
            <Position>
              <LatitudeDegrees>36.81760448031127452850341796875</LatitudeDegrees>
              <LongitudeDegrees>-4.3814261443912982940673828125</LongitudeDegrees>
            </Position>
            <AltitudeMeters>815.5999755859375</AltitudeMeters>
            <DistanceMeters>NAN</DistanceMeters>
          </Trackpoint>
          <Trackpoint>
            <Time>2020-12-05T13:54:01.000Z</Time>
            <Position>
              <LatitudeDegrees>36.81760531850159168243408203125</LatitudeDegrees>
              <LongitudeDegrees>-4.381418265402317047119140625</LongitudeDegrees>
            </Position>
            <AltitudeMeters>815.5999755859375</AltitudeMeters>
            <DistanceMeters>NAN</DistanceMeters>
          </Trackpoint>
          <Trackpoint>
            <Time>2020-12-05T13:54:02.000Z</Time>
            <Position>
              <LatitudeDegrees>36.81760699488222599029541015625</LatitudeDegrees>
              <LongitudeDegrees>-4.3814112246036529541015625</LongitudeDegrees>
            </Position>
            <AltitudeMeters>815.5999755859375</AltitudeMeters>
            <DistanceMeters>NAN</DistanceMeters>
          </Trackpoint>
          <Trackpoint>
            <Time>2020-12-05T13:54:03.000Z</Time>
            <Position>
              <LatitudeDegrees>36.81760682724416255950927734375</LatitudeDegrees>
              <LongitudeDegrees>-4.38140627928078174591064453125</LongitudeDegrees>
            </Position>
            <AltitudeMeters>815.5999755859375</AltitudeMeters>
            <DistanceMeters>NAN</DistanceMeters>
          </Trackpoint>
          <Trackpoint>
            <Time>2020-12-05T13:54:04.000Z</Time>
            <Position>
              <LatitudeDegrees>36.81760984472930431365966796875</LatitudeDegrees>
              <LongitudeDegrees>-4.38140024431049823760986328125</LongitudeDegrees>
            </Position>
            <AltitudeMeters>815.5999755859375</AltitudeMeters>
            <DistanceMeters>NAN</DistanceMeters>
          </Trackpoint>
          <Trackpoint>
            <Time>2020-12-05T13:54:05.000Z</Time>
            <Position>
              <LatitudeDegrees>36.817613281309604644775390625</LatitudeDegrees>
              <LongitudeDegrees>-4.38139270059764385223388671875</LongitudeDegrees>
            </Position>
            <AltitudeMeters>815.79998779296875</AltitudeMeters>
            <DistanceMeters>NAN</DistanceMeters>
          </Trackpoint>
          <Trackpoint>
            <Time>2020-12-05T13:54:06.000Z</Time>
            <Position>
              <LatitudeDegrees>36.81761755608022212982177734375</LatitudeDegrees>
              <LongitudeDegrees>-4.3813817203044891357421875</LongitudeDegrees>
            </Position>
            <AltitudeMeters>816</AltitudeMeters>
            <DistanceMeters>NAN</DistanceMeters>
          </Trackpoint>
          <Trackpoint>
            <Time>2020-12-05T13:54:07.000Z</Time>
            <Position>
              <LatitudeDegrees>36.81761973537504673004150390625</LatitudeDegrees>
              <LongitudeDegrees>-4.38137191347777843475341796875</LongitudeDegrees>
            </Position>
            <AltitudeMeters>816.20001220703125</AltitudeMeters>
            <DistanceMeters>NAN</DistanceMeters>
          </Trackpoint>
          <Trackpoint>
            <Time>2020-12-05T13:54:08.000Z</Time>
            <Position>
              <LatitudeDegrees>36.8176211602985858917236328125</LatitudeDegrees>
              <LongitudeDegrees>-4.3813621066510677337646484375</LongitudeDegrees>
            </Position>
            <AltitudeMeters>816.4000244140625</AltitudeMeters>
            <DistanceMeters>NAN</DistanceMeters>
          </Trackpoint>
          <Trackpoint>
            <Time>2020-12-05T13:54:09.000Z</Time>
            <Position>
              <LatitudeDegrees>36.8176261894404888153076171875</LatitudeDegrees>
              <LongitudeDegrees>-4.3813510425388813018798828125</LongitudeDegrees>
            </Position>
            <AltitudeMeters>816.4000244140625</AltitudeMeters>
            <DistanceMeters>NAN</DistanceMeters>
          </Trackpoint>
          <Trackpoint>
            <Time>2020-12-05T13:54:10.000Z</Time>
            <Position>
              <LatitudeDegrees>36.8176325596868991851806640625</LatitudeDegrees>
              <LongitudeDegrees>-4.381341151893138885498046875</LongitudeDegrees>
            </Position>
            <AltitudeMeters>816.5999755859375</AltitudeMeters>
            <DistanceMeters>NAN</DistanceMeters>
          </Trackpoint>
          <Trackpoint>
            <Time>2020-12-05T13:54:11.000Z</Time>
            <Position>
              <LatitudeDegrees>36.81764186359941959381103515625</LatitudeDegrees>
              <LongitudeDegrees>-4.381329752504825592041015625</LongitudeDegrees>
            </Position>
            <AltitudeMeters>816.5999755859375</AltitudeMeters>
            <DistanceMeters>NAN</DistanceMeters>
          </Trackpoint>
          <Trackpoint>
            <Time>2020-12-05T13:54:12.000Z</Time>
            <Position>
              <LatitudeDegrees>36.81764840148389339447021484375</LatitudeDegrees>
              <LongitudeDegrees>-4.38131977804005146026611328125</LongitudeDegrees>
            </Position>
            <AltitudeMeters>816.79998779296875</AltitudeMeters>
            <DistanceMeters>NAN</DistanceMeters>
          </Trackpoint>
          <Trackpoint>
            <Time>2020-12-05T13:54:13.000Z</Time>
            <Position>
              <LatitudeDegrees>36.81765250861644744873046875</LatitudeDegrees>
              <LongitudeDegrees>-4.3813111446797847747802734375</LongitudeDegrees>
            </Position>
            <AltitudeMeters>817</AltitudeMeters>
            <DistanceMeters>NAN</DistanceMeters>
          </Trackpoint>
          <Trackpoint>
            <Time>2020-12-05T13:54:14.000Z</Time>
            <Position>
              <LatitudeDegrees>36.8176573701202869415283203125</LatitudeDegrees>
              <LongitudeDegrees>-4.3812985718250274658203125</LongitudeDegrees>
            </Position>
            <AltitudeMeters>817.20001220703125</AltitudeMeters>
            <DistanceMeters>NAN</DistanceMeters>
          </Trackpoint>
          <Trackpoint>
            <Time>2020-12-05T13:54:15.000Z</Time>
            <Position>
              <LatitudeDegrees>36.81766181252896785736083984375</LatitudeDegrees>
              <LongitudeDegrees>-4.38128356821835041046142578125</LongitudeDegrees>
            </Position>
            <AltitudeMeters>817.20001220703125</AltitudeMeters>
            <DistanceMeters>NAN</DistanceMeters>
          </Trackpoint>
          <Trackpoint>
            <Time>2020-12-05T13:54:16.000Z</Time>
            <Position>
              <LatitudeDegrees>36.81766583584249019622802734375</LatitudeDegrees>
              <LongitudeDegrees>-4.381273090839385986328125</LongitudeDegrees>
            </Position>
            <AltitudeMeters>817.4000244140625</AltitudeMeters>
            <DistanceMeters>NAN</DistanceMeters>
          </Trackpoint>
          <Trackpoint>
            <Time>2020-12-05T13:54:17.000Z</Time>
            <Position>
              <LatitudeDegrees>36.81766902096569538116455078125</LatitudeDegrees>
              <LongitudeDegrees>-4.3812615238130092620849609375</LongitudeDegrees>
            </Position>
            <AltitudeMeters>817.4000244140625</AltitudeMeters>
            <DistanceMeters>NAN</DistanceMeters>
          </Trackpoint>
          <Trackpoint>
            <Time>2020-12-05T13:54:18.000Z</Time>
            <Position>
              <LatitudeDegrees>36.817672289907932281494140625</LatitudeDegrees>
              <LongitudeDegrees>-4.38124953769147396087646484375</LongitudeDegrees>
            </Position>
            <AltitudeMeters>817.4000244140625</AltitudeMeters>
            <DistanceMeters>NAN</DistanceMeters>
          </Trackpoint>
          <Trackpoint>
            <Time>2020-12-05T13:54:19.000Z</Time>
            <Position>
              <LatitudeDegrees>36.81767488829791545867919921875</LatitudeDegrees>
              <LongitudeDegrees>-4.3812410719692707061767578125</LongitudeDegrees>
            </Position>
            <AltitudeMeters>817.5999755859375</AltitudeMeters>
            <DistanceMeters>NAN</DistanceMeters>
          </Trackpoint>
          <Trackpoint>
            <Time>2020-12-05T13:54:20.000Z</Time>
            <Position>
              <LatitudeDegrees>36.81767891161143779754638671875</LatitudeDegrees>
              <LongitudeDegrees>-4.3812296725809574127197265625</LongitudeDegrees>
            </Position>
            <AltitudeMeters>817.5999755859375</AltitudeMeters>
            <DistanceMeters>NAN</DistanceMeters>
          </Trackpoint>
          <Trackpoint>
            <Time>2020-12-05T13:54:21.000Z</Time>
            <Position>
              <LatitudeDegrees>36.817682683467864990234375</LatitudeDegrees>
              <LongitudeDegrees>-4.38121986575424671173095703125</LongitudeDegrees>
            </Position>
            <AltitudeMeters>817.5999755859375</AltitudeMeters>
            <DistanceMeters>NAN</DistanceMeters>
          </Trackpoint>
          <Trackpoint>
            <Time>2020-12-05T13:54:22.000Z</Time>
            <Position>
              <LatitudeDegrees>36.8176862038671970367431640625</LatitudeDegrees>
              <LongitudeDegrees>-4.38120930455625057220458984375</LongitudeDegrees>
            </Position>
            <AltitudeMeters>817.5999755859375</AltitudeMeters>
            <DistanceMeters>NAN</DistanceMeters>
          </Trackpoint>
          <Trackpoint>
            <Time>2020-12-05T13:54:23.000Z</Time>
            <Position>
              <LatitudeDegrees>36.8176912330090999603271484375</LatitudeDegrees>
              <LongitudeDegrees>-4.381196983158588409423828125</LongitudeDegrees>
            </Position>
            <AltitudeMeters>817.5999755859375</AltitudeMeters>
            <DistanceMeters>NAN</DistanceMeters>
          </Trackpoint>
          <Trackpoint>
            <Time>2020-12-05T13:54:24.000Z</Time>
            <Position>
              <LatitudeDegrees>36.81769718416035175323486328125</LatitudeDegrees>
              <LongitudeDegrees>-4.38118499703705310821533203125</LongitudeDegrees>
            </Position>
            <AltitudeMeters>817.79998779296875</AltitudeMeters>
            <DistanceMeters>NAN</DistanceMeters>
          </Trackpoint>
          <Trackpoint>
            <Time>2020-12-05T13:54:25.000Z</Time>
            <Position>
              <LatitudeDegrees>36.81770523078739643096923828125</LatitudeDegrees>
              <LongitudeDegrees>-4.38117720186710357666015625</LongitudeDegrees>
            </Position>
            <AltitudeMeters>817.79998779296875</AltitudeMeters>
            <DistanceMeters>NAN</DistanceMeters>
          </Trackpoint>
          <Trackpoint>
            <Time>2020-12-05T13:54:26.000Z</Time>
            <Position>
              <LatitudeDegrees>36.81771310977637767791748046875</LatitudeDegrees>
              <LongitudeDegrees>-4.38117259182035923004150390625</LongitudeDegrees>
            </Position>
            <AltitudeMeters>818</AltitudeMeters>
            <DistanceMeters>NAN</DistanceMeters>
          </Trackpoint>
          <Trackpoint>
            <Time>2020-12-05T13:54:27.000Z</Time>
            <Position>
              <LatitudeDegrees>36.8177224136888980865478515625</LatitudeDegrees>
              <LongitudeDegrees>-4.3811656348407268524169921875</LongitudeDegrees>
            </Position>
            <AltitudeMeters>818.20001220703125</AltitudeMeters>
            <DistanceMeters>NAN</DistanceMeters>
          </Trackpoint>
          <Trackpoint>
            <Time>2020-12-05T13:54:28.000Z</Time>
            <Position>
              <LatitudeDegrees>36.81773423217236995697021484375</LatitudeDegrees>
              <LongitudeDegrees>-4.381156079471111297607421875</LongitudeDegrees>
            </Position>
            <AltitudeMeters>818.20001220703125</AltitudeMeters>
            <DistanceMeters>NAN</DistanceMeters>
          </Trackpoint>
          <Trackpoint>
            <Time>2020-12-05T13:54:29.000Z</Time>
            <Position>
              <LatitudeDegrees>36.81774462573230266571044921875</LatitudeDegrees>
              <LongitudeDegrees>-4.381147362291812896728515625</LongitudeDegrees>
            </Position>
            <AltitudeMeters>818.4000244140625</AltitudeMeters>
            <DistanceMeters>NAN</DistanceMeters>
          </Trackpoint>
          <Trackpoint>
            <Time>2020-12-05T13:54:30.000Z</Time>
            <Position>
              <LatitudeDegrees>36.8177569471299648284912109375</LatitudeDegrees>
              <LongitudeDegrees>-4.38113638199865818023681640625</LongitudeDegrees>
            </Position>
            <AltitudeMeters>818.4000244140625</AltitudeMeters>
            <DistanceMeters>NAN</DistanceMeters>
          </Trackpoint>
          <Trackpoint>
            <Time>2020-12-05T13:54:31.000Z</Time>
            <Position>
              <LatitudeDegrees>36.8177743814885616302490234375</LatitudeDegrees>
              <LongitudeDegrees>-4.38112716190516948699951171875</LongitudeDegrees>
            </Position>
            <AltitudeMeters>818.4000244140625</AltitudeMeters>
            <DistanceMeters>NAN</DistanceMeters>
          </Trackpoint>
          <Trackpoint>
            <Time>2020-12-05T13:54:32.000Z</Time>
            <Position>
              <LatitudeDegrees>36.8177837692201137542724609375</LatitudeDegrees>
              <LongitudeDegrees>-4.3811217136681079864501953125</LongitudeDegrees>
            </Position>
            <AltitudeMeters>818.4000244140625</AltitudeMeters>
            <DistanceMeters>NAN</DistanceMeters>
          </Trackpoint>
          <Trackpoint>
            <Time>2020-12-05T13:54:33.000Z</Time>
            <Position>
              <LatitudeDegrees>36.817792989313602447509765625</LatitudeDegrees>
              <LongitudeDegrees>-4.38111291266977787017822265625</LongitudeDegrees>
            </Position>
            <AltitudeMeters>818.4000244140625</AltitudeMeters>
            <DistanceMeters>NAN</DistanceMeters>
          </Trackpoint>
          <Trackpoint>
            <Time>2020-12-05T13:54:34.000Z</Time>
            <Position>
              <LatitudeDegrees>36.817800700664520263671875</LatitudeDegrees>
              <LongitudeDegrees>-4.38110453076660633087158203125</LongitudeDegrees>
            </Position>
            <AltitudeMeters>818.4000244140625</AltitudeMeters>
            <DistanceMeters>NAN</DistanceMeters>
          </Trackpoint>
          <Trackpoint>
            <Time>2020-12-05T13:54:35.000Z</Time>
            <Position>
              <LatitudeDegrees>36.8178095854818820953369140625</LatitudeDegrees>
              <LongitudeDegrees>-4.38109681941568851470947265625</LongitudeDegrees>
            </Position>
            <AltitudeMeters>818.5999755859375</AltitudeMeters>
            <DistanceMeters>NAN</DistanceMeters>
          </Trackpoint>
          <Trackpoint>
            <Time>2020-12-05T13:54:36.000Z</Time>
            <Position>
              <LatitudeDegrees>36.81781955994665622711181640625</LatitudeDegrees>
              <LongitudeDegrees>-4.38108743168413639068603515625</LongitudeDegrees>
            </Position>
            <AltitudeMeters>818.79998779296875</AltitudeMeters>
            <DistanceMeters>NAN</DistanceMeters>
          </Trackpoint>
          <Trackpoint>
            <Time>2020-12-05T13:54:37.000Z</Time>
            <Position>
              <LatitudeDegrees>36.81782727129757404327392578125</LatitudeDegrees>
              <LongitudeDegrees>-4.38107938505709171295166015625</LongitudeDegrees>
            </Position>
            <AltitudeMeters>819.20001220703125</AltitudeMeters>
            <DistanceMeters>NAN</DistanceMeters>
          </Trackpoint>
          <Trackpoint>
            <Time>2020-12-05T13:54:38.000Z</Time>
            <Position>
              <LatitudeDegrees>36.81783565320074558258056640625</LatitudeDegrees>
              <LongitudeDegrees>-4.38106991350650787353515625</LongitudeDegrees>
            </Position>
            <AltitudeMeters>819.20001220703125</AltitudeMeters>
            <DistanceMeters>NAN</DistanceMeters>
          </Trackpoint>
          <Trackpoint>
            <Time>2020-12-05T13:54:39.000Z</Time>
            <Position>
              <LatitudeDegrees>36.8178444541990756988525390625</LatitudeDegrees>
              <LongitudeDegrees>-4.38106077723205089569091796875</LongitudeDegrees>
            </Position>
            <AltitudeMeters>819.20001220703125</AltitudeMeters>
            <DistanceMeters>NAN</DistanceMeters>
          </Trackpoint>
          <Trackpoint>
            <Time>2020-12-05T13:54:40.000Z</Time>
            <Position>
              <LatitudeDegrees>36.81785166263580322265625</LatitudeDegrees>
              <LongitudeDegrees>-4.38105306588113307952880859375</LongitudeDegrees>
            </Position>
            <AltitudeMeters>819.4000244140625</AltitudeMeters>
            <DistanceMeters>NAN</DistanceMeters>
          </Trackpoint>
          <Trackpoint>
            <Time>2020-12-05T13:54:41.000Z</Time>
            <Position>
              <LatitudeDegrees>36.81786037981510162353515625</LatitudeDegrees>
              <LongitudeDegrees>-4.38104233704507350921630859375</LongitudeDegrees>
            </Position>
            <AltitudeMeters>819.4000244140625</AltitudeMeters>
            <DistanceMeters>NAN</DistanceMeters>
          </Trackpoint>
          <Trackpoint>
            <Time>2020-12-05T13:54:42.000Z</Time>
            <Position>
              <LatitudeDegrees>36.81786951608955860137939453125</LatitudeDegrees>
              <LongitudeDegrees>-4.38103278167545795440673828125</LongitudeDegrees>
            </Position>
            <AltitudeMeters>819.4000244140625</AltitudeMeters>
            <DistanceMeters>NAN</DistanceMeters>
          </Trackpoint>
          <Trackpoint>
            <Time>2020-12-05T13:54:43.000Z</Time>
            <Position>
              <LatitudeDegrees>36.81787990964949131011962890625</LatitudeDegrees>
              <LongitudeDegrees>-4.3810238130390644073486328125</LongitudeDegrees>
            </Position>
            <AltitudeMeters>819.4000244140625</AltitudeMeters>
            <DistanceMeters>NAN</DistanceMeters>
          </Trackpoint>
          <Trackpoint>
            <Time>2020-12-05T13:54:44.000Z</Time>
            <Position>
              <LatitudeDegrees>36.81788896210491657257080078125</LatitudeDegrees>
              <LongitudeDegrees>-4.38101735897362232208251953125</LongitudeDegrees>
            </Position>
            <AltitudeMeters>819.4000244140625</AltitudeMeters>
            <DistanceMeters>NAN</DistanceMeters>
          </Trackpoint>
          <Trackpoint>
            <Time>2020-12-05T13:54:45.000Z</Time>
            <Position>
              <LatitudeDegrees>36.8178984336555004119873046875</LatitudeDegrees>
              <LongitudeDegrees>-4.38101232983171939849853515625</LongitudeDegrees>
            </Position>
            <AltitudeMeters>819.20001220703125</AltitudeMeters>
            <DistanceMeters>NAN</DistanceMeters>
          </Trackpoint>
          <Trackpoint>
            <Time>2020-12-05T13:54:46.000Z</Time>
            <Position>
              <LatitudeDegrees>36.81790539063513278961181640625</LatitudeDegrees>
              <LongitudeDegrees>-4.38100763596594333648681640625</LongitudeDegrees>
            </Position>
            <AltitudeMeters>819.20001220703125</AltitudeMeters>
            <DistanceMeters>NAN</DistanceMeters>
          </Trackpoint>
          <Trackpoint>
            <Time>2020-12-05T13:54:47.000Z</Time>
            <Position>
              <LatitudeDegrees>36.8179128505289554595947265625</LatitudeDegrees>
              <LongitudeDegrees>-4.38100227154791355133056640625</LongitudeDegrees>
            </Position>
            <AltitudeMeters>819.4000244140625</AltitudeMeters>
            <DistanceMeters>NAN</DistanceMeters>
          </Trackpoint>
          <Trackpoint>
            <Time>2020-12-05T13:54:48.000Z</Time>
            <Position>
              <LatitudeDegrees>36.8179188854992389678955078125</LatitudeDegrees>
              <LongitudeDegrees>-4.38099883496761322021484375</LongitudeDegrees>
            </Position>
            <AltitudeMeters>819.4000244140625</AltitudeMeters>
            <DistanceMeters>NAN</DistanceMeters>
          </Trackpoint>
          <Trackpoint>
            <Time>2020-12-05T13:54:49.000Z</Time>
            <Position>
              <LatitudeDegrees>36.81792475283145904541015625</LatitudeDegrees>
              <LongitudeDegrees>-4.38099472783505916595458984375</LongitudeDegrees>
            </Position>
            <AltitudeMeters>819.4000244140625</AltitudeMeters>
            <DistanceMeters>NAN</DistanceMeters>
          </Trackpoint>
          <Trackpoint>
            <Time>2020-12-05T13:54:50.000Z</Time>
            <Position>
              <LatitudeDegrees>36.817931793630123138427734375</LatitudeDegrees>
              <LongitudeDegrees>-4.380989782512187957763671875</LongitudeDegrees>
            </Position>
            <AltitudeMeters>819.4000244140625</AltitudeMeters>
            <DistanceMeters>NAN</DistanceMeters>
          </Trackpoint>
          <Trackpoint>
            <Time>2020-12-05T13:54:51.000Z</Time>
            <Position>
              <LatitudeDegrees>36.81794361211359500885009765625</LatitudeDegrees>
              <LongitudeDegrees>-4.380982406437397003173828125</LongitudeDegrees>
            </Position>
            <AltitudeMeters>819.4000244140625</AltitudeMeters>
            <DistanceMeters>NAN</DistanceMeters>
          </Trackpoint>
          <Trackpoint>
            <Time>2020-12-05T13:54:52.000Z</Time>
            <Position>
              <LatitudeDegrees>36.81795937009155750274658203125</LatitudeDegrees>
              <LongitudeDegrees>-4.3809715099632740020751953125</LongitudeDegrees>
            </Position>
            <AltitudeMeters>819.5999755859375</AltitudeMeters>
            <DistanceMeters>NAN</DistanceMeters>
          </Trackpoint>
          <Trackpoint>
            <Time>2020-12-05T13:54:53.000Z</Time>
            <Position>
              <LatitudeDegrees>36.81797043420374393463134765625</LatitudeDegrees>
              <LongitudeDegrees>-4.38096187077462673187255859375</LongitudeDegrees>
            </Position>
            <AltitudeMeters>819.5999755859375</AltitudeMeters>
            <DistanceMeters>NAN</DistanceMeters>
          </Trackpoint>
          <Trackpoint>
            <Time>2020-12-05T13:54:54.000Z</Time>
            <Position>
              <LatitudeDegrees>36.8179822526872158050537109375</LatitudeDegrees>
              <LongitudeDegrees>-4.38095332123339176177978515625</LongitudeDegrees>
            </Position>
            <AltitudeMeters>819.5999755859375</AltitudeMeters>
            <DistanceMeters>NAN</DistanceMeters>
          </Trackpoint>
          <Trackpoint>
            <Time>2020-12-05T13:54:55.000Z</Time>
            <Position>
              <LatitudeDegrees>36.81799340061843395233154296875</LatitudeDegrees>
              <LongitudeDegrees>-4.38094443641602993011474609375</LongitudeDegrees>
            </Position>
            <AltitudeMeters>819.79998779296875</AltitudeMeters>
            <DistanceMeters>NAN</DistanceMeters>
          </Trackpoint>
          <Trackpoint>
            <Time>2020-12-05T13:54:56.000Z</Time>
            <Position>
              <LatitudeDegrees>36.81801016442477703094482421875</LatitudeDegrees>
              <LongitudeDegrees>-4.3809275887906551361083984375</LongitudeDegrees>
            </Position>
            <AltitudeMeters>819.79998779296875</AltitudeMeters>
            <DistanceMeters>NAN</DistanceMeters>
          </Trackpoint>
          <Trackpoint>
            <Time>2020-12-05T13:54:57.000Z</Time>
            <Position>
              <LatitudeDegrees>36.8180255033075809478759765625</LatitudeDegrees>
              <LongitudeDegrees>-4.38090763986110687255859375</LongitudeDegrees>
            </Position>
            <AltitudeMeters>819.79998779296875</AltitudeMeters>
            <DistanceMeters>NAN</DistanceMeters>
          </Trackpoint>
          <Trackpoint>
            <Time>2020-12-05T13:54:58.000Z</Time>
            <Position>
              <LatitudeDegrees>36.81803028099238872528076171875</LatitudeDegrees>
              <LongitudeDegrees>-4.38089632429182529449462890625</LongitudeDegrees>
            </Position>
            <AltitudeMeters>819.79998779296875</AltitudeMeters>
            <DistanceMeters>NAN</DistanceMeters>
          </Trackpoint>
          <Trackpoint>
            <Time>2020-12-05T13:54:59.000Z</Time>
            <Position>
              <LatitudeDegrees>36.81803463958203792572021484375</LatitudeDegrees>
              <LongitudeDegrees>-4.380883835256099700927734375</LongitudeDegrees>
            </Position>
            <AltitudeMeters>819.79998779296875</AltitudeMeters>
            <DistanceMeters>NAN</DistanceMeters>
          </Trackpoint>
          <Trackpoint>
            <Time>2020-12-05T13:55:00.000Z</Time>
            <Position>
              <LatitudeDegrees>36.81803765706717967987060546875</LatitudeDegrees>
              <LongitudeDegrees>-4.38087101094424724578857421875</LongitudeDegrees>
            </Position>
            <AltitudeMeters>819.79998779296875</AltitudeMeters>
            <DistanceMeters>NAN</DistanceMeters>
          </Trackpoint>
          <Trackpoint>
            <Time>2020-12-05T13:55:01.000Z</Time>
            <Position>
              <LatitudeDegrees>36.8180365674197673797607421875</LatitudeDegrees>
              <LongitudeDegrees>-4.38085156492888927459716796875</LongitudeDegrees>
            </Position>
            <AltitudeMeters>819.79998779296875</AltitudeMeters>
            <DistanceMeters>NAN</DistanceMeters>
          </Trackpoint>
          <Trackpoint>
            <Time>2020-12-05T13:55:02.000Z</Time>
            <Position>
              <LatitudeDegrees>36.81803380139172077178955078125</LatitudeDegrees>
              <LongitudeDegrees>-4.3808337114751338958740234375</LongitudeDegrees>
            </Position>
            <AltitudeMeters>819.79998779296875</AltitudeMeters>
            <DistanceMeters>NAN</DistanceMeters>
          </Trackpoint>
          <Trackpoint>
            <Time>2020-12-05T13:55:03.000Z</Time>
            <Position>
              <LatitudeDegrees>36.818031370639801025390625</LatitudeDegrees>
              <LongitudeDegrees>-4.38081552274525165557861328125</LongitudeDegrees>
            </Position>
            <AltitudeMeters>819.79998779296875</AltitudeMeters>
            <DistanceMeters>NAN</DistanceMeters>
          </Trackpoint>
          <Trackpoint>
            <Time>2020-12-05T13:55:04.000Z</Time>
            <Position>
              <LatitudeDegrees>36.81802910752594470977783203125</LatitudeDegrees>
              <LongitudeDegrees>-4.380800686776638031005859375</LongitudeDegrees>
            </Position>
            <AltitudeMeters>820</AltitudeMeters>
            <DistanceMeters>NAN</DistanceMeters>
          </Trackpoint>
          <Trackpoint>
            <Time>2020-12-05T13:55:05.000Z</Time>
            <Position>
              <LatitudeDegrees>36.81802877224981784820556640625</LatitudeDegrees>
              <LongitudeDegrees>-4.3807897903025150299072265625</LongitudeDegrees>
            </Position>
            <AltitudeMeters>820</AltitudeMeters>
            <DistanceMeters>NAN</DistanceMeters>
          </Trackpoint>
          <Trackpoint>
            <Time>2020-12-05T13:55:06.000Z</Time>
            <Position>
              <LatitudeDegrees>36.81802776642143726348876953125</LatitudeDegrees>
              <LongitudeDegrees>-4.3807881139218807220458984375</LongitudeDegrees>
            </Position>
            <AltitudeMeters>820</AltitudeMeters>
            <DistanceMeters>NAN</DistanceMeters>
          </Trackpoint>
          <Trackpoint>
            <Time>2020-12-05T13:55:07.000Z</Time>
            <Position>
              <LatitudeDegrees>36.8180295266211032867431640625</LatitudeDegrees>
              <LongitudeDegrees>-4.38079473562538623809814453125</LongitudeDegrees>
            </Position>
            <AltitudeMeters>820.20001220703125</AltitudeMeters>
            <DistanceMeters>NAN</DistanceMeters>
          </Trackpoint>
          <Trackpoint>
            <Time>2020-12-05T13:55:08.000Z</Time>
            <Position>
              <LatitudeDegrees>36.8180305324494838714599609375</LatitudeDegrees>
              <LongitudeDegrees>-4.38079741783440113067626953125</LongitudeDegrees>
            </Position>
            <AltitudeMeters>820.20001220703125</AltitudeMeters>
            <DistanceMeters>NAN</DistanceMeters>
          </Trackpoint>
          <Trackpoint>
            <Time>2020-12-05T13:55:09.000Z</Time>
            <Position>
              <LatitudeDegrees>36.818029023706912994384765625</LatitudeDegrees>
              <LongitudeDegrees>-4.3807991780340671539306640625</LongitudeDegrees>
            </Position>
            <AltitudeMeters>820.4000244140625</AltitudeMeters>
            <DistanceMeters>NAN</DistanceMeters>
          </Trackpoint>
          <Trackpoint>
            <Time>2020-12-05T13:55:10.000Z</Time>
            <Position>
              <LatitudeDegrees>36.81802776642143726348876953125</LatitudeDegrees>
              <LongitudeDegrees>-4.38080060295760631561279296875</LongitudeDegrees>
            </Position>
            <AltitudeMeters>820.4000244140625</AltitudeMeters>
            <DistanceMeters>NAN</DistanceMeters>
          </Trackpoint>
          <Trackpoint>
            <Time>2020-12-05T13:55:11.000Z</Time>
            <Position>
              <LatitudeDegrees>36.8180255033075809478759765625</LatitudeDegrees>
              <LongitudeDegrees>-4.3807996809482574462890625</LongitudeDegrees>
            </Position>
            <AltitudeMeters>820.4000244140625</AltitudeMeters>
            <DistanceMeters>NAN</DistanceMeters>
          </Trackpoint>
          <Trackpoint>
            <Time>2020-12-05T13:55:12.000Z</Time>
            <Position>
              <LatitudeDegrees>36.8180238269269466400146484375</LatitudeDegrees>
              <LongitudeDegrees>-4.3807969987392425537109375</LongitudeDegrees>
            </Position>
            <AltitudeMeters>820.4000244140625</AltitudeMeters>
            <DistanceMeters>NAN</DistanceMeters>
          </Trackpoint>
          <Trackpoint>
            <Time>2020-12-05T13:55:13.000Z</Time>
            <Position>
              <LatitudeDegrees>36.81801863014698028564453125</LatitudeDegrees>
              <LongitudeDegrees>-4.3807916343212127685546875</LongitudeDegrees>
            </Position>
            <AltitudeMeters>820.20001220703125</AltitudeMeters>
            <DistanceMeters>NAN</DistanceMeters>
          </Trackpoint>
          <Trackpoint>
            <Time>2020-12-05T13:55:14.000Z</Time>
            <Position>
              <LatitudeDegrees>36.81801251135766506195068359375</LatitudeDegrees>
              <LongitudeDegrees>-4.38078484497964382171630859375</LongitudeDegrees>
            </Position>
            <AltitudeMeters>820</AltitudeMeters>
            <DistanceMeters>NAN</DistanceMeters>
          </Trackpoint>
          <Trackpoint>
            <Time>2020-12-05T13:55:15.000Z</Time>
            <Position>
              <LatitudeDegrees>36.8180080689489841461181640625</LatitudeDegrees>
              <LongitudeDegrees>-4.380776546895503997802734375</LongitudeDegrees>
            </Position>
            <AltitudeMeters>820</AltitudeMeters>
            <DistanceMeters>NAN</DistanceMeters>
          </Trackpoint>
          <Trackpoint>
            <Time>2020-12-05T13:55:16.000Z</Time>
            <Position>
              <LatitudeDegrees>36.81800396181643009185791015625</LatitudeDegrees>
              <LongitudeDegrees>-4.3807770498096942901611328125</LongitudeDegrees>
            </Position>
            <AltitudeMeters>820</AltitudeMeters>
            <DistanceMeters>NAN</DistanceMeters>
          </Trackpoint>
          <Trackpoint>
            <Time>2020-12-05T13:55:17.000Z</Time>
            <Position>
              <LatitudeDegrees>36.8179973401129245758056640625</LatitudeDegrees>
              <LongitudeDegrees>-4.380783252418041229248046875</LongitudeDegrees>
            </Position>
            <AltitudeMeters>820</AltitudeMeters>
            <DistanceMeters>NAN</DistanceMeters>
          </Trackpoint>
          <Trackpoint>
            <Time>2020-12-05T13:55:18.000Z</Time>
            <Position>
              <LatitudeDegrees>36.81799306534230709075927734375</LatitudeDegrees>
              <LongitudeDegrees>-4.38078450970351696014404296875</LongitudeDegrees>
            </Position>
            <AltitudeMeters>820</AltitudeMeters>
            <DistanceMeters>NAN</DistanceMeters>
          </Trackpoint>
          <Trackpoint>
            <Time>2020-12-05T13:55:19.000Z</Time>
            <Position>
              <LatitudeDegrees>36.81798937730491161346435546875</LatitudeDegrees>
              <LongitudeDegrees>-4.38078132458031177520751953125</LongitudeDegrees>
            </Position>
            <AltitudeMeters>820</AltitudeMeters>
            <DistanceMeters>NAN</DistanceMeters>
          </Trackpoint>
          <Trackpoint>
            <Time>2020-12-05T13:55:20.000Z</Time>
            <Position>
              <LatitudeDegrees>36.81798585690557956695556640625</LatitudeDegrees>
              <LongitudeDegrees>-4.38077579252421855926513671875</LongitudeDegrees>
            </Position>
            <AltitudeMeters>820</AltitudeMeters>
            <DistanceMeters>NAN</DistanceMeters>
          </Trackpoint>
          <Trackpoint>
            <Time>2020-12-05T13:55:21.000Z</Time>
            <Position>
              <LatitudeDegrees>36.8179792352020740509033203125</LatitudeDegrees>
              <LongitudeDegrees>-4.38076942227780818939208984375</LongitudeDegrees>
            </Position>
            <AltitudeMeters>820</AltitudeMeters>
            <DistanceMeters>NAN</DistanceMeters>
          </Trackpoint>
          <Trackpoint>
            <Time>2020-12-05T13:55:22.000Z</Time>
            <Position>
              <LatitudeDegrees>36.81797144003212451934814453125</LatitudeDegrees>
              <LongitudeDegrees>-4.38076204620301723480224609375</LongitudeDegrees>
            </Position>
            <AltitudeMeters>820</AltitudeMeters>
            <DistanceMeters>NAN</DistanceMeters>
          </Trackpoint>
          <Trackpoint>
            <Time>2020-12-05T13:55:23.000Z</Time>
            <Position>
              <LatitudeDegrees>36.8179597891867160797119140625</LatitudeDegrees>
              <LongitudeDegrees>-4.3807529099285602569580078125</LongitudeDegrees>
            </Position>
            <AltitudeMeters>820</AltitudeMeters>
            <DistanceMeters>NAN</DistanceMeters>
          </Trackpoint>
          <Trackpoint>
            <Time>2020-12-05T13:55:24.000Z</Time>
            <Position>
              <LatitudeDegrees>36.81794914416968822479248046875</LatitudeDegrees>
              <LongitudeDegrees>-4.38074310310184955596923828125</LongitudeDegrees>
            </Position>
            <AltitudeMeters>820</AltitudeMeters>
            <DistanceMeters>NAN</DistanceMeters>
          </Trackpoint>
          <Trackpoint>
            <Time>2020-12-05T13:55:25.000Z</Time>
            <Position>
              <LatitudeDegrees>36.81794025935232639312744140625</LatitudeDegrees>
              <LongitudeDegrees>-4.38073388300836086273193359375</LongitudeDegrees>
            </Position>
            <AltitudeMeters>820</AltitudeMeters>
            <DistanceMeters>NAN</DistanceMeters>
          </Trackpoint>
          <Trackpoint>
            <Time>2020-12-05T13:55:26.000Z</Time>
            <Position>
              <LatitudeDegrees>36.81793271563947200775146484375</LatitudeDegrees>
              <LongitudeDegrees>-4.38072399236261844635009765625</LongitudeDegrees>
            </Position>
            <AltitudeMeters>820</AltitudeMeters>
            <DistanceMeters>NAN</DistanceMeters>
          </Trackpoint>
          <Trackpoint>
            <Time>2020-12-05T13:55:27.000Z</Time>
            <Position>
              <LatitudeDegrees>36.8179262615740299224853515625</LatitudeDegrees>
              <LongitudeDegrees>-4.3807140178978443145751953125</LongitudeDegrees>
            </Position>
            <AltitudeMeters>820</AltitudeMeters>
            <DistanceMeters>NAN</DistanceMeters>
          </Trackpoint>
          <Trackpoint>
            <Time>2020-12-05T13:55:28.000Z</Time>
            <Position>
              <LatitudeDegrees>36.81791829876601696014404296875</LatitudeDegrees>
              <LongitudeDegrees>-4.38070454634726047515869140625</LongitudeDegrees>
            </Position>
            <AltitudeMeters>820.20001220703125</AltitudeMeters>
            <DistanceMeters>NAN</DistanceMeters>
          </Trackpoint>
          <Trackpoint>
            <Time>2020-12-05T13:55:29.000Z</Time>
            <Position>
              <LatitudeDegrees>36.81790958158671855926513671875</LatitudeDegrees>
              <LongitudeDegrees>-4.3806939013302326202392578125</LongitudeDegrees>
            </Position>
            <AltitudeMeters>820.20001220703125</AltitudeMeters>
            <DistanceMeters>NAN</DistanceMeters>
          </Trackpoint>
          <Trackpoint>
            <Time>2020-12-05T13:55:30.000Z</Time>
            <Position>
              <LatitudeDegrees>36.8179024569690227508544921875</LatitudeDegrees>
              <LongitudeDegrees>-4.38068241812288761138916015625</LongitudeDegrees>
            </Position>
            <AltitudeMeters>820.4000244140625</AltitudeMeters>
            <DistanceMeters>NAN</DistanceMeters>
          </Trackpoint>
          <Trackpoint>
            <Time>2020-12-05T13:55:31.000Z</Time>
            <Position>
              <LatitudeDegrees>36.81789549998939037322998046875</LatitudeDegrees>
              <LongitudeDegrees>-4.3806734494864940643310546875</LongitudeDegrees>
            </Position>
            <AltitudeMeters>820.5999755859375</AltitudeMeters>
            <DistanceMeters>NAN</DistanceMeters>
          </Trackpoint>
          <Trackpoint>
            <Time>2020-12-05T13:55:32.000Z</Time>
            <Position>
              <LatitudeDegrees>36.81789047084748744964599609375</LatitudeDegrees>
              <LongitudeDegrees>-4.38066833652555942535400390625</LongitudeDegrees>
            </Position>
            <AltitudeMeters>820.5999755859375</AltitudeMeters>
            <DistanceMeters>NAN</DistanceMeters>
          </Trackpoint>
          <Trackpoint>
            <Time>2020-12-05T13:55:33.000Z</Time>
            <Position>
              <LatitudeDegrees>36.81788560934364795684814453125</LatitudeDegrees>
              <LongitudeDegrees>-4.38066112808883190155029296875</LongitudeDegrees>
            </Position>
            <AltitudeMeters>820.5999755859375</AltitudeMeters>
            <DistanceMeters>NAN</DistanceMeters>
          </Trackpoint>
          <Trackpoint>
            <Time>2020-12-05T13:55:34.000Z</Time>
            <Position>
              <LatitudeDegrees>36.81787923909723758697509765625</LatitudeDegrees>
              <LongitudeDegrees>-4.38065291382372379302978515625</LongitudeDegrees>
            </Position>
            <AltitudeMeters>820.5999755859375</AltitudeMeters>
            <DistanceMeters>NAN</DistanceMeters>
          </Trackpoint>
          <Trackpoint>
            <Time>2020-12-05T13:55:35.000Z</Time>
            <Position>
              <LatitudeDegrees>36.81787244975566864013671875</LatitudeDegrees>
              <LongitudeDegrees>-4.3806432746350765228271484375</LongitudeDegrees>
            </Position>
            <AltitudeMeters>820.5999755859375</AltitudeMeters>
            <DistanceMeters>NAN</DistanceMeters>
          </Trackpoint>
          <Trackpoint>
            <Time>2020-12-05T13:55:36.000Z</Time>
            <Position>
              <LatitudeDegrees>36.81786348111927509307861328125</LatitudeDegrees>
              <LongitudeDegrees>-4.3806318752467632293701171875</LongitudeDegrees>
            </Position>
            <AltitudeMeters>820.5999755859375</AltitudeMeters>
            <DistanceMeters>NAN</DistanceMeters>
          </Trackpoint>
          <Trackpoint>
            <Time>2020-12-05T13:55:37.000Z</Time>
            <Position>
              <LatitudeDegrees>36.81785375811159610748291015625</LatitudeDegrees>
              <LongitudeDegrees>-4.38062139786779880523681640625</LongitudeDegrees>
            </Position>
            <AltitudeMeters>820.5999755859375</AltitudeMeters>
            <DistanceMeters>NAN</DistanceMeters>
          </Trackpoint>
          <Trackpoint>
            <Time>2020-12-05T13:55:38.000Z</Time>
            <Position>
              <LatitudeDegrees>36.8178447894752025604248046875</LatitudeDegrees>
              <LongitudeDegrees>-4.38060815446078777313232421875</LongitudeDegrees>
            </Position>
            <AltitudeMeters>820.5999755859375</AltitudeMeters>
            <DistanceMeters>NAN</DistanceMeters>
          </Trackpoint>
          <Trackpoint>
            <Time>2020-12-05T13:55:39.000Z</Time>
            <Position>
              <LatitudeDegrees>36.81783498264849185943603515625</LatitudeDegrees>
              <LongitudeDegrees>-4.3805949948728084564208984375</LongitudeDegrees>
            </Position>
            <AltitudeMeters>820.5999755859375</AltitudeMeters>
            <DistanceMeters>NAN</DistanceMeters>
          </Trackpoint>
          <Trackpoint>
            <Time>2020-12-05T13:55:40.000Z</Time>
            <Position>
              <LatitudeDegrees>36.8178256787359714508056640625</LatitudeDegrees>
              <LongitudeDegrees>-4.380582086741924285888671875</LongitudeDegrees>
            </Position>
            <AltitudeMeters>820.5999755859375</AltitudeMeters>
            <DistanceMeters>NAN</DistanceMeters>
          </Trackpoint>
          <Trackpoint>
            <Time>2020-12-05T13:55:41.000Z</Time>
            <Position>
              <LatitudeDegrees>36.81781587190926074981689453125</LatitudeDegrees>
              <LongitudeDegrees>-4.38056968152523040771484375</LongitudeDegrees>
            </Position>
            <AltitudeMeters>820.5999755859375</AltitudeMeters>
            <DistanceMeters>NAN</DistanceMeters>
          </Trackpoint>
          <Trackpoint>
            <Time>2020-12-05T13:55:42.000Z</Time>
            <Position>
              <LatitudeDegrees>36.81780715472996234893798828125</LatitudeDegrees>
              <LongitudeDegrees>-4.3805607967078685760498046875</LongitudeDegrees>
            </Position>
            <AltitudeMeters>820.5999755859375</AltitudeMeters>
            <DistanceMeters>NAN</DistanceMeters>
          </Trackpoint>
          <Trackpoint>
            <Time>2020-12-05T13:55:43.000Z</Time>
            <Position>
              <LatitudeDegrees>36.817799694836139678955078125</LatitudeDegrees>
              <LongitudeDegrees>-4.38055367209017276763916015625</LongitudeDegrees>
            </Position>
            <AltitudeMeters>820.79998779296875</AltitudeMeters>
            <DistanceMeters>NAN</DistanceMeters>
          </Trackpoint>
          <Trackpoint>
            <Time>2020-12-05T13:55:44.000Z</Time>
            <Position>
              <LatitudeDegrees>36.8177918158471584320068359375</LatitudeDegrees>
              <LongitudeDegrees>-4.38054629601538181304931640625</LongitudeDegrees>
            </Position>
            <AltitudeMeters>820.79998779296875</AltitudeMeters>
            <DistanceMeters>NAN</DistanceMeters>
          </Trackpoint>
          <Trackpoint>
            <Time>2020-12-05T13:55:45.000Z</Time>
            <Position>
              <LatitudeDegrees>36.817782260477542877197265625</LatitudeDegrees>
              <LongitudeDegrees>-4.38053841702640056610107421875</LongitudeDegrees>
            </Position>
            <AltitudeMeters>820.79998779296875</AltitudeMeters>
            <DistanceMeters>NAN</DistanceMeters>
          </Trackpoint>
          <Trackpoint>
            <Time>2020-12-05T13:55:46.000Z</Time>
            <Position>
              <LatitudeDegrees>36.81777211837470531463623046875</LatitudeDegrees>
              <LongitudeDegrees>-4.38052835874259471893310546875</LongitudeDegrees>
            </Position>
            <AltitudeMeters>820.79998779296875</AltitudeMeters>
            <DistanceMeters>NAN</DistanceMeters>
          </Trackpoint>
          <Trackpoint>
            <Time>2020-12-05T13:55:47.000Z</Time>
            <Position>
              <LatitudeDegrees>36.81776273064315319061279296875</LatitudeDegrees>
              <LongitudeDegrees>-4.38051880337297916412353515625</LongitudeDegrees>
            </Position>
            <AltitudeMeters>820.79998779296875</AltitudeMeters>
            <DistanceMeters>NAN</DistanceMeters>
          </Trackpoint>
          <Trackpoint>
            <Time>2020-12-05T13:55:48.000Z</Time>
            <Position>
              <LatitudeDegrees>36.8177512474358081817626953125</LatitudeDegrees>
              <LongitudeDegrees>-4.3805128522217273712158203125</LongitudeDegrees>
            </Position>
            <AltitudeMeters>820.5999755859375</AltitudeMeters>
            <DistanceMeters>NAN</DistanceMeters>
          </Trackpoint>
          <Trackpoint>
            <Time>2020-12-05T13:55:49.000Z</Time>
            <Position>
              <LatitudeDegrees>36.8177401833236217498779296875</LatitudeDegrees>
              <LongitudeDegrees>-4.380507655441761016845703125</LongitudeDegrees>
            </Position>
            <AltitudeMeters>820.5999755859375</AltitudeMeters>
            <DistanceMeters>NAN</DistanceMeters>
          </Trackpoint>
          <Trackpoint>
            <Time>2020-12-05T13:55:50.000Z</Time>
            <Position>
              <LatitudeDegrees>36.81773004122078418731689453125</LatitudeDegrees>
              <LongitudeDegrees>-4.38050262629985809326171875</LongitudeDegrees>
            </Position>
            <AltitudeMeters>820.5999755859375</AltitudeMeters>
            <DistanceMeters>NAN</DistanceMeters>
          </Trackpoint>
          <Trackpoint>
            <Time>2020-12-05T13:55:51.000Z</Time>
            <Position>
              <LatitudeDegrees>36.81771847419440746307373046875</LatitudeDegrees>
              <LongitudeDegrees>-4.38049734570086002349853515625</LongitudeDegrees>
            </Position>
            <AltitudeMeters>820.4000244140625</AltitudeMeters>
            <DistanceMeters>NAN</DistanceMeters>
          </Trackpoint>
          <Trackpoint>
            <Time>2020-12-05T13:55:52.000Z</Time>
            <Position>
              <LatitudeDegrees>36.8177059851586818695068359375</LatitudeDegrees>
              <LongitudeDegrees>-4.3804890476167201995849609375</LongitudeDegrees>
            </Position>
            <AltitudeMeters>820.4000244140625</AltitudeMeters>
            <DistanceMeters>NAN</DistanceMeters>
          </Trackpoint>
          <Trackpoint>
            <Time>2020-12-05T13:55:53.000Z</Time>
            <Position>
              <LatitudeDegrees>36.81769349612295627593994140625</LatitudeDegrees>
              <LongitudeDegrees>-4.3804820068180561065673828125</LongitudeDegrees>
            </Position>
            <AltitudeMeters>820.4000244140625</AltitudeMeters>
            <DistanceMeters>NAN</DistanceMeters>
          </Trackpoint>
          <Trackpoint>
            <Time>2020-12-05T13:55:54.000Z</Time>
            <Position>
              <LatitudeDegrees>36.81768125854432582855224609375</LatitudeDegrees>
              <LongitudeDegrees>-4.38047437928617000579833984375</LongitudeDegrees>
            </Position>
            <AltitudeMeters>820.4000244140625</AltitudeMeters>
            <DistanceMeters>NAN</DistanceMeters>
          </Trackpoint>
          <Trackpoint>
            <Time>2020-12-05T13:55:55.000Z</Time>
            <Position>
              <LatitudeDegrees>36.8176707811653614044189453125</LatitudeDegrees>
              <LongitudeDegrees>-4.38046582974493503570556640625</LongitudeDegrees>
            </Position>
            <AltitudeMeters>820.20001220703125</AltitudeMeters>
            <DistanceMeters>NAN</DistanceMeters>
          </Trackpoint>
          <Trackpoint>
            <Time>2020-12-05T13:55:56.000Z</Time>
            <Position>
              <LatitudeDegrees>36.81766315363347530364990234375</LatitudeDegrees>
              <LongitudeDegrees>-4.38045761547982692718505859375</LongitudeDegrees>
            </Position>
            <AltitudeMeters>820.20001220703125</AltitudeMeters>
            <DistanceMeters>NAN</DistanceMeters>
          </Trackpoint>
          <Trackpoint>
            <Time>2020-12-05T13:55:57.000Z</Time>
            <Position>
              <LatitudeDegrees>36.81765644811093807220458984375</LatitudeDegrees>
              <LongitudeDegrees>-4.38045040704309940338134765625</LongitudeDegrees>
            </Position>
            <AltitudeMeters>820.20001220703125</AltitudeMeters>
            <DistanceMeters>NAN</DistanceMeters>
          </Trackpoint>
          <Trackpoint>
            <Time>2020-12-05T13:55:58.000Z</Time>
            <Position>
              <LatitudeDegrees>36.8176496587693691253662109375</LatitudeDegrees>
              <LongitudeDegrees>-4.38044236041605472564697265625</LongitudeDegrees>
            </Position>
            <AltitudeMeters>820.20001220703125</AltitudeMeters>
            <DistanceMeters>NAN</DistanceMeters>
          </Trackpoint>
          <Trackpoint>
            <Time>2020-12-05T13:55:59.000Z</Time>
            <Position>
              <LatitudeDegrees>36.81764152832329273223876953125</LatitudeDegrees>
              <LongitudeDegrees>-4.38043397851288318634033203125</LongitudeDegrees>
            </Position>
            <AltitudeMeters>820</AltitudeMeters>
            <DistanceMeters>NAN</DistanceMeters>
          </Trackpoint>
          <Trackpoint>
            <Time>2020-12-05T13:56:00.000Z</Time>
            <Position>
              <LatitudeDegrees>36.81763348169624805450439453125</LatitudeDegrees>
              <LongitudeDegrees>-4.380429871380329132080078125</LongitudeDegrees>
            </Position>
            <AltitudeMeters>820</AltitudeMeters>
            <DistanceMeters>NAN</DistanceMeters>
          </Trackpoint>
          <Trackpoint>
            <Time>2020-12-05T13:56:01.000Z</Time>
            <Position>
              <LatitudeDegrees>36.817624010145664215087890625</LatitudeDegrees>
              <LongitudeDegrees>-4.38042777590453624725341796875</LongitudeDegrees>
            </Position>
            <AltitudeMeters>820</AltitudeMeters>
            <DistanceMeters>NAN</DistanceMeters>
          </Trackpoint>
          <Trackpoint>
            <Time>2020-12-05T13:56:02.000Z</Time>
            <Position>
              <LatitudeDegrees>36.81761495769023895263671875</LatitudeDegrees>
              <LongitudeDegrees>-4.380425848066806793212890625</LongitudeDegrees>
            </Position>
            <AltitudeMeters>820.20001220703125</AltitudeMeters>
            <DistanceMeters>NAN</DistanceMeters>
          </Trackpoint>
          <Trackpoint>
            <Time>2020-12-05T13:56:03.000Z</Time>
            <Position>
              <LatitudeDegrees>36.8176057375967502593994140625</LatitudeDegrees>
              <LongitudeDegrees>-4.38042459078133106231689453125</LongitudeDegrees>
            </Position>
            <AltitudeMeters>820.20001220703125</AltitudeMeters>
            <DistanceMeters>NAN</DistanceMeters>
          </Trackpoint>
          <Trackpoint>
            <Time>2020-12-05T13:56:04.000Z</Time>
            <Position>
              <LatitudeDegrees>36.81759526021778583526611328125</LatitudeDegrees>
              <LongitudeDegrees>-4.38042324967682361602783203125</LongitudeDegrees>
            </Position>
            <AltitudeMeters>820.20001220703125</AltitudeMeters>
            <DistanceMeters>NAN</DistanceMeters>
          </Trackpoint>
          <Trackpoint>
            <Time>2020-12-05T13:56:05.000Z</Time>
            <Position>
              <LatitudeDegrees>36.81758277118206024169921875</LatitudeDegrees>
              <LongitudeDegrees>-4.38041872344911098480224609375</LongitudeDegrees>
            </Position>
            <AltitudeMeters>820.20001220703125</AltitudeMeters>
            <DistanceMeters>NAN</DistanceMeters>
          </Trackpoint>
          <Trackpoint>
            <Time>2020-12-05T13:56:06.000Z</Time>
            <Position>
              <LatitudeDegrees>36.81757070124149322509765625</LatitudeDegrees>
              <LongitudeDegrees>-4.380414448678493499755859375</LongitudeDegrees>
            </Position>
            <AltitudeMeters>820.4000244140625</AltitudeMeters>
            <DistanceMeters>NAN</DistanceMeters>
          </Trackpoint>
          <Trackpoint>
            <Time>2020-12-05T13:56:07.000Z</Time>
            <Position>
              <LatitudeDegrees>36.8175591342151165008544921875</LatitudeDegrees>
              <LongitudeDegrees>-4.38041419722139835357666015625</LongitudeDegrees>
            </Position>
            <AltitudeMeters>820.4000244140625</AltitudeMeters>
            <DistanceMeters>NAN</DistanceMeters>
          </Trackpoint>
          <Trackpoint>
            <Time>2020-12-05T13:56:08.000Z</Time>
            <Position>
              <LatitudeDegrees>36.81754882447421550750732421875</LatitudeDegrees>
              <LongitudeDegrees>-4.38041570596396923065185546875</LongitudeDegrees>
            </Position>
            <AltitudeMeters>820.20001220703125</AltitudeMeters>
            <DistanceMeters>NAN</DistanceMeters>
          </Trackpoint>
          <Trackpoint>
            <Time>2020-12-05T13:56:09.000Z</Time>
            <Position>
              <LatitudeDegrees>36.8175386823713779449462890625</LatitudeDegrees>
              <LongitudeDegrees>-4.38041805289685726165771484375</LongitudeDegrees>
            </Position>
            <AltitudeMeters>820.20001220703125</AltitudeMeters>
            <DistanceMeters>NAN</DistanceMeters>
          </Trackpoint>
          <Trackpoint>
            <Time>2020-12-05T13:56:10.000Z</Time>
            <Position>
              <LatitudeDegrees>36.81752669624984264373779296875</LatitudeDegrees>
              <LongitudeDegrees>-4.38042157329618930816650390625</LongitudeDegrees>
            </Position>
            <AltitudeMeters>820.20001220703125</AltitudeMeters>
            <DistanceMeters>NAN</DistanceMeters>
          </Trackpoint>
          <Trackpoint>
            <Time>2020-12-05T13:56:11.000Z</Time>
            <Position>
              <LatitudeDegrees>36.817513369023799896240234375</LatitudeDegrees>
              <LongitudeDegrees>-4.3804250098764896392822265625</LongitudeDegrees>
            </Position>
            <AltitudeMeters>820.4000244140625</AltitudeMeters>
            <DistanceMeters>NAN</DistanceMeters>
          </Trackpoint>
          <Trackpoint>
            <Time>2020-12-05T13:56:12.000Z</Time>
            <Position>
              <LatitudeDegrees>36.81749920360743999481201171875</LatitudeDegrees>
              <LongitudeDegrees>-4.3804219923913478851318359375</LongitudeDegrees>
            </Position>
            <AltitudeMeters>820.4000244140625</AltitudeMeters>
            <DistanceMeters>NAN</DistanceMeters>
          </Trackpoint>
          <Trackpoint>
            <Time>2020-12-05T13:56:13.000Z</Time>
            <Position>
              <LatitudeDegrees>36.81748780421912670135498046875</LatitudeDegrees>
              <LongitudeDegrees>-4.3804206512868404388427734375</LongitudeDegrees>
            </Position>
            <AltitudeMeters>820.4000244140625</AltitudeMeters>
            <DistanceMeters>NAN</DistanceMeters>
          </Trackpoint>
          <Trackpoint>
            <Time>2020-12-05T13:56:14.000Z</Time>
            <Position>
              <LatitudeDegrees>36.81747606955468654632568359375</LatitudeDegrees>
              <LongitudeDegrees>-4.380419142544269561767578125</LongitudeDegrees>
            </Position>
            <AltitudeMeters>820.5999755859375</AltitudeMeters>
            <DistanceMeters>NAN</DistanceMeters>
          </Trackpoint>
          <Trackpoint>
            <Time>2020-12-05T13:56:15.000Z</Time>
            <Position>
              <LatitudeDegrees>36.8174635805189609527587890625</LatitudeDegrees>
              <LongitudeDegrees>-4.38041218556463718414306640625</LongitudeDegrees>
            </Position>
            <AltitudeMeters>820.5999755859375</AltitudeMeters>
            <DistanceMeters>NAN</DistanceMeters>
          </Trackpoint>
          <Trackpoint>
            <Time>2020-12-05T13:56:16.000Z</Time>
            <Position>
              <LatitudeDegrees>36.8174535222351551055908203125</LatitudeDegrees>
              <LongitudeDegrees>-4.38040581531822681427001953125</LongitudeDegrees>
            </Position>
            <AltitudeMeters>820.5999755859375</AltitudeMeters>
            <DistanceMeters>NAN</DistanceMeters>
          </Trackpoint>
          <Trackpoint>
            <Time>2020-12-05T13:56:17.000Z</Time>
            <Position>
              <LatitudeDegrees>36.81744136847555637359619140625</LatitudeDegrees>
              <LongitudeDegrees>-4.38040061853826045989990234375</LongitudeDegrees>
            </Position>
            <AltitudeMeters>820.4000244140625</AltitudeMeters>
            <DistanceMeters>NAN</DistanceMeters>
          </Trackpoint>
          <Trackpoint>
            <Time>2020-12-05T13:56:18.000Z</Time>
            <Position>
              <LatitudeDegrees>36.81742611341178417205810546875</LatitudeDegrees>
              <LongitudeDegrees>-4.38039265573024749755859375</LongitudeDegrees>
            </Position>
            <AltitudeMeters>820.4000244140625</AltitudeMeters>
            <DistanceMeters>NAN</DistanceMeters>
          </Trackpoint>
          <Trackpoint>
            <Time>2020-12-05T13:56:19.000Z</Time>
            <Position>
              <LatitudeDegrees>36.817411445081233978271484375</LatitudeDegrees>
              <LongitudeDegrees>-4.3803857825696468353271484375</LongitudeDegrees>
            </Position>
            <AltitudeMeters>820.4000244140625</AltitudeMeters>
            <DistanceMeters>NAN</DistanceMeters>
          </Trackpoint>
          <Trackpoint>
            <Time>2020-12-05T13:56:20.000Z</Time>
            <Position>
              <LatitudeDegrees>36.81739761494100093841552734375</LatitudeDegrees>
              <LongitudeDegrees>-4.3803831003606319427490234375</LongitudeDegrees>
            </Position>
            <AltitudeMeters>820.4000244140625</AltitudeMeters>
            <DistanceMeters>NAN</DistanceMeters>
          </Trackpoint>
          <Trackpoint>
            <Time>2020-12-05T13:56:21.000Z</Time>
            <Position>
              <LatitudeDegrees>36.81738403625786304473876953125</LatitudeDegrees>
              <LongitudeDegrees>-4.3803807534277439117431640625</LongitudeDegrees>
            </Position>
            <AltitudeMeters>820.20001220703125</AltitudeMeters>
            <DistanceMeters>NAN</DistanceMeters>
          </Trackpoint>
          <Trackpoint>
            <Time>2020-12-05T13:56:22.000Z</Time>
            <Position>
              <LatitudeDegrees>36.81736995466053485870361328125</LatitudeDegrees>
              <LongitudeDegrees>-4.3803770653903484344482421875</LongitudeDegrees>
            </Position>
            <AltitudeMeters>820.20001220703125</AltitudeMeters>
            <DistanceMeters>NAN</DistanceMeters>
          </Trackpoint>
          <Trackpoint>
            <Time>2020-12-05T13:56:23.000Z</Time>
            <Position>
              <LatitudeDegrees>36.81735453195869922637939453125</LatitudeDegrees>
              <LongitudeDegrees>-4.38037161715328693389892578125</LongitudeDegrees>
            </Position>
            <AltitudeMeters>820.20001220703125</AltitudeMeters>
            <DistanceMeters>NAN</DistanceMeters>
          </Trackpoint>
          <Trackpoint>
            <Time>2020-12-05T13:56:24.000Z</Time>
            <Position>
              <LatitudeDegrees>36.8173407018184661865234375</LatitudeDegrees>
              <LongitudeDegrees>-4.380366504192352294921875</LongitudeDegrees>
            </Position>
            <AltitudeMeters>820.4000244140625</AltitudeMeters>
            <DistanceMeters>NAN</DistanceMeters>
          </Trackpoint>
          <Trackpoint>
            <Time>2020-12-05T13:56:25.000Z</Time>
            <Position>
              <LatitudeDegrees>36.81732770986855030059814453125</LatitudeDegrees>
              <LongitudeDegrees>-4.38035971485078334808349609375</LongitudeDegrees>
            </Position>
            <AltitudeMeters>820.4000244140625</AltitudeMeters>
            <DistanceMeters>NAN</DistanceMeters>
          </Trackpoint>
          <Trackpoint>
            <Time>2020-12-05T13:56:26.000Z</Time>
            <Position>
              <LatitudeDegrees>36.8173157237470149993896484375</LatitudeDegrees>
              <LongitudeDegrees>-4.3803552724421024322509765625</LongitudeDegrees>
            </Position>
            <AltitudeMeters>820.4000244140625</AltitudeMeters>
            <DistanceMeters>NAN</DistanceMeters>
          </Trackpoint>
          <Trackpoint>
            <Time>2020-12-05T13:56:27.000Z</Time>
            <Position>
              <LatitudeDegrees>36.81730574928224086761474609375</LatitudeDegrees>
              <LongitudeDegrees>-4.38035644590854644775390625</LongitudeDegrees>
            </Position>
            <AltitudeMeters>820.4000244140625</AltitudeMeters>
            <DistanceMeters>NAN</DistanceMeters>
          </Trackpoint>
          <Trackpoint>
            <Time>2020-12-05T13:56:28.000Z</Time>
            <Position>
              <LatitudeDegrees>36.81729719974100589752197265625</LatitudeDegrees>
              <LongitudeDegrees>-4.38035468570888042449951171875</LongitudeDegrees>
            </Position>
            <AltitudeMeters>820.5999755859375</AltitudeMeters>
            <DistanceMeters>NAN</DistanceMeters>
          </Trackpoint>
          <Trackpoint>
            <Time>2020-12-05T13:56:29.000Z</Time>
            <Position>
              <LatitudeDegrees>36.8172899074852466583251953125</LatitudeDegrees>
              <LongitudeDegrees>-4.3803522549569606781005859375</LongitudeDegrees>
            </Position>
            <AltitudeMeters>820.5999755859375</AltitudeMeters>
            <DistanceMeters>NAN</DistanceMeters>
          </Trackpoint>
          <Trackpoint>
            <Time>2020-12-05T13:56:30.000Z</Time>
            <Position>
              <LatitudeDegrees>36.81728236377239227294921875</LatitudeDegrees>
              <LongitudeDegrees>-4.3803502433001995086669921875</LongitudeDegrees>
            </Position>
            <AltitudeMeters>820.5999755859375</AltitudeMeters>
            <DistanceMeters>NAN</DistanceMeters>
          </Trackpoint>
          <Trackpoint>
            <Time>2020-12-05T13:56:31.000Z</Time>
            <Position>
              <LatitudeDegrees>36.8172751553356647491455078125</LatitudeDegrees>
              <LongitudeDegrees>-4.38034839928150177001953125</LongitudeDegrees>
            </Position>
            <AltitudeMeters>820.5999755859375</AltitudeMeters>
            <DistanceMeters>NAN</DistanceMeters>
          </Trackpoint>
          <Trackpoint>
            <Time>2020-12-05T13:56:32.000Z</Time>
            <Position>
              <LatitudeDegrees>36.8172671087086200714111328125</LatitudeDegrees>
              <LongitudeDegrees>-4.3803428672254085540771484375</LongitudeDegrees>
            </Position>
            <AltitudeMeters>820.5999755859375</AltitudeMeters>
            <DistanceMeters>NAN</DistanceMeters>
          </Trackpoint>
          <Trackpoint>
            <Time>2020-12-05T13:56:33.000Z</Time>
            <Position>
              <LatitudeDegrees>36.81725964881479740142822265625</LatitudeDegrees>
              <LongitudeDegrees>-4.380334652960300445556640625</LongitudeDegrees>
            </Position>
            <AltitudeMeters>820.5999755859375</AltitudeMeters>
            <DistanceMeters>NAN</DistanceMeters>
          </Trackpoint>
          <Trackpoint>
            <Time>2020-12-05T13:56:34.000Z</Time>
            <Position>
              <LatitudeDegrees>36.817252524197101593017578125</LatitudeDegrees>
              <LongitudeDegrees>-4.3803217448294162750244140625</LongitudeDegrees>
            </Position>
            <AltitudeMeters>820.79998779296875</AltitudeMeters>
            <DistanceMeters>NAN</DistanceMeters>
          </Trackpoint>
          <Trackpoint>
            <Time>2020-12-05T13:56:35.000Z</Time>
            <Position>
              <LatitudeDegrees>36.8172419629991054534912109375</LatitudeDegrees>
              <LongitudeDegrees>-4.3803113512694835662841796875</LongitudeDegrees>
            </Position>
            <AltitudeMeters>820.5999755859375</AltitudeMeters>
            <DistanceMeters>NAN</DistanceMeters>
          </Trackpoint>
          <Trackpoint>
            <Time>2020-12-05T13:56:36.000Z</Time>
            <Position>
              <LatitudeDegrees>36.8172355927526950836181640625</LatitudeDegrees>
              <LongitudeDegrees>-4.38030221499502658843994140625</LongitudeDegrees>
            </Position>
            <AltitudeMeters>820.5999755859375</AltitudeMeters>
            <DistanceMeters>NAN</DistanceMeters>
          </Trackpoint>
          <Trackpoint>
            <Time>2020-12-05T13:56:37.000Z</Time>
            <Position>
              <LatitudeDegrees>36.81722863577306270599365234375</LatitudeDegrees>
              <LongitudeDegrees>-4.380299113690853118896484375</LongitudeDegrees>
            </Position>
            <AltitudeMeters>820.5999755859375</AltitudeMeters>
            <DistanceMeters>NAN</DistanceMeters>
          </Trackpoint>
          <Trackpoint>
            <Time>2020-12-05T13:56:38.000Z</Time>
            <Position>
              <LatitudeDegrees>36.81722201406955718994140625</LatitudeDegrees>
              <LongitudeDegrees>-4.38029668293893337249755859375</LongitudeDegrees>
            </Position>
            <AltitudeMeters>820.5999755859375</AltitudeMeters>
            <DistanceMeters>NAN</DistanceMeters>
          </Trackpoint>
          <Trackpoint>
            <Time>2020-12-05T13:56:39.000Z</Time>
            <Position>
              <LatitudeDegrees>36.81721639819443225860595703125</LatitudeDegrees>
              <LongitudeDegrees>-4.3802915699779987335205078125</LongitudeDegrees>
            </Position>
            <AltitudeMeters>820.5999755859375</AltitudeMeters>
            <DistanceMeters>NAN</DistanceMeters>
          </Trackpoint>
          <Trackpoint>
            <Time>2020-12-05T13:56:40.000Z</Time>
            <Position>
              <LatitudeDegrees>36.81720885448157787322998046875</LatitudeDegrees>
              <LongitudeDegrees>-4.380286037921905517578125</LongitudeDegrees>
            </Position>
            <AltitudeMeters>820.79998779296875</AltitudeMeters>
            <DistanceMeters>NAN</DistanceMeters>
          </Trackpoint>
          <Trackpoint>
            <Time>2020-12-05T13:56:41.000Z</Time>
            <Position>
              <LatitudeDegrees>36.817202232778072357177734375</LatitudeDegrees>
              <LongitudeDegrees>-4.3802801705896854400634765625</LongitudeDegrees>
            </Position>
            <AltitudeMeters>820.79998779296875</AltitudeMeters>
            <DistanceMeters>NAN</DistanceMeters>
          </Trackpoint>
          <Trackpoint>
            <Time>2020-12-05T13:56:42.000Z</Time>
            <Position>
              <LatitudeDegrees>36.81719460524618625640869140625</LatitudeDegrees>
              <LongitudeDegrees>-4.3802739679813385009765625</LongitudeDegrees>
            </Position>
            <AltitudeMeters>821</AltitudeMeters>
            <DistanceMeters>NAN</DistanceMeters>
          </Trackpoint>
          <Trackpoint>
            <Time>2020-12-05T13:56:43.000Z</Time>
            <Position>
              <LatitudeDegrees>36.81718337349593639373779296875</LatitudeDegrees>
              <LongitudeDegrees>-4.38026617281138896942138671875</LongitudeDegrees>
            </Position>
            <AltitudeMeters>821</AltitudeMeters>
            <DistanceMeters>NAN</DistanceMeters>
          </Trackpoint>
          <Trackpoint>
            <Time>2020-12-05T13:56:44.000Z</Time>
            <Position>
              <LatitudeDegrees>36.81717096827924251556396484375</LatitudeDegrees>
              <LongitudeDegrees>-4.38025829382240772247314453125</LongitudeDegrees>
            </Position>
            <AltitudeMeters>821</AltitudeMeters>
            <DistanceMeters>NAN</DistanceMeters>
          </Trackpoint>
          <Trackpoint>
            <Time>2020-12-05T13:56:45.000Z</Time>
            <Position>
              <LatitudeDegrees>36.81715621612966060638427734375</LatitudeDegrees>
              <LongitudeDegrees>-4.38024513423442840576171875</LongitudeDegrees>
            </Position>
            <AltitudeMeters>821</AltitudeMeters>
            <DistanceMeters>NAN</DistanceMeters>
          </Trackpoint>
          <Trackpoint>
            <Time>2020-12-05T13:56:46.000Z</Time>
            <Position>
              <LatitudeDegrees>36.81714288890361785888671875</LatitudeDegrees>
              <LongitudeDegrees>-4.38023448921740055084228515625</LongitudeDegrees>
            </Position>
            <AltitudeMeters>821</AltitudeMeters>
            <DistanceMeters>NAN</DistanceMeters>
          </Trackpoint>
          <Trackpoint>
            <Time>2020-12-05T13:56:47.000Z</Time>
            <Position>
              <LatitudeDegrees>36.817130483686923980712890625</LatitudeDegrees>
              <LongitudeDegrees>-4.3802248500287532806396484375</LongitudeDegrees>
            </Position>
            <AltitudeMeters>821</AltitudeMeters>
            <DistanceMeters>NAN</DistanceMeters>
          </Trackpoint>
          <Trackpoint>
            <Time>2020-12-05T13:56:48.000Z</Time>
            <Position>
              <LatitudeDegrees>36.81711682118475437164306640625</LatitudeDegrees>
              <LongitudeDegrees>-4.3802124448120594024658203125</LongitudeDegrees>
            </Position>
            <AltitudeMeters>821</AltitudeMeters>
            <DistanceMeters>NAN</DistanceMeters>
          </Trackpoint>
          <Trackpoint>
            <Time>2020-12-05T13:56:49.000Z</Time>
            <Position>
              <LatitudeDegrees>36.81710508652031421661376953125</LatitudeDegrees>
              <LongitudeDegrees>-4.38020355999469757080078125</LongitudeDegrees>
            </Position>
            <AltitudeMeters>821</AltitudeMeters>
            <DistanceMeters>NAN</DistanceMeters>
          </Trackpoint>
          <Trackpoint>
            <Time>2020-12-05T13:56:50.000Z</Time>
            <Position>
              <LatitudeDegrees>36.817094944417476654052734375</LatitudeDegrees>
              <LongitudeDegrees>-4.3801933340728282928466796875</LongitudeDegrees>
            </Position>
            <AltitudeMeters>821</AltitudeMeters>
            <DistanceMeters>NAN</DistanceMeters>
          </Trackpoint>
          <Trackpoint>
            <Time>2020-12-05T13:56:51.000Z</Time>
            <Position>
              <LatitudeDegrees>36.817087233066558837890625</LatitudeDegrees>
              <LongitudeDegrees>-4.38018520362675189971923828125</LongitudeDegrees>
            </Position>
            <AltitudeMeters>821</AltitudeMeters>
            <DistanceMeters>NAN</DistanceMeters>
          </Trackpoint>
          <Trackpoint>
            <Time>2020-12-05T13:56:52.000Z</Time>
            <Position>
              <LatitudeDegrees>36.81708161719143390655517578125</LatitudeDegrees>
              <LongitudeDegrees>-4.38017682172358036041259765625</LongitudeDegrees>
            </Position>
            <AltitudeMeters>821</AltitudeMeters>
            <DistanceMeters>NAN</DistanceMeters>
          </Trackpoint>
          <Trackpoint>
            <Time>2020-12-05T13:56:53.000Z</Time>
            <Position>
              <LatitudeDegrees>36.8170760013163089752197265625</LatitudeDegrees>
              <LongitudeDegrees>-4.38016894273459911346435546875</LongitudeDegrees>
            </Position>
            <AltitudeMeters>821</AltitudeMeters>
            <DistanceMeters>NAN</DistanceMeters>
          </Trackpoint>
          <Trackpoint>
            <Time>2020-12-05T13:56:54.000Z</Time>
            <Position>
              <LatitudeDegrees>36.817067451775074005126953125</LatitudeDegrees>
              <LongitudeDegrees>-4.3801628239452838897705078125</LongitudeDegrees>
            </Position>
            <AltitudeMeters>821</AltitudeMeters>
            <DistanceMeters>NAN</DistanceMeters>
          </Trackpoint>
          <Trackpoint>
            <Time>2020-12-05T13:56:55.000Z</Time>
            <Position>
              <LatitudeDegrees>36.81706049479544162750244140625</LatitudeDegrees>
              <LongitudeDegrees>-4.38015502877533435821533203125</LongitudeDegrees>
            </Position>
            <AltitudeMeters>821</AltitudeMeters>
            <DistanceMeters>NAN</DistanceMeters>
          </Trackpoint>
          <Trackpoint>
            <Time>2020-12-05T13:56:56.000Z</Time>
            <Position>
              <LatitudeDegrees>36.81705303490161895751953125</LatitudeDegrees>
              <LongitudeDegrees>-4.38014564104378223419189453125</LongitudeDegrees>
            </Position>
            <AltitudeMeters>821</AltitudeMeters>
            <DistanceMeters>NAN</DistanceMeters>
          </Trackpoint>
          <Trackpoint>
            <Time>2020-12-05T13:56:57.000Z</Time>
            <Position>
              <LatitudeDegrees>36.8170428089797496795654296875</LatitudeDegrees>
              <LongitudeDegrees>-4.3801371753215789794921875</LongitudeDegrees>
            </Position>
            <AltitudeMeters>821</AltitudeMeters>
            <DistanceMeters>NAN</DistanceMeters>
          </Trackpoint>
          <Trackpoint>
            <Time>2020-12-05T13:56:58.000Z</Time>
            <Position>
              <LatitudeDegrees>36.8170344270765781402587890625</LatitudeDegrees>
              <LongitudeDegrees>-4.38012711703777313232421875</LongitudeDegrees>
            </Position>
            <AltitudeMeters>821</AltitudeMeters>
            <DistanceMeters>NAN</DistanceMeters>
          </Trackpoint>
          <Trackpoint>
            <Time>2020-12-05T13:56:59.000Z</Time>
            <Position>
              <LatitudeDegrees>36.81702579371631145477294921875</LatitudeDegrees>
              <LongitudeDegrees>-4.380115382373332977294921875</LongitudeDegrees>
            </Position>
            <AltitudeMeters>821.20001220703125</AltitudeMeters>
            <DistanceMeters>NAN</DistanceMeters>
          </Trackpoint>
          <Trackpoint>
            <Time>2020-12-05T13:57:00.000Z</Time>
            <Position>
              <LatitudeDegrees>36.8170179985463619232177734375</LatitudeDegrees>
              <LongitudeDegrees>-4.38010490499436855316162109375</LongitudeDegrees>
            </Position>
            <AltitudeMeters>821</AltitudeMeters>
            <DistanceMeters>NAN</DistanceMeters>
          </Trackpoint>
          <Trackpoint>
            <Time>2020-12-05T13:57:01.000Z</Time>
            <Position>
              <LatitudeDegrees>36.81701053865253925323486328125</LatitudeDegrees>
              <LongitudeDegrees>-4.380094595253467559814453125</LongitudeDegrees>
            </Position>
            <AltitudeMeters>821</AltitudeMeters>
            <DistanceMeters>NAN</DistanceMeters>
          </Trackpoint>
          <Trackpoint>
            <Time>2020-12-05T13:57:02.000Z</Time>
            <Position>
              <LatitudeDegrees>36.817003078758716583251953125</LatitudeDegrees>
              <LongitudeDegrees>-4.38008964993059635162353515625</LongitudeDegrees>
            </Position>
            <AltitudeMeters>821</AltitudeMeters>
            <DistanceMeters>NAN</DistanceMeters>
          </Trackpoint>
          <Trackpoint>
            <Time>2020-12-05T13:57:03.000Z</Time>
            <Position>
              <LatitudeDegrees>36.81699595414102077484130859375</LatitudeDegrees>
              <LongitudeDegrees>-4.3800853751599788665771484375</LongitudeDegrees>
            </Position>
            <AltitudeMeters>821</AltitudeMeters>
            <DistanceMeters>NAN</DistanceMeters>
          </Trackpoint>
          <Trackpoint>
            <Time>2020-12-05T13:57:04.000Z</Time>
            <Position>
              <LatitudeDegrees>36.81698807515203952789306640625</LatitudeDegrees>
              <LongitudeDegrees>-4.38008260913193225860595703125</LongitudeDegrees>
            </Position>
            <AltitudeMeters>820.79998779296875</AltitudeMeters>
            <DistanceMeters>NAN</DistanceMeters>
          </Trackpoint>
          <Trackpoint>
            <Time>2020-12-05T13:57:05.000Z</Time>
            <Position>
              <LatitudeDegrees>36.81697935797274112701416015625</LatitudeDegrees>
              <LongitudeDegrees>-4.38007774762809276580810546875</LongitudeDegrees>
            </Position>
            <AltitudeMeters>820.5999755859375</AltitudeMeters>
            <DistanceMeters>NAN</DistanceMeters>
          </Trackpoint>
          <Trackpoint>
            <Time>2020-12-05T13:57:06.000Z</Time>
            <Position>
              <LatitudeDegrees>36.81696980260312557220458984375</LatitudeDegrees>
              <LongitudeDegrees>-4.38007808290421962738037109375</LongitudeDegrees>
            </Position>
            <AltitudeMeters>820.5999755859375</AltitudeMeters>
            <DistanceMeters>NAN</DistanceMeters>
          </Trackpoint>
          <Trackpoint>
            <Time>2020-12-05T13:57:07.000Z</Time>
            <Position>
              <LatitudeDegrees>36.8169606663286685943603515625</LatitudeDegrees>
              <LongitudeDegrees>-4.3800786696374416351318359375</LongitudeDegrees>
            </Position>
            <AltitudeMeters>820.4000244140625</AltitudeMeters>
            <DistanceMeters>NAN</DistanceMeters>
          </Trackpoint>
          <Trackpoint>
            <Time>2020-12-05T13:57:08.000Z</Time>
            <Position>
              <LatitudeDegrees>36.81695370934903621673583984375</LatitudeDegrees>
              <LongitudeDegrees>-4.3800756521522998809814453125</LongitudeDegrees>
            </Position>
            <AltitudeMeters>820.4000244140625</AltitudeMeters>
            <DistanceMeters>NAN</DistanceMeters>
          </Trackpoint>
          <Trackpoint>
            <Time>2020-12-05T13:57:09.000Z</Time>
            <Position>
              <LatitudeDegrees>36.8169542960822582244873046875</LatitudeDegrees>
              <LongitudeDegrees>-4.380090571939945220947265625</LongitudeDegrees>
            </Position>
            <AltitudeMeters>820.4000244140625</AltitudeMeters>
            <DistanceMeters>NAN</DistanceMeters>
          </Trackpoint>
          <Trackpoint>
            <Time>2020-12-05T13:57:10.000Z</Time>
            <Position>
              <LatitudeDegrees>36.8169509433209896087646484375</LatitudeDegrees>
              <LongitudeDegrees>-4.38009702600538730621337890625</LongitudeDegrees>
            </Position>
            <AltitudeMeters>820.4000244140625</AltitudeMeters>
            <DistanceMeters>NAN</DistanceMeters>
          </Trackpoint>
          <Trackpoint>
            <Time>2020-12-05T13:57:11.000Z</Time>
            <Position>
              <LatitudeDegrees>36.816947758197784423828125</LatitudeDegrees>
              <LongitudeDegrees>-4.38010373152792453765869140625</LongitudeDegrees>
            </Position>
            <AltitudeMeters>820.4000244140625</AltitudeMeters>
            <DistanceMeters>NAN</DistanceMeters>
          </Trackpoint>
          <Trackpoint>
            <Time>2020-12-05T13:57:12.000Z</Time>
            <Position>
              <LatitudeDegrees>36.81694197468459606170654296875</LatitudeDegrees>
              <LongitudeDegrees>-4.3801007978618144989013671875</LongitudeDegrees>
            </Position>
            <AltitudeMeters>820.4000244140625</AltitudeMeters>
            <DistanceMeters>NAN</DistanceMeters>
          </Trackpoint>
          <Trackpoint>
            <Time>2020-12-05T13:57:13.000Z</Time>
            <Position>
              <LatitudeDegrees>36.816935352981090545654296875</LatitudeDegrees>
              <LongitudeDegrees>-4.38008596189320087432861328125</LongitudeDegrees>
            </Position>
            <AltitudeMeters>820.4000244140625</AltitudeMeters>
            <DistanceMeters>NAN</DistanceMeters>
          </Trackpoint>
          <Trackpoint>
            <Time>2020-12-05T13:57:14.000Z</Time>
            <Position>
              <LatitudeDegrees>36.8169318325817584991455078125</LatitudeDegrees>
              <LongitudeDegrees>-4.3800722993910312652587890625</LongitudeDegrees>
            </Position>
            <AltitudeMeters>820.4000244140625</AltitudeMeters>
            <DistanceMeters>NAN</DistanceMeters>
          </Trackpoint>
          <Trackpoint>
            <Time>2020-12-05T13:57:15.000Z</Time>
            <Position>
              <LatitudeDegrees>36.81692118756473064422607421875</LatitudeDegrees>
              <LongitudeDegrees>-4.380055367946624755859375</LongitudeDegrees>
            </Position>
            <AltitudeMeters>820.4000244140625</AltitudeMeters>
            <DistanceMeters>NAN</DistanceMeters>
          </Trackpoint>
          <Trackpoint>
            <Time>2020-12-05T13:57:16.000Z</Time>
            <Position>
              <LatitudeDegrees>36.8169110454618930816650390625</LatitudeDegrees>
              <LongitudeDegrees>-4.3800384365022182464599609375</LongitudeDegrees>
            </Position>
            <AltitudeMeters>820.4000244140625</AltitudeMeters>
            <DistanceMeters>NAN</DistanceMeters>
          </Trackpoint>
          <Trackpoint>
            <Time>2020-12-05T13:57:17.000Z</Time>
            <Position>
              <LatitudeDegrees>36.81690274737775325775146484375</LatitudeDegrees>
              <LongitudeDegrees>-4.3800236843526363372802734375</LongitudeDegrees>
            </Position>
            <AltitudeMeters>820.4000244140625</AltitudeMeters>
            <DistanceMeters>NAN</DistanceMeters>
          </Trackpoint>
          <Trackpoint>
            <Time>2020-12-05T13:57:18.000Z</Time>
            <Position>
              <LatitudeDegrees>36.816894114017486572265625</LatitudeDegrees>
              <LongitudeDegrees>-4.3800159730017185211181640625</LongitudeDegrees>
            </Position>
            <AltitudeMeters>820.4000244140625</AltitudeMeters>
            <DistanceMeters>NAN</DistanceMeters>
          </Trackpoint>
          <Trackpoint>
            <Time>2020-12-05T13:57:19.000Z</Time>
            <Position>
              <LatitudeDegrees>36.81688682176172733306884765625</LatitudeDegrees>
              <LongitudeDegrees>-4.3800049088895320892333984375</LongitudeDegrees>
            </Position>
            <AltitudeMeters>820.4000244140625</AltitudeMeters>
            <DistanceMeters>NAN</DistanceMeters>
          </Trackpoint>
          <Trackpoint>
            <Time>2020-12-05T13:57:20.000Z</Time>
            <Position>
              <LatitudeDegrees>36.81687978096306324005126953125</LatitudeDegrees>
              <LongitudeDegrees>-4.379989989101886749267578125</LongitudeDegrees>
            </Position>
            <AltitudeMeters>820.5999755859375</AltitudeMeters>
            <DistanceMeters>NAN</DistanceMeters>
          </Trackpoint>
          <Trackpoint>
            <Time>2020-12-05T13:57:21.000Z</Time>
            <Position>
              <LatitudeDegrees>36.816872991621494293212890625</LatitudeDegrees>
              <LongitudeDegrees>-4.37997565604746341705322265625</LongitudeDegrees>
            </Position>
            <AltitudeMeters>820.5999755859375</AltitudeMeters>
            <DistanceMeters>NAN</DistanceMeters>
          </Trackpoint>
          <Trackpoint>
            <Time>2020-12-05T13:57:22.000Z</Time>
            <Position>
              <LatitudeDegrees>36.81686670519411563873291015625</LatitudeDegrees>
              <LongitudeDegrees>-4.3799629993736743927001953125</LongitudeDegrees>
            </Position>
            <AltitudeMeters>820.5999755859375</AltitudeMeters>
            <DistanceMeters>NAN</DistanceMeters>
          </Trackpoint>
          <Trackpoint>
            <Time>2020-12-05T13:57:23.000Z</Time>
            <Position>
              <LatitudeDegrees>36.81686201132833957672119140625</LatitudeDegrees>
              <LongitudeDegrees>-4.37994933687150478363037109375</LongitudeDegrees>
            </Position>
            <AltitudeMeters>820.5999755859375</AltitudeMeters>
            <DistanceMeters>NAN</DistanceMeters>
          </Trackpoint>
          <Trackpoint>
            <Time>2020-12-05T13:57:24.000Z</Time>
            <Position>
              <LatitudeDegrees>36.8168574012815952301025390625</LatitudeDegrees>
              <LongitudeDegrees>-4.379937686026096343994140625</LongitudeDegrees>
            </Position>
            <AltitudeMeters>820.79998779296875</AltitudeMeters>
            <DistanceMeters>NAN</DistanceMeters>
          </Trackpoint>
          <Trackpoint>
            <Time>2020-12-05T13:57:25.000Z</Time>
            <Position>
              <LatitudeDegrees>36.8168513663113117218017578125</LatitudeDegrees>
              <LongitudeDegrees>-4.37992821447551250457763671875</LongitudeDegrees>
            </Position>
            <AltitudeMeters>820.79998779296875</AltitudeMeters>
            <DistanceMeters>NAN</DistanceMeters>
          </Trackpoint>
          <Trackpoint>
            <Time>2020-12-05T13:57:26.000Z</Time>
            <Position>
              <LatitudeDegrees>36.8168449960649013519287109375</LatitudeDegrees>
              <LongitudeDegrees>-4.3799174018204212188720703125</LongitudeDegrees>
            </Position>
            <AltitudeMeters>820.79998779296875</AltitudeMeters>
            <DistanceMeters>NAN</DistanceMeters>
          </Trackpoint>
          <Trackpoint>
            <Time>2020-12-05T13:57:27.000Z</Time>
            <Position>
              <LatitudeDegrees>36.816837787628173828125</LatitudeDegrees>
              <LongitudeDegrees>-4.3799036554992198944091796875</LongitudeDegrees>
            </Position>
            <AltitudeMeters>820.79998779296875</AltitudeMeters>
            <DistanceMeters>NAN</DistanceMeters>
          </Trackpoint>
          <Trackpoint>
            <Time>2020-12-05T13:57:28.000Z</Time>
            <Position>
              <LatitudeDegrees>36.8168322555720806121826171875</LatitudeDegrees>
              <LongitudeDegrees>-4.37989032827317714691162109375</LongitudeDegrees>
            </Position>
            <AltitudeMeters>821</AltitudeMeters>
            <DistanceMeters>NAN</DistanceMeters>
          </Trackpoint>
          <Trackpoint>
            <Time>2020-12-05T13:57:29.000Z</Time>
            <Position>
              <LatitudeDegrees>36.8168283998966217041015625</LatitudeDegrees>
              <LongitudeDegrees>-4.3798775039613246917724609375</LongitudeDegrees>
            </Position>
            <AltitudeMeters>821.20001220703125</AltitudeMeters>
            <DistanceMeters>NAN</DistanceMeters>
          </Trackpoint>
          <Trackpoint>
            <Time>2020-12-05T13:57:30.000Z</Time>
            <Position>
              <LatitudeDegrees>36.8168262206017971038818359375</LatitudeDegrees>
              <LongitudeDegrees>-4.3798649311065673828125</LongitudeDegrees>
            </Position>
            <AltitudeMeters>821.20001220703125</AltitudeMeters>
            <DistanceMeters>NAN</DistanceMeters>
          </Trackpoint>
          <Trackpoint>
            <Time>2020-12-05T13:57:31.000Z</Time>
            <Position>
              <LatitudeDegrees>36.8168245442211627960205078125</LatitudeDegrees>
              <LongitudeDegrees>-4.37984875403344631195068359375</LongitudeDegrees>
            </Position>
            <AltitudeMeters>821.20001220703125</AltitudeMeters>
            <DistanceMeters>NAN</DistanceMeters>
          </Trackpoint>
          <Trackpoint>
            <Time>2020-12-05T13:57:32.000Z</Time>
            <Position>
              <LatitudeDegrees>36.81682613678276538848876953125</LatitudeDegrees>
              <LongitudeDegrees>-4.37983182258903980255126953125</LongitudeDegrees>
            </Position>
            <AltitudeMeters>821.20001220703125</AltitudeMeters>
            <DistanceMeters>NAN</DistanceMeters>
          </Trackpoint>
          <Trackpoint>
            <Time>2020-12-05T13:57:33.000Z</Time>
            <Position>
              <LatitudeDegrees>36.8168245442211627960205078125</LatitudeDegrees>
              <LongitudeDegrees>-4.3798158131539821624755859375</LongitudeDegrees>
            </Position>
            <AltitudeMeters>821.4000244140625</AltitudeMeters>
            <DistanceMeters>NAN</DistanceMeters>
          </Trackpoint>
          <Trackpoint>
            <Time>2020-12-05T13:57:34.000Z</Time>
            <Position>
              <LatitudeDegrees>36.81682094000279903411865234375</LatitudeDegrees>
              <LongitudeDegrees>-4.3797983787953853607177734375</LongitudeDegrees>
            </Position>
            <AltitudeMeters>821.4000244140625</AltitudeMeters>
            <DistanceMeters>NAN</DistanceMeters>
          </Trackpoint>
          <Trackpoint>
            <Time>2020-12-05T13:57:35.000Z</Time>
            <Position>
              <LatitudeDegrees>36.81681624613702297210693359375</LatitudeDegrees>
              <LongitudeDegrees>-4.379780106246471405029296875</LongitudeDegrees>
            </Position>
            <AltitudeMeters>821.4000244140625</AltitudeMeters>
            <DistanceMeters>NAN</DistanceMeters>
          </Trackpoint>
          <Trackpoint>
            <Time>2020-12-05T13:57:36.000Z</Time>
            <Position>
              <LatitudeDegrees>36.81681222282350063323974609375</LatitudeDegrees>
              <LongitudeDegrees>-4.37976292334496974945068359375</LongitudeDegrees>
            </Position>
            <AltitudeMeters>821.4000244140625</AltitudeMeters>
            <DistanceMeters>NAN</DistanceMeters>
          </Trackpoint>
          <Trackpoint>
            <Time>2020-12-05T13:57:37.000Z</Time>
            <Position>
              <LatitudeDegrees>36.81681096553802490234375</LatitudeDegrees>
              <LongitudeDegrees>-4.37974800355732440948486328125</LongitudeDegrees>
            </Position>
            <AltitudeMeters>821.4000244140625</AltitudeMeters>
            <DistanceMeters>NAN</DistanceMeters>
          </Trackpoint>
          <Trackpoint>
            <Time>2020-12-05T13:57:38.000Z</Time>
            <Position>
              <LatitudeDegrees>36.8168118037283420562744140625</LatitudeDegrees>
              <LongitudeDegrees>-4.37973643653094768524169921875</LongitudeDegrees>
            </Position>
            <AltitudeMeters>821.4000244140625</AltitudeMeters>
            <DistanceMeters>NAN</DistanceMeters>
          </Trackpoint>
          <Trackpoint>
            <Time>2020-12-05T13:57:39.000Z</Time>
            <Position>
              <LatitudeDegrees>36.8168121390044689178466796875</LatitudeDegrees>
              <LongitudeDegrees>-4.37972269020974636077880859375</LongitudeDegrees>
            </Position>
            <AltitudeMeters>821.4000244140625</AltitudeMeters>
            <DistanceMeters>NAN</DistanceMeters>
          </Trackpoint>
          <Trackpoint>
            <Time>2020-12-05T13:57:40.000Z</Time>
            <Position>
              <LatitudeDegrees>36.8168094567954540252685546875</LatitudeDegrees>
              <LongitudeDegrees>-4.37971011735498905181884765625</LongitudeDegrees>
            </Position>
            <AltitudeMeters>821.4000244140625</AltitudeMeters>
            <DistanceMeters>NAN</DistanceMeters>
          </Trackpoint>
          <Trackpoint>
            <Time>2020-12-05T13:57:41.000Z</Time>
            <Position>
              <LatitudeDegrees>36.816807277500629425048828125</LatitudeDegrees>
              <LongitudeDegrees>-4.37970056198537349700927734375</LongitudeDegrees>
            </Position>
            <AltitudeMeters>821.4000244140625</AltitudeMeters>
            <DistanceMeters>NAN</DistanceMeters>
          </Trackpoint>
          <Trackpoint>
            <Time>2020-12-05T13:57:42.000Z</Time>
            <Position>
              <LatitudeDegrees>36.81680786423385143280029296875</LatitudeDegrees>
              <LongitudeDegrees>-4.37968790531158447265625</LongitudeDegrees>
            </Position>
            <AltitudeMeters>821.20001220703125</AltitudeMeters>
            <DistanceMeters>NAN</DistanceMeters>
          </Trackpoint>
          <Trackpoint>
            <Time>2020-12-05T13:57:43.000Z</Time>
            <Position>
              <LatitudeDegrees>36.81681029498577117919921875</LatitudeDegrees>
              <LongitudeDegrees>-4.37967441044747829437255859375</LongitudeDegrees>
            </Position>
            <AltitudeMeters>821.20001220703125</AltitudeMeters>
            <DistanceMeters>NAN</DistanceMeters>
          </Trackpoint>
          <Trackpoint>
            <Time>2020-12-05T13:57:44.000Z</Time>
            <Position>
              <LatitudeDegrees>36.8168118037283420562744140625</LatitudeDegrees>
              <LongitudeDegrees>-4.37965982593595981597900390625</LongitudeDegrees>
            </Position>
            <AltitudeMeters>821.4000244140625</AltitudeMeters>
            <DistanceMeters>NAN</DistanceMeters>
          </Trackpoint>
          <Trackpoint>
            <Time>2020-12-05T13:57:45.000Z</Time>
            <Position>
              <LatitudeDegrees>36.81681188754737377166748046875</LatitudeDegrees>
              <LongitudeDegrees>-4.37964406795799732208251953125</LongitudeDegrees>
            </Position>
            <AltitudeMeters>821.5999755859375</AltitudeMeters>
            <DistanceMeters>NAN</DistanceMeters>
          </Trackpoint>
          <Trackpoint>
            <Time>2020-12-05T13:57:46.000Z</Time>
            <Position>
              <LatitudeDegrees>36.81681096553802490234375</LatitudeDegrees>
              <LongitudeDegrees>-4.3796302378177642822265625</LongitudeDegrees>
            </Position>
            <AltitudeMeters>821.4000244140625</AltitudeMeters>
            <DistanceMeters>NAN</DistanceMeters>
          </Trackpoint>
          <Trackpoint>
            <Time>2020-12-05T13:57:47.000Z</Time>
            <Position>
              <LatitudeDegrees>36.81681004352867603302001953125</LatitudeDegrees>
              <LongitudeDegrees>-4.37961691059172153472900390625</LongitudeDegrees>
            </Position>
            <AltitudeMeters>821.4000244140625</AltitudeMeters>
            <DistanceMeters>NAN</DistanceMeters>
          </Trackpoint>
          <Trackpoint>
            <Time>2020-12-05T13:57:48.000Z</Time>
            <Position>
              <LatitudeDegrees>36.816808283329010009765625</LatitudeDegrees>
              <LongitudeDegrees>-4.37960408627986907958984375</LongitudeDegrees>
            </Position>
            <AltitudeMeters>821.4000244140625</AltitudeMeters>
            <DistanceMeters>NAN</DistanceMeters>
          </Trackpoint>
          <Trackpoint>
            <Time>2020-12-05T13:57:49.000Z</Time>
            <Position>
              <LatitudeDegrees>36.81680669076740741729736328125</LatitudeDegrees>
              <LongitudeDegrees>-4.37958958558738231658935546875</LongitudeDegrees>
            </Position>
            <AltitudeMeters>821.5999755859375</AltitudeMeters>
            <DistanceMeters>NAN</DistanceMeters>
          </Trackpoint>
          <Trackpoint>
            <Time>2020-12-05T13:57:50.000Z</Time>
            <Position>
              <LatitudeDegrees>36.81680970825254917144775390625</LatitudeDegrees>
              <LongitudeDegrees>-4.379569552838802337646484375</LongitudeDegrees>
            </Position>
            <AltitudeMeters>821.5999755859375</AltitudeMeters>
            <DistanceMeters>NAN</DistanceMeters>
          </Trackpoint>
          <Trackpoint>
            <Time>2020-12-05T13:57:51.000Z</Time>
            <Position>
              <LatitudeDegrees>36.8168091215193271636962890625</LatitudeDegrees>
              <LongitudeDegrees>-4.3795536272227764129638671875</LongitudeDegrees>
            </Position>
            <AltitudeMeters>821.5999755859375</AltitudeMeters>
            <DistanceMeters>NAN</DistanceMeters>
          </Trackpoint>
          <Trackpoint>
            <Time>2020-12-05T13:57:52.000Z</Time>
            <Position>
              <LatitudeDegrees>36.81680903770029544830322265625</LatitudeDegrees>
              <LongitudeDegrees>-4.37953795306384563446044921875</LongitudeDegrees>
            </Position>
            <AltitudeMeters>821.5999755859375</AltitudeMeters>
            <DistanceMeters>NAN</DistanceMeters>
          </Trackpoint>
          <Trackpoint>
            <Time>2020-12-05T13:57:53.000Z</Time>
            <Position>
              <LatitudeDegrees>36.81680970825254917144775390625</LatitudeDegrees>
              <LongitudeDegrees>-4.37952202744781970977783203125</LongitudeDegrees>
            </Position>
            <AltitudeMeters>821.79998779296875</AltitudeMeters>
            <DistanceMeters>NAN</DistanceMeters>
          </Trackpoint>
          <Trackpoint>
            <Time>2020-12-05T13:57:54.000Z</Time>
            <Position>
              <LatitudeDegrees>36.81680903770029544830322265625</LatitudeDegrees>
              <LongitudeDegrees>-4.3795097060501575469970703125</LongitudeDegrees>
            </Position>
            <AltitudeMeters>821.79998779296875</AltitudeMeters>
            <DistanceMeters>NAN</DistanceMeters>
          </Trackpoint>
          <Trackpoint>
            <Time>2020-12-05T13:57:55.000Z</Time>
            <Position>
              <LatitudeDegrees>36.81680836714804172515869140625</LatitudeDegrees>
              <LongitudeDegrees>-4.37949587590992450714111328125</LongitudeDegrees>
            </Position>
            <AltitudeMeters>821.79998779296875</AltitudeMeters>
            <DistanceMeters>NAN</DistanceMeters>
          </Trackpoint>
          <Trackpoint>
            <Time>2020-12-05T13:57:56.000Z</Time>
            <Position>
              <LatitudeDegrees>36.816807948052883148193359375</LatitudeDegrees>
              <LongitudeDegrees>-4.37948405742645263671875</LongitudeDegrees>
            </Position>
            <AltitudeMeters>821.5999755859375</AltitudeMeters>
            <DistanceMeters>NAN</DistanceMeters>
          </Trackpoint>
          <Trackpoint>
            <Time>2020-12-05T13:57:57.000Z</Time>
            <Position>
              <LatitudeDegrees>36.81680887006223201751708984375</LatitudeDegrees>
              <LongitudeDegrees>-4.3794714845716953277587890625</LongitudeDegrees>
            </Position>
            <AltitudeMeters>821.5999755859375</AltitudeMeters>
            <DistanceMeters>NAN</DistanceMeters>
          </Trackpoint>
          <Trackpoint>
            <Time>2020-12-05T13:57:58.000Z</Time>
            <Position>
              <LatitudeDegrees>36.81680920533835887908935546875</LatitudeDegrees>
              <LongitudeDegrees>-4.379458241164684295654296875</LongitudeDegrees>
            </Position>
            <AltitudeMeters>821.5999755859375</AltitudeMeters>
            <DistanceMeters>NAN</DistanceMeters>
          </Trackpoint>
          <Trackpoint>
            <Time>2020-12-05T13:57:59.000Z</Time>
            <Position>
              <LatitudeDegrees>36.81680836714804172515869140625</LatitudeDegrees>
              <LongitudeDegrees>-4.37944390811026096343994140625</LongitudeDegrees>
            </Position>
            <AltitudeMeters>821.5999755859375</AltitudeMeters>
            <DistanceMeters>NAN</DistanceMeters>
          </Trackpoint>
          <Trackpoint>
            <Time>2020-12-05T13:58:00.000Z</Time>
            <Position>
              <LatitudeDegrees>36.81680853478610515594482421875</LatitudeDegrees>
              <LongitudeDegrees>-4.37943116761744022369384765625</LongitudeDegrees>
            </Position>
            <AltitudeMeters>821.5999755859375</AltitudeMeters>
            <DistanceMeters>NAN</DistanceMeters>
          </Trackpoint>
          <Trackpoint>
            <Time>2020-12-05T13:58:01.000Z</Time>
            <Position>
              <LatitudeDegrees>36.8168081156909465789794921875</LatitudeDegrees>
              <LongitudeDegrees>-4.37941767275333404541015625</LongitudeDegrees>
            </Position>
            <AltitudeMeters>821.5999755859375</AltitudeMeters>
            <DistanceMeters>NAN</DistanceMeters>
          </Trackpoint>
          <Trackpoint>
            <Time>2020-12-05T13:58:02.000Z</Time>
            <Position>
              <LatitudeDegrees>36.81680702604353427886962890625</LatitudeDegrees>
              <LongitudeDegrees>-4.3794077821075916290283203125</LongitudeDegrees>
            </Position>
            <AltitudeMeters>821.79998779296875</AltitudeMeters>
            <DistanceMeters>NAN</DistanceMeters>
          </Trackpoint>
          <Trackpoint>
            <Time>2020-12-05T13:58:03.000Z</Time>
            <Position>
              <LatitudeDegrees>36.81680635549128055572509765625</LatitudeDegrees>
              <LongitudeDegrees>-4.37939680181443691253662109375</LongitudeDegrees>
            </Position>
            <AltitudeMeters>821.79998779296875</AltitudeMeters>
            <DistanceMeters>NAN</DistanceMeters>
          </Trackpoint>
          <Trackpoint>
            <Time>2020-12-05T13:58:04.000Z</Time>
            <Position>
              <LatitudeDegrees>36.81680752895772457122802734375</LatitudeDegrees>
              <LongitudeDegrees>-4.37938682734966278076171875</LongitudeDegrees>
            </Position>
            <AltitudeMeters>821.79998779296875</AltitudeMeters>
            <DistanceMeters>NAN</DistanceMeters>
          </Trackpoint>
          <Trackpoint>
            <Time>2020-12-05T13:58:05.000Z</Time>
            <Position>
              <LatitudeDegrees>36.8168074451386928558349609375</LatitudeDegrees>
              <LongitudeDegrees>-4.37937668524682521820068359375</LongitudeDegrees>
            </Position>
            <AltitudeMeters>822</AltitudeMeters>
            <DistanceMeters>NAN</DistanceMeters>
          </Trackpoint>
          <Trackpoint>
            <Time>2020-12-05T13:58:06.000Z</Time>
            <Position>
              <LatitudeDegrees>36.81680669076740741729736328125</LatitudeDegrees>
              <LongitudeDegrees>-4.379364363849163055419921875</LongitudeDegrees>
            </Position>
            <AltitudeMeters>822</AltitudeMeters>
            <DistanceMeters>NAN</DistanceMeters>
          </Trackpoint>
          <Trackpoint>
            <Time>2020-12-05T13:58:07.000Z</Time>
            <Position>
              <LatitudeDegrees>36.81680627167224884033203125</LatitudeDegrees>
              <LongitudeDegrees>-4.3793504498898983001708984375</LongitudeDegrees>
            </Position>
            <AltitudeMeters>822</AltitudeMeters>
            <DistanceMeters>NAN</DistanceMeters>
          </Trackpoint>
          <Trackpoint>
            <Time>2020-12-05T13:58:08.000Z</Time>
            <Position>
              <LatitudeDegrees>36.81680534966289997100830078125</LatitudeDegrees>
              <LongitudeDegrees>-4.37933376990258693695068359375</LongitudeDegrees>
            </Position>
            <AltitudeMeters>822</AltitudeMeters>
            <DistanceMeters>NAN</DistanceMeters>
          </Trackpoint>
          <Trackpoint>
            <Time>2020-12-05T13:58:09.000Z</Time>
            <Position>
              <LatitudeDegrees>36.8168030865490436553955078125</LatitudeDegrees>
              <LongitudeDegrees>-4.37931683845818042755126953125</LongitudeDegrees>
            </Position>
            <AltitudeMeters>822.20001220703125</AltitudeMeters>
            <DistanceMeters>NAN</DistanceMeters>
          </Trackpoint>
          <Trackpoint>
            <Time>2020-12-05T13:58:10.000Z</Time>
            <Position>
              <LatitudeDegrees>36.81679897941648960113525390625</LatitudeDegrees>
              <LongitudeDegrees>-4.37930091284215450286865234375</LongitudeDegrees>
            </Position>
            <AltitudeMeters>822.4000244140625</AltitudeMeters>
            <DistanceMeters>NAN</DistanceMeters>
          </Trackpoint>
          <Trackpoint>
            <Time>2020-12-05T13:58:11.000Z</Time>
            <Position>
              <LatitudeDegrees>36.8167950399219989776611328125</LatitudeDegrees>
              <LongitudeDegrees>-4.37928247265517711639404296875</LongitudeDegrees>
            </Position>
            <AltitudeMeters>822.5999755859375</AltitudeMeters>
            <DistanceMeters>NAN</DistanceMeters>
          </Trackpoint>
          <Trackpoint>
            <Time>2020-12-05T13:58:12.000Z</Time>
            <Position>
              <LatitudeDegrees>36.8167910166084766387939453125</LatitudeDegrees>
              <LongitudeDegrees>-4.379261769354343414306640625</LongitudeDegrees>
            </Position>
            <AltitudeMeters>822.5999755859375</AltitudeMeters>
            <DistanceMeters>NAN</DistanceMeters>
          </Trackpoint>
          <Trackpoint>
            <Time>2020-12-05T13:58:13.000Z</Time>
            <Position>
              <LatitudeDegrees>36.81678657419979572296142578125</LatitudeDegrees>
              <LongitudeDegrees>-4.3792471848428249359130859375</LongitudeDegrees>
            </Position>
            <AltitudeMeters>822.79998779296875</AltitudeMeters>
            <DistanceMeters>NAN</DistanceMeters>
          </Trackpoint>
          <Trackpoint>
            <Time>2020-12-05T13:58:14.000Z</Time>
            <Position>
              <LatitudeDegrees>36.81678070686757564544677734375</LatitudeDegrees>
              <LongitudeDegrees>-4.3792314268648624420166015625</LongitudeDegrees>
            </Position>
            <AltitudeMeters>822.79998779296875</AltitudeMeters>
            <DistanceMeters>NAN</DistanceMeters>
          </Trackpoint>
          <Trackpoint>
            <Time>2020-12-05T13:58:15.000Z</Time>
            <Position>
              <LatitudeDegrees>36.8167747557163238525390625</LatitudeDegrees>
              <LongitudeDegrees>-4.3792160041630268096923828125</LongitudeDegrees>
            </Position>
            <AltitudeMeters>823</AltitudeMeters>
            <DistanceMeters>NAN</DistanceMeters>
          </Trackpoint>
          <Trackpoint>
            <Time>2020-12-05T13:58:16.000Z</Time>
            <Position>
              <LatitudeDegrees>36.81676796637475490570068359375</LatitudeDegrees>
              <LongitudeDegrees>-4.37920066528022289276123046875</LongitudeDegrees>
            </Position>
            <AltitudeMeters>823</AltitudeMeters>
            <DistanceMeters>NAN</DistanceMeters>
          </Trackpoint>
          <Trackpoint>
            <Time>2020-12-05T13:58:17.000Z</Time>
            <Position>
              <LatitudeDegrees>36.816761009395122528076171875</LatitudeDegrees>
              <LongitudeDegrees>-4.37918624840676784515380859375</LongitudeDegrees>
            </Position>
            <AltitudeMeters>823</AltitudeMeters>
            <DistanceMeters>NAN</DistanceMeters>
          </Trackpoint>
          <Trackpoint>
            <Time>2020-12-05T13:58:18.000Z</Time>
            <Position>
              <LatitudeDegrees>36.81675405241549015045166015625</LatitudeDegrees>
              <LongitudeDegrees>-4.3791742622852325439453125</LongitudeDegrees>
            </Position>
            <AltitudeMeters>823</AltitudeMeters>
            <DistanceMeters>NAN</DistanceMeters>
          </Trackpoint>
          <Trackpoint>
            <Time>2020-12-05T13:58:19.000Z</Time>
            <Position>
              <LatitudeDegrees>36.81674768216907978057861328125</LatitudeDegrees>
              <LongitudeDegrees>-4.37916562892496585845947265625</LongitudeDegrees>
            </Position>
            <AltitudeMeters>823.20001220703125</AltitudeMeters>
            <DistanceMeters>NAN</DistanceMeters>
          </Trackpoint>
          <Trackpoint>
            <Time>2020-12-05T13:58:20.000Z</Time>
            <Position>
              <LatitudeDegrees>36.8167413957417011260986328125</LatitudeDegrees>
              <LongitudeDegrees>-4.37915808521211147308349609375</LongitudeDegrees>
            </Position>
            <AltitudeMeters>823.20001220703125</AltitudeMeters>
            <DistanceMeters>NAN</DistanceMeters>
          </Trackpoint>
          <Trackpoint>
            <Time>2020-12-05T13:58:21.000Z</Time>
            <Position>
              <LatitudeDegrees>36.81673393584787845611572265625</LatitudeDegrees>
              <LongitudeDegrees>-4.37915087677538394927978515625</LongitudeDegrees>
            </Position>
            <AltitudeMeters>823.4000244140625</AltitudeMeters>
            <DistanceMeters>NAN</DistanceMeters>
          </Trackpoint>
          <Trackpoint>
            <Time>2020-12-05T13:58:22.000Z</Time>
            <Position>
              <LatitudeDegrees>36.81672605685889720916748046875</LatitudeDegrees>
              <LongitudeDegrees>-4.3791425786912441253662109375</LongitudeDegrees>
            </Position>
            <AltitudeMeters>823.4000244140625</AltitudeMeters>
            <DistanceMeters>NAN</DistanceMeters>
          </Trackpoint>
          <Trackpoint>
            <Time>2020-12-05T13:58:23.000Z</Time>
            <Position>
              <LatitudeDegrees>36.81671616621315479278564453125</LatitudeDegrees>
              <LongitudeDegrees>-4.37913394533097743988037109375</LongitudeDegrees>
            </Position>
            <AltitudeMeters>823.5999755859375</AltitudeMeters>
            <DistanceMeters>NAN</DistanceMeters>
          </Trackpoint>
          <Trackpoint>
            <Time>2020-12-05T13:58:24.000Z</Time>
            <Position>
              <LatitudeDegrees>36.81670493446290493011474609375</LatitudeDegrees>
              <LongitudeDegrees>-4.37912556342780590057373046875</LongitudeDegrees>
            </Position>
            <AltitudeMeters>823.5999755859375</AltitudeMeters>
            <DistanceMeters>NAN</DistanceMeters>
          </Trackpoint>
          <Trackpoint>
            <Time>2020-12-05T13:58:25.000Z</Time>
            <Position>
              <LatitudeDegrees>36.816692613065242767333984375</LatitudeDegrees>
              <LongitudeDegrees>-4.3791184388101100921630859375</LongitudeDegrees>
            </Position>
            <AltitudeMeters>823.5999755859375</AltitudeMeters>
            <DistanceMeters>NAN</DistanceMeters>
          </Trackpoint>
          <Trackpoint>
            <Time>2020-12-05T13:58:26.000Z</Time>
            <Position>
              <LatitudeDegrees>36.81668297387659549713134765625</LatitudeDegrees>
              <LongitudeDegrees>-4.37911097891628742218017578125</LongitudeDegrees>
            </Position>
            <AltitudeMeters>823.4000244140625</AltitudeMeters>
            <DistanceMeters>NAN</DistanceMeters>
          </Trackpoint>
          <Trackpoint>
            <Time>2020-12-05T13:58:27.000Z</Time>
            <Position>
              <LatitudeDegrees>36.8166736699640750885009765625</LatitudeDegrees>
              <LongitudeDegrees>-4.3791033513844013214111328125</LongitudeDegrees>
            </Position>
            <AltitudeMeters>823.5999755859375</AltitudeMeters>
            <DistanceMeters>NAN</DistanceMeters>
          </Trackpoint>
          <Trackpoint>
            <Time>2020-12-05T13:58:28.000Z</Time>
            <Position>
              <LatitudeDegrees>36.8166649527847766876220703125</LatitudeDegrees>
              <LongitudeDegrees>-4.37909488566219806671142578125</LongitudeDegrees>
            </Position>
            <AltitudeMeters>823.5999755859375</AltitudeMeters>
            <DistanceMeters>NAN</DistanceMeters>
          </Trackpoint>
          <Trackpoint>
            <Time>2020-12-05T13:58:29.000Z</Time>
            <Position>
              <LatitudeDegrees>36.81665749289095401763916015625</LatitudeDegrees>
              <LongitudeDegrees>-4.37908734194934368133544921875</LongitudeDegrees>
            </Position>
            <AltitudeMeters>823.5999755859375</AltitudeMeters>
            <DistanceMeters>NAN</DistanceMeters>
          </Trackpoint>
          <Trackpoint>
            <Time>2020-12-05T13:58:30.000Z</Time>
            <Position>
              <LatitudeDegrees>36.816649697721004486083984375</LatitudeDegrees>
              <LongitudeDegrees>-4.37907711602747440338134765625</LongitudeDegrees>
            </Position>
            <AltitudeMeters>823.4000244140625</AltitudeMeters>
            <DistanceMeters>NAN</DistanceMeters>
          </Trackpoint>
          <Trackpoint>
            <Time>2020-12-05T13:58:31.000Z</Time>
            <Position>
              <LatitudeDegrees>36.81664190255105495452880859375</LatitudeDegrees>
              <LongitudeDegrees>-4.37906621955335140228271484375</LongitudeDegrees>
            </Position>
            <AltitudeMeters>823.4000244140625</AltitudeMeters>
            <DistanceMeters>NAN</DistanceMeters>
          </Trackpoint>
          <Trackpoint>
            <Time>2020-12-05T13:58:32.000Z</Time>
            <Position>
              <LatitudeDegrees>36.816632933914661407470703125</LatitudeDegrees>
              <LongitudeDegrees>-4.37906093895435333251953125</LongitudeDegrees>
            </Position>
            <AltitudeMeters>823.5999755859375</AltitudeMeters>
            <DistanceMeters>NAN</DistanceMeters>
          </Trackpoint>
          <Trackpoint>
            <Time>2020-12-05T13:58:33.000Z</Time>
            <Position>
              <LatitudeDegrees>36.8166247196495532989501953125</LatitudeDegrees>
              <LongitudeDegrees>-4.3790530599653720855712890625</LongitudeDegrees>
            </Position>
            <AltitudeMeters>823.5999755859375</AltitudeMeters>
            <DistanceMeters>NAN</DistanceMeters>
          </Trackpoint>
          <Trackpoint>
            <Time>2020-12-05T13:58:34.000Z</Time>
            <Position>
              <LatitudeDegrees>36.816616840660572052001953125</LatitudeDegrees>
              <LongitudeDegrees>-4.3790497072041034698486328125</LongitudeDegrees>
            </Position>
            <AltitudeMeters>823.5999755859375</AltitudeMeters>
            <DistanceMeters>NAN</DistanceMeters>
          </Trackpoint>
          <Trackpoint>
            <Time>2020-12-05T13:58:35.000Z</Time>
            <Position>
              <LatitudeDegrees>36.81660711765289306640625</LatitudeDegrees>
              <LongitudeDegrees>-4.379043169319629669189453125</LongitudeDegrees>
            </Position>
            <AltitudeMeters>823.5999755859375</AltitudeMeters>
            <DistanceMeters>NAN</DistanceMeters>
          </Trackpoint>
          <Trackpoint>
            <Time>2020-12-05T13:58:36.000Z</Time>
            <Position>
              <LatitudeDegrees>36.81659705936908721923828125</LatitudeDegrees>
              <LongitudeDegrees>-4.37903269194066524505615234375</LongitudeDegrees>
            </Position>
            <AltitudeMeters>823.79998779296875</AltitudeMeters>
            <DistanceMeters>NAN</DistanceMeters>
          </Trackpoint>
          <Trackpoint>
            <Time>2020-12-05T13:58:37.000Z</Time>
            <Position>
              <LatitudeDegrees>36.81658842600882053375244140625</LatitudeDegrees>
              <LongitudeDegrees>-4.3790245614945888519287109375</LongitudeDegrees>
            </Position>
            <AltitudeMeters>823.79998779296875</AltitudeMeters>
            <DistanceMeters>NAN</DistanceMeters>
          </Trackpoint>
          <Trackpoint>
            <Time>2020-12-05T13:58:38.000Z</Time>
            <Position>
              <LatitudeDegrees>36.81658096611499786376953125</LatitudeDegrees>
              <LongitudeDegrees>-4.379012994468212127685546875</LongitudeDegrees>
            </Position>
            <AltitudeMeters>823.79998779296875</AltitudeMeters>
            <DistanceMeters>NAN</DistanceMeters>
          </Trackpoint>
          <Trackpoint>
            <Time>2020-12-05T13:58:39.000Z</Time>
            <Position>
              <LatitudeDegrees>36.81657317094504833221435546875</LatitudeDegrees>
              <LongitudeDegrees>-4.37900100834667682647705078125</LongitudeDegrees>
            </Position>
            <AltitudeMeters>824</AltitudeMeters>
            <DistanceMeters>NAN</DistanceMeters>
          </Trackpoint>
          <Trackpoint>
            <Time>2020-12-05T13:58:40.000Z</Time>
            <Position>
              <LatitudeDegrees>36.8165653757750988006591796875</LatitudeDegrees>
              <LongitudeDegrees>-4.37898759730160236358642578125</LongitudeDegrees>
            </Position>
            <AltitudeMeters>824</AltitudeMeters>
            <DistanceMeters>NAN</DistanceMeters>
          </Trackpoint>
          <Trackpoint>
            <Time>2020-12-05T13:58:41.000Z</Time>
            <Position>
              <LatitudeDegrees>36.8165593408048152923583984375</LatitudeDegrees>
              <LongitudeDegrees>-4.37897603027522563934326171875</LongitudeDegrees>
            </Position>
            <AltitudeMeters>824</AltitudeMeters>
            <DistanceMeters>NAN</DistanceMeters>
          </Trackpoint>
          <Trackpoint>
            <Time>2020-12-05T13:58:42.000Z</Time>
            <Position>
              <LatitudeDegrees>36.81655439548194408416748046875</LatitudeDegrees>
              <LongitudeDegrees>-4.37896781601011753082275390625</LongitudeDegrees>
            </Position>
            <AltitudeMeters>824</AltitudeMeters>
            <DistanceMeters>NAN</DistanceMeters>
          </Trackpoint>
          <Trackpoint>
            <Time>2020-12-05T13:58:43.000Z</Time>
            <Position>
              <LatitudeDegrees>36.81655188091099262237548828125</LatitudeDegrees>
              <LongitudeDegrees>-4.3789591826498508453369140625</LongitudeDegrees>
            </Position>
            <AltitudeMeters>824</AltitudeMeters>
            <DistanceMeters>NAN</DistanceMeters>
          </Trackpoint>
          <Trackpoint>
            <Time>2020-12-05T13:58:44.000Z</Time>
            <Position>
              <LatitudeDegrees>36.816549785435199737548828125</LatitudeDegrees>
              <LongitudeDegrees>-4.37894568778574466705322265625</LongitudeDegrees>
            </Position>
            <AltitudeMeters>824</AltitudeMeters>
            <DistanceMeters>NAN</DistanceMeters>
          </Trackpoint>
          <Trackpoint>
            <Time>2020-12-05T13:58:45.000Z</Time>
            <Position>
              <LatitudeDegrees>36.81654567830264568328857421875</LatitudeDegrees>
              <LongitudeDegrees>-4.3789343722164630889892578125</LongitudeDegrees>
            </Position>
            <AltitudeMeters>824</AltitudeMeters>
            <DistanceMeters>NAN</DistanceMeters>
          </Trackpoint>
          <Trackpoint>
            <Time>2020-12-05T13:58:46.000Z</Time>
            <Position>
              <LatitudeDegrees>36.81654266081750392913818359375</LatitudeDegrees>
              <LongitudeDegrees>-4.3789219669997692108154296875</LongitudeDegrees>
            </Position>
            <AltitudeMeters>824</AltitudeMeters>
            <DistanceMeters>NAN</DistanceMeters>
          </Trackpoint>
          <Trackpoint>
            <Time>2020-12-05T13:58:47.000Z</Time>
            <Position>
              <LatitudeDegrees>36.8165388889610767364501953125</LatitudeDegrees>
              <LongitudeDegrees>-4.37891266308724880218505859375</LongitudeDegrees>
            </Position>
            <AltitudeMeters>823.79998779296875</AltitudeMeters>
            <DistanceMeters>NAN</DistanceMeters>
          </Trackpoint>
          <Trackpoint>
            <Time>2020-12-05T13:58:48.000Z</Time>
            <Position>
              <LatitudeDegrees>36.81653612293303012847900390625</LatitudeDegrees>
              <LongitudeDegrees>-4.37890780158340930938720703125</LongitudeDegrees>
            </Position>
            <AltitudeMeters>823.79998779296875</AltitudeMeters>
            <DistanceMeters>NAN</DistanceMeters>
          </Trackpoint>
          <Trackpoint>
            <Time>2020-12-05T13:58:49.000Z</Time>
            <Position>
              <LatitudeDegrees>36.8165331892669200897216796875</LatitudeDegrees>
              <LongitudeDegrees>-4.378903023898601531982421875</LongitudeDegrees>
            </Position>
            <AltitudeMeters>823.79998779296875</AltitudeMeters>
            <DistanceMeters>NAN</DistanceMeters>
          </Trackpoint>
          <Trackpoint>
            <Time>2020-12-05T13:58:50.000Z</Time>
            <Position>
              <LatitudeDegrees>36.8165321834385395050048828125</LatitudeDegrees>
              <LongitudeDegrees>-4.37889623455703258514404296875</LongitudeDegrees>
            </Position>
            <AltitudeMeters>823.5999755859375</AltitudeMeters>
            <DistanceMeters>NAN</DistanceMeters>
          </Trackpoint>
          <Trackpoint>
            <Time>2020-12-05T13:58:51.000Z</Time>
            <Position>
              <LatitudeDegrees>36.8165306746959686279296875</LatitudeDegrees>
              <LongitudeDegrees>-4.37888852320611476898193359375</LongitudeDegrees>
            </Position>
            <AltitudeMeters>823.5999755859375</AltitudeMeters>
            <DistanceMeters>NAN</DistanceMeters>
          </Trackpoint>
          <Trackpoint>
            <Time>2020-12-05T13:58:52.000Z</Time>
            <Position>
              <LatitudeDegrees>36.81653159670531749725341796875</LatitudeDegrees>
              <LongitudeDegrees>-4.37887745909392833709716796875</LongitudeDegrees>
            </Position>
            <AltitudeMeters>823.5999755859375</AltitudeMeters>
            <DistanceMeters>NAN</DistanceMeters>
          </Trackpoint>
          <Trackpoint>
            <Time>2020-12-05T13:58:53.000Z</Time>
            <Position>
              <LatitudeDegrees>36.816531680524349212646484375</LatitudeDegrees>
              <LongitudeDegrees>-4.37886781990528106689453125</LongitudeDegrees>
            </Position>
            <AltitudeMeters>823.4000244140625</AltitudeMeters>
            <DistanceMeters>NAN</DistanceMeters>
          </Trackpoint>
          <Trackpoint>
            <Time>2020-12-05T13:58:54.000Z</Time>
            <Position>
              <LatitudeDegrees>36.81653134524822235107421875</LatitudeDegrees>
              <LongitudeDegrees>-4.378857426345348358154296875</LongitudeDegrees>
            </Position>
            <AltitudeMeters>823.4000244140625</AltitudeMeters>
            <DistanceMeters>NAN</DistanceMeters>
          </Trackpoint>
          <Trackpoint>
            <Time>2020-12-05T13:58:55.000Z</Time>
            <Position>
              <LatitudeDegrees>36.81652992032468318939208984375</LatitudeDegrees>
              <LongitudeDegrees>-4.3788455240428447723388671875</LongitudeDegrees>
            </Position>
            <AltitudeMeters>823.20001220703125</AltitudeMeters>
            <DistanceMeters>NAN</DistanceMeters>
          </Trackpoint>
          <Trackpoint>
            <Time>2020-12-05T13:58:56.000Z</Time>
            <Position>
              <LatitudeDegrees>36.81652556173503398895263671875</LatitudeDegrees>
              <LongitudeDegrees>-4.378831945359706878662109375</LongitudeDegrees>
            </Position>
            <AltitudeMeters>823.20001220703125</AltitudeMeters>
            <DistanceMeters>NAN</DistanceMeters>
          </Trackpoint>
          <Trackpoint>
            <Time>2020-12-05T13:58:57.000Z</Time>
            <Position>
              <LatitudeDegrees>36.8165170960128307342529296875</LatitudeDegrees>
              <LongitudeDegrees>-4.37881828285753726959228515625</LongitudeDegrees>
            </Position>
            <AltitudeMeters>823.20001220703125</AltitudeMeters>
            <DistanceMeters>NAN</DistanceMeters>
          </Trackpoint>
          <Trackpoint>
            <Time>2020-12-05T13:58:58.000Z</Time>
            <Position>
              <LatitudeDegrees>36.8165110610425472259521484375</LatitudeDegrees>
              <LongitudeDegrees>-4.378805123269557952880859375</LongitudeDegrees>
            </Position>
            <AltitudeMeters>823</AltitudeMeters>
            <DistanceMeters>NAN</DistanceMeters>
          </Trackpoint>
          <Trackpoint>
            <Time>2020-12-05T13:58:59.000Z</Time>
            <Position>
              <LatitudeDegrees>36.81650477461516857147216796875</LatitudeDegrees>
              <LongitudeDegrees>-4.3787972442805767059326171875</LongitudeDegrees>
            </Position>
            <AltitudeMeters>823</AltitudeMeters>
            <DistanceMeters>NAN</DistanceMeters>
          </Trackpoint>
          <Trackpoint>
            <Time>2020-12-05T13:59:00.000Z</Time>
            <Position>
              <LatitudeDegrees>36.81649890728294849395751953125</LatitudeDegrees>
              <LongitudeDegrees>-4.3787868507206439971923828125</LongitudeDegrees>
            </Position>
            <AltitudeMeters>823.20001220703125</AltitudeMeters>
            <DistanceMeters>NAN</DistanceMeters>
          </Trackpoint>
          <Trackpoint>
            <Time>2020-12-05T13:59:01.000Z</Time>
            <Position>
              <LatitudeDegrees>36.81649513542652130126953125</LatitudeDegrees>
              <LongitudeDegrees>-4.378774948418140411376953125</LongitudeDegrees>
            </Position>
            <AltitudeMeters>823.20001220703125</AltitudeMeters>
            <DistanceMeters>NAN</DistanceMeters>
          </Trackpoint>
          <Trackpoint>
            <Time>2020-12-05T13:59:02.000Z</Time>
            <Position>
              <LatitudeDegrees>36.8164892680943012237548828125</LatitudeDegrees>
              <LongitudeDegrees>-4.3787692487239837646484375</LongitudeDegrees>
            </Position>
            <AltitudeMeters>823</AltitudeMeters>
            <DistanceMeters>NAN</DistanceMeters>
          </Trackpoint>
          <Trackpoint>
            <Time>2020-12-05T13:59:03.000Z</Time>
            <Position>
              <LatitudeDegrees>36.81648516096174716949462890625</LatitudeDegrees>
              <LongitudeDegrees>-4.37875592149794101715087890625</LongitudeDegrees>
            </Position>
            <AltitudeMeters>823</AltitudeMeters>
            <DistanceMeters>NAN</DistanceMeters>
          </Trackpoint>
          <Trackpoint>
            <Time>2020-12-05T13:59:04.000Z</Time>
            <Position>
              <LatitudeDegrees>36.81648499332368373870849609375</LatitudeDegrees>
              <LongitudeDegrees>-4.37873505055904388427734375</LongitudeDegrees>
            </Position>
            <AltitudeMeters>823.20001220703125</AltitudeMeters>
            <DistanceMeters>NAN</DistanceMeters>
          </Trackpoint>
          <Trackpoint>
            <Time>2020-12-05T13:59:05.000Z</Time>
            <Position>
              <LatitudeDegrees>36.816484071314334869384765625</LatitudeDegrees>
              <LongitudeDegrees>-4.37871987931430339813232421875</LongitudeDegrees>
            </Position>
            <AltitudeMeters>823.20001220703125</AltitudeMeters>
            <DistanceMeters>NAN</DistanceMeters>
          </Trackpoint>
          <Trackpoint>
            <Time>2020-12-05T13:59:06.000Z</Time>
            <Position>
              <LatitudeDegrees>36.81648365221917629241943359375</LatitudeDegrees>
              <LongitudeDegrees>-4.3787073902785778045654296875</LongitudeDegrees>
            </Position>
            <AltitudeMeters>823.4000244140625</AltitudeMeters>
            <DistanceMeters>NAN</DistanceMeters>
          </Trackpoint>
          <Trackpoint>
            <Time>2020-12-05T13:59:07.000Z</Time>
            <Position>
              <LatitudeDegrees>36.81648348458111286163330078125</LatitudeDegrees>
              <LongitudeDegrees>-4.37869724817574024200439453125</LongitudeDegrees>
            </Position>
            <AltitudeMeters>823.20001220703125</AltitudeMeters>
            <DistanceMeters>NAN</DistanceMeters>
          </Trackpoint>
          <Trackpoint>
            <Time>2020-12-05T13:59:08.000Z</Time>
            <Position>
              <LatitudeDegrees>36.81648566387593746185302734375</LatitudeDegrees>
              <LongitudeDegrees>-4.37868316657841205596923828125</LongitudeDegrees>
            </Position>
            <AltitudeMeters>823.20001220703125</AltitudeMeters>
            <DistanceMeters>NAN</DistanceMeters>
          </Trackpoint>
          <Trackpoint>
            <Time>2020-12-05T13:59:09.000Z</Time>
            <Position>
              <LatitudeDegrees>36.816486418247222900390625</LatitudeDegrees>
              <LongitudeDegrees>-4.37867059372365474700927734375</LongitudeDegrees>
            </Position>
            <AltitudeMeters>823.4000244140625</AltitudeMeters>
            <DistanceMeters>NAN</DistanceMeters>
          </Trackpoint>
          <Trackpoint>
            <Time>2020-12-05T13:59:10.000Z</Time>
            <Position>
              <LatitudeDegrees>36.816488094627857208251953125</LatitudeDegrees>
              <LongitudeDegrees>-4.37865768559277057647705078125</LongitudeDegrees>
            </Position>
            <AltitudeMeters>823.4000244140625</AltitudeMeters>
            <DistanceMeters>NAN</DistanceMeters>
          </Trackpoint>
          <Trackpoint>
            <Time>2020-12-05T13:59:11.000Z</Time>
            <Position>
              <LatitudeDegrees>36.8164899386465549468994140625</LatitudeDegrees>
              <LongitudeDegrees>-4.37864209525287151336669921875</LongitudeDegrees>
            </Position>
            <AltitudeMeters>823.4000244140625</AltitudeMeters>
            <DistanceMeters>NAN</DistanceMeters>
          </Trackpoint>
          <Trackpoint>
            <Time>2020-12-05T13:59:12.000Z</Time>
            <Position>
              <LatitudeDegrees>36.81649270467460155487060546875</LatitudeDegrees>
              <LongitudeDegrees>-4.3786255829036235809326171875</LongitudeDegrees>
            </Position>
            <AltitudeMeters>823.4000244140625</AltitudeMeters>
            <DistanceMeters>NAN</DistanceMeters>
          </Trackpoint>
          <Trackpoint>
            <Time>2020-12-05T13:59:13.000Z</Time>
            <Position>
              <LatitudeDegrees>36.81649421341717243194580078125</LatitudeDegrees>
              <LongitudeDegrees>-4.37861007638275623321533203125</LongitudeDegrees>
            </Position>
            <AltitudeMeters>823.20001220703125</AltitudeMeters>
            <DistanceMeters>NAN</DistanceMeters>
          </Trackpoint>
          <Trackpoint>
            <Time>2020-12-05T13:59:14.000Z</Time>
            <Position>
              <LatitudeDegrees>36.81649270467460155487060546875</LatitudeDegrees>
              <LongitudeDegrees>-4.3785987608134746551513671875</LongitudeDegrees>
            </Position>
            <AltitudeMeters>823.20001220703125</AltitudeMeters>
            <DistanceMeters>NAN</DistanceMeters>
          </Trackpoint>
          <Trackpoint>
            <Time>2020-12-05T13:59:15.000Z</Time>
            <Position>
              <LatitudeDegrees>36.81649069301784038543701171875</LatitudeDegrees>
              <LongitudeDegrees>-4.3785883672535419464111328125</LongitudeDegrees>
            </Position>
            <AltitudeMeters>823.20001220703125</AltitudeMeters>
            <DistanceMeters>NAN</DistanceMeters>
          </Trackpoint>
          <Trackpoint>
            <Time>2020-12-05T13:59:16.000Z</Time>
            <Position>
              <LatitudeDegrees>36.81648951955139636993408203125</LatitudeDegrees>
              <LongitudeDegrees>-4.3785766325891017913818359375</LongitudeDegrees>
            </Position>
            <AltitudeMeters>823.20001220703125</AltitudeMeters>
            <DistanceMeters>NAN</DistanceMeters>
          </Trackpoint>
          <Trackpoint>
            <Time>2020-12-05T13:59:17.000Z</Time>
            <Position>
              <LatitudeDegrees>36.81649119593203067779541015625</LatitudeDegrees>
              <LongitudeDegrees>-4.37855995260179042816162109375</LongitudeDegrees>
            </Position>
            <AltitudeMeters>823.20001220703125</AltitudeMeters>
            <DistanceMeters>NAN</DistanceMeters>
          </Trackpoint>
          <Trackpoint>
            <Time>2020-12-05T13:59:18.000Z</Time>
            <Position>
              <LatitudeDegrees>36.81649253703653812408447265625</LatitudeDegrees>
              <LongitudeDegrees>-4.37854536809027194976806640625</LongitudeDegrees>
            </Position>
            <AltitudeMeters>823.20001220703125</AltitudeMeters>
            <DistanceMeters>NAN</DistanceMeters>
          </Trackpoint>
          <Trackpoint>
            <Time>2020-12-05T13:59:19.000Z</Time>
            <Position>
              <LatitudeDegrees>36.8164909444749355316162109375</LatitudeDegrees>
              <LongitudeDegrees>-4.37853463925421237945556640625</LongitudeDegrees>
            </Position>
            <AltitudeMeters>823.20001220703125</AltitudeMeters>
            <DistanceMeters>NAN</DistanceMeters>
          </Trackpoint>
          <Trackpoint>
            <Time>2020-12-05T13:59:20.000Z</Time>
            <Position>
              <LatitudeDegrees>36.8164872564375400543212890625</LatitudeDegrees>
              <LongitudeDegrees>-4.37852424569427967071533203125</LongitudeDegrees>
            </Position>
            <AltitudeMeters>823.20001220703125</AltitudeMeters>
            <DistanceMeters>NAN</DistanceMeters>
          </Trackpoint>
          <Trackpoint>
            <Time>2020-12-05T13:59:21.000Z</Time>
            <Position>
              <LatitudeDegrees>36.81648080237209796905517578125</LatitudeDegrees>
              <LongitudeDegrees>-4.378515779972076416015625</LongitudeDegrees>
            </Position>
            <AltitudeMeters>823.4000244140625</AltitudeMeters>
            <DistanceMeters>NAN</DistanceMeters>
          </Trackpoint>
          <Trackpoint>
            <Time>2020-12-05T13:59:22.000Z</Time>
            <Position>
              <LatitudeDegrees>36.81647376157343387603759765625</LatitudeDegrees>
              <LongitudeDegrees>-4.3785062246024608612060546875</LongitudeDegrees>
            </Position>
            <AltitudeMeters>823.4000244140625</AltitudeMeters>
            <DistanceMeters>NAN</DistanceMeters>
          </Trackpoint>
          <Trackpoint>
            <Time>2020-12-05T13:59:23.000Z</Time>
            <Position>
              <LatitudeDegrees>36.81646688841283321380615234375</LatitudeDegrees>
              <LongitudeDegrees>-4.37850044108927249908447265625</LongitudeDegrees>
            </Position>
            <AltitudeMeters>823.4000244140625</AltitudeMeters>
            <DistanceMeters>NAN</DistanceMeters>
          </Trackpoint>
          <Trackpoint>
            <Time>2020-12-05T13:59:24.000Z</Time>
            <Position>
              <LatitudeDegrees>36.8164574168622493743896484375</LatitudeDegrees>
              <LongitudeDegrees>-4.37849759124219417572021484375</LongitudeDegrees>
            </Position>
            <AltitudeMeters>823.4000244140625</AltitudeMeters>
            <DistanceMeters>NAN</DistanceMeters>
          </Trackpoint>
          <Trackpoint>
            <Time>2020-12-05T13:59:25.000Z</Time>
            <Position>
              <LatitudeDegrees>36.81644819676876068115234375</LatitudeDegrees>
              <LongitudeDegrees>-4.37849759124219417572021484375</LongitudeDegrees>
            </Position>
            <AltitudeMeters>823.4000244140625</AltitudeMeters>
            <DistanceMeters>NAN</DistanceMeters>
          </Trackpoint>
          <Trackpoint>
            <Time>2020-12-05T13:59:26.000Z</Time>
            <Position>
              <LatitudeDegrees>36.8164423294365406036376953125</LatitudeDegrees>
              <LongitudeDegrees>-4.3784968368709087371826171875</LongitudeDegrees>
            </Position>
            <AltitudeMeters>823.4000244140625</AltitudeMeters>
            <DistanceMeters>NAN</DistanceMeters>
          </Trackpoint>
          <Trackpoint>
            <Time>2020-12-05T13:59:27.000Z</Time>
            <Position>
              <LatitudeDegrees>36.816436462104320526123046875</LatitudeDegrees>
              <LongitudeDegrees>-4.37849759124219417572021484375</LongitudeDegrees>
            </Position>
            <AltitudeMeters>823.4000244140625</AltitudeMeters>
            <DistanceMeters>NAN</DistanceMeters>
          </Trackpoint>
          <Trackpoint>
            <Time>2020-12-05T13:59:28.000Z</Time>
            <Position>
              <LatitudeDegrees>36.81643000803887844085693359375</LatitudeDegrees>
              <LongitudeDegrees>-4.37849943526089191436767578125</LongitudeDegrees>
            </Position>
            <AltitudeMeters>823.20001220703125</AltitudeMeters>
            <DistanceMeters>NAN</DistanceMeters>
          </Trackpoint>
          <Trackpoint>
            <Time>2020-12-05T13:59:29.000Z</Time>
            <Position>
              <LatitudeDegrees>36.8164198659360408782958984375</LatitudeDegrees>
              <LongitudeDegrees>-4.3784985132515430450439453125</LongitudeDegrees>
            </Position>
            <AltitudeMeters>823.4000244140625</AltitudeMeters>
            <DistanceMeters>NAN</DistanceMeters>
          </Trackpoint>
          <Trackpoint>
            <Time>2020-12-05T13:59:30.000Z</Time>
            <Position>
              <LatitudeDegrees>36.81640804745256900787353515625</LatitudeDegrees>
              <LongitudeDegrees>-4.37849876470863819122314453125</LongitudeDegrees>
            </Position>
            <AltitudeMeters>823.4000244140625</AltitudeMeters>
            <DistanceMeters>NAN</DistanceMeters>
          </Trackpoint>
          <Trackpoint>
            <Time>2020-12-05T13:59:31.000Z</Time>
            <Position>
              <LatitudeDegrees>36.81639497168362140655517578125</LatitudeDegrees>
              <LongitudeDegrees>-4.378499351441860198974609375</LongitudeDegrees>
            </Position>
            <AltitudeMeters>823.5999755859375</AltitudeMeters>
            <DistanceMeters>NAN</DistanceMeters>
          </Trackpoint>
          <Trackpoint>
            <Time>2020-12-05T13:59:32.000Z</Time>
            <Position>
              <LatitudeDegrees>36.81638005189597606658935546875</LatitudeDegrees>
              <LongitudeDegrees>-4.37849775888025760650634765625</LongitudeDegrees>
            </Position>
            <AltitudeMeters>823.79998779296875</AltitudeMeters>
            <DistanceMeters>NAN</DistanceMeters>
          </Trackpoint>
          <Trackpoint>
            <Time>2020-12-05T13:59:33.000Z</Time>
            <Position>
              <LatitudeDegrees>36.81636513210833072662353515625</LatitudeDegrees>
              <LongitudeDegrees>-4.37849767506122589111328125</LongitudeDegrees>
            </Position>
            <AltitudeMeters>823.79998779296875</AltitudeMeters>
            <DistanceMeters>NAN</DistanceMeters>
          </Trackpoint>
          <Trackpoint>
            <Time>2020-12-05T13:59:34.000Z</Time>
            <Position>
              <LatitudeDegrees>36.81635255925357341766357421875</LatitudeDegrees>
              <LongitudeDegrees>-4.3784954957664012908935546875</LongitudeDegrees>
            </Position>
            <AltitudeMeters>824</AltitudeMeters>
            <DistanceMeters>NAN</DistanceMeters>
          </Trackpoint>
          <Trackpoint>
            <Time>2020-12-05T13:59:35.000Z</Time>
            <Position>
              <LatitudeDegrees>36.81634283624589443206787109375</LatitudeDegrees>
              <LongitudeDegrees>-4.37849239446222782135009765625</LongitudeDegrees>
            </Position>
            <AltitudeMeters>824</AltitudeMeters>
            <DistanceMeters>NAN</DistanceMeters>
          </Trackpoint>
          <Trackpoint>
            <Time>2020-12-05T13:59:36.000Z</Time>
            <Position>
              <LatitudeDegrees>36.81633244268596172332763671875</LatitudeDegrees>
              <LongitudeDegrees>-4.3784897960722446441650390625</LongitudeDegrees>
            </Position>
            <AltitudeMeters>824</AltitudeMeters>
            <DistanceMeters>NAN</DistanceMeters>
          </Trackpoint>
          <Trackpoint>
            <Time>2020-12-05T13:59:37.000Z</Time>
            <Position>
              <LatitudeDegrees>36.81632271967828273773193359375</LatitudeDegrees>
              <LongitudeDegrees>-4.37848703004419803619384765625</LongitudeDegrees>
            </Position>
            <AltitudeMeters>824</AltitudeMeters>
            <DistanceMeters>NAN</DistanceMeters>
          </Trackpoint>
          <Trackpoint>
            <Time>2020-12-05T13:59:38.000Z</Time>
            <Position>
              <LatitudeDegrees>36.81631140410900115966796875</LatitudeDegrees>
              <LongitudeDegrees>-4.37848334200680255889892578125</LongitudeDegrees>
            </Position>
            <AltitudeMeters>823.79998779296875</AltitudeMeters>
            <DistanceMeters>NAN</DistanceMeters>
          </Trackpoint>
          <Trackpoint>
            <Time>2020-12-05T13:59:39.000Z</Time>
            <Position>
              <LatitudeDegrees>36.81629908271133899688720703125</LatitudeDegrees>
              <LongitudeDegrees>-4.37847881577908992767333984375</LongitudeDegrees>
            </Position>
            <AltitudeMeters>823.79998779296875</AltitudeMeters>
            <DistanceMeters>NAN</DistanceMeters>
          </Trackpoint>
          <Trackpoint>
            <Time>2020-12-05T13:59:40.000Z</Time>
            <Position>
              <LatitudeDegrees>36.8162891082465648651123046875</LatitudeDegrees>
              <LongitudeDegrees>-4.3784740380942821502685546875</LongitudeDegrees>
            </Position>
            <AltitudeMeters>823.5999755859375</AltitudeMeters>
            <DistanceMeters>NAN</DistanceMeters>
          </Trackpoint>
          <Trackpoint>
            <Time>2020-12-05T13:59:41.000Z</Time>
            <Position>
              <LatitudeDegrees>36.81627913378179073333740234375</LatitudeDegrees>
              <LongitudeDegrees>-4.37846875749528408050537109375</LongitudeDegrees>
            </Position>
            <AltitudeMeters>823.5999755859375</AltitudeMeters>
            <DistanceMeters>NAN</DistanceMeters>
          </Trackpoint>
          <Trackpoint>
            <Time>2020-12-05T13:59:42.000Z</Time>
            <Position>
              <LatitudeDegrees>36.81626848876476287841796875</LatitudeDegrees>
              <LongitudeDegrees>-4.37846674583852291107177734375</LongitudeDegrees>
            </Position>
            <AltitudeMeters>823.79998779296875</AltitudeMeters>
            <DistanceMeters>NAN</DistanceMeters>
          </Trackpoint>
          <Trackpoint>
            <Time>2020-12-05T13:59:43.000Z</Time>
            <Position>
              <LatitudeDegrees>36.8162565864622592926025390625</LatitudeDegrees>
              <LongitudeDegrees>-4.378460459411144256591796875</LongitudeDegrees>
            </Position>
            <AltitudeMeters>823.79998779296875</AltitudeMeters>
            <DistanceMeters>NAN</DistanceMeters>
          </Trackpoint>
          <Trackpoint>
            <Time>2020-12-05T13:59:44.000Z</Time>
            <Position>
              <LatitudeDegrees>36.8162414990365505218505859375</LatitudeDegrees>
              <LongitudeDegrees>-4.378451742231845855712890625</LongitudeDegrees>
            </Position>
            <AltitudeMeters>824</AltitudeMeters>
            <DistanceMeters>NAN</DistanceMeters>
          </Trackpoint>
          <Trackpoint>
            <Time>2020-12-05T13:59:45.000Z</Time>
            <Position>
              <LatitudeDegrees>36.8162270821630954742431640625</LatitudeDegrees>
              <LongitudeDegrees>-4.37844344414770603179931640625</LongitudeDegrees>
            </Position>
            <AltitudeMeters>824.20001220703125</AltitudeMeters>
            <DistanceMeters>NAN</DistanceMeters>
          </Trackpoint>
          <Trackpoint>
            <Time>2020-12-05T13:59:46.000Z</Time>
            <Position>
              <LatitudeDegrees>36.81621174328029155731201171875</LatitudeDegrees>
              <LongitudeDegrees>-4.37843598425388336181640625</LongitudeDegrees>
            </Position>
            <AltitudeMeters>824.20001220703125</AltitudeMeters>
            <DistanceMeters>NAN</DistanceMeters>
          </Trackpoint>
          <Trackpoint>
            <Time>2020-12-05T13:59:47.000Z</Time>
            <Position>
              <LatitudeDegrees>36.8161982484161853790283203125</LatitudeDegrees>
              <LongitudeDegrees>-4.37843003310263156890869140625</LongitudeDegrees>
            </Position>
            <AltitudeMeters>824.4000244140625</AltitudeMeters>
            <DistanceMeters>NAN</DistanceMeters>
          </Trackpoint>
          <Trackpoint>
            <Time>2020-12-05T13:59:48.000Z</Time>
            <Position>
              <LatitudeDegrees>36.81618810631334781646728515625</LatitudeDegrees>
              <LongitudeDegrees>-4.37842257320880889892578125</LongitudeDegrees>
            </Position>
            <AltitudeMeters>824.79998779296875</AltitudeMeters>
            <DistanceMeters>NAN</DistanceMeters>
          </Trackpoint>
          <Trackpoint>
            <Time>2020-12-05T13:59:49.000Z</Time>
            <Position>
              <LatitudeDegrees>36.81617938913404941558837890625</LatitudeDegrees>
              <LongitudeDegrees>-4.37841159291565418243408203125</LongitudeDegrees>
            </Position>
            <AltitudeMeters>825</AltitudeMeters>
            <DistanceMeters>NAN</DistanceMeters>
          </Trackpoint>
          <Trackpoint>
            <Time>2020-12-05T13:59:50.000Z</Time>
            <Position>
              <LatitudeDegrees>36.8161687441170215606689453125</LatitudeDegrees>
              <LongitudeDegrees>-4.37839935533702373504638671875</LongitudeDegrees>
            </Position>
            <AltitudeMeters>825.20001220703125</AltitudeMeters>
            <DistanceMeters>NAN</DistanceMeters>
          </Trackpoint>
          <Trackpoint>
            <Time>2020-12-05T13:59:51.000Z</Time>
            <Position>
              <LatitudeDegrees>36.8161613680422306060791015625</LatitudeDegrees>
              <LongitudeDegrees>-4.378387033939361572265625</LongitudeDegrees>
            </Position>
            <AltitudeMeters>825.20001220703125</AltitudeMeters>
            <DistanceMeters>NAN</DistanceMeters>
          </Trackpoint>
          <Trackpoint>
            <Time>2020-12-05T13:59:52.000Z</Time>
            <Position>
              <LatitudeDegrees>36.8161546625196933746337890625</LatitudeDegrees>
              <LongitudeDegrees>-4.37837705947458744049072265625</LongitudeDegrees>
            </Position>
            <AltitudeMeters>825.4000244140625</AltitudeMeters>
            <DistanceMeters>NAN</DistanceMeters>
          </Trackpoint>
          <Trackpoint>
            <Time>2020-12-05T13:59:53.000Z</Time>
            <Position>
              <LatitudeDegrees>36.81614804081618785858154296875</LatitudeDegrees>
              <LongitudeDegrees>-4.378368593752384185791015625</LongitudeDegrees>
            </Position>
            <AltitudeMeters>825.4000244140625</AltitudeMeters>
            <DistanceMeters>NAN</DistanceMeters>
          </Trackpoint>
          <Trackpoint>
            <Time>2020-12-05T13:59:54.000Z</Time>
            <Position>
              <LatitudeDegrees>36.816142089664936065673828125</LatitudeDegrees>
              <LongitudeDegrees>-4.3783580325543880462646484375</LongitudeDegrees>
            </Position>
            <AltitudeMeters>825.4000244140625</AltitudeMeters>
            <DistanceMeters>NAN</DistanceMeters>
          </Trackpoint>
          <Trackpoint>
            <Time>2020-12-05T13:59:55.000Z</Time>
            <Position>
              <LatitudeDegrees>36.81613714434206485748291015625</LatitudeDegrees>
              <LongitudeDegrees>-4.37834721989929676055908203125</LongitudeDegrees>
            </Position>
            <AltitudeMeters>825.5999755859375</AltitudeMeters>
            <DistanceMeters>NAN</DistanceMeters>
          </Trackpoint>
          <Trackpoint>
            <Time>2020-12-05T13:59:56.000Z</Time>
            <Position>
              <LatitudeDegrees>36.81613043881952762603759765625</LatitudeDegrees>
              <LongitudeDegrees>-4.37833917327225208282470703125</LongitudeDegrees>
            </Position>
            <AltitudeMeters>825.79998779296875</AltitudeMeters>
            <DistanceMeters>NAN</DistanceMeters>
          </Trackpoint>
          <Trackpoint>
            <Time>2020-12-05T13:59:57.000Z</Time>
            <Position>
              <LatitudeDegrees>36.81612364947795867919921875</LatitudeDegrees>
              <LongitudeDegrees>-4.378333054482936859130859375</LongitudeDegrees>
            </Position>
            <AltitudeMeters>825.79998779296875</AltitudeMeters>
            <DistanceMeters>NAN</DistanceMeters>
          </Trackpoint>
          <Trackpoint>
            <Time>2020-12-05T13:59:58.000Z</Time>
            <Position>
              <LatitudeDegrees>36.81611719541251659393310546875</LatitudeDegrees>
              <LongitudeDegrees>-4.3783268518745899200439453125</LongitudeDegrees>
            </Position>
            <AltitudeMeters>825.5999755859375</AltitudeMeters>
            <DistanceMeters>NAN</DistanceMeters>
          </Trackpoint>
          <Trackpoint>
            <Time>2020-12-05T13:59:59.000Z</Time>
            <Position>
              <LatitudeDegrees>36.81611250154674053192138671875</LatitudeDegrees>
              <LongitudeDegrees>-4.37832056544721126556396484375</LongitudeDegrees>
            </Position>
            <AltitudeMeters>825.79998779296875</AltitudeMeters>
            <DistanceMeters>NAN</DistanceMeters>
          </Trackpoint>
          <Trackpoint>
            <Time>2020-12-05T14:00:00.000Z</Time>
            <Position>
              <LatitudeDegrees>36.816105209290981292724609375</LatitudeDegrees>
              <LongitudeDegrees>-4.3783107586205005645751953125</LongitudeDegrees>
            </Position>
            <AltitudeMeters>825.79998779296875</AltitudeMeters>
            <DistanceMeters>NAN</DistanceMeters>
          </Trackpoint>
          <Trackpoint>
            <Time>2020-12-05T14:00:01.000Z</Time>
            <Position>
              <LatitudeDegrees>36.81609707884490489959716796875</LatitudeDegrees>
              <LongitudeDegrees>-4.3782998621463775634765625</LongitudeDegrees>
            </Position>
            <AltitudeMeters>825.5999755859375</AltitudeMeters>
            <DistanceMeters>NAN</DistanceMeters>
          </Trackpoint>
          <Trackpoint>
            <Time>2020-12-05T14:00:02.000Z</Time>
            <Position>
              <LatitudeDegrees>36.8160902895033359527587890625</LatitudeDegrees>
              <LongitudeDegrees>-4.37829106114804744720458984375</LongitudeDegrees>
            </Position>
            <AltitudeMeters>825.5999755859375</AltitudeMeters>
            <DistanceMeters>NAN</DistanceMeters>
          </Trackpoint>
          <Trackpoint>
            <Time>2020-12-05T14:00:03.000Z</Time>
            <Position>
              <LatitudeDegrees>36.8160839192569255828857421875</LatitudeDegrees>
              <LongitudeDegrees>-4.37827932648360729217529296875</LongitudeDegrees>
            </Position>
            <AltitudeMeters>825.4000244140625</AltitudeMeters>
            <DistanceMeters>NAN</DistanceMeters>
          </Trackpoint>
          <Trackpoint>
            <Time>2020-12-05T14:00:04.000Z</Time>
            <Position>
              <LatitudeDegrees>36.8160778842866420745849609375</LatitudeDegrees>
              <LongitudeDegrees>-4.37826834619045257568359375</LongitudeDegrees>
            </Position>
            <AltitudeMeters>825.4000244140625</AltitudeMeters>
            <DistanceMeters>NAN</DistanceMeters>
          </Trackpoint>
          <Trackpoint>
            <Time>2020-12-05T14:00:05.000Z</Time>
            <Position>
              <LatitudeDegrees>36.8160745315253734588623046875</LatitudeDegrees>
              <LongitudeDegrees>-4.378253258764743804931640625</LongitudeDegrees>
            </Position>
            <AltitudeMeters>825.4000244140625</AltitudeMeters>
            <DistanceMeters>NAN</DistanceMeters>
          </Trackpoint>
          <Trackpoint>
            <Time>2020-12-05T14:00:06.000Z</Time>
            <Position>
              <LatitudeDegrees>36.8160738609731197357177734375</LatitudeDegrees>
              <LongitudeDegrees>-4.378239847719669342041015625</LongitudeDegrees>
            </Position>
            <AltitudeMeters>825.4000244140625</AltitudeMeters>
            <DistanceMeters>NAN</DistanceMeters>
          </Trackpoint>
          <Trackpoint>
            <Time>2020-12-05T14:00:07.000Z</Time>
            <Position>
              <LatitudeDegrees>36.8160718493163585662841796875</LatitudeDegrees>
              <LongitudeDegrees>-4.37822853215038776397705078125</LongitudeDegrees>
            </Position>
            <AltitudeMeters>825.4000244140625</AltitudeMeters>
            <DistanceMeters>NAN</DistanceMeters>
          </Trackpoint>
          <Trackpoint>
            <Time>2020-12-05T14:00:08.000Z</Time>
            <Position>
              <LatitudeDegrees>36.8160698376595973968505859375</LatitudeDegrees>
              <LongitudeDegrees>-4.3782165460288524627685546875</LongitudeDegrees>
            </Position>
            <AltitudeMeters>825.20001220703125</AltitudeMeters>
            <DistanceMeters>NAN</DistanceMeters>
          </Trackpoint>
          <Trackpoint>
            <Time>2020-12-05T14:00:09.000Z</Time>
            <Position>
              <LatitudeDegrees>36.81607025675475597381591796875</LatitudeDegrees>
              <LongitudeDegrees>-4.37820405699312686920166015625</LongitudeDegrees>
            </Position>
            <AltitudeMeters>825.4000244140625</AltitudeMeters>
            <DistanceMeters>NAN</DistanceMeters>
          </Trackpoint>
          <Trackpoint>
            <Time>2020-12-05T14:00:10.000Z</Time>
            <Position>
              <LatitudeDegrees>36.8160701729357242584228515625</LatitudeDegrees>
              <LongitudeDegrees>-4.3781907297670841217041015625</LongitudeDegrees>
            </Position>
            <AltitudeMeters>825.4000244140625</AltitudeMeters>
            <DistanceMeters>NAN</DistanceMeters>
          </Trackpoint>
          <Trackpoint>
            <Time>2020-12-05T14:00:11.000Z</Time>
            <Position>
              <LatitudeDegrees>36.81607243604958057403564453125</LatitudeDegrees>
              <LongitudeDegrees>-4.3781766481697559356689453125</LongitudeDegrees>
            </Position>
            <AltitudeMeters>825.5999755859375</AltitudeMeters>
            <DistanceMeters>NAN</DistanceMeters>
          </Trackpoint>
          <Trackpoint>
            <Time>2020-12-05T14:00:12.000Z</Time>
            <Position>
              <LatitudeDegrees>36.816075704991817474365234375</LatitudeDegrees>
              <LongitudeDegrees>-4.378163404762744903564453125</LongitudeDegrees>
            </Position>
            <AltitudeMeters>825.5999755859375</AltitudeMeters>
            <DistanceMeters>NAN</DistanceMeters>
          </Trackpoint>
          <Trackpoint>
            <Time>2020-12-05T14:00:13.000Z</Time>
            <Position>
              <LatitudeDegrees>36.81607629172503948211669921875</LatitudeDegrees>
              <LongitudeDegrees>-4.378150999546051025390625</LongitudeDegrees>
            </Position>
            <AltitudeMeters>825.5999755859375</AltitudeMeters>
            <DistanceMeters>NAN</DistanceMeters>
          </Trackpoint>
          <Trackpoint>
            <Time>2020-12-05T14:00:14.000Z</Time>
            <Position>
              <LatitudeDegrees>36.81607629172503948211669921875</LatitudeDegrees>
              <LongitudeDegrees>-4.378137923777103424072265625</LongitudeDegrees>
            </Position>
            <AltitudeMeters>825.5999755859375</AltitudeMeters>
            <DistanceMeters>NAN</DistanceMeters>
          </Trackpoint>
          <Trackpoint>
            <Time>2020-12-05T14:00:15.000Z</Time>
            <Position>
              <LatitudeDegrees>36.81607612408697605133056640625</LatitudeDegrees>
              <LongitudeDegrees>-4.37812292017042636871337890625</LongitudeDegrees>
            </Position>
            <AltitudeMeters>825.5999755859375</AltitudeMeters>
            <DistanceMeters>NAN</DistanceMeters>
          </Trackpoint>
          <Trackpoint>
            <Time>2020-12-05T14:00:16.000Z</Time>
            <Position>
              <LatitudeDegrees>36.81607662700116634368896484375</LatitudeDegrees>
              <LongitudeDegrees>-4.37810464762151241302490234375</LongitudeDegrees>
            </Position>
            <AltitudeMeters>825.5999755859375</AltitudeMeters>
            <DistanceMeters>NAN</DistanceMeters>
          </Trackpoint>
          <Trackpoint>
            <Time>2020-12-05T14:00:17.000Z</Time>
            <Position>
              <LatitudeDegrees>36.8160765431821346282958984375</LatitudeDegrees>
              <LongitudeDegrees>-4.37808771617710590362548828125</LongitudeDegrees>
            </Position>
            <AltitudeMeters>825.5999755859375</AltitudeMeters>
            <DistanceMeters>NAN</DistanceMeters>
          </Trackpoint>
          <Trackpoint>
            <Time>2020-12-05T14:00:18.000Z</Time>
            <Position>
              <LatitudeDegrees>36.8160748668015003204345703125</LatitudeDegrees>
              <LongitudeDegrees>-4.37807229347527027130126953125</LongitudeDegrees>
            </Position>
            <AltitudeMeters>825.4000244140625</AltitudeMeters>
            <DistanceMeters>NAN</DistanceMeters>
          </Trackpoint>
          <Trackpoint>
            <Time>2020-12-05T14:00:19.000Z</Time>
            <Position>
              <LatitudeDegrees>36.81607377715408802032470703125</LatitudeDegrees>
              <LongitudeDegrees>-4.37805712223052978515625</LongitudeDegrees>
            </Position>
            <AltitudeMeters>825.4000244140625</AltitudeMeters>
            <DistanceMeters>NAN</DistanceMeters>
          </Trackpoint>
          <Trackpoint>
            <Time>2020-12-05T14:00:20.000Z</Time>
            <Position>
              <LatitudeDegrees>36.81607143022119998931884765625</LatitudeDegrees>
              <LongitudeDegrees>-4.37804010696709156036376953125</LongitudeDegrees>
            </Position>
            <AltitudeMeters>825.4000244140625</AltitudeMeters>
            <DistanceMeters>NAN</DistanceMeters>
          </Trackpoint>
          <Trackpoint>
            <Time>2020-12-05T14:00:21.000Z</Time>
            <Position>
              <LatitudeDegrees>36.81606723926961421966552734375</LatitudeDegrees>
              <LongitudeDegrees>-4.378022588789463043212890625</LongitudeDegrees>
            </Position>
            <AltitudeMeters>825.4000244140625</AltitudeMeters>
            <DistanceMeters>NAN</DistanceMeters>
          </Trackpoint>
          <Trackpoint>
            <Time>2020-12-05T14:00:22.000Z</Time>
            <Position>
              <LatitudeDegrees>36.81606598198413848876953125</LatitudeDegrees>
              <LongitudeDegrees>-4.37800724990665912628173828125</LongitudeDegrees>
            </Position>
            <AltitudeMeters>825.4000244140625</AltitudeMeters>
            <DistanceMeters>NAN</DistanceMeters>
          </Trackpoint>
          <Trackpoint>
            <Time>2020-12-05T14:00:23.000Z</Time>
            <Position>
              <LatitudeDegrees>36.81606388650834560394287109375</LatitudeDegrees>
              <LongitudeDegrees>-4.37799450941383838653564453125</LongitudeDegrees>
            </Position>
            <AltitudeMeters>825.20001220703125</AltitudeMeters>
            <DistanceMeters>NAN</DistanceMeters>
          </Trackpoint>
          <Trackpoint>
            <Time>2020-12-05T14:00:24.000Z</Time>
            <Position>
              <LatitudeDegrees>36.816060952842235565185546875</LatitudeDegrees>
              <LongitudeDegrees>-4.37798277474939823150634765625</LongitudeDegrees>
            </Position>
            <AltitudeMeters>825.20001220703125</AltitudeMeters>
            <DistanceMeters>NAN</DistanceMeters>
          </Trackpoint>
          <Trackpoint>
            <Time>2020-12-05T14:00:25.000Z</Time>
            <Position>
              <LatitudeDegrees>36.81605852209031581878662109375</LatitudeDegrees>
              <LongitudeDegrees>-4.37797204591333866119384765625</LongitudeDegrees>
            </Position>
            <AltitudeMeters>825</AltitudeMeters>
            <DistanceMeters>NAN</DistanceMeters>
          </Trackpoint>
          <Trackpoint>
            <Time>2020-12-05T14:00:26.000Z</Time>
            <Position>
              <LatitudeDegrees>36.8160544149577617645263671875</LatitudeDegrees>
              <LongitudeDegrees>-4.3779614008963108062744140625</LongitudeDegrees>
            </Position>
            <AltitudeMeters>825</AltitudeMeters>
            <DistanceMeters>NAN</DistanceMeters>
          </Trackpoint>
          <Trackpoint>
            <Time>2020-12-05T14:00:27.000Z</Time>
            <Position>
              <LatitudeDegrees>36.8160510621964931488037109375</LatitudeDegrees>
              <LongitudeDegrees>-4.377947486937046051025390625</LongitudeDegrees>
            </Position>
            <AltitudeMeters>825</AltitudeMeters>
            <DistanceMeters>NAN</DistanceMeters>
          </Trackpoint>
          <Trackpoint>
            <Time>2020-12-05T14:00:28.000Z</Time>
            <Position>
              <LatitudeDegrees>36.81604511104524135589599609375</LatitudeDegrees>
              <LongitudeDegrees>-4.37793885357677936553955078125</LongitudeDegrees>
            </Position>
            <AltitudeMeters>824.79998779296875</AltitudeMeters>
            <DistanceMeters>NAN</DistanceMeters>
          </Trackpoint>
          <Trackpoint>
            <Time>2020-12-05T14:00:29.000Z</Time>
            <Position>
              <LatitudeDegrees>36.81603915989398956298828125</LatitudeDegrees>
              <LongitudeDegrees>-4.37792896293103694915771484375</LongitudeDegrees>
            </Position>
            <AltitudeMeters>824.79998779296875</AltitudeMeters>
            <DistanceMeters>NAN</DistanceMeters>
          </Trackpoint>
          <Trackpoint>
            <Time>2020-12-05T14:00:30.000Z</Time>
            <Position>
              <LatitudeDegrees>36.8160339631140232086181640625</LatitudeDegrees>
              <LongitudeDegrees>-4.37792192213237285614013671875</LongitudeDegrees>
            </Position>
            <AltitudeMeters>824.5999755859375</AltitudeMeters>
            <DistanceMeters>NAN</DistanceMeters>
          </Trackpoint>
          <Trackpoint>
            <Time>2020-12-05T14:00:31.000Z</Time>
            <Position>
              <LatitudeDegrees>36.81602784432470798492431640625</LatitudeDegrees>
              <LongitudeDegrees>-4.3779178149998188018798828125</LongitudeDegrees>
            </Position>
            <AltitudeMeters>824.5999755859375</AltitudeMeters>
            <DistanceMeters>NAN</DistanceMeters>
          </Trackpoint>
          <Trackpoint>
            <Time>2020-12-05T14:00:32.000Z</Time>
            <Position>
              <LatitudeDegrees>36.8160210549831390380859375</LatitudeDegrees>
              <LongitudeDegrees>-4.37791605480015277862548828125</LongitudeDegrees>
            </Position>
            <AltitudeMeters>824.4000244140625</AltitudeMeters>
            <DistanceMeters>NAN</DistanceMeters>
          </Trackpoint>
          <Trackpoint>
            <Time>2020-12-05T14:00:33.000Z</Time>
            <Position>
              <LatitudeDegrees>36.81601074524223804473876953125</LatitudeDegrees>
              <LongitudeDegrees>-4.37792158685624599456787109375</LongitudeDegrees>
            </Position>
            <AltitudeMeters>824.4000244140625</AltitudeMeters>
            <DistanceMeters>NAN</DistanceMeters>
          </Trackpoint>
          <Trackpoint>
            <Time>2020-12-05T14:00:34.000Z</Time>
            <Position>
              <LatitudeDegrees>36.81600186042487621307373046875</LatitudeDegrees>
              <LongitudeDegrees>-4.37792577780783176422119140625</LongitudeDegrees>
            </Position>
            <AltitudeMeters>824.4000244140625</AltitudeMeters>
            <DistanceMeters>NAN</DistanceMeters>
          </Trackpoint>
          <Trackpoint>
            <Time>2020-12-05T14:00:35.000Z</Time>
            <Position>
              <LatitudeDegrees>36.81599247269332408905029296875</LatitudeDegrees>
              <LongitudeDegrees>-4.3779322318732738494873046875</LongitudeDegrees>
            </Position>
            <AltitudeMeters>824.4000244140625</AltitudeMeters>
            <DistanceMeters>NAN</DistanceMeters>
          </Trackpoint>
          <Trackpoint>
            <Time>2020-12-05T14:00:36.000Z</Time>
            <Position>
              <LatitudeDegrees>36.815981157124042510986328125</LatitudeDegrees>
              <LongitudeDegrees>-4.37793667428195476531982421875</LongitudeDegrees>
            </Position>
            <AltitudeMeters>824.4000244140625</AltitudeMeters>
            <DistanceMeters>NAN</DistanceMeters>
          </Trackpoint>
          <Trackpoint>
            <Time>2020-12-05T14:00:37.000Z</Time>
            <Position>
              <LatitudeDegrees>36.8159699253737926483154296875</LatitudeDegrees>
              <LongitudeDegrees>-4.377941451966762542724609375</LongitudeDegrees>
            </Position>
            <AltitudeMeters>824.4000244140625</AltitudeMeters>
            <DistanceMeters>NAN</DistanceMeters>
          </Trackpoint>
          <Trackpoint>
            <Time>2020-12-05T14:00:38.000Z</Time>
            <Position>
              <LatitudeDegrees>36.8159598670899868011474609375</LatitudeDegrees>
              <LongitudeDegrees>-4.37794539146125316619873046875</LongitudeDegrees>
            </Position>
            <AltitudeMeters>824.5999755859375</AltitudeMeters>
            <DistanceMeters>NAN</DistanceMeters>
          </Trackpoint>
          <Trackpoint>
            <Time>2020-12-05T14:00:39.000Z</Time>
            <Position>
              <LatitudeDegrees>36.815949976444244384765625</LatitudeDegrees>
              <LongitudeDegrees>-4.3779479898512363433837890625</LongitudeDegrees>
            </Position>
            <AltitudeMeters>824.5999755859375</AltitudeMeters>
            <DistanceMeters>NAN</DistanceMeters>
          </Trackpoint>
          <Trackpoint>
            <Time>2020-12-05T14:00:40.000Z</Time>
            <Position>
              <LatitudeDegrees>36.8159437738358974456787109375</LatitudeDegrees>
              <LongitudeDegrees>-4.37795595265924930572509765625</LongitudeDegrees>
            </Position>
            <AltitudeMeters>824.5999755859375</AltitudeMeters>
            <DistanceMeters>NAN</DistanceMeters>
          </Trackpoint>
          <Trackpoint>
            <Time>2020-12-05T14:00:41.000Z</Time>
            <Position>
              <LatitudeDegrees>36.8159380741417407989501953125</LatitudeDegrees>
              <LongitudeDegrees>-4.37795997597277164459228515625</LongitudeDegrees>
            </Position>
            <AltitudeMeters>824.5999755859375</AltitudeMeters>
            <DistanceMeters>NAN</DistanceMeters>
          </Trackpoint>
          <Trackpoint>
            <Time>2020-12-05T14:00:42.000Z</Time>
            <Position>
              <LatitudeDegrees>36.8159313686192035675048828125</LatitudeDegrees>
              <LongitudeDegrees>-4.3779645860195159912109375</LongitudeDegrees>
            </Position>
            <AltitudeMeters>824.5999755859375</AltitudeMeters>
            <DistanceMeters>NAN</DistanceMeters>
          </Trackpoint>
          <Trackpoint>
            <Time>2020-12-05T14:00:43.000Z</Time>
            <Position>
              <LatitudeDegrees>36.81592248380184173583984375</LatitudeDegrees>
              <LongitudeDegrees>-4.37796869315207004547119140625</LongitudeDegrees>
            </Position>
            <AltitudeMeters>824.79998779296875</AltitudeMeters>
            <DistanceMeters>NAN</DistanceMeters>
          </Trackpoint>
          <Trackpoint>
            <Time>2020-12-05T14:00:44.000Z</Time>
            <Position>
              <LatitudeDegrees>36.815917789936065673828125</LatitudeDegrees>
              <LongitudeDegrees>-4.37797187827527523040771484375</LongitudeDegrees>
            </Position>
            <AltitudeMeters>825</AltitudeMeters>
            <DistanceMeters>NAN</DistanceMeters>
          </Trackpoint>
          <Trackpoint>
            <Time>2020-12-05T14:00:45.000Z</Time>
            <Position>
              <LatitudeDegrees>36.81591100059449672698974609375</LatitudeDegrees>
              <LongitudeDegrees>-4.37797204591333866119384765625</LongitudeDegrees>
            </Position>
            <AltitudeMeters>825</AltitudeMeters>
            <DistanceMeters>NAN</DistanceMeters>
          </Trackpoint>
          <Trackpoint>
            <Time>2020-12-05T14:00:46.000Z</Time>
            <Position>
              <LatitudeDegrees>36.8159048818051815032958984375</LatitudeDegrees>
              <LongitudeDegrees>-4.3779731355607509613037109375</LongitudeDegrees>
            </Position>
            <AltitudeMeters>825.20001220703125</AltitudeMeters>
            <DistanceMeters>NAN</DistanceMeters>
          </Trackpoint>
          <Trackpoint>
            <Time>2020-12-05T14:00:47.000Z</Time>
            <Position>
              <LatitudeDegrees>36.8158975057303905487060546875</LatitudeDegrees>
              <LongitudeDegrees>-4.37797355465590953826904296875</LongitudeDegrees>
            </Position>
            <AltitudeMeters>825.20001220703125</AltitudeMeters>
            <DistanceMeters>NAN</DistanceMeters>
          </Trackpoint>
          <Trackpoint>
            <Time>2020-12-05T14:00:48.000Z</Time>
            <Position>
              <LatitudeDegrees>36.81588937528431415557861328125</LatitudeDegrees>
              <LongitudeDegrees>-4.37797942198812961578369140625</LongitudeDegrees>
            </Position>
            <AltitudeMeters>825.4000244140625</AltitudeMeters>
            <DistanceMeters>NAN</DistanceMeters>
          </Trackpoint>
          <Trackpoint>
            <Time>2020-12-05T14:00:49.000Z</Time>
            <Position>
              <LatitudeDegrees>36.815879233181476593017578125</LatitudeDegrees>
              <LongitudeDegrees>-4.3779875524342060089111328125</LongitudeDegrees>
            </Position>
            <AltitudeMeters>825.4000244140625</AltitudeMeters>
            <DistanceMeters>NAN</DistanceMeters>
          </Trackpoint>
          <Trackpoint>
            <Time>2020-12-05T14:00:50.000Z</Time>
            <Position>
              <LatitudeDegrees>36.81586883962154388427734375</LatitudeDegrees>
              <LongitudeDegrees>-4.377997778356075286865234375</LongitudeDegrees>
            </Position>
            <AltitudeMeters>825.5999755859375</AltitudeMeters>
            <DistanceMeters>NAN</DistanceMeters>
          </Trackpoint>
          <Trackpoint>
            <Time>2020-12-05T14:00:51.000Z</Time>
            <Position>
              <LatitudeDegrees>36.8158547580242156982421875</LatitudeDegrees>
              <LongitudeDegrees>-4.37800490297377109527587890625</LongitudeDegrees>
            </Position>
            <AltitudeMeters>825.5999755859375</AltitudeMeters>
            <DistanceMeters>NAN</DistanceMeters>
          </Trackpoint>
          <Trackpoint>
            <Time>2020-12-05T14:00:52.000Z</Time>
            <Position>
              <LatitudeDegrees>36.815845035016536712646484375</LatitudeDegrees>
              <LongitudeDegrees>-4.37801026739180088043212890625</LongitudeDegrees>
            </Position>
            <AltitudeMeters>825.79998779296875</AltitudeMeters>
            <DistanceMeters>NAN</DistanceMeters>
          </Trackpoint>
          <Trackpoint>
            <Time>2020-12-05T14:00:53.000Z</Time>
            <Position>
              <LatitudeDegrees>36.81583472527563571929931640625</LatitudeDegrees>
              <LongitudeDegrees>-4.3780150450766086578369140625</LongitudeDegrees>
            </Position>
            <AltitudeMeters>826</AltitudeMeters>
            <DistanceMeters>NAN</DistanceMeters>
          </Trackpoint>
          <Trackpoint>
            <Time>2020-12-05T14:00:54.000Z</Time>
            <Position>
              <LatitudeDegrees>36.8158224038779735565185546875</LatitudeDegrees>
              <LongitudeDegrees>-4.37801755964756011962890625</LongitudeDegrees>
            </Position>
            <AltitudeMeters>826.20001220703125</AltitudeMeters>
            <DistanceMeters>NAN</DistanceMeters>
          </Trackpoint>
          <Trackpoint>
            <Time>2020-12-05T14:00:55.000Z</Time>
            <Position>
              <LatitudeDegrees>36.81581125594675540924072265625</LatitudeDegrees>
              <LongitudeDegrees>-4.37802501954138278961181640625</LongitudeDegrees>
            </Position>
            <AltitudeMeters>826.20001220703125</AltitudeMeters>
            <DistanceMeters>NAN</DistanceMeters>
          </Trackpoint>
          <Trackpoint>
            <Time>2020-12-05T14:00:56.000Z</Time>
            <Position>
              <LatitudeDegrees>36.81580119766294956207275390625</LatitudeDegrees>
              <LongitudeDegrees>-4.378035329282283782958984375</LongitudeDegrees>
            </Position>
            <AltitudeMeters>826.20001220703125</AltitudeMeters>
            <DistanceMeters>NAN</DistanceMeters>
          </Trackpoint>
          <Trackpoint>
            <Time>2020-12-05T14:00:57.000Z</Time>
            <Position>
              <LatitudeDegrees>36.81579097174108028411865234375</LatitudeDegrees>
              <LongitudeDegrees>-4.37805033288896083831787109375</LongitudeDegrees>
            </Position>
            <AltitudeMeters>826.20001220703125</AltitudeMeters>
            <DistanceMeters>NAN</DistanceMeters>
          </Trackpoint>
          <Trackpoint>
            <Time>2020-12-05T14:00:58.000Z</Time>
            <Position>
              <LatitudeDegrees>36.8157818354666233062744140625</LatitudeDegrees>
              <LongitudeDegrees>-4.37806441448628902435302734375</LongitudeDegrees>
            </Position>
            <AltitudeMeters>826.4000244140625</AltitudeMeters>
            <DistanceMeters>NAN</DistanceMeters>
          </Trackpoint>
          <Trackpoint>
            <Time>2020-12-05T14:00:59.000Z</Time>
            <Position>
              <LatitudeDegrees>36.81577253155410289764404296875</LatitudeDegrees>
              <LongitudeDegrees>-4.378078244626522064208984375</LongitudeDegrees>
            </Position>
            <AltitudeMeters>826.4000244140625</AltitudeMeters>
            <DistanceMeters>NAN</DistanceMeters>
          </Trackpoint>
          <Trackpoint>
            <Time>2020-12-05T14:01:00.000Z</Time>
            <Position>
              <LatitudeDegrees>36.8157617188990116119384765625</LatitudeDegrees>
              <LongitudeDegrees>-4.37808570452034473419189453125</LongitudeDegrees>
            </Position>
            <AltitudeMeters>826.5999755859375</AltitudeMeters>
            <DistanceMeters>NAN</DistanceMeters>
          </Trackpoint>
          <Trackpoint>
            <Time>2020-12-05T14:01:01.000Z</Time>
            <Position>
              <LatitudeDegrees>36.81575207971036434173583984375</LatitudeDegrees>
              <LongitudeDegrees>-4.37809467315673828125</LongitudeDegrees>
            </Position>
            <AltitudeMeters>826.5999755859375</AltitudeMeters>
            <DistanceMeters>NAN</DistanceMeters>
          </Trackpoint>
          <Trackpoint>
            <Time>2020-12-05T14:01:02.000Z</Time>
            <Position>
              <LatitudeDegrees>36.81574252434074878692626953125</LatitudeDegrees>
              <LongitudeDegrees>-4.37810431234538555145263671875</LongitudeDegrees>
            </Position>
            <AltitudeMeters>827</AltitudeMeters>
            <DistanceMeters>NAN</DistanceMeters>
          </Trackpoint>
          <Trackpoint>
            <Time>2020-12-05T14:01:03.000Z</Time>
            <Position>
              <LatitudeDegrees>36.81573347188532352447509765625</LatitudeDegrees>
              <LongitudeDegrees>-4.37811504118144512176513671875</LongitudeDegrees>
            </Position>
            <AltitudeMeters>826.79998779296875</AltitudeMeters>
            <DistanceMeters>NAN</DistanceMeters>
          </Trackpoint>
          <Trackpoint>
            <Time>2020-12-05T14:01:04.000Z</Time>
            <Position>
              <LatitudeDegrees>36.8157251738011837005615234375</LatitudeDegrees>
              <LongitudeDegrees>-4.37812442891299724578857421875</LongitudeDegrees>
            </Position>
            <AltitudeMeters>827</AltitudeMeters>
            <DistanceMeters>NAN</DistanceMeters>
          </Trackpoint>
          <Trackpoint>
            <Time>2020-12-05T14:01:05.000Z</Time>
            <Position>
              <LatitudeDegrees>36.81571586988866329193115234375</LatitudeDegrees>
              <LongitudeDegrees>-4.378133900463581085205078125</LongitudeDegrees>
            </Position>
            <AltitudeMeters>827</AltitudeMeters>
            <DistanceMeters>NAN</DistanceMeters>
          </Trackpoint>
          <Trackpoint>
            <Time>2020-12-05T14:01:06.000Z</Time>
            <Position>
              <LatitudeDegrees>36.81570581160485744476318359375</LatitudeDegrees>
              <LongitudeDegrees>-4.3781464733183383941650390625</LongitudeDegrees>
            </Position>
            <AltitudeMeters>827</AltitudeMeters>
            <DistanceMeters>NAN</DistanceMeters>
          </Trackpoint>
          <Trackpoint>
            <Time>2020-12-05T14:01:07.000Z</Time>
            <Position>
              <LatitudeDegrees>36.8156970106065273284912109375</LatitudeDegrees>
              <LongitudeDegrees>-4.37816080637276172637939453125</LongitudeDegrees>
            </Position>
            <AltitudeMeters>826.79998779296875</AltitudeMeters>
            <DistanceMeters>NAN</DistanceMeters>
          </Trackpoint>
          <Trackpoint>
            <Time>2020-12-05T14:01:08.000Z</Time>
            <Position>
              <LatitudeDegrees>36.81568854488432407379150390625</LatitudeDegrees>
              <LongitudeDegrees>-4.37817178666591644287109375</LongitudeDegrees>
            </Position>
            <AltitudeMeters>826.79998779296875</AltitudeMeters>
            <DistanceMeters>NAN</DistanceMeters>
          </Trackpoint>
          <Trackpoint>
            <Time>2020-12-05T14:01:09.000Z</Time>
            <Position>
              <LatitudeDegrees>36.81568066589534282684326171875</LatitudeDegrees>
              <LongitudeDegrees>-4.3781850300729274749755859375</LongitudeDegrees>
            </Position>
            <AltitudeMeters>826.5999755859375</AltitudeMeters>
            <DistanceMeters>NAN</DistanceMeters>
          </Trackpoint>
          <Trackpoint>
            <Time>2020-12-05T14:01:10.000Z</Time>
            <Position>
              <LatitudeDegrees>36.8156725354492664337158203125</LatitudeDegrees>
              <LongitudeDegrees>-4.37819684855639934539794921875</LongitudeDegrees>
            </Position>
            <AltitudeMeters>826.79998779296875</AltitudeMeters>
            <DistanceMeters>NAN</DistanceMeters>
          </Trackpoint>
          <Trackpoint>
            <Time>2020-12-05T14:01:11.000Z</Time>
            <Position>
              <LatitudeDegrees>36.8156624771654605865478515625</LatitudeDegrees>
              <LongitudeDegrees>-4.37820958904922008514404296875</LongitudeDegrees>
            </Position>
            <AltitudeMeters>826.79998779296875</AltitudeMeters>
            <DistanceMeters>NAN</DistanceMeters>
          </Trackpoint>
          <Trackpoint>
            <Time>2020-12-05T14:01:12.000Z</Time>
            <Position>
              <LatitudeDegrees>36.8156540952622890472412109375</LatitudeDegrees>
              <LongitudeDegrees>-4.378216378390789031982421875</LongitudeDegrees>
            </Position>
            <AltitudeMeters>826.79998779296875</AltitudeMeters>
            <DistanceMeters>NAN</DistanceMeters>
          </Trackpoint>
          <Trackpoint>
            <Time>2020-12-05T14:01:13.000Z</Time>
            <Position>
              <LatitudeDegrees>36.8156450428068637847900390625</LatitudeDegrees>
              <LongitudeDegrees>-4.3782245926558971405029296875</LongitudeDegrees>
            </Position>
            <AltitudeMeters>826.79998779296875</AltitudeMeters>
            <DistanceMeters>NAN</DistanceMeters>
          </Trackpoint>
          <Trackpoint>
            <Time>2020-12-05T14:01:14.000Z</Time>
            <Position>
              <LatitudeDegrees>36.81563573889434337615966796875</LatitudeDegrees>
              <LongitudeDegrees>-4.37823322601616382598876953125</LongitudeDegrees>
            </Position>
            <AltitudeMeters>827</AltitudeMeters>
            <DistanceMeters>NAN</DistanceMeters>
          </Trackpoint>
          <Trackpoint>
            <Time>2020-12-05T14:01:15.000Z</Time>
            <Position>
              <LatitudeDegrees>36.8156262673437595367431640625</LatitudeDegrees>
              <LongitudeDegrees>-4.3782435357570648193359375</LongitudeDegrees>
            </Position>
            <AltitudeMeters>827</AltitudeMeters>
            <DistanceMeters>NAN</DistanceMeters>
          </Trackpoint>
          <Trackpoint>
            <Time>2020-12-05T14:01:16.000Z</Time>
            <Position>
              <LatitudeDegrees>36.8156168796122074127197265625</LatitudeDegrees>
              <LongitudeDegrees>-4.37825451605021953582763671875</LongitudeDegrees>
            </Position>
            <AltitudeMeters>827</AltitudeMeters>
            <DistanceMeters>NAN</DistanceMeters>
          </Trackpoint>
          <Trackpoint>
            <Time>2020-12-05T14:01:17.000Z</Time>
            <Position>
              <LatitudeDegrees>36.81560933589935302734375</LatitudeDegrees>
              <LongitudeDegrees>-4.37826273031532764434814453125</LongitudeDegrees>
            </Position>
            <AltitudeMeters>826.79998779296875</AltitudeMeters>
            <DistanceMeters>NAN</DistanceMeters>
          </Trackpoint>
          <Trackpoint>
            <Time>2020-12-05T14:01:18.000Z</Time>
            <Position>
              <LatitudeDegrees>36.815599612891674041748046875</LatitudeDegrees>
              <LongitudeDegrees>-4.37827496789395809173583984375</LongitudeDegrees>
            </Position>
            <AltitudeMeters>827</AltitudeMeters>
            <DistanceMeters>NAN</DistanceMeters>
          </Trackpoint>
          <Trackpoint>
            <Time>2020-12-05T14:01:19.000Z</Time>
            <Position>
              <LatitudeDegrees>36.81558896787464618682861328125</LatitudeDegrees>
              <LongitudeDegrees>-4.37829089350998401641845703125</LongitudeDegrees>
            </Position>
            <AltitudeMeters>827</AltitudeMeters>
            <DistanceMeters>NAN</DistanceMeters>
          </Trackpoint>
          <Trackpoint>
            <Time>2020-12-05T14:01:20.000Z</Time>
            <Position>
              <LatitudeDegrees>36.81557840667665004730224609375</LatitudeDegrees>
              <LongitudeDegrees>-4.37830321490764617919921875</LongitudeDegrees>
            </Position>
            <AltitudeMeters>827</AltitudeMeters>
            <DistanceMeters>NAN</DistanceMeters>
          </Trackpoint>
          <Trackpoint>
            <Time>2020-12-05T14:01:21.000Z</Time>
            <Position>
              <LatitudeDegrees>36.81556700728833675384521484375</LatitudeDegrees>
              <LongitudeDegrees>-4.3783134408295154571533203125</LongitudeDegrees>
            </Position>
            <AltitudeMeters>826.79998779296875</AltitudeMeters>
            <DistanceMeters>NAN</DistanceMeters>
          </Trackpoint>
          <Trackpoint>
            <Time>2020-12-05T14:01:22.000Z</Time>
            <Position>
              <LatitudeDegrees>36.815556026995182037353515625</LatitudeDegrees>
              <LongitudeDegrees>-4.3783213198184967041015625</LongitudeDegrees>
            </Position>
            <AltitudeMeters>826.79998779296875</AltitudeMeters>
            <DistanceMeters>NAN</DistanceMeters>
          </Trackpoint>
          <Trackpoint>
            <Time>2020-12-05T14:01:23.000Z</Time>
            <Position>
              <LatitudeDegrees>36.81554697453975677490234375</LatitudeDegrees>
              <LongitudeDegrees>-4.37832869589328765869140625</LongitudeDegrees>
            </Position>
            <AltitudeMeters>826.79998779296875</AltitudeMeters>
            <DistanceMeters>NAN</DistanceMeters>
          </Trackpoint>
          <Trackpoint>
            <Time>2020-12-05T14:01:24.000Z</Time>
            <Position>
              <LatitudeDegrees>36.81553758680820465087890625</LatitudeDegrees>
              <LongitudeDegrees>-4.3783422745764255523681640625</LongitudeDegrees>
            </Position>
            <AltitudeMeters>826.5999755859375</AltitudeMeters>
            <DistanceMeters>NAN</DistanceMeters>
          </Trackpoint>
          <Trackpoint>
            <Time>2020-12-05T14:01:25.000Z</Time>
            <Position>
              <LatitudeDegrees>36.81552677415311336517333984375</LatitudeDegrees>
              <LongitudeDegrees>-4.3783550150692462921142578125</LongitudeDegrees>
            </Position>
            <AltitudeMeters>826.5999755859375</AltitudeMeters>
            <DistanceMeters>NAN</DistanceMeters>
          </Trackpoint>
          <Trackpoint>
            <Time>2020-12-05T14:01:26.000Z</Time>
            <Position>
              <LatitudeDegrees>36.81551612913608551025390625</LatitudeDegrees>
              <LongitudeDegrees>-4.37836566008627414703369140625</LongitudeDegrees>
            </Position>
            <AltitudeMeters>826.4000244140625</AltitudeMeters>
            <DistanceMeters>NAN</DistanceMeters>
          </Trackpoint>
          <Trackpoint>
            <Time>2020-12-05T14:01:27.000Z</Time>
            <Position>
              <LatitudeDegrees>36.81550481356680393218994140625</LatitudeDegrees>
              <LongitudeDegrees>-4.378377981483936309814453125</LongitudeDegrees>
            </Position>
            <AltitudeMeters>826.20001220703125</AltitudeMeters>
            <DistanceMeters>NAN</DistanceMeters>
          </Trackpoint>
          <Trackpoint>
            <Time>2020-12-05T14:01:28.000Z</Time>
            <Position>
              <LatitudeDegrees>36.81549358181655406951904296875</LatitudeDegrees>
              <LongitudeDegrees>-4.37839038670063018798828125</LongitudeDegrees>
            </Position>
            <AltitudeMeters>826</AltitudeMeters>
            <DistanceMeters>NAN</DistanceMeters>
          </Trackpoint>
          <Trackpoint>
            <Time>2020-12-05T14:01:29.000Z</Time>
            <Position>
              <LatitudeDegrees>36.81548251770436763763427734375</LatitudeDegrees>
              <LongitudeDegrees>-4.3784017860889434814453125</LongitudeDegrees>
            </Position>
            <AltitudeMeters>826</AltitudeMeters>
            <DistanceMeters>NAN</DistanceMeters>
          </Trackpoint>
          <Trackpoint>
            <Time>2020-12-05T14:01:30.000Z</Time>
            <Position>
              <LatitudeDegrees>36.81547178886830806732177734375</LatitudeDegrees>
              <LongitudeDegrees>-4.37841117382049560546875</LongitudeDegrees>
            </Position>
            <AltitudeMeters>825.79998779296875</AltitudeMeters>
            <DistanceMeters>NAN</DistanceMeters>
          </Trackpoint>
          <Trackpoint>
            <Time>2020-12-05T14:01:31.000Z</Time>
            <Position>
              <LatitudeDegrees>36.81546072475612163543701171875</LatitudeDegrees>
              <LongitudeDegrees>-4.378417544066905975341796875</LongitudeDegrees>
            </Position>
            <AltitudeMeters>825.5999755859375</AltitudeMeters>
            <DistanceMeters>NAN</DistanceMeters>
          </Trackpoint>
          <Trackpoint>
            <Time>2020-12-05T14:01:32.000Z</Time>
            <Position>
              <LatitudeDegrees>36.81545183993875980377197265625</LatitudeDegrees>
              <LongitudeDegrees>-4.37842483632266521453857421875</LongitudeDegrees>
            </Position>
            <AltitudeMeters>825.5999755859375</AltitudeMeters>
            <DistanceMeters>NAN</DistanceMeters>
          </Trackpoint>
          <Trackpoint>
            <Time>2020-12-05T14:01:33.000Z</Time>
            <Position>
              <LatitudeDegrees>36.81544127874076366424560546875</LatitudeDegrees>
              <LongitudeDegrees>-4.378432296216487884521484375</LongitudeDegrees>
            </Position>
            <AltitudeMeters>825.4000244140625</AltitudeMeters>
            <DistanceMeters>NAN</DistanceMeters>
          </Trackpoint>
          <Trackpoint>
            <Time>2020-12-05T14:01:34.000Z</Time>
            <Position>
              <LatitudeDegrees>36.815427951514720916748046875</LatitudeDegrees>
              <LongitudeDegrees>-4.3784391693770885467529296875</LongitudeDegrees>
            </Position>
            <AltitudeMeters>825.20001220703125</AltitudeMeters>
            <DistanceMeters>NAN</DistanceMeters>
          </Trackpoint>
          <Trackpoint>
            <Time>2020-12-05T14:01:35.000Z</Time>
            <Position>
              <LatitudeDegrees>36.81541730649769306182861328125</LatitudeDegrees>
              <LongitudeDegrees>-4.37844939529895782470703125</LongitudeDegrees>
            </Position>
            <AltitudeMeters>825</AltitudeMeters>
            <DistanceMeters>NAN</DistanceMeters>
          </Trackpoint>
          <Trackpoint>
            <Time>2020-12-05T14:01:36.000Z</Time>
            <Position>
              <LatitudeDegrees>36.81540624238550662994384765625</LatitudeDegrees>
              <LongitudeDegrees>-4.3784566037356853485107421875</LongitudeDegrees>
            </Position>
            <AltitudeMeters>824.79998779296875</AltitudeMeters>
            <DistanceMeters>NAN</DistanceMeters>
          </Trackpoint>
          <Trackpoint>
            <Time>2020-12-05T14:01:37.000Z</Time>
            <Position>
              <LatitudeDegrees>36.8153986148536205291748046875</LatitudeDegrees>
              <LongitudeDegrees>-4.37846548855304718017578125</LongitudeDegrees>
            </Position>
            <AltitudeMeters>824.5999755859375</AltitudeMeters>
            <DistanceMeters>NAN</DistanceMeters>
          </Trackpoint>
          <Trackpoint>
            <Time>2020-12-05T14:01:38.000Z</Time>
            <Position>
              <LatitudeDegrees>36.81539081968367099761962890625</LatitudeDegrees>
              <LongitudeDegrees>-4.37847512774169445037841796875</LongitudeDegrees>
            </Position>
            <AltitudeMeters>824.5999755859375</AltitudeMeters>
            <DistanceMeters>NAN</DistanceMeters>
          </Trackpoint>
          <Trackpoint>
            <Time>2020-12-05T14:01:39.000Z</Time>
            <Position>
              <LatitudeDegrees>36.8153808452188968658447265625</LatitudeDegrees>
              <LongitudeDegrees>-4.37848384492099285125732421875</LongitudeDegrees>
            </Position>
            <AltitudeMeters>824.5999755859375</AltitudeMeters>
            <DistanceMeters>NAN</DistanceMeters>
          </Trackpoint>
          <Trackpoint>
            <Time>2020-12-05T14:01:40.000Z</Time>
            <Position>
              <LatitudeDegrees>36.8153711222112178802490234375</LatitudeDegrees>
              <LongitudeDegrees>-4.37849239446222782135009765625</LongitudeDegrees>
            </Position>
            <AltitudeMeters>824.5999755859375</AltitudeMeters>
            <DistanceMeters>NAN</DistanceMeters>
          </Trackpoint>
          <Trackpoint>
            <Time>2020-12-05T14:01:41.000Z</Time>
            <Position>
              <LatitudeDegrees>36.815359555184841156005859375</LatitudeDegrees>
              <LongitudeDegrees>-4.37850278802216053009033203125</LongitudeDegrees>
            </Position>
            <AltitudeMeters>824.5999755859375</AltitudeMeters>
            <DistanceMeters>NAN</DistanceMeters>
          </Trackpoint>
          <Trackpoint>
            <Time>2020-12-05T14:01:42.000Z</Time>
            <Position>
              <LatitudeDegrees>36.8153486587107181549072265625</LatitudeDegrees>
              <LongitudeDegrees>-4.37851033173501491546630859375</LongitudeDegrees>
            </Position>
            <AltitudeMeters>824.79998779296875</AltitudeMeters>
            <DistanceMeters>NAN</DistanceMeters>
          </Trackpoint>
          <Trackpoint>
            <Time>2020-12-05T14:01:43.000Z</Time>
            <Position>
              <LatitudeDegrees>36.815338097512722015380859375</LatitudeDegrees>
              <LongitudeDegrees>-4.378517456352710723876953125</LongitudeDegrees>
            </Position>
            <AltitudeMeters>824.79998779296875</AltitudeMeters>
            <DistanceMeters>NAN</DistanceMeters>
          </Trackpoint>
          <Trackpoint>
            <Time>2020-12-05T14:01:44.000Z</Time>
            <Position>
              <LatitudeDegrees>36.8153268657624721527099609375</LatitudeDegrees>
              <LongitudeDegrees>-4.37852583825588226318359375</LongitudeDegrees>
            </Position>
            <AltitudeMeters>825</AltitudeMeters>
            <DistanceMeters>NAN</DistanceMeters>
          </Trackpoint>
          <Trackpoint>
            <Time>2020-12-05T14:01:45.000Z</Time>
            <Position>
              <LatitudeDegrees>36.81531471200287342071533203125</LatitudeDegrees>
              <LongitudeDegrees>-4.37853195704519748687744140625</LongitudeDegrees>
            </Position>
            <AltitudeMeters>825.20001220703125</AltitudeMeters>
            <DistanceMeters>NAN</DistanceMeters>
          </Trackpoint>
          <Trackpoint>
            <Time>2020-12-05T14:01:46.000Z</Time>
            <Position>
              <LatitudeDegrees>36.8153047375380992889404296875</LatitudeDegrees>
              <LongitudeDegrees>-4.3785385787487030029296875</LongitudeDegrees>
            </Position>
            <AltitudeMeters>825.20001220703125</AltitudeMeters>
            <DistanceMeters>NAN</DistanceMeters>
          </Trackpoint>
          <Trackpoint>
            <Time>2020-12-05T14:01:47.000Z</Time>
            <Position>
              <LatitudeDegrees>36.81529526598751544952392578125</LatitudeDegrees>
              <LongitudeDegrees>-4.3785431049764156341552734375</LongitudeDegrees>
            </Position>
            <AltitudeMeters>825.5999755859375</AltitudeMeters>
            <DistanceMeters>NAN</DistanceMeters>
          </Trackpoint>
          <Trackpoint>
            <Time>2020-12-05T14:01:48.000Z</Time>
            <Position>
              <LatitudeDegrees>36.81528738699853420257568359375</LatitudeDegrees>
              <LongitudeDegrees>-4.37854888848960399627685546875</LongitudeDegrees>
            </Position>
            <AltitudeMeters>825.79998779296875</AltitudeMeters>
            <DistanceMeters>NAN</DistanceMeters>
          </Trackpoint>
          <Trackpoint>
            <Time>2020-12-05T14:01:49.000Z</Time>
            <Position>
              <LatitudeDegrees>36.81528017856180667877197265625</LatitudeDegrees>
              <LongitudeDegrees>-4.37855240888893604278564453125</LongitudeDegrees>
            </Position>
            <AltitudeMeters>825.79998779296875</AltitudeMeters>
            <DistanceMeters>NAN</DistanceMeters>
          </Trackpoint>
          <Trackpoint>
            <Time>2020-12-05T14:01:50.000Z</Time>
            <Position>
              <LatitudeDegrees>36.81527246721088886260986328125</LatitudeDegrees>
              <LongitudeDegrees>-4.37855710275471210479736328125</LongitudeDegrees>
            </Position>
            <AltitudeMeters>826</AltitudeMeters>
            <DistanceMeters>NAN</DistanceMeters>
          </Trackpoint>
          <Trackpoint>
            <Time>2020-12-05T14:01:51.000Z</Time>
            <Position>
              <LatitudeDegrees>36.8152604810893535614013671875</LatitudeDegrees>
              <LongitudeDegrees>-4.37856137752532958984375</LongitudeDegrees>
            </Position>
            <AltitudeMeters>826</AltitudeMeters>
            <DistanceMeters>NAN</DistanceMeters>
          </Trackpoint>
          <Trackpoint>
            <Time>2020-12-05T14:01:52.000Z</Time>
            <Position>
              <LatitudeDegrees>36.81524899788200855255126953125</LatitudeDegrees>
              <LongitudeDegrees>-4.3785652332007884979248046875</LongitudeDegrees>
            </Position>
            <AltitudeMeters>826</AltitudeMeters>
            <DistanceMeters>NAN</DistanceMeters>
          </Trackpoint>
          <Trackpoint>
            <Time>2020-12-05T14:01:53.000Z</Time>
            <Position>
              <LatitudeDegrees>36.81523692794144153594970703125</LatitudeDegrees>
              <LongitudeDegrees>-4.3785685859620571136474609375</LongitudeDegrees>
            </Position>
            <AltitudeMeters>826</AltitudeMeters>
            <DistanceMeters>NAN</DistanceMeters>
          </Trackpoint>
          <Trackpoint>
            <Time>2020-12-05T14:01:54.000Z</Time>
            <Position>
              <LatitudeDegrees>36.8152242712676525115966796875</LatitudeDegrees>
              <LongitudeDegrees>-4.37857269309461116790771484375</LongitudeDegrees>
            </Position>
            <AltitudeMeters>826</AltitudeMeters>
            <DistanceMeters>NAN</DistanceMeters>
          </Trackpoint>
          <Trackpoint>
            <Time>2020-12-05T14:01:55.000Z</Time>
            <Position>
              <LatitudeDegrees>36.81521194986999034881591796875</LatitudeDegrees>
              <LongitudeDegrees>-4.378574453294277191162109375</LongitudeDegrees>
            </Position>
            <AltitudeMeters>826</AltitudeMeters>
            <DistanceMeters>NAN</DistanceMeters>
          </Trackpoint>
          <Trackpoint>
            <Time>2020-12-05T14:01:56.000Z</Time>
            <Position>
              <LatitudeDegrees>36.81520071811974048614501953125</LatitudeDegrees>
              <LongitudeDegrees>-4.3785736151039600372314453125</LongitudeDegrees>
            </Position>
            <AltitudeMeters>826</AltitudeMeters>
            <DistanceMeters>NAN</DistanceMeters>
          </Trackpoint>
          <Trackpoint>
            <Time>2020-12-05T14:01:57.000Z</Time>
            <Position>
              <LatitudeDegrees>36.81519216857850551605224609375</LatitudeDegrees>
              <LongitudeDegrees>-4.37856967560946941375732421875</LongitudeDegrees>
            </Position>
            <AltitudeMeters>826.20001220703125</AltitudeMeters>
            <DistanceMeters>NAN</DistanceMeters>
          </Trackpoint>
          <Trackpoint>
            <Time>2020-12-05T14:01:58.000Z</Time>
            <Position>
              <LatitudeDegrees>36.81518496014177799224853515625</LatitudeDegrees>
              <LongitudeDegrees>-4.37856196425855159759521484375</LongitudeDegrees>
            </Position>
            <AltitudeMeters>826.20001220703125</AltitudeMeters>
            <DistanceMeters>NAN</DistanceMeters>
          </Trackpoint>
          <Trackpoint>
            <Time>2020-12-05T14:01:59.000Z</Time>
            <Position>
              <LatitudeDegrees>36.81518076919019222259521484375</LatitudeDegrees>
              <LongitudeDegrees>-4.37855073250830173492431640625</LongitudeDegrees>
            </Position>
            <AltitudeMeters>826.4000244140625</AltitudeMeters>
            <DistanceMeters>NAN</DistanceMeters>
          </Trackpoint>
          <Trackpoint>
            <Time>2020-12-05T14:02:00.000Z</Time>
            <Position>
              <LatitudeDegrees>36.815177164971828460693359375</LatitudeDegrees>
              <LongitudeDegrees>-4.37853916548192501068115234375</LongitudeDegrees>
            </Position>
            <AltitudeMeters>826.4000244140625</AltitudeMeters>
            <DistanceMeters>NAN</DistanceMeters>
          </Trackpoint>
          <Trackpoint>
            <Time>2020-12-05T14:02:01.000Z</Time>
            <Position>
              <LatitudeDegrees>36.815170459449291229248046875</LatitudeDegrees>
              <LongitudeDegrees>-4.37852726317942142486572265625</LongitudeDegrees>
            </Position>
            <AltitudeMeters>826.4000244140625</AltitudeMeters>
            <DistanceMeters>NAN</DistanceMeters>
          </Trackpoint>
          <Trackpoint>
            <Time>2020-12-05T14:02:02.000Z</Time>
            <Position>
              <LatitudeDegrees>36.815163083374500274658203125</LatitudeDegrees>
              <LongitudeDegrees>-4.3785152770578861236572265625</LongitudeDegrees>
            </Position>
            <AltitudeMeters>826.20001220703125</AltitudeMeters>
            <DistanceMeters>NAN</DistanceMeters>
          </Trackpoint>
          <Trackpoint>
            <Time>2020-12-05T14:02:03.000Z</Time>
            <Position>
              <LatitudeDegrees>36.81515277363359928131103515625</LatitudeDegrees>
              <LongitudeDegrees>-4.37850764952600002288818359375</LongitudeDegrees>
            </Position>
            <AltitudeMeters>826.20001220703125</AltitudeMeters>
            <DistanceMeters>NAN</DistanceMeters>
          </Trackpoint>
          <Trackpoint>
            <Time>2020-12-05T14:02:04.000Z</Time>
            <Position>
              <LatitudeDegrees>36.81514388881623744964599609375</LatitudeDegrees>
              <LongitudeDegrees>-4.3784995190799236297607421875</LongitudeDegrees>
            </Position>
            <AltitudeMeters>826</AltitudeMeters>
            <DistanceMeters>NAN</DistanceMeters>
          </Trackpoint>
          <Trackpoint>
            <Time>2020-12-05T14:02:05.000Z</Time>
            <Position>
              <LatitudeDegrees>36.81513584218919277191162109375</LatitudeDegrees>
              <LongitudeDegrees>-4.37849231064319610595703125</LongitudeDegrees>
            </Position>
            <AltitudeMeters>826</AltitudeMeters>
            <DistanceMeters>NAN</DistanceMeters>
          </Trackpoint>
          <Trackpoint>
            <Time>2020-12-05T14:02:06.000Z</Time>
            <Position>
              <LatitudeDegrees>36.81512997485697269439697265625</LatitudeDegrees>
              <LongitudeDegrees>-4.37847881577908992767333984375</LongitudeDegrees>
            </Position>
            <AltitudeMeters>826</AltitudeMeters>
            <DistanceMeters>NAN</DistanceMeters>
          </Trackpoint>
          <Trackpoint>
            <Time>2020-12-05T14:02:07.000Z</Time>
            <Position>
              <LatitudeDegrees>36.81512192822992801666259765625</LatitudeDegrees>
              <LongitudeDegrees>-4.37846574001014232635498046875</LongitudeDegrees>
            </Position>
            <AltitudeMeters>826</AltitudeMeters>
            <DistanceMeters>NAN</DistanceMeters>
          </Trackpoint>
          <Trackpoint>
            <Time>2020-12-05T14:02:08.000Z</Time>
            <Position>
              <LatitudeDegrees>36.815112791955471038818359375</LatitudeDegrees>
              <LongitudeDegrees>-4.37845316715538501739501953125</LongitudeDegrees>
            </Position>
            <AltitudeMeters>825.79998779296875</AltitudeMeters>
            <DistanceMeters>NAN</DistanceMeters>
          </Trackpoint>
          <Trackpoint>
            <Time>2020-12-05T14:02:09.000Z</Time>
            <Position>
              <LatitudeDegrees>36.81510298512876033782958984375</LatitudeDegrees>
              <LongitudeDegrees>-4.37844394706189632415771484375</LongitudeDegrees>
            </Position>
            <AltitudeMeters>826</AltitudeMeters>
            <DistanceMeters>NAN</DistanceMeters>
          </Trackpoint>
          <Trackpoint>
            <Time>2020-12-05T14:02:10.000Z</Time>
            <Position>
              <LatitudeDegrees>36.81509091518819332122802734375</LatitudeDegrees>
              <LongitudeDegrees>-4.37843187712132930755615234375</LongitudeDegrees>
            </Position>
            <AltitudeMeters>826</AltitudeMeters>
            <DistanceMeters>NAN</DistanceMeters>
          </Trackpoint>
          <Trackpoint>
            <Time>2020-12-05T14:02:11.000Z</Time>
            <Position>
              <LatitudeDegrees>36.8150780908763408660888671875</LatitudeDegrees>
              <LongitudeDegrees>-4.37841729260981082916259765625</LongitudeDegrees>
            </Position>
            <AltitudeMeters>826</AltitudeMeters>
            <DistanceMeters>NAN</DistanceMeters>
          </Trackpoint>
          <Trackpoint>
            <Time>2020-12-05T14:02:12.000Z</Time>
            <Position>
              <LatitudeDegrees>36.8150656856596469879150390625</LatitudeDegrees>
              <LongitudeDegrees>-4.37840069644153118133544921875</LongitudeDegrees>
            </Position>
            <AltitudeMeters>826</AltitudeMeters>
            <DistanceMeters>NAN</DistanceMeters>
          </Trackpoint>
          <Trackpoint>
            <Time>2020-12-05T14:02:13.000Z</Time>
            <Position>
              <LatitudeDegrees>36.8150554597377777099609375</LatitudeDegrees>
              <LongitudeDegrees>-4.37838963232934474945068359375</LongitudeDegrees>
            </Position>
            <AltitudeMeters>826</AltitudeMeters>
            <DistanceMeters>NAN</DistanceMeters>
          </Trackpoint>
          <Trackpoint>
            <Time>2020-12-05T14:02:14.000Z</Time>
            <Position>
              <LatitudeDegrees>36.81504447944462299346923828125</LatitudeDegrees>
              <LongitudeDegrees>-4.37838099896907806396484375</LongitudeDegrees>
            </Position>
            <AltitudeMeters>826</AltitudeMeters>
            <DistanceMeters>NAN</DistanceMeters>
          </Trackpoint>
          <Trackpoint>
            <Time>2020-12-05T14:02:15.000Z</Time>
            <Position>
              <LatitudeDegrees>36.81503199040889739990234375</LatitudeDegrees>
              <LongitudeDegrees>-4.3783694319427013397216796875</LongitudeDegrees>
            </Position>
            <AltitudeMeters>825.79998779296875</AltitudeMeters>
            <DistanceMeters>NAN</DistanceMeters>
          </Trackpoint>
          <Trackpoint>
            <Time>2020-12-05T14:02:16.000Z</Time>
            <Position>
              <LatitudeDegrees>36.8150204233825206756591796875</LatitudeDegrees>
              <LongitudeDegrees>-4.37835291959345340728759765625</LongitudeDegrees>
            </Position>
            <AltitudeMeters>825.79998779296875</AltitudeMeters>
            <DistanceMeters>NAN</DistanceMeters>
          </Trackpoint>
          <Trackpoint>
            <Time>2020-12-05T14:02:17.000Z</Time>
            <Position>
              <LatitudeDegrees>36.81501078419387340545654296875</LatitudeDegrees>
              <LongitudeDegrees>-4.37834076583385467529296875</LongitudeDegrees>
            </Position>
            <AltitudeMeters>825.5999755859375</AltitudeMeters>
            <DistanceMeters>NAN</DistanceMeters>
          </Trackpoint>
          <Trackpoint>
            <Time>2020-12-05T14:02:18.000Z</Time>
            <Position>
              <LatitudeDegrees>36.8150019831955432891845703125</LatitudeDegrees>
              <LongitudeDegrees>-4.37832844443619251251220703125</LongitudeDegrees>
            </Position>
            <AltitudeMeters>825.5999755859375</AltitudeMeters>
            <DistanceMeters>NAN</DistanceMeters>
          </Trackpoint>
          <Trackpoint>
            <Time>2020-12-05T14:02:19.000Z</Time>
            <Position>
              <LatitudeDegrees>36.8149936012923717498779296875</LatitudeDegrees>
              <LongitudeDegrees>-4.37831738032400608062744140625</LongitudeDegrees>
            </Position>
            <AltitudeMeters>825.4000244140625</AltitudeMeters>
            <DistanceMeters>NAN</DistanceMeters>
          </Trackpoint>
          <Trackpoint>
            <Time>2020-12-05T14:02:20.000Z</Time>
            <Position>
              <LatitudeDegrees>36.8149872310459613800048828125</LatitudeDegrees>
              <LongitudeDegrees>-4.37830715440213680267333984375</LongitudeDegrees>
            </Position>
            <AltitudeMeters>825.4000244140625</AltitudeMeters>
            <DistanceMeters>NAN</DistanceMeters>
          </Trackpoint>
          <Trackpoint>
            <Time>2020-12-05T14:02:21.000Z</Time>
            <Position>
              <LatitudeDegrees>36.81497859768569469451904296875</LatitudeDegrees>
              <LongitudeDegrees>-4.37829592265188694000244140625</LongitudeDegrees>
            </Position>
            <AltitudeMeters>825.4000244140625</AltitudeMeters>
            <DistanceMeters>NAN</DistanceMeters>
          </Trackpoint>
          <Trackpoint>
            <Time>2020-12-05T14:02:22.000Z</Time>
            <Position>
              <LatitudeDegrees>36.8149704672396183013916015625</LatitudeDegrees>
              <LongitudeDegrees>-4.37828770838677883148193359375</LongitudeDegrees>
            </Position>
            <AltitudeMeters>825.20001220703125</AltitudeMeters>
            <DistanceMeters>NAN</DistanceMeters>
          </Trackpoint>
          <Trackpoint>
            <Time>2020-12-05T14:02:23.000Z</Time>
            <Position>
              <LatitudeDegrees>36.81496166624128818511962890625</LatitudeDegrees>
              <LongitudeDegrees>-4.37828049995005130767822265625</LongitudeDegrees>
            </Position>
            <AltitudeMeters>825.20001220703125</AltitudeMeters>
            <DistanceMeters>NAN</DistanceMeters>
          </Trackpoint>
          <Trackpoint>
            <Time>2020-12-05T14:02:24.000Z</Time>
            <Position>
              <LatitudeDegrees>36.8149530328810214996337890625</LatitudeDegrees>
              <LongitudeDegrees>-4.378274716436862945556640625</LongitudeDegrees>
            </Position>
            <AltitudeMeters>825</AltitudeMeters>
            <DistanceMeters>NAN</DistanceMeters>
          </Trackpoint>
          <Trackpoint>
            <Time>2020-12-05T14:02:25.000Z</Time>
            <Position>
              <LatitudeDegrees>36.81494322605431079864501953125</LatitudeDegrees>
              <LongitudeDegrees>-4.37826926819980144500732421875</LongitudeDegrees>
            </Position>
            <AltitudeMeters>825</AltitudeMeters>
            <DistanceMeters>NAN</DistanceMeters>
          </Trackpoint>
          <Trackpoint>
            <Time>2020-12-05T14:02:26.000Z</Time>
            <Position>
              <LatitudeDegrees>36.81493266485631465911865234375</LatitudeDegrees>
              <LongitudeDegrees>-4.37826323322951793670654296875</LongitudeDegrees>
            </Position>
            <AltitudeMeters>825</AltitudeMeters>
            <DistanceMeters>NAN</DistanceMeters>
          </Trackpoint>
          <Trackpoint>
            <Time>2020-12-05T14:02:27.000Z</Time>
            <Position>
              <LatitudeDegrees>36.814923696219921112060546875</LatitudeDegrees>
              <LongitudeDegrees>-4.37825568951666355133056640625</LongitudeDegrees>
            </Position>
            <AltitudeMeters>824.79998779296875</AltitudeMeters>
            <DistanceMeters>NAN</DistanceMeters>
          </Trackpoint>
          <Trackpoint>
            <Time>2020-12-05T14:02:28.000Z</Time>
            <Position>
              <LatitudeDegrees>36.8149161525070667266845703125</LatitudeDegrees>
              <LongitudeDegrees>-4.37824814580380916595458984375</LongitudeDegrees>
            </Position>
            <AltitudeMeters>824.79998779296875</AltitudeMeters>
            <DistanceMeters>NAN</DistanceMeters>
          </Trackpoint>
          <Trackpoint>
            <Time>2020-12-05T14:02:29.000Z</Time>
            <Position>
              <LatitudeDegrees>36.81490651331841945648193359375</LatitudeDegrees>
              <LongitudeDegrees>-4.37823926098644733428955078125</LongitudeDegrees>
            </Position>
            <AltitudeMeters>824.79998779296875</AltitudeMeters>
            <DistanceMeters>NAN</DistanceMeters>
          </Trackpoint>
          <Trackpoint>
            <Time>2020-12-05T14:02:30.000Z</Time>
            <Position>
              <LatitudeDegrees>36.81489511393010616302490234375</LatitudeDegrees>
              <LongitudeDegrees>-4.378227777779102325439453125</LongitudeDegrees>
            </Position>
            <AltitudeMeters>824.79998779296875</AltitudeMeters>
            <DistanceMeters>NAN</DistanceMeters>
          </Trackpoint>
          <Trackpoint>
            <Time>2020-12-05T14:02:31.000Z</Time>
            <Position>
              <LatitudeDegrees>36.81488388217985630035400390625</LatitudeDegrees>
              <LongitudeDegrees>-4.37821604311466217041015625</LongitudeDegrees>
            </Position>
            <AltitudeMeters>824.5999755859375</AltitudeMeters>
            <DistanceMeters>NAN</DistanceMeters>
          </Trackpoint>
          <Trackpoint>
            <Time>2020-12-05T14:02:32.000Z</Time>
            <Position>
              <LatitudeDegrees>36.81486980058252811431884765625</LatitudeDegrees>
              <LongitudeDegrees>-4.37819986604154109954833984375</LongitudeDegrees>
            </Position>
            <AltitudeMeters>824.5999755859375</AltitudeMeters>
            <DistanceMeters>NAN</DistanceMeters>
          </Trackpoint>
          <Trackpoint>
            <Time>2020-12-05T14:02:33.000Z</Time>
            <Position>
              <LatitudeDegrees>36.81485974229872226715087890625</LatitudeDegrees>
              <LongitudeDegrees>-4.378192909061908721923828125</LongitudeDegrees>
            </Position>
            <AltitudeMeters>824.5999755859375</AltitudeMeters>
            <DistanceMeters>NAN</DistanceMeters>
          </Trackpoint>
          <Trackpoint>
            <Time>2020-12-05T14:02:34.000Z</Time>
            <Position>
              <LatitudeDegrees>36.814851947128772735595703125</LatitudeDegrees>
              <LongitudeDegrees>-4.37818586826324462890625</LongitudeDegrees>
            </Position>
            <AltitudeMeters>824.4000244140625</AltitudeMeters>
            <DistanceMeters>NAN</DistanceMeters>
          </Trackpoint>
          <Trackpoint>
            <Time>2020-12-05T14:02:35.000Z</Time>
            <Position>
              <LatitudeDegrees>36.8148390389978885650634765625</LatitudeDegrees>
              <LongitudeDegrees>-4.37818092294037342071533203125</LongitudeDegrees>
            </Position>
            <AltitudeMeters>824.4000244140625</AltitudeMeters>
            <DistanceMeters>NAN</DistanceMeters>
          </Trackpoint>
          <Trackpoint>
            <Time>2020-12-05T14:02:36.000Z</Time>
            <Position>
              <LatitudeDegrees>36.8148232810199260711669921875</LatitudeDegrees>
              <LongitudeDegrees>-4.37818092294037342071533203125</LongitudeDegrees>
            </Position>
            <AltitudeMeters>824.20001220703125</AltitudeMeters>
            <DistanceMeters>NAN</DistanceMeters>
          </Trackpoint>
          <Trackpoint>
            <Time>2020-12-05T14:02:37.000Z</Time>
            <Position>
              <LatitudeDegrees>36.81481079198420047760009765625</LatitudeDegrees>
              <LongitudeDegrees>-4.37817840836942195892333984375</LongitudeDegrees>
            </Position>
            <AltitudeMeters>824</AltitudeMeters>
            <DistanceMeters>NAN</DistanceMeters>
          </Trackpoint>
          <Trackpoint>
            <Time>2020-12-05T14:02:38.000Z</Time>
            <Position>
              <LatitudeDegrees>36.81479905731976032257080078125</LatitudeDegrees>
              <LongitudeDegrees>-4.37817689962685108184814453125</LongitudeDegrees>
            </Position>
            <AltitudeMeters>823.79998779296875</AltitudeMeters>
            <DistanceMeters>NAN</DistanceMeters>
          </Trackpoint>
          <Trackpoint>
            <Time>2020-12-05T14:02:39.000Z</Time>
            <Position>
              <LatitudeDegrees>36.814786903560161590576171875</LatitudeDegrees>
              <LongitudeDegrees>-4.3781764805316925048828125</LongitudeDegrees>
            </Position>
            <AltitudeMeters>823.5999755859375</AltitudeMeters>
            <DistanceMeters>NAN</DistanceMeters>
          </Trackpoint>
          <Trackpoint>
            <Time>2020-12-05T14:02:40.000Z</Time>
            <Position>
              <LatitudeDegrees>36.81477307341992855072021484375</LatitudeDegrees>
              <LongitudeDegrees>-4.37817656435072422027587890625</LongitudeDegrees>
            </Position>
            <AltitudeMeters>823.4000244140625</AltitudeMeters>
            <DistanceMeters>NAN</DistanceMeters>
          </Trackpoint>
          <Trackpoint>
            <Time>2020-12-05T14:02:41.000Z</Time>
            <Position>
              <LatitudeDegrees>36.81476167403161525726318359375</LatitudeDegrees>
              <LongitudeDegrees>-4.3781796656548976898193359375</LongitudeDegrees>
            </Position>
            <AltitudeMeters>823</AltitudeMeters>
            <DistanceMeters>NAN</DistanceMeters>
          </Trackpoint>
          <Trackpoint>
            <Time>2020-12-05T14:02:42.000Z</Time>
            <Position>
              <LatitudeDegrees>36.8147532083094120025634765625</LatitudeDegrees>
              <LongitudeDegrees>-4.37817019410431385040283203125</LongitudeDegrees>
            </Position>
            <AltitudeMeters>823</AltitudeMeters>
            <DistanceMeters>NAN</DistanceMeters>
          </Trackpoint>
          <Trackpoint>
            <Time>2020-12-05T14:02:43.000Z</Time>
            <Position>
              <LatitudeDegrees>36.814740635454654693603515625</LatitudeDegrees>
              <LongitudeDegrees>-4.37817052938044071197509765625</LongitudeDegrees>
            </Position>
            <AltitudeMeters>823</AltitudeMeters>
            <DistanceMeters>NAN</DistanceMeters>
          </Trackpoint>
          <Trackpoint>
            <Time>2020-12-05T14:02:44.000Z</Time>
            <Position>
              <LatitudeDegrees>36.81472512893378734588623046875</LatitudeDegrees>
              <LongitudeDegrees>-4.378173463046550750732421875</LongitudeDegrees>
            </Position>
            <AltitudeMeters>822.79998779296875</AltitudeMeters>
            <DistanceMeters>NAN</DistanceMeters>
          </Trackpoint>
          <Trackpoint>
            <Time>2020-12-05T14:02:45.000Z</Time>
            <Position>
              <LatitudeDegrees>36.8147163279354572296142578125</LatitudeDegrees>
              <LongitudeDegrees>-4.3781779892742633819580078125</LongitudeDegrees>
            </Position>
            <AltitudeMeters>822.79998779296875</AltitudeMeters>
            <DistanceMeters>NAN</DistanceMeters>
          </Trackpoint>
          <Trackpoint>
            <Time>2020-12-05T14:02:46.000Z</Time>
            <Position>
              <LatitudeDegrees>36.8147069402039051055908203125</LatitudeDegrees>
              <LongitudeDegrees>-4.37818645499646663665771484375</LongitudeDegrees>
            </Position>
            <AltitudeMeters>823</AltitudeMeters>
            <DistanceMeters>NAN</DistanceMeters>
          </Trackpoint>
          <Trackpoint>
            <Time>2020-12-05T14:02:47.000Z</Time>
            <Position>
              <LatitudeDegrees>36.81469730101525783538818359375</LatitudeDegrees>
              <LongitudeDegrees>-4.37819500453770160675048828125</LongitudeDegrees>
            </Position>
            <AltitudeMeters>823</AltitudeMeters>
            <DistanceMeters>NAN</DistanceMeters>
          </Trackpoint>
          <Trackpoint>
            <Time>2020-12-05T14:02:48.000Z</Time>
            <Position>
              <LatitudeDegrees>36.81468673981726169586181640625</LatitudeDegrees>
              <LongitudeDegrees>-4.378204308450222015380859375</LongitudeDegrees>
            </Position>
            <AltitudeMeters>823.20001220703125</AltitudeMeters>
            <DistanceMeters>NAN</DistanceMeters>
          </Trackpoint>
          <Trackpoint>
            <Time>2020-12-05T14:02:49.000Z</Time>
            <Position>
              <LatitudeDegrees>36.81467550806701183319091796875</LatitudeDegrees>
              <LongitudeDegrees>-4.3782138638198375701904296875</LongitudeDegrees>
            </Position>
            <AltitudeMeters>823.4000244140625</AltitudeMeters>
            <DistanceMeters>NAN</DistanceMeters>
          </Trackpoint>
          <Trackpoint>
            <Time>2020-12-05T14:02:50.000Z</Time>
            <Position>
              <LatitudeDegrees>36.81466360576450824737548828125</LatitudeDegrees>
              <LongitudeDegrees>-4.3782212398946285247802734375</LongitudeDegrees>
            </Position>
            <AltitudeMeters>823.79998779296875</AltitudeMeters>
            <DistanceMeters>NAN</DistanceMeters>
          </Trackpoint>
          <Trackpoint>
            <Time>2020-12-05T14:02:51.000Z</Time>
            <Position>
              <LatitudeDegrees>36.81464985944330692291259765625</LatitudeDegrees>
              <LongitudeDegrees>-4.37822920270264148712158203125</LongitudeDegrees>
            </Position>
            <AltitudeMeters>824.4000244140625</AltitudeMeters>
            <DistanceMeters>NAN</DistanceMeters>
          </Trackpoint>
          <Trackpoint>
            <Time>2020-12-05T14:02:52.000Z</Time>
            <Position>
              <LatitudeDegrees>36.81463644839823246002197265625</LatitudeDegrees>
              <LongitudeDegrees>-4.37823892571032047271728515625</LongitudeDegrees>
            </Position>
            <AltitudeMeters>825</AltitudeMeters>
            <DistanceMeters>NAN</DistanceMeters>
          </Trackpoint>
          <Trackpoint>
            <Time>2020-12-05T14:02:53.000Z</Time>
            <Position>
              <LatitudeDegrees>36.81462655775249004364013671875</LatitudeDegrees>
              <LongitudeDegrees>-4.378247894346714019775390625</LongitudeDegrees>
            </Position>
            <AltitudeMeters>825.4000244140625</AltitudeMeters>
            <DistanceMeters>NAN</DistanceMeters>
          </Trackpoint>
          <Trackpoint>
            <Time>2020-12-05T14:02:54.000Z</Time>
            <Position>
              <LatitudeDegrees>36.8146160803735256195068359375</LatitudeDegrees>
              <LongitudeDegrees>-4.37825719825923442840576171875</LongitudeDegrees>
            </Position>
            <AltitudeMeters>826.20001220703125</AltitudeMeters>
            <DistanceMeters>NAN</DistanceMeters>
          </Trackpoint>
          <Trackpoint>
            <Time>2020-12-05T14:02:55.000Z</Time>
            <Position>
              <LatitudeDegrees>36.814609207212924957275390625</LatitudeDegrees>
              <LongitudeDegrees>-4.3782668374478816986083984375</LongitudeDegrees>
            </Position>
            <AltitudeMeters>826.79998779296875</AltitudeMeters>
            <DistanceMeters>NAN</DistanceMeters>
          </Trackpoint>
          <Trackpoint>
            <Time>2020-12-05T14:02:56.000Z</Time>
            <Position>
              <LatitudeDegrees>36.81460007093846797943115234375</LatitudeDegrees>
              <LongitudeDegrees>-4.3782856129109859466552734375</LongitudeDegrees>
            </Position>
            <AltitudeMeters>827.4000244140625</AltitudeMeters>
            <DistanceMeters>NAN</DistanceMeters>
          </Trackpoint>
          <Trackpoint>
            <Time>2020-12-05T14:02:57.000Z</Time>
            <Position>
              <LatitudeDegrees>36.81459386833012104034423828125</LatitudeDegrees>
              <LongitudeDegrees>-4.3782985210418701171875</LongitudeDegrees>
            </Position>
            <AltitudeMeters>827.79998779296875</AltitudeMeters>
            <DistanceMeters>NAN</DistanceMeters>
          </Trackpoint>
          <Trackpoint>
            <Time>2020-12-05T14:02:58.000Z</Time>
            <Position>
              <LatitudeDegrees>36.81459001265466213226318359375</LatitudeDegrees>
              <LongitudeDegrees>-4.378308244049549102783203125</LongitudeDegrees>
            </Position>
            <AltitudeMeters>828.20001220703125</AltitudeMeters>
            <DistanceMeters>NAN</DistanceMeters>
          </Trackpoint>
          <Trackpoint>
            <Time>2020-12-05T14:02:59.000Z</Time>
            <Position>
              <LatitudeDegrees>36.81458632461726665496826171875</LatitudeDegrees>
              <LongitudeDegrees>-4.3783214874565601348876953125</LongitudeDegrees>
            </Position>
            <AltitudeMeters>828.4000244140625</AltitudeMeters>
            <DistanceMeters>NAN</DistanceMeters>
          </Trackpoint>
          <Trackpoint>
            <Time>2020-12-05T14:03:00.000Z</Time>
            <Position>
              <LatitudeDegrees>36.81457844562828540802001953125</LatitudeDegrees>
              <LongitudeDegrees>-4.37833364121615886688232421875</LongitudeDegrees>
            </Position>
            <AltitudeMeters>828.5999755859375</AltitudeMeters>
            <DistanceMeters>NAN</DistanceMeters>
          </Trackpoint>
          <Trackpoint>
            <Time>2020-12-05T14:03:01.000Z</Time>
            <Position>
              <LatitudeDegrees>36.81457174010574817657470703125</LatitudeDegrees>
              <LongitudeDegrees>-4.37834344804286956787109375</LongitudeDegrees>
            </Position>
            <AltitudeMeters>828.5999755859375</AltitudeMeters>
            <DistanceMeters>NAN</DistanceMeters>
          </Trackpoint>
          <Trackpoint>
            <Time>2020-12-05T14:03:02.000Z</Time>
            <Position>
              <LatitudeDegrees>36.81456486694514751434326171875</LatitudeDegrees>
              <LongitudeDegrees>-4.3783540092408657073974609375</LongitudeDegrees>
            </Position>
            <AltitudeMeters>828.5999755859375</AltitudeMeters>
            <DistanceMeters>NAN</DistanceMeters>
          </Trackpoint>
          <Trackpoint>
            <Time>2020-12-05T14:03:03.000Z</Time>
            <Position>
              <LatitudeDegrees>36.81455832906067371368408203125</LatitudeDegrees>
              <LongitudeDegrees>-4.378367923200130462646484375</LongitudeDegrees>
            </Position>
            <AltitudeMeters>828.5999755859375</AltitudeMeters>
            <DistanceMeters>NAN</DistanceMeters>
          </Trackpoint>
          <Trackpoint>
            <Time>2020-12-05T14:03:04.000Z</Time>
            <Position>
              <LatitudeDegrees>36.8145527131855487823486328125</LatitudeDegrees>
              <LongitudeDegrees>-4.378379993140697479248046875</LongitudeDegrees>
            </Position>
            <AltitudeMeters>828.5999755859375</AltitudeMeters>
            <DistanceMeters>NAN</DistanceMeters>
          </Trackpoint>
          <Trackpoint>
            <Time>2020-12-05T14:03:05.000Z</Time>
            <Position>
              <LatitudeDegrees>36.81454491801559925079345703125</LatitudeDegrees>
              <LongitudeDegrees>-4.37839038670063018798828125</LongitudeDegrees>
            </Position>
            <AltitudeMeters>828.4000244140625</AltitudeMeters>
            <DistanceMeters>NAN</DistanceMeters>
          </Trackpoint>
          <Trackpoint>
            <Time>2020-12-05T14:03:06.000Z</Time>
            <Position>
              <LatitudeDegrees>36.81453444063663482666015625</LatitudeDegrees>
              <LongitudeDegrees>-4.3784103356301784515380859375</LongitudeDegrees>
            </Position>
            <AltitudeMeters>828.20001220703125</AltitudeMeters>
            <DistanceMeters>NAN</DistanceMeters>
          </Trackpoint>
          <Trackpoint>
            <Time>2020-12-05T14:03:07.000Z</Time>
            <Position>
              <LatitudeDegrees>36.814523376524448394775390625</LatitudeDegrees>
              <LongitudeDegrees>-4.3784247525036334991455078125</LongitudeDegrees>
            </Position>
            <AltitudeMeters>827.5999755859375</AltitudeMeters>
            <DistanceMeters>NAN</DistanceMeters>
          </Trackpoint>
          <Trackpoint>
            <Time>2020-12-05T14:03:08.000Z</Time>
            <Position>
              <LatitudeDegrees>36.81451298296451568603515625</LatitudeDegrees>
              <LongitudeDegrees>-4.3784364871680736541748046875</LongitudeDegrees>
            </Position>
            <AltitudeMeters>827.20001220703125</AltitudeMeters>
            <DistanceMeters>NAN</DistanceMeters>
          </Trackpoint>
          <Trackpoint>
            <Time>2020-12-05T14:03:09.000Z</Time>
            <Position>
              <LatitudeDegrees>36.8145010806620121002197265625</LatitudeDegrees>
              <LongitudeDegrees>-4.37845115549862384796142578125</LongitudeDegrees>
            </Position>
            <AltitudeMeters>826.79998779296875</AltitudeMeters>
            <DistanceMeters>NAN</DistanceMeters>
          </Trackpoint>
          <Trackpoint>
            <Time>2020-12-05T14:03:10.000Z</Time>
            <Position>
              <LatitudeDegrees>36.814492531120777130126953125</LatitudeDegrees>
              <LongitudeDegrees>-4.378462135791778564453125</LongitudeDegrees>
            </Position>
            <AltitudeMeters>826.5999755859375</AltitudeMeters>
            <DistanceMeters>NAN</DistanceMeters>
          </Trackpoint>
          <Trackpoint>
            <Time>2020-12-05T14:03:11.000Z</Time>
            <Position>
              <LatitudeDegrees>36.8144833110272884368896484375</LatitudeDegrees>
              <LongitudeDegrees>-4.37846993096172809600830078125</LongitudeDegrees>
            </Position>
            <AltitudeMeters>826.5999755859375</AltitudeMeters>
            <DistanceMeters>NAN</DistanceMeters>
          </Trackpoint>
          <Trackpoint>
            <Time>2020-12-05T14:03:12.000Z</Time>
            <Position>
              <LatitudeDegrees>36.8144729174673557281494140625</LatitudeDegrees>
              <LongitudeDegrees>-4.37847496010363101959228515625</LongitudeDegrees>
            </Position>
            <AltitudeMeters>826.4000244140625</AltitudeMeters>
            <DistanceMeters>NAN</DistanceMeters>
          </Trackpoint>
          <Trackpoint>
            <Time>2020-12-05T14:03:13.000Z</Time>
            <Position>
              <LatitudeDegrees>36.81446327827870845794677734375</LatitudeDegrees>
              <LongitudeDegrees>-4.37847797758877277374267578125</LongitudeDegrees>
            </Position>
            <AltitudeMeters>826.4000244140625</AltitudeMeters>
            <DistanceMeters>NAN</DistanceMeters>
          </Trackpoint>
          <Trackpoint>
            <Time>2020-12-05T14:03:14.000Z</Time>
            <Position>
              <LatitudeDegrees>36.81445321999490261077880859375</LatitudeDegrees>
              <LongitudeDegrees>-4.37847713939845561981201171875</LongitudeDegrees>
            </Position>
            <AltitudeMeters>826.4000244140625</AltitudeMeters>
            <DistanceMeters>NAN</DistanceMeters>
          </Trackpoint>
          <Trackpoint>
            <Time>2020-12-05T14:03:15.000Z</Time>
            <Position>
              <LatitudeDegrees>36.8144417367875576019287109375</LatitudeDegrees>
              <LongitudeDegrees>-4.37847445718944072723388671875</LongitudeDegrees>
            </Position>
            <AltitudeMeters>826.4000244140625</AltitudeMeters>
            <DistanceMeters>NAN</DistanceMeters>
          </Trackpoint>
          <Trackpoint>
            <Time>2020-12-05T14:03:16.000Z</Time>
            <Position>
              <LatitudeDegrees>36.81442790664732456207275390625</LatitudeDegrees>
              <LongitudeDegrees>-4.37847621738910675048828125</LongitudeDegrees>
            </Position>
            <AltitudeMeters>826.4000244140625</AltitudeMeters>
            <DistanceMeters>NAN</DistanceMeters>
          </Trackpoint>
          <Trackpoint>
            <Time>2020-12-05T14:03:17.000Z</Time>
            <Position>
              <LatitudeDegrees>36.81441332213580608367919921875</LatitudeDegrees>
              <LongitudeDegrees>-4.37847915105521678924560546875</LongitudeDegrees>
            </Position>
            <AltitudeMeters>826.4000244140625</AltitudeMeters>
            <DistanceMeters>NAN</DistanceMeters>
          </Trackpoint>
          <Trackpoint>
            <Time>2020-12-05T14:03:18.000Z</Time>
            <Position>
              <LatitudeDegrees>36.8143984861671924591064453125</LatitudeDegrees>
              <LongitudeDegrees>-4.37848116271197795867919921875</LongitudeDegrees>
            </Position>
            <AltitudeMeters>826.4000244140625</AltitudeMeters>
            <DistanceMeters>NAN</DistanceMeters>
          </Trackpoint>
          <Trackpoint>
            <Time>2020-12-05T14:03:19.000Z</Time>
            <Position>
              <LatitudeDegrees>36.8143837340176105499267578125</LatitudeDegrees>
              <LongitudeDegrees>-4.37848367728292942047119140625</LongitudeDegrees>
            </Position>
            <AltitudeMeters>826.20001220703125</AltitudeMeters>
            <DistanceMeters>NAN</DistanceMeters>
          </Trackpoint>
          <Trackpoint>
            <Time>2020-12-05T14:03:20.000Z</Time>
            <Position>
              <LatitudeDegrees>36.81436990387737751007080078125</LatitudeDegrees>
              <LongitudeDegrees>-4.378483258187770843505859375</LongitudeDegrees>
            </Position>
            <AltitudeMeters>826.20001220703125</AltitudeMeters>
            <DistanceMeters>NAN</DistanceMeters>
          </Trackpoint>
          <Trackpoint>
            <Time>2020-12-05T14:03:21.000Z</Time>
            <Position>
              <LatitudeDegrees>36.81435615755617618560791015625</LatitudeDegrees>
              <LongitudeDegrees>-4.37848233617842197418212890625</LongitudeDegrees>
            </Position>
            <AltitudeMeters>826.4000244140625</AltitudeMeters>
            <DistanceMeters>NAN</DistanceMeters>
          </Trackpoint>
          <Trackpoint>
            <Time>2020-12-05T14:03:22.000Z</Time>
            <Position>
              <LatitudeDegrees>36.8143431656062602996826171875</LatitudeDegrees>
              <LongitudeDegrees>-4.37848216854035854339599609375</LongitudeDegrees>
            </Position>
            <AltitudeMeters>826.4000244140625</AltitudeMeters>
            <DistanceMeters>NAN</DistanceMeters>
          </Trackpoint>
          <Trackpoint>
            <Time>2020-12-05T14:03:23.000Z</Time>
            <Position>
              <LatitudeDegrees>36.814330257475376129150390625</LatitudeDegrees>
              <LongitudeDegrees>-4.37848183326423168182373046875</LongitudeDegrees>
            </Position>
            <AltitudeMeters>826.5999755859375</AltitudeMeters>
            <DistanceMeters>NAN</DistanceMeters>
          </Trackpoint>
          <Trackpoint>
            <Time>2020-12-05T14:03:24.000Z</Time>
            <Position>
              <LatitudeDegrees>36.814317516982555389404296875</LatitudeDegrees>
              <LongitudeDegrees>-4.37848032452166080474853515625</LongitudeDegrees>
            </Position>
            <AltitudeMeters>826.79998779296875</AltitudeMeters>
            <DistanceMeters>NAN</DistanceMeters>
          </Trackpoint>
          <Trackpoint>
            <Time>2020-12-05T14:03:25.000Z</Time>
            <Position>
              <LatitudeDegrees>36.814302764832973480224609375</LatitudeDegrees>
              <LongitudeDegrees>-4.37847747467458248138427734375</LongitudeDegrees>
            </Position>
            <AltitudeMeters>827.20001220703125</AltitudeMeters>
            <DistanceMeters>NAN</DistanceMeters>
          </Trackpoint>
          <Trackpoint>
            <Time>2020-12-05T14:03:26.000Z</Time>
            <Position>
              <LatitudeDegrees>36.81428524665534496307373046875</LatitudeDegrees>
              <LongitudeDegrees>-4.37847211025655269622802734375</LongitudeDegrees>
            </Position>
            <AltitudeMeters>827.4000244140625</AltitudeMeters>
            <DistanceMeters>NAN</DistanceMeters>
          </Trackpoint>
          <Trackpoint>
            <Time>2020-12-05T14:03:27.000Z</Time>
            <Position>
              <LatitudeDegrees>36.81426730938255786895751953125</LatitudeDegrees>
              <LongitudeDegrees>-4.378467164933681488037109375</LongitudeDegrees>
            </Position>
            <AltitudeMeters>827.5999755859375</AltitudeMeters>
            <DistanceMeters>NAN</DistanceMeters>
          </Trackpoint>
          <Trackpoint>
            <Time>2020-12-05T14:03:28.000Z</Time>
            <Position>
              <LatitudeDegrees>36.8142509646713733673095703125</LatitudeDegrees>
              <LongitudeDegrees>-4.3784646503627300262451171875</LongitudeDegrees>
            </Position>
            <AltitudeMeters>827.5999755859375</AltitudeMeters>
            <DistanceMeters>NAN</DistanceMeters>
          </Trackpoint>
          <Trackpoint>
            <Time>2020-12-05T14:03:29.000Z</Time>
            <Position>
              <LatitudeDegrees>36.81423512287437915802001953125</LatitudeDegrees>
              <LongitudeDegrees>-4.37846146523952484130859375</LongitudeDegrees>
            </Position>
            <AltitudeMeters>827.79998779296875</AltitudeMeters>
            <DistanceMeters>NAN</DistanceMeters>
          </Trackpoint>
          <Trackpoint>
            <Time>2020-12-05T14:03:30.000Z</Time>
            <Position>
              <LatitudeDegrees>36.81422037072479724884033203125</LatitudeDegrees>
              <LongitudeDegrees>-4.3784554302692413330078125</LongitudeDegrees>
            </Position>
            <AltitudeMeters>827.79998779296875</AltitudeMeters>
            <DistanceMeters>NAN</DistanceMeters>
          </Trackpoint>
          <Trackpoint>
            <Time>2020-12-05T14:03:31.000Z</Time>
            <Position>
              <LatitudeDegrees>36.81420863606035709381103515625</LatitudeDegrees>
              <LongitudeDegrees>-4.378451406955718994140625</LongitudeDegrees>
            </Position>
            <AltitudeMeters>827.79998779296875</AltitudeMeters>
            <DistanceMeters>NAN</DistanceMeters>
          </Trackpoint>
          <Trackpoint>
            <Time>2020-12-05T14:03:32.000Z</Time>
            <Position>
              <LatitudeDegrees>36.8141989968717098236083984375</LatitudeDegrees>
              <LongitudeDegrees>-4.37844679690897464752197265625</LongitudeDegrees>
            </Position>
            <AltitudeMeters>827.79998779296875</AltitudeMeters>
            <DistanceMeters>NAN</DistanceMeters>
          </Trackpoint>
          <Trackpoint>
            <Time>2020-12-05T14:03:33.000Z</Time>
            <Position>
              <LatitudeDegrees>36.81419245898723602294921875</LatitudeDegrees>
              <LongitudeDegrees>-4.37844143249094486236572265625</LongitudeDegrees>
            </Position>
            <AltitudeMeters>827.5999755859375</AltitudeMeters>
            <DistanceMeters>NAN</DistanceMeters>
          </Trackpoint>
          <Trackpoint>
            <Time>2020-12-05T14:03:34.000Z</Time>
            <Position>
              <LatitudeDegrees>36.81418533436954021453857421875</LatitudeDegrees>
              <LongitudeDegrees>-4.378434978425502777099609375</LongitudeDegrees>
            </Position>
            <AltitudeMeters>827.5999755859375</AltitudeMeters>
            <DistanceMeters>NAN</DistanceMeters>
          </Trackpoint>
          <Trackpoint>
            <Time>2020-12-05T14:03:35.000Z</Time>
            <Position>
              <LatitudeDegrees>36.81417795829474925994873046875</LatitudeDegrees>
              <LongitudeDegrees>-4.3784277699887752532958984375</LongitudeDegrees>
            </Position>
            <AltitudeMeters>827.4000244140625</AltitudeMeters>
            <DistanceMeters>NAN</DistanceMeters>
          </Trackpoint>
          <Trackpoint>
            <Time>2020-12-05T14:03:36.000Z</Time>
            <Position>
              <LatitudeDegrees>36.8141676485538482666015625</LatitudeDegrees>
              <LongitudeDegrees>-4.3784207291901111602783203125</LongitudeDegrees>
            </Position>
            <AltitudeMeters>827.4000244140625</AltitudeMeters>
            <DistanceMeters>NAN</DistanceMeters>
          </Trackpoint>
          <Trackpoint>
            <Time>2020-12-05T14:03:37.000Z</Time>
            <Position>
              <LatitudeDegrees>36.814154572784900665283203125</LatitudeDegrees>
              <LongitudeDegrees>-4.3784116767346858978271484375</LongitudeDegrees>
            </Position>
            <AltitudeMeters>827.20001220703125</AltitudeMeters>
            <DistanceMeters>NAN</DistanceMeters>
          </Trackpoint>
          <Trackpoint>
            <Time>2020-12-05T14:03:38.000Z</Time>
            <Position>
              <LatitudeDegrees>36.81414174847304821014404296875</LatitudeDegrees>
              <LongitudeDegrees>-4.3784022890031337738037109375</LongitudeDegrees>
            </Position>
            <AltitudeMeters>827</AltitudeMeters>
            <DistanceMeters>NAN</DistanceMeters>
          </Trackpoint>
          <Trackpoint>
            <Time>2020-12-05T14:03:39.000Z</Time>
            <Position>
              <LatitudeDegrees>36.81413051672279834747314453125</LatitudeDegrees>
              <LongitudeDegrees>-4.37839281745254993438720703125</LongitudeDegrees>
            </Position>
            <AltitudeMeters>826.79998779296875</AltitudeMeters>
            <DistanceMeters>NAN</DistanceMeters>
          </Trackpoint>
          <Trackpoint>
            <Time>2020-12-05T14:03:40.000Z</Time>
            <Position>
              <LatitudeDegrees>36.8141212128102779388427734375</LatitudeDegrees>
              <LongitudeDegrees>-4.37838192097842693328857421875</LongitudeDegrees>
            </Position>
            <AltitudeMeters>826.5999755859375</AltitudeMeters>
            <DistanceMeters>NAN</DistanceMeters>
          </Trackpoint>
          <Trackpoint>
            <Time>2020-12-05T14:03:41.000Z</Time>
            <Position>
              <LatitudeDegrees>36.81411073543131351470947265625</LatitudeDegrees>
              <LongitudeDegrees>-4.3783711083233356475830078125</LongitudeDegrees>
            </Position>
            <AltitudeMeters>826.4000244140625</AltitudeMeters>
            <DistanceMeters>NAN</DistanceMeters>
          </Trackpoint>
          <Trackpoint>
            <Time>2020-12-05T14:03:42.000Z</Time>
            <Position>
              <LatitudeDegrees>36.81409992277622222900390625</LatitudeDegrees>
              <LongitudeDegrees>-4.3783628940582275390625</LongitudeDegrees>
            </Position>
            <AltitudeMeters>826.4000244140625</AltitudeMeters>
            <DistanceMeters>NAN</DistanceMeters>
          </Trackpoint>
          <Trackpoint>
            <Time>2020-12-05T14:03:43.000Z</Time>
            <Position>
              <LatitudeDegrees>36.8140890263020992279052734375</LatitudeDegrees>
              <LongitudeDegrees>-4.378352500498294830322265625</LongitudeDegrees>
            </Position>
            <AltitudeMeters>826.20001220703125</AltitudeMeters>
            <DistanceMeters>NAN</DistanceMeters>
          </Trackpoint>
          <Trackpoint>
            <Time>2020-12-05T14:03:44.000Z</Time>
            <Position>
              <LatitudeDegrees>36.8140782974660396575927734375</LatitudeDegrees>
              <LongitudeDegrees>-4.3783405981957912445068359375</LongitudeDegrees>
            </Position>
            <AltitudeMeters>826.4000244140625</AltitudeMeters>
            <DistanceMeters>NAN</DistanceMeters>
          </Trackpoint>
          <Trackpoint>
            <Time>2020-12-05T14:03:45.000Z</Time>
            <Position>
              <LatitudeDegrees>36.8140679039061069488525390625</LatitudeDegrees>
              <LongitudeDegrees>-4.37832861207425594329833984375</LongitudeDegrees>
            </Position>
            <AltitudeMeters>826.4000244140625</AltitudeMeters>
            <DistanceMeters>NAN</DistanceMeters>
          </Trackpoint>
          <Trackpoint>
            <Time>2020-12-05T14:03:46.000Z</Time>
            <Position>
              <LatitudeDegrees>36.8140611983835697174072265625</LatitudeDegrees>
              <LongitudeDegrees>-4.3783134408295154571533203125</LongitudeDegrees>
            </Position>
            <AltitudeMeters>826.5999755859375</AltitudeMeters>
            <DistanceMeters>NAN</DistanceMeters>
          </Trackpoint>
          <Trackpoint>
            <Time>2020-12-05T14:03:47.000Z</Time>
            <Position>
              <LatitudeDegrees>36.81405725888907909393310546875</LatitudeDegrees>
              <LongitudeDegrees>-4.37829474918544292449951171875</LongitudeDegrees>
            </Position>
            <AltitudeMeters>826.5999755859375</AltitudeMeters>
            <DistanceMeters>NAN</DistanceMeters>
          </Trackpoint>
          <Trackpoint>
            <Time>2020-12-05T14:03:48.000Z</Time>
            <Position>
              <LatitudeDegrees>36.81404988281428813934326171875</LatitudeDegrees>
              <LongitudeDegrees>-4.3782846070826053619384765625</LongitudeDegrees>
            </Position>
            <AltitudeMeters>826.5999755859375</AltitudeMeters>
            <DistanceMeters>NAN</DistanceMeters>
          </Trackpoint>
          <Trackpoint>
            <Time>2020-12-05T14:03:49.000Z</Time>
            <Position>
              <LatitudeDegrees>36.8140442669391632080078125</LatitudeDegrees>
              <LongitudeDegrees>-4.3782768957316875457763671875</LongitudeDegrees>
            </Position>
            <AltitudeMeters>826.5999755859375</AltitudeMeters>
            <DistanceMeters>NAN</DistanceMeters>
          </Trackpoint>
          <Trackpoint>
            <Time>2020-12-05T14:03:50.000Z</Time>
            <Position>
              <LatitudeDegrees>36.8140397407114505767822265625</LatitudeDegrees>
              <LongitudeDegrees>-4.3782651610672473907470703125</LongitudeDegrees>
            </Position>
            <AltitudeMeters>826.5999755859375</AltitudeMeters>
            <DistanceMeters>NAN</DistanceMeters>
          </Trackpoint>
          <Trackpoint>
            <Time>2020-12-05T14:03:51.000Z</Time>
            <Position>
              <LatitudeDegrees>36.81403496302664279937744140625</LatitudeDegrees>
              <LongitudeDegrees>-4.3782530911266803741455078125</LongitudeDegrees>
            </Position>
            <AltitudeMeters>826.5999755859375</AltitudeMeters>
            <DistanceMeters>NAN</DistanceMeters>
          </Trackpoint>
          <Trackpoint>
            <Time>2020-12-05T14:03:52.000Z</Time>
            <Position>
              <LatitudeDegrees>36.814029850065708160400390625</LatitudeDegrees>
              <LongitudeDegrees>-4.37824060209095478057861328125</LongitudeDegrees>
            </Position>
            <AltitudeMeters>826.79998779296875</AltitudeMeters>
            <DistanceMeters>NAN</DistanceMeters>
          </Trackpoint>
          <Trackpoint>
            <Time>2020-12-05T14:03:53.000Z</Time>
            <Position>
              <LatitudeDegrees>36.81402339600026607513427734375</LatitudeDegrees>
              <LongitudeDegrees>-4.37822551466524600982666015625</LongitudeDegrees>
            </Position>
            <AltitudeMeters>827</AltitudeMeters>
            <DistanceMeters>NAN</DistanceMeters>
          </Trackpoint>
          <Trackpoint>
            <Time>2020-12-05T14:03:54.000Z</Time>
            <Position>
              <LatitudeDegrees>36.81401652283966541290283203125</LatitudeDegrees>
              <LongitudeDegrees>-4.37821193598210811614990234375</LongitudeDegrees>
            </Position>
            <AltitudeMeters>827.20001220703125</AltitudeMeters>
            <DistanceMeters>NAN</DistanceMeters>
          </Trackpoint>
          <Trackpoint>
            <Time>2020-12-05T14:03:55.000Z</Time>
            <Position>
              <LatitudeDegrees>36.81401275098323822021484375</LatitudeDegrees>
              <LongitudeDegrees>-4.37820422463119029998779296875</LongitudeDegrees>
            </Position>
            <AltitudeMeters>827.4000244140625</AltitudeMeters>
            <DistanceMeters>NAN</DistanceMeters>
          </Trackpoint>
          <Trackpoint>
            <Time>2020-12-05T14:03:56.000Z</Time>
            <Position>
              <LatitudeDegrees>36.81400730274617671966552734375</LatitudeDegrees>
              <LongitudeDegrees>-4.378193914890289306640625</LongitudeDegrees>
            </Position>
            <AltitudeMeters>827.5999755859375</AltitudeMeters>
            <DistanceMeters>NAN</DistanceMeters>
          </Trackpoint>
          <Trackpoint>
            <Time>2020-12-05T14:03:57.000Z</Time>
            <Position>
              <LatitudeDegrees>36.81399992667138576507568359375</LatitudeDegrees>
              <LongitudeDegrees>-4.37818075530230998992919921875</LongitudeDegrees>
            </Position>
            <AltitudeMeters>827.5999755859375</AltitudeMeters>
            <DistanceMeters>NAN</DistanceMeters>
          </Trackpoint>
          <Trackpoint>
            <Time>2020-12-05T14:03:58.000Z</Time>
            <Position>
              <LatitudeDegrees>36.81399154476821422576904296875</LatitudeDegrees>
              <LongitudeDegrees>-4.37816449441015720367431640625</LongitudeDegrees>
            </Position>
            <AltitudeMeters>827.79998779296875</AltitudeMeters>
            <DistanceMeters>NAN</DistanceMeters>
          </Trackpoint>
          <Trackpoint>
            <Time>2020-12-05T14:03:59.000Z</Time>
            <Position>
              <LatitudeDegrees>36.81398366577923297882080078125</LatitudeDegrees>
              <LongitudeDegrees>-4.378149993717670440673828125</LongitudeDegrees>
            </Position>
            <AltitudeMeters>827.79998779296875</AltitudeMeters>
            <DistanceMeters>NAN</DistanceMeters>
          </Trackpoint>
          <Trackpoint>
            <Time>2020-12-05T14:04:00.000Z</Time>
            <Position>
              <LatitudeDegrees>36.81397511623799800872802734375</LatitudeDegrees>
              <LongitudeDegrees>-4.37813431955873966217041015625</LongitudeDegrees>
            </Position>
            <AltitudeMeters>828</AltitudeMeters>
            <DistanceMeters>NAN</DistanceMeters>
          </Trackpoint>
          <Trackpoint>
            <Time>2020-12-05T14:04:01.000Z</Time>
            <Position>
              <LatitudeDegrees>36.81396690197288990020751953125</LatitudeDegrees>
              <LongitudeDegrees>-4.37812350690364837646484375</LongitudeDegrees>
            </Position>
            <AltitudeMeters>828.20001220703125</AltitudeMeters>
            <DistanceMeters>NAN</DistanceMeters>
          </Trackpoint>
          <Trackpoint>
            <Time>2020-12-05T14:04:02.000Z</Time>
            <Position>
              <LatitudeDegrees>36.81396187283098697662353515625</LatitudeDegrees>
              <LongitudeDegrees>-4.3781129457056522369384765625</LongitudeDegrees>
            </Position>
            <AltitudeMeters>828.20001220703125</AltitudeMeters>
            <DistanceMeters>NAN</DistanceMeters>
          </Trackpoint>
          <Trackpoint>
            <Time>2020-12-05T14:04:03.000Z</Time>
            <Position>
              <LatitudeDegrees>36.8139569275081157684326171875</LatitudeDegrees>
              <LongitudeDegrees>-4.37809492461383342742919921875</LongitudeDegrees>
            </Position>
            <AltitudeMeters>828.20001220703125</AltitudeMeters>
            <DistanceMeters>NAN</DistanceMeters>
          </Trackpoint>
          <Trackpoint>
            <Time>2020-12-05T14:04:04.000Z</Time>
            <Position>
              <LatitudeDegrees>36.81395231746137142181396484375</LatitudeDegrees>
              <LongitudeDegrees>-4.378075897693634033203125</LongitudeDegrees>
            </Position>
            <AltitudeMeters>828.20001220703125</AltitudeMeters>
            <DistanceMeters>NAN</DistanceMeters>
          </Trackpoint>
          <Trackpoint>
            <Time>2020-12-05T14:04:05.000Z</Time>
            <Position>
              <LatitudeDegrees>36.81394963525235652923583984375</LatitudeDegrees>
              <LongitudeDegrees>-4.3780593015253543853759765625</LongitudeDegrees>
            </Position>
            <AltitudeMeters>828.20001220703125</AltitudeMeters>
            <DistanceMeters>NAN</DistanceMeters>
          </Trackpoint>
          <Trackpoint>
            <Time>2020-12-05T14:04:06.000Z</Time>
            <Position>
              <LatitudeDegrees>36.81394695304334163665771484375</LatitudeDegrees>
              <LongitudeDegrees>-4.3780489079654216766357421875</LongitudeDegrees>
            </Position>
            <AltitudeMeters>828.20001220703125</AltitudeMeters>
            <DistanceMeters>NAN</DistanceMeters>
          </Trackpoint>
          <Trackpoint>
            <Time>2020-12-05T14:04:07.000Z</Time>
            <Position>
              <LatitudeDegrees>36.81394435465335845947265625</LatitudeDegrees>
              <LongitudeDegrees>-4.37803641892969608306884765625</LongitudeDegrees>
            </Position>
            <AltitudeMeters>828.20001220703125</AltitudeMeters>
            <DistanceMeters>NAN</DistanceMeters>
          </Trackpoint>
          <Trackpoint>
            <Time>2020-12-05T14:04:08.000Z</Time>
            <Position>
              <LatitudeDegrees>36.81393907405436038970947265625</LatitudeDegrees>
              <LongitudeDegrees>-4.3780230917036533355712890625</LongitudeDegrees>
            </Position>
            <AltitudeMeters>828.20001220703125</AltitudeMeters>
            <DistanceMeters>NAN</DistanceMeters>
          </Trackpoint>
          <Trackpoint>
            <Time>2020-12-05T14:04:09.000Z</Time>
            <Position>
              <LatitudeDegrees>36.813931949436664581298828125</LatitudeDegrees>
              <LongitudeDegrees>-4.37800951302051544189453125</LongitudeDegrees>
            </Position>
            <AltitudeMeters>828.4000244140625</AltitudeMeters>
            <DistanceMeters>NAN</DistanceMeters>
          </Trackpoint>
          <Trackpoint>
            <Time>2020-12-05T14:04:10.000Z</Time>
            <Position>
              <LatitudeDegrees>36.813925243914127349853515625</LatitudeDegrees>
              <LongitudeDegrees>-4.3779981136322021484375</LongitudeDegrees>
            </Position>
            <AltitudeMeters>828.4000244140625</AltitudeMeters>
            <DistanceMeters>NAN</DistanceMeters>
          </Trackpoint>
          <Trackpoint>
            <Time>2020-12-05T14:04:11.000Z</Time>
            <Position>
              <LatitudeDegrees>36.81391694582998752593994140625</LatitudeDegrees>
              <LongitudeDegrees>-4.37797992490231990814208984375</LongitudeDegrees>
            </Position>
            <AltitudeMeters>828.5999755859375</AltitudeMeters>
            <DistanceMeters>NAN</DistanceMeters>
          </Trackpoint>
          <Trackpoint>
            <Time>2020-12-05T14:04:12.000Z</Time>
            <Position>
              <LatitudeDegrees>36.81390889920294284820556640625</LatitudeDegrees>
              <LongitudeDegrees>-4.37796265818178653717041015625</LongitudeDegrees>
            </Position>
            <AltitudeMeters>828.5999755859375</AltitudeMeters>
            <DistanceMeters>NAN</DistanceMeters>
          </Trackpoint>
          <Trackpoint>
            <Time>2020-12-05T14:04:13.000Z</Time>
            <Position>
              <LatitudeDegrees>36.81390143930912017822265625</LatitudeDegrees>
              <LongitudeDegrees>-4.3779463134706020355224609375</LongitudeDegrees>
            </Position>
            <AltitudeMeters>828.5999755859375</AltitudeMeters>
            <DistanceMeters>NAN</DistanceMeters>
          </Trackpoint>
          <Trackpoint>
            <Time>2020-12-05T14:04:14.000Z</Time>
            <Position>
              <LatitudeDegrees>36.813897080719470977783203125</LatitudeDegrees>
              <LongitudeDegrees>-4.3779285438358783721923828125</LongitudeDegrees>
            </Position>
            <AltitudeMeters>828.5999755859375</AltitudeMeters>
            <DistanceMeters>NAN</DistanceMeters>
          </Trackpoint>
          <Trackpoint>
            <Time>2020-12-05T14:04:15.000Z</Time>
            <Position>
              <LatitudeDegrees>36.8138925544917583465576171875</LatitudeDegrees>
              <LongitudeDegrees>-4.377912618219852447509765625</LongitudeDegrees>
            </Position>
            <AltitudeMeters>828.5999755859375</AltitudeMeters>
            <DistanceMeters>NAN</DistanceMeters>
          </Trackpoint>
          <Trackpoint>
            <Time>2020-12-05T14:04:16.000Z</Time>
            <Position>
              <LatitudeDegrees>36.8138892017304897308349609375</LatitudeDegrees>
              <LongitudeDegrees>-4.3778973631560802459716796875</LongitudeDegrees>
            </Position>
            <AltitudeMeters>828.5999755859375</AltitudeMeters>
            <DistanceMeters>NAN</DistanceMeters>
          </Trackpoint>
          <Trackpoint>
            <Time>2020-12-05T14:04:17.000Z</Time>
            <Position>
              <LatitudeDegrees>36.81388626806437969207763671875</LatitudeDegrees>
              <LongitudeDegrees>-4.37788386829197406768798828125</LongitudeDegrees>
            </Position>
            <AltitudeMeters>828.4000244140625</AltitudeMeters>
            <DistanceMeters>NAN</DistanceMeters>
          </Trackpoint>
          <Trackpoint>
            <Time>2020-12-05T14:04:18.000Z</Time>
            <Position>
              <LatitudeDegrees>36.81388475932180881500244140625</LatitudeDegrees>
              <LongitudeDegrees>-4.37787263654172420501708984375</LongitudeDegrees>
            </Position>
            <AltitudeMeters>828.20001220703125</AltitudeMeters>
            <DistanceMeters>NAN</DistanceMeters>
          </Trackpoint>
          <Trackpoint>
            <Time>2020-12-05T14:04:19.000Z</Time>
            <Position>
              <LatitudeDegrees>36.81388425640761852264404296875</LatitudeDegrees>
              <LongitudeDegrees>-4.37786140479147434234619140625</LongitudeDegrees>
            </Position>
            <AltitudeMeters>827.79998779296875</AltitudeMeters>
            <DistanceMeters>NAN</DistanceMeters>
          </Trackpoint>
          <Trackpoint>
            <Time>2020-12-05T14:04:20.000Z</Time>
            <Position>
              <LatitudeDegrees>36.81388442404568195343017578125</LatitudeDegrees>
              <LongitudeDegrees>-4.37784916721284389495849609375</LongitudeDegrees>
            </Position>
            <AltitudeMeters>827.5999755859375</AltitudeMeters>
            <DistanceMeters>NAN</DistanceMeters>
          </Trackpoint>
          <Trackpoint>
            <Time>2020-12-05T14:04:21.000Z</Time>
            <Position>
              <LatitudeDegrees>36.8138833343982696533203125</LatitudeDegrees>
              <LongitudeDegrees>-4.37783441506326198577880859375</LongitudeDegrees>
            </Position>
            <AltitudeMeters>827.5999755859375</AltitudeMeters>
            <DistanceMeters>NAN</DistanceMeters>
          </Trackpoint>
          <Trackpoint>
            <Time>2020-12-05T14:04:22.000Z</Time>
            <Position>
              <LatitudeDegrees>36.81388325057923793792724609375</LatitudeDegrees>
              <LongitudeDegrees>-4.377821423113346099853515625</LongitudeDegrees>
            </Position>
            <AltitudeMeters>827.5999755859375</AltitudeMeters>
            <DistanceMeters>NAN</DistanceMeters>
          </Trackpoint>
          <Trackpoint>
            <Time>2020-12-05T14:04:23.000Z</Time>
            <Position>
              <LatitudeDegrees>36.81388375349342823028564453125</LatitudeDegrees>
              <LongitudeDegrees>-4.377804659307003021240234375</LongitudeDegrees>
            </Position>
            <AltitudeMeters>827.5999755859375</AltitudeMeters>
            <DistanceMeters>NAN</DistanceMeters>
          </Trackpoint>
          <Trackpoint>
            <Time>2020-12-05T14:04:24.000Z</Time>
            <Position>
              <LatitudeDegrees>36.8138824962079524993896484375</LatitudeDegrees>
              <LongitudeDegrees>-4.37778747640550136566162109375</LongitudeDegrees>
            </Position>
            <AltitudeMeters>827.5999755859375</AltitudeMeters>
            <DistanceMeters>NAN</DistanceMeters>
          </Trackpoint>
          <Trackpoint>
            <Time>2020-12-05T14:04:25.000Z</Time>
            <Position>
              <LatitudeDegrees>36.8138781376183032989501953125</LatitudeDegrees>
              <LongitudeDegrees>-4.3777736462652683258056640625</LongitudeDegrees>
            </Position>
            <AltitudeMeters>827.5999755859375</AltitudeMeters>
            <DistanceMeters>NAN</DistanceMeters>
          </Trackpoint>
          <Trackpoint>
            <Time>2020-12-05T14:04:26.000Z</Time>
            <Position>
              <LatitudeDegrees>36.81387403048574924468994140625</LatitudeDegrees>
              <LongitudeDegrees>-4.37775830738246440887451171875</LongitudeDegrees>
            </Position>
            <AltitudeMeters>827.79998779296875</AltitudeMeters>
            <DistanceMeters>NAN</DistanceMeters>
          </Trackpoint>
          <Trackpoint>
            <Time>2020-12-05T14:04:27.000Z</Time>
            <Position>
              <LatitudeDegrees>36.81387000717222690582275390625</LatitudeDegrees>
              <LongitudeDegrees>-4.37774204649031162261962890625</LongitudeDegrees>
            </Position>
            <AltitudeMeters>828</AltitudeMeters>
            <DistanceMeters>NAN</DistanceMeters>
          </Trackpoint>
          <Trackpoint>
            <Time>2020-12-05T14:04:28.000Z</Time>
            <Position>
              <LatitudeDegrees>36.81386497803032398223876953125</LatitudeDegrees>
              <LongitudeDegrees>-4.37772343866527080535888671875</LongitudeDegrees>
            </Position>
            <AltitudeMeters>828.20001220703125</AltitudeMeters>
            <DistanceMeters>NAN</DistanceMeters>
          </Trackpoint>
          <Trackpoint>
            <Time>2020-12-05T14:04:29.000Z</Time>
            <Position>
              <LatitudeDegrees>36.81386061944067478179931640625</LatitudeDegrees>
              <LongitudeDegrees>-4.37770868651568889617919921875</LongitudeDegrees>
            </Position>
            <AltitudeMeters>828.20001220703125</AltitudeMeters>
            <DistanceMeters>NAN</DistanceMeters>
          </Trackpoint>
          <Trackpoint>
            <Time>2020-12-05T14:04:30.000Z</Time>
            <Position>
              <LatitudeDegrees>36.81385927833616733551025390625</LatitudeDegrees>
              <LongitudeDegrees>-4.37769209034740924835205078125</LongitudeDegrees>
            </Position>
            <AltitudeMeters>828.4000244140625</AltitudeMeters>
            <DistanceMeters>NAN</DistanceMeters>
          </Trackpoint>
          <Trackpoint>
            <Time>2020-12-05T14:04:31.000Z</Time>
            <Position>
              <LatitudeDegrees>36.8138570152223110198974609375</LatitudeDegrees>
              <LongitudeDegrees>-4.3776790983974933624267578125</LongitudeDegrees>
            </Position>
            <AltitudeMeters>828.4000244140625</AltitudeMeters>
            <DistanceMeters>NAN</DistanceMeters>
          </Trackpoint>
          <Trackpoint>
            <Time>2020-12-05T14:04:32.000Z</Time>
            <Position>
              <LatitudeDegrees>36.81385458447039127349853515625</LatitudeDegrees>
              <LongitudeDegrees>-4.37766744755208492279052734375</LongitudeDegrees>
            </Position>
            <AltitudeMeters>828.5999755859375</AltitudeMeters>
            <DistanceMeters>NAN</DistanceMeters>
          </Trackpoint>
          <Trackpoint>
            <Time>2020-12-05T14:04:33.000Z</Time>
            <Position>
              <LatitudeDegrees>36.8138513155281543731689453125</LatitudeDegrees>
              <LongitudeDegrees>-4.37765655107796192169189453125</LongitudeDegrees>
            </Position>
            <AltitudeMeters>828.5999755859375</AltitudeMeters>
            <DistanceMeters>NAN</DistanceMeters>
          </Trackpoint>
          <Trackpoint>
            <Time>2020-12-05T14:04:34.000Z</Time>
            <Position>
              <LatitudeDegrees>36.8138479627668857574462890625</LatitudeDegrees>
              <LongitudeDegrees>-4.37764213420450687408447265625</LongitudeDegrees>
            </Position>
            <AltitudeMeters>828.4000244140625</AltitudeMeters>
            <DistanceMeters>NAN</DistanceMeters>
          </Trackpoint>
          <Trackpoint>
            <Time>2020-12-05T14:04:35.000Z</Time>
            <Position>
              <LatitudeDegrees>36.81384620256721973419189453125</LatitudeDegrees>
              <LongitudeDegrees>-4.377626292407512664794921875</LongitudeDegrees>
            </Position>
            <AltitudeMeters>828.20001220703125</AltitudeMeters>
            <DistanceMeters>NAN</DistanceMeters>
          </Trackpoint>
          <Trackpoint>
            <Time>2020-12-05T14:04:36.000Z</Time>
            <Position>
              <LatitudeDegrees>36.81384318508207798004150390625</LatitudeDegrees>
              <LongitudeDegrees>-4.3776105344295501708984375</LongitudeDegrees>
            </Position>
            <AltitudeMeters>828.20001220703125</AltitudeMeters>
            <DistanceMeters>NAN</DistanceMeters>
          </Trackpoint>
          <Trackpoint>
            <Time>2020-12-05T14:04:37.000Z</Time>
            <Position>
              <LatitudeDegrees>36.81384033523499965667724609375</LatitudeDegrees>
              <LongitudeDegrees>-4.37759402208030223846435546875</LongitudeDegrees>
            </Position>
            <AltitudeMeters>828</AltitudeMeters>
            <DistanceMeters>NAN</DistanceMeters>
          </Trackpoint>
          <Trackpoint>
            <Time>2020-12-05T14:04:38.000Z</Time>
            <Position>
              <LatitudeDegrees>36.81383748538792133331298828125</LatitudeDegrees>
              <LongitudeDegrees>-4.3775805272161960601806640625</LongitudeDegrees>
            </Position>
            <AltitudeMeters>828</AltitudeMeters>
            <DistanceMeters>NAN</DistanceMeters>
          </Trackpoint>
          <Trackpoint>
            <Time>2020-12-05T14:04:39.000Z</Time>
            <Position>
              <LatitudeDegrees>36.81383413262665271759033203125</LatitudeDegrees>
              <LongitudeDegrees>-4.37756854109466075897216796875</LongitudeDegrees>
            </Position>
            <AltitudeMeters>828</AltitudeMeters>
            <DistanceMeters>NAN</DistanceMeters>
          </Trackpoint>
          <Trackpoint>
            <Time>2020-12-05T14:04:40.000Z</Time>
            <Position>
              <LatitudeDegrees>36.81383145041763782501220703125</LatitudeDegrees>
              <LongitudeDegrees>-4.3775573931634426116943359375</LongitudeDegrees>
            </Position>
            <AltitudeMeters>827.79998779296875</AltitudeMeters>
            <DistanceMeters>NAN</DistanceMeters>
          </Trackpoint>
          <Trackpoint>
            <Time>2020-12-05T14:04:41.000Z</Time>
            <Position>
              <LatitudeDegrees>36.81382793001830577850341796875</LatitudeDegrees>
              <LongitudeDegrees>-4.3775446526706218719482421875</LongitudeDegrees>
            </Position>
            <AltitudeMeters>827.79998779296875</AltitudeMeters>
            <DistanceMeters>NAN</DistanceMeters>
          </Trackpoint>
          <Trackpoint>
            <Time>2020-12-05T14:04:42.000Z</Time>
            <Position>
              <LatitudeDegrees>36.813823319971561431884765625</LatitudeDegrees>
              <LongitudeDegrees>-4.3775295652449131011962890625</LongitudeDegrees>
            </Position>
            <AltitudeMeters>827.79998779296875</AltitudeMeters>
            <DistanceMeters>NAN</DistanceMeters>
          </Trackpoint>
          <Trackpoint>
            <Time>2020-12-05T14:04:43.000Z</Time>
            <Position>
              <LatitudeDegrees>36.81381837464869022369384765625</LatitudeDegrees>
              <LongitudeDegrees>-4.37751489691436290740966796875</LongitudeDegrees>
            </Position>
            <AltitudeMeters>827.79998779296875</AltitudeMeters>
            <DistanceMeters>NAN</DistanceMeters>
          </Trackpoint>
          <Trackpoint>
            <Time>2020-12-05T14:04:44.000Z</Time>
            <Position>
              <LatitudeDegrees>36.81381485424935817718505859375</LatitudeDegrees>
              <LongitudeDegrees>-4.37749897129833698272705078125</LongitudeDegrees>
            </Position>
            <AltitudeMeters>827.79998779296875</AltitudeMeters>
            <DistanceMeters>NAN</DistanceMeters>
          </Trackpoint>
          <Trackpoint>
            <Time>2020-12-05T14:04:45.000Z</Time>
            <Position>
              <LatitudeDegrees>36.8138117529451847076416015625</LatitudeDegrees>
              <LongitudeDegrees>-4.377487488090991973876953125</LongitudeDegrees>
            </Position>
            <AltitudeMeters>828</AltitudeMeters>
            <DistanceMeters>NAN</DistanceMeters>
          </Trackpoint>
          <Trackpoint>
            <Time>2020-12-05T14:04:46.000Z</Time>
            <Position>
              <LatitudeDegrees>36.8138082325458526611328125</LatitudeDegrees>
              <LongitudeDegrees>-4.37747650779783725738525390625</LongitudeDegrees>
            </Position>
            <AltitudeMeters>828.4000244140625</AltitudeMeters>
            <DistanceMeters>NAN</DistanceMeters>
          </Trackpoint>
          <Trackpoint>
            <Time>2020-12-05T14:04:47.000Z</Time>
            <Position>
              <LatitudeDegrees>36.813803203403949737548828125</LatitudeDegrees>
              <LongitudeDegrees>-4.37746611423790454864501953125</LongitudeDegrees>
            </Position>
            <AltitudeMeters>829</AltitudeMeters>
            <DistanceMeters>NAN</DistanceMeters>
          </Trackpoint>
          <Trackpoint>
            <Time>2020-12-05T14:04:48.000Z</Time>
            <Position>
              <LatitudeDegrees>36.81379708461463451385498046875</LatitudeDegrees>
              <LongitudeDegrees>-4.37745505012571811676025390625</LongitudeDegrees>
            </Position>
            <AltitudeMeters>829.4000244140625</AltitudeMeters>
            <DistanceMeters>NAN</DistanceMeters>
          </Trackpoint>
          <Trackpoint>
            <Time>2020-12-05T14:04:49.000Z</Time>
            <Position>
              <LatitudeDegrees>36.813791133463382720947265625</LatitudeDegrees>
              <LongitudeDegrees>-4.37744197435677051544189453125</LongitudeDegrees>
            </Position>
            <AltitudeMeters>829.79998779296875</AltitudeMeters>
            <DistanceMeters>NAN</DistanceMeters>
          </Trackpoint>
          <Trackpoint>
            <Time>2020-12-05T14:04:50.000Z</Time>
            <Position>
              <LatitudeDegrees>36.81378610432147979736328125</LatitudeDegrees>
              <LongitudeDegrees>-4.3774313293397426605224609375</LongitudeDegrees>
            </Position>
            <AltitudeMeters>830</AltitudeMeters>
            <DistanceMeters>NAN</DistanceMeters>
          </Trackpoint>
          <Trackpoint>
            <Time>2020-12-05T14:04:51.000Z</Time>
            <Position>
              <LatitudeDegrees>36.8137805722653865814208984375</LatitudeDegrees>
              <LongitudeDegrees>-4.37742252834141254425048828125</LongitudeDegrees>
            </Position>
            <AltitudeMeters>830.20001220703125</AltitudeMeters>
            <DistanceMeters>NAN</DistanceMeters>
          </Trackpoint>
          <Trackpoint>
            <Time>2020-12-05T14:04:52.000Z</Time>
            <Position>
              <LatitudeDegrees>36.8137728609144687652587890625</LatitudeDegrees>
              <LongitudeDegrees>-4.3774120509624481201171875</LongitudeDegrees>
            </Position>
            <AltitudeMeters>830.4000244140625</AltitudeMeters>
            <DistanceMeters>NAN</DistanceMeters>
          </Trackpoint>
          <Trackpoint>
            <Time>2020-12-05T14:04:53.000Z</Time>
            <Position>
              <LatitudeDegrees>36.81376439519226551055908203125</LatitudeDegrees>
              <LongitudeDegrees>-4.377399981021881103515625</LongitudeDegrees>
            </Position>
            <AltitudeMeters>830.5999755859375</AltitudeMeters>
            <DistanceMeters>NAN</DistanceMeters>
          </Trackpoint>
          <Trackpoint>
            <Time>2020-12-05T14:04:54.000Z</Time>
            <Position>
              <LatitudeDegrees>36.81375785730779170989990234375</LatitudeDegrees>
              <LongitudeDegrees>-4.37738799490034580230712890625</LongitudeDegrees>
            </Position>
            <AltitudeMeters>830.5999755859375</AltitudeMeters>
            <DistanceMeters>NAN</DistanceMeters>
          </Trackpoint>
          <Trackpoint>
            <Time>2020-12-05T14:04:55.000Z</Time>
            <Position>
              <LatitudeDegrees>36.813752911984920501708984375</LatitudeDegrees>
              <LongitudeDegrees>-4.3773729912936687469482421875</LongitudeDegrees>
            </Position>
            <AltitudeMeters>830.5999755859375</AltitudeMeters>
            <DistanceMeters>NAN</DistanceMeters>
          </Trackpoint>
          <Trackpoint>
            <Time>2020-12-05T14:04:56.000Z</Time>
            <Position>
              <LatitudeDegrees>36.8137492239475250244140625</LatitudeDegrees>
              <LongitudeDegrees>-4.37735882587730884552001953125</LongitudeDegrees>
            </Position>
            <AltitudeMeters>830.79998779296875</AltitudeMeters>
            <DistanceMeters>NAN</DistanceMeters>
          </Trackpoint>
          <Trackpoint>
            <Time>2020-12-05T14:04:57.000Z</Time>
            <Position>
              <LatitudeDegrees>36.8137473799288272857666015625</LatitudeDegrees>
              <LongitudeDegrees>-4.37734407372772693634033203125</LongitudeDegrees>
            </Position>
            <AltitudeMeters>830.79998779296875</AltitudeMeters>
            <DistanceMeters>NAN</DistanceMeters>
          </Trackpoint>
          <Trackpoint>
            <Time>2020-12-05T14:04:58.000Z</Time>
            <Position>
              <LatitudeDegrees>36.8137453682720661163330078125</LatitudeDegrees>
              <LongitudeDegrees>-4.3773307465016841888427734375</LongitudeDegrees>
            </Position>
            <AltitudeMeters>831</AltitudeMeters>
            <DistanceMeters>NAN</DistanceMeters>
          </Trackpoint>
          <Trackpoint>
            <Time>2020-12-05T14:04:59.000Z</Time>
            <Position>
              <LatitudeDegrees>36.81374411098659038543701171875</LatitudeDegrees>
              <LongitudeDegrees>-4.37731490470468997955322265625</LongitudeDegrees>
            </Position>
            <AltitudeMeters>830.79998779296875</AltitudeMeters>
            <DistanceMeters>NAN</DistanceMeters>
          </Trackpoint>
          <Trackpoint>
            <Time>2020-12-05T14:05:00.000Z</Time>
            <Position>
              <LatitudeDegrees>36.8137457035481929779052734375</LatitudeDegrees>
              <LongitudeDegrees>-4.3773022480309009552001953125</LongitudeDegrees>
            </Position>
            <AltitudeMeters>830.79998779296875</AltitudeMeters>
            <DistanceMeters>NAN</DistanceMeters>
          </Trackpoint>
          <Trackpoint>
            <Time>2020-12-05T14:05:01.000Z</Time>
            <Position>
              <LatitudeDegrees>36.81374721229076385498046875</LatitudeDegrees>
              <LongitudeDegrees>-4.377295039594173431396484375</LongitudeDegrees>
            </Position>
            <AltitudeMeters>831</AltitudeMeters>
            <DistanceMeters>NAN</DistanceMeters>
          </Trackpoint>
          <Trackpoint>
            <Time>2020-12-05T14:05:02.000Z</Time>
            <Position>
              <LatitudeDegrees>36.813748888671398162841796875</LatitudeDegrees>
              <LongitudeDegrees>-4.37728372402489185333251953125</LongitudeDegrees>
            </Position>
            <AltitudeMeters>831</AltitudeMeters>
            <DistanceMeters>NAN</DistanceMeters>
          </Trackpoint>
          <Trackpoint>
            <Time>2020-12-05T14:05:03.000Z</Time>
            <Position>
              <LatitudeDegrees>36.81374813430011272430419921875</LatitudeDegrees>
              <LongitudeDegrees>-4.3772703967988491058349609375</LongitudeDegrees>
            </Position>
            <AltitudeMeters>831</AltitudeMeters>
            <DistanceMeters>NAN</DistanceMeters>
          </Trackpoint>
          <Trackpoint>
            <Time>2020-12-05T14:05:04.000Z</Time>
            <Position>
              <LatitudeDegrees>36.813744865357875823974609375</LatitudeDegrees>
              <LongitudeDegrees>-4.377254806458950042724609375</LongitudeDegrees>
            </Position>
            <AltitudeMeters>831.20001220703125</AltitudeMeters>
            <DistanceMeters>NAN</DistanceMeters>
          </Trackpoint>
          <Trackpoint>
            <Time>2020-12-05T14:05:05.000Z</Time>
            <Position>
              <LatitudeDegrees>36.81374327279627323150634765625</LatitudeDegrees>
              <LongitudeDegrees>-4.3772378750145435333251953125</LongitudeDegrees>
            </Position>
            <AltitudeMeters>831.5999755859375</AltitudeMeters>
            <DistanceMeters>NAN</DistanceMeters>
          </Trackpoint>
          <Trackpoint>
            <Time>2020-12-05T14:05:06.000Z</Time>
            <Position>
              <LatitudeDegrees>36.81373707018792629241943359375</LatitudeDegrees>
              <LongitudeDegrees>-4.3772201053798198699951171875</LongitudeDegrees>
            </Position>
            <AltitudeMeters>831.79998779296875</AltitudeMeters>
            <DistanceMeters>NAN</DistanceMeters>
          </Trackpoint>
          <Trackpoint>
            <Time>2020-12-05T14:05:07.000Z</Time>
            <Position>
              <LatitudeDegrees>36.8137304484844207763671875</LatitudeDegrees>
              <LongitudeDegrees>-4.37720309011638164520263671875</LongitudeDegrees>
            </Position>
            <AltitudeMeters>832</AltitudeMeters>
            <DistanceMeters>NAN</DistanceMeters>
          </Trackpoint>
          <Trackpoint>
            <Time>2020-12-05T14:05:08.000Z</Time>
            <Position>
              <LatitudeDegrees>36.81372231803834438323974609375</LatitudeDegrees>
              <LongitudeDegrees>-4.3771832250058650970458984375</LongitudeDegrees>
            </Position>
            <AltitudeMeters>832</AltitudeMeters>
            <DistanceMeters>NAN</DistanceMeters>
          </Trackpoint>
          <Trackpoint>
            <Time>2020-12-05T14:05:09.000Z</Time>
            <Position>
              <LatitudeDegrees>36.81371829472482204437255859375</LatitudeDegrees>
              <LongitudeDegrees>-4.37716595828533172607421875</LongitudeDegrees>
            </Position>
            <AltitudeMeters>832.20001220703125</AltitudeMeters>
            <DistanceMeters>NAN</DistanceMeters>
          </Trackpoint>
          <Trackpoint>
            <Time>2020-12-05T14:05:10.000Z</Time>
            <Position>
              <LatitudeDegrees>36.81371611542999744415283203125</LatitudeDegrees>
              <LongitudeDegrees>-4.3771523796021938323974609375</LongitudeDegrees>
            </Position>
            <AltitudeMeters>832.4000244140625</AltitudeMeters>
            <DistanceMeters>NAN</DistanceMeters>
          </Trackpoint>
          <Trackpoint>
            <Time>2020-12-05T14:05:11.000Z</Time>
            <Position>
              <LatitudeDegrees>36.813714690506458282470703125</LatitudeDegrees>
              <LongitudeDegrees>-4.3771406449377536773681640625</LongitudeDegrees>
            </Position>
            <AltitudeMeters>832.4000244140625</AltitudeMeters>
            <DistanceMeters>NAN</DistanceMeters>
          </Trackpoint>
          <Trackpoint>
            <Time>2020-12-05T14:05:12.000Z</Time>
            <Position>
              <LatitudeDegrees>36.813716702163219451904296875</LatitudeDegrees>
              <LongitudeDegrees>-4.377127401530742645263671875</LongitudeDegrees>
            </Position>
            <AltitudeMeters>832.5999755859375</AltitudeMeters>
            <DistanceMeters>NAN</DistanceMeters>
          </Trackpoint>
          <Trackpoint>
            <Time>2020-12-05T14:05:13.000Z</Time>
            <Position>
              <LatitudeDegrees>36.81371712125837802886962890625</LatitudeDegrees>
              <LongitudeDegrees>-4.37711826525628566741943359375</LongitudeDegrees>
            </Position>
            <AltitudeMeters>832.79998779296875</AltitudeMeters>
            <DistanceMeters>NAN</DistanceMeters>
          </Trackpoint>
          <Trackpoint>
            <Time>2020-12-05T14:05:14.000Z</Time>
            <Position>
              <LatitudeDegrees>36.8137192167341709136962890625</LatitudeDegrees>
              <LongitudeDegrees>-4.3771067820489406585693359375</LongitudeDegrees>
            </Position>
            <AltitudeMeters>832.79998779296875</AltitudeMeters>
            <DistanceMeters>NAN</DistanceMeters>
          </Trackpoint>
          <Trackpoint>
            <Time>2020-12-05T14:05:15.000Z</Time>
            <Position>
              <LatitudeDegrees>36.8137202225625514984130859375</LatitudeDegrees>
              <LongitudeDegrees>-4.37709429301321506500244140625</LongitudeDegrees>
            </Position>
            <AltitudeMeters>832.79998779296875</AltitudeMeters>
            <DistanceMeters>NAN</DistanceMeters>
          </Trackpoint>
          <Trackpoint>
            <Time>2020-12-05T14:05:16.000Z</Time>
            <Position>
              <LatitudeDegrees>36.81371930055320262908935546875</LatitudeDegrees>
              <LongitudeDegrees>-4.37708138488233089447021484375</LongitudeDegrees>
            </Position>
            <AltitudeMeters>832.79998779296875</AltitudeMeters>
            <DistanceMeters>NAN</DistanceMeters>
          </Trackpoint>
          <Trackpoint>
            <Time>2020-12-05T14:05:17.000Z</Time>
            <Position>
              <LatitudeDegrees>36.81371896527707576751708984375</LatitudeDegrees>
              <LongitudeDegrees>-4.377067722380161285400390625</LongitudeDegrees>
            </Position>
            <AltitudeMeters>833</AltitudeMeters>
            <DistanceMeters>NAN</DistanceMeters>
          </Trackpoint>
          <Trackpoint>
            <Time>2020-12-05T14:05:18.000Z</Time>
            <Position>
              <LatitudeDegrees>36.8137198872864246368408203125</LatitudeDegrees>
              <LongitudeDegrees>-4.377053640782833099365234375</LongitudeDegrees>
            </Position>
            <AltitudeMeters>833.20001220703125</AltitudeMeters>
            <DistanceMeters>NAN</DistanceMeters>
          </Trackpoint>
          <Trackpoint>
            <Time>2020-12-05T14:05:19.000Z</Time>
            <Position>
              <LatitudeDegrees>36.8137195520102977752685546875</LatitudeDegrees>
              <LongitudeDegrees>-4.3770387209951877593994140625</LongitudeDegrees>
            </Position>
            <AltitudeMeters>833.20001220703125</AltitudeMeters>
            <DistanceMeters>NAN</DistanceMeters>
          </Trackpoint>
          <Trackpoint>
            <Time>2020-12-05T14:05:20.000Z</Time>
            <Position>
              <LatitudeDegrees>36.81372030638158321380615234375</LatitudeDegrees>
              <LongitudeDegrees>-4.37702539376914501190185546875</LongitudeDegrees>
            </Position>
            <AltitudeMeters>833.20001220703125</AltitudeMeters>
            <DistanceMeters>NAN</DistanceMeters>
          </Trackpoint>
          <Trackpoint>
            <Time>2020-12-05T14:05:21.000Z</Time>
            <Position>
              <LatitudeDegrees>36.81372106075286865234375</LatitudeDegrees>
              <LongitudeDegrees>-4.377010725438594818115234375</LongitudeDegrees>
            </Position>
            <AltitudeMeters>833.4000244140625</AltitudeMeters>
            <DistanceMeters>NAN</DistanceMeters>
          </Trackpoint>
          <Trackpoint>
            <Time>2020-12-05T14:05:22.000Z</Time>
            <Position>
              <LatitudeDegrees>36.8137218989431858062744140625</LatitudeDegrees>
              <LongitudeDegrees>-4.37699672766029834747314453125</LongitudeDegrees>
            </Position>
            <AltitudeMeters>833.5999755859375</AltitudeMeters>
            <DistanceMeters>NAN</DistanceMeters>
          </Trackpoint>
          <Trackpoint>
            <Time>2020-12-05T14:05:23.000Z</Time>
            <Position>
              <LatitudeDegrees>36.8137225694954395294189453125</LatitudeDegrees>
              <LongitudeDegrees>-4.3769844062626361846923828125</LongitudeDegrees>
            </Position>
            <AltitudeMeters>833.79998779296875</AltitudeMeters>
            <DistanceMeters>NAN</DistanceMeters>
          </Trackpoint>
          <Trackpoint>
            <Time>2020-12-05T14:05:24.000Z</Time>
            <Position>
              <LatitudeDegrees>36.81372416205704212188720703125</LatitudeDegrees>
              <LongitudeDegrees>-4.3769721686840057373046875</LongitudeDegrees>
            </Position>
            <AltitudeMeters>833.79998779296875</AltitudeMeters>
            <DistanceMeters>NAN</DistanceMeters>
          </Trackpoint>
          <Trackpoint>
            <Time>2020-12-05T14:05:25.000Z</Time>
            <Position>
              <LatitudeDegrees>36.8137272633612155914306640625</LatitudeDegrees>
              <LongitudeDegrees>-4.37695817090570926666259765625</LongitudeDegrees>
            </Position>
            <AltitudeMeters>833.79998779296875</AltitudeMeters>
            <DistanceMeters>NAN</DistanceMeters>
          </Trackpoint>
          <Trackpoint>
            <Time>2020-12-05T14:05:26.000Z</Time>
            <Position>
              <LatitudeDegrees>36.813730113208293914794921875</LatitudeDegrees>
              <LongitudeDegrees>-4.37694341875612735748291015625</LongitudeDegrees>
            </Position>
            <AltitudeMeters>834</AltitudeMeters>
            <DistanceMeters>NAN</DistanceMeters>
          </Trackpoint>
          <Trackpoint>
            <Time>2020-12-05T14:05:27.000Z</Time>
            <Position>
              <LatitudeDegrees>36.81372986175119876861572265625</LatitudeDegrees>
              <LongitudeDegrees>-4.376929588615894317626953125</LongitudeDegrees>
            </Position>
            <AltitudeMeters>834</AltitudeMeters>
            <DistanceMeters>NAN</DistanceMeters>
          </Trackpoint>
          <Trackpoint>
            <Time>2020-12-05T14:05:28.000Z</Time>
            <Position>
              <LatitudeDegrees>36.813728772103786468505859375</LatitudeDegrees>
              <LongitudeDegrees>-4.37691676430404186248779296875</LongitudeDegrees>
            </Position>
            <AltitudeMeters>834</AltitudeMeters>
            <DistanceMeters>NAN</DistanceMeters>
          </Trackpoint>
          <Trackpoint>
            <Time>2020-12-05T14:05:29.000Z</Time>
            <Position>
              <LatitudeDegrees>36.81372650898993015289306640625</LatitudeDegrees>
              <LongitudeDegrees>-4.376901090145111083984375</LongitudeDegrees>
            </Position>
            <AltitudeMeters>834</AltitudeMeters>
            <DistanceMeters>NAN</DistanceMeters>
          </Trackpoint>
          <Trackpoint>
            <Time>2020-12-05T14:05:30.000Z</Time>
            <Position>
              <LatitudeDegrees>36.81372533552348613739013671875</LatitudeDegrees>
              <LongitudeDegrees>-4.376886673271656036376953125</LongitudeDegrees>
            </Position>
            <AltitudeMeters>834</AltitudeMeters>
            <DistanceMeters>NAN</DistanceMeters>
          </Trackpoint>
          <Trackpoint>
            <Time>2020-12-05T14:05:31.000Z</Time>
            <Position>
              <LatitudeDegrees>36.81372399441897869110107421875</LatitudeDegrees>
              <LongitudeDegrees>-4.37687234021723270416259765625</LongitudeDegrees>
            </Position>
            <AltitudeMeters>834.20001220703125</AltitudeMeters>
            <DistanceMeters>NAN</DistanceMeters>
          </Trackpoint>
          <Trackpoint>
            <Time>2020-12-05T14:05:32.000Z</Time>
            <Position>
              <LatitudeDegrees>36.8137229047715663909912109375</LatitudeDegrees>
              <LongitudeDegrees>-4.37685758806765079498291015625</LongitudeDegrees>
            </Position>
            <AltitudeMeters>834.20001220703125</AltitudeMeters>
            <DistanceMeters>NAN</DistanceMeters>
          </Trackpoint>
          <Trackpoint>
            <Time>2020-12-05T14:05:33.000Z</Time>
            <Position>
              <LatitudeDegrees>36.8137224018573760986328125</LatitudeDegrees>
              <LongitudeDegrees>-4.376838393509387969970703125</LongitudeDegrees>
            </Position>
            <AltitudeMeters>834.20001220703125</AltitudeMeters>
            <DistanceMeters>NAN</DistanceMeters>
          </Trackpoint>
          <Trackpoint>
            <Time>2020-12-05T14:05:34.000Z</Time>
            <Position>
              <LatitudeDegrees>36.81371963582932949066162109375</LatitudeDegrees>
              <LongitudeDegrees>-4.3768238089978694915771484375</LongitudeDegrees>
            </Position>
            <AltitudeMeters>834.20001220703125</AltitudeMeters>
            <DistanceMeters>NAN</DistanceMeters>
          </Trackpoint>
          <Trackpoint>
            <Time>2020-12-05T14:05:35.000Z</Time>
            <Position>
              <LatitudeDegrees>36.8137155286967754364013671875</LatitudeDegrees>
              <LongitudeDegrees>-4.37681165523827075958251953125</LongitudeDegrees>
            </Position>
            <AltitudeMeters>834.4000244140625</AltitudeMeters>
            <DistanceMeters>NAN</DistanceMeters>
          </Trackpoint>
          <Trackpoint>
            <Time>2020-12-05T14:05:36.000Z</Time>
            <Position>
              <LatitudeDegrees>36.81371209211647510528564453125</LatitudeDegrees>
              <LongitudeDegrees>-4.3767993338406085968017578125</LongitudeDegrees>
            </Position>
            <AltitudeMeters>834.4000244140625</AltitudeMeters>
            <DistanceMeters>NAN</DistanceMeters>
          </Trackpoint>
          <Trackpoint>
            <Time>2020-12-05T14:05:37.000Z</Time>
            <Position>
              <LatitudeDegrees>36.8137089908123016357421875</LatitudeDegrees>
              <LongitudeDegrees>-4.37678986229002475738525390625</LongitudeDegrees>
            </Position>
            <AltitudeMeters>834.4000244140625</AltitudeMeters>
            <DistanceMeters>NAN</DistanceMeters>
          </Trackpoint>
          <Trackpoint>
            <Time>2020-12-05T14:05:38.000Z</Time>
            <Position>
              <LatitudeDegrees>36.81370689533650875091552734375</LatitudeDegrees>
              <LongitudeDegrees>-4.3767798878252506256103515625</LongitudeDegrees>
            </Position>
            <AltitudeMeters>834.4000244140625</AltitudeMeters>
            <DistanceMeters>NAN</DistanceMeters>
          </Trackpoint>
          <Trackpoint>
            <Time>2020-12-05T14:05:39.000Z</Time>
            <Position>
              <LatitudeDegrees>36.81370303966104984283447265625</LatitudeDegrees>
              <LongitudeDegrees>-4.3767671473324298858642578125</LongitudeDegrees>
            </Position>
            <AltitudeMeters>834.4000244140625</AltitudeMeters>
            <DistanceMeters>NAN</DistanceMeters>
          </Trackpoint>
          <Trackpoint>
            <Time>2020-12-05T14:05:40.000Z</Time>
            <Position>
              <LatitudeDegrees>36.8137011118233203887939453125</LatitudeDegrees>
              <LongitudeDegrees>-4.3767527304589748382568359375</LongitudeDegrees>
            </Position>
            <AltitudeMeters>834.4000244140625</AltitudeMeters>
            <DistanceMeters>NAN</DistanceMeters>
          </Trackpoint>
          <Trackpoint>
            <Time>2020-12-05T14:05:41.000Z</Time>
            <Position>
              <LatitudeDegrees>36.81369884870946407318115234375</LatitudeDegrees>
              <LongitudeDegrees>-4.37673621810972690582275390625</LongitudeDegrees>
            </Position>
            <AltitudeMeters>834.4000244140625</AltitudeMeters>
            <DistanceMeters>NAN</DistanceMeters>
          </Trackpoint>
          <Trackpoint>
            <Time>2020-12-05T14:05:42.000Z</Time>
            <Position>
              <LatitudeDegrees>36.81369759142398834228515625</LatitudeDegrees>
              <LongitudeDegrees>-4.376721717417240142822265625</LongitudeDegrees>
            </Position>
            <AltitudeMeters>834.4000244140625</AltitudeMeters>
            <DistanceMeters>NAN</DistanceMeters>
          </Trackpoint>
          <Trackpoint>
            <Time>2020-12-05T14:05:43.000Z</Time>
            <Position>
              <LatitudeDegrees>36.81369834579527378082275390625</LatitudeDegrees>
              <LongitudeDegrees>-4.37670386396348476409912109375</LongitudeDegrees>
            </Position>
            <AltitudeMeters>834.4000244140625</AltitudeMeters>
            <DistanceMeters>NAN</DistanceMeters>
          </Trackpoint>
          <Trackpoint>
            <Time>2020-12-05T14:05:44.000Z</Time>
            <Position>
              <LatitudeDegrees>36.813697256147861480712890625</LatitudeDegrees>
              <LongitudeDegrees>-4.3766853399574756622314453125</LongitudeDegrees>
            </Position>
            <AltitudeMeters>834.4000244140625</AltitudeMeters>
            <DistanceMeters>NAN</DistanceMeters>
          </Trackpoint>
          <Trackpoint>
            <Time>2020-12-05T14:05:45.000Z</Time>
            <Position>
              <LatitudeDegrees>36.81369625031948089599609375</LatitudeDegrees>
              <LongitudeDegrees>-4.37666346319019794464111328125</LongitudeDegrees>
            </Position>
            <AltitudeMeters>834.4000244140625</AltitudeMeters>
            <DistanceMeters>NAN</DistanceMeters>
          </Trackpoint>
          <Trackpoint>
            <Time>2020-12-05T14:05:46.000Z</Time>
            <Position>
              <LatitudeDegrees>36.8136944063007831573486328125</LatitudeDegrees>
              <LongitudeDegrees>-4.37664301134645938873291015625</LongitudeDegrees>
            </Position>
            <AltitudeMeters>834.4000244140625</AltitudeMeters>
            <DistanceMeters>NAN</DistanceMeters>
          </Trackpoint>
          <Trackpoint>
            <Time>2020-12-05T14:05:47.000Z</Time>
            <Position>
              <LatitudeDegrees>36.81369231082499027252197265625</LatitudeDegrees>
              <LongitudeDegrees>-4.3766226433217525482177734375</LongitudeDegrees>
            </Position>
            <AltitudeMeters>834.4000244140625</AltitudeMeters>
            <DistanceMeters>NAN</DistanceMeters>
          </Trackpoint>
          <Trackpoint>
            <Time>2020-12-05T14:05:48.000Z</Time>
            <Position>
              <LatitudeDegrees>36.8136917240917682647705078125</LatitudeDegrees>
              <LongitudeDegrees>-4.37660059891641139984130859375</LongitudeDegrees>
            </Position>
            <AltitudeMeters>834.4000244140625</AltitudeMeters>
            <DistanceMeters>NAN</DistanceMeters>
          </Trackpoint>
          <Trackpoint>
            <Time>2020-12-05T14:05:49.000Z</Time>
            <Position>
              <LatitudeDegrees>36.81369063444435596466064453125</LatitudeDegrees>
              <LongitudeDegrees>-4.3765837512910366058349609375</LongitudeDegrees>
            </Position>
            <AltitudeMeters>834.5999755859375</AltitudeMeters>
            <DistanceMeters>NAN</DistanceMeters>
          </Trackpoint>
          <Trackpoint>
            <Time>2020-12-05T14:05:50.000Z</Time>
            <Position>
              <LatitudeDegrees>36.81368845514953136444091796875</LatitudeDegrees>
              <LongitudeDegrees>-4.3765720166265964508056640625</LongitudeDegrees>
            </Position>
            <AltitudeMeters>834.79998779296875</AltitudeMeters>
            <DistanceMeters>NAN</DistanceMeters>
          </Trackpoint>
          <Trackpoint>
            <Time>2020-12-05T14:05:51.000Z</Time>
            <Position>
              <LatitudeDegrees>36.81368627585470676422119140625</LatitudeDegrees>
              <LongitudeDegrees>-4.37656422145664691925048828125</LongitudeDegrees>
            </Position>
            <AltitudeMeters>835</AltitudeMeters>
            <DistanceMeters>NAN</DistanceMeters>
          </Trackpoint>
          <Trackpoint>
            <Time>2020-12-05T14:05:52.000Z</Time>
            <Position>
              <LatitudeDegrees>36.81368426419794559478759765625</LatitudeDegrees>
              <LongitudeDegrees>-4.3765552528202533721923828125</LongitudeDegrees>
            </Position>
            <AltitudeMeters>835</AltitudeMeters>
            <DistanceMeters>NAN</DistanceMeters>
          </Trackpoint>
          <Trackpoint>
            <Time>2020-12-05T14:05:53.000Z</Time>
            <Position>
              <LatitudeDegrees>36.8136826716363430023193359375</LatitudeDegrees>
              <LongitudeDegrees>-4.3765455298125743865966796875</LongitudeDegrees>
            </Position>
            <AltitudeMeters>835.20001220703125</AltitudeMeters>
            <DistanceMeters>NAN</DistanceMeters>
          </Trackpoint>
          <Trackpoint>
            <Time>2020-12-05T14:05:54.000Z</Time>
            <Position>
              <LatitudeDegrees>36.81368342600762844085693359375</LatitudeDegrees>
              <LongitudeDegrees>-4.37653320841491222381591796875</LongitudeDegrees>
            </Position>
            <AltitudeMeters>835.20001220703125</AltitudeMeters>
            <DistanceMeters>NAN</DistanceMeters>
          </Trackpoint>
          <Trackpoint>
            <Time>2020-12-05T14:05:55.000Z</Time>
            <Position>
              <LatitudeDegrees>36.8136833421885967254638671875</LatitudeDegrees>
              <LongitudeDegrees>-4.3765173666179180145263671875</LongitudeDegrees>
            </Position>
            <AltitudeMeters>835</AltitudeMeters>
            <DistanceMeters>NAN</DistanceMeters>
          </Trackpoint>
          <Trackpoint>
            <Time>2020-12-05T14:05:56.000Z</Time>
            <Position>
              <LatitudeDegrees>36.81368376128375530242919921875</LatitudeDegrees>
              <LongitudeDegrees>-4.376498758792877197265625</LongitudeDegrees>
            </Position>
            <AltitudeMeters>834.79998779296875</AltitudeMeters>
            <DistanceMeters>NAN</DistanceMeters>
          </Trackpoint>
          <Trackpoint>
            <Time>2020-12-05T14:05:57.000Z</Time>
            <Position>
              <LatitudeDegrees>36.81368594057857990264892578125</LatitudeDegrees>
              <LongitudeDegrees>-4.376480989158153533935546875</LongitudeDegrees>
            </Position>
            <AltitudeMeters>834.79998779296875</AltitudeMeters>
            <DistanceMeters>NAN</DistanceMeters>
          </Trackpoint>
          <Trackpoint>
            <Time>2020-12-05T14:05:58.000Z</Time>
            <Position>
              <LatitudeDegrees>36.8136870302259922027587890625</LatitudeDegrees>
              <LongitudeDegrees>-4.37646229751408100128173828125</LongitudeDegrees>
            </Position>
            <AltitudeMeters>835</AltitudeMeters>
            <DistanceMeters>NAN</DistanceMeters>
          </Trackpoint>
          <Trackpoint>
            <Time>2020-12-05T14:05:59.000Z</Time>
            <Position>
              <LatitudeDegrees>36.8136870302259922027587890625</LatitudeDegrees>
              <LongitudeDegrees>-4.3764452822506427764892578125</LongitudeDegrees>
            </Position>
            <AltitudeMeters>835</AltitudeMeters>
            <DistanceMeters>NAN</DistanceMeters>
          </Trackpoint>
          <Trackpoint>
            <Time>2020-12-05T14:06:00.000Z</Time>
            <Position>
              <LatitudeDegrees>36.813686192035675048828125</LatitudeDegrees>
              <LongitudeDegrees>-4.37642944045364856719970703125</LongitudeDegrees>
            </Position>
            <AltitudeMeters>835</AltitudeMeters>
            <DistanceMeters>NAN</DistanceMeters>
          </Trackpoint>
          <Trackpoint>
            <Time>2020-12-05T14:06:01.000Z</Time>
            <Position>
              <LatitudeDegrees>36.81368644349277019500732421875</LatitudeDegrees>
              <LongitudeDegrees>-4.37640965916216373443603515625</LongitudeDegrees>
            </Position>
            <AltitudeMeters>835.20001220703125</AltitudeMeters>
            <DistanceMeters>NAN</DistanceMeters>
          </Trackpoint>
          <Trackpoint>
            <Time>2020-12-05T14:06:02.000Z</Time>
            <Position>
              <LatitudeDegrees>36.81368694640696048736572265625</LatitudeDegrees>
              <LongitudeDegrees>-4.376396499574184417724609375</LongitudeDegrees>
            </Position>
            <AltitudeMeters>835.20001220703125</AltitudeMeters>
            <DistanceMeters>NAN</DistanceMeters>
          </Trackpoint>
          <Trackpoint>
            <Time>2020-12-05T14:06:03.000Z</Time>
            <Position>
              <LatitudeDegrees>36.81368418037891387939453125</LatitudeDegrees>
              <LongitudeDegrees>-4.376386106014251708984375</LongitudeDegrees>
            </Position>
            <AltitudeMeters>835.20001220703125</AltitudeMeters>
            <DistanceMeters>NAN</DistanceMeters>
          </Trackpoint>
          <Trackpoint>
            <Time>2020-12-05T14:06:04.000Z</Time>
            <Position>
              <LatitudeDegrees>36.81368124671280384063720703125</LatitudeDegrees>
              <LongitudeDegrees>-4.376375041902065277099609375</LongitudeDegrees>
            </Position>
            <AltitudeMeters>835.4000244140625</AltitudeMeters>
            <DistanceMeters>NAN</DistanceMeters>
          </Trackpoint>
          <Trackpoint>
            <Time>2020-12-05T14:06:05.000Z</Time>
            <Position>
              <LatitudeDegrees>36.81367881596088409423828125</LatitudeDegrees>
              <LongitudeDegrees>-4.37636238522827625274658203125</LongitudeDegrees>
            </Position>
            <AltitudeMeters>835.20001220703125</AltitudeMeters>
            <DistanceMeters>NAN</DistanceMeters>
          </Trackpoint>
          <Trackpoint>
            <Time>2020-12-05T14:06:06.000Z</Time>
            <Position>
              <LatitudeDegrees>36.81367814540863037109375</LatitudeDegrees>
              <LongitudeDegrees>-4.3763497285544872283935546875</LongitudeDegrees>
            </Position>
            <AltitudeMeters>835.20001220703125</AltitudeMeters>
            <DistanceMeters>NAN</DistanceMeters>
          </Trackpoint>
          <Trackpoint>
            <Time>2020-12-05T14:06:07.000Z</Time>
            <Position>
              <LatitudeDegrees>36.813675463199615478515625</LatitudeDegrees>
              <LongitudeDegrees>-4.37633740715682506561279296875</LongitudeDegrees>
            </Position>
            <AltitudeMeters>835.20001220703125</AltitudeMeters>
            <DistanceMeters>NAN</DistanceMeters>
          </Trackpoint>
          <Trackpoint>
            <Time>2020-12-05T14:06:08.000Z</Time>
            <Position>
              <LatitudeDegrees>36.81366967968642711639404296875</LatitudeDegrees>
              <LongitudeDegrees>-4.37632751651108264923095703125</LongitudeDegrees>
            </Position>
            <AltitudeMeters>835.4000244140625</AltitudeMeters>
            <DistanceMeters>NAN</DistanceMeters>
          </Trackpoint>
          <Trackpoint>
            <Time>2020-12-05T14:06:09.000Z</Time>
            <Position>
              <LatitudeDegrees>36.81366230361163616180419921875</LatitudeDegrees>
              <LongitudeDegrees>-4.37631846405565738677978515625</LongitudeDegrees>
            </Position>
            <AltitudeMeters>835.4000244140625</AltitudeMeters>
            <DistanceMeters>NAN</DistanceMeters>
          </Trackpoint>
          <Trackpoint>
            <Time>2020-12-05T14:06:10.000Z</Time>
            <Position>
              <LatitudeDegrees>36.8136538378894329071044921875</LatitudeDegrees>
              <LongitudeDegrees>-4.37630874104797840118408203125</LongitudeDegrees>
            </Position>
            <AltitudeMeters>835.4000244140625</AltitudeMeters>
            <DistanceMeters>NAN</DistanceMeters>
          </Trackpoint>
          <Trackpoint>
            <Time>2020-12-05T14:06:11.000Z</Time>
            <Position>
              <LatitudeDegrees>36.81364604271948337554931640625</LatitudeDegrees>
              <LongitudeDegrees>-4.3763001076877117156982421875</LongitudeDegrees>
            </Position>
            <AltitudeMeters>835.4000244140625</AltitudeMeters>
            <DistanceMeters>NAN</DistanceMeters>
          </Trackpoint>
          <Trackpoint>
            <Time>2020-12-05T14:06:12.000Z</Time>
            <Position>
              <LatitudeDegrees>36.81363615207374095916748046875</LatitudeDegrees>
              <LongitudeDegrees>-4.37629767693579196929931640625</LongitudeDegrees>
            </Position>
            <AltitudeMeters>835.20001220703125</AltitudeMeters>
            <DistanceMeters>NAN</DistanceMeters>
          </Trackpoint>
          <Trackpoint>
            <Time>2020-12-05T14:06:13.000Z</Time>
            <Position>
              <LatitudeDegrees>36.8136256746947765350341796875</LatitudeDegrees>
              <LongitudeDegrees>-4.3762944079935550689697265625</LongitudeDegrees>
            </Position>
            <AltitudeMeters>835.4000244140625</AltitudeMeters>
            <DistanceMeters>NAN</DistanceMeters>
          </Trackpoint>
          <Trackpoint>
            <Time>2020-12-05T14:06:14.000Z</Time>
            <Position>
              <LatitudeDegrees>36.81361620314419269561767578125</LatitudeDegrees>
              <LongitudeDegrees>-4.37628946267068386077880859375</LongitudeDegrees>
            </Position>
            <AltitudeMeters>835.4000244140625</AltitudeMeters>
            <DistanceMeters>NAN</DistanceMeters>
          </Trackpoint>
          <Trackpoint>
            <Time>2020-12-05T14:06:15.000Z</Time>
            <Position>
              <LatitudeDegrees>36.8136043846607208251953125</LatitudeDegrees>
              <LongitudeDegrees>-4.3762855231761932373046875</LongitudeDegrees>
            </Position>
            <AltitudeMeters>835.4000244140625</AltitudeMeters>
            <DistanceMeters>NAN</DistanceMeters>
          </Trackpoint>
          <Trackpoint>
            <Time>2020-12-05T14:06:16.000Z</Time>
            <Position>
              <LatitudeDegrees>36.8135928176343441009521484375</LatitudeDegrees>
              <LongitudeDegrees>-4.37628409825265407562255859375</LongitudeDegrees>
            </Position>
            <AltitudeMeters>835.4000244140625</AltitudeMeters>
            <DistanceMeters>NAN</DistanceMeters>
          </Trackpoint>
          <Trackpoint>
            <Time>2020-12-05T14:06:17.000Z</Time>
            <Position>
              <LatitudeDegrees>36.8135824240744113922119140625</LatitudeDegrees>
              <LongitudeDegrees>-4.3762803263962268829345703125</LongitudeDegrees>
            </Position>
            <AltitudeMeters>835.4000244140625</AltitudeMeters>
            <DistanceMeters>NAN</DistanceMeters>
          </Trackpoint>
          <Trackpoint>
            <Time>2020-12-05T14:06:18.000Z</Time>
            <Position>
              <LatitudeDegrees>36.8135716952383518218994140625</LatitudeDegrees>
              <LongitudeDegrees>-4.376278482377529144287109375</LongitudeDegrees>
            </Position>
            <AltitudeMeters>835.5999755859375</AltitudeMeters>
            <DistanceMeters>NAN</DistanceMeters>
          </Trackpoint>
          <Trackpoint>
            <Time>2020-12-05T14:06:19.000Z</Time>
            <Position>
              <LatitudeDegrees>36.8135599605739116668701171875</LatitudeDegrees>
              <LongitudeDegrees>-4.37628057785332202911376953125</LongitudeDegrees>
            </Position>
            <AltitudeMeters>836</AltitudeMeters>
            <DistanceMeters>NAN</DistanceMeters>
          </Trackpoint>
          <Trackpoint>
            <Time>2020-12-05T14:06:20.000Z</Time>
            <Position>
              <LatitudeDegrees>36.81354948319494724273681640625</LatitudeDegrees>
              <LongitudeDegrees>-4.3762866966426372528076171875</LongitudeDegrees>
            </Position>
            <AltitudeMeters>836.20001220703125</AltitudeMeters>
            <DistanceMeters>NAN</DistanceMeters>
          </Trackpoint>
          <Trackpoint>
            <Time>2020-12-05T14:06:21.000Z</Time>
            <Position>
              <LatitudeDegrees>36.81353934109210968017578125</LatitudeDegrees>
              <LongitudeDegrees>-4.37629315070807933807373046875</LongitudeDegrees>
            </Position>
            <AltitudeMeters>836.20001220703125</AltitudeMeters>
            <DistanceMeters>NAN</DistanceMeters>
          </Trackpoint>
          <Trackpoint>
            <Time>2020-12-05T14:06:22.000Z</Time>
            <Position>
              <LatitudeDegrees>36.81352886371314525604248046875</LatitudeDegrees>
              <LongitudeDegrees>-4.37629901804029941558837890625</LongitudeDegrees>
            </Position>
            <AltitudeMeters>836.5999755859375</AltitudeMeters>
            <DistanceMeters>NAN</DistanceMeters>
          </Trackpoint>
          <Trackpoint>
            <Time>2020-12-05T14:06:23.000Z</Time>
            <Position>
              <LatitudeDegrees>36.8135197274386882781982421875</LatitudeDegrees>
              <LongitudeDegrees>-4.37630404718220233917236328125</LongitudeDegrees>
            </Position>
            <AltitudeMeters>837</AltitudeMeters>
            <DistanceMeters>NAN</DistanceMeters>
          </Trackpoint>
          <Trackpoint>
            <Time>2020-12-05T14:06:24.000Z</Time>
            <Position>
              <LatitudeDegrees>36.813511513173580169677734375</LatitudeDegrees>
              <LongitudeDegrees>-4.376313686370849609375</LongitudeDegrees>
            </Position>
            <AltitudeMeters>837.4000244140625</AltitudeMeters>
            <DistanceMeters>NAN</DistanceMeters>
          </Trackpoint>
          <Trackpoint>
            <Time>2020-12-05T14:06:25.000Z</Time>
            <Position>
              <LatitudeDegrees>36.81350220926105976104736328125</LatitudeDegrees>
              <LongitudeDegrees>-4.3763249181210994720458984375</LongitudeDegrees>
            </Position>
            <AltitudeMeters>837.5999755859375</AltitudeMeters>
            <DistanceMeters>NAN</DistanceMeters>
          </Trackpoint>
          <Trackpoint>
            <Time>2020-12-05T14:06:26.000Z</Time>
            <Position>
              <LatitudeDegrees>36.8134925700724124908447265625</LatitudeDegrees>
              <LongitudeDegrees>-4.37633455730974674224853515625</LongitudeDegrees>
            </Position>
            <AltitudeMeters>837.5999755859375</AltitudeMeters>
            <DistanceMeters>NAN</DistanceMeters>
          </Trackpoint>
          <Trackpoint>
            <Time>2020-12-05T14:06:27.000Z</Time>
            <Position>
              <LatitudeDegrees>36.8134825117886066436767578125</LatitudeDegrees>
              <LongitudeDegrees>-4.37634478323161602020263671875</LongitudeDegrees>
            </Position>
            <AltitudeMeters>837.5999755859375</AltitudeMeters>
            <DistanceMeters>NAN</DistanceMeters>
          </Trackpoint>
          <Trackpoint>
            <Time>2020-12-05T14:06:28.000Z</Time>
            <Position>
              <LatitudeDegrees>36.81347505189478397369384765625</LatitudeDegrees>
              <LongitudeDegrees>-4.3763550929725170135498046875</LongitudeDegrees>
            </Position>
            <AltitudeMeters>837.5999755859375</AltitudeMeters>
            <DistanceMeters>NAN</DistanceMeters>
          </Trackpoint>
          <Trackpoint>
            <Time>2020-12-05T14:06:29.000Z</Time>
            <Position>
              <LatitudeDegrees>36.81346767581999301910400390625</LatitudeDegrees>
              <LongitudeDegrees>-4.37636573798954486846923828125</LongitudeDegrees>
            </Position>
            <AltitudeMeters>837.4000244140625</AltitudeMeters>
            <DistanceMeters>NAN</DistanceMeters>
          </Trackpoint>
          <Trackpoint>
            <Time>2020-12-05T14:06:30.000Z</Time>
            <Position>
              <LatitudeDegrees>36.81346013210713863372802734375</LatitudeDegrees>
              <LongitudeDegrees>-4.37637529335916042327880859375</LongitudeDegrees>
            </Position>
            <AltitudeMeters>837</AltitudeMeters>
            <DistanceMeters>NAN</DistanceMeters>
          </Trackpoint>
          <Trackpoint>
            <Time>2020-12-05T14:06:31.000Z</Time>
            <Position>
              <LatitudeDegrees>36.8134540133178234100341796875</LatitudeDegrees>
              <LongitudeDegrees>-4.37638300471007823944091796875</LongitudeDegrees>
            </Position>
            <AltitudeMeters>837</AltitudeMeters>
            <DistanceMeters>NAN</DistanceMeters>
          </Trackpoint>
          <Trackpoint>
            <Time>2020-12-05T14:06:32.000Z</Time>
            <Position>
              <LatitudeDegrees>36.81344839744269847869873046875</LatitudeDegrees>
              <LongitudeDegrees>-4.37639172188937664031982421875</LongitudeDegrees>
            </Position>
            <AltitudeMeters>836.79998779296875</AltitudeMeters>
            <DistanceMeters>NAN</DistanceMeters>
          </Trackpoint>
          <Trackpoint>
            <Time>2020-12-05T14:06:33.000Z</Time>
            <Position>
              <LatitudeDegrees>36.8134426139295101165771484375</LatitudeDegrees>
              <LongitudeDegrees>-4.37640043906867504119873046875</LongitudeDegrees>
            </Position>
            <AltitudeMeters>836.5999755859375</AltitudeMeters>
            <DistanceMeters>NAN</DistanceMeters>
          </Trackpoint>
          <Trackpoint>
            <Time>2020-12-05T14:06:34.000Z</Time>
            <Position>
              <LatitudeDegrees>36.81343632750213146209716796875</LatitudeDegrees>
              <LongitudeDegrees>-4.37641301192343235015869140625</LongitudeDegrees>
            </Position>
            <AltitudeMeters>836.5999755859375</AltitudeMeters>
            <DistanceMeters>NAN</DistanceMeters>
          </Trackpoint>
          <Trackpoint>
            <Time>2020-12-05T14:06:35.000Z</Time>
            <Position>
              <LatitudeDegrees>36.81343129836022853851318359375</LatitudeDegrees>
              <LongitudeDegrees>-4.37642457894980907440185546875</LongitudeDegrees>
            </Position>
            <AltitudeMeters>836.4000244140625</AltitudeMeters>
            <DistanceMeters>NAN</DistanceMeters>
          </Trackpoint>
          <Trackpoint>
            <Time>2020-12-05T14:06:36.000Z</Time>
            <Position>
              <LatitudeDegrees>36.81343029253184795379638671875</LatitudeDegrees>
              <LongitudeDegrees>-4.376433379948139190673828125</LongitudeDegrees>
            </Position>
            <AltitudeMeters>836.5999755859375</AltitudeMeters>
            <DistanceMeters>NAN</DistanceMeters>
          </Trackpoint>
          <Trackpoint>
            <Time>2020-12-05T14:06:37.000Z</Time>
            <Position>
              <LatitudeDegrees>36.81343029253184795379638671875</LatitudeDegrees>
              <LongitudeDegrees>-4.3764432705938816070556640625</LongitudeDegrees>
            </Position>
            <AltitudeMeters>836.5999755859375</AltitudeMeters>
            <DistanceMeters>NAN</DistanceMeters>
          </Trackpoint>
          <Trackpoint>
            <Time>2020-12-05T14:06:38.000Z</Time>
            <Position>
              <LatitudeDegrees>36.81342660449445247650146484375</LatitudeDegrees>
              <LongitudeDegrees>-4.37645575962960720062255859375</LongitudeDegrees>
            </Position>
            <AltitudeMeters>836.5999755859375</AltitudeMeters>
            <DistanceMeters>NAN</DistanceMeters>
          </Trackpoint>
          <Trackpoint>
            <Time>2020-12-05T14:06:39.000Z</Time>
            <Position>
              <LatitudeDegrees>36.81342006660997867584228515625</LatitudeDegrees>
              <LongitudeDegrees>-4.37646715901792049407958984375</LongitudeDegrees>
            </Position>
            <AltitudeMeters>836.79998779296875</AltitudeMeters>
            <DistanceMeters>NAN</DistanceMeters>
          </Trackpoint>
          <Trackpoint>
            <Time>2020-12-05T14:06:40.000Z</Time>
            <Position>
              <LatitudeDegrees>36.8134152889251708984375</LatitudeDegrees>
              <LongitudeDegrees>-4.376480989158153533935546875</LongitudeDegrees>
            </Position>
            <AltitudeMeters>837</AltitudeMeters>
            <DistanceMeters>NAN</DistanceMeters>
          </Trackpoint>
          <Trackpoint>
            <Time>2020-12-05T14:06:41.000Z</Time>
            <Position>
              <LatitudeDegrees>36.81341017596423625946044921875</LatitudeDegrees>
              <LongitudeDegrees>-4.37649766914546489715576171875</LongitudeDegrees>
            </Position>
            <AltitudeMeters>837.20001220703125</AltitudeMeters>
            <DistanceMeters>NAN</DistanceMeters>
          </Trackpoint>
          <Trackpoint>
            <Time>2020-12-05T14:06:42.000Z</Time>
            <Position>
              <LatitudeDegrees>36.81340531446039676666259765625</LatitudeDegrees>
              <LongitudeDegrees>-4.37651476822793483734130859375</LongitudeDegrees>
            </Position>
            <AltitudeMeters>837.4000244140625</AltitudeMeters>
            <DistanceMeters>NAN</DistanceMeters>
          </Trackpoint>
          <Trackpoint>
            <Time>2020-12-05T14:06:43.000Z</Time>
            <Position>
              <LatitudeDegrees>36.81340229697525501251220703125</LatitudeDegrees>
              <LongitudeDegrees>-4.37653304077684879302978515625</LongitudeDegrees>
            </Position>
            <AltitudeMeters>837.5999755859375</AltitudeMeters>
            <DistanceMeters>NAN</DistanceMeters>
          </Trackpoint>
          <Trackpoint>
            <Time>2020-12-05T14:06:44.000Z</Time>
            <Position>
              <LatitudeDegrees>36.81339978240430355072021484375</LatitudeDegrees>
              <LongitudeDegrees>-4.3765529058873653411865234375</LongitudeDegrees>
            </Position>
            <AltitudeMeters>837.79998779296875</AltitudeMeters>
            <DistanceMeters>NAN</DistanceMeters>
          </Trackpoint>
          <Trackpoint>
            <Time>2020-12-05T14:06:45.000Z</Time>
            <Position>
              <LatitudeDegrees>36.8133990280330181121826171875</LatitudeDegrees>
              <LongitudeDegrees>-4.376570843160152435302734375</LongitudeDegrees>
            </Position>
            <AltitudeMeters>838</AltitudeMeters>
            <DistanceMeters>NAN</DistanceMeters>
          </Trackpoint>
          <Trackpoint>
            <Time>2020-12-05T14:06:46.000Z</Time>
            <Position>
              <LatitudeDegrees>36.813396178185939788818359375</LatitudeDegrees>
              <LongitudeDegrees>-4.37658400274813175201416015625</LongitudeDegrees>
            </Position>
            <AltitudeMeters>838.20001220703125</AltitudeMeters>
            <DistanceMeters>NAN</DistanceMeters>
          </Trackpoint>
          <Trackpoint>
            <Time>2020-12-05T14:06:47.000Z</Time>
            <Position>
              <LatitudeDegrees>36.8133938312530517578125</LatitudeDegrees>
              <LongitudeDegrees>-4.37659841962158679962158203125</LongitudeDegrees>
            </Position>
            <AltitudeMeters>838.4000244140625</AltitudeMeters>
            <DistanceMeters>NAN</DistanceMeters>
          </Trackpoint>
          <Trackpoint>
            <Time>2020-12-05T14:06:48.000Z</Time>
            <Position>
              <LatitudeDegrees>36.8133916519582271575927734375</LatitudeDegrees>
              <LongitudeDegrees>-4.3766119144856929779052734375</LongitudeDegrees>
            </Position>
            <AltitudeMeters>838.5999755859375</AltitudeMeters>
            <DistanceMeters>NAN</DistanceMeters>
          </Trackpoint>
          <Trackpoint>
            <Time>2020-12-05T14:06:49.000Z</Time>
            <Position>
              <LatitudeDegrees>36.81339123286306858062744140625</LatitudeDegrees>
              <LongitudeDegrees>-4.37662549316883087158203125</LongitudeDegrees>
            </Position>
            <AltitudeMeters>838.79998779296875</AltitudeMeters>
            <DistanceMeters>NAN</DistanceMeters>
          </Trackpoint>
          <Trackpoint>
            <Time>2020-12-05T14:06:50.000Z</Time>
            <Position>
              <LatitudeDegrees>36.81339022703468799591064453125</LatitudeDegrees>
              <LongitudeDegrees>-4.3766400776803493499755859375</LongitudeDegrees>
            </Position>
            <AltitudeMeters>839.20001220703125</AltitudeMeters>
            <DistanceMeters>NAN</DistanceMeters>
          </Trackpoint>
          <Trackpoint>
            <Time>2020-12-05T14:06:51.000Z</Time>
            <Position>
              <LatitudeDegrees>36.81338972412049770355224609375</LatitudeDegrees>
              <LongitudeDegrees>-4.3766551651060581207275390625</LongitudeDegrees>
            </Position>
            <AltitudeMeters>839.4000244140625</AltitudeMeters>
            <DistanceMeters>NAN</DistanceMeters>
          </Trackpoint>
          <Trackpoint>
            <Time>2020-12-05T14:06:52.000Z</Time>
            <Position>
              <LatitudeDegrees>36.81338972412049770355224609375</LatitudeDegrees>
              <LongitudeDegrees>-4.37666715122759342193603515625</LongitudeDegrees>
            </Position>
            <AltitudeMeters>839.5999755859375</AltitudeMeters>
            <DistanceMeters>NAN</DistanceMeters>
          </Trackpoint>
          <Trackpoint>
            <Time>2020-12-05T14:06:53.000Z</Time>
            <Position>
              <LatitudeDegrees>36.8133903108537197113037109375</LatitudeDegrees>
              <LongitudeDegrees>-4.37668056227266788482666015625</LongitudeDegrees>
            </Position>
            <AltitudeMeters>839.5999755859375</AltitudeMeters>
            <DistanceMeters>NAN</DistanceMeters>
          </Trackpoint>
          <Trackpoint>
            <Time>2020-12-05T14:06:54.000Z</Time>
            <Position>
              <LatitudeDegrees>36.81339005939662456512451171875</LatitudeDegrees>
              <LongitudeDegrees>-4.37669456005096435546875</LongitudeDegrees>
            </Position>
            <AltitudeMeters>839.5999755859375</AltitudeMeters>
            <DistanceMeters>NAN</DistanceMeters>
          </Trackpoint>
          <Trackpoint>
            <Time>2020-12-05T14:06:55.000Z</Time>
            <Position>
              <LatitudeDegrees>36.81339190341532230377197265625</LatitudeDegrees>
              <LongitudeDegrees>-4.376704953610897064208984375</LongitudeDegrees>
            </Position>
            <AltitudeMeters>839.5999755859375</AltitudeMeters>
            <DistanceMeters>NAN</DistanceMeters>
          </Trackpoint>
          <Trackpoint>
            <Time>2020-12-05T14:06:56.000Z</Time>
            <Position>
              <LatitudeDegrees>36.8133950047194957733154296875</LatitudeDegrees>
              <LongitudeDegrees>-4.37671266496181488037109375</LongitudeDegrees>
            </Position>
            <AltitudeMeters>839.79998779296875</AltitudeMeters>
            <DistanceMeters>NAN</DistanceMeters>
          </Trackpoint>
          <Trackpoint>
            <Time>2020-12-05T14:06:57.000Z</Time>
            <Position>
              <LatitudeDegrees>36.81339609436690807342529296875</LatitudeDegrees>
              <LongitudeDegrees>-4.3767198733985424041748046875</LongitudeDegrees>
            </Position>
            <AltitudeMeters>839.79998779296875</AltitudeMeters>
            <DistanceMeters>NAN</DistanceMeters>
          </Trackpoint>
          <Trackpoint>
            <Time>2020-12-05T14:06:58.000Z</Time>
            <Position>
              <LatitudeDegrees>36.81339425034821033477783203125</LatitudeDegrees>
              <LongitudeDegrees>-4.3767306022346019744873046875</LongitudeDegrees>
            </Position>
            <AltitudeMeters>839.79998779296875</AltitudeMeters>
            <DistanceMeters>NAN</DistanceMeters>
          </Trackpoint>
          <Trackpoint>
            <Time>2020-12-05T14:06:59.000Z</Time>
            <Position>
              <LatitudeDegrees>36.813390143215656280517578125</LatitudeDegrees>
              <LongitudeDegrees>-4.376745186746120452880859375</LongitudeDegrees>
            </Position>
            <AltitudeMeters>840</AltitudeMeters>
            <DistanceMeters>NAN</DistanceMeters>
          </Trackpoint>
          <Trackpoint>
            <Time>2020-12-05T14:07:00.000Z</Time>
            <Position>
              <LatitudeDegrees>36.81338687427341938018798828125</LatitudeDegrees>
              <LongitudeDegrees>-4.37676404602825641632080078125</LongitudeDegrees>
            </Position>
            <AltitudeMeters>840</AltitudeMeters>
            <DistanceMeters>NAN</DistanceMeters>
          </Trackpoint>
          <Trackpoint>
            <Time>2020-12-05T14:07:01.000Z</Time>
            <Position>
              <LatitudeDegrees>36.81338603608310222625732421875</LatitudeDegrees>
              <LongitudeDegrees>-4.37678080983459949493408203125</LongitudeDegrees>
            </Position>
            <AltitudeMeters>840</AltitudeMeters>
            <DistanceMeters>NAN</DistanceMeters>
          </Trackpoint>
          <Trackpoint>
            <Time>2020-12-05T14:07:02.000Z</Time>
            <Position>
              <LatitudeDegrees>36.8133872933685779571533203125</LatitudeDegrees>
              <LongitudeDegrees>-4.3767929635941982269287109375</LongitudeDegrees>
            </Position>
            <AltitudeMeters>840.20001220703125</AltitudeMeters>
            <DistanceMeters>NAN</DistanceMeters>
          </Trackpoint>
          <Trackpoint>
            <Time>2020-12-05T14:07:03.000Z</Time>
            <Position>
              <LatitudeDegrees>36.81338687427341938018798828125</LatitudeDegrees>
              <LongitudeDegrees>-4.3768031895160675048828125</LongitudeDegrees>
            </Position>
            <AltitudeMeters>840.4000244140625</AltitudeMeters>
            <DistanceMeters>NAN</DistanceMeters>
          </Trackpoint>
          <Trackpoint>
            <Time>2020-12-05T14:07:04.000Z</Time>
            <Position>
              <LatitudeDegrees>36.81338553316891193389892578125</LatitudeDegrees>
              <LongitudeDegrees>-4.37681257724761962890625</LongitudeDegrees>
            </Position>
            <AltitudeMeters>840.4000244140625</AltitudeMeters>
            <DistanceMeters>NAN</DistanceMeters>
          </Trackpoint>
          <Trackpoint>
            <Time>2020-12-05T14:07:05.000Z</Time>
            <Position>
              <LatitudeDegrees>36.81338218040764331817626953125</LatitudeDegrees>
              <LongitudeDegrees>-4.3768219649791717529296875</LongitudeDegrees>
            </Position>
            <AltitudeMeters>840.4000244140625</AltitudeMeters>
            <DistanceMeters>NAN</DistanceMeters>
          </Trackpoint>
          <Trackpoint>
            <Time>2020-12-05T14:07:06.000Z</Time>
            <Position>
              <LatitudeDegrees>36.81337899528443813323974609375</LatitudeDegrees>
              <LongitudeDegrees>-4.37683177180588245391845703125</LongitudeDegrees>
            </Position>
            <AltitudeMeters>840.5999755859375</AltitudeMeters>
            <DistanceMeters>NAN</DistanceMeters>
          </Trackpoint>
          <Trackpoint>
            <Time>2020-12-05T14:07:07.000Z</Time>
            <Position>
              <LatitudeDegrees>36.813378743827342987060546875</LatitudeDegrees>
              <LongitudeDegrees>-4.37684183008968830108642578125</LongitudeDegrees>
            </Position>
            <AltitudeMeters>840.5999755859375</AltitudeMeters>
            <DistanceMeters>NAN</DistanceMeters>
          </Trackpoint>
          <Trackpoint>
            <Time>2020-12-05T14:07:08.000Z</Time>
            <Position>
              <LatitudeDegrees>36.8133790791034698486328125</LatitudeDegrees>
              <LongitudeDegrees>-4.376853145658969879150390625</LongitudeDegrees>
            </Position>
            <AltitudeMeters>840.5999755859375</AltitudeMeters>
            <DistanceMeters>NAN</DistanceMeters>
          </Trackpoint>
          <Trackpoint>
            <Time>2020-12-05T14:07:09.000Z</Time>
            <Position>
              <LatitudeDegrees>36.81338109076023101806640625</LatitudeDegrees>
              <LongitudeDegrees>-4.3768707476556301116943359375</LongitudeDegrees>
            </Position>
            <AltitudeMeters>840.4000244140625</AltitudeMeters>
            <DistanceMeters>NAN</DistanceMeters>
          </Trackpoint>
          <Trackpoint>
            <Time>2020-12-05T14:07:10.000Z</Time>
            <Position>
              <LatitudeDegrees>36.81338167749345302581787109375</LatitudeDegrees>
              <LongitudeDegrees>-4.3768836557865142822265625</LongitudeDegrees>
            </Position>
            <AltitudeMeters>840.20001220703125</AltitudeMeters>
            <DistanceMeters>NAN</DistanceMeters>
          </Trackpoint>
          <Trackpoint>
            <Time>2020-12-05T14:07:11.000Z</Time>
            <Position>
              <LatitudeDegrees>36.81337815709412097930908203125</LatitudeDegrees>
              <LongitudeDegrees>-4.37689748592674732208251953125</LongitudeDegrees>
            </Position>
            <AltitudeMeters>840.20001220703125</AltitudeMeters>
            <DistanceMeters>NAN</DistanceMeters>
          </Trackpoint>
          <Trackpoint>
            <Time>2020-12-05T14:07:12.000Z</Time>
            <Position>
              <LatitudeDegrees>36.81337765417993068695068359375</LatitudeDegrees>
              <LongitudeDegrees>-4.3769176863133907318115234375</LongitudeDegrees>
            </Position>
            <AltitudeMeters>840</AltitudeMeters>
            <DistanceMeters>NAN</DistanceMeters>
          </Trackpoint>
          <Trackpoint>
            <Time>2020-12-05T14:07:13.000Z</Time>
            <Position>
              <LatitudeDegrees>36.813376061618328094482421875</LatitudeDegrees>
              <LongitudeDegrees>-4.37693151645362377166748046875</LongitudeDegrees>
            </Position>
            <AltitudeMeters>840</AltitudeMeters>
            <DistanceMeters>NAN</DistanceMeters>
          </Trackpoint>
          <Trackpoint>
            <Time>2020-12-05T14:07:14.000Z</Time>
            <Position>
              <LatitudeDegrees>36.81337413378059864044189453125</LatitudeDegrees>
              <LongitudeDegrees>-4.37694392167031764984130859375</LongitudeDegrees>
            </Position>
            <AltitudeMeters>839.79998779296875</AltitudeMeters>
            <DistanceMeters>NAN</DistanceMeters>
          </Trackpoint>
          <Trackpoint>
            <Time>2020-12-05T14:07:15.000Z</Time>
            <Position>
              <LatitudeDegrees>36.81337195448577404022216796875</LatitudeDegrees>
              <LongitudeDegrees>-4.37695515342056751251220703125</LongitudeDegrees>
            </Position>
            <AltitudeMeters>839.5999755859375</AltitudeMeters>
            <DistanceMeters>NAN</DistanceMeters>
          </Trackpoint>
          <Trackpoint>
            <Time>2020-12-05T14:07:16.000Z</Time>
            <Position>
              <LatitudeDegrees>36.8133701942861080169677734375</LatitudeDegrees>
              <LongitudeDegrees>-4.376965798437595367431640625</LongitudeDegrees>
            </Position>
            <AltitudeMeters>839.5999755859375</AltitudeMeters>
            <DistanceMeters>NAN</DistanceMeters>
          </Trackpoint>
          <Trackpoint>
            <Time>2020-12-05T14:07:17.000Z</Time>
            <Position>
              <LatitudeDegrees>36.8133685179054737091064453125</LatitudeDegrees>
              <LongitudeDegrees>-4.37697594054043292999267578125</LongitudeDegrees>
            </Position>
            <AltitudeMeters>839.5999755859375</AltitudeMeters>
            <DistanceMeters>NAN</DistanceMeters>
          </Trackpoint>
          <Trackpoint>
            <Time>2020-12-05T14:07:18.000Z</Time>
            <Position>
              <LatitudeDegrees>36.81336625479161739349365234375</LatitudeDegrees>
              <LongitudeDegrees>-4.3769884295761585235595703125</LongitudeDegrees>
            </Position>
            <AltitudeMeters>839.5999755859375</AltitudeMeters>
            <DistanceMeters>NAN</DistanceMeters>
          </Trackpoint>
          <Trackpoint>
            <Time>2020-12-05T14:07:19.000Z</Time>
            <Position>
              <LatitudeDegrees>36.81336491368710994720458984375</LatitudeDegrees>
              <LongitudeDegrees>-4.3769989907741546630859375</LongitudeDegrees>
            </Position>
            <AltitudeMeters>839.5999755859375</AltitudeMeters>
            <DistanceMeters>NAN</DistanceMeters>
          </Trackpoint>
          <Trackpoint>
            <Time>2020-12-05T14:07:20.000Z</Time>
            <Position>
              <LatitudeDegrees>36.8133624829351902008056640625</LatitudeDegrees>
              <LongitudeDegrees>-4.377009384334087371826171875</LongitudeDegrees>
            </Position>
            <AltitudeMeters>839.4000244140625</AltitudeMeters>
            <DistanceMeters>NAN</DistanceMeters>
          </Trackpoint>
          <Trackpoint>
            <Time>2020-12-05T14:07:21.000Z</Time>
            <Position>
              <LatitudeDegrees>36.81335829198360443115234375</LatitudeDegrees>
              <LongitudeDegrees>-4.377020113170146942138671875</LongitudeDegrees>
            </Position>
            <AltitudeMeters>839.4000244140625</AltitudeMeters>
            <DistanceMeters>NAN</DistanceMeters>
          </Trackpoint>
          <Trackpoint>
            <Time>2020-12-05T14:07:22.000Z</Time>
            <Position>
              <LatitudeDegrees>36.813353933393955230712890625</LatitudeDegrees>
              <LongitudeDegrees>-4.37703260220587253570556640625</LongitudeDegrees>
            </Position>
            <AltitudeMeters>839.5999755859375</AltitudeMeters>
            <DistanceMeters>NAN</DistanceMeters>
          </Trackpoint>
          <Trackpoint>
            <Time>2020-12-05T14:07:23.000Z</Time>
            <Position>
              <LatitudeDegrees>36.8133480660617351531982421875</LatitudeDegrees>
              <LongitudeDegrees>-4.37704768963158130645751953125</LongitudeDegrees>
            </Position>
            <AltitudeMeters>839.5999755859375</AltitudeMeters>
            <DistanceMeters>NAN</DistanceMeters>
          </Trackpoint>
          <Trackpoint>
            <Time>2020-12-05T14:07:24.000Z</Time>
            <Position>
              <LatitudeDegrees>36.81334278546273708343505859375</LatitudeDegrees>
              <LongitudeDegrees>-4.37706110067665576934814453125</LongitudeDegrees>
            </Position>
            <AltitudeMeters>839</AltitudeMeters>
            <DistanceMeters>NAN</DistanceMeters>
          </Trackpoint>
          <Trackpoint>
            <Time>2020-12-05T14:07:25.000Z</Time>
            <Position>
              <LatitudeDegrees>36.8133380077779293060302734375</LatitudeDegrees>
              <LongitudeDegrees>-4.377074427902698516845703125</LongitudeDegrees>
            </Position>
            <AltitudeMeters>838.79998779296875</AltitudeMeters>
            <DistanceMeters>NAN</DistanceMeters>
          </Trackpoint>
          <Trackpoint>
            <Time>2020-12-05T14:07:26.000Z</Time>
            <Position>
              <LatitudeDegrees>36.8133309669792652130126953125</LatitudeDegrees>
              <LongitudeDegrees>-4.37708741985261440277099609375</LongitudeDegrees>
            </Position>
            <AltitudeMeters>838.20001220703125</AltitudeMeters>
            <DistanceMeters>NAN</DistanceMeters>
          </Trackpoint>
          <Trackpoint>
            <Time>2020-12-05T14:07:27.000Z</Time>
            <Position>
              <LatitudeDegrees>36.8133249320089817047119140625</LatitudeDegrees>
              <LongitudeDegrees>-4.37710066325962543487548828125</LongitudeDegrees>
            </Position>
            <AltitudeMeters>837.79998779296875</AltitudeMeters>
            <DistanceMeters>NAN</DistanceMeters>
          </Trackpoint>
          <Trackpoint>
            <Time>2020-12-05T14:07:28.000Z</Time>
            <Position>
              <LatitudeDegrees>36.81331881321966648101806640625</LatitudeDegrees>
              <LongitudeDegrees>-4.37711491249501705169677734375</LongitudeDegrees>
            </Position>
            <AltitudeMeters>837.5999755859375</AltitudeMeters>
            <DistanceMeters>NAN</DistanceMeters>
          </Trackpoint>
          <Trackpoint>
            <Time>2020-12-05T14:07:29.000Z</Time>
            <Position>
              <LatitudeDegrees>36.81331445463001728057861328125</LatitudeDegrees>
              <LongitudeDegrees>-4.3771282397210597991943359375</LongitudeDegrees>
            </Position>
            <AltitudeMeters>837.5999755859375</AltitudeMeters>
            <DistanceMeters>NAN</DistanceMeters>
          </Trackpoint>
          <Trackpoint>
            <Time>2020-12-05T14:07:30.000Z</Time>
            <Position>
              <LatitudeDegrees>36.81331210769712924957275390625</LatitudeDegrees>
              <LongitudeDegrees>-4.377142153680324554443359375</LongitudeDegrees>
            </Position>
            <AltitudeMeters>837.5999755859375</AltitudeMeters>
            <DistanceMeters>NAN</DistanceMeters>
          </Trackpoint>
          <Trackpoint>
            <Time>2020-12-05T14:07:31.000Z</Time>
            <Position>
              <LatitudeDegrees>36.81331076659262180328369140625</LatitudeDegrees>
              <LongitudeDegrees>-4.37715665437281131744384765625</LongitudeDegrees>
            </Position>
            <AltitudeMeters>837.5999755859375</AltitudeMeters>
            <DistanceMeters>NAN</DistanceMeters>
          </Trackpoint>
          <Trackpoint>
            <Time>2020-12-05T14:07:32.000Z</Time>
            <Position>
              <LatitudeDegrees>36.81331026367843151092529296875</LatitudeDegrees>
              <LongitudeDegrees>-4.377172999083995819091796875</LongitudeDegrees>
            </Position>
            <AltitudeMeters>837.5999755859375</AltitudeMeters>
            <DistanceMeters>NAN</DistanceMeters>
          </Trackpoint>
          <Trackpoint>
            <Time>2020-12-05T14:07:33.000Z</Time>
            <Position>
              <LatitudeDegrees>36.81331009604036808013916015625</LatitudeDegrees>
              <LongitudeDegrees>-4.37718498520553112030029296875</LongitudeDegrees>
            </Position>
            <AltitudeMeters>837.5999755859375</AltitudeMeters>
            <DistanceMeters>NAN</DistanceMeters>
          </Trackpoint>
          <Trackpoint>
            <Time>2020-12-05T14:07:34.000Z</Time>
            <Position>
              <LatitudeDegrees>36.8133105151355266571044921875</LatitudeDegrees>
              <LongitudeDegrees>-4.377196133136749267578125</LongitudeDegrees>
            </Position>
            <AltitudeMeters>837.5999755859375</AltitudeMeters>
            <DistanceMeters>NAN</DistanceMeters>
          </Trackpoint>
          <Trackpoint>
            <Time>2020-12-05T14:07:35.000Z</Time>
            <Position>
              <LatitudeDegrees>36.81331143714487552642822265625</LatitudeDegrees>
              <LongitudeDegrees>-4.3772046826779842376708984375</LongitudeDegrees>
            </Position>
            <AltitudeMeters>837.4000244140625</AltitudeMeters>
            <DistanceMeters>NAN</DistanceMeters>
          </Trackpoint>
          <Trackpoint>
            <Time>2020-12-05T14:07:36.000Z</Time>
            <Position>
              <LatitudeDegrees>36.81331244297325611114501953125</LatitudeDegrees>
              <LongitudeDegrees>-4.37721516005694866180419921875</LongitudeDegrees>
            </Position>
            <AltitudeMeters>837.4000244140625</AltitudeMeters>
            <DistanceMeters>NAN</DistanceMeters>
          </Trackpoint>
          <Trackpoint>
            <Time>2020-12-05T14:07:37.000Z</Time>
            <Position>
              <LatitudeDegrees>36.81331378407776355743408203125</LatitudeDegrees>
              <LongitudeDegrees>-4.37722907401621341705322265625</LongitudeDegrees>
            </Position>
            <AltitudeMeters>837.20001220703125</AltitudeMeters>
            <DistanceMeters>NAN</DistanceMeters>
          </Trackpoint>
          <Trackpoint>
            <Time>2020-12-05T14:07:38.000Z</Time>
            <Position>
              <LatitudeDegrees>36.81331378407776355743408203125</LatitudeDegrees>
              <LongitudeDegrees>-4.37724583782255649566650390625</LongitudeDegrees>
            </Position>
            <AltitudeMeters>836.79998779296875</AltitudeMeters>
            <DistanceMeters>NAN</DistanceMeters>
          </Trackpoint>
          <Trackpoint>
            <Time>2020-12-05T14:07:39.000Z</Time>
            <Position>
              <LatitudeDegrees>36.8133108504116535186767578125</LatitudeDegrees>
              <LongitudeDegrees>-4.37725874595344066619873046875</LongitudeDegrees>
            </Position>
            <AltitudeMeters>836.5999755859375</AltitudeMeters>
            <DistanceMeters>NAN</DistanceMeters>
          </Trackpoint>
          <Trackpoint>
            <Time>2020-12-05T14:07:40.000Z</Time>
            <Position>
              <LatitudeDegrees>36.8133088387548923492431640625</LatitudeDegrees>
              <LongitudeDegrees>-4.3772727437317371368408203125</LongitudeDegrees>
            </Position>
            <AltitudeMeters>836.5999755859375</AltitudeMeters>
            <DistanceMeters>NAN</DistanceMeters>
          </Trackpoint>
          <Trackpoint>
            <Time>2020-12-05T14:07:41.000Z</Time>
            <Position>
              <LatitudeDegrees>36.813306994736194610595703125</LatitudeDegrees>
              <LongitudeDegrees>-4.37728573568165302276611328125</LongitudeDegrees>
            </Position>
            <AltitudeMeters>836.4000244140625</AltitudeMeters>
            <DistanceMeters>NAN</DistanceMeters>
          </Trackpoint>
          <Trackpoint>
            <Time>2020-12-05T14:07:42.000Z</Time>
            <Position>
              <LatitudeDegrees>36.81330196559429168701171875</LatitudeDegrees>
              <LongitudeDegrees>-4.37730249948799610137939453125</LongitudeDegrees>
            </Position>
            <AltitudeMeters>836.20001220703125</AltitudeMeters>
            <DistanceMeters>NAN</DistanceMeters>
          </Trackpoint>
          <Trackpoint>
            <Time>2020-12-05T14:07:43.000Z</Time>
            <Position>
              <LatitudeDegrees>36.81329852901399135589599609375</LatitudeDegrees>
              <LongitudeDegrees>-4.3773173354566097259521484375</LongitudeDegrees>
            </Position>
            <AltitudeMeters>836.20001220703125</AltitudeMeters>
            <DistanceMeters>NAN</DistanceMeters>
          </Trackpoint>
          <Trackpoint>
            <Time>2020-12-05T14:07:44.000Z</Time>
            <Position>
              <LatitudeDegrees>36.813294589519500732421875</LatitudeDegrees>
              <LongitudeDegrees>-4.37732881866395473480224609375</LongitudeDegrees>
            </Position>
            <AltitudeMeters>836.5999755859375</AltitudeMeters>
            <DistanceMeters>NAN</DistanceMeters>
          </Trackpoint>
          <Trackpoint>
            <Time>2020-12-05T14:07:45.000Z</Time>
            <Position>
              <LatitudeDegrees>36.81329081766307353973388671875</LatitudeDegrees>
              <LongitudeDegrees>-4.3773381225764751434326171875</LongitudeDegrees>
            </Position>
            <AltitudeMeters>837</AltitudeMeters>
            <DistanceMeters>NAN</DistanceMeters>
          </Trackpoint>
          <Trackpoint>
            <Time>2020-12-05T14:07:46.000Z</Time>
            <Position>
              <LatitudeDegrees>36.8132863752543926239013671875</LatitudeDegrees>
              <LongitudeDegrees>-4.3773495219647884368896484375</LongitudeDegrees>
            </Position>
            <AltitudeMeters>837</AltitudeMeters>
            <DistanceMeters>NAN</DistanceMeters>
          </Trackpoint>
          <Trackpoint>
            <Time>2020-12-05T14:07:47.000Z</Time>
            <Position>
              <LatitudeDegrees>36.8132826872169971466064453125</LatitudeDegrees>
              <LongitudeDegrees>-4.3773642741143703460693359375</LongitudeDegrees>
            </Position>
            <AltitudeMeters>836.79998779296875</AltitudeMeters>
            <DistanceMeters>NAN</DistanceMeters>
          </Trackpoint>
          <Trackpoint>
            <Time>2020-12-05T14:07:48.000Z</Time>
            <Position>
              <LatitudeDegrees>36.81327908299863338470458984375</LatitudeDegrees>
              <LongitudeDegrees>-4.3773739971220493316650390625</LongitudeDegrees>
            </Position>
            <AltitudeMeters>836.79998779296875</AltitudeMeters>
            <DistanceMeters>NAN</DistanceMeters>
          </Trackpoint>
          <Trackpoint>
            <Time>2020-12-05T14:07:49.000Z</Time>
            <Position>
              <LatitudeDegrees>36.8132773227989673614501953125</LatitudeDegrees>
              <LongitudeDegrees>-4.377378523349761962890625</LongitudeDegrees>
            </Position>
            <AltitudeMeters>836.79998779296875</AltitudeMeters>
            <DistanceMeters>NAN</DistanceMeters>
          </Trackpoint>
          <Trackpoint>
            <Time>2020-12-05T14:07:50.000Z</Time>
            <Position>
              <LatitudeDegrees>36.8132763169705867767333984375</LatitudeDegrees>
              <LongitudeDegrees>-4.3773833848536014556884765625</LongitudeDegrees>
            </Position>
            <AltitudeMeters>836.4000244140625</AltitudeMeters>
            <DistanceMeters>NAN</DistanceMeters>
          </Trackpoint>
          <Trackpoint>
            <Time>2020-12-05T14:07:51.000Z</Time>
            <Position>
              <LatitudeDegrees>36.8132756464183330535888671875</LatitudeDegrees>
              <LongitudeDegrees>-4.37739369459450244903564453125</LongitudeDegrees>
            </Position>
            <AltitudeMeters>836</AltitudeMeters>
            <DistanceMeters>NAN</DistanceMeters>
          </Trackpoint>
          <Trackpoint>
            <Time>2020-12-05T14:07:52.000Z</Time>
            <Position>
              <LatitudeDegrees>36.81327220983803272247314453125</LatitudeDegrees>
              <LongitudeDegrees>-4.37740576453506946563720703125</LongitudeDegrees>
            </Position>
            <AltitudeMeters>835.5999755859375</AltitudeMeters>
            <DistanceMeters>NAN</DistanceMeters>
          </Trackpoint>
          <Trackpoint>
            <Time>2020-12-05T14:07:53.000Z</Time>
            <Position>
              <LatitudeDegrees>36.813267432153224945068359375</LatitudeDegrees>
              <LongitudeDegrees>-4.37741749919950962066650390625</LongitudeDegrees>
            </Position>
            <AltitudeMeters>835.20001220703125</AltitudeMeters>
            <DistanceMeters>NAN</DistanceMeters>
          </Trackpoint>
          <Trackpoint>
            <Time>2020-12-05T14:07:54.000Z</Time>
            <Position>
              <LatitudeDegrees>36.81326114572584629058837890625</LatitudeDegrees>
              <LongitudeDegrees>-4.3774283118546009063720703125</LongitudeDegrees>
            </Position>
            <AltitudeMeters>835.20001220703125</AltitudeMeters>
            <DistanceMeters>NAN</DistanceMeters>
          </Trackpoint>
          <Trackpoint>
            <Time>2020-12-05T14:07:55.000Z</Time>
            <Position>
              <LatitudeDegrees>36.81325745768845081329345703125</LatitudeDegrees>
              <LongitudeDegrees>-4.377437531948089599609375</LongitudeDegrees>
            </Position>
            <AltitudeMeters>835</AltitudeMeters>
            <DistanceMeters>NAN</DistanceMeters>
          </Trackpoint>
          <Trackpoint>
            <Time>2020-12-05T14:07:56.000Z</Time>
            <Position>
              <LatitudeDegrees>36.8132530152797698974609375</LatitudeDegrees>
              <LongitudeDegrees>-4.3774504400789737701416015625</LongitudeDegrees>
            </Position>
            <AltitudeMeters>835</AltitudeMeters>
            <DistanceMeters>NAN</DistanceMeters>
          </Trackpoint>
          <Trackpoint>
            <Time>2020-12-05T14:07:57.000Z</Time>
            <Position>
              <LatitudeDegrees>36.81325091980397701263427734375</LatitudeDegrees>
              <LongitudeDegrees>-4.37746091745793819427490234375</LongitudeDegrees>
            </Position>
            <AltitudeMeters>835</AltitudeMeters>
            <DistanceMeters>NAN</DistanceMeters>
          </Trackpoint>
          <Trackpoint>
            <Time>2020-12-05T14:07:58.000Z</Time>
            <Position>
              <LatitudeDegrees>36.8132478184998035430908203125</LatitudeDegrees>
              <LongitudeDegrees>-4.377472400665283203125</LongitudeDegrees>
            </Position>
            <AltitudeMeters>835</AltitudeMeters>
            <DistanceMeters>NAN</DistanceMeters>
          </Trackpoint>
          <Trackpoint>
            <Time>2020-12-05T14:07:59.000Z</Time>
            <Position>
              <LatitudeDegrees>36.81324429810047149658203125</LatitudeDegrees>
              <LongitudeDegrees>-4.377486817538738250732421875</LongitudeDegrees>
            </Position>
            <AltitudeMeters>834.79998779296875</AltitudeMeters>
            <DistanceMeters>NAN</DistanceMeters>
          </Trackpoint>
          <Trackpoint>
            <Time>2020-12-05T14:08:00.000Z</Time>
            <Position>
              <LatitudeDegrees>36.81324052624404430389404296875</LatitudeDegrees>
              <LongitudeDegrees>-4.377502240240573883056640625</LongitudeDegrees>
            </Position>
            <AltitudeMeters>834.20001220703125</AltitudeMeters>
            <DistanceMeters>NAN</DistanceMeters>
          </Trackpoint>
          <Trackpoint>
            <Time>2020-12-05T14:08:01.000Z</Time>
            <Position>
              <LatitudeDegrees>36.81323465891182422637939453125</LatitudeDegrees>
              <LongitudeDegrees>-4.3775166571140289306640625</LongitudeDegrees>
            </Position>
            <AltitudeMeters>834</AltitudeMeters>
            <DistanceMeters>NAN</DistanceMeters>
          </Trackpoint>
          <Trackpoint>
            <Time>2020-12-05T14:08:02.000Z</Time>
            <Position>
              <LatitudeDegrees>36.813228540122509002685546875</LatitudeDegrees>
              <LongitudeDegrees>-4.3775300681591033935546875</LongitudeDegrees>
            </Position>
            <AltitudeMeters>833.5999755859375</AltitudeMeters>
            <DistanceMeters>NAN</DistanceMeters>
          </Trackpoint>
          <Trackpoint>
            <Time>2020-12-05T14:08:03.000Z</Time>
            <Position>
              <LatitudeDegrees>36.81322208605706691741943359375</LatitudeDegrees>
              <LongitudeDegrees>-4.3775426410138607025146484375</LongitudeDegrees>
            </Position>
            <AltitudeMeters>833.4000244140625</AltitudeMeters>
            <DistanceMeters>NAN</DistanceMeters>
          </Trackpoint>
          <Trackpoint>
            <Time>2020-12-05T14:08:04.000Z</Time>
            <Position>
              <LatitudeDegrees>36.8132156319916248321533203125</LatitudeDegrees>
              <LongitudeDegrees>-4.37755445949733257293701171875</LongitudeDegrees>
            </Position>
            <AltitudeMeters>833.20001220703125</AltitudeMeters>
            <DistanceMeters>NAN</DistanceMeters>
          </Trackpoint>
          <Trackpoint>
            <Time>2020-12-05T14:08:05.000Z</Time>
            <Position>
              <LatitudeDegrees>36.813208423554897308349609375</LatitudeDegrees>
              <LongitudeDegrees>-4.37756753526628017425537109375</LongitudeDegrees>
            </Position>
            <AltitudeMeters>832.79998779296875</AltitudeMeters>
            <DistanceMeters>NAN</DistanceMeters>
          </Trackpoint>
          <Trackpoint>
            <Time>2020-12-05T14:08:06.000Z</Time>
            <Position>
              <LatitudeDegrees>36.81320347823202610015869140625</LatitudeDegrees>
              <LongitudeDegrees>-4.377577342092990875244140625</LongitudeDegrees>
            </Position>
            <AltitudeMeters>832.4000244140625</AltitudeMeters>
            <DistanceMeters>NAN</DistanceMeters>
          </Trackpoint>
          <Trackpoint>
            <Time>2020-12-05T14:08:07.000Z</Time>
            <Position>
              <LatitudeDegrees>36.81319626979529857635498046875</LatitudeDegrees>
              <LongitudeDegrees>-4.3775852210819721221923828125</LongitudeDegrees>
            </Position>
            <AltitudeMeters>832</AltitudeMeters>
            <DistanceMeters>NAN</DistanceMeters>
          </Trackpoint>
          <Trackpoint>
            <Time>2020-12-05T14:08:08.000Z</Time>
            <Position>
              <LatitudeDegrees>36.81318797171115875244140625</LatitudeDegrees>
              <LongitudeDegrees>-4.37759368680417537689208984375</LongitudeDegrees>
            </Position>
            <AltitudeMeters>831.79998779296875</AltitudeMeters>
            <DistanceMeters>NAN</DistanceMeters>
          </Trackpoint>
          <Trackpoint>
            <Time>2020-12-05T14:08:09.000Z</Time>
            <Position>
              <LatitudeDegrees>36.8131807632744312286376953125</LatitudeDegrees>
              <LongitudeDegrees>-4.37760424800217151641845703125</LongitudeDegrees>
            </Position>
            <AltitudeMeters>831.79998779296875</AltitudeMeters>
            <DistanceMeters>NAN</DistanceMeters>
          </Trackpoint>
          <Trackpoint>
            <Time>2020-12-05T14:08:10.000Z</Time>
            <Position>
              <LatitudeDegrees>36.81317321956157684326171875</LatitudeDegrees>
              <LongitudeDegrees>-4.3776137195527553558349609375</LongitudeDegrees>
            </Position>
            <AltitudeMeters>831.5999755859375</AltitudeMeters>
            <DistanceMeters>NAN</DistanceMeters>
          </Trackpoint>
          <Trackpoint>
            <Time>2020-12-05T14:08:11.000Z</Time>
            <Position>
              <LatitudeDegrees>36.81316651403903961181640625</LatitudeDegrees>
              <LongitudeDegrees>-4.377620927989482879638671875</LongitudeDegrees>
            </Position>
            <AltitudeMeters>831.5999755859375</AltitudeMeters>
            <DistanceMeters>NAN</DistanceMeters>
          </Trackpoint>
          <Trackpoint>
            <Time>2020-12-05T14:08:12.000Z</Time>
            <Position>
              <LatitudeDegrees>36.8131579644978046417236328125</LatitudeDegrees>
              <LongitudeDegrees>-4.3776335008442401885986328125</LongitudeDegrees>
            </Position>
            <AltitudeMeters>831.5999755859375</AltitudeMeters>
            <DistanceMeters>NAN</DistanceMeters>
          </Trackpoint>
          <Trackpoint>
            <Time>2020-12-05T14:08:13.000Z</Time>
            <Position>
              <LatitudeDegrees>36.8131499178707599639892578125</LatitudeDegrees>
              <LongitudeDegrees>-4.37764263711869716644287109375</LongitudeDegrees>
            </Position>
            <AltitudeMeters>831.5999755859375</AltitudeMeters>
            <DistanceMeters>NAN</DistanceMeters>
          </Trackpoint>
          <Trackpoint>
            <Time>2020-12-05T14:08:14.000Z</Time>
            <Position>
              <LatitudeDegrees>36.813139356672763824462890625</LatitudeDegrees>
              <LongitudeDegrees>-4.3776519410312175750732421875</LongitudeDegrees>
            </Position>
            <AltitudeMeters>831.79998779296875</AltitudeMeters>
            <DistanceMeters>NAN</DistanceMeters>
          </Trackpoint>
          <Trackpoint>
            <Time>2020-12-05T14:08:15.000Z</Time>
            <Position>
              <LatitudeDegrees>36.81312636472284793853759765625</LatitudeDegrees>
              <LongitudeDegrees>-4.37766074202954769134521484375</LongitudeDegrees>
            </Position>
            <AltitudeMeters>832</AltitudeMeters>
            <DistanceMeters>NAN</DistanceMeters>
          </Trackpoint>
          <Trackpoint>
            <Time>2020-12-05T14:08:16.000Z</Time>
            <Position>
              <LatitudeDegrees>36.8131150491535663604736328125</LatitudeDegrees>
              <LongitudeDegrees>-4.377667866647243499755859375</LongitudeDegrees>
            </Position>
            <AltitudeMeters>832.20001220703125</AltitudeMeters>
            <DistanceMeters>NAN</DistanceMeters>
          </Trackpoint>
          <Trackpoint>
            <Time>2020-12-05T14:08:17.000Z</Time>
            <Position>
              <LatitudeDegrees>36.8131063319742679595947265625</LatitudeDegrees>
              <LongitudeDegrees>-4.37767700292170047760009765625</LongitudeDegrees>
            </Position>
            <AltitudeMeters>832.5999755859375</AltitudeMeters>
            <DistanceMeters>NAN</DistanceMeters>
          </Trackpoint>
          <Trackpoint>
            <Time>2020-12-05T14:08:18.000Z</Time>
            <Position>
              <LatitudeDegrees>36.81309870444238185882568359375</LatitudeDegrees>
              <LongitudeDegrees>-4.37768655829131603240966796875</LongitudeDegrees>
            </Position>
            <AltitudeMeters>832.5999755859375</AltitudeMeters>
            <DistanceMeters>NAN</DistanceMeters>
          </Trackpoint>
          <Trackpoint>
            <Time>2020-12-05T14:08:19.000Z</Time>
            <Position>
              <LatitudeDegrees>36.8130920827388763427734375</LatitudeDegrees>
              <LongitudeDegrees>-4.37769561074674129486083984375</LongitudeDegrees>
            </Position>
            <AltitudeMeters>832.79998779296875</AltitudeMeters>
            <DistanceMeters>NAN</DistanceMeters>
          </Trackpoint>
          <Trackpoint>
            <Time>2020-12-05T14:08:20.000Z</Time>
            <Position>
              <LatitudeDegrees>36.813085377216339111328125</LatitudeDegrees>
              <LongitudeDegrees>-4.3777039088308811187744140625</LongitudeDegrees>
            </Position>
            <AltitudeMeters>832.79998779296875</AltitudeMeters>
            <DistanceMeters>NAN</DistanceMeters>
          </Trackpoint>
          <Trackpoint>
            <Time>2020-12-05T14:08:21.000Z</Time>
            <Position>
              <LatitudeDegrees>36.81307959370315074920654296875</LatitudeDegrees>
              <LongitudeDegrees>-4.377710781991481781005859375</LongitudeDegrees>
            </Position>
            <AltitudeMeters>832.5999755859375</AltitudeMeters>
            <DistanceMeters>NAN</DistanceMeters>
          </Trackpoint>
          <Trackpoint>
            <Time>2020-12-05T14:08:22.000Z</Time>
            <Position>
              <LatitudeDegrees>36.81307389400899410247802734375</LatitudeDegrees>
              <LongitudeDegrees>-4.37771983444690704345703125</LongitudeDegrees>
            </Position>
            <AltitudeMeters>832.20001220703125</AltitudeMeters>
            <DistanceMeters>NAN</DistanceMeters>
          </Trackpoint>
          <Trackpoint>
            <Time>2020-12-05T14:08:23.000Z</Time>
            <Position>
              <LatitudeDegrees>36.813068278133869171142578125</LatitudeDegrees>
              <LongitudeDegrees>-4.3777253665030002593994140625</LongitudeDegrees>
            </Position>
            <AltitudeMeters>831.79998779296875</AltitudeMeters>
            <DistanceMeters>NAN</DistanceMeters>
          </Trackpoint>
          <Trackpoint>
            <Time>2020-12-05T14:08:24.000Z</Time>
            <Position>
              <LatitudeDegrees>36.81306182406842708587646484375</LatitudeDegrees>
              <LongitudeDegrees>-4.37773031182587146759033203125</LongitudeDegrees>
            </Position>
            <AltitudeMeters>831.5999755859375</AltitudeMeters>
            <DistanceMeters>NAN</DistanceMeters>
          </Trackpoint>
          <Trackpoint>
            <Time>2020-12-05T14:08:25.000Z</Time>
            <Position>
              <LatitudeDegrees>36.81305411271750926971435546875</LatitudeDegrees>
              <LongitudeDegrees>-4.37773601152002811431884765625</LongitudeDegrees>
            </Position>
            <AltitudeMeters>831.4000244140625</AltitudeMeters>
            <DistanceMeters>NAN</DistanceMeters>
          </Trackpoint>
          <Trackpoint>
            <Time>2020-12-05T14:08:26.000Z</Time>
            <Position>
              <LatitudeDegrees>36.81304489262402057647705078125</LatitudeDegrees>
              <LongitudeDegrees>-4.377740956842899322509765625</LongitudeDegrees>
            </Position>
            <AltitudeMeters>831.4000244140625</AltitudeMeters>
            <DistanceMeters>NAN</DistanceMeters>
          </Trackpoint>
          <Trackpoint>
            <Time>2020-12-05T14:08:27.000Z</Time>
            <Position>
              <LatitudeDegrees>36.813035421073436737060546875</LatitudeDegrees>
              <LongitudeDegrees>-4.377746321260929107666015625</LongitudeDegrees>
            </Position>
            <AltitudeMeters>831.4000244140625</AltitudeMeters>
            <DistanceMeters>NAN</DistanceMeters>
          </Trackpoint>
          <Trackpoint>
            <Time>2020-12-05T14:08:28.000Z</Time>
            <Position>
              <LatitudeDegrees>36.8130251951515674591064453125</LatitudeDegrees>
              <LongitudeDegrees>-4.37775394879281520843505859375</LongitudeDegrees>
            </Position>
            <AltitudeMeters>831.4000244140625</AltitudeMeters>
            <DistanceMeters>NAN</DistanceMeters>
          </Trackpoint>
          <Trackpoint>
            <Time>2020-12-05T14:08:29.000Z</Time>
            <Position>
              <LatitudeDegrees>36.81301672942936420440673828125</LatitudeDegrees>
              <LongitudeDegrees>-4.37776182778179645538330078125</LongitudeDegrees>
            </Position>
            <AltitudeMeters>831.4000244140625</AltitudeMeters>
            <DistanceMeters>NAN</DistanceMeters>
          </Trackpoint>
          <Trackpoint>
            <Time>2020-12-05T14:08:30.000Z</Time>
            <Position>
              <LatitudeDegrees>36.81300834752619266510009765625</LatitudeDegrees>
              <LongitudeDegrees>-4.37777104787528514862060546875</LongitudeDegrees>
            </Position>
            <AltitudeMeters>831.20001220703125</AltitudeMeters>
            <DistanceMeters>NAN</DistanceMeters>
          </Trackpoint>
          <Trackpoint>
            <Time>2020-12-05T14:08:31.000Z</Time>
            <Position>
              <LatitudeDegrees>36.81299996562302112579345703125</LatitudeDegrees>
              <LongitudeDegrees>-4.3777848780155181884765625</LongitudeDegrees>
            </Position>
            <AltitudeMeters>831.20001220703125</AltitudeMeters>
            <DistanceMeters>NAN</DistanceMeters>
          </Trackpoint>
          <Trackpoint>
            <Time>2020-12-05T14:08:32.000Z</Time>
            <Position>
              <LatitudeDegrees>36.812993176281452178955078125</LatitudeDegrees>
              <LongitudeDegrees>-4.37779753468930721282958984375</LongitudeDegrees>
            </Position>
            <AltitudeMeters>831.20001220703125</AltitudeMeters>
            <DistanceMeters>NAN</DistanceMeters>
          </Trackpoint>
          <Trackpoint>
            <Time>2020-12-05T14:08:33.000Z</Time>
            <Position>
              <LatitudeDegrees>36.81298739276826381683349609375</LatitudeDegrees>
              <LongitudeDegrees>-4.3778090178966522216796875</LongitudeDegrees>
            </Position>
            <AltitudeMeters>831.20001220703125</AltitudeMeters>
            <DistanceMeters>NAN</DistanceMeters>
          </Trackpoint>
          <Trackpoint>
            <Time>2020-12-05T14:08:34.000Z</Time>
            <Position>
              <LatitudeDegrees>36.81298135779798030853271484375</LatitudeDegrees>
              <LongitudeDegrees>-4.37781714834272861480712890625</LongitudeDegrees>
            </Position>
            <AltitudeMeters>831.20001220703125</AltitudeMeters>
            <DistanceMeters>NAN</DistanceMeters>
          </Trackpoint>
          <Trackpoint>
            <Time>2020-12-05T14:08:35.000Z</Time>
            <Position>
              <LatitudeDegrees>36.812975406646728515625</LatitudeDegrees>
              <LongitudeDegrees>-4.37782402150332927703857421875</LongitudeDegrees>
            </Position>
            <AltitudeMeters>831</AltitudeMeters>
            <DistanceMeters>NAN</DistanceMeters>
          </Trackpoint>
          <Trackpoint>
            <Time>2020-12-05T14:08:36.000Z</Time>
            <Position>
              <LatitudeDegrees>36.81296861730515956878662109375</LatitudeDegrees>
              <LongitudeDegrees>-4.37783156521618366241455078125</LongitudeDegrees>
            </Position>
            <AltitudeMeters>830.79998779296875</AltitudeMeters>
            <DistanceMeters>NAN</DistanceMeters>
          </Trackpoint>
          <Trackpoint>
            <Time>2020-12-05T14:08:37.000Z</Time>
            <Position>
              <LatitudeDegrees>36.812958978116512298583984375</LatitudeDegrees>
              <LongitudeDegrees>-4.37783910892903804779052734375</LongitudeDegrees>
            </Position>
            <AltitudeMeters>830.4000244140625</AltitudeMeters>
            <DistanceMeters>NAN</DistanceMeters>
          </Trackpoint>
          <Trackpoint>
            <Time>2020-12-05T14:08:38.000Z</Time>
            <Position>
              <LatitudeDegrees>36.81294850073754787445068359375</LatitudeDegrees>
              <LongitudeDegrees>-4.37784665264189243316650390625</LongitudeDegrees>
            </Position>
            <AltitudeMeters>830.4000244140625</AltitudeMeters>
            <DistanceMeters>NAN</DistanceMeters>
          </Trackpoint>
          <Trackpoint>
            <Time>2020-12-05T14:08:39.000Z</Time>
            <Position>
              <LatitudeDegrees>36.8129350058734416961669921875</LatitudeDegrees>
              <LongitudeDegrees>-4.37785889022052288055419921875</LongitudeDegrees>
            </Position>
            <AltitudeMeters>830.20001220703125</AltitudeMeters>
            <DistanceMeters>NAN</DistanceMeters>
          </Trackpoint>
          <Trackpoint>
            <Time>2020-12-05T14:08:40.000Z</Time>
            <Position>
              <LatitudeDegrees>36.81292377412319183349609375</LatitudeDegrees>
              <LongitudeDegrees>-4.3778678588569164276123046875</LongitudeDegrees>
            </Position>
            <AltitudeMeters>830</AltitudeMeters>
            <DistanceMeters>NAN</DistanceMeters>
          </Trackpoint>
          <Trackpoint>
            <Time>2020-12-05T14:08:41.000Z</Time>
            <Position>
              <LatitudeDegrees>36.81291111744940280914306640625</LatitudeDegrees>
              <LongitudeDegrees>-4.37787833623588085174560546875</LongitudeDegrees>
            </Position>
            <AltitudeMeters>829.79998779296875</AltitudeMeters>
            <DistanceMeters>NAN</DistanceMeters>
          </Trackpoint>
          <Trackpoint>
            <Time>2020-12-05T14:08:42.000Z</Time>
            <Position>
              <LatitudeDegrees>36.8129011429846286773681640625</LatitudeDegrees>
              <LongitudeDegrees>-4.37788520939648151397705078125</LongitudeDegrees>
            </Position>
            <AltitudeMeters>829.79998779296875</AltitudeMeters>
            <DistanceMeters>NAN</DistanceMeters>
          </Trackpoint>
          <Trackpoint>
            <Time>2020-12-05T14:08:43.000Z</Time>
            <Position>
              <LatitudeDegrees>36.81289217434823513031005859375</LatitudeDegrees>
              <LongitudeDegrees>-4.3778889812529087066650390625</LongitudeDegrees>
            </Position>
            <AltitudeMeters>829.4000244140625</AltitudeMeters>
            <DistanceMeters>NAN</DistanceMeters>
          </Trackpoint>
          <Trackpoint>
            <Time>2020-12-05T14:08:44.000Z</Time>
            <Position>
              <LatitudeDegrees>36.81288446299731731414794921875</LatitudeDegrees>
              <LongitudeDegrees>-4.37789258547127246856689453125</LongitudeDegrees>
            </Position>
            <AltitudeMeters>829.20001220703125</AltitudeMeters>
            <DistanceMeters>NAN</DistanceMeters>
          </Trackpoint>
          <Trackpoint>
            <Time>2020-12-05T14:08:45.000Z</Time>
            <Position>
              <LatitudeDegrees>36.8128776736557483673095703125</LatitudeDegrees>
              <LongitudeDegrees>-4.37789551913738250732421875</LongitudeDegrees>
            </Position>
            <AltitudeMeters>828.79998779296875</AltitudeMeters>
            <DistanceMeters>NAN</DistanceMeters>
          </Trackpoint>
          <Trackpoint>
            <Time>2020-12-05T14:08:46.000Z</Time>
            <Position>
              <LatitudeDegrees>36.8128702975809574127197265625</LatitudeDegrees>
              <LongitudeDegrees>-4.37790214084088802337646484375</LongitudeDegrees>
            </Position>
            <AltitudeMeters>828.5999755859375</AltitudeMeters>
            <DistanceMeters>NAN</DistanceMeters>
          </Trackpoint>
          <Trackpoint>
            <Time>2020-12-05T14:08:47.000Z</Time>
            <Position>
              <LatitudeDegrees>36.81286434642970561981201171875</LatitudeDegrees>
              <LongitudeDegrees>-4.37791203148663043975830078125</LongitudeDegrees>
            </Position>
            <AltitudeMeters>828.4000244140625</AltitudeMeters>
            <DistanceMeters>NAN</DistanceMeters>
          </Trackpoint>
          <Trackpoint>
            <Time>2020-12-05T14:08:48.000Z</Time>
            <Position>
              <LatitudeDegrees>36.81286074221134185791015625</LatitudeDegrees>
              <LongitudeDegrees>-4.37792493961751461029052734375</LongitudeDegrees>
            </Position>
            <AltitudeMeters>828.20001220703125</AltitudeMeters>
            <DistanceMeters>NAN</DistanceMeters>
          </Trackpoint>
          <Trackpoint>
            <Time>2020-12-05T14:08:49.000Z</Time>
            <Position>
              <LatitudeDegrees>36.812855042517185211181640625</LatitudeDegrees>
              <LongitudeDegrees>-4.37793449498713016510009765625</LongitudeDegrees>
            </Position>
            <AltitudeMeters>828.20001220703125</AltitudeMeters>
            <DistanceMeters>NAN</DistanceMeters>
          </Trackpoint>
          <Trackpoint>
            <Time>2020-12-05T14:08:50.000Z</Time>
            <Position>
              <LatitudeDegrees>36.8128485046327114105224609375</LatitudeDegrees>
              <LongitudeDegrees>-4.377942122519016265869140625</LongitudeDegrees>
            </Position>
            <AltitudeMeters>828</AltitudeMeters>
            <DistanceMeters>NAN</DistanceMeters>
          </Trackpoint>
          <Trackpoint>
            <Time>2020-12-05T14:08:51.000Z</Time>
            <Position>
              <LatitudeDegrees>36.81284138001501560211181640625</LatitudeDegrees>
              <LongitudeDegrees>-4.377948828041553497314453125</LongitudeDegrees>
            </Position>
            <AltitudeMeters>827.79998779296875</AltitudeMeters>
            <DistanceMeters>NAN</DistanceMeters>
          </Trackpoint>
          <Trackpoint>
            <Time>2020-12-05T14:08:52.000Z</Time>
            <Position>
              <LatitudeDegrees>36.8128347583115100860595703125</LatitudeDegrees>
              <LongitudeDegrees>-4.37795628793537616729736328125</LongitudeDegrees>
            </Position>
            <AltitudeMeters>827.4000244140625</AltitudeMeters>
            <DistanceMeters>NAN</DistanceMeters>
          </Trackpoint>
          <Trackpoint>
            <Time>2020-12-05T14:08:53.000Z</Time>
            <Position>
              <LatitudeDegrees>36.81282998062670230865478515625</LatitudeDegrees>
              <LongitudeDegrees>-4.37796668149530887603759765625</LongitudeDegrees>
            </Position>
            <AltitudeMeters>827.20001220703125</AltitudeMeters>
            <DistanceMeters>NAN</DistanceMeters>
          </Trackpoint>
          <Trackpoint>
            <Time>2020-12-05T14:08:54.000Z</Time>
            <Position>
              <LatitudeDegrees>36.8128265440464019775390625</LatitudeDegrees>
              <LongitudeDegrees>-4.37798000872135162353515625</LongitudeDegrees>
            </Position>
            <AltitudeMeters>827</AltitudeMeters>
            <DistanceMeters>NAN</DistanceMeters>
          </Trackpoint>
          <Trackpoint>
            <Time>2020-12-05T14:08:55.000Z</Time>
            <Position>
              <LatitudeDegrees>36.8128203414380550384521484375</LatitudeDegrees>
              <LongitudeDegrees>-4.37799065373837947845458984375</LongitudeDegrees>
            </Position>
            <AltitudeMeters>826.79998779296875</AltitudeMeters>
            <DistanceMeters>NAN</DistanceMeters>
          </Trackpoint>
          <Trackpoint>
            <Time>2020-12-05T14:08:56.000Z</Time>
            <Position>
              <LatitudeDegrees>36.81281304918229579925537109375</LatitudeDegrees>
              <LongitudeDegrees>-4.37800406478345394134521484375</LongitudeDegrees>
            </Position>
            <AltitudeMeters>826.79998779296875</AltitudeMeters>
            <DistanceMeters>NAN</DistanceMeters>
          </Trackpoint>
          <Trackpoint>
            <Time>2020-12-05T14:08:57.000Z</Time>
            <Position>
              <LatitudeDegrees>36.81280533783137798309326171875</LatitudeDegrees>
              <LongitudeDegrees>-4.37801512889564037322998046875</LongitudeDegrees>
            </Position>
            <AltitudeMeters>826.79998779296875</AltitudeMeters>
            <DistanceMeters>NAN</DistanceMeters>
          </Trackpoint>
          <Trackpoint>
            <Time>2020-12-05T14:08:58.000Z</Time>
            <Position>
              <LatitudeDegrees>36.81279628537595272064208984375</LatitudeDegrees>
              <LongitudeDegrees>-4.3780271150171756744384765625</LongitudeDegrees>
            </Position>
            <AltitudeMeters>826.5999755859375</AltitudeMeters>
            <DistanceMeters>NAN</DistanceMeters>
          </Trackpoint>
          <Trackpoint>
            <Time>2020-12-05T14:08:59.000Z</Time>
            <Position>
              <LatitudeDegrees>36.81278639473021030426025390625</LatitudeDegrees>
              <LongitudeDegrees>-4.37803742475807666778564453125</LongitudeDegrees>
            </Position>
            <AltitudeMeters>826.5999755859375</AltitudeMeters>
            <DistanceMeters>NAN</DistanceMeters>
          </Trackpoint>
          <Trackpoint>
            <Time>2020-12-05T14:09:00.000Z</Time>
            <Position>
              <LatitudeDegrees>36.81277801282703876495361328125</LatitudeDegrees>
              <LongitudeDegrees>-4.3780532665550708770751953125</LongitudeDegrees>
            </Position>
            <AltitudeMeters>826.5999755859375</AltitudeMeters>
            <DistanceMeters>NAN</DistanceMeters>
          </Trackpoint>
          <Trackpoint>
            <Time>2020-12-05T14:09:01.000Z</Time>
            <Position>
              <LatitudeDegrees>36.812769211828708648681640625</LatitudeDegrees>
              <LongitudeDegrees>-4.37806307338178157806396484375</LongitudeDegrees>
            </Position>
            <AltitudeMeters>826.5999755859375</AltitudeMeters>
            <DistanceMeters>NAN</DistanceMeters>
          </Trackpoint>
          <Trackpoint>
            <Time>2020-12-05T14:09:02.000Z</Time>
            <Position>
              <LatitudeDegrees>36.81276024319231510162353515625</LatitudeDegrees>
              <LongitudeDegrees>-4.37806927599012851715087890625</LongitudeDegrees>
            </Position>
            <AltitudeMeters>826.5999755859375</AltitudeMeters>
            <DistanceMeters>NAN</DistanceMeters>
          </Trackpoint>
          <Trackpoint>
            <Time>2020-12-05T14:09:03.000Z</Time>
            <Position>
              <LatitudeDegrees>36.81275454349815845489501953125</LatitudeDegrees>
              <LongitudeDegrees>-4.3780774064362049102783203125</LongitudeDegrees>
            </Position>
            <AltitudeMeters>826.5999755859375</AltitudeMeters>
            <DistanceMeters>NAN</DistanceMeters>
          </Trackpoint>
          <Trackpoint>
            <Time>2020-12-05T14:09:04.000Z</Time>
            <Position>
              <LatitudeDegrees>36.8127499334514141082763671875</LatitudeDegrees>
              <LongitudeDegrees>-4.37808453105390071868896484375</LongitudeDegrees>
            </Position>
            <AltitudeMeters>826.5999755859375</AltitudeMeters>
            <DistanceMeters>NAN</DistanceMeters>
          </Trackpoint>
          <Trackpoint>
            <Time>2020-12-05T14:09:05.000Z</Time>
            <Position>
              <LatitudeDegrees>36.8127462454140186309814453125</LatitudeDegrees>
              <LongitudeDegrees>-4.37809173949062824249267578125</LongitudeDegrees>
            </Position>
            <AltitudeMeters>826.4000244140625</AltitudeMeters>
            <DistanceMeters>NAN</DistanceMeters>
          </Trackpoint>
          <Trackpoint>
            <Time>2020-12-05T14:09:06.000Z</Time>
            <Position>
              <LatitudeDegrees>36.812743060290813446044921875</LatitudeDegrees>
              <LongitudeDegrees>-4.37809844501316547393798828125</LongitudeDegrees>
            </Position>
            <AltitudeMeters>826.4000244140625</AltitudeMeters>
            <DistanceMeters>NAN</DistanceMeters>
          </Trackpoint>
          <Trackpoint>
            <Time>2020-12-05T14:09:07.000Z</Time>
            <Position>
              <LatitudeDegrees>36.8127408809959888458251953125</LatitudeDegrees>
              <LongitudeDegrees>-4.37810732983052730560302734375</LongitudeDegrees>
            </Position>
            <AltitudeMeters>826.4000244140625</AltitudeMeters>
            <DistanceMeters>NAN</DistanceMeters>
          </Trackpoint>
          <Trackpoint>
            <Time>2020-12-05T14:09:08.000Z</Time>
            <Position>
              <LatitudeDegrees>36.81273811496794223785400390625</LatitudeDegrees>
              <LongitudeDegrees>-4.378113448619842529296875</LongitudeDegrees>
            </Position>
            <AltitudeMeters>826.20001220703125</AltitudeMeters>
            <DistanceMeters>NAN</DistanceMeters>
          </Trackpoint>
          <Trackpoint>
            <Time>2020-12-05T14:09:09.000Z</Time>
            <Position>
              <LatitudeDegrees>36.81273459456861019134521484375</LatitudeDegrees>
              <LongitudeDegrees>-4.37811990268528461456298828125</LongitudeDegrees>
            </Position>
            <AltitudeMeters>826.20001220703125</AltitudeMeters>
            <DistanceMeters>NAN</DistanceMeters>
          </Trackpoint>
          <Trackpoint>
            <Time>2020-12-05T14:09:10.000Z</Time>
            <Position>
              <LatitudeDegrees>36.81273040361702442169189453125</LatitudeDegrees>
              <LongitudeDegrees>-4.378124512732028961181640625</LongitudeDegrees>
            </Position>
            <AltitudeMeters>826.20001220703125</AltitudeMeters>
            <DistanceMeters>NAN</DistanceMeters>
          </Trackpoint>
          <Trackpoint>
            <Time>2020-12-05T14:09:11.000Z</Time>
            <Position>
              <LatitudeDegrees>36.812726296484470367431640625</LatitudeDegrees>
              <LongitudeDegrees>-4.3781290389597415924072265625</LongitudeDegrees>
            </Position>
            <AltitudeMeters>826</AltitudeMeters>
            <DistanceMeters>NAN</DistanceMeters>
          </Trackpoint>
          <Trackpoint>
            <Time>2020-12-05T14:09:12.000Z</Time>
            <Position>
              <LatitudeDegrees>36.81272285990417003631591796875</LatitudeDegrees>
              <LongitudeDegrees>-4.378133900463581085205078125</LongitudeDegrees>
            </Position>
            <AltitudeMeters>826</AltitudeMeters>
            <DistanceMeters>NAN</DistanceMeters>
          </Trackpoint>
          <Trackpoint>
            <Time>2020-12-05T14:09:13.000Z</Time>
            <Position>
              <LatitudeDegrees>36.81271850131452083587646484375</LatitudeDegrees>
              <LongitudeDegrees>-4.37814119271934032440185546875</LongitudeDegrees>
            </Position>
            <AltitudeMeters>826</AltitudeMeters>
            <DistanceMeters>NAN</DistanceMeters>
          </Trackpoint>
          <Trackpoint>
            <Time>2020-12-05T14:09:14.000Z</Time>
            <Position>
              <LatitudeDegrees>36.812716238200664520263671875</LatitudeDegrees>
              <LongitudeDegrees>-4.3781498260796070098876953125</LongitudeDegrees>
            </Position>
            <AltitudeMeters>826</AltitudeMeters>
            <DistanceMeters>NAN</DistanceMeters>
          </Trackpoint>
          <Trackpoint>
            <Time>2020-12-05T14:09:15.000Z</Time>
            <Position>
              <LatitudeDegrees>36.8127154000103473663330078125</LatitudeDegrees>
              <LongitudeDegrees>-4.3781551904976367950439453125</LongitudeDegrees>
            </Position>
            <AltitudeMeters>826</AltitudeMeters>
            <DistanceMeters>NAN</DistanceMeters>
          </Trackpoint>
          <Trackpoint>
            <Time>2020-12-05T14:09:16.000Z</Time>
            <Position>
              <LatitudeDegrees>36.81271179579198360443115234375</LatitudeDegrees>
              <LongitudeDegrees>-4.37815963290631771087646484375</LongitudeDegrees>
            </Position>
            <AltitudeMeters>826</AltitudeMeters>
            <DistanceMeters>NAN</DistanceMeters>
          </Trackpoint>
          <Trackpoint>
            <Time>2020-12-05T14:09:17.000Z</Time>
            <Position>
              <LatitudeDegrees>36.812706179916858673095703125</LatitudeDegrees>
              <LongitudeDegrees>-4.3781622312963008880615234375</LongitudeDegrees>
            </Position>
            <AltitudeMeters>826</AltitudeMeters>
            <DistanceMeters>NAN</DistanceMeters>
          </Trackpoint>
          <Trackpoint>
            <Time>2020-12-05T14:09:18.000Z</Time>
            <Position>
              <LatitudeDegrees>36.81270123459398746490478515625</LatitudeDegrees>
              <LongitudeDegrees>-4.3781692720949649810791015625</LongitudeDegrees>
            </Position>
            <AltitudeMeters>825.79998779296875</AltitudeMeters>
            <DistanceMeters>NAN</DistanceMeters>
          </Trackpoint>
          <Trackpoint>
            <Time>2020-12-05T14:09:19.000Z</Time>
            <Position>
              <LatitudeDegrees>36.8126949481666088104248046875</LatitudeDegrees>
              <LongitudeDegrees>-4.37817857600748538970947265625</LongitudeDegrees>
            </Position>
            <AltitudeMeters>825.4000244140625</AltitudeMeters>
            <DistanceMeters>NAN</DistanceMeters>
          </Trackpoint>
          <Trackpoint>
            <Time>2020-12-05T14:09:20.000Z</Time>
            <Position>
              <LatitudeDegrees>36.81268614716827869415283203125</LatitudeDegrees>
              <LongitudeDegrees>-4.37818477861583232879638671875</LongitudeDegrees>
            </Position>
            <AltitudeMeters>825.20001220703125</AltitudeMeters>
            <DistanceMeters>NAN</DistanceMeters>
          </Trackpoint>
          <Trackpoint>
            <Time>2020-12-05T14:09:21.000Z</Time>
            <Position>
              <LatitudeDegrees>36.81267759762704372406005859375</LatitudeDegrees>
              <LongitudeDegrees>-4.37819131650030612945556640625</LongitudeDegrees>
            </Position>
            <AltitudeMeters>825</AltitudeMeters>
            <DistanceMeters>NAN</DistanceMeters>
          </Trackpoint>
          <Trackpoint>
            <Time>2020-12-05T14:09:22.000Z</Time>
            <Position>
              <LatitudeDegrees>36.81266628205776214599609375</LatitudeDegrees>
              <LongitudeDegrees>-4.37819802202284336090087890625</LongitudeDegrees>
            </Position>
            <AltitudeMeters>824.79998779296875</AltitudeMeters>
            <DistanceMeters>NAN</DistanceMeters>
          </Trackpoint>
          <Trackpoint>
            <Time>2020-12-05T14:09:23.000Z</Time>
            <Position>
              <LatitudeDegrees>36.81265479885041713714599609375</LatitudeDegrees>
              <LongitudeDegrees>-4.37820640392601490020751953125</LongitudeDegrees>
            </Position>
            <AltitudeMeters>824.79998779296875</AltitudeMeters>
            <DistanceMeters>NAN</DistanceMeters>
          </Trackpoint>
          <Trackpoint>
            <Time>2020-12-05T14:09:24.000Z</Time>
            <Position>
              <LatitudeDegrees>36.81264440529048442840576171875</LatitudeDegrees>
              <LongitudeDegrees>-4.3782128579914569854736328125</LongitudeDegrees>
            </Position>
            <AltitudeMeters>824.5999755859375</AltitudeMeters>
            <DistanceMeters>NAN</DistanceMeters>
          </Trackpoint>
          <Trackpoint>
            <Time>2020-12-05T14:09:25.000Z</Time>
            <Position>
              <LatitudeDegrees>36.81263267062604427337646484375</LatitudeDegrees>
              <LongitudeDegrees>-4.3782172165811061859130859375</LongitudeDegrees>
            </Position>
            <AltitudeMeters>824.4000244140625</AltitudeMeters>
            <DistanceMeters>NAN</DistanceMeters>
          </Trackpoint>
          <Trackpoint>
            <Time>2020-12-05T14:09:26.000Z</Time>
            <Position>
              <LatitudeDegrees>36.81261942721903324127197265625</LatitudeDegrees>
              <LongitudeDegrees>-4.378223083913326263427734375</LongitudeDegrees>
            </Position>
            <AltitudeMeters>824.4000244140625</AltitudeMeters>
            <DistanceMeters>NAN</DistanceMeters>
          </Trackpoint>
          <Trackpoint>
            <Time>2020-12-05T14:09:27.000Z</Time>
            <Position>
              <LatitudeDegrees>36.81260526180267333984375</LatitudeDegrees>
              <LongitudeDegrees>-4.37823121435940265655517578125</LongitudeDegrees>
            </Position>
            <AltitudeMeters>824.20001220703125</AltitudeMeters>
            <DistanceMeters>NAN</DistanceMeters>
          </Trackpoint>
          <Trackpoint>
            <Time>2020-12-05T14:09:28.000Z</Time>
            <Position>
              <LatitudeDegrees>36.81258891709148883819580078125</LatitudeDegrees>
              <LongitudeDegrees>-4.37824378721415996551513671875</LongitudeDegrees>
            </Position>
            <AltitudeMeters>824</AltitudeMeters>
            <DistanceMeters>NAN</DistanceMeters>
          </Trackpoint>
          <Trackpoint>
            <Time>2020-12-05T14:09:29.000Z</Time>
            <Position>
              <LatitudeDegrees>36.81257768534123897552490234375</LatitudeDegrees>
              <LongitudeDegrees>-4.378251247107982635498046875</LongitudeDegrees>
            </Position>
            <AltitudeMeters>824</AltitudeMeters>
            <DistanceMeters>NAN</DistanceMeters>
          </Trackpoint>
          <Trackpoint>
            <Time>2020-12-05T14:09:30.000Z</Time>
            <Position>
              <LatitudeDegrees>36.812566034495830535888671875</LatitudeDegrees>
              <LongitudeDegrees>-4.3782584555447101593017578125</LongitudeDegrees>
            </Position>
            <AltitudeMeters>823.79998779296875</AltitudeMeters>
            <DistanceMeters>NAN</DistanceMeters>
          </Trackpoint>
          <Trackpoint>
            <Time>2020-12-05T14:09:31.000Z</Time>
            <Position>
              <LatitudeDegrees>36.81255404837429523468017578125</LatitudeDegrees>
              <LongitudeDegrees>-4.3782596290111541748046875</LongitudeDegrees>
            </Position>
            <AltitudeMeters>823.79998779296875</AltitudeMeters>
            <DistanceMeters>NAN</DistanceMeters>
          </Trackpoint>
          <Trackpoint>
            <Time>2020-12-05T14:09:32.000Z</Time>
            <Position>
              <LatitudeDegrees>36.812540553510189056396484375</LatitudeDegrees>
              <LongitudeDegrees>-4.37825803644955158233642578125</LongitudeDegrees>
            </Position>
            <AltitudeMeters>823.79998779296875</AltitudeMeters>
            <DistanceMeters>NAN</DistanceMeters>
          </Trackpoint>
          <Trackpoint>
            <Time>2020-12-05T14:09:33.000Z</Time>
            <Position>
              <LatitudeDegrees>36.812526471912860870361328125</LatitudeDegrees>
              <LongitudeDegrees>-4.3782561086118221282958984375</LongitudeDegrees>
            </Position>
            <AltitudeMeters>823.5999755859375</AltitudeMeters>
            <DistanceMeters>NAN</DistanceMeters>
          </Trackpoint>
          <Trackpoint>
            <Time>2020-12-05T14:09:34.000Z</Time>
            <Position>
              <LatitudeDegrees>36.81251415051519870758056640625</LatitudeDegrees>
              <LongitudeDegrees>-4.3782551027834415435791015625</LongitudeDegrees>
            </Position>
            <AltitudeMeters>823.4000244140625</AltitudeMeters>
            <DistanceMeters>NAN</DistanceMeters>
          </Trackpoint>
          <Trackpoint>
            <Time>2020-12-05T14:09:35.000Z</Time>
            <Position>
              <LatitudeDegrees>36.81250006891787052154541015625</LatitudeDegrees>
              <LongitudeDegrees>-4.378253929316997528076171875</LongitudeDegrees>
            </Position>
            <AltitudeMeters>823.20001220703125</AltitudeMeters>
            <DistanceMeters>NAN</DistanceMeters>
          </Trackpoint>
          <Trackpoint>
            <Time>2020-12-05T14:09:36.000Z</Time>
            <Position>
              <LatitudeDegrees>36.81248732842504978179931640625</LatitudeDegrees>
              <LongitudeDegrees>-4.37825149856507778167724609375</LongitudeDegrees>
            </Position>
            <AltitudeMeters>823</AltitudeMeters>
            <DistanceMeters>NAN</DistanceMeters>
          </Trackpoint>
          <Trackpoint>
            <Time>2020-12-05T14:09:37.000Z</Time>
            <Position>
              <LatitudeDegrees>36.8124743364751338958740234375</LatitudeDegrees>
              <LongitudeDegrees>-4.3782489001750946044921875</LongitudeDegrees>
            </Position>
            <AltitudeMeters>823</AltitudeMeters>
            <DistanceMeters>NAN</DistanceMeters>
          </Trackpoint>
          <Trackpoint>
            <Time>2020-12-05T14:09:38.000Z</Time>
            <Position>
              <LatitudeDegrees>36.81246419437229633331298828125</LatitudeDegrees>
              <LongitudeDegrees>-4.3782457150518894195556640625</LongitudeDegrees>
            </Position>
            <AltitudeMeters>822.79998779296875</AltitudeMeters>
            <DistanceMeters>NAN</DistanceMeters>
          </Trackpoint>
          <Trackpoint>
            <Time>2020-12-05T14:09:39.000Z</Time>
            <Position>
              <LatitudeDegrees>36.8124555610120296478271484375</LatitudeDegrees>
              <LongitudeDegrees>-4.37823993153870105743408203125</LongitudeDegrees>
            </Position>
            <AltitudeMeters>822.5999755859375</AltitudeMeters>
            <DistanceMeters>NAN</DistanceMeters>
          </Trackpoint>
          <Trackpoint>
            <Time>2020-12-05T14:09:40.000Z</Time>
            <Position>
              <LatitudeDegrees>36.81244676001369953155517578125</LatitudeDegrees>
              <LongitudeDegrees>-4.3782346509397029876708984375</LongitudeDegrees>
            </Position>
            <AltitudeMeters>822.4000244140625</AltitudeMeters>
            <DistanceMeters>NAN</DistanceMeters>
          </Trackpoint>
          <Trackpoint>
            <Time>2020-12-05T14:09:41.000Z</Time>
            <Position>
              <LatitudeDegrees>36.81243695318698883056640625</LatitudeDegrees>
              <LongitudeDegrees>-4.37823389656841754913330078125</LongitudeDegrees>
            </Position>
            <AltitudeMeters>822.4000244140625</AltitudeMeters>
            <DistanceMeters>NAN</DistanceMeters>
          </Trackpoint>
          <Trackpoint>
            <Time>2020-12-05T14:09:42.000Z</Time>
            <Position>
              <LatitudeDegrees>36.81242546997964382171630859375</LatitudeDegrees>
              <LongitudeDegrees>-4.37823222018778324127197265625</LongitudeDegrees>
            </Position>
            <AltitudeMeters>822.20001220703125</AltitudeMeters>
            <DistanceMeters>NAN</DistanceMeters>
          </Trackpoint>
          <Trackpoint>
            <Time>2020-12-05T14:09:43.000Z</Time>
            <Position>
              <LatitudeDegrees>36.812413148581981658935546875</LatitudeDegrees>
              <LongitudeDegrees>-4.37822987325489521026611328125</LongitudeDegrees>
            </Position>
            <AltitudeMeters>822.20001220703125</AltitudeMeters>
            <DistanceMeters>NAN</DistanceMeters>
          </Trackpoint>
          <Trackpoint>
            <Time>2020-12-05T14:09:44.000Z</Time>
            <Position>
              <LatitudeDegrees>36.8124000728130340576171875</LatitudeDegrees>
              <LongitudeDegrees>-4.378225095570087432861328125</LongitudeDegrees>
            </Position>
            <AltitudeMeters>822.20001220703125</AltitudeMeters>
            <DistanceMeters>NAN</DistanceMeters>
          </Trackpoint>
          <Trackpoint>
            <Time>2020-12-05T14:09:45.000Z</Time>
            <Position>
              <LatitudeDegrees>36.812388002872467041015625</LatitudeDegrees>
              <LongitudeDegrees>-4.378219731152057647705078125</LongitudeDegrees>
            </Position>
            <AltitudeMeters>822.20001220703125</AltitudeMeters>
            <DistanceMeters>NAN</DistanceMeters>
          </Trackpoint>
          <Trackpoint>
            <Time>2020-12-05T14:09:46.000Z</Time>
            <Position>
              <LatitudeDegrees>36.81237526237964630126953125</LatitudeDegrees>
              <LongitudeDegrees>-4.3782141990959644317626953125</LongitudeDegrees>
            </Position>
            <AltitudeMeters>822.20001220703125</AltitudeMeters>
            <DistanceMeters>NAN</DistanceMeters>
          </Trackpoint>
          <Trackpoint>
            <Time>2020-12-05T14:09:47.000Z</Time>
            <Position>
              <LatitudeDegrees>36.812361516058444976806640625</LatitudeDegrees>
              <LongitudeDegrees>-4.37820942141115665435791015625</LongitudeDegrees>
            </Position>
            <AltitudeMeters>822.4000244140625</AltitudeMeters>
            <DistanceMeters>NAN</DistanceMeters>
          </Trackpoint>
          <Trackpoint>
            <Time>2020-12-05T14:09:48.000Z</Time>
            <Position>
              <LatitudeDegrees>36.81234776973724365234375</LatitudeDegrees>
              <LongitudeDegrees>-4.3782024644315242767333984375</LongitudeDegrees>
            </Position>
            <AltitudeMeters>822.4000244140625</AltitudeMeters>
            <DistanceMeters>NAN</DistanceMeters>
          </Trackpoint>
          <Trackpoint>
            <Time>2020-12-05T14:09:49.000Z</Time>
            <Position>
              <LatitudeDegrees>36.81233427487313747406005859375</LatitudeDegrees>
              <LongitudeDegrees>-4.37819701619446277618408203125</LongitudeDegrees>
            </Position>
            <AltitudeMeters>822.20001220703125</AltitudeMeters>
            <DistanceMeters>NAN</DistanceMeters>
          </Trackpoint>
          <Trackpoint>
            <Time>2020-12-05T14:09:50.000Z</Time>
            <Position>
              <LatitudeDegrees>36.8123234622180461883544921875</LatitudeDegrees>
              <LongitudeDegrees>-4.37819248996675014495849609375</LongitudeDegrees>
            </Position>
            <AltitudeMeters>822.20001220703125</AltitudeMeters>
            <DistanceMeters>NAN</DistanceMeters>
          </Trackpoint>
          <Trackpoint>
            <Time>2020-12-05T14:09:51.000Z</Time>
            <Position>
              <LatitudeDegrees>36.812314577400684356689453125</LatitudeDegrees>
              <LongitudeDegrees>-4.37818695791065692901611328125</LongitudeDegrees>
            </Position>
            <AltitudeMeters>822.20001220703125</AltitudeMeters>
            <DistanceMeters>NAN</DistanceMeters>
          </Trackpoint>
          <Trackpoint>
            <Time>2020-12-05T14:09:52.000Z</Time>
            <Position>
              <LatitudeDegrees>36.81230493821203708648681640625</LatitudeDegrees>
              <LongitudeDegrees>-4.37818259932100772857666015625</LongitudeDegrees>
            </Position>
            <AltitudeMeters>822</AltitudeMeters>
            <DistanceMeters>NAN</DistanceMeters>
          </Trackpoint>
          <Trackpoint>
            <Time>2020-12-05T14:09:53.000Z</Time>
            <Position>
              <LatitudeDegrees>36.81229454465210437774658203125</LatitudeDegrees>
              <LongitudeDegrees>-4.378182850778102874755859375</LongitudeDegrees>
            </Position>
            <AltitudeMeters>821.79998779296875</AltitudeMeters>
            <DistanceMeters>NAN</DistanceMeters>
          </Trackpoint>
          <Trackpoint>
            <Time>2020-12-05T14:09:54.000Z</Time>
            <Position>
              <LatitudeDegrees>36.81228465400636196136474609375</LatitudeDegrees>
              <LongitudeDegrees>-4.3781826831400394439697265625</LongitudeDegrees>
            </Position>
            <AltitudeMeters>821.5999755859375</AltitudeMeters>
            <DistanceMeters>NAN</DistanceMeters>
          </Trackpoint>
          <Trackpoint>
            <Time>2020-12-05T14:09:55.000Z</Time>
            <Position>
              <LatitudeDegrees>36.81227593682706356048583984375</LatitudeDegrees>
              <LongitudeDegrees>-4.37818192876875400543212890625</LongitudeDegrees>
            </Position>
            <AltitudeMeters>821.20001220703125</AltitudeMeters>
            <DistanceMeters>NAN</DistanceMeters>
          </Trackpoint>
          <Trackpoint>
            <Time>2020-12-05T14:09:56.000Z</Time>
            <Position>
              <LatitudeDegrees>36.81226772256195545196533203125</LatitudeDegrees>
              <LongitudeDegrees>-4.378182180225849151611328125</LongitudeDegrees>
            </Position>
            <AltitudeMeters>821</AltitudeMeters>
            <DistanceMeters>NAN</DistanceMeters>
          </Trackpoint>
          <Trackpoint>
            <Time>2020-12-05T14:09:57.000Z</Time>
            <Position>
              <LatitudeDegrees>36.8122605979442596435546875</LatitudeDegrees>
              <LongitudeDegrees>-4.3781816773116588592529296875</LongitudeDegrees>
            </Position>
            <AltitudeMeters>821</AltitudeMeters>
            <DistanceMeters>NAN</DistanceMeters>
          </Trackpoint>
          <Trackpoint>
            <Time>2020-12-05T14:09:58.000Z</Time>
            <Position>
              <LatitudeDegrees>36.81225397624075412750244140625</LatitudeDegrees>
              <LongitudeDegrees>-4.3781816773116588592529296875</LongitudeDegrees>
            </Position>
            <AltitudeMeters>820.79998779296875</AltitudeMeters>
            <DistanceMeters>NAN</DistanceMeters>
          </Trackpoint>
          <Trackpoint>
            <Time>2020-12-05T14:09:59.000Z</Time>
            <Position>
              <LatitudeDegrees>36.812244169414043426513671875</LatitudeDegrees>
              <LongitudeDegrees>-4.37818117439746856689453125</LongitudeDegrees>
            </Position>
            <AltitudeMeters>820.5999755859375</AltitudeMeters>
            <DistanceMeters>NAN</DistanceMeters>
          </Trackpoint>
          <Trackpoint>
            <Time>2020-12-05T14:10:00.000Z</Time>
            <Position>
              <LatitudeDegrees>36.8122337758541107177734375</LatitudeDegrees>
              <LongitudeDegrees>-4.37817907892167568206787109375</LongitudeDegrees>
            </Position>
            <AltitudeMeters>820.4000244140625</AltitudeMeters>
            <DistanceMeters>NAN</DistanceMeters>
          </Trackpoint>
          <Trackpoint>
            <Time>2020-12-05T14:10:01.000Z</Time>
            <Position>
              <LatitudeDegrees>36.8122222088277339935302734375</LatitudeDegrees>
              <LongitudeDegrees>-4.378176815807819366455078125</LongitudeDegrees>
            </Position>
            <AltitudeMeters>820.20001220703125</AltitudeMeters>
            <DistanceMeters>NAN</DistanceMeters>
          </Trackpoint>
          <Trackpoint>
            <Time>2020-12-05T14:10:02.000Z</Time>
            <Position>
              <LatitudeDegrees>36.81220896542072296142578125</LatitudeDegrees>
              <LongitudeDegrees>-4.37817589379847049713134765625</LongitudeDegrees>
            </Position>
            <AltitudeMeters>820</AltitudeMeters>
            <DistanceMeters>NAN</DistanceMeters>
          </Trackpoint>
          <Trackpoint>
            <Time>2020-12-05T14:10:03.000Z</Time>
            <Position>
              <LatitudeDegrees>36.81219463236629962921142578125</LatitudeDegrees>
              <LongitudeDegrees>-4.3781702779233455657958984375</LongitudeDegrees>
            </Position>
            <AltitudeMeters>819.79998779296875</AltitudeMeters>
            <DistanceMeters>NAN</DistanceMeters>
          </Trackpoint>
          <Trackpoint>
            <Time>2020-12-05T14:10:04.000Z</Time>
            <Position>
              <LatitudeDegrees>36.8121828138828277587890625</LatitudeDegrees>
              <LongitudeDegrees>-4.37816851772367954254150390625</LongitudeDegrees>
            </Position>
            <AltitudeMeters>819.5999755859375</AltitudeMeters>
            <DistanceMeters>NAN</DistanceMeters>
          </Trackpoint>
          <Trackpoint>
            <Time>2020-12-05T14:10:05.000Z</Time>
            <Position>
              <LatitudeDegrees>36.81216998957097530364990234375</LatitudeDegrees>
              <LongitudeDegrees>-4.3781699426472187042236328125</LongitudeDegrees>
            </Position>
            <AltitudeMeters>819.5999755859375</AltitudeMeters>
            <DistanceMeters>NAN</DistanceMeters>
          </Trackpoint>
          <Trackpoint>
            <Time>2020-12-05T14:10:06.000Z</Time>
            <Position>
              <LatitudeDegrees>36.81215641088783740997314453125</LatitudeDegrees>
              <LongitudeDegrees>-4.3781692720949649810791015625</LongitudeDegrees>
            </Position>
            <AltitudeMeters>819.5999755859375</AltitudeMeters>
            <DistanceMeters>NAN</DistanceMeters>
          </Trackpoint>
          <Trackpoint>
            <Time>2020-12-05T14:10:07.000Z</Time>
            <Position>
              <LatitudeDegrees>36.81214266456663608551025390625</LatitudeDegrees>
              <LongitudeDegrees>-4.37816885299980640411376953125</LongitudeDegrees>
            </Position>
            <AltitudeMeters>819.5999755859375</AltitudeMeters>
            <DistanceMeters>NAN</DistanceMeters>
          </Trackpoint>
          <Trackpoint>
            <Time>2020-12-05T14:10:08.000Z</Time>
            <Position>
              <LatitudeDegrees>36.8121318519115447998046875</LatitudeDegrees>
              <LongitudeDegrees>-4.37816432677209377288818359375</LongitudeDegrees>
            </Position>
            <AltitudeMeters>819.5999755859375</AltitudeMeters>
            <DistanceMeters>NAN</DistanceMeters>
          </Trackpoint>
          <Trackpoint>
            <Time>2020-12-05T14:10:09.000Z</Time>
            <Position>
              <LatitudeDegrees>36.81211911141872406005859375</LatitudeDegrees>
              <LongitudeDegrees>-4.378167428076267242431640625</LongitudeDegrees>
            </Position>
            <AltitudeMeters>819.5999755859375</AltitudeMeters>
            <DistanceMeters>NAN</DistanceMeters>
          </Trackpoint>
          <Trackpoint>
            <Time>2020-12-05T14:10:10.000Z</Time>
            <Position>
              <LatitudeDegrees>36.81210679002106189727783203125</LatitudeDegrees>
              <LongitudeDegrees>-4.3781679309904575347900390625</LongitudeDegrees>
            </Position>
            <AltitudeMeters>819.5999755859375</AltitudeMeters>
            <DistanceMeters>NAN</DistanceMeters>
          </Trackpoint>
          <Trackpoint>
            <Time>2020-12-05T14:10:11.000Z</Time>
            <Position>
              <LatitudeDegrees>36.81209606118500232696533203125</LatitudeDegrees>
              <LongitudeDegrees>-4.37817178666591644287109375</LongitudeDegrees>
            </Position>
            <AltitudeMeters>819.5999755859375</AltitudeMeters>
            <DistanceMeters>NAN</DistanceMeters>
          </Trackpoint>
          <Trackpoint>
            <Time>2020-12-05T14:10:12.000Z</Time>
            <Position>
              <LatitudeDegrees>36.81208549998700618743896484375</LatitudeDegrees>
              <LongitudeDegrees>-4.37817723490297794342041015625</LongitudeDegrees>
            </Position>
            <AltitudeMeters>819.4000244140625</AltitudeMeters>
            <DistanceMeters>NAN</DistanceMeters>
          </Trackpoint>
          <Trackpoint>
            <Time>2020-12-05T14:10:13.000Z</Time>
            <Position>
              <LatitudeDegrees>36.81207477115094661712646484375</LatitudeDegrees>
              <LongitudeDegrees>-4.378184191882610321044921875</LongitudeDegrees>
            </Position>
            <AltitudeMeters>819.4000244140625</AltitudeMeters>
            <DistanceMeters>NAN</DistanceMeters>
          </Trackpoint>
          <Trackpoint>
            <Time>2020-12-05T14:10:14.000Z</Time>
            <Position>
              <LatitudeDegrees>36.8120622821152210235595703125</LatitudeDegrees>
              <LongitudeDegrees>-4.37818679027259349822998046875</LongitudeDegrees>
            </Position>
            <AltitudeMeters>819.20001220703125</AltitudeMeters>
            <DistanceMeters>NAN</DistanceMeters>
          </Trackpoint>
          <Trackpoint>
            <Time>2020-12-05T14:10:15.000Z</Time>
            <Position>
              <LatitudeDegrees>36.81205046363174915313720703125</LatitudeDegrees>
              <LongitudeDegrees>-4.3781907297670841217041015625</LongitudeDegrees>
            </Position>
            <AltitudeMeters>819</AltitudeMeters>
            <DistanceMeters>NAN</DistanceMeters>
          </Trackpoint>
          <Trackpoint>
            <Time>2020-12-05T14:10:16.000Z</Time>
            <Position>
              <LatitudeDegrees>36.8120419979095458984375</LatitudeDegrees>
              <LongitudeDegrees>-4.37819324433803558349609375</LongitudeDegrees>
            </Position>
            <AltitudeMeters>818.79998779296875</AltitudeMeters>
            <DistanceMeters>NAN</DistanceMeters>
          </Trackpoint>
          <Trackpoint>
            <Time>2020-12-05T14:10:17.000Z</Time>
            <Position>
              <LatitudeDegrees>36.812032274901866912841796875</LatitudeDegrees>
              <LongitudeDegrees>-4.3781934119760990142822265625</LongitudeDegrees>
            </Position>
            <AltitudeMeters>818.79998779296875</AltitudeMeters>
            <DistanceMeters>NAN</DistanceMeters>
          </Trackpoint>
          <Trackpoint>
            <Time>2020-12-05T14:10:18.000Z</Time>
            <Position>
              <LatitudeDegrees>36.8120245635509490966796875</LatitudeDegrees>
              <LongitudeDegrees>-4.378196932375431060791015625</LongitudeDegrees>
            </Position>
            <AltitudeMeters>818.5999755859375</AltitudeMeters>
            <DistanceMeters>NAN</DistanceMeters>
          </Trackpoint>
          <Trackpoint>
            <Time>2020-12-05T14:10:19.000Z</Time>
            <Position>
              <LatitudeDegrees>36.8120180256664752960205078125</LatitudeDegrees>
              <LongitudeDegrees>-4.37820003367960453033447265625</LongitudeDegrees>
            </Position>
            <AltitudeMeters>818.4000244140625</AltitudeMeters>
            <DistanceMeters>NAN</DistanceMeters>
          </Trackpoint>
          <Trackpoint>
            <Time>2020-12-05T14:10:20.000Z</Time>
            <Position>
              <LatitudeDegrees>36.81201190687716007232666015625</LatitudeDegrees>
              <LongitudeDegrees>-4.37821260653436183929443359375</LongitudeDegrees>
            </Position>
            <AltitudeMeters>818.20001220703125</AltitudeMeters>
            <DistanceMeters>NAN</DistanceMeters>
          </Trackpoint>
          <Trackpoint>
            <Time>2020-12-05T14:10:21.000Z</Time>
            <Position>
              <LatitudeDegrees>36.81200268678367137908935546875</LatitudeDegrees>
              <LongitudeDegrees>-4.3782152049243450164794921875</LongitudeDegrees>
            </Position>
            <AltitudeMeters>818</AltitudeMeters>
            <DistanceMeters>NAN</DistanceMeters>
          </Trackpoint>
          <Trackpoint>
            <Time>2020-12-05T14:10:22.000Z</Time>
            <Position>
              <LatitudeDegrees>36.811991371214389801025390625</LatitudeDegrees>
              <LongitudeDegrees>-4.37821646220982074737548828125</LongitudeDegrees>
            </Position>
            <AltitudeMeters>818</AltitudeMeters>
            <DistanceMeters>NAN</DistanceMeters>
          </Trackpoint>
          <Trackpoint>
            <Time>2020-12-05T14:10:23.000Z</Time>
            <Position>
              <LatitudeDegrees>36.81197754107415676116943359375</LatitudeDegrees>
              <LongitudeDegrees>-4.37822082079946994781494140625</LongitudeDegrees>
            </Position>
            <AltitudeMeters>817.79998779296875</AltitudeMeters>
            <DistanceMeters>NAN</DistanceMeters>
          </Trackpoint>
          <Trackpoint>
            <Time>2020-12-05T14:10:24.000Z</Time>
            <Position>
              <LatitudeDegrees>36.81196220219135284423828125</LatitudeDegrees>
              <LongitudeDegrees>-4.37822652049362659454345703125</LongitudeDegrees>
            </Position>
            <AltitudeMeters>817.79998779296875</AltitudeMeters>
            <DistanceMeters>NAN</DistanceMeters>
          </Trackpoint>
          <Trackpoint>
            <Time>2020-12-05T14:10:25.000Z</Time>
            <Position>
              <LatitudeDegrees>36.81194837205111980438232421875</LatitudeDegrees>
              <LongitudeDegrees>-4.3782346509397029876708984375</LongitudeDegrees>
            </Position>
            <AltitudeMeters>817.5999755859375</AltitudeMeters>
            <DistanceMeters>NAN</DistanceMeters>
          </Trackpoint>
          <Trackpoint>
            <Time>2020-12-05T14:10:26.000Z</Time>
            <Position>
              <LatitudeDegrees>36.81193479336798191070556640625</LatitudeDegrees>
              <LongitudeDegrees>-4.37824060209095478057861328125</LongitudeDegrees>
            </Position>
            <AltitudeMeters>817.5999755859375</AltitudeMeters>
            <DistanceMeters>NAN</DistanceMeters>
          </Trackpoint>
          <Trackpoint>
            <Time>2020-12-05T14:10:27.000Z</Time>
            <Position>
              <LatitudeDegrees>36.81192054413259029388427734375</LatitudeDegrees>
              <LongitudeDegrees>-4.3782430328428745269775390625</LongitudeDegrees>
            </Position>
            <AltitudeMeters>817.5999755859375</AltitudeMeters>
            <DistanceMeters>NAN</DistanceMeters>
          </Trackpoint>
          <Trackpoint>
            <Time>2020-12-05T14:10:28.000Z</Time>
            <Position>
              <LatitudeDegrees>36.81190411560237407684326171875</LatitudeDegrees>
              <LongitudeDegrees>-4.378243200480937957763671875</LongitudeDegrees>
            </Position>
            <AltitudeMeters>817.4000244140625</AltitudeMeters>
            <DistanceMeters>NAN</DistanceMeters>
          </Trackpoint>
          <Trackpoint>
            <Time>2020-12-05T14:10:29.000Z</Time>
            <Position>
              <LatitudeDegrees>36.811887435615062713623046875</LatitudeDegrees>
              <LongitudeDegrees>-4.3782433681190013885498046875</LongitudeDegrees>
            </Position>
            <AltitudeMeters>817.20001220703125</AltitudeMeters>
            <DistanceMeters>NAN</DistanceMeters>
          </Trackpoint>
          <Trackpoint>
            <Time>2020-12-05T14:10:30.000Z</Time>
            <Position>
              <LatitudeDegrees>36.811873018741607666015625</LatitudeDegrees>
              <LongitudeDegrees>-4.378245882689952850341796875</LongitudeDegrees>
            </Position>
            <AltitudeMeters>817</AltitudeMeters>
            <DistanceMeters>NAN</DistanceMeters>
          </Trackpoint>
          <Trackpoint>
            <Time>2020-12-05T14:10:31.000Z</Time>
            <Position>
              <LatitudeDegrees>36.8118624575436115264892578125</LatitudeDegrees>
              <LongitudeDegrees>-4.37824764288961887359619140625</LongitudeDegrees>
            </Position>
            <AltitudeMeters>816.79998779296875</AltitudeMeters>
            <DistanceMeters>NAN</DistanceMeters>
          </Trackpoint>
          <Trackpoint>
            <Time>2020-12-05T14:10:32.000Z</Time>
            <Position>
              <LatitudeDegrees>36.81185399182140827178955078125</LatitudeDegrees>
              <LongitudeDegrees>-4.3782462179660797119140625</LongitudeDegrees>
            </Position>
            <AltitudeMeters>816.79998779296875</AltitudeMeters>
            <DistanceMeters>NAN</DistanceMeters>
          </Trackpoint>
          <Trackpoint>
            <Time>2020-12-05T14:10:33.000Z</Time>
            <Position>
              <LatitudeDegrees>36.81184661574661731719970703125</LatitudeDegrees>
              <LongitudeDegrees>-4.3782423622906208038330078125</LongitudeDegrees>
            </Position>
            <AltitudeMeters>816.79998779296875</AltitudeMeters>
            <DistanceMeters>NAN</DistanceMeters>
          </Trackpoint>
          <Trackpoint>
            <Time>2020-12-05T14:10:34.000Z</Time>
            <Position>
              <LatitudeDegrees>36.8118373118340969085693359375</LatitudeDegrees>
              <LongitudeDegrees>-4.3782440386712551116943359375</LongitudeDegrees>
            </Position>
            <AltitudeMeters>816.79998779296875</AltitudeMeters>
            <DistanceMeters>NAN</DistanceMeters>
          </Trackpoint>
          <Trackpoint>
            <Time>2020-12-05T14:10:35.000Z</Time>
            <Position>
              <LatitudeDegrees>36.8118265829980373382568359375</LatitudeDegrees>
              <LongitudeDegrees>-4.3782462179660797119140625</LongitudeDegrees>
            </Position>
            <AltitudeMeters>816.79998779296875</AltitudeMeters>
            <DistanceMeters>NAN</DistanceMeters>
          </Trackpoint>
          <Trackpoint>
            <Time>2020-12-05T14:10:36.000Z</Time>
            <Position>
              <LatitudeDegrees>36.81181694380939006805419921875</LatitudeDegrees>
              <LongitudeDegrees>-4.37824613414704799652099609375</LongitudeDegrees>
            </Position>
            <AltitudeMeters>816.79998779296875</AltitudeMeters>
            <DistanceMeters>NAN</DistanceMeters>
          </Trackpoint>
          <Trackpoint>
            <Time>2020-12-05T14:10:37.000Z</Time>
            <Position>
              <LatitudeDegrees>36.8118057958781719207763671875</LatitudeDegrees>
              <LongitudeDegrees>-4.37824747525155544281005859375</LongitudeDegrees>
            </Position>
            <AltitudeMeters>816.79998779296875</AltitudeMeters>
            <DistanceMeters>NAN</DistanceMeters>
          </Trackpoint>
          <Trackpoint>
            <Time>2020-12-05T14:10:38.000Z</Time>
            <Position>
              <LatitudeDegrees>36.81179297156631946563720703125</LatitudeDegrees>
              <LongitudeDegrees>-4.378252588212490081787109375</LongitudeDegrees>
            </Position>
            <AltitudeMeters>817</AltitudeMeters>
            <DistanceMeters>NAN</DistanceMeters>
          </Trackpoint>
          <Trackpoint>
            <Time>2020-12-05T14:10:39.000Z</Time>
            <Position>
              <LatitudeDegrees>36.8117793090641498565673828125</LatitudeDegrees>
              <LongitudeDegrees>-4.37825384549796581268310546875</LongitudeDegrees>
            </Position>
            <AltitudeMeters>817</AltitudeMeters>
            <DistanceMeters>NAN</DistanceMeters>
          </Trackpoint>
          <Trackpoint>
            <Time>2020-12-05T14:10:40.000Z</Time>
            <Position>
              <LatitudeDegrees>36.81176581420004367828369140625</LatitudeDegrees>
              <LongitudeDegrees>-4.3782597966492176055908203125</LongitudeDegrees>
            </Position>
            <AltitudeMeters>817.20001220703125</AltitudeMeters>
            <DistanceMeters>NAN</DistanceMeters>
          </Trackpoint>
          <Trackpoint>
            <Time>2020-12-05T14:10:41.000Z</Time>
            <Position>
              <LatitudeDegrees>36.8117544986307621002197265625</LatitudeDegrees>
              <LongitudeDegrees>-4.3782614730298519134521484375</LongitudeDegrees>
            </Position>
            <AltitudeMeters>817.20001220703125</AltitudeMeters>
            <DistanceMeters>NAN</DistanceMeters>
          </Trackpoint>
          <Trackpoint>
            <Time>2020-12-05T14:10:42.000Z</Time>
            <Position>
              <LatitudeDegrees>36.81174452416598796844482421875</LatitudeDegrees>
              <LongitudeDegrees>-4.3782596290111541748046875</LongitudeDegrees>
            </Position>
            <AltitudeMeters>817</AltitudeMeters>
            <DistanceMeters>NAN</DistanceMeters>
          </Trackpoint>
          <Trackpoint>
            <Time>2020-12-05T14:10:43.000Z</Time>
            <Position>
              <LatitudeDegrees>36.811733879148960113525390625</LatitudeDegrees>
              <LongitudeDegrees>-4.3782608024775981903076171875</LongitudeDegrees>
            </Position>
            <AltitudeMeters>817</AltitudeMeters>
            <DistanceMeters>NAN</DistanceMeters>
          </Trackpoint>
          <Trackpoint>
            <Time>2020-12-05T14:10:44.000Z</Time>
            <Position>
              <LatitudeDegrees>36.8117249943315982818603515625</LatitudeDegrees>
              <LongitudeDegrees>-4.37826038338243961334228515625</LongitudeDegrees>
            </Position>
            <AltitudeMeters>817</AltitudeMeters>
            <DistanceMeters>NAN</DistanceMeters>
          </Trackpoint>
          <Trackpoint>
            <Time>2020-12-05T14:10:45.000Z</Time>
            <Position>
              <LatitudeDegrees>36.81171401403844356536865234375</LatitudeDegrees>
              <LongitudeDegrees>-4.3782611377537250518798828125</LongitudeDegrees>
            </Position>
            <AltitudeMeters>817</AltitudeMeters>
            <DistanceMeters>NAN</DistanceMeters>
          </Trackpoint>
          <Trackpoint>
            <Time>2020-12-05T14:10:46.000Z</Time>
            <Position>
              <LatitudeDegrees>36.8117032013833522796630859375</LatitudeDegrees>
              <LongitudeDegrees>-4.37826029956340789794921875</LongitudeDegrees>
            </Position>
            <AltitudeMeters>817</AltitudeMeters>
            <DistanceMeters>NAN</DistanceMeters>
          </Trackpoint>
          <Trackpoint>
            <Time>2020-12-05T14:10:47.000Z</Time>
            <Position>
              <LatitudeDegrees>36.811692975461483001708984375</LatitudeDegrees>
              <LongitudeDegrees>-4.37825920991599559783935546875</LongitudeDegrees>
            </Position>
            <AltitudeMeters>817</AltitudeMeters>
            <DistanceMeters>NAN</DistanceMeters>
          </Trackpoint>
          <Trackpoint>
            <Time>2020-12-05T14:10:48.000Z</Time>
            <Position>
              <LatitudeDegrees>36.81168015114963054656982421875</LatitudeDegrees>
              <LongitudeDegrees>-4.37826029956340789794921875</LongitudeDegrees>
            </Position>
            <AltitudeMeters>816.79998779296875</AltitudeMeters>
            <DistanceMeters>NAN</DistanceMeters>
          </Trackpoint>
          <Trackpoint>
            <Time>2020-12-05T14:10:49.000Z</Time>
            <Position>
              <LatitudeDegrees>36.81166724301874637603759765625</LatitudeDegrees>
              <LongitudeDegrees>-4.37826029956340789794921875</LongitudeDegrees>
            </Position>
            <AltitudeMeters>817</AltitudeMeters>
            <DistanceMeters>NAN</DistanceMeters>
          </Trackpoint>
          <Trackpoint>
            <Time>2020-12-05T14:10:50.000Z</Time>
            <Position>
              <LatitudeDegrees>36.8116529099643230438232421875</LatitudeDegrees>
              <LongitudeDegrees>-4.37826407141983509063720703125</LongitudeDegrees>
            </Position>
            <AltitudeMeters>817</AltitudeMeters>
            <DistanceMeters>NAN</DistanceMeters>
          </Trackpoint>
          <Trackpoint>
            <Time>2020-12-05T14:10:51.000Z</Time>
            <Position>
              <LatitudeDegrees>36.8116384930908679962158203125</LatitudeDegrees>
              <LongitudeDegrees>-4.37826373614370822906494140625</LongitudeDegrees>
            </Position>
            <AltitudeMeters>817.20001220703125</AltitudeMeters>
            <DistanceMeters>NAN</DistanceMeters>
          </Trackpoint>
          <Trackpoint>
            <Time>2020-12-05T14:10:52.000Z</Time>
            <Position>
              <LatitudeDegrees>36.8116249144077301025390625</LatitudeDegrees>
              <LongitudeDegrees>-4.37826323322951793670654296875</LongitudeDegrees>
            </Position>
            <AltitudeMeters>817.20001220703125</AltitudeMeters>
            <DistanceMeters>NAN</DistanceMeters>
          </Trackpoint>
          <Trackpoint>
            <Time>2020-12-05T14:10:53.000Z</Time>
            <Position>
              <LatitudeDegrees>36.8116115033626556396484375</LatitudeDegrees>
              <LongitudeDegrees>-4.37826189212501049041748046875</LongitudeDegrees>
            </Position>
            <AltitudeMeters>817.4000244140625</AltitudeMeters>
            <DistanceMeters>NAN</DistanceMeters>
          </Trackpoint>
          <Trackpoint>
            <Time>2020-12-05T14:10:54.000Z</Time>
            <Position>
              <LatitudeDegrees>36.81159918196499347686767578125</LatitudeDegrees>
              <LongitudeDegrees>-4.37826004810631275177001953125</LongitudeDegrees>
            </Position>
            <AltitudeMeters>817.4000244140625</AltitudeMeters>
            <DistanceMeters>NAN</DistanceMeters>
          </Trackpoint>
          <Trackpoint>
            <Time>2020-12-05T14:10:55.000Z</Time>
            <Position>
              <LatitudeDegrees>36.81159130297601222991943359375</LatitudeDegrees>
              <LongitudeDegrees>-4.3782567791640758514404296875</LongitudeDegrees>
            </Position>
            <AltitudeMeters>817.4000244140625</AltitudeMeters>
            <DistanceMeters>NAN</DistanceMeters>
          </Trackpoint>
          <Trackpoint>
            <Time>2020-12-05T14:10:56.000Z</Time>
            <Position>
              <LatitudeDegrees>36.81158476509153842926025390625</LatitudeDegrees>
              <LongitudeDegrees>-4.37825451605021953582763671875</LongitudeDegrees>
            </Position>
            <AltitudeMeters>817.4000244140625</AltitudeMeters>
            <DistanceMeters>NAN</DistanceMeters>
          </Trackpoint>
          <Trackpoint>
            <Time>2020-12-05T14:10:57.000Z</Time>
            <Position>
              <LatitudeDegrees>36.81157805956900119781494140625</LatitudeDegrees>
              <LongitudeDegrees>-4.3782520852982997894287109375</LongitudeDegrees>
            </Position>
            <AltitudeMeters>817.4000244140625</AltitudeMeters>
            <DistanceMeters>NAN</DistanceMeters>
          </Trackpoint>
          <Trackpoint>
            <Time>2020-12-05T14:10:58.000Z</Time>
            <Position>
              <LatitudeDegrees>36.8115712702274322509765625</LatitudeDegrees>
              <LongitudeDegrees>-4.3782500736415386199951171875</LongitudeDegrees>
            </Position>
            <AltitudeMeters>817.4000244140625</AltitudeMeters>
            <DistanceMeters>NAN</DistanceMeters>
          </Trackpoint>
          <Trackpoint>
            <Time>2020-12-05T14:10:59.000Z</Time>
            <Position>
              <LatitudeDegrees>36.8115637265145778656005859375</LatitudeDegrees>
              <LongitudeDegrees>-4.37824848107993602752685546875</LongitudeDegrees>
            </Position>
            <AltitudeMeters>817.4000244140625</AltitudeMeters>
            <DistanceMeters>NAN</DistanceMeters>
          </Trackpoint>
          <Trackpoint>
            <Time>2020-12-05T14:11:00.000Z</Time>
            <Position>
              <LatitudeDegrees>36.81155509315431118011474609375</LatitudeDegrees>
              <LongitudeDegrees>-4.37825024127960205078125</LongitudeDegrees>
            </Position>
            <AltitudeMeters>817.20001220703125</AltitudeMeters>
            <DistanceMeters>NAN</DistanceMeters>
          </Trackpoint>
          <Trackpoint>
            <Time>2020-12-05T14:11:01.000Z</Time>
            <Position>
              <LatitudeDegrees>36.81154486723244190216064453125</LatitudeDegrees>
              <LongitudeDegrees>-4.37825351022183895111083984375</LongitudeDegrees>
            </Position>
            <AltitudeMeters>817</AltitudeMeters>
            <DistanceMeters>NAN</DistanceMeters>
          </Trackpoint>
          <Trackpoint>
            <Time>2020-12-05T14:11:02.000Z</Time>
            <Position>
              <LatitudeDegrees>36.8115337193012237548828125</LatitudeDegrees>
              <LongitudeDegrees>-4.378261305391788482666015625</LongitudeDegrees>
            </Position>
            <AltitudeMeters>816.5999755859375</AltitudeMeters>
            <DistanceMeters>NAN</DistanceMeters>
          </Trackpoint>
          <Trackpoint>
            <Time>2020-12-05T14:11:03.000Z</Time>
            <Position>
              <LatitudeDegrees>36.8115258403122425079345703125</LatitudeDegrees>
              <LongitudeDegrees>-4.37826641835272312164306640625</LongitudeDegrees>
            </Position>
            <AltitudeMeters>816.4000244140625</AltitudeMeters>
            <DistanceMeters>NAN</DistanceMeters>
          </Trackpoint>
          <Trackpoint>
            <Time>2020-12-05T14:11:04.000Z</Time>
            <Position>
              <LatitudeDegrees>36.81152022443711757659912109375</LatitudeDegrees>
              <LongitudeDegrees>-4.37826968729496002197265625</LongitudeDegrees>
            </Position>
            <AltitudeMeters>816.20001220703125</AltitudeMeters>
            <DistanceMeters>NAN</DistanceMeters>
          </Trackpoint>
          <Trackpoint>
            <Time>2020-12-05T14:11:05.000Z</Time>
            <Position>
              <LatitudeDegrees>36.81150966323912143707275390625</LatitudeDegrees>
              <LongitudeDegrees>-4.37826775945723056793212890625</LongitudeDegrees>
            </Position>
            <AltitudeMeters>816</AltitudeMeters>
            <DistanceMeters>NAN</DistanceMeters>
          </Trackpoint>
          <Trackpoint>
            <Time>2020-12-05T14:11:06.000Z</Time>
            <Position>
              <LatitudeDegrees>36.811499185860157012939453125</LatitudeDegrees>
              <LongitudeDegrees>-4.3782634846866130828857421875</LongitudeDegrees>
            </Position>
            <AltitudeMeters>816</AltitudeMeters>
            <DistanceMeters>NAN</DistanceMeters>
          </Trackpoint>
          <Trackpoint>
            <Time>2020-12-05T14:11:07.000Z</Time>
            <Position>
              <LatitudeDegrees>36.81148803792893886566162109375</LatitudeDegrees>
              <LongitudeDegrees>-4.37826122157275676727294921875</LongitudeDegrees>
            </Position>
            <AltitudeMeters>816</AltitudeMeters>
            <DistanceMeters>NAN</DistanceMeters>
          </Trackpoint>
          <Trackpoint>
            <Time>2020-12-05T14:11:08.000Z</Time>
            <Position>
              <LatitudeDegrees>36.811475716531276702880859375</LatitudeDegrees>
              <LongitudeDegrees>-4.37825837172567844390869140625</LongitudeDegrees>
            </Position>
            <AltitudeMeters>815.79998779296875</AltitudeMeters>
            <DistanceMeters>NAN</DistanceMeters>
          </Trackpoint>
          <Trackpoint>
            <Time>2020-12-05T14:11:09.000Z</Time>
            <Position>
              <LatitudeDegrees>36.8114614672958850860595703125</LatitudeDegrees>
              <LongitudeDegrees>-4.378257952630519866943359375</LongitudeDegrees>
            </Position>
            <AltitudeMeters>815.79998779296875</AltitudeMeters>
            <DistanceMeters>NAN</DistanceMeters>
          </Trackpoint>
          <Trackpoint>
            <Time>2020-12-05T14:11:10.000Z</Time>
            <Position>
              <LatitudeDegrees>36.81144746951758861541748046875</LatitudeDegrees>
              <LongitudeDegrees>-4.37826164066791534423828125</LongitudeDegrees>
            </Position>
            <AltitudeMeters>815.5999755859375</AltitudeMeters>
            <DistanceMeters>NAN</DistanceMeters>
          </Trackpoint>
          <Trackpoint>
            <Time>2020-12-05T14:11:11.000Z</Time>
            <Position>
              <LatitudeDegrees>36.81143472902476787567138671875</LatitudeDegrees>
              <LongitudeDegrees>-4.37826759181916713714599609375</LongitudeDegrees>
            </Position>
            <AltitudeMeters>815.4000244140625</AltitudeMeters>
            <DistanceMeters>NAN</DistanceMeters>
          </Trackpoint>
          <Trackpoint>
            <Time>2020-12-05T14:11:12.000Z</Time>
            <Position>
              <LatitudeDegrees>36.8114242516458034515380859375</LatitudeDegrees>
              <LongitudeDegrees>-4.378274381160736083984375</LongitudeDegrees>
            </Position>
            <AltitudeMeters>815</AltitudeMeters>
            <DistanceMeters>NAN</DistanceMeters>
          </Trackpoint>
          <Trackpoint>
            <Time>2020-12-05T14:11:13.000Z</Time>
            <Position>
              <LatitudeDegrees>36.81141612119972705841064453125</LatitudeDegrees>
              <LongitudeDegrees>-4.37827781774103641510009765625</LongitudeDegrees>
            </Position>
            <AltitudeMeters>815</AltitudeMeters>
            <DistanceMeters>NAN</DistanceMeters>
          </Trackpoint>
          <Trackpoint>
            <Time>2020-12-05T14:11:14.000Z</Time>
            <Position>
              <LatitudeDegrees>36.81140891276299953460693359375</LatitudeDegrees>
              <LongitudeDegrees>-4.37828234396874904632568359375</LongitudeDegrees>
            </Position>
            <AltitudeMeters>814.79998779296875</AltitudeMeters>
            <DistanceMeters>NAN</DistanceMeters>
          </Trackpoint>
          <Trackpoint>
            <Time>2020-12-05T14:11:15.000Z</Time>
            <Position>
              <LatitudeDegrees>36.8114027939736843109130859375</LatitudeDegrees>
              <LongitudeDegrees>-4.3782829307019710540771484375</LongitudeDegrees>
            </Position>
            <AltitudeMeters>814.5999755859375</AltitudeMeters>
            <DistanceMeters>NAN</DistanceMeters>
          </Trackpoint>
          <Trackpoint>
            <Time>2020-12-05T14:11:16.000Z</Time>
            <Position>
              <LatitudeDegrees>36.8113967590034008026123046875</LatitudeDegrees>
              <LongitudeDegrees>-4.37828318215906620025634765625</LongitudeDegrees>
            </Position>
            <AltitudeMeters>814.5999755859375</AltitudeMeters>
            <DistanceMeters>NAN</DistanceMeters>
          </Trackpoint>
          <Trackpoint>
            <Time>2020-12-05T14:11:17.000Z</Time>
            <Position>
              <LatitudeDegrees>36.8113890476524829864501953125</LatitudeDegrees>
              <LongitudeDegrees>-4.37828418798744678497314453125</LongitudeDegrees>
            </Position>
            <AltitudeMeters>814.5999755859375</AltitudeMeters>
            <DistanceMeters>NAN</DistanceMeters>
          </Trackpoint>
          <Trackpoint>
            <Time>2020-12-05T14:11:18.000Z</Time>
            <Position>
              <LatitudeDegrees>36.81137991137802600860595703125</LatitudeDegrees>
              <LongitudeDegrees>-4.37828175723552703857421875</LongitudeDegrees>
            </Position>
            <AltitudeMeters>814.5999755859375</AltitudeMeters>
            <DistanceMeters>NAN</DistanceMeters>
          </Trackpoint>
          <Trackpoint>
            <Time>2020-12-05T14:11:19.000Z</Time>
            <Position>
              <LatitudeDegrees>36.81137186475098133087158203125</LatitudeDegrees>
              <LongitudeDegrees>-4.37828016467392444610595703125</LongitudeDegrees>
            </Position>
            <AltitudeMeters>814.5999755859375</AltitudeMeters>
            <DistanceMeters>NAN</DistanceMeters>
          </Trackpoint>
          <Trackpoint>
            <Time>2020-12-05T14:11:20.000Z</Time>
            <Position>
              <LatitudeDegrees>36.8113628961145877838134765625</LatitudeDegrees>
              <LongitudeDegrees>-4.3782782368361949920654296875</LongitudeDegrees>
            </Position>
            <AltitudeMeters>814.5999755859375</AltitudeMeters>
            <DistanceMeters>NAN</DistanceMeters>
          </Trackpoint>
          <Trackpoint>
            <Time>2020-12-05T14:11:21.000Z</Time>
            <Position>
              <LatitudeDegrees>36.811352670192718505859375</LatitudeDegrees>
              <LongitudeDegrees>-4.37827429734170436859130859375</LongitudeDegrees>
            </Position>
            <AltitudeMeters>814.5999755859375</AltitudeMeters>
            <DistanceMeters>NAN</DistanceMeters>
          </Trackpoint>
          <Trackpoint>
            <Time>2020-12-05T14:11:22.000Z</Time>
            <Position>
              <LatitudeDegrees>36.81134336628019809722900390625</LatitudeDegrees>
              <LongitudeDegrees>-4.3782708607614040374755859375</LongitudeDegrees>
            </Position>
            <AltitudeMeters>814.79998779296875</AltitudeMeters>
            <DistanceMeters>NAN</DistanceMeters>
          </Trackpoint>
          <Trackpoint>
            <Time>2020-12-05T14:11:23.000Z</Time>
            <Position>
              <LatitudeDegrees>36.811330877244472503662109375</LatitudeDegrees>
              <LongitudeDegrees>-4.37826457433402538299560546875</LongitudeDegrees>
            </Position>
            <AltitudeMeters>814.79998779296875</AltitudeMeters>
            <DistanceMeters>NAN</DistanceMeters>
          </Trackpoint>
          <Trackpoint>
            <Time>2020-12-05T14:11:24.000Z</Time>
            <Position>
              <LatitudeDegrees>36.81132115423679351806640625</LatitudeDegrees>
              <LongitudeDegrees>-4.37826222740113735198974609375</LongitudeDegrees>
            </Position>
            <AltitudeMeters>814.79998779296875</AltitudeMeters>
            <DistanceMeters>NAN</DistanceMeters>
          </Trackpoint>
          <Trackpoint>
            <Time>2020-12-05T14:11:25.000Z</Time>
            <Position>
              <LatitudeDegrees>36.81130950339138507843017578125</LatitudeDegrees>
              <LongitudeDegrees>-4.3782581202685832977294921875</LongitudeDegrees>
            </Position>
            <AltitudeMeters>815</AltitudeMeters>
            <DistanceMeters>NAN</DistanceMeters>
          </Trackpoint>
          <Trackpoint>
            <Time>2020-12-05T14:11:26.000Z</Time>
            <Position>
              <LatitudeDegrees>36.81129567325115203857421875</LatitudeDegrees>
              <LongitudeDegrees>-4.37825971283018589019775390625</LongitudeDegrees>
            </Position>
            <AltitudeMeters>815</AltitudeMeters>
            <DistanceMeters>NAN</DistanceMeters>
          </Trackpoint>
          <Trackpoint>
            <Time>2020-12-05T14:11:27.000Z</Time>
            <Position>
              <LatitudeDegrees>36.8112820945680141448974609375</LatitudeDegrees>
              <LongitudeDegrees>-4.37826256267726421356201171875</LongitudeDegrees>
            </Position>
            <AltitudeMeters>815.20001220703125</AltitudeMeters>
            <DistanceMeters>NAN</DistanceMeters>
          </Trackpoint>
          <Trackpoint>
            <Time>2020-12-05T14:11:28.000Z</Time>
            <Position>
              <LatitudeDegrees>36.8112686835229396820068359375</LatitudeDegrees>
              <LongitudeDegrees>-4.3782641552388668060302734375</LongitudeDegrees>
            </Position>
            <AltitudeMeters>815.20001220703125</AltitudeMeters>
            <DistanceMeters>NAN</DistanceMeters>
          </Trackpoint>
          <Trackpoint>
            <Time>2020-12-05T14:11:29.000Z</Time>
            <Position>
              <LatitudeDegrees>36.8112586252391338348388671875</LatitudeDegrees>
              <LongitudeDegrees>-4.37826239503920078277587890625</LongitudeDegrees>
            </Position>
            <AltitudeMeters>815.20001220703125</AltitudeMeters>
            <DistanceMeters>NAN</DistanceMeters>
          </Trackpoint>
          <Trackpoint>
            <Time>2020-12-05T14:11:30.000Z</Time>
            <Position>
              <LatitudeDegrees>36.81124898605048656463623046875</LatitudeDegrees>
              <LongitudeDegrees>-4.3782623112201690673828125</LongitudeDegrees>
            </Position>
            <AltitudeMeters>815.20001220703125</AltitudeMeters>
            <DistanceMeters>NAN</DistanceMeters>
          </Trackpoint>
          <Trackpoint>
            <Time>2020-12-05T14:11:31.000Z</Time>
            <Position>
              <LatitudeDegrees>36.81124328635632991790771484375</LatitudeDegrees>
              <LongitudeDegrees>-4.3782587908208370208740234375</LongitudeDegrees>
            </Position>
            <AltitudeMeters>815.20001220703125</AltitudeMeters>
            <DistanceMeters>NAN</DistanceMeters>
          </Trackpoint>
          <Trackpoint>
            <Time>2020-12-05T14:11:32.000Z</Time>
            <Position>
              <LatitudeDegrees>36.811237670481204986572265625</LatitudeDegrees>
              <LongitudeDegrees>-4.37825501896440982818603515625</LongitudeDegrees>
            </Position>
            <AltitudeMeters>815.20001220703125</AltitudeMeters>
            <DistanceMeters>NAN</DistanceMeters>
          </Trackpoint>
          <Trackpoint>
            <Time>2020-12-05T14:11:33.000Z</Time>
            <Position>
              <LatitudeDegrees>36.81122987531125545501708984375</LatitudeDegrees>
              <LongitudeDegrees>-4.37825049273669719696044921875</LongitudeDegrees>
            </Position>
            <AltitudeMeters>815.20001220703125</AltitudeMeters>
            <DistanceMeters>NAN</DistanceMeters>
          </Trackpoint>
          <Trackpoint>
            <Time>2020-12-05T14:11:34.000Z</Time>
            <Position>
              <LatitudeDegrees>36.8112237565219402313232421875</LatitudeDegrees>
              <LongitudeDegrees>-4.37824688851833343505859375</LongitudeDegrees>
            </Position>
            <AltitudeMeters>815.20001220703125</AltitudeMeters>
            <DistanceMeters>NAN</DistanceMeters>
          </Trackpoint>
          <Trackpoint>
            <Time>2020-12-05T14:11:35.000Z</Time>
            <Position>
              <LatitudeDegrees>36.81121847592294216156005859375</LatitudeDegrees>
              <LongitudeDegrees>-4.37823959626257419586181640625</LongitudeDegrees>
            </Position>
            <AltitudeMeters>815</AltitudeMeters>
            <DistanceMeters>NAN</DistanceMeters>
          </Trackpoint>
          <Trackpoint>
            <Time>2020-12-05T14:11:36.000Z</Time>
            <Position>
              <LatitudeDegrees>36.811216212809085845947265625</LatitudeDegrees>
              <LongitudeDegrees>-4.37823289074003696441650390625</LongitudeDegrees>
            </Position>
            <AltitudeMeters>814.79998779296875</AltitudeMeters>
            <DistanceMeters>NAN</DistanceMeters>
          </Trackpoint>
          <Trackpoint>
            <Time>2020-12-05T14:11:37.000Z</Time>
            <Position>
              <LatitudeDegrees>36.8112130276858806610107421875</LatitudeDegrees>
              <LongitudeDegrees>-4.37822869978845119476318359375</LongitudeDegrees>
            </Position>
            <AltitudeMeters>814.4000244140625</AltitudeMeters>
            <DistanceMeters>NAN</DistanceMeters>
          </Trackpoint>
          <Trackpoint>
            <Time>2020-12-05T14:11:38.000Z</Time>
            <Position>
              <LatitudeDegrees>36.81120741181075572967529296875</LatitudeDegrees>
              <LongitudeDegrees>-4.37822283245623111724853515625</LongitudeDegrees>
            </Position>
            <AltitudeMeters>814.20001220703125</AltitudeMeters>
            <DistanceMeters>NAN</DistanceMeters>
          </Trackpoint>
          <Trackpoint>
            <Time>2020-12-05T14:11:39.000Z</Time>
            <Position>
              <LatitudeDegrees>36.81119886226952075958251953125</LatitudeDegrees>
              <LongitudeDegrees>-4.37821495346724987030029296875</LongitudeDegrees>
            </Position>
            <AltitudeMeters>814.20001220703125</AltitudeMeters>
            <DistanceMeters>NAN</DistanceMeters>
          </Trackpoint>
          <Trackpoint>
            <Time>2020-12-05T14:11:40.000Z</Time>
            <Position>
              <LatitudeDegrees>36.8111902289092540740966796875</LatitudeDegrees>
              <LongitudeDegrees>-4.3782058171927928924560546875</LongitudeDegrees>
            </Position>
            <AltitudeMeters>814</AltitudeMeters>
            <DistanceMeters>NAN</DistanceMeters>
          </Trackpoint>
          <Trackpoint>
            <Time>2020-12-05T14:11:41.000Z</Time>
            <Position>
              <LatitudeDegrees>36.8111821822822093963623046875</LatitudeDegrees>
              <LongitudeDegrees>-4.37819550745189189910888671875</LongitudeDegrees>
            </Position>
            <AltitudeMeters>813.79998779296875</AltitudeMeters>
            <DistanceMeters>NAN</DistanceMeters>
          </Trackpoint>
          <Trackpoint>
            <Time>2020-12-05T14:11:42.000Z</Time>
            <Position>
              <LatitudeDegrees>36.81117589585483074188232421875</LatitudeDegrees>
              <LongitudeDegrees>-4.37818125821650028228759765625</LongitudeDegrees>
            </Position>
            <AltitudeMeters>813.4000244140625</AltitudeMeters>
            <DistanceMeters>NAN</DistanceMeters>
          </Trackpoint>
          <Trackpoint>
            <Time>2020-12-05T14:11:43.000Z</Time>
            <Position>
              <LatitudeDegrees>36.81116868741810321807861328125</LatitudeDegrees>
              <LongitudeDegrees>-4.37816684134304523468017578125</LongitudeDegrees>
            </Position>
            <AltitudeMeters>813</AltitudeMeters>
            <DistanceMeters>NAN</DistanceMeters>
          </Trackpoint>
          <Trackpoint>
            <Time>2020-12-05T14:11:44.000Z</Time>
            <Position>
              <LatitudeDegrees>36.81116231717169284820556640625</LatitudeDegrees>
              <LongitudeDegrees>-4.37815837562084197998046875</LongitudeDegrees>
            </Position>
            <AltitudeMeters>812.79998779296875</AltitudeMeters>
            <DistanceMeters>NAN</DistanceMeters>
          </Trackpoint>
          <Trackpoint>
            <Time>2020-12-05T14:11:45.000Z</Time>
            <Position>
              <LatitudeDegrees>36.81115292944014072418212890625</LatitudeDegrees>
              <LongitudeDegrees>-4.37815376557409763336181640625</LongitudeDegrees>
            </Position>
            <AltitudeMeters>812.5999755859375</AltitudeMeters>
            <DistanceMeters>NAN</DistanceMeters>
          </Trackpoint>
          <Trackpoint>
            <Time>2020-12-05T14:11:46.000Z</Time>
            <Position>
              <LatitudeDegrees>36.811141781508922576904296875</LatitudeDegrees>
              <LongitudeDegrees>-4.37815007753670215606689453125</LongitudeDegrees>
            </Position>
            <AltitudeMeters>812.4000244140625</AltitudeMeters>
            <DistanceMeters>NAN</DistanceMeters>
          </Trackpoint>
          <Trackpoint>
            <Time>2020-12-05T14:11:47.000Z</Time>
            <Position>
              <LatitudeDegrees>36.81112937629222869873046875</LatitudeDegrees>
              <LongitudeDegrees>-4.378145299851894378662109375</LongitudeDegrees>
            </Position>
            <AltitudeMeters>812.4000244140625</AltitudeMeters>
            <DistanceMeters>NAN</DistanceMeters>
          </Trackpoint>
          <Trackpoint>
            <Time>2020-12-05T14:11:48.000Z</Time>
            <Position>
              <LatitudeDegrees>36.81111554615199565887451171875</LatitudeDegrees>
              <LongitudeDegrees>-4.378139264881610870361328125</LongitudeDegrees>
            </Position>
            <AltitudeMeters>812.4000244140625</AltitudeMeters>
            <DistanceMeters>NAN</DistanceMeters>
          </Trackpoint>
          <Trackpoint>
            <Time>2020-12-05T14:11:49.000Z</Time>
            <Position>
              <LatitudeDegrees>36.81110347621142864227294921875</LatitudeDegrees>
              <LongitudeDegrees>-4.37813415192067623138427734375</LongitudeDegrees>
            </Position>
            <AltitudeMeters>812.4000244140625</AltitudeMeters>
            <DistanceMeters>NAN</DistanceMeters>
          </Trackpoint>
          <Trackpoint>
            <Time>2020-12-05T14:11:50.000Z</Time>
            <Position>
              <LatitudeDegrees>36.81109341792762279510498046875</LatitudeDegrees>
              <LongitudeDegrees>-4.37812929041683673858642578125</LongitudeDegrees>
            </Position>
            <AltitudeMeters>812.4000244140625</AltitudeMeters>
            <DistanceMeters>NAN</DistanceMeters>
          </Trackpoint>
          <Trackpoint>
            <Time>2020-12-05T14:11:51.000Z</Time>
            <Position>
              <LatitudeDegrees>36.8110826052725315093994140625</LatitudeDegrees>
              <LongitudeDegrees>-4.37812224961817264556884765625</LongitudeDegrees>
            </Position>
            <AltitudeMeters>812.4000244140625</AltitudeMeters>
            <DistanceMeters>NAN</DistanceMeters>
          </Trackpoint>
          <Trackpoint>
            <Time>2020-12-05T14:11:52.000Z</Time>
            <Position>
              <LatitudeDegrees>36.81107112206518650054931640625</LatitudeDegrees>
              <LongitudeDegrees>-4.37811277806758880615234375</LongitudeDegrees>
            </Position>
            <AltitudeMeters>812.4000244140625</AltitudeMeters>
            <DistanceMeters>NAN</DistanceMeters>
          </Trackpoint>
          <Trackpoint>
            <Time>2020-12-05T14:11:53.000Z</Time>
            <Position>
              <LatitudeDegrees>36.8110567890107631683349609375</LatitudeDegrees>
              <LongitudeDegrees>-4.378099702298641204833984375</LongitudeDegrees>
            </Position>
            <AltitudeMeters>812.20001220703125</AltitudeMeters>
            <DistanceMeters>NAN</DistanceMeters>
          </Trackpoint>
          <Trackpoint>
            <Time>2020-12-05T14:11:54.000Z</Time>
            <Position>
              <LatitudeDegrees>36.811041869223117828369140625</LatitudeDegrees>
              <LongitudeDegrees>-4.3780841119587421417236328125</LongitudeDegrees>
            </Position>
            <AltitudeMeters>812</AltitudeMeters>
            <DistanceMeters>NAN</DistanceMeters>
          </Trackpoint>
          <Trackpoint>
            <Time>2020-12-05T14:11:55.000Z</Time>
            <Position>
              <LatitudeDegrees>36.81102753616869449615478515625</LatitudeDegrees>
              <LongitudeDegrees>-4.37807648442685604095458984375</LongitudeDegrees>
            </Position>
            <AltitudeMeters>812</AltitudeMeters>
            <DistanceMeters>NAN</DistanceMeters>
          </Trackpoint>
          <Trackpoint>
            <Time>2020-12-05T14:11:56.000Z</Time>
            <Position>
              <LatitudeDegrees>36.8110111914575099945068359375</LatitudeDegrees>
              <LongitudeDegrees>-4.3780676834285259246826171875</LongitudeDegrees>
            </Position>
            <AltitudeMeters>811.79998779296875</AltitudeMeters>
            <DistanceMeters>NAN</DistanceMeters>
          </Trackpoint>
          <Trackpoint>
            <Time>2020-12-05T14:11:57.000Z</Time>
            <Position>
              <LatitudeDegrees>36.81099551729857921600341796875</LatitudeDegrees>
              <LongitudeDegrees>-4.37805972062051296234130859375</LongitudeDegrees>
            </Position>
            <AltitudeMeters>811.79998779296875</AltitudeMeters>
            <DistanceMeters>NAN</DistanceMeters>
          </Trackpoint>
          <Trackpoint>
            <Time>2020-12-05T14:11:58.000Z</Time>
            <Position>
              <LatitudeDegrees>36.8109810166060924530029296875</LatitudeDegrees>
              <LongitudeDegrees>-4.3780546076595783233642578125</LongitudeDegrees>
            </Position>
            <AltitudeMeters>811.79998779296875</AltitudeMeters>
            <DistanceMeters>NAN</DistanceMeters>
          </Trackpoint>
          <Trackpoint>
            <Time>2020-12-05T14:11:59.000Z</Time>
            <Position>
              <LatitudeDegrees>36.81096450425684452056884765625</LatitudeDegrees>
              <LongitudeDegrees>-4.37805234454572200775146484375</LongitudeDegrees>
            </Position>
            <AltitudeMeters>811.79998779296875</AltitudeMeters>
            <DistanceMeters>NAN</DistanceMeters>
          </Trackpoint>
          <Trackpoint>
            <Time>2020-12-05T14:12:00.000Z</Time>
            <Position>
              <LatitudeDegrees>36.810945980250835418701171875</LatitudeDegrees>
              <LongitudeDegrees>-4.37805016525089740753173828125</LongitudeDegrees>
            </Position>
            <AltitudeMeters>811.79998779296875</AltitudeMeters>
            <DistanceMeters>NAN</DistanceMeters>
          </Trackpoint>
          <Trackpoint>
            <Time>2020-12-05T14:12:01.000Z</Time>
            <Position>
              <LatitudeDegrees>36.8109307251870632171630859375</LatitudeDegrees>
              <LongitudeDegrees>-4.37804647721350193023681640625</LongitudeDegrees>
            </Position>
            <AltitudeMeters>811.5999755859375</AltitudeMeters>
            <DistanceMeters>NAN</DistanceMeters>
          </Trackpoint>
          <Trackpoint>
            <Time>2020-12-05T14:12:02.000Z</Time>
            <Position>
              <LatitudeDegrees>36.810917817056179046630859375</LatitudeDegrees>
              <LongitudeDegrees>-4.37804496847093105316162109375</LongitudeDegrees>
            </Position>
            <AltitudeMeters>811.20001220703125</AltitudeMeters>
            <DistanceMeters>NAN</DistanceMeters>
          </Trackpoint>
          <Trackpoint>
            <Time>2020-12-05T14:12:03.000Z</Time>
            <Position>
              <LatitudeDegrees>36.81090532802045345306396484375</LatitudeDegrees>
              <LongitudeDegrees>-4.37804429791867733001708984375</LongitudeDegrees>
            </Position>
            <AltitudeMeters>811</AltitudeMeters>
            <DistanceMeters>NAN</DistanceMeters>
          </Trackpoint>
          <Trackpoint>
            <Time>2020-12-05T14:12:04.000Z</Time>
            <Position>
              <LatitudeDegrees>36.810890994966030120849609375</LatitudeDegrees>
              <LongitudeDegrees>-4.3780495785176753997802734375</LongitudeDegrees>
            </Position>
            <AltitudeMeters>810.79998779296875</AltitudeMeters>
            <DistanceMeters>NAN</DistanceMeters>
          </Trackpoint>
          <Trackpoint>
            <Time>2020-12-05T14:12:05.000Z</Time>
            <Position>
              <LatitudeDegrees>36.8108792603015899658203125</LatitudeDegrees>
              <LongitudeDegrees>-4.37805921770632266998291015625</LongitudeDegrees>
            </Position>
            <AltitudeMeters>810.5999755859375</AltitudeMeters>
            <DistanceMeters>NAN</DistanceMeters>
          </Trackpoint>
          <Trackpoint>
            <Time>2020-12-05T14:12:06.000Z</Time>
            <Position>
              <LatitudeDegrees>36.8108683638274669647216796875</LatitudeDegrees>
              <LongitudeDegrees>-4.3780723772943019866943359375</LongitudeDegrees>
            </Position>
            <AltitudeMeters>810.4000244140625</AltitudeMeters>
            <DistanceMeters>NAN</DistanceMeters>
          </Trackpoint>
          <Trackpoint>
            <Time>2020-12-05T14:12:07.000Z</Time>
            <Position>
              <LatitudeDegrees>36.8108653463423252105712890625</LatitudeDegrees>
              <LongitudeDegrees>-4.37808285467326641082763671875</LongitudeDegrees>
            </Position>
            <AltitudeMeters>810.4000244140625</AltitudeMeters>
            <DistanceMeters>NAN</DistanceMeters>
          </Trackpoint>
          <Trackpoint>
            <Time>2020-12-05T14:12:08.000Z</Time>
            <Position>
              <LatitudeDegrees>36.81086258031427860260009765625</LatitudeDegrees>
              <LongitudeDegrees>-4.37809391878545284271240234375</LongitudeDegrees>
            </Position>
            <AltitudeMeters>810.4000244140625</AltitudeMeters>
            <DistanceMeters>NAN</DistanceMeters>
          </Trackpoint>
          <Trackpoint>
            <Time>2020-12-05T14:12:09.000Z</Time>
            <Position>
              <LatitudeDegrees>36.81086090393364429473876953125</LatitudeDegrees>
              <LongitudeDegrees>-4.378111101686954498291015625</LongitudeDegrees>
            </Position>
            <AltitudeMeters>810.4000244140625</AltitudeMeters>
            <DistanceMeters>NAN</DistanceMeters>
          </Trackpoint>
          <Trackpoint>
            <Time>2020-12-05T14:12:10.000Z</Time>
            <Position>
              <LatitudeDegrees>36.810853444039821624755859375</LatitudeDegrees>
              <LongitudeDegrees>-4.37812375836074352264404296875</LongitudeDegrees>
            </Position>
            <AltitudeMeters>810.4000244140625</AltitudeMeters>
            <DistanceMeters>NAN</DistanceMeters>
          </Trackpoint>
          <Trackpoint>
            <Time>2020-12-05T14:12:11.000Z</Time>
            <Position>
              <LatitudeDegrees>36.8108469061553478240966796875</LatitudeDegrees>
              <LongitudeDegrees>-4.37814102508127689361572265625</LongitudeDegrees>
            </Position>
            <AltitudeMeters>810.5999755859375</AltitudeMeters>
            <DistanceMeters>NAN</DistanceMeters>
          </Trackpoint>
          <Trackpoint>
            <Time>2020-12-05T14:12:12.000Z</Time>
            <Position>
              <LatitudeDegrees>36.81084061972796916961669921875</LatitudeDegrees>
              <LongitudeDegrees>-4.37815493904054164886474609375</LongitudeDegrees>
            </Position>
            <AltitudeMeters>810.5999755859375</AltitudeMeters>
            <DistanceMeters>NAN</DistanceMeters>
          </Trackpoint>
          <Trackpoint>
            <Time>2020-12-05T14:12:13.000Z</Time>
            <Position>
              <LatitudeDegrees>36.810832656919956207275390625</LatitudeDegrees>
              <LongitudeDegrees>-4.37817119993269443511962890625</LongitudeDegrees>
            </Position>
            <AltitudeMeters>810.79998779296875</AltitudeMeters>
            <DistanceMeters>NAN</DistanceMeters>
          </Trackpoint>
          <Trackpoint>
            <Time>2020-12-05T14:12:14.000Z</Time>
            <Position>
              <LatitudeDegrees>36.810826957225799560546875</LatitudeDegrees>
              <LongitudeDegrees>-4.3781863711774349212646484375</LongitudeDegrees>
            </Position>
            <AltitudeMeters>810.79998779296875</AltitudeMeters>
            <DistanceMeters>NAN</DistanceMeters>
          </Trackpoint>
          <Trackpoint>
            <Time>2020-12-05T14:12:15.000Z</Time>
            <Position>
              <LatitudeDegrees>36.81082234717905521392822265625</LatitudeDegrees>
              <LongitudeDegrees>-4.37820036895573139190673828125</LongitudeDegrees>
            </Position>
            <AltitudeMeters>810.79998779296875</AltitudeMeters>
            <DistanceMeters>NAN</DistanceMeters>
          </Trackpoint>
          <Trackpoint>
            <Time>2020-12-05T14:12:16.000Z</Time>
            <Position>
              <LatitudeDegrees>36.8108163960278034210205078125</LatitudeDegrees>
              <LongitudeDegrees>-4.37821336090564727783203125</LongitudeDegrees>
            </Position>
            <AltitudeMeters>811</AltitudeMeters>
            <DistanceMeters>NAN</DistanceMeters>
          </Trackpoint>
          <Trackpoint>
            <Time>2020-12-05T14:12:17.000Z</Time>
            <Position>
              <LatitudeDegrees>36.8108130432665348052978515625</LatitudeDegrees>
              <LongitudeDegrees>-4.3782306276261806488037109375</LongitudeDegrees>
            </Position>
            <AltitudeMeters>811</AltitudeMeters>
            <DistanceMeters>NAN</DistanceMeters>
          </Trackpoint>
          <Trackpoint>
            <Time>2020-12-05T14:12:18.000Z</Time>
            <Position>
              <LatitudeDegrees>36.8108080141246318817138671875</LatitudeDegrees>
              <LongitudeDegrees>-4.3782447092235088348388671875</LongitudeDegrees>
            </Position>
            <AltitudeMeters>810.79998779296875</AltitudeMeters>
            <DistanceMeters>NAN</DistanceMeters>
          </Trackpoint>
          <Trackpoint>
            <Time>2020-12-05T14:12:19.000Z</Time>
            <Position>
              <LatitudeDegrees>36.81080189533531665802001953125</LatitudeDegrees>
              <LongitudeDegrees>-4.3782596290111541748046875</LongitudeDegrees>
            </Position>
            <AltitudeMeters>810.79998779296875</AltitudeMeters>
            <DistanceMeters>NAN</DistanceMeters>
          </Trackpoint>
          <Trackpoint>
            <Time>2020-12-05T14:12:20.000Z</Time>
            <Position>
              <LatitudeDegrees>36.8107962794601917266845703125</LatitudeDegrees>
              <LongitudeDegrees>-4.37827496789395809173583984375</LongitudeDegrees>
            </Position>
            <AltitudeMeters>810.5999755859375</AltitudeMeters>
            <DistanceMeters>NAN</DistanceMeters>
          </Trackpoint>
          <Trackpoint>
            <Time>2020-12-05T14:12:21.000Z</Time>
            <Position>
              <LatitudeDegrees>36.81078965775668621063232421875</LatitudeDegrees>
              <LongitudeDegrees>-4.3782891333103179931640625</LongitudeDegrees>
            </Position>
            <AltitudeMeters>810.5999755859375</AltitudeMeters>
            <DistanceMeters>NAN</DistanceMeters>
          </Trackpoint>
          <Trackpoint>
            <Time>2020-12-05T14:12:22.000Z</Time>
            <Position>
              <LatitudeDegrees>36.810785047709941864013671875</LatitudeDegrees>
              <LongitudeDegrees>-4.3783017061650753021240234375</LongitudeDegrees>
            </Position>
            <AltitudeMeters>810.5999755859375</AltitudeMeters>
            <DistanceMeters>NAN</DistanceMeters>
          </Trackpoint>
          <Trackpoint>
            <Time>2020-12-05T14:12:23.000Z</Time>
            <Position>
              <LatitudeDegrees>36.810779683291912078857421875</LatitudeDegrees>
              <LongitudeDegrees>-4.37831821851432323455810546875</LongitudeDegrees>
            </Position>
            <AltitudeMeters>810.4000244140625</AltitudeMeters>
            <DistanceMeters>NAN</DistanceMeters>
          </Trackpoint>
          <Trackpoint>
            <Time>2020-12-05T14:12:24.000Z</Time>
            <Position>
              <LatitudeDegrees>36.81077457033097743988037109375</LatitudeDegrees>
              <LongitudeDegrees>-4.378337748348712921142578125</LongitudeDegrees>
            </Position>
            <AltitudeMeters>810.20001220703125</AltitudeMeters>
            <DistanceMeters>NAN</DistanceMeters>
          </Trackpoint>
          <Trackpoint>
            <Time>2020-12-05T14:12:25.000Z</Time>
            <Position>
              <LatitudeDegrees>36.81077239103615283966064453125</LatitudeDegrees>
              <LongitudeDegrees>-4.37835526652634143829345703125</LongitudeDegrees>
            </Position>
            <AltitudeMeters>810</AltitudeMeters>
            <DistanceMeters>NAN</DistanceMeters>
          </Trackpoint>
          <Trackpoint>
            <Time>2020-12-05T14:12:26.000Z</Time>
            <Position>
              <LatitudeDegrees>36.81077272631227970123291015625</LatitudeDegrees>
              <LongitudeDegrees>-4.37837203033268451690673828125</LongitudeDegrees>
            </Position>
            <AltitudeMeters>809.79998779296875</AltitudeMeters>
            <DistanceMeters>NAN</DistanceMeters>
          </Trackpoint>
          <Trackpoint>
            <Time>2020-12-05T14:12:27.000Z</Time>
            <Position>
              <LatitudeDegrees>36.8107728101313114166259765625</LatitudeDegrees>
              <LongitudeDegrees>-4.37838493846356868743896484375</LongitudeDegrees>
            </Position>
            <AltitudeMeters>809.5999755859375</AltitudeMeters>
            <DistanceMeters>NAN</DistanceMeters>
          </Trackpoint>
          <Trackpoint>
            <Time>2020-12-05T14:12:28.000Z</Time>
            <Position>
              <LatitudeDegrees>36.8107691220939159393310546875</LatitudeDegrees>
              <LongitudeDegrees>-4.37840036116540431976318359375</LongitudeDegrees>
            </Position>
            <AltitudeMeters>809.4000244140625</AltitudeMeters>
            <DistanceMeters>NAN</DistanceMeters>
          </Trackpoint>
          <Trackpoint>
            <Time>2020-12-05T14:12:29.000Z</Time>
            <Position>
              <LatitudeDegrees>36.810766272246837615966796875</LatitudeDegrees>
              <LongitudeDegrees>-4.37841628678143024444580078125</LongitudeDegrees>
            </Position>
            <AltitudeMeters>809.4000244140625</AltitudeMeters>
            <DistanceMeters>NAN</DistanceMeters>
          </Trackpoint>
          <Trackpoint>
            <Time>2020-12-05T14:12:30.000Z</Time>
            <Position>
              <LatitudeDegrees>36.81076459586620330810546875</LatitudeDegrees>
              <LongitudeDegrees>-4.37843053601682186126708984375</LongitudeDegrees>
            </Position>
            <AltitudeMeters>809.4000244140625</AltitudeMeters>
            <DistanceMeters>NAN</DistanceMeters>
          </Trackpoint>
          <Trackpoint>
            <Time>2020-12-05T14:12:31.000Z</Time>
            <Position>
              <LatitudeDegrees>36.8107654340565204620361328125</LatitudeDegrees>
              <LongitudeDegrees>-4.37844243831932544708251953125</LongitudeDegrees>
            </Position>
            <AltitudeMeters>809.4000244140625</AltitudeMeters>
            <DistanceMeters>NAN</DistanceMeters>
          </Trackpoint>
          <Trackpoint>
            <Time>2020-12-05T14:12:32.000Z</Time>
            <Position>
              <LatitudeDegrees>36.81076602078974246978759765625</LatitudeDegrees>
              <LongitudeDegrees>-4.3784535862505435943603515625</LongitudeDegrees>
            </Position>
            <AltitudeMeters>809.5999755859375</AltitudeMeters>
            <DistanceMeters>NAN</DistanceMeters>
          </Trackpoint>
          <Trackpoint>
            <Time>2020-12-05T14:12:33.000Z</Time>
            <Position>
              <LatitudeDegrees>36.81076752953231334686279296875</LatitudeDegrees>
              <LongitudeDegrees>-4.37846171669661998748779296875</LongitudeDegrees>
            </Position>
            <AltitudeMeters>809.5999755859375</AltitudeMeters>
            <DistanceMeters>NAN</DistanceMeters>
          </Trackpoint>
          <Trackpoint>
            <Time>2020-12-05T14:12:34.000Z</Time>
            <Position>
              <LatitudeDegrees>36.8107671104371547698974609375</LatitudeDegrees>
              <LongitudeDegrees>-4.3784726969897747039794921875</LongitudeDegrees>
            </Position>
            <AltitudeMeters>809.5999755859375</AltitudeMeters>
            <DistanceMeters>NAN</DistanceMeters>
          </Trackpoint>
          <Trackpoint>
            <Time>2020-12-05T14:12:35.000Z</Time>
            <Position>
              <LatitudeDegrees>36.81076702661812305450439453125</LatitudeDegrees>
              <LongitudeDegrees>-4.37848401255905628204345703125</LongitudeDegrees>
            </Position>
            <AltitudeMeters>809.5999755859375</AltitudeMeters>
            <DistanceMeters>NAN</DistanceMeters>
          </Trackpoint>
          <Trackpoint>
            <Time>2020-12-05T14:12:36.000Z</Time>
            <Position>
              <LatitudeDegrees>36.81076752953231334686279296875</LatitudeDegrees>
              <LongitudeDegrees>-4.37849591486155986785888671875</LongitudeDegrees>
            </Position>
            <AltitudeMeters>809.20001220703125</AltitudeMeters>
            <DistanceMeters>NAN</DistanceMeters>
          </Trackpoint>
          <Trackpoint>
            <Time>2020-12-05T14:12:37.000Z</Time>
            <Position>
              <LatitudeDegrees>36.81076861917972564697265625</LatitudeDegrees>
              <LongitudeDegrees>-4.37850764952600002288818359375</LongitudeDegrees>
            </Position>
            <AltitudeMeters>808.5999755859375</AltitudeMeters>
            <DistanceMeters>NAN</DistanceMeters>
          </Trackpoint>
          <Trackpoint>
            <Time>2020-12-05T14:12:38.000Z</Time>
            <Position>
              <LatitudeDegrees>36.81076551787555217742919921875</LatitudeDegrees>
              <LongitudeDegrees>-4.37851888127624988555908203125</LongitudeDegrees>
            </Position>
            <AltitudeMeters>808.20001220703125</AltitudeMeters>
            <DistanceMeters>NAN</DistanceMeters>
          </Trackpoint>
          <Trackpoint>
            <Time>2020-12-05T14:12:39.000Z</Time>
            <Position>
              <LatitudeDegrees>36.81075763888657093048095703125</LatitudeDegrees>
              <LongitudeDegrees>-4.378532208502292633056640625</LongitudeDegrees>
            </Position>
            <AltitudeMeters>807.5999755859375</AltitudeMeters>
            <DistanceMeters>NAN</DistanceMeters>
          </Trackpoint>
          <Trackpoint>
            <Time>2020-12-05T14:12:40.000Z</Time>
            <Position>
              <LatitudeDegrees>36.81074741296470165252685546875</LatitudeDegrees>
              <LongitudeDegrees>-4.378545284271240234375</LongitudeDegrees>
            </Position>
            <AltitudeMeters>807</AltitudeMeters>
            <DistanceMeters>NAN</DistanceMeters>
          </Trackpoint>
          <Trackpoint>
            <Time>2020-12-05T14:12:41.000Z</Time>
            <Position>
              <LatitudeDegrees>36.810736767947673797607421875</LatitudeDegrees>
              <LongitudeDegrees>-4.37855794094502925872802734375</LongitudeDegrees>
            </Position>
            <AltitudeMeters>806.79998779296875</AltitudeMeters>
            <DistanceMeters>NAN</DistanceMeters>
          </Trackpoint>
          <Trackpoint>
            <Time>2020-12-05T14:12:42.000Z</Time>
            <Position>
              <LatitudeDegrees>36.81072947569191455841064453125</LatitudeDegrees>
              <LongitudeDegrees>-4.3785672448575496673583984375</LongitudeDegrees>
            </Position>
            <AltitudeMeters>806.5999755859375</AltitudeMeters>
            <DistanceMeters>NAN</DistanceMeters>
          </Trackpoint>
          <Trackpoint>
            <Time>2020-12-05T14:12:43.000Z</Time>
            <Position>
              <LatitudeDegrees>36.810725368559360504150390625</LatitudeDegrees>
              <LongitudeDegrees>-4.3785712681710720062255859375</LongitudeDegrees>
            </Position>
            <AltitudeMeters>806.4000244140625</AltitudeMeters>
            <DistanceMeters>NAN</DistanceMeters>
          </Trackpoint>
          <Trackpoint>
            <Time>2020-12-05T14:12:44.000Z</Time>
            <Position>
              <LatitudeDegrees>36.81072126142680644989013671875</LatitudeDegrees>
              <LongitudeDegrees>-4.37857487238943576812744140625</LongitudeDegrees>
            </Position>
            <AltitudeMeters>806.4000244140625</AltitudeMeters>
            <DistanceMeters>NAN</DistanceMeters>
          </Trackpoint>
          <Trackpoint>
            <Time>2020-12-05T14:12:45.000Z</Time>
            <Position>
              <LatitudeDegrees>36.81071606464684009552001953125</LatitudeDegrees>
              <LongitudeDegrees>-4.37858476303517818450927734375</LongitudeDegrees>
            </Position>
            <AltitudeMeters>806.4000244140625</AltitudeMeters>
            <DistanceMeters>NAN</DistanceMeters>
          </Trackpoint>
          <Trackpoint>
            <Time>2020-12-05T14:12:46.000Z</Time>
            <Position>
              <LatitudeDegrees>36.810711286962032318115234375</LatitudeDegrees>
              <LongitudeDegrees>-4.37859800644218921661376953125</LongitudeDegrees>
            </Position>
            <AltitudeMeters>806.20001220703125</AltitudeMeters>
            <DistanceMeters>NAN</DistanceMeters>
          </Trackpoint>
          <Trackpoint>
            <Time>2020-12-05T14:12:47.000Z</Time>
            <Position>
              <LatitudeDegrees>36.81070734746754169464111328125</LatitudeDegrees>
              <LongitudeDegrees>-4.3786115013062953948974609375</LongitudeDegrees>
            </Position>
            <AltitudeMeters>806.20001220703125</AltitudeMeters>
            <DistanceMeters>NAN</DistanceMeters>
          </Trackpoint>
          <Trackpoint>
            <Time>2020-12-05T14:12:48.000Z</Time>
            <Position>
              <LatitudeDegrees>36.81070365943014621734619140625</LatitudeDegrees>
              <LongitudeDegrees>-4.3786218948662281036376953125</LongitudeDegrees>
            </Position>
            <AltitudeMeters>806</AltitudeMeters>
            <DistanceMeters>NAN</DistanceMeters>
          </Trackpoint>
          <Trackpoint>
            <Time>2020-12-05T14:12:49.000Z</Time>
            <Position>
              <LatitudeDegrees>36.810701899230480194091796875</LatitudeDegrees>
              <LongitudeDegrees>-4.3786299414932727813720703125</LongitudeDegrees>
            </Position>
            <AltitudeMeters>806</AltitudeMeters>
            <DistanceMeters>NAN</DistanceMeters>
          </Trackpoint>
          <Trackpoint>
            <Time>2020-12-05T14:12:50.000Z</Time>
            <Position>
              <LatitudeDegrees>36.81070215068757534027099609375</LatitudeDegrees>
              <LongitudeDegrees>-4.37863983213901519775390625</LongitudeDegrees>
            </Position>
            <AltitudeMeters>806</AltitudeMeters>
            <DistanceMeters>NAN</DistanceMeters>
          </Trackpoint>
          <Trackpoint>
            <Time>2020-12-05T14:12:51.000Z</Time>
            <Position>
              <LatitudeDegrees>36.81070282123982906341552734375</LatitudeDegrees>
              <LongitudeDegrees>-4.37865349464118480682373046875</LongitudeDegrees>
            </Position>
            <AltitudeMeters>806</AltitudeMeters>
            <DistanceMeters>NAN</DistanceMeters>
          </Trackpoint>
          <Trackpoint>
            <Time>2020-12-05T14:12:52.000Z</Time>
            <Position>
              <LatitudeDegrees>36.810699887573719024658203125</LatitudeDegrees>
              <LongitudeDegrees>-4.37866841442883014678955078125</LongitudeDegrees>
            </Position>
            <AltitudeMeters>806</AltitudeMeters>
            <DistanceMeters>NAN</DistanceMeters>
          </Trackpoint>
          <Trackpoint>
            <Time>2020-12-05T14:12:53.000Z</Time>
            <Position>
              <LatitudeDegrees>36.8106960318982601165771484375</LatitudeDegrees>
              <LongitudeDegrees>-4.3786861002445220947265625</LongitudeDegrees>
            </Position>
            <AltitudeMeters>805.79998779296875</AltitudeMeters>
            <DistanceMeters>NAN</DistanceMeters>
          </Trackpoint>
          <Trackpoint>
            <Time>2020-12-05T14:12:54.000Z</Time>
            <Position>
              <LatitudeDegrees>36.8106888234615325927734375</LatitudeDegrees>
              <LongitudeDegrees>-4.37870563007891178131103515625</LongitudeDegrees>
            </Position>
            <AltitudeMeters>805.4000244140625</AltitudeMeters>
            <DistanceMeters>NAN</DistanceMeters>
          </Trackpoint>
          <Trackpoint>
            <Time>2020-12-05T14:12:55.000Z</Time>
            <Position>
              <LatitudeDegrees>36.8106819503009319305419921875</LatitudeDegrees>
              <LongitudeDegrees>-4.37872029840946197509765625</LongitudeDegrees>
            </Position>
            <AltitudeMeters>805</AltitudeMeters>
            <DistanceMeters>NAN</DistanceMeters>
          </Trackpoint>
          <Trackpoint>
            <Time>2020-12-05T14:12:56.000Z</Time>
            <Position>
              <LatitudeDegrees>36.81067616678774356842041015625</LatitudeDegrees>
              <LongitudeDegrees>-4.37873077578842639923095703125</LongitudeDegrees>
            </Position>
            <AltitudeMeters>804.5999755859375</AltitudeMeters>
            <DistanceMeters>NAN</DistanceMeters>
          </Trackpoint>
          <Trackpoint>
            <Time>2020-12-05T14:12:57.000Z</Time>
            <Position>
              <LatitudeDegrees>36.81067147292196750640869140625</LatitudeDegrees>
              <LongitudeDegrees>-4.37874083407223224639892578125</LongitudeDegrees>
            </Position>
            <AltitudeMeters>804.5999755859375</AltitudeMeters>
            <DistanceMeters>NAN</DistanceMeters>
          </Trackpoint>
          <Trackpoint>
            <Time>2020-12-05T14:12:58.000Z</Time>
            <Position>
              <LatitudeDegrees>36.81066677905619144439697265625</LatitudeDegrees>
              <LongitudeDegrees>-4.37875038944184780120849609375</LongitudeDegrees>
            </Position>
            <AltitudeMeters>804.4000244140625</AltitudeMeters>
            <DistanceMeters>NAN</DistanceMeters>
          </Trackpoint>
          <Trackpoint>
            <Time>2020-12-05T14:12:59.000Z</Time>
            <Position>
              <LatitudeDegrees>36.8106598220765590667724609375</LatitudeDegrees>
              <LongitudeDegrees>-4.378759860992431640625</LongitudeDegrees>
            </Position>
            <AltitudeMeters>804.20001220703125</AltitudeMeters>
            <DistanceMeters>NAN</DistanceMeters>
          </Trackpoint>
          <Trackpoint>
            <Time>2020-12-05T14:13:00.000Z</Time>
            <Position>
              <LatitudeDegrees>36.81064867414534091949462890625</LatitudeDegrees>
              <LongitudeDegrees>-4.378770925104618072509765625</LongitudeDegrees>
            </Position>
            <AltitudeMeters>804.20001220703125</AltitudeMeters>
            <DistanceMeters>NAN</DistanceMeters>
          </Trackpoint>
          <Trackpoint>
            <Time>2020-12-05T14:13:01.000Z</Time>
            <Position>
              <LatitudeDegrees>36.8106353469192981719970703125</LatitudeDegrees>
              <LongitudeDegrees>-4.3787831626832485198974609375</LongitudeDegrees>
            </Position>
            <AltitudeMeters>804.20001220703125</AltitudeMeters>
            <DistanceMeters>NAN</DistanceMeters>
          </Trackpoint>
          <Trackpoint>
            <Time>2020-12-05T14:13:02.000Z</Time>
            <Position>
              <LatitudeDegrees>36.81062218733131885528564453125</LatitudeDegrees>
              <LongitudeDegrees>-4.37879405915737152099609375</LongitudeDegrees>
            </Position>
            <AltitudeMeters>804.20001220703125</AltitudeMeters>
            <DistanceMeters>NAN</DistanceMeters>
          </Trackpoint>
          <Trackpoint>
            <Time>2020-12-05T14:13:03.000Z</Time>
            <Position>
              <LatitudeDegrees>36.81061028502881526947021484375</LatitudeDegrees>
              <LongitudeDegrees>-4.3788022734224796295166015625</LongitudeDegrees>
            </Position>
            <AltitudeMeters>804.20001220703125</AltitudeMeters>
            <DistanceMeters>NAN</DistanceMeters>
          </Trackpoint>
          <Trackpoint>
            <Time>2020-12-05T14:13:04.000Z</Time>
            <Position>
              <LatitudeDegrees>36.8105976283550262451171875</LatitudeDegrees>
              <LongitudeDegrees>-4.37880487181246280670166015625</LongitudeDegrees>
            </Position>
            <AltitudeMeters>804</AltitudeMeters>
            <DistanceMeters>NAN</DistanceMeters>
          </Trackpoint>
          <Trackpoint>
            <Time>2020-12-05T14:13:05.000Z</Time>
            <Position>
              <LatitudeDegrees>36.8105863966047763824462890625</LatitudeDegrees>
              <LongitudeDegrees>-4.37880755402147769927978515625</LongitudeDegrees>
            </Position>
            <AltitudeMeters>803.79998779296875</AltitudeMeters>
            <DistanceMeters>NAN</DistanceMeters>
          </Trackpoint>
          <Trackpoint>
            <Time>2020-12-05T14:13:06.000Z</Time>
            <Position>
              <LatitudeDegrees>36.81057658977806568145751953125</LatitudeDegrees>
              <LongitudeDegrees>-4.37880822457373142242431640625</LongitudeDegrees>
            </Position>
            <AltitudeMeters>803.5999755859375</AltitudeMeters>
            <DistanceMeters>NAN</DistanceMeters>
          </Trackpoint>
          <Trackpoint>
            <Time>2020-12-05T14:13:07.000Z</Time>
            <Position>
              <LatitudeDegrees>36.8105642683804035186767578125</LatitudeDegrees>
              <LongitudeDegrees>-4.378802441060543060302734375</LongitudeDegrees>
            </Position>
            <AltitudeMeters>803.4000244140625</AltitudeMeters>
            <DistanceMeters>NAN</DistanceMeters>
          </Trackpoint>
          <Trackpoint>
            <Time>2020-12-05T14:13:08.000Z</Time>
            <Position>
              <LatitudeDegrees>36.81055261753499507904052734375</LatitudeDegrees>
              <LongitudeDegrees>-4.37879766337573528289794921875</LongitudeDegrees>
            </Position>
            <AltitudeMeters>803.4000244140625</AltitudeMeters>
            <DistanceMeters>NAN</DistanceMeters>
          </Trackpoint>
          <Trackpoint>
            <Time>2020-12-05T14:13:09.000Z</Time>
            <Position>
              <LatitudeDegrees>36.81054222397506237030029296875</LatitudeDegrees>
              <LongitudeDegrees>-4.37879313714802265167236328125</LongitudeDegrees>
            </Position>
            <AltitudeMeters>803.20001220703125</AltitudeMeters>
            <DistanceMeters>NAN</DistanceMeters>
          </Trackpoint>
          <Trackpoint>
            <Time>2020-12-05T14:13:10.000Z</Time>
            <Position>
              <LatitudeDegrees>36.810532920062541961669921875</LatitudeDegrees>
              <LongitudeDegrees>-4.37878710217773914337158203125</LongitudeDegrees>
            </Position>
            <AltitudeMeters>803</AltitudeMeters>
            <DistanceMeters>NAN</DistanceMeters>
          </Trackpoint>
          <Trackpoint>
            <Time>2020-12-05T14:13:11.000Z</Time>
            <Position>
              <LatitudeDegrees>36.8105263821780681610107421875</LatitudeDegrees>
              <LongitudeDegrees>-4.37878307886421680450439453125</LongitudeDegrees>
            </Position>
            <AltitudeMeters>802.79998779296875</AltitudeMeters>
            <DistanceMeters>NAN</DistanceMeters>
          </Trackpoint>
          <Trackpoint>
            <Time>2020-12-05T14:13:12.000Z</Time>
            <Position>
              <LatitudeDegrees>36.8105230294167995452880859375</LatitudeDegrees>
              <LongitudeDegrees>-4.37878274358808994293212890625</LongitudeDegrees>
            </Position>
            <AltitudeMeters>802.5999755859375</AltitudeMeters>
            <DistanceMeters>NAN</DistanceMeters>
          </Trackpoint>
          <Trackpoint>
            <Time>2020-12-05T14:13:13.000Z</Time>
            <Position>
              <LatitudeDegrees>36.81052453815937042236328125</LatitudeDegrees>
              <LongitudeDegrees>-4.37879598699510097503662109375</LongitudeDegrees>
            </Position>
            <AltitudeMeters>802.4000244140625</AltitudeMeters>
            <DistanceMeters>NAN</DistanceMeters>
          </Trackpoint>
          <Trackpoint>
            <Time>2020-12-05T14:13:14.000Z</Time>
            <Position>
              <LatitudeDegrees>36.8105159886181354522705078125</LatitudeDegrees>
              <LongitudeDegrees>-4.37879933975636959075927734375</LongitudeDegrees>
            </Position>
            <AltitudeMeters>802.20001220703125</AltitudeMeters>
            <DistanceMeters>NAN</DistanceMeters>
          </Trackpoint>
          <Trackpoint>
            <Time>2020-12-05T14:13:15.000Z</Time>
            <Position>
              <LatitudeDegrees>36.81050802581012248992919921875</LatitudeDegrees>
              <LongitudeDegrees>-4.37879531644284725189208984375</LongitudeDegrees>
            </Position>
            <AltitudeMeters>802.20001220703125</AltitudeMeters>
            <DistanceMeters>NAN</DistanceMeters>
          </Trackpoint>
          <Trackpoint>
            <Time>2020-12-05T14:13:16.000Z</Time>
            <Position>
              <LatitudeDegrees>36.8104985542595386505126953125</LatitudeDegrees>
              <LongitudeDegrees>-4.3787905387580394744873046875</LongitudeDegrees>
            </Position>
            <AltitudeMeters>802.20001220703125</AltitudeMeters>
            <DistanceMeters>NAN</DistanceMeters>
          </Trackpoint>
          <Trackpoint>
            <Time>2020-12-05T14:13:17.000Z</Time>
            <Position>
              <LatitudeDegrees>36.81048589758574962615966796875</LatitudeDegrees>
              <LongitudeDegrees>-4.3787799775600433349609375</LongitudeDegrees>
            </Position>
            <AltitudeMeters>802</AltitudeMeters>
            <DistanceMeters>NAN</DistanceMeters>
          </Trackpoint>
          <Trackpoint>
            <Time>2020-12-05T14:13:18.000Z</Time>
            <Position>
              <LatitudeDegrees>36.81047114543616771697998046875</LatitudeDegrees>
              <LongitudeDegrees>-4.3787630461156368255615234375</LongitudeDegrees>
            </Position>
            <AltitudeMeters>802</AltitudeMeters>
            <DistanceMeters>NAN</DistanceMeters>
          </Trackpoint>
          <Trackpoint>
            <Time>2020-12-05T14:13:19.000Z</Time>
            <Position>
              <LatitudeDegrees>36.81045890785753726959228515625</LatitudeDegrees>
              <LongitudeDegrees>-4.37874804250895977020263671875</LongitudeDegrees>
            </Position>
            <AltitudeMeters>802</AltitudeMeters>
            <DistanceMeters>NAN</DistanceMeters>
          </Trackpoint>
          <Trackpoint>
            <Time>2020-12-05T14:13:20.000Z</Time>
            <Position>
              <LatitudeDegrees>36.8104439042508602142333984375</LatitudeDegrees>
              <LongitudeDegrees>-4.37873563729226589202880859375</LongitudeDegrees>
            </Position>
            <AltitudeMeters>802</AltitudeMeters>
            <DistanceMeters>NAN</DistanceMeters>
          </Trackpoint>
          <Trackpoint>
            <Time>2020-12-05T14:13:21.000Z</Time>
            <Position>
              <LatitudeDegrees>36.81042931973934173583984375</LatitudeDegrees>
              <LongitudeDegrees>-4.37872122041881084442138671875</LongitudeDegrees>
            </Position>
            <AltitudeMeters>801.79998779296875</AltitudeMeters>
            <DistanceMeters>NAN</DistanceMeters>
          </Trackpoint>
          <Trackpoint>
            <Time>2020-12-05T14:13:22.000Z</Time>
            <Position>
              <LatitudeDegrees>36.81041683070361614227294921875</LatitudeDegrees>
              <LongitudeDegrees>-4.37870378606021404266357421875</LongitudeDegrees>
            </Position>
            <AltitudeMeters>801.79998779296875</AltitudeMeters>
            <DistanceMeters>NAN</DistanceMeters>
          </Trackpoint>
          <Trackpoint>
            <Time>2020-12-05T14:13:23.000Z</Time>
            <Position>
              <LatitudeDegrees>36.81040526367723941802978515625</LatitudeDegrees>
              <LongitudeDegrees>-4.37868635170161724090576171875</LongitudeDegrees>
            </Position>
            <AltitudeMeters>801.5999755859375</AltitudeMeters>
            <DistanceMeters>NAN</DistanceMeters>
          </Trackpoint>
          <Trackpoint>
            <Time>2020-12-05T14:13:24.000Z</Time>
            <Position>
              <LatitudeDegrees>36.8103942833840847015380859375</LatitudeDegrees>
              <LongitudeDegrees>-4.37867679633200168609619140625</LongitudeDegrees>
            </Position>
            <AltitudeMeters>801.4000244140625</AltitudeMeters>
            <DistanceMeters>NAN</DistanceMeters>
          </Trackpoint>
          <Trackpoint>
            <Time>2020-12-05T14:13:25.000Z</Time>
            <Position>
              <LatitudeDegrees>36.8103835545480251312255859375</LatitudeDegrees>
              <LongitudeDegrees>-4.3786705099046230316162109375</LongitudeDegrees>
            </Position>
            <AltitudeMeters>801.20001220703125</AltitudeMeters>
            <DistanceMeters>NAN</DistanceMeters>
          </Trackpoint>
          <Trackpoint>
            <Time>2020-12-05T14:13:26.000Z</Time>
            <Position>
              <LatitudeDegrees>36.81036989204585552215576171875</LatitudeDegrees>
              <LongitudeDegrees>-4.37867025844752788543701171875</LongitudeDegrees>
            </Position>
            <AltitudeMeters>801.20001220703125</AltitudeMeters>
            <DistanceMeters>NAN</DistanceMeters>
          </Trackpoint>
          <Trackpoint>
            <Time>2020-12-05T14:13:27.000Z</Time>
            <Position>
              <LatitudeDegrees>36.81035547517240047454833984375</LatitudeDegrees>
              <LongitudeDegrees>-4.37867059372365474700927734375</LongitudeDegrees>
            </Position>
            <AltitudeMeters>801.20001220703125</AltitudeMeters>
            <DistanceMeters>NAN</DistanceMeters>
          </Trackpoint>
          <Trackpoint>
            <Time>2020-12-05T14:13:28.000Z</Time>
            <Position>
              <LatitudeDegrees>36.81034256704151630401611328125</LatitudeDegrees>
              <LongitudeDegrees>-4.378668330609798431396484375</LongitudeDegrees>
            </Position>
            <AltitudeMeters>801.20001220703125</AltitudeMeters>
            <DistanceMeters>NAN</DistanceMeters>
          </Trackpoint>
          <Trackpoint>
            <Time>2020-12-05T14:13:29.000Z</Time>
            <Position>
              <LatitudeDegrees>36.81033074855804443359375</LatitudeDegrees>
              <LongitudeDegrees>-4.3786678276956081390380859375</LongitudeDegrees>
            </Position>
            <AltitudeMeters>801.20001220703125</AltitudeMeters>
            <DistanceMeters>NAN</DistanceMeters>
          </Trackpoint>
          <Trackpoint>
            <Time>2020-12-05T14:13:30.000Z</Time>
            <Position>
              <LatitudeDegrees>36.81031943298876285552978515625</LatitudeDegrees>
              <LongitudeDegrees>-4.37866405583918094635009765625</LongitudeDegrees>
            </Position>
            <AltitudeMeters>801.20001220703125</AltitudeMeters>
            <DistanceMeters>NAN</DistanceMeters>
          </Trackpoint>
          <Trackpoint>
            <Time>2020-12-05T14:13:31.000Z</Time>
            <Position>
              <LatitudeDegrees>36.81030803360044956207275390625</LatitudeDegrees>
              <LongitudeDegrees>-4.378660619258880615234375</LongitudeDegrees>
            </Position>
            <AltitudeMeters>801.20001220703125</AltitudeMeters>
            <DistanceMeters>NAN</DistanceMeters>
          </Trackpoint>
          <Trackpoint>
            <Time>2020-12-05T14:13:32.000Z</Time>
            <Position>
              <LatitudeDegrees>36.81029596365988254547119140625</LatitudeDegrees>
              <LongitudeDegrees>-4.378656260669231414794921875</LongitudeDegrees>
            </Position>
            <AltitudeMeters>801</AltitudeMeters>
            <DistanceMeters>NAN</DistanceMeters>
          </Trackpoint>
          <Trackpoint>
            <Time>2020-12-05T14:13:33.000Z</Time>
            <Position>
              <LatitudeDegrees>36.8102864921092987060546875</LatitudeDegrees>
              <LongitudeDegrees>-4.37864947132766246795654296875</LongitudeDegrees>
            </Position>
            <AltitudeMeters>800.79998779296875</AltitudeMeters>
            <DistanceMeters>NAN</DistanceMeters>
          </Trackpoint>
          <Trackpoint>
            <Time>2020-12-05T14:13:34.000Z</Time>
            <Position>
              <LatitudeDegrees>36.81027936749160289764404296875</LatitudeDegrees>
              <LongitudeDegrees>-4.37864117324352264404296875</LongitudeDegrees>
            </Position>
            <AltitudeMeters>800.79998779296875</AltitudeMeters>
            <DistanceMeters>NAN</DistanceMeters>
          </Trackpoint>
          <Trackpoint>
            <Time>2020-12-05T14:13:35.000Z</Time>
            <Position>
              <LatitudeDegrees>36.81027375161647796630859375</LatitudeDegrees>
              <LongitudeDegrees>-4.378631450235843658447265625</LongitudeDegrees>
            </Position>
            <AltitudeMeters>800.5999755859375</AltitudeMeters>
            <DistanceMeters>NAN</DistanceMeters>
          </Trackpoint>
          <Trackpoint>
            <Time>2020-12-05T14:13:36.000Z</Time>
            <Position>
              <LatitudeDegrees>36.810269393026828765869140625</LatitudeDegrees>
              <LongitudeDegrees>-4.37862030230462551116943359375</LongitudeDegrees>
            </Position>
            <AltitudeMeters>800.4000244140625</AltitudeMeters>
            <DistanceMeters>NAN</DistanceMeters>
          </Trackpoint>
          <Trackpoint>
            <Time>2020-12-05T14:13:37.000Z</Time>
            <Position>
              <LatitudeDegrees>36.81026545353233814239501953125</LatitudeDegrees>
              <LongitudeDegrees>-4.378610663115978240966796875</LongitudeDegrees>
            </Position>
            <AltitudeMeters>800</AltitudeMeters>
            <DistanceMeters>NAN</DistanceMeters>
          </Trackpoint>
          <Trackpoint>
            <Time>2020-12-05T14:13:38.000Z</Time>
            <Position>
              <LatitudeDegrees>36.81025925092399120330810546875</LatitudeDegrees>
              <LongitudeDegrees>-4.3785987608134746551513671875</LongitudeDegrees>
            </Position>
            <AltitudeMeters>800</AltitudeMeters>
            <DistanceMeters>NAN</DistanceMeters>
          </Trackpoint>
          <Trackpoint>
            <Time>2020-12-05T14:13:39.000Z</Time>
            <Position>
              <LatitudeDegrees>36.81024768389761447906494140625</LatitudeDegrees>
              <LongitudeDegrees>-4.3785836733877658843994140625</LongitudeDegrees>
            </Position>
            <AltitudeMeters>799.79998779296875</AltitudeMeters>
            <DistanceMeters>NAN</DistanceMeters>
          </Trackpoint>
          <Trackpoint>
            <Time>2020-12-05T14:13:40.000Z</Time>
            <Position>
              <LatitudeDegrees>36.81023393757641315460205078125</LatitudeDegrees>
              <LongitudeDegrees>-4.3785719387233257293701171875</LongitudeDegrees>
            </Position>
            <AltitudeMeters>799.5999755859375</AltitudeMeters>
            <DistanceMeters>NAN</DistanceMeters>
          </Trackpoint>
          <Trackpoint>
            <Time>2020-12-05T14:13:41.000Z</Time>
            <Position>
              <LatitudeDegrees>36.81021885015070438385009765625</LatitudeDegrees>
              <LongitudeDegrees>-4.378570429980754852294921875</LongitudeDegrees>
            </Position>
            <AltitudeMeters>799.5999755859375</AltitudeMeters>
            <DistanceMeters>NAN</DistanceMeters>
          </Trackpoint>
          <Trackpoint>
            <Time>2020-12-05T14:13:42.000Z</Time>
            <Position>
              <LatitudeDegrees>36.81020309217274188995361328125</LatitudeDegrees>
              <LongitudeDegrees>-4.37856816686689853668212890625</LongitudeDegrees>
            </Position>
            <AltitudeMeters>799.4000244140625</AltitudeMeters>
            <DistanceMeters>NAN</DistanceMeters>
          </Trackpoint>
          <Trackpoint>
            <Time>2020-12-05T14:13:43.000Z</Time>
            <Position>
              <LatitudeDegrees>36.81018431670963764190673828125</LatitudeDegrees>
              <LongitudeDegrees>-4.3785695917904376983642578125</LongitudeDegrees>
            </Position>
            <AltitudeMeters>799.4000244140625</AltitudeMeters>
            <DistanceMeters>NAN</DistanceMeters>
          </Trackpoint>
          <Trackpoint>
            <Time>2020-12-05T14:13:44.000Z</Time>
            <Position>
              <LatitudeDegrees>36.81016621179878711700439453125</LatitudeDegrees>
              <LongitudeDegrees>-4.378572441637516021728515625</LongitudeDegrees>
            </Position>
            <AltitudeMeters>799.20001220703125</AltitudeMeters>
            <DistanceMeters>NAN</DistanceMeters>
          </Trackpoint>
          <Trackpoint>
            <Time>2020-12-05T14:13:45.000Z</Time>
            <Position>
              <LatitudeDegrees>36.810149364173412322998046875</LatitudeDegrees>
              <LongitudeDegrees>-4.37857504002749919891357421875</LongitudeDegrees>
            </Position>
            <AltitudeMeters>799.20001220703125</AltitudeMeters>
            <DistanceMeters>NAN</DistanceMeters>
          </Trackpoint>
          <Trackpoint>
            <Time>2020-12-05T14:13:46.000Z</Time>
            <Position>
              <LatitudeDegrees>36.81013452820479869842529296875</LatitudeDegrees>
              <LongitudeDegrees>-4.378577806055545806884765625</LongitudeDegrees>
            </Position>
            <AltitudeMeters>799.20001220703125</AltitudeMeters>
            <DistanceMeters>NAN</DistanceMeters>
          </Trackpoint>
          <Trackpoint>
            <Time>2020-12-05T14:13:47.000Z</Time>
            <Position>
              <LatitudeDegrees>36.81012162007391452789306640625</LatitudeDegrees>
              <LongitudeDegrees>-4.3785806559026241302490234375</LongitudeDegrees>
            </Position>
            <AltitudeMeters>799</AltitudeMeters>
            <DistanceMeters>NAN</DistanceMeters>
          </Trackpoint>
          <Trackpoint>
            <Time>2020-12-05T14:13:48.000Z</Time>
            <Position>
              <LatitudeDegrees>36.81010988540947437286376953125</LatitudeDegrees>
              <LongitudeDegrees>-4.37858426012098789215087890625</LongitudeDegrees>
            </Position>
            <AltitudeMeters>799</AltitudeMeters>
            <DistanceMeters>NAN</DistanceMeters>
          </Trackpoint>
          <Trackpoint>
            <Time>2020-12-05T14:13:49.000Z</Time>
            <Position>
              <LatitudeDegrees>36.81010049767792224884033203125</LatitudeDegrees>
              <LongitudeDegrees>-4.3785893730819225311279296875</LongitudeDegrees>
            </Position>
            <AltitudeMeters>799</AltitudeMeters>
            <DistanceMeters>NAN</DistanceMeters>
          </Trackpoint>
          <Trackpoint>
            <Time>2020-12-05T14:13:50.000Z</Time>
            <Position>
              <LatitudeDegrees>36.81009295396506786346435546875</LatitudeDegrees>
              <LongitudeDegrees>-4.3785954080522060394287109375</LongitudeDegrees>
            </Position>
            <AltitudeMeters>799.20001220703125</AltitudeMeters>
            <DistanceMeters>NAN</DistanceMeters>
          </Trackpoint>
          <Trackpoint>
            <Time>2020-12-05T14:13:51.000Z</Time>
            <Position>
              <LatitudeDegrees>36.810087673366069793701171875</LatitudeDegrees>
              <LongitudeDegrees>-4.37860186211764812469482421875</LongitudeDegrees>
            </Position>
            <AltitudeMeters>799.20001220703125</AltitudeMeters>
            <DistanceMeters>NAN</DistanceMeters>
          </Trackpoint>
          <Trackpoint>
            <Time>2020-12-05T14:13:52.000Z</Time>
            <Position>
              <LatitudeDegrees>36.81008172221481800079345703125</LatitudeDegrees>
              <LongitudeDegrees>-4.37860756181180477142333984375</LongitudeDegrees>
            </Position>
            <AltitudeMeters>799.4000244140625</AltitudeMeters>
            <DistanceMeters>NAN</DistanceMeters>
          </Trackpoint>
          <Trackpoint>
            <Time>2020-12-05T14:13:53.000Z</Time>
            <Position>
              <LatitudeDegrees>36.8100740946829319000244140625</LatitudeDegrees>
              <LongitudeDegrees>-4.378614686429500579833984375</LongitudeDegrees>
            </Position>
            <AltitudeMeters>799.5999755859375</AltitudeMeters>
            <DistanceMeters>NAN</DistanceMeters>
          </Trackpoint>
          <Trackpoint>
            <Time>2020-12-05T14:13:54.000Z</Time>
            <Position>
              <LatitudeDegrees>36.81006629951298236846923828125</LatitudeDegrees>
              <LongitudeDegrees>-4.37862214632332324981689453125</LongitudeDegrees>
            </Position>
            <AltitudeMeters>799.5999755859375</AltitudeMeters>
            <DistanceMeters>NAN</DistanceMeters>
          </Trackpoint>
          <Trackpoint>
            <Time>2020-12-05T14:13:55.000Z</Time>
            <Position>
              <LatitudeDegrees>36.81005607359111309051513671875</LatitudeDegrees>
              <LongitudeDegrees>-4.37862751074135303497314453125</LongitudeDegrees>
            </Position>
            <AltitudeMeters>799.79998779296875</AltitudeMeters>
            <DistanceMeters>NAN</DistanceMeters>
          </Trackpoint>
          <Trackpoint>
            <Time>2020-12-05T14:13:56.000Z</Time>
            <Position>
              <LatitudeDegrees>36.8100464344024658203125</LatitudeDegrees>
              <LongitudeDegrees>-4.3786296062171459197998046875</LongitudeDegrees>
            </Position>
            <AltitudeMeters>799.79998779296875</AltitudeMeters>
            <DistanceMeters>NAN</DistanceMeters>
          </Trackpoint>
          <Trackpoint>
            <Time>2020-12-05T14:13:57.000Z</Time>
            <Position>
              <LatitudeDegrees>36.81003578938543796539306640625</LatitudeDegrees>
              <LongitudeDegrees>-4.3786297738552093505859375</LongitudeDegrees>
            </Position>
            <AltitudeMeters>800</AltitudeMeters>
            <DistanceMeters>NAN</DistanceMeters>
          </Trackpoint>
          <Trackpoint>
            <Time>2020-12-05T14:13:58.000Z</Time>
            <Position>
              <LatitudeDegrees>36.8100241385400295257568359375</LatitudeDegrees>
              <LongitudeDegrees>-4.37863673083484172821044921875</LongitudeDegrees>
            </Position>
            <AltitudeMeters>800.20001220703125</AltitudeMeters>
            <DistanceMeters>NAN</DistanceMeters>
          </Trackpoint>
          <Trackpoint>
            <Time>2020-12-05T14:13:59.000Z</Time>
            <Position>
              <LatitudeDegrees>36.810011900961399078369140625</LatitudeDegrees>
              <LongitudeDegrees>-4.37864360399544239044189453125</LongitudeDegrees>
            </Position>
            <AltitudeMeters>800.20001220703125</AltitudeMeters>
            <DistanceMeters>NAN</DistanceMeters>
          </Trackpoint>
          <Trackpoint>
            <Time>2020-12-05T14:14:00.000Z</Time>
            <Position>
              <LatitudeDegrees>36.81000192649662494659423828125</LatitudeDegrees>
              <LongitudeDegrees>-4.378647543489933013916015625</LongitudeDegrees>
            </Position>
            <AltitudeMeters>800.4000244140625</AltitudeMeters>
            <DistanceMeters>NAN</DistanceMeters>
          </Trackpoint>
          <Trackpoint>
            <Time>2020-12-05T14:14:01.000Z</Time>
            <Position>
              <LatitudeDegrees>36.80999287404119968414306640625</LatitudeDegrees>
              <LongitudeDegrees>-4.37864787876605987548828125</LongitudeDegrees>
            </Position>
            <AltitudeMeters>800.4000244140625</AltitudeMeters>
            <DistanceMeters>NAN</DistanceMeters>
          </Trackpoint>
          <Trackpoint>
            <Time>2020-12-05T14:14:02.000Z</Time>
            <Position>
              <LatitudeDegrees>36.809983067214488983154296875</LatitudeDegrees>
              <LongitudeDegrees>-4.378644861280918121337890625</LongitudeDegrees>
            </Position>
            <AltitudeMeters>800.5999755859375</AltitudeMeters>
            <DistanceMeters>NAN</DistanceMeters>
          </Trackpoint>
          <Trackpoint>
            <Time>2020-12-05T14:14:03.000Z</Time>
            <Position>
              <LatitudeDegrees>36.80997342802584171295166015625</LatitudeDegrees>
              <LongitudeDegrees>-4.37864310108125209808349609375</LongitudeDegrees>
            </Position>
            <AltitudeMeters>800.79998779296875</AltitudeMeters>
            <DistanceMeters>NAN</DistanceMeters>
          </Trackpoint>
          <Trackpoint>
            <Time>2020-12-05T14:14:04.000Z</Time>
            <Position>
              <LatitudeDegrees>36.80996420793235301971435546875</LatitudeDegrees>
              <LongitudeDegrees>-4.37863714993000030517578125</LongitudeDegrees>
            </Position>
            <AltitudeMeters>800.79998779296875</AltitudeMeters>
            <DistanceMeters>NAN</DistanceMeters>
          </Trackpoint>
          <Trackpoint>
            <Time>2020-12-05T14:14:05.000Z</Time>
            <Position>
              <LatitudeDegrees>36.8099550716578960418701171875</LatitudeDegrees>
              <LongitudeDegrees>-4.37862935476005077362060546875</LongitudeDegrees>
            </Position>
            <AltitudeMeters>801</AltitudeMeters>
            <DistanceMeters>NAN</DistanceMeters>
          </Trackpoint>
          <Trackpoint>
            <Time>2020-12-05T14:14:06.000Z</Time>
            <Position>
              <LatitudeDegrees>36.80994442664086818695068359375</LatitudeDegrees>
              <LongitudeDegrees>-4.37862315215170383453369140625</LongitudeDegrees>
            </Position>
            <AltitudeMeters>801</AltitudeMeters>
            <DistanceMeters>NAN</DistanceMeters>
          </Trackpoint>
          <Trackpoint>
            <Time>2020-12-05T14:14:07.000Z</Time>
            <Position>
              <LatitudeDegrees>36.8099319376051425933837890625</LatitudeDegrees>
              <LongitudeDegrees>-4.37861694954335689544677734375</LongitudeDegrees>
            </Position>
            <AltitudeMeters>801</AltitudeMeters>
            <DistanceMeters>NAN</DistanceMeters>
          </Trackpoint>
          <Trackpoint>
            <Time>2020-12-05T14:14:08.000Z</Time>
            <Position>
              <LatitudeDegrees>36.80991693399846553802490234375</LatitudeDegrees>
              <LongitudeDegrees>-4.3786104954779148101806640625</LongitudeDegrees>
            </Position>
            <AltitudeMeters>801</AltitudeMeters>
            <DistanceMeters>NAN</DistanceMeters>
          </Trackpoint>
          <Trackpoint>
            <Time>2020-12-05T14:14:09.000Z</Time>
            <Position>
              <LatitudeDegrees>36.80990151129662990570068359375</LatitudeDegrees>
              <LongitudeDegrees>-4.37860186211764812469482421875</LongitudeDegrees>
            </Position>
            <AltitudeMeters>801</AltitudeMeters>
            <DistanceMeters>NAN</DistanceMeters>
          </Trackpoint>
          <Trackpoint>
            <Time>2020-12-05T14:14:10.000Z</Time>
            <Position>
              <LatitudeDegrees>36.8098866753280162811279296875</LatitudeDegrees>
              <LongitudeDegrees>-4.3785913847386837005615234375</LongitudeDegrees>
            </Position>
            <AltitudeMeters>801</AltitudeMeters>
            <DistanceMeters>NAN</DistanceMeters>
          </Trackpoint>
          <Trackpoint>
            <Time>2020-12-05T14:14:11.000Z</Time>
            <Position>
              <LatitudeDegrees>36.80987401865422725677490234375</LatitudeDegrees>
              <LongitudeDegrees>-4.37858224846422672271728515625</LongitudeDegrees>
            </Position>
            <AltitudeMeters>801</AltitudeMeters>
            <DistanceMeters>NAN</DistanceMeters>
          </Trackpoint>
          <Trackpoint>
            <Time>2020-12-05T14:14:12.000Z</Time>
            <Position>
              <LatitudeDegrees>36.80986396037042140960693359375</LatitudeDegrees>
              <LongitudeDegrees>-4.37857705168426036834716796875</LongitudeDegrees>
            </Position>
            <AltitudeMeters>801.20001220703125</AltitudeMeters>
            <DistanceMeters>NAN</DistanceMeters>
          </Trackpoint>
          <Trackpoint>
            <Time>2020-12-05T14:14:13.000Z</Time>
            <Position>
              <LatitudeDegrees>36.80985608138144016265869140625</LatitudeDegrees>
              <LongitudeDegrees>-4.3785752914845943450927734375</LongitudeDegrees>
            </Position>
            <AltitudeMeters>801.20001220703125</AltitudeMeters>
            <DistanceMeters>NAN</DistanceMeters>
          </Trackpoint>
          <Trackpoint>
            <Time>2020-12-05T14:14:14.000Z</Time>
            <Position>
              <LatitudeDegrees>36.8098474480211734771728515625</LatitudeDegrees>
              <LongitudeDegrees>-4.37857151962816715240478515625</LongitudeDegrees>
            </Position>
            <AltitudeMeters>801</AltitudeMeters>
            <DistanceMeters>NAN</DistanceMeters>
          </Trackpoint>
          <Trackpoint>
            <Time>2020-12-05T14:14:15.000Z</Time>
            <Position>
              <LatitudeDegrees>36.80984065867960453033447265625</LatitudeDegrees>
              <LongitudeDegrees>-4.37856917269527912139892578125</LongitudeDegrees>
            </Position>
            <AltitudeMeters>801</AltitudeMeters>
            <DistanceMeters>NAN</DistanceMeters>
          </Trackpoint>
          <Trackpoint>
            <Time>2020-12-05T14:14:16.000Z</Time>
            <Position>
              <LatitudeDegrees>36.80983562953770160675048828125</LatitudeDegrees>
              <LongitudeDegrees>-4.37856565229594707489013671875</LongitudeDegrees>
            </Position>
            <AltitudeMeters>801</AltitudeMeters>
            <DistanceMeters>NAN</DistanceMeters>
          </Trackpoint>
          <Trackpoint>
            <Time>2020-12-05T14:14:17.000Z</Time>
            <Position>
              <LatitudeDegrees>36.8098310194909572601318359375</LatitudeDegrees>
              <LongitudeDegrees>-4.3785595335066318511962890625</LongitudeDegrees>
            </Position>
            <AltitudeMeters>801</AltitudeMeters>
            <DistanceMeters>NAN</DistanceMeters>
          </Trackpoint>
          <Trackpoint>
            <Time>2020-12-05T14:14:18.000Z</Time>
            <Position>
              <LatitudeDegrees>36.80982649326324462890625</LatitudeDegrees>
              <LongitudeDegrees>-4.3785519897937774658203125</LongitudeDegrees>
            </Position>
            <AltitudeMeters>801</AltitudeMeters>
            <DistanceMeters>NAN</DistanceMeters>
          </Trackpoint>
          <Trackpoint>
            <Time>2020-12-05T14:14:19.000Z</Time>
            <Position>
              <LatitudeDegrees>36.80981920100748538970947265625</LatitudeDegrees>
              <LongitudeDegrees>-4.37854503281414508819580078125</LongitudeDegrees>
            </Position>
            <AltitudeMeters>801.20001220703125</AltitudeMeters>
            <DistanceMeters>NAN</DistanceMeters>
          </Trackpoint>
          <Trackpoint>
            <Time>2020-12-05T14:14:20.000Z</Time>
            <Position>
              <LatitudeDegrees>36.80981199257075786590576171875</LatitudeDegrees>
              <LongitudeDegrees>-4.37853790819644927978515625</LongitudeDegrees>
            </Position>
            <AltitudeMeters>801.20001220703125</AltitudeMeters>
            <DistanceMeters>NAN</DistanceMeters>
          </Trackpoint>
          <Trackpoint>
            <Time>2020-12-05T14:14:21.000Z</Time>
            <Position>
              <LatitudeDegrees>36.809803359210491180419921875</LatitudeDegrees>
              <LongitudeDegrees>-4.37853363342583179473876953125</LongitudeDegrees>
            </Position>
            <AltitudeMeters>801.4000244140625</AltitudeMeters>
            <DistanceMeters>NAN</DistanceMeters>
          </Trackpoint>
          <Trackpoint>
            <Time>2020-12-05T14:14:22.000Z</Time>
            <Position>
              <LatitudeDegrees>36.809793300926685333251953125</LatitudeDegrees>
              <LongitudeDegrees>-4.37853162176907062530517578125</LongitudeDegrees>
            </Position>
            <AltitudeMeters>801.5999755859375</AltitudeMeters>
            <DistanceMeters>NAN</DistanceMeters>
          </Trackpoint>
          <Trackpoint>
            <Time>2020-12-05T14:14:23.000Z</Time>
            <Position>
              <LatitudeDegrees>36.80978357791900634765625</LatitudeDegrees>
              <LongitudeDegrees>-4.37852340750396251678466796875</LongitudeDegrees>
            </Position>
            <AltitudeMeters>801.5999755859375</AltitudeMeters>
            <DistanceMeters>NAN</DistanceMeters>
          </Trackpoint>
          <Trackpoint>
            <Time>2020-12-05T14:14:24.000Z</Time>
            <Position>
              <LatitudeDegrees>36.80977242998778820037841796875</LatitudeDegrees>
              <LongitudeDegrees>-4.37851108610630035400390625</LongitudeDegrees>
            </Position>
            <AltitudeMeters>801.5999755859375</AltitudeMeters>
            <DistanceMeters>NAN</DistanceMeters>
          </Trackpoint>
          <Trackpoint>
            <Time>2020-12-05T14:14:25.000Z</Time>
            <Position>
              <LatitudeDegrees>36.809761784970760345458984375</LatitudeDegrees>
              <LongitudeDegrees>-4.378500021994113922119140625</LongitudeDegrees>
            </Position>
            <AltitudeMeters>801.4000244140625</AltitudeMeters>
            <DistanceMeters>NAN</DistanceMeters>
          </Trackpoint>
          <Trackpoint>
            <Time>2020-12-05T14:14:26.000Z</Time>
            <Position>
              <LatitudeDegrees>36.80974929593503475189208984375</LatitudeDegrees>
              <LongitudeDegrees>-4.37849289737641811370849609375</LongitudeDegrees>
            </Position>
            <AltitudeMeters>801.20001220703125</AltitudeMeters>
            <DistanceMeters>NAN</DistanceMeters>
          </Trackpoint>
          <Trackpoint>
            <Time>2020-12-05T14:14:27.000Z</Time>
            <Position>
              <LatitudeDegrees>36.809738315641880035400390625</LatitudeDegrees>
              <LongitudeDegrees>-4.3784830905497074127197265625</LongitudeDegrees>
            </Position>
            <AltitudeMeters>801.5999755859375</AltitudeMeters>
            <DistanceMeters>NAN</DistanceMeters>
          </Trackpoint>
          <Trackpoint>
            <Time>2020-12-05T14:14:28.000Z</Time>
            <Position>
              <LatitudeDegrees>36.8097254075109958648681640625</LatitudeDegrees>
              <LongitudeDegrees>-4.37847630120813846588134765625</LongitudeDegrees>
            </Position>
            <AltitudeMeters>801.4000244140625</AltitudeMeters>
            <DistanceMeters>NAN</DistanceMeters>
          </Trackpoint>
          <Trackpoint>
            <Time>2020-12-05T14:14:29.000Z</Time>
            <Position>
              <LatitudeDegrees>36.80971174500882625579833984375</LatitudeDegrees>
              <LongitudeDegrees>-4.3784733675420284271240234375</LongitudeDegrees>
            </Position>
            <AltitudeMeters>801.5999755859375</AltitudeMeters>
            <DistanceMeters>NAN</DistanceMeters>
          </Trackpoint>
          <Trackpoint>
            <Time>2020-12-05T14:14:30.000Z</Time>
            <Position>
              <LatitudeDegrees>36.80969682522118091583251953125</LatitudeDegrees>
              <LongitudeDegrees>-4.37847353518009185791015625</LongitudeDegrees>
            </Position>
            <AltitudeMeters>801.5999755859375</AltitudeMeters>
            <DistanceMeters>NAN</DistanceMeters>
          </Trackpoint>
          <Trackpoint>
            <Time>2020-12-05T14:14:31.000Z</Time>
            <Position>
              <LatitudeDegrees>36.80968341417610645294189453125</LatitudeDegrees>
              <LongitudeDegrees>-4.378472864627838134765625</LongitudeDegrees>
            </Position>
            <AltitudeMeters>801.5999755859375</AltitudeMeters>
            <DistanceMeters>NAN</DistanceMeters>
          </Trackpoint>
          <Trackpoint>
            <Time>2020-12-05T14:14:32.000Z</Time>
            <Position>
              <LatitudeDegrees>36.80967100895941257476806640625</LatitudeDegrees>
              <LongitudeDegrees>-4.37847244553267955780029296875</LongitudeDegrees>
            </Position>
            <AltitudeMeters>801.5999755859375</AltitudeMeters>
            <DistanceMeters>NAN</DistanceMeters>
          </Trackpoint>
          <Trackpoint>
            <Time>2020-12-05T14:14:33.000Z</Time>
            <Position>
              <LatitudeDegrees>36.80965826846659183502197265625</LatitudeDegrees>
              <LongitudeDegrees>-4.37847194261848926544189453125</LongitudeDegrees>
            </Position>
            <AltitudeMeters>801.5999755859375</AltitudeMeters>
            <DistanceMeters>NAN</DistanceMeters>
          </Trackpoint>
          <Trackpoint>
            <Time>2020-12-05T14:14:34.000Z</Time>
            <Position>
              <LatitudeDegrees>36.80964351631700992584228515625</LatitudeDegrees>
              <LongitudeDegrees>-4.3784713558852672576904296875</LongitudeDegrees>
            </Position>
            <AltitudeMeters>801.4000244140625</AltitudeMeters>
            <DistanceMeters>NAN</DistanceMeters>
          </Trackpoint>
          <Trackpoint>
            <Time>2020-12-05T14:14:35.000Z</Time>
            <Position>
              <LatitudeDegrees>36.80962826125323772430419921875</LatitudeDegrees>
              <LongitudeDegrees>-4.3784733675420284271240234375</LongitudeDegrees>
            </Position>
            <AltitudeMeters>801.5999755859375</AltitudeMeters>
            <DistanceMeters>NAN</DistanceMeters>
          </Trackpoint>
          <Trackpoint>
            <Time>2020-12-05T14:14:36.000Z</Time>
            <Position>
              <LatitudeDegrees>36.8096134252846240997314453125</LatitudeDegrees>
              <LongitudeDegrees>-4.37847043387591838836669921875</LongitudeDegrees>
            </Position>
            <AltitudeMeters>801.4000244140625</AltitudeMeters>
            <DistanceMeters>NAN</DistanceMeters>
          </Trackpoint>
          <Trackpoint>
            <Time>2020-12-05T14:14:37.000Z</Time>
            <Position>
              <LatitudeDegrees>36.80959741584956645965576171875</LatitudeDegrees>
              <LongitudeDegrees>-4.37847412191331386566162109375</LongitudeDegrees>
            </Position>
            <AltitudeMeters>801.4000244140625</AltitudeMeters>
            <DistanceMeters>NAN</DistanceMeters>
          </Trackpoint>
          <Trackpoint>
            <Time>2020-12-05T14:14:38.000Z</Time>
            <Position>
              <LatitudeDegrees>36.80958383716642856597900390625</LatitudeDegrees>
              <LongitudeDegrees>-4.37847931869328022003173828125</LongitudeDegrees>
            </Position>
            <AltitudeMeters>801.4000244140625</AltitudeMeters>
            <DistanceMeters>NAN</DistanceMeters>
          </Trackpoint>
          <Trackpoint>
            <Time>2020-12-05T14:14:39.000Z</Time>
            <Position>
              <LatitudeDegrees>36.80957377888262271881103515625</LatitudeDegrees>
              <LongitudeDegrees>-4.37848267145454883575439453125</LongitudeDegrees>
            </Position>
            <AltitudeMeters>801.4000244140625</AltitudeMeters>
            <DistanceMeters>NAN</DistanceMeters>
          </Trackpoint>
          <Trackpoint>
            <Time>2020-12-05T14:14:40.000Z</Time>
            <Position>
              <LatitudeDegrees>36.8095644749701023101806640625</LatitudeDegrees>
              <LongitudeDegrees>-4.378486610949039459228515625</LongitudeDegrees>
            </Position>
            <AltitudeMeters>801.4000244140625</AltitudeMeters>
            <DistanceMeters>NAN</DistanceMeters>
          </Trackpoint>
          <Trackpoint>
            <Time>2020-12-05T14:14:41.000Z</Time>
            <Position>
              <LatitudeDegrees>36.8095547519624233245849609375</LatitudeDegrees>
              <LongitudeDegrees>-4.37849440611898899078369140625</LongitudeDegrees>
            </Position>
            <AltitudeMeters>801.4000244140625</AltitudeMeters>
            <DistanceMeters>NAN</DistanceMeters>
          </Trackpoint>
          <Trackpoint>
            <Time>2020-12-05T14:14:42.000Z</Time>
            <Position>
              <LatitudeDegrees>36.8095453642308712005615234375</LatitudeDegrees>
              <LongitudeDegrees>-4.37850764952600002288818359375</LongitudeDegrees>
            </Position>
            <AltitudeMeters>801.4000244140625</AltitudeMeters>
            <DistanceMeters>NAN</DistanceMeters>
          </Trackpoint>
          <Trackpoint>
            <Time>2020-12-05T14:14:43.000Z</Time>
            <Position>
              <LatitudeDegrees>36.80953555740416049957275390625</LatitudeDegrees>
              <LongitudeDegrees>-4.3785263411700725555419921875</LongitudeDegrees>
            </Position>
            <AltitudeMeters>801.4000244140625</AltitudeMeters>
            <DistanceMeters>NAN</DistanceMeters>
          </Trackpoint>
          <Trackpoint>
            <Time>2020-12-05T14:14:44.000Z</Time>
            <Position>
              <LatitudeDegrees>36.80952801369130611419677734375</LatitudeDegrees>
              <LongitudeDegrees>-4.37854184769093990325927734375</LongitudeDegrees>
            </Position>
            <AltitudeMeters>801.4000244140625</AltitudeMeters>
            <DistanceMeters>NAN</DistanceMeters>
          </Trackpoint>
          <Trackpoint>
            <Time>2020-12-05T14:14:45.000Z</Time>
            <Position>
              <LatitudeDegrees>36.80952684022486209869384765625</LatitudeDegrees>
              <LongitudeDegrees>-4.378556348383426666259765625</LongitudeDegrees>
            </Position>
            <AltitudeMeters>801.4000244140625</AltitudeMeters>
            <DistanceMeters>NAN</DistanceMeters>
          </Trackpoint>
          <Trackpoint>
            <Time>2020-12-05T14:14:46.000Z</Time>
            <Position>
              <LatitudeDegrees>36.80952482856810092926025390625</LatitudeDegrees>
              <LongitudeDegrees>-4.37856699340045452117919921875</LongitudeDegrees>
            </Position>
            <AltitudeMeters>801.5999755859375</AltitudeMeters>
            <DistanceMeters>NAN</DistanceMeters>
          </Trackpoint>
          <Trackpoint>
            <Time>2020-12-05T14:14:47.000Z</Time>
            <Position>
              <LatitudeDegrees>36.8095249123871326446533203125</LatitudeDegrees>
              <LongitudeDegrees>-4.37858082354068756103515625</LongitudeDegrees>
            </Position>
            <AltitudeMeters>801.79998779296875</AltitudeMeters>
            <DistanceMeters>NAN</DistanceMeters>
          </Trackpoint>
          <Trackpoint>
            <Time>2020-12-05T14:14:48.000Z</Time>
            <Position>
              <LatitudeDegrees>36.809523738920688629150390625</LatitudeDegrees>
              <LongitudeDegrees>-4.37859498895704746246337890625</LongitudeDegrees>
            </Position>
            <AltitudeMeters>802.20001220703125</AltitudeMeters>
            <DistanceMeters>NAN</DistanceMeters>
          </Trackpoint>
          <Trackpoint>
            <Time>2020-12-05T14:14:49.000Z</Time>
            <Position>
              <LatitudeDegrees>36.80952164344489574432373046875</LatitudeDegrees>
              <LongitudeDegrees>-4.37861242331564426422119140625</LongitudeDegrees>
            </Position>
            <AltitudeMeters>802.4000244140625</AltitudeMeters>
            <DistanceMeters>NAN</DistanceMeters>
          </Trackpoint>
          <Trackpoint>
            <Time>2020-12-05T14:14:50.000Z</Time>
            <Position>
              <LatitudeDegrees>36.80951812304556369781494140625</LatitudeDegrees>
              <LongitudeDegrees>-4.3786270916461944580078125</LongitudeDegrees>
            </Position>
            <AltitudeMeters>802.5999755859375</AltitudeMeters>
            <DistanceMeters>NAN</DistanceMeters>
          </Trackpoint>
          <Trackpoint>
            <Time>2020-12-05T14:14:51.000Z</Time>
            <Position>
              <LatitudeDegrees>36.8095128424465656280517578125</LatitudeDegrees>
              <LongitudeDegrees>-4.378640837967395782470703125</LongitudeDegrees>
            </Position>
            <AltitudeMeters>802.79998779296875</AltitudeMeters>
            <DistanceMeters>NAN</DistanceMeters>
          </Trackpoint>
          <Trackpoint>
            <Time>2020-12-05T14:14:52.000Z</Time>
            <Position>
              <LatitudeDegrees>36.80950705893337726593017578125</LatitudeDegrees>
              <LongitudeDegrees>-4.37865349464118480682373046875</LongitudeDegrees>
            </Position>
            <AltitudeMeters>803.20001220703125</AltitudeMeters>
            <DistanceMeters>NAN</DistanceMeters>
          </Trackpoint>
          <Trackpoint>
            <Time>2020-12-05T14:14:53.000Z</Time>
            <Position>
              <LatitudeDegrees>36.8095017783343791961669921875</LatitudeDegrees>
              <LongitudeDegrees>-4.3786671571433544158935546875</LongitudeDegrees>
            </Position>
            <AltitudeMeters>803.20001220703125</AltitudeMeters>
            <DistanceMeters>NAN</DistanceMeters>
          </Trackpoint>
          <Trackpoint>
            <Time>2020-12-05T14:14:54.000Z</Time>
            <Position>
              <LatitudeDegrees>36.8094970844686031341552734375</LatitudeDegrees>
              <LongitudeDegrees>-4.37868216075003147125244140625</LongitudeDegrees>
            </Position>
            <AltitudeMeters>803.4000244140625</AltitudeMeters>
            <DistanceMeters>NAN</DistanceMeters>
          </Trackpoint>
          <Trackpoint>
            <Time>2020-12-05T14:14:55.000Z</Time>
            <Position>
              <LatitudeDegrees>36.80949188768863677978515625</LatitudeDegrees>
              <LongitudeDegrees>-4.378696493804454803466796875</LongitudeDegrees>
            </Position>
            <AltitudeMeters>803.4000244140625</AltitudeMeters>
            <DistanceMeters>NAN</DistanceMeters>
          </Trackpoint>
          <Trackpoint>
            <Time>2020-12-05T14:14:56.000Z</Time>
            <Position>
              <LatitudeDegrees>36.80948677472770214080810546875</LatitudeDegrees>
              <LongitudeDegrees>-4.378713928163051605224609375</LongitudeDegrees>
            </Position>
            <AltitudeMeters>803.4000244140625</AltitudeMeters>
            <DistanceMeters>NAN</DistanceMeters>
          </Trackpoint>
          <Trackpoint>
            <Time>2020-12-05T14:14:57.000Z</Time>
            <Position>
              <LatitudeDegrees>36.80948224849998950958251953125</LatitudeDegrees>
              <LongitudeDegrees>-4.3787236511707305908203125</LongitudeDegrees>
            </Position>
            <AltitudeMeters>803.5999755859375</AltitudeMeters>
            <DistanceMeters>NAN</DistanceMeters>
          </Trackpoint>
          <Trackpoint>
            <Time>2020-12-05T14:14:58.000Z</Time>
            <Position>
              <LatitudeDegrees>36.8094826675951480865478515625</LatitudeDegrees>
              <LongitudeDegrees>-4.37873396091163158416748046875</LongitudeDegrees>
            </Position>
            <AltitudeMeters>803.5999755859375</AltitudeMeters>
            <DistanceMeters>NAN</DistanceMeters>
          </Trackpoint>
          <Trackpoint>
            <Time>2020-12-05T14:14:59.000Z</Time>
            <Position>
              <LatitudeDegrees>36.80948442779481410980224609375</LatitudeDegrees>
              <LongitudeDegrees>-4.3787446059286594390869140625</LongitudeDegrees>
            </Position>
            <AltitudeMeters>803.5999755859375</AltitudeMeters>
            <DistanceMeters>NAN</DistanceMeters>
          </Trackpoint>
          <Trackpoint>
            <Time>2020-12-05T14:15:00.000Z</Time>
            <Position>
              <LatitudeDegrees>36.80948375724256038665771484375</LatitudeDegrees>
              <LongitudeDegrees>-4.3787573464214801788330078125</LongitudeDegrees>
            </Position>
            <AltitudeMeters>803.5999755859375</AltitudeMeters>
            <DistanceMeters>NAN</DistanceMeters>
          </Trackpoint>
          <Trackpoint>
            <Time>2020-12-05T14:15:01.000Z</Time>
            <Position>
              <LatitudeDegrees>36.80947990156710147857666015625</LatitudeDegrees>
              <LongitudeDegrees>-4.3787687458097934722900390625</LongitudeDegrees>
            </Position>
            <AltitudeMeters>803.5999755859375</AltitudeMeters>
            <DistanceMeters>NAN</DistanceMeters>
          </Trackpoint>
          <Trackpoint>
            <Time>2020-12-05T14:15:02.000Z</Time>
            <Position>
              <LatitudeDegrees>36.80947504006326198577880859375</LatitudeDegrees>
              <LongitudeDegrees>-4.37877989374101161956787109375</LongitudeDegrees>
            </Position>
            <AltitudeMeters>803.5999755859375</AltitudeMeters>
            <DistanceMeters>NAN</DistanceMeters>
          </Trackpoint>
          <Trackpoint>
            <Time>2020-12-05T14:15:03.000Z</Time>
            <Position>
              <LatitudeDegrees>36.8094669096171855926513671875</LatitudeDegrees>
              <LongitudeDegrees>-4.37879229895770549774169921875</LongitudeDegrees>
            </Position>
            <AltitudeMeters>803.79998779296875</AltitudeMeters>
            <DistanceMeters>NAN</DistanceMeters>
          </Trackpoint>
          <Trackpoint>
            <Time>2020-12-05T14:15:04.000Z</Time>
            <Position>
              <LatitudeDegrees>36.8094571866095066070556640625</LatitudeDegrees>
              <LongitudeDegrees>-4.378806464374065399169921875</LongitudeDegrees>
            </Position>
            <AltitudeMeters>803.79998779296875</AltitudeMeters>
            <DistanceMeters>NAN</DistanceMeters>
          </Trackpoint>
          <Trackpoint>
            <Time>2020-12-05T14:15:05.000Z</Time>
            <Position>
              <LatitudeDegrees>36.80944536812603473663330078125</LatitudeDegrees>
              <LongitudeDegrees>-4.37882029451429843902587890625</LongitudeDegrees>
            </Position>
            <AltitudeMeters>804</AltitudeMeters>
            <DistanceMeters>NAN</DistanceMeters>
          </Trackpoint>
          <Trackpoint>
            <Time>2020-12-05T14:15:06.000Z</Time>
            <Position>
              <LatitudeDegrees>36.80943665094673633575439453125</LatitudeDegrees>
              <LongitudeDegrees>-4.37882959842681884765625</LongitudeDegrees>
            </Position>
            <AltitudeMeters>804</AltitudeMeters>
            <DistanceMeters>NAN</DistanceMeters>
          </Trackpoint>
          <Trackpoint>
            <Time>2020-12-05T14:15:07.000Z</Time>
            <Position>
              <LatitudeDegrees>36.809432208538055419921875</LatitudeDegrees>
              <LongitudeDegrees>-4.37882733531296253204345703125</LongitudeDegrees>
            </Position>
            <AltitudeMeters>804.20001220703125</AltitudeMeters>
            <DistanceMeters>NAN</DistanceMeters>
          </Trackpoint>
          <Trackpoint>
            <Time>2020-12-05T14:15:08.000Z</Time>
            <Position>
              <LatitudeDegrees>36.8094201385974884033203125</LatitudeDegrees>
              <LongitudeDegrees>-4.37884191982448101043701171875</LongitudeDegrees>
            </Position>
            <AltitudeMeters>804.20001220703125</AltitudeMeters>
            <DistanceMeters>NAN</DistanceMeters>
          </Trackpoint>
          <Trackpoint>
            <Time>2020-12-05T14:15:09.000Z</Time>
            <Position>
              <LatitudeDegrees>36.80940949358046054840087890625</LatitudeDegrees>
              <LongitudeDegrees>-4.378853738307952880859375</LongitudeDegrees>
            </Position>
            <AltitudeMeters>804.20001220703125</AltitudeMeters>
            <DistanceMeters>NAN</DistanceMeters>
          </Trackpoint>
          <Trackpoint>
            <Time>2020-12-05T14:15:10.000Z</Time>
            <Position>
              <LatitudeDegrees>36.80940194986760616302490234375</LatitudeDegrees>
              <LongitudeDegrees>-4.37886253930628299713134765625</LongitudeDegrees>
            </Position>
            <AltitudeMeters>804.20001220703125</AltitudeMeters>
            <DistanceMeters>NAN</DistanceMeters>
          </Trackpoint>
          <Trackpoint>
            <Time>2020-12-05T14:15:11.000Z</Time>
            <Position>
              <LatitudeDegrees>36.80939323268830776214599609375</LatitudeDegrees>
              <LongitudeDegrees>-4.3788711726665496826171875</LongitudeDegrees>
            </Position>
            <AltitudeMeters>804.4000244140625</AltitudeMeters>
            <DistanceMeters>NAN</DistanceMeters>
          </Trackpoint>
          <Trackpoint>
            <Time>2020-12-05T14:15:12.000Z</Time>
            <Position>
              <LatitudeDegrees>36.80938384495675563812255859375</LatitudeDegrees>
              <LongitudeDegrees>-4.378883577883243560791015625</LongitudeDegrees>
            </Position>
            <AltitudeMeters>804.4000244140625</AltitudeMeters>
            <DistanceMeters>NAN</DistanceMeters>
          </Trackpoint>
          <Trackpoint>
            <Time>2020-12-05T14:15:13.000Z</Time>
            <Position>
              <LatitudeDegrees>36.80937579832971096038818359375</LatitudeDegrees>
              <LongitudeDegrees>-4.37889506109058856964111328125</LongitudeDegrees>
            </Position>
            <AltitudeMeters>804.4000244140625</AltitudeMeters>
            <DistanceMeters>NAN</DistanceMeters>
          </Trackpoint>
          <Trackpoint>
            <Time>2020-12-05T14:15:14.000Z</Time>
            <Position>
              <LatitudeDegrees>36.80936758406460285186767578125</LatitudeDegrees>
              <LongitudeDegrees>-4.3789085559546947479248046875</LongitudeDegrees>
            </Position>
            <AltitudeMeters>804.5999755859375</AltitudeMeters>
            <DistanceMeters>NAN</DistanceMeters>
          </Trackpoint>
          <Trackpoint>
            <Time>2020-12-05T14:15:15.000Z</Time>
            <Position>
              <LatitudeDegrees>36.809360124170780181884765625</LatitudeDegrees>
              <LongitudeDegrees>-4.3789229728281497955322265625</LongitudeDegrees>
            </Position>
            <AltitudeMeters>804.5999755859375</AltitudeMeters>
            <DistanceMeters>NAN</DistanceMeters>
          </Trackpoint>
          <Trackpoint>
            <Time>2020-12-05T14:15:16.000Z</Time>
            <Position>
              <LatitudeDegrees>36.80935283191502094268798828125</LatitudeDegrees>
              <LongitudeDegrees>-4.37893244437873363494873046875</LongitudeDegrees>
            </Position>
            <AltitudeMeters>804.5999755859375</AltitudeMeters>
            <DistanceMeters>NAN</DistanceMeters>
          </Trackpoint>
          <Trackpoint>
            <Time>2020-12-05T14:15:17.000Z</Time>
            <Position>
              <LatitudeDegrees>36.8093452043831348419189453125</LatitudeDegrees>
              <LongitudeDegrees>-4.37893914990127086639404296875</LongitudeDegrees>
            </Position>
            <AltitudeMeters>804.5999755859375</AltitudeMeters>
            <DistanceMeters>NAN</DistanceMeters>
          </Trackpoint>
          <Trackpoint>
            <Time>2020-12-05T14:15:18.000Z</Time>
            <Position>
              <LatitudeDegrees>36.80933724157512187957763671875</LatitudeDegrees>
              <LongitudeDegrees>-4.378945268690586090087890625</LongitudeDegrees>
            </Position>
            <AltitudeMeters>804.5999755859375</AltitudeMeters>
            <DistanceMeters>NAN</DistanceMeters>
          </Trackpoint>
          <Trackpoint>
            <Time>2020-12-05T14:15:19.000Z</Time>
            <Position>
              <LatitudeDegrees>36.8093284405767917633056640625</LatitudeDegrees>
              <LongitudeDegrees>-4.37895298004150390625</LongitudeDegrees>
            </Position>
            <AltitudeMeters>804.79998779296875</AltitudeMeters>
            <DistanceMeters>NAN</DistanceMeters>
          </Trackpoint>
          <Trackpoint>
            <Time>2020-12-05T14:15:20.000Z</Time>
            <Position>
              <LatitudeDegrees>36.809317208826541900634765625</LatitudeDegrees>
              <LongitudeDegrees>-4.3789652176201343536376953125</LongitudeDegrees>
            </Position>
            <AltitudeMeters>804.79998779296875</AltitudeMeters>
            <DistanceMeters>NAN</DistanceMeters>
          </Trackpoint>
          <Trackpoint>
            <Time>2020-12-05T14:15:21.000Z</Time>
            <Position>
              <LatitudeDegrees>36.8093039654195308685302734375</LatitudeDegrees>
              <LongitudeDegrees>-4.37897720374166965484619140625</LongitudeDegrees>
            </Position>
            <AltitudeMeters>805</AltitudeMeters>
            <DistanceMeters>NAN</DistanceMeters>
          </Trackpoint>
          <Trackpoint>
            <Time>2020-12-05T14:15:22.000Z</Time>
            <Position>
              <LatitudeDegrees>36.80929206311702728271484375</LatitudeDegrees>
              <LongitudeDegrees>-4.378987848758697509765625</LongitudeDegrees>
            </Position>
            <AltitudeMeters>805</AltitudeMeters>
            <DistanceMeters>NAN</DistanceMeters>
          </Trackpoint>
          <Trackpoint>
            <Time>2020-12-05T14:15:23.000Z</Time>
            <Position>
              <LatitudeDegrees>36.80928091518580913543701171875</LatitudeDegrees>
              <LongitudeDegrees>-4.37899530865252017974853515625</LongitudeDegrees>
            </Position>
            <AltitudeMeters>805</AltitudeMeters>
            <DistanceMeters>NAN</DistanceMeters>
          </Trackpoint>
          <Trackpoint>
            <Time>2020-12-05T14:15:24.000Z</Time>
            <Position>
              <LatitudeDegrees>36.8092707730829715728759765625</LatitudeDegrees>
              <LongitudeDegrees>-4.37900000251829624176025390625</LongitudeDegrees>
            </Position>
            <AltitudeMeters>805</AltitudeMeters>
            <DistanceMeters>NAN</DistanceMeters>
          </Trackpoint>
          <Trackpoint>
            <Time>2020-12-05T14:15:25.000Z</Time>
            <Position>
              <LatitudeDegrees>36.8092620559036731719970703125</LatitudeDegrees>
              <LongitudeDegrees>-4.3790044449269771575927734375</LongitudeDegrees>
            </Position>
            <AltitudeMeters>805</AltitudeMeters>
            <DistanceMeters>NAN</DistanceMeters>
          </Trackpoint>
          <Trackpoint>
            <Time>2020-12-05T14:15:26.000Z</Time>
            <Position>
              <LatitudeDegrees>36.8092538416385650634765625</LatitudeDegrees>
              <LongitudeDegrees>-4.37901039607822895050048828125</LongitudeDegrees>
            </Position>
            <AltitudeMeters>805</AltitudeMeters>
            <DistanceMeters>NAN</DistanceMeters>
          </Trackpoint>
          <Trackpoint>
            <Time>2020-12-05T14:15:27.000Z</Time>
            <Position>
              <LatitudeDegrees>36.80924721993505954742431640625</LatitudeDegrees>
              <LongitudeDegrees>-4.3790160119533538818359375</LongitudeDegrees>
            </Position>
            <AltitudeMeters>805</AltitudeMeters>
            <DistanceMeters>NAN</DistanceMeters>
          </Trackpoint>
          <Trackpoint>
            <Time>2020-12-05T14:15:28.000Z</Time>
            <Position>
              <LatitudeDegrees>36.8092405982315540313720703125</LatitudeDegrees>
              <LongitudeDegrees>-4.37902204692363739013671875</LongitudeDegrees>
            </Position>
            <AltitudeMeters>805</AltitudeMeters>
            <DistanceMeters>NAN</DistanceMeters>
          </Trackpoint>
          <Trackpoint>
            <Time>2020-12-05T14:15:29.000Z</Time>
            <Position>
              <LatitudeDegrees>36.80923213250935077667236328125</LatitudeDegrees>
              <LongitudeDegrees>-4.3790322728455066680908203125</LongitudeDegrees>
            </Position>
            <AltitudeMeters>805.20001220703125</AltitudeMeters>
            <DistanceMeters>NAN</DistanceMeters>
          </Trackpoint>
          <Trackpoint>
            <Time>2020-12-05T14:15:30.000Z</Time>
            <Position>
              <LatitudeDegrees>36.8092224933207035064697265625</LatitudeDegrees>
              <LongitudeDegrees>-4.37904492951929569244384765625</LongitudeDegrees>
            </Position>
            <AltitudeMeters>805.20001220703125</AltitudeMeters>
            <DistanceMeters>NAN</DistanceMeters>
          </Trackpoint>
          <Trackpoint>
            <Time>2020-12-05T14:15:31.000Z</Time>
            <Position>
              <LatitudeDegrees>36.8092151172459125518798828125</LatitudeDegrees>
              <LongitudeDegrees>-4.37905767001211643218994140625</LongitudeDegrees>
            </Position>
            <AltitudeMeters>805.4000244140625</AltitudeMeters>
            <DistanceMeters>NAN</DistanceMeters>
          </Trackpoint>
          <Trackpoint>
            <Time>2020-12-05T14:15:32.000Z</Time>
            <Position>
              <LatitudeDegrees>36.80920799262821674346923828125</LatitudeDegrees>
              <LongitudeDegrees>-4.37906957231462001800537109375</LongitudeDegrees>
            </Position>
            <AltitudeMeters>805.79998779296875</AltitudeMeters>
            <DistanceMeters>NAN</DistanceMeters>
          </Trackpoint>
          <Trackpoint>
            <Time>2020-12-05T14:15:33.000Z</Time>
            <Position>
              <LatitudeDegrees>36.809201873838901519775390625</LatitudeDegrees>
              <LongitudeDegrees>-4.3790775351226329803466796875</LongitudeDegrees>
            </Position>
            <AltitudeMeters>805.79998779296875</AltitudeMeters>
            <DistanceMeters>NAN</DistanceMeters>
          </Trackpoint>
          <Trackpoint>
            <Time>2020-12-05T14:15:34.000Z</Time>
            <Position>
              <LatitudeDegrees>36.80919541977345943450927734375</LatitudeDegrees>
              <LongitudeDegrees>-4.3790845759212970733642578125</LongitudeDegrees>
            </Position>
            <AltitudeMeters>806</AltitudeMeters>
            <DistanceMeters>NAN</DistanceMeters>
          </Trackpoint>
          <Trackpoint>
            <Time>2020-12-05T14:15:35.000Z</Time>
            <Position>
              <LatitudeDegrees>36.80918904952704906463623046875</LatitudeDegrees>
              <LongitudeDegrees>-4.37909052707254886627197265625</LongitudeDegrees>
            </Position>
            <AltitudeMeters>806</AltitudeMeters>
            <DistanceMeters>NAN</DistanceMeters>
          </Trackpoint>
          <Trackpoint>
            <Time>2020-12-05T14:15:36.000Z</Time>
            <Position>
              <LatitudeDegrees>36.809182427823543548583984375</LatitudeDegrees>
              <LongitudeDegrees>-4.37909781932830810546875</LongitudeDegrees>
            </Position>
            <AltitudeMeters>806</AltitudeMeters>
            <DistanceMeters>NAN</DistanceMeters>
          </Trackpoint>
          <Trackpoint>
            <Time>2020-12-05T14:15:37.000Z</Time>
            <Position>
              <LatitudeDegrees>36.80917614139616489410400390625</LatitudeDegrees>
              <LongitudeDegrees>-4.37910544686019420623779296875</LongitudeDegrees>
            </Position>
            <AltitudeMeters>806</AltitudeMeters>
            <DistanceMeters>NAN</DistanceMeters>
          </Trackpoint>
          <Trackpoint>
            <Time>2020-12-05T14:15:38.000Z</Time>
            <Position>
              <LatitudeDegrees>36.80916993878781795501708984375</LatitudeDegrees>
              <LongitudeDegrees>-4.37911332584917545318603515625</LongitudeDegrees>
            </Position>
            <AltitudeMeters>806</AltitudeMeters>
            <DistanceMeters>NAN</DistanceMeters>
          </Trackpoint>
          <Trackpoint>
            <Time>2020-12-05T14:15:39.000Z</Time>
            <Position>
              <LatitudeDegrees>36.8091631494462490081787109375</LatitudeDegrees>
              <LongitudeDegrees>-4.37912288121879100799560546875</LongitudeDegrees>
            </Position>
            <AltitudeMeters>805.79998779296875</AltitudeMeters>
            <DistanceMeters>NAN</DistanceMeters>
          </Trackpoint>
          <Trackpoint>
            <Time>2020-12-05T14:15:40.000Z</Time>
            <Position>
              <LatitudeDegrees>36.80915786884725093841552734375</LatitudeDegrees>
              <LongitudeDegrees>-4.37913076020777225494384765625</LongitudeDegrees>
            </Position>
            <AltitudeMeters>805.79998779296875</AltitudeMeters>
            <DistanceMeters>NAN</DistanceMeters>
          </Trackpoint>
          <Trackpoint>
            <Time>2020-12-05T14:15:41.000Z</Time>
            <Position>
              <LatitudeDegrees>36.80915283970534801483154296875</LatitudeDegrees>
              <LongitudeDegrees>-4.37913796864449977874755859375</LongitudeDegrees>
            </Position>
            <AltitudeMeters>805.79998779296875</AltitudeMeters>
            <DistanceMeters>NAN</DistanceMeters>
          </Trackpoint>
          <Trackpoint>
            <Time>2020-12-05T14:15:42.000Z</Time>
            <Position>
              <LatitudeDegrees>36.80914781056344509124755859375</LatitudeDegrees>
              <LongitudeDegrees>-4.3791452609002590179443359375</LongitudeDegrees>
            </Position>
            <AltitudeMeters>805.5999755859375</AltitudeMeters>
            <DistanceMeters>NAN</DistanceMeters>
          </Trackpoint>
          <Trackpoint>
            <Time>2020-12-05T14:15:43.000Z</Time>
            <Position>
              <LatitudeDegrees>36.8091426976025104522705078125</LatitudeDegrees>
              <LongitudeDegrees>-4.37915439717471599578857421875</LongitudeDegrees>
            </Position>
            <AltitudeMeters>805.5999755859375</AltitudeMeters>
            <DistanceMeters>NAN</DistanceMeters>
          </Trackpoint>
          <Trackpoint>
            <Time>2020-12-05T14:15:44.000Z</Time>
            <Position>
              <LatitudeDegrees>36.8091369979083538055419921875</LatitudeDegrees>
              <LongitudeDegrees>-4.37916462309658527374267578125</LongitudeDegrees>
            </Position>
            <AltitudeMeters>805.5999755859375</AltitudeMeters>
            <DistanceMeters>NAN</DistanceMeters>
          </Trackpoint>
          <Trackpoint>
            <Time>2020-12-05T14:15:45.000Z</Time>
            <Position>
              <LatitudeDegrees>36.80912937037646770477294921875</LatitudeDegrees>
              <LongitudeDegrees>-4.379173927009105682373046875</LongitudeDegrees>
            </Position>
            <AltitudeMeters>805.5999755859375</AltitudeMeters>
            <DistanceMeters>NAN</DistanceMeters>
          </Trackpoint>
          <Trackpoint>
            <Time>2020-12-05T14:15:46.000Z</Time>
            <Position>
              <LatitudeDegrees>36.809122078120708465576171875</LatitudeDegrees>
              <LongitudeDegrees>-4.3791848234832286834716796875</LongitudeDegrees>
            </Position>
            <AltitudeMeters>805.5999755859375</AltitudeMeters>
            <DistanceMeters>NAN</DistanceMeters>
          </Trackpoint>
          <Trackpoint>
            <Time>2020-12-05T14:15:47.000Z</Time>
            <Position>
              <LatitudeDegrees>36.80911545641720294952392578125</LatitudeDegrees>
              <LongitudeDegrees>-4.379195384681224822998046875</LongitudeDegrees>
            </Position>
            <AltitudeMeters>805.79998779296875</AltitudeMeters>
            <DistanceMeters>NAN</DistanceMeters>
          </Trackpoint>
          <Trackpoint>
            <Time>2020-12-05T14:15:48.000Z</Time>
            <Position>
              <LatitudeDegrees>36.80910757742822170257568359375</LatitudeDegrees>
              <LongitudeDegrees>-4.37920653261244297027587890625</LongitudeDegrees>
            </Position>
            <AltitudeMeters>805.79998779296875</AltitudeMeters>
            <DistanceMeters>NAN</DistanceMeters>
          </Trackpoint>
          <Trackpoint>
            <Time>2020-12-05T14:15:49.000Z</Time>
            <Position>
              <LatitudeDegrees>36.80910003371536731719970703125</LatitudeDegrees>
              <LongitudeDegrees>-4.37921742908656597137451171875</LongitudeDegrees>
            </Position>
            <AltitudeMeters>806</AltitudeMeters>
            <DistanceMeters>NAN</DistanceMeters>
          </Trackpoint>
          <Trackpoint>
            <Time>2020-12-05T14:15:50.000Z</Time>
            <Position>
              <LatitudeDegrees>36.8090917356312274932861328125</LatitudeDegrees>
              <LongitudeDegrees>-4.3792274035513401031494140625</LongitudeDegrees>
            </Position>
            <AltitudeMeters>806.20001220703125</AltitudeMeters>
            <DistanceMeters>NAN</DistanceMeters>
          </Trackpoint>
          <Trackpoint>
            <Time>2020-12-05T14:15:51.000Z</Time>
            <Position>
              <LatitudeDegrees>36.8090840242803096771240234375</LatitudeDegrees>
              <LongitudeDegrees>-4.3792367912828922271728515625</LongitudeDegrees>
            </Position>
            <AltitudeMeters>806.20001220703125</AltitudeMeters>
            <DistanceMeters>NAN</DistanceMeters>
          </Trackpoint>
          <Trackpoint>
            <Time>2020-12-05T14:15:52.000Z</Time>
            <Position>
              <LatitudeDegrees>36.8090766482055187225341796875</LatitudeDegrees>
              <LongitudeDegrees>-4.37924575991928577423095703125</LongitudeDegrees>
            </Position>
            <AltitudeMeters>806.4000244140625</AltitudeMeters>
            <DistanceMeters>NAN</DistanceMeters>
          </Trackpoint>
          <Trackpoint>
            <Time>2020-12-05T14:15:53.000Z</Time>
            <Position>
              <LatitudeDegrees>36.80906700901687145233154296875</LatitudeDegrees>
              <LongitudeDegrees>-4.37925213016569614410400390625</LongitudeDegrees>
            </Position>
            <AltitudeMeters>806.5999755859375</AltitudeMeters>
            <DistanceMeters>NAN</DistanceMeters>
          </Trackpoint>
          <Trackpoint>
            <Time>2020-12-05T14:15:54.000Z</Time>
            <Position>
              <LatitudeDegrees>36.80905661545693874359130859375</LatitudeDegrees>
              <LongitudeDegrees>-4.37925967387855052947998046875</LongitudeDegrees>
            </Position>
            <AltitudeMeters>806.5999755859375</AltitudeMeters>
            <DistanceMeters>NAN</DistanceMeters>
          </Trackpoint>
          <Trackpoint>
            <Time>2020-12-05T14:15:55.000Z</Time>
            <Position>
              <LatitudeDegrees>36.80904471315443515777587890625</LatitudeDegrees>
              <LongitudeDegrees>-4.3792662955820560455322265625</LongitudeDegrees>
            </Position>
            <AltitudeMeters>806.79998779296875</AltitudeMeters>
            <DistanceMeters>NAN</DistanceMeters>
          </Trackpoint>
          <Trackpoint>
            <Time>2020-12-05T14:15:56.000Z</Time>
            <Position>
              <LatitudeDegrees>36.809030883014202117919921875</LatitudeDegrees>
              <LongitudeDegrees>-4.37927442602813243865966796875</LongitudeDegrees>
            </Position>
            <AltitudeMeters>806.79998779296875</AltitudeMeters>
            <DistanceMeters>NAN</DistanceMeters>
          </Trackpoint>
          <Trackpoint>
            <Time>2020-12-05T14:15:57.000Z</Time>
            <Position>
              <LatitudeDegrees>36.80901705287396907806396484375</LatitudeDegrees>
              <LongitudeDegrees>-4.3792833946645259857177734375</LongitudeDegrees>
            </Position>
            <AltitudeMeters>807</AltitudeMeters>
            <DistanceMeters>NAN</DistanceMeters>
          </Trackpoint>
          <Trackpoint>
            <Time>2020-12-05T14:15:58.000Z</Time>
            <Position>
              <LatitudeDegrees>36.80900364182889461517333984375</LatitudeDegrees>
              <LongitudeDegrees>-4.3792901001870632171630859375</LongitudeDegrees>
            </Position>
            <AltitudeMeters>807.20001220703125</AltitudeMeters>
            <DistanceMeters>NAN</DistanceMeters>
          </Trackpoint>
          <Trackpoint>
            <Time>2020-12-05T14:15:59.000Z</Time>
            <Position>
              <LatitudeDegrees>36.80899257771670818328857421875</LatitudeDegrees>
              <LongitudeDegrees>-4.37929605133831501007080078125</LongitudeDegrees>
            </Position>
            <AltitudeMeters>807.4000244140625</AltitudeMeters>
            <DistanceMeters>NAN</DistanceMeters>
          </Trackpoint>
          <Trackpoint>
            <Time>2020-12-05T14:16:00.000Z</Time>
            <Position>
              <LatitudeDegrees>36.80898318998515605926513671875</LatitudeDegrees>
              <LongitudeDegrees>-4.37930325977504253387451171875</LongitudeDegrees>
            </Position>
            <AltitudeMeters>807.5999755859375</AltitudeMeters>
            <DistanceMeters>NAN</DistanceMeters>
          </Trackpoint>
          <Trackpoint>
            <Time>2020-12-05T14:16:01.000Z</Time>
            <Position>
              <LatitudeDegrees>36.808974556624889373779296875</LatitudeDegrees>
              <LongitudeDegrees>-4.37931097112596035003662109375</LongitudeDegrees>
            </Position>
            <AltitudeMeters>807.79998779296875</AltitudeMeters>
            <DistanceMeters>NAN</DistanceMeters>
          </Trackpoint>
          <Trackpoint>
            <Time>2020-12-05T14:16:02.000Z</Time>
            <Position>
              <LatitudeDegrees>36.80896617472171783447265625</LatitudeDegrees>
              <LongitudeDegrees>-4.37931574881076812744140625</LongitudeDegrees>
            </Position>
            <AltitudeMeters>808</AltitudeMeters>
            <DistanceMeters>NAN</DistanceMeters>
          </Trackpoint>
          <Trackpoint>
            <Time>2020-12-05T14:16:03.000Z</Time>
            <Position>
              <LatitudeDegrees>36.80895821191370487213134765625</LatitudeDegrees>
              <LongitudeDegrees>-4.37931977212429046630859375</LongitudeDegrees>
            </Position>
            <AltitudeMeters>808</AltitudeMeters>
            <DistanceMeters>NAN</DistanceMeters>
          </Trackpoint>
          <Trackpoint>
            <Time>2020-12-05T14:16:04.000Z</Time>
            <Position>
              <LatitudeDegrees>36.80894932709634304046630859375</LatitudeDegrees>
              <LongitudeDegrees>-4.37932287342846393585205078125</LongitudeDegrees>
            </Position>
            <AltitudeMeters>808.20001220703125</AltitudeMeters>
            <DistanceMeters>NAN</DistanceMeters>
          </Trackpoint>
          <Trackpoint>
            <Time>2020-12-05T14:16:05.000Z</Time>
            <Position>
              <LatitudeDegrees>36.808941364288330078125</LatitudeDegrees>
              <LongitudeDegrees>-4.3793271481990814208984375</LongitudeDegrees>
            </Position>
            <AltitudeMeters>808.4000244140625</AltitudeMeters>
            <DistanceMeters>NAN</DistanceMeters>
          </Trackpoint>
          <Trackpoint>
            <Time>2020-12-05T14:16:06.000Z</Time>
            <Position>
              <LatitudeDegrees>36.80893172509968280792236328125</LatitudeDegrees>
              <LongitudeDegrees>-4.3793306685984134674072265625</LongitudeDegrees>
            </Position>
            <AltitudeMeters>808.4000244140625</AltitudeMeters>
            <DistanceMeters>NAN</DistanceMeters>
          </Trackpoint>
          <Trackpoint>
            <Time>2020-12-05T14:16:07.000Z</Time>
            <Position>
              <LatitudeDegrees>36.80892116390168666839599609375</LatitudeDegrees>
              <LongitudeDegrees>-4.3793326802551746368408203125</LongitudeDegrees>
            </Position>
            <AltitudeMeters>808.4000244140625</AltitudeMeters>
            <DistanceMeters>NAN</DistanceMeters>
          </Trackpoint>
          <Trackpoint>
            <Time>2020-12-05T14:16:08.000Z</Time>
            <Position>
              <LatitudeDegrees>36.808910854160785675048828125</LatitudeDegrees>
              <LongitudeDegrees>-4.37933460809290409088134765625</LongitudeDegrees>
            </Position>
            <AltitudeMeters>808.4000244140625</AltitudeMeters>
            <DistanceMeters>NAN</DistanceMeters>
          </Trackpoint>
          <Trackpoint>
            <Time>2020-12-05T14:16:09.000Z</Time>
            <Position>
              <LatitudeDegrees>36.808902136981487274169921875</LatitudeDegrees>
              <LongitudeDegrees>-4.37933745793998241424560546875</LongitudeDegrees>
            </Position>
            <AltitudeMeters>808.4000244140625</AltitudeMeters>
            <DistanceMeters>NAN</DistanceMeters>
          </Trackpoint>
          <Trackpoint>
            <Time>2020-12-05T14:16:10.000Z</Time>
            <Position>
              <LatitudeDegrees>36.8088919110596179962158203125</LatitudeDegrees>
              <LongitudeDegrees>-4.37934466637670993804931640625</LongitudeDegrees>
            </Position>
            <AltitudeMeters>808.20001220703125</AltitudeMeters>
            <DistanceMeters>NAN</DistanceMeters>
          </Trackpoint>
          <Trackpoint>
            <Time>2020-12-05T14:16:11.000Z</Time>
            <Position>
              <LatitudeDegrees>36.80888168513774871826171875</LatitudeDegrees>
              <LongitudeDegrees>-4.379351623356342315673828125</LongitudeDegrees>
            </Position>
            <AltitudeMeters>808.20001220703125</AltitudeMeters>
            <DistanceMeters>NAN</DistanceMeters>
          </Trackpoint>
          <Trackpoint>
            <Time>2020-12-05T14:16:12.000Z</Time>
            <Position>
              <LatitudeDegrees>36.80887229740619659423828125</LatitudeDegrees>
              <LongitudeDegrees>-4.37935673631727695465087890625</LongitudeDegrees>
            </Position>
            <AltitudeMeters>808</AltitudeMeters>
            <DistanceMeters>NAN</DistanceMeters>
          </Trackpoint>
          <Trackpoint>
            <Time>2020-12-05T14:16:13.000Z</Time>
            <Position>
              <LatitudeDegrees>36.808861903846263885498046875</LatitudeDegrees>
              <LongitudeDegrees>-4.379362352192401885986328125</LongitudeDegrees>
            </Position>
            <AltitudeMeters>808</AltitudeMeters>
            <DistanceMeters>NAN</DistanceMeters>
          </Trackpoint>
          <Trackpoint>
            <Time>2020-12-05T14:16:14.000Z</Time>
            <Position>
              <LatitudeDegrees>36.80885226465761661529541015625</LatitudeDegrees>
              <LongitudeDegrees>-4.37936495058238506317138671875</LongitudeDegrees>
            </Position>
            <AltitudeMeters>808</AltitudeMeters>
            <DistanceMeters>NAN</DistanceMeters>
          </Trackpoint>
          <Trackpoint>
            <Time>2020-12-05T14:16:15.000Z</Time>
            <Position>
              <LatitudeDegrees>36.8088436312973499298095703125</LatitudeDegrees>
              <LongitudeDegrees>-4.37936729751527309417724609375</LongitudeDegrees>
            </Position>
            <AltitudeMeters>807.79998779296875</AltitudeMeters>
            <DistanceMeters>NAN</DistanceMeters>
          </Trackpoint>
          <Trackpoint>
            <Time>2020-12-05T14:16:16.000Z</Time>
            <Position>
              <LatitudeDegrees>36.80883348919451236724853515625</LatitudeDegrees>
              <LongitudeDegrees>-4.37937073409557342529296875</LongitudeDegrees>
            </Position>
            <AltitudeMeters>807.79998779296875</AltitudeMeters>
            <DistanceMeters>NAN</DistanceMeters>
          </Trackpoint>
          <Trackpoint>
            <Time>2020-12-05T14:16:17.000Z</Time>
            <Position>
              <LatitudeDegrees>36.808821670711040496826171875</LatitudeDegrees>
              <LongitudeDegrees>-4.37937718816101551055908203125</LongitudeDegrees>
            </Position>
            <AltitudeMeters>808</AltitudeMeters>
            <DistanceMeters>NAN</DistanceMeters>
          </Trackpoint>
          <Trackpoint>
            <Time>2020-12-05T14:16:18.000Z</Time>
            <Position>
              <LatitudeDegrees>36.80880926549434661865234375</LatitudeDegrees>
              <LongitudeDegrees>-4.3793888390064239501953125</LongitudeDegrees>
            </Position>
            <AltitudeMeters>808</AltitudeMeters>
            <DistanceMeters>NAN</DistanceMeters>
          </Trackpoint>
          <Trackpoint>
            <Time>2020-12-05T14:16:19.000Z</Time>
            <Position>
              <LatitudeDegrees>36.8087970279157161712646484375</LatitudeDegrees>
              <LongitudeDegrees>-4.379400573670864105224609375</LongitudeDegrees>
            </Position>
            <AltitudeMeters>808</AltitudeMeters>
            <DistanceMeters>NAN</DistanceMeters>
          </Trackpoint>
          <Trackpoint>
            <Time>2020-12-05T14:16:20.000Z</Time>
            <Position>
              <LatitudeDegrees>36.808784790337085723876953125</LatitudeDegrees>
              <LongitudeDegrees>-4.3794134818017482757568359375</LongitudeDegrees>
            </Position>
            <AltitudeMeters>808.20001220703125</AltitudeMeters>
            <DistanceMeters>NAN</DistanceMeters>
          </Trackpoint>
          <Trackpoint>
            <Time>2020-12-05T14:16:21.000Z</Time>
            <Position>
              <LatitudeDegrees>36.80877196602523326873779296875</LatitudeDegrees>
              <LongitudeDegrees>-4.37942714430391788482666015625</LongitudeDegrees>
            </Position>
            <AltitudeMeters>808.4000244140625</AltitudeMeters>
            <DistanceMeters>NAN</DistanceMeters>
          </Trackpoint>
          <Trackpoint>
            <Time>2020-12-05T14:16:22.000Z</Time>
            <Position>
              <LatitudeDegrees>36.80875939317047595977783203125</LatitudeDegrees>
              <LongitudeDegrees>-4.3794406391680240631103515625</LongitudeDegrees>
            </Position>
            <AltitudeMeters>808.5999755859375</AltitudeMeters>
            <DistanceMeters>NAN</DistanceMeters>
          </Trackpoint>
          <Trackpoint>
            <Time>2020-12-05T14:16:23.000Z</Time>
            <Position>
              <LatitudeDegrees>36.80874866433441638946533203125</LatitudeDegrees>
              <LongitudeDegrees>-4.3794533796608448028564453125</LongitudeDegrees>
            </Position>
            <AltitudeMeters>808.5999755859375</AltitudeMeters>
            <DistanceMeters>NAN</DistanceMeters>
          </Trackpoint>
          <Trackpoint>
            <Time>2020-12-05T14:16:24.000Z</Time>
            <Position>
              <LatitudeDegrees>36.80873743258416652679443359375</LatitudeDegrees>
              <LongitudeDegrees>-4.3794585764408111572265625</LongitudeDegrees>
            </Position>
            <AltitudeMeters>808.79998779296875</AltitudeMeters>
            <DistanceMeters>NAN</DistanceMeters>
          </Trackpoint>
          <Trackpoint>
            <Time>2020-12-05T14:16:25.000Z</Time>
            <Position>
              <LatitudeDegrees>36.8087272904813289642333984375</LatitudeDegrees>
              <LongitudeDegrees>-4.37946570105850696563720703125</LongitudeDegrees>
            </Position>
            <AltitudeMeters>808.79998779296875</AltitudeMeters>
            <DistanceMeters>NAN</DistanceMeters>
          </Trackpoint>
          <Trackpoint>
            <Time>2020-12-05T14:16:26.000Z</Time>
            <Position>
              <LatitudeDegrees>36.808716394007205963134765625</LatitudeDegrees>
              <LongitudeDegrees>-4.37947140075266361236572265625</LongitudeDegrees>
            </Position>
            <AltitudeMeters>808.79998779296875</AltitudeMeters>
            <DistanceMeters>NAN</DistanceMeters>
          </Trackpoint>
          <Trackpoint>
            <Time>2020-12-05T14:16:27.000Z</Time>
            <Position>
              <LatitudeDegrees>36.8087078444659709930419921875</LatitudeDegrees>
              <LongitudeDegrees>-4.37947274185717105865478515625</LongitudeDegrees>
            </Position>
            <AltitudeMeters>808.5999755859375</AltitudeMeters>
            <DistanceMeters>NAN</DistanceMeters>
          </Trackpoint>
          <Trackpoint>
            <Time>2020-12-05T14:16:28.000Z</Time>
            <Position>
              <LatitudeDegrees>36.80869971401989459991455078125</LatitudeDegrees>
              <LongitudeDegrees>-4.3794718198478221893310546875</LongitudeDegrees>
            </Position>
            <AltitudeMeters>808.4000244140625</AltitudeMeters>
            <DistanceMeters>NAN</DistanceMeters>
          </Trackpoint>
          <Trackpoint>
            <Time>2020-12-05T14:16:29.000Z</Time>
            <Position>
              <LatitudeDegrees>36.808690913021564483642578125</LatitudeDegrees>
              <LongitudeDegrees>-4.37947106547653675079345703125</LongitudeDegrees>
            </Position>
            <AltitudeMeters>808.4000244140625</AltitudeMeters>
            <DistanceMeters>NAN</DistanceMeters>
          </Trackpoint>
          <Trackpoint>
            <Time>2020-12-05T14:16:30.000Z</Time>
            <Position>
              <LatitudeDegrees>36.8086813576519489288330078125</LatitudeDegrees>
              <LongitudeDegrees>-4.3794728256762027740478515625</LongitudeDegrees>
            </Position>
            <AltitudeMeters>808.5999755859375</AltitudeMeters>
            <DistanceMeters>NAN</DistanceMeters>
          </Trackpoint>
          <Trackpoint>
            <Time>2020-12-05T14:16:31.000Z</Time>
            <Position>
              <LatitudeDegrees>36.80867113173007965087890625</LatitudeDegrees>
              <LongitudeDegrees>-4.37947626225650310516357421875</LongitudeDegrees>
            </Position>
            <AltitudeMeters>808.5999755859375</AltitudeMeters>
            <DistanceMeters>NAN</DistanceMeters>
          </Trackpoint>
          <Trackpoint>
            <Time>2020-12-05T14:16:32.000Z</Time>
            <Position>
              <LatitudeDegrees>36.808660067617893218994140625</LatitudeDegrees>
              <LongitudeDegrees>-4.37947777099907398223876953125</LongitudeDegrees>
            </Position>
            <AltitudeMeters>808.5999755859375</AltitudeMeters>
            <DistanceMeters>NAN</DistanceMeters>
          </Trackpoint>
          <Trackpoint>
            <Time>2020-12-05T14:16:33.000Z</Time>
            <Position>
              <LatitudeDegrees>36.80864959023892879486083984375</LatitudeDegrees>
              <LongitudeDegrees>-4.3794786930084228515625</LongitudeDegrees>
            </Position>
            <AltitudeMeters>808.79998779296875</AltitudeMeters>
            <DistanceMeters>NAN</DistanceMeters>
          </Trackpoint>
          <Trackpoint>
            <Time>2020-12-05T14:16:34.000Z</Time>
            <Position>
              <LatitudeDegrees>36.80863835848867893218994140625</LatitudeDegrees>
              <LongitudeDegrees>-4.3794802017509937286376953125</LongitudeDegrees>
            </Position>
            <AltitudeMeters>809</AltitudeMeters>
            <DistanceMeters>NAN</DistanceMeters>
          </Trackpoint>
          <Trackpoint>
            <Time>2020-12-05T14:16:35.000Z</Time>
            <Position>
              <LatitudeDegrees>36.80862712673842906951904296875</LatitudeDegrees>
              <LongitudeDegrees>-4.3794775195419788360595703125</LongitudeDegrees>
            </Position>
            <AltitudeMeters>809</AltitudeMeters>
            <DistanceMeters>NAN</DistanceMeters>
          </Trackpoint>
          <Trackpoint>
            <Time>2020-12-05T14:16:36.000Z</Time>
            <Position>
              <LatitudeDegrees>36.80861472152173519134521484375</LatitudeDegrees>
              <LongitudeDegrees>-4.37947173602879047393798828125</LongitudeDegrees>
            </Position>
            <AltitudeMeters>809.4000244140625</AltitudeMeters>
            <DistanceMeters>NAN</DistanceMeters>
          </Trackpoint>
          <Trackpoint>
            <Time>2020-12-05T14:16:37.000Z</Time>
            <Position>
              <LatitudeDegrees>36.808602400124073028564453125</LatitudeDegrees>
              <LongitudeDegrees>-4.37946620397269725799560546875</LongitudeDegrees>
            </Position>
            <AltitudeMeters>809.79998779296875</AltitudeMeters>
            <DistanceMeters>NAN</DistanceMeters>
          </Trackpoint>
          <Trackpoint>
            <Time>2020-12-05T14:16:38.000Z</Time>
            <Position>
              <LatitudeDegrees>36.808589659631252288818359375</LatitudeDegrees>
              <LongitudeDegrees>-4.379462935030460357666015625</LongitudeDegrees>
            </Position>
            <AltitudeMeters>810</AltitudeMeters>
            <DistanceMeters>NAN</DistanceMeters>
          </Trackpoint>
          <Trackpoint>
            <Time>2020-12-05T14:16:39.000Z</Time>
            <Position>
              <LatitudeDegrees>36.80857968516647815704345703125</LatitudeDegrees>
              <LongitudeDegrees>-4.37945899553596973419189453125</LongitudeDegrees>
            </Position>
            <AltitudeMeters>810</AltitudeMeters>
            <DistanceMeters>NAN</DistanceMeters>
          </Trackpoint>
          <Trackpoint>
            <Time>2020-12-05T14:16:40.000Z</Time>
            <Position>
              <LatitudeDegrees>36.80857264436781406402587890625</LatitudeDegrees>
              <LongitudeDegrees>-4.3794517032802104949951171875</LongitudeDegrees>
            </Position>
            <AltitudeMeters>810.20001220703125</AltitudeMeters>
            <DistanceMeters>NAN</DistanceMeters>
          </Trackpoint>
          <Trackpoint>
            <Time>2020-12-05T14:16:41.000Z</Time>
            <Position>
              <LatitudeDegrees>36.80856761522591114044189453125</LatitudeDegrees>
              <LongitudeDegrees>-4.3794426508247852325439453125</LongitudeDegrees>
            </Position>
            <AltitudeMeters>810.4000244140625</AltitudeMeters>
            <DistanceMeters>NAN</DistanceMeters>
          </Trackpoint>
          <Trackpoint>
            <Time>2020-12-05T14:16:42.000Z</Time>
            <Position>
              <LatitudeDegrees>36.80855873040854930877685546875</LatitudeDegrees>
              <LongitudeDegrees>-4.37943401746451854705810546875</LongitudeDegrees>
            </Position>
            <AltitudeMeters>810.4000244140625</AltitudeMeters>
            <DistanceMeters>NAN</DistanceMeters>
          </Trackpoint>
          <Trackpoint>
            <Time>2020-12-05T14:16:43.000Z</Time>
            <Position>
              <LatitudeDegrees>36.80854909121990203857421875</LatitudeDegrees>
              <LongitudeDegrees>-4.37942194752395153045654296875</LongitudeDegrees>
            </Position>
            <AltitudeMeters>810.20001220703125</AltitudeMeters>
            <DistanceMeters>NAN</DistanceMeters>
          </Trackpoint>
          <Trackpoint>
            <Time>2020-12-05T14:16:44.000Z</Time>
            <Position>
              <LatitudeDegrees>36.808542720973491668701171875</LatitudeDegrees>
              <LongitudeDegrees>-4.37940962612628936767578125</LongitudeDegrees>
            </Position>
            <AltitudeMeters>810.20001220703125</AltitudeMeters>
            <DistanceMeters>NAN</DistanceMeters>
          </Trackpoint>
          <Trackpoint>
            <Time>2020-12-05T14:16:45.000Z</Time>
            <Position>
              <LatitudeDegrees>36.80853961966931819915771484375</LatitudeDegrees>
              <LongitudeDegrees>-4.3793967179954051971435546875</LongitudeDegrees>
            </Position>
            <AltitudeMeters>810.4000244140625</AltitudeMeters>
            <DistanceMeters>NAN</DistanceMeters>
          </Trackpoint>
          <Trackpoint>
            <Time>2020-12-05T14:16:46.000Z</Time>
            <Position>
              <LatitudeDegrees>36.80854112841188907623291015625</LatitudeDegrees>
              <LongitudeDegrees>-4.379381127655506134033203125</LongitudeDegrees>
            </Position>
            <AltitudeMeters>810.5999755859375</AltitudeMeters>
            <DistanceMeters>NAN</DistanceMeters>
          </Trackpoint>
          <Trackpoint>
            <Time>2020-12-05T14:16:47.000Z</Time>
            <Position>
              <LatitudeDegrees>36.8085392005741596221923828125</LatitudeDegrees>
              <LongitudeDegrees>-4.37936897389590740203857421875</LongitudeDegrees>
            </Position>
            <AltitudeMeters>810.5999755859375</AltitudeMeters>
            <DistanceMeters>NAN</DistanceMeters>
          </Trackpoint>
          <Trackpoint>
            <Time>2020-12-05T14:16:48.000Z</Time>
            <Position>
              <LatitudeDegrees>36.8085350096225738525390625</LatitudeDegrees>
              <LongitudeDegrees>-4.3793593347072601318359375</LongitudeDegrees>
            </Position>
            <AltitudeMeters>810.5999755859375</AltitudeMeters>
            <DistanceMeters>NAN</DistanceMeters>
          </Trackpoint>
          <Trackpoint>
            <Time>2020-12-05T14:16:49.000Z</Time>
            <Position>
              <LatitudeDegrees>36.8085294775664806365966796875</LatitudeDegrees>
              <LongitudeDegrees>-4.37934449873864650726318359375</LongitudeDegrees>
            </Position>
            <AltitudeMeters>810.79998779296875</AltitudeMeters>
            <DistanceMeters>NAN</DistanceMeters>
          </Trackpoint>
          <Trackpoint>
            <Time>2020-12-05T14:16:50.000Z</Time>
            <Position>
              <LatitudeDegrees>36.8085227720439434051513671875</LatitudeDegrees>
              <LongitudeDegrees>-4.37932941131293773651123046875</LongitudeDegrees>
            </Position>
            <AltitudeMeters>810.79998779296875</AltitudeMeters>
            <DistanceMeters>NAN</DistanceMeters>
          </Trackpoint>
          <Trackpoint>
            <Time>2020-12-05T14:16:51.000Z</Time>
            <Position>
              <LatitudeDegrees>36.8085184134542942047119140625</LatitudeDegrees>
              <LongitudeDegrees>-4.37931264750659465789794921875</LongitudeDegrees>
            </Position>
            <AltitudeMeters>810.79998779296875</AltitudeMeters>
            <DistanceMeters>NAN</DistanceMeters>
          </Trackpoint>
          <Trackpoint>
            <Time>2020-12-05T14:16:52.000Z</Time>
            <Position>
              <LatitudeDegrees>36.80851397104561328887939453125</LatitudeDegrees>
              <LongitudeDegrees>-4.37929621897637844085693359375</LongitudeDegrees>
            </Position>
            <AltitudeMeters>810.5999755859375</AltitudeMeters>
            <DistanceMeters>NAN</DistanceMeters>
          </Trackpoint>
          <Trackpoint>
            <Time>2020-12-05T14:16:53.000Z</Time>
            <Position>
              <LatitudeDegrees>36.80850944481790065765380859375</LatitudeDegrees>
              <LongitudeDegrees>-4.3792830593883991241455078125</LongitudeDegrees>
            </Position>
            <AltitudeMeters>810.5999755859375</AltitudeMeters>
            <DistanceMeters>NAN</DistanceMeters>
          </Trackpoint>
          <Trackpoint>
            <Time>2020-12-05T14:16:54.000Z</Time>
            <Position>
              <LatitudeDegrees>36.80850625969469547271728515625</LatitudeDegrees>
              <LongitudeDegrees>-4.37927551567554473876953125</LongitudeDegrees>
            </Position>
            <AltitudeMeters>810.4000244140625</AltitudeMeters>
            <DistanceMeters>NAN</DistanceMeters>
          </Trackpoint>
          <Trackpoint>
            <Time>2020-12-05T14:16:55.000Z</Time>
            <Position>
              <LatitudeDegrees>36.8085023202002048492431640625</LatitudeDegrees>
              <LongitudeDegrees>-4.3792696483433246612548828125</LongitudeDegrees>
            </Position>
            <AltitudeMeters>810.4000244140625</AltitudeMeters>
            <DistanceMeters>NAN</DistanceMeters>
          </Trackpoint>
          <Trackpoint>
            <Time>2020-12-05T14:16:56.000Z</Time>
            <Position>
              <LatitudeDegrees>36.8084999732673168182373046875</LatitudeDegrees>
              <LongitudeDegrees>-4.3792622722685337066650390625</LongitudeDegrees>
            </Position>
            <AltitudeMeters>810.20001220703125</AltitudeMeters>
            <DistanceMeters>NAN</DistanceMeters>
          </Trackpoint>
          <Trackpoint>
            <Time>2020-12-05T14:16:57.000Z</Time>
            <Position>
              <LatitudeDegrees>36.80849720723927021026611328125</LatitudeDegrees>
              <LongitudeDegrees>-4.379256404936313629150390625</LongitudeDegrees>
            </Position>
            <AltitudeMeters>810</AltitudeMeters>
            <DistanceMeters>NAN</DistanceMeters>
          </Trackpoint>
          <Trackpoint>
            <Time>2020-12-05T14:16:58.000Z</Time>
            <Position>
              <LatitudeDegrees>36.808492429554462432861328125</LatitudeDegrees>
              <LongitudeDegrees>-4.379251040518283843994140625</LongitudeDegrees>
            </Position>
            <AltitudeMeters>809.5999755859375</AltitudeMeters>
            <DistanceMeters>NAN</DistanceMeters>
          </Trackpoint>
          <Trackpoint>
            <Time>2020-12-05T14:16:59.000Z</Time>
            <Position>
              <LatitudeDegrees>36.8084858916699886322021484375</LatitudeDegrees>
              <LongitudeDegrees>-4.37924089841544628143310546875</LongitudeDegrees>
            </Position>
            <AltitudeMeters>809.4000244140625</AltitudeMeters>
            <DistanceMeters>NAN</DistanceMeters>
          </Trackpoint>
          <Trackpoint>
            <Time>2020-12-05T14:17:00.000Z</Time>
            <Position>
              <LatitudeDegrees>36.80847692303359508514404296875</LatitudeDegrees>
              <LongitudeDegrees>-4.37922329641878604888916015625</LongitudeDegrees>
            </Position>
            <AltitudeMeters>809.20001220703125</AltitudeMeters>
            <DistanceMeters>NAN</DistanceMeters>
          </Trackpoint>
          <Trackpoint>
            <Time>2020-12-05T14:17:01.000Z</Time>
            <Position>
              <LatitudeDegrees>36.8084691278636455535888671875</LatitudeDegrees>
              <LongitudeDegrees>-4.37921558506786823272705078125</LongitudeDegrees>
            </Position>
            <AltitudeMeters>809</AltitudeMeters>
            <DistanceMeters>NAN</DistanceMeters>
          </Trackpoint>
          <Trackpoint>
            <Time>2020-12-05T14:17:02.000Z</Time>
            <Position>
              <LatitudeDegrees>36.80846326053142547607421875</LatitudeDegrees>
              <LongitudeDegrees>-4.3792042694985866546630859375</LongitudeDegrees>
            </Position>
            <AltitudeMeters>809</AltitudeMeters>
            <DistanceMeters>NAN</DistanceMeters>
          </Trackpoint>
          <Trackpoint>
            <Time>2020-12-05T14:17:03.000Z</Time>
            <Position>
              <LatitudeDegrees>36.80845697410404682159423828125</LatitudeDegrees>
              <LongitudeDegrees>-4.37919127754867076873779296875</LongitudeDegrees>
            </Position>
            <AltitudeMeters>809</AltitudeMeters>
            <DistanceMeters>NAN</DistanceMeters>
          </Trackpoint>
          <Trackpoint>
            <Time>2020-12-05T14:17:04.000Z</Time>
            <Position>
              <LatitudeDegrees>36.80845026858150959014892578125</LatitudeDegrees>
              <LongitudeDegrees>-4.3791784532368183135986328125</LongitudeDegrees>
            </Position>
            <AltitudeMeters>809</AltitudeMeters>
            <DistanceMeters>NAN</DistanceMeters>
          </Trackpoint>
          <Trackpoint>
            <Time>2020-12-05T14:17:05.000Z</Time>
            <Position>
              <LatitudeDegrees>36.8084396235644817352294921875</LatitudeDegrees>
              <LongitudeDegrees>-4.37916378490626811981201171875</LongitudeDegrees>
            </Position>
            <AltitudeMeters>809.20001220703125</AltitudeMeters>
            <DistanceMeters>NAN</DistanceMeters>
          </Trackpoint>
          <Trackpoint>
            <Time>2020-12-05T14:17:06.000Z</Time>
            <Position>
              <LatitudeDegrees>36.80843182839453220367431640625</LatitudeDegrees>
              <LongitudeDegrees>-4.3791489489376544952392578125</LongitudeDegrees>
            </Position>
            <AltitudeMeters>809.20001220703125</AltitudeMeters>
            <DistanceMeters>NAN</DistanceMeters>
          </Trackpoint>
          <Trackpoint>
            <Time>2020-12-05T14:17:07.000Z</Time>
            <Position>
              <LatitudeDegrees>36.80842361412942409515380859375</LatitudeDegrees>
              <LongitudeDegrees>-4.3791315145790576934814453125</LongitudeDegrees>
            </Position>
            <AltitudeMeters>809.4000244140625</AltitudeMeters>
            <DistanceMeters>NAN</DistanceMeters>
          </Trackpoint>
          <Trackpoint>
            <Time>2020-12-05T14:17:08.000Z</Time>
            <Position>
              <LatitudeDegrees>36.808417998254299163818359375</LatitudeDegrees>
              <LongitudeDegrees>-4.37911282293498516082763671875</LongitudeDegrees>
            </Position>
            <AltitudeMeters>809.5999755859375</AltitudeMeters>
            <DistanceMeters>NAN</DistanceMeters>
          </Trackpoint>
          <Trackpoint>
            <Time>2020-12-05T14:17:09.000Z</Time>
            <Position>
              <LatitudeDegrees>36.8084121309220790863037109375</LatitudeDegrees>
              <LongitudeDegrees>-4.37909446656703948974609375</LongitudeDegrees>
            </Position>
            <AltitudeMeters>809.79998779296875</AltitudeMeters>
            <DistanceMeters>NAN</DistanceMeters>
          </Trackpoint>
          <Trackpoint>
            <Time>2020-12-05T14:17:10.000Z</Time>
            <Position>
              <LatitudeDegrees>36.808407269418239593505859375</LatitudeDegrees>
              <LongitudeDegrees>-4.37908097170293331146240234375</LongitudeDegrees>
            </Position>
            <AltitudeMeters>809.79998779296875</AltitudeMeters>
            <DistanceMeters>NAN</DistanceMeters>
          </Trackpoint>
          <Trackpoint>
            <Time>2020-12-05T14:17:11.000Z</Time>
            <Position>
              <LatitudeDegrees>36.80840048007667064666748046875</LatitudeDegrees>
              <LongitudeDegrees>-4.37906496226787567138671875</LongitudeDegrees>
            </Position>
            <AltitudeMeters>809.79998779296875</AltitudeMeters>
            <DistanceMeters>NAN</DistanceMeters>
          </Trackpoint>
          <Trackpoint>
            <Time>2020-12-05T14:17:12.000Z</Time>
            <Position>
              <LatitudeDegrees>36.808397881686687469482421875</LatitudeDegrees>
              <LongitudeDegrees>-4.37904794700443744659423828125</LongitudeDegrees>
            </Position>
            <AltitudeMeters>809.5999755859375</AltitudeMeters>
            <DistanceMeters>NAN</DistanceMeters>
          </Trackpoint>
          <Trackpoint>
            <Time>2020-12-05T14:17:13.000Z</Time>
            <Position>
              <LatitudeDegrees>36.8083933554589748382568359375</LatitudeDegrees>
              <LongitudeDegrees>-4.37903570942580699920654296875</LongitudeDegrees>
            </Position>
            <AltitudeMeters>809.5999755859375</AltitudeMeters>
            <DistanceMeters>NAN</DistanceMeters>
          </Trackpoint>
          <Trackpoint>
            <Time>2020-12-05T14:17:14.000Z</Time>
            <Position>
              <LatitudeDegrees>36.80838857777416706085205078125</LatitudeDegrees>
              <LongitudeDegrees>-4.3790245614945888519287109375</LongitudeDegrees>
            </Position>
            <AltitudeMeters>809.4000244140625</AltitudeMeters>
            <DistanceMeters>NAN</DistanceMeters>
          </Trackpoint>
          <Trackpoint>
            <Time>2020-12-05T14:17:15.000Z</Time>
            <Position>
              <LatitudeDegrees>36.80838371627032756805419921875</LatitudeDegrees>
              <LongitudeDegrees>-4.37901374883949756622314453125</LongitudeDegrees>
            </Position>
            <AltitudeMeters>809.20001220703125</AltitudeMeters>
            <DistanceMeters>NAN</DistanceMeters>
          </Trackpoint>
          <Trackpoint>
            <Time>2020-12-05T14:17:16.000Z</Time>
            <Position>
              <LatitudeDegrees>36.808379106223583221435546875</LatitudeDegrees>
              <LongitudeDegrees>-4.379001595079898834228515625</LongitudeDegrees>
            </Position>
            <AltitudeMeters>809.20001220703125</AltitudeMeters>
            <DistanceMeters>NAN</DistanceMeters>
          </Trackpoint>
          <Trackpoint>
            <Time>2020-12-05T14:17:17.000Z</Time>
            <Position>
              <LatitudeDegrees>36.8083725683391094207763671875</LatitudeDegrees>
              <LongitudeDegrees>-4.378990866243839263916015625</LongitudeDegrees>
            </Position>
            <AltitudeMeters>809.20001220703125</AltitudeMeters>
            <DistanceMeters>NAN</DistanceMeters>
          </Trackpoint>
          <Trackpoint>
            <Time>2020-12-05T14:17:18.000Z</Time>
            <Position>
              <LatitudeDegrees>36.80836577899754047393798828125</LatitudeDegrees>
              <LongitudeDegrees>-4.3789816461503505706787109375</LongitudeDegrees>
            </Position>
            <AltitudeMeters>809.20001220703125</AltitudeMeters>
            <DistanceMeters>NAN</DistanceMeters>
          </Trackpoint>
          <Trackpoint>
            <Time>2020-12-05T14:17:19.000Z</Time>
            <Position>
              <LatitudeDegrees>36.8083588220179080963134765625</LatitudeDegrees>
              <LongitudeDegrees>-4.37897183932363986968994140625</LongitudeDegrees>
            </Position>
            <AltitudeMeters>809.20001220703125</AltitudeMeters>
            <DistanceMeters>NAN</DistanceMeters>
          </Trackpoint>
          <Trackpoint>
            <Time>2020-12-05T14:17:20.000Z</Time>
            <Position>
              <LatitudeDegrees>36.8083497695624828338623046875</LatitudeDegrees>
              <LongitudeDegrees>-4.37896303832530975341796875</LongitudeDegrees>
            </Position>
            <AltitudeMeters>809.20001220703125</AltitudeMeters>
            <DistanceMeters>NAN</DistanceMeters>
          </Trackpoint>
          <Trackpoint>
            <Time>2020-12-05T14:17:21.000Z</Time>
            <Position>
              <LatitudeDegrees>36.80833912454545497894287109375</LatitudeDegrees>
              <LongitudeDegrees>-4.37895373441278934478759765625</LongitudeDegrees>
            </Position>
            <AltitudeMeters>809.20001220703125</AltitudeMeters>
            <DistanceMeters>NAN</DistanceMeters>
          </Trackpoint>
          <Trackpoint>
            <Time>2020-12-05T14:17:22.000Z</Time>
            <Position>
              <LatitudeDegrees>36.808327473700046539306640625</LatitudeDegrees>
              <LongitudeDegrees>-4.3789461068809032440185546875</LongitudeDegrees>
            </Position>
            <AltitudeMeters>809.20001220703125</AltitudeMeters>
            <DistanceMeters>NAN</DistanceMeters>
          </Trackpoint>
          <Trackpoint>
            <Time>2020-12-05T14:17:23.000Z</Time>
            <Position>
              <LatitudeDegrees>36.80831582285463809967041015625</LatitudeDegrees>
              <LongitudeDegrees>-4.378935210406780242919921875</LongitudeDegrees>
            </Position>
            <AltitudeMeters>809.20001220703125</AltitudeMeters>
            <DistanceMeters>NAN</DistanceMeters>
          </Trackpoint>
          <Trackpoint>
            <Time>2020-12-05T14:17:24.000Z</Time>
            <Position>
              <LatitudeDegrees>36.80830576457083225250244140625</LatitudeDegrees>
              <LongitudeDegrees>-4.37892540358006954193115234375</LongitudeDegrees>
            </Position>
            <AltitudeMeters>809.20001220703125</AltitudeMeters>
            <DistanceMeters>NAN</DistanceMeters>
          </Trackpoint>
          <Trackpoint>
            <Time>2020-12-05T14:17:25.000Z</Time>
            <Position>
              <LatitudeDegrees>36.8082951195538043975830078125</LatitudeDegrees>
              <LongitudeDegrees>-4.37891517765820026397705078125</LongitudeDegrees>
            </Position>
            <AltitudeMeters>809.20001220703125</AltitudeMeters>
            <DistanceMeters>NAN</DistanceMeters>
          </Trackpoint>
          <Trackpoint>
            <Time>2020-12-05T14:17:26.000Z</Time>
            <Position>
              <LatitudeDegrees>36.80828480981290340423583984375</LatitudeDegrees>
              <LongitudeDegrees>-4.37890226952731609344482421875</LongitudeDegrees>
            </Position>
            <AltitudeMeters>809.4000244140625</AltitudeMeters>
            <DistanceMeters>NAN</DistanceMeters>
          </Trackpoint>
          <Trackpoint>
            <Time>2020-12-05T14:17:27.000Z</Time>
            <Position>
              <LatitudeDegrees>36.80827475152909755706787109375</LatitudeDegrees>
              <LongitudeDegrees>-4.3788874335587024688720703125</LongitudeDegrees>
            </Position>
            <AltitudeMeters>809.5999755859375</AltitudeMeters>
            <DistanceMeters>NAN</DistanceMeters>
          </Trackpoint>
          <Trackpoint>
            <Time>2020-12-05T14:17:28.000Z</Time>
            <Position>
              <LatitudeDegrees>36.8082639388740062713623046875</LatitudeDegrees>
              <LongitudeDegrees>-4.37887377105653285980224609375</LongitudeDegrees>
            </Position>
            <AltitudeMeters>809.79998779296875</AltitudeMeters>
            <DistanceMeters>NAN</DistanceMeters>
          </Trackpoint>
          <Trackpoint>
            <Time>2020-12-05T14:17:29.000Z</Time>
            <Position>
              <LatitudeDegrees>36.80825396440923213958740234375</LatitudeDegrees>
              <LongitudeDegrees>-4.3788612820208072662353515625</LongitudeDegrees>
            </Position>
            <AltitudeMeters>809.79998779296875</AltitudeMeters>
            <DistanceMeters>NAN</DistanceMeters>
          </Trackpoint>
          <Trackpoint>
            <Time>2020-12-05T14:17:30.000Z</Time>
            <Position>
              <LatitudeDegrees>36.80824541486799716949462890625</LatitudeDegrees>
              <LongitudeDegrees>-4.37885063700377941131591796875</LongitudeDegrees>
            </Position>
            <AltitudeMeters>810</AltitudeMeters>
            <DistanceMeters>NAN</DistanceMeters>
          </Trackpoint>
          <Trackpoint>
            <Time>2020-12-05T14:17:31.000Z</Time>
            <Position>
              <LatitudeDegrees>36.80823703296482563018798828125</LatitudeDegrees>
              <LongitudeDegrees>-4.3788384832441806793212890625</LongitudeDegrees>
            </Position>
            <AltitudeMeters>810.20001220703125</AltitudeMeters>
            <DistanceMeters>NAN</DistanceMeters>
          </Trackpoint>
          <Trackpoint>
            <Time>2020-12-05T14:17:32.000Z</Time>
            <Position>
              <LatitudeDegrees>36.8082297407090663909912109375</LatitudeDegrees>
              <LongitudeDegrees>-4.3788274191319942474365234375</LongitudeDegrees>
            </Position>
            <AltitudeMeters>810.20001220703125</AltitudeMeters>
            <DistanceMeters>NAN</DistanceMeters>
          </Trackpoint>
          <Trackpoint>
            <Time>2020-12-05T14:17:33.000Z</Time>
            <Position>
              <LatitudeDegrees>36.80822295136749744415283203125</LatitudeDegrees>
              <LongitudeDegrees>-4.37881526537239551544189453125</LongitudeDegrees>
            </Position>
            <AltitudeMeters>810.20001220703125</AltitudeMeters>
            <DistanceMeters>NAN</DistanceMeters>
          </Trackpoint>
          <Trackpoint>
            <Time>2020-12-05T14:17:34.000Z</Time>
            <Position>
              <LatitudeDegrees>36.80821624584496021270751953125</LatitudeDegrees>
              <LongitudeDegrees>-4.37880571000277996063232421875</LongitudeDegrees>
            </Position>
            <AltitudeMeters>810.20001220703125</AltitudeMeters>
            <DistanceMeters>NAN</DistanceMeters>
          </Trackpoint>
          <Trackpoint>
            <Time>2020-12-05T14:17:35.000Z</Time>
            <Position>
              <LatitudeDegrees>36.80821138434112071990966796875</LatitudeDegrees>
              <LongitudeDegrees>-4.37879481352865695953369140625</LongitudeDegrees>
            </Position>
            <AltitudeMeters>810.4000244140625</AltitudeMeters>
            <DistanceMeters>NAN</DistanceMeters>
          </Trackpoint>
          <Trackpoint>
            <Time>2020-12-05T14:17:36.000Z</Time>
            <Position>
              <LatitudeDegrees>36.8082077801227569580078125</LatitudeDegrees>
              <LongitudeDegrees>-4.37877771444618701934814453125</LongitudeDegrees>
            </Position>
            <AltitudeMeters>810.4000244140625</AltitudeMeters>
            <DistanceMeters>NAN</DistanceMeters>
          </Trackpoint>
          <Trackpoint>
            <Time>2020-12-05T14:17:37.000Z</Time>
            <Position>
              <LatitudeDegrees>36.8082077801227569580078125</LatitudeDegrees>
              <LongitudeDegrees>-4.37875709496438503265380859375</LongitudeDegrees>
            </Position>
            <AltitudeMeters>810.4000244140625</AltitudeMeters>
            <DistanceMeters>NAN</DistanceMeters>
          </Trackpoint>
          <Trackpoint>
            <Time>2020-12-05T14:17:38.000Z</Time>
            <Position>
              <LatitudeDegrees>36.8082050979137420654296875</LatitudeDegrees>
              <LongitudeDegrees>-4.37874351628124713897705078125</LongitudeDegrees>
            </Position>
            <AltitudeMeters>810.5999755859375</AltitudeMeters>
            <DistanceMeters>NAN</DistanceMeters>
          </Trackpoint>
          <Trackpoint>
            <Time>2020-12-05T14:17:39.000Z</Time>
            <Position>
              <LatitudeDegrees>36.808202750980854034423828125</LatitudeDegrees>
              <LongitudeDegrees>-4.37872960232198238372802734375</LongitudeDegrees>
            </Position>
            <AltitudeMeters>810.79998779296875</AltitudeMeters>
            <DistanceMeters>NAN</DistanceMeters>
          </Trackpoint>
          <Trackpoint>
            <Time>2020-12-05T14:17:40.000Z</Time>
            <Position>
              <LatitudeDegrees>36.80819931440055370330810546875</LatitudeDegrees>
              <LongitudeDegrees>-4.37871367670595645904541015625</LongitudeDegrees>
            </Position>
            <AltitudeMeters>811</AltitudeMeters>
            <DistanceMeters>NAN</DistanceMeters>
          </Trackpoint>
          <Trackpoint>
            <Time>2020-12-05T14:17:41.000Z</Time>
            <Position>
              <LatitudeDegrees>36.80819260887801647186279296875</LatitudeDegrees>
              <LongitudeDegrees>-4.37870361842215061187744140625</LongitudeDegrees>
            </Position>
            <AltitudeMeters>811.20001220703125</AltitudeMeters>
            <DistanceMeters>NAN</DistanceMeters>
          </Trackpoint>
          <Trackpoint>
            <Time>2020-12-05T14:17:42.000Z</Time>
            <Position>
              <LatitudeDegrees>36.80818573571741580963134765625</LatitudeDegrees>
              <LongitudeDegrees>-4.3786939792335033416748046875</LongitudeDegrees>
            </Position>
            <AltitudeMeters>811.5999755859375</AltitudeMeters>
            <DistanceMeters>NAN</DistanceMeters>
          </Trackpoint>
          <Trackpoint>
            <Time>2020-12-05T14:17:43.000Z</Time>
            <Position>
              <LatitudeDegrees>36.80817752145230770111083984375</LatitudeDegrees>
              <LongitudeDegrees>-4.37868434004485607147216796875</LongitudeDegrees>
            </Position>
            <AltitudeMeters>811.79998779296875</AltitudeMeters>
            <DistanceMeters>NAN</DistanceMeters>
          </Trackpoint>
          <Trackpoint>
            <Time>2020-12-05T14:17:44.000Z</Time>
            <Position>
              <LatitudeDegrees>36.80816880427300930023193359375</LatitudeDegrees>
              <LongitudeDegrees>-4.37867763452231884002685546875</LongitudeDegrees>
            </Position>
            <AltitudeMeters>812</AltitudeMeters>
            <DistanceMeters>NAN</DistanceMeters>
          </Trackpoint>
          <Trackpoint>
            <Time>2020-12-05T14:17:45.000Z</Time>
            <Position>
              <LatitudeDegrees>36.80816075764596462249755859375</LatitudeDegrees>
              <LongitudeDegrees>-4.37866690568625926971435546875</LongitudeDegrees>
            </Position>
            <AltitudeMeters>812.20001220703125</AltitudeMeters>
            <DistanceMeters>NAN</DistanceMeters>
          </Trackpoint>
          <Trackpoint>
            <Time>2020-12-05T14:17:46.000Z</Time>
            <Position>
              <LatitudeDegrees>36.80815078318119049072265625</LatitudeDegrees>
              <LongitudeDegrees>-4.3786525726318359375</LongitudeDegrees>
            </Position>
            <AltitudeMeters>812.4000244140625</AltitudeMeters>
            <DistanceMeters>NAN</DistanceMeters>
          </Trackpoint>
          <Trackpoint>
            <Time>2020-12-05T14:17:47.000Z</Time>
            <Position>
              <LatitudeDegrees>36.8081425689160823822021484375</LatitudeDegrees>
              <LongitudeDegrees>-4.3786403350532054901123046875</LongitudeDegrees>
            </Position>
            <AltitudeMeters>812.5999755859375</AltitudeMeters>
            <DistanceMeters>NAN</DistanceMeters>
          </Trackpoint>
          <Trackpoint>
            <Time>2020-12-05T14:17:48.000Z</Time>
            <Position>
              <LatitudeDegrees>36.80812957696616649627685546875</LatitudeDegrees>
              <LongitudeDegrees>-4.378633797168731689453125</LongitudeDegrees>
            </Position>
            <AltitudeMeters>812.5999755859375</AltitudeMeters>
            <DistanceMeters>NAN</DistanceMeters>
          </Trackpoint>
          <Trackpoint>
            <Time>2020-12-05T14:17:49.000Z</Time>
            <Position>
              <LatitudeDegrees>36.8081184290349483489990234375</LatitudeDegrees>
              <LongitudeDegrees>-4.37862734310328960418701171875</LongitudeDegrees>
            </Position>
            <AltitudeMeters>812.79998779296875</AltitudeMeters>
            <DistanceMeters>NAN</DistanceMeters>
          </Trackpoint>
          <Trackpoint>
            <Time>2020-12-05T14:17:50.000Z</Time>
            <Position>
              <LatitudeDegrees>36.80810912512242794036865234375</LatitudeDegrees>
              <LongitudeDegrees>-4.37862331978976726531982421875</LongitudeDegrees>
            </Position>
            <AltitudeMeters>813</AltitudeMeters>
            <DistanceMeters>NAN</DistanceMeters>
          </Trackpoint>
          <Trackpoint>
            <Time>2020-12-05T14:17:51.000Z</Time>
            <Position>
              <LatitudeDegrees>36.808098815381526947021484375</LatitudeDegrees>
              <LongitudeDegrees>-4.378622733056545257568359375</LongitudeDegrees>
            </Position>
            <AltitudeMeters>813.20001220703125</AltitudeMeters>
            <DistanceMeters>NAN</DistanceMeters>
          </Trackpoint>
          <Trackpoint>
            <Time>2020-12-05T14:17:52.000Z</Time>
            <Position>
              <LatitudeDegrees>36.80808716453611850738525390625</LatitudeDegrees>
              <LongitudeDegrees>-4.37861862592399120330810546875</LongitudeDegrees>
            </Position>
            <AltitudeMeters>813.4000244140625</AltitudeMeters>
            <DistanceMeters>NAN</DistanceMeters>
          </Trackpoint>
          <Trackpoint>
            <Time>2020-12-05T14:17:53.000Z</Time>
            <Position>
              <LatitudeDegrees>36.80807475931942462921142578125</LatitudeDegrees>
              <LongitudeDegrees>-4.3786128424108028411865234375</LongitudeDegrees>
            </Position>
            <AltitudeMeters>813.5999755859375</AltitudeMeters>
            <DistanceMeters>NAN</DistanceMeters>
          </Trackpoint>
          <Trackpoint>
            <Time>2020-12-05T14:17:54.000Z</Time>
            <Position>
              <LatitudeDegrees>36.80806034244596958160400390625</LatitudeDegrees>
              <LongitudeDegrees>-4.37861242331564426422119140625</LongitudeDegrees>
            </Position>
            <AltitudeMeters>813.79998779296875</AltitudeMeters>
            <DistanceMeters>NAN</DistanceMeters>
          </Trackpoint>
          <Trackpoint>
            <Time>2020-12-05T14:17:55.000Z</Time>
            <Position>
              <LatitudeDegrees>36.80804341100156307220458984375</LatitudeDegrees>
              <LongitudeDegrees>-4.3786165304481983184814453125</LongitudeDegrees>
            </Position>
            <AltitudeMeters>814</AltitudeMeters>
            <DistanceMeters>NAN</DistanceMeters>
          </Trackpoint>
          <Trackpoint>
            <Time>2020-12-05T14:17:56.000Z</Time>
            <Position>
              <LatitudeDegrees>36.80802949704229831695556640625</LatitudeDegrees>
              <LongitudeDegrees>-4.37861862592399120330810546875</LongitudeDegrees>
            </Position>
            <AltitudeMeters>814</AltitudeMeters>
            <DistanceMeters>NAN</DistanceMeters>
          </Trackpoint>
          <Trackpoint>
            <Time>2020-12-05T14:17:57.000Z</Time>
            <Position>
              <LatitudeDegrees>36.80801608599722385406494140625</LatitudeDegrees>
              <LongitudeDegrees>-4.378622733056545257568359375</LongitudeDegrees>
            </Position>
            <AltitudeMeters>814.20001220703125</AltitudeMeters>
            <DistanceMeters>NAN</DistanceMeters>
          </Trackpoint>
          <Trackpoint>
            <Time>2020-12-05T14:17:58.000Z</Time>
            <Position>
              <LatitudeDegrees>36.8080037645995616912841796875</LatitudeDegrees>
              <LongitudeDegrees>-4.37862767837941646575927734375</LongitudeDegrees>
            </Position>
            <AltitudeMeters>814.20001220703125</AltitudeMeters>
            <DistanceMeters>NAN</DistanceMeters>
          </Trackpoint>
          <Trackpoint>
            <Time>2020-12-05T14:17:59.000Z</Time>
            <Position>
              <LatitudeDegrees>36.8079932034015655517578125</LatitudeDegrees>
              <LongitudeDegrees>-4.3786282651126384735107421875</LongitudeDegrees>
            </Position>
            <AltitudeMeters>814</AltitudeMeters>
            <DistanceMeters>NAN</DistanceMeters>
          </Trackpoint>
          <Trackpoint>
            <Time>2020-12-05T14:18:00.000Z</Time>
            <Position>
              <LatitudeDegrees>36.807976104319095611572265625</LatitudeDegrees>
              <LongitudeDegrees>-4.3786332942545413970947265625</LongitudeDegrees>
            </Position>
            <AltitudeMeters>814</AltitudeMeters>
            <DistanceMeters>NAN</DistanceMeters>
          </Trackpoint>
          <Trackpoint>
            <Time>2020-12-05T14:18:01.000Z</Time>
            <Position>
              <LatitudeDegrees>36.80796411819756031036376953125</LatitudeDegrees>
              <LongitudeDegrees>-4.37863572500646114349365234375</LongitudeDegrees>
            </Position>
            <AltitudeMeters>813.79998779296875</AltitudeMeters>
            <DistanceMeters>NAN</DistanceMeters>
          </Trackpoint>
          <Trackpoint>
            <Time>2020-12-05T14:18:02.000Z</Time>
            <Position>
              <LatitudeDegrees>36.80795238353312015533447265625</LatitudeDegrees>
              <LongitudeDegrees>-4.3786386586725711822509765625</LongitudeDegrees>
            </Position>
            <AltitudeMeters>813.79998779296875</AltitudeMeters>
            <DistanceMeters>NAN</DistanceMeters>
          </Trackpoint>
          <Trackpoint>
            <Time>2020-12-05T14:18:03.000Z</Time>
            <Position>
              <LatitudeDegrees>36.807941906154155731201171875</LatitudeDegrees>
              <LongitudeDegrees>-4.37864578329026699066162109375</LongitudeDegrees>
            </Position>
            <AltitudeMeters>813.5999755859375</AltitudeMeters>
            <DistanceMeters>NAN</DistanceMeters>
          </Trackpoint>
          <Trackpoint>
            <Time>2020-12-05T14:18:04.000Z</Time>
            <Position>
              <LatitudeDegrees>36.80793276987969875335693359375</LatitudeDegrees>
              <LongitudeDegrees>-4.37864779494702816009521484375</LongitudeDegrees>
            </Position>
            <AltitudeMeters>813.4000244140625</AltitudeMeters>
            <DistanceMeters>NAN</DistanceMeters>
          </Trackpoint>
          <Trackpoint>
            <Time>2020-12-05T14:18:05.000Z</Time>
            <Position>
              <LatitudeDegrees>36.8079232983291149139404296875</LatitudeDegrees>
              <LongitudeDegrees>-4.3786500580608844757080078125</LongitudeDegrees>
            </Position>
            <AltitudeMeters>813.20001220703125</AltitudeMeters>
            <DistanceMeters>NAN</DistanceMeters>
          </Trackpoint>
          <Trackpoint>
            <Time>2020-12-05T14:18:06.000Z</Time>
            <Position>
              <LatitudeDegrees>36.8079115636646747589111328125</LatitudeDegrees>
              <LongitudeDegrees>-4.378655254840850830078125</LongitudeDegrees>
            </Position>
            <AltitudeMeters>813.4000244140625</AltitudeMeters>
            <DistanceMeters>NAN</DistanceMeters>
          </Trackpoint>
          <Trackpoint>
            <Time>2020-12-05T14:18:07.000Z</Time>
            <Position>
              <LatitudeDegrees>36.80789857171475887298583984375</LatitudeDegrees>
              <LongitudeDegrees>-4.37865785323083400726318359375</LongitudeDegrees>
            </Position>
            <AltitudeMeters>813.4000244140625</AltitudeMeters>
            <DistanceMeters>NAN</DistanceMeters>
          </Trackpoint>
          <Trackpoint>
            <Time>2020-12-05T14:18:08.000Z</Time>
            <Position>
              <LatitudeDegrees>36.8078837357461452484130859375</LatitudeDegrees>
              <LongitudeDegrees>-4.378662966191768646240234375</LongitudeDegrees>
            </Position>
            <AltitudeMeters>813.4000244140625</AltitudeMeters>
            <DistanceMeters>NAN</DistanceMeters>
          </Trackpoint>
          <Trackpoint>
            <Time>2020-12-05T14:18:09.000Z</Time>
            <Position>
              <LatitudeDegrees>36.80786957032978534698486328125</LatitudeDegrees>
              <LongitudeDegrees>-4.37866690568625926971435546875</LongitudeDegrees>
            </Position>
            <AltitudeMeters>813.4000244140625</AltitudeMeters>
            <DistanceMeters>NAN</DistanceMeters>
          </Trackpoint>
          <Trackpoint>
            <Time>2020-12-05T14:18:10.000Z</Time>
            <Position>
              <LatitudeDegrees>36.80785615928471088409423828125</LatitudeDegrees>
              <LongitudeDegrees>-4.3786705099046230316162109375</LongitudeDegrees>
            </Position>
            <AltitudeMeters>813.4000244140625</AltitudeMeters>
            <DistanceMeters>NAN</DistanceMeters>
          </Trackpoint>
          <Trackpoint>
            <Time>2020-12-05T14:18:11.000Z</Time>
            <Position>
              <LatitudeDegrees>36.8078435026109218597412109375</LatitudeDegrees>
              <LongitudeDegrees>-4.378674365580081939697265625</LongitudeDegrees>
            </Position>
            <AltitudeMeters>813.4000244140625</AltitudeMeters>
            <DistanceMeters>NAN</DistanceMeters>
          </Trackpoint>
          <Trackpoint>
            <Time>2020-12-05T14:18:12.000Z</Time>
            <Position>
              <LatitudeDegrees>36.8078322708606719970703125</LatitudeDegrees>
              <LongitudeDegrees>-4.3786765448749065399169921875</LongitudeDegrees>
            </Position>
            <AltitudeMeters>813.5999755859375</AltitudeMeters>
            <DistanceMeters>NAN</DistanceMeters>
          </Trackpoint>
          <Trackpoint>
            <Time>2020-12-05T14:18:13.000Z</Time>
            <Position>
              <LatitudeDegrees>36.80782430805265903472900390625</LatitudeDegrees>
              <LongitudeDegrees>-4.37868165783584117889404296875</LongitudeDegrees>
            </Position>
            <AltitudeMeters>813.79998779296875</AltitudeMeters>
            <DistanceMeters>NAN</DistanceMeters>
          </Trackpoint>
          <Trackpoint>
            <Time>2020-12-05T14:18:14.000Z</Time>
            <Position>
              <LatitudeDegrees>36.80782011710107326507568359375</LatitudeDegrees>
              <LongitudeDegrees>-4.37868735752999782562255859375</LongitudeDegrees>
            </Position>
            <AltitudeMeters>813.79998779296875</AltitudeMeters>
            <DistanceMeters>NAN</DistanceMeters>
          </Trackpoint>
          <Trackpoint>
            <Time>2020-12-05T14:18:15.000Z</Time>
            <Position>
              <LatitudeDegrees>36.80781793780624866485595703125</LatitudeDegrees>
              <LongitudeDegrees>-4.37869154848158359527587890625</LongitudeDegrees>
            </Position>
            <AltitudeMeters>813.79998779296875</AltitudeMeters>
            <DistanceMeters>NAN</DistanceMeters>
          </Trackpoint>
          <Trackpoint>
            <Time>2020-12-05T14:18:16.000Z</Time>
            <Position>
              <LatitudeDegrees>36.807815842330455780029296875</LatitudeDegrees>
              <LongitudeDegrees>-4.3786949850618839263916015625</LongitudeDegrees>
            </Position>
            <AltitudeMeters>814</AltitudeMeters>
            <DistanceMeters>NAN</DistanceMeters>
          </Trackpoint>
          <Trackpoint>
            <Time>2020-12-05T14:18:17.000Z</Time>
            <Position>
              <LatitudeDegrees>36.80780880153179168701171875</LatitudeDegrees>
              <LongitudeDegrees>-4.378697164356708526611328125</LongitudeDegrees>
            </Position>
            <AltitudeMeters>814</AltitudeMeters>
            <DistanceMeters>NAN</DistanceMeters>
          </Trackpoint>
          <Trackpoint>
            <Time>2020-12-05T14:18:18.000Z</Time>
            <Position>
              <LatitudeDegrees>36.807799749076366424560546875</LatitudeDegrees>
              <LongitudeDegrees>-4.378697834908962249755859375</LongitudeDegrees>
            </Position>
            <AltitudeMeters>814</AltitudeMeters>
            <DistanceMeters>NAN</DistanceMeters>
          </Trackpoint>
          <Trackpoint>
            <Time>2020-12-05T14:18:19.000Z</Time>
            <Position>
              <LatitudeDegrees>36.80779228918254375457763671875</LatitudeDegrees>
              <LongitudeDegrees>-4.378698170185089111328125</LongitudeDegrees>
            </Position>
            <AltitudeMeters>814</AltitudeMeters>
            <DistanceMeters>NAN</DistanceMeters>
          </Trackpoint>
          <Trackpoint>
            <Time>2020-12-05T14:18:20.000Z</Time>
            <Position>
              <LatitudeDegrees>36.8077878467738628387451171875</LatitudeDegrees>
              <LongitudeDegrees>-4.37869741581380367279052734375</LongitudeDegrees>
            </Position>
            <AltitudeMeters>813.79998779296875</AltitudeMeters>
            <DistanceMeters>NAN</DistanceMeters>
          </Trackpoint>
          <Trackpoint>
            <Time>2020-12-05T14:18:21.000Z</Time>
            <Position>
              <LatitudeDegrees>36.80778692476451396942138671875</LatitudeDegrees>
              <LongitudeDegrees>-4.37869356013834476470947265625</LongitudeDegrees>
            </Position>
            <AltitudeMeters>813.79998779296875</AltitudeMeters>
            <DistanceMeters>NAN</DistanceMeters>
          </Trackpoint>
          <Trackpoint>
            <Time>2020-12-05T14:18:22.000Z</Time>
            <Position>
              <LatitudeDegrees>36.8077791295945644378662109375</LatitudeDegrees>
              <LongitudeDegrees>-4.3786946497857570648193359375</LongitudeDegrees>
            </Position>
            <AltitudeMeters>814</AltitudeMeters>
            <DistanceMeters>NAN</DistanceMeters>
          </Trackpoint>
          <Trackpoint>
            <Time>2020-12-05T14:18:23.000Z</Time>
            <Position>
              <LatitudeDegrees>36.80777150206267833709716796875</LatitudeDegrees>
              <LongitudeDegrees>-4.3786923028528690338134765625</LongitudeDegrees>
            </Position>
            <AltitudeMeters>814</AltitudeMeters>
            <DistanceMeters>NAN</DistanceMeters>
          </Trackpoint>
          <Trackpoint>
            <Time>2020-12-05T14:18:24.000Z</Time>
            <Position>
              <LatitudeDegrees>36.807763539254665374755859375</LatitudeDegrees>
              <LongitudeDegrees>-4.3786899559199810028076171875</LongitudeDegrees>
            </Position>
            <AltitudeMeters>814</AltitudeMeters>
            <DistanceMeters>NAN</DistanceMeters>
          </Trackpoint>
          <Trackpoint>
            <Time>2020-12-05T14:18:25.000Z</Time>
            <Position>
              <LatitudeDegrees>36.807754822075366973876953125</LatitudeDegrees>
              <LongitudeDegrees>-4.37868853099644184112548828125</LongitudeDegrees>
            </Position>
            <AltitudeMeters>813.79998779296875</AltitudeMeters>
            <DistanceMeters>NAN</DistanceMeters>
          </Trackpoint>
          <Trackpoint>
            <Time>2020-12-05T14:18:26.000Z</Time>
            <Position>
              <LatitudeDegrees>36.80774618871510028839111328125</LatitudeDegrees>
              <LongitudeDegrees>-4.37868584878742694854736328125</LongitudeDegrees>
            </Position>
            <AltitudeMeters>813.5999755859375</AltitudeMeters>
            <DistanceMeters>NAN</DistanceMeters>
          </Trackpoint>
          <Trackpoint>
            <Time>2020-12-05T14:18:27.000Z</Time>
            <Position>
              <LatitudeDegrees>36.8077355436980724334716796875</LatitudeDegrees>
              <LongitudeDegrees>-4.37868584878742694854736328125</LongitudeDegrees>
            </Position>
            <AltitudeMeters>813.4000244140625</AltitudeMeters>
            <DistanceMeters>NAN</DistanceMeters>
          </Trackpoint>
          <Trackpoint>
            <Time>2020-12-05T14:18:28.000Z</Time>
            <Position>
              <LatitudeDegrees>36.80772489868104457855224609375</LatitudeDegrees>
              <LongitudeDegrees>-4.37868199311196804046630859375</LongitudeDegrees>
            </Position>
            <AltitudeMeters>813.4000244140625</AltitudeMeters>
            <DistanceMeters>NAN</DistanceMeters>
          </Trackpoint>
          <Trackpoint>
            <Time>2020-12-05T14:18:29.000Z</Time>
            <Position>
              <LatitudeDegrees>36.80771224200725555419921875</LatitudeDegrees>
              <LongitudeDegrees>-4.37867738306522369384765625</LongitudeDegrees>
            </Position>
            <AltitudeMeters>813.5999755859375</AltitudeMeters>
            <DistanceMeters>NAN</DistanceMeters>
          </Trackpoint>
          <Trackpoint>
            <Time>2020-12-05T14:18:30.000Z</Time>
            <Position>
              <LatitudeDegrees>36.80769841186702251434326171875</LatitudeDegrees>
              <LongitudeDegrees>-4.37867059372365474700927734375</LongitudeDegrees>
            </Position>
            <AltitudeMeters>813.5999755859375</AltitudeMeters>
            <DistanceMeters>NAN</DistanceMeters>
          </Trackpoint>
          <Trackpoint>
            <Time>2020-12-05T14:18:31.000Z</Time>
            <Position>
              <LatitudeDegrees>36.8076865933835506439208984375</LatitudeDegrees>
              <LongitudeDegrees>-4.3786621280014514923095703125</LongitudeDegrees>
            </Position>
            <AltitudeMeters>814.20001220703125</AltitudeMeters>
            <DistanceMeters>NAN</DistanceMeters>
          </Trackpoint>
          <Trackpoint>
            <Time>2020-12-05T14:18:32.000Z</Time>
            <Position>
              <LatitudeDegrees>36.8076772056519985198974609375</LatitudeDegrees>
              <LongitudeDegrees>-4.378655254840850830078125</LongitudeDegrees>
            </Position>
            <AltitudeMeters>814.79998779296875</AltitudeMeters>
            <DistanceMeters>NAN</DistanceMeters>
          </Trackpoint>
          <Trackpoint>
            <Time>2020-12-05T14:18:33.000Z</Time>
            <Position>
              <LatitudeDegrees>36.8076671473681926727294921875</LatitudeDegrees>
              <LongitudeDegrees>-4.378648214042186737060546875</LongitudeDegrees>
            </Position>
            <AltitudeMeters>815.20001220703125</AltitudeMeters>
            <DistanceMeters>NAN</DistanceMeters>
          </Trackpoint>
          <Trackpoint>
            <Time>2020-12-05T14:18:34.000Z</Time>
            <Position>
              <LatitudeDegrees>36.80765734054148197174072265625</LatitudeDegrees>
              <LongitudeDegrees>-4.37864025123417377471923828125</LongitudeDegrees>
            </Position>
            <AltitudeMeters>815.4000244140625</AltitudeMeters>
            <DistanceMeters>NAN</DistanceMeters>
          </Trackpoint>
          <Trackpoint>
            <Time>2020-12-05T14:18:35.000Z</Time>
            <Position>
              <LatitudeDegrees>36.8076470308005809783935546875</LatitudeDegrees>
              <LongitudeDegrees>-4.378631114959716796875</LongitudeDegrees>
            </Position>
            <AltitudeMeters>815.79998779296875</AltitudeMeters>
            <DistanceMeters>NAN</DistanceMeters>
          </Trackpoint>
          <Trackpoint>
            <Time>2020-12-05T14:18:36.000Z</Time>
            <Position>
              <LatitudeDegrees>36.80763739161193370819091796875</LatitudeDegrees>
              <LongitudeDegrees>-4.37862281687557697296142578125</LongitudeDegrees>
            </Position>
            <AltitudeMeters>816</AltitudeMeters>
            <DistanceMeters>NAN</DistanceMeters>
          </Trackpoint>
          <Trackpoint>
            <Time>2020-12-05T14:18:37.000Z</Time>
            <Position>
              <LatitudeDegrees>36.80762984789907932281494140625</LatitudeDegrees>
              <LongitudeDegrees>-4.37861108221113681793212890625</LongitudeDegrees>
            </Position>
            <AltitudeMeters>816</AltitudeMeters>
            <DistanceMeters>NAN</DistanceMeters>
          </Trackpoint>
          <Trackpoint>
            <Time>2020-12-05T14:18:38.000Z</Time>
            <Position>
              <LatitudeDegrees>36.8076217174530029296875</LatitudeDegrees>
              <LongitudeDegrees>-4.37860454432666301727294921875</LongitudeDegrees>
            </Position>
            <AltitudeMeters>816.20001220703125</AltitudeMeters>
            <DistanceMeters>NAN</DistanceMeters>
          </Trackpoint>
          <Trackpoint>
            <Time>2020-12-05T14:18:39.000Z</Time>
            <Position>
              <LatitudeDegrees>36.80761408992111682891845703125</LatitudeDegrees>
              <LongitudeDegrees>-4.37859733588993549346923828125</LongitudeDegrees>
            </Position>
            <AltitudeMeters>816.20001220703125</AltitudeMeters>
            <DistanceMeters>NAN</DistanceMeters>
          </Trackpoint>
          <Trackpoint>
            <Time>2020-12-05T14:18:40.000Z</Time>
            <Position>
              <LatitudeDegrees>36.807608306407928466796875</LatitudeDegrees>
              <LongitudeDegrees>-4.37859029509127140045166015625</LongitudeDegrees>
            </Position>
            <AltitudeMeters>816</AltitudeMeters>
            <DistanceMeters>NAN</DistanceMeters>
          </Trackpoint>
          <Trackpoint>
            <Time>2020-12-05T14:18:41.000Z</Time>
            <Position>
              <LatitudeDegrees>36.80760336108505725860595703125</LatitudeDegrees>
              <LongitudeDegrees>-4.3785833381116390228271484375</LongitudeDegrees>
            </Position>
            <AltitudeMeters>815.79998779296875</AltitudeMeters>
            <DistanceMeters>NAN</DistanceMeters>
          </Trackpoint>
          <Trackpoint>
            <Time>2020-12-05T14:18:42.000Z</Time>
            <Position>
              <LatitudeDegrees>36.80759665556252002716064453125</LatitudeDegrees>
              <LongitudeDegrees>-4.3785769678652286529541015625</LongitudeDegrees>
            </Position>
            <AltitudeMeters>815.5999755859375</AltitudeMeters>
            <DistanceMeters>NAN</DistanceMeters>
          </Trackpoint>
          <Trackpoint>
            <Time>2020-12-05T14:18:43.000Z</Time>
            <Position>
              <LatitudeDegrees>36.807588525116443634033203125</LatitudeDegrees>
              <LongitudeDegrees>-4.37857068143784999847412109375</LongitudeDegrees>
            </Position>
            <AltitudeMeters>815.5999755859375</AltitudeMeters>
            <DistanceMeters>NAN</DistanceMeters>
          </Trackpoint>
          <Trackpoint>
            <Time>2020-12-05T14:18:44.000Z</Time>
            <Position>
              <LatitudeDegrees>36.8075779639184474945068359375</LatitudeDegrees>
              <LongitudeDegrees>-4.37856079079210758209228515625</LongitudeDegrees>
            </Position>
            <AltitudeMeters>815.4000244140625</AltitudeMeters>
            <DistanceMeters>NAN</DistanceMeters>
          </Trackpoint>
          <Trackpoint>
            <Time>2020-12-05T14:18:45.000Z</Time>
            <Position>
              <LatitudeDegrees>36.80756849236786365509033203125</LatitudeDegrees>
              <LongitudeDegrees>-4.37855257652699947357177734375</LongitudeDegrees>
            </Position>
            <AltitudeMeters>815.4000244140625</AltitudeMeters>
            <DistanceMeters>NAN</DistanceMeters>
          </Trackpoint>
          <Trackpoint>
            <Time>2020-12-05T14:18:46.000Z</Time>
            <Position>
              <LatitudeDegrees>36.80755843408405780792236328125</LatitudeDegrees>
              <LongitudeDegrees>-4.37854218296706676483154296875</LongitudeDegrees>
            </Position>
            <AltitudeMeters>815.4000244140625</AltitudeMeters>
            <DistanceMeters>NAN</DistanceMeters>
          </Trackpoint>
          <Trackpoint>
            <Time>2020-12-05T14:18:47.000Z</Time>
            <Position>
              <LatitudeDegrees>36.80754837580025196075439453125</LatitudeDegrees>
              <LongitudeDegrees>-4.37853061594069004058837890625</LongitudeDegrees>
            </Position>
            <AltitudeMeters>815.20001220703125</AltitudeMeters>
            <DistanceMeters>NAN</DistanceMeters>
          </Trackpoint>
          <Trackpoint>
            <Time>2020-12-05T14:18:48.000Z</Time>
            <Position>
              <LatitudeDegrees>36.807535551488399505615234375</LatitudeDegrees>
              <LongitudeDegrees>-4.3785189650952816009521484375</LongitudeDegrees>
            </Position>
            <AltitudeMeters>815.20001220703125</AltitudeMeters>
            <DistanceMeters>NAN</DistanceMeters>
          </Trackpoint>
          <Trackpoint>
            <Time>2020-12-05T14:18:49.000Z</Time>
            <Position>
              <LatitudeDegrees>36.80752054788172245025634765625</LatitudeDegrees>
              <LongitudeDegrees>-4.37850815244019031524658203125</LongitudeDegrees>
            </Position>
            <AltitudeMeters>815.20001220703125</AltitudeMeters>
            <DistanceMeters>NAN</DistanceMeters>
          </Trackpoint>
          <Trackpoint>
            <Time>2020-12-05T14:18:50.000Z</Time>
            <Position>
              <LatitudeDegrees>36.80750210769474506378173828125</LatitudeDegrees>
              <LongitudeDegrees>-4.37850262038409709930419921875</LongitudeDegrees>
            </Position>
            <AltitudeMeters>815</AltitudeMeters>
            <DistanceMeters>NAN</DistanceMeters>
          </Trackpoint>
          <Trackpoint>
            <Time>2020-12-05T14:18:51.000Z</Time>
            <Position>
              <LatitudeDegrees>36.8074814043939113616943359375</LatitudeDegrees>
              <LongitudeDegrees>-4.37849742360413074493408203125</LongitudeDegrees>
            </Position>
            <AltitudeMeters>814.79998779296875</AltitudeMeters>
            <DistanceMeters>NAN</DistanceMeters>
          </Trackpoint>
          <Trackpoint>
            <Time>2020-12-05T14:18:52.000Z</Time>
            <Position>
              <LatitudeDegrees>36.807461790740489959716796875</LatitudeDegrees>
              <LongitudeDegrees>-4.3784988485276699066162109375</LongitudeDegrees>
            </Position>
            <AltitudeMeters>814.79998779296875</AltitudeMeters>
            <DistanceMeters>NAN</DistanceMeters>
          </Trackpoint>
          <Trackpoint>
            <Time>2020-12-05T14:18:53.000Z</Time>
            <Position>
              <LatitudeDegrees>36.8074428476393222808837890625</LatitudeDegrees>
              <LongitudeDegrees>-4.3785045482218265533447265625</LongitudeDegrees>
            </Position>
            <AltitudeMeters>814.79998779296875</AltitudeMeters>
            <DistanceMeters>NAN</DistanceMeters>
          </Trackpoint>
          <Trackpoint>
            <Time>2020-12-05T14:18:54.000Z</Time>
            <Position>
              <LatitudeDegrees>36.807432286441326141357421875</LatitudeDegrees>
              <LongitudeDegrees>-4.37850429676473140716552734375</LongitudeDegrees>
            </Position>
            <AltitudeMeters>814.5999755859375</AltitudeMeters>
            <DistanceMeters>NAN</DistanceMeters>
          </Trackpoint>
          <Trackpoint>
            <Time>2020-12-05T14:18:55.000Z</Time>
            <Position>
              <LatitudeDegrees>36.80742013268172740936279296875</LatitudeDegrees>
              <LongitudeDegrees>-4.37850781716406345367431640625</LongitudeDegrees>
            </Position>
            <AltitudeMeters>814.4000244140625</AltitudeMeters>
            <DistanceMeters>NAN</DistanceMeters>
          </Trackpoint>
          <Trackpoint>
            <Time>2020-12-05T14:18:56.000Z</Time>
            <Position>
              <LatitudeDegrees>36.8074039556086063385009765625</LatitudeDegrees>
              <LongitudeDegrees>-4.37851100228726863861083984375</LongitudeDegrees>
            </Position>
            <AltitudeMeters>814.4000244140625</AltitudeMeters>
            <DistanceMeters>NAN</DistanceMeters>
          </Trackpoint>
          <Trackpoint>
            <Time>2020-12-05T14:18:57.000Z</Time>
            <Position>
              <LatitudeDegrees>36.8073885329067707061767578125</LatitudeDegrees>
              <LongitudeDegrees>-4.37851418741047382354736328125</LongitudeDegrees>
            </Position>
            <AltitudeMeters>814.20001220703125</AltitudeMeters>
            <DistanceMeters>NAN</DistanceMeters>
          </Trackpoint>
          <Trackpoint>
            <Time>2020-12-05T14:18:58.000Z</Time>
            <Position>
              <LatitudeDegrees>36.807373948395252227783203125</LatitudeDegrees>
              <LongitudeDegrees>-4.37851376831531524658203125</LongitudeDegrees>
            </Position>
            <AltitudeMeters>814</AltitudeMeters>
            <DistanceMeters>NAN</DistanceMeters>
          </Trackpoint>
          <Trackpoint>
            <Time>2020-12-05T14:18:59.000Z</Time>
            <Position>
              <LatitudeDegrees>36.80735978297889232635498046875</LatitudeDegrees>
              <LongitudeDegrees>-4.37851686961948871612548828125</LongitudeDegrees>
            </Position>
            <AltitudeMeters>814</AltitudeMeters>
            <DistanceMeters>NAN</DistanceMeters>
          </Trackpoint>
          <Trackpoint>
            <Time>2020-12-05T14:19:00.000Z</Time>
            <Position>
              <LatitudeDegrees>36.8073466233909130096435546875</LatitudeDegrees>
              <LongitudeDegrees>-4.37852106057107448577880859375</LongitudeDegrees>
            </Position>
            <AltitudeMeters>814.20001220703125</AltitudeMeters>
            <DistanceMeters>NAN</DistanceMeters>
          </Trackpoint>
          <Trackpoint>
            <Time>2020-12-05T14:19:01.000Z</Time>
            <Position>
              <LatitudeDegrees>36.8073360621929168701171875</LatitudeDegrees>
              <LongitudeDegrees>-4.37852256931364536285400390625</LongitudeDegrees>
            </Position>
            <AltitudeMeters>814.4000244140625</AltitudeMeters>
            <DistanceMeters>NAN</DistanceMeters>
          </Trackpoint>
          <Trackpoint>
            <Time>2020-12-05T14:19:02.000Z</Time>
            <Position>
              <LatitudeDegrees>36.8073258362710475921630859375</LatitudeDegrees>
              <LongitudeDegrees>-4.3785239942371845245361328125</LongitudeDegrees>
            </Position>
            <AltitudeMeters>814.5999755859375</AltitudeMeters>
            <DistanceMeters>NAN</DistanceMeters>
          </Trackpoint>
          <Trackpoint>
            <Time>2020-12-05T14:19:03.000Z</Time>
            <Position>
              <LatitudeDegrees>36.807316280901432037353515625</LatitudeDegrees>
              <LongitudeDegrees>-4.37852558679878711700439453125</LongitudeDegrees>
            </Position>
            <AltitudeMeters>815</AltitudeMeters>
            <DistanceMeters>NAN</DistanceMeters>
          </Trackpoint>
          <Trackpoint>
            <Time>2020-12-05T14:19:04.000Z</Time>
            <Position>
              <LatitudeDegrees>36.80730764754116535186767578125</LatitudeDegrees>
              <LongitudeDegrees>-4.37852860428392887115478515625</LongitudeDegrees>
            </Position>
            <AltitudeMeters>815.20001220703125</AltitudeMeters>
            <DistanceMeters>NAN</DistanceMeters>
          </Trackpoint>
          <Trackpoint>
            <Time>2020-12-05T14:19:05.000Z</Time>
            <Position>
              <LatitudeDegrees>36.8073000200092792510986328125</LatitudeDegrees>
              <LongitudeDegrees>-4.37853631563484668731689453125</LongitudeDegrees>
            </Position>
            <AltitudeMeters>815.5999755859375</AltitudeMeters>
            <DistanceMeters>NAN</DistanceMeters>
          </Trackpoint>
          <Trackpoint>
            <Time>2020-12-05T14:19:06.000Z</Time>
            <Position>
              <LatitudeDegrees>36.8072919733822345733642578125</LatitudeDegrees>
              <LongitudeDegrees>-4.378541596233844757080078125</LongitudeDegrees>
            </Position>
            <AltitudeMeters>816</AltitudeMeters>
            <DistanceMeters>NAN</DistanceMeters>
          </Trackpoint>
          <Trackpoint>
            <Time>2020-12-05T14:19:07.000Z</Time>
            <Position>
              <LatitudeDegrees>36.8072825856506824493408203125</LatitudeDegrees>
              <LongitudeDegrees>-4.37855022959411144256591796875</LongitudeDegrees>
            </Position>
            <AltitudeMeters>816.4000244140625</AltitudeMeters>
            <DistanceMeters>NAN</DistanceMeters>
          </Trackpoint>
          <Trackpoint>
            <Time>2020-12-05T14:19:08.000Z</Time>
            <Position>
              <LatitudeDegrees>36.807273365557193756103515625</LatitudeDegrees>
              <LongitudeDegrees>-4.3785585276782512664794921875</LongitudeDegrees>
            </Position>
            <AltitudeMeters>816.5999755859375</AltitudeMeters>
            <DistanceMeters>NAN</DistanceMeters>
          </Trackpoint>
          <Trackpoint>
            <Time>2020-12-05T14:19:09.000Z</Time>
            <Position>
              <LatitudeDegrees>36.80726255290210247039794921875</LatitudeDegrees>
              <LongitudeDegrees>-4.37856716103851795196533203125</LongitudeDegrees>
            </Position>
            <AltitudeMeters>816.79998779296875</AltitudeMeters>
            <DistanceMeters>NAN</DistanceMeters>
          </Trackpoint>
          <Trackpoint>
            <Time>2020-12-05T14:19:10.000Z</Time>
            <Position>
              <LatitudeDegrees>36.80725333280861377716064453125</LatitudeDegrees>
              <LongitudeDegrees>-4.3785709328949451446533203125</LongitudeDegrees>
            </Position>
            <AltitudeMeters>816.79998779296875</AltitudeMeters>
            <DistanceMeters>NAN</DistanceMeters>
          </Trackpoint>
          <Trackpoint>
            <Time>2020-12-05T14:19:11.000Z</Time>
            <Position>
              <LatitudeDegrees>36.8072450347244739532470703125</LatitudeDegrees>
              <LongitudeDegrees>-4.37856967560946941375732421875</LongitudeDegrees>
            </Position>
            <AltitudeMeters>816.79998779296875</AltitudeMeters>
            <DistanceMeters>NAN</DistanceMeters>
          </Trackpoint>
          <Trackpoint>
            <Time>2020-12-05T14:19:12.000Z</Time>
            <Position>
              <LatitudeDegrees>36.80723757483065128326416015625</LatitudeDegrees>
              <LongitudeDegrees>-4.3785702623426914215087890625</LongitudeDegrees>
            </Position>
            <AltitudeMeters>816.79998779296875</AltitudeMeters>
            <DistanceMeters>NAN</DistanceMeters>
          </Trackpoint>
          <Trackpoint>
            <Time>2020-12-05T14:19:13.000Z</Time>
            <Position>
              <LatitudeDegrees>36.8072296120226383209228515625</LatitudeDegrees>
              <LongitudeDegrees>-4.37857235781848430633544921875</LongitudeDegrees>
            </Position>
            <AltitudeMeters>816.79998779296875</AltitudeMeters>
            <DistanceMeters>NAN</DistanceMeters>
          </Trackpoint>
          <Trackpoint>
            <Time>2020-12-05T14:19:14.000Z</Time>
            <Position>
              <LatitudeDegrees>36.80722139775753021240234375</LatitudeDegrees>
              <LongitudeDegrees>-4.3785762973129749298095703125</LongitudeDegrees>
            </Position>
            <AltitudeMeters>816.5999755859375</AltitudeMeters>
            <DistanceMeters>NAN</DistanceMeters>
          </Trackpoint>
          <Trackpoint>
            <Time>2020-12-05T14:19:15.000Z</Time>
            <Position>
              <LatitudeDegrees>36.80721309967339038848876953125</LatitudeDegrees>
              <LongitudeDegrees>-4.3785809911787509918212890625</LongitudeDegrees>
            </Position>
            <AltitudeMeters>816.5999755859375</AltitudeMeters>
            <DistanceMeters>NAN</DistanceMeters>
          </Trackpoint>
          <Trackpoint>
            <Time>2020-12-05T14:19:16.000Z</Time>
            <Position>
              <LatitudeDegrees>36.80720320902764797210693359375</LatitudeDegrees>
              <LongitudeDegrees>-4.37858710996806621551513671875</LongitudeDegrees>
            </Position>
            <AltitudeMeters>816.5999755859375</AltitudeMeters>
            <DistanceMeters>NAN</DistanceMeters>
          </Trackpoint>
          <Trackpoint>
            <Time>2020-12-05T14:19:17.000Z</Time>
            <Position>
              <LatitudeDegrees>36.80719197727739810943603515625</LatitudeDegrees>
              <LongitudeDegrees>-4.3785944022238254547119140625</LongitudeDegrees>
            </Position>
            <AltitudeMeters>816.79998779296875</AltitudeMeters>
            <DistanceMeters>NAN</DistanceMeters>
          </Trackpoint>
          <Trackpoint>
            <Time>2020-12-05T14:19:18.000Z</Time>
            <Position>
              <LatitudeDegrees>36.80718057788908481597900390625</LatitudeDegrees>
              <LongitudeDegrees>-4.37860236503183841705322265625</LongitudeDegrees>
            </Position>
            <AltitudeMeters>816.79998779296875</AltitudeMeters>
            <DistanceMeters>NAN</DistanceMeters>
          </Trackpoint>
          <Trackpoint>
            <Time>2020-12-05T14:19:19.000Z</Time>
            <Position>
              <LatitudeDegrees>36.80716834031045436859130859375</LatitudeDegrees>
              <LongitudeDegrees>-4.37861141748726367950439453125</LongitudeDegrees>
            </Position>
            <AltitudeMeters>817</AltitudeMeters>
            <DistanceMeters>NAN</DistanceMeters>
          </Trackpoint>
          <Trackpoint>
            <Time>2020-12-05T14:19:20.000Z</Time>
            <Position>
              <LatitudeDegrees>36.807156689465045928955078125</LatitudeDegrees>
              <LongitudeDegrees>-4.37862105667591094970703125</LongitudeDegrees>
            </Position>
            <AltitudeMeters>817.20001220703125</AltitudeMeters>
            <DistanceMeters>NAN</DistanceMeters>
          </Trackpoint>
          <Trackpoint>
            <Time>2020-12-05T14:19:21.000Z</Time>
            <Position>
              <LatitudeDegrees>36.8071447871625423431396484375</LatitudeDegrees>
              <LongitudeDegrees>-4.37862885184586048126220703125</LongitudeDegrees>
            </Position>
            <AltitudeMeters>817.20001220703125</AltitudeMeters>
            <DistanceMeters>NAN</DistanceMeters>
          </Trackpoint>
          <Trackpoint>
            <Time>2020-12-05T14:19:22.000Z</Time>
            <Position>
              <LatitudeDegrees>36.80713363923132419586181640625</LatitudeDegrees>
              <LongitudeDegrees>-4.3786356411874294281005859375</LongitudeDegrees>
            </Position>
            <AltitudeMeters>817.4000244140625</AltitudeMeters>
            <DistanceMeters>NAN</DistanceMeters>
          </Trackpoint>
          <Trackpoint>
            <Time>2020-12-05T14:19:23.000Z</Time>
            <Position>
              <LatitudeDegrees>36.80712215602397918701171875</LatitudeDegrees>
              <LongitudeDegrees>-4.37864175997674465179443359375</LongitudeDegrees>
            </Position>
            <AltitudeMeters>817.4000244140625</AltitudeMeters>
            <DistanceMeters>NAN</DistanceMeters>
          </Trackpoint>
          <Trackpoint>
            <Time>2020-12-05T14:19:24.000Z</Time>
            <Position>
              <LatitudeDegrees>36.8071109242737293243408203125</LatitudeDegrees>
              <LongitudeDegrees>-4.37864561565220355987548828125</LongitudeDegrees>
            </Position>
            <AltitudeMeters>817.4000244140625</AltitudeMeters>
            <DistanceMeters>NAN</DistanceMeters>
          </Trackpoint>
          <Trackpoint>
            <Time>2020-12-05T14:19:25.000Z</Time>
            <Position>
              <LatitudeDegrees>36.8070991896092891693115234375</LatitudeDegrees>
              <LongitudeDegrees>-4.37864829786121845245361328125</LongitudeDegrees>
            </Position>
            <AltitudeMeters>817.4000244140625</AltitudeMeters>
            <DistanceMeters>NAN</DistanceMeters>
          </Trackpoint>
          <Trackpoint>
            <Time>2020-12-05T14:19:26.000Z</Time>
            <Position>
              <LatitudeDegrees>36.80708753876388072967529296875</LatitudeDegrees>
              <LongitudeDegrees>-4.37864947132766246795654296875</LongitudeDegrees>
            </Position>
            <AltitudeMeters>817.20001220703125</AltitudeMeters>
            <DistanceMeters>NAN</DistanceMeters>
          </Trackpoint>
          <Trackpoint>
            <Time>2020-12-05T14:19:27.000Z</Time>
            <Position>
              <LatitudeDegrees>36.80707655847072601318359375</LatitudeDegrees>
              <LongitudeDegrees>-4.37864963896572589874267578125</LongitudeDegrees>
            </Position>
            <AltitudeMeters>817.20001220703125</AltitudeMeters>
            <DistanceMeters>NAN</DistanceMeters>
          </Trackpoint>
          <Trackpoint>
            <Time>2020-12-05T14:19:28.000Z</Time>
            <Position>
              <LatitudeDegrees>36.8070663325488567352294921875</LatitudeDegrees>
              <LongitudeDegrees>-4.3786446936428546905517578125</LongitudeDegrees>
            </Position>
            <AltitudeMeters>817.20001220703125</AltitudeMeters>
            <DistanceMeters>NAN</DistanceMeters>
          </Trackpoint>
          <Trackpoint>
            <Time>2020-12-05T14:19:29.000Z</Time>
            <Position>
              <LatitudeDegrees>36.80705317296087741851806640625</LatitudeDegrees>
              <LongitudeDegrees>-4.378644526004791259765625</LongitudeDegrees>
            </Position>
            <AltitudeMeters>817.4000244140625</AltitudeMeters>
            <DistanceMeters>NAN</DistanceMeters>
          </Trackpoint>
          <Trackpoint>
            <Time>2020-12-05T14:19:30.000Z</Time>
            <Position>
              <LatitudeDegrees>36.8070371635258197784423828125</LatitudeDegrees>
              <LongitudeDegrees>-4.378644861280918121337890625</LongitudeDegrees>
            </Position>
            <AltitudeMeters>817.5999755859375</AltitudeMeters>
            <DistanceMeters>NAN</DistanceMeters>
          </Trackpoint>
          <Trackpoint>
            <Time>2020-12-05T14:19:31.000Z</Time>
            <Position>
              <LatitudeDegrees>36.80702031590044498443603515625</LatitudeDegrees>
              <LongitudeDegrees>-4.378643520176410675048828125</LongitudeDegrees>
            </Position>
            <AltitudeMeters>817.5999755859375</AltitudeMeters>
            <DistanceMeters>NAN</DistanceMeters>
          </Trackpoint>
          <Trackpoint>
            <Time>2020-12-05T14:19:32.000Z</Time>
            <Position>
              <LatitudeDegrees>36.80700573138892650604248046875</LatitudeDegrees>
              <LongitudeDegrees>-4.37864125706255435943603515625</LongitudeDegrees>
            </Position>
            <AltitudeMeters>817.5999755859375</AltitudeMeters>
            <DistanceMeters>NAN</DistanceMeters>
          </Trackpoint>
          <Trackpoint>
            <Time>2020-12-05T14:19:33.000Z</Time>
            <Position>
              <LatitudeDegrees>36.8069908954203128814697265625</LatitudeDegrees>
              <LongitudeDegrees>-4.3786383233964443206787109375</LongitudeDegrees>
            </Position>
            <AltitudeMeters>817.79998779296875</AltitudeMeters>
            <DistanceMeters>NAN</DistanceMeters>
          </Trackpoint>
          <Trackpoint>
            <Time>2020-12-05T14:19:34.000Z</Time>
            <Position>
              <LatitudeDegrees>36.8069768138229846954345703125</LatitudeDegrees>
              <LongitudeDegrees>-4.3786356411874294281005859375</LongitudeDegrees>
            </Position>
            <AltitudeMeters>818</AltitudeMeters>
            <DistanceMeters>NAN</DistanceMeters>
          </Trackpoint>
          <Trackpoint>
            <Time>2020-12-05T14:19:35.000Z</Time>
            <Position>
              <LatitudeDegrees>36.806963570415973663330078125</LatitudeDegrees>
              <LongitudeDegrees>-4.37863304279744625091552734375</LongitudeDegrees>
            </Position>
            <AltitudeMeters>818</AltitudeMeters>
            <DistanceMeters>NAN</DistanceMeters>
          </Trackpoint>
          <Trackpoint>
            <Time>2020-12-05T14:19:36.000Z</Time>
            <Position>
              <LatitudeDegrees>36.80695024318993091583251953125</LatitudeDegrees>
              <LongitudeDegrees>-4.37862600199878215789794921875</LongitudeDegrees>
            </Position>
            <AltitudeMeters>818</AltitudeMeters>
            <DistanceMeters>NAN</DistanceMeters>
          </Trackpoint>
          <Trackpoint>
            <Time>2020-12-05T14:19:37.000Z</Time>
            <Position>
              <LatitudeDegrees>36.8069392628967761993408203125</LatitudeDegrees>
              <LongitudeDegrees>-4.37861879356205463409423828125</LongitudeDegrees>
            </Position>
            <AltitudeMeters>818</AltitudeMeters>
            <DistanceMeters>NAN</DistanceMeters>
          </Trackpoint>
          <Trackpoint>
            <Time>2020-12-05T14:19:38.000Z</Time>
            <Position>
              <LatitudeDegrees>36.80692962370812892913818359375</LatitudeDegrees>
              <LongitudeDegrees>-4.37861141748726367950439453125</LongitudeDegrees>
            </Position>
            <AltitudeMeters>818.20001220703125</AltitudeMeters>
            <DistanceMeters>NAN</DistanceMeters>
          </Trackpoint>
          <Trackpoint>
            <Time>2020-12-05T14:19:39.000Z</Time>
            <Position>
              <LatitudeDegrees>36.80692099034786224365234375</LatitudeDegrees>
              <LongitudeDegrees>-4.3786041252315044403076171875</LongitudeDegrees>
            </Position>
            <AltitudeMeters>818.20001220703125</AltitudeMeters>
            <DistanceMeters>NAN</DistanceMeters>
          </Trackpoint>
          <Trackpoint>
            <Time>2020-12-05T14:19:40.000Z</Time>
            <Position>
              <LatitudeDegrees>36.8069100938737392425537109375</LatitudeDegrees>
              <LongitudeDegrees>-4.378599263727664947509765625</LongitudeDegrees>
            </Position>
            <AltitudeMeters>818.20001220703125</AltitudeMeters>
            <DistanceMeters>NAN</DistanceMeters>
          </Trackpoint>
          <Trackpoint>
            <Time>2020-12-05T14:19:41.000Z</Time>
            <Position>
              <LatitudeDegrees>36.806896515190601348876953125</LatitudeDegrees>
              <LongitudeDegrees>-4.37859825789928436279296875</LongitudeDegrees>
            </Position>
            <AltitudeMeters>818</AltitudeMeters>
            <DistanceMeters>NAN</DistanceMeters>
          </Trackpoint>
          <Trackpoint>
            <Time>2020-12-05T14:19:42.000Z</Time>
            <Position>
              <LatitudeDegrees>36.80688352324068546295166015625</LatitudeDegrees>
              <LongitudeDegrees>-4.37860068865120410919189453125</LongitudeDegrees>
            </Position>
            <AltitudeMeters>818.20001220703125</AltitudeMeters>
            <DistanceMeters>NAN</DistanceMeters>
          </Trackpoint>
          <Trackpoint>
            <Time>2020-12-05T14:19:43.000Z</Time>
            <Position>
              <LatitudeDegrees>36.806870363652706146240234375</LatitudeDegrees>
              <LongitudeDegrees>-4.378606639802455902099609375</LongitudeDegrees>
            </Position>
            <AltitudeMeters>818.20001220703125</AltitudeMeters>
            <DistanceMeters>NAN</DistanceMeters>
          </Trackpoint>
          <Trackpoint>
            <Time>2020-12-05T14:19:44.000Z</Time>
            <Position>
              <LatitudeDegrees>36.80685804225504398345947265625</LatitudeDegrees>
              <LongitudeDegrees>-4.37861175276339054107666015625</LongitudeDegrees>
            </Position>
            <AltitudeMeters>818.20001220703125</AltitudeMeters>
            <DistanceMeters>NAN</DistanceMeters>
          </Trackpoint>
          <Trackpoint>
            <Time>2020-12-05T14:19:45.000Z</Time>
            <Position>
              <LatitudeDegrees>36.80684865452349185943603515625</LatitudeDegrees>
              <LongitudeDegrees>-4.37862348742783069610595703125</LongitudeDegrees>
            </Position>
            <AltitudeMeters>818.4000244140625</AltitudeMeters>
            <DistanceMeters>NAN</DistanceMeters>
          </Trackpoint>
          <Trackpoint>
            <Time>2020-12-05T14:19:46.000Z</Time>
            <Position>
              <LatitudeDegrees>36.8068380095064640045166015625</LatitudeDegrees>
              <LongitudeDegrees>-4.378634132444858551025390625</LongitudeDegrees>
            </Position>
            <AltitudeMeters>818.4000244140625</AltitudeMeters>
            <DistanceMeters>NAN</DistanceMeters>
          </Trackpoint>
          <Trackpoint>
            <Time>2020-12-05T14:19:47.000Z</Time>
            <Position>
              <LatitudeDegrees>36.8068269453942775726318359375</LatitudeDegrees>
              <LongitudeDegrees>-4.378644190728664398193359375</LongitudeDegrees>
            </Position>
            <AltitudeMeters>818.5999755859375</AltitudeMeters>
            <DistanceMeters>NAN</DistanceMeters>
          </Trackpoint>
          <Trackpoint>
            <Time>2020-12-05T14:19:48.000Z</Time>
            <Position>
              <LatitudeDegrees>36.80681546218693256378173828125</LatitudeDegrees>
              <LongitudeDegrees>-4.3786537460982799530029296875</LongitudeDegrees>
            </Position>
            <AltitudeMeters>818.5999755859375</AltitudeMeters>
            <DistanceMeters>NAN</DistanceMeters>
          </Trackpoint>
          <Trackpoint>
            <Time>2020-12-05T14:19:49.000Z</Time>
            <Position>
              <LatitudeDegrees>36.806807331740856170654296875</LatitudeDegrees>
              <LongitudeDegrees>-4.37866606749594211578369140625</LongitudeDegrees>
            </Position>
            <AltitudeMeters>818.5999755859375</AltitudeMeters>
            <DistanceMeters>NAN</DistanceMeters>
          </Trackpoint>
          <Trackpoint>
            <Time>2020-12-05T14:19:50.000Z</Time>
            <Position>
              <LatitudeDegrees>36.80680054239928722381591796875</LatitudeDegrees>
              <LongitudeDegrees>-4.37867294065654277801513671875</LongitudeDegrees>
            </Position>
            <AltitudeMeters>818.4000244140625</AltitudeMeters>
            <DistanceMeters>NAN</DistanceMeters>
          </Trackpoint>
          <Trackpoint>
            <Time>2020-12-05T14:19:51.000Z</Time>
            <Position>
              <LatitudeDegrees>36.80679199285805225372314453125</LatitudeDegrees>
              <LongitudeDegrees>-4.37867813743650913238525390625</LongitudeDegrees>
            </Position>
            <AltitudeMeters>818.4000244140625</AltitudeMeters>
            <DistanceMeters>NAN</DistanceMeters>
          </Trackpoint>
          <Trackpoint>
            <Time>2020-12-05T14:19:52.000Z</Time>
            <Position>
              <LatitudeDegrees>36.8067836947739124298095703125</LatitudeDegrees>
              <LongitudeDegrees>-4.37868274748325347900390625</LongitudeDegrees>
            </Position>
            <AltitudeMeters>818.20001220703125</AltitudeMeters>
            <DistanceMeters>NAN</DistanceMeters>
          </Trackpoint>
          <Trackpoint>
            <Time>2020-12-05T14:19:53.000Z</Time>
            <Position>
              <LatitudeDegrees>36.80677506141364574432373046875</LatitudeDegrees>
              <LongitudeDegrees>-4.3786879442632198333740234375</LongitudeDegrees>
            </Position>
            <AltitudeMeters>818</AltitudeMeters>
            <DistanceMeters>NAN</DistanceMeters>
          </Trackpoint>
          <Trackpoint>
            <Time>2020-12-05T14:19:54.000Z</Time>
            <Position>
              <LatitudeDegrees>36.80676617659628391265869140625</LatitudeDegrees>
              <LongitudeDegrees>-4.37869389541447162628173828125</LongitudeDegrees>
            </Position>
            <AltitudeMeters>817.79998779296875</AltitudeMeters>
            <DistanceMeters>NAN</DistanceMeters>
          </Trackpoint>
          <Trackpoint>
            <Time>2020-12-05T14:19:55.000Z</Time>
            <Position>
              <LatitudeDegrees>36.806757040321826934814453125</LatitudeDegrees>
              <LongitudeDegrees>-4.37870412133634090423583984375</LongitudeDegrees>
            </Position>
            <AltitudeMeters>817.79998779296875</AltitudeMeters>
            <DistanceMeters>NAN</DistanceMeters>
          </Trackpoint>
          <Trackpoint>
            <Time>2020-12-05T14:19:56.000Z</Time>
            <Position>
              <LatitudeDegrees>36.80674932897090911865234375</LatitudeDegrees>
              <LongitudeDegrees>-4.37871501781046390533447265625</LongitudeDegrees>
            </Position>
            <AltitudeMeters>818</AltitudeMeters>
            <DistanceMeters>NAN</DistanceMeters>
          </Trackpoint>
          <Trackpoint>
            <Time>2020-12-05T14:19:57.000Z</Time>
            <Position>
              <LatitudeDegrees>36.80673918686807155609130859375</LatitudeDegrees>
              <LongitudeDegrees>-4.37872591428458690643310546875</LongitudeDegrees>
            </Position>
            <AltitudeMeters>818</AltitudeMeters>
            <DistanceMeters>NAN</DistanceMeters>
          </Trackpoint>
          <Trackpoint>
            <Time>2020-12-05T14:19:58.000Z</Time>
            <Position>
              <LatitudeDegrees>36.80672778747975826263427734375</LatitudeDegrees>
              <LongitudeDegrees>-4.378738738596439361572265625</LongitudeDegrees>
            </Position>
            <AltitudeMeters>818</AltitudeMeters>
            <DistanceMeters>NAN</DistanceMeters>
          </Trackpoint>
          <Trackpoint>
            <Time>2020-12-05T14:19:59.000Z</Time>
            <Position>
              <LatitudeDegrees>36.80671588517725467681884765625</LatitudeDegrees>
              <LongitudeDegrees>-4.3787539936602115631103515625</LongitudeDegrees>
            </Position>
            <AltitudeMeters>818</AltitudeMeters>
            <DistanceMeters>NAN</DistanceMeters>
          </Trackpoint>
          <Trackpoint>
            <Time>2020-12-05T14:20:00.000Z</Time>
            <Position>
              <LatitudeDegrees>36.80670465342700481414794921875</LatitudeDegrees>
              <LongitudeDegrees>-4.378770925104618072509765625</LongitudeDegrees>
            </Position>
            <AltitudeMeters>818.20001220703125</AltitudeMeters>
            <DistanceMeters>NAN</DistanceMeters>
          </Trackpoint>
          <Trackpoint>
            <Time>2020-12-05T14:20:01.000Z</Time>
            <Position>
              <LatitudeDegrees>36.8066935054957866668701171875</LatitudeDegrees>
              <LongitudeDegrees>-4.3787891976535320281982421875</LongitudeDegrees>
            </Position>
            <AltitudeMeters>818.20001220703125</AltitudeMeters>
            <DistanceMeters>NAN</DistanceMeters>
          </Trackpoint>
          <Trackpoint>
            <Time>2020-12-05T14:20:02.000Z</Time>
            <Position>
              <LatitudeDegrees>36.80668453685939311981201171875</LatitudeDegrees>
              <LongitudeDegrees>-4.378809817135334014892578125</LongitudeDegrees>
            </Position>
            <AltitudeMeters>818.20001220703125</AltitudeMeters>
            <DistanceMeters>NAN</DistanceMeters>
          </Trackpoint>
          <Trackpoint>
            <Time>2020-12-05T14:20:03.000Z</Time>
            <Position>
              <LatitudeDegrees>36.80667330510914325714111328125</LatitudeDegrees>
              <LongitudeDegrees>-4.37882758677005767822265625</LongitudeDegrees>
            </Position>
            <AltitudeMeters>818.4000244140625</AltitudeMeters>
            <DistanceMeters>NAN</DistanceMeters>
          </Trackpoint>
          <Trackpoint>
            <Time>2020-12-05T14:20:04.000Z</Time>
            <Position>
              <LatitudeDegrees>36.8066650070250034332275390625</LatitudeDegrees>
              <LongitudeDegrees>-4.37884057871997356414794921875</LongitudeDegrees>
            </Position>
            <AltitudeMeters>818.79998779296875</AltitudeMeters>
            <DistanceMeters>NAN</DistanceMeters>
          </Trackpoint>
          <Trackpoint>
            <Time>2020-12-05T14:20:05.000Z</Time>
            <Position>
              <LatitudeDegrees>36.80666081607341766357421875</LatitudeDegrees>
              <LongitudeDegrees>-4.37885365448892116546630859375</LongitudeDegrees>
            </Position>
            <AltitudeMeters>818.79998779296875</AltitudeMeters>
            <DistanceMeters>NAN</DistanceMeters>
          </Trackpoint>
          <Trackpoint>
            <Time>2020-12-05T14:20:06.000Z</Time>
            <Position>
              <LatitudeDegrees>36.80665486492216587066650390625</LatitudeDegrees>
              <LongitudeDegrees>-4.378865472972393035888671875</LongitudeDegrees>
            </Position>
            <AltitudeMeters>819</AltitudeMeters>
            <DistanceMeters>NAN</DistanceMeters>
          </Trackpoint>
          <Trackpoint>
            <Time>2020-12-05T14:20:07.000Z</Time>
            <Position>
              <LatitudeDegrees>36.80665218271315097808837890625</LatitudeDegrees>
              <LongitudeDegrees>-4.37887377105653285980224609375</LongitudeDegrees>
            </Position>
            <AltitudeMeters>819</AltitudeMeters>
            <DistanceMeters>NAN</DistanceMeters>
          </Trackpoint>
          <Trackpoint>
            <Time>2020-12-05T14:20:08.000Z</Time>
            <Position>
              <LatitudeDegrees>36.80665117688477039337158203125</LatitudeDegrees>
              <LongitudeDegrees>-4.378883577883243560791015625</LongitudeDegrees>
            </Position>
            <AltitudeMeters>819</AltitudeMeters>
            <DistanceMeters>NAN</DistanceMeters>
          </Trackpoint>
          <Trackpoint>
            <Time>2020-12-05T14:20:09.000Z</Time>
            <Position>
              <LatitudeDegrees>36.80665100924670696258544921875</LatitudeDegrees>
              <LongitudeDegrees>-4.3788881041109561920166015625</LongitudeDegrees>
            </Position>
            <AltitudeMeters>819</AltitudeMeters>
            <DistanceMeters>NAN</DistanceMeters>
          </Trackpoint>
          <Trackpoint>
            <Time>2020-12-05T14:20:10.000Z</Time>
            <Position>
              <LatitudeDegrees>36.80665167979896068572998046875</LatitudeDegrees>
              <LongitudeDegrees>-4.3788944743573665618896484375</LongitudeDegrees>
            </Position>
            <AltitudeMeters>818.79998779296875</AltitudeMeters>
            <DistanceMeters>NAN</DistanceMeters>
          </Trackpoint>
          <Trackpoint>
            <Time>2020-12-05T14:20:11.000Z</Time>
            <Position>
              <LatitudeDegrees>36.80664983578026294708251953125</LatitudeDegrees>
              <LongitudeDegrees>-4.3789018504321575164794921875</LongitudeDegrees>
            </Position>
            <AltitudeMeters>818.79998779296875</AltitudeMeters>
            <DistanceMeters>NAN</DistanceMeters>
          </Trackpoint>
          <Trackpoint>
            <Time>2020-12-05T14:20:12.000Z</Time>
            <Position>
              <LatitudeDegrees>36.80664598010480403900146484375</LatitudeDegrees>
              <LongitudeDegrees>-4.37890813685953617095947265625</LongitudeDegrees>
            </Position>
            <AltitudeMeters>818.79998779296875</AltitudeMeters>
            <DistanceMeters>NAN</DistanceMeters>
          </Trackpoint>
          <Trackpoint>
            <Time>2020-12-05T14:20:13.000Z</Time>
            <Position>
              <LatitudeDegrees>36.8066428788006305694580078125</LatitudeDegrees>
              <LongitudeDegrees>-4.37890998087823390960693359375</LongitudeDegrees>
            </Position>
            <AltitudeMeters>818.79998779296875</AltitudeMeters>
            <DistanceMeters>NAN</DistanceMeters>
          </Trackpoint>
          <Trackpoint>
            <Time>2020-12-05T14:20:14.000Z</Time>
            <Position>
              <LatitudeDegrees>36.80663960985839366912841796875</LatitudeDegrees>
              <LongitudeDegrees>-4.37891584821045398712158203125</LongitudeDegrees>
            </Position>
            <AltitudeMeters>819</AltitudeMeters>
            <DistanceMeters>NAN</DistanceMeters>
          </Trackpoint>
          <Trackpoint>
            <Time>2020-12-05T14:20:15.000Z</Time>
            <Position>
              <LatitudeDegrees>36.8066398613154888153076171875</LatitudeDegrees>
              <LongitudeDegrees>-4.37892054207623004913330078125</LongitudeDegrees>
            </Position>
            <AltitudeMeters>819.20001220703125</AltitudeMeters>
            <DistanceMeters>NAN</DistanceMeters>
          </Trackpoint>
          <Trackpoint>
            <Time>2020-12-05T14:20:16.000Z</Time>
            <Position>
              <LatitudeDegrees>36.80664195679128170013427734375</LatitudeDegrees>
              <LongitudeDegrees>-4.378924481570720672607421875</LongitudeDegrees>
            </Position>
            <AltitudeMeters>826.4000244140625</AltitudeMeters>
            <DistanceMeters>NAN</DistanceMeters>
          </Trackpoint>
          <Trackpoint>
            <Time>2020-12-05T14:20:17.000Z</Time>
            <Position>
              <LatitudeDegrees>36.80664011277258396148681640625</LatitudeDegrees>
              <LongitudeDegrees>-4.378925152122974395751953125</LongitudeDegrees>
            </Position>
            <AltitudeMeters>823.4000244140625</AltitudeMeters>
            <DistanceMeters>NAN</DistanceMeters>
          </Trackpoint>
          <Trackpoint>
            <Time>2020-12-05T14:20:18.000Z</Time>
            <Position>
              <LatitudeDegrees>36.806637346744537353515625</LatitudeDegrees>
              <LongitudeDegrees>-4.378928840160369873046875</LongitudeDegrees>
            </Position>
            <AltitudeMeters>821.79998779296875</AltitudeMeters>
            <DistanceMeters>NAN</DistanceMeters>
          </Trackpoint>
          <Trackpoint>
            <Time>2020-12-05T14:20:19.000Z</Time>
            <Position>
              <LatitudeDegrees>36.80663407780230045318603515625</LatitudeDegrees>
              <LongitudeDegrees>-4.37893361784517765045166015625</LongitudeDegrees>
            </Position>
            <AltitudeMeters>821.20001220703125</AltitudeMeters>
            <DistanceMeters>NAN</DistanceMeters>
          </Trackpoint>
          <Trackpoint>
            <Time>2020-12-05T14:20:20.000Z</Time>
            <Position>
              <LatitudeDegrees>36.8066338263452053070068359375</LatitudeDegrees>
              <LongitudeDegrees>-4.37894082628190517425537109375</LongitudeDegrees>
            </Position>
            <AltitudeMeters>820.79998779296875</AltitudeMeters>
            <DistanceMeters>NAN</DistanceMeters>
          </Trackpoint>
          <Trackpoint>
            <Time>2020-12-05T14:20:21.000Z</Time>
            <Position>
              <LatitudeDegrees>36.8066348321735858917236328125</LatitudeDegrees>
              <LongitudeDegrees>-4.3789467774331569671630859375</LongitudeDegrees>
            </Position>
            <AltitudeMeters>820.5999755859375</AltitudeMeters>
            <DistanceMeters>NAN</DistanceMeters>
          </Trackpoint>
          <Trackpoint>
            <Time>2020-12-05T14:20:22.000Z</Time>
            <Position>
              <LatitudeDegrees>36.806634999811649322509765625</LatitudeDegrees>
              <LongitudeDegrees>-4.378949292004108428955078125</LongitudeDegrees>
            </Position>
            <AltitudeMeters>820.4000244140625</AltitudeMeters>
            <DistanceMeters>NAN</DistanceMeters>
          </Trackpoint>
          <Trackpoint>
            <Time>2020-12-05T14:20:23.000Z</Time>
            <Position>
              <LatitudeDegrees>36.80663323961198329925537109375</LatitudeDegrees>
              <LongitudeDegrees>-4.37894694507122039794921875</LongitudeDegrees>
            </Position>
            <AltitudeMeters>820.4000244140625</AltitudeMeters>
            <DistanceMeters>NAN</DistanceMeters>
          </Trackpoint>
          <Trackpoint>
            <Time>2020-12-05T14:20:24.000Z</Time>
            <Position>
              <LatitudeDegrees>36.806631647050380706787109375</LatitudeDegrees>
              <LongitudeDegrees>-4.3789440952241420745849609375</LongitudeDegrees>
            </Position>
            <AltitudeMeters>820.4000244140625</AltitudeMeters>
            <DistanceMeters>NAN</DistanceMeters>
          </Trackpoint>
          <Trackpoint>
            <Time>2020-12-05T14:20:25.000Z</Time>
            <Position>
              <LatitudeDegrees>36.80662921629846096038818359375</LatitudeDegrees>
              <LongitudeDegrees>-4.37894099391996860504150390625</LongitudeDegrees>
            </Position>
            <AltitudeMeters>820.4000244140625</AltitudeMeters>
            <DistanceMeters>NAN</DistanceMeters>
          </Trackpoint>
          <Trackpoint>
            <Time>2020-12-05T14:20:26.000Z</Time>
            <Position>
              <LatitudeDegrees>36.80662485770881175994873046875</LatitudeDegrees>
              <LongitudeDegrees>-4.3789367191493511199951171875</LongitudeDegrees>
            </Position>
            <AltitudeMeters>820.4000244140625</AltitudeMeters>
            <DistanceMeters>NAN</DistanceMeters>
          </Trackpoint>
          <Trackpoint>
            <Time>2020-12-05T14:20:27.000Z</Time>
            <Position>
              <LatitudeDegrees>36.80661924183368682861328125</LatitudeDegrees>
              <LongitudeDegrees>-4.3789394013583660125732421875</LongitudeDegrees>
            </Position>
            <AltitudeMeters>820.4000244140625</AltitudeMeters>
            <DistanceMeters>NAN</DistanceMeters>
          </Trackpoint>
          <Trackpoint>
            <Time>2020-12-05T14:20:28.000Z</Time>
            <Position>
              <LatitudeDegrees>36.8066123686730861663818359375</LatitudeDegrees>
              <LongitudeDegrees>-4.378942586481571197509765625</LongitudeDegrees>
            </Position>
            <AltitudeMeters>820.4000244140625</AltitudeMeters>
            <DistanceMeters>NAN</DistanceMeters>
          </Trackpoint>
          <Trackpoint>
            <Time>2020-12-05T14:20:29.000Z</Time>
            <Position>
              <LatitudeDegrees>36.80660692043602466583251953125</LatitudeDegrees>
              <LongitudeDegrees>-4.37894937582314014434814453125</LongitudeDegrees>
            </Position>
            <AltitudeMeters>820.4000244140625</AltitudeMeters>
            <DistanceMeters>NAN</DistanceMeters>
          </Trackpoint>
          <Trackpoint>
            <Time>2020-12-05T14:20:30.000Z</Time>
            <Position>
              <LatitudeDegrees>36.8065982870757579803466796875</LatitudeDegrees>
              <LongitudeDegrees>-4.378958679735660552978515625</LongitudeDegrees>
            </Position>
            <AltitudeMeters>820.4000244140625</AltitudeMeters>
            <DistanceMeters>NAN</DistanceMeters>
          </Trackpoint>
          <Trackpoint>
            <Time>2020-12-05T14:20:31.000Z</Time>
            <Position>
              <LatitudeDegrees>36.80658529512584209442138671875</LatitudeDegrees>
              <LongitudeDegrees>-4.3789650499820709228515625</LongitudeDegrees>
            </Position>
            <AltitudeMeters>820.4000244140625</AltitudeMeters>
            <DistanceMeters>NAN</DistanceMeters>
          </Trackpoint>
          <Trackpoint>
            <Time>2020-12-05T14:20:32.000Z</Time>
            <Position>
              <LatitudeDegrees>36.8065741471946239471435546875</LatitudeDegrees>
              <LongitudeDegrees>-4.37897385098040103912353515625</LongitudeDegrees>
            </Position>
            <AltitudeMeters>820.4000244140625</AltitudeMeters>
            <DistanceMeters>NAN</DistanceMeters>
          </Trackpoint>
          <Trackpoint>
            <Time>2020-12-05T14:20:33.000Z</Time>
            <Position>
              <LatitudeDegrees>36.80656350217759609222412109375</LatitudeDegrees>
              <LongitudeDegrees>-4.378983490169048309326171875</LongitudeDegrees>
            </Position>
            <AltitudeMeters>820.4000244140625</AltitudeMeters>
            <DistanceMeters>NAN</DistanceMeters>
          </Trackpoint>
          <Trackpoint>
            <Time>2020-12-05T14:20:34.000Z</Time>
            <Position>
              <LatitudeDegrees>36.8065560422837734222412109375</LatitudeDegrees>
              <LongitudeDegrees>-4.3789950571954250335693359375</LongitudeDegrees>
            </Position>
            <AltitudeMeters>820.4000244140625</AltitudeMeters>
            <DistanceMeters>NAN</DistanceMeters>
          </Trackpoint>
          <Trackpoint>
            <Time>2020-12-05T14:20:35.000Z</Time>
            <Position>
              <LatitudeDegrees>36.80654958821833133697509765625</LatitudeDegrees>
              <LongitudeDegrees>-4.3790027685463428497314453125</LongitudeDegrees>
            </Position>
            <AltitudeMeters>820.4000244140625</AltitudeMeters>
            <DistanceMeters>NAN</DistanceMeters>
          </Trackpoint>
          <Trackpoint>
            <Time>2020-12-05T14:20:36.000Z</Time>
            <Position>
              <LatitudeDegrees>36.8065422959625720977783203125</LatitudeDegrees>
              <LongitudeDegrees>-4.37901224009692668914794921875</LongitudeDegrees>
            </Position>
            <AltitudeMeters>820.4000244140625</AltitudeMeters>
            <DistanceMeters>NAN</DistanceMeters>
          </Trackpoint>
          <Trackpoint>
            <Time>2020-12-05T14:20:37.000Z</Time>
            <Position>
              <LatitudeDegrees>36.80653567425906658172607421875</LatitudeDegrees>
              <LongitudeDegrees>-4.3790285848081111907958984375</LongitudeDegrees>
            </Position>
            <AltitudeMeters>820.4000244140625</AltitudeMeters>
            <DistanceMeters>NAN</DistanceMeters>
          </Trackpoint>
          <Trackpoint>
            <Time>2020-12-05T14:20:38.000Z</Time>
            <Position>
              <LatitudeDegrees>36.80652804672718048095703125</LatitudeDegrees>
              <LongitudeDegrees>-4.37903755344450473785400390625</LongitudeDegrees>
            </Position>
            <AltitudeMeters>820.4000244140625</AltitudeMeters>
            <DistanceMeters>NAN</DistanceMeters>
          </Trackpoint>
          <Trackpoint>
            <Time>2020-12-05T14:20:39.000Z</Time>
            <Position>
              <LatitudeDegrees>36.8065194971859455108642578125</LatitudeDegrees>
              <LongitudeDegrees>-4.379046857357025146484375</LongitudeDegrees>
            </Position>
            <AltitudeMeters>820.4000244140625</AltitudeMeters>
            <DistanceMeters>NAN</DistanceMeters>
          </Trackpoint>
          <Trackpoint>
            <Time>2020-12-05T14:20:40.000Z</Time>
            <Position>
              <LatitudeDegrees>36.8065104447305202484130859375</LatitudeDegrees>
              <LongitudeDegrees>-4.37905901111662387847900390625</LongitudeDegrees>
            </Position>
            <AltitudeMeters>820.4000244140625</AltitudeMeters>
            <DistanceMeters>NAN</DistanceMeters>
          </Trackpoint>
          <Trackpoint>
            <Time>2020-12-05T14:20:41.000Z</Time>
            <Position>
              <LatitudeDegrees>36.8064997158944606781005859375</LatitudeDegrees>
              <LongitudeDegrees>-4.37907007522881031036376953125</LongitudeDegrees>
            </Position>
            <AltitudeMeters>820.4000244140625</AltitudeMeters>
            <DistanceMeters>NAN</DistanceMeters>
          </Trackpoint>
          <Trackpoint>
            <Time>2020-12-05T14:20:42.000Z</Time>
            <Position>
              <LatitudeDegrees>36.80648806504905223846435546875</LatitudeDegrees>
              <LongitudeDegrees>-4.37908147461712360382080078125</LongitudeDegrees>
            </Position>
            <AltitudeMeters>820.4000244140625</AltitudeMeters>
            <DistanceMeters>NAN</DistanceMeters>
          </Trackpoint>
          <Trackpoint>
            <Time>2020-12-05T14:20:43.000Z</Time>
            <Position>
              <LatitudeDegrees>36.8064777553081512451171875</LatitudeDegrees>
              <LongitudeDegrees>-4.3790902756154537200927734375</LongitudeDegrees>
            </Position>
            <AltitudeMeters>820.4000244140625</AltitudeMeters>
            <DistanceMeters>NAN</DistanceMeters>
          </Trackpoint>
          <Trackpoint>
            <Time>2020-12-05T14:20:44.000Z</Time>
            <Position>
              <LatitudeDegrees>36.80646845139563083648681640625</LatitudeDegrees>
              <LongitudeDegrees>-4.37909941188991069793701171875</LongitudeDegrees>
            </Position>
            <AltitudeMeters>820.4000244140625</AltitudeMeters>
            <DistanceMeters>NAN</DistanceMeters>
          </Trackpoint>
          <Trackpoint>
            <Time>2020-12-05T14:20:45.000Z</Time>
            <Position>
              <LatitudeDegrees>36.80645956657826900482177734375</LatitudeDegrees>
              <LongitudeDegrees>-4.37910846434533596038818359375</LongitudeDegrees>
            </Position>
            <AltitudeMeters>820.5999755859375</AltitudeMeters>
            <DistanceMeters>NAN</DistanceMeters>
          </Trackpoint>
          <Trackpoint>
            <Time>2020-12-05T14:20:46.000Z</Time>
            <Position>
              <LatitudeDegrees>36.8064524419605731964111328125</LatitudeDegrees>
              <LongitudeDegrees>-4.37911726534366607666015625</LongitudeDegrees>
            </Position>
            <AltitudeMeters>820.5999755859375</AltitudeMeters>
            <DistanceMeters>NAN</DistanceMeters>
          </Trackpoint>
          <Trackpoint>
            <Time>2020-12-05T14:20:47.000Z</Time>
            <Position>
              <LatitudeDegrees>36.80644447915256023406982421875</LatitudeDegrees>
              <LongitudeDegrees>-4.37912388704717159271240234375</LongitudeDegrees>
            </Position>
            <AltitudeMeters>820.79998779296875</AltitudeMeters>
            <DistanceMeters>NAN</DistanceMeters>
          </Trackpoint>
          <Trackpoint>
            <Time>2020-12-05T14:20:48.000Z</Time>
            <Position>
              <LatitudeDegrees>36.80643727071583271026611328125</LatitudeDegrees>
              <LongitudeDegrees>-4.37912908382713794708251953125</LongitudeDegrees>
            </Position>
            <AltitudeMeters>820.79998779296875</AltitudeMeters>
            <DistanceMeters>NAN</DistanceMeters>
          </Trackpoint>
          <Trackpoint>
            <Time>2020-12-05T14:20:49.000Z</Time>
            <Position>
              <LatitudeDegrees>36.80642872117459774017333984375</LatitudeDegrees>
              <LongitudeDegrees>-4.379134364426136016845703125</LongitudeDegrees>
            </Position>
            <AltitudeMeters>820.79998779296875</AltitudeMeters>
            <DistanceMeters>NAN</DistanceMeters>
          </Trackpoint>
          <Trackpoint>
            <Time>2020-12-05T14:20:50.000Z</Time>
            <Position>
              <LatitudeDegrees>36.80642067454755306243896484375</LatitudeDegrees>
              <LongitudeDegrees>-4.37914031557738780975341796875</LongitudeDegrees>
            </Position>
            <AltitudeMeters>820.79998779296875</AltitudeMeters>
            <DistanceMeters>NAN</DistanceMeters>
          </Trackpoint>
          <Trackpoint>
            <Time>2020-12-05T14:20:51.000Z</Time>
            <Position>
              <LatitudeDegrees>36.8064107000827789306640625</LatitudeDegrees>
              <LongitudeDegrees>-4.379147775471210479736328125</LongitudeDegrees>
            </Position>
            <AltitudeMeters>820.79998779296875</AltitudeMeters>
            <DistanceMeters>NAN</DistanceMeters>
          </Trackpoint>
          <Trackpoint>
            <Time>2020-12-05T14:20:52.000Z</Time>
            <Position>
              <LatitudeDegrees>36.80639871396124362945556640625</LatitudeDegrees>
              <LongitudeDegrees>-4.3791529722511768341064453125</LongitudeDegrees>
            </Position>
            <AltitudeMeters>820.79998779296875</AltitudeMeters>
            <DistanceMeters>NAN</DistanceMeters>
          </Trackpoint>
          <Trackpoint>
            <Time>2020-12-05T14:20:53.000Z</Time>
            <Position>
              <LatitudeDegrees>36.80638664402067661285400390625</LatitudeDegrees>
              <LongitudeDegrees>-4.3791568279266357421875</LongitudeDegrees>
            </Position>
            <AltitudeMeters>820.5999755859375</AltitudeMeters>
            <DistanceMeters>NAN</DistanceMeters>
          </Trackpoint>
          <Trackpoint>
            <Time>2020-12-05T14:20:54.000Z</Time>
            <Position>
              <LatitudeDegrees>36.806377507746219635009765625</LatitudeDegrees>
              <LongitudeDegrees>-4.3791583366692066192626953125</LongitudeDegrees>
            </Position>
            <AltitudeMeters>820.5999755859375</AltitudeMeters>
            <DistanceMeters>NAN</DistanceMeters>
          </Trackpoint>
          <Trackpoint>
            <Time>2020-12-05T14:20:55.000Z</Time>
            <Position>
              <LatitudeDegrees>36.80636820383369922637939453125</LatitudeDegrees>
              <LongitudeDegrees>-4.3791554868221282958984375</LongitudeDegrees>
            </Position>
            <AltitudeMeters>820.5999755859375</AltitudeMeters>
            <DistanceMeters>NAN</DistanceMeters>
          </Trackpoint>
          <Trackpoint>
            <Time>2020-12-05T14:20:56.000Z</Time>
            <Position>
              <LatitudeDegrees>36.80635965429246425628662109375</LatitudeDegrees>
              <LongitudeDegrees>-4.3791580013930797576904296875</LongitudeDegrees>
            </Position>
            <AltitudeMeters>820.4000244140625</AltitudeMeters>
            <DistanceMeters>NAN</DistanceMeters>
          </Trackpoint>
          <Trackpoint>
            <Time>2020-12-05T14:20:57.000Z</Time>
            <Position>
              <LatitudeDegrees>36.80635127238929271697998046875</LatitudeDegrees>
              <LongitudeDegrees>-4.37915976159274578094482421875</LongitudeDegrees>
            </Position>
            <AltitudeMeters>820.20001220703125</AltitudeMeters>
            <DistanceMeters>NAN</DistanceMeters>
          </Trackpoint>
          <Trackpoint>
            <Time>2020-12-05T14:20:58.000Z</Time>
            <Position>
              <LatitudeDegrees>36.8063428066670894622802734375</LatitudeDegrees>
              <LongitudeDegrees>-4.379163868725299835205078125</LongitudeDegrees>
            </Position>
            <AltitudeMeters>820.20001220703125</AltitudeMeters>
            <DistanceMeters>NAN</DistanceMeters>
          </Trackpoint>
          <Trackpoint>
            <Time>2020-12-05T14:20:59.000Z</Time>
            <Position>
              <LatitudeDegrees>36.80633316747844219207763671875</LatitudeDegrees>
              <LongitudeDegrees>-4.3791700713336467742919921875</LongitudeDegrees>
            </Position>
            <AltitudeMeters>820.20001220703125</AltitudeMeters>
            <DistanceMeters>NAN</DistanceMeters>
          </Trackpoint>
          <Trackpoint>
            <Time>2020-12-05T14:21:00.000Z</Time>
            <Position>
              <LatitudeDegrees>36.80632294155657291412353515625</LatitudeDegrees>
              <LongitudeDegrees>-4.37917434610426425933837890625</LongitudeDegrees>
            </Position>
            <AltitudeMeters>820.20001220703125</AltitudeMeters>
            <DistanceMeters>NAN</DistanceMeters>
          </Trackpoint>
          <Trackpoint>
            <Time>2020-12-05T14:21:01.000Z</Time>
            <Position>
              <LatitudeDegrees>36.8063127994537353515625</LatitudeDegrees>
              <LongitudeDegrees>-4.37917753122746944427490234375</LongitudeDegrees>
            </Position>
            <AltitudeMeters>820.20001220703125</AltitudeMeters>
            <DistanceMeters>NAN</DistanceMeters>
          </Trackpoint>
          <Trackpoint>
            <Time>2020-12-05T14:21:02.000Z</Time>
            <Position>
              <LatitudeDegrees>36.80630148388445377349853515625</LatitudeDegrees>
              <LongitudeDegrees>-4.3791821412742137908935546875</LongitudeDegrees>
            </Position>
            <AltitudeMeters>820.20001220703125</AltitudeMeters>
            <DistanceMeters>NAN</DistanceMeters>
          </Trackpoint>
          <Trackpoint>
            <Time>2020-12-05T14:21:03.000Z</Time>
            <Position>
              <LatitudeDegrees>36.80629025213420391082763671875</LatitudeDegrees>
              <LongitudeDegrees>-4.379186332225799560546875</LongitudeDegrees>
            </Position>
            <AltitudeMeters>820.4000244140625</AltitudeMeters>
            <DistanceMeters>NAN</DistanceMeters>
          </Trackpoint>
          <Trackpoint>
            <Time>2020-12-05T14:21:04.000Z</Time>
            <Position>
              <LatitudeDegrees>36.8062777630984783172607421875</LatitudeDegrees>
              <LongitudeDegrees>-4.379186332225799560546875</LongitudeDegrees>
            </Position>
            <AltitudeMeters>820.5999755859375</AltitudeMeters>
            <DistanceMeters>NAN</DistanceMeters>
          </Trackpoint>
          <Trackpoint>
            <Time>2020-12-05T14:21:05.000Z</Time>
            <Position>
              <LatitudeDegrees>36.8062640167772769927978515625</LatitudeDegrees>
              <LongitudeDegrees>-4.37918775714933872222900390625</LongitudeDegrees>
            </Position>
            <AltitudeMeters>820.79998779296875</AltitudeMeters>
            <DistanceMeters>NAN</DistanceMeters>
          </Trackpoint>
          <Trackpoint>
            <Time>2020-12-05T14:21:06.000Z</Time>
            <Position>
              <LatitudeDegrees>36.80625177919864654541015625</LatitudeDegrees>
              <LongitudeDegrees>-4.3791901879012584686279296875</LongitudeDegrees>
            </Position>
            <AltitudeMeters>820.79998779296875</AltitudeMeters>
            <DistanceMeters>NAN</DistanceMeters>
          </Trackpoint>
          <Trackpoint>
            <Time>2020-12-05T14:21:07.000Z</Time>
            <Position>
              <LatitudeDegrees>36.80624113418161869049072265625</LatitudeDegrees>
              <LongitudeDegrees>-4.37919228337705135345458984375</LongitudeDegrees>
            </Position>
            <AltitudeMeters>821</AltitudeMeters>
            <DistanceMeters>NAN</DistanceMeters>
          </Trackpoint>
          <Trackpoint>
            <Time>2020-12-05T14:21:08.000Z</Time>
            <Position>
              <LatitudeDegrees>36.80623023770749568939208984375</LatitudeDegrees>
              <LongitudeDegrees>-4.37919370830059051513671875</LongitudeDegrees>
            </Position>
            <AltitudeMeters>821</AltitudeMeters>
            <DistanceMeters>NAN</DistanceMeters>
          </Trackpoint>
          <Trackpoint>
            <Time>2020-12-05T14:21:09.000Z</Time>
            <Position>
              <LatitudeDegrees>36.80621833540499210357666015625</LatitudeDegrees>
              <LongitudeDegrees>-4.37919395975768566131591796875</LongitudeDegrees>
            </Position>
            <AltitudeMeters>821.20001220703125</AltitudeMeters>
            <DistanceMeters>NAN</DistanceMeters>
          </Trackpoint>
          <Trackpoint>
            <Time>2020-12-05T14:21:10.000Z</Time>
            <Position>
              <LatitudeDegrees>36.8062080256640911102294921875</LatitudeDegrees>
              <LongitudeDegrees>-4.3791989050805568695068359375</LongitudeDegrees>
            </Position>
            <AltitudeMeters>821.20001220703125</AltitudeMeters>
            <DistanceMeters>NAN</DistanceMeters>
          </Trackpoint>
          <Trackpoint>
            <Time>2020-12-05T14:21:11.000Z</Time>
            <Position>
              <LatitudeDegrees>36.80619947612285614013671875</LatitudeDegrees>
              <LongitudeDegrees>-4.37919882126152515411376953125</LongitudeDegrees>
            </Position>
            <AltitudeMeters>821.4000244140625</AltitudeMeters>
            <DistanceMeters>NAN</DistanceMeters>
          </Trackpoint>
          <Trackpoint>
            <Time>2020-12-05T14:21:12.000Z</Time>
            <Position>
              <LatitudeDegrees>36.8061907589435577392578125</LatitudeDegrees>
              <LongitudeDegrees>-4.37920133583247661590576171875</LongitudeDegrees>
            </Position>
            <AltitudeMeters>821.5999755859375</AltitudeMeters>
            <DistanceMeters>NAN</DistanceMeters>
          </Trackpoint>
          <Trackpoint>
            <Time>2020-12-05T14:21:13.000Z</Time>
            <Position>
              <LatitudeDegrees>36.8061818741261959075927734375</LatitudeDegrees>
              <LongitudeDegrees>-4.37920468859374523162841796875</LongitudeDegrees>
            </Position>
            <AltitudeMeters>821.79998779296875</AltitudeMeters>
            <DistanceMeters>NAN</DistanceMeters>
          </Trackpoint>
          <Trackpoint>
            <Time>2020-12-05T14:21:14.000Z</Time>
            <Position>
              <LatitudeDegrees>36.80617257021367549896240234375</LatitudeDegrees>
              <LongitudeDegrees>-4.3792092986404895782470703125</LongitudeDegrees>
            </Position>
            <AltitudeMeters>822</AltitudeMeters>
            <DistanceMeters>NAN</DistanceMeters>
          </Trackpoint>
          <Trackpoint>
            <Time>2020-12-05T14:21:15.000Z</Time>
            <Position>
              <LatitudeDegrees>36.80616234429180622100830078125</LatitudeDegrees>
              <LongitudeDegrees>-4.37921625562012195587158203125</LongitudeDegrees>
            </Position>
            <AltitudeMeters>822.20001220703125</AltitudeMeters>
            <DistanceMeters>NAN</DistanceMeters>
          </Trackpoint>
          <Trackpoint>
            <Time>2020-12-05T14:21:16.000Z</Time>
            <Position>
              <LatitudeDegrees>36.80615211836993694305419921875</LatitudeDegrees>
              <LongitudeDegrees>-4.37922430224716663360595703125</LongitudeDegrees>
            </Position>
            <AltitudeMeters>822.4000244140625</AltitudeMeters>
            <DistanceMeters>NAN</DistanceMeters>
          </Trackpoint>
          <Trackpoint>
            <Time>2020-12-05T14:21:17.000Z</Time>
            <Position>
              <LatitudeDegrees>36.80614105425775051116943359375</LatitudeDegrees>
              <LongitudeDegrees>-4.37923796474933624267578125</LongitudeDegrees>
            </Position>
            <AltitudeMeters>822.5999755859375</AltitudeMeters>
            <DistanceMeters>NAN</DistanceMeters>
          </Trackpoint>
          <Trackpoint>
            <Time>2020-12-05T14:21:18.000Z</Time>
            <Position>
              <LatitudeDegrees>36.80612848140299320220947265625</LatitudeDegrees>
              <LongitudeDegrees>-4.37925145961344242095947265625</LongitudeDegrees>
            </Position>
            <AltitudeMeters>822.79998779296875</AltitudeMeters>
            <DistanceMeters>NAN</DistanceMeters>
          </Trackpoint>
          <Trackpoint>
            <Time>2020-12-05T14:21:19.000Z</Time>
            <Position>
              <LatitudeDegrees>36.806116998195648193359375</LatitudeDegrees>
              <LongitudeDegrees>-4.3792654573917388916015625</LongitudeDegrees>
            </Position>
            <AltitudeMeters>823.20001220703125</AltitudeMeters>
            <DistanceMeters>NAN</DistanceMeters>
          </Trackpoint>
          <Trackpoint>
            <Time>2020-12-05T14:21:20.000Z</Time>
            <Position>
              <LatitudeDegrees>36.8061064369976520538330078125</LatitudeDegrees>
              <LongitudeDegrees>-4.37927744351327419281005859375</LongitudeDegrees>
            </Position>
            <AltitudeMeters>823.4000244140625</AltitudeMeters>
            <DistanceMeters>NAN</DistanceMeters>
          </Trackpoint>
          <Trackpoint>
            <Time>2020-12-05T14:21:21.000Z</Time>
            <Position>
              <LatitudeDegrees>36.80609428323805332183837890625</LatitudeDegrees>
              <LongitudeDegrees>-4.3792897649109363555908203125</LongitudeDegrees>
            </Position>
            <AltitudeMeters>823.5999755859375</AltitudeMeters>
            <DistanceMeters>NAN</DistanceMeters>
          </Trackpoint>
          <Trackpoint>
            <Time>2020-12-05T14:21:22.000Z</Time>
            <Position>
              <LatitudeDegrees>36.8060839734971523284912109375</LatitudeDegrees>
              <LongitudeDegrees>-4.379301331937313079833984375</LongitudeDegrees>
            </Position>
            <AltitudeMeters>823.5999755859375</AltitudeMeters>
            <DistanceMeters>NAN</DistanceMeters>
          </Trackpoint>
          <Trackpoint>
            <Time>2020-12-05T14:21:23.000Z</Time>
            <Position>
              <LatitudeDegrees>36.80607475340366363525390625</LatitudeDegrees>
              <LongitudeDegrees>-4.37931449152529239654541015625</LongitudeDegrees>
            </Position>
            <AltitudeMeters>823.79998779296875</AltitudeMeters>
            <DistanceMeters>NAN</DistanceMeters>
          </Trackpoint>
          <Trackpoint>
            <Time>2020-12-05T14:21:24.000Z</Time>
            <Position>
              <LatitudeDegrees>36.8060662038624286651611328125</LatitudeDegrees>
              <LongitudeDegrees>-4.379330165684223175048828125</LongitudeDegrees>
            </Position>
            <AltitudeMeters>823.79998779296875</AltitudeMeters>
            <DistanceMeters>NAN</DistanceMeters>
          </Trackpoint>
          <Trackpoint>
            <Time>2020-12-05T14:21:25.000Z</Time>
            <Position>
              <LatitudeDegrees>36.80605807341635227203369140625</LatitudeDegrees>
              <LongitudeDegrees>-4.37934181652963161468505859375</LongitudeDegrees>
            </Position>
            <AltitudeMeters>824</AltitudeMeters>
            <DistanceMeters>NAN</DistanceMeters>
          </Trackpoint>
          <Trackpoint>
            <Time>2020-12-05T14:21:26.000Z</Time>
            <Position>
              <LatitudeDegrees>36.8060511164367198944091796875</LatitudeDegrees>
              <LongitudeDegrees>-4.37935053370893001556396484375</LongitudeDegrees>
            </Position>
            <AltitudeMeters>824.20001220703125</AltitudeMeters>
            <DistanceMeters>NAN</DistanceMeters>
          </Trackpoint>
          <Trackpoint>
            <Time>2020-12-05T14:21:27.000Z</Time>
            <Position>
              <LatitudeDegrees>36.8060410581529140472412109375</LatitudeDegrees>
              <LongitudeDegrees>-4.37936075963079929351806640625</LongitudeDegrees>
            </Position>
            <AltitudeMeters>824.4000244140625</AltitudeMeters>
            <DistanceMeters>NAN</DistanceMeters>
          </Trackpoint>
          <Trackpoint>
            <Time>2020-12-05T14:21:28.000Z</Time>
            <Position>
              <LatitudeDegrees>36.806031502783298492431640625</LatitudeDegrees>
              <LongitudeDegrees>-4.3793688900768756866455078125</LongitudeDegrees>
            </Position>
            <AltitudeMeters>824.79998779296875</AltitudeMeters>
            <DistanceMeters>NAN</DistanceMeters>
          </Trackpoint>
          <Trackpoint>
            <Time>2020-12-05T14:21:29.000Z</Time>
            <Position>
              <LatitudeDegrees>36.806022115051746368408203125</LatitudeDegrees>
              <LongitudeDegrees>-4.37937785871326923370361328125</LongitudeDegrees>
            </Position>
            <AltitudeMeters>825</AltitudeMeters>
            <DistanceMeters>NAN</DistanceMeters>
          </Trackpoint>
          <Trackpoint>
            <Time>2020-12-05T14:21:30.000Z</Time>
            <Position>
              <LatitudeDegrees>36.8060125596821308135986328125</LatitudeDegrees>
              <LongitudeDegrees>-4.37938858754932880401611328125</LongitudeDegrees>
            </Position>
            <AltitudeMeters>825</AltitudeMeters>
            <DistanceMeters>NAN</DistanceMeters>
          </Trackpoint>
          <Trackpoint>
            <Time>2020-12-05T14:21:31.000Z</Time>
            <Position>
              <LatitudeDegrees>36.80600308813154697418212890625</LatitudeDegrees>
              <LongitudeDegrees>-4.37939747236669063568115234375</LongitudeDegrees>
            </Position>
            <AltitudeMeters>825.20001220703125</AltitudeMeters>
            <DistanceMeters>NAN</DistanceMeters>
          </Trackpoint>
          <Trackpoint>
            <Time>2020-12-05T14:21:32.000Z</Time>
            <Position>
              <LatitudeDegrees>36.80599403567612171173095703125</LatitudeDegrees>
              <LongitudeDegrees>-4.37940694391727447509765625</LongitudeDegrees>
            </Position>
            <AltitudeMeters>825.4000244140625</AltitudeMeters>
            <DistanceMeters>NAN</DistanceMeters>
          </Trackpoint>
          <Trackpoint>
            <Time>2020-12-05T14:21:33.000Z</Time>
            <Position>
              <LatitudeDegrees>36.80598498322069644927978515625</LatitudeDegrees>
              <LongitudeDegrees>-4.3794158287346363067626953125</LongitudeDegrees>
            </Position>
            <AltitudeMeters>825.79998779296875</AltitudeMeters>
            <DistanceMeters>NAN</DistanceMeters>
          </Trackpoint>
          <Trackpoint>
            <Time>2020-12-05T14:21:34.000Z</Time>
            <Position>
              <LatitudeDegrees>36.80597551167011260986328125</LatitudeDegrees>
              <LongitudeDegrees>-4.3794237077236175537109375</LongitudeDegrees>
            </Position>
            <AltitudeMeters>826</AltitudeMeters>
            <DistanceMeters>NAN</DistanceMeters>
          </Trackpoint>
          <Trackpoint>
            <Time>2020-12-05T14:21:35.000Z</Time>
            <Position>
              <LatitudeDegrees>36.80596687830984592437744140625</LatitudeDegrees>
              <LongitudeDegrees>-4.37942974269390106201171875</LongitudeDegrees>
            </Position>
            <AltitudeMeters>826.20001220703125</AltitudeMeters>
            <DistanceMeters>NAN</DistanceMeters>
          </Trackpoint>
          <Trackpoint>
            <Time>2020-12-05T14:21:36.000Z</Time>
            <Position>
              <LatitudeDegrees>36.80595682002604007720947265625</LatitudeDegrees>
              <LongitudeDegrees>-4.37943770550191402435302734375</LongitudeDegrees>
            </Position>
            <AltitudeMeters>826.4000244140625</AltitudeMeters>
            <DistanceMeters>NAN</DistanceMeters>
          </Trackpoint>
          <Trackpoint>
            <Time>2020-12-05T14:21:37.000Z</Time>
            <Position>
              <LatitudeDegrees>36.805947683751583099365234375</LatitudeDegrees>
              <LongitudeDegrees>-4.379446506500244140625</LongitudeDegrees>
            </Position>
            <AltitudeMeters>826.5999755859375</AltitudeMeters>
            <DistanceMeters>NAN</DistanceMeters>
          </Trackpoint>
          <Trackpoint>
            <Time>2020-12-05T14:21:38.000Z</Time>
            <Position>
              <LatitudeDegrees>36.80593921802937984466552734375</LatitudeDegrees>
              <LongitudeDegrees>-4.37945949845016002655029296875</LongitudeDegrees>
            </Position>
            <AltitudeMeters>826.5999755859375</AltitudeMeters>
            <DistanceMeters>NAN</DistanceMeters>
          </Trackpoint>
          <Trackpoint>
            <Time>2020-12-05T14:21:39.000Z</Time>
            <Position>
              <LatitudeDegrees>36.8059324286878108978271484375</LatitudeDegrees>
              <LongitudeDegrees>-4.37947324477136135101318359375</LongitudeDegrees>
            </Position>
            <AltitudeMeters>826.5999755859375</AltitudeMeters>
            <DistanceMeters>NAN</DistanceMeters>
          </Trackpoint>
          <Trackpoint>
            <Time>2020-12-05T14:21:40.000Z</Time>
            <Position>
              <LatitudeDegrees>36.805929578840732574462890625</LatitudeDegrees>
              <LongitudeDegrees>-4.3794859014451503753662109375</LongitudeDegrees>
            </Position>
            <AltitudeMeters>826.5999755859375</AltitudeMeters>
            <DistanceMeters>NAN</DistanceMeters>
          </Trackpoint>
          <Trackpoint>
            <Time>2020-12-05T14:21:41.000Z</Time>
            <Position>
              <LatitudeDegrees>36.8059305846691131591796875</LatitudeDegrees>
              <LongitudeDegrees>-4.3794976361095905303955078125</LongitudeDegrees>
            </Position>
            <AltitudeMeters>826.79998779296875</AltitudeMeters>
            <DistanceMeters>NAN</DistanceMeters>
          </Trackpoint>
          <Trackpoint>
            <Time>2020-12-05T14:21:42.000Z</Time>
            <Position>
              <LatitudeDegrees>36.805926896631717681884765625</LatitudeDegrees>
              <LongitudeDegrees>-4.379513226449489593505859375</LongitudeDegrees>
            </Position>
            <AltitudeMeters>827</AltitudeMeters>
            <DistanceMeters>NAN</DistanceMeters>
          </Trackpoint>
          <Trackpoint>
            <Time>2020-12-05T14:21:43.000Z</Time>
            <Position>
              <LatitudeDegrees>36.80592379532754421234130859375</LatitudeDegrees>
              <LongitudeDegrees>-4.3795278109610080718994140625</LongitudeDegrees>
            </Position>
            <AltitudeMeters>827.20001220703125</AltitudeMeters>
            <DistanceMeters>NAN</DistanceMeters>
          </Trackpoint>
          <Trackpoint>
            <Time>2020-12-05T14:21:44.000Z</Time>
            <Position>
              <LatitudeDegrees>36.80592111311852931976318359375</LatitudeDegrees>
              <LongitudeDegrees>-4.379538036882877349853515625</LongitudeDegrees>
            </Position>
            <AltitudeMeters>827.20001220703125</AltitudeMeters>
            <DistanceMeters>NAN</DistanceMeters>
          </Trackpoint>
          <Trackpoint>
            <Time>2020-12-05T14:21:45.000Z</Time>
            <Position>
              <LatitudeDegrees>36.805916838347911834716796875</LatitudeDegrees>
              <LongitudeDegrees>-4.3795516155660152435302734375</LongitudeDegrees>
            </Position>
            <AltitudeMeters>827.4000244140625</AltitudeMeters>
            <DistanceMeters>NAN</DistanceMeters>
          </Trackpoint>
          <Trackpoint>
            <Time>2020-12-05T14:21:46.000Z</Time>
            <Position>
              <LatitudeDegrees>36.8059160001575946807861328125</LatitudeDegrees>
              <LongitudeDegrees>-4.3795596621930599212646484375</LongitudeDegrees>
            </Position>
            <AltitudeMeters>827.4000244140625</AltitudeMeters>
            <DistanceMeters>NAN</DistanceMeters>
          </Trackpoint>
          <Trackpoint>
            <Time>2020-12-05T14:21:47.000Z</Time>
            <Position>
              <LatitudeDegrees>36.80591708980500698089599609375</LatitudeDegrees>
              <LongitudeDegrees>-4.3795677088201045989990234375</LongitudeDegrees>
            </Position>
            <AltitudeMeters>827.4000244140625</AltitudeMeters>
            <DistanceMeters>NAN</DistanceMeters>
          </Trackpoint>
          <Trackpoint>
            <Time>2020-12-05T14:21:48.000Z</Time>
            <Position>
              <LatitudeDegrees>36.80591524578630924224853515625</LatitudeDegrees>
              <LongitudeDegrees>-4.37957349233329296112060546875</LongitudeDegrees>
            </Position>
            <AltitudeMeters>827.4000244140625</AltitudeMeters>
            <DistanceMeters>NAN</DistanceMeters>
          </Trackpoint>
          <Trackpoint>
            <Time>2020-12-05T14:21:49.000Z</Time>
            <Position>
              <LatitudeDegrees>36.8059118092060089111328125</LatitudeDegrees>
              <LongitudeDegrees>-4.37957751564681529998779296875</LongitudeDegrees>
            </Position>
            <AltitudeMeters>827.4000244140625</AltitudeMeters>
            <DistanceMeters>NAN</DistanceMeters>
          </Trackpoint>
          <Trackpoint>
            <Time>2020-12-05T14:21:50.000Z</Time>
            <Position>
              <LatitudeDegrees>36.805906780064105987548828125</LatitudeDegrees>
              <LongitudeDegrees>-4.37958036549389362335205078125</LongitudeDegrees>
            </Position>
            <AltitudeMeters>827.4000244140625</AltitudeMeters>
            <DistanceMeters>NAN</DistanceMeters>
          </Trackpoint>
          <Trackpoint>
            <Time>2020-12-05T14:21:51.000Z</Time>
            <Position>
              <LatitudeDegrees>36.80589973926544189453125</LatitudeDegrees>
              <LongitudeDegrees>-4.37958841212093830108642578125</LongitudeDegrees>
            </Position>
            <AltitudeMeters>827.5999755859375</AltitudeMeters>
            <DistanceMeters>NAN</DistanceMeters>
          </Trackpoint>
          <Trackpoint>
            <Time>2020-12-05T14:21:52.000Z</Time>
            <Position>
              <LatitudeDegrees>36.80588968098163604736328125</LatitudeDegrees>
              <LongitudeDegrees>-4.37960366718471050262451171875</LongitudeDegrees>
            </Position>
            <AltitudeMeters>827.79998779296875</AltitudeMeters>
            <DistanceMeters>NAN</DistanceMeters>
          </Trackpoint>
          <Trackpoint>
            <Time>2020-12-05T14:21:53.000Z</Time>
            <Position>
              <LatitudeDegrees>36.80588255636394023895263671875</LatitudeDegrees>
              <LongitudeDegrees>-4.3796156533062458038330078125</LongitudeDegrees>
            </Position>
            <AltitudeMeters>828</AltitudeMeters>
            <DistanceMeters>NAN</DistanceMeters>
          </Trackpoint>
          <Trackpoint>
            <Time>2020-12-05T14:21:54.000Z</Time>
            <Position>
              <LatitudeDegrees>36.80587618611752986907958984375</LatitudeDegrees>
              <LongitudeDegrees>-4.3796270526945590972900390625</LongitudeDegrees>
            </Position>
            <AltitudeMeters>828</AltitudeMeters>
            <DistanceMeters>NAN</DistanceMeters>
          </Trackpoint>
          <Trackpoint>
            <Time>2020-12-05T14:21:55.000Z</Time>
            <Position>
              <LatitudeDegrees>36.80586797185242176055908203125</LatitudeDegrees>
              <LongitudeDegrees>-4.37964239157736301422119140625</LongitudeDegrees>
            </Position>
            <AltitudeMeters>828.20001220703125</AltitudeMeters>
            <DistanceMeters>NAN</DistanceMeters>
          </Trackpoint>
          <Trackpoint>
            <Time>2020-12-05T14:21:56.000Z</Time>
            <Position>
              <LatitudeDegrees>36.80585883557796478271484375</LatitudeDegrees>
              <LongitudeDegrees>-4.3796568922698497772216796875</LongitudeDegrees>
            </Position>
            <AltitudeMeters>828.20001220703125</AltitudeMeters>
            <DistanceMeters>NAN</DistanceMeters>
          </Trackpoint>
          <Trackpoint>
            <Time>2020-12-05T14:21:57.000Z</Time>
            <Position>
              <LatitudeDegrees>36.805849783122539520263671875</LatitudeDegrees>
              <LongitudeDegrees>-4.3796686269342899322509765625</LongitudeDegrees>
            </Position>
            <AltitudeMeters>828.20001220703125</AltitudeMeters>
            <DistanceMeters>NAN</DistanceMeters>
          </Trackpoint>
          <Trackpoint>
            <Time>2020-12-05T14:21:58.000Z</Time>
            <Position>
              <LatitudeDegrees>36.8058408983051776885986328125</LatitudeDegrees>
              <LongitudeDegrees>-4.37967759557068347930908203125</LongitudeDegrees>
            </Position>
            <AltitudeMeters>828.20001220703125</AltitudeMeters>
            <DistanceMeters>NAN</DistanceMeters>
          </Trackpoint>
          <Trackpoint>
            <Time>2020-12-05T14:21:59.000Z</Time>
            <Position>
              <LatitudeDegrees>36.80583067238330841064453125</LatitudeDegrees>
              <LongitudeDegrees>-4.3796877376735210418701171875</LongitudeDegrees>
            </Position>
            <AltitudeMeters>828.20001220703125</AltitudeMeters>
            <DistanceMeters>NAN</DistanceMeters>
          </Trackpoint>
          <Trackpoint>
            <Time>2020-12-05T14:22:00.000Z</Time>
            <Position>
              <LatitudeDegrees>36.80581851862370967864990234375</LatitudeDegrees>
              <LongitudeDegrees>-4.37969771213829517364501953125</LongitudeDegrees>
            </Position>
            <AltitudeMeters>828.20001220703125</AltitudeMeters>
            <DistanceMeters>NAN</DistanceMeters>
          </Trackpoint>
          <Trackpoint>
            <Time>2020-12-05T14:22:01.000Z</Time>
            <Position>
              <LatitudeDegrees>36.8058060295879840850830078125</LatitudeDegrees>
              <LongitudeDegrees>-4.37970676459372043609619140625</LongitudeDegrees>
            </Position>
            <AltitudeMeters>828.20001220703125</AltitudeMeters>
            <DistanceMeters>NAN</DistanceMeters>
          </Trackpoint>
          <Trackpoint>
            <Time>2020-12-05T14:22:02.000Z</Time>
            <Position>
              <LatitudeDegrees>36.80579387582838535308837890625</LatitudeDegrees>
              <LongitudeDegrees>-4.37971615232527256011962890625</LongitudeDegrees>
            </Position>
            <AltitudeMeters>828.20001220703125</AltitudeMeters>
            <DistanceMeters>NAN</DistanceMeters>
          </Trackpoint>
          <Trackpoint>
            <Time>2020-12-05T14:22:03.000Z</Time>
            <Position>
              <LatitudeDegrees>36.80578281171619892120361328125</LatitudeDegrees>
              <LongitudeDegrees>-4.37972587533295154571533203125</LongitudeDegrees>
            </Position>
            <AltitudeMeters>828.20001220703125</AltitudeMeters>
            <DistanceMeters>NAN</DistanceMeters>
          </Trackpoint>
          <Trackpoint>
            <Time>2020-12-05T14:22:04.000Z</Time>
            <Position>
              <LatitudeDegrees>36.80577258579432964324951171875</LatitudeDegrees>
              <LongitudeDegrees>-4.37972989864647388458251953125</LongitudeDegrees>
            </Position>
            <AltitudeMeters>828.20001220703125</AltitudeMeters>
            <DistanceMeters>NAN</DistanceMeters>
          </Trackpoint>
          <Trackpoint>
            <Time>2020-12-05T14:22:05.000Z</Time>
            <Position>
              <LatitudeDegrees>36.8057616055011749267578125</LatitudeDegrees>
              <LongitudeDegrees>-4.3797333352267742156982421875</LongitudeDegrees>
            </Position>
            <AltitudeMeters>828.4000244140625</AltitudeMeters>
            <DistanceMeters>NAN</DistanceMeters>
          </Trackpoint>
          <Trackpoint>
            <Time>2020-12-05T14:22:06.000Z</Time>
            <Position>
              <LatitudeDegrees>36.805747188627719879150390625</LatitudeDegrees>
              <LongitudeDegrees>-4.37973626889288425445556640625</LongitudeDegrees>
            </Position>
            <AltitudeMeters>828.4000244140625</AltitudeMeters>
            <DistanceMeters>NAN</DistanceMeters>
          </Trackpoint>
          <Trackpoint>
            <Time>2020-12-05T14:22:07.000Z</Time>
            <Position>
              <LatitudeDegrees>36.8057321012020111083984375</LatitudeDegrees>
              <LongitudeDegrees>-4.379735179245471954345703125</LongitudeDegrees>
            </Position>
            <AltitudeMeters>828.5999755859375</AltitudeMeters>
            <DistanceMeters>NAN</DistanceMeters>
          </Trackpoint>
          <Trackpoint>
            <Time>2020-12-05T14:22:08.000Z</Time>
            <Position>
              <LatitudeDegrees>36.80571810342371463775634765625</LatitudeDegrees>
              <LongitudeDegrees>-4.37973551452159881591796875</LongitudeDegrees>
            </Position>
            <AltitudeMeters>828.5999755859375</AltitudeMeters>
            <DistanceMeters>NAN</DistanceMeters>
          </Trackpoint>
          <Trackpoint>
            <Time>2020-12-05T14:22:09.000Z</Time>
            <Position>
              <LatitudeDegrees>36.8057061173021793365478515625</LatitudeDegrees>
              <LongitudeDegrees>-4.3797375261783599853515625</LongitudeDegrees>
            </Position>
            <AltitudeMeters>828.5999755859375</AltitudeMeters>
            <DistanceMeters>NAN</DistanceMeters>
          </Trackpoint>
          <Trackpoint>
            <Time>2020-12-05T14:22:10.000Z</Time>
            <Position>
              <LatitudeDegrees>36.8056945502758026123046875</LatitudeDegrees>
              <LongitudeDegrees>-4.3797403760254383087158203125</LongitudeDegrees>
            </Position>
            <AltitudeMeters>828.5999755859375</AltitudeMeters>
            <DistanceMeters>NAN</DistanceMeters>
          </Trackpoint>
          <Trackpoint>
            <Time>2020-12-05T14:22:11.000Z</Time>
            <Position>
              <LatitudeDegrees>36.8056843243539333343505859375</LatitudeDegrees>
              <LongitudeDegrees>-4.37974263913929462432861328125</LongitudeDegrees>
            </Position>
            <AltitudeMeters>828.5999755859375</AltitudeMeters>
            <DistanceMeters>NAN</DistanceMeters>
          </Trackpoint>
          <Trackpoint>
            <Time>2020-12-05T14:22:12.000Z</Time>
            <Position>
              <LatitudeDegrees>36.8056739307940006256103515625</LatitudeDegrees>
              <LongitudeDegrees>-4.37974314205348491668701171875</LongitudeDegrees>
            </Position>
            <AltitudeMeters>828.5999755859375</AltitudeMeters>
            <DistanceMeters>NAN</DistanceMeters>
          </Trackpoint>
          <Trackpoint>
            <Time>2020-12-05T14:22:13.000Z</Time>
            <Position>
              <LatitudeDegrees>36.805662699043750762939453125</LatitudeDegrees>
              <LongitudeDegrees>-4.3797484226524829864501953125</LongitudeDegrees>
            </Position>
            <AltitudeMeters>828.5999755859375</AltitudeMeters>
            <DistanceMeters>NAN</DistanceMeters>
          </Trackpoint>
          <Trackpoint>
            <Time>2020-12-05T14:22:14.000Z</Time>
            <Position>
              <LatitudeDegrees>36.8056521378457546234130859375</LatitudeDegrees>
              <LongitudeDegrees>-4.3797531165182590484619140625</LongitudeDegrees>
            </Position>
            <AltitudeMeters>828.5999755859375</AltitudeMeters>
            <DistanceMeters>NAN</DistanceMeters>
          </Trackpoint>
          <Trackpoint>
            <Time>2020-12-05T14:22:15.000Z</Time>
            <Position>
              <LatitudeDegrees>36.80564350448548793792724609375</LatitudeDegrees>
              <LongitudeDegrees>-4.3797541223466396331787109375</LongitudeDegrees>
            </Position>
            <AltitudeMeters>828.79998779296875</AltitudeMeters>
            <DistanceMeters>NAN</DistanceMeters>
          </Trackpoint>
          <Trackpoint>
            <Time>2020-12-05T14:22:16.000Z</Time>
            <Position>
              <LatitudeDegrees>36.80563679896295070648193359375</LatitudeDegrees>
              <LongitudeDegrees>-4.3797534517943859100341796875</LongitudeDegrees>
            </Position>
            <AltitudeMeters>829</AltitudeMeters>
            <DistanceMeters>NAN</DistanceMeters>
          </Trackpoint>
          <Trackpoint>
            <Time>2020-12-05T14:22:17.000Z</Time>
            <Position>
              <LatitudeDegrees>36.80562657304108142852783203125</LatitudeDegrees>
              <LongitudeDegrees>-4.37976074405014514923095703125</LongitudeDegrees>
            </Position>
            <AltitudeMeters>829</AltitudeMeters>
            <DistanceMeters>NAN</DistanceMeters>
          </Trackpoint>
          <Trackpoint>
            <Time>2020-12-05T14:22:18.000Z</Time>
            <Position>
              <LatitudeDegrees>36.80561685003340244293212890625</LatitudeDegrees>
              <LongitudeDegrees>-4.37976635992527008056640625</LongitudeDegrees>
            </Position>
            <AltitudeMeters>829.4000244140625</AltitudeMeters>
            <DistanceMeters>NAN</DistanceMeters>
          </Trackpoint>
          <Trackpoint>
            <Time>2020-12-05T14:22:19.000Z</Time>
            <Position>
              <LatitudeDegrees>36.805609725415706634521484375</LatitudeDegrees>
              <LongitudeDegrees>-4.37976904213428497314453125</LongitudeDegrees>
            </Position>
            <AltitudeMeters>829.5999755859375</AltitudeMeters>
            <DistanceMeters>NAN</DistanceMeters>
          </Trackpoint>
          <Trackpoint>
            <Time>2020-12-05T14:22:20.000Z</Time>
            <Position>
              <LatitudeDegrees>36.80559723637998104095458984375</LatitudeDegrees>
              <LongitudeDegrees>-4.37976644374430179595947265625</LongitudeDegrees>
            </Position>
            <AltitudeMeters>829.79998779296875</AltitudeMeters>
            <DistanceMeters>NAN</DistanceMeters>
          </Trackpoint>
          <Trackpoint>
            <Time>2020-12-05T14:22:21.000Z</Time>
            <Position>
              <LatitudeDegrees>36.8055830709636211395263671875</LatitudeDegrees>
              <LongitudeDegrees>-4.37977113761007785797119140625</LongitudeDegrees>
            </Position>
            <AltitudeMeters>830.20001220703125</AltitudeMeters>
            <DistanceMeters>NAN</DistanceMeters>
          </Trackpoint>
          <Trackpoint>
            <Time>2020-12-05T14:22:22.000Z</Time>
            <Position>
              <LatitudeDegrees>36.8055720068514347076416015625</LatitudeDegrees>
              <LongitudeDegrees>-4.37977231107652187347412109375</LongitudeDegrees>
            </Position>
            <AltitudeMeters>830.4000244140625</AltitudeMeters>
            <DistanceMeters>NAN</DistanceMeters>
          </Trackpoint>
          <Trackpoint>
            <Time>2020-12-05T14:22:23.000Z</Time>
            <Position>
              <LatitudeDegrees>36.80556069128215312957763671875</LatitudeDegrees>
              <LongitudeDegrees>-4.37977180816233158111572265625</LongitudeDegrees>
            </Position>
            <AltitudeMeters>830.79998779296875</AltitudeMeters>
            <DistanceMeters>NAN</DistanceMeters>
          </Trackpoint>
          <Trackpoint>
            <Time>2020-12-05T14:22:24.000Z</Time>
            <Position>
              <LatitudeDegrees>36.80555013008415699005126953125</LatitudeDegrees>
              <LongitudeDegrees>-4.3797749094665050506591796875</LongitudeDegrees>
            </Position>
            <AltitudeMeters>831</AltitudeMeters>
            <DistanceMeters>NAN</DistanceMeters>
          </Trackpoint>
          <Trackpoint>
            <Time>2020-12-05T14:22:25.000Z</Time>
            <Position>
              <LatitudeDegrees>36.80553856305778026580810546875</LatitudeDegrees>
              <LongitudeDegrees>-4.37978153117001056671142578125</LongitudeDegrees>
            </Position>
            <AltitudeMeters>831.20001220703125</AltitudeMeters>
            <DistanceMeters>NAN</DistanceMeters>
          </Trackpoint>
          <Trackpoint>
            <Time>2020-12-05T14:22:26.000Z</Time>
            <Position>
              <LatitudeDegrees>36.8055304326117038726806640625</LatitudeDegrees>
              <LongitudeDegrees>-4.3797804415225982666015625</LongitudeDegrees>
            </Position>
            <AltitudeMeters>831.20001220703125</AltitudeMeters>
            <DistanceMeters>NAN</DistanceMeters>
          </Trackpoint>
          <Trackpoint>
            <Time>2020-12-05T14:22:27.000Z</Time>
            <Position>
              <LatitudeDegrees>36.8055304326117038726806640625</LatitudeDegrees>
              <LongitudeDegrees>-4.37977683730423450469970703125</LongitudeDegrees>
            </Position>
            <AltitudeMeters>831.4000244140625</AltitudeMeters>
            <DistanceMeters>NAN</DistanceMeters>
          </Trackpoint>
          <Trackpoint>
            <Time>2020-12-05T14:22:28.000Z</Time>
            <Position>
              <LatitudeDegrees>36.805525235831737518310546875</LatitudeDegrees>
              <LongitudeDegrees>-4.37977583147585391998291015625</LongitudeDegrees>
            </Position>
            <AltitudeMeters>831.4000244140625</AltitudeMeters>
            <DistanceMeters>NAN</DistanceMeters>
          </Trackpoint>
          <Trackpoint>
            <Time>2020-12-05T14:22:29.000Z</Time>
            <Position>
              <LatitudeDegrees>36.80551727302372455596923828125</LatitudeDegrees>
              <LongitudeDegrees>-4.379783459007740020751953125</LongitudeDegrees>
            </Position>
            <AltitudeMeters>831.5999755859375</AltitudeMeters>
            <DistanceMeters>NAN</DistanceMeters>
          </Trackpoint>
          <Trackpoint>
            <Time>2020-12-05T14:22:30.000Z</Time>
            <Position>
              <LatitudeDegrees>36.80550922639667987823486328125</LatitudeDegrees>
              <LongitudeDegrees>-4.37978723086416721343994140625</LongitudeDegrees>
            </Position>
            <AltitudeMeters>831.79998779296875</AltitudeMeters>
            <DistanceMeters>NAN</DistanceMeters>
          </Trackpoint>
          <Trackpoint>
            <Time>2020-12-05T14:22:31.000Z</Time>
            <Position>
              <LatitudeDegrees>36.8055036105215549468994140625</LatitudeDegrees>
              <LongitudeDegrees>-4.37978454865515232086181640625</LongitudeDegrees>
            </Position>
            <AltitudeMeters>832.20001220703125</AltitudeMeters>
            <DistanceMeters>NAN</DistanceMeters>
          </Trackpoint>
          <Trackpoint>
            <Time>2020-12-05T14:22:32.000Z</Time>
            <Position>
              <LatitudeDegrees>36.8054952286183834075927734375</LatitudeDegrees>
              <LongitudeDegrees>-4.379785470664501190185546875</LongitudeDegrees>
            </Position>
            <AltitudeMeters>832.5999755859375</AltitudeMeters>
            <DistanceMeters>NAN</DistanceMeters>
          </Trackpoint>
          <Trackpoint>
            <Time>2020-12-05T14:22:33.000Z</Time>
            <Position>
              <LatitudeDegrees>36.8054838292300701141357421875</LatitudeDegrees>
              <LongitudeDegrees>-4.37979293055832386016845703125</LongitudeDegrees>
            </Position>
            <AltitudeMeters>832.79998779296875</AltitudeMeters>
            <DistanceMeters>NAN</DistanceMeters>
          </Trackpoint>
          <Trackpoint>
            <Time>2020-12-05T14:22:34.000Z</Time>
            <Position>
              <LatitudeDegrees>36.80547284893691539764404296875</LatitudeDegrees>
              <LongitudeDegrees>-4.37980047427117824554443359375</LongitudeDegrees>
            </Position>
            <AltitudeMeters>833.20001220703125</AltitudeMeters>
            <DistanceMeters>NAN</DistanceMeters>
          </Trackpoint>
          <Trackpoint>
            <Time>2020-12-05T14:22:35.000Z</Time>
            <Position>
              <LatitudeDegrees>36.8054613657295703887939453125</LatitudeDegrees>
              <LongitudeDegrees>-4.37980801798403263092041015625</LongitudeDegrees>
            </Position>
            <AltitudeMeters>833.5999755859375</AltitudeMeters>
            <DistanceMeters>NAN</DistanceMeters>
          </Trackpoint>
          <Trackpoint>
            <Time>2020-12-05T14:22:36.000Z</Time>
            <Position>
              <LatitudeDegrees>36.80545105598866939544677734375</LatitudeDegrees>
              <LongitudeDegrees>-4.37981489114463329315185546875</LongitudeDegrees>
            </Position>
            <AltitudeMeters>833.79998779296875</AltitudeMeters>
            <DistanceMeters>NAN</DistanceMeters>
          </Trackpoint>
          <Trackpoint>
            <Time>2020-12-05T14:22:37.000Z</Time>
            <Position>
              <LatitudeDegrees>36.8054442666471004486083984375</LatitudeDegrees>
              <LongitudeDegrees>-4.3798206746578216552734375</LongitudeDegrees>
            </Position>
            <AltitudeMeters>833.79998779296875</AltitudeMeters>
            <DistanceMeters>NAN</DistanceMeters>
          </Trackpoint>
          <Trackpoint>
            <Time>2020-12-05T14:22:38.000Z</Time>
            <Position>
              <LatitudeDegrees>36.80543663911521434783935546875</LatitudeDegrees>
              <LongitudeDegrees>-4.3798258714377880096435546875</LongitudeDegrees>
            </Position>
            <AltitudeMeters>834</AltitudeMeters>
            <DistanceMeters>NAN</DistanceMeters>
          </Trackpoint>
          <Trackpoint>
            <Time>2020-12-05T14:22:39.000Z</Time>
            <Position>
              <LatitudeDegrees>36.8054228089749813079833984375</LatitudeDegrees>
              <LongitudeDegrees>-4.3798319064080715179443359375</LongitudeDegrees>
            </Position>
            <AltitudeMeters>834</AltitudeMeters>
            <DistanceMeters>NAN</DistanceMeters>
          </Trackpoint>
          <Trackpoint>
            <Time>2020-12-05T14:22:40.000Z</Time>
            <Position>
              <LatitudeDegrees>36.80540730245411396026611328125</LatitudeDegrees>
              <LongitudeDegrees>-4.3798372708261013031005859375</LongitudeDegrees>
            </Position>
            <AltitudeMeters>834</AltitudeMeters>
            <DistanceMeters>NAN</DistanceMeters>
          </Trackpoint>
          <Trackpoint>
            <Time>2020-12-05T14:22:41.000Z</Time>
            <Position>
              <LatitudeDegrees>36.80538919754326343536376953125</LatitudeDegrees>
              <LongitudeDegrees>-4.3798426352441310882568359375</LongitudeDegrees>
            </Position>
            <AltitudeMeters>833.5999755859375</AltitudeMeters>
            <DistanceMeters>NAN</DistanceMeters>
          </Trackpoint>
          <Trackpoint>
            <Time>2020-12-05T14:22:42.000Z</Time>
            <Position>
              <LatitudeDegrees>36.8053701706230640411376953125</LatitudeDegrees>
              <LongitudeDegrees>-4.379853866994380950927734375</LongitudeDegrees>
            </Position>
            <AltitudeMeters>833.4000244140625</AltitudeMeters>
            <DistanceMeters>NAN</DistanceMeters>
          </Trackpoint>
          <Trackpoint>
            <Time>2020-12-05T14:22:43.000Z</Time>
            <Position>
              <LatitudeDegrees>36.80535801686346530914306640625</LatitudeDegrees>
              <LongitudeDegrees>-4.3798630870878696441650390625</LongitudeDegrees>
            </Position>
            <AltitudeMeters>833</AltitudeMeters>
            <DistanceMeters>NAN</DistanceMeters>
          </Trackpoint>
          <Trackpoint>
            <Time>2020-12-05T14:22:44.000Z</Time>
            <Position>
              <LatitudeDegrees>36.8053477071225643157958984375</LatitudeDegrees>
              <LongitudeDegrees>-4.37986887060105800628662109375</LongitudeDegrees>
            </Position>
            <AltitudeMeters>832.79998779296875</AltitudeMeters>
            <DistanceMeters>NAN</DistanceMeters>
          </Trackpoint>
          <Trackpoint>
            <Time>2020-12-05T14:22:45.000Z</Time>
            <Position>
              <LatitudeDegrees>36.805339492857456207275390625</LatitudeDegrees>
              <LongitudeDegrees>-4.379867948591709136962890625</LongitudeDegrees>
            </Position>
            <AltitudeMeters>832.4000244140625</AltitudeMeters>
            <DistanceMeters>NAN</DistanceMeters>
          </Trackpoint>
          <Trackpoint>
            <Time>2020-12-05T14:22:46.000Z</Time>
            <Position>
              <LatitudeDegrees>36.80533169768750667572021484375</LatitudeDegrees>
              <LongitudeDegrees>-4.37986828386783599853515625</LongitudeDegrees>
            </Position>
            <AltitudeMeters>832.20001220703125</AltitudeMeters>
            <DistanceMeters>NAN</DistanceMeters>
          </Trackpoint>
          <Trackpoint>
            <Time>2020-12-05T14:22:47.000Z</Time>
            <Position>
              <LatitudeDegrees>36.8053188733756542205810546875</LatitudeDegrees>
              <LongitudeDegrees>-4.3798677809536457061767578125</LongitudeDegrees>
            </Position>
            <AltitudeMeters>832</AltitudeMeters>
            <DistanceMeters>NAN</DistanceMeters>
          </Trackpoint>
          <Trackpoint>
            <Time>2020-12-05T14:22:48.000Z</Time>
            <Position>
              <LatitudeDegrees>36.80531275458633899688720703125</LatitudeDegrees>
              <LongitudeDegrees>-4.379878677427768707275390625</LongitudeDegrees>
            </Position>
            <AltitudeMeters>831.79998779296875</AltitudeMeters>
            <DistanceMeters>NAN</DistanceMeters>
          </Trackpoint>
          <Trackpoint>
            <Time>2020-12-05T14:22:49.000Z</Time>
            <Position>
              <LatitudeDegrees>36.8053078092634677886962890625</LatitudeDegrees>
              <LongitudeDegrees>-4.379888065159320831298828125</LongitudeDegrees>
            </Position>
            <AltitudeMeters>831.5999755859375</AltitudeMeters>
            <DistanceMeters>NAN</DistanceMeters>
          </Trackpoint>
          <Trackpoint>
            <Time>2020-12-05T14:22:50.000Z</Time>
            <Position>
              <LatitudeDegrees>36.80529892444610595703125</LatitudeDegrees>
              <LongitudeDegrees>-4.37989032827317714691162109375</LongitudeDegrees>
            </Position>
            <AltitudeMeters>831.4000244140625</AltitudeMeters>
            <DistanceMeters>NAN</DistanceMeters>
          </Trackpoint>
          <Trackpoint>
            <Time>2020-12-05T14:22:51.000Z</Time>
            <Position>
              <LatitudeDegrees>36.80528459139168262481689453125</LatitudeDegrees>
              <LongitudeDegrees>-4.3798984587192535400390625</LongitudeDegrees>
            </Position>
            <AltitudeMeters>831.20001220703125</AltitudeMeters>
            <DistanceMeters>NAN</DistanceMeters>
          </Trackpoint>
          <Trackpoint>
            <Time>2020-12-05T14:22:52.000Z</Time>
            <Position>
              <LatitudeDegrees>36.8052675761282444000244140625</LatitudeDegrees>
              <LongitudeDegrees>-4.37991128303110599517822265625</LongitudeDegrees>
            </Position>
            <AltitudeMeters>831</AltitudeMeters>
            <DistanceMeters>NAN</DistanceMeters>
          </Trackpoint>
          <Trackpoint>
            <Time>2020-12-05T14:22:53.000Z</Time>
            <Position>
              <LatitudeDegrees>36.80525156669318675994873046875</LatitudeDegrees>
              <LongitudeDegrees>-4.37991765327751636505126953125</LongitudeDegrees>
            </Position>
            <AltitudeMeters>831</AltitudeMeters>
            <DistanceMeters>NAN</DistanceMeters>
          </Trackpoint>
          <Trackpoint>
            <Time>2020-12-05T14:22:54.000Z</Time>
            <Position>
              <LatitudeDegrees>36.80523731745779514312744140625</LatitudeDegrees>
              <LongitudeDegrees>-4.3799177370965480804443359375</LongitudeDegrees>
            </Position>
            <AltitudeMeters>830.79998779296875</AltitudeMeters>
            <DistanceMeters>NAN</DistanceMeters>
          </Trackpoint>
          <Trackpoint>
            <Time>2020-12-05T14:22:55.000Z</Time>
            <Position>
              <LatitudeDegrees>36.80522449314594268798828125</LatitudeDegrees>
              <LongitudeDegrees>-4.37991547398269176483154296875</LongitudeDegrees>
            </Position>
            <AltitudeMeters>830.5999755859375</AltitudeMeters>
            <DistanceMeters>NAN</DistanceMeters>
          </Trackpoint>
          <Trackpoint>
            <Time>2020-12-05T14:22:56.000Z</Time>
            <Position>
              <LatitudeDegrees>36.8052078969776630401611328125</LatitudeDegrees>
              <LongitudeDegrees>-4.37992058694362640380859375</LongitudeDegrees>
            </Position>
            <AltitudeMeters>830.5999755859375</AltitudeMeters>
            <DistanceMeters>NAN</DistanceMeters>
          </Trackpoint>
          <Trackpoint>
            <Time>2020-12-05T14:22:57.000Z</Time>
            <Position>
              <LatitudeDegrees>36.8051911331713199615478515625</LatitudeDegrees>
              <LongitudeDegrees>-4.37992997467517852783203125</LongitudeDegrees>
            </Position>
            <AltitudeMeters>830.4000244140625</AltitudeMeters>
            <DistanceMeters>NAN</DistanceMeters>
          </Trackpoint>
          <Trackpoint>
            <Time>2020-12-05T14:22:58.000Z</Time>
            <Position>
              <LatitudeDegrees>36.805176548659801483154296875</LatitudeDegrees>
              <LongitudeDegrees>-4.37993726693093776702880859375</LongitudeDegrees>
            </Position>
            <AltitudeMeters>830.4000244140625</AltitudeMeters>
            <DistanceMeters>NAN</DistanceMeters>
          </Trackpoint>
          <Trackpoint>
            <Time>2020-12-05T14:22:59.000Z</Time>
            <Position>
              <LatitudeDegrees>36.80516548454761505126953125</LatitudeDegrees>
              <LongitudeDegrees>-4.3799365125596523284912109375</LongitudeDegrees>
            </Position>
            <AltitudeMeters>830.20001220703125</AltitudeMeters>
            <DistanceMeters>NAN</DistanceMeters>
          </Trackpoint>
          <Trackpoint>
            <Time>2020-12-05T14:23:00.000Z</Time>
            <Position>
              <LatitudeDegrees>36.805154420435428619384765625</LatitudeDegrees>
              <LongitudeDegrees>-4.37993123196065425872802734375</LongitudeDegrees>
            </Position>
            <AltitudeMeters>829.79998779296875</AltitudeMeters>
            <DistanceMeters>NAN</DistanceMeters>
          </Trackpoint>
          <Trackpoint>
            <Time>2020-12-05T14:23:01.000Z</Time>
            <Position>
              <LatitudeDegrees>36.80514712817966938018798828125</LatitudeDegrees>
              <LongitudeDegrees>-4.3799277953803539276123046875</LongitudeDegrees>
            </Position>
            <AltitudeMeters>829.4000244140625</AltitudeMeters>
            <DistanceMeters>NAN</DistanceMeters>
          </Trackpoint>
          <Trackpoint>
            <Time>2020-12-05T14:23:02.000Z</Time>
            <Position>
              <LatitudeDegrees>36.80514025501906871795654296875</LatitudeDegrees>
              <LongitudeDegrees>-4.37992335297167301177978515625</LongitudeDegrees>
            </Position>
            <AltitudeMeters>829.20001220703125</AltitudeMeters>
            <DistanceMeters>NAN</DistanceMeters>
          </Trackpoint>
          <Trackpoint>
            <Time>2020-12-05T14:23:03.000Z</Time>
            <Position>
              <LatitudeDegrees>36.8051354773342609405517578125</LatitudeDegrees>
              <LongitudeDegrees>-4.37991530634462833404541015625</LongitudeDegrees>
            </Position>
            <AltitudeMeters>828.79998779296875</AltitudeMeters>
            <DistanceMeters>NAN</DistanceMeters>
          </Trackpoint>
          <Trackpoint>
            <Time>2020-12-05T14:23:04.000Z</Time>
            <Position>
              <LatitudeDegrees>36.805132962763309478759765625</LatitudeDegrees>
              <LongitudeDegrees>-4.37989778816699981689453125</LongitudeDegrees>
            </Position>
            <AltitudeMeters>828.5999755859375</AltitudeMeters>
            <DistanceMeters>NAN</DistanceMeters>
          </Trackpoint>
          <Trackpoint>
            <Time>2020-12-05T14:23:05.000Z</Time>
            <Position>
              <LatitudeDegrees>36.80512516759335994720458984375</LatitudeDegrees>
              <LongitudeDegrees>-4.3798878975212574005126953125</LongitudeDegrees>
            </Position>
            <AltitudeMeters>828.5999755859375</AltitudeMeters>
            <DistanceMeters>NAN</DistanceMeters>
          </Trackpoint>
          <Trackpoint>
            <Time>2020-12-05T14:23:06.000Z</Time>
            <Position>
              <LatitudeDegrees>36.8051205575466156005859375</LatitudeDegrees>
              <LongitudeDegrees>-4.379876665771007537841796875</LongitudeDegrees>
            </Position>
            <AltitudeMeters>828.4000244140625</AltitudeMeters>
            <DistanceMeters>NAN</DistanceMeters>
          </Trackpoint>
          <Trackpoint>
            <Time>2020-12-05T14:23:07.000Z</Time>
            <Position>
              <LatitudeDegrees>36.80511209182441234588623046875</LatitudeDegrees>
              <LongitudeDegrees>-4.379871301352977752685546875</LongitudeDegrees>
            </Position>
            <AltitudeMeters>828.20001220703125</AltitudeMeters>
            <DistanceMeters>NAN</DistanceMeters>
          </Trackpoint>
          <Trackpoint>
            <Time>2020-12-05T14:23:08.000Z</Time>
            <Position>
              <LatitudeDegrees>36.80510287173092365264892578125</LatitudeDegrees>
              <LongitudeDegrees>-4.3798657692968845367431640625</LongitudeDegrees>
            </Position>
            <AltitudeMeters>828</AltitudeMeters>
            <DistanceMeters>NAN</DistanceMeters>
          </Trackpoint>
          <Trackpoint>
            <Time>2020-12-05T14:23:09.000Z</Time>
            <Position>
              <LatitudeDegrees>36.8050905503332614898681640625</LatitudeDegrees>
              <LongitudeDegrees>-4.379856549203395843505859375</LongitudeDegrees>
            </Position>
            <AltitudeMeters>828</AltitudeMeters>
            <DistanceMeters>NAN</DistanceMeters>
          </Trackpoint>
          <Trackpoint>
            <Time>2020-12-05T14:23:10.000Z</Time>
            <Position>
              <LatitudeDegrees>36.80507705546915531158447265625</LatitudeDegrees>
              <LongitudeDegrees>-4.37984573654830455780029296875</LongitudeDegrees>
            </Position>
            <AltitudeMeters>827.79998779296875</AltitudeMeters>
            <DistanceMeters>NAN</DistanceMeters>
          </Trackpoint>
          <Trackpoint>
            <Time>2020-12-05T14:23:11.000Z</Time>
            <Position>
              <LatitudeDegrees>36.8050627224147319793701171875</LatitudeDegrees>
              <LongitudeDegrees>-4.3798379413783550262451171875</LongitudeDegrees>
            </Position>
            <AltitudeMeters>827.79998779296875</AltitudeMeters>
            <DistanceMeters>NAN</DistanceMeters>
          </Trackpoint>
          <Trackpoint>
            <Time>2020-12-05T14:23:12.000Z</Time>
            <Position>
              <LatitudeDegrees>36.80504478514194488525390625</LatitudeDegrees>
              <LongitudeDegrees>-4.3798372708261013031005859375</LongitudeDegrees>
            </Position>
            <AltitudeMeters>827.5999755859375</AltitudeMeters>
            <DistanceMeters>NAN</DistanceMeters>
          </Trackpoint>
          <Trackpoint>
            <Time>2020-12-05T14:23:13.000Z</Time>
            <Position>
              <LatitudeDegrees>36.80502709932625293731689453125</LatitudeDegrees>
              <LongitudeDegrees>-4.37983618117868900299072265625</LongitudeDegrees>
            </Position>
            <AltitudeMeters>827.4000244140625</AltitudeMeters>
            <DistanceMeters>NAN</DistanceMeters>
          </Trackpoint>
          <Trackpoint>
            <Time>2020-12-05T14:23:14.000Z</Time>
            <Position>
              <LatitudeDegrees>36.80501469410955905914306640625</LatitudeDegrees>
              <LongitudeDegrees>-4.379830397665500640869140625</LongitudeDegrees>
            </Position>
            <AltitudeMeters>827.4000244140625</AltitudeMeters>
            <DistanceMeters>NAN</DistanceMeters>
          </Trackpoint>
          <Trackpoint>
            <Time>2020-12-05T14:23:15.000Z</Time>
            <Position>
              <LatitudeDegrees>36.80500564165413379669189453125</LatitudeDegrees>
              <LongitudeDegrees>-4.37982209958136081695556640625</LongitudeDegrees>
            </Position>
            <AltitudeMeters>827</AltitudeMeters>
            <DistanceMeters>NAN</DistanceMeters>
          </Trackpoint>
          <Trackpoint>
            <Time>2020-12-05T14:23:16.000Z</Time>
            <Position>
              <LatitudeDegrees>36.80499189533293247222900390625</LatitudeDegrees>
              <LongitudeDegrees>-4.3798144720494747161865234375</LongitudeDegrees>
            </Position>
            <AltitudeMeters>826.79998779296875</AltitudeMeters>
            <DistanceMeters>NAN</DistanceMeters>
          </Trackpoint>
          <Trackpoint>
            <Time>2020-12-05T14:23:17.000Z</Time>
            <Position>
              <LatitudeDegrees>36.80497764609754085540771484375</LatitudeDegrees>
              <LongitudeDegrees>-4.3798131309449672698974609375</LongitudeDegrees>
            </Position>
            <AltitudeMeters>826.4000244140625</AltitudeMeters>
            <DistanceMeters>NAN</DistanceMeters>
          </Trackpoint>
          <Trackpoint>
            <Time>2020-12-05T14:23:18.000Z</Time>
            <Position>
              <LatitudeDegrees>36.80496029555797576904296875</LatitudeDegrees>
              <LongitudeDegrees>-4.3798099458217620849609375</LongitudeDegrees>
            </Position>
            <AltitudeMeters>826.20001220703125</AltitudeMeters>
            <DistanceMeters>NAN</DistanceMeters>
          </Trackpoint>
          <Trackpoint>
            <Time>2020-12-05T14:23:19.000Z</Time>
            <Position>
              <LatitudeDegrees>36.80494747124612331390380859375</LatitudeDegrees>
              <LongitudeDegrees>-4.37980567105114459991455078125</LongitudeDegrees>
            </Position>
            <AltitudeMeters>825.79998779296875</AltitudeMeters>
            <DistanceMeters>NAN</DistanceMeters>
          </Trackpoint>
          <Trackpoint>
            <Time>2020-12-05T14:23:20.000Z</Time>
            <Position>
              <LatitudeDegrees>36.80493674241006374359130859375</LatitudeDegrees>
              <LongitudeDegrees>-4.37980215065181255340576171875</LongitudeDegrees>
            </Position>
            <AltitudeMeters>825.5999755859375</AltitudeMeters>
            <DistanceMeters>NAN</DistanceMeters>
          </Trackpoint>
          <Trackpoint>
            <Time>2020-12-05T14:23:21.000Z</Time>
            <Position>
              <LatitudeDegrees>36.8049272708594799041748046875</LatitudeDegrees>
              <LongitudeDegrees>-4.37979879789054393768310546875</LongitudeDegrees>
            </Position>
            <AltitudeMeters>825.4000244140625</AltitudeMeters>
            <DistanceMeters>NAN</DistanceMeters>
          </Trackpoint>
          <Trackpoint>
            <Time>2020-12-05T14:23:22.000Z</Time>
            <Position>
              <LatitudeDegrees>36.80492081679403781890869140625</LatitudeDegrees>
              <LongitudeDegrees>-4.379798211157321929931640625</LongitudeDegrees>
            </Position>
            <AltitudeMeters>825.4000244140625</AltitudeMeters>
            <DistanceMeters>NAN</DistanceMeters>
          </Trackpoint>
          <Trackpoint>
            <Time>2020-12-05T14:23:23.000Z</Time>
            <Position>
              <LatitudeDegrees>36.8049195595085620880126953125</LatitudeDegrees>
              <LongitudeDegrees>-4.37979863025248050689697265625</LongitudeDegrees>
            </Position>
            <AltitudeMeters>825.4000244140625</AltitudeMeters>
            <DistanceMeters>NAN</DistanceMeters>
          </Trackpoint>
          <Trackpoint>
            <Time>2020-12-05T14:23:24.000Z</Time>
            <Position>
              <LatitudeDegrees>36.80491277016699314117431640625</LatitudeDegrees>
              <LongitudeDegrees>-4.37979460693895816802978515625</LongitudeDegrees>
            </Position>
            <AltitudeMeters>825.20001220703125</AltitudeMeters>
            <DistanceMeters>NAN</DistanceMeters>
          </Trackpoint>
          <Trackpoint>
            <Time>2020-12-05T14:23:25.000Z</Time>
            <Position>
              <LatitudeDegrees>36.804907321929931640625</LatitudeDegrees>
              <LongitudeDegrees>-4.37979008071124553680419921875</LongitudeDegrees>
            </Position>
            <AltitudeMeters>825.20001220703125</AltitudeMeters>
            <DistanceMeters>NAN</DistanceMeters>
          </Trackpoint>
          <Trackpoint>
            <Time>2020-12-05T14:23:26.000Z</Time>
            <Position>
              <LatitudeDegrees>36.8048994429409503936767578125</LatitudeDegrees>
              <LongitudeDegrees>-4.37978320755064487457275390625</LongitudeDegrees>
            </Position>
            <AltitudeMeters>825.20001220703125</AltitudeMeters>
            <DistanceMeters>NAN</DistanceMeters>
          </Trackpoint>
          <Trackpoint>
            <Time>2020-12-05T14:23:27.000Z</Time>
            <Position>
              <LatitudeDegrees>36.8048910610377788543701171875</LatitudeDegrees>
              <LongitudeDegrees>-4.37977231107652187347412109375</LongitudeDegrees>
            </Position>
            <AltitudeMeters>825</AltitudeMeters>
            <DistanceMeters>NAN</DistanceMeters>
          </Trackpoint>
          <Trackpoint>
            <Time>2020-12-05T14:23:28.000Z</Time>
            <Position>
              <LatitudeDegrees>36.80488024838268756866455078125</LatitudeDegrees>
              <LongitudeDegrees>-4.37976074405014514923095703125</LongitudeDegrees>
            </Position>
            <AltitudeMeters>825</AltitudeMeters>
            <DistanceMeters>NAN</DistanceMeters>
          </Trackpoint>
          <Trackpoint>
            <Time>2020-12-05T14:23:29.000Z</Time>
            <Position>
              <LatitudeDegrees>36.80486784316599369049072265625</LatitudeDegrees>
              <LongitudeDegrees>-4.379748590290546417236328125</LongitudeDegrees>
            </Position>
            <AltitudeMeters>824.79998779296875</AltitudeMeters>
            <DistanceMeters>NAN</DistanceMeters>
          </Trackpoint>
          <Trackpoint>
            <Time>2020-12-05T14:23:30.000Z</Time>
            <Position>
              <LatitudeDegrees>36.8048577010631561279296875</LatitudeDegrees>
              <LongitudeDegrees>-4.3797348439693450927734375</LongitudeDegrees>
            </Position>
            <AltitudeMeters>824.5999755859375</AltitudeMeters>
            <DistanceMeters>NAN</DistanceMeters>
          </Trackpoint>
          <Trackpoint>
            <Time>2020-12-05T14:23:31.000Z</Time>
            <Position>
              <LatitudeDegrees>36.8048494867980480194091796875</LatitudeDegrees>
              <LongitudeDegrees>-4.37972000800073146820068359375</LongitudeDegrees>
            </Position>
            <AltitudeMeters>824.4000244140625</AltitudeMeters>
            <DistanceMeters>NAN</DistanceMeters>
          </Trackpoint>
          <Trackpoint>
            <Time>2020-12-05T14:23:32.000Z</Time>
            <Position>
              <LatitudeDegrees>36.80483900941908359527587890625</LatitudeDegrees>
              <LongitudeDegrees>-4.3797095306217670440673828125</LongitudeDegrees>
            </Position>
            <AltitudeMeters>824.20001220703125</AltitudeMeters>
            <DistanceMeters>NAN</DistanceMeters>
          </Trackpoint>
          <Trackpoint>
            <Time>2020-12-05T14:23:33.000Z</Time>
            <Position>
              <LatitudeDegrees>36.80482761003077030181884765625</LatitudeDegrees>
              <LongitudeDegrees>-4.37970039434731006622314453125</LongitudeDegrees>
            </Position>
            <AltitudeMeters>823.5999755859375</AltitudeMeters>
            <DistanceMeters>NAN</DistanceMeters>
          </Trackpoint>
          <Trackpoint>
            <Time>2020-12-05T14:23:34.000Z</Time>
            <Position>
              <LatitudeDegrees>36.80481554009020328521728515625</LatitudeDegrees>
              <LongitudeDegrees>-4.379690587520599365234375</LongitudeDegrees>
            </Position>
            <AltitudeMeters>823.20001220703125</AltitudeMeters>
            <DistanceMeters>NAN</DistanceMeters>
          </Trackpoint>
          <Trackpoint>
            <Time>2020-12-05T14:23:35.000Z</Time>
            <Position>
              <LatitudeDegrees>36.8048038892447948455810546875</LatitudeDegrees>
              <LongitudeDegrees>-4.37968262471258640289306640625</LongitudeDegrees>
            </Position>
            <AltitudeMeters>823</AltitudeMeters>
            <DistanceMeters>NAN</DistanceMeters>
          </Trackpoint>
          <Trackpoint>
            <Time>2020-12-05T14:23:36.000Z</Time>
            <Position>
              <LatitudeDegrees>36.80479056201875209808349609375</LatitudeDegrees>
              <LongitudeDegrees>-4.37967508099973201751708984375</LongitudeDegrees>
            </Position>
            <AltitudeMeters>822.79998779296875</AltitudeMeters>
            <DistanceMeters>NAN</DistanceMeters>
          </Trackpoint>
          <Trackpoint>
            <Time>2020-12-05T14:23:37.000Z</Time>
            <Position>
              <LatitudeDegrees>36.80477715097367763519287109375</LatitudeDegrees>
              <LongitudeDegrees>-4.37966720201075077056884765625</LongitudeDegrees>
            </Position>
            <AltitudeMeters>822.79998779296875</AltitudeMeters>
            <DistanceMeters>NAN</DistanceMeters>
          </Trackpoint>
          <Trackpoint>
            <Time>2020-12-05T14:23:38.000Z</Time>
            <Position>
              <LatitudeDegrees>36.8047649972140789031982421875</LatitudeDegrees>
              <LongitudeDegrees>-4.37965798191726207733154296875</LongitudeDegrees>
            </Position>
            <AltitudeMeters>822.5999755859375</AltitudeMeters>
            <DistanceMeters>NAN</DistanceMeters>
          </Trackpoint>
          <Trackpoint>
            <Time>2020-12-05T14:23:39.000Z</Time>
            <Position>
              <LatitudeDegrees>36.8047535978257656097412109375</LatitudeDegrees>
              <LongitudeDegrees>-4.379648678004741668701171875</LongitudeDegrees>
            </Position>
            <AltitudeMeters>822.5999755859375</AltitudeMeters>
            <DistanceMeters>NAN</DistanceMeters>
          </Trackpoint>
          <Trackpoint>
            <Time>2020-12-05T14:23:40.000Z</Time>
            <Position>
              <LatitudeDegrees>36.80474328808486461639404296875</LatitudeDegrees>
              <LongitudeDegrees>-4.37964088283479213714599609375</LongitudeDegrees>
            </Position>
            <AltitudeMeters>822.4000244140625</AltitudeMeters>
            <DistanceMeters>NAN</DistanceMeters>
          </Trackpoint>
          <Trackpoint>
            <Time>2020-12-05T14:23:41.000Z</Time>
            <Position>
              <LatitudeDegrees>36.8047321401536464691162109375</LatitudeDegrees>
              <LongitudeDegrees>-4.37963484786450862884521484375</LongitudeDegrees>
            </Position>
            <AltitudeMeters>822.4000244140625</AltitudeMeters>
            <DistanceMeters>NAN</DistanceMeters>
          </Trackpoint>
          <Trackpoint>
            <Time>2020-12-05T14:23:42.000Z</Time>
            <Position>
              <LatitudeDegrees>36.8047209084033966064453125</LatitudeDegrees>
              <LongitudeDegrees>-4.3796320818364620208740234375</LongitudeDegrees>
            </Position>
            <AltitudeMeters>822.4000244140625</AltitudeMeters>
            <DistanceMeters>NAN</DistanceMeters>
          </Trackpoint>
          <Trackpoint>
            <Time>2020-12-05T14:23:43.000Z</Time>
            <Position>
              <LatitudeDegrees>36.8047100119292736053466796875</LatitudeDegrees>
              <LongitudeDegrees>-4.37962512485682964324951171875</LongitudeDegrees>
            </Position>
            <AltitudeMeters>822.4000244140625</AltitudeMeters>
            <DistanceMeters>NAN</DistanceMeters>
          </Trackpoint>
          <Trackpoint>
            <Time>2020-12-05T14:23:44.000Z</Time>
            <Position>
              <LatitudeDegrees>36.804699786007404327392578125</LatitudeDegrees>
              <LongitudeDegrees>-4.37961372546851634979248046875</LongitudeDegrees>
            </Position>
            <AltitudeMeters>822.20001220703125</AltitudeMeters>
            <DistanceMeters>NAN</DistanceMeters>
          </Trackpoint>
          <Trackpoint>
            <Time>2020-12-05T14:23:45.000Z</Time>
            <Position>
              <LatitudeDegrees>36.8046902306377887725830078125</LatitudeDegrees>
              <LongitudeDegrees>-4.3795980513095855712890625</LongitudeDegrees>
            </Position>
            <AltitudeMeters>822</AltitudeMeters>
            <DistanceMeters>NAN</DistanceMeters>
          </Trackpoint>
          <Trackpoint>
            <Time>2020-12-05T14:23:46.000Z</Time>
            <Position>
              <LatitudeDegrees>36.80468059144914150238037109375</LatitudeDegrees>
              <LongitudeDegrees>-4.3795854784548282623291015625</LongitudeDegrees>
            </Position>
            <AltitudeMeters>822</AltitudeMeters>
            <DistanceMeters>NAN</DistanceMeters>
          </Trackpoint>
          <Trackpoint>
            <Time>2020-12-05T14:23:47.000Z</Time>
            <Position>
              <LatitudeDegrees>36.8046711198985576629638671875</LatitudeDegrees>
              <LongitudeDegrees>-4.3795727379620075225830078125</LongitudeDegrees>
            </Position>
            <AltitudeMeters>822</AltitudeMeters>
            <DistanceMeters>NAN</DistanceMeters>
          </Trackpoint>
          <Trackpoint>
            <Time>2020-12-05T14:23:48.000Z</Time>
            <Position>
              <LatitudeDegrees>36.8046620674431324005126953125</LatitudeDegrees>
              <LongitudeDegrees>-4.3795599974691867828369140625</LongitudeDegrees>
            </Position>
            <AltitudeMeters>822</AltitudeMeters>
            <DistanceMeters>NAN</DistanceMeters>
          </Trackpoint>
          <Trackpoint>
            <Time>2020-12-05T14:23:49.000Z</Time>
            <Position>
              <LatitudeDegrees>36.80464974604547023773193359375</LatitudeDegrees>
              <LongitudeDegrees>-4.37955421395599842071533203125</LongitudeDegrees>
            </Position>
            <AltitudeMeters>822</AltitudeMeters>
            <DistanceMeters>NAN</DistanceMeters>
          </Trackpoint>
          <Trackpoint>
            <Time>2020-12-05T14:23:50.000Z</Time>
            <Position>
              <LatitudeDegrees>36.8046396039426326751708984375</LatitudeDegrees>
              <LongitudeDegrees>-4.37954910099506378173828125</LongitudeDegrees>
            </Position>
            <AltitudeMeters>822.20001220703125</AltitudeMeters>
            <DistanceMeters>NAN</DistanceMeters>
          </Trackpoint>
          <Trackpoint>
            <Time>2020-12-05T14:23:51.000Z</Time>
            <Position>
              <LatitudeDegrees>36.80463046766817569732666015625</LatitudeDegrees>
              <LongitudeDegrees>-4.3795408867299556732177734375</LongitudeDegrees>
            </Position>
            <AltitudeMeters>822.4000244140625</AltitudeMeters>
            <DistanceMeters>NAN</DistanceMeters>
          </Trackpoint>
          <Trackpoint>
            <Time>2020-12-05T14:23:52.000Z</Time>
            <Position>
              <LatitudeDegrees>36.804620660841464996337890625</LatitudeDegrees>
              <LongitudeDegrees>-4.3795291520655155181884765625</LongitudeDegrees>
            </Position>
            <AltitudeMeters>822.4000244140625</AltitudeMeters>
            <DistanceMeters>NAN</DistanceMeters>
          </Trackpoint>
          <Trackpoint>
            <Time>2020-12-05T14:23:53.000Z</Time>
            <Position>
              <LatitudeDegrees>36.80460951291024684906005859375</LatitudeDegrees>
              <LongitudeDegrees>-4.3795113824307918548583984375</LongitudeDegrees>
            </Position>
            <AltitudeMeters>822.20001220703125</AltitudeMeters>
            <DistanceMeters>NAN</DistanceMeters>
          </Trackpoint>
          <Trackpoint>
            <Time>2020-12-05T14:23:54.000Z</Time>
            <Position>
              <LatitudeDegrees>36.80459878407418727874755859375</LatitudeDegrees>
              <LongitudeDegrees>-4.379490427672863006591796875</LongitudeDegrees>
            </Position>
            <AltitudeMeters>822.20001220703125</AltitudeMeters>
            <DistanceMeters>NAN</DistanceMeters>
          </Trackpoint>
          <Trackpoint>
            <Time>2020-12-05T14:23:55.000Z</Time>
            <Position>
              <LatitudeDegrees>36.804590485990047454833984375</LatitudeDegrees>
              <LongitudeDegrees>-4.379476346075534820556640625</LongitudeDegrees>
            </Position>
            <AltitudeMeters>822</AltitudeMeters>
            <DistanceMeters>NAN</DistanceMeters>
          </Trackpoint>
          <Trackpoint>
            <Time>2020-12-05T14:23:56.000Z</Time>
            <Position>
              <LatitudeDegrees>36.80457933805882930755615234375</LatitudeDegrees>
              <LongitudeDegrees>-4.37947324477136135101318359375</LongitudeDegrees>
            </Position>
            <AltitudeMeters>821.79998779296875</AltitudeMeters>
            <DistanceMeters>NAN</DistanceMeters>
          </Trackpoint>
          <Trackpoint>
            <Time>2020-12-05T14:23:57.000Z</Time>
            <Position>
              <LatitudeDegrees>36.80456592701375484466552734375</LatitudeDegrees>
              <LongitudeDegrees>-4.3794755078852176666259765625</LongitudeDegrees>
            </Position>
            <AltitudeMeters>821.79998779296875</AltitudeMeters>
            <DistanceMeters>NAN</DistanceMeters>
          </Trackpoint>
          <Trackpoint>
            <Time>2020-12-05T14:23:58.000Z</Time>
            <Position>
              <LatitudeDegrees>36.8045534379780292510986328125</LatitudeDegrees>
              <LongitudeDegrees>-4.37947391532361507415771484375</LongitudeDegrees>
            </Position>
            <AltitudeMeters>821.4000244140625</AltitudeMeters>
            <DistanceMeters>NAN</DistanceMeters>
          </Trackpoint>
          <Trackpoint>
            <Time>2020-12-05T14:23:59.000Z</Time>
            <Position>
              <LatitudeDegrees>36.80454027839004993438720703125</LatitudeDegrees>
              <LongitudeDegrees>-4.3794693052768707275390625</LongitudeDegrees>
            </Position>
            <AltitudeMeters>821.4000244140625</AltitudeMeters>
            <DistanceMeters>NAN</DistanceMeters>
          </Trackpoint>
          <Trackpoint>
            <Time>2020-12-05T14:24:00.000Z</Time>
            <Position>
              <LatitudeDegrees>36.80452686734497547149658203125</LatitudeDegrees>
              <LongitudeDegrees>-4.37946327030658721923828125</LongitudeDegrees>
            </Position>
            <AltitudeMeters>821</AltitudeMeters>
            <DistanceMeters>NAN</DistanceMeters>
          </Trackpoint>
          <Trackpoint>
            <Time>2020-12-05T14:24:01.000Z</Time>
            <Position>
              <LatitudeDegrees>36.80451479740440845489501953125</LatitudeDegrees>
              <LongitudeDegrees>-4.3794570676982402801513671875</LongitudeDegrees>
            </Position>
            <AltitudeMeters>820.5999755859375</AltitudeMeters>
            <DistanceMeters>NAN</DistanceMeters>
          </Trackpoint>
          <Trackpoint>
            <Time>2020-12-05T14:24:02.000Z</Time>
            <Position>
              <LatitudeDegrees>36.804502308368682861328125</LatitudeDegrees>
              <LongitudeDegrees>-4.37944960780441761016845703125</LongitudeDegrees>
            </Position>
            <AltitudeMeters>820.4000244140625</AltitudeMeters>
            <DistanceMeters>NAN</DistanceMeters>
          </Trackpoint>
          <Trackpoint>
            <Time>2020-12-05T14:24:03.000Z</Time>
            <Position>
              <LatitudeDegrees>36.8044910766184329986572265625</LatitudeDegrees>
              <LongitudeDegrees>-4.37943938188254833221435546875</LongitudeDegrees>
            </Position>
            <AltitudeMeters>820.20001220703125</AltitudeMeters>
            <DistanceMeters>NAN</DistanceMeters>
          </Trackpoint>
          <Trackpoint>
            <Time>2020-12-05T14:24:04.000Z</Time>
            <Position>
              <LatitudeDegrees>36.80447774939239025115966796875</LatitudeDegrees>
              <LongitudeDegrees>-4.37943133525550365447998046875</LongitudeDegrees>
            </Position>
            <AltitudeMeters>820</AltitudeMeters>
            <DistanceMeters>NAN</DistanceMeters>
          </Trackpoint>
          <Trackpoint>
            <Time>2020-12-05T14:24:05.000Z</Time>
            <Position>
              <LatitudeDegrees>36.8044619075953960418701171875</LatitudeDegrees>
              <LongitudeDegrees>-4.3794248811900615692138671875</LongitudeDegrees>
            </Position>
            <AltitudeMeters>819.79998779296875</AltitudeMeters>
            <DistanceMeters>NAN</DistanceMeters>
          </Trackpoint>
          <Trackpoint>
            <Time>2020-12-05T14:24:06.000Z</Time>
            <Position>
              <LatitudeDegrees>36.80444707162678241729736328125</LatitudeDegrees>
              <LongitudeDegrees>-4.3794171698391437530517578125</LongitudeDegrees>
            </Position>
            <AltitudeMeters>819.5999755859375</AltitudeMeters>
            <DistanceMeters>NAN</DistanceMeters>
          </Trackpoint>
          <Trackpoint>
            <Time>2020-12-05T14:24:07.000Z</Time>
            <Position>
              <LatitudeDegrees>36.80443282239139080047607421875</LatitudeDegrees>
              <LongitudeDegrees>-4.37940736301243305206298828125</LongitudeDegrees>
            </Position>
            <AltitudeMeters>819.4000244140625</AltitudeMeters>
            <DistanceMeters>NAN</DistanceMeters>
          </Trackpoint>
          <Trackpoint>
            <Time>2020-12-05T14:24:08.000Z</Time>
            <Position>
              <LatitudeDegrees>36.8044193275272846221923828125</LatitudeDegrees>
              <LongitudeDegrees>-4.37939646653831005096435546875</LongitudeDegrees>
            </Position>
            <AltitudeMeters>819.4000244140625</AltitudeMeters>
            <DistanceMeters>NAN</DistanceMeters>
          </Trackpoint>
          <Trackpoint>
            <Time>2020-12-05T14:24:09.000Z</Time>
            <Position>
              <LatitudeDegrees>36.80440901778638362884521484375</LatitudeDegrees>
              <LongitudeDegrees>-4.37938439659774303436279296875</LongitudeDegrees>
            </Position>
            <AltitudeMeters>819.20001220703125</AltitudeMeters>
            <DistanceMeters>NAN</DistanceMeters>
          </Trackpoint>
          <Trackpoint>
            <Time>2020-12-05T14:24:10.000Z</Time>
            <Position>
              <LatitudeDegrees>36.80439845658838748931884765625</LatitudeDegrees>
              <LongitudeDegrees>-4.37936696223914623260498046875</LongitudeDegrees>
            </Position>
            <AltitudeMeters>819</AltitudeMeters>
            <DistanceMeters>NAN</DistanceMeters>
          </Trackpoint>
          <Trackpoint>
            <Time>2020-12-05T14:24:11.000Z</Time>
            <Position>
              <LatitudeDegrees>36.80438722483813762664794921875</LatitudeDegrees>
              <LongitudeDegrees>-4.379347264766693115234375</LongitudeDegrees>
            </Position>
            <AltitudeMeters>819</AltitudeMeters>
            <DistanceMeters>NAN</DistanceMeters>
          </Trackpoint>
          <Trackpoint>
            <Time>2020-12-05T14:24:12.000Z</Time>
            <Position>
              <LatitudeDegrees>36.8043760769069194793701171875</LatitudeDegrees>
              <LongitudeDegrees>-4.37933376990258693695068359375</LongitudeDegrees>
            </Position>
            <AltitudeMeters>818.79998779296875</AltitudeMeters>
            <DistanceMeters>NAN</DistanceMeters>
          </Trackpoint>
          <Trackpoint>
            <Time>2020-12-05T14:24:13.000Z</Time>
            <Position>
              <LatitudeDegrees>36.80436358787119388580322265625</LatitudeDegrees>
              <LongitudeDegrees>-4.37933628447353839874267578125</LongitudeDegrees>
            </Position>
            <AltitudeMeters>818.79998779296875</AltitudeMeters>
            <DistanceMeters>NAN</DistanceMeters>
          </Trackpoint>
          <Trackpoint>
            <Time>2020-12-05T14:24:14.000Z</Time>
            <Position>
              <LatitudeDegrees>36.8043516017496585845947265625</LatitudeDegrees>
              <LongitudeDegrees>-4.379343576729297637939453125</LongitudeDegrees>
            </Position>
            <AltitudeMeters>818.5999755859375</AltitudeMeters>
            <DistanceMeters>NAN</DistanceMeters>
          </Trackpoint>
          <Trackpoint>
            <Time>2020-12-05T14:24:15.000Z</Time>
            <Position>
              <LatitudeDegrees>36.8043398670852184295654296875</LatitudeDegrees>
              <LongitudeDegrees>-4.37934801913797855377197265625</LongitudeDegrees>
            </Position>
            <AltitudeMeters>818.5999755859375</AltitudeMeters>
            <DistanceMeters>NAN</DistanceMeters>
          </Trackpoint>
          <Trackpoint>
            <Time>2020-12-05T14:24:16.000Z</Time>
            <Position>
              <LatitudeDegrees>36.80433056317269802093505859375</LatitudeDegrees>
              <LongitudeDegrees>-4.37934583984315395355224609375</LongitudeDegrees>
            </Position>
            <AltitudeMeters>818.5999755859375</AltitudeMeters>
            <DistanceMeters>NAN</DistanceMeters>
          </Trackpoint>
          <Trackpoint>
            <Time>2020-12-05T14:24:17.000Z</Time>
            <Position>
              <LatitudeDegrees>36.804320253431797027587890625</LatitudeDegrees>
              <LongitudeDegrees>-4.3793392181396484375</LongitudeDegrees>
            </Position>
            <AltitudeMeters>818.5999755859375</AltitudeMeters>
            <DistanceMeters>NAN</DistanceMeters>
          </Trackpoint>
          <Trackpoint>
            <Time>2020-12-05T14:24:18.000Z</Time>
            <Position>
              <LatitudeDegrees>36.80430776439607143402099609375</LatitudeDegrees>
              <LongitudeDegrees>-4.379331506788730621337890625</LongitudeDegrees>
            </Position>
            <AltitudeMeters>818.4000244140625</AltitudeMeters>
            <DistanceMeters>NAN</DistanceMeters>
          </Trackpoint>
          <Trackpoint>
            <Time>2020-12-05T14:24:19.000Z</Time>
            <Position>
              <LatitudeDegrees>36.80429519154131412506103515625</LatitudeDegrees>
              <LongitudeDegrees>-4.37931985594332218170166015625</LongitudeDegrees>
            </Position>
            <AltitudeMeters>818.20001220703125</AltitudeMeters>
            <DistanceMeters>NAN</DistanceMeters>
          </Trackpoint>
          <Trackpoint>
            <Time>2020-12-05T14:24:20.000Z</Time>
            <Position>
              <LatitudeDegrees>36.8042818643152713775634765625</LatitudeDegrees>
              <LongitudeDegrees>-4.37930778600275516510009765625</LongitudeDegrees>
            </Position>
            <AltitudeMeters>817.79998779296875</AltitudeMeters>
            <DistanceMeters>NAN</DistanceMeters>
          </Trackpoint>
          <Trackpoint>
            <Time>2020-12-05T14:24:21.000Z</Time>
            <Position>
              <LatitudeDegrees>36.8042697943747043609619140625</LatitudeDegrees>
              <LongitudeDegrees>-4.3792957998812198638916015625</LongitudeDegrees>
            </Position>
            <AltitudeMeters>817.5999755859375</AltitudeMeters>
            <DistanceMeters>NAN</DistanceMeters>
          </Trackpoint>
          <Trackpoint>
            <Time>2020-12-05T14:24:22.000Z</Time>
            <Position>
              <LatitudeDegrees>36.8042570538818836212158203125</LatitudeDegrees>
              <LongitudeDegrees>-4.379285238683223724365234375</LongitudeDegrees>
            </Position>
            <AltitudeMeters>817.4000244140625</AltitudeMeters>
            <DistanceMeters>NAN</DistanceMeters>
          </Trackpoint>
          <Trackpoint>
            <Time>2020-12-05T14:24:23.000Z</Time>
            <Position>
              <LatitudeDegrees>36.80424146354198455810546875</LatitudeDegrees>
              <LongitudeDegrees>-4.3792820535600185394287109375</LongitudeDegrees>
            </Position>
            <AltitudeMeters>817.4000244140625</AltitudeMeters>
            <DistanceMeters>NAN</DistanceMeters>
          </Trackpoint>
          <Trackpoint>
            <Time>2020-12-05T14:24:24.000Z</Time>
            <Position>
              <LatitudeDegrees>36.8042265437543392181396484375</LatitudeDegrees>
              <LongitudeDegrees>-4.37928800471127033233642578125</LongitudeDegrees>
            </Position>
            <AltitudeMeters>817.20001220703125</AltitudeMeters>
            <DistanceMeters>NAN</DistanceMeters>
          </Trackpoint>
          <Trackpoint>
            <Time>2020-12-05T14:24:25.000Z</Time>
            <Position>
              <LatitudeDegrees>36.8042151443660259246826171875</LatitudeDegrees>
              <LongitudeDegrees>-4.3792968057096004486083984375</LongitudeDegrees>
            </Position>
            <AltitudeMeters>817</AltitudeMeters>
            <DistanceMeters>NAN</DistanceMeters>
          </Trackpoint>
          <Trackpoint>
            <Time>2020-12-05T14:24:26.000Z</Time>
            <Position>
              <LatitudeDegrees>36.80420567281544208526611328125</LatitudeDegrees>
              <LongitudeDegrees>-4.37930225394666194915771484375</LongitudeDegrees>
            </Position>
            <AltitudeMeters>817</AltitudeMeters>
            <DistanceMeters>NAN</DistanceMeters>
          </Trackpoint>
          <Trackpoint>
            <Time>2020-12-05T14:24:27.000Z</Time>
            <Position>
              <LatitudeDegrees>36.80419410578906536102294921875</LatitudeDegrees>
              <LongitudeDegrees>-4.3793061934411525726318359375</LongitudeDegrees>
            </Position>
            <AltitudeMeters>816.79998779296875</AltitudeMeters>
            <DistanceMeters>NAN</DistanceMeters>
          </Trackpoint>
          <Trackpoint>
            <Time>2020-12-05T14:24:28.000Z</Time>
            <Position>
              <LatitudeDegrees>36.80418153293430805206298828125</LatitudeDegrees>
              <LongitudeDegrees>-4.37930904328823089599609375</LongitudeDegrees>
            </Position>
            <AltitudeMeters>816.5999755859375</AltitudeMeters>
            <DistanceMeters>NAN</DistanceMeters>
          </Trackpoint>
          <Trackpoint>
            <Time>2020-12-05T14:24:29.000Z</Time>
            <Position>
              <LatitudeDegrees>36.80417097173631191253662109375</LatitudeDegrees>
              <LongitudeDegrees>-4.37930745072662830352783203125</LongitudeDegrees>
            </Position>
            <AltitudeMeters>816.4000244140625</AltitudeMeters>
            <DistanceMeters>NAN</DistanceMeters>
          </Trackpoint>
          <Trackpoint>
            <Time>2020-12-05T14:24:30.000Z</Time>
            <Position>
              <LatitudeDegrees>36.80416124872863292694091796875</LatitudeDegrees>
              <LongitudeDegrees>-4.37930091284215450286865234375</LongitudeDegrees>
            </Position>
            <AltitudeMeters>816.20001220703125</AltitudeMeters>
            <DistanceMeters>NAN</DistanceMeters>
          </Trackpoint>
          <Trackpoint>
            <Time>2020-12-05T14:24:31.000Z</Time>
            <Position>
              <LatitudeDegrees>36.8041527830064296722412109375</LatitudeDegrees>
              <LongitudeDegrees>-4.37928968109190464019775390625</LongitudeDegrees>
            </Position>
            <AltitudeMeters>816</AltitudeMeters>
            <DistanceMeters>NAN</DistanceMeters>
          </Trackpoint>
          <Trackpoint>
            <Time>2020-12-05T14:24:32.000Z</Time>
            <Position>
              <LatitudeDegrees>36.80414482019841670989990234375</LatitudeDegrees>
              <LongitudeDegrees>-4.379277527332305908203125</LongitudeDegrees>
            </Position>
            <AltitudeMeters>816</AltitudeMeters>
            <DistanceMeters>NAN</DistanceMeters>
          </Trackpoint>
          <Trackpoint>
            <Time>2020-12-05T14:24:33.000Z</Time>
            <Position>
              <LatitudeDegrees>36.80413442663848400115966796875</LatitudeDegrees>
              <LongitudeDegrees>-4.37926956452429294586181640625</LongitudeDegrees>
            </Position>
            <AltitudeMeters>816</AltitudeMeters>
            <DistanceMeters>NAN</DistanceMeters>
          </Trackpoint>
          <Trackpoint>
            <Time>2020-12-05T14:24:34.000Z</Time>
            <Position>
              <LatitudeDegrees>36.8041232787072658538818359375</LatitudeDegrees>
              <LongitudeDegrees>-4.3792693130671977996826171875</LongitudeDegrees>
            </Position>
            <AltitudeMeters>816</AltitudeMeters>
            <DistanceMeters>NAN</DistanceMeters>
          </Trackpoint>
          <Trackpoint>
            <Time>2020-12-05T14:24:35.000Z</Time>
            <Position>
              <LatitudeDegrees>36.80411146022379398345947265625</LatitudeDegrees>
              <LongitudeDegrees>-4.37926855869591236114501953125</LongitudeDegrees>
            </Position>
            <AltitudeMeters>815.79998779296875</AltitudeMeters>
            <DistanceMeters>NAN</DistanceMeters>
          </Trackpoint>
          <Trackpoint>
            <Time>2020-12-05T14:24:36.000Z</Time>
            <Position>
              <LatitudeDegrees>36.80409737862646579742431640625</LatitudeDegrees>
              <LongitudeDegrees>-4.3792706541717052459716796875</LongitudeDegrees>
            </Position>
            <AltitudeMeters>815.79998779296875</AltitudeMeters>
            <DistanceMeters>NAN</DistanceMeters>
          </Trackpoint>
          <Trackpoint>
            <Time>2020-12-05T14:24:37.000Z</Time>
            <Position>
              <LatitudeDegrees>36.8040812015533447265625</LatitudeDegrees>
              <LongitudeDegrees>-4.37927107326686382293701171875</LongitudeDegrees>
            </Position>
            <AltitudeMeters>815.79998779296875</AltitudeMeters>
            <DistanceMeters>NAN</DistanceMeters>
          </Trackpoint>
          <Trackpoint>
            <Time>2020-12-05T14:24:38.000Z</Time>
            <Position>
              <LatitudeDegrees>36.8040664494037628173828125</LatitudeDegrees>
              <LongitudeDegrees>-4.37927409075200557708740234375</LongitudeDegrees>
            </Position>
            <AltitudeMeters>815.4000244140625</AltitudeMeters>
            <DistanceMeters>NAN</DistanceMeters>
          </Trackpoint>
          <Trackpoint>
            <Time>2020-12-05T14:24:39.000Z</Time>
            <Position>
              <LatitudeDegrees>36.80404968559741973876953125</LatitudeDegrees>
              <LongitudeDegrees>-4.37928230501711368560791015625</LongitudeDegrees>
            </Position>
            <AltitudeMeters>815.20001220703125</AltitudeMeters>
            <DistanceMeters>NAN</DistanceMeters>
          </Trackpoint>
          <Trackpoint>
            <Time>2020-12-05T14:24:40.000Z</Time>
            <Position>
              <LatitudeDegrees>36.80403585545718669891357421875</LatitudeDegrees>
              <LongitudeDegrees>-4.3792874179780483245849609375</LongitudeDegrees>
            </Position>
            <AltitudeMeters>815</AltitudeMeters>
            <DistanceMeters>NAN</DistanceMeters>
          </Trackpoint>
          <Trackpoint>
            <Time>2020-12-05T14:24:41.000Z</Time>
            <Position>
              <LatitudeDegrees>36.804022528231143951416015625</LatitudeDegrees>
              <LongitudeDegrees>-4.3792911060154438018798828125</LongitudeDegrees>
            </Position>
            <AltitudeMeters>814.79998779296875</AltitudeMeters>
            <DistanceMeters>NAN</DistanceMeters>
          </Trackpoint>
          <Trackpoint>
            <Time>2020-12-05T14:24:42.000Z</Time>
            <Position>
              <LatitudeDegrees>36.80400987155735492706298828125</LatitudeDegrees>
              <LongitudeDegrees>-4.37929353676736354827880859375</LongitudeDegrees>
            </Position>
            <AltitudeMeters>814.79998779296875</AltitudeMeters>
            <DistanceMeters>NAN</DistanceMeters>
          </Trackpoint>
          <Trackpoint>
            <Time>2020-12-05T14:24:43.000Z</Time>
            <Position>
              <LatitudeDegrees>36.80399796925485134124755859375</LatitudeDegrees>
              <LongitudeDegrees>-4.3792954646050930023193359375</LongitudeDegrees>
            </Position>
            <AltitudeMeters>814.5999755859375</AltitudeMeters>
            <DistanceMeters>NAN</DistanceMeters>
          </Trackpoint>
          <Trackpoint>
            <Time>2020-12-05T14:24:44.000Z</Time>
            <Position>
              <LatitudeDegrees>36.80398799479007720947265625</LatitudeDegrees>
              <LongitudeDegrees>-4.37929554842412471771240234375</LongitudeDegrees>
            </Position>
            <AltitudeMeters>814.5999755859375</AltitudeMeters>
            <DistanceMeters>NAN</DistanceMeters>
          </Trackpoint>
          <Trackpoint>
            <Time>2020-12-05T14:24:45.000Z</Time>
            <Position>
              <LatitudeDegrees>36.80397617630660533905029296875</LatitudeDegrees>
              <LongitudeDegrees>-4.37929295003414154052734375</LongitudeDegrees>
            </Position>
            <AltitudeMeters>814.5999755859375</AltitudeMeters>
            <DistanceMeters>NAN</DistanceMeters>
          </Trackpoint>
          <Trackpoint>
            <Time>2020-12-05T14:24:46.000Z</Time>
            <Position>
              <LatitudeDegrees>36.803963519632816314697265625</LatitudeDegrees>
              <LongitudeDegrees>-4.3792907707393169403076171875</LongitudeDegrees>
            </Position>
            <AltitudeMeters>814.5999755859375</AltitudeMeters>
            <DistanceMeters>NAN</DistanceMeters>
          </Trackpoint>
          <Trackpoint>
            <Time>2020-12-05T14:24:47.000Z</Time>
            <Position>
              <LatitudeDegrees>36.80395002476871013641357421875</LatitudeDegrees>
              <LongitudeDegrees>-4.3792895972728729248046875</LongitudeDegrees>
            </Position>
            <AltitudeMeters>814.5999755859375</AltitudeMeters>
            <DistanceMeters>NAN</DistanceMeters>
          </Trackpoint>
          <Trackpoint>
            <Time>2020-12-05T14:24:48.000Z</Time>
            <Position>
              <LatitudeDegrees>36.80393636226654052734375</LatitudeDegrees>
              <LongitudeDegrees>-4.37928817234933376312255859375</LongitudeDegrees>
            </Position>
            <AltitudeMeters>814.5999755859375</AltitudeMeters>
            <DistanceMeters>NAN</DistanceMeters>
          </Trackpoint>
          <Trackpoint>
            <Time>2020-12-05T14:24:49.000Z</Time>
            <Position>
              <LatitudeDegrees>36.803923286497592926025390625</LatitudeDegrees>
              <LongitudeDegrees>-4.37928758561611175537109375</LongitudeDegrees>
            </Position>
            <AltitudeMeters>814.5999755859375</AltitudeMeters>
            <DistanceMeters>NAN</DistanceMeters>
          </Trackpoint>
          <Trackpoint>
            <Time>2020-12-05T14:24:50.000Z</Time>
            <Position>
              <LatitudeDegrees>36.8039110489189624786376953125</LatitudeDegrees>
              <LongitudeDegrees>-4.37928699888288974761962890625</LongitudeDegrees>
            </Position>
            <AltitudeMeters>814.5999755859375</AltitudeMeters>
            <DistanceMeters>NAN</DistanceMeters>
          </Trackpoint>
          <Trackpoint>
            <Time>2020-12-05T14:24:51.000Z</Time>
            <Position>
              <LatitudeDegrees>36.8038983084261417388916015625</LatitudeDegrees>
              <LongitudeDegrees>-4.37928699888288974761962890625</LongitudeDegrees>
            </Position>
            <AltitudeMeters>814.5999755859375</AltitudeMeters>
            <DistanceMeters>NAN</DistanceMeters>
          </Trackpoint>
          <Trackpoint>
            <Time>2020-12-05T14:24:52.000Z</Time>
            <Position>
              <LatitudeDegrees>36.80388598702847957611083984375</LatitudeDegrees>
              <LongitudeDegrees>-4.37928817234933376312255859375</LongitudeDegrees>
            </Position>
            <AltitudeMeters>814.5999755859375</AltitudeMeters>
            <DistanceMeters>NAN</DistanceMeters>
          </Trackpoint>
          <Trackpoint>
            <Time>2020-12-05T14:24:53.000Z</Time>
            <Position>
              <LatitudeDegrees>36.80387391708791255950927734375</LatitudeDegrees>
              <LongitudeDegrees>-4.3792877532541751861572265625</LongitudeDegrees>
            </Position>
            <AltitudeMeters>814.5999755859375</AltitudeMeters>
            <DistanceMeters>NAN</DistanceMeters>
          </Trackpoint>
          <Trackpoint>
            <Time>2020-12-05T14:24:54.000Z</Time>
            <Position>
              <LatitudeDegrees>36.803862936794757843017578125</LatitudeDegrees>
              <LongitudeDegrees>-4.37928699888288974761962890625</LongitudeDegrees>
            </Position>
            <AltitudeMeters>814.5999755859375</AltitudeMeters>
            <DistanceMeters>NAN</DistanceMeters>
          </Trackpoint>
          <Trackpoint>
            <Time>2020-12-05T14:24:55.000Z</Time>
            <Position>
              <LatitudeDegrees>36.8038517050445079803466796875</LatitudeDegrees>
              <LongitudeDegrees>-4.37929160892963409423828125</LongitudeDegrees>
            </Position>
            <AltitudeMeters>814.5999755859375</AltitudeMeters>
            <DistanceMeters>NAN</DistanceMeters>
          </Trackpoint>
          <Trackpoint>
            <Time>2020-12-05T14:24:56.000Z</Time>
            <Position>
              <LatitudeDegrees>36.80384189821779727935791015625</LatitudeDegrees>
              <LongitudeDegrees>-4.3792991526424884796142578125</LongitudeDegrees>
            </Position>
            <AltitudeMeters>814.20001220703125</AltitudeMeters>
            <DistanceMeters>NAN</DistanceMeters>
          </Trackpoint>
          <Trackpoint>
            <Time>2020-12-05T14:24:57.000Z</Time>
            <Position>
              <LatitudeDegrees>36.80383452214300632476806640625</LatitudeDegrees>
              <LongitudeDegrees>-4.3793025054037570953369140625</LongitudeDegrees>
            </Position>
            <AltitudeMeters>814.20001220703125</AltitudeMeters>
            <DistanceMeters>NAN</DistanceMeters>
          </Trackpoint>
          <Trackpoint>
            <Time>2020-12-05T14:24:58.000Z</Time>
            <Position>
              <LatitudeDegrees>36.8038237094879150390625</LatitudeDegrees>
              <LongitudeDegrees>-4.37930577434599399566650390625</LongitudeDegrees>
            </Position>
            <AltitudeMeters>813.79998779296875</AltitudeMeters>
            <DistanceMeters>NAN</DistanceMeters>
          </Trackpoint>
          <Trackpoint>
            <Time>2020-12-05T14:24:59.000Z</Time>
            <Position>
              <LatitudeDegrees>36.80381231009960174560546875</LatitudeDegrees>
              <LongitudeDegrees>-4.37930929474532604217529296875</LongitudeDegrees>
            </Position>
            <AltitudeMeters>813.5999755859375</AltitudeMeters>
            <DistanceMeters>NAN</DistanceMeters>
          </Trackpoint>
          <Trackpoint>
            <Time>2020-12-05T14:25:00.000Z</Time>
            <Position>
              <LatitudeDegrees>36.80379915051162242889404296875</LatitudeDegrees>
              <LongitudeDegrees>-4.37931482680141925811767578125</LongitudeDegrees>
            </Position>
            <AltitudeMeters>813.4000244140625</AltitudeMeters>
            <DistanceMeters>NAN</DistanceMeters>
          </Trackpoint>
          <Trackpoint>
            <Time>2020-12-05T14:25:01.000Z</Time>
            <Position>
              <LatitudeDegrees>36.803785152733325958251953125</LatitudeDegrees>
              <LongitudeDegrees>-4.379318766295909881591796875</LongitudeDegrees>
            </Position>
            <AltitudeMeters>813.20001220703125</AltitudeMeters>
            <DistanceMeters>NAN</DistanceMeters>
          </Trackpoint>
          <Trackpoint>
            <Time>2020-12-05T14:25:02.000Z</Time>
            <Position>
              <LatitudeDegrees>36.80377207696437835693359375</LatitudeDegrees>
              <LongitudeDegrees>-4.37931549735367298126220703125</LongitudeDegrees>
            </Position>
            <AltitudeMeters>813.20001220703125</AltitudeMeters>
            <DistanceMeters>NAN</DistanceMeters>
          </Trackpoint>
          <Trackpoint>
            <Time>2020-12-05T14:25:03.000Z</Time>
            <Position>
              <LatitudeDegrees>36.8037584982812404632568359375</LatitudeDegrees>
              <LongitudeDegrees>-4.3793115578591823577880859375</LongitudeDegrees>
            </Position>
            <AltitudeMeters>813</AltitudeMeters>
            <DistanceMeters>NAN</DistanceMeters>
          </Trackpoint>
          <Trackpoint>
            <Time>2020-12-05T14:25:04.000Z</Time>
            <Position>
              <LatitudeDegrees>36.80374181829392910003662109375</LatitudeDegrees>
              <LongitudeDegrees>-4.37930845655500888824462890625</LongitudeDegrees>
            </Position>
            <AltitudeMeters>812.79998779296875</AltitudeMeters>
            <DistanceMeters>NAN</DistanceMeters>
          </Trackpoint>
          <Trackpoint>
            <Time>2020-12-05T14:25:05.000Z</Time>
            <Position>
              <LatitudeDegrees>36.80372782051563262939453125</LatitudeDegrees>
              <LongitudeDegrees>-4.379310719668865203857421875</LongitudeDegrees>
            </Position>
            <AltitudeMeters>812.5999755859375</AltitudeMeters>
            <DistanceMeters>NAN</DistanceMeters>
          </Trackpoint>
          <Trackpoint>
            <Time>2020-12-05T14:25:06.000Z</Time>
            <Position>
              <LatitudeDegrees>36.8037152476608753204345703125</LatitudeDegrees>
              <LongitudeDegrees>-4.37931030057370662689208984375</LongitudeDegrees>
            </Position>
            <AltitudeMeters>812.4000244140625</AltitudeMeters>
            <DistanceMeters>NAN</DistanceMeters>
          </Trackpoint>
          <Trackpoint>
            <Time>2020-12-05T14:25:07.000Z</Time>
            <Position>
              <LatitudeDegrees>36.803705692291259765625</LatitudeDegrees>
              <LongitudeDegrees>-4.3793108873069286346435546875</LongitudeDegrees>
            </Position>
            <AltitudeMeters>812.4000244140625</AltitudeMeters>
            <DistanceMeters>NAN</DistanceMeters>
          </Trackpoint>
          <Trackpoint>
            <Time>2020-12-05T14:25:08.000Z</Time>
            <Position>
              <LatitudeDegrees>36.803695969283580780029296875</LatitudeDegrees>
              <LongitudeDegrees>-4.379312731325626373291015625</LongitudeDegrees>
            </Position>
            <AltitudeMeters>812.4000244140625</AltitudeMeters>
            <DistanceMeters>NAN</DistanceMeters>
          </Trackpoint>
          <Trackpoint>
            <Time>2020-12-05T14:25:09.000Z</Time>
            <Position>
              <LatitudeDegrees>36.80368381552398204803466796875</LatitudeDegrees>
              <LongitudeDegrees>-4.37931063584983348846435546875</LongitudeDegrees>
            </Position>
            <AltitudeMeters>812.4000244140625</AltitudeMeters>
            <DistanceMeters>NAN</DistanceMeters>
          </Trackpoint>
          <Trackpoint>
            <Time>2020-12-05T14:25:10.000Z</Time>
            <Position>
              <LatitudeDegrees>36.80367023684084415435791015625</LatitudeDegrees>
              <LongitudeDegrees>-4.3793159164488315582275390625</LongitudeDegrees>
            </Position>
            <AltitudeMeters>812.4000244140625</AltitudeMeters>
            <DistanceMeters>NAN</DistanceMeters>
          </Trackpoint>
          <Trackpoint>
            <Time>2020-12-05T14:25:11.000Z</Time>
            <Position>
              <LatitudeDegrees>36.803656406700611114501953125</LatitudeDegrees>
              <LongitudeDegrees>-4.37932052649557590484619140625</LongitudeDegrees>
            </Position>
            <AltitudeMeters>812.4000244140625</AltitudeMeters>
            <DistanceMeters>NAN</DistanceMeters>
          </Trackpoint>
          <Trackpoint>
            <Time>2020-12-05T14:25:12.000Z</Time>
            <Position>
              <LatitudeDegrees>36.8036404810845851898193359375</LatitudeDegrees>
              <LongitudeDegrees>-4.37933142296969890594482421875</LongitudeDegrees>
            </Position>
            <AltitudeMeters>812.4000244140625</AltitudeMeters>
            <DistanceMeters>NAN</DistanceMeters>
          </Trackpoint>
          <Trackpoint>
            <Time>2020-12-05T14:25:13.000Z</Time>
            <Position>
              <LatitudeDegrees>36.803622879087924957275390625</LatitudeDegrees>
              <LongitudeDegrees>-4.37934567220509052276611328125</LongitudeDegrees>
            </Position>
            <AltitudeMeters>812</AltitudeMeters>
            <DistanceMeters>NAN</DistanceMeters>
          </Trackpoint>
          <Trackpoint>
            <Time>2020-12-05T14:25:14.000Z</Time>
            <Position>
              <LatitudeDegrees>36.80360670201480388641357421875</LatitudeDegrees>
              <LongitudeDegrees>-4.37935690395534038543701171875</LongitudeDegrees>
            </Position>
            <AltitudeMeters>811.5999755859375</AltitudeMeters>
            <DistanceMeters>NAN</DistanceMeters>
          </Trackpoint>
          <Trackpoint>
            <Time>2020-12-05T14:25:15.000Z</Time>
            <Position>
              <LatitudeDegrees>36.803593374788761138916015625</LatitudeDegrees>
              <LongitudeDegrees>-4.37936796806752681732177734375</LongitudeDegrees>
            </Position>
            <AltitudeMeters>811.20001220703125</AltitudeMeters>
            <DistanceMeters>NAN</DistanceMeters>
          </Trackpoint>
          <Trackpoint>
            <Time>2020-12-05T14:25:16.000Z</Time>
            <Position>
              <LatitudeDegrees>36.8035794608294963836669921875</LatitudeDegrees>
              <LongitudeDegrees>-4.37937651760876178741455078125</LongitudeDegrees>
            </Position>
            <AltitudeMeters>811</AltitudeMeters>
            <DistanceMeters>NAN</DistanceMeters>
          </Trackpoint>
          <Trackpoint>
            <Time>2020-12-05T14:25:17.000Z</Time>
            <Position>
              <LatitudeDegrees>36.80356730706989765167236328125</LatitudeDegrees>
              <LongitudeDegrees>-4.3793816305696964263916015625</LongitudeDegrees>
            </Position>
            <AltitudeMeters>810.79998779296875</AltitudeMeters>
            <DistanceMeters>NAN</DistanceMeters>
          </Trackpoint>
          <Trackpoint>
            <Time>2020-12-05T14:25:18.000Z</Time>
            <Position>
              <LatitudeDegrees>36.80355615913867950439453125</LatitudeDegrees>
              <LongitudeDegrees>-4.3793863244354724884033203125</LongitudeDegrees>
            </Position>
            <AltitudeMeters>810.79998779296875</AltitudeMeters>
            <DistanceMeters>NAN</DistanceMeters>
          </Trackpoint>
          <Trackpoint>
            <Time>2020-12-05T14:25:19.000Z</Time>
            <Position>
              <LatitudeDegrees>36.80354752577841281890869140625</LatitudeDegrees>
              <LongitudeDegrees>-4.37938657589256763458251953125</LongitudeDegrees>
            </Position>
            <AltitudeMeters>810.5999755859375</AltitudeMeters>
            <DistanceMeters>NAN</DistanceMeters>
          </Trackpoint>
          <Trackpoint>
            <Time>2020-12-05T14:25:20.000Z</Time>
            <Position>
              <LatitudeDegrees>36.80353872478008270263671875</LatitudeDegrees>
              <LongitudeDegrees>-4.3793796189129352569580078125</LongitudeDegrees>
            </Position>
            <AltitudeMeters>810.5999755859375</AltitudeMeters>
            <DistanceMeters>NAN</DistanceMeters>
          </Trackpoint>
          <Trackpoint>
            <Time>2020-12-05T14:25:21.000Z</Time>
            <Position>
              <LatitudeDegrees>36.8035291694104671478271484375</LatitudeDegrees>
              <LongitudeDegrees>-4.3793732486665248870849609375</LongitudeDegrees>
            </Position>
            <AltitudeMeters>810.4000244140625</AltitudeMeters>
            <DistanceMeters>NAN</DistanceMeters>
          </Trackpoint>
          <Trackpoint>
            <Time>2020-12-05T14:25:22.000Z</Time>
            <Position>
              <LatitudeDegrees>36.80351860821247100830078125</LatitudeDegrees>
              <LongitudeDegrees>-4.3793698959052562713623046875</LongitudeDegrees>
            </Position>
            <AltitudeMeters>810.4000244140625</AltitudeMeters>
            <DistanceMeters>NAN</DistanceMeters>
          </Trackpoint>
          <Trackpoint>
            <Time>2020-12-05T14:25:23.000Z</Time>
            <Position>
              <LatitudeDegrees>36.80350611917674541473388671875</LatitudeDegrees>
              <LongitudeDegrees>-4.37937031500041484832763671875</LongitudeDegrees>
            </Position>
            <AltitudeMeters>810.4000244140625</AltitudeMeters>
            <DistanceMeters>NAN</DistanceMeters>
          </Trackpoint>
          <Trackpoint>
            <Time>2020-12-05T14:25:24.000Z</Time>
            <Position>
              <LatitudeDegrees>36.803493462502956390380859375</LatitudeDegrees>
              <LongitudeDegrees>-4.3793727457523345947265625</LongitudeDegrees>
            </Position>
            <AltitudeMeters>810.20001220703125</AltitudeMeters>
            <DistanceMeters>NAN</DistanceMeters>
          </Trackpoint>
          <Trackpoint>
            <Time>2020-12-05T14:25:25.000Z</Time>
            <Position>
              <LatitudeDegrees>36.80347829125821590423583984375</LatitudeDegrees>
              <LongitudeDegrees>-4.37937769107520580291748046875</LongitudeDegrees>
            </Position>
            <AltitudeMeters>810.20001220703125</AltitudeMeters>
            <DistanceMeters>NAN</DistanceMeters>
          </Trackpoint>
          <Trackpoint>
            <Time>2020-12-05T14:25:26.000Z</Time>
            <Position>
              <LatitudeDegrees>36.80346203036606311798095703125</LatitudeDegrees>
              <LongitudeDegrees>-4.37938121147453784942626953125</LongitudeDegrees>
            </Position>
            <AltitudeMeters>810</AltitudeMeters>
            <DistanceMeters>NAN</DistanceMeters>
          </Trackpoint>
          <Trackpoint>
            <Time>2020-12-05T14:25:27.000Z</Time>
            <Position>
              <LatitudeDegrees>36.8034473620355129241943359375</LatitudeDegrees>
              <LongitudeDegrees>-4.3793834745883941650390625</LongitudeDegrees>
            </Position>
            <AltitudeMeters>810</AltitudeMeters>
            <DistanceMeters>NAN</DistanceMeters>
          </Trackpoint>
          <Trackpoint>
            <Time>2020-12-05T14:25:28.000Z</Time>
            <Position>
              <LatitudeDegrees>36.80343277752399444580078125</LatitudeDegrees>
              <LongitudeDegrees>-4.37938238494098186492919921875</LongitudeDegrees>
            </Position>
            <AltitudeMeters>810</AltitudeMeters>
            <DistanceMeters>NAN</DistanceMeters>
          </Trackpoint>
          <Trackpoint>
            <Time>2020-12-05T14:25:29.000Z</Time>
            <Position>
              <LatitudeDegrees>36.80341660045087337493896484375</LatitudeDegrees>
              <LongitudeDegrees>-4.3793809600174427032470703125</LongitudeDegrees>
            </Position>
            <AltitudeMeters>809.79998779296875</AltitudeMeters>
            <DistanceMeters>NAN</DistanceMeters>
          </Trackpoint>
          <Trackpoint>
            <Time>2020-12-05T14:25:30.000Z</Time>
            <Position>
              <LatitudeDegrees>36.80340184830129146575927734375</LatitudeDegrees>
              <LongitudeDegrees>-4.37938054092228412628173828125</LongitudeDegrees>
            </Position>
            <AltitudeMeters>809.79998779296875</AltitudeMeters>
            <DistanceMeters>NAN</DistanceMeters>
          </Trackpoint>
          <Trackpoint>
            <Time>2020-12-05T14:25:31.000Z</Time>
            <Position>
              <LatitudeDegrees>36.80338944308459758758544921875</LatitudeDegrees>
              <LongitudeDegrees>-4.3793819658458232879638671875</LongitudeDegrees>
            </Position>
            <AltitudeMeters>809.79998779296875</AltitudeMeters>
            <DistanceMeters>NAN</DistanceMeters>
          </Trackpoint>
          <Trackpoint>
            <Time>2020-12-05T14:25:32.000Z</Time>
            <Position>
              <LatitudeDegrees>36.80337921716272830963134765625</LatitudeDegrees>
              <LongitudeDegrees>-4.37938104383647441864013671875</LongitudeDegrees>
            </Position>
            <AltitudeMeters>809.5999755859375</AltitudeMeters>
            <DistanceMeters>NAN</DistanceMeters>
          </Trackpoint>
          <Trackpoint>
            <Time>2020-12-05T14:25:33.000Z</Time>
            <Position>
              <LatitudeDegrees>36.80336949415504932403564453125</LatitudeDegrees>
              <LongitudeDegrees>-4.37937752343714237213134765625</LongitudeDegrees>
            </Position>
            <AltitudeMeters>809.5999755859375</AltitudeMeters>
            <DistanceMeters>NAN</DistanceMeters>
          </Trackpoint>
          <Trackpoint>
            <Time>2020-12-05T14:25:34.000Z</Time>
            <Position>
              <LatitudeDegrees>36.80336060933768749237060546875</LatitudeDegrees>
              <LongitudeDegrees>-4.37937199138104915618896484375</LongitudeDegrees>
            </Position>
            <AltitudeMeters>809.20001220703125</AltitudeMeters>
            <DistanceMeters>NAN</DistanceMeters>
          </Trackpoint>
          <Trackpoint>
            <Time>2020-12-05T14:25:35.000Z</Time>
            <Position>
              <LatitudeDegrees>36.8033541552722454071044921875</LatitudeDegrees>
              <LongitudeDegrees>-4.379361011087894439697265625</LongitudeDegrees>
            </Position>
            <AltitudeMeters>808.79998779296875</AltitudeMeters>
            <DistanceMeters>NAN</DistanceMeters>
          </Trackpoint>
          <Trackpoint>
            <Time>2020-12-05T14:25:36.000Z</Time>
            <Position>
              <LatitudeDegrees>36.80334719829261302947998046875</LatitudeDegrees>
              <LongitudeDegrees>-4.3793501146137714385986328125</LongitudeDegrees>
            </Position>
            <AltitudeMeters>808.5999755859375</AltitudeMeters>
            <DistanceMeters>NAN</DistanceMeters>
          </Trackpoint>
          <Trackpoint>
            <Time>2020-12-05T14:25:37.000Z</Time>
            <Position>
              <LatitudeDegrees>36.80333890020847320556640625</LatitudeDegrees>
              <LongitudeDegrees>-4.37934030778706073760986328125</LongitudeDegrees>
            </Position>
            <AltitudeMeters>808.4000244140625</AltitudeMeters>
            <DistanceMeters>NAN</DistanceMeters>
          </Trackpoint>
          <Trackpoint>
            <Time>2020-12-05T14:25:38.000Z</Time>
            <Position>
              <LatitudeDegrees>36.80332724936306476593017578125</LatitudeDegrees>
              <LongitudeDegrees>-4.3793336860835552215576171875</LongitudeDegrees>
            </Position>
            <AltitudeMeters>808.20001220703125</AltitudeMeters>
            <DistanceMeters>NAN</DistanceMeters>
          </Trackpoint>
          <Trackpoint>
            <Time>2020-12-05T14:25:39.000Z</Time>
            <Position>
              <LatitudeDegrees>36.80331744253635406494140625</LatitudeDegrees>
              <LongitudeDegrees>-4.3793286569416522979736328125</LongitudeDegrees>
            </Position>
            <AltitudeMeters>808.20001220703125</AltitudeMeters>
            <DistanceMeters>NAN</DistanceMeters>
          </Trackpoint>
          <Trackpoint>
            <Time>2020-12-05T14:25:40.000Z</Time>
            <Position>
              <LatitudeDegrees>36.80330579169094562530517578125</LatitudeDegrees>
              <LongitudeDegrees>-4.379320107400417327880859375</LongitudeDegrees>
            </Position>
            <AltitudeMeters>808</AltitudeMeters>
            <DistanceMeters>NAN</DistanceMeters>
          </Trackpoint>
          <Trackpoint>
            <Time>2020-12-05T14:25:41.000Z</Time>
            <Position>
              <LatitudeDegrees>36.80329464375972747802734375</LatitudeDegrees>
              <LongitudeDegrees>-4.379312060773372650146484375</LongitudeDegrees>
            </Position>
            <AltitudeMeters>808</AltitudeMeters>
            <DistanceMeters>NAN</DistanceMeters>
          </Trackpoint>
          <Trackpoint>
            <Time>2020-12-05T14:25:42.000Z</Time>
            <Position>
              <LatitudeDegrees>36.80328659713268280029296875</LatitudeDegrees>
              <LongitudeDegrees>-4.3793021701276302337646484375</LongitudeDegrees>
            </Position>
            <AltitudeMeters>807.79998779296875</AltitudeMeters>
            <DistanceMeters>NAN</DistanceMeters>
          </Trackpoint>
          <Trackpoint>
            <Time>2020-12-05T14:25:43.000Z</Time>
            <Position>
              <LatitudeDegrees>36.8032770417630672454833984375</LatitudeDegrees>
              <LongitudeDegrees>-4.37929655425250530242919921875</LongitudeDegrees>
            </Position>
            <AltitudeMeters>807.79998779296875</AltitudeMeters>
            <DistanceMeters>NAN</DistanceMeters>
          </Trackpoint>
          <Trackpoint>
            <Time>2020-12-05T14:25:44.000Z</Time>
            <Position>
              <LatitudeDegrees>36.80326455272734165191650390625</LatitudeDegrees>
              <LongitudeDegrees>-4.37929253093898296356201171875</LongitudeDegrees>
            </Position>
            <AltitudeMeters>807.5999755859375</AltitudeMeters>
            <DistanceMeters>NAN</DistanceMeters>
          </Trackpoint>
          <Trackpoint>
            <Time>2020-12-05T14:25:45.000Z</Time>
            <Position>
              <LatitudeDegrees>36.80325172841548919677734375</LatitudeDegrees>
              <LongitudeDegrees>-4.37928800471127033233642578125</LongitudeDegrees>
            </Position>
            <AltitudeMeters>807.4000244140625</AltitudeMeters>
            <DistanceMeters>NAN</DistanceMeters>
          </Trackpoint>
          <Trackpoint>
            <Time>2020-12-05T14:25:46.000Z</Time>
            <Position>
              <LatitudeDegrees>36.80324099957942962646484375</LatitudeDegrees>
              <LongitudeDegrees>-4.37928280793130397796630859375</LongitudeDegrees>
            </Position>
            <AltitudeMeters>807.20001220703125</AltitudeMeters>
            <DistanceMeters>NAN</DistanceMeters>
          </Trackpoint>
          <Trackpoint>
            <Time>2020-12-05T14:25:47.000Z</Time>
            <Position>
              <LatitudeDegrees>36.80323219858109951019287109375</LatitudeDegrees>
              <LongitudeDegrees>-4.379281885921955108642578125</LongitudeDegrees>
            </Position>
            <AltitudeMeters>807.20001220703125</AltitudeMeters>
            <DistanceMeters>NAN</DistanceMeters>
          </Trackpoint>
          <Trackpoint>
            <Time>2020-12-05T14:25:48.000Z</Time>
            <Position>
              <LatitudeDegrees>36.80322096683084964752197265625</LatitudeDegrees>
              <LongitudeDegrees>-4.37927777878940105438232421875</LongitudeDegrees>
            </Position>
            <AltitudeMeters>807</AltitudeMeters>
            <DistanceMeters>NAN</DistanceMeters>
          </Trackpoint>
          <Trackpoint>
            <Time>2020-12-05T14:25:49.000Z</Time>
            <Position>
              <LatitudeDegrees>36.8032099865376949310302734375</LatitudeDegrees>
              <LongitudeDegrees>-4.37927308492362499237060546875</LongitudeDegrees>
            </Position>
            <AltitudeMeters>806.79998779296875</AltitudeMeters>
            <DistanceMeters>NAN</DistanceMeters>
          </Trackpoint>
          <Trackpoint>
            <Time>2020-12-05T14:25:50.000Z</Time>
            <Position>
              <LatitudeDegrees>36.80319682694971561431884765625</LatitudeDegrees>
              <LongitudeDegrees>-4.3792669661343097686767578125</LongitudeDegrees>
            </Position>
            <AltitudeMeters>806.4000244140625</AltitudeMeters>
            <DistanceMeters>NAN</DistanceMeters>
          </Trackpoint>
          <Trackpoint>
            <Time>2020-12-05T14:25:51.000Z</Time>
            <Position>
              <LatitudeDegrees>36.803183667361736297607421875</LatitudeDegrees>
              <LongitudeDegrees>-4.3792600929737091064453125</LongitudeDegrees>
            </Position>
            <AltitudeMeters>806.20001220703125</AltitudeMeters>
            <DistanceMeters>NAN</DistanceMeters>
          </Trackpoint>
          <Trackpoint>
            <Time>2020-12-05T14:25:52.000Z</Time>
            <Position>
              <LatitudeDegrees>36.8031697534024715423583984375</LatitudeDegrees>
              <LongitudeDegrees>-4.379254393279552459716796875</LongitudeDegrees>
            </Position>
            <AltitudeMeters>806</AltitudeMeters>
            <DistanceMeters>NAN</DistanceMeters>
          </Trackpoint>
          <Trackpoint>
            <Time>2020-12-05T14:25:53.000Z</Time>
            <Position>
              <LatitudeDegrees>36.8031563423573970794677734375</LatitudeDegrees>
              <LongitudeDegrees>-4.3792498670518398284912109375</LongitudeDegrees>
            </Position>
            <AltitudeMeters>805.79998779296875</AltitudeMeters>
            <DistanceMeters>NAN</DistanceMeters>
          </Trackpoint>
          <Trackpoint>
            <Time>2020-12-05T14:25:54.000Z</Time>
            <Position>
              <LatitudeDegrees>36.80314351804554462432861328125</LatitudeDegrees>
              <LongitudeDegrees>-4.37924601137638092041015625</LongitudeDegrees>
            </Position>
            <AltitudeMeters>805.79998779296875</AltitudeMeters>
            <DistanceMeters>NAN</DistanceMeters>
          </Trackpoint>
          <Trackpoint>
            <Time>2020-12-05T14:25:55.000Z</Time>
            <Position>
              <LatitudeDegrees>36.8031308613717555999755859375</LatitudeDegrees>
              <LongitudeDegrees>-4.37924240715801715850830078125</LongitudeDegrees>
            </Position>
            <AltitudeMeters>805.5999755859375</AltitudeMeters>
            <DistanceMeters>NAN</DistanceMeters>
          </Trackpoint>
          <Trackpoint>
            <Time>2020-12-05T14:25:56.000Z</Time>
            <Position>
              <LatitudeDegrees>36.80311736650764942169189453125</LatitudeDegrees>
              <LongitudeDegrees>-4.3792428262531757354736328125</LongitudeDegrees>
            </Position>
            <AltitudeMeters>805.5999755859375</AltitudeMeters>
            <DistanceMeters>NAN</DistanceMeters>
          </Trackpoint>
          <Trackpoint>
            <Time>2020-12-05T14:25:57.000Z</Time>
            <Position>
              <LatitudeDegrees>36.80310445837676525115966796875</LatitudeDegrees>
              <LongitudeDegrees>-4.37924441881477832794189453125</LongitudeDegrees>
            </Position>
            <AltitudeMeters>805.4000244140625</AltitudeMeters>
            <DistanceMeters>NAN</DistanceMeters>
          </Trackpoint>
          <Trackpoint>
            <Time>2020-12-05T14:25:58.000Z</Time>
            <Position>
              <LatitudeDegrees>36.803093142807483673095703125</LatitudeDegrees>
              <LongitudeDegrees>-4.37924492172896862030029296875</LongitudeDegrees>
            </Position>
            <AltitudeMeters>805.4000244140625</AltitudeMeters>
            <DistanceMeters>NAN</DistanceMeters>
          </Trackpoint>
          <Trackpoint>
            <Time>2020-12-05T14:25:59.000Z</Time>
            <Position>
              <LatitudeDegrees>36.80308149196207523345947265625</LatitudeDegrees>
              <LongitudeDegrees>-4.37924207188189029693603515625</LongitudeDegrees>
            </Position>
            <AltitudeMeters>805.20001220703125</AltitudeMeters>
            <DistanceMeters>NAN</DistanceMeters>
          </Trackpoint>
          <Trackpoint>
            <Time>2020-12-05T14:26:00.000Z</Time>
            <Position>
              <LatitudeDegrees>36.80307260714471340179443359375</LatitudeDegrees>
              <LongitudeDegrees>-4.3792300857603549957275390625</LongitudeDegrees>
            </Position>
            <AltitudeMeters>805.20001220703125</AltitudeMeters>
            <DistanceMeters>NAN</DistanceMeters>
          </Trackpoint>
          <Trackpoint>
            <Time>2020-12-05T14:26:01.000Z</Time>
            <Position>
              <LatitudeDegrees>36.80306305177509784698486328125</LatitudeDegrees>
              <LongitudeDegrees>-4.37920980155467987060546875</LongitudeDegrees>
            </Position>
            <AltitudeMeters>805.20001220703125</AltitudeMeters>
            <DistanceMeters>NAN</DistanceMeters>
          </Trackpoint>
          <Trackpoint>
            <Time>2020-12-05T14:26:02.000Z</Time>
            <Position>
              <LatitudeDegrees>36.8030507303774356842041015625</LatitudeDegrees>
              <LongitudeDegrees>-4.3791918642818927764892578125</LongitudeDegrees>
            </Position>
            <AltitudeMeters>805</AltitudeMeters>
            <DistanceMeters>NAN</DistanceMeters>
          </Trackpoint>
          <Trackpoint>
            <Time>2020-12-05T14:26:03.000Z</Time>
            <Position>
              <LatitudeDegrees>36.803039498627185821533203125</LatitudeDegrees>
              <LongitudeDegrees>-4.3791751004755496978759765625</LongitudeDegrees>
            </Position>
            <AltitudeMeters>805</AltitudeMeters>
            <DistanceMeters>NAN</DistanceMeters>
          </Trackpoint>
          <Trackpoint>
            <Time>2020-12-05T14:26:04.000Z</Time>
            <Position>
              <LatitudeDegrees>36.80302684195339679718017578125</LatitudeDegrees>
              <LongitudeDegrees>-4.37916076742112636566162109375</LongitudeDegrees>
            </Position>
            <AltitudeMeters>804.79998779296875</AltitudeMeters>
            <DistanceMeters>NAN</DistanceMeters>
          </Trackpoint>
          <Trackpoint>
            <Time>2020-12-05T14:26:05.000Z</Time>
            <Position>
              <LatitudeDegrees>36.80301359854638576507568359375</LatitudeDegrees>
              <LongitudeDegrees>-4.37915020622313022613525390625</LongitudeDegrees>
            </Position>
            <AltitudeMeters>804.4000244140625</AltitudeMeters>
            <DistanceMeters>NAN</DistanceMeters>
          </Trackpoint>
          <Trackpoint>
            <Time>2020-12-05T14:26:06.000Z</Time>
            <Position>
              <LatitudeDegrees>36.8030001036822795867919921875</LatitudeDegrees>
              <LongitudeDegrees>-4.37913872301578521728515625</LongitudeDegrees>
            </Position>
            <AltitudeMeters>804.20001220703125</AltitudeMeters>
            <DistanceMeters>NAN</DistanceMeters>
          </Trackpoint>
          <Trackpoint>
            <Time>2020-12-05T14:26:07.000Z</Time>
            <Position>
              <LatitudeDegrees>36.80298878811299800872802734375</LatitudeDegrees>
              <LongitudeDegrees>-4.37912925146520137786865234375</LongitudeDegrees>
            </Position>
            <AltitudeMeters>804</AltitudeMeters>
            <DistanceMeters>NAN</DistanceMeters>
          </Trackpoint>
          <Trackpoint>
            <Time>2020-12-05T14:26:08.000Z</Time>
            <Position>
              <LatitudeDegrees>36.80298023857176303863525390625</LatitudeDegrees>
              <LongitudeDegrees>-4.3791233003139495849609375</LongitudeDegrees>
            </Position>
            <AltitudeMeters>803.79998779296875</AltitudeMeters>
            <DistanceMeters>NAN</DistanceMeters>
          </Trackpoint>
          <Trackpoint>
            <Time>2020-12-05T14:26:09.000Z</Time>
            <Position>
              <LatitudeDegrees>36.80297235958278179168701171875</LatitudeDegrees>
              <LongitudeDegrees>-4.3791184388101100921630859375</LongitudeDegrees>
            </Position>
            <AltitudeMeters>803.79998779296875</AltitudeMeters>
            <DistanceMeters>NAN</DistanceMeters>
          </Trackpoint>
          <Trackpoint>
            <Time>2020-12-05T14:26:10.000Z</Time>
            <Position>
              <LatitudeDegrees>36.80296364240348339080810546875</LatitudeDegrees>
              <LongitudeDegrees>-4.379116594791412353515625</LongitudeDegrees>
            </Position>
            <AltitudeMeters>803.5999755859375</AltitudeMeters>
            <DistanceMeters>NAN</DistanceMeters>
          </Trackpoint>
          <Trackpoint>
            <Time>2020-12-05T14:26:11.000Z</Time>
            <Position>
              <LatitudeDegrees>36.80295777507126331329345703125</LatitudeDegrees>
              <LongitudeDegrees>-4.37911315821111202239990234375</LongitudeDegrees>
            </Position>
            <AltitudeMeters>803.20001220703125</AltitudeMeters>
            <DistanceMeters>NAN</DistanceMeters>
          </Trackpoint>
          <Trackpoint>
            <Time>2020-12-05T14:26:12.000Z</Time>
            <Position>
              <LatitudeDegrees>36.80294956080615520477294921875</LatitudeDegrees>
              <LongitudeDegrees>-4.3791110627353191375732421875</LongitudeDegrees>
            </Position>
            <AltitudeMeters>803.20001220703125</AltitudeMeters>
            <DistanceMeters>NAN</DistanceMeters>
          </Trackpoint>
          <Trackpoint>
            <Time>2020-12-05T14:26:13.000Z</Time>
            <Position>
              <LatitudeDegrees>36.80294101126492023468017578125</LatitudeDegrees>
              <LongitudeDegrees>-4.3791045248508453369140625</LongitudeDegrees>
            </Position>
            <AltitudeMeters>803</AltitudeMeters>
            <DistanceMeters>NAN</DistanceMeters>
          </Trackpoint>
          <Trackpoint>
            <Time>2020-12-05T14:26:14.000Z</Time>
            <Position>
              <LatitudeDegrees>36.80293397046625614166259765625</LatitudeDegrees>
              <LongitudeDegrees>-4.37909186817705631256103515625</LongitudeDegrees>
            </Position>
            <AltitudeMeters>803</AltitudeMeters>
            <DistanceMeters>NAN</DistanceMeters>
          </Trackpoint>
          <Trackpoint>
            <Time>2020-12-05T14:26:15.000Z</Time>
            <Position>
              <LatitudeDegrees>36.8029280193150043487548828125</LatitudeDegrees>
              <LongitudeDegrees>-4.37907644547522068023681640625</LongitudeDegrees>
            </Position>
            <AltitudeMeters>802.79998779296875</AltitudeMeters>
            <DistanceMeters>NAN</DistanceMeters>
          </Trackpoint>
          <Trackpoint>
            <Time>2020-12-05T14:26:16.000Z</Time>
            <Position>
              <LatitudeDegrees>36.802919469773769378662109375</LatitudeDegrees>
              <LongitudeDegrees>-4.37905934639275074005126953125</LongitudeDegrees>
            </Position>
            <AltitudeMeters>802.79998779296875</AltitudeMeters>
            <DistanceMeters>NAN</DistanceMeters>
          </Trackpoint>
          <Trackpoint>
            <Time>2020-12-05T14:26:17.000Z</Time>
            <Position>
              <LatitudeDegrees>36.80291083641350269317626953125</LatitudeDegrees>
              <LongitudeDegrees>-4.37905213795602321624755859375</LongitudeDegrees>
            </Position>
            <AltitudeMeters>802.79998779296875</AltitudeMeters>
            <DistanceMeters>NAN</DistanceMeters>
          </Trackpoint>
          <Trackpoint>
            <Time>2020-12-05T14:26:18.000Z</Time>
            <Position>
              <LatitudeDegrees>36.80290010757744312286376953125</LatitudeDegrees>
              <LongitudeDegrees>-4.3790466897189617156982421875</LongitudeDegrees>
            </Position>
            <AltitudeMeters>802.5999755859375</AltitudeMeters>
            <DistanceMeters>NAN</DistanceMeters>
          </Trackpoint>
          <Trackpoint>
            <Time>2020-12-05T14:26:19.000Z</Time>
            <Position>
              <LatitudeDegrees>36.80288786999881267547607421875</LatitudeDegrees>
              <LongitudeDegrees>-4.379043169319629669189453125</LongitudeDegrees>
            </Position>
            <AltitudeMeters>802.5999755859375</AltitudeMeters>
            <DistanceMeters>NAN</DistanceMeters>
          </Trackpoint>
          <Trackpoint>
            <Time>2020-12-05T14:26:20.000Z</Time>
            <Position>
              <LatitudeDegrees>36.80287663824856281280517578125</LatitudeDegrees>
              <LongitudeDegrees>-4.37903922982513904571533203125</LongitudeDegrees>
            </Position>
            <AltitudeMeters>802.5999755859375</AltitudeMeters>
            <DistanceMeters>NAN</DistanceMeters>
          </Trackpoint>
          <Trackpoint>
            <Time>2020-12-05T14:26:21.000Z</Time>
            <Position>
              <LatitudeDegrees>36.8028669990599155426025390625</LatitudeDegrees>
              <LongitudeDegrees>-4.37903654761612415313720703125</LongitudeDegrees>
            </Position>
            <AltitudeMeters>802.5999755859375</AltitudeMeters>
            <DistanceMeters>NAN</DistanceMeters>
          </Trackpoint>
          <Trackpoint>
            <Time>2020-12-05T14:26:22.000Z</Time>
            <Position>
              <LatitudeDegrees>36.80285987444221973419189453125</LatitudeDegrees>
              <LongitudeDegrees>-4.37903386540710926055908203125</LongitudeDegrees>
            </Position>
            <AltitudeMeters>802.5999755859375</AltitudeMeters>
            <DistanceMeters>NAN</DistanceMeters>
          </Trackpoint>
          <Trackpoint>
            <Time>2020-12-05T14:26:23.000Z</Time>
            <Position>
              <LatitudeDegrees>36.80285199545323848724365234375</LatitudeDegrees>
              <LongitudeDegrees>-4.3790305964648723602294921875</LongitudeDegrees>
            </Position>
            <AltitudeMeters>802.5999755859375</AltitudeMeters>
            <DistanceMeters>NAN</DistanceMeters>
          </Trackpoint>
          <Trackpoint>
            <Time>2020-12-05T14:26:24.000Z</Time>
            <Position>
              <LatitudeDegrees>36.8028425239026546478271484375</LatitudeDegrees>
              <LongitudeDegrees>-4.37902598641812801361083984375</LongitudeDegrees>
            </Position>
            <AltitudeMeters>802.5999755859375</AltitudeMeters>
            <DistanceMeters>NAN</DistanceMeters>
          </Trackpoint>
          <Trackpoint>
            <Time>2020-12-05T14:26:25.000Z</Time>
            <Position>
              <LatitudeDegrees>36.8028328008949756622314453125</LatitudeDegrees>
              <LongitudeDegrees>-4.37902196310460567474365234375</LongitudeDegrees>
            </Position>
            <AltitudeMeters>802.79998779296875</AltitudeMeters>
            <DistanceMeters>NAN</DistanceMeters>
          </Trackpoint>
          <Trackpoint>
            <Time>2020-12-05T14:26:26.000Z</Time>
            <Position>
              <LatitudeDegrees>36.80282123386859893798828125</LatitudeDegrees>
              <LongitudeDegrees>-4.379014670848846435546875</LongitudeDegrees>
            </Position>
            <AltitudeMeters>802.79998779296875</AltitudeMeters>
            <DistanceMeters>NAN</DistanceMeters>
          </Trackpoint>
          <Trackpoint>
            <Time>2020-12-05T14:26:27.000Z</Time>
            <Position>
              <LatitudeDegrees>36.80280891247093677520751953125</LatitudeDegrees>
              <LongitudeDegrees>-4.37900570221245288848876953125</LongitudeDegrees>
            </Position>
            <AltitudeMeters>802.79998779296875</AltitudeMeters>
            <DistanceMeters>NAN</DistanceMeters>
          </Trackpoint>
          <Trackpoint>
            <Time>2020-12-05T14:26:28.000Z</Time>
            <Position>
              <LatitudeDegrees>36.80279650725424289703369140625</LatitudeDegrees>
              <LongitudeDegrees>-4.37899564392864704132080078125</LongitudeDegrees>
            </Position>
            <AltitudeMeters>802.79998779296875</AltitudeMeters>
            <DistanceMeters>NAN</DistanceMeters>
          </Trackpoint>
          <Trackpoint>
            <Time>2020-12-05T14:26:29.000Z</Time>
            <Position>
              <LatitudeDegrees>36.80278376676142215728759765625</LatitudeDegrees>
              <LongitudeDegrees>-4.37898491509258747100830078125</LongitudeDegrees>
            </Position>
            <AltitudeMeters>802.79998779296875</AltitudeMeters>
            <DistanceMeters>NAN</DistanceMeters>
          </Trackpoint>
          <Trackpoint>
            <Time>2020-12-05T14:26:30.000Z</Time>
            <Position>
              <LatitudeDegrees>36.8027694337069988250732421875</LatitudeDegrees>
              <LongitudeDegrees>-4.37897435389459133148193359375</LongitudeDegrees>
            </Position>
            <AltitudeMeters>803</AltitudeMeters>
            <DistanceMeters>NAN</DistanceMeters>
          </Trackpoint>
          <Trackpoint>
            <Time>2020-12-05T14:26:31.000Z</Time>
            <Position>
              <LatitudeDegrees>36.80275560356676578521728515625</LatitudeDegrees>
              <LongitudeDegrees>-4.3789632059633731842041015625</LongitudeDegrees>
            </Position>
            <AltitudeMeters>803.20001220703125</AltitudeMeters>
            <DistanceMeters>NAN</DistanceMeters>
          </Trackpoint>
          <Trackpoint>
            <Time>2020-12-05T14:26:32.000Z</Time>
            <Position>
              <LatitudeDegrees>36.802743785083293914794921875</LatitudeDegrees>
              <LongitudeDegrees>-4.3789531476795673370361328125</LongitudeDegrees>
            </Position>
            <AltitudeMeters>803.4000244140625</AltitudeMeters>
            <DistanceMeters>NAN</DistanceMeters>
          </Trackpoint>
          <Trackpoint>
            <Time>2020-12-05T14:26:33.000Z</Time>
            <Position>
              <LatitudeDegrees>36.80273448117077350616455078125</LatitudeDegrees>
              <LongitudeDegrees>-4.37894434668123722076416015625</LongitudeDegrees>
            </Position>
            <AltitudeMeters>803.5999755859375</AltitudeMeters>
            <DistanceMeters>NAN</DistanceMeters>
          </Trackpoint>
          <Trackpoint>
            <Time>2020-12-05T14:26:34.000Z</Time>
            <Position>
              <LatitudeDegrees>36.80272425524890422821044921875</LatitudeDegrees>
              <LongitudeDegrees>-4.3789383955299854278564453125</LongitudeDegrees>
            </Position>
            <AltitudeMeters>803.5999755859375</AltitudeMeters>
            <DistanceMeters>NAN</DistanceMeters>
          </Trackpoint>
          <Trackpoint>
            <Time>2020-12-05T14:26:35.000Z</Time>
            <Position>
              <LatitudeDegrees>36.80271335877478122711181640625</LatitudeDegrees>
              <LongitudeDegrees>-4.37893378548324108123779296875</LongitudeDegrees>
            </Position>
            <AltitudeMeters>803.5999755859375</AltitudeMeters>
            <DistanceMeters>NAN</DistanceMeters>
          </Trackpoint>
          <Trackpoint>
            <Time>2020-12-05T14:26:36.000Z</Time>
            <Position>
              <LatitudeDegrees>36.80270112119615077972412109375</LatitudeDegrees>
              <LongitudeDegrees>-4.37893110327422618865966796875</LongitudeDegrees>
            </Position>
            <AltitudeMeters>803.5999755859375</AltitudeMeters>
            <DistanceMeters>NAN</DistanceMeters>
          </Trackpoint>
          <Trackpoint>
            <Time>2020-12-05T14:26:37.000Z</Time>
            <Position>
              <LatitudeDegrees>36.802687458693981170654296875</LatitudeDegrees>
              <LongitudeDegrees>-4.3789290077984333038330078125</LongitudeDegrees>
            </Position>
            <AltitudeMeters>803.4000244140625</AltitudeMeters>
            <DistanceMeters>NAN</DistanceMeters>
          </Trackpoint>
          <Trackpoint>
            <Time>2020-12-05T14:26:38.000Z</Time>
            <Position>
              <LatitudeDegrees>36.802673377096652984619140625</LatitudeDegrees>
              <LongitudeDegrees>-4.3789273314177989959716796875</LongitudeDegrees>
            </Position>
            <AltitudeMeters>803.20001220703125</AltitudeMeters>
            <DistanceMeters>NAN</DistanceMeters>
          </Trackpoint>
          <Trackpoint>
            <Time>2020-12-05T14:26:39.000Z</Time>
            <Position>
              <LatitudeDegrees>36.80265652947127819061279296875</LatitudeDegrees>
              <LongitudeDegrees>-4.37892322428524494171142578125</LongitudeDegrees>
            </Position>
            <AltitudeMeters>803</AltitudeMeters>
            <DistanceMeters>NAN</DistanceMeters>
          </Trackpoint>
          <Trackpoint>
            <Time>2020-12-05T14:26:40.000Z</Time>
            <Position>
              <LatitudeDegrees>36.80264093913137912750244140625</LatitudeDegrees>
              <LongitudeDegrees>-4.37891903333365917205810546875</LongitudeDegrees>
            </Position>
            <AltitudeMeters>802.79998779296875</AltitudeMeters>
            <DistanceMeters>NAN</DistanceMeters>
          </Trackpoint>
          <Trackpoint>
            <Time>2020-12-05T14:26:41.000Z</Time>
            <Position>
              <LatitudeDegrees>36.80262484587728977203369140625</LatitudeDegrees>
              <LongitudeDegrees>-4.37891249544918537139892578125</LongitudeDegrees>
            </Position>
            <AltitudeMeters>802.79998779296875</AltitudeMeters>
            <DistanceMeters>NAN</DistanceMeters>
          </Trackpoint>
          <Trackpoint>
            <Time>2020-12-05T14:26:42.000Z</Time>
            <Position>
              <LatitudeDegrees>36.8026105128228664398193359375</LatitudeDegrees>
              <LongitudeDegrees>-4.37890042550861835479736328125</LongitudeDegrees>
            </Position>
            <AltitudeMeters>802.5999755859375</AltitudeMeters>
            <DistanceMeters>NAN</DistanceMeters>
          </Trackpoint>
          <Trackpoint>
            <Time>2020-12-05T14:26:43.000Z</Time>
            <Position>
              <LatitudeDegrees>36.80259685032069683074951171875</LatitudeDegrees>
              <LongitudeDegrees>-4.3788907863199710845947265625</LongitudeDegrees>
            </Position>
            <AltitudeMeters>802.5999755859375</AltitudeMeters>
            <DistanceMeters>NAN</DistanceMeters>
          </Trackpoint>
          <Trackpoint>
            <Time>2020-12-05T14:26:44.000Z</Time>
            <Position>
              <LatitudeDegrees>36.80258427746593952178955078125</LatitudeDegrees>
              <LongitudeDegrees>-4.37888081185519695281982421875</LongitudeDegrees>
            </Position>
            <AltitudeMeters>802.5999755859375</AltitudeMeters>
            <DistanceMeters>NAN</DistanceMeters>
          </Trackpoint>
          <Trackpoint>
            <Time>2020-12-05T14:26:45.000Z</Time>
            <Position>
              <LatitudeDegrees>36.80257338099181652069091796875</LatitudeDegrees>
              <LongitudeDegrees>-4.3788730166852474212646484375</LongitudeDegrees>
            </Position>
            <AltitudeMeters>802.5999755859375</AltitudeMeters>
            <DistanceMeters>NAN</DistanceMeters>
          </Trackpoint>
          <Trackpoint>
            <Time>2020-12-05T14:26:46.000Z</Time>
            <Position>
              <LatitudeDegrees>36.80256248451769351959228515625</LatitudeDegrees>
              <LongitudeDegrees>-4.37886538915336132049560546875</LongitudeDegrees>
            </Position>
            <AltitudeMeters>802.4000244140625</AltitudeMeters>
            <DistanceMeters>NAN</DistanceMeters>
          </Trackpoint>
          <Trackpoint>
            <Time>2020-12-05T14:26:47.000Z</Time>
            <Position>
              <LatitudeDegrees>36.8025515042245388031005859375</LatitudeDegrees>
              <LongitudeDegrees>-4.37885843217372894287109375</LongitudeDegrees>
            </Position>
            <AltitudeMeters>802.4000244140625</AltitudeMeters>
            <DistanceMeters>NAN</DistanceMeters>
          </Trackpoint>
          <Trackpoint>
            <Time>2020-12-05T14:26:48.000Z</Time>
            <Position>
              <LatitudeDegrees>36.802539266645908355712890625</LatitudeDegrees>
              <LongitudeDegrees>-4.3788508884608745574951171875</LongitudeDegrees>
            </Position>
            <AltitudeMeters>802.20001220703125</AltitudeMeters>
            <DistanceMeters>NAN</DistanceMeters>
          </Trackpoint>
          <Trackpoint>
            <Time>2020-12-05T14:26:49.000Z</Time>
            <Position>
              <LatitudeDegrees>36.802526526153087615966796875</LatitudeDegrees>
              <LongitudeDegrees>-4.37884376384317874908447265625</LongitudeDegrees>
            </Position>
            <AltitudeMeters>802</AltitudeMeters>
            <DistanceMeters>NAN</DistanceMeters>
          </Trackpoint>
          <Trackpoint>
            <Time>2020-12-05T14:26:50.000Z</Time>
            <Position>
              <LatitudeDegrees>36.80251412093639373779296875</LatitudeDegrees>
              <LongitudeDegrees>-4.3788378126919269561767578125</LongitudeDegrees>
            </Position>
            <AltitudeMeters>802</AltitudeMeters>
            <DistanceMeters>NAN</DistanceMeters>
          </Trackpoint>
          <Trackpoint>
            <Time>2020-12-05T14:26:51.000Z</Time>
            <Position>
              <LatitudeDegrees>36.80250146426260471343994140625</LatitudeDegrees>
              <LongitudeDegrees>-4.378831945359706878662109375</LongitudeDegrees>
            </Position>
            <AltitudeMeters>801.79998779296875</AltitudeMeters>
            <DistanceMeters>NAN</DistanceMeters>
          </Trackpoint>
          <Trackpoint>
            <Time>2020-12-05T14:26:52.000Z</Time>
            <Position>
              <LatitudeDegrees>36.80249123834073543548583984375</LatitudeDegrees>
              <LongitudeDegrees>-4.37882398255169391632080078125</LongitudeDegrees>
            </Position>
            <AltitudeMeters>801.5999755859375</AltitudeMeters>
            <DistanceMeters>NAN</DistanceMeters>
          </Trackpoint>
          <Trackpoint>
            <Time>2020-12-05T14:26:53.000Z</Time>
            <Position>
              <LatitudeDegrees>36.80247916840016841888427734375</LatitudeDegrees>
              <LongitudeDegrees>-4.37881593592464923858642578125</LongitudeDegrees>
            </Position>
            <AltitudeMeters>801.4000244140625</AltitudeMeters>
            <DistanceMeters>NAN</DistanceMeters>
          </Trackpoint>
          <Trackpoint>
            <Time>2020-12-05T14:26:54.000Z</Time>
            <Position>
              <LatitudeDegrees>36.8024678528308868408203125</LatitudeDegrees>
              <LongitudeDegrees>-4.37880747020244598388671875</LongitudeDegrees>
            </Position>
            <AltitudeMeters>801.4000244140625</AltitudeMeters>
            <DistanceMeters>NAN</DistanceMeters>
          </Trackpoint>
          <Trackpoint>
            <Time>2020-12-05T14:26:55.000Z</Time>
            <Position>
              <LatitudeDegrees>36.80245603434741497039794921875</LatitudeDegrees>
              <LongitudeDegrees>-4.3787995912134647369384765625</LongitudeDegrees>
            </Position>
            <AltitudeMeters>801.20001220703125</AltitudeMeters>
            <DistanceMeters>NAN</DistanceMeters>
          </Trackpoint>
          <Trackpoint>
            <Time>2020-12-05T14:26:56.000Z</Time>
            <Position>
              <LatitudeDegrees>36.80244262330234050750732421875</LatitudeDegrees>
              <LongitudeDegrees>-4.37878710217773914337158203125</LongitudeDegrees>
            </Position>
            <AltitudeMeters>801.20001220703125</AltitudeMeters>
            <DistanceMeters>NAN</DistanceMeters>
          </Trackpoint>
          <Trackpoint>
            <Time>2020-12-05T14:26:57.000Z</Time>
            <Position>
              <LatitudeDegrees>36.8024331517517566680908203125</LatitudeDegrees>
              <LongitudeDegrees>-4.37877452932298183441162109375</LongitudeDegrees>
            </Position>
            <AltitudeMeters>801</AltitudeMeters>
            <DistanceMeters>NAN</DistanceMeters>
          </Trackpoint>
          <Trackpoint>
            <Time>2020-12-05T14:26:58.000Z</Time>
            <Position>
              <LatitudeDegrees>36.8024247698485851287841796875</LatitudeDegrees>
              <LongitudeDegrees>-4.378760196268558502197265625</LongitudeDegrees>
            </Position>
            <AltitudeMeters>800.79998779296875</AltitudeMeters>
            <DistanceMeters>NAN</DistanceMeters>
          </Trackpoint>
          <Trackpoint>
            <Time>2020-12-05T14:26:59.000Z</Time>
            <Position>
              <LatitudeDegrees>36.8024160526692867279052734375</LatitudeDegrees>
              <LongitudeDegrees>-4.37874854542315006256103515625</LongitudeDegrees>
            </Position>
            <AltitudeMeters>800.5999755859375</AltitudeMeters>
            <DistanceMeters>NAN</DistanceMeters>
          </Trackpoint>
          <Trackpoint>
            <Time>2020-12-05T14:27:00.000Z</Time>
            <Position>
              <LatitudeDegrees>36.80240473710000514984130859375</LatitudeDegrees>
              <LongitudeDegrees>-4.3787379004061222076416015625</LongitudeDegrees>
            </Position>
            <AltitudeMeters>800.5999755859375</AltitudeMeters>
            <DistanceMeters>NAN</DistanceMeters>
          </Trackpoint>
          <Trackpoint>
            <Time>2020-12-05T14:27:01.000Z</Time>
            <Position>
              <LatitudeDegrees>36.80239249952137470245361328125</LatitudeDegrees>
              <LongitudeDegrees>-4.37873345799744129180908203125</LongitudeDegrees>
            </Position>
            <AltitudeMeters>800.4000244140625</AltitudeMeters>
            <DistanceMeters>NAN</DistanceMeters>
          </Trackpoint>
          <Trackpoint>
            <Time>2020-12-05T14:27:02.000Z</Time>
            <Position>
              <LatitudeDegrees>36.802381686866283416748046875</LatitudeDegrees>
              <LongitudeDegrees>-4.37873370945453643798828125</LongitudeDegrees>
            </Position>
            <AltitudeMeters>800.4000244140625</AltitudeMeters>
            <DistanceMeters>NAN</DistanceMeters>
          </Trackpoint>
          <Trackpoint>
            <Time>2020-12-05T14:27:03.000Z</Time>
            <Position>
              <LatitudeDegrees>36.80237188003957271575927734375</LatitudeDegrees>
              <LongitudeDegrees>-4.3787316977977752685546875</LongitudeDegrees>
            </Position>
            <AltitudeMeters>800.4000244140625</AltitudeMeters>
            <DistanceMeters>NAN</DistanceMeters>
          </Trackpoint>
          <Trackpoint>
            <Time>2020-12-05T14:27:04.000Z</Time>
            <Position>
              <LatitudeDegrees>36.80236215703189373016357421875</LatitudeDegrees>
              <LongitudeDegrees>-4.3787263333797454833984375</LongitudeDegrees>
            </Position>
            <AltitudeMeters>800.4000244140625</AltitudeMeters>
            <DistanceMeters>NAN</DistanceMeters>
          </Trackpoint>
          <Trackpoint>
            <Time>2020-12-05T14:27:05.000Z</Time>
            <Position>
              <LatitudeDegrees>36.8023523502051830291748046875</LatitudeDegrees>
              <LongitudeDegrees>-4.37871350906789302825927734375</LongitudeDegrees>
            </Position>
            <AltitudeMeters>800.4000244140625</AltitudeMeters>
            <DistanceMeters>NAN</DistanceMeters>
          </Trackpoint>
          <Trackpoint>
            <Time>2020-12-05T14:27:06.000Z</Time>
            <Position>
              <LatitudeDegrees>36.8023429624736309051513671875</LatitudeDegrees>
              <LongitudeDegrees>-4.37870328314602375030517578125</LongitudeDegrees>
            </Position>
            <AltitudeMeters>800.20001220703125</AltitudeMeters>
            <DistanceMeters>NAN</DistanceMeters>
          </Trackpoint>
          <Trackpoint>
            <Time>2020-12-05T14:27:07.000Z</Time>
            <Position>
              <LatitudeDegrees>36.80233550257980823516845703125</LatitudeDegrees>
              <LongitudeDegrees>-4.37869288958609104156494140625</LongitudeDegrees>
            </Position>
            <AltitudeMeters>800</AltitudeMeters>
            <DistanceMeters>NAN</DistanceMeters>
          </Trackpoint>
          <Trackpoint>
            <Time>2020-12-05T14:27:08.000Z</Time>
            <Position>
              <LatitudeDegrees>36.8023275397717952728271484375</LatitudeDegrees>
              <LongitudeDegrees>-4.37868081964552402496337890625</LongitudeDegrees>
            </Position>
            <AltitudeMeters>799.79998779296875</AltitudeMeters>
            <DistanceMeters>NAN</DistanceMeters>
          </Trackpoint>
          <Trackpoint>
            <Time>2020-12-05T14:27:09.000Z</Time>
            <Position>
              <LatitudeDegrees>36.80231991223990917205810546875</LatitudeDegrees>
              <LongitudeDegrees>-4.3786691688001155853271484375</LongitudeDegrees>
            </Position>
            <AltitudeMeters>799.79998779296875</AltitudeMeters>
            <DistanceMeters>NAN</DistanceMeters>
          </Trackpoint>
          <Trackpoint>
            <Time>2020-12-05T14:27:10.000Z</Time>
            <Position>
              <LatitudeDegrees>36.80231169797480106353759765625</LatitudeDegrees>
              <LongitudeDegrees>-4.37865952961146831512451171875</LongitudeDegrees>
            </Position>
            <AltitudeMeters>799.5999755859375</AltitudeMeters>
            <DistanceMeters>NAN</DistanceMeters>
          </Trackpoint>
          <Trackpoint>
            <Time>2020-12-05T14:27:11.000Z</Time>
            <Position>
              <LatitudeDegrees>36.80230398662388324737548828125</LatitudeDegrees>
              <LongitudeDegrees>-4.3786467052996158599853515625</LongitudeDegrees>
            </Position>
            <AltitudeMeters>799.4000244140625</AltitudeMeters>
            <DistanceMeters>NAN</DistanceMeters>
          </Trackpoint>
          <Trackpoint>
            <Time>2020-12-05T14:27:12.000Z</Time>
            <Position>
              <LatitudeDegrees>36.80229543708264827728271484375</LatitudeDegrees>
              <LongitudeDegrees>-4.378631450235843658447265625</LongitudeDegrees>
            </Position>
            <AltitudeMeters>799.4000244140625</AltitudeMeters>
            <DistanceMeters>NAN</DistanceMeters>
          </Trackpoint>
          <Trackpoint>
            <Time>2020-12-05T14:27:13.000Z</Time>
            <Position>
              <LatitudeDegrees>36.8022842891514301300048828125</LatitudeDegrees>
              <LongitudeDegrees>-4.37862080521881580352783203125</LongitudeDegrees>
            </Position>
            <AltitudeMeters>799.4000244140625</AltitudeMeters>
            <DistanceMeters>NAN</DistanceMeters>
          </Trackpoint>
          <Trackpoint>
            <Time>2020-12-05T14:27:14.000Z</Time>
            <Position>
              <LatitudeDegrees>36.802273727953433990478515625</LatitudeDegrees>
              <LongitudeDegrees>-4.37861225567758083343505859375</LongitudeDegrees>
            </Position>
            <AltitudeMeters>799.4000244140625</AltitudeMeters>
            <DistanceMeters>NAN</DistanceMeters>
          </Trackpoint>
          <Trackpoint>
            <Time>2020-12-05T14:27:15.000Z</Time>
            <Position>
              <LatitudeDegrees>36.80226241238415241241455078125</LatitudeDegrees>
              <LongitudeDegrees>-4.37860387377440929412841796875</LongitudeDegrees>
            </Position>
            <AltitudeMeters>799.4000244140625</AltitudeMeters>
            <DistanceMeters>NAN</DistanceMeters>
          </Trackpoint>
          <Trackpoint>
            <Time>2020-12-05T14:27:16.000Z</Time>
            <Position>
              <LatitudeDegrees>36.8022500909864902496337890625</LatitudeDegrees>
              <LongitudeDegrees>-4.37859700061380863189697265625</LongitudeDegrees>
            </Position>
            <AltitudeMeters>799.20001220703125</AltitudeMeters>
            <DistanceMeters>NAN</DistanceMeters>
          </Trackpoint>
          <Trackpoint>
            <Time>2020-12-05T14:27:17.000Z</Time>
            <Position>
              <LatitudeDegrees>36.8022400327026844024658203125</LatitudeDegrees>
              <LongitudeDegrees>-4.37859021127223968505859375</LongitudeDegrees>
            </Position>
            <AltitudeMeters>799.20001220703125</AltitudeMeters>
            <DistanceMeters>NAN</DistanceMeters>
          </Trackpoint>
          <Trackpoint>
            <Time>2020-12-05T14:27:18.000Z</Time>
            <Position>
              <LatitudeDegrees>36.80223005823791027069091796875</LatitudeDegrees>
              <LongitudeDegrees>-4.37858526594936847686767578125</LongitudeDegrees>
            </Position>
            <AltitudeMeters>799.20001220703125</AltitudeMeters>
            <DistanceMeters>NAN</DistanceMeters>
          </Trackpoint>
          <Trackpoint>
            <Time>2020-12-05T14:27:19.000Z</Time>
            <Position>
              <LatitudeDegrees>36.802220083773136138916015625</LatitudeDegrees>
              <LongitudeDegrees>-4.37858526594936847686767578125</LongitudeDegrees>
            </Position>
            <AltitudeMeters>799</AltitudeMeters>
            <DistanceMeters>NAN</DistanceMeters>
          </Trackpoint>
          <Trackpoint>
            <Time>2020-12-05T14:27:20.000Z</Time>
            <Position>
              <LatitudeDegrees>36.80220893584191799163818359375</LatitudeDegrees>
              <LongitudeDegrees>-4.37858375720679759979248046875</LongitudeDegrees>
            </Position>
            <AltitudeMeters>799</AltitudeMeters>
            <DistanceMeters>NAN</DistanceMeters>
          </Trackpoint>
          <Trackpoint>
            <Time>2020-12-05T14:27:21.000Z</Time>
            <Position>
              <LatitudeDegrees>36.80219686590135097503662109375</LatitudeDegrees>
              <LongitudeDegrees>-4.3785843439400196075439453125</LongitudeDegrees>
            </Position>
            <AltitudeMeters>798.79998779296875</AltitudeMeters>
            <DistanceMeters>NAN</DistanceMeters>
          </Trackpoint>
          <Trackpoint>
            <Time>2020-12-05T14:27:22.000Z</Time>
            <Position>
              <LatitudeDegrees>36.80218379013240337371826171875</LatitudeDegrees>
              <LongitudeDegrees>-4.37857856042683124542236328125</LongitudeDegrees>
            </Position>
            <AltitudeMeters>798.5999755859375</AltitudeMeters>
            <DistanceMeters>NAN</DistanceMeters>
          </Trackpoint>
          <Trackpoint>
            <Time>2020-12-05T14:27:23.000Z</Time>
            <Position>
              <LatitudeDegrees>36.80217021144926548004150390625</LatitudeDegrees>
              <LongitudeDegrees>-4.3785675801336765289306640625</LongitudeDegrees>
            </Position>
            <AltitudeMeters>798.4000244140625</AltitudeMeters>
            <DistanceMeters>NAN</DistanceMeters>
          </Trackpoint>
          <Trackpoint>
            <Time>2020-12-05T14:27:24.000Z</Time>
            <Position>
              <LatitudeDegrees>36.802156381309032440185546875</LatitudeDegrees>
              <LongitudeDegrees>-4.3785558454692363739013671875</LongitudeDegrees>
            </Position>
            <AltitudeMeters>798.20001220703125</AltitudeMeters>
            <DistanceMeters>NAN</DistanceMeters>
          </Trackpoint>
          <Trackpoint>
            <Time>2020-12-05T14:27:25.000Z</Time>
            <Position>
              <LatitudeDegrees>36.80213861167430877685546875</LatitudeDegrees>
              <LongitudeDegrees>-4.37854855321347713470458984375</LongitudeDegrees>
            </Position>
            <AltitudeMeters>798</AltitudeMeters>
            <DistanceMeters>NAN</DistanceMeters>
          </Trackpoint>
          <Trackpoint>
            <Time>2020-12-05T14:27:26.000Z</Time>
            <Position>
              <LatitudeDegrees>36.80211908183991909027099609375</LatitudeDegrees>
              <LongitudeDegrees>-4.37854327261447906494140625</LongitudeDegrees>
            </Position>
            <AltitudeMeters>797.79998779296875</AltitudeMeters>
            <DistanceMeters>NAN</DistanceMeters>
          </Trackpoint>
          <Trackpoint>
            <Time>2020-12-05T14:27:27.000Z</Time>
            <Position>
              <LatitudeDegrees>36.8021018989384174346923828125</LatitudeDegrees>
              <LongitudeDegrees>-4.37853832729160785675048828125</LongitudeDegrees>
            </Position>
            <AltitudeMeters>797.5999755859375</AltitudeMeters>
            <DistanceMeters>NAN</DistanceMeters>
          </Trackpoint>
          <Trackpoint>
            <Time>2020-12-05T14:27:28.000Z</Time>
            <Position>
              <LatitudeDegrees>36.802087984979152679443359375</LatitudeDegrees>
              <LongitudeDegrees>-4.3785350583493709564208984375</LongitudeDegrees>
            </Position>
            <AltitudeMeters>797.4000244140625</AltitudeMeters>
            <DistanceMeters>NAN</DistanceMeters>
          </Trackpoint>
          <Trackpoint>
            <Time>2020-12-05T14:27:29.000Z</Time>
            <Position>
              <LatitudeDegrees>36.80206996388733386993408203125</LatitudeDegrees>
              <LongitudeDegrees>-4.37852692790329456329345703125</LongitudeDegrees>
            </Position>
            <AltitudeMeters>797.20001220703125</AltitudeMeters>
            <DistanceMeters>NAN</DistanceMeters>
          </Trackpoint>
          <Trackpoint>
            <Time>2020-12-05T14:27:30.000Z</Time>
            <Position>
              <LatitudeDegrees>36.802053786814212799072265625</LatitudeDegrees>
              <LongitudeDegrees>-4.37852290458977222442626953125</LongitudeDegrees>
            </Position>
            <AltitudeMeters>797.20001220703125</AltitudeMeters>
            <DistanceMeters>NAN</DistanceMeters>
          </Trackpoint>
          <Trackpoint>
            <Time>2020-12-05T14:27:31.000Z</Time>
            <Position>
              <LatitudeDegrees>36.80203626863658428192138671875</LatitudeDegrees>
              <LongitudeDegrees>-4.37852139584720134735107421875</LongitudeDegrees>
            </Position>
            <AltitudeMeters>797</AltitudeMeters>
            <DistanceMeters>NAN</DistanceMeters>
          </Trackpoint>
          <Trackpoint>
            <Time>2020-12-05T14:27:32.000Z</Time>
            <Position>
              <LatitudeDegrees>36.80202017538249492645263671875</LatitudeDegrees>
              <LongitudeDegrees>-4.37852357514202594757080078125</LongitudeDegrees>
            </Position>
            <AltitudeMeters>797</AltitudeMeters>
            <DistanceMeters>NAN</DistanceMeters>
          </Trackpoint>
          <Trackpoint>
            <Time>2020-12-05T14:27:33.000Z</Time>
            <Position>
              <LatitudeDegrees>36.80200559087097644805908203125</LatitudeDegrees>
              <LongitudeDegrees>-4.37852608971297740936279296875</LongitudeDegrees>
            </Position>
            <AltitudeMeters>796.79998779296875</AltitudeMeters>
            <DistanceMeters>NAN</DistanceMeters>
          </Trackpoint>
          <Trackpoint>
            <Time>2020-12-05T14:27:34.000Z</Time>
            <Position>
              <LatitudeDegrees>36.80199318565428256988525390625</LatitudeDegrees>
              <LongitudeDegrees>-4.3785273469984531402587890625</LongitudeDegrees>
            </Position>
            <AltitudeMeters>796.4000244140625</AltitudeMeters>
            <DistanceMeters>NAN</DistanceMeters>
          </Trackpoint>
          <Trackpoint>
            <Time>2020-12-05T14:27:35.000Z</Time>
            <Position>
              <LatitudeDegrees>36.8019796907901763916015625</LatitudeDegrees>
              <LongitudeDegrees>-4.37853145413100719451904296875</LongitudeDegrees>
            </Position>
            <AltitudeMeters>796</AltitudeMeters>
            <DistanceMeters>NAN</DistanceMeters>
          </Trackpoint>
          <Trackpoint>
            <Time>2020-12-05T14:27:36.000Z</Time>
            <Position>
              <LatitudeDegrees>36.801964603364467620849609375</LatitudeDegrees>
              <LongitudeDegrees>-4.37853698618710041046142578125</LongitudeDegrees>
            </Position>
            <AltitudeMeters>795.79998779296875</AltitudeMeters>
            <DistanceMeters>NAN</DistanceMeters>
          </Trackpoint>
          <Trackpoint>
            <Time>2020-12-05T14:27:37.000Z</Time>
            <Position>
              <LatitudeDegrees>36.8019493483006954193115234375</LatitudeDegrees>
              <LongitudeDegrees>-4.378544278442859649658203125</LongitudeDegrees>
            </Position>
            <AltitudeMeters>795.5999755859375</AltitudeMeters>
            <DistanceMeters>NAN</DistanceMeters>
          </Trackpoint>
          <Trackpoint>
            <Time>2020-12-05T14:27:38.000Z</Time>
            <Position>
              <LatitudeDegrees>36.801938116550445556640625</LatitudeDegrees>
              <LongitudeDegrees>-4.37854939140379428863525390625</LongitudeDegrees>
            </Position>
            <AltitudeMeters>795.4000244140625</AltitudeMeters>
            <DistanceMeters>NAN</DistanceMeters>
          </Trackpoint>
          <Trackpoint>
            <Time>2020-12-05T14:27:39.000Z</Time>
            <Position>
              <LatitudeDegrees>36.80192671716213226318359375</LatitudeDegrees>
              <LongitudeDegrees>-4.37855827622115612030029296875</LongitudeDegrees>
            </Position>
            <AltitudeMeters>795.20001220703125</AltitudeMeters>
            <DistanceMeters>NAN</DistanceMeters>
          </Trackpoint>
          <Trackpoint>
            <Time>2020-12-05T14:27:40.000Z</Time>
            <Position>
              <LatitudeDegrees>36.80191540159285068511962890625</LatitudeDegrees>
              <LongitudeDegrees>-4.3785695917904376983642578125</LongitudeDegrees>
            </Position>
            <AltitudeMeters>795</AltitudeMeters>
            <DistanceMeters>NAN</DistanceMeters>
          </Trackpoint>
          <Trackpoint>
            <Time>2020-12-05T14:27:41.000Z</Time>
            <Position>
              <LatitudeDegrees>36.80190316401422023773193359375</LatitudeDegrees>
              <LongitudeDegrees>-4.3785799853503704071044921875</LongitudeDegrees>
            </Position>
            <AltitudeMeters>794.5999755859375</AltitudeMeters>
            <DistanceMeters>NAN</DistanceMeters>
          </Trackpoint>
          <Trackpoint>
            <Time>2020-12-05T14:27:42.000Z</Time>
            <Position>
              <LatitudeDegrees>36.8018950335681438446044921875</LatitudeDegrees>
              <LongitudeDegrees>-4.37859029509127140045166015625</LongitudeDegrees>
            </Position>
            <AltitudeMeters>794.4000244140625</AltitudeMeters>
            <DistanceMeters>NAN</DistanceMeters>
          </Trackpoint>
          <Trackpoint>
            <Time>2020-12-05T14:27:43.000Z</Time>
            <Position>
              <LatitudeDegrees>36.80188740603625774383544921875</LatitudeDegrees>
              <LongitudeDegrees>-4.37860102392733097076416015625</LongitudeDegrees>
            </Position>
            <AltitudeMeters>794.20001220703125</AltitudeMeters>
            <DistanceMeters>NAN</DistanceMeters>
          </Trackpoint>
          <Trackpoint>
            <Time>2020-12-05T14:27:44.000Z</Time>
            <Position>
              <LatitudeDegrees>36.80187701247632503509521484375</LatitudeDegrees>
              <LongitudeDegrees>-4.3786172010004520416259765625</LongitudeDegrees>
            </Position>
            <AltitudeMeters>794.20001220703125</AltitudeMeters>
            <DistanceMeters>NAN</DistanceMeters>
          </Trackpoint>
          <Trackpoint>
            <Time>2020-12-05T14:27:45.000Z</Time>
            <Position>
              <LatitudeDegrees>36.80186427198350429534912109375</LatitudeDegrees>
              <LongitudeDegrees>-4.3786349706351757049560546875</LongitudeDegrees>
            </Position>
            <AltitudeMeters>794.20001220703125</AltitudeMeters>
            <DistanceMeters>NAN</DistanceMeters>
          </Trackpoint>
          <Trackpoint>
            <Time>2020-12-05T14:27:46.000Z</Time>
            <Position>
              <LatitudeDegrees>36.80185287259519100189208984375</LatitudeDegrees>
              <LongitudeDegrees>-4.378649555146694183349609375</LongitudeDegrees>
            </Position>
            <AltitudeMeters>794.20001220703125</AltitudeMeters>
            <DistanceMeters>NAN</DistanceMeters>
          </Trackpoint>
          <Trackpoint>
            <Time>2020-12-05T14:27:47.000Z</Time>
            <Position>
              <LatitudeDegrees>36.80184356868267059326171875</LatitudeDegrees>
              <LongitudeDegrees>-4.3786614574491977691650390625</LongitudeDegrees>
            </Position>
            <AltitudeMeters>794.4000244140625</AltitudeMeters>
            <DistanceMeters>NAN</DistanceMeters>
          </Trackpoint>
          <Trackpoint>
            <Time>2020-12-05T14:27:48.000Z</Time>
            <Position>
              <LatitudeDegrees>36.80183175019919872283935546875</LatitudeDegrees>
              <LongitudeDegrees>-4.37867679633200168609619140625</LongitudeDegrees>
            </Position>
            <AltitudeMeters>794.4000244140625</AltitudeMeters>
            <DistanceMeters>NAN</DistanceMeters>
          </Trackpoint>
          <Trackpoint>
            <Time>2020-12-05T14:27:49.000Z</Time>
            <Position>
              <LatitudeDegrees>36.80181808769702911376953125</LatitudeDegrees>
              <LongitudeDegrees>-4.3786929734051227569580078125</LongitudeDegrees>
            </Position>
            <AltitudeMeters>794.4000244140625</AltitudeMeters>
            <DistanceMeters>NAN</DistanceMeters>
          </Trackpoint>
          <Trackpoint>
            <Time>2020-12-05T14:27:50.000Z</Time>
            <Position>
              <LatitudeDegrees>36.8018038384616374969482421875</LatitudeDegrees>
              <LongitudeDegrees>-4.378709234297275543212890625</LongitudeDegrees>
            </Position>
            <AltitudeMeters>794.4000244140625</AltitudeMeters>
            <DistanceMeters>NAN</DistanceMeters>
          </Trackpoint>
          <Trackpoint>
            <Time>2020-12-05T14:27:51.000Z</Time>
            <Position>
              <LatitudeDegrees>36.801794953644275665283203125</LatitudeDegrees>
              <LongitudeDegrees>-4.3787181191146373748779296875</LongitudeDegrees>
            </Position>
            <AltitudeMeters>794.4000244140625</AltitudeMeters>
            <DistanceMeters>NAN</DistanceMeters>
          </Trackpoint>
          <Trackpoint>
            <Time>2020-12-05T14:27:52.000Z</Time>
            <Position>
              <LatitudeDegrees>36.8017860688269138336181640625</LatitudeDegrees>
              <LongitudeDegrees>-4.3787265010178089141845703125</LongitudeDegrees>
            </Position>
            <AltitudeMeters>794.20001220703125</AltitudeMeters>
            <DistanceMeters>NAN</DistanceMeters>
          </Trackpoint>
          <Trackpoint>
            <Time>2020-12-05T14:27:53.000Z</Time>
            <Position>
              <LatitudeDegrees>36.80177592672407627105712890625</LatitudeDegrees>
              <LongitudeDegrees>-4.37873966060578823089599609375</LongitudeDegrees>
            </Position>
            <AltitudeMeters>793.79998779296875</AltitudeMeters>
            <DistanceMeters>NAN</DistanceMeters>
          </Trackpoint>
          <Trackpoint>
            <Time>2020-12-05T14:27:54.000Z</Time>
            <Position>
              <LatitudeDegrees>36.80176402442157268524169921875</LatitudeDegrees>
              <LongitudeDegrees>-4.37875307165086269378662109375</LongitudeDegrees>
            </Position>
            <AltitudeMeters>793.5999755859375</AltitudeMeters>
            <DistanceMeters>NAN</DistanceMeters>
          </Trackpoint>
          <Trackpoint>
            <Time>2020-12-05T14:27:55.000Z</Time>
            <Position>
              <LatitudeDegrees>36.80175396613776683807373046875</LatitudeDegrees>
              <LongitudeDegrees>-4.37875927425920963287353515625</LongitudeDegrees>
            </Position>
            <AltitudeMeters>793.4000244140625</AltitudeMeters>
            <DistanceMeters>NAN</DistanceMeters>
          </Trackpoint>
          <Trackpoint>
            <Time>2020-12-05T14:27:56.000Z</Time>
            <Position>
              <LatitudeDegrees>36.80174491368234157562255859375</LatitudeDegrees>
              <LongitudeDegrees>-4.3787694163620471954345703125</LongitudeDegrees>
            </Position>
            <AltitudeMeters>793</AltitudeMeters>
            <DistanceMeters>NAN</DistanceMeters>
          </Trackpoint>
          <Trackpoint>
            <Time>2020-12-05T14:27:57.000Z</Time>
            <Position>
              <LatitudeDegrees>36.80173619650304317474365234375</LatitudeDegrees>
              <LongitudeDegrees>-4.37877922318875789642333984375</LongitudeDegrees>
            </Position>
            <AltitudeMeters>792.5999755859375</AltitudeMeters>
            <DistanceMeters>NAN</DistanceMeters>
          </Trackpoint>
          <Trackpoint>
            <Time>2020-12-05T14:27:58.000Z</Time>
            <Position>
              <LatitudeDegrees>36.8017260544002056121826171875</LatitudeDegrees>
              <LongitudeDegrees>-4.3787918798625469207763671875</LongitudeDegrees>
            </Position>
            <AltitudeMeters>792.4000244140625</AltitudeMeters>
            <DistanceMeters>NAN</DistanceMeters>
          </Trackpoint>
          <Trackpoint>
            <Time>2020-12-05T14:27:59.000Z</Time>
            <Position>
              <LatitudeDegrees>36.80171859450638294219970703125</LatitudeDegrees>
              <LongitudeDegrees>-4.3787985853850841522216796875</LongitudeDegrees>
            </Position>
            <AltitudeMeters>792.20001220703125</AltitudeMeters>
            <DistanceMeters>NAN</DistanceMeters>
          </Trackpoint>
          <Trackpoint>
            <Time>2020-12-05T14:28:00.000Z</Time>
            <Position>
              <LatitudeDegrees>36.8017109669744968414306640625</LatitudeDegrees>
              <LongitudeDegrees>-4.378805793821811676025390625</LongitudeDegrees>
            </Position>
            <AltitudeMeters>792</AltitudeMeters>
            <DistanceMeters>NAN</DistanceMeters>
          </Trackpoint>
          <Trackpoint>
            <Time>2020-12-05T14:28:01.000Z</Time>
            <Position>
              <LatitudeDegrees>36.80170183070003986358642578125</LatitudeDegrees>
              <LongitudeDegrees>-4.3788187019526958465576171875</LongitudeDegrees>
            </Position>
            <AltitudeMeters>791.79998779296875</AltitudeMeters>
            <DistanceMeters>NAN</DistanceMeters>
          </Trackpoint>
          <Trackpoint>
            <Time>2020-12-05T14:28:02.000Z</Time>
            <Position>
              <LatitudeDegrees>36.8016931973397731781005859375</LatitudeDegrees>
              <LongitudeDegrees>-4.37883504666388034820556640625</LongitudeDegrees>
            </Position>
            <AltitudeMeters>791.4000244140625</AltitudeMeters>
            <DistanceMeters>NAN</DistanceMeters>
          </Trackpoint>
          <Trackpoint>
            <Time>2020-12-05T14:28:03.000Z</Time>
            <Position>
              <LatitudeDegrees>36.80168523453176021575927734375</LatitudeDegrees>
              <LongitudeDegrees>-4.37884728424251079559326171875</LongitudeDegrees>
            </Position>
            <AltitudeMeters>791.20001220703125</AltitudeMeters>
            <DistanceMeters>NAN</DistanceMeters>
          </Trackpoint>
          <Trackpoint>
            <Time>2020-12-05T14:28:04.000Z</Time>
            <Position>
              <LatitudeDegrees>36.8016766011714935302734375</LatitudeDegrees>
              <LongitudeDegrees>-4.37886379659175872802734375</LongitudeDegrees>
            </Position>
            <AltitudeMeters>791.20001220703125</AltitudeMeters>
            <DistanceMeters>NAN</DistanceMeters>
          </Trackpoint>
          <Trackpoint>
            <Time>2020-12-05T14:28:05.000Z</Time>
            <Position>
              <LatitudeDegrees>36.8016677163541316986083984375</LatitudeDegrees>
              <LongitudeDegrees>-4.37888299115002155303955078125</LongitudeDegrees>
            </Position>
            <AltitudeMeters>791</AltitudeMeters>
            <DistanceMeters>NAN</DistanceMeters>
          </Trackpoint>
          <Trackpoint>
            <Time>2020-12-05T14:28:06.000Z</Time>
            <Position>
              <LatitudeDegrees>36.80166109465062618255615234375</LatitudeDegrees>
              <LongitudeDegrees>-4.3789005093276500701904296875</LongitudeDegrees>
            </Position>
            <AltitudeMeters>790.79998779296875</AltitudeMeters>
            <DistanceMeters>NAN</DistanceMeters>
          </Trackpoint>
          <Trackpoint>
            <Time>2020-12-05T14:28:07.000Z</Time>
            <Position>
              <LatitudeDegrees>36.80165581405162811279296875</LatitudeDegrees>
              <LongitudeDegrees>-4.3789129145443439483642578125</LongitudeDegrees>
            </Position>
            <AltitudeMeters>790.79998779296875</AltitudeMeters>
            <DistanceMeters>NAN</DistanceMeters>
          </Trackpoint>
          <Trackpoint>
            <Time>2020-12-05T14:28:08.000Z</Time>
            <Position>
              <LatitudeDegrees>36.80164776742458343505859375</LatitudeDegrees>
              <LongitudeDegrees>-4.3789269961416721343994140625</LongitudeDegrees>
            </Position>
            <AltitudeMeters>790.79998779296875</AltitudeMeters>
            <DistanceMeters>NAN</DistanceMeters>
          </Trackpoint>
          <Trackpoint>
            <Time>2020-12-05T14:28:09.000Z</Time>
            <Position>
              <LatitudeDegrees>36.80163729004561901092529296875</LatitudeDegrees>
              <LongitudeDegrees>-4.37894426286220550537109375</LongitudeDegrees>
            </Position>
            <AltitudeMeters>790.79998779296875</AltitudeMeters>
            <DistanceMeters>NAN</DistanceMeters>
          </Trackpoint>
          <Trackpoint>
            <Time>2020-12-05T14:28:10.000Z</Time>
            <Position>
              <LatitudeDegrees>36.801629327237606048583984375</LatitudeDegrees>
              <LongitudeDegrees>-4.378953985869884490966796875</LongitudeDegrees>
            </Position>
            <AltitudeMeters>790.79998779296875</AltitudeMeters>
            <DistanceMeters>NAN</DistanceMeters>
          </Trackpoint>
          <Trackpoint>
            <Time>2020-12-05T14:28:11.000Z</Time>
            <Position>
              <LatitudeDegrees>36.80162169970571994781494140625</LatitudeDegrees>
              <LongitudeDegrees>-4.3789658881723880767822265625</LongitudeDegrees>
            </Position>
            <AltitudeMeters>790.79998779296875</AltitudeMeters>
            <DistanceMeters>NAN</DistanceMeters>
          </Trackpoint>
          <Trackpoint>
            <Time>2020-12-05T14:28:12.000Z</Time>
            <Position>
              <LatitudeDegrees>36.80161566473543643951416015625</LatitudeDegrees>
              <LongitudeDegrees>-4.37897988595068454742431640625</LongitudeDegrees>
            </Position>
            <AltitudeMeters>790.79998779296875</AltitudeMeters>
            <DistanceMeters>NAN</DistanceMeters>
          </Trackpoint>
          <Trackpoint>
            <Time>2020-12-05T14:28:13.000Z</Time>
            <Position>
              <LatitudeDegrees>36.8016100488603115081787109375</LatitudeDegrees>
              <LongitudeDegrees>-4.3789984099566936492919921875</LongitudeDegrees>
            </Position>
            <AltitudeMeters>790.79998779296875</AltitudeMeters>
            <DistanceMeters>NAN</DistanceMeters>
          </Trackpoint>
          <Trackpoint>
            <Time>2020-12-05T14:28:14.000Z</Time>
            <Position>
              <LatitudeDegrees>36.80160510353744029998779296875</LatitudeDegrees>
              <LongitudeDegrees>-4.37901358120143413543701171875</LongitudeDegrees>
            </Position>
            <AltitudeMeters>790.5999755859375</AltitudeMeters>
            <DistanceMeters>NAN</DistanceMeters>
          </Trackpoint>
          <Trackpoint>
            <Time>2020-12-05T14:28:15.000Z</Time>
            <Position>
              <LatitudeDegrees>36.8015976436436176300048828125</LatitudeDegrees>
              <LongitudeDegrees>-4.3790321052074432373046875</LongitudeDegrees>
            </Position>
            <AltitudeMeters>790.4000244140625</AltitudeMeters>
            <DistanceMeters>NAN</DistanceMeters>
          </Trackpoint>
          <Trackpoint>
            <Time>2020-12-05T14:28:16.000Z</Time>
            <Position>
              <LatitudeDegrees>36.80159051902592182159423828125</LatitudeDegrees>
              <LongitudeDegrees>-4.3790535628795623779296875</LongitudeDegrees>
            </Position>
            <AltitudeMeters>790.4000244140625</AltitudeMeters>
            <DistanceMeters>NAN</DistanceMeters>
          </Trackpoint>
          <Trackpoint>
            <Time>2020-12-05T14:28:17.000Z</Time>
            <Position>
              <LatitudeDegrees>36.80158398114144802093505859375</LatitudeDegrees>
              <LongitudeDegrees>-4.37907300889492034912109375</LongitudeDegrees>
            </Position>
            <AltitudeMeters>790.20001220703125</AltitudeMeters>
            <DistanceMeters>NAN</DistanceMeters>
          </Trackpoint>
          <Trackpoint>
            <Time>2020-12-05T14:28:18.000Z</Time>
            <Position>
              <LatitudeDegrees>36.80158012546598911285400390625</LatitudeDegrees>
              <LongitudeDegrees>-4.37908667139708995819091796875</LongitudeDegrees>
            </Position>
            <AltitudeMeters>790.20001220703125</AltitudeMeters>
            <DistanceMeters>NAN</DistanceMeters>
          </Trackpoint>
          <Trackpoint>
            <Time>2020-12-05T14:28:19.000Z</Time>
            <Position>
              <LatitudeDegrees>36.80157341994345188140869140625</LatitudeDegrees>
              <LongitudeDegrees>-4.37910343520343303680419921875</LongitudeDegrees>
            </Position>
            <AltitudeMeters>790</AltitudeMeters>
            <DistanceMeters>NAN</DistanceMeters>
          </Trackpoint>
          <Trackpoint>
            <Time>2020-12-05T14:28:20.000Z</Time>
            <Position>
              <LatitudeDegrees>36.80156570859253406524658203125</LatitudeDegrees>
              <LongitudeDegrees>-4.37912003137171268463134765625</LongitudeDegrees>
            </Position>
            <AltitudeMeters>790</AltitudeMeters>
            <DistanceMeters>NAN</DistanceMeters>
          </Trackpoint>
          <Trackpoint>
            <Time>2020-12-05T14:28:21.000Z</Time>
            <Position>
              <LatitudeDegrees>36.80155799724161624908447265625</LatitudeDegrees>
              <LongitudeDegrees>-4.37913193367421627044677734375</LongitudeDegrees>
            </Position>
            <AltitudeMeters>790</AltitudeMeters>
            <DistanceMeters>NAN</DistanceMeters>
          </Trackpoint>
          <Trackpoint>
            <Time>2020-12-05T14:28:22.000Z</Time>
            <Position>
              <LatitudeDegrees>36.80155120790004730224609375</LatitudeDegrees>
              <LongitudeDegrees>-4.37914350070059299468994140625</LongitudeDegrees>
            </Position>
            <AltitudeMeters>790</AltitudeMeters>
            <DistanceMeters>NAN</DistanceMeters>
          </Trackpoint>
          <Trackpoint>
            <Time>2020-12-05T14:28:23.000Z</Time>
            <Position>
              <LatitudeDegrees>36.80154341273009777069091796875</LatitudeDegrees>
              <LongitudeDegrees>-4.37915590591728687286376953125</LongitudeDegrees>
            </Position>
            <AltitudeMeters>790</AltitudeMeters>
            <DistanceMeters>NAN</DistanceMeters>
          </Trackpoint>
          <Trackpoint>
            <Time>2020-12-05T14:28:24.000Z</Time>
            <Position>
              <LatitudeDegrees>36.80153804831206798553466796875</LatitudeDegrees>
              <LongitudeDegrees>-4.37916956841945648193359375</LongitudeDegrees>
            </Position>
            <AltitudeMeters>790</AltitudeMeters>
            <DistanceMeters>NAN</DistanceMeters>
          </Trackpoint>
          <Trackpoint>
            <Time>2020-12-05T14:28:25.000Z</Time>
            <Position>
              <LatitudeDegrees>36.80153301917016506195068359375</LatitudeDegrees>
              <LongitudeDegrees>-4.37918297946453094482421875</LongitudeDegrees>
            </Position>
            <AltitudeMeters>790</AltitudeMeters>
            <DistanceMeters>NAN</DistanceMeters>
          </Trackpoint>
          <Trackpoint>
            <Time>2020-12-05T14:28:26.000Z</Time>
            <Position>
              <LatitudeDegrees>36.8015269003808498382568359375</LatitudeDegrees>
              <LongitudeDegrees>-4.37919513322412967681884765625</LongitudeDegrees>
            </Position>
            <AltitudeMeters>789.79998779296875</AltitudeMeters>
            <DistanceMeters>NAN</DistanceMeters>
          </Trackpoint>
          <Trackpoint>
            <Time>2020-12-05T14:28:27.000Z</Time>
            <Position>
              <LatitudeDegrees>36.80151944048702716827392578125</LatitudeDegrees>
              <LongitudeDegrees>-4.37920577824115753173828125</LongitudeDegrees>
            </Position>
            <AltitudeMeters>789.4000244140625</AltitudeMeters>
            <DistanceMeters>NAN</DistanceMeters>
          </Trackpoint>
          <Trackpoint>
            <Time>2020-12-05T14:28:28.000Z</Time>
            <Position>
              <LatitudeDegrees>36.801516003906726837158203125</LatitudeDegrees>
              <LongitudeDegrees>-4.37921340577304363250732421875</LongitudeDegrees>
            </Position>
            <AltitudeMeters>789.4000244140625</AltitudeMeters>
            <DistanceMeters>NAN</DistanceMeters>
          </Trackpoint>
          <Trackpoint>
            <Time>2020-12-05T14:28:29.000Z</Time>
            <Position>
              <LatitudeDegrees>36.80151038803160190582275390625</LatitudeDegrees>
              <LongitudeDegrees>-4.37921977601945400238037109375</LongitudeDegrees>
            </Position>
            <AltitudeMeters>789</AltitudeMeters>
            <DistanceMeters>NAN</DistanceMeters>
          </Trackpoint>
          <Trackpoint>
            <Time>2020-12-05T14:28:30.000Z</Time>
            <Position>
              <LatitudeDegrees>36.80150753818452358245849609375</LatitudeDegrees>
              <LongitudeDegrees>-4.37923167832195758819580078125</LongitudeDegrees>
            </Position>
            <AltitudeMeters>788.79998779296875</AltitudeMeters>
            <DistanceMeters>NAN</DistanceMeters>
          </Trackpoint>
          <Trackpoint>
            <Time>2020-12-05T14:28:31.000Z</Time>
            <Position>
              <LatitudeDegrees>36.80150351487100124359130859375</LatitudeDegrees>
              <LongitudeDegrees>-4.3792411498725414276123046875</LongitudeDegrees>
            </Position>
            <AltitudeMeters>789</AltitudeMeters>
            <DistanceMeters>NAN</DistanceMeters>
          </Trackpoint>
          <Trackpoint>
            <Time>2020-12-05T14:28:32.000Z</Time>
            <Position>
              <LatitudeDegrees>36.801499910652637481689453125</LatitudeDegrees>
              <LongitudeDegrees>-4.37925213016569614410400390625</LongitudeDegrees>
            </Position>
            <AltitudeMeters>789</AltitudeMeters>
            <DistanceMeters>NAN</DistanceMeters>
          </Trackpoint>
          <Trackpoint>
            <Time>2020-12-05T14:28:33.000Z</Time>
            <Position>
              <LatitudeDegrees>36.801495216786861419677734375</LatitudeDegrees>
              <LongitudeDegrees>-4.37926554121077060699462890625</LongitudeDegrees>
            </Position>
            <AltitudeMeters>789.20001220703125</AltitudeMeters>
            <DistanceMeters>NAN</DistanceMeters>
          </Trackpoint>
          <Trackpoint>
            <Time>2020-12-05T14:28:34.000Z</Time>
            <Position>
              <LatitudeDegrees>36.8014896847307682037353515625</LatitudeDegrees>
              <LongitudeDegrees>-4.3792756833136081695556640625</LongitudeDegrees>
            </Position>
            <AltitudeMeters>789.4000244140625</AltitudeMeters>
            <DistanceMeters>NAN</DistanceMeters>
          </Trackpoint>
          <Trackpoint>
            <Time>2020-12-05T14:28:35.000Z</Time>
            <Position>
              <LatitudeDegrees>36.80148172192275524139404296875</LatitudeDegrees>
              <LongitudeDegrees>-4.3792890943586826324462890625</LongitudeDegrees>
            </Position>
            <AltitudeMeters>789.5999755859375</AltitudeMeters>
            <DistanceMeters>NAN</DistanceMeters>
          </Trackpoint>
          <Trackpoint>
            <Time>2020-12-05T14:28:36.000Z</Time>
            <Position>
              <LatitudeDegrees>36.8014705739915370941162109375</LatitudeDegrees>
              <LongitudeDegrees>-4.37930225394666194915771484375</LongitudeDegrees>
            </Position>
            <AltitudeMeters>789.5999755859375</AltitudeMeters>
            <DistanceMeters>NAN</DistanceMeters>
          </Trackpoint>
          <Trackpoint>
            <Time>2020-12-05T14:28:37.000Z</Time>
            <Position>
              <LatitudeDegrees>36.80145825259387493133544921875</LatitudeDegrees>
              <LongitudeDegrees>-4.379314072430133819580078125</LongitudeDegrees>
            </Position>
            <AltitudeMeters>789.5999755859375</AltitudeMeters>
            <DistanceMeters>NAN</DistanceMeters>
          </Trackpoint>
          <Trackpoint>
            <Time>2020-12-05T14:28:38.000Z</Time>
            <Position>
              <LatitudeDegrees>36.8014471046626567840576171875</LatitudeDegrees>
              <LongitudeDegrees>-4.37932454980909824371337890625</LongitudeDegrees>
            </Position>
            <AltitudeMeters>789.5999755859375</AltitudeMeters>
            <DistanceMeters>NAN</DistanceMeters>
          </Trackpoint>
          <Trackpoint>
            <Time>2020-12-05T14:28:39.000Z</Time>
            <Position>
              <LatitudeDegrees>36.80143964476883411407470703125</LatitudeDegrees>
              <LongitudeDegrees>-4.379333518445491790771484375</LongitudeDegrees>
            </Position>
            <AltitudeMeters>789.5999755859375</AltitudeMeters>
            <DistanceMeters>NAN</DistanceMeters>
          </Trackpoint>
          <Trackpoint>
            <Time>2020-12-05T14:28:40.000Z</Time>
            <Position>
              <LatitudeDegrees>36.801433861255645751953125</LatitudeDegrees>
              <LongitudeDegrees>-4.37934298999607563018798828125</LongitudeDegrees>
            </Position>
            <AltitudeMeters>789.5999755859375</AltitudeMeters>
            <DistanceMeters>NAN</DistanceMeters>
          </Trackpoint>
          <Trackpoint>
            <Time>2020-12-05T14:28:41.000Z</Time>
            <Position>
              <LatitudeDegrees>36.80142782628536224365234375</LatitudeDegrees>
              <LongitudeDegrees>-4.3793511204421520233154296875</LongitudeDegrees>
            </Position>
            <AltitudeMeters>789.5999755859375</AltitudeMeters>
            <DistanceMeters>NAN</DistanceMeters>
          </Trackpoint>
          <Trackpoint>
            <Time>2020-12-05T14:28:42.000Z</Time>
            <Position>
              <LatitudeDegrees>36.801421456038951873779296875</LatitudeDegrees>
              <LongitudeDegrees>-4.37935891561210155487060546875</LongitudeDegrees>
            </Position>
            <AltitudeMeters>789.5999755859375</AltitudeMeters>
            <DistanceMeters>NAN</DistanceMeters>
          </Trackpoint>
          <Trackpoint>
            <Time>2020-12-05T14:28:43.000Z</Time>
            <Position>
              <LatitudeDegrees>36.8014142476022243499755859375</LatitudeDegrees>
              <LongitudeDegrees>-4.37936897389590740203857421875</LongitudeDegrees>
            </Position>
            <AltitudeMeters>789.5999755859375</AltitudeMeters>
            <DistanceMeters>NAN</DistanceMeters>
          </Trackpoint>
          <Trackpoint>
            <Time>2020-12-05T14:28:44.000Z</Time>
            <Position>
              <LatitudeDegrees>36.8014065362513065338134765625</LatitudeDegrees>
              <LongitudeDegrees>-4.37938204966485500335693359375</LongitudeDegrees>
            </Position>
            <AltitudeMeters>789.4000244140625</AltitudeMeters>
            <DistanceMeters>NAN</DistanceMeters>
          </Trackpoint>
          <Trackpoint>
            <Time>2020-12-05T14:28:45.000Z</Time>
            <Position>
              <LatitudeDegrees>36.80139840580523014068603515625</LatitudeDegrees>
              <LongitudeDegrees>-4.3793963827192783355712890625</LongitudeDegrees>
            </Position>
            <AltitudeMeters>789.4000244140625</AltitudeMeters>
            <DistanceMeters>NAN</DistanceMeters>
          </Trackpoint>
          <Trackpoint>
            <Time>2020-12-05T14:28:46.000Z</Time>
            <Position>
              <LatitudeDegrees>36.80139002390205860137939453125</LatitudeDegrees>
              <LongitudeDegrees>-4.37941004522144794464111328125</LongitudeDegrees>
            </Position>
            <AltitudeMeters>789</AltitudeMeters>
            <DistanceMeters>NAN</DistanceMeters>
          </Trackpoint>
          <Trackpoint>
            <Time>2020-12-05T14:28:47.000Z</Time>
            <Position>
              <LatitudeDegrees>36.80138348601758480072021484375</LatitudeDegrees>
              <LongitudeDegrees>-4.37942169606685638427734375</LongitudeDegrees>
            </Position>
            <AltitudeMeters>789</AltitudeMeters>
            <DistanceMeters>NAN</DistanceMeters>
          </Trackpoint>
          <Trackpoint>
            <Time>2020-12-05T14:28:48.000Z</Time>
            <Position>
              <LatitudeDegrees>36.80137778632342815399169921875</LatitudeDegrees>
              <LongitudeDegrees>-4.37943317927420139312744140625</LongitudeDegrees>
            </Position>
            <AltitudeMeters>788.79998779296875</AltitudeMeters>
            <DistanceMeters>NAN</DistanceMeters>
          </Trackpoint>
          <Trackpoint>
            <Time>2020-12-05T14:28:49.000Z</Time>
            <Position>
              <LatitudeDegrees>36.80137158371508121490478515625</LatitudeDegrees>
              <LongitudeDegrees>-4.37944625504314899444580078125</LongitudeDegrees>
            </Position>
            <AltitudeMeters>788.5999755859375</AltitudeMeters>
            <DistanceMeters>NAN</DistanceMeters>
          </Trackpoint>
          <Trackpoint>
            <Time>2020-12-05T14:28:50.000Z</Time>
            <Position>
              <LatitudeDegrees>36.80136387236416339874267578125</LatitudeDegrees>
              <LongitudeDegrees>-4.37946100719273090362548828125</LongitudeDegrees>
            </Position>
            <AltitudeMeters>788.5999755859375</AltitudeMeters>
            <DistanceMeters>NAN</DistanceMeters>
          </Trackpoint>
          <Trackpoint>
            <Time>2020-12-05T14:28:51.000Z</Time>
            <Position>
              <LatitudeDegrees>36.80135632865130901336669921875</LatitudeDegrees>
              <LongitudeDegrees>-4.37947575934231281280517578125</LongitudeDegrees>
            </Position>
            <AltitudeMeters>788.4000244140625</AltitudeMeters>
            <DistanceMeters>NAN</DistanceMeters>
          </Trackpoint>
          <Trackpoint>
            <Time>2020-12-05T14:28:52.000Z</Time>
            <Position>
              <LatitudeDegrees>36.8013502098619937896728515625</LatitudeDegrees>
              <LongitudeDegrees>-4.37948766164481639862060546875</LongitudeDegrees>
            </Position>
            <AltitudeMeters>788.20001220703125</AltitudeMeters>
            <DistanceMeters>NAN</DistanceMeters>
          </Trackpoint>
          <Trackpoint>
            <Time>2020-12-05T14:28:53.000Z</Time>
            <Position>
              <LatitudeDegrees>36.8013438396155834197998046875</LatitudeDegrees>
              <LongitudeDegrees>-4.379499144852161407470703125</LongitudeDegrees>
            </Position>
            <AltitudeMeters>787.79998779296875</AltitudeMeters>
            <DistanceMeters>NAN</DistanceMeters>
          </Trackpoint>
          <Trackpoint>
            <Time>2020-12-05T14:28:54.000Z</Time>
            <Position>
              <LatitudeDegrees>36.80133637972176074981689453125</LatitudeDegrees>
              <LongitudeDegrees>-4.379508532583713531494140625</LongitudeDegrees>
            </Position>
            <AltitudeMeters>787.5999755859375</AltitudeMeters>
            <DistanceMeters>NAN</DistanceMeters>
          </Trackpoint>
          <Trackpoint>
            <Time>2020-12-05T14:28:55.000Z</Time>
            <Position>
              <LatitudeDegrees>36.80132900364696979522705078125</LatitudeDegrees>
              <LongitudeDegrees>-4.3795180879533290863037109375</LongitudeDegrees>
            </Position>
            <AltitudeMeters>787.5999755859375</AltitudeMeters>
            <DistanceMeters>NAN</DistanceMeters>
          </Trackpoint>
          <Trackpoint>
            <Time>2020-12-05T14:28:56.000Z</Time>
            <Position>
              <LatitudeDegrees>36.80132296867668628692626953125</LatitudeDegrees>
              <LongitudeDegrees>-4.3795294873416423797607421875</LongitudeDegrees>
            </Position>
            <AltitudeMeters>787.4000244140625</AltitudeMeters>
            <DistanceMeters>NAN</DistanceMeters>
          </Trackpoint>
          <Trackpoint>
            <Time>2020-12-05T14:28:57.000Z</Time>
            <Position>
              <LatitudeDegrees>36.8013166822493076324462890625</LatitudeDegrees>
              <LongitudeDegrees>-4.3795415572822093963623046875</LongitudeDegrees>
            </Position>
            <AltitudeMeters>787.4000244140625</AltitudeMeters>
            <DistanceMeters>NAN</DistanceMeters>
          </Trackpoint>
          <Trackpoint>
            <Time>2020-12-05T14:28:58.000Z</Time>
            <Position>
              <LatitudeDegrees>36.801307462155818939208984375</LatitudeDegrees>
              <LongitudeDegrees>-4.3795512802898883819580078125</LongitudeDegrees>
            </Position>
            <AltitudeMeters>787.4000244140625</AltitudeMeters>
            <DistanceMeters>NAN</DistanceMeters>
          </Trackpoint>
          <Trackpoint>
            <Time>2020-12-05T14:28:59.000Z</Time>
            <Position>
              <LatitudeDegrees>36.8012992478907108306884765625</LatitudeDegrees>
              <LongitudeDegrees>-4.37956075184047222137451171875</LongitudeDegrees>
            </Position>
            <AltitudeMeters>787.5999755859375</AltitudeMeters>
            <DistanceMeters>NAN</DistanceMeters>
          </Trackpoint>
          <Trackpoint>
            <Time>2020-12-05T14:29:00.000Z</Time>
            <Position>
              <LatitudeDegrees>36.80128969252109527587890625</LatitudeDegrees>
              <LongitudeDegrees>-4.3795707263052463531494140625</LongitudeDegrees>
            </Position>
            <AltitudeMeters>787.79998779296875</AltitudeMeters>
            <DistanceMeters>NAN</DistanceMeters>
          </Trackpoint>
          <Trackpoint>
            <Time>2020-12-05T14:29:01.000Z</Time>
            <Position>
              <LatitudeDegrees>36.801280975341796875</LatitudeDegrees>
              <LongitudeDegrees>-4.37958019785583019256591796875</LongitudeDegrees>
            </Position>
            <AltitudeMeters>788</AltitudeMeters>
            <DistanceMeters>NAN</DistanceMeters>
          </Trackpoint>
          <Trackpoint>
            <Time>2020-12-05T14:29:02.000Z</Time>
            <Position>
              <LatitudeDegrees>36.80127368308603763580322265625</LatitudeDegrees>
              <LongitudeDegrees>-4.3795873224735260009765625</LongitudeDegrees>
            </Position>
            <AltitudeMeters>787.79998779296875</AltitudeMeters>
            <DistanceMeters>NAN</DistanceMeters>
          </Trackpoint>
          <Trackpoint>
            <Time>2020-12-05T14:29:03.000Z</Time>
            <Position>
              <LatitudeDegrees>36.80126815102994441986083984375</LatitudeDegrees>
              <LongitudeDegrees>-4.37959444709122180938720703125</LongitudeDegrees>
            </Position>
            <AltitudeMeters>787.79998779296875</AltitudeMeters>
            <DistanceMeters>NAN</DistanceMeters>
          </Trackpoint>
          <Trackpoint>
            <Time>2020-12-05T14:29:04.000Z</Time>
            <Position>
              <LatitudeDegrees>36.80126060731709003448486328125</LatitudeDegrees>
              <LongitudeDegrees>-4.37960048206150531768798828125</LongitudeDegrees>
            </Position>
            <AltitudeMeters>787.5999755859375</AltitudeMeters>
            <DistanceMeters>NAN</DistanceMeters>
          </Trackpoint>
          <Trackpoint>
            <Time>2020-12-05T14:29:05.000Z</Time>
            <Position>
              <LatitudeDegrees>36.8012543208897113800048828125</LatitudeDegrees>
              <LongitudeDegrees>-4.37960500828921794891357421875</LongitudeDegrees>
            </Position>
            <AltitudeMeters>787.5999755859375</AltitudeMeters>
            <DistanceMeters>NAN</DistanceMeters>
          </Trackpoint>
          <Trackpoint>
            <Time>2020-12-05T14:29:06.000Z</Time>
            <Position>
              <LatitudeDegrees>36.80124870501458644866943359375</LatitudeDegrees>
              <LongitudeDegrees>-4.37960919924080371856689453125</LongitudeDegrees>
            </Position>
            <AltitudeMeters>787.4000244140625</AltitudeMeters>
            <DistanceMeters>NAN</DistanceMeters>
          </Trackpoint>
          <Trackpoint>
            <Time>2020-12-05T14:29:07.000Z</Time>
            <Position>
              <LatitudeDegrees>36.801240406930446624755859375</LatitudeDegrees>
              <LongitudeDegrees>-4.3796163238584995269775390625</LongitudeDegrees>
            </Position>
            <AltitudeMeters>787</AltitudeMeters>
            <DistanceMeters>NAN</DistanceMeters>
          </Trackpoint>
          <Trackpoint>
            <Time>2020-12-05T14:29:08.000Z</Time>
            <Position>
              <LatitudeDegrees>36.801228336989879608154296875</LatitudeDegrees>
              <LongitudeDegrees>-4.3796283937990665435791015625</LongitudeDegrees>
            </Position>
            <AltitudeMeters>786.79998779296875</AltitudeMeters>
            <DistanceMeters>NAN</DistanceMeters>
          </Trackpoint>
          <Trackpoint>
            <Time>2020-12-05T14:29:09.000Z</Time>
            <Position>
              <LatitudeDegrees>36.80121459066867828369140625</LatitudeDegrees>
              <LongitudeDegrees>-4.379637949168682098388671875</LongitudeDegrees>
            </Position>
            <AltitudeMeters>786.5999755859375</AltitudeMeters>
            <DistanceMeters>NAN</DistanceMeters>
          </Trackpoint>
          <Trackpoint>
            <Time>2020-12-05T14:29:10.000Z</Time>
            <Position>
              <LatitudeDegrees>36.80120050907135009765625</LatitudeDegrees>
              <LongitudeDegrees>-4.3796464987099170684814453125</LongitudeDegrees>
            </Position>
            <AltitudeMeters>786.5999755859375</AltitudeMeters>
            <DistanceMeters>NAN</DistanceMeters>
          </Trackpoint>
          <Trackpoint>
            <Time>2020-12-05T14:29:11.000Z</Time>
            <Position>
              <LatitudeDegrees>36.80118734948337078094482421875</LatitudeDegrees>
              <LongitudeDegrees>-4.37965177930891513824462890625</LongitudeDegrees>
            </Position>
            <AltitudeMeters>786.5999755859375</AltitudeMeters>
            <DistanceMeters>NAN</DistanceMeters>
          </Trackpoint>
          <Trackpoint>
            <Time>2020-12-05T14:29:12.000Z</Time>
            <Position>
              <LatitudeDegrees>36.8011755309998989105224609375</LatitudeDegrees>
              <LongitudeDegrees>-4.3796555511653423309326171875</LongitudeDegrees>
            </Position>
            <AltitudeMeters>786.4000244140625</AltitudeMeters>
            <DistanceMeters>NAN</DistanceMeters>
          </Trackpoint>
          <Trackpoint>
            <Time>2020-12-05T14:29:13.000Z</Time>
            <Position>
              <LatitudeDegrees>36.80116404779255390167236328125</LatitudeDegrees>
              <LongitudeDegrees>-4.379660077393054962158203125</LongitudeDegrees>
            </Position>
            <AltitudeMeters>786.4000244140625</AltitudeMeters>
            <DistanceMeters>NAN</DistanceMeters>
          </Trackpoint>
          <Trackpoint>
            <Time>2020-12-05T14:29:14.000Z</Time>
            <Position>
              <LatitudeDegrees>36.80115533061325550079345703125</LatitudeDegrees>
              <LongitudeDegrees>-4.3796599097549915313720703125</LongitudeDegrees>
            </Position>
            <AltitudeMeters>786.4000244140625</AltitudeMeters>
            <DistanceMeters>NAN</DistanceMeters>
          </Trackpoint>
          <Trackpoint>
            <Time>2020-12-05T14:29:15.000Z</Time>
            <Position>
              <LatitudeDegrees>36.80114476941525936126708984375</LatitudeDegrees>
              <LongitudeDegrees>-4.3796629272401332855224609375</LongitudeDegrees>
            </Position>
            <AltitudeMeters>786.4000244140625</AltitudeMeters>
            <DistanceMeters>NAN</DistanceMeters>
          </Trackpoint>
          <Trackpoint>
            <Time>2020-12-05T14:29:16.000Z</Time>
            <Position>
              <LatitudeDegrees>36.8011347949504852294921875</LatitudeDegrees>
              <LongitudeDegrees>-4.37966854311525821685791015625</LongitudeDegrees>
            </Position>
            <AltitudeMeters>786.5999755859375</AltitudeMeters>
            <DistanceMeters>NAN</DistanceMeters>
          </Trackpoint>
          <Trackpoint>
            <Time>2020-12-05T14:29:17.000Z</Time>
            <Position>
              <LatitudeDegrees>36.80112716741859912872314453125</LatitudeDegrees>
              <LongitudeDegrees>-4.3796713091433048248291015625</LongitudeDegrees>
            </Position>
            <AltitudeMeters>786.79998779296875</AltitudeMeters>
            <DistanceMeters>NAN</DistanceMeters>
          </Trackpoint>
          <Trackpoint>
            <Time>2020-12-05T14:29:18.000Z</Time>
            <Position>
              <LatitudeDegrees>36.8011195398867130279541015625</LatitudeDegrees>
              <LongitudeDegrees>-4.37967742793262004852294921875</LongitudeDegrees>
            </Position>
            <AltitudeMeters>786.79998779296875</AltitudeMeters>
            <DistanceMeters>NAN</DistanceMeters>
          </Trackpoint>
          <Trackpoint>
            <Time>2020-12-05T14:29:19.000Z</Time>
            <Position>
              <LatitudeDegrees>36.8011106550693511962890625</LatitudeDegrees>
              <LongitudeDegrees>-4.3796850554645061492919921875</LongitudeDegrees>
            </Position>
            <AltitudeMeters>786.79998779296875</AltitudeMeters>
            <DistanceMeters>NAN</DistanceMeters>
          </Trackpoint>
          <Trackpoint>
            <Time>2020-12-05T14:29:20.000Z</Time>
            <Position>
              <LatitudeDegrees>36.80110017769038677215576171875</LatitudeDegrees>
              <LongitudeDegrees>-4.37969469465315341949462890625</LongitudeDegrees>
            </Position>
            <AltitudeMeters>786.79998779296875</AltitudeMeters>
            <DistanceMeters>NAN</DistanceMeters>
          </Trackpoint>
          <Trackpoint>
            <Time>2020-12-05T14:29:21.000Z</Time>
            <Position>
              <LatitudeDegrees>36.8010876886546611785888671875</LatitudeDegrees>
              <LongitudeDegrees>-4.37970391474664211273193359375</LongitudeDegrees>
            </Position>
            <AltitudeMeters>786.4000244140625</AltitudeMeters>
            <DistanceMeters>NAN</DistanceMeters>
          </Trackpoint>
          <Trackpoint>
            <Time>2020-12-05T14:29:22.000Z</Time>
            <Position>
              <LatitudeDegrees>36.801074109971523284912109375</LatitudeDegrees>
              <LongitudeDegrees>-4.37971271574497222900390625</LongitudeDegrees>
            </Position>
            <AltitudeMeters>785.79998779296875</AltitudeMeters>
            <DistanceMeters>NAN</DistanceMeters>
          </Trackpoint>
          <Trackpoint>
            <Time>2020-12-05T14:29:23.000Z</Time>
            <Position>
              <LatitudeDegrees>36.80106095038354396820068359375</LatitudeDegrees>
              <LongitudeDegrees>-4.37972503714263439178466796875</LongitudeDegrees>
            </Position>
            <AltitudeMeters>785.20001220703125</AltitudeMeters>
            <DistanceMeters>NAN</DistanceMeters>
          </Trackpoint>
          <Trackpoint>
            <Time>2020-12-05T14:29:24.000Z</Time>
            <Position>
              <LatitudeDegrees>36.801047287881374359130859375</LatitudeDegrees>
              <LongitudeDegrees>-4.37973593361675739288330078125</LongitudeDegrees>
            </Position>
            <AltitudeMeters>784.79998779296875</AltitudeMeters>
            <DistanceMeters>NAN</DistanceMeters>
          </Trackpoint>
          <Trackpoint>
            <Time>2020-12-05T14:29:25.000Z</Time>
            <Position>
              <LatitudeDegrees>36.8010355532169342041015625</LatitudeDegrees>
              <LongitudeDegrees>-4.37974850647151470184326171875</LongitudeDegrees>
            </Position>
            <AltitudeMeters>784.5999755859375</AltitudeMeters>
            <DistanceMeters>NAN</DistanceMeters>
          </Trackpoint>
          <Trackpoint>
            <Time>2020-12-05T14:29:26.000Z</Time>
            <Position>
              <LatitudeDegrees>36.8010253272950649261474609375</LatitudeDegrees>
              <LongitudeDegrees>-4.37975839711725711822509765625</LongitudeDegrees>
            </Position>
            <AltitudeMeters>784.5999755859375</AltitudeMeters>
            <DistanceMeters>NAN</DistanceMeters>
          </Trackpoint>
          <Trackpoint>
            <Time>2020-12-05T14:29:27.000Z</Time>
            <Position>
              <LatitudeDegrees>36.80101635865867137908935546875</LatitudeDegrees>
              <LongitudeDegrees>-4.37976309098303318023681640625</LongitudeDegrees>
            </Position>
            <AltitudeMeters>784.79998779296875</AltitudeMeters>
            <DistanceMeters>NAN</DistanceMeters>
          </Trackpoint>
          <Trackpoint>
            <Time>2020-12-05T14:29:28.000Z</Time>
            <Position>
              <LatitudeDegrees>36.80100529454648494720458984375</LatitudeDegrees>
              <LongitudeDegrees>-4.37977063469588756561279296875</LongitudeDegrees>
            </Position>
            <AltitudeMeters>785</AltitudeMeters>
            <DistanceMeters>NAN</DistanceMeters>
          </Trackpoint>
          <Trackpoint>
            <Time>2020-12-05T14:29:29.000Z</Time>
            <Position>
              <LatitudeDegrees>36.80099322460591793060302734375</LatitudeDegrees>
              <LongitudeDegrees>-4.379780106246471405029296875</LongitudeDegrees>
            </Position>
            <AltitudeMeters>785</AltitudeMeters>
            <DistanceMeters>NAN</DistanceMeters>
          </Trackpoint>
          <Trackpoint>
            <Time>2020-12-05T14:29:30.000Z</Time>
            <Position>
              <LatitudeDegrees>36.8009810708463191986083984375</LatitudeDegrees>
              <LongitudeDegrees>-4.3797884881496429443359375</LongitudeDegrees>
            </Position>
            <AltitudeMeters>785.20001220703125</AltitudeMeters>
            <DistanceMeters>NAN</DistanceMeters>
          </Trackpoint>
          <Trackpoint>
            <Time>2020-12-05T14:29:31.000Z</Time>
            <Position>
              <LatitudeDegrees>36.80096841417253017425537109375</LatitudeDegrees>
              <LongitudeDegrees>-4.37979930080473423004150390625</LongitudeDegrees>
            </Position>
            <AltitudeMeters>785.20001220703125</AltitudeMeters>
            <DistanceMeters>NAN</DistanceMeters>
          </Trackpoint>
          <Trackpoint>
            <Time>2020-12-05T14:29:32.000Z</Time>
            <Position>
              <LatitudeDegrees>36.80095600895583629608154296875</LatitudeDegrees>
              <LongitudeDegrees>-4.37980550341308116912841796875</LongitudeDegrees>
            </Position>
            <AltitudeMeters>785</AltitudeMeters>
            <DistanceMeters>NAN</DistanceMeters>
          </Trackpoint>
          <Trackpoint>
            <Time>2020-12-05T14:29:33.000Z</Time>
            <Position>
              <LatitudeDegrees>36.80094192735850811004638671875</LatitudeDegrees>
              <LongitudeDegrees>-4.37981355004012584686279296875</LongitudeDegrees>
            </Position>
            <AltitudeMeters>784.79998779296875</AltitudeMeters>
            <DistanceMeters>NAN</DistanceMeters>
          </Trackpoint>
          <Trackpoint>
            <Time>2020-12-05T14:29:34.000Z</Time>
            <Position>
              <LatitudeDegrees>36.80092700757086277008056640625</LatitudeDegrees>
              <LongitudeDegrees>-4.37982134521007537841796875</LongitudeDegrees>
            </Position>
            <AltitudeMeters>784.5999755859375</AltitudeMeters>
            <DistanceMeters>NAN</DistanceMeters>
          </Trackpoint>
          <Trackpoint>
            <Time>2020-12-05T14:29:35.000Z</Time>
            <Position>
              <LatitudeDegrees>36.8009121716022491455078125</LatitudeDegrees>
              <LongitudeDegrees>-4.3798282183706760406494140625</LongitudeDegrees>
            </Position>
            <AltitudeMeters>784.5999755859375</AltitudeMeters>
            <DistanceMeters>NAN</DistanceMeters>
          </Trackpoint>
          <Trackpoint>
            <Time>2020-12-05T14:29:36.000Z</Time>
            <Position>
              <LatitudeDegrees>36.80089901201426982879638671875</LatitudeDegrees>
              <LongitudeDegrees>-4.37983869574964046478271484375</LongitudeDegrees>
            </Position>
            <AltitudeMeters>784.4000244140625</AltitudeMeters>
            <DistanceMeters>NAN</DistanceMeters>
          </Trackpoint>
          <Trackpoint>
            <Time>2020-12-05T14:29:37.000Z</Time>
            <Position>
              <LatitudeDegrees>36.80088870227336883544921875</LatitudeDegrees>
              <LongitudeDegrees>-4.37984540127217769622802734375</LongitudeDegrees>
            </Position>
            <AltitudeMeters>784.4000244140625</AltitudeMeters>
            <DistanceMeters>NAN</DistanceMeters>
          </Trackpoint>
          <Trackpoint>
            <Time>2020-12-05T14:29:38.000Z</Time>
            <Position>
              <LatitudeDegrees>36.80087587796151638031005859375</LatitudeDegrees>
              <LongitudeDegrees>-4.37985495664179325103759765625</LongitudeDegrees>
            </Position>
            <AltitudeMeters>784</AltitudeMeters>
            <DistanceMeters>NAN</DistanceMeters>
          </Trackpoint>
          <Trackpoint>
            <Time>2020-12-05T14:29:39.000Z</Time>
            <Position>
              <LatitudeDegrees>36.80086280219256877899169921875</LatitudeDegrees>
              <LongitudeDegrees>-4.379861913621425628662109375</LongitudeDegrees>
            </Position>
            <AltitudeMeters>783.5999755859375</AltitudeMeters>
            <DistanceMeters>NAN</DistanceMeters>
          </Trackpoint>
          <Trackpoint>
            <Time>2020-12-05T14:29:40.000Z</Time>
            <Position>
              <LatitudeDegrees>36.80085140280425548553466796875</LatitudeDegrees>
              <LongitudeDegrees>-4.3798657692968845367431640625</LongitudeDegrees>
            </Position>
            <AltitudeMeters>783.4000244140625</AltitudeMeters>
            <DistanceMeters>NAN</DistanceMeters>
          </Trackpoint>
          <Trackpoint>
            <Time>2020-12-05T14:29:41.000Z</Time>
            <Position>
              <LatitudeDegrees>36.80083983577787876129150390625</LatitudeDegrees>
              <LongitudeDegrees>-4.37986962497234344482421875</LongitudeDegrees>
            </Position>
            <AltitudeMeters>783</AltitudeMeters>
            <DistanceMeters>NAN</DistanceMeters>
          </Trackpoint>
          <Trackpoint>
            <Time>2020-12-05T14:29:42.000Z</Time>
            <Position>
              <LatitudeDegrees>36.80082826875150203704833984375</LatitudeDegrees>
              <LongitudeDegrees>-4.3798738159239292144775390625</LongitudeDegrees>
            </Position>
            <AltitudeMeters>782.79998779296875</AltitudeMeters>
            <DistanceMeters>NAN</DistanceMeters>
          </Trackpoint>
          <Trackpoint>
            <Time>2020-12-05T14:29:43.000Z</Time>
            <Position>
              <LatitudeDegrees>36.80081753991544246673583984375</LatitudeDegrees>
              <LongitudeDegrees>-4.3798795156180858612060546875</LongitudeDegrees>
            </Position>
            <AltitudeMeters>782.5999755859375</AltitudeMeters>
            <DistanceMeters>NAN</DistanceMeters>
          </Trackpoint>
          <Trackpoint>
            <Time>2020-12-05T14:29:44.000Z</Time>
            <Position>
              <LatitudeDegrees>36.800807230174541473388671875</LatitudeDegrees>
              <LongitudeDegrees>-4.37988429330289363861083984375</LongitudeDegrees>
            </Position>
            <AltitudeMeters>782.4000244140625</AltitudeMeters>
            <DistanceMeters>NAN</DistanceMeters>
          </Trackpoint>
          <Trackpoint>
            <Time>2020-12-05T14:29:45.000Z</Time>
            <Position>
              <LatitudeDegrees>36.80079809390008449554443359375</LatitudeDegrees>
              <LongitudeDegrees>-4.37988999299705028533935546875</LongitudeDegrees>
            </Position>
            <AltitudeMeters>782.4000244140625</AltitudeMeters>
            <DistanceMeters>NAN</DistanceMeters>
          </Trackpoint>
          <Trackpoint>
            <Time>2020-12-05T14:29:46.000Z</Time>
            <Position>
              <LatitudeDegrees>36.8007892929017543792724609375</LatitudeDegrees>
              <LongitudeDegrees>-4.37989502213895320892333984375</LongitudeDegrees>
            </Position>
            <AltitudeMeters>782.20001220703125</AltitudeMeters>
            <DistanceMeters>NAN</DistanceMeters>
          </Trackpoint>
          <Trackpoint>
            <Time>2020-12-05T14:29:47.000Z</Time>
            <Position>
              <LatitudeDegrees>36.800779066979885101318359375</LatitudeDegrees>
              <LongitudeDegrees>-4.3799011409282684326171875</LongitudeDegrees>
            </Position>
            <AltitudeMeters>782.20001220703125</AltitudeMeters>
            <DistanceMeters>NAN</DistanceMeters>
          </Trackpoint>
          <Trackpoint>
            <Time>2020-12-05T14:29:48.000Z</Time>
            <Position>
              <LatitudeDegrees>36.80076800286769866943359375</LatitudeDegrees>
              <LongitudeDegrees>-4.3799096904695034027099609375</LongitudeDegrees>
            </Position>
            <AltitudeMeters>782.4000244140625</AltitudeMeters>
            <DistanceMeters>NAN</DistanceMeters>
          </Trackpoint>
          <Trackpoint>
            <Time>2020-12-05T14:29:49.000Z</Time>
            <Position>
              <LatitudeDegrees>36.80075593292713165283203125</LatitudeDegrees>
              <LongitudeDegrees>-4.37991815619170665740966796875</LongitudeDegrees>
            </Position>
            <AltitudeMeters>782.5999755859375</AltitudeMeters>
            <DistanceMeters>NAN</DistanceMeters>
          </Trackpoint>
          <Trackpoint>
            <Time>2020-12-05T14:29:50.000Z</Time>
            <Position>
              <LatitudeDegrees>36.8007430247962474822998046875</LatitudeDegrees>
              <LongitudeDegrees>-4.3799277953803539276123046875</LongitudeDegrees>
            </Position>
            <AltitudeMeters>782.5999755859375</AltitudeMeters>
            <DistanceMeters>NAN</DistanceMeters>
          </Trackpoint>
          <Trackpoint>
            <Time>2020-12-05T14:29:51.000Z</Time>
            <Position>
              <LatitudeDegrees>36.80073045194149017333984375</LatitudeDegrees>
              <LongitudeDegrees>-4.3799375183880329132080078125</LongitudeDegrees>
            </Position>
            <AltitudeMeters>782.79998779296875</AltitudeMeters>
            <DistanceMeters>NAN</DistanceMeters>
          </Trackpoint>
          <Trackpoint>
            <Time>2020-12-05T14:29:52.000Z</Time>
            <Position>
              <LatitudeDegrees>36.80071846581995487213134765625</LatitudeDegrees>
              <LongitudeDegrees>-4.379949755966663360595703125</LongitudeDegrees>
            </Position>
            <AltitudeMeters>782.5999755859375</AltitudeMeters>
            <DistanceMeters>NAN</DistanceMeters>
          </Trackpoint>
          <Trackpoint>
            <Time>2020-12-05T14:29:53.000Z</Time>
            <Position>
              <LatitudeDegrees>36.8007061444222927093505859375</LatitudeDegrees>
              <LongitudeDegrees>-4.37996040098369121551513671875</LongitudeDegrees>
            </Position>
            <AltitudeMeters>782.5999755859375</AltitudeMeters>
            <DistanceMeters>NAN</DistanceMeters>
          </Trackpoint>
          <Trackpoint>
            <Time>2020-12-05T14:29:54.000Z</Time>
            <Position>
              <LatitudeDegrees>36.8006937392055988311767578125</LatitudeDegrees>
              <LongitudeDegrees>-4.37997012399137020111083984375</LongitudeDegrees>
            </Position>
            <AltitudeMeters>782.4000244140625</AltitudeMeters>
            <DistanceMeters>NAN</DistanceMeters>
          </Trackpoint>
          <Trackpoint>
            <Time>2020-12-05T14:29:55.000Z</Time>
            <Position>
              <LatitudeDegrees>36.80068208836019039154052734375</LatitudeDegrees>
              <LongitudeDegrees>-4.37998093664646148681640625</LongitudeDegrees>
            </Position>
            <AltitudeMeters>782</AltitudeMeters>
            <DistanceMeters>NAN</DistanceMeters>
          </Trackpoint>
          <Trackpoint>
            <Time>2020-12-05T14:29:56.000Z</Time>
            <Position>
              <LatitudeDegrees>36.80067186243832111358642578125</LatitudeDegrees>
              <LongitudeDegrees>-4.3799936771392822265625</LongitudeDegrees>
            </Position>
            <AltitudeMeters>781.79998779296875</AltitudeMeters>
            <DistanceMeters>NAN</DistanceMeters>
          </Trackpoint>
          <Trackpoint>
            <Time>2020-12-05T14:29:57.000Z</Time>
            <Position>
              <LatitudeDegrees>36.80066339671611785888671875</LatitudeDegrees>
              <LongitudeDegrees>-4.3800106085836887359619140625</LongitudeDegrees>
            </Position>
            <AltitudeMeters>781.5999755859375</AltitudeMeters>
            <DistanceMeters>NAN</DistanceMeters>
          </Trackpoint>
          <Trackpoint>
            <Time>2020-12-05T14:29:58.000Z</Time>
            <Position>
              <LatitudeDegrees>36.8006541766226291656494140625</LatitudeDegrees>
              <LongitudeDegrees>-4.38002594746649265289306640625</LongitudeDegrees>
            </Position>
            <AltitudeMeters>781.4000244140625</AltitudeMeters>
            <DistanceMeters>NAN</DistanceMeters>
          </Trackpoint>
          <Trackpoint>
            <Time>2020-12-05T14:29:59.000Z</Time>
            <Position>
              <LatitudeDegrees>36.8006454594433307647705078125</LatitudeDegrees>
              <LongitudeDegrees>-4.38003751449286937713623046875</LongitudeDegrees>
            </Position>
            <AltitudeMeters>781.20001220703125</AltitudeMeters>
            <DistanceMeters>NAN</DistanceMeters>
          </Trackpoint>
          <Trackpoint>
            <Time>2020-12-05T14:30:00.000Z</Time>
            <Position>
              <LatitudeDegrees>36.8006350658833980560302734375</LatitudeDegrees>
              <LongitudeDegrees>-4.38005008734762668609619140625</LongitudeDegrees>
            </Position>
            <AltitudeMeters>781.20001220703125</AltitudeMeters>
            <DistanceMeters>NAN</DistanceMeters>
          </Trackpoint>
          <Trackpoint>
            <Time>2020-12-05T14:30:01.000Z</Time>
            <Position>
              <LatitudeDegrees>36.80062458850443363189697265625</LatitudeDegrees>
              <LongitudeDegrees>-4.38006140291690826416015625</LongitudeDegrees>
            </Position>
            <AltitudeMeters>781.20001220703125</AltitudeMeters>
            <DistanceMeters>NAN</DistanceMeters>
          </Trackpoint>
          <Trackpoint>
            <Time>2020-12-05T14:30:02.000Z</Time>
            <Position>
              <LatitudeDegrees>36.8006119318306446075439453125</LatitudeDegrees>
              <LongitudeDegrees>-4.38007347285747528076171875</LongitudeDegrees>
            </Position>
            <AltitudeMeters>781.4000244140625</AltitudeMeters>
            <DistanceMeters>NAN</DistanceMeters>
          </Trackpoint>
          <Trackpoint>
            <Time>2020-12-05T14:30:03.000Z</Time>
            <Position>
              <LatitudeDegrees>36.80059709586203098297119140625</LatitudeDegrees>
              <LongitudeDegrees>-4.3800857104361057281494140625</LongitudeDegrees>
            </Position>
            <AltitudeMeters>781.4000244140625</AltitudeMeters>
            <DistanceMeters>NAN</DistanceMeters>
          </Trackpoint>
          <Trackpoint>
            <Time>2020-12-05T14:30:04.000Z</Time>
            <Position>
              <LatitudeDegrees>36.80058117024600505828857421875</LatitudeDegrees>
              <LongitudeDegrees>-4.38009970821440219879150390625</LongitudeDegrees>
            </Position>
            <AltitudeMeters>781.5999755859375</AltitudeMeters>
            <DistanceMeters>NAN</DistanceMeters>
          </Trackpoint>
          <Trackpoint>
            <Time>2020-12-05T14:30:05.000Z</Time>
            <Position>
              <LatitudeDegrees>36.80056524462997913360595703125</LatitudeDegrees>
              <LongitudeDegrees>-4.3801105208694934844970703125</LongitudeDegrees>
            </Position>
            <AltitudeMeters>781.79998779296875</AltitudeMeters>
            <DistanceMeters>NAN</DistanceMeters>
          </Trackpoint>
          <Trackpoint>
            <Time>2020-12-05T14:30:06.000Z</Time>
            <Position>
              <LatitudeDegrees>36.8005522526800632476806640625</LatitudeDegrees>
              <LongitudeDegrees>-4.38012066297233104705810546875</LongitudeDegrees>
            </Position>
            <AltitudeMeters>781.79998779296875</AltitudeMeters>
            <DistanceMeters>NAN</DistanceMeters>
          </Trackpoint>
          <Trackpoint>
            <Time>2020-12-05T14:30:07.000Z</Time>
            <Position>
              <LatitudeDegrees>36.80054009892046451568603515625</LatitudeDegrees>
              <LongitudeDegrees>-4.3801319785416126251220703125</LongitudeDegrees>
            </Position>
            <AltitudeMeters>781.79998779296875</AltitudeMeters>
            <DistanceMeters>NAN</DistanceMeters>
          </Trackpoint>
          <Trackpoint>
            <Time>2020-12-05T14:30:08.000Z</Time>
            <Position>
              <LatitudeDegrees>36.800529621541500091552734375</LatitudeDegrees>
              <LongitudeDegrees>-4.38014513812959194183349609375</LongitudeDegrees>
            </Position>
            <AltitudeMeters>781.79998779296875</AltitudeMeters>
            <DistanceMeters>NAN</DistanceMeters>
          </Trackpoint>
          <Trackpoint>
            <Time>2020-12-05T14:30:09.000Z</Time>
            <Position>
              <LatitudeDegrees>36.8005193956196308135986328125</LatitudeDegrees>
              <LongitudeDegrees>-4.3801588006317615509033203125</LongitudeDegrees>
            </Position>
            <AltitudeMeters>781.4000244140625</AltitudeMeters>
            <DistanceMeters>NAN</DistanceMeters>
          </Trackpoint>
          <Trackpoint>
            <Time>2020-12-05T14:30:10.000Z</Time>
            <Position>
              <LatitudeDegrees>36.80051160044968128204345703125</LatitudeDegrees>
              <LongitudeDegrees>-4.38017003238201141357421875</LongitudeDegrees>
            </Position>
            <AltitudeMeters>781</AltitudeMeters>
            <DistanceMeters>NAN</DistanceMeters>
          </Trackpoint>
          <Trackpoint>
            <Time>2020-12-05T14:30:11.000Z</Time>
            <Position>
              <LatitudeDegrees>36.80050422437489032745361328125</LatitudeDegrees>
              <LongitudeDegrees>-4.38018050976097583770751953125</LongitudeDegrees>
            </Position>
            <AltitudeMeters>780.5999755859375</AltitudeMeters>
            <DistanceMeters>NAN</DistanceMeters>
          </Trackpoint>
          <Trackpoint>
            <Time>2020-12-05T14:30:12.000Z</Time>
            <Position>
              <LatitudeDegrees>36.8004945851862430572509765625</LatitudeDegrees>
              <LongitudeDegrees>-4.3801906518638134002685546875</LongitudeDegrees>
            </Position>
            <AltitudeMeters>780.20001220703125</AltitudeMeters>
            <DistanceMeters>NAN</DistanceMeters>
          </Trackpoint>
          <Trackpoint>
            <Time>2020-12-05T14:30:13.000Z</Time>
            <Position>
              <LatitudeDegrees>36.8004828505218029022216796875</LatitudeDegrees>
              <LongitudeDegrees>-4.38019878230988979339599609375</LongitudeDegrees>
            </Position>
            <AltitudeMeters>780</AltitudeMeters>
            <DistanceMeters>NAN</DistanceMeters>
          </Trackpoint>
          <Trackpoint>
            <Time>2020-12-05T14:30:14.000Z</Time>
            <Position>
              <LatitudeDegrees>36.80046969093382358551025390625</LatitudeDegrees>
              <LongitudeDegrees>-4.3802069127559661865234375</LongitudeDegrees>
            </Position>
            <AltitudeMeters>779.79998779296875</AltitudeMeters>
            <DistanceMeters>NAN</DistanceMeters>
          </Trackpoint>
          <Trackpoint>
            <Time>2020-12-05T14:30:15.000Z</Time>
            <Position>
              <LatitudeDegrees>36.8004546873271465301513671875</LatitudeDegrees>
              <LongitudeDegrees>-4.3802164681255817413330078125</LongitudeDegrees>
            </Position>
            <AltitudeMeters>779.79998779296875</AltitudeMeters>
            <DistanceMeters>NAN</DistanceMeters>
          </Trackpoint>
          <Trackpoint>
            <Time>2020-12-05T14:30:16.000Z</Time>
            <Position>
              <LatitudeDegrees>36.80043876171112060546875</LatitudeDegrees>
              <LongitudeDegrees>-4.38022661022841930389404296875</LongitudeDegrees>
            </Position>
            <AltitudeMeters>779.79998779296875</AltitudeMeters>
            <DistanceMeters>NAN</DistanceMeters>
          </Trackpoint>
          <Trackpoint>
            <Time>2020-12-05T14:30:17.000Z</Time>
            <Position>
              <LatitudeDegrees>36.80042208172380924224853515625</LatitudeDegrees>
              <LongitudeDegrees>-4.3802379257977008819580078125</LongitudeDegrees>
            </Position>
            <AltitudeMeters>779.79998779296875</AltitudeMeters>
            <DistanceMeters>NAN</DistanceMeters>
          </Trackpoint>
          <Trackpoint>
            <Time>2020-12-05T14:30:18.000Z</Time>
            <Position>
              <LatitudeDegrees>36.8004067428410053253173828125</LatitudeDegrees>
              <LongitudeDegrees>-4.3802499957382678985595703125</LongitudeDegrees>
            </Position>
            <AltitudeMeters>780</AltitudeMeters>
            <DistanceMeters>NAN</DistanceMeters>
          </Trackpoint>
          <Trackpoint>
            <Time>2020-12-05T14:30:19.000Z</Time>
            <Position>
              <LatitudeDegrees>36.800392828881740570068359375</LatitudeDegrees>
              <LongitudeDegrees>-4.38026080839335918426513671875</LongitudeDegrees>
            </Position>
            <AltitudeMeters>780</AltitudeMeters>
            <DistanceMeters>NAN</DistanceMeters>
          </Trackpoint>
          <Trackpoint>
            <Time>2020-12-05T14:30:20.000Z</Time>
            <Position>
              <LatitudeDegrees>36.80037975311279296875</LatitudeDegrees>
              <LongitudeDegrees>-4.38026851974427700042724609375</LongitudeDegrees>
            </Position>
            <AltitudeMeters>780.20001220703125</AltitudeMeters>
            <DistanceMeters>NAN</DistanceMeters>
          </Trackpoint>
          <Trackpoint>
            <Time>2020-12-05T14:30:21.000Z</Time>
            <Position>
              <LatitudeDegrees>36.8003676831722259521484375</LatitudeDegrees>
              <LongitudeDegrees>-4.380272291600704193115234375</LongitudeDegrees>
            </Position>
            <AltitudeMeters>780.20001220703125</AltitudeMeters>
            <DistanceMeters>NAN</DistanceMeters>
          </Trackpoint>
          <Trackpoint>
            <Time>2020-12-05T14:30:22.000Z</Time>
            <Position>
              <LatitudeDegrees>36.80035703815519809722900390625</LatitudeDegrees>
              <LongitudeDegrees>-4.38027463853359222412109375</LongitudeDegrees>
            </Position>
            <AltitudeMeters>780.4000244140625</AltitudeMeters>
            <DistanceMeters>NAN</DistanceMeters>
          </Trackpoint>
          <Trackpoint>
            <Time>2020-12-05T14:30:23.000Z</Time>
            <Position>
              <LatitudeDegrees>36.8003450520336627960205078125</LatitudeDegrees>
              <LongitudeDegrees>-4.38027841039001941680908203125</LongitudeDegrees>
            </Position>
            <AltitudeMeters>780.5999755859375</AltitudeMeters>
            <DistanceMeters>NAN</DistanceMeters>
          </Trackpoint>
          <Trackpoint>
            <Time>2020-12-05T14:30:24.000Z</Time>
            <Position>
              <LatitudeDegrees>36.80033088661730289459228515625</LatitudeDegrees>
              <LongitudeDegrees>-4.38028796575963497161865234375</LongitudeDegrees>
            </Position>
            <AltitudeMeters>780.79998779296875</AltitudeMeters>
            <DistanceMeters>NAN</DistanceMeters>
          </Trackpoint>
          <Trackpoint>
            <Time>2020-12-05T14:30:25.000Z</Time>
            <Position>
              <LatitudeDegrees>36.80032066069543361663818359375</LatitudeDegrees>
              <LongitudeDegrees>-4.38029517419636249542236328125</LongitudeDegrees>
            </Position>
            <AltitudeMeters>781</AltitudeMeters>
            <DistanceMeters>NAN</DistanceMeters>
          </Trackpoint>
          <Trackpoint>
            <Time>2020-12-05T14:30:26.000Z</Time>
            <Position>
              <LatitudeDegrees>36.800307668745517730712890625</LatitudeDegrees>
              <LongitudeDegrees>-4.38030548393726348876953125</LongitudeDegrees>
            </Position>
            <AltitudeMeters>781.20001220703125</AltitudeMeters>
            <DistanceMeters>NAN</DistanceMeters>
          </Trackpoint>
          <Trackpoint>
            <Time>2020-12-05T14:30:27.000Z</Time>
            <Position>
              <LatitudeDegrees>36.80029685609042644500732421875</LatitudeDegrees>
              <LongitudeDegrees>-4.38031143508851528167724609375</LongitudeDegrees>
            </Position>
            <AltitudeMeters>781.20001220703125</AltitudeMeters>
            <DistanceMeters>NAN</DistanceMeters>
          </Trackpoint>
          <Trackpoint>
            <Time>2020-12-05T14:30:28.000Z</Time>
            <Position>
              <LatitudeDegrees>36.80028327740728855133056640625</LatitudeDegrees>
              <LongitudeDegrees>-4.3803204037249088287353515625</LongitudeDegrees>
            </Position>
            <AltitudeMeters>781.4000244140625</AltitudeMeters>
            <DistanceMeters>NAN</DistanceMeters>
          </Trackpoint>
          <Trackpoint>
            <Time>2020-12-05T14:30:29.000Z</Time>
            <Position>
              <LatitudeDegrees>36.800270788371562957763671875</LatitudeDegrees>
              <LongitudeDegrees>-4.38032652251422405242919921875</LongitudeDegrees>
            </Position>
            <AltitudeMeters>781.4000244140625</AltitudeMeters>
            <DistanceMeters>NAN</DistanceMeters>
          </Trackpoint>
          <Trackpoint>
            <Time>2020-12-05T14:30:30.000Z</Time>
            <Position>
              <LatitudeDegrees>36.8002585507929325103759765625</LatitudeDegrees>
              <LongitudeDegrees>-4.38033423386514186859130859375</LongitudeDegrees>
            </Position>
            <AltitudeMeters>781.20001220703125</AltitudeMeters>
            <DistanceMeters>NAN</DistanceMeters>
          </Trackpoint>
          <Trackpoint>
            <Time>2020-12-05T14:30:31.000Z</Time>
            <Position>
              <LatitudeDegrees>36.8002468161284923553466796875</LatitudeDegrees>
              <LongitudeDegrees>-4.38034010119736194610595703125</LongitudeDegrees>
            </Position>
            <AltitudeMeters>781.20001220703125</AltitudeMeters>
            <DistanceMeters>NAN</DistanceMeters>
          </Trackpoint>
          <Trackpoint>
            <Time>2020-12-05T14:30:32.000Z</Time>
            <Position>
              <LatitudeDegrees>36.80023491382598876953125</LatitudeDegrees>
              <LongitudeDegrees>-4.38034915365278720855712890625</LongitudeDegrees>
            </Position>
            <AltitudeMeters>781.20001220703125</AltitudeMeters>
            <DistanceMeters>NAN</DistanceMeters>
          </Trackpoint>
          <Trackpoint>
            <Time>2020-12-05T14:30:33.000Z</Time>
            <Position>
              <LatitudeDegrees>36.800223849713802337646484375</LatitudeDegrees>
              <LongitudeDegrees>-4.38035720027983188629150390625</LongitudeDegrees>
            </Position>
            <AltitudeMeters>781</AltitudeMeters>
            <DistanceMeters>NAN</DistanceMeters>
          </Trackpoint>
          <Trackpoint>
            <Time>2020-12-05T14:30:34.000Z</Time>
            <Position>
              <LatitudeDegrees>36.8002146296203136444091796875</LatitudeDegrees>
              <LongitudeDegrees>-4.38036859966814517974853515625</LongitudeDegrees>
            </Position>
            <AltitudeMeters>781</AltitudeMeters>
            <DistanceMeters>NAN</DistanceMeters>
          </Trackpoint>
          <Trackpoint>
            <Time>2020-12-05T14:30:35.000Z</Time>
            <Position>
              <LatitudeDegrees>36.8002052418887615203857421875</LatitudeDegrees>
              <LongitudeDegrees>-4.38038184307515621185302734375</LongitudeDegrees>
            </Position>
            <AltitudeMeters>780.79998779296875</AltitudeMeters>
            <DistanceMeters>NAN</DistanceMeters>
          </Trackpoint>
          <Trackpoint>
            <Time>2020-12-05T14:30:36.000Z</Time>
            <Position>
              <LatitudeDegrees>36.8001951836049556732177734375</LatitudeDegrees>
              <LongitudeDegrees>-4.38039131462574005126953125</LongitudeDegrees>
            </Position>
            <AltitudeMeters>780.5999755859375</AltitudeMeters>
            <DistanceMeters>NAN</DistanceMeters>
          </Trackpoint>
          <Trackpoint>
            <Time>2020-12-05T14:30:37.000Z</Time>
            <Position>
              <LatitudeDegrees>36.800185628235340118408203125</LatitudeDegrees>
              <LongitudeDegrees>-4.3804008699953556060791015625</LongitudeDegrees>
            </Position>
            <AltitudeMeters>780.4000244140625</AltitudeMeters>
            <DistanceMeters>NAN</DistanceMeters>
          </Trackpoint>
          <Trackpoint>
            <Time>2020-12-05T14:30:38.000Z</Time>
            <Position>
              <LatitudeDegrees>36.80017531849443912506103515625</LatitudeDegrees>
              <LongitudeDegrees>-4.3804136104881763458251953125</LongitudeDegrees>
            </Position>
            <AltitudeMeters>780</AltitudeMeters>
            <DistanceMeters>NAN</DistanceMeters>
          </Trackpoint>
          <Trackpoint>
            <Time>2020-12-05T14:30:39.000Z</Time>
            <Position>
              <LatitudeDegrees>36.8001651763916015625</LatitudeDegrees>
              <LongitudeDegrees>-4.3804250098764896392822265625</LongitudeDegrees>
            </Position>
            <AltitudeMeters>780</AltitudeMeters>
            <DistanceMeters>NAN</DistanceMeters>
          </Trackpoint>
          <Trackpoint>
            <Time>2020-12-05T14:30:40.000Z</Time>
            <Position>
              <LatitudeDegrees>36.80015536956489086151123046875</LatitudeDegrees>
              <LongitudeDegrees>-4.38043582253158092498779296875</LongitudeDegrees>
            </Position>
            <AltitudeMeters>779.79998779296875</AltitudeMeters>
            <DistanceMeters>NAN</DistanceMeters>
          </Trackpoint>
          <Trackpoint>
            <Time>2020-12-05T14:30:41.000Z</Time>
            <Position>
              <LatitudeDegrees>36.80014380253851413726806640625</LatitudeDegrees>
              <LongitudeDegrees>-4.38044361770153045654296875</LongitudeDegrees>
            </Position>
            <AltitudeMeters>779.79998779296875</AltitudeMeters>
            <DistanceMeters>NAN</DistanceMeters>
          </Trackpoint>
          <Trackpoint>
            <Time>2020-12-05T14:30:42.000Z</Time>
            <Position>
              <LatitudeDegrees>36.8001311458647251129150390625</LatitudeDegrees>
              <LongitudeDegrees>-4.380453340709209442138671875</LongitudeDegrees>
            </Position>
            <AltitudeMeters>779.79998779296875</AltitudeMeters>
            <DistanceMeters>NAN</DistanceMeters>
          </Trackpoint>
          <Trackpoint>
            <Time>2020-12-05T14:30:43.000Z</Time>
            <Position>
              <LatitudeDegrees>36.80011756718158721923828125</LatitudeDegrees>
              <LongitudeDegrees>-4.38046415336430072784423828125</LongitudeDegrees>
            </Position>
            <AltitudeMeters>779.5999755859375</AltitudeMeters>
            <DistanceMeters>NAN</DistanceMeters>
          </Trackpoint>
          <Trackpoint>
            <Time>2020-12-05T14:30:44.000Z</Time>
            <Position>
              <LatitudeDegrees>36.80010558106005191802978515625</LatitudeDegrees>
              <LongitudeDegrees>-4.3804742954671382904052734375</LongitudeDegrees>
            </Position>
            <AltitudeMeters>779.5999755859375</AltitudeMeters>
            <DistanceMeters>NAN</DistanceMeters>
          </Trackpoint>
          <Trackpoint>
            <Time>2020-12-05T14:30:45.000Z</Time>
            <Position>
              <LatitudeDegrees>36.8000946007668972015380859375</LatitudeDegrees>
              <LongitudeDegrees>-4.38048426993191242218017578125</LongitudeDegrees>
            </Position>
            <AltitudeMeters>779.79998779296875</AltitudeMeters>
            <DistanceMeters>NAN</DistanceMeters>
          </Trackpoint>
          <Trackpoint>
            <Time>2020-12-05T14:30:46.000Z</Time>
            <Position>
              <LatitudeDegrees>36.80008429102599620819091796875</LatitudeDegrees>
              <LongitudeDegrees>-4.38049751333892345428466796875</LongitudeDegrees>
            </Position>
            <AltitudeMeters>780</AltitudeMeters>
            <DistanceMeters>NAN</DistanceMeters>
          </Trackpoint>
          <Trackpoint>
            <Time>2020-12-05T14:30:47.000Z</Time>
            <Position>
              <LatitudeDegrees>36.80007423274219036102294921875</LatitudeDegrees>
              <LongitudeDegrees>-4.38050924800336360931396484375</LongitudeDegrees>
            </Position>
            <AltitudeMeters>779.79998779296875</AltitudeMeters>
            <DistanceMeters>NAN</DistanceMeters>
          </Trackpoint>
          <Trackpoint>
            <Time>2020-12-05T14:30:48.000Z</Time>
            <Position>
              <LatitudeDegrees>36.8000624142587184906005859375</LatitudeDegrees>
              <LongitudeDegrees>-4.38052047975361347198486328125</LongitudeDegrees>
            </Position>
            <AltitudeMeters>779.5999755859375</AltitudeMeters>
            <DistanceMeters>NAN</DistanceMeters>
          </Trackpoint>
          <Trackpoint>
            <Time>2020-12-05T14:30:49.000Z</Time>
            <Position>
              <LatitudeDegrees>36.80005051195621490478515625</LatitudeDegrees>
              <LongitudeDegrees>-4.38053372316062450408935546875</LongitudeDegrees>
            </Position>
            <AltitudeMeters>779.5999755859375</AltitudeMeters>
            <DistanceMeters>NAN</DistanceMeters>
          </Trackpoint>
          <Trackpoint>
            <Time>2020-12-05T14:30:50.000Z</Time>
            <Position>
              <LatitudeDegrees>36.8000402860343456268310546875</LatitudeDegrees>
              <LongitudeDegrees>-4.38055015169084072113037109375</LongitudeDegrees>
            </Position>
            <AltitudeMeters>779.5999755859375</AltitudeMeters>
            <DistanceMeters>NAN</DistanceMeters>
          </Trackpoint>
          <Trackpoint>
            <Time>2020-12-05T14:30:51.000Z</Time>
            <Position>
              <LatitudeDegrees>36.80003198795020580291748046875</LatitudeDegrees>
              <LongitudeDegrees>-4.38056641258299350738525390625</LongitudeDegrees>
            </Position>
            <AltitudeMeters>779.4000244140625</AltitudeMeters>
            <DistanceMeters>NAN</DistanceMeters>
          </Trackpoint>
          <Trackpoint>
            <Time>2020-12-05T14:30:52.000Z</Time>
            <Position>
              <LatitudeDegrees>36.80002561770379543304443359375</LatitudeDegrees>
              <LongitudeDegrees>-4.38058133237063884735107421875</LongitudeDegrees>
            </Position>
            <AltitudeMeters>779.20001220703125</AltitudeMeters>
            <DistanceMeters>NAN</DistanceMeters>
          </Trackpoint>
          <Trackpoint>
            <Time>2020-12-05T14:30:53.000Z</Time>
            <Position>
              <LatitudeDegrees>36.8000211752951145172119140625</LatitudeDegrees>
              <LongitudeDegrees>-4.3805986829102039337158203125</LongitudeDegrees>
            </Position>
            <AltitudeMeters>779.4000244140625</AltitudeMeters>
            <DistanceMeters>NAN</DistanceMeters>
          </Trackpoint>
          <Trackpoint>
            <Time>2020-12-05T14:30:54.000Z</Time>
            <Position>
              <LatitudeDegrees>36.8000174872577190399169921875</LatitudeDegrees>
              <LongitudeDegrees>-4.380615614354610443115234375</LongitudeDegrees>
            </Position>
            <AltitudeMeters>779.4000244140625</AltitudeMeters>
            <DistanceMeters>NAN</DistanceMeters>
          </Trackpoint>
          <Trackpoint>
            <Time>2020-12-05T14:30:55.000Z</Time>
            <Position>
              <LatitudeDegrees>36.8000141344964504241943359375</LatitudeDegrees>
              <LongitudeDegrees>-4.38062910921871662139892578125</LongitudeDegrees>
            </Position>
            <AltitudeMeters>779.4000244140625</AltitudeMeters>
            <DistanceMeters>NAN</DistanceMeters>
          </Trackpoint>
          <Trackpoint>
            <Time>2020-12-05T14:30:56.000Z</Time>
            <Position>
              <LatitudeDegrees>36.80001120083034038543701171875</LatitudeDegrees>
              <LongitudeDegrees>-4.380643777549266815185546875</LongitudeDegrees>
            </Position>
            <AltitudeMeters>779.20001220703125</AltitudeMeters>
            <DistanceMeters>NAN</DistanceMeters>
          </Trackpoint>
          <Trackpoint>
            <Time>2020-12-05T14:30:57.000Z</Time>
            <Position>
              <LatitudeDegrees>36.80000625550746917724609375</LatitudeDegrees>
              <LongitudeDegrees>-4.38065861351788043975830078125</LongitudeDegrees>
            </Position>
            <AltitudeMeters>779</AltitudeMeters>
            <DistanceMeters>NAN</DistanceMeters>
          </Trackpoint>
          <Trackpoint>
            <Time>2020-12-05T14:30:58.000Z</Time>
            <Position>
              <LatitudeDegrees>36.79999820888042449951171875</LatitudeDegrees>
              <LongitudeDegrees>-4.3806741200387477874755859375</LongitudeDegrees>
            </Position>
            <AltitudeMeters>778.79998779296875</AltitudeMeters>
            <DistanceMeters>NAN</DistanceMeters>
          </Trackpoint>
          <Trackpoint>
            <Time>2020-12-05T14:30:59.000Z</Time>
            <Position>
              <LatitudeDegrees>36.79999141953885555267333984375</LatitudeDegrees>
              <LongitudeDegrees>-4.38068811781704425811767578125</LongitudeDegrees>
            </Position>
            <AltitudeMeters>778.5999755859375</AltitudeMeters>
            <DistanceMeters>NAN</DistanceMeters>
          </Trackpoint>
          <Trackpoint>
            <Time>2020-12-05T14:31:00.000Z</Time>
            <Position>
              <LatitudeDegrees>36.79998387582600116729736328125</LatitudeDegrees>
              <LongitudeDegrees>-4.38070253469049930572509765625</LongitudeDegrees>
            </Position>
            <AltitudeMeters>778.4000244140625</AltitudeMeters>
            <DistanceMeters>NAN</DistanceMeters>
          </Trackpoint>
          <Trackpoint>
            <Time>2020-12-05T14:31:01.000Z</Time>
            <Position>
              <LatitudeDegrees>36.79997541010379791259765625</LatitudeDegrees>
              <LongitudeDegrees>-4.38071711920201778411865234375</LongitudeDegrees>
            </Position>
            <AltitudeMeters>778.20001220703125</AltitudeMeters>
            <DistanceMeters>NAN</DistanceMeters>
          </Trackpoint>
          <Trackpoint>
            <Time>2020-12-05T14:31:02.000Z</Time>
            <Position>
              <LatitudeDegrees>36.79996711201965808868408203125</LatitudeDegrees>
              <LongitudeDegrees>-4.38073472119867801666259765625</LongitudeDegrees>
            </Position>
            <AltitudeMeters>778.20001220703125</AltitudeMeters>
            <DistanceMeters>NAN</DistanceMeters>
          </Trackpoint>
          <Trackpoint>
            <Time>2020-12-05T14:31:03.000Z</Time>
            <Position>
              <LatitudeDegrees>36.79995973594486713409423828125</LatitudeDegrees>
              <LongitudeDegrees>-4.38075416721403598785400390625</LongitudeDegrees>
            </Position>
            <AltitudeMeters>777.79998779296875</AltitudeMeters>
            <DistanceMeters>NAN</DistanceMeters>
          </Trackpoint>
          <Trackpoint>
            <Time>2020-12-05T14:31:04.000Z</Time>
            <Position>
              <LatitudeDegrees>36.79995604790747165679931640625</LatitudeDegrees>
              <LongitudeDegrees>-4.3807736970484256744384765625</LongitudeDegrees>
            </Position>
            <AltitudeMeters>777.5999755859375</AltitudeMeters>
            <DistanceMeters>NAN</DistanceMeters>
          </Trackpoint>
          <Trackpoint>
            <Time>2020-12-05T14:31:05.000Z</Time>
            <Position>
              <LatitudeDegrees>36.799951605498790740966796875</LatitudeDegrees>
              <LongitudeDegrees>-4.3807921372354030609130859375</LongitudeDegrees>
            </Position>
            <AltitudeMeters>777.5999755859375</AltitudeMeters>
            <DistanceMeters>NAN</DistanceMeters>
          </Trackpoint>
          <Trackpoint>
            <Time>2020-12-05T14:31:06.000Z</Time>
            <Position>
              <LatitudeDegrees>36.79994649253785610198974609375</LatitudeDegrees>
              <LongitudeDegrees>-4.380810745060443878173828125</LongitudeDegrees>
            </Position>
            <AltitudeMeters>777.5999755859375</AltitudeMeters>
            <DistanceMeters>NAN</DistanceMeters>
          </Trackpoint>
          <Trackpoint>
            <Time>2020-12-05T14:31:07.000Z</Time>
            <Position>
              <LatitudeDegrees>36.79994431324303150177001953125</LatitudeDegrees>
              <LongitudeDegrees>-4.380825497210025787353515625</LongitudeDegrees>
            </Position>
            <AltitudeMeters>777.5999755859375</AltitudeMeters>
            <DistanceMeters>NAN</DistanceMeters>
          </Trackpoint>
          <Trackpoint>
            <Time>2020-12-05T14:31:08.000Z</Time>
            <Position>
              <LatitudeDegrees>36.7999398708343505859375</LatitudeDegrees>
              <LongitudeDegrees>-4.3808447755873203277587890625</LongitudeDegrees>
            </Position>
            <AltitudeMeters>777.5999755859375</AltitudeMeters>
            <DistanceMeters>NAN</DistanceMeters>
          </Trackpoint>
          <Trackpoint>
            <Time>2020-12-05T14:31:09.000Z</Time>
            <Position>
              <LatitudeDegrees>36.79993450641632080078125</LatitudeDegrees>
              <LongitudeDegrees>-4.3808652274310588836669921875</LongitudeDegrees>
            </Position>
            <AltitudeMeters>777.5999755859375</AltitudeMeters>
            <DistanceMeters>NAN</DistanceMeters>
          </Trackpoint>
          <Trackpoint>
            <Time>2020-12-05T14:31:10.000Z</Time>
            <Position>
              <LatitudeDegrees>36.79992838762700557708740234375</LatitudeDegrees>
              <LongitudeDegrees>-4.38088475726544857025146484375</LongitudeDegrees>
            </Position>
            <AltitudeMeters>777.5999755859375</AltitudeMeters>
            <DistanceMeters>NAN</DistanceMeters>
          </Trackpoint>
          <Trackpoint>
            <Time>2020-12-05T14:31:11.000Z</Time>
            <Position>
              <LatitudeDegrees>36.7999224364757537841796875</LatitudeDegrees>
              <LongitudeDegrees>-4.38090361654758453369140625</LongitudeDegrees>
            </Position>
            <AltitudeMeters>777.5999755859375</AltitudeMeters>
            <DistanceMeters>NAN</DistanceMeters>
          </Trackpoint>
          <Trackpoint>
            <Time>2020-12-05T14:31:12.000Z</Time>
            <Position>
              <LatitudeDegrees>36.7999143898487091064453125</LatitudeDegrees>
              <LongitudeDegrees>-4.38092431984841823577880859375</LongitudeDegrees>
            </Position>
            <AltitudeMeters>777.79998779296875</AltitudeMeters>
            <DistanceMeters>NAN</DistanceMeters>
          </Trackpoint>
          <Trackpoint>
            <Time>2020-12-05T14:31:13.000Z</Time>
            <Position>
              <LatitudeDegrees>36.79990894161164760589599609375</LatitudeDegrees>
              <LongitudeDegrees>-4.3809396587312221527099609375</LongitudeDegrees>
            </Position>
            <AltitudeMeters>777.79998779296875</AltitudeMeters>
            <DistanceMeters>NAN</DistanceMeters>
          </Trackpoint>
          <Trackpoint>
            <Time>2020-12-05T14:31:14.000Z</Time>
            <Position>
              <LatitudeDegrees>36.79990475066006183624267578125</LatitudeDegrees>
              <LongitudeDegrees>-4.3809579312801361083984375</LongitudeDegrees>
            </Position>
            <AltitudeMeters>778</AltitudeMeters>
            <DistanceMeters>NAN</DistanceMeters>
          </Trackpoint>
          <Trackpoint>
            <Time>2020-12-05T14:31:15.000Z</Time>
            <Position>
              <LatitudeDegrees>36.7999018169939517974853515625</LatitudeDegrees>
              <LongitudeDegrees>-4.380975030362606048583984375</LongitudeDegrees>
            </Position>
            <AltitudeMeters>778</AltitudeMeters>
            <DistanceMeters>NAN</DistanceMeters>
          </Trackpoint>
          <Trackpoint>
            <Time>2020-12-05T14:31:16.000Z</Time>
            <Position>
              <LatitudeDegrees>36.799897290766239166259765625</LatitudeDegrees>
              <LongitudeDegrees>-4.38099238090217113494873046875</LongitudeDegrees>
            </Position>
            <AltitudeMeters>778.20001220703125</AltitudeMeters>
            <DistanceMeters>NAN</DistanceMeters>
          </Trackpoint>
          <Trackpoint>
            <Time>2020-12-05T14:31:17.000Z</Time>
            <Position>
              <LatitudeDegrees>36.79989368654787540435791015625</LatitudeDegrees>
              <LongitudeDegrees>-4.38100998289883136749267578125</LongitudeDegrees>
            </Position>
            <AltitudeMeters>778.20001220703125</AltitudeMeters>
            <DistanceMeters>NAN</DistanceMeters>
          </Trackpoint>
          <Trackpoint>
            <Time>2020-12-05T14:31:18.000Z</Time>
            <Position>
              <LatitudeDegrees>36.79989284835755825042724609375</LatitudeDegrees>
              <LongitudeDegrees>-4.38102305866777896881103515625</LongitudeDegrees>
            </Position>
            <AltitudeMeters>778.20001220703125</AltitudeMeters>
            <DistanceMeters>NAN</DistanceMeters>
          </Trackpoint>
          <Trackpoint>
            <Time>2020-12-05T14:31:19.000Z</Time>
            <Position>
              <LatitudeDegrees>36.7998941056430339813232421875</LatitudeDegrees>
              <LongitudeDegrees>-4.38103915192186832427978515625</LongitudeDegrees>
            </Position>
            <AltitudeMeters>778.20001220703125</AltitudeMeters>
            <DistanceMeters>NAN</DistanceMeters>
          </Trackpoint>
          <Trackpoint>
            <Time>2020-12-05T14:31:20.000Z</Time>
            <Position>
              <LatitudeDegrees>36.7998961172997951507568359375</LatitudeDegrees>
              <LongitudeDegrees>-4.38105708919465541839599609375</LongitudeDegrees>
            </Position>
            <AltitudeMeters>778</AltitudeMeters>
            <DistanceMeters>NAN</DistanceMeters>
          </Trackpoint>
          <Trackpoint>
            <Time>2020-12-05T14:31:21.000Z</Time>
            <Position>
              <LatitudeDegrees>36.7998987995088100433349609375</LatitudeDegrees>
              <LongitudeDegrees>-4.381075613200664520263671875</LongitudeDegrees>
            </Position>
            <AltitudeMeters>777.79998779296875</AltitudeMeters>
            <DistanceMeters>NAN</DistanceMeters>
          </Trackpoint>
          <Trackpoint>
            <Time>2020-12-05T14:31:22.000Z</Time>
            <Position>
              <LatitudeDegrees>36.7999014817178249359130859375</LatitudeDegrees>
              <LongitudeDegrees>-4.38109313137829303741455078125</LongitudeDegrees>
            </Position>
            <AltitudeMeters>777.5999755859375</AltitudeMeters>
            <DistanceMeters>NAN</DistanceMeters>
          </Trackpoint>
          <Trackpoint>
            <Time>2020-12-05T14:31:23.000Z</Time>
            <Position>
              <LatitudeDegrees>36.7999028228223323822021484375</LatitudeDegrees>
              <LongitudeDegrees>-4.38111291266977787017822265625</LongitudeDegrees>
            </Position>
            <AltitudeMeters>777.4000244140625</AltitudeMeters>
            <DistanceMeters>NAN</DistanceMeters>
          </Trackpoint>
          <Trackpoint>
            <Time>2020-12-05T14:31:24.000Z</Time>
            <Position>
              <LatitudeDegrees>36.7999036610126495361328125</LatitudeDegrees>
              <LongitudeDegrees>-4.381131269037723541259765625</LongitudeDegrees>
            </Position>
            <AltitudeMeters>777.4000244140625</AltitudeMeters>
            <DistanceMeters>NAN</DistanceMeters>
          </Trackpoint>
          <Trackpoint>
            <Time>2020-12-05T14:31:25.000Z</Time>
            <Position>
              <LatitudeDegrees>36.79990491829812526702880859375</LatitudeDegrees>
              <LongitudeDegrees>-4.38114929012954235076904296875</LongitudeDegrees>
            </Position>
            <AltitudeMeters>777.4000244140625</AltitudeMeters>
            <DistanceMeters>NAN</DistanceMeters>
          </Trackpoint>
          <Trackpoint>
            <Time>2020-12-05T14:31:26.000Z</Time>
            <Position>
              <LatitudeDegrees>36.7999061755836009979248046875</LatitudeDegrees>
              <LongitudeDegrees>-4.38116638921201229095458984375</LongitudeDegrees>
            </Position>
            <AltitudeMeters>777.20001220703125</AltitudeMeters>
            <DistanceMeters>NAN</DistanceMeters>
          </Trackpoint>
          <Trackpoint>
            <Time>2020-12-05T14:31:27.000Z</Time>
            <Position>
              <LatitudeDegrees>36.7999048344790935516357421875</LatitudeDegrees>
              <LongitudeDegrees>-4.38118667341768741607666015625</LongitudeDegrees>
            </Position>
            <AltitudeMeters>777.20001220703125</AltitudeMeters>
            <DistanceMeters>NAN</DistanceMeters>
          </Trackpoint>
          <Trackpoint>
            <Time>2020-12-05T14:31:28.000Z</Time>
            <Position>
              <LatitudeDegrees>36.79990240372717380523681640625</LatitudeDegrees>
              <LongitudeDegrees>-4.38120670616626739501953125</LongitudeDegrees>
            </Position>
            <AltitudeMeters>777.20001220703125</AltitudeMeters>
            <DistanceMeters>NAN</DistanceMeters>
          </Trackpoint>
          <Trackpoint>
            <Time>2020-12-05T14:31:29.000Z</Time>
            <Position>
              <LatitudeDegrees>36.7998982965946197509765625</LatitudeDegrees>
              <LongitudeDegrees>-4.38122548162937164306640625</LongitudeDegrees>
            </Position>
            <AltitudeMeters>777.20001220703125</AltitudeMeters>
            <DistanceMeters>NAN</DistanceMeters>
          </Trackpoint>
          <Trackpoint>
            <Time>2020-12-05T14:31:30.000Z</Time>
            <Position>
              <LatitudeDegrees>36.799895279109477996826171875</LatitudeDegrees>
              <LongitudeDegrees>-4.38124132342636585235595703125</LongitudeDegrees>
            </Position>
            <AltitudeMeters>777</AltitudeMeters>
            <DistanceMeters>NAN</DistanceMeters>
          </Trackpoint>
          <Trackpoint>
            <Time>2020-12-05T14:31:31.000Z</Time>
            <Position>
              <LatitudeDegrees>36.79989360272884368896484375</LatitudeDegrees>
              <LongitudeDegrees>-4.3812544830143451690673828125</LongitudeDegrees>
            </Position>
            <AltitudeMeters>777</AltitudeMeters>
            <DistanceMeters>NAN</DistanceMeters>
          </Trackpoint>
          <Trackpoint>
            <Time>2020-12-05T14:31:32.000Z</Time>
            <Position>
              <LatitudeDegrees>36.799892596900463104248046875</LatitudeDegrees>
              <LongitudeDegrees>-4.381270073354244232177734375</LongitudeDegrees>
            </Position>
            <AltitudeMeters>776.79998779296875</AltitudeMeters>
            <DistanceMeters>NAN</DistanceMeters>
          </Trackpoint>
          <Trackpoint>
            <Time>2020-12-05T14:31:33.000Z</Time>
            <Position>
              <LatitudeDegrees>36.799890585243701934814453125</LatitudeDegrees>
              <LongitudeDegrees>-4.38128340058028697967529296875</LongitudeDegrees>
            </Position>
            <AltitudeMeters>776.5999755859375</AltitudeMeters>
            <DistanceMeters>NAN</DistanceMeters>
          </Trackpoint>
          <Trackpoint>
            <Time>2020-12-05T14:31:34.000Z</Time>
            <Position>
              <LatitudeDegrees>36.79988916032016277313232421875</LatitudeDegrees>
              <LongitudeDegrees>-4.3812994100153446197509765625</LongitudeDegrees>
            </Position>
            <AltitudeMeters>776.5999755859375</AltitudeMeters>
            <DistanceMeters>NAN</DistanceMeters>
          </Trackpoint>
          <Trackpoint>
            <Time>2020-12-05T14:31:35.000Z</Time>
            <Position>
              <LatitudeDegrees>36.79988664574921131134033203125</LatitudeDegrees>
              <LongitudeDegrees>-4.38131709583103656768798828125</LongitudeDegrees>
            </Position>
            <AltitudeMeters>776.4000244140625</AltitudeMeters>
            <DistanceMeters>NAN</DistanceMeters>
          </Trackpoint>
          <Trackpoint>
            <Time>2020-12-05T14:31:36.000Z</Time>
            <Position>
              <LatitudeDegrees>36.79988279007375240325927734375</LatitudeDegrees>
              <LongitudeDegrees>-4.38133142888545989990234375</LongitudeDegrees>
            </Position>
            <AltitudeMeters>776.4000244140625</AltitudeMeters>
            <DistanceMeters>NAN</DistanceMeters>
          </Trackpoint>
          <Trackpoint>
            <Time>2020-12-05T14:31:37.000Z</Time>
            <Position>
              <LatitudeDegrees>36.7998803593218326568603515625</LatitudeDegrees>
              <LongitudeDegrees>-4.3813473545014858245849609375</LongitudeDegrees>
            </Position>
            <AltitudeMeters>776.5999755859375</AltitudeMeters>
            <DistanceMeters>NAN</DistanceMeters>
          </Trackpoint>
          <Trackpoint>
            <Time>2020-12-05T14:31:38.000Z</Time>
            <Position>
              <LatitudeDegrees>36.7998795211315155029296875</LatitudeDegrees>
              <LongitudeDegrees>-4.381364621222019195556640625</LongitudeDegrees>
            </Position>
            <AltitudeMeters>776.5999755859375</AltitudeMeters>
            <DistanceMeters>NAN</DistanceMeters>
          </Trackpoint>
          <Trackpoint>
            <Time>2020-12-05T14:31:39.000Z</Time>
            <Position>
              <LatitudeDegrees>36.79987608455121517181396484375</LatitudeDegrees>
              <LongitudeDegrees>-4.38138029538094997406005859375</LongitudeDegrees>
            </Position>
            <AltitudeMeters>776.4000244140625</AltitudeMeters>
            <DistanceMeters>NAN</DistanceMeters>
          </Trackpoint>
          <Trackpoint>
            <Time>2020-12-05T14:31:40.000Z</Time>
            <Position>
              <LatitudeDegrees>36.79987524636089801788330078125</LatitudeDegrees>
              <LongitudeDegrees>-4.38139387406408786773681640625</LongitudeDegrees>
            </Position>
            <AltitudeMeters>776.20001220703125</AltitudeMeters>
            <DistanceMeters>NAN</DistanceMeters>
          </Trackpoint>
          <Trackpoint>
            <Time>2020-12-05T14:31:41.000Z</Time>
            <Position>
              <LatitudeDegrees>36.79988262243568897247314453125</LatitudeDegrees>
              <LongitudeDegrees>-4.381414912641048431396484375</LongitudeDegrees>
            </Position>
            <AltitudeMeters>776</AltitudeMeters>
            <DistanceMeters>NAN</DistanceMeters>
          </Trackpoint>
          <Trackpoint>
            <Time>2020-12-05T14:31:42.000Z</Time>
            <Position>
              <LatitudeDegrees>36.79988530464470386505126953125</LatitudeDegrees>
              <LongitudeDegrees>-4.3814313411712646484375</LongitudeDegrees>
            </Position>
            <AltitudeMeters>775.5999755859375</AltitudeMeters>
            <DistanceMeters>NAN</DistanceMeters>
          </Trackpoint>
          <Trackpoint>
            <Time>2020-12-05T14:31:43.000Z</Time>
            <Position>
              <LatitudeDegrees>36.7998880706727504730224609375</LatitudeDegrees>
              <LongitudeDegrees>-4.38144232146441936492919921875</LongitudeDegrees>
            </Position>
            <AltitudeMeters>775.5999755859375</AltitudeMeters>
            <DistanceMeters>NAN</DistanceMeters>
          </Trackpoint>
          <Trackpoint>
            <Time>2020-12-05T14:31:44.000Z</Time>
            <Position>
              <LatitudeDegrees>36.79988865740597248077392578125</LatitudeDegrees>
              <LongitudeDegrees>-4.38145103864371776580810546875</LongitudeDegrees>
            </Position>
            <AltitudeMeters>775.4000244140625</AltitudeMeters>
            <DistanceMeters>NAN</DistanceMeters>
          </Trackpoint>
          <Trackpoint>
            <Time>2020-12-05T14:31:45.000Z</Time>
            <Position>
              <LatitudeDegrees>36.7998897470533847808837890625</LatitudeDegrees>
              <LongitudeDegrees>-4.3814610131084918975830078125</LongitudeDegrees>
            </Position>
            <AltitudeMeters>775.4000244140625</AltitudeMeters>
            <DistanceMeters>NAN</DistanceMeters>
          </Trackpoint>
          <Trackpoint>
            <Time>2020-12-05T14:31:46.000Z</Time>
            <Position>
              <LatitudeDegrees>36.79989092051982879638671875</LatitudeDegrees>
              <LongitudeDegrees>-4.38147501088678836822509765625</LongitudeDegrees>
            </Position>
            <AltitudeMeters>775.4000244140625</AltitudeMeters>
            <DistanceMeters>NAN</DistanceMeters>
          </Trackpoint>
          <Trackpoint>
            <Time>2020-12-05T14:31:47.000Z</Time>
            <Position>
              <LatitudeDegrees>36.799891255795955657958984375</LatitudeDegrees>
              <LongitudeDegrees>-4.38149110414087772369384765625</LongitudeDegrees>
            </Position>
            <AltitudeMeters>775.5999755859375</AltitudeMeters>
            <DistanceMeters>NAN</DistanceMeters>
          </Trackpoint>
          <Trackpoint>
            <Time>2020-12-05T14:31:48.000Z</Time>
            <Position>
              <LatitudeDegrees>36.799891926348209381103515625</LatitudeDegrees>
              <LongitudeDegrees>-4.3815089575946331024169921875</LongitudeDegrees>
            </Position>
            <AltitudeMeters>775.5999755859375</AltitudeMeters>
            <DistanceMeters>NAN</DistanceMeters>
          </Trackpoint>
          <Trackpoint>
            <Time>2020-12-05T14:31:49.000Z</Time>
            <Position>
              <LatitudeDegrees>36.7998907528817653656005859375</LatitudeDegrees>
              <LongitudeDegrees>-4.38152630813419818878173828125</LongitudeDegrees>
            </Position>
            <AltitudeMeters>775.79998779296875</AltitudeMeters>
            <DistanceMeters>NAN</DistanceMeters>
          </Trackpoint>
          <Trackpoint>
            <Time>2020-12-05T14:31:50.000Z</Time>
            <Position>
              <LatitudeDegrees>36.79988966323435306549072265625</LatitudeDegrees>
              <LongitudeDegrees>-4.38154357485473155975341796875</LongitudeDegrees>
            </Position>
            <AltitudeMeters>775.79998779296875</AltitudeMeters>
            <DistanceMeters>NAN</DistanceMeters>
          </Trackpoint>
          <Trackpoint>
            <Time>2020-12-05T14:31:51.000Z</Time>
            <Position>
              <LatitudeDegrees>36.79988798685371875762939453125</LatitudeDegrees>
              <LongitudeDegrees>-4.381562434136867523193359375</LongitudeDegrees>
            </Position>
            <AltitudeMeters>775.79998779296875</AltitudeMeters>
            <DistanceMeters>NAN</DistanceMeters>
          </Trackpoint>
          <Trackpoint>
            <Time>2020-12-05T14:31:52.000Z</Time>
            <Position>
              <LatitudeDegrees>36.79988580755889415740966796875</LatitudeDegrees>
              <LongitudeDegrees>-4.3815790303051471710205078125</LongitudeDegrees>
            </Position>
            <AltitudeMeters>775.5999755859375</AltitudeMeters>
            <DistanceMeters>NAN</DistanceMeters>
          </Trackpoint>
          <Trackpoint>
            <Time>2020-12-05T14:31:53.000Z</Time>
            <Position>
              <LatitudeDegrees>36.799885891377925872802734375</LatitudeDegrees>
              <LongitudeDegrees>-4.38159571029245853424072265625</LongitudeDegrees>
            </Position>
            <AltitudeMeters>775.4000244140625</AltitudeMeters>
            <DistanceMeters>NAN</DistanceMeters>
          </Trackpoint>
          <Trackpoint>
            <Time>2020-12-05T14:31:54.000Z</Time>
            <Position>
              <LatitudeDegrees>36.7998848855495452880859375</LatitudeDegrees>
              <LongitudeDegrees>-4.38161331228911876678466796875</LongitudeDegrees>
            </Position>
            <AltitudeMeters>775.4000244140625</AltitudeMeters>
            <DistanceMeters>NAN</DistanceMeters>
          </Trackpoint>
          <Trackpoint>
            <Time>2020-12-05T14:31:55.000Z</Time>
            <Position>
              <LatitudeDegrees>36.79988362826406955718994140625</LatitudeDegrees>
              <LongitudeDegrees>-4.38162957318127155303955078125</LongitudeDegrees>
            </Position>
            <AltitudeMeters>775.20001220703125</AltitudeMeters>
            <DistanceMeters>NAN</DistanceMeters>
          </Trackpoint>
          <Trackpoint>
            <Time>2020-12-05T14:31:56.000Z</Time>
            <Position>
              <LatitudeDegrees>36.79988346062600612640380859375</LatitudeDegrees>
              <LongitudeDegrees>-4.381644912064075469970703125</LongitudeDegrees>
            </Position>
            <AltitudeMeters>775.20001220703125</AltitudeMeters>
            <DistanceMeters>NAN</DistanceMeters>
          </Trackpoint>
          <Trackpoint>
            <Time>2020-12-05T14:31:57.000Z</Time>
            <Position>
              <LatitudeDegrees>36.79988413117825984954833984375</LatitudeDegrees>
              <LongitudeDegrees>-4.38165924511849880218505859375</LongitudeDegrees>
            </Position>
            <AltitudeMeters>775.20001220703125</AltitudeMeters>
            <DistanceMeters>NAN</DistanceMeters>
          </Trackpoint>
          <Trackpoint>
            <Time>2020-12-05T14:31:58.000Z</Time>
            <Position>
              <LatitudeDegrees>36.79988580755889415740966796875</LatitudeDegrees>
              <LongitudeDegrees>-4.38167299143970012664794921875</LongitudeDegrees>
            </Position>
            <AltitudeMeters>775.20001220703125</AltitudeMeters>
            <DistanceMeters>NAN</DistanceMeters>
          </Trackpoint>
          <Trackpoint>
            <Time>2020-12-05T14:31:59.000Z</Time>
            <Position>
              <LatitudeDegrees>36.799888573586940765380859375</LatitudeDegrees>
              <LongitudeDegrees>-4.3816859833896160125732421875</LongitudeDegrees>
            </Position>
            <AltitudeMeters>775</AltitudeMeters>
            <DistanceMeters>NAN</DistanceMeters>
          </Trackpoint>
          <Trackpoint>
            <Time>2020-12-05T14:32:00.000Z</Time>
            <Position>
              <LatitudeDegrees>36.79988832212984561920166015625</LatitudeDegrees>
              <LongitudeDegrees>-4.3816963769495487213134765625</LongitudeDegrees>
            </Position>
            <AltitudeMeters>775</AltitudeMeters>
            <DistanceMeters>NAN</DistanceMeters>
          </Trackpoint>
          <Trackpoint>
            <Time>2020-12-05T14:32:01.000Z</Time>
            <Position>
              <LatitudeDegrees>36.79988765157759189605712890625</LatitudeDegrees>
              <LongitudeDegrees>-4.38171255402266979217529296875</LongitudeDegrees>
            </Position>
            <AltitudeMeters>774.79998779296875</AltitudeMeters>
            <DistanceMeters>NAN</DistanceMeters>
          </Trackpoint>
          <Trackpoint>
            <Time>2020-12-05T14:32:02.000Z</Time>
            <Position>
              <LatitudeDegrees>36.79988547228276729583740234375</LatitudeDegrees>
              <LongitudeDegrees>-4.3817312456667423248291015625</LongitudeDegrees>
            </Position>
            <AltitudeMeters>774.79998779296875</AltitudeMeters>
            <DistanceMeters>NAN</DistanceMeters>
          </Trackpoint>
          <Trackpoint>
            <Time>2020-12-05T14:32:03.000Z</Time>
            <Position>
              <LatitudeDegrees>36.7998817004263401031494140625</LatitudeDegrees>
              <LongitudeDegrees>-4.381750188767910003662109375</LongitudeDegrees>
            </Position>
            <AltitudeMeters>774.4000244140625</AltitudeMeters>
            <DistanceMeters>NAN</DistanceMeters>
          </Trackpoint>
          <Trackpoint>
            <Time>2020-12-05T14:32:04.000Z</Time>
            <Position>
              <LatitudeDegrees>36.79987759329378604888916015625</LatitudeDegrees>
              <LongitudeDegrees>-4.38177072443068027496337890625</LongitudeDegrees>
            </Position>
            <AltitudeMeters>774.20001220703125</AltitudeMeters>
            <DistanceMeters>NAN</DistanceMeters>
          </Trackpoint>
          <Trackpoint>
            <Time>2020-12-05T14:32:05.000Z</Time>
            <Position>
              <LatitudeDegrees>36.7998749949038028717041015625</LatitudeDegrees>
              <LongitudeDegrees>-4.38178933225572109222412109375</LongitudeDegrees>
            </Position>
            <AltitudeMeters>774</AltitudeMeters>
            <DistanceMeters>NAN</DistanceMeters>
          </Trackpoint>
          <Trackpoint>
            <Time>2020-12-05T14:32:06.000Z</Time>
            <Position>
              <LatitudeDegrees>36.7998723126947879791259765625</LatitudeDegrees>
              <LongitudeDegrees>-4.3818053416907787322998046875</LongitudeDegrees>
            </Position>
            <AltitudeMeters>773.79998779296875</AltitudeMeters>
            <DistanceMeters>NAN</DistanceMeters>
          </Trackpoint>
          <Trackpoint>
            <Time>2020-12-05T14:32:07.000Z</Time>
            <Position>
              <LatitudeDegrees>36.7998713068664073944091796875</LatitudeDegrees>
              <LongitudeDegrees>-4.38182202167809009552001953125</LongitudeDegrees>
            </Position>
            <AltitudeMeters>773.79998779296875</AltitudeMeters>
            <DistanceMeters>NAN</DistanceMeters>
          </Trackpoint>
          <Trackpoint>
            <Time>2020-12-05T14:32:08.000Z</Time>
            <Position>
              <LatitudeDegrees>36.79987038485705852508544921875</LatitudeDegrees>
              <LongitudeDegrees>-4.38183962367475032806396484375</LongitudeDegrees>
            </Position>
            <AltitudeMeters>773.5999755859375</AltitudeMeters>
            <DistanceMeters>NAN</DistanceMeters>
          </Trackpoint>
          <Trackpoint>
            <Time>2020-12-05T14:32:09.000Z</Time>
            <Position>
              <LatitudeDegrees>36.79986820556223392486572265625</LatitudeDegrees>
              <LongitudeDegrees>-4.38185487873852252960205078125</LongitudeDegrees>
            </Position>
            <AltitudeMeters>773.5999755859375</AltitudeMeters>
            <DistanceMeters>NAN</DistanceMeters>
          </Trackpoint>
          <Trackpoint>
            <Time>2020-12-05T14:32:10.000Z</Time>
            <Position>
              <LatitudeDegrees>36.799867451190948486328125</LatitudeDegrees>
              <LongitudeDegrees>-4.3818672001361846923828125</LongitudeDegrees>
            </Position>
            <AltitudeMeters>773.5999755859375</AltitudeMeters>
            <DistanceMeters>NAN</DistanceMeters>
          </Trackpoint>
          <Trackpoint>
            <Time>2020-12-05T14:32:11.000Z</Time>
            <Position>
              <LatitudeDegrees>36.79986636154353618621826171875</LatitudeDegrees>
              <LongitudeDegrees>-4.381879270076751708984375</LongitudeDegrees>
            </Position>
            <AltitudeMeters>773.4000244140625</AltitudeMeters>
            <DistanceMeters>NAN</DistanceMeters>
          </Trackpoint>
          <Trackpoint>
            <Time>2020-12-05T14:32:12.000Z</Time>
            <Position>
              <LatitudeDegrees>36.79986351169645786285400390625</LatitudeDegrees>
              <LongitudeDegrees>-4.3818931840360164642333984375</LongitudeDegrees>
            </Position>
            <AltitudeMeters>773.4000244140625</AltitudeMeters>
            <DistanceMeters>NAN</DistanceMeters>
          </Trackpoint>
          <Trackpoint>
            <Time>2020-12-05T14:32:13.000Z</Time>
            <Position>
              <LatitudeDegrees>36.7998585663735866546630859375</LatitudeDegrees>
              <LongitudeDegrees>-4.3819086067378520965576171875</LongitudeDegrees>
            </Position>
            <AltitudeMeters>773.20001220703125</AltitudeMeters>
            <DistanceMeters>NAN</DistanceMeters>
          </Trackpoint>
          <Trackpoint>
            <Time>2020-12-05T14:32:14.000Z</Time>
            <Position>
              <LatitudeDegrees>36.799853034317493438720703125</LatitudeDegrees>
              <LongitudeDegrees>-4.3819233588874340057373046875</LongitudeDegrees>
            </Position>
            <AltitudeMeters>773.20001220703125</AltitudeMeters>
            <DistanceMeters>NAN</DistanceMeters>
          </Trackpoint>
          <Trackpoint>
            <Time>2020-12-05T14:32:15.000Z</Time>
            <Position>
              <LatitudeDegrees>36.79984842427074909210205078125</LatitudeDegrees>
              <LongitudeDegrees>-4.381937272846698760986328125</LongitudeDegrees>
            </Position>
            <AltitudeMeters>773</AltitudeMeters>
            <DistanceMeters>NAN</DistanceMeters>
          </Trackpoint>
          <Trackpoint>
            <Time>2020-12-05T14:32:16.000Z</Time>
            <Position>
              <LatitudeDegrees>36.79984456859529018402099609375</LatitudeDegrees>
              <LongitudeDegrees>-4.38195143826305866241455078125</LongitudeDegrees>
            </Position>
            <AltitudeMeters>773</AltitudeMeters>
            <DistanceMeters>NAN</DistanceMeters>
          </Trackpoint>
          <Trackpoint>
            <Time>2020-12-05T14:32:17.000Z</Time>
            <Position>
              <LatitudeDegrees>36.79984171874821186065673828125</LatitudeDegrees>
              <LongitudeDegrees>-4.3819645978510379791259765625</LongitudeDegrees>
            </Position>
            <AltitudeMeters>773.20001220703125</AltitudeMeters>
            <DistanceMeters>NAN</DistanceMeters>
          </Trackpoint>
          <Trackpoint>
            <Time>2020-12-05T14:32:18.000Z</Time>
            <Position>
              <LatitudeDegrees>36.7998366057872772216796875</LatitudeDegrees>
              <LongitudeDegrees>-4.381980188190937042236328125</LongitudeDegrees>
            </Position>
            <AltitudeMeters>773.20001220703125</AltitudeMeters>
            <DistanceMeters>NAN</DistanceMeters>
          </Trackpoint>
          <Trackpoint>
            <Time>2020-12-05T14:32:19.000Z</Time>
            <Position>
              <LatitudeDegrees>36.79982981644570827484130859375</LatitudeDegrees>
              <LongitudeDegrees>-4.3819961138069629669189453125</LongitudeDegrees>
            </Position>
            <AltitudeMeters>773.20001220703125</AltitudeMeters>
            <DistanceMeters>NAN</DistanceMeters>
          </Trackpoint>
          <Trackpoint>
            <Time>2020-12-05T14:32:20.000Z</Time>
            <Position>
              <LatitudeDegrees>36.7998223565518856048583984375</LatitudeDegrees>
              <LongitudeDegrees>-4.382009692490100860595703125</LongitudeDegrees>
            </Position>
            <AltitudeMeters>773.20001220703125</AltitudeMeters>
            <DistanceMeters>NAN</DistanceMeters>
          </Trackpoint>
          <Trackpoint>
            <Time>2020-12-05T14:32:21.000Z</Time>
            <Position>
              <LatitudeDegrees>36.7998153157532215118408203125</LatitudeDegrees>
              <LongitudeDegrees>-4.3820249475538730621337890625</LongitudeDegrees>
            </Position>
            <AltitudeMeters>773.20001220703125</AltitudeMeters>
            <DistanceMeters>NAN</DistanceMeters>
          </Trackpoint>
          <Trackpoint>
            <Time>2020-12-05T14:32:22.000Z</Time>
            <Position>
              <LatitudeDegrees>36.799808777868747711181640625</LatitudeDegrees>
              <LongitudeDegrees>-4.38203576020896434783935546875</LongitudeDegrees>
            </Position>
            <AltitudeMeters>773.20001220703125</AltitudeMeters>
            <DistanceMeters>NAN</DistanceMeters>
          </Trackpoint>
          <Trackpoint>
            <Time>2020-12-05T14:32:23.000Z</Time>
            <Position>
              <LatitudeDegrees>36.7998025752604007720947265625</LatitudeDegrees>
              <LongitudeDegrees>-4.38204330392181873321533203125</LongitudeDegrees>
            </Position>
            <AltitudeMeters>773</AltitudeMeters>
            <DistanceMeters>NAN</DistanceMeters>
          </Trackpoint>
          <Trackpoint>
            <Time>2020-12-05T14:32:24.000Z</Time>
            <Position>
              <LatitudeDegrees>36.79979612119495868682861328125</LatitudeDegrees>
              <LongitudeDegrees>-4.38204950653016567230224609375</LongitudeDegrees>
            </Position>
            <AltitudeMeters>773</AltitudeMeters>
            <DistanceMeters>NAN</DistanceMeters>
          </Trackpoint>
          <Trackpoint>
            <Time>2020-12-05T14:32:25.000Z</Time>
            <Position>
              <LatitudeDegrees>36.79978891275823116302490234375</LatitudeDegrees>
              <LongitudeDegrees>-4.38205721788108348846435546875</LongitudeDegrees>
            </Position>
            <AltitudeMeters>772.79998779296875</AltitudeMeters>
            <DistanceMeters>NAN</DistanceMeters>
          </Trackpoint>
          <Trackpoint>
            <Time>2020-12-05T14:32:26.000Z</Time>
            <Position>
              <LatitudeDegrees>36.79978287778794765472412109375</LatitudeDegrees>
              <LongitudeDegrees>-4.38206308521330356597900390625</LongitudeDegrees>
            </Position>
            <AltitudeMeters>772.5999755859375</AltitudeMeters>
            <DistanceMeters>NAN</DistanceMeters>
          </Trackpoint>
          <Trackpoint>
            <Time>2020-12-05T14:32:27.000Z</Time>
            <Position>
              <LatitudeDegrees>36.7997791059315204620361328125</LatitudeDegrees>
              <LongitudeDegrees>-4.3820630013942718505859375</LongitudeDegrees>
            </Position>
            <AltitudeMeters>772.4000244140625</AltitudeMeters>
            <DistanceMeters>NAN</DistanceMeters>
          </Trackpoint>
          <Trackpoint>
            <Time>2020-12-05T14:32:28.000Z</Time>
            <Position>
              <LatitudeDegrees>36.79977826774120330810546875</LatitudeDegrees>
              <LongitudeDegrees>-4.382057972252368927001953125</LongitudeDegrees>
            </Position>
            <AltitudeMeters>772</AltitudeMeters>
            <DistanceMeters>NAN</DistanceMeters>
          </Trackpoint>
          <Trackpoint>
            <Time>2020-12-05T14:32:29.000Z</Time>
            <Position>
              <LatitudeDegrees>36.799777932465076446533203125</LatitudeDegrees>
              <LongitudeDegrees>-4.382053948938846588134765625</LongitudeDegrees>
            </Position>
            <AltitudeMeters>771.79998779296875</AltitudeMeters>
            <DistanceMeters>NAN</DistanceMeters>
          </Trackpoint>
          <Trackpoint>
            <Time>2020-12-05T14:32:30.000Z</Time>
            <Position>
              <LatitudeDegrees>36.79977818392217159271240234375</LatitudeDegrees>
              <LongitudeDegrees>-4.38205604441463947296142578125</LongitudeDegrees>
            </Position>
            <AltitudeMeters>771.79998779296875</AltitudeMeters>
            <DistanceMeters>NAN</DistanceMeters>
          </Trackpoint>
          <Trackpoint>
            <Time>2020-12-05T14:32:31.000Z</Time>
            <Position>
              <LatitudeDegrees>36.7997774295508861541748046875</LatitudeDegrees>
              <LongitudeDegrees>-4.38206459395587444305419921875</LongitudeDegrees>
            </Position>
            <AltitudeMeters>771.5999755859375</AltitudeMeters>
            <DistanceMeters>NAN</DistanceMeters>
          </Trackpoint>
          <Trackpoint>
            <Time>2020-12-05T14:32:32.000Z</Time>
            <Position>
              <LatitudeDegrees>36.7997764237225055694580078125</LatitudeDegrees>
              <LongitudeDegrees>-4.38208018429577350616455078125</LongitudeDegrees>
            </Position>
            <AltitudeMeters>771.5999755859375</AltitudeMeters>
            <DistanceMeters>NAN</DistanceMeters>
          </Trackpoint>
          <Trackpoint>
            <Time>2020-12-05T14:32:33.000Z</Time>
            <Position>
              <LatitudeDegrees>36.79977533407509326934814453125</LatitudeDegrees>
              <LongitudeDegrees>-4.3820973671972751617431640625</LongitudeDegrees>
            </Position>
            <AltitudeMeters>771.4000244140625</AltitudeMeters>
            <DistanceMeters>NAN</DistanceMeters>
          </Trackpoint>
          <Trackpoint>
            <Time>2020-12-05T14:32:34.000Z</Time>
            <Position>
              <LatitudeDegrees>36.79977332241833209991455078125</LatitudeDegrees>
              <LongitudeDegrees>-4.38211086206138134002685546875</LongitudeDegrees>
            </Position>
            <AltitudeMeters>771.4000244140625</AltitudeMeters>
            <DistanceMeters>NAN</DistanceMeters>
          </Trackpoint>
          <Trackpoint>
            <Time>2020-12-05T14:32:35.000Z</Time>
            <Position>
              <LatitudeDegrees>36.7997677065432071685791015625</LatitudeDegrees>
              <LongitudeDegrees>-4.38212092034518718719482421875</LongitudeDegrees>
            </Position>
            <AltitudeMeters>771.4000244140625</AltitudeMeters>
            <DistanceMeters>NAN</DistanceMeters>
          </Trackpoint>
          <Trackpoint>
            <Time>2020-12-05T14:32:36.000Z</Time>
            <Position>
              <LatitudeDegrees>36.7997579835355281829833984375</LatitudeDegrees>
              <LongitudeDegrees>-4.38212980516254901885986328125</LongitudeDegrees>
            </Position>
            <AltitudeMeters>771.20001220703125</AltitudeMeters>
            <DistanceMeters>NAN</DistanceMeters>
          </Trackpoint>
          <Trackpoint>
            <Time>2020-12-05T14:32:37.000Z</Time>
            <Position>
              <LatitudeDegrees>36.79974683560431003570556640625</LatitudeDegrees>
              <LongitudeDegrees>-4.38213852234184741973876953125</LongitudeDegrees>
            </Position>
            <AltitudeMeters>771.20001220703125</AltitudeMeters>
            <DistanceMeters>NAN</DistanceMeters>
          </Trackpoint>
          <Trackpoint>
            <Time>2020-12-05T14:32:38.000Z</Time>
            <Position>
              <LatitudeDegrees>36.7997331731021404266357421875</LatitudeDegrees>
              <LongitudeDegrees>-4.382142461836338043212890625</LongitudeDegrees>
            </Position>
            <AltitudeMeters>771</AltitudeMeters>
            <DistanceMeters>NAN</DistanceMeters>
          </Trackpoint>
          <Trackpoint>
            <Time>2020-12-05T14:32:39.000Z</Time>
            <Position>
              <LatitudeDegrees>36.7997184209525585174560546875</LatitudeDegrees>
              <LongitudeDegrees>-4.38214288093149662017822265625</LongitudeDegrees>
            </Position>
            <AltitudeMeters>770.79998779296875</AltitudeMeters>
            <DistanceMeters>NAN</DistanceMeters>
          </Trackpoint>
          <Trackpoint>
            <Time>2020-12-05T14:32:40.000Z</Time>
            <Position>
              <LatitudeDegrees>36.7997051775455474853515625</LatitudeDegrees>
              <LongitudeDegrees>-4.38214405439794063568115234375</LongitudeDegrees>
            </Position>
            <AltitudeMeters>770.4000244140625</AltitudeMeters>
            <DistanceMeters>NAN</DistanceMeters>
          </Trackpoint>
          <Trackpoint>
            <Time>2020-12-05T14:32:41.000Z</Time>
            <Position>
              <LatitudeDegrees>36.79969511926174163818359375</LatitudeDegrees>
              <LongitudeDegrees>-4.38214355148375034332275390625</LongitudeDegrees>
            </Position>
            <AltitudeMeters>770.20001220703125</AltitudeMeters>
            <DistanceMeters>NAN</DistanceMeters>
          </Trackpoint>
          <Trackpoint>
            <Time>2020-12-05T14:32:42.000Z</Time>
            <Position>
              <LatitudeDegrees>36.79968983866274356842041015625</LatitudeDegrees>
              <LongitudeDegrees>-4.3821402825415134429931640625</LongitudeDegrees>
            </Position>
            <AltitudeMeters>770.20001220703125</AltitudeMeters>
            <DistanceMeters>NAN</DistanceMeters>
          </Trackpoint>
          <Trackpoint>
            <Time>2020-12-05T14:32:43.000Z</Time>
            <Position>
              <LatitudeDegrees>36.7996865697205066680908203125</LatitudeDegrees>
              <LongitudeDegrees>-4.38213718123733997344970703125</LongitudeDegrees>
            </Position>
            <AltitudeMeters>770</AltitudeMeters>
            <DistanceMeters>NAN</DistanceMeters>
          </Trackpoint>
          <Trackpoint>
            <Time>2020-12-05T14:32:44.000Z</Time>
            <Position>
              <LatitudeDegrees>36.79967810399830341339111328125</LatitudeDegrees>
              <LongitudeDegrees>-4.3821238540112972259521484375</LongitudeDegrees>
            </Position>
            <AltitudeMeters>770</AltitudeMeters>
            <DistanceMeters>NAN</DistanceMeters>
          </Trackpoint>
          <Trackpoint>
            <Time>2020-12-05T14:32:45.000Z</Time>
            <Position>
              <LatitudeDegrees>36.79966888390481472015380859375</LatitudeDegrees>
              <LongitudeDegrees>-4.38210851512849330902099609375</LongitudeDegrees>
            </Position>
            <AltitudeMeters>769.79998779296875</AltitudeMeters>
            <DistanceMeters>NAN</DistanceMeters>
          </Trackpoint>
          <Trackpoint>
            <Time>2020-12-05T14:32:46.000Z</Time>
            <Position>
              <LatitudeDegrees>36.79966402240097522735595703125</LatitudeDegrees>
              <LongitudeDegrees>-4.38209309242665767669677734375</LongitudeDegrees>
            </Position>
            <AltitudeMeters>769.5999755859375</AltitudeMeters>
            <DistanceMeters>NAN</DistanceMeters>
          </Trackpoint>
          <Trackpoint>
            <Time>2020-12-05T14:32:47.000Z</Time>
            <Position>
              <LatitudeDegrees>36.7996577359735965728759765625</LatitudeDegrees>
              <LongitudeDegrees>-4.38207549042999744415283203125</LongitudeDegrees>
            </Position>
            <AltitudeMeters>769.5999755859375</AltitudeMeters>
            <DistanceMeters>NAN</DistanceMeters>
          </Trackpoint>
          <Trackpoint>
            <Time>2020-12-05T14:32:48.000Z</Time>
            <Position>
              <LatitudeDegrees>36.79965362884104251861572265625</LatitudeDegrees>
              <LongitudeDegrees>-4.3820603191852569580078125</LongitudeDegrees>
            </Position>
            <AltitudeMeters>769.4000244140625</AltitudeMeters>
            <DistanceMeters>NAN</DistanceMeters>
          </Trackpoint>
          <Trackpoint>
            <Time>2020-12-05T14:32:49.000Z</Time>
            <Position>
              <LatitudeDegrees>36.79965010844171047210693359375</LatitudeDegrees>
              <LongitudeDegrees>-4.382045231759548187255859375</LongitudeDegrees>
            </Position>
            <AltitudeMeters>769.20001220703125</AltitudeMeters>
            <DistanceMeters>NAN</DistanceMeters>
          </Trackpoint>
          <Trackpoint>
            <Time>2020-12-05T14:32:50.000Z</Time>
            <Position>
              <LatitudeDegrees>36.7996496893465518951416015625</LatitudeDegrees>
              <LongitudeDegrees>-4.3820272944867610931396484375</LongitudeDegrees>
            </Position>
            <AltitudeMeters>769.20001220703125</AltitudeMeters>
            <DistanceMeters>NAN</DistanceMeters>
          </Trackpoint>
          <Trackpoint>
            <Time>2020-12-05T14:32:51.000Z</Time>
            <Position>
              <LatitudeDegrees>36.79964776150882244110107421875</LatitudeDegrees>
              <LongitudeDegrees>-4.382015056908130645751953125</LongitudeDegrees>
            </Position>
            <AltitudeMeters>769</AltitudeMeters>
            <DistanceMeters>NAN</DistanceMeters>
          </Trackpoint>
          <Trackpoint>
            <Time>2020-12-05T14:32:52.000Z</Time>
            <Position>
              <LatitudeDegrees>36.799647510051727294921875</LatitudeDegrees>
              <LongitudeDegrees>-4.3820013105869293212890625</LongitudeDegrees>
            </Position>
            <AltitudeMeters>768.79998779296875</AltitudeMeters>
            <DistanceMeters>NAN</DistanceMeters>
          </Trackpoint>
          <Trackpoint>
            <Time>2020-12-05T14:32:53.000Z</Time>
            <Position>
              <LatitudeDegrees>36.7996470071375370025634765625</LatitudeDegrees>
              <LongitudeDegrees>-4.3819892406463623046875</LongitudeDegrees>
            </Position>
            <AltitudeMeters>768.79998779296875</AltitudeMeters>
            <DistanceMeters>NAN</DistanceMeters>
          </Trackpoint>
          <Trackpoint>
            <Time>2020-12-05T14:32:54.000Z</Time>
            <Position>
              <LatitudeDegrees>36.7996453307569026947021484375</LatitudeDegrees>
              <LongitudeDegrees>-4.38197976909577846527099609375</LongitudeDegrees>
            </Position>
            <AltitudeMeters>768.5999755859375</AltitudeMeters>
            <DistanceMeters>NAN</DistanceMeters>
          </Trackpoint>
          <Trackpoint>
            <Time>2020-12-05T14:32:55.000Z</Time>
            <Position>
              <LatitudeDegrees>36.7996434867382049560546875</LatitudeDegrees>
              <LongitudeDegrees>-4.381960071623325347900390625</LongitudeDegrees>
            </Position>
            <AltitudeMeters>768.5999755859375</AltitudeMeters>
            <DistanceMeters>NAN</DistanceMeters>
          </Trackpoint>
          <Trackpoint>
            <Time>2020-12-05T14:32:56.000Z</Time>
            <Position>
              <LatitudeDegrees>36.79964013397693634033203125</LatitudeDegrees>
              <LongitudeDegrees>-4.38194003887474536895751953125</LongitudeDegrees>
            </Position>
            <AltitudeMeters>768.5999755859375</AltitudeMeters>
            <DistanceMeters>NAN</DistanceMeters>
          </Trackpoint>
          <Trackpoint>
            <Time>2020-12-05T14:32:57.000Z</Time>
            <Position>
              <LatitudeDegrees>36.7996372841298580169677734375</LatitudeDegrees>
              <LongitudeDegrees>-4.38192662782967090606689453125</LongitudeDegrees>
            </Position>
            <AltitudeMeters>768.5999755859375</AltitudeMeters>
            <DistanceMeters>NAN</DistanceMeters>
          </Trackpoint>
          <Trackpoint>
            <Time>2020-12-05T14:32:58.000Z</Time>
            <Position>
              <LatitudeDegrees>36.79963669739663600921630859375</LatitudeDegrees>
              <LongitudeDegrees>-4.3819119594991207122802734375</LongitudeDegrees>
            </Position>
            <AltitudeMeters>768.79998779296875</AltitudeMeters>
            <DistanceMeters>NAN</DistanceMeters>
          </Trackpoint>
          <Trackpoint>
            <Time>2020-12-05T14:32:59.000Z</Time>
            <Position>
              <LatitudeDegrees>36.79963451810181140899658203125</LatitudeDegrees>
              <LongitudeDegrees>-4.38189293257892131805419921875</LongitudeDegrees>
            </Position>
            <AltitudeMeters>768.79998779296875</AltitudeMeters>
            <DistanceMeters>NAN</DistanceMeters>
          </Trackpoint>
          <Trackpoint>
            <Time>2020-12-05T14:33:00.000Z</Time>
            <Position>
              <LatitudeDegrees>36.79963183589279651641845703125</LatitudeDegrees>
              <LongitudeDegrees>-4.381874911487102508544921875</LongitudeDegrees>
            </Position>
            <AltitudeMeters>768.79998779296875</AltitudeMeters>
            <DistanceMeters>NAN</DistanceMeters>
          </Trackpoint>
          <Trackpoint>
            <Time>2020-12-05T14:33:01.000Z</Time>
            <Position>
              <LatitudeDegrees>36.79962982423603534698486328125</LatitudeDegrees>
              <LongitudeDegrees>-4.38185404054820537567138671875</LongitudeDegrees>
            </Position>
            <AltitudeMeters>768.79998779296875</AltitudeMeters>
            <DistanceMeters>NAN</DistanceMeters>
          </Trackpoint>
          <Trackpoint>
            <Time>2020-12-05T14:33:02.000Z</Time>
            <Position>
              <LatitudeDegrees>36.7996278963983058929443359375</LatitudeDegrees>
              <LongitudeDegrees>-4.3818350136280059814453125</LongitudeDegrees>
            </Position>
            <AltitudeMeters>768.79998779296875</AltitudeMeters>
            <DistanceMeters>NAN</DistanceMeters>
          </Trackpoint>
          <Trackpoint>
            <Time>2020-12-05T14:33:03.000Z</Time>
            <Position>
              <LatitudeDegrees>36.79962395690381526947021484375</LatitudeDegrees>
              <LongitudeDegrees>-4.38182093203067779541015625</LongitudeDegrees>
            </Position>
            <AltitudeMeters>768.79998779296875</AltitudeMeters>
            <DistanceMeters>NAN</DistanceMeters>
          </Trackpoint>
          <Trackpoint>
            <Time>2020-12-05T14:33:04.000Z</Time>
            <Position>
              <LatitudeDegrees>36.79962177760899066925048828125</LatitudeDegrees>
              <LongitudeDegrees>-4.38180291093885898590087890625</LongitudeDegrees>
            </Position>
            <AltitudeMeters>768.79998779296875</AltitudeMeters>
            <DistanceMeters>NAN</DistanceMeters>
          </Trackpoint>
          <Trackpoint>
            <Time>2020-12-05T14:33:05.000Z</Time>
            <Position>
              <LatitudeDegrees>36.79961691610515117645263671875</LatitudeDegrees>
              <LongitudeDegrees>-4.3817865662276744842529296875</LongitudeDegrees>
            </Position>
            <AltitudeMeters>768.79998779296875</AltitudeMeters>
            <DistanceMeters>NAN</DistanceMeters>
          </Trackpoint>
          <Trackpoint>
            <Time>2020-12-05T14:33:06.000Z</Time>
            <Position>
              <LatitudeDegrees>36.79961331188678741455078125</LatitudeDegrees>
              <LongitudeDegrees>-4.3817734904587268829345703125</LongitudeDegrees>
            </Position>
            <AltitudeMeters>768.5999755859375</AltitudeMeters>
            <DistanceMeters>NAN</DistanceMeters>
          </Trackpoint>
          <Trackpoint>
            <Time>2020-12-05T14:33:07.000Z</Time>
            <Position>
              <LatitudeDegrees>36.79961171932518482208251953125</LatitudeDegrees>
              <LongitudeDegrees>-4.381758905947208404541015625</LongitudeDegrees>
            </Position>
            <AltitudeMeters>768.5999755859375</AltitudeMeters>
            <DistanceMeters>NAN</DistanceMeters>
          </Trackpoint>
          <Trackpoint>
            <Time>2020-12-05T14:33:08.000Z</Time>
            <Position>
              <LatitudeDegrees>36.7996111325919628143310546875</LatitudeDegrees>
              <LongitudeDegrees>-4.38173434697091579437255859375</LongitudeDegrees>
            </Position>
            <AltitudeMeters>768.20001220703125</AltitudeMeters>
            <DistanceMeters>NAN</DistanceMeters>
          </Trackpoint>
          <Trackpoint>
            <Time>2020-12-05T14:33:09.000Z</Time>
            <Position>
              <LatitudeDegrees>36.79960518144071102142333984375</LatitudeDegrees>
              <LongitudeDegrees>-4.3817161582410335540771484375</LongitudeDegrees>
            </Position>
            <AltitudeMeters>768.20001220703125</AltitudeMeters>
            <DistanceMeters>NAN</DistanceMeters>
          </Trackpoint>
          <Trackpoint>
            <Time>2020-12-05T14:33:10.000Z</Time>
            <Position>
              <LatitudeDegrees>36.7996010743081569671630859375</LatitudeDegrees>
              <LongitudeDegrees>-4.38169780187308788299560546875</LongitudeDegrees>
            </Position>
            <AltitudeMeters>768</AltitudeMeters>
            <DistanceMeters>NAN</DistanceMeters>
          </Trackpoint>
          <Trackpoint>
            <Time>2020-12-05T14:33:11.000Z</Time>
            <Position>
              <LatitudeDegrees>36.79959679953753948211669921875</LatitudeDegrees>
              <LongitudeDegrees>-4.3816782720386981964111328125</LongitudeDegrees>
            </Position>
            <AltitudeMeters>768</AltitudeMeters>
            <DistanceMeters>NAN</DistanceMeters>
          </Trackpoint>
          <Trackpoint>
            <Time>2020-12-05T14:33:12.000Z</Time>
            <Position>
              <LatitudeDegrees>36.79959210567176342010498046875</LatitudeDegrees>
              <LongitudeDegrees>-4.3816635198891162872314453125</LongitudeDegrees>
            </Position>
            <AltitudeMeters>768</AltitudeMeters>
            <DistanceMeters>NAN</DistanceMeters>
          </Trackpoint>
          <Trackpoint>
            <Time>2020-12-05T14:33:13.000Z</Time>
            <Position>
              <LatitudeDegrees>36.79958674125373363494873046875</LatitudeDegrees>
              <LongitudeDegrees>-4.3816467560827732086181640625</LongitudeDegrees>
            </Position>
            <AltitudeMeters>768</AltitudeMeters>
            <DistanceMeters>NAN</DistanceMeters>
          </Trackpoint>
          <Trackpoint>
            <Time>2020-12-05T14:33:14.000Z</Time>
            <Position>
              <LatitudeDegrees>36.79957970045506954193115234375</LatitudeDegrees>
              <LongitudeDegrees>-4.38163049519062042236328125</LongitudeDegrees>
            </Position>
            <AltitudeMeters>768</AltitudeMeters>
            <DistanceMeters>NAN</DistanceMeters>
          </Trackpoint>
          <Trackpoint>
            <Time>2020-12-05T14:33:15.000Z</Time>
            <Position>
              <LatitudeDegrees>36.79957173764705657958984375</LatitudeDegrees>
              <LongitudeDegrees>-4.38161574304103851318359375</LongitudeDegrees>
            </Position>
            <AltitudeMeters>768.20001220703125</AltitudeMeters>
            <DistanceMeters>NAN</DistanceMeters>
          </Trackpoint>
          <Trackpoint>
            <Time>2020-12-05T14:33:16.000Z</Time>
            <Position>
              <LatitudeDegrees>36.79956545121967792510986328125</LatitudeDegrees>
              <LongitudeDegrees>-4.3816008232533931732177734375</LongitudeDegrees>
            </Position>
            <AltitudeMeters>768.20001220703125</AltitudeMeters>
            <DistanceMeters>NAN</DistanceMeters>
          </Trackpoint>
          <Trackpoint>
            <Time>2020-12-05T14:33:17.000Z</Time>
            <Position>
              <LatitudeDegrees>36.79955966770648956298828125</LatitudeDegrees>
              <LongitudeDegrees>-4.3815855681896209716796875</LongitudeDegrees>
            </Position>
            <AltitudeMeters>768.4000244140625</AltitudeMeters>
            <DistanceMeters>NAN</DistanceMeters>
          </Trackpoint>
          <Trackpoint>
            <Time>2020-12-05T14:33:18.000Z</Time>
            <Position>
              <LatitudeDegrees>36.79955472238361835479736328125</LatitudeDegrees>
              <LongitudeDegrees>-4.3815723247826099395751953125</LongitudeDegrees>
            </Position>
            <AltitudeMeters>768.5999755859375</AltitudeMeters>
            <DistanceMeters>NAN</DistanceMeters>
          </Trackpoint>
          <Trackpoint>
            <Time>2020-12-05T14:33:19.000Z</Time>
            <Position>
              <LatitudeDegrees>36.79955086670815944671630859375</LatitudeDegrees>
              <LongitudeDegrees>-4.38155916519463062286376953125</LongitudeDegrees>
            </Position>
            <AltitudeMeters>768.5999755859375</AltitudeMeters>
            <DistanceMeters>NAN</DistanceMeters>
          </Trackpoint>
          <Trackpoint>
            <Time>2020-12-05T14:33:20.000Z</Time>
            <Position>
              <LatitudeDegrees>36.79954483173787593841552734375</LatitudeDegrees>
              <LongitudeDegrees>-4.3815468437969684600830078125</LongitudeDegrees>
            </Position>
            <AltitudeMeters>768.5999755859375</AltitudeMeters>
            <DistanceMeters>NAN</DistanceMeters>
          </Trackpoint>
          <Trackpoint>
            <Time>2020-12-05T14:33:21.000Z</Time>
            <Position>
              <LatitudeDegrees>36.79953611455857753753662109375</LatitudeDegrees>
              <LongitudeDegrees>-4.381531588733196258544921875</LongitudeDegrees>
            </Position>
            <AltitudeMeters>768.5999755859375</AltitudeMeters>
            <DistanceMeters>NAN</DistanceMeters>
          </Trackpoint>
          <Trackpoint>
            <Time>2020-12-05T14:33:22.000Z</Time>
            <Position>
              <LatitudeDegrees>36.7995266430079936981201171875</LatitudeDegrees>
              <LongitudeDegrees>-4.38151457346975803375244140625</LongitudeDegrees>
            </Position>
            <AltitudeMeters>768.5999755859375</AltitudeMeters>
            <DistanceMeters>NAN</DistanceMeters>
          </Trackpoint>
          <Trackpoint>
            <Time>2020-12-05T14:33:23.000Z</Time>
            <Position>
              <LatitudeDegrees>36.79951834492385387420654296875</LatitudeDegrees>
              <LongitudeDegrees>-4.381494708359241485595703125</LongitudeDegrees>
            </Position>
            <AltitudeMeters>768.5999755859375</AltitudeMeters>
            <DistanceMeters>NAN</DistanceMeters>
          </Trackpoint>
          <Trackpoint>
            <Time>2020-12-05T14:33:24.000Z</Time>
            <Position>
              <LatitudeDegrees>36.7995112203061580657958984375</LatitudeDegrees>
              <LongitudeDegrees>-4.3814784474670886993408203125</LongitudeDegrees>
            </Position>
            <AltitudeMeters>768.5999755859375</AltitudeMeters>
            <DistanceMeters>NAN</DistanceMeters>
          </Trackpoint>
          <Trackpoint>
            <Time>2020-12-05T14:33:25.000Z</Time>
            <Position>
              <LatitudeDegrees>36.79950828664004802703857421875</LatitudeDegrees>
              <LongitudeDegrees>-4.381465204060077667236328125</LongitudeDegrees>
            </Position>
            <AltitudeMeters>768.4000244140625</AltitudeMeters>
            <DistanceMeters>NAN</DistanceMeters>
          </Trackpoint>
          <Trackpoint>
            <Time>2020-12-05T14:33:26.000Z</Time>
            <Position>
              <LatitudeDegrees>36.79950535297393798828125</LatitudeDegrees>
              <LongitudeDegrees>-4.38144852407276630401611328125</LongitudeDegrees>
            </Position>
            <AltitudeMeters>768.4000244140625</AltitudeMeters>
            <DistanceMeters>NAN</DistanceMeters>
          </Trackpoint>
          <Trackpoint>
            <Time>2020-12-05T14:33:27.000Z</Time>
            <Position>
              <LatitudeDegrees>36.79950124584138393402099609375</LatitudeDegrees>
              <LongitudeDegrees>-4.3814335204660892486572265625</LongitudeDegrees>
            </Position>
            <AltitudeMeters>768.4000244140625</AltitudeMeters>
            <DistanceMeters>NAN</DistanceMeters>
          </Trackpoint>
          <Trackpoint>
            <Time>2020-12-05T14:33:28.000Z</Time>
            <Position>
              <LatitudeDegrees>36.799494959414005279541015625</LatitudeDegrees>
              <LongitudeDegrees>-4.38142304308712482452392578125</LongitudeDegrees>
            </Position>
            <AltitudeMeters>768.4000244140625</AltitudeMeters>
            <DistanceMeters>NAN</DistanceMeters>
          </Trackpoint>
          <Trackpoint>
            <Time>2020-12-05T14:33:29.000Z</Time>
            <Position>
              <LatitudeDegrees>36.79948716424405574798583984375</LatitudeDegrees>
              <LongitudeDegrees>-4.38140929676592350006103515625</LongitudeDegrees>
            </Position>
            <AltitudeMeters>768.4000244140625</AltitudeMeters>
            <DistanceMeters>NAN</DistanceMeters>
          </Trackpoint>
          <Trackpoint>
            <Time>2020-12-05T14:33:30.000Z</Time>
            <Position>
              <LatitudeDegrees>36.7994793690741062164306640625</LatitudeDegrees>
              <LongitudeDegrees>-4.38139705918729305267333984375</LongitudeDegrees>
            </Position>
            <AltitudeMeters>768.4000244140625</AltitudeMeters>
            <DistanceMeters>NAN</DistanceMeters>
          </Trackpoint>
          <Trackpoint>
            <Time>2020-12-05T14:33:31.000Z</Time>
            <Position>
              <LatitudeDegrees>36.7994706518948078155517578125</LatitudeDegrees>
              <LongitudeDegrees>-4.3813884258270263671875</LongitudeDegrees>
            </Position>
            <AltitudeMeters>768.20001220703125</AltitudeMeters>
            <DistanceMeters>NAN</DistanceMeters>
          </Trackpoint>
          <Trackpoint>
            <Time>2020-12-05T14:33:32.000Z</Time>
            <Position>
              <LatitudeDegrees>36.79946352727711200714111328125</LatitudeDegrees>
              <LongitudeDegrees>-4.38137744553387165069580078125</LongitudeDegrees>
            </Position>
            <AltitudeMeters>768.20001220703125</AltitudeMeters>
            <DistanceMeters>NAN</DistanceMeters>
          </Trackpoint>
          <Trackpoint>
            <Time>2020-12-05T14:33:33.000Z</Time>
            <Position>
              <LatitudeDegrees>36.79945732466876506805419921875</LatitudeDegrees>
              <LongitudeDegrees>-4.38136219047009944915771484375</LongitudeDegrees>
            </Position>
            <AltitudeMeters>768</AltitudeMeters>
            <DistanceMeters>NAN</DistanceMeters>
          </Trackpoint>
          <Trackpoint>
            <Time>2020-12-05T14:33:34.000Z</Time>
            <Position>
              <LatitudeDegrees>36.7994503676891326904296875</LatitudeDegrees>
              <LongitudeDegrees>-4.38134643249213695526123046875</LongitudeDegrees>
            </Position>
            <AltitudeMeters>767.5999755859375</AltitudeMeters>
            <DistanceMeters>NAN</DistanceMeters>
          </Trackpoint>
          <Trackpoint>
            <Time>2020-12-05T14:33:35.000Z</Time>
            <Position>
              <LatitudeDegrees>36.79944357834756374359130859375</LatitudeDegrees>
              <LongitudeDegrees>-4.3813315965235233306884765625</LongitudeDegrees>
            </Position>
            <AltitudeMeters>767.4000244140625</AltitudeMeters>
            <DistanceMeters>NAN</DistanceMeters>
          </Trackpoint>
          <Trackpoint>
            <Time>2020-12-05T14:33:36.000Z</Time>
            <Position>
              <LatitudeDegrees>36.79943871684372425079345703125</LatitudeDegrees>
              <LongitudeDegrees>-4.3813134916126728057861328125</LongitudeDegrees>
            </Position>
            <AltitudeMeters>767.20001220703125</AltitudeMeters>
            <DistanceMeters>NAN</DistanceMeters>
          </Trackpoint>
          <Trackpoint>
            <Time>2020-12-05T14:33:37.000Z</Time>
            <Position>
              <LatitudeDegrees>36.7994337715208530426025390625</LatitudeDegrees>
              <LongitudeDegrees>-4.38130133785307407379150390625</LongitudeDegrees>
            </Position>
            <AltitudeMeters>767</AltitudeMeters>
            <DistanceMeters>NAN</DistanceMeters>
          </Trackpoint>
          <Trackpoint>
            <Time>2020-12-05T14:33:38.000Z</Time>
            <Position>
              <LatitudeDegrees>36.7994260601699352264404296875</LatitudeDegrees>
              <LongitudeDegrees>-4.38129077665507793426513671875</LongitudeDegrees>
            </Position>
            <AltitudeMeters>767</AltitudeMeters>
            <DistanceMeters>NAN</DistanceMeters>
          </Trackpoint>
          <Trackpoint>
            <Time>2020-12-05T14:33:39.000Z</Time>
            <Position>
              <LatitudeDegrees>36.79942178539931774139404296875</LatitudeDegrees>
              <LongitudeDegrees>-4.38127753324806690216064453125</LongitudeDegrees>
            </Position>
            <AltitudeMeters>767</AltitudeMeters>
            <DistanceMeters>NAN</DistanceMeters>
          </Trackpoint>
          <Trackpoint>
            <Time>2020-12-05T14:33:40.000Z</Time>
            <Position>
              <LatitudeDegrees>36.79941885173320770263671875</LatitudeDegrees>
              <LongitudeDegrees>-4.38126043416559696197509765625</LongitudeDegrees>
            </Position>
            <AltitudeMeters>767</AltitudeMeters>
            <DistanceMeters>NAN</DistanceMeters>
          </Trackpoint>
          <Trackpoint>
            <Time>2020-12-05T14:33:41.000Z</Time>
            <Position>
              <LatitudeDegrees>36.7994156666100025177001953125</LatitudeDegrees>
              <LongitudeDegrees>-4.381244592368602752685546875</LongitudeDegrees>
            </Position>
            <AltitudeMeters>767</AltitudeMeters>
            <DistanceMeters>NAN</DistanceMeters>
          </Trackpoint>
          <Trackpoint>
            <Time>2020-12-05T14:33:42.000Z</Time>
            <Position>
              <LatitudeDegrees>36.79941072128713130950927734375</LatitudeDegrees>
              <LongitudeDegrees>-4.38123243860900402069091796875</LongitudeDegrees>
            </Position>
            <AltitudeMeters>767</AltitudeMeters>
            <DistanceMeters>NAN</DistanceMeters>
          </Trackpoint>
          <Trackpoint>
            <Time>2020-12-05T14:33:43.000Z</Time>
            <Position>
              <LatitudeDegrees>36.7994046024978160858154296875</LatitudeDegrees>
              <LongitudeDegrees>-4.38121232204139232635498046875</LongitudeDegrees>
            </Position>
            <AltitudeMeters>767</AltitudeMeters>
            <DistanceMeters>NAN</DistanceMeters>
          </Trackpoint>
          <Trackpoint>
            <Time>2020-12-05T14:33:44.000Z</Time>
            <Position>
              <LatitudeDegrees>36.7993975616991519927978515625</LatitudeDegrees>
              <LongitudeDegrees>-4.38119656406342983245849609375</LongitudeDegrees>
            </Position>
            <AltitudeMeters>767</AltitudeMeters>
            <DistanceMeters>NAN</DistanceMeters>
          </Trackpoint>
          <Trackpoint>
            <Time>2020-12-05T14:33:45.000Z</Time>
            <Position>
              <LatitudeDegrees>36.79938909597694873809814453125</LatitudeDegrees>
              <LongitudeDegrees>-4.3811790458858013153076171875</LongitudeDegrees>
            </Position>
            <AltitudeMeters>767</AltitudeMeters>
            <DistanceMeters>NAN</DistanceMeters>
          </Trackpoint>
          <Trackpoint>
            <Time>2020-12-05T14:33:46.000Z</Time>
            <Position>
              <LatitudeDegrees>36.79938239045441150665283203125</LatitudeDegrees>
              <LongitudeDegrees>-4.38115851022303104400634765625</LongitudeDegrees>
            </Position>
            <AltitudeMeters>767</AltitudeMeters>
            <DistanceMeters>NAN</DistanceMeters>
          </Trackpoint>
          <Trackpoint>
            <Time>2020-12-05T14:33:47.000Z</Time>
            <Position>
              <LatitudeDegrees>36.79937417618930339813232421875</LatitudeDegrees>
              <LongitudeDegrees>-4.38113772310316562652587890625</LongitudeDegrees>
            </Position>
            <AltitudeMeters>767</AltitudeMeters>
            <DistanceMeters>NAN</DistanceMeters>
          </Trackpoint>
          <Trackpoint>
            <Time>2020-12-05T14:33:48.000Z</Time>
            <Position>
              <LatitudeDegrees>36.79936646483838558197021484375</LatitudeDegrees>
              <LongitudeDegrees>-4.38111928291618824005126953125</LongitudeDegrees>
            </Position>
            <AltitudeMeters>767</AltitudeMeters>
            <DistanceMeters>NAN</DistanceMeters>
          </Trackpoint>
          <Trackpoint>
            <Time>2020-12-05T14:33:49.000Z</Time>
            <Position>
              <LatitudeDegrees>36.7993613518774509429931640625</LatitudeDegrees>
              <LongitudeDegrees>-4.38109874725341796875</LongitudeDegrees>
            </Position>
            <AltitudeMeters>767</AltitudeMeters>
            <DistanceMeters>NAN</DistanceMeters>
          </Trackpoint>
          <Trackpoint>
            <Time>2020-12-05T14:33:50.000Z</Time>
            <Position>
              <LatitudeDegrees>36.799357496201992034912109375</LatitudeDegrees>
              <LongitudeDegrees>-4.3810811452567577362060546875</LongitudeDegrees>
            </Position>
            <AltitudeMeters>766.79998779296875</AltitudeMeters>
            <DistanceMeters>NAN</DistanceMeters>
          </Trackpoint>
          <Trackpoint>
            <Time>2020-12-05T14:33:51.000Z</Time>
            <Position>
              <LatitudeDegrees>36.799353472888469696044921875</LatitudeDegrees>
              <LongitudeDegrees>-4.38106664456427097320556640625</LongitudeDegrees>
            </Position>
            <AltitudeMeters>766.79998779296875</AltitudeMeters>
            <DistanceMeters>NAN</DistanceMeters>
          </Trackpoint>
          <Trackpoint>
            <Time>2020-12-05T14:33:52.000Z</Time>
            <Position>
              <LatitudeDegrees>36.79934752173721790313720703125</LatitudeDegrees>
              <LongitudeDegrees>-4.381053484976291656494140625</LongitudeDegrees>
            </Position>
            <AltitudeMeters>766.5999755859375</AltitudeMeters>
            <DistanceMeters>NAN</DistanceMeters>
          </Trackpoint>
          <Trackpoint>
            <Time>2020-12-05T14:33:53.000Z</Time>
            <Position>
              <LatitudeDegrees>36.799341402947902679443359375</LatitudeDegrees>
              <LongitudeDegrees>-4.381044097244739532470703125</LongitudeDegrees>
            </Position>
            <AltitudeMeters>766.5999755859375</AltitudeMeters>
            <DistanceMeters>NAN</DistanceMeters>
          </Trackpoint>
          <Trackpoint>
            <Time>2020-12-05T14:33:54.000Z</Time>
            <Position>
              <LatitudeDegrees>36.79933444596827030181884765625</LatitudeDegrees>
              <LongitudeDegrees>-4.38103244639933109283447265625</LongitudeDegrees>
            </Position>
            <AltitudeMeters>766.4000244140625</AltitudeMeters>
            <DistanceMeters>NAN</DistanceMeters>
          </Trackpoint>
          <Trackpoint>
            <Time>2020-12-05T14:33:55.000Z</Time>
            <Position>
              <LatitudeDegrees>36.79932774044573307037353515625</LatitudeDegrees>
              <LongitudeDegrees>-4.381020963191986083984375</LongitudeDegrees>
            </Position>
            <AltitudeMeters>766.20001220703125</AltitudeMeters>
            <DistanceMeters>NAN</DistanceMeters>
          </Trackpoint>
          <Trackpoint>
            <Time>2020-12-05T14:33:56.000Z</Time>
            <Position>
              <LatitudeDegrees>36.79932153783738613128662109375</LatitudeDegrees>
              <LongitudeDegrees>-4.38100797124207019805908203125</LongitudeDegrees>
            </Position>
            <AltitudeMeters>766</AltitudeMeters>
            <DistanceMeters>NAN</DistanceMeters>
          </Trackpoint>
          <Trackpoint>
            <Time>2020-12-05T14:33:57.000Z</Time>
            <Position>
              <LatitudeDegrees>36.7993184365332126617431640625</LatitudeDegrees>
              <LongitudeDegrees>-4.38099590130150318145751953125</LongitudeDegrees>
            </Position>
            <AltitudeMeters>766</AltitudeMeters>
            <DistanceMeters>NAN</DistanceMeters>
          </Trackpoint>
          <Trackpoint>
            <Time>2020-12-05T14:33:58.000Z</Time>
            <Position>
              <LatitudeDegrees>36.7993154190480709075927734375</LatitudeDegrees>
              <LongitudeDegrees>-4.38098366372287273406982421875</LongitudeDegrees>
            </Position>
            <AltitudeMeters>765.79998779296875</AltitudeMeters>
            <DistanceMeters>NAN</DistanceMeters>
          </Trackpoint>
          <Trackpoint>
            <Time>2020-12-05T14:33:59.000Z</Time>
            <Position>
              <LatitudeDegrees>36.79931298829615116119384765625</LatitudeDegrees>
              <LongitudeDegrees>-4.3809678219258785247802734375</LongitudeDegrees>
            </Position>
            <AltitudeMeters>765.5999755859375</AltitudeMeters>
            <DistanceMeters>NAN</DistanceMeters>
          </Trackpoint>
          <Trackpoint>
            <Time>2020-12-05T14:34:00.000Z</Time>
            <Position>
              <LatitudeDegrees>36.79930930025875568389892578125</LatitudeDegrees>
              <LongitudeDegrees>-4.380951225757598876953125</LongitudeDegrees>
            </Position>
            <AltitudeMeters>765.4000244140625</AltitudeMeters>
            <DistanceMeters>NAN</DistanceMeters>
          </Trackpoint>
          <Trackpoint>
            <Time>2020-12-05T14:34:01.000Z</Time>
            <Position>
              <LatitudeDegrees>36.79930544458329677581787109375</LatitudeDegrees>
              <LongitudeDegrees>-4.38093840144574642181396484375</LongitudeDegrees>
            </Position>
            <AltitudeMeters>765.20001220703125</AltitudeMeters>
            <DistanceMeters>NAN</DistanceMeters>
          </Trackpoint>
          <Trackpoint>
            <Time>2020-12-05T14:34:02.000Z</Time>
            <Position>
              <LatitudeDegrees>36.79929806850850582122802734375</LatitudeDegrees>
              <LongitudeDegrees>-4.3809228949248790740966796875</LongitudeDegrees>
            </Position>
            <AltitudeMeters>765</AltitudeMeters>
            <DistanceMeters>NAN</DistanceMeters>
          </Trackpoint>
          <Trackpoint>
            <Time>2020-12-05T14:34:03.000Z</Time>
            <Position>
              <LatitudeDegrees>36.79928834550082683563232421875</LatitudeDegrees>
              <LongitudeDegrees>-4.38090621493756771087646484375</LongitudeDegrees>
            </Position>
            <AltitudeMeters>765</AltitudeMeters>
            <DistanceMeters>NAN</DistanceMeters>
          </Trackpoint>
          <Trackpoint>
            <Time>2020-12-05T14:34:04.000Z</Time>
            <Position>
              <LatitudeDegrees>36.7992768622934818267822265625</LatitudeDegrees>
              <LongitudeDegrees>-4.38088760711252689361572265625</LongitudeDegrees>
            </Position>
            <AltitudeMeters>765</AltitudeMeters>
            <DistanceMeters>NAN</DistanceMeters>
          </Trackpoint>
          <Trackpoint>
            <Time>2020-12-05T14:34:05.000Z</Time>
            <Position>
              <LatitudeDegrees>36.7992652952671051025390625</LatitudeDegrees>
              <LongitudeDegrees>-4.3808699212968349456787109375</LongitudeDegrees>
            </Position>
            <AltitudeMeters>765</AltitudeMeters>
            <DistanceMeters>NAN</DistanceMeters>
          </Trackpoint>
          <Trackpoint>
            <Time>2020-12-05T14:34:06.000Z</Time>
            <Position>
              <LatitudeDegrees>36.79925297386944293975830078125</LatitudeDegrees>
              <LongitudeDegrees>-4.380850307643413543701171875</LongitudeDegrees>
            </Position>
            <AltitudeMeters>765.20001220703125</AltitudeMeters>
            <DistanceMeters>NAN</DistanceMeters>
          </Trackpoint>
          <Trackpoint>
            <Time>2020-12-05T14:34:07.000Z</Time>
            <Position>
              <LatitudeDegrees>36.799242831766605377197265625</LatitudeDegrees>
              <LongitudeDegrees>-4.3808337114751338958740234375</LongitudeDegrees>
            </Position>
            <AltitudeMeters>765.20001220703125</AltitudeMeters>
            <DistanceMeters>NAN</DistanceMeters>
          </Trackpoint>
          <Trackpoint>
            <Time>2020-12-05T14:34:08.000Z</Time>
            <Position>
              <LatitudeDegrees>36.79923319257795810699462890625</LatitudeDegrees>
              <LongitudeDegrees>-4.380818791687488555908203125</LongitudeDegrees>
            </Position>
            <AltitudeMeters>765.20001220703125</AltitudeMeters>
            <DistanceMeters>NAN</DistanceMeters>
          </Trackpoint>
          <Trackpoint>
            <Time>2020-12-05T14:34:09.000Z</Time>
            <Position>
              <LatitudeDegrees>36.79922313429415225982666015625</LatitudeDegrees>
              <LongitudeDegrees>-4.38080663792788982391357421875</LongitudeDegrees>
            </Position>
            <AltitudeMeters>765.20001220703125</AltitudeMeters>
            <DistanceMeters>NAN</DistanceMeters>
          </Trackpoint>
          <Trackpoint>
            <Time>2020-12-05T14:34:10.000Z</Time>
            <Position>
              <LatitudeDegrees>36.79921559058129787445068359375</LatitudeDegrees>
              <LongitudeDegrees>-4.38079456798732280731201171875</LongitudeDegrees>
            </Position>
            <AltitudeMeters>765</AltitudeMeters>
            <DistanceMeters>NAN</DistanceMeters>
          </Trackpoint>
          <Trackpoint>
            <Time>2020-12-05T14:34:11.000Z</Time>
            <Position>
              <LatitudeDegrees>36.79920922033488750457763671875</LatitudeDegrees>
              <LongitudeDegrees>-4.38078417442739009857177734375</LongitudeDegrees>
            </Position>
            <AltitudeMeters>764.79998779296875</AltitudeMeters>
            <DistanceMeters>NAN</DistanceMeters>
          </Trackpoint>
          <Trackpoint>
            <Time>2020-12-05T14:34:12.000Z</Time>
            <Position>
              <LatitudeDegrees>36.79920268245041370391845703125</LatitudeDegrees>
              <LongitudeDegrees>-4.38077562488615512847900390625</LongitudeDegrees>
            </Position>
            <AltitudeMeters>764.5999755859375</AltitudeMeters>
            <DistanceMeters>NAN</DistanceMeters>
          </Trackpoint>
          <Trackpoint>
            <Time>2020-12-05T14:34:13.000Z</Time>
            <Position>
              <LatitudeDegrees>36.799195222556591033935546875</LatitudeDegrees>
              <LongitudeDegrees>-4.38076875172555446624755859375</LongitudeDegrees>
            </Position>
            <AltitudeMeters>764.4000244140625</AltitudeMeters>
            <DistanceMeters>NAN</DistanceMeters>
          </Trackpoint>
          <Trackpoint>
            <Time>2020-12-05T14:34:14.000Z</Time>
            <Position>
              <LatitudeDegrees>36.79918843321502208709716796875</LatitudeDegrees>
              <LongitudeDegrees>-4.3807609565556049346923828125</LongitudeDegrees>
            </Position>
            <AltitudeMeters>764.4000244140625</AltitudeMeters>
            <DistanceMeters>NAN</DistanceMeters>
          </Trackpoint>
          <Trackpoint>
            <Time>2020-12-05T14:34:15.000Z</Time>
            <Position>
              <LatitudeDegrees>36.79918290115892887115478515625</LatitudeDegrees>
              <LongitudeDegrees>-4.38074930571019649505615234375</LongitudeDegrees>
            </Position>
            <AltitudeMeters>764.20001220703125</AltitudeMeters>
            <DistanceMeters>NAN</DistanceMeters>
          </Trackpoint>
          <Trackpoint>
            <Time>2020-12-05T14:34:16.000Z</Time>
            <Position>
              <LatitudeDegrees>36.7991779558360576629638671875</LatitudeDegrees>
              <LongitudeDegrees>-4.38073706813156604766845703125</LongitudeDegrees>
            </Position>
            <AltitudeMeters>764</AltitudeMeters>
            <DistanceMeters>NAN</DistanceMeters>
          </Trackpoint>
          <Trackpoint>
            <Time>2020-12-05T14:34:17.000Z</Time>
            <Position>
              <LatitudeDegrees>36.799172423779964447021484375</LatitudeDegrees>
              <LongitudeDegrees>-4.38072499819099903106689453125</LongitudeDegrees>
            </Position>
            <AltitudeMeters>763.79998779296875</AltitudeMeters>
            <DistanceMeters>NAN</DistanceMeters>
          </Trackpoint>
          <Trackpoint>
            <Time>2020-12-05T14:34:18.000Z</Time>
            <Position>
              <LatitudeDegrees>36.7991652153432369232177734375</LatitudeDegrees>
              <LongitudeDegrees>-4.38071074895560741424560546875</LongitudeDegrees>
            </Position>
            <AltitudeMeters>763.79998779296875</AltitudeMeters>
            <DistanceMeters>NAN</DistanceMeters>
          </Trackpoint>
          <Trackpoint>
            <Time>2020-12-05T14:34:19.000Z</Time>
            <Position>
              <LatitudeDegrees>36.799156330525875091552734375</LatitudeDegrees>
              <LongitudeDegrees>-4.3806928955018520355224609375</LongitudeDegrees>
            </Position>
            <AltitudeMeters>763.79998779296875</AltitudeMeters>
            <DistanceMeters>NAN</DistanceMeters>
          </Trackpoint>
          <Trackpoint>
            <Time>2020-12-05T14:34:20.000Z</Time>
            <Position>
              <LatitudeDegrees>36.799147613346576690673828125</LatitudeDegrees>
              <LongitudeDegrees>-4.38067504204809665679931640625</LongitudeDegrees>
            </Position>
            <AltitudeMeters>763.79998779296875</AltitudeMeters>
            <DistanceMeters>NAN</DistanceMeters>
          </Trackpoint>
          <Trackpoint>
            <Time>2020-12-05T14:34:21.000Z</Time>
            <Position>
              <LatitudeDegrees>36.799137555062770843505859375</LatitudeDegrees>
              <LongitudeDegrees>-4.38066179864108562469482421875</LongitudeDegrees>
            </Position>
            <AltitudeMeters>763.5999755859375</AltitudeMeters>
            <DistanceMeters>NAN</DistanceMeters>
          </Trackpoint>
          <Trackpoint>
            <Time>2020-12-05T14:34:22.000Z</Time>
            <Position>
              <LatitudeDegrees>36.799126155674457550048828125</LatitudeDegrees>
              <LongitudeDegrees>-4.380649141967296600341796875</LongitudeDegrees>
            </Position>
            <AltitudeMeters>763.5999755859375</AltitudeMeters>
            <DistanceMeters>NAN</DistanceMeters>
          </Trackpoint>
          <Trackpoint>
            <Time>2020-12-05T14:34:23.000Z</Time>
            <Position>
              <LatitudeDegrees>36.799113750457763671875</LatitudeDegrees>
              <LongitudeDegrees>-4.3806387484073638916015625</LongitudeDegrees>
            </Position>
            <AltitudeMeters>763.4000244140625</AltitudeMeters>
            <DistanceMeters>NAN</DistanceMeters>
          </Trackpoint>
          <Trackpoint>
            <Time>2020-12-05T14:34:24.000Z</Time>
            <Position>
              <LatitudeDegrees>36.79910142906010150909423828125</LatitudeDegrees>
              <LongitudeDegrees>-4.380629360675811767578125</LongitudeDegrees>
            </Position>
            <AltitudeMeters>763.20001220703125</AltitudeMeters>
            <DistanceMeters>NAN</DistanceMeters>
          </Trackpoint>
          <Trackpoint>
            <Time>2020-12-05T14:34:25.000Z</Time>
            <Position>
              <LatitudeDegrees>36.79908701218664646148681640625</LatitudeDegrees>
              <LongitudeDegrees>-4.38061854802072048187255859375</LongitudeDegrees>
            </Position>
            <AltitudeMeters>763</AltitudeMeters>
            <DistanceMeters>NAN</DistanceMeters>
          </Trackpoint>
          <Trackpoint>
            <Time>2020-12-05T14:34:26.000Z</Time>
            <Position>
              <LatitudeDegrees>36.799073182046413421630859375</LatitudeDegrees>
              <LongitudeDegrees>-4.3806097470223903656005859375</LongitudeDegrees>
            </Position>
            <AltitudeMeters>762.5999755859375</AltitudeMeters>
            <DistanceMeters>NAN</DistanceMeters>
          </Trackpoint>
          <Trackpoint>
            <Time>2020-12-05T14:34:27.000Z</Time>
            <Position>
              <LatitudeDegrees>36.799058429896831512451171875</LatitudeDegrees>
              <LongitudeDegrees>-4.38059985637664794921875</LongitudeDegrees>
            </Position>
            <AltitudeMeters>762.4000244140625</AltitudeMeters>
            <DistanceMeters>NAN</DistanceMeters>
          </Trackpoint>
          <Trackpoint>
            <Time>2020-12-05T14:34:28.000Z</Time>
            <Position>
              <LatitudeDegrees>36.79904325865209102630615234375</LatitudeDegrees>
              <LongitudeDegrees>-4.38059256412088871002197265625</LongitudeDegrees>
            </Position>
            <AltitudeMeters>762.20001220703125</AltitudeMeters>
            <DistanceMeters>NAN</DistanceMeters>
          </Trackpoint>
          <Trackpoint>
            <Time>2020-12-05T14:34:29.000Z</Time>
            <Position>
              <LatitudeDegrees>36.79902833886444568634033203125</LatitudeDegrees>
              <LongitudeDegrees>-4.38058376312255859375</LongitudeDegrees>
            </Position>
            <AltitudeMeters>762</AltitudeMeters>
            <DistanceMeters>NAN</DistanceMeters>
          </Trackpoint>
          <Trackpoint>
            <Time>2020-12-05T14:34:30.000Z</Time>
            <Position>
              <LatitudeDegrees>36.799011491239070892333984375</LatitudeDegrees>
              <LongitudeDegrees>-4.380574710667133331298828125</LongitudeDegrees>
            </Position>
            <AltitudeMeters>761.79998779296875</AltitudeMeters>
            <DistanceMeters>NAN</DistanceMeters>
          </Trackpoint>
          <Trackpoint>
            <Time>2020-12-05T14:34:31.000Z</Time>
            <Position>
              <LatitudeDegrees>36.7989945597946643829345703125</LatitudeDegrees>
              <LongitudeDegrees>-4.3805671669542789459228515625</LongitudeDegrees>
            </Position>
            <AltitudeMeters>761.4000244140625</AltitudeMeters>
            <DistanceMeters>NAN</DistanceMeters>
          </Trackpoint>
          <Trackpoint>
            <Time>2020-12-05T14:34:32.000Z</Time>
            <Position>
              <LatitudeDegrees>36.7989767901599407196044921875</LatitudeDegrees>
              <LongitudeDegrees>-4.38056540675461292266845703125</LongitudeDegrees>
            </Position>
            <AltitudeMeters>761.20001220703125</AltitudeMeters>
            <DistanceMeters>NAN</DistanceMeters>
          </Trackpoint>
          <Trackpoint>
            <Time>2020-12-05T14:34:33.000Z</Time>
            <Position>
              <LatitudeDegrees>36.79895943962037563323974609375</LatitudeDegrees>
              <LongitudeDegrees>-4.3805614672601222991943359375</LongitudeDegrees>
            </Position>
            <AltitudeMeters>760.79998779296875</AltitudeMeters>
            <DistanceMeters>NAN</DistanceMeters>
          </Trackpoint>
          <Trackpoint>
            <Time>2020-12-05T14:34:34.000Z</Time>
            <Position>
              <LatitudeDegrees>36.7989415861666202545166015625</LatitudeDegrees>
              <LongitudeDegrees>-4.38055752776563167572021484375</LongitudeDegrees>
            </Position>
            <AltitudeMeters>760.5999755859375</AltitudeMeters>
            <DistanceMeters>NAN</DistanceMeters>
          </Trackpoint>
          <Trackpoint>
            <Time>2020-12-05T14:34:35.000Z</Time>
            <Position>
              <LatitudeDegrees>36.798924319446086883544921875</LatitudeDegrees>
              <LongitudeDegrees>-4.3805557675659656524658203125</LongitudeDegrees>
            </Position>
            <AltitudeMeters>760.4000244140625</AltitudeMeters>
            <DistanceMeters>NAN</DistanceMeters>
          </Trackpoint>
          <Trackpoint>
            <Time>2020-12-05T14:34:36.000Z</Time>
            <Position>
              <LatitudeDegrees>36.7989087291061878204345703125</LatitudeDegrees>
              <LongitudeDegrees>-4.3805530853569507598876953125</LongitudeDegrees>
            </Position>
            <AltitudeMeters>760.4000244140625</AltitudeMeters>
            <DistanceMeters>NAN</DistanceMeters>
          </Trackpoint>
          <Trackpoint>
            <Time>2020-12-05T14:34:37.000Z</Time>
            <Position>
              <LatitudeDegrees>36.79889573715627193450927734375</LatitudeDegrees>
              <LongitudeDegrees>-4.38054931350052356719970703125</LongitudeDegrees>
            </Position>
            <AltitudeMeters>760.20001220703125</AltitudeMeters>
            <DistanceMeters>NAN</DistanceMeters>
          </Trackpoint>
          <Trackpoint>
            <Time>2020-12-05T14:34:38.000Z</Time>
            <Position>
              <LatitudeDegrees>36.7988819070160388946533203125</LatitudeDegrees>
              <LongitudeDegrees>-4.38054529018700122833251953125</LongitudeDegrees>
            </Position>
            <AltitudeMeters>760</AltitudeMeters>
            <DistanceMeters>NAN</DistanceMeters>
          </Trackpoint>
          <Trackpoint>
            <Time>2020-12-05T14:34:39.000Z</Time>
            <Position>
              <LatitudeDegrees>36.79887042380869388580322265625</LatitudeDegrees>
              <LongitudeDegrees>-4.3805423565208911895751953125</LongitudeDegrees>
            </Position>
            <AltitudeMeters>760</AltitudeMeters>
            <DistanceMeters>NAN</DistanceMeters>
          </Trackpoint>
          <Trackpoint>
            <Time>2020-12-05T14:34:40.000Z</Time>
            <Position>
              <LatitudeDegrees>36.79885667748749256134033203125</LatitudeDegrees>
              <LongitudeDegrees>-4.3805426917970180511474609375</LongitudeDegrees>
            </Position>
            <AltitudeMeters>760</AltitudeMeters>
            <DistanceMeters>NAN</DistanceMeters>
          </Trackpoint>
          <Trackpoint>
            <Time>2020-12-05T14:34:41.000Z</Time>
            <Position>
              <LatitudeDegrees>36.79884410463273525238037109375</LatitudeDegrees>
              <LongitudeDegrees>-4.38054193742573261260986328125</LongitudeDegrees>
            </Position>
            <AltitudeMeters>760</AltitudeMeters>
            <DistanceMeters>NAN</DistanceMeters>
          </Trackpoint>
          <Trackpoint>
            <Time>2020-12-05T14:34:42.000Z</Time>
            <Position>
              <LatitudeDegrees>36.79883371107280254364013671875</LatitudeDegrees>
              <LongitudeDegrees>-4.3805413506925106048583984375</LongitudeDegrees>
            </Position>
            <AltitudeMeters>760</AltitudeMeters>
            <DistanceMeters>NAN</DistanceMeters>
          </Trackpoint>
          <Trackpoint>
            <Time>2020-12-05T14:34:43.000Z</Time>
            <Position>
              <LatitudeDegrees>36.79882164113223552703857421875</LatitudeDegrees>
              <LongitudeDegrees>-4.38054311089217662811279296875</LongitudeDegrees>
            </Position>
            <AltitudeMeters>760</AltitudeMeters>
            <DistanceMeters>NAN</DistanceMeters>
          </Trackpoint>
          <Trackpoint>
            <Time>2020-12-05T14:34:44.000Z</Time>
            <Position>
              <LatitudeDegrees>36.79880755953490734100341796875</LatitudeDegrees>
              <LongitudeDegrees>-4.3805426917970180511474609375</LongitudeDegrees>
            </Position>
            <AltitudeMeters>759.79998779296875</AltitudeMeters>
            <DistanceMeters>NAN</DistanceMeters>
          </Trackpoint>
          <Trackpoint>
            <Time>2020-12-05T14:34:45.000Z</Time>
            <Position>
              <LatitudeDegrees>36.7987920530140399932861328125</LatitudeDegrees>
              <LongitudeDegrees>-4.3805420212447643280029296875</LongitudeDegrees>
            </Position>
            <AltitudeMeters>759.79998779296875</AltitudeMeters>
            <DistanceMeters>NAN</DistanceMeters>
          </Trackpoint>
          <Trackpoint>
            <Time>2020-12-05T14:34:46.000Z</Time>
            <Position>
              <LatitudeDegrees>36.79877671413123607635498046875</LatitudeDegrees>
              <LongitudeDegrees>-4.38054017722606658935546875</LongitudeDegrees>
            </Position>
            <AltitudeMeters>759.79998779296875</AltitudeMeters>
            <DistanceMeters>NAN</DistanceMeters>
          </Trackpoint>
          <Trackpoint>
            <Time>2020-12-05T14:34:47.000Z</Time>
            <Position>
              <LatitudeDegrees>36.798760034143924713134765625</LatitudeDegrees>
              <LongitudeDegrees>-4.380539841949939727783203125</LongitudeDegrees>
            </Position>
            <AltitudeMeters>759.5999755859375</AltitudeMeters>
            <DistanceMeters>NAN</DistanceMeters>
          </Trackpoint>
          <Trackpoint>
            <Time>2020-12-05T14:34:48.000Z</Time>
            <Position>
              <LatitudeDegrees>36.7987451143562793731689453125</LatitudeDegrees>
              <LongitudeDegrees>-4.38053992576897144317626953125</LongitudeDegrees>
            </Position>
            <AltitudeMeters>759.5999755859375</AltitudeMeters>
            <DistanceMeters>NAN</DistanceMeters>
          </Trackpoint>
          <Trackpoint>
            <Time>2020-12-05T14:34:49.000Z</Time>
            <Position>
              <LatitudeDegrees>36.79873287677764892578125</LatitudeDegrees>
              <LongitudeDegrees>-4.38053959049284458160400390625</LongitudeDegrees>
            </Position>
            <AltitudeMeters>759.5999755859375</AltitudeMeters>
            <DistanceMeters>NAN</DistanceMeters>
          </Trackpoint>
          <Trackpoint>
            <Time>2020-12-05T14:34:50.000Z</Time>
            <Position>
              <LatitudeDegrees>36.7987226508557796478271484375</LatitudeDegrees>
              <LongitudeDegrees>-4.38054026104509830474853515625</LongitudeDegrees>
            </Position>
            <AltitudeMeters>759.5999755859375</AltitudeMeters>
            <DistanceMeters>NAN</DistanceMeters>
          </Trackpoint>
          <Trackpoint>
            <Time>2020-12-05T14:34:51.000Z</Time>
            <Position>
              <LatitudeDegrees>36.79871074855327606201171875</LatitudeDegrees>
              <LongitudeDegrees>-4.38054009340703487396240234375</LongitudeDegrees>
            </Position>
            <AltitudeMeters>759.5999755859375</AltitudeMeters>
            <DistanceMeters>NAN</DistanceMeters>
          </Trackpoint>
          <Trackpoint>
            <Time>2020-12-05T14:34:52.000Z</Time>
            <Position>
              <LatitudeDegrees>36.79869976826012134552001953125</LatitudeDegrees>
              <LongitudeDegrees>-4.3805383332073688507080078125</LongitudeDegrees>
            </Position>
            <AltitudeMeters>759.79998779296875</AltitudeMeters>
            <DistanceMeters>NAN</DistanceMeters>
          </Trackpoint>
          <Trackpoint>
            <Time>2020-12-05T14:34:53.000Z</Time>
            <Position>
              <LatitudeDegrees>36.79869038052856922149658203125</LatitudeDegrees>
              <LongitudeDegrees>-4.3805349804461002349853515625</LongitudeDegrees>
            </Position>
            <AltitudeMeters>760</AltitudeMeters>
            <DistanceMeters>NAN</DistanceMeters>
          </Trackpoint>
          <Trackpoint>
            <Time>2020-12-05T14:34:54.000Z</Time>
            <Position>
              <LatitudeDegrees>36.79867948405444622039794921875</LatitudeDegrees>
              <LongitudeDegrees>-4.3805336393415927886962890625</LongitudeDegrees>
            </Position>
            <AltitudeMeters>760.20001220703125</AltitudeMeters>
            <DistanceMeters>NAN</DistanceMeters>
          </Trackpoint>
          <Trackpoint>
            <Time>2020-12-05T14:34:55.000Z</Time>
            <Position>
              <LatitudeDegrees>36.7986700125038623809814453125</LatitudeDegrees>
              <LongitudeDegrees>-4.38053489662706851959228515625</LongitudeDegrees>
            </Position>
            <AltitudeMeters>760.4000244140625</AltitudeMeters>
            <DistanceMeters>NAN</DistanceMeters>
          </Trackpoint>
          <Trackpoint>
            <Time>2020-12-05T14:34:56.000Z</Time>
            <Position>
              <LatitudeDegrees>36.798660121858119964599609375</LatitudeDegrees>
              <LongitudeDegrees>-4.380532801151275634765625</LongitudeDegrees>
            </Position>
            <AltitudeMeters>760.5999755859375</AltitudeMeters>
            <DistanceMeters>NAN</DistanceMeters>
          </Trackpoint>
          <Trackpoint>
            <Time>2020-12-05T14:34:57.000Z</Time>
            <Position>
              <LatitudeDegrees>36.79864511825144290924072265625</LatitudeDegrees>
              <LongitudeDegrees>-4.38052676618099212646484375</LongitudeDegrees>
            </Position>
            <AltitudeMeters>760.79998779296875</AltitudeMeters>
            <DistanceMeters>NAN</DistanceMeters>
          </Trackpoint>
          <Trackpoint>
            <Time>2020-12-05T14:34:58.000Z</Time>
            <Position>
              <LatitudeDegrees>36.79863003082573413848876953125</LatitudeDegrees>
              <LongitudeDegrees>-4.3805219046771526336669921875</LongitudeDegrees>
            </Position>
            <AltitudeMeters>760.79998779296875</AltitudeMeters>
            <DistanceMeters>NAN</DistanceMeters>
          </Trackpoint>
          <Trackpoint>
            <Time>2020-12-05T14:34:59.000Z</Time>
            <Position>
              <LatitudeDegrees>36.79861695505678653717041015625</LatitudeDegrees>
              <LongitudeDegrees>-4.3805158697068691253662109375</LongitudeDegrees>
            </Position>
            <AltitudeMeters>760.79998779296875</AltitudeMeters>
            <DistanceMeters>NAN</DistanceMeters>
          </Trackpoint>
          <Trackpoint>
            <Time>2020-12-05T14:35:00.000Z</Time>
            <Position>
              <LatitudeDegrees>36.7986049689352512359619140625</LatitudeDegrees>
              <LongitudeDegrees>-4.38050639815628528594970703125</LongitudeDegrees>
            </Position>
            <AltitudeMeters>760.79998779296875</AltitudeMeters>
            <DistanceMeters>NAN</DistanceMeters>
          </Trackpoint>
          <Trackpoint>
            <Time>2020-12-05T14:35:01.000Z</Time>
            <Position>
              <LatitudeDegrees>36.79859197698533535003662109375</LatitudeDegrees>
              <LongitudeDegrees>-4.38049784861505031585693359375</LongitudeDegrees>
            </Position>
            <AltitudeMeters>761</AltitudeMeters>
            <DistanceMeters>NAN</DistanceMeters>
          </Trackpoint>
          <Trackpoint>
            <Time>2020-12-05T14:35:02.000Z</Time>
            <Position>
              <LatitudeDegrees>36.79858007468283176422119140625</LatitudeDegrees>
              <LongitudeDegrees>-4.3804831802845001220703125</LongitudeDegrees>
            </Position>
            <AltitudeMeters>761</AltitudeMeters>
            <DistanceMeters>NAN</DistanceMeters>
          </Trackpoint>
          <Trackpoint>
            <Time>2020-12-05T14:35:03.000Z</Time>
            <Position>
              <LatitudeDegrees>36.7985679209232330322265625</LatitudeDegrees>
              <LongitudeDegrees>-4.38046566210687160491943359375</LongitudeDegrees>
            </Position>
            <AltitudeMeters>761</AltitudeMeters>
            <DistanceMeters>NAN</DistanceMeters>
          </Trackpoint>
          <Trackpoint>
            <Time>2020-12-05T14:35:04.000Z</Time>
            <Position>
              <LatitudeDegrees>36.798554174602031707763671875</LatitudeDegrees>
              <LongitudeDegrees>-4.38045568764209747314453125</LongitudeDegrees>
            </Position>
            <AltitudeMeters>760.79998779296875</AltitudeMeters>
            <DistanceMeters>NAN</DistanceMeters>
          </Trackpoint>
          <Trackpoint>
            <Time>2020-12-05T14:35:05.000Z</Time>
            <Position>
              <LatitudeDegrees>36.79854176938533782958984375</LatitudeDegrees>
              <LongitudeDegrees>-4.38044621609151363372802734375</LongitudeDegrees>
            </Position>
            <AltitudeMeters>760.5999755859375</AltitudeMeters>
            <DistanceMeters>NAN</DistanceMeters>
          </Trackpoint>
          <Trackpoint>
            <Time>2020-12-05T14:35:06.000Z</Time>
            <Position>
              <LatitudeDegrees>36.79852961562573909759521484375</LatitudeDegrees>
              <LongitudeDegrees>-4.38043582253158092498779296875</LongitudeDegrees>
            </Position>
            <AltitudeMeters>760.5999755859375</AltitudeMeters>
            <DistanceMeters>NAN</DistanceMeters>
          </Trackpoint>
          <Trackpoint>
            <Time>2020-12-05T14:35:07.000Z</Time>
            <Position>
              <LatitudeDegrees>36.79851687513291835784912109375</LatitudeDegrees>
              <LongitudeDegrees>-4.38042559660971164703369140625</LongitudeDegrees>
            </Position>
            <AltitudeMeters>760.4000244140625</AltitudeMeters>
            <DistanceMeters>NAN</DistanceMeters>
          </Trackpoint>
          <Trackpoint>
            <Time>2020-12-05T14:35:08.000Z</Time>
            <Position>
              <LatitudeDegrees>36.79850631393492221832275390625</LatitudeDegrees>
              <LongitudeDegrees>-4.38041813671588897705078125</LongitudeDegrees>
            </Position>
            <AltitudeMeters>760.20001220703125</AltitudeMeters>
            <DistanceMeters>NAN</DistanceMeters>
          </Trackpoint>
          <Trackpoint>
            <Time>2020-12-05T14:35:09.000Z</Time>
            <Position>
              <LatitudeDegrees>36.7984923161566257476806640625</LatitudeDegrees>
              <LongitudeDegrees>-4.38041117973625659942626953125</LongitudeDegrees>
            </Position>
            <AltitudeMeters>760</AltitudeMeters>
            <DistanceMeters>NAN</DistanceMeters>
          </Trackpoint>
          <Trackpoint>
            <Time>2020-12-05T14:35:10.000Z</Time>
            <Position>
              <LatitudeDegrees>36.79847748018801212310791015625</LatitudeDegrees>
              <LongitudeDegrees>-4.38040740787982940673828125</LongitudeDegrees>
            </Position>
            <AltitudeMeters>759.79998779296875</AltitudeMeters>
            <DistanceMeters>NAN</DistanceMeters>
          </Trackpoint>
          <Trackpoint>
            <Time>2020-12-05T14:35:11.000Z</Time>
            <Position>
              <LatitudeDegrees>36.79846406914293766021728515625</LatitudeDegrees>
              <LongitudeDegrees>-4.38040380366146564483642578125</LongitudeDegrees>
            </Position>
            <AltitudeMeters>759.5999755859375</AltitudeMeters>
            <DistanceMeters>NAN</DistanceMeters>
          </Trackpoint>
          <Trackpoint>
            <Time>2020-12-05T14:35:12.000Z</Time>
            <Position>
              <LatitudeDegrees>36.79845116101205348968505859375</LatitudeDegrees>
              <LongitudeDegrees>-4.380401037633419036865234375</LongitudeDegrees>
            </Position>
            <AltitudeMeters>759.4000244140625</AltitudeMeters>
            <DistanceMeters>NAN</DistanceMeters>
          </Trackpoint>
          <Trackpoint>
            <Time>2020-12-05T14:35:13.000Z</Time>
            <Position>
              <LatitudeDegrees>36.7984380014240741729736328125</LatitudeDegrees>
              <LongitudeDegrees>-4.38039810396730899810791015625</LongitudeDegrees>
            </Position>
            <AltitudeMeters>759.20001220703125</AltitudeMeters>
            <DistanceMeters>NAN</DistanceMeters>
          </Trackpoint>
          <Trackpoint>
            <Time>2020-12-05T14:35:14.000Z</Time>
            <Position>
              <LatitudeDegrees>36.79842316545546054840087890625</LatitudeDegrees>
              <LongitudeDegrees>-4.3803951703011989593505859375</LongitudeDegrees>
            </Position>
            <AltitudeMeters>759</AltitudeMeters>
            <DistanceMeters>NAN</DistanceMeters>
          </Trackpoint>
          <Trackpoint>
            <Time>2020-12-05T14:35:15.000Z</Time>
            <Position>
              <LatitudeDegrees>36.79841025732457637786865234375</LatitudeDegrees>
              <LongitudeDegrees>-4.38039265573024749755859375</LongitudeDegrees>
            </Position>
            <AltitudeMeters>758.79998779296875</AltitudeMeters>
            <DistanceMeters>NAN</DistanceMeters>
          </Trackpoint>
          <Trackpoint>
            <Time>2020-12-05T14:35:16.000Z</Time>
            <Position>
              <LatitudeDegrees>36.7983977682888507843017578125</LatitudeDegrees>
              <LongitudeDegrees>-4.38039022497832775115966796875</LongitudeDegrees>
            </Position>
            <AltitudeMeters>758.5999755859375</AltitudeMeters>
            <DistanceMeters>NAN</DistanceMeters>
          </Trackpoint>
          <Trackpoint>
            <Time>2020-12-05T14:35:17.000Z</Time>
            <Position>
              <LatitudeDegrees>36.79838444106280803680419921875</LatitudeDegrees>
              <LongitudeDegrees>-4.3803881295025348663330078125</LongitudeDegrees>
            </Position>
            <AltitudeMeters>758.5999755859375</AltitudeMeters>
            <DistanceMeters>NAN</DistanceMeters>
          </Trackpoint>
          <Trackpoint>
            <Time>2020-12-05T14:35:18.000Z</Time>
            <Position>
              <LatitudeDegrees>36.79837220348417758941650390625</LatitudeDegrees>
              <LongitudeDegrees>-4.38038921914994716644287109375</LongitudeDegrees>
            </Position>
            <AltitudeMeters>758.5999755859375</AltitudeMeters>
            <DistanceMeters>NAN</DistanceMeters>
          </Trackpoint>
          <Trackpoint>
            <Time>2020-12-05T14:35:19.000Z</Time>
            <Position>
              <LatitudeDegrees>36.79835711605846881866455078125</LatitudeDegrees>
              <LongitudeDegrees>-4.38039273954927921295166015625</LongitudeDegrees>
            </Position>
            <AltitudeMeters>758.5999755859375</AltitudeMeters>
            <DistanceMeters>NAN</DistanceMeters>
          </Trackpoint>
          <Trackpoint>
            <Time>2020-12-05T14:35:20.000Z</Time>
            <Position>
              <LatitudeDegrees>36.79834236390888690948486328125</LatitudeDegrees>
              <LongitudeDegrees>-4.3803955055773258209228515625</LongitudeDegrees>
            </Position>
            <AltitudeMeters>758.5999755859375</AltitudeMeters>
            <DistanceMeters>NAN</DistanceMeters>
          </Trackpoint>
          <Trackpoint>
            <Time>2020-12-05T14:35:21.000Z</Time>
            <Position>
              <LatitudeDegrees>36.7983250133693218231201171875</LatitudeDegrees>
              <LongitudeDegrees>-4.3804012052714824676513671875</LongitudeDegrees>
            </Position>
            <AltitudeMeters>758.79998779296875</AltitudeMeters>
            <DistanceMeters>NAN</DistanceMeters>
          </Trackpoint>
          <Trackpoint>
            <Time>2020-12-05T14:35:22.000Z</Time>
            <Position>
              <LatitudeDegrees>36.7983099259436130523681640625</LatitudeDegrees>
              <LongitudeDegrees>-4.38040045090019702911376953125</LongitudeDegrees>
            </Position>
            <AltitudeMeters>758.79998779296875</AltitudeMeters>
            <DistanceMeters>NAN</DistanceMeters>
          </Trackpoint>
          <Trackpoint>
            <Time>2020-12-05T14:35:23.000Z</Time>
            <Position>
              <LatitudeDegrees>36.79829500615596771240234375</LatitudeDegrees>
              <LongitudeDegrees>-4.38040070235729217529296875</LongitudeDegrees>
            </Position>
            <AltitudeMeters>758.79998779296875</AltitudeMeters>
            <DistanceMeters>NAN</DistanceMeters>
          </Trackpoint>
          <Trackpoint>
            <Time>2020-12-05T14:35:24.000Z</Time>
            <Position>
              <LatitudeDegrees>36.798281930387020111083984375</LatitudeDegrees>
              <LongitudeDegrees>-4.38040212728083133697509765625</LongitudeDegrees>
            </Position>
            <AltitudeMeters>758.4000244140625</AltitudeMeters>
            <DistanceMeters>NAN</DistanceMeters>
          </Trackpoint>
          <Trackpoint>
            <Time>2020-12-05T14:35:25.000Z</Time>
            <Position>
              <LatitudeDegrees>36.79826944135129451751708984375</LatitudeDegrees>
              <LongitudeDegrees>-4.38040598295629024505615234375</LongitudeDegrees>
            </Position>
            <AltitudeMeters>758</AltitudeMeters>
            <DistanceMeters>NAN</DistanceMeters>
          </Trackpoint>
          <Trackpoint>
            <Time>2020-12-05T14:35:26.000Z</Time>
            <Position>
              <LatitudeDegrees>36.7982569523155689239501953125</LatitudeDegrees>
              <LongitudeDegrees>-4.38041210174560546875</LongitudeDegrees>
            </Position>
            <AltitudeMeters>757.5999755859375</AltitudeMeters>
            <DistanceMeters>NAN</DistanceMeters>
          </Trackpoint>
          <Trackpoint>
            <Time>2020-12-05T14:35:27.000Z</Time>
            <Position>
              <LatitudeDegrees>36.7982448823750019073486328125</LatitudeDegrees>
              <LongitudeDegrees>-4.38041889108717441558837890625</LongitudeDegrees>
            </Position>
            <AltitudeMeters>757</AltitudeMeters>
            <DistanceMeters>NAN</DistanceMeters>
          </Trackpoint>
          <Trackpoint>
            <Time>2020-12-05T14:35:28.000Z</Time>
            <Position>
              <LatitudeDegrees>36.79823323152959346771240234375</LatitudeDegrees>
              <LongitudeDegrees>-4.38042777590453624725341796875</LongitudeDegrees>
            </Position>
            <AltitudeMeters>756.5999755859375</AltitudeMeters>
            <DistanceMeters>NAN</DistanceMeters>
          </Trackpoint>
          <Trackpoint>
            <Time>2020-12-05T14:35:29.000Z</Time>
            <Position>
              <LatitudeDegrees>36.79822250269353389739990234375</LatitudeDegrees>
              <LongitudeDegrees>-4.38043582253158092498779296875</LongitudeDegrees>
            </Position>
            <AltitudeMeters>756.20001220703125</AltitudeMeters>
            <DistanceMeters>NAN</DistanceMeters>
          </Trackpoint>
          <Trackpoint>
            <Time>2020-12-05T14:35:30.000Z</Time>
            <Position>
              <LatitudeDegrees>36.79821395315229892730712890625</LatitudeDegrees>
              <LongitudeDegrees>-4.3804441206157207489013671875</LongitudeDegrees>
            </Position>
            <AltitudeMeters>755.79998779296875</AltitudeMeters>
            <DistanceMeters>NAN</DistanceMeters>
          </Trackpoint>
          <Trackpoint>
            <Time>2020-12-05T14:35:31.000Z</Time>
            <Position>
              <LatitudeDegrees>36.7982066608965396881103515625</LatitudeDegrees>
              <LongitudeDegrees>-4.38045023940503597259521484375</LongitudeDegrees>
            </Position>
            <AltitudeMeters>755.4000244140625</AltitudeMeters>
            <DistanceMeters>NAN</DistanceMeters>
          </Trackpoint>
          <Trackpoint>
            <Time>2020-12-05T14:35:32.000Z</Time>
            <Position>
              <LatitudeDegrees>36.7981992848217487335205078125</LatitudeDegrees>
              <LongitudeDegrees>-4.38045811839401721954345703125</LongitudeDegrees>
            </Position>
            <AltitudeMeters>754.79998779296875</AltitudeMeters>
            <DistanceMeters>NAN</DistanceMeters>
          </Trackpoint>
          <Trackpoint>
            <Time>2020-12-05T14:35:33.000Z</Time>
            <Position>
              <LatitudeDegrees>36.798193752765655517578125</LatitudeDegrees>
              <LongitudeDegrees>-4.38046582974493503570556640625</LongitudeDegrees>
            </Position>
            <AltitudeMeters>754.4000244140625</AltitudeMeters>
            <DistanceMeters>NAN</DistanceMeters>
          </Trackpoint>
          <Trackpoint>
            <Time>2020-12-05T14:35:34.000Z</Time>
            <Position>
              <LatitudeDegrees>36.7981855385005474090576171875</LatitudeDegrees>
              <LongitudeDegrees>-4.38047270290553569793701171875</LongitudeDegrees>
            </Position>
            <AltitudeMeters>754</AltitudeMeters>
            <DistanceMeters>NAN</DistanceMeters>
          </Trackpoint>
          <Trackpoint>
            <Time>2020-12-05T14:35:35.000Z</Time>
            <Position>
              <LatitudeDegrees>36.7981761507689952850341796875</LatitudeDegrees>
              <LongitudeDegrees>-4.38048477284610271453857421875</LongitudeDegrees>
            </Position>
            <AltitudeMeters>753.79998779296875</AltitudeMeters>
            <DistanceMeters>NAN</DistanceMeters>
          </Trackpoint>
          <Trackpoint>
            <Time>2020-12-05T14:35:36.000Z</Time>
            <Position>
              <LatitudeDegrees>36.79816491901874542236328125</LatitudeDegrees>
              <LongitudeDegrees>-4.3804984353482723236083984375</LongitudeDegrees>
            </Position>
            <AltitudeMeters>753.5999755859375</AltitudeMeters>
            <DistanceMeters>NAN</DistanceMeters>
          </Trackpoint>
          <Trackpoint>
            <Time>2020-12-05T14:35:37.000Z</Time>
            <Position>
              <LatitudeDegrees>36.79815351963043212890625</LatitudeDegrees>
              <LongitudeDegrees>-4.38051008619368076324462890625</LongitudeDegrees>
            </Position>
            <AltitudeMeters>753.5999755859375</AltitudeMeters>
            <DistanceMeters>NAN</DistanceMeters>
          </Trackpoint>
          <Trackpoint>
            <Time>2020-12-05T14:35:38.000Z</Time>
            <Position>
              <LatitudeDegrees>36.798142455518245697021484375</LatitudeDegrees>
              <LongitudeDegrees>-4.38051980920135974884033203125</LongitudeDegrees>
            </Position>
            <AltitudeMeters>753.5999755859375</AltitudeMeters>
            <DistanceMeters>NAN</DistanceMeters>
          </Trackpoint>
          <Trackpoint>
            <Time>2020-12-05T14:35:39.000Z</Time>
            <Position>
              <LatitudeDegrees>36.7981335707008838653564453125</LatitudeDegrees>
              <LongitudeDegrees>-4.3805252574384212493896484375</LongitudeDegrees>
            </Position>
            <AltitudeMeters>753.5999755859375</AltitudeMeters>
            <DistanceMeters>NAN</DistanceMeters>
          </Trackpoint>
          <Trackpoint>
            <Time>2020-12-05T14:35:40.000Z</Time>
            <Position>
              <LatitudeDegrees>36.79812476970255374908447265625</LatitudeDegrees>
              <LongitudeDegrees>-4.38052768819034099578857421875</LongitudeDegrees>
            </Position>
            <AltitudeMeters>753.5999755859375</AltitudeMeters>
            <DistanceMeters>NAN</DistanceMeters>
          </Trackpoint>
          <Trackpoint>
            <Time>2020-12-05T14:35:41.000Z</Time>
            <Position>
              <LatitudeDegrees>36.79811504669487476348876953125</LatitudeDegrees>
              <LongitudeDegrees>-4.380530454218387603759765625</LongitudeDegrees>
            </Position>
            <AltitudeMeters>753.5999755859375</AltitudeMeters>
            <DistanceMeters>NAN</DistanceMeters>
          </Trackpoint>
          <Trackpoint>
            <Time>2020-12-05T14:35:42.000Z</Time>
            <Position>
              <LatitudeDegrees>36.7981044016778469085693359375</LatitudeDegrees>
              <LongitudeDegrees>-4.380533136427402496337890625</LongitudeDegrees>
            </Position>
            <AltitudeMeters>754</AltitudeMeters>
            <DistanceMeters>NAN</DistanceMeters>
          </Trackpoint>
          <Trackpoint>
            <Time>2020-12-05T14:35:43.000Z</Time>
            <Position>
              <LatitudeDegrees>36.79809249937534332275390625</LatitudeDegrees>
              <LongitudeDegrees>-4.3805356509983539581298828125</LongitudeDegrees>
            </Position>
            <AltitudeMeters>754.20001220703125</AltitudeMeters>
            <DistanceMeters>NAN</DistanceMeters>
          </Trackpoint>
          <Trackpoint>
            <Time>2020-12-05T14:35:44.000Z</Time>
            <Position>
              <LatitudeDegrees>36.79808068089187145233154296875</LatitudeDegrees>
              <LongitudeDegrees>-4.3805396743118762969970703125</LongitudeDegrees>
            </Position>
            <AltitudeMeters>754.4000244140625</AltitudeMeters>
            <DistanceMeters>NAN</DistanceMeters>
          </Trackpoint>
          <Trackpoint>
            <Time>2020-12-05T14:35:45.000Z</Time>
            <Position>
              <LatitudeDegrees>36.798068694770336151123046875</LatitudeDegrees>
              <LongitudeDegrees>-4.38054730184376239776611328125</LongitudeDegrees>
            </Position>
            <AltitudeMeters>754.5999755859375</AltitudeMeters>
            <DistanceMeters>NAN</DistanceMeters>
          </Trackpoint>
          <Trackpoint>
            <Time>2020-12-05T14:35:46.000Z</Time>
            <Position>
              <LatitudeDegrees>36.79805788211524486541748046875</LatitudeDegrees>
              <LongitudeDegrees>-4.38055819831788539886474609375</LongitudeDegrees>
            </Position>
            <AltitudeMeters>754.5999755859375</AltitudeMeters>
            <DistanceMeters>NAN</DistanceMeters>
          </Trackpoint>
          <Trackpoint>
            <Time>2020-12-05T14:35:47.000Z</Time>
            <Position>
              <LatitudeDegrees>36.79804866202175617218017578125</LatitudeDegrees>
              <LongitudeDegrees>-4.38056808896362781524658203125</LongitudeDegrees>
            </Position>
            <AltitudeMeters>754.79998779296875</AltitudeMeters>
            <DistanceMeters>NAN</DistanceMeters>
          </Trackpoint>
          <Trackpoint>
            <Time>2020-12-05T14:35:48.000Z</Time>
            <Position>
              <LatitudeDegrees>36.79803994484245777130126953125</LatitudeDegrees>
              <LongitudeDegrees>-4.3805768899619579315185546875</LongitudeDegrees>
            </Position>
            <AltitudeMeters>754.5999755859375</AltitudeMeters>
            <DistanceMeters>NAN</DistanceMeters>
          </Trackpoint>
          <Trackpoint>
            <Time>2020-12-05T14:35:49.000Z</Time>
            <Position>
              <LatitudeDegrees>36.7980306409299373626708984375</LatitudeDegrees>
              <LongitudeDegrees>-4.380588121712207794189453125</LongitudeDegrees>
            </Position>
            <AltitudeMeters>754.4000244140625</AltitudeMeters>
            <DistanceMeters>NAN</DistanceMeters>
          </Trackpoint>
          <Trackpoint>
            <Time>2020-12-05T14:35:50.000Z</Time>
            <Position>
              <LatitudeDegrees>36.7980209179222583770751953125</LatitudeDegrees>
              <LongitudeDegrees>-4.3805983476340770721435546875</LongitudeDegrees>
            </Position>
            <AltitudeMeters>754.4000244140625</AltitudeMeters>
            <DistanceMeters>NAN</DistanceMeters>
          </Trackpoint>
          <Trackpoint>
            <Time>2020-12-05T14:35:51.000Z</Time>
            <Position>
              <LatitudeDegrees>36.79801094345748424530029296875</LatitudeDegrees>
              <LongitudeDegrees>-4.3806053884327411651611328125</LongitudeDegrees>
            </Position>
            <AltitudeMeters>754.4000244140625</AltitudeMeters>
            <DistanceMeters>NAN</DistanceMeters>
          </Trackpoint>
          <Trackpoint>
            <Time>2020-12-05T14:35:52.000Z</Time>
            <Position>
              <LatitudeDegrees>36.7980011366307735443115234375</LatitudeDegrees>
              <LongitudeDegrees>-4.380609579384326934814453125</LongitudeDegrees>
            </Position>
            <AltitudeMeters>754.4000244140625</AltitudeMeters>
            <DistanceMeters>NAN</DistanceMeters>
          </Trackpoint>
          <Trackpoint>
            <Time>2020-12-05T14:35:53.000Z</Time>
            <Position>
              <LatitudeDegrees>36.7979907430708408355712890625</LatitudeDegrees>
              <LongitudeDegrees>-4.38061259686946868896484375</LongitudeDegrees>
            </Position>
            <AltitudeMeters>754.20001220703125</AltitudeMeters>
            <DistanceMeters>NAN</DistanceMeters>
          </Trackpoint>
          <Trackpoint>
            <Time>2020-12-05T14:35:54.000Z</Time>
            <Position>
              <LatitudeDegrees>36.797980181872844696044921875</LatitudeDegrees>
              <LongitudeDegrees>-4.3806147761642932891845703125</LongitudeDegrees>
            </Position>
            <AltitudeMeters>754.20001220703125</AltitudeMeters>
            <DistanceMeters>NAN</DistanceMeters>
          </Trackpoint>
          <Trackpoint>
            <Time>2020-12-05T14:35:55.000Z</Time>
            <Position>
              <LatitudeDegrees>36.79796685464680194854736328125</LatitudeDegrees>
              <LongitudeDegrees>-4.38061284832656383514404296875</LongitudeDegrees>
            </Position>
            <AltitudeMeters>754</AltitudeMeters>
            <DistanceMeters>NAN</DistanceMeters>
          </Trackpoint>
          <Trackpoint>
            <Time>2020-12-05T14:35:56.000Z</Time>
            <Position>
              <LatitudeDegrees>36.79795168340206146240234375</LatitudeDegrees>
              <LongitudeDegrees>-4.38060991466045379638671875</LongitudeDegrees>
            </Position>
            <AltitudeMeters>753.5999755859375</AltitudeMeters>
            <DistanceMeters>NAN</DistanceMeters>
          </Trackpoint>
          <Trackpoint>
            <Time>2020-12-05T14:35:57.000Z</Time>
            <Position>
              <LatitudeDegrees>36.797935254871845245361328125</LatitudeDegrees>
              <LongitudeDegrees>-4.38060597516596317291259765625</LongitudeDegrees>
            </Position>
            <AltitudeMeters>753.4000244140625</AltitudeMeters>
            <DistanceMeters>NAN</DistanceMeters>
          </Trackpoint>
          <Trackpoint>
            <Time>2020-12-05T14:35:58.000Z</Time>
            <Position>
              <LatitudeDegrees>36.7979199998080730438232421875</LatitudeDegrees>
              <LongitudeDegrees>-4.3806011974811553955078125</LongitudeDegrees>
            </Position>
            <AltitudeMeters>753.20001220703125</AltitudeMeters>
            <DistanceMeters>NAN</DistanceMeters>
          </Trackpoint>
          <Trackpoint>
            <Time>2020-12-05T14:35:59.000Z</Time>
            <Position>
              <LatitudeDegrees>36.797903738915920257568359375</LatitudeDegrees>
              <LongitudeDegrees>-4.38059457577764987945556640625</LongitudeDegrees>
            </Position>
            <AltitudeMeters>753</AltitudeMeters>
            <DistanceMeters>NAN</DistanceMeters>
          </Trackpoint>
          <Trackpoint>
            <Time>2020-12-05T14:36:00.000Z</Time>
            <Position>
              <LatitudeDegrees>36.797887980937957763671875</LatitudeDegrees>
              <LongitudeDegrees>-4.38059222884476184844970703125</LongitudeDegrees>
            </Position>
            <AltitudeMeters>753</AltitudeMeters>
            <DistanceMeters>NAN</DistanceMeters>
          </Trackpoint>
          <Trackpoint>
            <Time>2020-12-05T14:36:01.000Z</Time>
            <Position>
              <LatitudeDegrees>36.797871887683868408203125</LatitudeDegrees>
              <LongitudeDegrees>-4.38058988191187381744384765625</LongitudeDegrees>
            </Position>
            <AltitudeMeters>752.79998779296875</AltitudeMeters>
            <DistanceMeters>NAN</DistanceMeters>
          </Trackpoint>
          <Trackpoint>
            <Time>2020-12-05T14:36:02.000Z</Time>
            <Position>
              <LatitudeDegrees>36.7978552915155887603759765625</LatitudeDegrees>
              <LongitudeDegrees>-4.380588121712207794189453125</LongitudeDegrees>
            </Position>
            <AltitudeMeters>752.79998779296875</AltitudeMeters>
            <DistanceMeters>NAN</DistanceMeters>
          </Trackpoint>
          <Trackpoint>
            <Time>2020-12-05T14:36:03.000Z</Time>
            <Position>
              <LatitudeDegrees>36.7978405393660068511962890625</LatitudeDegrees>
              <LongitudeDegrees>-4.38058619387447834014892578125</LongitudeDegrees>
            </Position>
            <AltitudeMeters>752.5999755859375</AltitudeMeters>
            <DistanceMeters>NAN</DistanceMeters>
          </Trackpoint>
          <Trackpoint>
            <Time>2020-12-05T14:36:04.000Z</Time>
            <Position>
              <LatitudeDegrees>36.7978276312351226806640625</LatitudeDegrees>
              <LongitudeDegrees>-4.38058434985578060150146484375</LongitudeDegrees>
            </Position>
            <AltitudeMeters>752.5999755859375</AltitudeMeters>
            <DistanceMeters>NAN</DistanceMeters>
          </Trackpoint>
          <Trackpoint>
            <Time>2020-12-05T14:36:05.000Z</Time>
            <Position>
              <LatitudeDegrees>36.7978177405893802642822265625</LatitudeDegrees>
              <LongitudeDegrees>-4.3805815838277339935302734375</LongitudeDegrees>
            </Position>
            <AltitudeMeters>752.5999755859375</AltitudeMeters>
            <DistanceMeters>NAN</DistanceMeters>
          </Trackpoint>
          <Trackpoint>
            <Time>2020-12-05T14:36:06.000Z</Time>
            <Position>
              <LatitudeDegrees>36.7978088557720184326171875</LatitudeDegrees>
              <LongitudeDegrees>-4.38057898543775081634521484375</LongitudeDegrees>
            </Position>
            <AltitudeMeters>752.4000244140625</AltitudeMeters>
            <DistanceMeters>NAN</DistanceMeters>
          </Trackpoint>
          <Trackpoint>
            <Time>2020-12-05T14:36:07.000Z</Time>
            <Position>
              <LatitudeDegrees>36.79779946804046630859375</LatitudeDegrees>
              <LongitudeDegrees>-4.38057839870452880859375</LongitudeDegrees>
            </Position>
            <AltitudeMeters>752.20001220703125</AltitudeMeters>
            <DistanceMeters>NAN</DistanceMeters>
          </Trackpoint>
          <Trackpoint>
            <Time>2020-12-05T14:36:08.000Z</Time>
            <Position>
              <LatitudeDegrees>36.797790415585041046142578125</LatitudeDegrees>
              <LongitudeDegrees>-4.38057479448616504669189453125</LongitudeDegrees>
            </Position>
            <AltitudeMeters>752</AltitudeMeters>
            <DistanceMeters>NAN</DistanceMeters>
          </Trackpoint>
          <Trackpoint>
            <Time>2020-12-05T14:36:09.000Z</Time>
            <Position>
              <LatitudeDegrees>36.79778060875833034515380859375</LatitudeDegrees>
              <LongitudeDegrees>-4.3805690109729766845703125</LongitudeDegrees>
            </Position>
            <AltitudeMeters>751.79998779296875</AltitudeMeters>
            <DistanceMeters>NAN</DistanceMeters>
          </Trackpoint>
          <Trackpoint>
            <Time>2020-12-05T14:36:10.000Z</Time>
            <Position>
              <LatitudeDegrees>36.79777289740741252899169921875</LatitudeDegrees>
              <LongitudeDegrees>-4.3805609643459320068359375</LongitudeDegrees>
            </Position>
            <AltitudeMeters>751.5999755859375</AltitudeMeters>
            <DistanceMeters>NAN</DistanceMeters>
          </Trackpoint>
          <Trackpoint>
            <Time>2020-12-05T14:36:11.000Z</Time>
            <Position>
              <LatitudeDegrees>36.79776585660874843597412109375</LatitudeDegrees>
              <LongitudeDegrees>-4.3805534206330776214599609375</LongitudeDegrees>
            </Position>
            <AltitudeMeters>751.4000244140625</AltitudeMeters>
            <DistanceMeters>NAN</DistanceMeters>
          </Trackpoint>
          <Trackpoint>
            <Time>2020-12-05T14:36:12.000Z</Time>
            <Position>
              <LatitudeDegrees>36.797759570181369781494140625</LatitudeDegrees>
              <LongitudeDegrees>-4.3805483914911746978759765625</LongitudeDegrees>
            </Position>
            <AltitudeMeters>751.20001220703125</AltitudeMeters>
            <DistanceMeters>NAN</DistanceMeters>
          </Trackpoint>
          <Trackpoint>
            <Time>2020-12-05T14:36:13.000Z</Time>
            <Position>
              <LatitudeDegrees>36.797753535211086273193359375</LatitudeDegrees>
              <LongitudeDegrees>-4.38054478727281093597412109375</LongitudeDegrees>
            </Position>
            <AltitudeMeters>751</AltitudeMeters>
            <DistanceMeters>NAN</DistanceMeters>
          </Trackpoint>
          <Trackpoint>
            <Time>2020-12-05T14:36:14.000Z</Time>
            <Position>
              <LatitudeDegrees>36.7977449856698513031005859375</LatitudeDegrees>
              <LongitudeDegrees>-4.3805408477783203125</LongitudeDegrees>
            </Position>
            <AltitudeMeters>750.79998779296875</AltitudeMeters>
            <DistanceMeters>NAN</DistanceMeters>
          </Trackpoint>
          <Trackpoint>
            <Time>2020-12-05T14:36:15.000Z</Time>
            <Position>
              <LatitudeDegrees>36.79773710668087005615234375</LatitudeDegrees>
              <LongitudeDegrees>-4.38053422607481479644775390625</LongitudeDegrees>
            </Position>
            <AltitudeMeters>750.79998779296875</AltitudeMeters>
            <DistanceMeters>NAN</DistanceMeters>
          </Trackpoint>
          <Trackpoint>
            <Time>2020-12-05T14:36:16.000Z</Time>
            <Position>
              <LatitudeDegrees>36.79773048497736454010009765625</LatitudeDegrees>
              <LongitudeDegrees>-4.38052550889551639556884765625</LongitudeDegrees>
            </Position>
            <AltitudeMeters>750.5999755859375</AltitudeMeters>
            <DistanceMeters>NAN</DistanceMeters>
          </Trackpoint>
          <Trackpoint>
            <Time>2020-12-05T14:36:17.000Z</Time>
            <Position>
              <LatitudeDegrees>36.7977231927216053009033203125</LatitudeDegrees>
              <LongitudeDegrees>-4.3805207312107086181640625</LongitudeDegrees>
            </Position>
            <AltitudeMeters>750.5999755859375</AltitudeMeters>
            <DistanceMeters>NAN</DistanceMeters>
          </Trackpoint>
          <Trackpoint>
            <Time>2020-12-05T14:36:18.000Z</Time>
            <Position>
              <LatitudeDegrees>36.79771564900875091552734375</LatitudeDegrees>
              <LongitudeDegrees>-4.38051913864910602569580078125</LongitudeDegrees>
            </Position>
            <AltitudeMeters>750.5999755859375</AltitudeMeters>
            <DistanceMeters>NAN</DistanceMeters>
          </Trackpoint>
          <Trackpoint>
            <Time>2020-12-05T14:36:19.000Z</Time>
            <Position>
              <LatitudeDegrees>36.7977091111242771148681640625</LatitudeDegrees>
              <LongitudeDegrees>-4.3805145286023616790771484375</LongitudeDegrees>
            </Position>
            <AltitudeMeters>750.5999755859375</AltitudeMeters>
            <DistanceMeters>NAN</DistanceMeters>
          </Trackpoint>
          <Trackpoint>
            <Time>2020-12-05T14:36:20.000Z</Time>
            <Position>
              <LatitudeDegrees>36.7977017350494861602783203125</LatitudeDegrees>
              <LongitudeDegrees>-4.38050706870853900909423828125</LongitudeDegrees>
            </Position>
            <AltitudeMeters>750.5999755859375</AltitudeMeters>
            <DistanceMeters>NAN</DistanceMeters>
          </Trackpoint>
          <Trackpoint>
            <Time>2020-12-05T14:36:21.000Z</Time>
            <Position>
              <LatitudeDegrees>36.7976926825940608978271484375</LatitudeDegrees>
              <LongitudeDegrees>-4.380501620471477508544921875</LongitudeDegrees>
            </Position>
            <AltitudeMeters>750.5999755859375</AltitudeMeters>
            <DistanceMeters>NAN</DistanceMeters>
          </Trackpoint>
          <Trackpoint>
            <Time>2020-12-05T14:36:22.000Z</Time>
            <Position>
              <LatitudeDegrees>36.79768078029155731201171875</LatitudeDegrees>
              <LongitudeDegrees>-4.3804954178631305694580078125</LongitudeDegrees>
            </Position>
            <AltitudeMeters>750.5999755859375</AltitudeMeters>
            <DistanceMeters>NAN</DistanceMeters>
          </Trackpoint>
          <Trackpoint>
            <Time>2020-12-05T14:36:23.000Z</Time>
            <Position>
              <LatitudeDegrees>36.797667704522609710693359375</LatitudeDegrees>
              <LongitudeDegrees>-4.38048577867448329925537109375</LongitudeDegrees>
            </Position>
            <AltitudeMeters>750.5999755859375</AltitudeMeters>
            <DistanceMeters>NAN</DistanceMeters>
          </Trackpoint>
          <Trackpoint>
            <Time>2020-12-05T14:36:24.000Z</Time>
            <Position>
              <LatitudeDegrees>36.79765395820140838623046875</LatitudeDegrees>
              <LongitudeDegrees>-4.38047672621905803680419921875</LongitudeDegrees>
            </Position>
            <AltitudeMeters>750.5999755859375</AltitudeMeters>
            <DistanceMeters>NAN</DistanceMeters>
          </Trackpoint>
          <Trackpoint>
            <Time>2020-12-05T14:36:25.000Z</Time>
            <Position>
              <LatitudeDegrees>36.79764113388955593109130859375</LatitudeDegrees>
              <LongitudeDegrees>-4.3804702721536159515380859375</LongitudeDegrees>
            </Position>
            <AltitudeMeters>750.5999755859375</AltitudeMeters>
            <DistanceMeters>NAN</DistanceMeters>
          </Trackpoint>
          <Trackpoint>
            <Time>2020-12-05T14:36:26.000Z</Time>
            <Position>
              <LatitudeDegrees>36.7976289801299571990966796875</LatitudeDegrees>
              <LongitudeDegrees>-4.38046197406947612762451171875</LongitudeDegrees>
            </Position>
            <AltitudeMeters>750.5999755859375</AltitudeMeters>
            <DistanceMeters>NAN</DistanceMeters>
          </Trackpoint>
          <Trackpoint>
            <Time>2020-12-05T14:36:27.000Z</Time>
            <Position>
              <LatitudeDegrees>36.797617413103580474853515625</LatitudeDegrees>
              <LongitudeDegrees>-4.38045090995728969573974609375</LongitudeDegrees>
            </Position>
            <AltitudeMeters>750.20001220703125</AltitudeMeters>
            <DistanceMeters>NAN</DistanceMeters>
          </Trackpoint>
          <Trackpoint>
            <Time>2020-12-05T14:36:28.000Z</Time>
            <Position>
              <LatitudeDegrees>36.797604672610759735107421875</LatitudeDegrees>
              <LongitudeDegrees>-4.3804427795112133026123046875</LongitudeDegrees>
            </Position>
            <AltitudeMeters>750.20001220703125</AltitudeMeters>
            <DistanceMeters>NAN</DistanceMeters>
          </Trackpoint>
          <Trackpoint>
            <Time>2020-12-05T14:36:29.000Z</Time>
            <Position>
              <LatitudeDegrees>36.7975934408605098724365234375</LatitudeDegrees>
              <LongitudeDegrees>-4.3804347328841686248779296875</LongitudeDegrees>
            </Position>
            <AltitudeMeters>750</AltitudeMeters>
            <DistanceMeters>NAN</DistanceMeters>
          </Trackpoint>
          <Trackpoint>
            <Time>2020-12-05T14:36:30.000Z</Time>
            <Position>
              <LatitudeDegrees>36.7975830473005771636962890625</LatitudeDegrees>
              <LongitudeDegrees>-4.38042727299034595489501953125</LongitudeDegrees>
            </Position>
            <AltitudeMeters>750</AltitudeMeters>
            <DistanceMeters>NAN</DistanceMeters>
          </Trackpoint>
          <Trackpoint>
            <Time>2020-12-05T14:36:31.000Z</Time>
            <Position>
              <LatitudeDegrees>36.79757458157837390899658203125</LatitudeDegrees>
              <LongitudeDegrees>-4.3804159574210643768310546875</LongitudeDegrees>
            </Position>
            <AltitudeMeters>750</AltitudeMeters>
            <DistanceMeters>NAN</DistanceMeters>
          </Trackpoint>
          <Trackpoint>
            <Time>2020-12-05T14:36:32.000Z</Time>
            <Position>
              <LatitudeDegrees>36.79756586439907550811767578125</LatitudeDegrees>
              <LongitudeDegrees>-4.38040145672857761383056640625</LongitudeDegrees>
            </Position>
            <AltitudeMeters>750</AltitudeMeters>
            <DistanceMeters>NAN</DistanceMeters>
          </Trackpoint>
          <Trackpoint>
            <Time>2020-12-05T14:36:33.000Z</Time>
            <Position>
              <LatitudeDegrees>36.7975565604865550994873046875</LatitudeDegrees>
              <LongitudeDegrees>-4.38038720749318599700927734375</LongitudeDegrees>
            </Position>
            <AltitudeMeters>750</AltitudeMeters>
            <DistanceMeters>NAN</DistanceMeters>
          </Trackpoint>
          <Trackpoint>
            <Time>2020-12-05T14:36:34.000Z</Time>
            <Position>
              <LatitudeDegrees>36.7975454963743686676025390625</LatitudeDegrees>
              <LongitudeDegrees>-4.3803747184574604034423828125</LongitudeDegrees>
            </Position>
            <AltitudeMeters>750</AltitudeMeters>
            <DistanceMeters>NAN</DistanceMeters>
          </Trackpoint>
          <Trackpoint>
            <Time>2020-12-05T14:36:35.000Z</Time>
            <Position>
              <LatitudeDegrees>36.79753334261476993560791015625</LatitudeDegrees>
              <LongitudeDegrees>-4.380363486707210540771484375</LongitudeDegrees>
            </Position>
            <AltitudeMeters>749.79998779296875</AltitudeMeters>
            <DistanceMeters>NAN</DistanceMeters>
          </Trackpoint>
          <Trackpoint>
            <Time>2020-12-05T14:36:36.000Z</Time>
            <Position>
              <LatitudeDegrees>36.79752244614064693450927734375</LatitudeDegrees>
              <LongitudeDegrees>-4.3803549371659755706787109375</LongitudeDegrees>
            </Position>
            <AltitudeMeters>749.4000244140625</AltitudeMeters>
            <DistanceMeters>NAN</DistanceMeters>
          </Trackpoint>
          <Trackpoint>
            <Time>2020-12-05T14:36:37.000Z</Time>
            <Position>
              <LatitudeDegrees>36.79751087911427021026611328125</LatitudeDegrees>
              <LongitudeDegrees>-4.380347728729248046875</LongitudeDegrees>
            </Position>
            <AltitudeMeters>749.20001220703125</AltitudeMeters>
            <DistanceMeters>NAN</DistanceMeters>
          </Trackpoint>
          <Trackpoint>
            <Time>2020-12-05T14:36:38.000Z</Time>
            <Position>
              <LatitudeDegrees>36.79749839007854461669921875</LatitudeDegrees>
              <LongitudeDegrees>-4.38034035265445709228515625</LongitudeDegrees>
            </Position>
            <AltitudeMeters>749</AltitudeMeters>
            <DistanceMeters>NAN</DistanceMeters>
          </Trackpoint>
          <Trackpoint>
            <Time>2020-12-05T14:36:39.000Z</Time>
            <Position>
              <LatitudeDegrees>36.797487325966358184814453125</LatitudeDegrees>
              <LongitudeDegrees>-4.3803351558744907379150390625</LongitudeDegrees>
            </Position>
            <AltitudeMeters>749</AltitudeMeters>
            <DistanceMeters>NAN</DistanceMeters>
          </Trackpoint>
          <Trackpoint>
            <Time>2020-12-05T14:36:40.000Z</Time>
            <Position>
              <LatitudeDegrees>36.79747601039707660675048828125</LatitudeDegrees>
              <LongitudeDegrees>-4.3803276121616363525390625</LongitudeDegrees>
            </Position>
            <AltitudeMeters>748.79998779296875</AltitudeMeters>
            <DistanceMeters>NAN</DistanceMeters>
          </Trackpoint>
          <Trackpoint>
            <Time>2020-12-05T14:36:41.000Z</Time>
            <Position>
              <LatitudeDegrees>36.79746343754231929779052734375</LatitudeDegrees>
              <LongitudeDegrees>-4.38031864352524280548095703125</LongitudeDegrees>
            </Position>
            <AltitudeMeters>748.5999755859375</AltitudeMeters>
            <DistanceMeters>NAN</DistanceMeters>
          </Trackpoint>
          <Trackpoint>
            <Time>2020-12-05T14:36:42.000Z</Time>
            <Position>
              <LatitudeDegrees>36.7974492721259593963623046875</LatitudeDegrees>
              <LongitudeDegrees>-4.38031059689819812774658203125</LongitudeDegrees>
            </Position>
            <AltitudeMeters>748.5999755859375</AltitudeMeters>
            <DistanceMeters>NAN</DistanceMeters>
          </Trackpoint>
          <Trackpoint>
            <Time>2020-12-05T14:36:43.000Z</Time>
            <Position>
              <LatitudeDegrees>36.7974360287189483642578125</LatitudeDegrees>
              <LongitudeDegrees>-4.38030489720404148101806640625</LongitudeDegrees>
            </Position>
            <AltitudeMeters>748.5999755859375</AltitudeMeters>
            <DistanceMeters>NAN</DistanceMeters>
          </Trackpoint>
          <Trackpoint>
            <Time>2020-12-05T14:36:44.000Z</Time>
            <Position>
              <LatitudeDegrees>36.79742203094065189361572265625</LatitudeDegrees>
              <LongitudeDegrees>-4.38029835931956768035888671875</LongitudeDegrees>
            </Position>
            <AltitudeMeters>748.5999755859375</AltitudeMeters>
            <DistanceMeters>NAN</DistanceMeters>
          </Trackpoint>
          <Trackpoint>
            <Time>2020-12-05T14:36:45.000Z</Time>
            <Position>
              <LatitudeDegrees>36.7974093742668628692626953125</LatitudeDegrees>
              <LongitudeDegrees>-4.3802908994257450103759765625</LongitudeDegrees>
            </Position>
            <AltitudeMeters>748.4000244140625</AltitudeMeters>
            <DistanceMeters>NAN</DistanceMeters>
          </Trackpoint>
          <Trackpoint>
            <Time>2020-12-05T14:36:46.000Z</Time>
            <Position>
              <LatitudeDegrees>36.79739638231694698333740234375</LatitudeDegrees>
              <LongitudeDegrees>-4.3802846968173980712890625</LongitudeDegrees>
            </Position>
            <AltitudeMeters>748.4000244140625</AltitudeMeters>
            <DistanceMeters>NAN</DistanceMeters>
          </Trackpoint>
          <Trackpoint>
            <Time>2020-12-05T14:36:47.000Z</Time>
            <Position>
              <LatitudeDegrees>36.79738297127187252044677734375</LatitudeDegrees>
              <LongitudeDegrees>-4.38027639873325824737548828125</LongitudeDegrees>
            </Position>
            <AltitudeMeters>748.20001220703125</AltitudeMeters>
            <DistanceMeters>NAN</DistanceMeters>
          </Trackpoint>
          <Trackpoint>
            <Time>2020-12-05T14:36:48.000Z</Time>
            <Position>
              <LatitudeDegrees>36.797366626560688018798828125</LatitudeDegrees>
              <LongitudeDegrees>-4.380271621048450469970703125</LongitudeDegrees>
            </Position>
            <AltitudeMeters>748.4000244140625</AltitudeMeters>
            <DistanceMeters>NAN</DistanceMeters>
          </Trackpoint>
          <Trackpoint>
            <Time>2020-12-05T14:36:49.000Z</Time>
            <Position>
              <LatitudeDegrees>36.797348521649837493896484375</LatitudeDegrees>
              <LongitudeDegrees>-4.38026784919202327728271484375</LongitudeDegrees>
            </Position>
            <AltitudeMeters>748.4000244140625</AltitudeMeters>
            <DistanceMeters>NAN</DistanceMeters>
          </Trackpoint>
          <Trackpoint>
            <Time>2020-12-05T14:36:50.000Z</Time>
            <Position>
              <LatitudeDegrees>36.7973282374441623687744140625</LatitudeDegrees>
              <LongitudeDegrees>-4.380260892212390899658203125</LongitudeDegrees>
            </Position>
            <AltitudeMeters>748.4000244140625</AltitudeMeters>
            <DistanceMeters>NAN</DistanceMeters>
          </Trackpoint>
          <Trackpoint>
            <Time>2020-12-05T14:36:51.000Z</Time>
            <Position>
              <LatitudeDegrees>36.797308288514614105224609375</LatitudeDegrees>
              <LongitudeDegrees>-4.38025376759469509124755859375</LongitudeDegrees>
            </Position>
            <AltitudeMeters>748.4000244140625</AltitudeMeters>
            <DistanceMeters>NAN</DistanceMeters>
          </Trackpoint>
          <Trackpoint>
            <Time>2020-12-05T14:36:52.000Z</Time>
            <Position>
              <LatitudeDegrees>36.79728674702346324920654296875</LatitudeDegrees>
              <LongitudeDegrees>-4.3802510015666484832763671875</LongitudeDegrees>
            </Position>
            <AltitudeMeters>748.20001220703125</AltitudeMeters>
            <DistanceMeters>NAN</DistanceMeters>
          </Trackpoint>
          <Trackpoint>
            <Time>2020-12-05T14:36:53.000Z</Time>
            <Position>
              <LatitudeDegrees>36.797266043722629547119140625</LatitudeDegrees>
              <LongitudeDegrees>-4.3802511692047119140625</LongitudeDegrees>
            </Position>
            <AltitudeMeters>748.20001220703125</AltitudeMeters>
            <DistanceMeters>NAN</DistanceMeters>
          </Trackpoint>
          <Trackpoint>
            <Time>2020-12-05T14:36:54.000Z</Time>
            <Position>
              <LatitudeDegrees>36.79724969901144504547119140625</LatitudeDegrees>
              <LongitudeDegrees>-4.3802520073950290679931640625</LongitudeDegrees>
            </Position>
            <AltitudeMeters>748</AltitudeMeters>
            <DistanceMeters>NAN</DistanceMeters>
          </Trackpoint>
          <Trackpoint>
            <Time>2020-12-05T14:36:55.000Z</Time>
            <Position>
              <LatitudeDegrees>36.7972360365092754364013671875</LatitudeDegrees>
              <LongitudeDegrees>-4.380252845585346221923828125</LongitudeDegrees>
            </Position>
            <AltitudeMeters>748</AltitudeMeters>
            <DistanceMeters>NAN</DistanceMeters>
          </Trackpoint>
          <Trackpoint>
            <Time>2020-12-05T14:36:56.000Z</Time>
            <Position>
              <LatitudeDegrees>36.7972236312925815582275390625</LatitudeDegrees>
              <LongitudeDegrees>-4.3802570365369319915771484375</LongitudeDegrees>
            </Position>
            <AltitudeMeters>747.79998779296875</AltitudeMeters>
            <DistanceMeters>NAN</DistanceMeters>
          </Trackpoint>
          <Trackpoint>
            <Time>2020-12-05T14:36:57.000Z</Time>
            <Position>
              <LatitudeDegrees>36.79721114225685596466064453125</LatitudeDegrees>
              <LongitudeDegrees>-4.38026030547916889190673828125</LongitudeDegrees>
            </Position>
            <AltitudeMeters>747.5999755859375</AltitudeMeters>
            <DistanceMeters>NAN</DistanceMeters>
          </Trackpoint>
          <Trackpoint>
            <Time>2020-12-05T14:36:58.000Z</Time>
            <Position>
              <LatitudeDegrees>36.79719991050660610198974609375</LatitudeDegrees>
              <LongitudeDegrees>-4.38026181422173976898193359375</LongitudeDegrees>
            </Position>
            <AltitudeMeters>747.5999755859375</AltitudeMeters>
            <DistanceMeters>NAN</DistanceMeters>
          </Trackpoint>
          <Trackpoint>
            <Time>2020-12-05T14:36:59.000Z</Time>
            <Position>
              <LatitudeDegrees>36.79719001986086368560791015625</LatitudeDegrees>
              <LongitudeDegrees>-4.3802654184401035308837890625</LongitudeDegrees>
            </Position>
            <AltitudeMeters>747.4000244140625</AltitudeMeters>
            <DistanceMeters>NAN</DistanceMeters>
          </Trackpoint>
          <Trackpoint>
            <Time>2020-12-05T14:37:00.000Z</Time>
            <Position>
              <LatitudeDegrees>36.79717895574867725372314453125</LatitudeDegrees>
              <LongitudeDegrees>-4.3802717886865139007568359375</LongitudeDegrees>
            </Position>
            <AltitudeMeters>747.20001220703125</AltitudeMeters>
            <DistanceMeters>NAN</DistanceMeters>
          </Trackpoint>
          <Trackpoint>
            <Time>2020-12-05T14:37:01.000Z</Time>
            <Position>
              <LatitudeDegrees>36.79717040620744228363037109375</LatitudeDegrees>
              <LongitudeDegrees>-4.3802788294851779937744140625</LongitudeDegrees>
            </Position>
            <AltitudeMeters>746.79998779296875</AltitudeMeters>
            <DistanceMeters>NAN</DistanceMeters>
          </Trackpoint>
          <Trackpoint>
            <Time>2020-12-05T14:37:02.000Z</Time>
            <Position>
              <LatitudeDegrees>36.797166801989078521728515625</LatitudeDegrees>
              <LongitudeDegrees>-4.38028109259903430938720703125</LongitudeDegrees>
            </Position>
            <AltitudeMeters>746.5999755859375</AltitudeMeters>
            <DistanceMeters>NAN</DistanceMeters>
          </Trackpoint>
          <Trackpoint>
            <Time>2020-12-05T14:37:03.000Z</Time>
            <Position>
              <LatitudeDegrees>36.79716177284717559814453125</LatitudeDegrees>
              <LongitudeDegrees>-4.38028427772223949432373046875</LongitudeDegrees>
            </Position>
            <AltitudeMeters>746.4000244140625</AltitudeMeters>
            <DistanceMeters>NAN</DistanceMeters>
          </Trackpoint>
          <Trackpoint>
            <Time>2020-12-05T14:37:04.000Z</Time>
            <Position>
              <LatitudeDegrees>36.79715464822947978973388671875</LatitudeDegrees>
              <LongitudeDegrees>-4.38029249198734760284423828125</LongitudeDegrees>
            </Position>
            <AltitudeMeters>746.20001220703125</AltitudeMeters>
            <DistanceMeters>NAN</DistanceMeters>
          </Trackpoint>
          <Trackpoint>
            <Time>2020-12-05T14:37:05.000Z</Time>
            <Position>
              <LatitudeDegrees>36.7971488647162914276123046875</LatitudeDegrees>
              <LongitudeDegrees>-4.38030171208083629608154296875</LongitudeDegrees>
            </Position>
            <AltitudeMeters>745.79998779296875</AltitudeMeters>
            <DistanceMeters>NAN</DistanceMeters>
          </Trackpoint>
          <Trackpoint>
            <Time>2020-12-05T14:37:06.000Z</Time>
            <Position>
              <LatitudeDegrees>36.7971428297460079193115234375</LatitudeDegrees>
              <LongitudeDegrees>-4.38030992634594440460205078125</LongitudeDegrees>
            </Position>
            <AltitudeMeters>745.5999755859375</AltitudeMeters>
            <DistanceMeters>NAN</DistanceMeters>
          </Trackpoint>
          <Trackpoint>
            <Time>2020-12-05T14:37:07.000Z</Time>
            <Position>
              <LatitudeDegrees>36.79713754914700984954833984375</LatitudeDegrees>
              <LongitudeDegrees>-4.380321241915225982666015625</LongitudeDegrees>
            </Position>
            <AltitudeMeters>745.4000244140625</AltitudeMeters>
            <DistanceMeters>NAN</DistanceMeters>
          </Trackpoint>
          <Trackpoint>
            <Time>2020-12-05T14:37:08.000Z</Time>
            <Position>
              <LatitudeDegrees>36.7971327714622020721435546875</LatitudeDegrees>
              <LongitudeDegrees>-4.380328953266143798828125</LongitudeDegrees>
            </Position>
            <AltitudeMeters>745</AltitudeMeters>
            <DistanceMeters>NAN</DistanceMeters>
          </Trackpoint>
          <Trackpoint>
            <Time>2020-12-05T14:37:09.000Z</Time>
            <Position>
              <LatitudeDegrees>36.7971337772905826568603515625</LatitudeDegrees>
              <LongitudeDegrees>-4.38034035265445709228515625</LongitudeDegrees>
            </Position>
            <AltitudeMeters>744.5999755859375</AltitudeMeters>
            <DistanceMeters>NAN</DistanceMeters>
          </Trackpoint>
          <Trackpoint>
            <Time>2020-12-05T14:37:10.000Z</Time>
            <Position>
              <LatitudeDegrees>36.7971307598054409027099609375</LatitudeDegrees>
              <LongitudeDegrees>-4.38034647144377231597900390625</LongitudeDegrees>
            </Position>
            <AltitudeMeters>744.20001220703125</AltitudeMeters>
            <DistanceMeters>NAN</DistanceMeters>
          </Trackpoint>
          <Trackpoint>
            <Time>2020-12-05T14:37:11.000Z</Time>
            <Position>
              <LatitudeDegrees>36.79712614975869655609130859375</LatitudeDegrees>
              <LongitudeDegrees>-4.38035351224243640899658203125</LongitudeDegrees>
            </Position>
            <AltitudeMeters>744</AltitudeMeters>
            <DistanceMeters>NAN</DistanceMeters>
          </Trackpoint>
          <Trackpoint>
            <Time>2020-12-05T14:37:12.000Z</Time>
            <Position>
              <LatitudeDegrees>36.797119192779064178466796875</LatitudeDegrees>
              <LongitudeDegrees>-4.38036474399268627166748046875</LongitudeDegrees>
            </Position>
            <AltitudeMeters>744</AltitudeMeters>
            <DistanceMeters>NAN</DistanceMeters>
          </Trackpoint>
          <Trackpoint>
            <Time>2020-12-05T14:37:13.000Z</Time>
            <Position>
              <LatitudeDegrees>36.79710938595235347747802734375</LatitudeDegrees>
              <LongitudeDegrees>-4.3803780712187290191650390625</LongitudeDegrees>
            </Position>
            <AltitudeMeters>743.79998779296875</AltitudeMeters>
            <DistanceMeters>NAN</DistanceMeters>
          </Trackpoint>
          <Trackpoint>
            <Time>2020-12-05T14:37:14.000Z</Time>
            <Position>
              <LatitudeDegrees>36.79709739983081817626953125</LatitudeDegrees>
              <LongitudeDegrees>-4.380389638245105743408203125</LongitudeDegrees>
            </Position>
            <AltitudeMeters>743.79998779296875</AltitudeMeters>
            <DistanceMeters>NAN</DistanceMeters>
          </Trackpoint>
          <Trackpoint>
            <Time>2020-12-05T14:37:15.000Z</Time>
            <Position>
              <LatitudeDegrees>36.797087676823139190673828125</LatitudeDegrees>
              <LongitudeDegrees>-4.38040128909051418304443359375</LongitudeDegrees>
            </Position>
            <AltitudeMeters>743.79998779296875</AltitudeMeters>
            <DistanceMeters>NAN</DistanceMeters>
          </Trackpoint>
          <Trackpoint>
            <Time>2020-12-05T14:37:16.000Z</Time>
            <Position>
              <LatitudeDegrees>36.79707854054868221282958984375</LatitudeDegrees>
              <LongitudeDegrees>-4.38041453249752521514892578125</LongitudeDegrees>
            </Position>
            <AltitudeMeters>744</AltitudeMeters>
            <DistanceMeters>NAN</DistanceMeters>
          </Trackpoint>
          <Trackpoint>
            <Time>2020-12-05T14:37:17.000Z</Time>
            <Position>
              <LatitudeDegrees>36.7970687337219715118408203125</LatitudeDegrees>
              <LongitudeDegrees>-4.3804297037422657012939453125</LongitudeDegrees>
            </Position>
            <AltitudeMeters>744</AltitudeMeters>
            <DistanceMeters>NAN</DistanceMeters>
          </Trackpoint>
          <Trackpoint>
            <Time>2020-12-05T14:37:18.000Z</Time>
            <Position>
              <LatitudeDegrees>36.7970606870949268341064453125</LatitudeDegrees>
              <LongitudeDegrees>-4.38044437207281589508056640625</LongitudeDegrees>
            </Position>
            <AltitudeMeters>744</AltitudeMeters>
            <DistanceMeters>NAN</DistanceMeters>
          </Trackpoint>
          <Trackpoint>
            <Time>2020-12-05T14:37:19.000Z</Time>
            <Position>
              <LatitudeDegrees>36.79705314338207244873046875</LatitudeDegrees>
              <LongitudeDegrees>-4.38045836985111236572265625</LongitudeDegrees>
            </Position>
            <AltitudeMeters>744</AltitudeMeters>
            <DistanceMeters>NAN</DistanceMeters>
          </Trackpoint>
          <Trackpoint>
            <Time>2020-12-05T14:37:20.000Z</Time>
            <Position>
              <LatitudeDegrees>36.797044761478900909423828125</LatitudeDegrees>
              <LongitudeDegrees>-4.38047178089618682861328125</LongitudeDegrees>
            </Position>
            <AltitudeMeters>744</AltitudeMeters>
            <DistanceMeters>NAN</DistanceMeters>
          </Trackpoint>
          <Trackpoint>
            <Time>2020-12-05T14:37:21.000Z</Time>
            <Position>
              <LatitudeDegrees>36.79703478701412677764892578125</LatitudeDegrees>
              <LongitudeDegrees>-4.38048611395061016082763671875</LongitudeDegrees>
            </Position>
            <AltitudeMeters>744</AltitudeMeters>
            <DistanceMeters>NAN</DistanceMeters>
          </Trackpoint>
          <Trackpoint>
            <Time>2020-12-05T14:37:22.000Z</Time>
            <Position>
              <LatitudeDegrees>36.79702606983482837677001953125</LatitudeDegrees>
              <LongitudeDegrees>-4.38050036318600177764892578125</LongitudeDegrees>
            </Position>
            <AltitudeMeters>744</AltitudeMeters>
            <DistanceMeters>NAN</DistanceMeters>
          </Trackpoint>
          <Trackpoint>
            <Time>2020-12-05T14:37:23.000Z</Time>
            <Position>
              <LatitudeDegrees>36.79701936431229114532470703125</LatitudeDegrees>
              <LongitudeDegrees>-4.38051444478332996368408203125</LongitudeDegrees>
            </Position>
            <AltitudeMeters>744</AltitudeMeters>
            <DistanceMeters>NAN</DistanceMeters>
          </Trackpoint>
          <Trackpoint>
            <Time>2020-12-05T14:37:24.000Z</Time>
            <Position>
              <LatitudeDegrees>36.79701316170394420623779296875</LatitudeDegrees>
              <LongitudeDegrees>-4.3805279396474361419677734375</LongitudeDegrees>
            </Position>
            <AltitudeMeters>743.79998779296875</AltitudeMeters>
            <DistanceMeters>NAN</DistanceMeters>
          </Trackpoint>
          <Trackpoint>
            <Time>2020-12-05T14:37:25.000Z</Time>
            <Position>
              <LatitudeDegrees>36.7970070429146289825439453125</LatitudeDegrees>
              <LongitudeDegrees>-4.3805420212447643280029296875</LongitudeDegrees>
            </Position>
            <AltitudeMeters>743.79998779296875</AltitudeMeters>
            <DistanceMeters>NAN</DistanceMeters>
          </Trackpoint>
          <Trackpoint>
            <Time>2020-12-05T14:37:26.000Z</Time>
            <Position>
              <LatitudeDegrees>36.797001175582408905029296875</LatitudeDegrees>
              <LongitudeDegrees>-4.38055601902306079864501953125</LongitudeDegrees>
            </Position>
            <AltitudeMeters>743.79998779296875</AltitudeMeters>
            <DistanceMeters>NAN</DistanceMeters>
          </Trackpoint>
          <Trackpoint>
            <Time>2020-12-05T14:37:27.000Z</Time>
            <Position>
              <LatitudeDegrees>36.7969943024218082427978515625</LatitudeDegrees>
              <LongitudeDegrees>-4.380570352077484130859375</LongitudeDegrees>
            </Position>
            <AltitudeMeters>743.5999755859375</AltitudeMeters>
            <DistanceMeters>NAN</DistanceMeters>
          </Trackpoint>
          <Trackpoint>
            <Time>2020-12-05T14:37:28.000Z</Time>
            <Position>
              <LatitudeDegrees>36.79698466323316097259521484375</LatitudeDegrees>
              <LongitudeDegrees>-4.38058351166546344757080078125</LongitudeDegrees>
            </Position>
            <AltitudeMeters>743.20001220703125</AltitudeMeters>
            <DistanceMeters>NAN</DistanceMeters>
          </Trackpoint>
          <Trackpoint>
            <Time>2020-12-05T14:37:29.000Z</Time>
            <Position>
              <LatitudeDegrees>36.79697611369192600250244140625</LatitudeDegrees>
              <LongitudeDegrees>-4.38059608452022075653076171875</LongitudeDegrees>
            </Position>
            <AltitudeMeters>742.79998779296875</AltitudeMeters>
            <DistanceMeters>NAN</DistanceMeters>
          </Trackpoint>
          <Trackpoint>
            <Time>2020-12-05T14:37:30.000Z</Time>
            <Position>
              <LatitudeDegrees>36.79696731269359588623046875</LatitudeDegrees>
              <LongitudeDegrees>-4.3806080706417560577392578125</LongitudeDegrees>
            </Position>
            <AltitudeMeters>742.4000244140625</AltitudeMeters>
            <DistanceMeters>NAN</DistanceMeters>
          </Trackpoint>
          <Trackpoint>
            <Time>2020-12-05T14:37:31.000Z</Time>
            <Position>
              <LatitudeDegrees>36.79695901460945606231689453125</LatitudeDegrees>
              <LongitudeDegrees>-4.38061821274459362030029296875</LongitudeDegrees>
            </Position>
            <AltitudeMeters>742.20001220703125</AltitudeMeters>
            <DistanceMeters>NAN</DistanceMeters>
          </Trackpoint>
          <Trackpoint>
            <Time>2020-12-05T14:37:32.000Z</Time>
            <Position>
              <LatitudeDegrees>36.79694945923984050750732421875</LatitudeDegrees>
              <LongitudeDegrees>-4.380629360675811767578125</LongitudeDegrees>
            </Position>
            <AltitudeMeters>742.20001220703125</AltitudeMeters>
            <DistanceMeters>NAN</DistanceMeters>
          </Trackpoint>
          <Trackpoint>
            <Time>2020-12-05T14:37:33.000Z</Time>
            <Position>
              <LatitudeDegrees>36.7969396524131298065185546875</LatitudeDegrees>
              <LongitudeDegrees>-4.38063933514058589935302734375</LongitudeDegrees>
            </Position>
            <AltitudeMeters>742</AltitudeMeters>
            <DistanceMeters>NAN</DistanceMeters>
          </Trackpoint>
          <Trackpoint>
            <Time>2020-12-05T14:37:34.000Z</Time>
            <Position>
              <LatitudeDegrees>36.79692800156772136688232421875</LatitudeDegrees>
              <LongitudeDegrees>-4.38064838759601116180419921875</LongitudeDegrees>
            </Position>
            <AltitudeMeters>742</AltitudeMeters>
            <DistanceMeters>NAN</DistanceMeters>
          </Trackpoint>
          <Trackpoint>
            <Time>2020-12-05T14:37:35.000Z</Time>
            <Position>
              <LatitudeDegrees>36.79691643454134464263916015625</LatitudeDegrees>
              <LongitudeDegrees>-4.38065744005143642425537109375</LongitudeDegrees>
            </Position>
            <AltitudeMeters>742</AltitudeMeters>
            <DistanceMeters>NAN</DistanceMeters>
          </Trackpoint>
          <Trackpoint>
            <Time>2020-12-05T14:37:36.000Z</Time>
            <Position>
              <LatitudeDegrees>36.7969036102294921875</LatitudeDegrees>
              <LongitudeDegrees>-4.38067068345844745635986328125</LongitudeDegrees>
            </Position>
            <AltitudeMeters>741.79998779296875</AltitudeMeters>
            <DistanceMeters>NAN</DistanceMeters>
          </Trackpoint>
          <Trackpoint>
            <Time>2020-12-05T14:37:37.000Z</Time>
            <Position>
              <LatitudeDegrees>36.79689045064151287078857421875</LatitudeDegrees>
              <LongitudeDegrees>-4.38068610616028308868408203125</LongitudeDegrees>
            </Position>
            <AltitudeMeters>741.79998779296875</AltitudeMeters>
            <DistanceMeters>NAN</DistanceMeters>
          </Trackpoint>
          <Trackpoint>
            <Time>2020-12-05T14:37:38.000Z</Time>
            <Position>
              <LatitudeDegrees>36.7968793027102947235107421875</LatitudeDegrees>
              <LongitudeDegrees>-4.3806989304721355438232421875</LongitudeDegrees>
            </Position>
            <AltitudeMeters>741.79998779296875</AltitudeMeters>
            <DistanceMeters>NAN</DistanceMeters>
          </Trackpoint>
          <Trackpoint>
            <Time>2020-12-05T14:37:39.000Z</Time>
            <Position>
              <LatitudeDegrees>36.79687016643583774566650390625</LatitudeDegrees>
              <LongitudeDegrees>-4.38071460463106632232666015625</LongitudeDegrees>
            </Position>
            <AltitudeMeters>741.5999755859375</AltitudeMeters>
            <DistanceMeters>NAN</DistanceMeters>
          </Trackpoint>
          <Trackpoint>
            <Time>2020-12-05T14:37:40.000Z</Time>
            <Position>
              <LatitudeDegrees>36.79686136543750762939453125</LatitudeDegrees>
              <LongitudeDegrees>-4.38072650693356990814208984375</LongitudeDegrees>
            </Position>
            <AltitudeMeters>741.5999755859375</AltitudeMeters>
            <DistanceMeters>NAN</DistanceMeters>
          </Trackpoint>
          <Trackpoint>
            <Time>2020-12-05T14:37:41.000Z</Time>
            <Position>
              <LatitudeDegrees>36.79685239680111408233642578125</LatitudeDegrees>
              <LongitudeDegrees>-4.38073866069316864013671875</LongitudeDegrees>
            </Position>
            <AltitudeMeters>741.4000244140625</AltitudeMeters>
            <DistanceMeters>NAN</DistanceMeters>
          </Trackpoint>
          <Trackpoint>
            <Time>2020-12-05T14:37:42.000Z</Time>
            <Position>
              <LatitudeDegrees>36.7968437634408473968505859375</LatitudeDegrees>
              <LongitudeDegrees>-4.38075014390051364898681640625</LongitudeDegrees>
            </Position>
            <AltitudeMeters>741</AltitudeMeters>
            <DistanceMeters>NAN</DistanceMeters>
          </Trackpoint>
          <Trackpoint>
            <Time>2020-12-05T14:37:43.000Z</Time>
            <Position>
              <LatitudeDegrees>36.7968357168138027191162109375</LatitudeDegrees>
              <LongitudeDegrees>-4.38075877726078033447265625</LongitudeDegrees>
            </Position>
            <AltitudeMeters>740.5999755859375</AltitudeMeters>
            <DistanceMeters>NAN</DistanceMeters>
          </Trackpoint>
          <Trackpoint>
            <Time>2020-12-05T14:37:44.000Z</Time>
            <Position>
              <LatitudeDegrees>36.79682892747223377227783203125</LatitudeDegrees>
              <LongitudeDegrees>-4.38076774589717388153076171875</LongitudeDegrees>
            </Position>
            <AltitudeMeters>740.20001220703125</AltitudeMeters>
            <DistanceMeters>NAN</DistanceMeters>
          </Trackpoint>
          <Trackpoint>
            <Time>2020-12-05T14:37:45.000Z</Time>
            <Position>
              <LatitudeDegrees>36.79682138375937938690185546875</LatitudeDegrees>
              <LongitudeDegrees>-4.380777217447757720947265625</LongitudeDegrees>
            </Position>
            <AltitudeMeters>740</AltitudeMeters>
            <DistanceMeters>NAN</DistanceMeters>
          </Trackpoint>
          <Trackpoint>
            <Time>2020-12-05T14:37:46.000Z</Time>
            <Position>
              <LatitudeDegrees>36.796811409294605255126953125</LatitudeDegrees>
              <LongitudeDegrees>-4.3807874433696269989013671875</LongitudeDegrees>
            </Position>
            <AltitudeMeters>739.79998779296875</AltitudeMeters>
            <DistanceMeters>NAN</DistanceMeters>
          </Trackpoint>
          <Trackpoint>
            <Time>2020-12-05T14:37:47.000Z</Time>
            <Position>
              <LatitudeDegrees>36.7967995069921016693115234375</LatitudeDegrees>
              <LongitudeDegrees>-4.38079473562538623809814453125</LongitudeDegrees>
            </Position>
            <AltitudeMeters>739.5999755859375</AltitudeMeters>
            <DistanceMeters>NAN</DistanceMeters>
          </Trackpoint>
          <Trackpoint>
            <Time>2020-12-05T14:37:48.000Z</Time>
            <Position>
              <LatitudeDegrees>36.79678752087056636810302734375</LatitudeDegrees>
              <LongitudeDegrees>-4.380801022052764892578125</LongitudeDegrees>
            </Position>
            <AltitudeMeters>739.5999755859375</AltitudeMeters>
            <DistanceMeters>NAN</DistanceMeters>
          </Trackpoint>
          <Trackpoint>
            <Time>2020-12-05T14:37:49.000Z</Time>
            <Position>
              <LatitudeDegrees>36.796774528920650482177734375</LatitudeDegrees>
              <LongitudeDegrees>-4.3808085657656192779541015625</LongitudeDegrees>
            </Position>
            <AltitudeMeters>739.20001220703125</AltitudeMeters>
            <DistanceMeters>NAN</DistanceMeters>
          </Trackpoint>
          <Trackpoint>
            <Time>2020-12-05T14:37:50.000Z</Time>
            <Position>
              <LatitudeDegrees>36.79676153697073459625244140625</LatitudeDegrees>
              <LongitudeDegrees>-4.3808156065642833709716796875</LongitudeDegrees>
            </Position>
            <AltitudeMeters>739</AltitudeMeters>
            <DistanceMeters>NAN</DistanceMeters>
          </Trackpoint>
          <Trackpoint>
            <Time>2020-12-05T14:37:51.000Z</Time>
            <Position>
              <LatitudeDegrees>36.7967461980879306793212890625</LatitudeDegrees>
              <LongitudeDegrees>-4.3808213062584400177001953125</LongitudeDegrees>
            </Position>
            <AltitudeMeters>738.79998779296875</AltitudeMeters>
            <DistanceMeters>NAN</DistanceMeters>
          </Trackpoint>
          <Trackpoint>
            <Time>2020-12-05T14:37:52.000Z</Time>
            <Position>
              <LatitudeDegrees>36.79672784171998500823974609375</LatitudeDegrees>
              <LongitudeDegrees>-4.38082558102905750274658203125</LongitudeDegrees>
            </Position>
            <AltitudeMeters>738.79998779296875</AltitudeMeters>
            <DistanceMeters>NAN</DistanceMeters>
          </Trackpoint>
          <Trackpoint>
            <Time>2020-12-05T14:37:53.000Z</Time>
            <Position>
              <LatitudeDegrees>36.79670906625688076019287109375</LatitudeDegrees>
              <LongitudeDegrees>-4.38082960434257984161376953125</LongitudeDegrees>
            </Position>
            <AltitudeMeters>738.79998779296875</AltitudeMeters>
            <DistanceMeters>NAN</DistanceMeters>
          </Trackpoint>
          <Trackpoint>
            <Time>2020-12-05T14:37:54.000Z</Time>
            <Position>
              <LatitudeDegrees>36.79669045843183994293212890625</LatitudeDegrees>
              <LongitudeDegrees>-4.380827844142913818359375</LongitudeDegrees>
            </Position>
            <AltitudeMeters>738.5999755859375</AltitudeMeters>
            <DistanceMeters>NAN</DistanceMeters>
          </Trackpoint>
          <Trackpoint>
            <Time>2020-12-05T14:37:55.000Z</Time>
            <Position>
              <LatitudeDegrees>36.79667335934937000274658203125</LatitudeDegrees>
              <LongitudeDegrees>-4.38082046806812286376953125</LongitudeDegrees>
            </Position>
            <AltitudeMeters>738.4000244140625</AltitudeMeters>
            <DistanceMeters>NAN</DistanceMeters>
          </Trackpoint>
          <Trackpoint>
            <Time>2020-12-05T14:37:56.000Z</Time>
            <Position>
              <LatitudeDegrees>36.79665885865688323974609375</LatitudeDegrees>
              <LongitudeDegrees>-4.3808199651539325714111328125</LongitudeDegrees>
            </Position>
            <AltitudeMeters>738.20001220703125</AltitudeMeters>
            <DistanceMeters>NAN</DistanceMeters>
          </Trackpoint>
          <Trackpoint>
            <Time>2020-12-05T14:37:57.000Z</Time>
            <Position>
              <LatitudeDegrees>36.79664678871631622314453125</LatitudeDegrees>
              <LongitudeDegrees>-4.38082306645810604095458984375</LongitudeDegrees>
            </Position>
            <AltitudeMeters>737.79998779296875</AltitudeMeters>
            <DistanceMeters>NAN</DistanceMeters>
          </Trackpoint>
          <Trackpoint>
            <Time>2020-12-05T14:37:58.000Z</Time>
            <Position>
              <LatitudeDegrees>36.79663446731865406036376953125</LatitudeDegrees>
              <LongitudeDegrees>-4.3808293528854846954345703125</LongitudeDegrees>
            </Position>
            <AltitudeMeters>737.4000244140625</AltitudeMeters>
            <DistanceMeters>NAN</DistanceMeters>
          </Trackpoint>
          <Trackpoint>
            <Time>2020-12-05T14:37:59.000Z</Time>
            <Position>
              <LatitudeDegrees>36.79662072099745273590087890625</LatitudeDegrees>
              <LongitudeDegrees>-4.38083387911319732666015625</LongitudeDegrees>
            </Position>
            <AltitudeMeters>737</AltitudeMeters>
            <DistanceMeters>NAN</DistanceMeters>
          </Trackpoint>
          <Trackpoint>
            <Time>2020-12-05T14:38:00.000Z</Time>
            <Position>
              <LatitudeDegrees>36.7966057173907756805419921875</LatitudeDegrees>
              <LongitudeDegrees>-4.3808387406170368194580078125</LongitudeDegrees>
            </Position>
            <AltitudeMeters>736.5999755859375</AltitudeMeters>
            <DistanceMeters>NAN</DistanceMeters>
          </Trackpoint>
          <Trackpoint>
            <Time>2020-12-05T14:38:01.000Z</Time>
            <Position>
              <LatitudeDegrees>36.79658987559378147125244140625</LatitudeDegrees>
              <LongitudeDegrees>-4.38084552995860576629638671875</LongitudeDegrees>
            </Position>
            <AltitudeMeters>736.20001220703125</AltitudeMeters>
            <DistanceMeters>NAN</DistanceMeters>
          </Trackpoint>
          <Trackpoint>
            <Time>2020-12-05T14:38:02.000Z</Time>
            <Position>
              <LatitudeDegrees>36.7965738661587238311767578125</LatitudeDegrees>
              <LongitudeDegrees>-4.38085324130952358245849609375</LongitudeDegrees>
            </Position>
            <AltitudeMeters>736</AltitudeMeters>
            <DistanceMeters>NAN</DistanceMeters>
          </Trackpoint>
          <Trackpoint>
            <Time>2020-12-05T14:38:03.000Z</Time>
            <Position>
              <LatitudeDegrees>36.7965617962181568145751953125</LatitudeDegrees>
              <LongitudeDegrees>-4.38085533678531646728515625</LongitudeDegrees>
            </Position>
            <AltitudeMeters>736</AltitudeMeters>
            <DistanceMeters>NAN</DistanceMeters>
          </Trackpoint>
          <Trackpoint>
            <Time>2020-12-05T14:38:04.000Z</Time>
            <Position>
              <LatitudeDegrees>36.79654846899211406707763671875</LatitudeDegrees>
              <LongitudeDegrees>-4.3808591924607753753662109375</LongitudeDegrees>
            </Position>
            <AltitudeMeters>736</AltitudeMeters>
            <DistanceMeters>NAN</DistanceMeters>
          </Trackpoint>
          <Trackpoint>
            <Time>2020-12-05T14:38:05.000Z</Time>
            <Position>
              <LatitudeDegrees>36.7965336330235004425048828125</LatitudeDegrees>
              <LongitudeDegrees>-4.38086296431720256805419921875</LongitudeDegrees>
            </Position>
            <AltitudeMeters>736</AltitudeMeters>
            <DistanceMeters>NAN</DistanceMeters>
          </Trackpoint>
          <Trackpoint>
            <Time>2020-12-05T14:38:06.000Z</Time>
            <Position>
              <LatitudeDegrees>36.79652080871164798736572265625</LatitudeDegrees>
              <LongitudeDegrees>-4.3808642216026782989501953125</LongitudeDegrees>
            </Position>
            <AltitudeMeters>736</AltitudeMeters>
            <DistanceMeters>NAN</DistanceMeters>
          </Trackpoint>
          <Trackpoint>
            <Time>2020-12-05T14:38:07.000Z</Time>
            <Position>
              <LatitudeDegrees>36.796503961086273193359375</LatitudeDegrees>
              <LongitudeDegrees>-4.38086807727813720703125</LongitudeDegrees>
            </Position>
            <AltitudeMeters>736</AltitudeMeters>
            <DistanceMeters>NAN</DistanceMeters>
          </Trackpoint>
          <Trackpoint>
            <Time>2020-12-05T14:38:08.000Z</Time>
            <Position>
              <LatitudeDegrees>36.7964838445186614990234375</LatitudeDegrees>
              <LongitudeDegrees>-4.380869083106517791748046875</LongitudeDegrees>
            </Position>
            <AltitudeMeters>736.20001220703125</AltitudeMeters>
            <DistanceMeters>NAN</DistanceMeters>
          </Trackpoint>
          <Trackpoint>
            <Time>2020-12-05T14:38:09.000Z</Time>
            <Position>
              <LatitudeDegrees>36.79646381177008152008056640625</LatitudeDegrees>
              <LongitudeDegrees>-4.3808726035058498382568359375</LongitudeDegrees>
            </Position>
            <AltitudeMeters>736.20001220703125</AltitudeMeters>
            <DistanceMeters>NAN</DistanceMeters>
          </Trackpoint>
          <Trackpoint>
            <Time>2020-12-05T14:38:10.000Z</Time>
            <Position>
              <LatitudeDegrees>36.79644537158310413360595703125</LatitudeDegrees>
              <LongitudeDegrees>-4.38087168149650096893310546875</LongitudeDegrees>
            </Position>
            <AltitudeMeters>736.4000244140625</AltitudeMeters>
            <DistanceMeters>NAN</DistanceMeters>
          </Trackpoint>
          <Trackpoint>
            <Time>2020-12-05T14:38:11.000Z</Time>
            <Position>
              <LatitudeDegrees>36.7964302003383636474609375</LatitudeDegrees>
              <LongitudeDegrees>-4.38087067566812038421630859375</LongitudeDegrees>
            </Position>
            <AltitudeMeters>736.4000244140625</AltitudeMeters>
            <DistanceMeters>NAN</DistanceMeters>
          </Trackpoint>
          <Trackpoint>
            <Time>2020-12-05T14:38:12.000Z</Time>
            <Position>
              <LatitudeDegrees>36.7964186333119869232177734375</LatitudeDegrees>
              <LongitudeDegrees>-4.38087151385843753814697265625</LongitudeDegrees>
            </Position>
            <AltitudeMeters>736.4000244140625</AltitudeMeters>
            <DistanceMeters>NAN</DistanceMeters>
          </Trackpoint>
          <Trackpoint>
            <Time>2020-12-05T14:38:13.000Z</Time>
            <Position>
              <LatitudeDegrees>36.7964109219610691070556640625</LatitudeDegrees>
              <LongitudeDegrees>-4.380871094763278961181640625</LongitudeDegrees>
            </Position>
            <AltitudeMeters>736</AltitudeMeters>
            <DistanceMeters>NAN</DistanceMeters>
          </Trackpoint>
          <Trackpoint>
            <Time>2020-12-05T14:38:14.000Z</Time>
            <Position>
              <LatitudeDegrees>36.796404384076595306396484375</LatitudeDegrees>
              <LongitudeDegrees>-4.3808702565729618072509765625</LongitudeDegrees>
            </Position>
            <AltitudeMeters>736</AltitudeMeters>
            <DistanceMeters>NAN</DistanceMeters>
          </Trackpoint>
          <Trackpoint>
            <Time>2020-12-05T14:38:15.000Z</Time>
            <Position>
              <LatitudeDegrees>36.7963965050876140594482421875</LatitudeDegrees>
              <LongitudeDegrees>-4.380871765315532684326171875</LongitudeDegrees>
            </Position>
            <AltitudeMeters>735.5999755859375</AltitudeMeters>
            <DistanceMeters>NAN</DistanceMeters>
          </Trackpoint>
          <Trackpoint>
            <Time>2020-12-05T14:38:16.000Z</Time>
            <Position>
              <LatitudeDegrees>36.79638535715639591217041015625</LatitudeDegrees>
              <LongitudeDegrees>-4.38087486661970615386962890625</LongitudeDegrees>
            </Position>
            <AltitudeMeters>735.20001220703125</AltitudeMeters>
            <DistanceMeters>NAN</DistanceMeters>
          </Trackpoint>
          <Trackpoint>
            <Time>2020-12-05T14:38:17.000Z</Time>
            <Position>
              <LatitudeDegrees>36.7963703535497188568115234375</LatitudeDegrees>
              <LongitudeDegrees>-4.38087880611419677734375</LongitudeDegrees>
            </Position>
            <AltitudeMeters>734.79998779296875</AltitudeMeters>
            <DistanceMeters>NAN</DistanceMeters>
          </Trackpoint>
          <Trackpoint>
            <Time>2020-12-05T14:38:18.000Z</Time>
            <Position>
              <LatitudeDegrees>36.7963545955717563629150390625</LatitudeDegrees>
              <LongitudeDegrees>-4.380878470838069915771484375</LongitudeDegrees>
            </Position>
            <AltitudeMeters>734.5999755859375</AltitudeMeters>
            <DistanceMeters>NAN</DistanceMeters>
          </Trackpoint>
          <Trackpoint>
            <Time>2020-12-05T14:38:19.000Z</Time>
            <Position>
              <LatitudeDegrees>36.79633699357509613037109375</LatitudeDegrees>
              <LongitudeDegrees>-4.380875788629055023193359375</LongitudeDegrees>
            </Position>
            <AltitudeMeters>734.4000244140625</AltitudeMeters>
            <DistanceMeters>NAN</DistanceMeters>
          </Trackpoint>
          <Trackpoint>
            <Time>2020-12-05T14:38:20.000Z</Time>
            <Position>
              <LatitudeDegrees>36.79631981067359447479248046875</LatitudeDegrees>
              <LongitudeDegrees>-4.380876123905181884765625</LongitudeDegrees>
            </Position>
            <AltitudeMeters>734.20001220703125</AltitudeMeters>
            <DistanceMeters>NAN</DistanceMeters>
          </Trackpoint>
          <Trackpoint>
            <Time>2020-12-05T14:38:21.000Z</Time>
            <Position>
              <LatitudeDegrees>36.79630137048661708831787109375</LatitudeDegrees>
              <LongitudeDegrees>-4.38088224269449710845947265625</LongitudeDegrees>
            </Position>
            <AltitudeMeters>734</AltitudeMeters>
            <DistanceMeters>NAN</DistanceMeters>
          </Trackpoint>
          <Trackpoint>
            <Time>2020-12-05T14:38:22.000Z</Time>
            <Position>
              <LatitudeDegrees>36.79628829471766948699951171875</LatitudeDegrees>
              <LongitudeDegrees>-4.3808828294277191162109375</LongitudeDegrees>
            </Position>
            <AltitudeMeters>733.79998779296875</AltitudeMeters>
            <DistanceMeters>NAN</DistanceMeters>
          </Trackpoint>
          <Trackpoint>
            <Time>2020-12-05T14:38:23.000Z</Time>
            <Position>
              <LatitudeDegrees>36.7962758056819438934326171875</LatitudeDegrees>
              <LongitudeDegrees>-4.3808846734464168548583984375</LongitudeDegrees>
            </Position>
            <AltitudeMeters>733.79998779296875</AltitudeMeters>
            <DistanceMeters>NAN</DistanceMeters>
          </Trackpoint>
          <Trackpoint>
            <Time>2020-12-05T14:38:24.000Z</Time>
            <Position>
              <LatitudeDegrees>36.79626164026558399200439453125</LatitudeDegrees>
              <LongitudeDegrees>-4.38088618218898773193359375</LongitudeDegrees>
            </Position>
            <AltitudeMeters>733.79998779296875</AltitudeMeters>
            <DistanceMeters>NAN</DistanceMeters>
          </Trackpoint>
          <Trackpoint>
            <Time>2020-12-05T14:38:25.000Z</Time>
            <Position>
              <LatitudeDegrees>36.7962469719350337982177734375</LatitudeDegrees>
              <LongitudeDegrees>-4.380892217159271240234375</LongitudeDegrees>
            </Position>
            <AltitudeMeters>733.79998779296875</AltitudeMeters>
            <DistanceMeters>NAN</DistanceMeters>
          </Trackpoint>
          <Trackpoint>
            <Time>2020-12-05T14:38:26.000Z</Time>
            <Position>
              <LatitudeDegrees>36.79623096249997615814208984375</LatitudeDegrees>
              <LongitudeDegrees>-4.38089615665376186370849609375</LongitudeDegrees>
            </Position>
            <AltitudeMeters>733.79998779296875</AltitudeMeters>
            <DistanceMeters>NAN</DistanceMeters>
          </Trackpoint>
          <Trackpoint>
            <Time>2020-12-05T14:38:27.000Z</Time>
            <Position>
              <LatitudeDegrees>36.7962147854268550872802734375</LatitudeDegrees>
              <LongitudeDegrees>-4.3808970786631107330322265625</LongitudeDegrees>
            </Position>
            <AltitudeMeters>733.5999755859375</AltitudeMeters>
            <DistanceMeters>NAN</DistanceMeters>
          </Trackpoint>
          <Trackpoint>
            <Time>2020-12-05T14:38:28.000Z</Time>
            <Position>
              <LatitudeDegrees>36.796195507049560546875</LatitudeDegrees>
              <LongitudeDegrees>-4.3808994255959987640380859375</LongitudeDegrees>
            </Position>
            <AltitudeMeters>733.5999755859375</AltitudeMeters>
            <DistanceMeters>NAN</DistanceMeters>
          </Trackpoint>
          <Trackpoint>
            <Time>2020-12-05T14:38:29.000Z</Time>
            <Position>
              <LatitudeDegrees>36.79617782123386859893798828125</LatitudeDegrees>
              <LongitudeDegrees>-4.38090227544307708740234375</LongitudeDegrees>
            </Position>
            <AltitudeMeters>733.5999755859375</AltitudeMeters>
            <DistanceMeters>NAN</DistanceMeters>
          </Trackpoint>
          <Trackpoint>
            <Time>2020-12-05T14:38:30.000Z</Time>
            <Position>
              <LatitudeDegrees>36.79616130888462066650390625</LatitudeDegrees>
              <LongitudeDegrees>-4.38090386800467967987060546875</LongitudeDegrees>
            </Position>
            <AltitudeMeters>733.5999755859375</AltitudeMeters>
            <DistanceMeters>NAN</DistanceMeters>
          </Trackpoint>
          <Trackpoint>
            <Time>2020-12-05T14:38:31.000Z</Time>
            <Position>
              <LatitudeDegrees>36.796146892011165618896484375</LatitudeDegrees>
              <LongitudeDegrees>-4.38090487383306026458740234375</LongitudeDegrees>
            </Position>
            <AltitudeMeters>733.5999755859375</AltitudeMeters>
            <DistanceMeters>NAN</DistanceMeters>
          </Trackpoint>
          <Trackpoint>
            <Time>2020-12-05T14:38:32.000Z</Time>
            <Position>
              <LatitudeDegrees>36.79613322950899600982666015625</LatitudeDegrees>
              <LongitudeDegrees>-4.38090537674725055694580078125</LongitudeDegrees>
            </Position>
            <AltitudeMeters>733.4000244140625</AltitudeMeters>
            <DistanceMeters>NAN</DistanceMeters>
          </Trackpoint>
          <Trackpoint>
            <Time>2020-12-05T14:38:33.000Z</Time>
            <Position>
              <LatitudeDegrees>36.79612032137811183929443359375</LatitudeDegrees>
              <LongitudeDegrees>-4.38090495765209197998046875</LongitudeDegrees>
            </Position>
            <AltitudeMeters>733.4000244140625</AltitudeMeters>
            <DistanceMeters>NAN</DistanceMeters>
          </Trackpoint>
          <Trackpoint>
            <Time>2020-12-05T14:38:34.000Z</Time>
            <Position>
              <LatitudeDegrees>36.79610808379948139190673828125</LatitudeDegrees>
              <LongitudeDegrees>-4.38090571202337741851806640625</LongitudeDegrees>
            </Position>
            <AltitudeMeters>733.20001220703125</AltitudeMeters>
            <DistanceMeters>NAN</DistanceMeters>
          </Trackpoint>
          <Trackpoint>
            <Time>2020-12-05T14:38:35.000Z</Time>
            <Position>
              <LatitudeDegrees>36.79609484039247035980224609375</LatitudeDegrees>
              <LongitudeDegrees>-4.38090789131820201873779296875</LongitudeDegrees>
            </Position>
            <AltitudeMeters>733.20001220703125</AltitudeMeters>
            <DistanceMeters>NAN</DistanceMeters>
          </Trackpoint>
          <Trackpoint>
            <Time>2020-12-05T14:38:36.000Z</Time>
            <Position>
              <LatitudeDegrees>36.7960793338716030120849609375</LatitudeDegrees>
              <LongitudeDegrees>-4.38091577030718326568603515625</LongitudeDegrees>
            </Position>
            <AltitudeMeters>733</AltitudeMeters>
            <DistanceMeters>NAN</DistanceMeters>
          </Trackpoint>
          <Trackpoint>
            <Time>2020-12-05T14:38:37.000Z</Time>
            <Position>
              <LatitudeDegrees>36.7960618995130062103271484375</LatitudeDegrees>
              <LongitudeDegrees>-4.3809242360293865203857421875</LongitudeDegrees>
            </Position>
            <AltitudeMeters>732.79998779296875</AltitudeMeters>
            <DistanceMeters>NAN</DistanceMeters>
          </Trackpoint>
          <Trackpoint>
            <Time>2020-12-05T14:38:38.000Z</Time>
            <Position>
              <LatitudeDegrees>36.7960448004305362701416015625</LatitudeDegrees>
              <LongitudeDegrees>-4.38092884607613086700439453125</LongitudeDegrees>
            </Position>
            <AltitudeMeters>732.4000244140625</AltitudeMeters>
            <DistanceMeters>NAN</DistanceMeters>
          </Trackpoint>
          <Trackpoint>
            <Time>2020-12-05T14:38:39.000Z</Time>
            <Position>
              <LatitudeDegrees>36.7960277013480663299560546875</LatitudeDegrees>
              <LongitudeDegrees>-4.3809282593429088592529296875</LongitudeDegrees>
            </Position>
            <AltitudeMeters>731.79998779296875</AltitudeMeters>
            <DistanceMeters>NAN</DistanceMeters>
          </Trackpoint>
          <Trackpoint>
            <Time>2020-12-05T14:38:40.000Z</Time>
            <Position>
              <LatitudeDegrees>36.79601018317043781280517578125</LatitudeDegrees>
              <LongitudeDegrees>-4.38092549331486225128173828125</LongitudeDegrees>
            </Position>
            <AltitudeMeters>731.20001220703125</AltitudeMeters>
            <DistanceMeters>NAN</DistanceMeters>
          </Trackpoint>
          <Trackpoint>
            <Time>2020-12-05T14:38:41.000Z</Time>
            <Position>
              <LatitudeDegrees>36.79599492810666561126708984375</LatitudeDegrees>
              <LongitudeDegrees>-4.38092582859098911285400390625</LongitudeDegrees>
            </Position>
            <AltitudeMeters>730.5999755859375</AltitudeMeters>
            <DistanceMeters>NAN</DistanceMeters>
          </Trackpoint>
          <Trackpoint>
            <Time>2020-12-05T14:38:42.000Z</Time>
            <Position>
              <LatitudeDegrees>36.795982606709003448486328125</LatitudeDegrees>
              <LongitudeDegrees>-4.380926750600337982177734375</LongitudeDegrees>
            </Position>
            <AltitudeMeters>730.4000244140625</AltitudeMeters>
            <DistanceMeters>NAN</DistanceMeters>
          </Trackpoint>
          <Trackpoint>
            <Time>2020-12-05T14:38:43.000Z</Time>
            <Position>
              <LatitudeDegrees>36.7959723807871341705322265625</LatitudeDegrees>
              <LongitudeDegrees>-4.38092918135225772857666015625</LongitudeDegrees>
            </Position>
            <AltitudeMeters>730.20001220703125</AltitudeMeters>
            <DistanceMeters>NAN</DistanceMeters>
          </Trackpoint>
          <Trackpoint>
            <Time>2020-12-05T14:38:44.000Z</Time>
            <Position>
              <LatitudeDegrees>36.79596223868429660797119140625</LatitudeDegrees>
              <LongitudeDegrees>-4.38093437813222408294677734375</LongitudeDegrees>
            </Position>
            <AltitudeMeters>730.20001220703125</AltitudeMeters>
            <DistanceMeters>NAN</DistanceMeters>
          </Trackpoint>
          <Trackpoint>
            <Time>2020-12-05T14:38:45.000Z</Time>
            <Position>
              <LatitudeDegrees>36.79595402441918849945068359375</LatitudeDegrees>
              <LongitudeDegrees>-4.38093689270317554473876953125</LongitudeDegrees>
            </Position>
            <AltitudeMeters>730.20001220703125</AltitudeMeters>
            <DistanceMeters>NAN</DistanceMeters>
          </Trackpoint>
          <Trackpoint>
            <Time>2020-12-05T14:38:46.000Z</Time>
            <Position>
              <LatitudeDegrees>36.79594329558312892913818359375</LatitudeDegrees>
              <LongitudeDegrees>-4.380940832197666168212890625</LongitudeDegrees>
            </Position>
            <AltitudeMeters>730.20001220703125</AltitudeMeters>
            <DistanceMeters>NAN</DistanceMeters>
          </Trackpoint>
          <Trackpoint>
            <Time>2020-12-05T14:38:47.000Z</Time>
            <Position>
              <LatitudeDegrees>36.79593156091868877410888671875</LatitudeDegrees>
              <LongitudeDegrees>-4.38094443641602993011474609375</LongitudeDegrees>
            </Position>
            <AltitudeMeters>730.4000244140625</AltitudeMeters>
            <DistanceMeters>NAN</DistanceMeters>
          </Trackpoint>
          <Trackpoint>
            <Time>2020-12-05T14:38:48.000Z</Time>
            <Position>
              <LatitudeDegrees>36.79591915570199489593505859375</LatitudeDegrees>
              <LongitudeDegrees>-4.3809473700821399688720703125</LongitudeDegrees>
            </Position>
            <AltitudeMeters>730.5999755859375</AltitudeMeters>
            <DistanceMeters>NAN</DistanceMeters>
          </Trackpoint>
          <Trackpoint>
            <Time>2020-12-05T14:38:49.000Z</Time>
            <Position>
              <LatitudeDegrees>36.7959053255617618560791015625</LatitudeDegrees>
              <LongitudeDegrees>-4.38095281831920146942138671875</LongitudeDegrees>
            </Position>
            <AltitudeMeters>730.5999755859375</AltitudeMeters>
            <DistanceMeters>NAN</DistanceMeters>
          </Trackpoint>
          <Trackpoint>
            <Time>2020-12-05T14:38:50.000Z</Time>
            <Position>
              <LatitudeDegrees>36.79589065723121166229248046875</LatitudeDegrees>
              <LongitudeDegrees>-4.3809560872614383697509765625</LongitudeDegrees>
            </Position>
            <AltitudeMeters>730.5999755859375</AltitudeMeters>
            <DistanceMeters>NAN</DistanceMeters>
          </Trackpoint>
          <Trackpoint>
            <Time>2020-12-05T14:38:51.000Z</Time>
            <Position>
              <LatitudeDegrees>36.79587590508162975311279296875</LatitudeDegrees>
              <LongitudeDegrees>-4.3809611164033412933349609375</LongitudeDegrees>
            </Position>
            <AltitudeMeters>730.79998779296875</AltitudeMeters>
            <DistanceMeters>NAN</DistanceMeters>
          </Trackpoint>
          <Trackpoint>
            <Time>2020-12-05T14:38:52.000Z</Time>
            <Position>
              <LatitudeDegrees>36.79585964418947696685791015625</LatitudeDegrees>
              <LongitudeDegrees>-4.3809694983065128326416015625</LongitudeDegrees>
            </Position>
            <AltitudeMeters>730.79998779296875</AltitudeMeters>
            <DistanceMeters>NAN</DistanceMeters>
          </Trackpoint>
          <Trackpoint>
            <Time>2020-12-05T14:38:53.000Z</Time>
            <Position>
              <LatitudeDegrees>36.79584438912570476531982421875</LatitudeDegrees>
              <LongitudeDegrees>-4.38098081387579441070556640625</LongitudeDegrees>
            </Position>
            <AltitudeMeters>730.79998779296875</AltitudeMeters>
            <DistanceMeters>NAN</DistanceMeters>
          </Trackpoint>
          <Trackpoint>
            <Time>2020-12-05T14:38:54.000Z</Time>
            <Position>
              <LatitudeDegrees>36.79583081044256687164306640625</LatitudeDegrees>
              <LongitudeDegrees>-4.38098969869315624237060546875</LongitudeDegrees>
            </Position>
            <AltitudeMeters>730.79998779296875</AltitudeMeters>
            <DistanceMeters>NAN</DistanceMeters>
          </Trackpoint>
          <Trackpoint>
            <Time>2020-12-05T14:38:55.000Z</Time>
            <Position>
              <LatitudeDegrees>36.7958199977874755859375</LatitudeDegrees>
              <LongitudeDegrees>-4.38099858351051807403564453125</LongitudeDegrees>
            </Position>
            <AltitudeMeters>730.79998779296875</AltitudeMeters>
            <DistanceMeters>NAN</DistanceMeters>
          </Trackpoint>
          <Trackpoint>
            <Time>2020-12-05T14:38:56.000Z</Time>
            <Position>
              <LatitudeDegrees>36.79580952040851116180419921875</LatitudeDegrees>
              <LongitudeDegrees>-4.381005205214023590087890625</LongitudeDegrees>
            </Position>
            <AltitudeMeters>730.79998779296875</AltitudeMeters>
            <DistanceMeters>NAN</DistanceMeters>
          </Trackpoint>
          <Trackpoint>
            <Time>2020-12-05T14:38:57.000Z</Time>
            <Position>
              <LatitudeDegrees>36.79579677991569042205810546875</LatitudeDegrees>
              <LongitudeDegrees>-4.3810100667178630828857421875</LongitudeDegrees>
            </Position>
            <AltitudeMeters>730.79998779296875</AltitudeMeters>
            <DistanceMeters>NAN</DistanceMeters>
          </Trackpoint>
          <Trackpoint>
            <Time>2020-12-05T14:38:58.000Z</Time>
            <Position>
              <LatitudeDegrees>36.7957822792232036590576171875</LatitudeDegrees>
              <LongitudeDegrees>-4.38101618550717830657958984375</LongitudeDegrees>
            </Position>
            <AltitudeMeters>730.5999755859375</AltitudeMeters>
            <DistanceMeters>NAN</DistanceMeters>
          </Trackpoint>
          <Trackpoint>
            <Time>2020-12-05T14:38:59.000Z</Time>
            <Position>
              <LatitudeDegrees>36.79576710797846317291259765625</LatitudeDegrees>
              <LongitudeDegrees>-4.381023980677127838134765625</LongitudeDegrees>
            </Position>
            <AltitudeMeters>730.5999755859375</AltitudeMeters>
            <DistanceMeters>NAN</DistanceMeters>
          </Trackpoint>
          <Trackpoint>
            <Time>2020-12-05T14:39:00.000Z</Time>
            <Position>
              <LatitudeDegrees>36.7957524396479129791259765625</LatitudeDegrees>
              <LongitudeDegrees>-4.38103236258029937744140625</LongitudeDegrees>
            </Position>
            <AltitudeMeters>730.5999755859375</AltitudeMeters>
            <DistanceMeters>NAN</DistanceMeters>
          </Trackpoint>
          <Trackpoint>
            <Time>2020-12-05T14:39:01.000Z</Time>
            <Position>
              <LatitudeDegrees>36.79574078880250453948974609375</LatitudeDegrees>
              <LongitudeDegrees>-4.38104049302637577056884765625</LongitudeDegrees>
            </Position>
            <AltitudeMeters>730.4000244140625</AltitudeMeters>
            <DistanceMeters>NAN</DistanceMeters>
          </Trackpoint>
          <Trackpoint>
            <Time>2020-12-05T14:39:02.000Z</Time>
            <Position>
              <LatitudeDegrees>36.7957289703190326690673828125</LatitudeDegrees>
              <LongitudeDegrees>-4.381050132215023040771484375</LongitudeDegrees>
            </Position>
            <AltitudeMeters>730.20001220703125</AltitudeMeters>
            <DistanceMeters>NAN</DistanceMeters>
          </Trackpoint>
          <Trackpoint>
            <Time>2020-12-05T14:39:03.000Z</Time>
            <Position>
              <LatitudeDegrees>36.795717738568782806396484375</LatitudeDegrees>
              <LongitudeDegrees>-4.3810600228607654571533203125</LongitudeDegrees>
            </Position>
            <AltitudeMeters>730.20001220703125</AltitudeMeters>
            <DistanceMeters>NAN</DistanceMeters>
          </Trackpoint>
          <Trackpoint>
            <Time>2020-12-05T14:39:04.000Z</Time>
            <Position>
              <LatitudeDegrees>36.79570659063756465911865234375</LatitudeDegrees>
              <LongitudeDegrees>-4.3810704164206981658935546875</LongitudeDegrees>
            </Position>
            <AltitudeMeters>730</AltitudeMeters>
            <DistanceMeters>NAN</DistanceMeters>
          </Trackpoint>
          <Trackpoint>
            <Time>2020-12-05T14:39:05.000Z</Time>
            <Position>
              <LatitudeDegrees>36.79569519124925136566162109375</LatitudeDegrees>
              <LongitudeDegrees>-4.38108022324740886688232421875</LongitudeDegrees>
            </Position>
            <AltitudeMeters>729.79998779296875</AltitudeMeters>
            <DistanceMeters>NAN</DistanceMeters>
          </Trackpoint>
          <Trackpoint>
            <Time>2020-12-05T14:39:06.000Z</Time>
            <Position>
              <LatitudeDegrees>36.79568379186093807220458984375</LatitudeDegrees>
              <LongitudeDegrees>-4.38109044916927814483642578125</LongitudeDegrees>
            </Position>
            <AltitudeMeters>729.5999755859375</AltitudeMeters>
            <DistanceMeters>NAN</DistanceMeters>
          </Trackpoint>
          <Trackpoint>
            <Time>2020-12-05T14:39:07.000Z</Time>
            <Position>
              <LatitudeDegrees>36.7956723086535930633544921875</LatitudeDegrees>
              <LongitudeDegrees>-4.38110251910984516143798828125</LongitudeDegrees>
            </Position>
            <AltitudeMeters>729.20001220703125</AltitudeMeters>
            <DistanceMeters>NAN</DistanceMeters>
          </Trackpoint>
          <Trackpoint>
            <Time>2020-12-05T14:39:08.000Z</Time>
            <Position>
              <LatitudeDegrees>36.7956635914742946624755859375</LatitudeDegrees>
              <LongitudeDegrees>-4.38111257739365100860595703125</LongitudeDegrees>
            </Position>
            <AltitudeMeters>729</AltitudeMeters>
            <DistanceMeters>NAN</DistanceMeters>
          </Trackpoint>
          <Trackpoint>
            <Time>2020-12-05T14:39:09.000Z</Time>
            <Position>
              <LatitudeDegrees>36.795656718313694000244140625</LatitudeDegrees>
              <LongitudeDegrees>-4.38112087547779083251953125</LongitudeDegrees>
            </Position>
            <AltitudeMeters>728.79998779296875</AltitudeMeters>
            <DistanceMeters>NAN</DistanceMeters>
          </Trackpoint>
          <Trackpoint>
            <Time>2020-12-05T14:39:10.000Z</Time>
            <Position>
              <LatitudeDegrees>36.795648001134395599365234375</LatitudeDegrees>
              <LongitudeDegrees>-4.38112934119999408721923828125</LongitudeDegrees>
            </Position>
            <AltitudeMeters>728.4000244140625</AltitudeMeters>
            <DistanceMeters>NAN</DistanceMeters>
          </Trackpoint>
          <Trackpoint>
            <Time>2020-12-05T14:39:11.000Z</Time>
            <Position>
              <LatitudeDegrees>36.795637272298336029052734375</LatitudeDegrees>
              <LongitudeDegrees>-4.38113722018897533416748046875</LongitudeDegrees>
            </Position>
            <AltitudeMeters>728</AltitudeMeters>
            <DistanceMeters>NAN</DistanceMeters>
          </Trackpoint>
          <Trackpoint>
            <Time>2020-12-05T14:39:12.000Z</Time>
            <Position>
              <LatitudeDegrees>36.79562629200518131256103515625</LatitudeDegrees>
              <LongitudeDegrees>-4.38114635646343231201171875</LongitudeDegrees>
            </Position>
            <AltitudeMeters>727.4000244140625</AltitudeMeters>
            <DistanceMeters>NAN</DistanceMeters>
          </Trackpoint>
          <Trackpoint>
            <Time>2020-12-05T14:39:13.000Z</Time>
            <Position>
              <LatitudeDegrees>36.795615144073963165283203125</LatitudeDegrees>
              <LongitudeDegrees>-4.381160102784633636474609375</LongitudeDegrees>
            </Position>
            <AltitudeMeters>727</AltitudeMeters>
            <DistanceMeters>NAN</DistanceMeters>
          </Trackpoint>
          <Trackpoint>
            <Time>2020-12-05T14:39:14.000Z</Time>
            <Position>
              <LatitudeDegrees>36.7956019006669521331787109375</LatitudeDegrees>
              <LongitudeDegrees>-4.381170161068439483642578125</LongitudeDegrees>
            </Position>
            <AltitudeMeters>726.79998779296875</AltitudeMeters>
            <DistanceMeters>NAN</DistanceMeters>
          </Trackpoint>
          <Trackpoint>
            <Time>2020-12-05T14:39:15.000Z</Time>
            <Position>
              <LatitudeDegrees>36.7955884896218776702880859375</LatitudeDegrees>
              <LongitudeDegrees>-4.3811777047812938690185546875</LongitudeDegrees>
            </Position>
            <AltitudeMeters>727</AltitudeMeters>
            <DistanceMeters>NAN</DistanceMeters>
          </Trackpoint>
          <Trackpoint>
            <Time>2020-12-05T14:39:16.000Z</Time>
            <Position>
              <LatitudeDegrees>36.79557415656745433807373046875</LatitudeDegrees>
              <LongitudeDegrees>-4.38118399120867252349853515625</LongitudeDegrees>
            </Position>
            <AltitudeMeters>727</AltitudeMeters>
            <DistanceMeters>NAN</DistanceMeters>
          </Trackpoint>
          <Trackpoint>
            <Time>2020-12-05T14:39:17.000Z</Time>
            <Position>
              <LatitudeDegrees>36.79556024260818958282470703125</LatitudeDegrees>
              <LongitudeDegrees>-4.38118793070316314697265625</LongitudeDegrees>
            </Position>
            <AltitudeMeters>727</AltitudeMeters>
            <DistanceMeters>NAN</DistanceMeters>
          </Trackpoint>
          <Trackpoint>
            <Time>2020-12-05T14:39:18.000Z</Time>
            <Position>
              <LatitudeDegrees>36.79554733447730541229248046875</LatitudeDegrees>
              <LongitudeDegrees>-4.38119119964540004730224609375</LongitudeDegrees>
            </Position>
            <AltitudeMeters>727</AltitudeMeters>
            <DistanceMeters>NAN</DistanceMeters>
          </Trackpoint>
          <Trackpoint>
            <Time>2020-12-05T14:39:19.000Z</Time>
            <Position>
              <LatitudeDegrees>36.7955358512699604034423828125</LatitudeDegrees>
              <LongitudeDegrees>-4.381194971501827239990234375</LongitudeDegrees>
            </Position>
            <AltitudeMeters>727.20001220703125</AltitudeMeters>
            <DistanceMeters>NAN</DistanceMeters>
          </Trackpoint>
          <Trackpoint>
            <Time>2020-12-05T14:39:20.000Z</Time>
            <Position>
              <LatitudeDegrees>36.79552470333874225616455078125</LatitudeDegrees>
              <LongitudeDegrees>-4.3811993300914764404296875</LongitudeDegrees>
            </Position>
            <AltitudeMeters>727</AltitudeMeters>
            <DistanceMeters>NAN</DistanceMeters>
          </Trackpoint>
          <Trackpoint>
            <Time>2020-12-05T14:39:21.000Z</Time>
            <Position>
              <LatitudeDegrees>36.795510537922382354736328125</LatitudeDegrees>
              <LongitudeDegrees>-4.3812062032520771026611328125</LongitudeDegrees>
            </Position>
            <AltitudeMeters>727</AltitudeMeters>
            <DistanceMeters>NAN</DistanceMeters>
          </Trackpoint>
          <Trackpoint>
            <Time>2020-12-05T14:39:22.000Z</Time>
            <Position>
              <LatitudeDegrees>36.795498467981815338134765625</LatitudeDegrees>
              <LongitudeDegrees>-4.381213076412677764892578125</LongitudeDegrees>
            </Position>
            <AltitudeMeters>727</AltitudeMeters>
            <DistanceMeters>NAN</DistanceMeters>
          </Trackpoint>
          <Trackpoint>
            <Time>2020-12-05T14:39:23.000Z</Time>
            <Position>
              <LatitudeDegrees>36.79548832587897777557373046875</LatitudeDegrees>
              <LongitudeDegrees>-4.38121818937361240386962890625</LongitudeDegrees>
            </Position>
            <AltitudeMeters>727</AltitudeMeters>
            <DistanceMeters>NAN</DistanceMeters>
          </Trackpoint>
          <Trackpoint>
            <Time>2020-12-05T14:39:24.000Z</Time>
            <Position>
              <LatitudeDegrees>36.79547977633774280548095703125</LatitudeDegrees>
              <LongitudeDegrees>-4.38122338615357875823974609375</LongitudeDegrees>
            </Position>
            <AltitudeMeters>727</AltitudeMeters>
            <DistanceMeters>NAN</DistanceMeters>
          </Trackpoint>
          <Trackpoint>
            <Time>2020-12-05T14:39:25.000Z</Time>
            <Position>
              <LatitudeDegrees>36.79547072388231754302978515625</LatitudeDegrees>
              <LongitudeDegrees>-4.38122757710516452789306640625</LongitudeDegrees>
            </Position>
            <AltitudeMeters>727</AltitudeMeters>
            <DistanceMeters>NAN</DistanceMeters>
          </Trackpoint>
          <Trackpoint>
            <Time>2020-12-05T14:39:26.000Z</Time>
            <Position>
              <LatitudeDegrees>36.79546066559851169586181640625</LatitudeDegrees>
              <LongitudeDegrees>-4.38123160041868686676025390625</LongitudeDegrees>
            </Position>
            <AltitudeMeters>726.79998779296875</AltitudeMeters>
            <DistanceMeters>NAN</DistanceMeters>
          </Trackpoint>
          <Trackpoint>
            <Time>2020-12-05T14:39:27.000Z</Time>
            <Position>
              <LatitudeDegrees>36.79545077495276927947998046875</LatitudeDegrees>
              <LongitudeDegrees>-4.38123679719865322113037109375</LongitudeDegrees>
            </Position>
            <AltitudeMeters>726.5999755859375</AltitudeMeters>
            <DistanceMeters>NAN</DistanceMeters>
          </Trackpoint>
          <Trackpoint>
            <Time>2020-12-05T14:39:28.000Z</Time>
            <Position>
              <LatitudeDegrees>36.79543912410736083984375</LatitudeDegrees>
              <LongitudeDegrees>-4.38124115578830242156982421875</LongitudeDegrees>
            </Position>
            <AltitudeMeters>726.4000244140625</AltitudeMeters>
            <DistanceMeters>NAN</DistanceMeters>
          </Trackpoint>
          <Trackpoint>
            <Time>2020-12-05T14:39:29.000Z</Time>
            <Position>
              <LatitudeDegrees>36.795425713062286376953125</LatitudeDegrees>
              <LongitudeDegrees>-4.381247945129871368408203125</LongitudeDegrees>
            </Position>
            <AltitudeMeters>726.4000244140625</AltitudeMeters>
            <DistanceMeters>NAN</DistanceMeters>
          </Trackpoint>
          <Trackpoint>
            <Time>2020-12-05T14:39:30.000Z</Time>
            <Position>
              <LatitudeDegrees>36.795411296188831329345703125</LatitudeDegrees>
              <LongitudeDegrees>-4.38125188462436199188232421875</LongitudeDegrees>
            </Position>
            <AltitudeMeters>726.20001220703125</AltitudeMeters>
            <DistanceMeters>NAN</DistanceMeters>
          </Trackpoint>
          <Trackpoint>
            <Time>2020-12-05T14:39:31.000Z</Time>
            <Position>
              <LatitudeDegrees>36.7953990586102008819580078125</LatitudeDegrees>
              <LongitudeDegrees>-4.38125305809080600738525390625</LongitudeDegrees>
            </Position>
            <AltitudeMeters>726.20001220703125</AltitudeMeters>
            <DistanceMeters>NAN</DistanceMeters>
          </Trackpoint>
          <Trackpoint>
            <Time>2020-12-05T14:39:32.000Z</Time>
            <Position>
              <LatitudeDegrees>36.7953873239457607269287109375</LatitudeDegrees>
              <LongitudeDegrees>-4.38125205226242542266845703125</LongitudeDegrees>
            </Position>
            <AltitudeMeters>726</AltitudeMeters>
            <DistanceMeters>NAN</DistanceMeters>
          </Trackpoint>
          <Trackpoint>
            <Time>2020-12-05T14:39:33.000Z</Time>
            <Position>
              <LatitudeDegrees>36.79537751711905002593994140625</LatitudeDegrees>
              <LongitudeDegrees>-4.38124953769147396087646484375</LongitudeDegrees>
            </Position>
            <AltitudeMeters>726</AltitudeMeters>
            <DistanceMeters>NAN</DistanceMeters>
          </Trackpoint>
          <Trackpoint>
            <Time>2020-12-05T14:39:34.000Z</Time>
            <Position>
              <LatitudeDegrees>36.7953692190349102020263671875</LatitudeDegrees>
              <LongitudeDegrees>-4.38124819658696651458740234375</LongitudeDegrees>
            </Position>
            <AltitudeMeters>726</AltitudeMeters>
            <DistanceMeters>NAN</DistanceMeters>
          </Trackpoint>
          <Trackpoint>
            <Time>2020-12-05T14:39:35.000Z</Time>
            <Position>
              <LatitudeDegrees>36.795361340045928955078125</LatitudeDegrees>
              <LongitudeDegrees>-4.38124970532953739166259765625</LongitudeDegrees>
            </Position>
            <AltitudeMeters>725.79998779296875</AltitudeMeters>
            <DistanceMeters>NAN</DistanceMeters>
          </Trackpoint>
          <Trackpoint>
            <Time>2020-12-05T14:39:36.000Z</Time>
            <Position>
              <LatitudeDegrees>36.7953517846763134002685546875</LatitudeDegrees>
              <LongitudeDegrees>-4.3812541477382183074951171875</LongitudeDegrees>
            </Position>
            <AltitudeMeters>725.79998779296875</AltitudeMeters>
            <DistanceMeters>NAN</DistanceMeters>
          </Trackpoint>
          <Trackpoint>
            <Time>2020-12-05T14:39:37.000Z</Time>
            <Position>
              <LatitudeDegrees>36.79534080438315868377685546875</LatitudeDegrees>
              <LongitudeDegrees>-4.38125775195658206939697265625</LongitudeDegrees>
            </Position>
            <AltitudeMeters>725.5999755859375</AltitudeMeters>
            <DistanceMeters>NAN</DistanceMeters>
          </Trackpoint>
          <Trackpoint>
            <Time>2020-12-05T14:39:38.000Z</Time>
            <Position>
              <LatitudeDegrees>36.7953276447951793670654296875</LatitudeDegrees>
              <LongitudeDegrees>-4.3812598474323749542236328125</LongitudeDegrees>
            </Position>
            <AltitudeMeters>725.5999755859375</AltitudeMeters>
            <DistanceMeters>NAN</DistanceMeters>
          </Trackpoint>
          <Trackpoint>
            <Time>2020-12-05T14:39:39.000Z</Time>
            <Position>
              <LatitudeDegrees>36.79531213827431201934814453125</LatitudeDegrees>
              <LongitudeDegrees>-4.38126127235591411590576171875</LongitudeDegrees>
            </Position>
            <AltitudeMeters>725.20001220703125</AltitudeMeters>
            <DistanceMeters>NAN</DistanceMeters>
          </Trackpoint>
          <Trackpoint>
            <Time>2020-12-05T14:39:40.000Z</Time>
            <Position>
              <LatitudeDegrees>36.79529906250536441802978515625</LatitudeDegrees>
              <LongitudeDegrees>-4.3812608532607555389404296875</LongitudeDegrees>
            </Position>
            <AltitudeMeters>725</AltitudeMeters>
            <DistanceMeters>NAN</DistanceMeters>
          </Trackpoint>
          <Trackpoint>
            <Time>2020-12-05T14:39:41.000Z</Time>
            <Position>
              <LatitudeDegrees>36.7952894233167171478271484375</LatitudeDegrees>
              <LongitudeDegrees>-4.3812628649175167083740234375</LongitudeDegrees>
            </Position>
            <AltitudeMeters>724.5999755859375</AltitudeMeters>
            <DistanceMeters>NAN</DistanceMeters>
          </Trackpoint>
          <Trackpoint>
            <Time>2020-12-05T14:39:42.000Z</Time>
            <Position>
              <LatitudeDegrees>36.7952843941748142242431640625</LatitudeDegrees>
              <LongitudeDegrees>-4.38126571476459503173828125</LongitudeDegrees>
            </Position>
            <AltitudeMeters>724.4000244140625</AltitudeMeters>
            <DistanceMeters>NAN</DistanceMeters>
          </Trackpoint>
          <Trackpoint>
            <Time>2020-12-05T14:39:43.000Z</Time>
            <Position>
              <LatitudeDegrees>36.795279197394847869873046875</LatitudeDegrees>
              <LongitudeDegrees>-4.3812675587832927703857421875</LongitudeDegrees>
            </Position>
            <AltitudeMeters>724.20001220703125</AltitudeMeters>
            <DistanceMeters>NAN</DistanceMeters>
          </Trackpoint>
          <Trackpoint>
            <Time>2020-12-05T14:39:44.000Z</Time>
            <Position>
              <LatitudeDegrees>36.79527291096746921539306640625</LatitudeDegrees>
              <LongitudeDegrees>-4.381268732249736785888671875</LongitudeDegrees>
            </Position>
            <AltitudeMeters>724</AltitudeMeters>
            <DistanceMeters>NAN</DistanceMeters>
          </Trackpoint>
          <Trackpoint>
            <Time>2020-12-05T14:39:45.000Z</Time>
            <Position>
              <LatitudeDegrees>36.79526410996913909912109375</LatitudeDegrees>
              <LongitudeDegrees>-4.38127317465841770172119140625</LongitudeDegrees>
            </Position>
            <AltitudeMeters>724</AltitudeMeters>
            <DistanceMeters>NAN</DistanceMeters>
          </Trackpoint>
          <Trackpoint>
            <Time>2020-12-05T14:39:46.000Z</Time>
            <Position>
              <LatitudeDegrees>36.79525380022823810577392578125</LatitudeDegrees>
              <LongitudeDegrees>-4.381280131638050079345703125</LongitudeDegrees>
            </Position>
            <AltitudeMeters>724</AltitudeMeters>
            <DistanceMeters>NAN</DistanceMeters>
          </Trackpoint>
          <Trackpoint>
            <Time>2020-12-05T14:39:47.000Z</Time>
            <Position>
              <LatitudeDegrees>36.79524290375411510467529296875</LatitudeDegrees>
              <LongitudeDegrees>-4.3812910281121730804443359375</LongitudeDegrees>
            </Position>
            <AltitudeMeters>724</AltitudeMeters>
            <DistanceMeters>NAN</DistanceMeters>
          </Trackpoint>
          <Trackpoint>
            <Time>2020-12-05T14:39:48.000Z</Time>
            <Position>
              <LatitudeDegrees>36.795232594013214111328125</LatitudeDegrees>
              <LongitudeDegrees>-4.38131005503237247467041015625</LongitudeDegrees>
            </Position>
            <AltitudeMeters>724</AltitudeMeters>
            <DistanceMeters>NAN</DistanceMeters>
          </Trackpoint>
          <Trackpoint>
            <Time>2020-12-05T14:39:49.000Z</Time>
            <Position>
              <LatitudeDegrees>36.79521608166396617889404296875</LatitudeDegrees>
              <LongitudeDegrees>-4.381309635937213897705078125</LongitudeDegrees>
            </Position>
            <AltitudeMeters>724</AltitudeMeters>
            <DistanceMeters>NAN</DistanceMeters>
          </Trackpoint>
          <Trackpoint>
            <Time>2020-12-05T14:39:50.000Z</Time>
            <Position>
              <LatitudeDegrees>36.79519764147698879241943359375</LatitudeDegrees>
              <LongitudeDegrees>-4.38131072558462619781494140625</LongitudeDegrees>
            </Position>
            <AltitudeMeters>723.79998779296875</AltitudeMeters>
            <DistanceMeters>NAN</DistanceMeters>
          </Trackpoint>
          <Trackpoint>
            <Time>2020-12-05T14:39:51.000Z</Time>
            <Position>
              <LatitudeDegrees>36.79518121294677257537841796875</LatitudeDegrees>
              <LongitudeDegrees>-4.38131156377494335174560546875</LongitudeDegrees>
            </Position>
            <AltitudeMeters>724</AltitudeMeters>
            <DistanceMeters>NAN</DistanceMeters>
          </Trackpoint>
          <Trackpoint>
            <Time>2020-12-05T14:39:52.000Z</Time>
            <Position>
              <LatitudeDegrees>36.79516226984560489654541015625</LatitudeDegrees>
              <LongitudeDegrees>-4.38131609000265598297119140625</LongitudeDegrees>
            </Position>
            <AltitudeMeters>723.5999755859375</AltitudeMeters>
            <DistanceMeters>NAN</DistanceMeters>
          </Trackpoint>
          <Trackpoint>
            <Time>2020-12-05T14:39:53.000Z</Time>
            <Position>
              <LatitudeDegrees>36.79514349438250064849853515625</LatitudeDegrees>
              <LongitudeDegrees>-4.38132329843938350677490234375</LongitudeDegrees>
            </Position>
            <AltitudeMeters>723.4000244140625</AltitudeMeters>
            <DistanceMeters>NAN</DistanceMeters>
          </Trackpoint>
          <Trackpoint>
            <Time>2020-12-05T14:39:54.000Z</Time>
            <Position>
              <LatitudeDegrees>36.79512999951839447021484375</LatitudeDegrees>
              <LongitudeDegrees>-4.38132665120065212249755859375</LongitudeDegrees>
            </Position>
            <AltitudeMeters>723.20001220703125</AltitudeMeters>
            <DistanceMeters>NAN</DistanceMeters>
          </Trackpoint>
          <Trackpoint>
            <Time>2020-12-05T14:39:55.000Z</Time>
            <Position>
              <LatitudeDegrees>36.7951147444546222686767578125</LatitudeDegrees>
              <LongitudeDegrees>-4.3813319317996501922607421875</LongitudeDegrees>
            </Position>
            <AltitudeMeters>723</AltitudeMeters>
            <DistanceMeters>NAN</DistanceMeters>
          </Trackpoint>
          <Trackpoint>
            <Time>2020-12-05T14:39:56.000Z</Time>
            <Position>
              <LatitudeDegrees>36.79509772919118404388427734375</LatitudeDegrees>
              <LongitudeDegrees>-4.38133989460766315460205078125</LongitudeDegrees>
            </Position>
            <AltitudeMeters>722.79998779296875</AltitudeMeters>
            <DistanceMeters>NAN</DistanceMeters>
          </Trackpoint>
          <Trackpoint>
            <Time>2020-12-05T14:39:57.000Z</Time>
            <Position>
              <LatitudeDegrees>36.79508213885128498077392578125</LatitudeDegrees>
              <LongitudeDegrees>-4.3813473545014858245849609375</LongitudeDegrees>
            </Position>
            <AltitudeMeters>722.5999755859375</AltitudeMeters>
            <DistanceMeters>NAN</DistanceMeters>
          </Trackpoint>
          <Trackpoint>
            <Time>2020-12-05T14:39:58.000Z</Time>
            <Position>
              <LatitudeDegrees>36.79506738670170307159423828125</LatitudeDegrees>
              <LongitudeDegrees>-4.381351210176944732666015625</LongitudeDegrees>
            </Position>
            <AltitudeMeters>722.4000244140625</AltitudeMeters>
            <DistanceMeters>NAN</DistanceMeters>
          </Trackpoint>
          <Trackpoint>
            <Time>2020-12-05T14:39:59.000Z</Time>
            <Position>
              <LatitudeDegrees>36.7950530536472797393798828125</LatitudeDegrees>
              <LongitudeDegrees>-4.3813560716807842254638671875</LongitudeDegrees>
            </Position>
            <AltitudeMeters>722.4000244140625</AltitudeMeters>
            <DistanceMeters>NAN</DistanceMeters>
          </Trackpoint>
          <Trackpoint>
            <Time>2020-12-05T14:40:00.000Z</Time>
            <Position>
              <LatitudeDegrees>36.7950416542589664459228515625</LatitudeDegrees>
              <LongitudeDegrees>-4.381359256803989410400390625</LongitudeDegrees>
            </Position>
            <AltitudeMeters>722</AltitudeMeters>
            <DistanceMeters>NAN</DistanceMeters>
          </Trackpoint>
          <Trackpoint>
            <Time>2020-12-05T14:40:01.000Z</Time>
            <Position>
              <LatitudeDegrees>36.79502832703292369842529296875</LatitudeDegrees>
              <LongitudeDegrees>-4.3813627772033214569091796875</LongitudeDegrees>
            </Position>
            <AltitudeMeters>722</AltitudeMeters>
            <DistanceMeters>NAN</DistanceMeters>
          </Trackpoint>
          <Trackpoint>
            <Time>2020-12-05T14:40:02.000Z</Time>
            <Position>
              <LatitudeDegrees>36.79501407779753208160400390625</LatitudeDegrees>
              <LongitudeDegrees>-4.3813661299645900726318359375</LongitudeDegrees>
            </Position>
            <AltitudeMeters>721.79998779296875</AltitudeMeters>
            <DistanceMeters>NAN</DistanceMeters>
          </Trackpoint>
          <Trackpoint>
            <Time>2020-12-05T14:40:03.000Z</Time>
            <Position>
              <LatitudeDegrees>36.79500049911439418792724609375</LatitudeDegrees>
              <LongitudeDegrees>-4.381371326744556427001953125</LongitudeDegrees>
            </Position>
            <AltitudeMeters>721.79998779296875</AltitudeMeters>
            <DistanceMeters>NAN</DistanceMeters>
          </Trackpoint>
          <Trackpoint>
            <Time>2020-12-05T14:40:04.000Z</Time>
            <Position>
              <LatitudeDegrees>36.794987507164478302001953125</LatitudeDegrees>
              <LongitudeDegrees>-4.3813785351812839508056640625</LongitudeDegrees>
            </Position>
            <AltitudeMeters>721.79998779296875</AltitudeMeters>
            <DistanceMeters>NAN</DistanceMeters>
          </Trackpoint>
          <Trackpoint>
            <Time>2020-12-05T14:40:05.000Z</Time>
            <Position>
              <LatitudeDegrees>36.7949759401381015777587890625</LatitudeDegrees>
              <LongitudeDegrees>-4.3813844025135040283203125</LongitudeDegrees>
            </Position>
            <AltitudeMeters>721.79998779296875</AltitudeMeters>
            <DistanceMeters>NAN</DistanceMeters>
          </Trackpoint>
          <Trackpoint>
            <Time>2020-12-05T14:40:06.000Z</Time>
            <Position>
              <LatitudeDegrees>36.79496613331139087677001953125</LatitudeDegrees>
              <LongitudeDegrees>-4.38138767145574092864990234375</LongitudeDegrees>
            </Position>
            <AltitudeMeters>721.79998779296875</AltitudeMeters>
            <DistanceMeters>NAN</DistanceMeters>
          </Trackpoint>
          <Trackpoint>
            <Time>2020-12-05T14:40:07.000Z</Time>
            <Position>
              <LatitudeDegrees>36.794955991208553314208984375</LatitudeDegrees>
              <LongitudeDegrees>-4.3813909403979778289794921875</LongitudeDegrees>
            </Position>
            <AltitudeMeters>721.79998779296875</AltitudeMeters>
            <DistanceMeters>NAN</DistanceMeters>
          </Trackpoint>
          <Trackpoint>
            <Time>2020-12-05T14:40:08.000Z</Time>
            <Position>
              <LatitudeDegrees>36.7949469387531280517578125</LatitudeDegrees>
              <LongitudeDegrees>-4.38139789737761020660400390625</LongitudeDegrees>
            </Position>
            <AltitudeMeters>721.79998779296875</AltitudeMeters>
            <DistanceMeters>NAN</DistanceMeters>
          </Trackpoint>
          <Trackpoint>
            <Time>2020-12-05T14:40:09.000Z</Time>
            <Position>
              <LatitudeDegrees>36.7949373833835124969482421875</LatitudeDegrees>
              <LongitudeDegrees>-4.3814066983759403228759765625</LongitudeDegrees>
            </Position>
            <AltitudeMeters>721.79998779296875</AltitudeMeters>
            <DistanceMeters>NAN</DistanceMeters>
          </Trackpoint>
          <Trackpoint>
            <Time>2020-12-05T14:40:10.000Z</Time>
            <Position>
              <LatitudeDegrees>36.794928498566150665283203125</LatitudeDegrees>
              <LongitudeDegrees>-4.3814154155552387237548828125</LongitudeDegrees>
            </Position>
            <AltitudeMeters>721.5999755859375</AltitudeMeters>
            <DistanceMeters>NAN</DistanceMeters>
          </Trackpoint>
          <Trackpoint>
            <Time>2020-12-05T14:40:11.000Z</Time>
            <Position>
              <LatitudeDegrees>36.79492003284394741058349609375</LatitudeDegrees>
              <LongitudeDegrees>-4.38142539002001285552978515625</LongitudeDegrees>
            </Position>
            <AltitudeMeters>721.20001220703125</AltitudeMeters>
            <DistanceMeters>NAN</DistanceMeters>
          </Trackpoint>
          <Trackpoint>
            <Time>2020-12-05T14:40:12.000Z</Time>
            <Position>
              <LatitudeDegrees>36.7949115671217441558837890625</LatitudeDegrees>
              <LongitudeDegrees>-4.3814382143318653106689453125</LongitudeDegrees>
            </Position>
            <AltitudeMeters>721</AltitudeMeters>
            <DistanceMeters>NAN</DistanceMeters>
          </Trackpoint>
          <Trackpoint>
            <Time>2020-12-05T14:40:13.000Z</Time>
            <Position>
              <LatitudeDegrees>36.794901005923748016357421875</LatitudeDegrees>
              <LongitudeDegrees>-4.38144944608211517333984375</LongitudeDegrees>
            </Position>
            <AltitudeMeters>720.79998779296875</AltitudeMeters>
            <DistanceMeters>NAN</DistanceMeters>
          </Trackpoint>
          <Trackpoint>
            <Time>2020-12-05T14:40:14.000Z</Time>
            <Position>
              <LatitudeDegrees>36.794889606535434722900390625</LatitudeDegrees>
              <LongitudeDegrees>-4.38145992346107959747314453125</LongitudeDegrees>
            </Position>
            <AltitudeMeters>720.79998779296875</AltitudeMeters>
            <DistanceMeters>NAN</DistanceMeters>
          </Trackpoint>
          <Trackpoint>
            <Time>2020-12-05T14:40:15.000Z</Time>
            <Position>
              <LatitudeDegrees>36.79487787187099456787109375</LatitudeDegrees>
              <LongitudeDegrees>-4.38146981410682201385498046875</LongitudeDegrees>
            </Position>
            <AltitudeMeters>720.5999755859375</AltitudeMeters>
            <DistanceMeters>NAN</DistanceMeters>
          </Trackpoint>
          <Trackpoint>
            <Time>2020-12-05T14:40:16.000Z</Time>
            <Position>
              <LatitudeDegrees>36.7948669753968715667724609375</LatitudeDegrees>
              <LongitudeDegrees>-4.38147962093353271484375</LongitudeDegrees>
            </Position>
            <AltitudeMeters>720.5999755859375</AltitudeMeters>
            <DistanceMeters>NAN</DistanceMeters>
          </Trackpoint>
          <Trackpoint>
            <Time>2020-12-05T14:40:17.000Z</Time>
            <Position>
              <LatitudeDegrees>36.7948557436466217041015625</LatitudeDegrees>
              <LongitudeDegrees>-4.381490685045719146728515625</LongitudeDegrees>
            </Position>
            <AltitudeMeters>720.4000244140625</AltitudeMeters>
            <DistanceMeters>NAN</DistanceMeters>
          </Trackpoint>
          <Trackpoint>
            <Time>2020-12-05T14:40:18.000Z</Time>
            <Position>
              <LatitudeDegrees>36.79484526626765727996826171875</LatitudeDegrees>
              <LongitudeDegrees>-4.38150133006274700164794921875</LongitudeDegrees>
            </Position>
            <AltitudeMeters>720.4000244140625</AltitudeMeters>
            <DistanceMeters>NAN</DistanceMeters>
          </Trackpoint>
          <Trackpoint>
            <Time>2020-12-05T14:40:19.000Z</Time>
            <Position>
              <LatitudeDegrees>36.7948331125080585479736328125</LatitudeDegrees>
              <LongitudeDegrees>-4.38151624985039234161376953125</LongitudeDegrees>
            </Position>
            <AltitudeMeters>720.4000244140625</AltitudeMeters>
            <DistanceMeters>NAN</DistanceMeters>
          </Trackpoint>
          <Trackpoint>
            <Time>2020-12-05T14:40:20.000Z</Time>
            <Position>
              <LatitudeDegrees>36.79482162930071353912353515625</LatitudeDegrees>
              <LongitudeDegrees>-4.38153125345706939697265625</LongitudeDegrees>
            </Position>
            <AltitudeMeters>720.4000244140625</AltitudeMeters>
            <DistanceMeters>NAN</DistanceMeters>
          </Trackpoint>
          <Trackpoint>
            <Time>2020-12-05T14:40:21.000Z</Time>
            <Position>
              <LatitudeDegrees>36.79480939172208309173583984375</LatitudeDegrees>
              <LongitudeDegrees>-4.38154307194054126739501953125</LongitudeDegrees>
            </Position>
            <AltitudeMeters>720.20001220703125</AltitudeMeters>
            <DistanceMeters>NAN</DistanceMeters>
          </Trackpoint>
          <Trackpoint>
            <Time>2020-12-05T14:40:22.000Z</Time>
            <Position>
              <LatitudeDegrees>36.79479447193443775177001953125</LatitudeDegrees>
              <LongitudeDegrees>-4.38155514188110828399658203125</LongitudeDegrees>
            </Position>
            <AltitudeMeters>719.79998779296875</AltitudeMeters>
            <DistanceMeters>NAN</DistanceMeters>
          </Trackpoint>
          <Trackpoint>
            <Time>2020-12-05T14:40:23.000Z</Time>
            <Position>
              <LatitudeDegrees>36.79477686993777751922607421875</LatitudeDegrees>
              <LongitudeDegrees>-4.38156637363135814666748046875</LongitudeDegrees>
            </Position>
            <AltitudeMeters>719.79998779296875</AltitudeMeters>
            <DistanceMeters>NAN</DistanceMeters>
          </Trackpoint>
          <Trackpoint>
            <Time>2020-12-05T14:40:24.000Z</Time>
            <Position>
              <LatitudeDegrees>36.7947593517601490020751953125</LatitudeDegrees>
              <LongitudeDegrees>-4.38158011995255947113037109375</LongitudeDegrees>
            </Position>
            <AltitudeMeters>719.79998779296875</AltitudeMeters>
            <DistanceMeters>NAN</DistanceMeters>
          </Trackpoint>
          <Trackpoint>
            <Time>2020-12-05T14:40:25.000Z</Time>
            <Position>
              <LatitudeDegrees>36.794743426144123077392578125</LatitudeDegrees>
              <LongitudeDegrees>-4.3815897591412067413330078125</LongitudeDegrees>
            </Position>
            <AltitudeMeters>719.79998779296875</AltitudeMeters>
            <DistanceMeters>NAN</DistanceMeters>
          </Trackpoint>
          <Trackpoint>
            <Time>2020-12-05T14:40:26.000Z</Time>
            <Position>
              <LatitudeDegrees>36.79472900927066802978515625</LatitudeDegrees>
              <LongitudeDegrees>-4.38159738667309284210205078125</LongitudeDegrees>
            </Position>
            <AltitudeMeters>719.5999755859375</AltitudeMeters>
            <DistanceMeters>NAN</DistanceMeters>
          </Trackpoint>
          <Trackpoint>
            <Time>2020-12-05T14:40:27.000Z</Time>
            <Position>
              <LatitudeDegrees>36.79471702314913272857666015625</LatitudeDegrees>
              <LongitudeDegrees>-4.3816024996340274810791015625</LongitudeDegrees>
            </Position>
            <AltitudeMeters>719.4000244140625</AltitudeMeters>
            <DistanceMeters>NAN</DistanceMeters>
          </Trackpoint>
          <Trackpoint>
            <Time>2020-12-05T14:40:28.000Z</Time>
            <Position>
              <LatitudeDegrees>36.7947055399417877197265625</LatitudeDegrees>
              <LongitudeDegrees>-4.38160710968077182769775390625</LongitudeDegrees>
            </Position>
            <AltitudeMeters>719.4000244140625</AltitudeMeters>
            <DistanceMeters>NAN</DistanceMeters>
          </Trackpoint>
          <Trackpoint>
            <Time>2020-12-05T14:40:29.000Z</Time>
            <Position>
              <LatitudeDegrees>36.79469673894345760345458984375</LatitudeDegrees>
              <LongitudeDegrees>-4.38161364756524562835693359375</LongitudeDegrees>
            </Position>
            <AltitudeMeters>719</AltitudeMeters>
            <DistanceMeters>NAN</DistanceMeters>
          </Trackpoint>
          <Trackpoint>
            <Time>2020-12-05T14:40:30.000Z</Time>
            <Position>
              <LatitudeDegrees>36.794687099754810333251953125</LatitudeDegrees>
              <LongitudeDegrees>-4.38162219710648059844970703125</LongitudeDegrees>
            </Position>
            <AltitudeMeters>718.5999755859375</AltitudeMeters>
            <DistanceMeters>NAN</DistanceMeters>
          </Trackpoint>
          <Trackpoint>
            <Time>2020-12-05T14:40:31.000Z</Time>
            <Position>
              <LatitudeDegrees>36.79467679001390933990478515625</LatitudeDegrees>
              <LongitudeDegrees>-4.38163057900965213775634765625</LongitudeDegrees>
            </Position>
            <AltitudeMeters>718.4000244140625</AltitudeMeters>
            <DistanceMeters>NAN</DistanceMeters>
          </Trackpoint>
          <Trackpoint>
            <Time>2020-12-05T14:40:32.000Z</Time>
            <Position>
              <LatitudeDegrees>36.79466488771140575408935546875</LatitudeDegrees>
              <LongitudeDegrees>-4.381639547646045684814453125</LongitudeDegrees>
            </Position>
            <AltitudeMeters>718.20001220703125</AltitudeMeters>
            <DistanceMeters>NAN</DistanceMeters>
          </Trackpoint>
          <Trackpoint>
            <Time>2020-12-05T14:40:33.000Z</Time>
            <Position>
              <LatitudeDegrees>36.79465365596115589141845703125</LatitudeDegrees>
              <LongitudeDegrees>-4.38164600171148777008056640625</LongitudeDegrees>
            </Position>
            <AltitudeMeters>718.20001220703125</AltitudeMeters>
            <DistanceMeters>NAN</DistanceMeters>
          </Trackpoint>
          <Trackpoint>
            <Time>2020-12-05T14:40:34.000Z</Time>
            <Position>
              <LatitudeDegrees>36.7946396581828594207763671875</LatitudeDegrees>
              <LongitudeDegrees>-4.38164935447275638580322265625</LongitudeDegrees>
            </Position>
            <AltitudeMeters>718</AltitudeMeters>
            <DistanceMeters>NAN</DistanceMeters>
          </Trackpoint>
          <Trackpoint>
            <Time>2020-12-05T14:40:35.000Z</Time>
            <Position>
              <LatitudeDegrees>36.79462431930005550384521484375</LatitudeDegrees>
              <LongitudeDegrees>-4.38164968974888324737548828125</LongitudeDegrees>
            </Position>
            <AltitudeMeters>718</AltitudeMeters>
            <DistanceMeters>NAN</DistanceMeters>
          </Trackpoint>
          <Trackpoint>
            <Time>2020-12-05T14:40:36.000Z</Time>
            <Position>
              <LatitudeDegrees>36.79460688494145870208740234375</LatitudeDegrees>
              <LongitudeDegrees>-4.38164851628243923187255859375</LongitudeDegrees>
            </Position>
            <AltitudeMeters>718</AltitudeMeters>
            <DistanceMeters>NAN</DistanceMeters>
          </Trackpoint>
          <Trackpoint>
            <Time>2020-12-05T14:40:37.000Z</Time>
            <Position>
              <LatitudeDegrees>36.794589199125766754150390625</LatitudeDegrees>
              <LongitudeDegrees>-4.38164181075990200042724609375</LongitudeDegrees>
            </Position>
            <AltitudeMeters>718</AltitudeMeters>
            <DistanceMeters>NAN</DistanceMeters>
          </Trackpoint>
          <Trackpoint>
            <Time>2020-12-05T14:40:38.000Z</Time>
            <Position>
              <LatitudeDegrees>36.79457478225231170654296875</LatitudeDegrees>
              <LongitudeDegrees>-4.38164466060698032379150390625</LongitudeDegrees>
            </Position>
            <AltitudeMeters>718</AltitudeMeters>
            <DistanceMeters>NAN</DistanceMeters>
          </Trackpoint>
          <Trackpoint>
            <Time>2020-12-05T14:40:39.000Z</Time>
            <Position>
              <LatitudeDegrees>36.79456044919788837432861328125</LatitudeDegrees>
              <LongitudeDegrees>-4.38164524734020233154296875</LongitudeDegrees>
            </Position>
            <AltitudeMeters>718</AltitudeMeters>
            <DistanceMeters>NAN</DistanceMeters>
          </Trackpoint>
          <Trackpoint>
            <Time>2020-12-05T14:40:40.000Z</Time>
            <Position>
              <LatitudeDegrees>36.79454469121992588043212890625</LatitudeDegrees>
              <LongitudeDegrees>-4.381654299795627593994140625</LongitudeDegrees>
            </Position>
            <AltitudeMeters>718</AltitudeMeters>
            <DistanceMeters>NAN</DistanceMeters>
          </Trackpoint>
          <Trackpoint>
            <Time>2020-12-05T14:40:41.000Z</Time>
            <Position>
              <LatitudeDegrees>36.7945306934416294097900390625</LatitudeDegrees>
              <LongitudeDegrees>-4.38166528008878231048583984375</LongitudeDegrees>
            </Position>
            <AltitudeMeters>718</AltitudeMeters>
            <DistanceMeters>NAN</DistanceMeters>
          </Trackpoint>
          <Trackpoint>
            <Time>2020-12-05T14:40:42.000Z</Time>
            <Position>
              <LatitudeDegrees>36.794520132243633270263671875</LatitudeDegrees>
              <LongitudeDegrees>-4.3816732428967952728271484375</LongitudeDegrees>
            </Position>
            <AltitudeMeters>717.79998779296875</AltitudeMeters>
            <DistanceMeters>NAN</DistanceMeters>
          </Trackpoint>
          <Trackpoint>
            <Time>2020-12-05T14:40:43.000Z</Time>
            <Position>
              <LatitudeDegrees>36.79451216943562030792236328125</LatitudeDegrees>
              <LongitudeDegrees>-4.38168003223836421966552734375</LongitudeDegrees>
            </Position>
            <AltitudeMeters>717.79998779296875</AltitudeMeters>
            <DistanceMeters>NAN</DistanceMeters>
          </Trackpoint>
          <Trackpoint>
            <Time>2020-12-05T14:40:44.000Z</Time>
            <Position>
              <LatitudeDegrees>36.79450412280857563018798828125</LatitudeDegrees>
              <LongitudeDegrees>-4.38168791122734546661376953125</LongitudeDegrees>
            </Position>
            <AltitudeMeters>717.5999755859375</AltitudeMeters>
            <DistanceMeters>NAN</DistanceMeters>
          </Trackpoint>
          <Trackpoint>
            <Time>2020-12-05T14:40:45.000Z</Time>
            <Position>
              <LatitudeDegrees>36.79449222050607204437255859375</LatitudeDegrees>
              <LongitudeDegrees>-4.381695874035358428955078125</LongitudeDegrees>
            </Position>
            <AltitudeMeters>717.4000244140625</AltitudeMeters>
            <DistanceMeters>NAN</DistanceMeters>
          </Trackpoint>
          <Trackpoint>
            <Time>2020-12-05T14:40:46.000Z</Time>
            <Position>
              <LatitudeDegrees>36.7944780550897121429443359375</LatitudeDegrees>
              <LongitudeDegrees>-4.38170316629111766815185546875</LongitudeDegrees>
            </Position>
            <AltitudeMeters>717.20001220703125</AltitudeMeters>
            <DistanceMeters>NAN</DistanceMeters>
          </Trackpoint>
          <Trackpoint>
            <Time>2020-12-05T14:40:47.000Z</Time>
            <Position>
              <LatitudeDegrees>36.79446481168270111083984375</LatitudeDegrees>
              <LongitudeDegrees>-4.38171096146106719970703125</LongitudeDegrees>
            </Position>
            <AltitudeMeters>717</AltitudeMeters>
            <DistanceMeters>NAN</DistanceMeters>
          </Trackpoint>
          <Trackpoint>
            <Time>2020-12-05T14:40:48.000Z</Time>
            <Position>
              <LatitudeDegrees>36.79445466957986354827880859375</LatitudeDegrees>
              <LongitudeDegrees>-4.381715320050716400146484375</LongitudeDegrees>
            </Position>
            <AltitudeMeters>716.79998779296875</AltitudeMeters>
            <DistanceMeters>NAN</DistanceMeters>
          </Trackpoint>
          <Trackpoint>
            <Time>2020-12-05T14:40:49.000Z</Time>
            <Position>
              <LatitudeDegrees>36.7944428510963916778564453125</LatitudeDegrees>
              <LongitudeDegrees>-4.38172194175422191619873046875</LongitudeDegrees>
            </Position>
            <AltitudeMeters>716.5999755859375</AltitudeMeters>
            <DistanceMeters>NAN</DistanceMeters>
          </Trackpoint>
          <Trackpoint>
            <Time>2020-12-05T14:40:50.000Z</Time>
            <Position>
              <LatitudeDegrees>36.79443170316517353057861328125</LatitudeDegrees>
              <LongitudeDegrees>-4.38172546215355396270751953125</LongitudeDegrees>
            </Position>
            <AltitudeMeters>716.5999755859375</AltitudeMeters>
            <DistanceMeters>NAN</DistanceMeters>
          </Trackpoint>
          <Trackpoint>
            <Time>2020-12-05T14:40:51.000Z</Time>
            <Position>
              <LatitudeDegrees>36.79442298598587512969970703125</LatitudeDegrees>
              <LongitudeDegrees>-4.38173367641866207122802734375</LongitudeDegrees>
            </Position>
            <AltitudeMeters>716.5999755859375</AltitudeMeters>
            <DistanceMeters>NAN</DistanceMeters>
          </Trackpoint>
          <Trackpoint>
            <Time>2020-12-05T14:40:52.000Z</Time>
            <Position>
              <LatitudeDegrees>36.79441343061625957489013671875</LatitudeDegrees>
              <LongitudeDegrees>-4.38173652626574039459228515625</LongitudeDegrees>
            </Position>
            <AltitudeMeters>716.5999755859375</AltitudeMeters>
            <DistanceMeters>NAN</DistanceMeters>
          </Trackpoint>
          <Trackpoint>
            <Time>2020-12-05T14:40:53.000Z</Time>
            <Position>
              <LatitudeDegrees>36.7944046296179294586181640625</LatitudeDegrees>
              <LongitudeDegrees>-4.38173820264637470245361328125</LongitudeDegrees>
            </Position>
            <AltitudeMeters>716.5999755859375</AltitudeMeters>
            <DistanceMeters>NAN</DistanceMeters>
          </Trackpoint>
          <Trackpoint>
            <Time>2020-12-05T14:40:54.000Z</Time>
            <Position>
              <LatitudeDegrees>36.7943970859050750732421875</LatitudeDegrees>
              <LongitudeDegrees>-4.3817379511892795562744140625</LongitudeDegrees>
            </Position>
            <AltitudeMeters>716.5999755859375</AltitudeMeters>
            <DistanceMeters>NAN</DistanceMeters>
          </Trackpoint>
          <Trackpoint>
            <Time>2020-12-05T14:40:55.000Z</Time>
            <Position>
              <LatitudeDegrees>36.79438711144030094146728515625</LatitudeDegrees>
              <LongitudeDegrees>-4.38173853792250156402587890625</LongitudeDegrees>
            </Position>
            <AltitudeMeters>716.4000244140625</AltitudeMeters>
            <DistanceMeters>NAN</DistanceMeters>
          </Trackpoint>
          <Trackpoint>
            <Time>2020-12-05T14:40:56.000Z</Time>
            <Position>
              <LatitudeDegrees>36.79437822662293910980224609375</LatitudeDegrees>
              <LongitudeDegrees>-4.38173971138894557952880859375</LongitudeDegrees>
            </Position>
            <AltitudeMeters>716.4000244140625</AltitudeMeters>
            <DistanceMeters>NAN</DistanceMeters>
          </Trackpoint>
          <Trackpoint>
            <Time>2020-12-05T14:40:57.000Z</Time>
            <Position>
              <LatitudeDegrees>36.7943717725574970245361328125</LatitudeDegrees>
              <LongitudeDegrees>-4.38174314796924591064453125</LongitudeDegrees>
            </Position>
            <AltitudeMeters>716.20001220703125</AltitudeMeters>
            <DistanceMeters>NAN</DistanceMeters>
          </Trackpoint>
          <Trackpoint>
            <Time>2020-12-05T14:40:58.000Z</Time>
            <Position>
              <LatitudeDegrees>36.794362552464008331298828125</LatitudeDegrees>
              <LongitudeDegrees>-4.38174004666507244110107421875</LongitudeDegrees>
            </Position>
            <AltitudeMeters>716.20001220703125</AltitudeMeters>
            <DistanceMeters>NAN</DistanceMeters>
          </Trackpoint>
          <Trackpoint>
            <Time>2020-12-05T14:40:59.000Z</Time>
            <Position>
              <LatitudeDegrees>36.79435241036117076873779296875</LatitudeDegrees>
              <LongitudeDegrees>-4.3817379511892795562744140625</LongitudeDegrees>
            </Position>
            <AltitudeMeters>716</AltitudeMeters>
            <DistanceMeters>NAN</DistanceMeters>
          </Trackpoint>
          <Trackpoint>
            <Time>2020-12-05T14:41:00.000Z</Time>
            <Position>
              <LatitudeDegrees>36.7943407595157623291015625</LatitudeDegrees>
              <LongitudeDegrees>-4.38174180686473846435546875</LongitudeDegrees>
            </Position>
            <AltitudeMeters>716</AltitudeMeters>
            <DistanceMeters>NAN</DistanceMeters>
          </Trackpoint>
          <Trackpoint>
            <Time>2020-12-05T14:41:01.000Z</Time>
            <Position>
              <LatitudeDegrees>36.794329695403575897216796875</LatitudeDegrees>
              <LongitudeDegrees>-4.3817500211298465728759765625</LongitudeDegrees>
            </Position>
            <AltitudeMeters>716</AltitudeMeters>
            <DistanceMeters>NAN</DistanceMeters>
          </Trackpoint>
          <Trackpoint>
            <Time>2020-12-05T14:41:02.000Z</Time>
            <Position>
              <LatitudeDegrees>36.7943161167204380035400390625</LatitudeDegrees>
              <LongitudeDegrees>-4.3817563913762569427490234375</LongitudeDegrees>
            </Position>
            <AltitudeMeters>716.20001220703125</AltitudeMeters>
            <DistanceMeters>NAN</DistanceMeters>
          </Trackpoint>
          <Trackpoint>
            <Time>2020-12-05T14:41:03.000Z</Time>
            <Position>
              <LatitudeDegrees>36.7943040467798709869384765625</LatitudeDegrees>
              <LongitudeDegrees>-4.3817560561001300811767578125</LongitudeDegrees>
            </Position>
            <AltitudeMeters>716</AltitudeMeters>
            <DistanceMeters>NAN</DistanceMeters>
          </Trackpoint>
          <Trackpoint>
            <Time>2020-12-05T14:41:04.000Z</Time>
            <Position>
              <LatitudeDegrees>36.79429323412477970123291015625</LatitudeDegrees>
              <LongitudeDegrees>-4.38175798393785953521728515625</LongitudeDegrees>
            </Position>
            <AltitudeMeters>716</AltitudeMeters>
            <DistanceMeters>NAN</DistanceMeters>
          </Trackpoint>
          <Trackpoint>
            <Time>2020-12-05T14:41:05.000Z</Time>
            <Position>
              <LatitudeDegrees>36.79428233765065670013427734375</LatitudeDegrees>
              <LongitudeDegrees>-4.381760917603969573974609375</LongitudeDegrees>
            </Position>
            <AltitudeMeters>716</AltitudeMeters>
            <DistanceMeters>NAN</DistanceMeters>
          </Trackpoint>
          <Trackpoint>
            <Time>2020-12-05T14:41:06.000Z</Time>
            <Position>
              <LatitudeDegrees>36.794272027909755706787109375</LatitudeDegrees>
              <LongitudeDegrees>-4.38176183961331844329833984375</LongitudeDegrees>
            </Position>
            <AltitudeMeters>716</AltitudeMeters>
            <DistanceMeters>NAN</DistanceMeters>
          </Trackpoint>
          <Trackpoint>
            <Time>2020-12-05T14:41:07.000Z</Time>
            <Position>
              <LatitudeDegrees>36.79426096379756927490234375</LatitudeDegrees>
              <LongitudeDegrees>-4.3817624263465404510498046875</LongitudeDegrees>
            </Position>
            <AltitudeMeters>715.79998779296875</AltitudeMeters>
            <DistanceMeters>NAN</DistanceMeters>
          </Trackpoint>
          <Trackpoint>
            <Time>2020-12-05T14:41:08.000Z</Time>
            <Position>
              <LatitudeDegrees>36.79424763657152652740478515625</LatitudeDegrees>
              <LongitudeDegrees>-4.3817661143839359283447265625</LongitudeDegrees>
            </Position>
            <AltitudeMeters>715.79998779296875</AltitudeMeters>
            <DistanceMeters>NAN</DistanceMeters>
          </Trackpoint>
          <Trackpoint>
            <Time>2020-12-05T14:41:09.000Z</Time>
            <Position>
              <LatitudeDegrees>36.7942334711551666259765625</LatitudeDegrees>
              <LongitudeDegrees>-4.38176955096423625946044921875</LongitudeDegrees>
            </Position>
            <AltitudeMeters>715.79998779296875</AltitudeMeters>
            <DistanceMeters>NAN</DistanceMeters>
          </Trackpoint>
          <Trackpoint>
            <Time>2020-12-05T14:41:10.000Z</Time>
            <Position>
              <LatitudeDegrees>36.79422047920525074005126953125</LatitudeDegrees>
              <LongitudeDegrees>-4.3817714788019657135009765625</LongitudeDegrees>
            </Position>
            <AltitudeMeters>715.5999755859375</AltitudeMeters>
            <DistanceMeters>NAN</DistanceMeters>
          </Trackpoint>
          <Trackpoint>
            <Time>2020-12-05T14:41:11.000Z</Time>
            <Position>
              <LatitudeDegrees>36.7942093312740325927734375</LatitudeDegrees>
              <LongitudeDegrees>-4.38177022151648998260498046875</LongitudeDegrees>
            </Position>
            <AltitudeMeters>715.4000244140625</AltitudeMeters>
            <DistanceMeters>NAN</DistanceMeters>
          </Trackpoint>
          <Trackpoint>
            <Time>2020-12-05T14:41:12.000Z</Time>
            <Position>
              <LatitudeDegrees>36.79419985972344875335693359375</LatitudeDegrees>
              <LongitudeDegrees>-4.38176862895488739013671875</LongitudeDegrees>
            </Position>
            <AltitudeMeters>715.4000244140625</AltitudeMeters>
            <DistanceMeters>NAN</DistanceMeters>
          </Trackpoint>
          <Trackpoint>
            <Time>2020-12-05T14:41:13.000Z</Time>
            <Position>
              <LatitudeDegrees>36.79418795742094516754150390625</LatitudeDegrees>
              <LongitudeDegrees>-4.38177240081131458282470703125</LongitudeDegrees>
            </Position>
            <AltitudeMeters>715.4000244140625</AltitudeMeters>
            <DistanceMeters>NAN</DistanceMeters>
          </Trackpoint>
          <Trackpoint>
            <Time>2020-12-05T14:41:14.000Z</Time>
            <Position>
              <LatitudeDegrees>36.79417689330875873565673828125</LatitudeDegrees>
              <LongitudeDegrees>-4.38177742995321750640869140625</LongitudeDegrees>
            </Position>
            <AltitudeMeters>715.4000244140625</AltitudeMeters>
            <DistanceMeters>NAN</DistanceMeters>
          </Trackpoint>
          <Trackpoint>
            <Time>2020-12-05T14:41:15.000Z</Time>
            <Position>
              <LatitudeDegrees>36.79416482336819171905517578125</LatitudeDegrees>
              <LongitudeDegrees>-4.3817832134664058685302734375</LongitudeDegrees>
            </Position>
            <AltitudeMeters>715.4000244140625</AltitudeMeters>
            <DistanceMeters>NAN</DistanceMeters>
          </Trackpoint>
          <Trackpoint>
            <Time>2020-12-05T14:41:16.000Z</Time>
            <Position>
              <LatitudeDegrees>36.7941531725227832794189453125</LatitudeDegrees>
              <LongitudeDegrees>-4.3817889131605625152587890625</LongitudeDegrees>
            </Position>
            <AltitudeMeters>715.4000244140625</AltitudeMeters>
            <DistanceMeters>NAN</DistanceMeters>
          </Trackpoint>
          <Trackpoint>
            <Time>2020-12-05T14:41:17.000Z</Time>
            <Position>
              <LatitudeDegrees>36.7941414378583431243896484375</LatitudeDegrees>
              <LongitudeDegrees>-4.38179519958794116973876953125</LongitudeDegrees>
            </Position>
            <AltitudeMeters>715.4000244140625</AltitudeMeters>
            <DistanceMeters>NAN</DistanceMeters>
          </Trackpoint>
          <Trackpoint>
            <Time>2020-12-05T14:41:18.000Z</Time>
            <Position>
              <LatitudeDegrees>36.7941280268132686614990234375</LatitudeDegrees>
              <LongitudeDegrees>-4.3818013183772563934326171875</LongitudeDegrees>
            </Position>
            <AltitudeMeters>715.4000244140625</AltitudeMeters>
            <DistanceMeters>NAN</DistanceMeters>
          </Trackpoint>
          <Trackpoint>
            <Time>2020-12-05T14:41:19.000Z</Time>
            <Position>
              <LatitudeDegrees>36.79411587305366992950439453125</LatitudeDegrees>
              <LongitudeDegrees>-4.38180609606206417083740234375</LongitudeDegrees>
            </Position>
            <AltitudeMeters>715.20001220703125</AltitudeMeters>
            <DistanceMeters>NAN</DistanceMeters>
          </Trackpoint>
          <Trackpoint>
            <Time>2020-12-05T14:41:20.000Z</Time>
            <Position>
              <LatitudeDegrees>36.7941022105515003204345703125</LatitudeDegrees>
              <LongitudeDegrees>-4.38180995173752307891845703125</LongitudeDegrees>
            </Position>
            <AltitudeMeters>715.20001220703125</AltitudeMeters>
            <DistanceMeters>NAN</DistanceMeters>
          </Trackpoint>
          <Trackpoint>
            <Time>2020-12-05T14:41:21.000Z</Time>
            <Position>
              <LatitudeDegrees>36.794088296592235565185546875</LatitudeDegrees>
              <LongitudeDegrees>-4.38181288540363311767578125</LongitudeDegrees>
            </Position>
            <AltitudeMeters>715</AltitudeMeters>
            <DistanceMeters>NAN</DistanceMeters>
          </Trackpoint>
          <Trackpoint>
            <Time>2020-12-05T14:41:22.000Z</Time>
            <Position>
              <LatitudeDegrees>36.794076226651668548583984375</LatitudeDegrees>
              <LongitudeDegrees>-4.38181581906974315643310546875</LongitudeDegrees>
            </Position>
            <AltitudeMeters>714.79998779296875</AltitudeMeters>
            <DistanceMeters>NAN</DistanceMeters>
          </Trackpoint>
          <Trackpoint>
            <Time>2020-12-05T14:41:23.000Z</Time>
            <Position>
              <LatitudeDegrees>36.79406407289206981658935546875</LatitudeDegrees>
              <LongitudeDegrees>-4.38181984238326549530029296875</LongitudeDegrees>
            </Position>
            <AltitudeMeters>714.5999755859375</AltitudeMeters>
            <DistanceMeters>NAN</DistanceMeters>
          </Trackpoint>
          <Trackpoint>
            <Time>2020-12-05T14:41:24.000Z</Time>
            <Position>
              <LatitudeDegrees>36.7940502427518367767333984375</LatitudeDegrees>
              <LongitudeDegrees>-4.38182654790580272674560546875</LongitudeDegrees>
            </Position>
            <AltitudeMeters>714.4000244140625</AltitudeMeters>
            <DistanceMeters>NAN</DistanceMeters>
          </Trackpoint>
          <Trackpoint>
            <Time>2020-12-05T14:41:25.000Z</Time>
            <Position>
              <LatitudeDegrees>36.7940354906022548675537109375</LatitudeDegrees>
              <LongitudeDegrees>-4.38183358870446681976318359375</LongitudeDegrees>
            </Position>
            <AltitudeMeters>714.4000244140625</AltitudeMeters>
            <DistanceMeters>NAN</DistanceMeters>
          </Trackpoint>
          <Trackpoint>
            <Time>2020-12-05T14:41:26.000Z</Time>
            <Position>
              <LatitudeDegrees>36.7940220795571804046630859375</LatitudeDegrees>
              <LongitudeDegrees>-4.38183970749378204345703125</LongitudeDegrees>
            </Position>
            <AltitudeMeters>714.20001220703125</AltitudeMeters>
            <DistanceMeters>NAN</DistanceMeters>
          </Trackpoint>
          <Trackpoint>
            <Time>2020-12-05T14:41:27.000Z</Time>
            <Position>
              <LatitudeDegrees>36.79401017725467681884765625</LatitudeDegrees>
              <LongitudeDegrees>-4.3818422220647335052490234375</LongitudeDegrees>
            </Position>
            <AltitudeMeters>714.20001220703125</AltitudeMeters>
            <DistanceMeters>NAN</DistanceMeters>
          </Trackpoint>
          <Trackpoint>
            <Time>2020-12-05T14:41:28.000Z</Time>
            <Position>
              <LatitudeDegrees>36.7939992807805538177490234375</LatitudeDegrees>
              <LongitudeDegrees>-4.38184448517858982086181640625</LongitudeDegrees>
            </Position>
            <AltitudeMeters>714.4000244140625</AltitudeMeters>
            <DistanceMeters>NAN</DistanceMeters>
          </Trackpoint>
          <Trackpoint>
            <Time>2020-12-05T14:41:29.000Z</Time>
            <Position>
              <LatitudeDegrees>36.79398511536419391632080078125</LatitudeDegrees>
              <LongitudeDegrees>-4.3818452395498752593994140625</LongitudeDegrees>
            </Position>
            <AltitudeMeters>714.4000244140625</AltitudeMeters>
            <DistanceMeters>NAN</DistanceMeters>
          </Trackpoint>
          <Trackpoint>
            <Time>2020-12-05T14:41:30.000Z</Time>
            <Position>
              <LatitudeDegrees>36.79397136904299259185791015625</LatitudeDegrees>
              <LongitudeDegrees>-4.38184565864503383636474609375</LongitudeDegrees>
            </Position>
            <AltitudeMeters>714.4000244140625</AltitudeMeters>
            <DistanceMeters>NAN</DistanceMeters>
          </Trackpoint>
          <Trackpoint>
            <Time>2020-12-05T14:41:31.000Z</Time>
            <Position>
              <LatitudeDegrees>36.7939567007124423980712890625</LatitudeDegrees>
              <LongitudeDegrees>-4.38184440135955810546875</LongitudeDegrees>
            </Position>
            <AltitudeMeters>714.4000244140625</AltitudeMeters>
            <DistanceMeters>NAN</DistanceMeters>
          </Trackpoint>
          <Trackpoint>
            <Time>2020-12-05T14:41:32.000Z</Time>
            <Position>
              <LatitudeDegrees>36.79394236765801906585693359375</LatitudeDegrees>
              <LongitudeDegrees>-4.38184062950313091278076171875</LongitudeDegrees>
            </Position>
            <AltitudeMeters>714.4000244140625</AltitudeMeters>
            <DistanceMeters>NAN</DistanceMeters>
          </Trackpoint>
          <Trackpoint>
            <Time>2020-12-05T14:41:33.000Z</Time>
            <Position>
              <LatitudeDegrees>36.79392836987972259521484375</LatitudeDegrees>
              <LongitudeDegrees>-4.38183425925672054290771484375</LongitudeDegrees>
            </Position>
            <AltitudeMeters>714.5999755859375</AltitudeMeters>
            <DistanceMeters>NAN</DistanceMeters>
          </Trackpoint>
          <Trackpoint>
            <Time>2020-12-05T14:41:34.000Z</Time>
            <Position>
              <LatitudeDegrees>36.79391755722463130950927734375</LatitudeDegrees>
              <LongitudeDegrees>-4.3818271346390247344970703125</LongitudeDegrees>
            </Position>
            <AltitudeMeters>714.5999755859375</AltitudeMeters>
            <DistanceMeters>NAN</DistanceMeters>
          </Trackpoint>
          <Trackpoint>
            <Time>2020-12-05T14:41:35.000Z</Time>
            <Position>
              <LatitudeDegrees>36.79390431381762027740478515625</LatitudeDegrees>
              <LongitudeDegrees>-4.38181967474520206451416015625</LongitudeDegrees>
            </Position>
            <AltitudeMeters>714.5999755859375</AltitudeMeters>
            <DistanceMeters>NAN</DistanceMeters>
          </Trackpoint>
          <Trackpoint>
            <Time>2020-12-05T14:41:36.000Z</Time>
            <Position>
              <LatitudeDegrees>36.79389308206737041473388671875</LatitudeDegrees>
              <LongitudeDegrees>-4.38181363977491855621337890625</LongitudeDegrees>
            </Position>
            <AltitudeMeters>714.5999755859375</AltitudeMeters>
            <DistanceMeters>NAN</DistanceMeters>
          </Trackpoint>
          <Trackpoint>
            <Time>2020-12-05T14:41:37.000Z</Time>
            <Position>
              <LatitudeDegrees>36.79387682117521762847900390625</LatitudeDegrees>
              <LongitudeDegrees>-4.381804168224334716796875</LongitudeDegrees>
            </Position>
            <AltitudeMeters>714.5999755859375</AltitudeMeters>
            <DistanceMeters>NAN</DistanceMeters>
          </Trackpoint>
          <Trackpoint>
            <Time>2020-12-05T14:41:38.000Z</Time>
            <Position>
              <LatitudeDegrees>36.79386357776820659637451171875</LatitudeDegrees>
              <LongitudeDegrees>-4.3818050064146518707275390625</LongitudeDegrees>
            </Position>
            <AltitudeMeters>714.4000244140625</AltitudeMeters>
            <DistanceMeters>NAN</DistanceMeters>
          </Trackpoint>
          <Trackpoint>
            <Time>2020-12-05T14:41:39.000Z</Time>
            <Position>
              <LatitudeDegrees>36.7938507534563541412353515625</LatitudeDegrees>
              <LongitudeDegrees>-4.38180693425238132476806640625</LongitudeDegrees>
            </Position>
            <AltitudeMeters>714.4000244140625</AltitudeMeters>
            <DistanceMeters>NAN</DistanceMeters>
          </Trackpoint>
          <Trackpoint>
            <Time>2020-12-05T14:41:40.000Z</Time>
            <Position>
              <LatitudeDegrees>36.79383893497288227081298828125</LatitudeDegrees>
              <LongitudeDegrees>-4.38180894590914249420166015625</LongitudeDegrees>
            </Position>
            <AltitudeMeters>714.4000244140625</AltitudeMeters>
            <DistanceMeters>NAN</DistanceMeters>
          </Trackpoint>
          <Trackpoint>
            <Time>2020-12-05T14:41:41.000Z</Time>
            <Position>
              <LatitudeDegrees>36.79382585920393466949462890625</LatitudeDegrees>
              <LongitudeDegrees>-4.3818133883178234100341796875</LongitudeDegrees>
            </Position>
            <AltitudeMeters>714</AltitudeMeters>
            <DistanceMeters>NAN</DistanceMeters>
          </Trackpoint>
          <Trackpoint>
            <Time>2020-12-05T14:41:42.000Z</Time>
            <Position>
              <LatitudeDegrees>36.7938115261495113372802734375</LatitudeDegrees>
              <LongitudeDegrees>-4.38181900419294834136962890625</LongitudeDegrees>
            </Position>
            <AltitudeMeters>713.79998779296875</AltitudeMeters>
            <DistanceMeters>NAN</DistanceMeters>
          </Trackpoint>
          <Trackpoint>
            <Time>2020-12-05T14:41:43.000Z</Time>
            <Position>
              <LatitudeDegrees>36.79379694163799285888671875</LatitudeDegrees>
              <LongitudeDegrees>-4.38182495534420013427734375</LongitudeDegrees>
            </Position>
            <AltitudeMeters>713.79998779296875</AltitudeMeters>
            <DistanceMeters>NAN</DistanceMeters>
          </Trackpoint>
          <Trackpoint>
            <Time>2020-12-05T14:41:44.000Z</Time>
            <Position>
              <LatitudeDegrees>36.7937826924026012420654296875</LatitudeDegrees>
              <LongitudeDegrees>-4.38182830810546875</LongitudeDegrees>
            </Position>
            <AltitudeMeters>713.79998779296875</AltitudeMeters>
            <DistanceMeters>NAN</DistanceMeters>
          </Trackpoint>
          <Trackpoint>
            <Time>2020-12-05T14:41:45.000Z</Time>
            <Position>
              <LatitudeDegrees>36.79376919753849506378173828125</LatitudeDegrees>
              <LongitudeDegrees>-4.381830655038356781005859375</LongitudeDegrees>
            </Position>
            <AltitudeMeters>713.79998779296875</AltitudeMeters>
            <DistanceMeters>NAN</DistanceMeters>
          </Trackpoint>
          <Trackpoint>
            <Time>2020-12-05T14:41:46.000Z</Time>
            <Position>
              <LatitudeDegrees>36.79375411011278629302978515625</LatitudeDegrees>
              <LongitudeDegrees>-4.38183258287608623504638671875</LongitudeDegrees>
            </Position>
            <AltitudeMeters>713.79998779296875</AltitudeMeters>
            <DistanceMeters>NAN</DistanceMeters>
          </Trackpoint>
          <Trackpoint>
            <Time>2020-12-05T14:41:47.000Z</Time>
            <Position>
              <LatitudeDegrees>36.79374036379158496856689453125</LatitudeDegrees>
              <LongitudeDegrees>-4.3818350136280059814453125</LongitudeDegrees>
            </Position>
            <AltitudeMeters>713.5999755859375</AltitudeMeters>
            <DistanceMeters>NAN</DistanceMeters>
          </Trackpoint>
          <Trackpoint>
            <Time>2020-12-05T14:41:48.000Z</Time>
            <Position>
              <LatitudeDegrees>36.79373064078390598297119140625</LatitudeDegrees>
              <LongitudeDegrees>-4.3818375281989574432373046875</LongitudeDegrees>
            </Position>
            <AltitudeMeters>713.5999755859375</AltitudeMeters>
            <DistanceMeters>NAN</DistanceMeters>
          </Trackpoint>
          <Trackpoint>
            <Time>2020-12-05T14:41:49.000Z</Time>
            <Position>
              <LatitudeDegrees>36.79372175596654415130615234375</LatitudeDegrees>
              <LongitudeDegrees>-4.3818385340273380279541015625</LongitudeDegrees>
            </Position>
            <AltitudeMeters>713.5999755859375</AltitudeMeters>
            <DistanceMeters>NAN</DistanceMeters>
          </Trackpoint>
          <Trackpoint>
            <Time>2020-12-05T14:41:50.000Z</Time>
            <Position>
              <LatitudeDegrees>36.7937109433114528656005859375</LatitudeDegrees>
              <LongitudeDegrees>-4.38184012658894062042236328125</LongitudeDegrees>
            </Position>
            <AltitudeMeters>713.4000244140625</AltitudeMeters>
            <DistanceMeters>NAN</DistanceMeters>
          </Trackpoint>
          <Trackpoint>
            <Time>2020-12-05T14:41:51.000Z</Time>
            <Position>
              <LatitudeDegrees>36.79369946010410785675048828125</LatitudeDegrees>
              <LongitudeDegrees>-4.38184247352182865142822265625</LongitudeDegrees>
            </Position>
            <AltitudeMeters>713</AltitudeMeters>
            <DistanceMeters>NAN</DistanceMeters>
          </Trackpoint>
          <Trackpoint>
            <Time>2020-12-05T14:41:52.000Z</Time>
            <Position>
              <LatitudeDegrees>36.79368806071579456329345703125</LatitudeDegrees>
              <LongitudeDegrees>-4.38184230588376522064208984375</LongitudeDegrees>
            </Position>
            <AltitudeMeters>713</AltitudeMeters>
            <DistanceMeters>NAN</DistanceMeters>
          </Trackpoint>
          <Trackpoint>
            <Time>2020-12-05T14:41:53.000Z</Time>
            <Position>
              <LatitudeDegrees>36.79367758333683013916015625</LatitudeDegrees>
              <LongitudeDegrees>-4.3818449042737483978271484375</LongitudeDegrees>
            </Position>
            <AltitudeMeters>713</AltitudeMeters>
            <DistanceMeters>NAN</DistanceMeters>
          </Trackpoint>
          <Trackpoint>
            <Time>2020-12-05T14:41:54.000Z</Time>
            <Position>
              <LatitudeDegrees>36.79366827942430973052978515625</LatitudeDegrees>
              <LongitudeDegrees>-4.38184641301631927490234375</LongitudeDegrees>
            </Position>
            <AltitudeMeters>713.20001220703125</AltitudeMeters>
            <DistanceMeters>NAN</DistanceMeters>
          </Trackpoint>
          <Trackpoint>
            <Time>2020-12-05T14:41:55.000Z</Time>
            <Position>
              <LatitudeDegrees>36.793657131493091583251953125</LatitudeDegrees>
              <LongitudeDegrees>-4.38185102306306362152099609375</LongitudeDegrees>
            </Position>
            <AltitudeMeters>713.20001220703125</AltitudeMeters>
            <DistanceMeters>NAN</DistanceMeters>
          </Trackpoint>
          <Trackpoint>
            <Time>2020-12-05T14:41:56.000Z</Time>
            <Position>
              <LatitudeDegrees>36.79364673793315887451171875</LatitudeDegrees>
              <LongitudeDegrees>-4.38185169361531734466552734375</LongitudeDegrees>
            </Position>
            <AltitudeMeters>713</AltitudeMeters>
            <DistanceMeters>NAN</DistanceMeters>
          </Trackpoint>
          <Trackpoint>
            <Time>2020-12-05T14:41:57.000Z</Time>
            <Position>
              <LatitudeDegrees>36.79363600909709930419921875</LatitudeDegrees>
              <LongitudeDegrees>-4.3818519450724124908447265625</LongitudeDegrees>
            </Position>
            <AltitudeMeters>713</AltitudeMeters>
            <DistanceMeters>NAN</DistanceMeters>
          </Trackpoint>
          <Trackpoint>
            <Time>2020-12-05T14:41:58.000Z</Time>
            <Position>
              <LatitudeDegrees>36.793623268604278564453125</LatitudeDegrees>
              <LongitudeDegrees>-4.38185336999595165252685546875</LongitudeDegrees>
            </Position>
            <AltitudeMeters>713</AltitudeMeters>
            <DistanceMeters>NAN</DistanceMeters>
          </Trackpoint>
          <Trackpoint>
            <Time>2020-12-05T14:41:59.000Z</Time>
            <Position>
              <LatitudeDegrees>36.7936120368540287017822265625</LatitudeDegrees>
              <LongitudeDegrees>-4.38185538165271282196044921875</LongitudeDegrees>
            </Position>
            <AltitudeMeters>712.79998779296875</AltitudeMeters>
            <DistanceMeters>NAN</DistanceMeters>
          </Trackpoint>
          <Trackpoint>
            <Time>2020-12-05T14:42:00.000Z</Time>
            <Position>
              <LatitudeDegrees>36.79360239766538143157958984375</LatitudeDegrees>
              <LongitudeDegrees>-4.381857812404632568359375</LongitudeDegrees>
            </Position>
            <AltitudeMeters>712.79998779296875</AltitudeMeters>
            <DistanceMeters>NAN</DistanceMeters>
          </Trackpoint>
          <Trackpoint>
            <Time>2020-12-05T14:42:01.000Z</Time>
            <Position>
              <LatitudeDegrees>36.79359099827706813812255859375</LatitudeDegrees>
              <LongitudeDegrees>-4.38186275772750377655029296875</LongitudeDegrees>
            </Position>
            <AltitudeMeters>712.5999755859375</AltitudeMeters>
            <DistanceMeters>NAN</DistanceMeters>
          </Trackpoint>
          <Trackpoint>
            <Time>2020-12-05T14:42:02.000Z</Time>
            <Position>
              <LatitudeDegrees>36.79358211345970630645751953125</LatitudeDegrees>
              <LongitudeDegrees>-4.38187046907842159271240234375</LongitudeDegrees>
            </Position>
            <AltitudeMeters>712.5999755859375</AltitudeMeters>
            <DistanceMeters>NAN</DistanceMeters>
          </Trackpoint>
          <Trackpoint>
            <Time>2020-12-05T14:42:03.000Z</Time>
            <Position>
              <LatitudeDegrees>36.793573983013629913330078125</LatitudeDegrees>
              <LongitudeDegrees>-4.3818780966103076934814453125</LongitudeDegrees>
            </Position>
            <AltitudeMeters>712.5999755859375</AltitudeMeters>
            <DistanceMeters>NAN</DistanceMeters>
          </Trackpoint>
          <Trackpoint>
            <Time>2020-12-05T14:42:04.000Z</Time>
            <Position>
              <LatitudeDegrees>36.793566606938838958740234375</LatitudeDegrees>
              <LongitudeDegrees>-4.38188220374286174774169921875</LongitudeDegrees>
            </Position>
            <AltitudeMeters>712.5999755859375</AltitudeMeters>
            <DistanceMeters>NAN</DistanceMeters>
          </Trackpoint>
          <Trackpoint>
            <Time>2020-12-05T14:42:05.000Z</Time>
            <Position>
              <LatitudeDegrees>36.7935627512633800506591796875</LatitudeDegrees>
              <LongitudeDegrees>-4.38188530504703521728515625</LongitudeDegrees>
            </Position>
            <AltitudeMeters>712.5999755859375</AltitudeMeters>
            <DistanceMeters>NAN</DistanceMeters>
          </Trackpoint>
          <Trackpoint>
            <Time>2020-12-05T14:42:06.000Z</Time>
            <Position>
              <LatitudeDegrees>36.793555878102779388427734375</LatitudeDegrees>
              <LongitudeDegrees>-4.3818851374089717864990234375</LongitudeDegrees>
            </Position>
            <AltitudeMeters>712.5999755859375</AltitudeMeters>
            <DistanceMeters>NAN</DistanceMeters>
          </Trackpoint>
          <Trackpoint>
            <Time>2020-12-05T14:42:07.000Z</Time>
            <Position>
              <LatitudeDegrees>36.79354975931346416473388671875</LatitudeDegrees>
              <LongitudeDegrees>-4.381878934800624847412109375</LongitudeDegrees>
            </Position>
            <AltitudeMeters>712.4000244140625</AltitudeMeters>
            <DistanceMeters>NAN</DistanceMeters>
          </Trackpoint>
          <Trackpoint>
            <Time>2020-12-05T14:42:08.000Z</Time>
            <Position>
              <LatitudeDegrees>36.793541796505451202392578125</LatitudeDegrees>
              <LongitudeDegrees>-4.38187683932483196258544921875</LongitudeDegrees>
            </Position>
            <AltitudeMeters>712.4000244140625</AltitudeMeters>
            <DistanceMeters>NAN</DistanceMeters>
          </Trackpoint>
          <Trackpoint>
            <Time>2020-12-05T14:42:09.000Z</Time>
            <Position>
              <LatitudeDegrees>36.7935352586209774017333984375</LatitudeDegrees>
              <LongitudeDegrees>-4.381871558725833892822265625</LongitudeDegrees>
            </Position>
            <AltitudeMeters>712.4000244140625</AltitudeMeters>
            <DistanceMeters>NAN</DistanceMeters>
          </Trackpoint>
          <Trackpoint>
            <Time>2020-12-05T14:42:10.000Z</Time>
            <Position>
              <LatitudeDegrees>36.79352796636521816253662109375</LatitudeDegrees>
              <LongitudeDegrees>-4.3818687088787555694580078125</LongitudeDegrees>
            </Position>
            <AltitudeMeters>712.20001220703125</AltitudeMeters>
            <DistanceMeters>NAN</DistanceMeters>
          </Trackpoint>
          <Trackpoint>
            <Time>2020-12-05T14:42:11.000Z</Time>
            <Position>
              <LatitudeDegrees>36.7935198359191417694091796875</LatitudeDegrees>
              <LongitudeDegrees>-4.3818693794310092926025390625</LongitudeDegrees>
            </Position>
            <AltitudeMeters>712.20001220703125</AltitudeMeters>
            <DistanceMeters>NAN</DistanceMeters>
          </Trackpoint>
          <Trackpoint>
            <Time>2020-12-05T14:42:12.000Z</Time>
            <Position>
              <LatitudeDegrees>36.79350969381630420684814453125</LatitudeDegrees>
              <LongitudeDegrees>-4.38187994062900543212890625</LongitudeDegrees>
            </Position>
            <AltitudeMeters>712.4000244140625</AltitudeMeters>
            <DistanceMeters>NAN</DistanceMeters>
          </Trackpoint>
          <Trackpoint>
            <Time>2020-12-05T14:42:13.000Z</Time>
            <Position>
              <LatitudeDegrees>36.79350483231246471405029296875</LatitudeDegrees>
              <LongitudeDegrees>-4.38188471831381320953369140625</LongitudeDegrees>
            </Position>
            <AltitudeMeters>712.4000244140625</AltitudeMeters>
            <DistanceMeters>NAN</DistanceMeters>
          </Trackpoint>
          <Trackpoint>
            <Time>2020-12-05T14:42:14.000Z</Time>
            <Position>
              <LatitudeDegrees>36.7934997193515300750732421875</LatitudeDegrees>
              <LongitudeDegrees>-4.381884634494781494140625</LongitudeDegrees>
            </Position>
            <AltitudeMeters>712.4000244140625</AltitudeMeters>
            <DistanceMeters>NAN</DistanceMeters>
          </Trackpoint>
          <Trackpoint>
            <Time>2020-12-05T14:42:15.000Z</Time>
            <Position>
              <LatitudeDegrees>36.7934899963438510894775390625</LatitudeDegrees>
              <LongitudeDegrees>-4.381884634494781494140625</LongitudeDegrees>
            </Position>
            <AltitudeMeters>712.4000244140625</AltitudeMeters>
            <DistanceMeters>NAN</DistanceMeters>
          </Trackpoint>
          <Trackpoint>
            <Time>2020-12-05T14:42:16.000Z</Time>
            <Position>
              <LatitudeDegrees>36.79347683675587177276611328125</LatitudeDegrees>
              <LongitudeDegrees>-4.38189393840730190277099609375</LongitudeDegrees>
            </Position>
            <AltitudeMeters>712.4000244140625</AltitudeMeters>
            <DistanceMeters>NAN</DistanceMeters>
          </Trackpoint>
          <Trackpoint>
            <Time>2020-12-05T14:42:17.000Z</Time>
            <Position>
              <LatitudeDegrees>36.79346610791981220245361328125</LatitudeDegrees>
              <LongitudeDegrees>-4.38189779408276081085205078125</LongitudeDegrees>
            </Position>
            <AltitudeMeters>712.4000244140625</AltitudeMeters>
            <DistanceMeters>NAN</DistanceMeters>
          </Trackpoint>
          <Trackpoint>
            <Time>2020-12-05T14:42:18.000Z</Time>
            <Position>
              <LatitudeDegrees>36.7934557981789112091064453125</LatitudeDegrees>
              <LongitudeDegrees>-4.3819029070436954498291015625</LongitudeDegrees>
            </Position>
            <AltitudeMeters>712.20001220703125</AltitudeMeters>
            <DistanceMeters>NAN</DistanceMeters>
          </Trackpoint>
          <Trackpoint>
            <Time>2020-12-05T14:42:19.000Z</Time>
            <Position>
              <LatitudeDegrees>36.793446242809295654296875</LatitudeDegrees>
              <LongitudeDegrees>-4.38190852291882038116455078125</LongitudeDegrees>
            </Position>
            <AltitudeMeters>712.20001220703125</AltitudeMeters>
            <DistanceMeters>NAN</DistanceMeters>
          </Trackpoint>
          <Trackpoint>
            <Time>2020-12-05T14:42:20.000Z</Time>
            <Position>
              <LatitudeDegrees>36.7934386990964412689208984375</LatitudeDegrees>
              <LongitudeDegrees>-4.38191221095621585845947265625</LongitudeDegrees>
            </Position>
            <AltitudeMeters>712</AltitudeMeters>
            <DistanceMeters>NAN</DistanceMeters>
          </Trackpoint>
          <Trackpoint>
            <Time>2020-12-05T14:42:21.000Z</Time>
            <Position>
              <LatitudeDegrees>36.79343157447874546051025390625</LatitudeDegrees>
              <LongitudeDegrees>-4.3819119594991207122802734375</LongitudeDegrees>
            </Position>
            <AltitudeMeters>712</AltitudeMeters>
            <DistanceMeters>NAN</DistanceMeters>
          </Trackpoint>
          <Trackpoint>
            <Time>2020-12-05T14:42:22.000Z</Time>
            <Position>
              <LatitudeDegrees>36.7934259586036205291748046875</LatitudeDegrees>
              <LongitudeDegrees>-4.3819106183946132659912109375</LongitudeDegrees>
            </Position>
            <AltitudeMeters>712</AltitudeMeters>
            <DistanceMeters>NAN</DistanceMeters>
          </Trackpoint>
          <Trackpoint>
            <Time>2020-12-05T14:42:23.000Z</Time>
            <Position>
              <LatitudeDegrees>36.79341740906238555908203125</LatitudeDegrees>
              <LongitudeDegrees>-4.38191212713718414306640625</LongitudeDegrees>
            </Position>
            <AltitudeMeters>712</AltitudeMeters>
            <DistanceMeters>NAN</DistanceMeters>
          </Trackpoint>
          <Trackpoint>
            <Time>2020-12-05T14:42:24.000Z</Time>
            <Position>
              <LatitudeDegrees>36.7934091947972774505615234375</LatitudeDegrees>
              <LongitudeDegrees>-4.381906092166900634765625</LongitudeDegrees>
            </Position>
            <AltitudeMeters>711.79998779296875</AltitudeMeters>
            <DistanceMeters>NAN</DistanceMeters>
          </Trackpoint>
          <Trackpoint>
            <Time>2020-12-05T14:42:25.000Z</Time>
            <Position>
              <LatitudeDegrees>36.7933991365134716033935546875</LatitudeDegrees>
              <LongitudeDegrees>-4.38189796172082424163818359375</LongitudeDegrees>
            </Position>
            <AltitudeMeters>711.79998779296875</AltitudeMeters>
            <DistanceMeters>NAN</DistanceMeters>
          </Trackpoint>
          <Trackpoint>
            <Time>2020-12-05T14:42:26.000Z</Time>
            <Position>
              <LatitudeDegrees>36.79339335300028324127197265625</LatitudeDegrees>
              <LongitudeDegrees>-4.3818918429315090179443359375</LongitudeDegrees>
            </Position>
            <AltitudeMeters>711.5999755859375</AltitudeMeters>
            <DistanceMeters>NAN</DistanceMeters>
          </Trackpoint>
          <Trackpoint>
            <Time>2020-12-05T14:42:27.000Z</Time>
            <Position>
              <LatitudeDegrees>36.793389581143856048583984375</LatitudeDegrees>
              <LongitudeDegrees>-4.38189335167407989501953125</LongitudeDegrees>
            </Position>
            <AltitudeMeters>711.5999755859375</AltitudeMeters>
            <DistanceMeters>NAN</DistanceMeters>
          </Trackpoint>
          <Trackpoint>
            <Time>2020-12-05T14:42:28.000Z</Time>
            <Position>
              <LatitudeDegrees>36.79338295944035053253173828125</LatitudeDegrees>
              <LongitudeDegrees>-4.381904415786266326904296875</LongitudeDegrees>
            </Position>
            <AltitudeMeters>711.4000244140625</AltitudeMeters>
            <DistanceMeters>NAN</DistanceMeters>
          </Trackpoint>
          <Trackpoint>
            <Time>2020-12-05T14:42:29.000Z</Time>
            <Position>
              <LatitudeDegrees>36.79337122477591037750244140625</LatitudeDegrees>
              <LongitudeDegrees>-4.38191950321197509765625</LongitudeDegrees>
            </Position>
            <AltitudeMeters>711.20001220703125</AltitudeMeters>
            <DistanceMeters>NAN</DistanceMeters>
          </Trackpoint>
          <Trackpoint>
            <Time>2020-12-05T14:42:30.000Z</Time>
            <Position>
              <LatitudeDegrees>36.7933622561395168304443359375</LatitudeDegrees>
              <LongitudeDegrees>-4.3819226883351802825927734375</LongitudeDegrees>
            </Position>
            <AltitudeMeters>710.79998779296875</AltitudeMeters>
            <DistanceMeters>NAN</DistanceMeters>
          </Trackpoint>
          <Trackpoint>
            <Time>2020-12-05T14:42:31.000Z</Time>
            <Position>
              <LatitudeDegrees>36.79335865192115306854248046875</LatitudeDegrees>
              <LongitudeDegrees>-4.38192687928676605224609375</LongitudeDegrees>
            </Position>
            <AltitudeMeters>710.5999755859375</AltitudeMeters>
            <DistanceMeters>NAN</DistanceMeters>
          </Trackpoint>
          <Trackpoint>
            <Time>2020-12-05T14:42:32.000Z</Time>
            <Position>
              <LatitudeDegrees>36.7933548800647258758544921875</LatitudeDegrees>
              <LongitudeDegrees>-4.38193333335220813751220703125</LongitudeDegrees>
            </Position>
            <AltitudeMeters>710.4000244140625</AltitudeMeters>
            <DistanceMeters>NAN</DistanceMeters>
          </Trackpoint>
          <Trackpoint>
            <Time>2020-12-05T14:42:33.000Z</Time>
            <Position>
              <LatitudeDegrees>36.7933515273034572601318359375</LatitudeDegrees>
              <LongitudeDegrees>-4.381940625607967376708984375</LongitudeDegrees>
            </Position>
            <AltitudeMeters>710.20001220703125</AltitudeMeters>
            <DistanceMeters>NAN</DistanceMeters>
          </Trackpoint>
          <Trackpoint>
            <Time>2020-12-05T14:42:34.000Z</Time>
            <Position>
              <LatitudeDegrees>36.7933488450944423675537109375</LatitudeDegrees>
              <LongitudeDegrees>-4.38195093534886837005615234375</LongitudeDegrees>
            </Position>
            <AltitudeMeters>710.20001220703125</AltitudeMeters>
            <DistanceMeters>NAN</DistanceMeters>
          </Trackpoint>
          <Trackpoint>
            <Time>2020-12-05T14:42:35.000Z</Time>
            <Position>
              <LatitudeDegrees>36.79335043765604496002197265625</LatitudeDegrees>
              <LongitudeDegrees>-4.3819585628807544708251953125</LongitudeDegrees>
            </Position>
            <AltitudeMeters>710</AltitudeMeters>
            <DistanceMeters>NAN</DistanceMeters>
          </Trackpoint>
          <Trackpoint>
            <Time>2020-12-05T14:42:36.000Z</Time>
            <Position>
              <LatitudeDegrees>36.79335462860763072967529296875</LatitudeDegrees>
              <LongitudeDegrees>-4.381966777145862579345703125</LongitudeDegrees>
            </Position>
            <AltitudeMeters>710</AltitudeMeters>
            <DistanceMeters>NAN</DistanceMeters>
          </Trackpoint>
          <Trackpoint>
            <Time>2020-12-05T14:42:37.000Z</Time>
            <Position>
              <LatitudeDegrees>36.79336435161530971527099609375</LatitudeDegrees>
              <LongitudeDegrees>-4.38197256065905094146728515625</LongitudeDegrees>
            </Position>
            <AltitudeMeters>710</AltitudeMeters>
            <DistanceMeters>NAN</DistanceMeters>
          </Trackpoint>
          <Trackpoint>
            <Time>2020-12-05T14:42:38.000Z</Time>
            <Position>
              <LatitudeDegrees>36.79337181150913238525390625</LatitudeDegrees>
              <LongitudeDegrees>-4.38197708688676357269287109375</LongitudeDegrees>
            </Position>
            <AltitudeMeters>710</AltitudeMeters>
            <DistanceMeters>NAN</DistanceMeters>
          </Trackpoint>
          <Trackpoint>
            <Time>2020-12-05T14:42:39.000Z</Time>
            <Position>
              <LatitudeDegrees>36.79337776266038417816162109375</LatitudeDegrees>
              <LongitudeDegrees>-4.38197918236255645751953125</LongitudeDegrees>
            </Position>
            <AltitudeMeters>710</AltitudeMeters>
            <DistanceMeters>NAN</DistanceMeters>
          </Trackpoint>
          <Trackpoint>
            <Time>2020-12-05T14:42:40.000Z</Time>
            <Position>
              <LatitudeDegrees>36.7933813668787479400634765625</LatitudeDegrees>
              <LongitudeDegrees>-4.3819803558290004730224609375</LongitudeDegrees>
            </Position>
            <AltitudeMeters>710.20001220703125</AltitudeMeters>
            <DistanceMeters>NAN</DistanceMeters>
          </Trackpoint>
          <Trackpoint>
            <Time>2020-12-05T14:42:41.000Z</Time>
            <Position>
              <LatitudeDegrees>36.79338413290679454803466796875</LatitudeDegrees>
              <LongitudeDegrees>-4.38198261894285678863525390625</LongitudeDegrees>
            </Position>
            <AltitudeMeters>710.4000244140625</AltitudeMeters>
            <DistanceMeters>NAN</DistanceMeters>
          </Trackpoint>
          <Trackpoint>
            <Time>2020-12-05T14:42:42.000Z</Time>
            <Position>
              <LatitudeDegrees>36.79338664747774600982666015625</LatitudeDegrees>
              <LongitudeDegrees>-4.38198530115187168121337890625</LongitudeDegrees>
            </Position>
            <AltitudeMeters>710.5999755859375</AltitudeMeters>
            <DistanceMeters>NAN</DistanceMeters>
          </Trackpoint>
          <Trackpoint>
            <Time>2020-12-05T14:42:43.000Z</Time>
            <Position>
              <LatitudeDegrees>36.79338631220161914825439453125</LatitudeDegrees>
              <LongitudeDegrees>-4.381986223161220550537109375</LongitudeDegrees>
            </Position>
            <AltitudeMeters>710.5999755859375</AltitudeMeters>
            <DistanceMeters>NAN</DistanceMeters>
          </Trackpoint>
          <Trackpoint>
            <Time>2020-12-05T14:42:44.000Z</Time>
            <Position>
              <LatitudeDegrees>36.79338899441063404083251953125</LatitudeDegrees>
              <LongitudeDegrees>-4.3819867260754108428955078125</LongitudeDegrees>
            </Position>
            <AltitudeMeters>710.79998779296875</AltitudeMeters>
            <DistanceMeters>NAN</DistanceMeters>
          </Trackpoint>
          <Trackpoint>
            <Time>2020-12-05T14:42:45.000Z</Time>
            <Position>
              <LatitudeDegrees>36.793392933905124664306640625</LatitudeDegrees>
              <LongitudeDegrees>-4.3819857202470302581787109375</LongitudeDegrees>
            </Position>
            <AltitudeMeters>710.79998779296875</AltitudeMeters>
            <DistanceMeters>NAN</DistanceMeters>
          </Trackpoint>
          <Trackpoint>
            <Time>2020-12-05T14:42:46.000Z</Time>
            <Position>
              <LatitudeDegrees>36.79339595139026641845703125</LatitudeDegrees>
              <LongitudeDegrees>-4.38198597170412540435791015625</LongitudeDegrees>
            </Position>
            <AltitudeMeters>710.79998779296875</AltitudeMeters>
            <DistanceMeters>NAN</DistanceMeters>
          </Trackpoint>
          <Trackpoint>
            <Time>2020-12-05T14:42:47.000Z</Time>
            <Position>
              <LatitudeDegrees>36.79339955560863018035888671875</LatitudeDegrees>
              <LongitudeDegrees>-4.38198731280863285064697265625</LongitudeDegrees>
            </Position>
            <AltitudeMeters>711</AltitudeMeters>
            <DistanceMeters>NAN</DistanceMeters>
          </Trackpoint>
          <Trackpoint>
            <Time>2020-12-05T14:42:48.000Z</Time>
            <Position>
              <LatitudeDegrees>36.79340039379894733428955078125</LatitudeDegrees>
              <LongitudeDegrees>-4.381990246474742889404296875</LongitudeDegrees>
            </Position>
            <AltitudeMeters>711</AltitudeMeters>
            <DistanceMeters>NAN</DistanceMeters>
          </Trackpoint>
          <Trackpoint>
            <Time>2020-12-05T14:42:49.000Z</Time>
            <Position>
              <LatitudeDegrees>36.79340575821697711944580078125</LatitudeDegrees>
              <LongitudeDegrees>-4.381994269788265228271484375</LongitudeDegrees>
            </Position>
            <AltitudeMeters>711</AltitudeMeters>
            <DistanceMeters>NAN</DistanceMeters>
          </Trackpoint>
          <Trackpoint>
            <Time>2020-12-05T14:42:50.000Z</Time>
            <Position>
              <LatitudeDegrees>36.7934112064540386199951171875</LatitudeDegrees>
              <LongitudeDegrees>-4.3819986283779144287109375</LongitudeDegrees>
            </Position>
            <AltitudeMeters>711</AltitudeMeters>
            <DistanceMeters>NAN</DistanceMeters>
          </Trackpoint>
          <Trackpoint>
            <Time>2020-12-05T14:42:51.000Z</Time>
            <Position>
              <LatitudeDegrees>36.7934266291558742523193359375</LatitudeDegrees>
              <LongitudeDegrees>-4.38200575299561023712158203125</LongitudeDegrees>
            </Position>
            <AltitudeMeters>711</AltitudeMeters>
            <DistanceMeters>NAN</DistanceMeters>
          </Trackpoint>
          <Trackpoint>
            <Time>2020-12-05T14:42:52.000Z</Time>
            <Position>
              <LatitudeDegrees>36.79343610070645809173583984375</LatitudeDegrees>
              <LongitudeDegrees>-4.38201363198459148406982421875</LongitudeDegrees>
            </Position>
            <AltitudeMeters>711</AltitudeMeters>
            <DistanceMeters>NAN</DistanceMeters>
          </Trackpoint>
          <Trackpoint>
            <Time>2020-12-05T14:42:53.000Z</Time>
            <Position>
              <LatitudeDegrees>36.79342570714652538299560546875</LatitudeDegrees>
              <LongitudeDegrees>-4.3820182420313358306884765625</LongitudeDegrees>
            </Position>
            <AltitudeMeters>711</AltitudeMeters>
            <DistanceMeters>NAN</DistanceMeters>
          </Trackpoint>
          <Trackpoint>
            <Time>2020-12-05T14:42:54.000Z</Time>
            <Position>
              <LatitudeDegrees>36.79342277348041534423828125</LatitudeDegrees>
              <LongitudeDegrees>-4.3820289708673954010009765625</LongitudeDegrees>
            </Position>
            <AltitudeMeters>711.20001220703125</AltitudeMeters>
            <DistanceMeters>NAN</DistanceMeters>
          </Trackpoint>
          <Trackpoint>
            <Time>2020-12-05T14:42:55.000Z</Time>
            <Position>
              <LatitudeDegrees>36.79341698996722698211669921875</LatitudeDegrees>
              <LongitudeDegrees>-4.38203592784702777862548828125</LongitudeDegrees>
            </Position>
            <AltitudeMeters>711</AltitudeMeters>
            <DistanceMeters>NAN</DistanceMeters>
          </Trackpoint>
          <Trackpoint>
            <Time>2020-12-05T14:42:56.000Z</Time>
            <Position>
              <LatitudeDegrees>36.79341279901564121246337890625</LatitudeDegrees>
              <LongitudeDegrees>-4.38203819096088409423828125</LongitudeDegrees>
            </Position>
            <AltitudeMeters>711</AltitudeMeters>
            <DistanceMeters>NAN</DistanceMeters>
          </Trackpoint>
          <Trackpoint>
            <Time>2020-12-05T14:42:57.000Z</Time>
            <Position>
              <LatitudeDegrees>36.793411709368228912353515625</LatitudeDegrees>
              <LongitudeDegrees>-4.38204045407474040985107421875</LongitudeDegrees>
            </Position>
            <AltitudeMeters>711</AltitudeMeters>
            <DistanceMeters>NAN</DistanceMeters>
          </Trackpoint>
          <Trackpoint>
            <Time>2020-12-05T14:42:58.000Z</Time>
            <Position>
              <LatitudeDegrees>36.79341095499694347381591796875</LatitudeDegrees>
              <LongitudeDegrees>-4.38204129226505756378173828125</LongitudeDegrees>
            </Position>
            <AltitudeMeters>711</AltitudeMeters>
            <DistanceMeters>NAN</DistanceMeters>
          </Trackpoint>
          <Trackpoint>
            <Time>2020-12-05T14:42:59.000Z</Time>
            <Position>
              <LatitudeDegrees>36.7934102006256580352783203125</LatitudeDegrees>
              <LongitudeDegrees>-4.38203877769410610198974609375</LongitudeDegrees>
            </Position>
            <AltitudeMeters>711</AltitudeMeters>
            <DistanceMeters>NAN</DistanceMeters>
          </Trackpoint>
          <Trackpoint>
            <Time>2020-12-05T14:43:00.000Z</Time>
            <Position>
              <LatitudeDegrees>36.79341078735888004302978515625</LatitudeDegrees>
              <LongitudeDegrees>-4.3820360116660594940185546875</LongitudeDegrees>
            </Position>
            <AltitudeMeters>711</AltitudeMeters>
            <DistanceMeters>NAN</DistanceMeters>
          </Trackpoint>
          <Trackpoint>
            <Time>2020-12-05T14:43:01.000Z</Time>
            <Position>
              <LatitudeDegrees>36.79341145791113376617431640625</LatitudeDegrees>
              <LongitudeDegrees>-4.38203022815287113189697265625</LongitudeDegrees>
            </Position>
            <AltitudeMeters>711</AltitudeMeters>
            <DistanceMeters>NAN</DistanceMeters>
          </Trackpoint>
          <Trackpoint>
            <Time>2020-12-05T14:43:02.000Z</Time>
            <Position>
              <LatitudeDegrees>36.79341129027307033538818359375</LatitudeDegrees>
              <LongitudeDegrees>-4.3820281326770782470703125</LongitudeDegrees>
            </Position>
            <AltitudeMeters>711</AltitudeMeters>
            <DistanceMeters>NAN</DistanceMeters>
          </Trackpoint>
          <Trackpoint>
            <Time>2020-12-05T14:43:03.000Z</Time>
            <Position>
              <LatitudeDegrees>36.7934088595211505889892578125</LatitudeDegrees>
              <LongitudeDegrees>-4.38202771358191967010498046875</LongitudeDegrees>
            </Position>
            <AltitudeMeters>710.79998779296875</AltitudeMeters>
            <DistanceMeters>NAN</DistanceMeters>
          </Trackpoint>
          <Trackpoint>
            <Time>2020-12-05T14:43:04.000Z</Time>
            <Position>
              <LatitudeDegrees>36.7934061773121356964111328125</LatitudeDegrees>
              <LongitudeDegrees>-4.38202788121998310089111328125</LongitudeDegrees>
            </Position>
            <AltitudeMeters>710.79998779296875</AltitudeMeters>
            <DistanceMeters>NAN</DistanceMeters>
          </Trackpoint>
          <Trackpoint>
            <Time>2020-12-05T14:43:05.000Z</Time>
            <Position>
              <LatitudeDegrees>36.793397627770900726318359375</LatitudeDegrees>
              <LongitudeDegrees>-4.3820281326770782470703125</LongitudeDegrees>
            </Position>
            <AltitudeMeters>710.79998779296875</AltitudeMeters>
            <DistanceMeters>NAN</DistanceMeters>
          </Trackpoint>
          <Trackpoint>
            <Time>2020-12-05T14:43:06.000Z</Time>
            <Position>
              <LatitudeDegrees>36.7933927662670612335205078125</LatitudeDegrees>
              <LongitudeDegrees>-4.38203207217156887054443359375</LongitudeDegrees>
            </Position>
            <AltitudeMeters>710.5999755859375</AltitudeMeters>
            <DistanceMeters>NAN</DistanceMeters>
          </Trackpoint>
          <Trackpoint>
            <Time>2020-12-05T14:43:07.000Z</Time>
            <Position>
              <LatitudeDegrees>36.79336703382432460784912109375</LatitudeDegrees>
              <LongitudeDegrees>-4.382034502923488616943359375</LongitudeDegrees>
            </Position>
            <AltitudeMeters>710.5999755859375</AltitudeMeters>
            <DistanceMeters>NAN</DistanceMeters>
          </Trackpoint>
          <Trackpoint>
            <Time>2020-12-05T14:43:08.000Z</Time>
            <Position>
              <LatitudeDegrees>36.79336384870111942291259765625</LatitudeDegrees>
              <LongitudeDegrees>-4.38203777186572551727294921875</LongitudeDegrees>
            </Position>
            <AltitudeMeters>710.5999755859375</AltitudeMeters>
            <DistanceMeters>NAN</DistanceMeters>
          </Trackpoint>
          <Trackpoint>
            <Time>2020-12-05T14:43:09.000Z</Time>
            <Position>
              <LatitudeDegrees>36.7933582328259944915771484375</LatitudeDegrees>
              <LongitudeDegrees>-4.38204347155988216400146484375</LongitudeDegrees>
            </Position>
            <AltitudeMeters>710.5999755859375</AltitudeMeters>
            <DistanceMeters>NAN</DistanceMeters>
          </Trackpoint>
          <Trackpoint>
            <Time>2020-12-05T14:43:10.000Z</Time>
            <Position>
              <LatitudeDegrees>36.7933632619678974151611328125</LatitudeDegrees>
              <LongitudeDegrees>-4.38204732723534107208251953125</LongitudeDegrees>
            </Position>
            <AltitudeMeters>710.5999755859375</AltitudeMeters>
            <DistanceMeters>NAN</DistanceMeters>
          </Trackpoint>
          <Trackpoint>
            <Time>2020-12-05T14:43:11.000Z</Time>
            <Position>
              <LatitudeDegrees>36.79337172769010066986083984375</LatitudeDegrees>
              <LongitudeDegrees>-4.382050931453704833984375</LongitudeDegrees>
            </Position>
            <AltitudeMeters>710.5999755859375</AltitudeMeters>
            <DistanceMeters>NAN</DistanceMeters>
          </Trackpoint>
          <Trackpoint>
            <Time>2020-12-05T14:43:12.000Z</Time>
            <Position>
              <LatitudeDegrees>36.79338212125003337860107421875</LatitudeDegrees>
              <LongitudeDegrees>-4.382053948938846588134765625</LongitudeDegrees>
            </Position>
            <AltitudeMeters>710.79998779296875</AltitudeMeters>
            <DistanceMeters>NAN</DistanceMeters>
          </Trackpoint>
          <Trackpoint>
            <Time>2020-12-05T14:43:13.000Z</Time>
            <Position>
              <LatitudeDegrees>36.79340156726539134979248046875</LatitudeDegrees>
              <LongitudeDegrees>-4.382055290043354034423828125</LongitudeDegrees>
            </Position>
            <AltitudeMeters>710.79998779296875</AltitudeMeters>
            <DistanceMeters>NAN</DistanceMeters>
          </Trackpoint>
          <Trackpoint>
            <Time>2020-12-05T14:43:14.000Z</Time>
            <Position>
              <LatitudeDegrees>36.79341196082532405853271484375</LatitudeDegrees>
              <LongitudeDegrees>-4.38205168582499027252197265625</LongitudeDegrees>
            </Position>
            <AltitudeMeters>711</AltitudeMeters>
            <DistanceMeters>NAN</DistanceMeters>
          </Trackpoint>
          <Trackpoint>
            <Time>2020-12-05T14:43:15.000Z</Time>
            <Position>
              <LatitudeDegrees>36.79341950453817844390869140625</LatitudeDegrees>
              <LongitudeDegrees>-4.382050931453704833984375</LongitudeDegrees>
            </Position>
            <AltitudeMeters>711</AltitudeMeters>
            <DistanceMeters>NAN</DistanceMeters>
          </Trackpoint>
          <Trackpoint>
            <Time>2020-12-05T14:43:16.000Z</Time>
            <Position>
              <LatitudeDegrees>36.79342805407941341400146484375</LatitudeDegrees>
              <LongitudeDegrees>-4.3820494227111339569091796875</LongitudeDegrees>
            </Position>
            <AltitudeMeters>711</AltitudeMeters>
            <DistanceMeters>NAN</DistanceMeters>
          </Trackpoint>
          <Trackpoint>
            <Time>2020-12-05T14:43:17.000Z</Time>
            <Position>
              <LatitudeDegrees>36.7934319935739040374755859375</LatitudeDegrees>
              <LongitudeDegrees>-4.38204665668308734893798828125</LongitudeDegrees>
            </Position>
            <AltitudeMeters>711.20001220703125</AltitudeMeters>
            <DistanceMeters>NAN</DistanceMeters>
          </Trackpoint>
          <Trackpoint>
            <Time>2020-12-05T14:43:18.000Z</Time>
            <Position>
              <LatitudeDegrees>36.7934343405067920684814453125</LatitudeDegrees>
              <LongitudeDegrees>-4.38204145990312099456787109375</LongitudeDegrees>
            </Position>
            <AltitudeMeters>711.20001220703125</AltitudeMeters>
            <DistanceMeters>NAN</DistanceMeters>
          </Trackpoint>
          <Trackpoint>
            <Time>2020-12-05T14:43:19.000Z</Time>
            <Position>
              <LatitudeDegrees>36.7934309877455234527587890625</LatitudeDegrees>
              <LongitudeDegrees>-4.3820380233228206634521484375</LongitudeDegrees>
            </Position>
            <AltitudeMeters>711.20001220703125</AltitudeMeters>
            <DistanceMeters>NAN</DistanceMeters>
          </Trackpoint>
          <Trackpoint>
            <Time>2020-12-05T14:43:20.000Z</Time>
            <Position>
              <LatitudeDegrees>36.79342838935554027557373046875</LatitudeDegrees>
              <LongitudeDegrees>-4.3820360116660594940185546875</LongitudeDegrees>
            </Position>
            <AltitudeMeters>711.20001220703125</AltitudeMeters>
            <DistanceMeters>NAN</DistanceMeters>
          </Trackpoint>
          <Trackpoint>
            <Time>2020-12-05T14:43:21.000Z</Time>
            <Position>
              <LatitudeDegrees>36.7934242822229862213134765625</LatitudeDegrees>
              <LongitudeDegrees>-4.3820329941809177398681640625</LongitudeDegrees>
            </Position>
            <AltitudeMeters>711.20001220703125</AltitudeMeters>
            <DistanceMeters>NAN</DistanceMeters>
          </Trackpoint>
          <Trackpoint>
            <Time>2020-12-05T14:43:22.000Z</Time>
            <Position>
              <LatitudeDegrees>36.79341875016689300537109375</LatitudeDegrees>
              <LongitudeDegrees>-4.38203106634318828582763671875</LongitudeDegrees>
            </Position>
            <AltitudeMeters>711.20001220703125</AltitudeMeters>
            <DistanceMeters>NAN</DistanceMeters>
          </Trackpoint>
          <Trackpoint>
            <Time>2020-12-05T14:43:23.000Z</Time>
            <Position>
              <LatitudeDegrees>36.7934132181107997894287109375</LatitudeDegrees>
              <LongitudeDegrees>-4.38203006051480770111083984375</LongitudeDegrees>
            </Position>
            <AltitudeMeters>711.20001220703125</AltitudeMeters>
            <DistanceMeters>NAN</DistanceMeters>
          </Trackpoint>
          <Trackpoint>
            <Time>2020-12-05T14:43:24.000Z</Time>
            <Position>
              <LatitudeDegrees>36.79340802133083343505859375</LatitudeDegrees>
              <LongitudeDegrees>-4.38203073106706142425537109375</LongitudeDegrees>
            </Position>
            <AltitudeMeters>711.20001220703125</AltitudeMeters>
            <DistanceMeters>NAN</DistanceMeters>
          </Trackpoint>
          <Trackpoint>
            <Time>2020-12-05T14:43:25.000Z</Time>
            <Position>
              <LatitudeDegrees>36.7934058420360088348388671875</LatitudeDegrees>
              <LongitudeDegrees>-4.38202880322933197021484375</LongitudeDegrees>
            </Position>
            <AltitudeMeters>711.20001220703125</AltitudeMeters>
            <DistanceMeters>NAN</DistanceMeters>
          </Trackpoint>
          <Trackpoint>
            <Time>2020-12-05T14:43:26.000Z</Time>
            <Position>
              <LatitudeDegrees>36.79340374656021595001220703125</LatitudeDegrees>
              <LongitudeDegrees>-4.38202721066772937774658203125</LongitudeDegrees>
            </Position>
            <AltitudeMeters>711.20001220703125</AltitudeMeters>
            <DistanceMeters>NAN</DistanceMeters>
          </Trackpoint>
          <Trackpoint>
            <Time>2020-12-05T14:43:27.000Z</Time>
            <Position>
              <LatitudeDegrees>36.7934008128941059112548828125</LatitudeDegrees>
              <LongitudeDegrees>-4.3820259533822536468505859375</LongitudeDegrees>
            </Position>
            <AltitudeMeters>711.20001220703125</AltitudeMeters>
            <DistanceMeters>NAN</DistanceMeters>
          </Trackpoint>
          <Trackpoint>
            <Time>2020-12-05T14:43:28.000Z</Time>
            <Position>
              <LatitudeDegrees>36.79339670576155185699462890625</LatitudeDegrees>
              <LongitudeDegrees>-4.3820254504680633544921875</LongitudeDegrees>
            </Position>
            <AltitudeMeters>711.20001220703125</AltitudeMeters>
            <DistanceMeters>NAN</DistanceMeters>
          </Trackpoint>
          <Trackpoint>
            <Time>2020-12-05T14:43:29.000Z</Time>
            <Position>
              <LatitudeDegrees>36.7933887429535388946533203125</LatitudeDegrees>
              <LongitudeDegrees>-4.3820239417254924774169921875</LongitudeDegrees>
            </Position>
            <AltitudeMeters>711.4000244140625</AltitudeMeters>
            <DistanceMeters>NAN</DistanceMeters>
          </Trackpoint>
          <Trackpoint>
            <Time>2020-12-05T14:43:30.000Z</Time>
            <Position>
              <LatitudeDegrees>36.79337851703166961669921875</LatitudeDegrees>
              <LongitudeDegrees>-4.38202201388776302337646484375</LongitudeDegrees>
            </Position>
            <AltitudeMeters>711.4000244140625</AltitudeMeters>
            <DistanceMeters>NAN</DistanceMeters>
          </Trackpoint>
          <Trackpoint>
            <Time>2020-12-05T14:43:31.000Z</Time>
            <Position>
              <LatitudeDegrees>36.7933666147291660308837890625</LatitudeDegrees>
              <LongitudeDegrees>-4.382018409669399261474609375</LongitudeDegrees>
            </Position>
            <AltitudeMeters>711.4000244140625</AltitudeMeters>
            <DistanceMeters>NAN</DistanceMeters>
          </Trackpoint>
          <Trackpoint>
            <Time>2020-12-05T14:43:32.000Z</Time>
            <Position>
              <LatitudeDegrees>36.79335974156856536865234375</LatitudeDegrees>
              <LongitudeDegrees>-4.3820172362029552459716796875</LongitudeDegrees>
            </Position>
            <AltitudeMeters>711.4000244140625</AltitudeMeters>
            <DistanceMeters>NAN</DistanceMeters>
          </Trackpoint>
          <Trackpoint>
            <Time>2020-12-05T14:43:33.000Z</Time>
            <Position>
              <LatitudeDegrees>36.793342642486095428466796875</LatitudeDegrees>
              <LongitudeDegrees>-4.3820128776133060455322265625</LongitudeDegrees>
            </Position>
            <AltitudeMeters>711.4000244140625</AltitudeMeters>
            <DistanceMeters>NAN</DistanceMeters>
          </Trackpoint>
          <Trackpoint>
            <Time>2020-12-05T14:43:34.000Z</Time>
            <Position>
              <LatitudeDegrees>36.79332562722265720367431640625</LatitudeDegrees>
              <LongitudeDegrees>-4.3820068426430225372314453125</LongitudeDegrees>
            </Position>
            <AltitudeMeters>711.4000244140625</AltitudeMeters>
            <DistanceMeters>NAN</DistanceMeters>
          </Trackpoint>
          <Trackpoint>
            <Time>2020-12-05T14:43:35.000Z</Time>
            <Position>
              <LatitudeDegrees>36.79331305436789989471435546875</LatitudeDegrees>
              <LongitudeDegrees>-4.38200055621564388275146484375</LongitudeDegrees>
            </Position>
            <AltitudeMeters>711.4000244140625</AltitudeMeters>
            <DistanceMeters>NAN</DistanceMeters>
          </Trackpoint>
          <Trackpoint>
            <Time>2020-12-05T14:43:36.000Z</Time>
            <Position>
              <LatitudeDegrees>36.793302409350872039794921875</LatitudeDegrees>
              <LongitudeDegrees>-4.38200038857758045196533203125</LongitudeDegrees>
            </Position>
            <AltitudeMeters>711.4000244140625</AltitudeMeters>
            <DistanceMeters>NAN</DistanceMeters>
          </Trackpoint>
          <Trackpoint>
            <Time>2020-12-05T14:43:37.000Z</Time>
            <Position>
              <LatitudeDegrees>36.79329763166606426239013671875</LatitudeDegrees>
              <LongitudeDegrees>-4.3820011429488658905029296875</LongitudeDegrees>
            </Position>
            <AltitudeMeters>711.4000244140625</AltitudeMeters>
            <DistanceMeters>NAN</DistanceMeters>
          </Trackpoint>
          <Trackpoint>
            <Time>2020-12-05T14:43:38.000Z</Time>
            <Position>
              <LatitudeDegrees>36.793295033276081085205078125</LatitudeDegrees>
              <LongitudeDegrees>-4.38199988566339015960693359375</LongitudeDegrees>
            </Position>
            <AltitudeMeters>711.4000244140625</AltitudeMeters>
            <DistanceMeters>NAN</DistanceMeters>
          </Trackpoint>
          <Trackpoint>
            <Time>2020-12-05T14:43:39.000Z</Time>
            <Position>
              <LatitudeDegrees>36.793290674686431884765625</LatitudeDegrees>
              <LongitudeDegrees>-4.38199971802532672882080078125</LongitudeDegrees>
            </Position>
            <AltitudeMeters>711.4000244140625</AltitudeMeters>
            <DistanceMeters>NAN</DistanceMeters>
          </Trackpoint>
          <Trackpoint>
            <Time>2020-12-05T14:43:40.000Z</Time>
            <Position>
              <LatitudeDegrees>36.79328522644937038421630859375</LatitudeDegrees>
              <LongitudeDegrees>-4.38200122676789760589599609375</LongitudeDegrees>
            </Position>
            <AltitudeMeters>711.5999755859375</AltitudeMeters>
            <DistanceMeters>NAN</DistanceMeters>
          </Trackpoint>
          <Trackpoint>
            <Time>2020-12-05T14:43:41.000Z</Time>
            <Position>
              <LatitudeDegrees>36.79328262805938720703125</LatitudeDegrees>
              <LongitudeDegrees>-4.3820031546056270599365234375</LongitudeDegrees>
            </Position>
            <AltitudeMeters>711.4000244140625</AltitudeMeters>
            <DistanceMeters>NAN</DistanceMeters>
          </Trackpoint>
          <Trackpoint>
            <Time>2020-12-05T14:43:42.000Z</Time>
            <Position>
              <LatitudeDegrees>36.79327717982232570648193359375</LatitudeDegrees>
              <LongitudeDegrees>-4.38200290314853191375732421875</LongitudeDegrees>
            </Position>
            <AltitudeMeters>711.4000244140625</AltitudeMeters>
            <DistanceMeters>NAN</DistanceMeters>
          </Trackpoint>
          <Trackpoint>
            <Time>2020-12-05T14:43:43.000Z</Time>
            <Position>
              <LatitudeDegrees>36.7932663671672344207763671875</LatitudeDegrees>
              <LongitudeDegrees>-4.382002651691436767578125</LongitudeDegrees>
            </Position>
            <AltitudeMeters>711.20001220703125</AltitudeMeters>
            <DistanceMeters>NAN</DistanceMeters>
          </Trackpoint>
          <Trackpoint>
            <Time>2020-12-05T14:43:44.000Z</Time>
            <Position>
              <LatitudeDegrees>36.79325488395988941192626953125</LatitudeDegrees>
              <LongitudeDegrees>-4.38200541771948337554931640625</LongitudeDegrees>
            </Position>
            <AltitudeMeters>711.20001220703125</AltitudeMeters>
            <DistanceMeters>NAN</DistanceMeters>
          </Trackpoint>
          <Trackpoint>
            <Time>2020-12-05T14:43:45.000Z</Time>
            <Position>
              <LatitudeDegrees>36.79324264638125896453857421875</LatitudeDegrees>
              <LongitudeDegrees>-4.38200809992849826812744140625</LongitudeDegrees>
            </Position>
            <AltitudeMeters>711.20001220703125</AltitudeMeters>
            <DistanceMeters>NAN</DistanceMeters>
          </Trackpoint>
          <Trackpoint>
            <Time>2020-12-05T14:43:46.000Z</Time>
            <Position>
              <LatitudeDegrees>36.79323208518326282501220703125</LatitudeDegrees>
              <LongitudeDegrees>-4.38201145268976688385009765625</LongitudeDegrees>
            </Position>
            <AltitudeMeters>711.20001220703125</AltitudeMeters>
            <DistanceMeters>NAN</DistanceMeters>
          </Trackpoint>
          <Trackpoint>
            <Time>2020-12-05T14:43:47.000Z</Time>
            <Position>
              <LatitudeDegrees>36.79322303272783756256103515625</LatitudeDegrees>
              <LongitudeDegrees>-4.382015056908130645751953125</LongitudeDegrees>
            </Position>
            <AltitudeMeters>711.20001220703125</AltitudeMeters>
            <DistanceMeters>NAN</DistanceMeters>
          </Trackpoint>
          <Trackpoint>
            <Time>2020-12-05T14:43:48.000Z</Time>
            <Position>
              <LatitudeDegrees>36.79321716539561748504638671875</LatitudeDegrees>
              <LongitudeDegrees>-4.3820162303745746612548828125</LongitudeDegrees>
            </Position>
            <AltitudeMeters>711.20001220703125</AltitudeMeters>
            <DistanceMeters>NAN</DistanceMeters>
          </Trackpoint>
          <Trackpoint>
            <Time>2020-12-05T14:43:49.000Z</Time>
            <Position>
              <LatitudeDegrees>36.7932113818824291229248046875</LatitudeDegrees>
              <LongitudeDegrees>-4.38201480545103549957275390625</LongitudeDegrees>
            </Position>
            <AltitudeMeters>711.20001220703125</AltitudeMeters>
            <DistanceMeters>NAN</DistanceMeters>
          </Trackpoint>
          <Trackpoint>
            <Time>2020-12-05T14:43:50.000Z</Time>
            <Position>
              <LatitudeDegrees>36.79320626892149448394775390625</LatitudeDegrees>
              <LongitudeDegrees>-4.38201136887073516845703125</LongitudeDegrees>
            </Position>
            <AltitudeMeters>711.20001220703125</AltitudeMeters>
            <DistanceMeters>NAN</DistanceMeters>
          </Trackpoint>
          <Trackpoint>
            <Time>2020-12-05T14:43:51.000Z</Time>
            <Position>
              <LatitudeDegrees>36.7932033352553844451904296875</LatitudeDegrees>
              <LongitudeDegrees>-4.3820051662623882293701171875</LongitudeDegrees>
            </Position>
            <AltitudeMeters>711.20001220703125</AltitudeMeters>
            <DistanceMeters>NAN</DistanceMeters>
          </Trackpoint>
          <Trackpoint>
            <Time>2020-12-05T14:43:52.000Z</Time>
            <Position>
              <LatitudeDegrees>36.79319973103702068328857421875</LatitudeDegrees>
              <LongitudeDegrees>-4.381997287273406982421875</LongitudeDegrees>
            </Position>
            <AltitudeMeters>711.4000244140625</AltitudeMeters>
            <DistanceMeters>NAN</DistanceMeters>
          </Trackpoint>
          <Trackpoint>
            <Time>2020-12-05T14:43:53.000Z</Time>
            <Position>
              <LatitudeDegrees>36.79319671355187892913818359375</LatitudeDegrees>
              <LongitudeDegrees>-4.38199133612215518951416015625</LongitudeDegrees>
            </Position>
            <AltitudeMeters>711.5999755859375</AltitudeMeters>
            <DistanceMeters>NAN</DistanceMeters>
          </Trackpoint>
          <Trackpoint>
            <Time>2020-12-05T14:43:54.000Z</Time>
            <Position>
              <LatitudeDegrees>36.79319285787642002105712890625</LatitudeDegrees>
              <LongitudeDegrees>-4.38198764808475971221923828125</LongitudeDegrees>
            </Position>
            <AltitudeMeters>711.5999755859375</AltitudeMeters>
            <DistanceMeters>NAN</DistanceMeters>
          </Trackpoint>
          <Trackpoint>
            <Time>2020-12-05T14:43:55.000Z</Time>
            <Position>
              <LatitudeDegrees>36.793189086019992828369140625</LatitudeDegrees>
              <LongitudeDegrees>-4.3819853849709033966064453125</LongitudeDegrees>
            </Position>
            <AltitudeMeters>711.5999755859375</AltitudeMeters>
            <DistanceMeters>NAN</DistanceMeters>
          </Trackpoint>
          <Trackpoint>
            <Time>2020-12-05T14:43:56.000Z</Time>
            <Position>
              <LatitudeDegrees>36.79318405687808990478515625</LatitudeDegrees>
              <LongitudeDegrees>-4.38198228366672992706298828125</LongitudeDegrees>
            </Position>
            <AltitudeMeters>711.79998779296875</AltitudeMeters>
            <DistanceMeters>NAN</DistanceMeters>
          </Trackpoint>
          <Trackpoint>
            <Time>2020-12-05T14:43:57.000Z</Time>
            <Position>
              <LatitudeDegrees>36.793176345527172088623046875</LatitudeDegrees>
              <LongitudeDegrees>-4.38197976909577846527099609375</LongitudeDegrees>
            </Position>
            <AltitudeMeters>712</AltitudeMeters>
            <DistanceMeters>NAN</DistanceMeters>
          </Trackpoint>
          <Trackpoint>
            <Time>2020-12-05T14:43:58.000Z</Time>
            <Position>
              <LatitudeDegrees>36.79317324422299861907958984375</LatitudeDegrees>
              <LongitudeDegrees>-4.38197842799127101898193359375</LongitudeDegrees>
            </Position>
            <AltitudeMeters>712.20001220703125</AltitudeMeters>
            <DistanceMeters>NAN</DistanceMeters>
          </Trackpoint>
          <Trackpoint>
            <Time>2020-12-05T14:43:59.000Z</Time>
            <Position>
              <LatitudeDegrees>36.79317173548042774200439453125</LatitudeDegrees>
              <LongitudeDegrees>-4.381977505981922149658203125</LongitudeDegrees>
            </Position>
            <AltitudeMeters>712.20001220703125</AltitudeMeters>
            <DistanceMeters>NAN</DistanceMeters>
          </Trackpoint>
          <Trackpoint>
            <Time>2020-12-05T14:44:00.000Z</Time>
            <Position>
              <LatitudeDegrees>36.79316955618560314178466796875</LatitudeDegrees>
              <LongitudeDegrees>-4.3819746561348438262939453125</LongitudeDegrees>
            </Position>
            <AltitudeMeters>712.4000244140625</AltitudeMeters>
            <DistanceMeters>NAN</DistanceMeters>
          </Trackpoint>
          <Trackpoint>
            <Time>2020-12-05T14:44:01.000Z</Time>
            <Position>
              <LatitudeDegrees>36.79317022673785686492919921875</LatitudeDegrees>
              <LongitudeDegrees>-4.3819716386497020721435546875</LongitudeDegrees>
            </Position>
            <AltitudeMeters>712.4000244140625</AltitudeMeters>
            <DistanceMeters>NAN</DistanceMeters>
          </Trackpoint>
          <Trackpoint>
            <Time>2020-12-05T14:44:02.000Z</Time>
            <Position>
              <LatitudeDegrees>36.79317198693752288818359375</LatitudeDegrees>
              <LongitudeDegrees>-4.3819679506123065948486328125</LongitudeDegrees>
            </Position>
            <AltitudeMeters>712.4000244140625</AltitudeMeters>
            <DistanceMeters>NAN</DistanceMeters>
          </Trackpoint>
          <Trackpoint>
            <Time>2020-12-05T14:44:03.000Z</Time>
            <Position>
              <LatitudeDegrees>36.793173663318157196044921875</LatitudeDegrees>
              <LongitudeDegrees>-4.38196577131748199462890625</LongitudeDegrees>
            </Position>
            <AltitudeMeters>712.4000244140625</AltitudeMeters>
            <DistanceMeters>NAN</DistanceMeters>
          </Trackpoint>
          <Trackpoint>
            <Time>2020-12-05T14:44:04.000Z</Time>
            <Position>
              <LatitudeDegrees>36.79317793808877468109130859375</LatitudeDegrees>
              <LongitudeDegrees>-4.38196317292749881744384765625</LongitudeDegrees>
            </Position>
            <AltitudeMeters>712.4000244140625</AltitudeMeters>
            <DistanceMeters>NAN</DistanceMeters>
          </Trackpoint>
          <Trackpoint>
            <Time>2020-12-05T14:44:05.000Z</Time>
            <Position>
              <LatitudeDegrees>36.79318481124937534332275390625</LatitudeDegrees>
              <LongitudeDegrees>-4.381959736347198486328125</LongitudeDegrees>
            </Position>
            <AltitudeMeters>712.4000244140625</AltitudeMeters>
            <DistanceMeters>NAN</DistanceMeters>
          </Trackpoint>
          <Trackpoint>
            <Time>2020-12-05T14:44:06.000Z</Time>
            <Position>
              <LatitudeDegrees>36.7931932769715785980224609375</LatitudeDegrees>
              <LongitudeDegrees>-4.38195613212883472442626953125</LongitudeDegrees>
            </Position>
            <AltitudeMeters>712.4000244140625</AltitudeMeters>
            <DistanceMeters>NAN</DistanceMeters>
          </Trackpoint>
          <Trackpoint>
            <Time>2020-12-05T14:44:07.000Z</Time>
            <Position>
              <LatitudeDegrees>36.79319554008543491363525390625</LatitudeDegrees>
              <LongitudeDegrees>-4.381953366100788116455078125</LongitudeDegrees>
            </Position>
            <AltitudeMeters>712.4000244140625</AltitudeMeters>
            <DistanceMeters>NAN</DistanceMeters>
          </Trackpoint>
          <Trackpoint>
            <Time>2020-12-05T14:44:08.000Z</Time>
            <Position>
              <LatitudeDegrees>36.79319822229444980621337890625</LatitudeDegrees>
              <LongitudeDegrees>-4.3819562159478664398193359375</LongitudeDegrees>
            </Position>
            <AltitudeMeters>712.4000244140625</AltitudeMeters>
            <DistanceMeters>NAN</DistanceMeters>
          </Trackpoint>
          <Trackpoint>
            <Time>2020-12-05T14:44:09.000Z</Time>
            <Position>
              <LatitudeDegrees>36.79319838993251323699951171875</LatitudeDegrees>
              <LongitudeDegrees>-4.3819588981568813323974609375</LongitudeDegrees>
            </Position>
            <AltitudeMeters>712.4000244140625</AltitudeMeters>
            <DistanceMeters>NAN</DistanceMeters>
          </Trackpoint>
          <Trackpoint>
            <Time>2020-12-05T14:44:10.000Z</Time>
            <Position>
              <LatitudeDegrees>36.79320023395121097564697265625</LatitudeDegrees>
              <LongitudeDegrees>-4.381959736347198486328125</LongitudeDegrees>
            </Position>
            <AltitudeMeters>712.5999755859375</AltitudeMeters>
            <DistanceMeters>NAN</DistanceMeters>
          </Trackpoint>
          <Trackpoint>
            <Time>2020-12-05T14:44:11.000Z</Time>
            <Position>
              <LatitudeDegrees>36.7932043410837650299072265625</LatitudeDegrees>
              <LongitudeDegrees>-4.3819565512239933013916015625</LongitudeDegrees>
            </Position>
            <AltitudeMeters>712.5999755859375</AltitudeMeters>
            <DistanceMeters>NAN</DistanceMeters>
          </Trackpoint>
          <Trackpoint>
            <Time>2020-12-05T14:44:12.000Z</Time>
            <Position>
              <LatitudeDegrees>36.79320928640663623809814453125</LatitudeDegrees>
              <LongitudeDegrees>-4.38195504248142242431640625</LongitudeDegrees>
            </Position>
            <AltitudeMeters>712.5999755859375</AltitudeMeters>
            <DistanceMeters>NAN</DistanceMeters>
          </Trackpoint>
          <Trackpoint>
            <Time>2020-12-05T14:44:13.000Z</Time>
            <Position>
              <LatitudeDegrees>36.79321498610079288482666015625</LatitudeDegrees>
              <LongitudeDegrees>-4.381956048309803009033203125</LongitudeDegrees>
            </Position>
            <AltitudeMeters>712.5999755859375</AltitudeMeters>
            <DistanceMeters>NAN</DistanceMeters>
          </Trackpoint>
          <Trackpoint>
            <Time>2020-12-05T14:44:14.000Z</Time>
            <Position>
              <LatitudeDegrees>36.7932160757482051849365234375</LatitudeDegrees>
              <LongitudeDegrees>-4.3819555453956127166748046875</LongitudeDegrees>
            </Position>
            <AltitudeMeters>712.4000244140625</AltitudeMeters>
            <DistanceMeters>NAN</DistanceMeters>
          </Trackpoint>
          <Trackpoint>
            <Time>2020-12-05T14:44:15.000Z</Time>
            <Position>
              <LatitudeDegrees>36.7932174168527126312255859375</LatitudeDegrees>
              <LongitudeDegrees>-4.38195546157658100128173828125</LongitudeDegrees>
            </Position>
            <AltitudeMeters>712.4000244140625</AltitudeMeters>
            <DistanceMeters>NAN</DistanceMeters>
          </Trackpoint>
          <Trackpoint>
            <Time>2020-12-05T14:44:16.000Z</Time>
            <Position>
              <LatitudeDegrees>36.79321917705237865447998046875</LatitudeDegrees>
              <LongitudeDegrees>-4.38195294700562953948974609375</LongitudeDegrees>
            </Position>
            <AltitudeMeters>712.4000244140625</AltitudeMeters>
            <DistanceMeters>NAN</DistanceMeters>
          </Trackpoint>
          <Trackpoint>
            <Time>2020-12-05T14:44:17.000Z</Time>
            <Position>
              <LatitudeDegrees>36.79322001524269580841064453125</LatitudeDegrees>
              <LongitudeDegrees>-4.38195328228175640106201171875</LongitudeDegrees>
            </Position>
            <AltitudeMeters>712.4000244140625</AltitudeMeters>
            <DistanceMeters>NAN</DistanceMeters>
          </Trackpoint>
          <Trackpoint>
            <Time>2020-12-05T14:44:18.000Z</Time>
            <Position>
              <LatitudeDegrees>36.793220601975917816162109375</LatitudeDegrees>
              <LongitudeDegrees>-4.3819530308246612548828125</LongitudeDegrees>
            </Position>
            <AltitudeMeters>712.5999755859375</AltitudeMeters>
            <DistanceMeters>NAN</DistanceMeters>
          </Trackpoint>
          <Trackpoint>
            <Time>2020-12-05T14:44:19.000Z</Time>
            <Position>
              <LatitudeDegrees>36.79322085343301296234130859375</LatitudeDegrees>
              <LongitudeDegrees>-4.381952024996280670166015625</LongitudeDegrees>
            </Position>
            <AltitudeMeters>712.5999755859375</AltitudeMeters>
            <DistanceMeters>NAN</DistanceMeters>
          </Trackpoint>
          <Trackpoint>
            <Time>2020-12-05T14:44:20.000Z</Time>
            <Position>
              <LatitudeDegrees>36.7932197637856006622314453125</LatitudeDegrees>
              <LongitudeDegrees>-4.38195009715855121612548828125</LongitudeDegrees>
            </Position>
            <AltitudeMeters>712.5999755859375</AltitudeMeters>
            <DistanceMeters>NAN</DistanceMeters>
          </Trackpoint>
          <Trackpoint>
            <Time>2020-12-05T14:44:21.000Z</Time>
            <Position>
              <LatitudeDegrees>36.79321800358593463897705078125</LatitudeDegrees>
              <LongitudeDegrees>-4.38195009715855121612548828125</LongitudeDegrees>
            </Position>
            <AltitudeMeters>712.79998779296875</AltitudeMeters>
            <DistanceMeters>NAN</DistanceMeters>
          </Trackpoint>
          <Trackpoint>
            <Time>2020-12-05T14:44:22.000Z</Time>
            <Position>
              <LatitudeDegrees>36.793219260871410369873046875</LatitudeDegrees>
              <LongitudeDegrees>-4.38194942660629749298095703125</LongitudeDegrees>
            </Position>
            <AltitudeMeters>712.79998779296875</AltitudeMeters>
            <DistanceMeters>NAN</DistanceMeters>
          </Trackpoint>
          <Trackpoint>
            <Time>2020-12-05T14:44:23.000Z</Time>
            <Position>
              <LatitudeDegrees>36.7932195961475372314453125</LatitudeDegrees>
              <LongitudeDegrees>-4.3819495104253292083740234375</LongitudeDegrees>
            </Position>
            <AltitudeMeters>713</AltitudeMeters>
            <DistanceMeters>NAN</DistanceMeters>
          </Trackpoint>
          <Trackpoint>
            <Time>2020-12-05T14:44:24.000Z</Time>
            <Position>
              <LatitudeDegrees>36.79321867413818836212158203125</LatitudeDegrees>
              <LongitudeDegrees>-4.3819481693208217620849609375</LongitudeDegrees>
            </Position>
            <AltitudeMeters>713</AltitudeMeters>
            <DistanceMeters>NAN</DistanceMeters>
          </Trackpoint>
          <Trackpoint>
            <Time>2020-12-05T14:44:25.000Z</Time>
            <Position>
              <LatitudeDegrees>36.79321632720530033111572265625</LatitudeDegrees>
              <LongitudeDegrees>-4.38194833695888519287109375</LongitudeDegrees>
            </Position>
            <AltitudeMeters>713</AltitudeMeters>
            <DistanceMeters>NAN</DistanceMeters>
          </Trackpoint>
          <Trackpoint>
            <Time>2020-12-05T14:44:26.000Z</Time>
            <Position>
              <LatitudeDegrees>36.79321490228176116943359375</LatitudeDegrees>
              <LongitudeDegrees>-4.38195277936756610870361328125</LongitudeDegrees>
            </Position>
            <AltitudeMeters>713.20001220703125</AltitudeMeters>
            <DistanceMeters>NAN</DistanceMeters>
          </Trackpoint>
          <Trackpoint>
            <Time>2020-12-05T14:44:27.000Z</Time>
            <Position>
              <LatitudeDegrees>36.79321364499628543853759765625</LatitudeDegrees>
              <LongitudeDegrees>-4.38195847906172275543212890625</LongitudeDegrees>
            </Position>
            <AltitudeMeters>713.20001220703125</AltitudeMeters>
            <DistanceMeters>NAN</DistanceMeters>
          </Trackpoint>
          <Trackpoint>
            <Time>2020-12-05T14:44:28.000Z</Time>
            <Position>
              <LatitudeDegrees>36.79321431554853916168212890625</LatitudeDegrees>
              <LongitudeDegrees>-4.3819612450897693634033203125</LongitudeDegrees>
            </Position>
            <AltitudeMeters>713.4000244140625</AltitudeMeters>
            <DistanceMeters>NAN</DistanceMeters>
          </Trackpoint>
          <Trackpoint>
            <Time>2020-12-05T14:44:29.000Z</Time>
            <Position>
              <LatitudeDegrees>36.79321582429111003875732421875</LatitudeDegrees>
              <LongitudeDegrees>-4.3819602392613887786865234375</LongitudeDegrees>
            </Position>
            <AltitudeMeters>713.4000244140625</AltitudeMeters>
            <DistanceMeters>NAN</DistanceMeters>
          </Trackpoint>
          <Trackpoint>
            <Time>2020-12-05T14:44:30.000Z</Time>
            <Position>
              <LatitudeDegrees>36.79321615956723690032958984375</LatitudeDegrees>
              <LongitudeDegrees>-4.3819583952426910400390625</LongitudeDegrees>
            </Position>
            <AltitudeMeters>713.4000244140625</AltitudeMeters>
            <DistanceMeters>NAN</DistanceMeters>
          </Trackpoint>
          <Trackpoint>
            <Time>2020-12-05T14:44:31.000Z</Time>
            <Position>
              <LatitudeDegrees>36.79321314208209514617919921875</LatitudeDegrees>
              <LongitudeDegrees>-4.38195596449077129364013671875</LongitudeDegrees>
            </Position>
            <AltitudeMeters>713.4000244140625</AltitudeMeters>
            <DistanceMeters>NAN</DistanceMeters>
          </Trackpoint>
          <Trackpoint>
            <Time>2020-12-05T14:44:32.000Z</Time>
            <Position>
              <LatitudeDegrees>36.793213896453380584716796875</LatitudeDegrees>
              <LongitudeDegrees>-4.3819558806717395782470703125</LongitudeDegrees>
            </Position>
            <AltitudeMeters>713.4000244140625</AltitudeMeters>
            <DistanceMeters>NAN</DistanceMeters>
          </Trackpoint>
          <Trackpoint>
            <Time>2020-12-05T14:44:33.000Z</Time>
            <Position>
              <LatitudeDegrees>36.7932143993675708770751953125</LatitudeDegrees>
              <LongitudeDegrees>-4.38195495866239070892333984375</LongitudeDegrees>
            </Position>
            <AltitudeMeters>713.4000244140625</AltitudeMeters>
            <DistanceMeters>NAN</DistanceMeters>
          </Trackpoint>
          <Trackpoint>
            <Time>2020-12-05T14:44:34.000Z</Time>
            <Position>
              <LatitudeDegrees>36.79321490228176116943359375</LatitudeDegrees>
              <LongitudeDegrees>-4.38195227645337581634521484375</LongitudeDegrees>
            </Position>
            <AltitudeMeters>713.4000244140625</AltitudeMeters>
            <DistanceMeters>NAN</DistanceMeters>
          </Trackpoint>
          <Trackpoint>
            <Time>2020-12-05T14:44:35.000Z</Time>
            <Position>
              <LatitudeDegrees>36.79321213625371456146240234375</LatitudeDegrees>
              <LongitudeDegrees>-4.3819552101194858551025390625</LongitudeDegrees>
            </Position>
            <AltitudeMeters>713.4000244140625</AltitudeMeters>
            <DistanceMeters>NAN</DistanceMeters>
          </Trackpoint>
          <Trackpoint>
            <Time>2020-12-05T14:44:36.000Z</Time>
            <Position>
              <LatitudeDegrees>36.79320844821631908416748046875</LatitudeDegrees>
              <LongitudeDegrees>-4.38195495866239070892333984375</LongitudeDegrees>
            </Position>
            <AltitudeMeters>713.4000244140625</AltitudeMeters>
            <DistanceMeters>NAN</DistanceMeters>
          </Trackpoint>
          <Trackpoint>
            <Time>2020-12-05T14:44:37.000Z</Time>
            <Position>
              <LatitudeDegrees>36.79320509545505046844482421875</LatitudeDegrees>
              <LongitudeDegrees>-4.38195663504302501678466796875</LongitudeDegrees>
            </Position>
            <AltitudeMeters>713.4000244140625</AltitudeMeters>
            <DistanceMeters>NAN</DistanceMeters>
          </Trackpoint>
          <Trackpoint>
            <Time>2020-12-05T14:44:38.000Z</Time>
            <Position>
              <LatitudeDegrees>36.79320308379828929901123046875</LatitudeDegrees>
              <LongitudeDegrees>-4.38195764087140560150146484375</LongitudeDegrees>
            </Position>
            <AltitudeMeters>713.4000244140625</AltitudeMeters>
            <DistanceMeters>NAN</DistanceMeters>
          </Trackpoint>
          <Trackpoint>
            <Time>2020-12-05T14:44:39.000Z</Time>
            <Position>
              <LatitudeDegrees>36.79320140741765499114990234375</LatitudeDegrees>
              <LongitudeDegrees>-4.38195529393851757049560546875</LongitudeDegrees>
            </Position>
            <AltitudeMeters>713.5999755859375</AltitudeMeters>
            <DistanceMeters>NAN</DistanceMeters>
          </Trackpoint>
          <Trackpoint>
            <Time>2020-12-05T14:44:40.000Z</Time>
            <Position>
              <LatitudeDegrees>36.79320107214152812957763671875</LatitudeDegrees>
              <LongitudeDegrees>-4.381954707205295562744140625</LongitudeDegrees>
            </Position>
            <AltitudeMeters>713.5999755859375</AltitudeMeters>
            <DistanceMeters>NAN</DistanceMeters>
          </Trackpoint>
          <Trackpoint>
            <Time>2020-12-05T14:44:41.000Z</Time>
            <Position>
              <LatitudeDegrees>36.793200485408306121826171875</LatitudeDegrees>
              <LongitudeDegrees>-4.3819557130336761474609375</LongitudeDegrees>
            </Position>
            <AltitudeMeters>713.5999755859375</AltitudeMeters>
            <DistanceMeters>NAN</DistanceMeters>
          </Trackpoint>
          <Trackpoint>
            <Time>2020-12-05T14:44:42.000Z</Time>
            <Position>
              <LatitudeDegrees>36.79319906048476696014404296875</LatitudeDegrees>
              <LongitudeDegrees>-4.3819557130336761474609375</LongitudeDegrees>
            </Position>
            <AltitudeMeters>713.5999755859375</AltitudeMeters>
            <DistanceMeters>NAN</DistanceMeters>
          </Trackpoint>
          <Trackpoint>
            <Time>2020-12-05T14:44:43.000Z</Time>
            <Position>
              <LatitudeDegrees>36.7931966297328472137451171875</LatitudeDegrees>
              <LongitudeDegrees>-4.3819548748433589935302734375</LongitudeDegrees>
            </Position>
            <AltitudeMeters>713.4000244140625</AltitudeMeters>
            <DistanceMeters>NAN</DistanceMeters>
          </Trackpoint>
          <Trackpoint>
            <Time>2020-12-05T14:44:44.000Z</Time>
            <Position>
              <LatitudeDegrees>36.79319134913384914398193359375</LatitudeDegrees>
              <LongitudeDegrees>-4.3819542042911052703857421875</LongitudeDegrees>
            </Position>
            <AltitudeMeters>713.4000244140625</AltitudeMeters>
            <DistanceMeters>NAN</DistanceMeters>
          </Trackpoint>
          <Trackpoint>
            <Time>2020-12-05T14:44:45.000Z</Time>
            <Position>
              <LatitudeDegrees>36.7931882478296756744384765625</LatitudeDegrees>
              <LongitudeDegrees>-4.38195370137691497802734375</LongitudeDegrees>
            </Position>
            <AltitudeMeters>713.4000244140625</AltitudeMeters>
            <DistanceMeters>NAN</DistanceMeters>
          </Trackpoint>
          <Trackpoint>
            <Time>2020-12-05T14:44:46.000Z</Time>
            <Position>
              <LatitudeDegrees>36.7931912653148174285888671875</LatitudeDegrees>
              <LongitudeDegrees>-4.3819578923285007476806640625</LongitudeDegrees>
            </Position>
            <AltitudeMeters>713.4000244140625</AltitudeMeters>
            <DistanceMeters>NAN</DistanceMeters>
          </Trackpoint>
          <Trackpoint>
            <Time>2020-12-05T14:44:47.000Z</Time>
            <Position>
              <LatitudeDegrees>36.793193109333515167236328125</LatitudeDegrees>
              <LongitudeDegrees>-4.38195906579494476318359375</LongitudeDegrees>
            </Position>
            <AltitudeMeters>713.4000244140625</AltitudeMeters>
            <DistanceMeters>NAN</DistanceMeters>
          </Trackpoint>
          <Trackpoint>
            <Time>2020-12-05T14:44:48.000Z</Time>
            <Position>
              <LatitudeDegrees>36.79319570772349834442138671875</LatitudeDegrees>
              <LongitudeDegrees>-4.38196116127073764801025390625</LongitudeDegrees>
            </Position>
            <AltitudeMeters>713.4000244140625</AltitudeMeters>
            <DistanceMeters>NAN</DistanceMeters>
          </Trackpoint>
          <Trackpoint>
            <Time>2020-12-05T14:44:49.000Z</Time>
            <Position>
              <LatitudeDegrees>36.793199814856052398681640625</LatitudeDegrees>
              <LongitudeDegrees>-4.381962083280086517333984375</LongitudeDegrees>
            </Position>
            <AltitudeMeters>713.5999755859375</AltitudeMeters>
            <DistanceMeters>NAN</DistanceMeters>
          </Trackpoint>
          <Trackpoint>
            <Time>2020-12-05T14:44:50.000Z</Time>
            <Position>
              <LatitudeDegrees>36.79320819675922393798828125</LatitudeDegrees>
              <LongitudeDegrees>-4.38196233473718166351318359375</LongitudeDegrees>
            </Position>
            <AltitudeMeters>713.5999755859375</AltitudeMeters>
            <DistanceMeters>NAN</DistanceMeters>
          </Trackpoint>
          <Trackpoint>
            <Time>2020-12-05T14:44:51.000Z</Time>
            <Position>
              <LatitudeDegrees>36.79320819675922393798828125</LatitudeDegrees>
              <LongitudeDegrees>-4.381962753832340240478515625</LongitudeDegrees>
            </Position>
            <AltitudeMeters>713.79998779296875</AltitudeMeters>
            <DistanceMeters>NAN</DistanceMeters>
          </Trackpoint>
          <Trackpoint>
            <Time>2020-12-05T14:44:52.000Z</Time>
            <Position>
              <LatitudeDegrees>36.79320953786373138427734375</LatitudeDegrees>
              <LongitudeDegrees>-4.3819637596607208251953125</LongitudeDegrees>
            </Position>
            <AltitudeMeters>713.79998779296875</AltitudeMeters>
            <DistanceMeters>NAN</DistanceMeters>
          </Trackpoint>
          <Trackpoint>
            <Time>2020-12-05T14:44:53.000Z</Time>
            <Position>
              <LatitudeDegrees>36.79321087896823883056640625</LatitudeDegrees>
              <LongitudeDegrees>-4.38196501694619655609130859375</LongitudeDegrees>
            </Position>
            <AltitudeMeters>713.79998779296875</AltitudeMeters>
            <DistanceMeters>NAN</DistanceMeters>
          </Trackpoint>
          <Trackpoint>
            <Time>2020-12-05T14:44:54.000Z</Time>
            <Position>
              <LatitudeDegrees>36.79321163333952426910400390625</LatitudeDegrees>
              <LongitudeDegrees>-4.3819649331271648406982421875</LongitudeDegrees>
            </Position>
            <AltitudeMeters>713.79998779296875</AltitudeMeters>
            <DistanceMeters>NAN</DistanceMeters>
          </Trackpoint>
          <Trackpoint>
            <Time>2020-12-05T14:44:55.000Z</Time>
            <Position>
              <LatitudeDegrees>36.793211214244365692138671875</LatitudeDegrees>
              <LongitudeDegrees>-4.38196568749845027923583984375</LongitudeDegrees>
            </Position>
            <AltitudeMeters>713.79998779296875</AltitudeMeters>
            <DistanceMeters>NAN</DistanceMeters>
          </Trackpoint>
          <Trackpoint>
            <Time>2020-12-05T14:44:56.000Z</Time>
            <Position>
              <LatitudeDegrees>36.793211214244365692138671875</LatitudeDegrees>
              <LongitudeDegrees>-4.38196443021297454833984375</LongitudeDegrees>
            </Position>
            <AltitudeMeters>713.79998779296875</AltitudeMeters>
            <DistanceMeters>NAN</DistanceMeters>
          </Trackpoint>
          <Trackpoint>
            <Time>2020-12-05T14:44:57.000Z</Time>
            <Position>
              <LatitudeDegrees>36.793212890625</LatitudeDegrees>
              <LongitudeDegrees>-4.3819629214704036712646484375</LongitudeDegrees>
            </Position>
            <AltitudeMeters>713.5999755859375</AltitudeMeters>
            <DistanceMeters>NAN</DistanceMeters>
          </Trackpoint>
          <Trackpoint>
            <Time>2020-12-05T14:44:58.000Z</Time>
            <Position>
              <LatitudeDegrees>36.793213225901126861572265625</LatitudeDegrees>
              <LongitudeDegrees>-4.3819629214704036712646484375</LongitudeDegrees>
            </Position>
            <AltitudeMeters>713.5999755859375</AltitudeMeters>
            <DistanceMeters>NAN</DistanceMeters>
          </Trackpoint>
          <Trackpoint>
            <Time>2020-12-05T14:44:59.000Z</Time>
            <Position>
              <LatitudeDegrees>36.7932130582630634307861328125</LatitudeDegrees>
              <LongitudeDegrees>-4.38196350820362567901611328125</LongitudeDegrees>
            </Position>
            <AltitudeMeters>713.5999755859375</AltitudeMeters>
            <DistanceMeters>NAN</DistanceMeters>
          </Trackpoint>
          <Trackpoint>
            <Time>2020-12-05T14:45:00.000Z</Time>
            <Position>
              <LatitudeDegrees>36.79320844821631908416748046875</LatitudeDegrees>
              <LongitudeDegrees>-4.38196803443133831024169921875</LongitudeDegrees>
            </Position>
            <AltitudeMeters>713.5999755859375</AltitudeMeters>
            <DistanceMeters>NAN</DistanceMeters>
          </Trackpoint>
          <Trackpoint>
            <Time>2020-12-05T14:45:01.000Z</Time>
            <Position>
              <LatitudeDegrees>36.79320308379828929901123046875</LatitudeDegrees>
              <LongitudeDegrees>-4.3819739855825901031494140625</LongitudeDegrees>
            </Position>
            <AltitudeMeters>713.5999755859375</AltitudeMeters>
            <DistanceMeters>NAN</DistanceMeters>
          </Trackpoint>
          <Trackpoint>
            <Time>2020-12-05T14:45:02.000Z</Time>
            <Position>
              <LatitudeDegrees>36.7931969650089740753173828125</LatitudeDegrees>
              <LongitudeDegrees>-4.3819796852767467498779296875</LongitudeDegrees>
            </Position>
            <AltitudeMeters>713.5999755859375</AltitudeMeters>
            <DistanceMeters>NAN</DistanceMeters>
          </Trackpoint>
          <Trackpoint>
            <Time>2020-12-05T14:45:03.000Z</Time>
            <Position>
              <LatitudeDegrees>36.7931842245161533355712890625</LatitudeDegrees>
              <LongitudeDegrees>-4.381984211504459381103515625</LongitudeDegrees>
            </Position>
            <AltitudeMeters>713.5999755859375</AltitudeMeters>
            <DistanceMeters>NAN</DistanceMeters>
          </Trackpoint>
          <Trackpoint>
            <Time>2020-12-05T14:45:04.000Z</Time>
            <Position>
              <LatitudeDegrees>36.7931718192994594573974609375</LatitudeDegrees>
              <LongitudeDegrees>-4.3819847144186496734619140625</LongitudeDegrees>
            </Position>
            <AltitudeMeters>713.5999755859375</AltitudeMeters>
            <DistanceMeters>NAN</DistanceMeters>
          </Trackpoint>
          <Trackpoint>
            <Time>2020-12-05T14:45:05.000Z</Time>
            <Position>
              <LatitudeDegrees>36.7931632697582244873046875</LatitudeDegrees>
              <LongitudeDegrees>-4.3819833733141422271728515625</LongitudeDegrees>
            </Position>
            <AltitudeMeters>713.5999755859375</AltitudeMeters>
            <DistanceMeters>NAN</DistanceMeters>
          </Trackpoint>
          <Trackpoint>
            <Time>2020-12-05T14:45:06.000Z</Time>
            <Position>
              <LatitudeDegrees>36.79315580986440181732177734375</LatitudeDegrees>
              <LongitudeDegrees>-4.3819825351238250732421875</LongitudeDegrees>
            </Position>
            <AltitudeMeters>713.5999755859375</AltitudeMeters>
            <DistanceMeters>NAN</DistanceMeters>
          </Trackpoint>
          <Trackpoint>
            <Time>2020-12-05T14:45:07.000Z</Time>
            <Position>
              <LatitudeDegrees>36.79315111599862575531005859375</LatitudeDegrees>
              <LongitudeDegrees>-4.3819810263812541961669921875</LongitudeDegrees>
            </Position>
            <AltitudeMeters>713.5999755859375</AltitudeMeters>
            <DistanceMeters>NAN</DistanceMeters>
          </Trackpoint>
          <Trackpoint>
            <Time>2020-12-05T14:45:08.000Z</Time>
            <Position>
              <LatitudeDegrees>36.79314675740897655487060546875</LatitudeDegrees>
              <LongitudeDegrees>-4.3819793500006198883056640625</LongitudeDegrees>
            </Position>
            <AltitudeMeters>713.5999755859375</AltitudeMeters>
            <DistanceMeters>NAN</DistanceMeters>
          </Trackpoint>
          <Trackpoint>
            <Time>2020-12-05T14:45:09.000Z</Time>
            <Position>
              <LatitudeDegrees>36.7931403033435344696044921875</LatitudeDegrees>
              <LongitudeDegrees>-4.38197926618158817291259765625</LongitudeDegrees>
            </Position>
            <AltitudeMeters>713.5999755859375</AltitudeMeters>
            <DistanceMeters>NAN</DistanceMeters>
          </Trackpoint>
          <Trackpoint>
            <Time>2020-12-05T14:45:10.000Z</Time>
            <Position>
              <LatitudeDegrees>36.7931362800300121307373046875</LatitudeDegrees>
              <LongitudeDegrees>-4.38198052346706390380859375</LongitudeDegrees>
            </Position>
            <AltitudeMeters>713.5999755859375</AltitudeMeters>
            <DistanceMeters>NAN</DistanceMeters>
          </Trackpoint>
          <Trackpoint>
            <Time>2020-12-05T14:45:11.000Z</Time>
            <Position>
              <LatitudeDegrees>36.79313451983034610748291015625</LatitudeDegrees>
              <LongitudeDegrees>-4.38198060728609561920166015625</LongitudeDegrees>
            </Position>
            <AltitudeMeters>713.5999755859375</AltitudeMeters>
            <DistanceMeters>NAN</DistanceMeters>
          </Trackpoint>
          <Trackpoint>
            <Time>2020-12-05T14:45:12.000Z</Time>
            <Position>
              <LatitudeDegrees>36.79313200525939464569091796875</LatitudeDegrees>
              <LongitudeDegrees>-4.38198060728609561920166015625</LongitudeDegrees>
            </Position>
            <AltitudeMeters>713.5999755859375</AltitudeMeters>
            <DistanceMeters>NAN</DistanceMeters>
          </Trackpoint>
          <Trackpoint>
            <Time>2020-12-05T14:45:13.000Z</Time>
            <Position>
              <LatitudeDegrees>36.79312965832650661468505859375</LatitudeDegrees>
              <LongitudeDegrees>-4.381981194019317626953125</LongitudeDegrees>
            </Position>
            <AltitudeMeters>713.5999755859375</AltitudeMeters>
            <DistanceMeters>NAN</DistanceMeters>
          </Trackpoint>
          <Trackpoint>
            <Time>2020-12-05T14:45:14.000Z</Time>
            <Position>
              <LatitudeDegrees>36.79311691783368587493896484375</LatitudeDegrees>
              <LongitudeDegrees>-4.38198186457157135009765625</LongitudeDegrees>
            </Position>
            <AltitudeMeters>713.5999755859375</AltitudeMeters>
            <DistanceMeters>NAN</DistanceMeters>
          </Trackpoint>
          <Trackpoint>
            <Time>2020-12-05T14:45:15.000Z</Time>
            <Position>
              <LatitudeDegrees>36.79309981875121593475341796875</LatitudeDegrees>
              <LongitudeDegrees>-4.38198043964803218841552734375</LongitudeDegrees>
            </Position>
            <AltitudeMeters>713.5999755859375</AltitudeMeters>
            <DistanceMeters>NAN</DistanceMeters>
          </Trackpoint>
          <Trackpoint>
            <Time>2020-12-05T14:45:16.000Z</Time>
            <Position>
              <LatitudeDegrees>36.79309126920998096466064453125</LatitudeDegrees>
              <LongitudeDegrees>-4.38197976909577846527099609375</LongitudeDegrees>
            </Position>
            <AltitudeMeters>713.5999755859375</AltitudeMeters>
            <DistanceMeters>NAN</DistanceMeters>
          </Trackpoint>
          <Trackpoint>
            <Time>2020-12-05T14:45:17.000Z</Time>
            <Position>
              <LatitudeDegrees>36.79308406077325344085693359375</LatitudeDegrees>
              <LongitudeDegrees>-4.381978176534175872802734375</LongitudeDegrees>
            </Position>
            <AltitudeMeters>713.79998779296875</AltitudeMeters>
            <DistanceMeters>NAN</DistanceMeters>
          </Trackpoint>
          <Trackpoint>
            <Time>2020-12-05T14:45:18.000Z</Time>
            <Position>
              <LatitudeDegrees>36.793079115450382232666015625</LatitudeDegrees>
              <LongitudeDegrees>-4.38197591342031955718994140625</LongitudeDegrees>
            </Position>
            <AltitudeMeters>713.79998779296875</AltitudeMeters>
            <DistanceMeters>NAN</DistanceMeters>
          </Trackpoint>
          <Trackpoint>
            <Time>2020-12-05T14:45:19.000Z</Time>
            <Position>
              <LatitudeDegrees>36.79307634942233562469482421875</LatitudeDegrees>
              <LongitudeDegrees>-4.381972141563892364501953125</LongitudeDegrees>
            </Position>
            <AltitudeMeters>713.79998779296875</AltitudeMeters>
            <DistanceMeters>NAN</DistanceMeters>
          </Trackpoint>
          <Trackpoint>
            <Time>2020-12-05T14:45:20.000Z</Time>
            <Position>
              <LatitudeDegrees>36.7930786125361919403076171875</LatitudeDegrees>
              <LongitudeDegrees>-4.3819669447839260101318359375</LongitudeDegrees>
            </Position>
            <AltitudeMeters>714</AltitudeMeters>
            <DistanceMeters>NAN</DistanceMeters>
          </Trackpoint>
          <Trackpoint>
            <Time>2020-12-05T14:45:21.000Z</Time>
            <Position>
              <LatitudeDegrees>36.7930799536406993865966796875</LatitudeDegrees>
              <LongitudeDegrees>-4.381964765489101409912109375</LongitudeDegrees>
            </Position>
            <AltitudeMeters>714</AltitudeMeters>
            <DistanceMeters>NAN</DistanceMeters>
          </Trackpoint>
          <Trackpoint>
            <Time>2020-12-05T14:45:22.000Z</Time>
            <Position>
              <LatitudeDegrees>36.793081462383270263671875</LatitudeDegrees>
              <LongitudeDegrees>-4.3819635920226573944091796875</LongitudeDegrees>
            </Position>
            <AltitudeMeters>714</AltitudeMeters>
            <DistanceMeters>NAN</DistanceMeters>
          </Trackpoint>
          <Trackpoint>
            <Time>2020-12-05T14:45:23.000Z</Time>
            <Position>
              <LatitudeDegrees>36.7930839769542217254638671875</LatitudeDegrees>
              <LongitudeDegrees>-4.3819602392613887786865234375</LongitudeDegrees>
            </Position>
            <AltitudeMeters>713.79998779296875</AltitudeMeters>
            <DistanceMeters>NAN</DistanceMeters>
          </Trackpoint>
          <Trackpoint>
            <Time>2020-12-05T14:45:24.000Z</Time>
            <Position>
              <LatitudeDegrees>36.7930843122303485870361328125</LatitudeDegrees>
              <LongitudeDegrees>-4.3819592334330081939697265625</LongitudeDegrees>
            </Position>
            <AltitudeMeters>713.79998779296875</AltitudeMeters>
            <DistanceMeters>NAN</DistanceMeters>
          </Trackpoint>
          <Trackpoint>
            <Time>2020-12-05T14:45:25.000Z</Time>
            <Position>
              <LatitudeDegrees>36.793081462383270263671875</LatitudeDegrees>
              <LongitudeDegrees>-4.3819592334330081939697265625</LongitudeDegrees>
            </Position>
            <AltitudeMeters>713.79998779296875</AltitudeMeters>
            <DistanceMeters>NAN</DistanceMeters>
          </Trackpoint>
          <Trackpoint>
            <Time>2020-12-05T14:45:26.000Z</Time>
            <Position>
              <LatitudeDegrees>36.79308104328811168670654296875</LatitudeDegrees>
              <LongitudeDegrees>-4.3819599039852619171142578125</LongitudeDegrees>
            </Position>
            <AltitudeMeters>713.79998779296875</AltitudeMeters>
            <DistanceMeters>NAN</DistanceMeters>
          </Trackpoint>
          <Trackpoint>
            <Time>2020-12-05T14:45:27.000Z</Time>
            <Position>
              <LatitudeDegrees>36.79308137856423854827880859375</LatitudeDegrees>
              <LongitudeDegrees>-4.38196040689945220947265625</LongitudeDegrees>
            </Position>
            <AltitudeMeters>713.79998779296875</AltitudeMeters>
            <DistanceMeters>NAN</DistanceMeters>
          </Trackpoint>
          <Trackpoint>
            <Time>2020-12-05T14:45:28.000Z</Time>
            <Position>
              <LatitudeDegrees>36.7930836416780948638916015625</LatitudeDegrees>
              <LongitudeDegrees>-4.381963424384593963623046875</LongitudeDegrees>
            </Position>
            <AltitudeMeters>713.79998779296875</AltitudeMeters>
            <DistanceMeters>NAN</DistanceMeters>
          </Trackpoint>
          <Trackpoint>
            <Time>2020-12-05T14:45:29.000Z</Time>
            <Position>
              <LatitudeDegrees>36.793085150420665740966796875</LatitudeDegrees>
              <LongitudeDegrees>-4.381968118250370025634765625</LongitudeDegrees>
            </Position>
            <AltitudeMeters>713.79998779296875</AltitudeMeters>
            <DistanceMeters>NAN</DistanceMeters>
          </Trackpoint>
          <Trackpoint>
            <Time>2020-12-05T14:45:30.000Z</Time>
            <Position>
              <LatitudeDegrees>36.793092191219329833984375</LatitudeDegrees>
              <LongitudeDegrees>-4.3819645978510379791259765625</LongitudeDegrees>
            </Position>
            <AltitudeMeters>713.79998779296875</AltitudeMeters>
            <DistanceMeters>NAN</DistanceMeters>
          </Trackpoint>
          <Trackpoint>
            <Time>2020-12-05T14:45:31.000Z</Time>
            <Position>
              <LatitudeDegrees>36.79310652427375316619873046875</LatitudeDegrees>
              <LongitudeDegrees>-4.3819635920226573944091796875</LongitudeDegrees>
            </Position>
            <AltitudeMeters>713.79998779296875</AltitudeMeters>
            <DistanceMeters>NAN</DistanceMeters>
          </Trackpoint>
          <Trackpoint>
            <Time>2020-12-05T14:45:32.000Z</Time>
            <Position>
              <LatitudeDegrees>36.793111972510814666748046875</LatitudeDegrees>
              <LongitudeDegrees>-4.3819632567465305328369140625</LongitudeDegrees>
            </Position>
            <AltitudeMeters>713.79998779296875</AltitudeMeters>
            <DistanceMeters>NAN</DistanceMeters>
          </Trackpoint>
          <Trackpoint>
            <Time>2020-12-05T14:45:33.000Z</Time>
            <Position>
              <LatitudeDegrees>36.79311524145305156707763671875</LatitudeDegrees>
              <LongitudeDegrees>-4.38196216709911823272705078125</LongitudeDegrees>
            </Position>
            <AltitudeMeters>713.79998779296875</AltitudeMeters>
            <DistanceMeters>NAN</DistanceMeters>
          </Trackpoint>
          <Trackpoint>
            <Time>2020-12-05T14:45:34.000Z</Time>
            <Position>
              <LatitudeDegrees>36.79312714375555515289306640625</LatitudeDegrees>
              <LongitudeDegrees>-4.381961412727832794189453125</LongitudeDegrees>
            </Position>
            <AltitudeMeters>713.79998779296875</AltitudeMeters>
            <DistanceMeters>NAN</DistanceMeters>
          </Trackpoint>
          <Trackpoint>
            <Time>2020-12-05T14:45:35.000Z</Time>
            <Position>
              <LatitudeDegrees>36.79313368164002895355224609375</LatitudeDegrees>
              <LongitudeDegrees>-4.381960742175579071044921875</LongitudeDegrees>
            </Position>
            <AltitudeMeters>713.79998779296875</AltitudeMeters>
            <DistanceMeters>NAN</DistanceMeters>
          </Trackpoint>
          <Trackpoint>
            <Time>2020-12-05T14:45:36.000Z</Time>
            <Position>
              <LatitudeDegrees>36.79313971661031246185302734375</LatitudeDegrees>
              <LongitudeDegrees>-4.38195948489010334014892578125</LongitudeDegrees>
            </Position>
            <AltitudeMeters>713.79998779296875</AltitudeMeters>
            <DistanceMeters>NAN</DistanceMeters>
          </Trackpoint>
          <Trackpoint>
            <Time>2020-12-05T14:45:37.000Z</Time>
            <Position>
              <LatitudeDegrees>36.79314793087542057037353515625</LatitudeDegrees>
              <LongitudeDegrees>-4.38195847906172275543212890625</LongitudeDegrees>
            </Position>
            <AltitudeMeters>713.79998779296875</AltitudeMeters>
            <DistanceMeters>NAN</DistanceMeters>
          </Trackpoint>
          <Trackpoint>
            <Time>2020-12-05T14:45:38.000Z</Time>
            <Position>
              <LatitudeDegrees>36.79315388202667236328125</LatitudeDegrees>
              <LongitudeDegrees>-4.38195780850946903228759765625</LongitudeDegrees>
            </Position>
            <AltitudeMeters>713.79998779296875</AltitudeMeters>
            <DistanceMeters>NAN</DistanceMeters>
          </Trackpoint>
          <Trackpoint>
            <Time>2020-12-05T14:45:39.000Z</Time>
            <Position>
              <LatitudeDegrees>36.79315882734954357147216796875</LatitudeDegrees>
              <LongitudeDegrees>-4.3819583952426910400390625</LongitudeDegrees>
            </Position>
            <AltitudeMeters>713.79998779296875</AltitudeMeters>
            <DistanceMeters>NAN</DistanceMeters>
          </Trackpoint>
          <Trackpoint>
            <Time>2020-12-05T14:45:40.000Z</Time>
            <Position>
              <LatitudeDegrees>36.79316528141498565673828125</LatitudeDegrees>
              <LongitudeDegrees>-4.381958730518817901611328125</LongitudeDegrees>
            </Position>
            <AltitudeMeters>713.79998779296875</AltitudeMeters>
            <DistanceMeters>NAN</DistanceMeters>
          </Trackpoint>
          <Trackpoint>
            <Time>2020-12-05T14:45:41.000Z</Time>
            <Position>
              <LatitudeDegrees>36.79317123256623744964599609375</LatitudeDegrees>
              <LongitudeDegrees>-4.381957389414310455322265625</LongitudeDegrees>
            </Position>
            <AltitudeMeters>713.79998779296875</AltitudeMeters>
            <DistanceMeters>NAN</DistanceMeters>
          </Trackpoint>
          <Trackpoint>
            <Time>2020-12-05T14:45:42.000Z</Time>
            <Position>
              <LatitudeDegrees>36.7931751720607280731201171875</LatitudeDegrees>
              <LongitudeDegrees>-4.38195638358592987060546875</LongitudeDegrees>
            </Position>
            <AltitudeMeters>713.5999755859375</AltitudeMeters>
            <DistanceMeters>NAN</DistanceMeters>
          </Trackpoint>
          <Trackpoint>
            <Time>2020-12-05T14:45:43.000Z</Time>
            <Position>
              <LatitudeDegrees>36.7931775189936161041259765625</LatitudeDegrees>
              <LongitudeDegrees>-4.38195596449077129364013671875</LongitudeDegrees>
            </Position>
            <AltitudeMeters>713.5999755859375</AltitudeMeters>
            <DistanceMeters>NAN</DistanceMeters>
          </Trackpoint>
          <Trackpoint>
            <Time>2020-12-05T14:45:44.000Z</Time>
            <Position>
              <LatitudeDegrees>36.7931771837174892425537109375</LatitudeDegrees>
              <LongitudeDegrees>-4.3819557130336761474609375</LongitudeDegrees>
            </Position>
            <AltitudeMeters>711.5999755859375</AltitudeMeters>
            <DistanceMeters>NAN</DistanceMeters>
          </Trackpoint>
          <Trackpoint>
            <Time>2020-12-05T14:45:45.000Z</Time>
            <Position>
              <LatitudeDegrees>36.79317441768944263458251953125</LatitudeDegrees>
              <LongitudeDegrees>-4.38195680268108844757080078125</LongitudeDegrees>
            </Position>
            <AltitudeMeters>712.20001220703125</AltitudeMeters>
            <DistanceMeters>NAN</DistanceMeters>
          </Trackpoint>
          <Trackpoint>
            <Time>2020-12-05T14:45:46.000Z</Time>
            <Position>
              <LatitudeDegrees>36.79317056201398372650146484375</LatitudeDegrees>
              <LongitudeDegrees>-4.3819557130336761474609375</LongitudeDegrees>
            </Position>
            <AltitudeMeters>712.5999755859375</AltitudeMeters>
            <DistanceMeters>NAN</DistanceMeters>
          </Trackpoint>
          <Trackpoint>
            <Time>2020-12-05T14:45:47.000Z</Time>
            <Position>
              <LatitudeDegrees>36.79316469468176364898681640625</LatitudeDegrees>
              <LongitudeDegrees>-4.38195579685270786285400390625</LongitudeDegrees>
            </Position>
            <AltitudeMeters>712.79998779296875</AltitudeMeters>
            <DistanceMeters>NAN</DistanceMeters>
          </Trackpoint>
          <Trackpoint>
            <Time>2020-12-05T14:45:48.000Z</Time>
            <Position>
              <LatitudeDegrees>36.79316218011081218719482421875</LatitudeDegrees>
              <LongitudeDegrees>-4.3819562159478664398193359375</LongitudeDegrees>
            </Position>
            <AltitudeMeters>712.79998779296875</AltitudeMeters>
            <DistanceMeters>NAN</DistanceMeters>
          </Trackpoint>
          <Trackpoint>
            <Time>2020-12-05T14:45:49.000Z</Time>
            <Position>
              <LatitudeDegrees>36.7931614257395267486572265625</LatitudeDegrees>
              <LongitudeDegrees>-4.3819538690149784088134765625</LongitudeDegrees>
            </Position>
            <AltitudeMeters>713</AltitudeMeters>
            <DistanceMeters>NAN</DistanceMeters>
          </Trackpoint>
          <Trackpoint>
            <Time>2020-12-05T14:45:50.000Z</Time>
            <Position>
              <LatitudeDegrees>36.793161593377590179443359375</LatitudeDegrees>
              <LongitudeDegrees>-4.3819535337388515472412109375</LongitudeDegrees>
            </Position>
            <AltitudeMeters>713</AltitudeMeters>
            <DistanceMeters>NAN</DistanceMeters>
          </Trackpoint>
          <Trackpoint>
            <Time>2020-12-05T14:45:51.000Z</Time>
            <Position>
              <LatitudeDegrees>36.7931604199111461639404296875</LatitudeDegrees>
              <LongitudeDegrees>-4.38195705413818359375</LongitudeDegrees>
            </Position>
            <AltitudeMeters>713</AltitudeMeters>
            <DistanceMeters>NAN</DistanceMeters>
          </Trackpoint>
          <Trackpoint>
            <Time>2020-12-05T14:45:52.000Z</Time>
            <Position>
              <LatitudeDegrees>36.7931579053401947021484375</LatitudeDegrees>
              <LongitudeDegrees>-4.38195948489010334014892578125</LongitudeDegrees>
            </Position>
            <AltitudeMeters>713</AltitudeMeters>
            <DistanceMeters>NAN</DistanceMeters>
          </Trackpoint>
          <Trackpoint>
            <Time>2020-12-05T14:45:53.000Z</Time>
            <Position>
              <LatitudeDegrees>36.79315547458827495574951171875</LatitudeDegrees>
              <LongitudeDegrees>-4.381962753832340240478515625</LongitudeDegrees>
            </Position>
            <AltitudeMeters>713</AltitudeMeters>
            <DistanceMeters>NAN</DistanceMeters>
          </Trackpoint>
          <Trackpoint>
            <Time>2020-12-05T14:45:54.000Z</Time>
            <Position>
              <LatitudeDegrees>36.79315497167408466339111328125</LatitudeDegrees>
              <LongitudeDegrees>-4.3819649331271648406982421875</LongitudeDegrees>
            </Position>
            <AltitudeMeters>713</AltitudeMeters>
            <DistanceMeters>NAN</DistanceMeters>
          </Trackpoint>
          <Trackpoint>
            <Time>2020-12-05T14:45:55.000Z</Time>
            <Position>
              <LatitudeDegrees>36.79315547458827495574951171875</LatitudeDegrees>
              <LongitudeDegrees>-4.3819676153361797332763671875</LongitudeDegrees>
            </Position>
            <AltitudeMeters>713</AltitudeMeters>
            <DistanceMeters>NAN</DistanceMeters>
          </Trackpoint>
          <Trackpoint>
            <Time>2020-12-05T14:45:56.000Z</Time>
            <Position>
              <LatitudeDegrees>36.79315589368343353271484375</LatitudeDegrees>
              <LongitudeDegrees>-4.38196845352649688720703125</LongitudeDegrees>
            </Position>
            <AltitudeMeters>713</AltitudeMeters>
            <DistanceMeters>NAN</DistanceMeters>
          </Trackpoint>
          <Trackpoint>
            <Time>2020-12-05T14:45:57.000Z</Time>
            <Position>
              <LatitudeDegrees>36.79315564222633838653564453125</LatitudeDegrees>
              <LongitudeDegrees>-4.38196887262165546417236328125</LongitudeDegrees>
            </Position>
            <AltitudeMeters>713</AltitudeMeters>
            <DistanceMeters>NAN</DistanceMeters>
          </Trackpoint>
          <Trackpoint>
            <Time>2020-12-05T14:45:58.000Z</Time>
            <Position>
              <LatitudeDegrees>36.793153546750545501708984375</LatitudeDegrees>
              <LongitudeDegrees>-4.38197314739227294921875</LongitudeDegrees>
            </Position>
            <AltitudeMeters>713</AltitudeMeters>
            <DistanceMeters>NAN</DistanceMeters>
          </Trackpoint>
          <Trackpoint>
            <Time>2020-12-05T14:45:59.000Z</Time>
            <Position>
              <LatitudeDegrees>36.79314927197992801666259765625</LatitudeDegrees>
              <LongitudeDegrees>-4.38197976909577846527099609375</LongitudeDegrees>
            </Position>
            <AltitudeMeters>713</AltitudeMeters>
            <DistanceMeters>NAN</DistanceMeters>
          </Trackpoint>
          <Trackpoint>
            <Time>2020-12-05T14:46:00.000Z</Time>
            <Position>
              <LatitudeDegrees>36.79314793087542057037353515625</LatitudeDegrees>
              <LongitudeDegrees>-4.38198379240930080413818359375</LongitudeDegrees>
            </Position>
            <AltitudeMeters>713</AltitudeMeters>
            <DistanceMeters>NAN</DistanceMeters>
          </Trackpoint>
          <Trackpoint>
            <Time>2020-12-05T14:46:01.000Z</Time>
            <Position>
              <LatitudeDegrees>36.793144829571247100830078125</LatitudeDegrees>
              <LongitudeDegrees>-4.3819847144186496734619140625</LongitudeDegrees>
            </Position>
            <AltitudeMeters>713</AltitudeMeters>
            <DistanceMeters>NAN</DistanceMeters>
          </Trackpoint>
          <Trackpoint>
            <Time>2020-12-05T14:46:02.000Z</Time>
            <Position>
              <LatitudeDegrees>36.79314105771481990814208984375</LatitudeDegrees>
              <LongitudeDegrees>-4.3819837085902690887451171875</LongitudeDegrees>
            </Position>
            <AltitudeMeters>713</AltitudeMeters>
            <DistanceMeters>NAN</DistanceMeters>
          </Trackpoint>
          <Trackpoint>
            <Time>2020-12-05T14:46:03.000Z</Time>
            <Position>
              <LatitudeDegrees>36.79313736967742443084716796875</LatitudeDegrees>
              <LongitudeDegrees>-4.3819837085902690887451171875</LongitudeDegrees>
            </Position>
            <AltitudeMeters>713</AltitudeMeters>
            <DistanceMeters>NAN</DistanceMeters>
          </Trackpoint>
          <Trackpoint>
            <Time>2020-12-05T14:46:04.000Z</Time>
            <Position>
              <LatitudeDegrees>36.79313016124069690704345703125</LatitudeDegrees>
              <LongitudeDegrees>-4.3819679506123065948486328125</LongitudeDegrees>
            </Position>
            <AltitudeMeters>713</AltitudeMeters>
            <DistanceMeters>NAN</DistanceMeters>
          </Trackpoint>
          <Trackpoint>
            <Time>2020-12-05T14:46:05.000Z</Time>
            <Position>
              <LatitudeDegrees>36.79312429390847682952880859375</LatitudeDegrees>
              <LongitudeDegrees>-4.381964765489101409912109375</LongitudeDegrees>
            </Position>
            <AltitudeMeters>713</AltitudeMeters>
            <DistanceMeters>NAN</DistanceMeters>
          </Trackpoint>
          <Trackpoint>
            <Time>2020-12-05T14:46:06.000Z</Time>
            <Position>
              <LatitudeDegrees>36.7931225337088108062744140625</LatitudeDegrees>
              <LongitudeDegrees>-4.38196283765137195587158203125</LongitudeDegrees>
            </Position>
            <AltitudeMeters>713</AltitudeMeters>
            <DistanceMeters>NAN</DistanceMeters>
          </Trackpoint>
          <Trackpoint>
            <Time>2020-12-05T14:46:07.000Z</Time>
            <Position>
              <LatitudeDegrees>36.79312295280396938323974609375</LatitudeDegrees>
              <LongitudeDegrees>-4.38195797614753246307373046875</LongitudeDegrees>
            </Position>
            <AltitudeMeters>713</AltitudeMeters>
            <DistanceMeters>NAN</DistanceMeters>
          </Trackpoint>
          <Trackpoint>
            <Time>2020-12-05T14:46:08.000Z</Time>
            <Position>
              <LatitudeDegrees>36.7931310832500457763671875</LatitudeDegrees>
              <LongitudeDegrees>-4.38195638358592987060546875</LongitudeDegrees>
            </Position>
            <AltitudeMeters>713</AltitudeMeters>
            <DistanceMeters>NAN</DistanceMeters>
          </Trackpoint>
          <Trackpoint>
            <Time>2020-12-05T14:46:09.000Z</Time>
            <Position>
              <LatitudeDegrees>36.7931520380079746246337890625</LatitudeDegrees>
              <LongitudeDegrees>-4.38196635805070400238037109375</LongitudeDegrees>
            </Position>
            <AltitudeMeters>713</AltitudeMeters>
            <DistanceMeters>NAN</DistanceMeters>
          </Trackpoint>
          <Trackpoint>
            <Time>2020-12-05T14:46:10.000Z</Time>
            <Position>
              <LatitudeDegrees>36.79316100664436817169189453125</LatitudeDegrees>
              <LongitudeDegrees>-4.381975494325160980224609375</LongitudeDegrees>
            </Position>
            <AltitudeMeters>713</AltitudeMeters>
            <DistanceMeters>NAN</DistanceMeters>
          </Trackpoint>
          <Trackpoint>
            <Time>2020-12-05T14:46:11.000Z</Time>
            <Position>
              <LatitudeDegrees>36.79316402412950992584228515625</LatitudeDegrees>
              <LongitudeDegrees>-4.38197256065905094146728515625</LongitudeDegrees>
            </Position>
            <AltitudeMeters>713</AltitudeMeters>
            <DistanceMeters>NAN</DistanceMeters>
          </Trackpoint>
        </Track>
      </Lap>
    </Activity>
  </Activities>
</TrainingCenterDatabase>
